<?xml version="1.0" encoding="UTF-8"?>
<gpx version="1.1" creator="https://www.youtrack.es" xsi:schemaLocation="http://www.topografix.com/GPX/1/1 http://www.topografix.com/GPX/1/1/gpx.xsd http://www.garmin.com/xmlschemas/GpxExtensions/v3 http://www.garmin.com/xmlschemas/GpxExtensionsv3.xsd http://www.garmin.com/xmlschemas/TrackPointExtension/v1 http://www.garmin.com/xmlschemas/TrackPointExtensionv1.xsd" xmlns:gpxtpx="http://www.garmin.com/xmlschemas/TrackPointExtension/v1" xmlns:gpxx="http://www.garmin.com/xmlschemas/GpxExtensions/v3" xmlns:xsi="http://www.w3.org/2001/XMLSchema-instance">
  <metadata>
    <link href="https://www.youtrack.es">
      <text>YouTrack.es</text>
    </link>
    <time>2026-05-08T14:54:09Z</time>
  </metadata>
  <trk>
    <src>https://www.youtrack.es</src>
    <link href="https://www.youtrack.es/ruta/5890-ronda">
      <text>YouTrack.es</text>
    </link>
    <trkseg>
      <trkpt lat="36.7499771118164" lon="-5.14799308776856">
        <ele>706</ele>
        <time>2019-05-11T09:06:04Z</time>
      </trkpt>
      <trkpt lat="36.7499885559082" lon="-5.14799022674561">
        <ele>706</ele>
        <time>2019-05-11T09:06:06Z</time>
      </trkpt>
      <trkpt lat="36.7500038146973" lon="-5.14799213409424">
        <ele>706</ele>
        <time>2019-05-11T09:06:08Z</time>
      </trkpt>
      <trkpt lat="36.7500152587891" lon="-5.14799690246582">
        <ele>706</ele>
        <time>2019-05-11T09:06:10Z</time>
      </trkpt>
      <trkpt lat="36.7500267028809" lon="-5.14799690246582">
        <ele>706</ele>
        <time>2019-05-11T09:06:12Z</time>
      </trkpt>
      <trkpt lat="36.7500381469727" lon="-5.14799499511719">
        <ele>706</ele>
        <time>2019-05-11T09:06:14Z</time>
      </trkpt>
      <trkpt lat="36.7500495910644" lon="-5.14799785614014">
        <ele>706</ele>
        <time>2019-05-11T09:06:16Z</time>
      </trkpt>
      <trkpt lat="36.7500686645508" lon="-5.14800786972046">
        <ele>706</ele>
        <time>2019-05-11T09:06:18Z</time>
      </trkpt>
      <trkpt lat="36.7500762939453" lon="-5.14801788330078">
        <ele>706</ele>
        <time>2019-05-11T09:06:20Z</time>
      </trkpt>
      <trkpt lat="36.7500839233398" lon="-5.14801979064941">
        <ele>706</ele>
        <time>2019-05-11T09:06:22Z</time>
      </trkpt>
      <trkpt lat="36.7500915527344" lon="-5.14801788330078">
        <ele>706</ele>
        <time>2019-05-11T09:06:24Z</time>
      </trkpt>
      <trkpt lat="36.7500991821289" lon="-5.14801979064941">
        <ele>706</ele>
        <time>2019-05-11T09:06:26Z</time>
      </trkpt>
      <trkpt lat="36.7501068115234" lon="-5.14802312850952">
        <ele>706</ele>
        <time>2019-05-11T09:06:28Z</time>
      </trkpt>
      <trkpt lat="36.750114440918" lon="-5.14802312850952">
        <ele>706</ele>
        <time>2019-05-11T09:06:30Z</time>
      </trkpt>
      <trkpt lat="36.7501182556152" lon="-5.14802503585815">
        <ele>706</ele>
        <time>2019-05-11T09:06:32Z</time>
      </trkpt>
      <trkpt lat="36.7501258850098" lon="-5.1480278968811">
        <ele>706</ele>
        <time>2019-05-11T09:06:34Z</time>
      </trkpt>
      <trkpt lat="36.7501335144043" lon="-5.14802980422974">
        <ele>706</ele>
        <time>2019-05-11T09:06:36Z</time>
      </trkpt>
      <trkpt lat="36.7501335144043" lon="-5.14803218841553">
        <ele>706</ele>
        <time>2019-05-11T09:06:38Z</time>
      </trkpt>
      <trkpt lat="36.7501373291016" lon="-5.14803695678711">
        <ele>706</ele>
        <time>2019-05-11T09:06:40Z</time>
      </trkpt>
      <trkpt lat="36.7501411437988" lon="-5.14803695678711">
        <ele>706</ele>
        <time>2019-05-11T09:06:43Z</time>
      </trkpt>
      <trkpt lat="36.7501411437988" lon="-5.14804220199585">
        <ele>706</ele>
        <time>2019-05-11T09:06:45Z</time>
      </trkpt>
      <trkpt lat="36.7501449584961" lon="-5.14804315567017">
        <ele>706</ele>
        <time>2019-05-11T09:06:47Z</time>
      </trkpt>
      <trkpt lat="36.7501487731934" lon="-5.1480450630188">
        <ele>706</ele>
        <time>2019-05-11T09:06:49Z</time>
      </trkpt>
      <trkpt lat="36.7501487731934" lon="-5.14804697036743">
        <ele>706</ele>
        <time>2019-05-11T09:06:51Z</time>
      </trkpt>
      <trkpt lat="36.7501564025879" lon="-5.14804983139038">
        <ele>706</ele>
        <time>2019-05-11T09:06:53Z</time>
      </trkpt>
      <trkpt lat="36.7501602172852" lon="-5.14804792404175">
        <ele>706</ele>
        <time>2019-05-11T09:06:55Z</time>
      </trkpt>
      <trkpt lat="36.7501564025879" lon="-5.14803218841553">
        <ele>706</ele>
        <time>2019-05-11T09:06:57Z</time>
      </trkpt>
      <trkpt lat="36.7501564025879" lon="-5.14803314208984">
        <ele>706</ele>
        <time>2019-05-11T09:06:59Z</time>
      </trkpt>
      <trkpt lat="36.7501564025879" lon="-5.14803314208984">
        <ele>706</ele>
        <time>2019-05-11T09:07:01Z</time>
      </trkpt>
      <trkpt lat="36.7501564025879" lon="-5.14804220199585">
        <ele>706</ele>
        <time>2019-05-11T09:07:03Z</time>
      </trkpt>
      <trkpt lat="36.7501564025879" lon="-5.1480450630188">
        <ele>706</ele>
        <time>2019-05-11T09:07:05Z</time>
      </trkpt>
      <trkpt lat="36.7501602172852" lon="-5.14805221557617">
        <ele>706</ele>
        <time>2019-05-11T09:07:07Z</time>
      </trkpt>
      <trkpt lat="36.7501602172852" lon="-5.14805507659912">
        <ele>706</ele>
        <time>2019-05-11T09:07:09Z</time>
      </trkpt>
      <trkpt lat="36.7501640319824" lon="-5.14806795120239">
        <ele>706</ele>
        <time>2019-05-11T09:07:11Z</time>
      </trkpt>
      <trkpt lat="36.7501640319824" lon="-5.14807987213135">
        <ele>706</ele>
        <time>2019-05-11T09:07:13Z</time>
      </trkpt>
      <trkpt lat="36.7501640319824" lon="-5.14808702468872">
        <ele>706</ele>
        <time>2019-05-11T09:07:15Z</time>
      </trkpt>
      <trkpt lat="36.7501602172852" lon="-5.14809513092041">
        <ele>706</ele>
        <time>2019-05-11T09:07:17Z</time>
      </trkpt>
      <trkpt lat="36.7501602172852" lon="-5.14809799194336">
        <ele>706</ele>
        <time>2019-05-11T09:07:19Z</time>
      </trkpt>
      <trkpt lat="36.7501640319824" lon="-5.14810514450073">
        <ele>706</ele>
        <time>2019-05-11T09:07:21Z</time>
      </trkpt>
      <trkpt lat="36.7501678466797" lon="-5.14811182022095">
        <ele>706</ele>
        <time>2019-05-11T09:07:23Z</time>
      </trkpt>
      <trkpt lat="36.7501678466797" lon="-5.14811992645264">
        <ele>706</ele>
        <time>2019-05-11T09:07:25Z</time>
      </trkpt>
      <trkpt lat="36.750171661377" lon="-5.14812803268433">
        <ele>706</ele>
        <time>2019-05-11T09:07:28Z</time>
      </trkpt>
      <trkpt lat="36.750171661377" lon="-5.14813804626465">
        <ele>706</ele>
        <time>2019-05-11T09:07:30Z</time>
      </trkpt>
      <trkpt lat="36.750171661377" lon="-5.14814281463623">
        <ele>706</ele>
        <time>2019-05-11T09:07:32Z</time>
      </trkpt>
      <trkpt lat="36.7501754760742" lon="-5.14815187454224">
        <ele>706</ele>
        <time>2019-05-11T09:07:34Z</time>
      </trkpt>
      <trkpt lat="36.7501792907715" lon="-5.14815711975098">
        <ele>706</ele>
        <time>2019-05-11T09:07:36Z</time>
      </trkpt>
      <trkpt lat="36.7501792907715" lon="-5.14816284179688">
        <ele>706</ele>
        <time>2019-05-11T09:07:38Z</time>
      </trkpt>
      <trkpt lat="36.7501831054688" lon="-5.14816999435425">
        <ele>706</ele>
        <time>2019-05-11T09:07:40Z</time>
      </trkpt>
      <trkpt lat="36.750186920166" lon="-5.14817190170288">
        <ele>706</ele>
        <time>2019-05-11T09:07:42Z</time>
      </trkpt>
      <trkpt lat="36.750186920166" lon="-5.14817810058594">
        <ele>706</ele>
        <time>2019-05-11T09:07:44Z</time>
      </trkpt>
      <trkpt lat="36.7501907348633" lon="-5.1481819152832">
        <ele>706</ele>
        <time>2019-05-11T09:07:46Z</time>
      </trkpt>
      <trkpt lat="36.7501907348633" lon="-5.14819192886353">
        <ele>706</ele>
        <time>2019-05-11T09:07:48Z</time>
      </trkpt>
      <trkpt lat="36.7501983642578" lon="-5.14819288253784">
        <ele>706</ele>
        <time>2019-05-11T09:07:50Z</time>
      </trkpt>
      <trkpt lat="36.7501983642578" lon="-5.14820194244385">
        <ele>706</ele>
        <time>2019-05-11T09:07:52Z</time>
      </trkpt>
      <trkpt lat="36.7502021789551" lon="-5.14821004867554">
        <ele>706</ele>
        <time>2019-05-11T09:07:54Z</time>
      </trkpt>
      <trkpt lat="36.7501983642578" lon="-5.14821481704712">
        <ele>706</ele>
        <time>2019-05-11T09:07:56Z</time>
      </trkpt>
      <trkpt lat="36.7501945495606" lon="-5.14822721481323">
        <ele>706</ele>
        <time>2019-05-11T09:07:58Z</time>
      </trkpt>
      <trkpt lat="36.7501945495606" lon="-5.14823484420776">
        <ele>706</ele>
        <time>2019-05-11T09:08:01Z</time>
      </trkpt>
      <trkpt lat="36.7501945495606" lon="-5.14824676513672">
        <ele>706</ele>
        <time>2019-05-11T09:08:03Z</time>
      </trkpt>
      <trkpt lat="36.7501983642578" lon="-5.14825677871704">
        <ele>706</ele>
        <time>2019-05-11T09:08:05Z</time>
      </trkpt>
      <trkpt lat="36.7501983642578" lon="-5.14826202392578">
        <ele>706</ele>
        <time>2019-05-11T09:08:07Z</time>
      </trkpt>
      <trkpt lat="36.7502021789551" lon="-5.14827489852905">
        <ele>706</ele>
        <time>2019-05-11T09:08:09Z</time>
      </trkpt>
      <trkpt lat="36.7502059936523" lon="-5.14828300476074">
        <ele>706</ele>
        <time>2019-05-11T09:08:11Z</time>
      </trkpt>
      <trkpt lat="36.7502059936523" lon="-5.14828681945801">
        <ele>706</ele>
        <time>2019-05-11T09:08:13Z</time>
      </trkpt>
      <trkpt lat="36.7502136230469" lon="-5.14829015731812">
        <ele>706</ele>
        <time>2019-05-11T09:08:15Z</time>
      </trkpt>
      <trkpt lat="36.7502212524414" lon="-5.14829015731812">
        <ele>706</ele>
        <time>2019-05-11T09:08:17Z</time>
      </trkpt>
      <trkpt lat="36.7502250671387" lon="-5.14829015731812">
        <ele>706</ele>
        <time>2019-05-11T09:08:19Z</time>
      </trkpt>
      <trkpt lat="36.7502288818359" lon="-5.14829206466675">
        <ele>706</ele>
        <time>2019-05-11T09:08:21Z</time>
      </trkpt>
      <trkpt lat="36.750244140625" lon="-5.14830017089844">
        <ele>706</ele>
        <time>2019-05-11T09:08:23Z</time>
      </trkpt>
      <trkpt lat="36.7502555847168" lon="-5.14830207824707">
        <ele>706</ele>
        <time>2019-05-11T09:08:25Z</time>
      </trkpt>
      <trkpt lat="36.7502593994141" lon="-5.14830303192139">
        <ele>706</ele>
        <time>2019-05-11T09:08:27Z</time>
      </trkpt>
      <trkpt lat="36.7502784729004" lon="-5.14829301834106">
        <ele>706</ele>
        <time>2019-05-11T09:08:29Z</time>
      </trkpt>
      <trkpt lat="36.7502975463867" lon="-5.14829301834106">
        <ele>706</ele>
        <time>2019-05-11T09:08:31Z</time>
      </trkpt>
      <trkpt lat="36.7503204345703" lon="-5.14829301834106">
        <ele>706</ele>
        <time>2019-05-11T09:08:33Z</time>
      </trkpt>
      <trkpt lat="36.7503471374512" lon="-5.14829778671265">
        <ele>706</ele>
        <time>2019-05-11T09:08:35Z</time>
      </trkpt>
      <trkpt lat="36.750373840332" lon="-5.14830493927002">
        <ele>706</ele>
        <time>2019-05-11T09:08:37Z</time>
      </trkpt>
      <trkpt lat="36.7503967285156" lon="-5.14830780029297">
        <ele>706</ele>
        <time>2019-05-11T09:08:39Z</time>
      </trkpt>
      <trkpt lat="36.7504196166992" lon="-5.14830780029297">
        <ele>706</ele>
        <time>2019-05-11T09:08:42Z</time>
      </trkpt>
      <trkpt lat="36.7504425048828" lon="-5.14831304550171">
        <ele>706</ele>
        <time>2019-05-11T09:08:44Z</time>
      </trkpt>
      <trkpt lat="36.7504615783691" lon="-5.14831018447876">
        <ele>706</ele>
        <time>2019-05-11T09:08:46Z</time>
      </trkpt>
      <trkpt lat="36.7504844665527" lon="-5.14830684661865">
        <ele>706</ele>
        <time>2019-05-11T09:08:48Z</time>
      </trkpt>
      <trkpt lat="36.7505035400391" lon="-5.14830493927002">
        <ele>706</ele>
        <time>2019-05-11T09:08:50Z</time>
      </trkpt>
      <trkpt lat="36.7505226135254" lon="-5.14831209182739">
        <ele>706</ele>
        <time>2019-05-11T09:08:52Z</time>
      </trkpt>
      <trkpt lat="36.7505416870117" lon="-5.14831781387329">
        <ele>706</ele>
        <time>2019-05-11T09:08:54Z</time>
      </trkpt>
      <trkpt lat="36.7505569458008" lon="-5.14831304550171">
        <ele>706</ele>
        <time>2019-05-11T09:08:56Z</time>
      </trkpt>
      <trkpt lat="36.7505836486816" lon="-5.14832019805908">
        <ele>706</ele>
        <time>2019-05-11T09:08:58Z</time>
      </trkpt>
      <trkpt lat="36.7505989074707" lon="-5.14832305908203">
        <ele>706</ele>
        <time>2019-05-11T09:09:00Z</time>
      </trkpt>
      <trkpt lat="36.750617980957" lon="-5.14832782745361">
        <ele>706</ele>
        <time>2019-05-11T09:09:02Z</time>
      </trkpt>
      <trkpt lat="36.7506332397461" lon="-5.14833307266235">
        <ele>706</ele>
        <time>2019-05-11T09:09:04Z</time>
      </trkpt>
      <trkpt lat="36.7506561279297" lon="-5.14833688735962">
        <ele>706</ele>
        <time>2019-05-11T09:09:06Z</time>
      </trkpt>
      <trkpt lat="36.750675201416" lon="-5.14834213256836">
        <ele>706</ele>
        <time>2019-05-11T09:09:08Z</time>
      </trkpt>
      <trkpt lat="36.7506866455078" lon="-5.14833688735962">
        <ele>706</ele>
        <time>2019-05-11T09:09:10Z</time>
      </trkpt>
      <trkpt lat="36.7506942749023" lon="-5.14833784103394">
        <ele>706</ele>
        <time>2019-05-11T09:09:12Z</time>
      </trkpt>
      <trkpt lat="36.7507057189941" lon="-5.14834022521973">
        <ele>706</ele>
        <time>2019-05-11T09:09:14Z</time>
      </trkpt>
      <trkpt lat="36.7507171630859" lon="-5.14834213256836">
        <ele>706</ele>
        <time>2019-05-11T09:09:16Z</time>
      </trkpt>
      <trkpt lat="36.7507286071777" lon="-5.14834976196289">
        <ele>706</ele>
        <time>2019-05-11T09:09:18Z</time>
      </trkpt>
      <trkpt lat="36.7507476806641" lon="-5.14835500717163">
        <ele>706</ele>
        <time>2019-05-11T09:09:21Z</time>
      </trkpt>
      <trkpt lat="36.7507629394531" lon="-5.14835977554321">
        <ele>706</ele>
        <time>2019-05-11T09:09:23Z</time>
      </trkpt>
      <trkpt lat="36.7507781982422" lon="-5.14836692810059">
        <ele>706</ele>
        <time>2019-05-11T09:09:25Z</time>
      </trkpt>
      <trkpt lat="36.750789642334" lon="-5.14837694168091">
        <ele>706</ele>
        <time>2019-05-11T09:09:27Z</time>
      </trkpt>
      <trkpt lat="36.750804901123" lon="-5.14840221405029">
        <ele>706</ele>
        <time>2019-05-11T09:09:29Z</time>
      </trkpt>
      <trkpt lat="36.7508087158203" lon="-5.1484317779541">
        <ele>706</ele>
        <time>2019-05-11T09:09:31Z</time>
      </trkpt>
      <trkpt lat="36.7508125305176" lon="-5.14846801757812">
        <ele>706</ele>
        <time>2019-05-11T09:09:33Z</time>
      </trkpt>
      <trkpt lat="36.7508239746094" lon="-5.14850997924805">
        <ele>706</ele>
        <time>2019-05-11T09:09:35Z</time>
      </trkpt>
      <trkpt lat="36.750846862793" lon="-5.14855813980103">
        <ele>706</ele>
        <time>2019-05-11T09:09:37Z</time>
      </trkpt>
      <trkpt lat="36.7508544921875" lon="-5.14859199523926">
        <ele>706</ele>
        <time>2019-05-11T09:09:39Z</time>
      </trkpt>
      <trkpt lat="36.7508659362793" lon="-5.14862012863159">
        <ele>706</ele>
        <time>2019-05-11T09:09:41Z</time>
      </trkpt>
      <trkpt lat="36.7508735656738" lon="-5.14864683151245">
        <ele>706</ele>
        <time>2019-05-11T09:09:43Z</time>
      </trkpt>
      <trkpt lat="36.7508811950684" lon="-5.14867782592773">
        <ele>706</ele>
        <time>2019-05-11T09:09:45Z</time>
      </trkpt>
      <trkpt lat="36.7508926391602" lon="-5.14871311187744">
        <ele>706</ele>
        <time>2019-05-11T09:09:47Z</time>
      </trkpt>
      <trkpt lat="36.7509002685547" lon="-5.14874696731567">
        <ele>706</ele>
        <time>2019-05-11T09:09:49Z</time>
      </trkpt>
      <trkpt lat="36.7509117126465" lon="-5.1487832069397">
        <ele>706</ele>
        <time>2019-05-11T09:09:51Z</time>
      </trkpt>
      <trkpt lat="36.7509155273438" lon="-5.14882183074951">
        <ele>706</ele>
        <time>2019-05-11T09:09:53Z</time>
      </trkpt>
      <trkpt lat="36.7509231567383" lon="-5.1488618850708">
        <ele>706</ele>
        <time>2019-05-11T09:09:55Z</time>
      </trkpt>
      <trkpt lat="36.7509269714356" lon="-5.14889812469482">
        <ele>706</ele>
        <time>2019-05-11T09:09:58Z</time>
      </trkpt>
      <trkpt lat="36.7509307861328" lon="-5.14893484115601">
        <ele>706</ele>
        <time>2019-05-11T09:10:00Z</time>
      </trkpt>
      <trkpt lat="36.7509384155273" lon="-5.14897298812866">
        <ele>706</ele>
        <time>2019-05-11T09:10:02Z</time>
      </trkpt>
      <trkpt lat="36.7509346008301" lon="-5.14901494979858">
        <ele>706</ele>
        <time>2019-05-11T09:10:04Z</time>
      </trkpt>
      <trkpt lat="36.7509346008301" lon="-5.14905023574829">
        <ele>706</ele>
        <time>2019-05-11T09:10:06Z</time>
      </trkpt>
      <trkpt lat="36.7509269714356" lon="-5.14908504486084">
        <ele>707</ele>
        <time>2019-05-11T09:10:08Z</time>
      </trkpt>
      <trkpt lat="36.750919342041" lon="-5.14911794662476">
        <ele>708</ele>
        <time>2019-05-11T09:10:10Z</time>
      </trkpt>
      <trkpt lat="36.7509117126465" lon="-5.14915800094604">
        <ele>709</ele>
        <time>2019-05-11T09:10:12Z</time>
      </trkpt>
      <trkpt lat="36.7509078979492" lon="-5.14921522140503">
        <ele>711</ele>
        <time>2019-05-11T09:10:14Z</time>
      </trkpt>
      <trkpt lat="36.750904083252" lon="-5.14924716949463">
        <ele>713</ele>
        <time>2019-05-11T09:10:16Z</time>
      </trkpt>
      <trkpt lat="36.750904083252" lon="-5.1492772102356">
        <ele>715</ele>
        <time>2019-05-11T09:10:18Z</time>
      </trkpt>
      <trkpt lat="36.7509078979492" lon="-5.14931201934814">
        <ele>716</ele>
        <time>2019-05-11T09:10:20Z</time>
      </trkpt>
      <trkpt lat="36.7509117126465" lon="-5.14934492111206">
        <ele>718</ele>
        <time>2019-05-11T09:10:22Z</time>
      </trkpt>
      <trkpt lat="36.7509117126465" lon="-5.14937782287598">
        <ele>719</ele>
        <time>2019-05-11T09:10:24Z</time>
      </trkpt>
      <trkpt lat="36.7509231567383" lon="-5.14941215515137">
        <ele>719</ele>
        <time>2019-05-11T09:10:26Z</time>
      </trkpt>
      <trkpt lat="36.7509384155273" lon="-5.14944314956665">
        <ele>720</ele>
        <time>2019-05-11T09:10:28Z</time>
      </trkpt>
      <trkpt lat="36.7509498596191" lon="-5.14947319030762">
        <ele>720</ele>
        <time>2019-05-11T09:10:30Z</time>
      </trkpt>
      <trkpt lat="36.7509613037109" lon="-5.14950799942017">
        <ele>720</ele>
        <time>2019-05-11T09:10:32Z</time>
      </trkpt>
      <trkpt lat="36.7509765625" lon="-5.14953994750977">
        <ele>720</ele>
        <time>2019-05-11T09:10:34Z</time>
      </trkpt>
      <trkpt lat="36.7509841918945" lon="-5.14957284927368">
        <ele>720</ele>
        <time>2019-05-11T09:10:37Z</time>
      </trkpt>
      <trkpt lat="36.7509880065918" lon="-5.14960813522339">
        <ele>720</ele>
        <time>2019-05-11T09:10:39Z</time>
      </trkpt>
      <trkpt lat="36.7509841918945" lon="-5.14964199066162">
        <ele>720</ele>
        <time>2019-05-11T09:10:41Z</time>
      </trkpt>
      <trkpt lat="36.7509918212891" lon="-5.14967489242554">
        <ele>720</ele>
        <time>2019-05-11T09:10:43Z</time>
      </trkpt>
      <trkpt lat="36.7510032653809" lon="-5.14970779418945">
        <ele>720</ele>
        <time>2019-05-11T09:10:45Z</time>
      </trkpt>
      <trkpt lat="36.7510147094727" lon="-5.14974021911621">
        <ele>721</ele>
        <time>2019-05-11T09:10:47Z</time>
      </trkpt>
      <trkpt lat="36.7510223388672" lon="-5.14977216720581">
        <ele>721</ele>
        <time>2019-05-11T09:10:49Z</time>
      </trkpt>
      <trkpt lat="36.751033782959" lon="-5.14980697631836">
        <ele>721</ele>
        <time>2019-05-11T09:10:51Z</time>
      </trkpt>
      <trkpt lat="36.7510566711426" lon="-5.14986276626587">
        <ele>721</ele>
        <time>2019-05-11T09:10:53Z</time>
      </trkpt>
      <trkpt lat="36.7510681152344" lon="-5.14990186691284">
        <ele>721</ele>
        <time>2019-05-11T09:10:55Z</time>
      </trkpt>
      <trkpt lat="36.7510795593262" lon="-5.1499400138855">
        <ele>721</ele>
        <time>2019-05-11T09:10:57Z</time>
      </trkpt>
      <trkpt lat="36.7510871887207" lon="-5.14997720718384">
        <ele>721</ele>
        <time>2019-05-11T09:10:59Z</time>
      </trkpt>
      <trkpt lat="36.7511024475098" lon="-5.15001678466797">
        <ele>721</ele>
        <time>2019-05-11T09:11:01Z</time>
      </trkpt>
      <trkpt lat="36.7511215209961" lon="-5.15005302429199">
        <ele>721</ele>
        <time>2019-05-11T09:11:03Z</time>
      </trkpt>
      <trkpt lat="36.7511329650879" lon="-5.15009212493896">
        <ele>721</ele>
        <time>2019-05-11T09:11:05Z</time>
      </trkpt>
      <trkpt lat="36.7511444091797" lon="-5.15012502670288">
        <ele>721</ele>
        <time>2019-05-11T09:11:07Z</time>
      </trkpt>
      <trkpt lat="36.7511558532715" lon="-5.15015506744385">
        <ele>721</ele>
        <time>2019-05-11T09:11:09Z</time>
      </trkpt>
      <trkpt lat="36.751163482666" lon="-5.15018701553345">
        <ele>721</ele>
        <time>2019-05-11T09:11:12Z</time>
      </trkpt>
      <trkpt lat="36.7511787414551" lon="-5.15021514892578">
        <ele>721</ele>
        <time>2019-05-11T09:11:14Z</time>
      </trkpt>
      <trkpt lat="36.7511863708496" lon="-5.15024280548096">
        <ele>721</ele>
        <time>2019-05-11T09:11:16Z</time>
      </trkpt>
      <trkpt lat="36.7512016296387" lon="-5.1502799987793">
        <ele>721</ele>
        <time>2019-05-11T09:11:18Z</time>
      </trkpt>
      <trkpt lat="36.7512168884277" lon="-5.15030813217163">
        <ele>721</ele>
        <time>2019-05-11T09:11:20Z</time>
      </trkpt>
      <trkpt lat="36.751220703125" lon="-5.15034008026123">
        <ele>721</ele>
        <time>2019-05-11T09:11:22Z</time>
      </trkpt>
      <trkpt lat="36.7512359619141" lon="-5.15037298202515">
        <ele>721</ele>
        <time>2019-05-11T09:11:24Z</time>
      </trkpt>
      <trkpt lat="36.7512435913086" lon="-5.15040683746338">
        <ele>721</ele>
        <time>2019-05-11T09:11:26Z</time>
      </trkpt>
      <trkpt lat="36.7512550354004" lon="-5.15045499801636">
        <ele>723</ele>
        <time>2019-05-11T09:11:28Z</time>
      </trkpt>
      <trkpt lat="36.7512626647949" lon="-5.15048980712891">
        <ele>724</ele>
        <time>2019-05-11T09:11:30Z</time>
      </trkpt>
      <trkpt lat="36.7512702941894" lon="-5.15052509307861">
        <ele>725</ele>
        <time>2019-05-11T09:11:32Z</time>
      </trkpt>
      <trkpt lat="36.7512855529785" lon="-5.15055704116821">
        <ele>726</ele>
        <time>2019-05-11T09:11:34Z</time>
      </trkpt>
      <trkpt lat="36.751293182373" lon="-5.15059185028076">
        <ele>727</ele>
        <time>2019-05-11T09:11:36Z</time>
      </trkpt>
      <trkpt lat="36.7513046264648" lon="-5.15062713623047">
        <ele>729</ele>
        <time>2019-05-11T09:11:38Z</time>
      </trkpt>
      <trkpt lat="36.7513160705566" lon="-5.15066003799438">
        <ele>730</ele>
        <time>2019-05-11T09:11:40Z</time>
      </trkpt>
      <trkpt lat="36.7513275146484" lon="-5.15069007873535">
        <ele>731</ele>
        <time>2019-05-11T09:11:43Z</time>
      </trkpt>
      <trkpt lat="36.7513389587402" lon="-5.15072011947632">
        <ele>732</ele>
        <time>2019-05-11T09:11:45Z</time>
      </trkpt>
      <trkpt lat="36.751350402832" lon="-5.15074777603149">
        <ele>732</ele>
        <time>2019-05-11T09:11:47Z</time>
      </trkpt>
      <trkpt lat="36.7513694763184" lon="-5.15078020095825">
        <ele>733</ele>
        <time>2019-05-11T09:11:49Z</time>
      </trkpt>
      <trkpt lat="36.7513885498047" lon="-5.15081310272217">
        <ele>733</ele>
        <time>2019-05-11T09:11:51Z</time>
      </trkpt>
      <trkpt lat="36.751407623291" lon="-5.15084218978882">
        <ele>733</ele>
        <time>2019-05-11T09:11:53Z</time>
      </trkpt>
      <trkpt lat="36.7514266967773" lon="-5.1508731842041">
        <ele>733</ele>
        <time>2019-05-11T09:11:55Z</time>
      </trkpt>
      <trkpt lat="36.7514381408691" lon="-5.15090799331665">
        <ele>733</ele>
        <time>2019-05-11T09:11:57Z</time>
      </trkpt>
      <trkpt lat="36.7514381408691" lon="-5.15096282958984">
        <ele>733</ele>
        <time>2019-05-11T09:11:59Z</time>
      </trkpt>
      <trkpt lat="36.7514343261719" lon="-5.15099716186523">
        <ele>733</ele>
        <time>2019-05-11T09:12:01Z</time>
      </trkpt>
      <trkpt lat="36.7514266967773" lon="-5.1510329246521">
        <ele>733</ele>
        <time>2019-05-11T09:12:03Z</time>
      </trkpt>
      <trkpt lat="36.7514190673828" lon="-5.15107011795044">
        <ele>733</ele>
        <time>2019-05-11T09:12:05Z</time>
      </trkpt>
      <trkpt lat="36.7514114379883" lon="-5.15110301971436">
        <ele>733</ele>
        <time>2019-05-11T09:12:07Z</time>
      </trkpt>
      <trkpt lat="36.7513999938965" lon="-5.15113306045532">
        <ele>733</ele>
        <time>2019-05-11T09:12:09Z</time>
      </trkpt>
      <trkpt lat="36.7513885498047" lon="-5.15116214752197">
        <ele>733</ele>
        <time>2019-05-11T09:12:11Z</time>
      </trkpt>
      <trkpt lat="36.7513732910156" lon="-5.15118980407715">
        <ele>733</ele>
        <time>2019-05-11T09:12:13Z</time>
      </trkpt>
      <trkpt lat="36.7513580322266" lon="-5.1512131690979">
        <ele>733</ele>
        <time>2019-05-11T09:12:15Z</time>
      </trkpt>
      <trkpt lat="36.7513313293457" lon="-5.15123176574707">
        <ele>733</ele>
        <time>2019-05-11T09:12:17Z</time>
      </trkpt>
      <trkpt lat="36.7513084411621" lon="-5.15124988555908">
        <ele>733</ele>
        <time>2019-05-11T09:12:20Z</time>
      </trkpt>
      <trkpt lat="36.7512817382812" lon="-5.15126991271973">
        <ele>733</ele>
        <time>2019-05-11T09:12:22Z</time>
      </trkpt>
      <trkpt lat="36.7512512207031" lon="-5.15130519866943">
        <ele>733</ele>
        <time>2019-05-11T09:12:24Z</time>
      </trkpt>
      <trkpt lat="36.7512283325195" lon="-5.15133714675903">
        <ele>733</ele>
        <time>2019-05-11T09:12:26Z</time>
      </trkpt>
      <trkpt lat="36.7512092590332" lon="-5.1513729095459">
        <ele>733</ele>
        <time>2019-05-11T09:12:28Z</time>
      </trkpt>
      <trkpt lat="36.7511863708496" lon="-5.15141201019287">
        <ele>731</ele>
        <time>2019-05-11T09:12:30Z</time>
      </trkpt>
      <trkpt lat="36.7511596679688" lon="-5.15144681930542">
        <ele>731</ele>
        <time>2019-05-11T09:12:32Z</time>
      </trkpt>
      <trkpt lat="36.7510986328125" lon="-5.15148782730103">
        <ele>730</ele>
        <time>2019-05-11T09:12:34Z</time>
      </trkpt>
      <trkpt lat="36.7510681152344" lon="-5.15150690078735">
        <ele>729</ele>
        <time>2019-05-11T09:12:36Z</time>
      </trkpt>
      <trkpt lat="36.7510452270508" lon="-5.151526927948">
        <ele>729</ele>
        <time>2019-05-11T09:12:38Z</time>
      </trkpt>
      <trkpt lat="36.7510261535644" lon="-5.15154314041138">
        <ele>729</ele>
        <time>2019-05-11T09:12:40Z</time>
      </trkpt>
      <trkpt lat="36.7510070800781" lon="-5.15156507492065">
        <ele>729</ele>
        <time>2019-05-11T09:12:42Z</time>
      </trkpt>
      <trkpt lat="36.7509803771973" lon="-5.15158176422119">
        <ele>729</ele>
        <time>2019-05-11T09:12:44Z</time>
      </trkpt>
      <trkpt lat="36.7509574890137" lon="-5.15159702301025">
        <ele>729</ele>
        <time>2019-05-11T09:12:46Z</time>
      </trkpt>
      <trkpt lat="36.7509384155273" lon="-5.15161514282227">
        <ele>729</ele>
        <time>2019-05-11T09:12:48Z</time>
      </trkpt>
      <trkpt lat="36.7509117126465" lon="-5.1516318321228">
        <ele>729</ele>
        <time>2019-05-11T09:12:50Z</time>
      </trkpt>
      <trkpt lat="36.7508888244629" lon="-5.15164804458618">
        <ele>729</ele>
        <time>2019-05-11T09:12:53Z</time>
      </trkpt>
      <trkpt lat="36.7508659362793" lon="-5.15166187286377">
        <ele>729</ele>
        <time>2019-05-11T09:12:55Z</time>
      </trkpt>
      <trkpt lat="36.750846862793" lon="-5.15168190002441">
        <ele>729</ele>
        <time>2019-05-11T09:12:57Z</time>
      </trkpt>
      <trkpt lat="36.7508201599121" lon="-5.15170478820801">
        <ele>729</ele>
        <time>2019-05-11T09:12:59Z</time>
      </trkpt>
      <trkpt lat="36.7507972717285" lon="-5.15172719955444">
        <ele>729</ele>
        <time>2019-05-11T09:13:01Z</time>
      </trkpt>
      <trkpt lat="36.7507781982422" lon="-5.1517481803894">
        <ele>729</ele>
        <time>2019-05-11T09:13:03Z</time>
      </trkpt>
      <trkpt lat="36.7507629394531" lon="-5.15177297592163">
        <ele>730</ele>
        <time>2019-05-11T09:13:05Z</time>
      </trkpt>
      <trkpt lat="36.7507438659668" lon="-5.15179204940796">
        <ele>731</ele>
        <time>2019-05-11T09:13:07Z</time>
      </trkpt>
      <trkpt lat="36.7507133483887" lon="-5.15182495117188">
        <ele>732</ele>
        <time>2019-05-11T09:13:09Z</time>
      </trkpt>
      <trkpt lat="36.7507019042969" lon="-5.15185213088989">
        <ele>733</ele>
        <time>2019-05-11T09:13:11Z</time>
      </trkpt>
      <trkpt lat="36.7506904602051" lon="-5.15187215805054">
        <ele>734</ele>
        <time>2019-05-11T09:13:13Z</time>
      </trkpt>
      <trkpt lat="36.7506713867188" lon="-5.15188503265381">
        <ele>734</ele>
        <time>2019-05-11T09:13:15Z</time>
      </trkpt>
      <trkpt lat="36.7506561279297" lon="-5.15190696716309">
        <ele>734</ele>
        <time>2019-05-11T09:13:17Z</time>
      </trkpt>
      <trkpt lat="36.7506408691406" lon="-5.15192699432373">
        <ele>734</ele>
        <time>2019-05-11T09:13:19Z</time>
      </trkpt>
      <trkpt lat="36.7506256103516" lon="-5.15194177627564">
        <ele>734</ele>
        <time>2019-05-11T09:13:21Z</time>
      </trkpt>
      <trkpt lat="36.750617980957" lon="-5.15195322036743">
        <ele>734</ele>
        <time>2019-05-11T09:13:23Z</time>
      </trkpt>
      <trkpt lat="36.7505950927734" lon="-5.1519718170166">
        <ele>734</ele>
        <time>2019-05-11T09:13:25Z</time>
      </trkpt>
      <trkpt lat="36.7505722045898" lon="-5.15199279785156">
        <ele>734</ele>
        <time>2019-05-11T09:13:28Z</time>
      </trkpt>
      <trkpt lat="36.7505416870117" lon="-5.15201187133789">
        <ele>734</ele>
        <time>2019-05-11T09:13:30Z</time>
      </trkpt>
      <trkpt lat="36.7505187988281" lon="-5.15203285217285">
        <ele>735</ele>
        <time>2019-05-11T09:13:32Z</time>
      </trkpt>
      <trkpt lat="36.7504920959473" lon="-5.15205717086792">
        <ele>735</ele>
        <time>2019-05-11T09:13:34Z</time>
      </trkpt>
      <trkpt lat="36.7504653930664" lon="-5.15208005905151">
        <ele>736</ele>
        <time>2019-05-11T09:13:36Z</time>
      </trkpt>
      <trkpt lat="36.7504463195801" lon="-5.15210485458374">
        <ele>736</ele>
        <time>2019-05-11T09:13:38Z</time>
      </trkpt>
      <trkpt lat="36.7504272460938" lon="-5.15213012695312">
        <ele>736</ele>
        <time>2019-05-11T09:13:40Z</time>
      </trkpt>
      <trkpt lat="36.7504081726074" lon="-5.15215015411377">
        <ele>736</ele>
        <time>2019-05-11T09:13:42Z</time>
      </trkpt>
      <trkpt lat="36.7503776550293" lon="-5.15218496322632">
        <ele>736</ele>
        <time>2019-05-11T09:13:44Z</time>
      </trkpt>
      <trkpt lat="36.750358581543" lon="-5.1522068977356">
        <ele>736</ele>
        <time>2019-05-11T09:13:46Z</time>
      </trkpt>
      <trkpt lat="36.7503395080566" lon="-5.15223503112793">
        <ele>736</ele>
        <time>2019-05-11T09:13:48Z</time>
      </trkpt>
      <trkpt lat="36.750316619873" lon="-5.1522650718689">
        <ele>736</ele>
        <time>2019-05-11T09:13:50Z</time>
      </trkpt>
      <trkpt lat="36.7502975463867" lon="-5.15229177474976">
        <ele>736</ele>
        <time>2019-05-11T09:13:52Z</time>
      </trkpt>
      <trkpt lat="36.7502746582031" lon="-5.15231800079346">
        <ele>736</ele>
        <time>2019-05-11T09:13:54Z</time>
      </trkpt>
      <trkpt lat="36.7502479553223" lon="-5.1523380279541">
        <ele>737</ele>
        <time>2019-05-11T09:13:56Z</time>
      </trkpt>
      <trkpt lat="36.7502288818359" lon="-5.15236186981201">
        <ele>738</ele>
        <time>2019-05-11T09:13:58Z</time>
      </trkpt>
      <trkpt lat="36.7502021789551" lon="-5.15238189697266">
        <ele>738</ele>
        <time>2019-05-11T09:14:00Z</time>
      </trkpt>
      <trkpt lat="36.7501792907715" lon="-5.15240716934204">
        <ele>739</ele>
        <time>2019-05-11T09:14:02Z</time>
      </trkpt>
      <trkpt lat="36.7501640319824" lon="-5.152428150177">
        <ele>739</ele>
        <time>2019-05-11T09:14:05Z</time>
      </trkpt>
      <trkpt lat="36.7501411437988" lon="-5.15245723724365">
        <ele>739</ele>
        <time>2019-05-11T09:14:07Z</time>
      </trkpt>
      <trkpt lat="36.750129699707" lon="-5.15247678756714">
        <ele>739</ele>
        <time>2019-05-11T09:14:09Z</time>
      </trkpt>
      <trkpt lat="36.750114440918" lon="-5.1524977684021">
        <ele>739</ele>
        <time>2019-05-11T09:14:11Z</time>
      </trkpt>
      <trkpt lat="36.7500953674316" lon="-5.15251779556274">
        <ele>739</ele>
        <time>2019-05-11T09:14:13Z</time>
      </trkpt>
      <trkpt lat="36.7500762939453" lon="-5.15254020690918">
        <ele>739</ele>
        <time>2019-05-11T09:14:15Z</time>
      </trkpt>
      <trkpt lat="36.7500610351562" lon="-5.15256690979004">
        <ele>739</ele>
        <time>2019-05-11T09:14:17Z</time>
      </trkpt>
      <trkpt lat="36.7500381469727" lon="-5.15260219573975">
        <ele>739</ele>
        <time>2019-05-11T09:14:19Z</time>
      </trkpt>
      <trkpt lat="36.7500190734863" lon="-5.15264701843262">
        <ele>739</ele>
        <time>2019-05-11T09:14:21Z</time>
      </trkpt>
      <trkpt lat="36.7500038146973" lon="-5.15267705917358">
        <ele>739</ele>
        <time>2019-05-11T09:14:23Z</time>
      </trkpt>
      <trkpt lat="36.7499809265137" lon="-5.15270280838013">
        <ele>739</ele>
        <time>2019-05-11T09:14:25Z</time>
      </trkpt>
      <trkpt lat="36.7499656677246" lon="-5.15273189544678">
        <ele>739</ele>
        <time>2019-05-11T09:14:27Z</time>
      </trkpt>
      <trkpt lat="36.7499542236328" lon="-5.15276193618774">
        <ele>739</ele>
        <time>2019-05-11T09:14:29Z</time>
      </trkpt>
      <trkpt lat="36.749942779541" lon="-5.15278816223144">
        <ele>739</ele>
        <time>2019-05-11T09:14:31Z</time>
      </trkpt>
      <trkpt lat="36.7499237060547" lon="-5.15282011032104">
        <ele>739</ele>
        <time>2019-05-11T09:14:33Z</time>
      </trkpt>
      <trkpt lat="36.7499122619629" lon="-5.1528468132019">
        <ele>739</ele>
        <time>2019-05-11T09:14:35Z</time>
      </trkpt>
      <trkpt lat="36.7498931884766" lon="-5.15286779403686">
        <ele>739</ele>
        <time>2019-05-11T09:14:37Z</time>
      </trkpt>
      <trkpt lat="36.749870300293" lon="-5.15289497375488">
        <ele>739</ele>
        <time>2019-05-11T09:14:40Z</time>
      </trkpt>
      <trkpt lat="36.7498512268066" lon="-5.15292978286743">
        <ele>739</ele>
        <time>2019-05-11T09:14:42Z</time>
      </trkpt>
      <trkpt lat="36.749828338623" lon="-5.15296220779419">
        <ele>739</ele>
        <time>2019-05-11T09:14:44Z</time>
      </trkpt>
      <trkpt lat="36.7498054504394" lon="-5.15298700332642">
        <ele>739</ele>
        <time>2019-05-11T09:14:46Z</time>
      </trkpt>
      <trkpt lat="36.7497787475586" lon="-5.15301179885864">
        <ele>739</ele>
        <time>2019-05-11T09:14:48Z</time>
      </trkpt>
      <trkpt lat="36.7497520446777" lon="-5.15303707122803">
        <ele>739</ele>
        <time>2019-05-11T09:14:50Z</time>
      </trkpt>
      <trkpt lat="36.7497329711914" lon="-5.15306806564331">
        <ele>739</ele>
        <time>2019-05-11T09:14:52Z</time>
      </trkpt>
      <trkpt lat="36.7497062683106" lon="-5.15309810638428">
        <ele>739</ele>
        <time>2019-05-11T09:14:54Z</time>
      </trkpt>
      <trkpt lat="36.7496795654297" lon="-5.15315008163452">
        <ele>739</ele>
        <time>2019-05-11T09:14:56Z</time>
      </trkpt>
      <trkpt lat="36.7496604919434" lon="-5.1531867980957">
        <ele>740</ele>
        <time>2019-05-11T09:14:58Z</time>
      </trkpt>
      <trkpt lat="36.7496452331543" lon="-5.15321683883667">
        <ele>741</ele>
        <time>2019-05-11T09:15:00Z</time>
      </trkpt>
      <trkpt lat="36.7496299743652" lon="-5.15325021743774">
        <ele>742</ele>
        <time>2019-05-11T09:15:02Z</time>
      </trkpt>
      <trkpt lat="36.7496147155762" lon="-5.15327978134155">
        <ele>742</ele>
        <time>2019-05-11T09:15:04Z</time>
      </trkpt>
      <trkpt lat="36.7495994567871" lon="-5.15331220626831">
        <ele>743</ele>
        <time>2019-05-11T09:15:06Z</time>
      </trkpt>
      <trkpt lat="36.7495880126953" lon="-5.15333986282349">
        <ele>743</ele>
        <time>2019-05-11T09:15:08Z</time>
      </trkpt>
      <trkpt lat="36.749568939209" lon="-5.15336513519287">
        <ele>743</ele>
        <time>2019-05-11T09:15:10Z</time>
      </trkpt>
      <trkpt lat="36.7495536804199" lon="-5.15339279174805">
        <ele>743</ele>
        <time>2019-05-11T09:15:12Z</time>
      </trkpt>
      <trkpt lat="36.7495384216309" lon="-5.1534252166748">
        <ele>743</ele>
        <time>2019-05-11T09:15:14Z</time>
      </trkpt>
      <trkpt lat="36.7495269775391" lon="-5.15345287322998">
        <ele>743</ele>
        <time>2019-05-11T09:15:17Z</time>
      </trkpt>
      <trkpt lat="36.74951171875" lon="-5.15348291397095">
        <ele>743</ele>
        <time>2019-05-11T09:15:19Z</time>
      </trkpt>
      <trkpt lat="36.7494926452637" lon="-5.15351009368896">
        <ele>743</ele>
        <time>2019-05-11T09:15:21Z</time>
      </trkpt>
      <trkpt lat="36.7494773864746" lon="-5.15354204177856">
        <ele>743</ele>
        <time>2019-05-11T09:15:23Z</time>
      </trkpt>
      <trkpt lat="36.7494659423828" lon="-5.1535701751709">
        <ele>743</ele>
        <time>2019-05-11T09:15:25Z</time>
      </trkpt>
      <trkpt lat="36.749454498291" lon="-5.15359783172607">
        <ele>743</ele>
        <time>2019-05-11T09:15:27Z</time>
      </trkpt>
      <trkpt lat="36.7494468688965" lon="-5.15362787246704">
        <ele>743</ele>
        <time>2019-05-11T09:15:29Z</time>
      </trkpt>
      <trkpt lat="36.7494201660156" lon="-5.15367984771728">
        <ele>743</ele>
        <time>2019-05-11T09:15:31Z</time>
      </trkpt>
      <trkpt lat="36.7494049072266" lon="-5.15371179580688">
        <ele>743</ele>
        <time>2019-05-11T09:15:33Z</time>
      </trkpt>
      <trkpt lat="36.7493896484375" lon="-5.15374183654785">
        <ele>743</ele>
        <time>2019-05-11T09:15:35Z</time>
      </trkpt>
      <trkpt lat="36.7493782043457" lon="-5.15376996994019">
        <ele>743</ele>
        <time>2019-05-11T09:15:37Z</time>
      </trkpt>
      <trkpt lat="36.7493667602539" lon="-5.1537971496582">
        <ele>743</ele>
        <time>2019-05-11T09:15:39Z</time>
      </trkpt>
      <trkpt lat="36.7493515014648" lon="-5.15383005142212">
        <ele>743</ele>
        <time>2019-05-11T09:15:41Z</time>
      </trkpt>
      <trkpt lat="36.7493438720703" lon="-5.15386009216309">
        <ele>743</ele>
        <time>2019-05-11T09:15:43Z</time>
      </trkpt>
      <trkpt lat="36.7493362426758" lon="-5.153892993927">
        <ele>743</ele>
        <time>2019-05-11T09:15:45Z</time>
      </trkpt>
      <trkpt lat="36.749324798584" lon="-5.15392684936523">
        <ele>744</ele>
        <time>2019-05-11T09:15:47Z</time>
      </trkpt>
      <trkpt lat="36.7493133544922" lon="-5.15396308898926">
        <ele>744</ele>
        <time>2019-05-11T09:15:49Z</time>
      </trkpt>
      <trkpt lat="36.7492980957031" lon="-5.15399694442749">
        <ele>745</ele>
        <time>2019-05-11T09:15:52Z</time>
      </trkpt>
      <trkpt lat="36.7492904663086" lon="-5.15403318405151">
        <ele>746</ele>
        <time>2019-05-11T09:15:54Z</time>
      </trkpt>
      <trkpt lat="36.7492752075195" lon="-5.15406513214111">
        <ele>746</ele>
        <time>2019-05-11T09:15:56Z</time>
      </trkpt>
      <trkpt lat="36.7492523193359" lon="-5.15408992767334">
        <ele>747</ele>
        <time>2019-05-11T09:15:58Z</time>
      </trkpt>
      <trkpt lat="36.7492332458496" lon="-5.15411520004272">
        <ele>747</ele>
        <time>2019-05-11T09:16:00Z</time>
      </trkpt>
      <trkpt lat="36.7492141723633" lon="-5.15413999557495">
        <ele>747</ele>
        <time>2019-05-11T09:16:02Z</time>
      </trkpt>
      <trkpt lat="36.7491912841797" lon="-5.15416479110718">
        <ele>747</ele>
        <time>2019-05-11T09:16:04Z</time>
      </trkpt>
      <trkpt lat="36.7491607666016" lon="-5.15420293807983">
        <ele>747</ele>
        <time>2019-05-11T09:16:06Z</time>
      </trkpt>
      <trkpt lat="36.749137878418" lon="-5.15423011779785">
        <ele>747</ele>
        <time>2019-05-11T09:16:08Z</time>
      </trkpt>
      <trkpt lat="36.7491188049316" lon="-5.15425491333008">
        <ele>747</ele>
        <time>2019-05-11T09:16:10Z</time>
      </trkpt>
      <trkpt lat="36.7491035461426" lon="-5.1542820930481">
        <ele>747</ele>
        <time>2019-05-11T09:16:12Z</time>
      </trkpt>
      <trkpt lat="36.7490844726562" lon="-5.15431308746338">
        <ele>747</ele>
        <time>2019-05-11T09:16:14Z</time>
      </trkpt>
      <trkpt lat="36.7490653991699" lon="-5.15433979034424">
        <ele>746</ele>
        <time>2019-05-11T09:16:16Z</time>
      </trkpt>
      <trkpt lat="36.7490463256836" lon="-5.15436506271362">
        <ele>746</ele>
        <time>2019-05-11T09:16:18Z</time>
      </trkpt>
      <trkpt lat="36.7490272521973" lon="-5.15439319610596">
        <ele>746</ele>
        <time>2019-05-11T09:16:20Z</time>
      </trkpt>
      <trkpt lat="36.7490081787109" lon="-5.15441703796387">
        <ele>746</ele>
        <time>2019-05-11T09:16:22Z</time>
      </trkpt>
      <trkpt lat="36.7489967346191" lon="-5.15443992614746">
        <ele>745</ele>
        <time>2019-05-11T09:16:25Z</time>
      </trkpt>
      <trkpt lat="36.7489776611328" lon="-5.15446186065674">
        <ele>745</ele>
        <time>2019-05-11T09:16:27Z</time>
      </trkpt>
      <trkpt lat="36.7489585876465" lon="-5.15448808670044">
        <ele>744</ele>
        <time>2019-05-11T09:16:29Z</time>
      </trkpt>
      <trkpt lat="36.7489356994629" lon="-5.15451288223267">
        <ele>743</ele>
        <time>2019-05-11T09:16:31Z</time>
      </trkpt>
      <trkpt lat="36.7489166259766" lon="-5.15454006195068">
        <ele>743</ele>
        <time>2019-05-11T09:16:33Z</time>
      </trkpt>
      <trkpt lat="36.7489013671875" lon="-5.15457201004028">
        <ele>741</ele>
        <time>2019-05-11T09:16:35Z</time>
      </trkpt>
      <trkpt lat="36.7488822937012" lon="-5.15460300445557">
        <ele>741</ele>
        <time>2019-05-11T09:16:37Z</time>
      </trkpt>
      <trkpt lat="36.7488670349121" lon="-5.15463304519653">
        <ele>741</ele>
        <time>2019-05-11T09:16:39Z</time>
      </trkpt>
      <trkpt lat="36.7488441467285" lon="-5.15467309951782">
        <ele>741</ele>
        <time>2019-05-11T09:16:41Z</time>
      </trkpt>
      <trkpt lat="36.7488288879394" lon="-5.15470314025879">
        <ele>741</ele>
        <time>2019-05-11T09:16:43Z</time>
      </trkpt>
      <trkpt lat="36.7488136291504" lon="-5.15473508834839">
        <ele>741</ele>
        <time>2019-05-11T09:16:45Z</time>
      </trkpt>
      <trkpt lat="36.7487983703613" lon="-5.15476179122925">
        <ele>741</ele>
        <time>2019-05-11T09:16:47Z</time>
      </trkpt>
      <trkpt lat="36.7487831115723" lon="-5.15478992462158">
        <ele>741</ele>
        <time>2019-05-11T09:16:49Z</time>
      </trkpt>
      <trkpt lat="36.7487678527832" lon="-5.15481281280518">
        <ele>741</ele>
        <time>2019-05-11T09:16:51Z</time>
      </trkpt>
      <trkpt lat="36.7487525939941" lon="-5.15483808517456">
        <ele>741</ele>
        <time>2019-05-11T09:16:53Z</time>
      </trkpt>
      <trkpt lat="36.7487297058106" lon="-5.15486478805542">
        <ele>741</ele>
        <time>2019-05-11T09:16:55Z</time>
      </trkpt>
      <trkpt lat="36.7487106323242" lon="-5.15489292144775">
        <ele>741</ele>
        <time>2019-05-11T09:16:57Z</time>
      </trkpt>
      <trkpt lat="36.7486877441406" lon="-5.15492296218872">
        <ele>741</ele>
        <time>2019-05-11T09:16:59Z</time>
      </trkpt>
      <trkpt lat="36.7486724853516" lon="-5.15496015548706">
        <ele>741</ele>
        <time>2019-05-11T09:17:02Z</time>
      </trkpt>
      <trkpt lat="36.7486686706543" lon="-5.15499687194824">
        <ele>741</ele>
        <time>2019-05-11T09:17:04Z</time>
      </trkpt>
      <trkpt lat="36.7486457824707" lon="-5.15502786636353">
        <ele>741</ele>
        <time>2019-05-11T09:17:06Z</time>
      </trkpt>
      <trkpt lat="36.7486305236816" lon="-5.15505981445312">
        <ele>741</ele>
        <time>2019-05-11T09:17:08Z</time>
      </trkpt>
      <trkpt lat="36.7486114501953" lon="-5.15509510040283">
        <ele>741</ele>
        <time>2019-05-11T09:17:10Z</time>
      </trkpt>
      <trkpt lat="36.748592376709" lon="-5.15512800216675">
        <ele>741</ele>
        <time>2019-05-11T09:17:12Z</time>
      </trkpt>
      <trkpt lat="36.7485733032227" lon="-5.15516185760498">
        <ele>741</ele>
        <time>2019-05-11T09:17:14Z</time>
      </trkpt>
      <trkpt lat="36.7485427856445" lon="-5.15521001815796">
        <ele>741</ele>
        <time>2019-05-11T09:17:16Z</time>
      </trkpt>
      <trkpt lat="36.7485237121582" lon="-5.15524005889893">
        <ele>741</ele>
        <time>2019-05-11T09:17:18Z</time>
      </trkpt>
      <trkpt lat="36.7485084533691" lon="-5.15527200698853">
        <ele>741</ele>
        <time>2019-05-11T09:17:20Z</time>
      </trkpt>
      <trkpt lat="36.7484893798828" lon="-5.15530776977539">
        <ele>741</ele>
        <time>2019-05-11T09:17:22Z</time>
      </trkpt>
      <trkpt lat="36.748477935791" lon="-5.15534496307373">
        <ele>741</ele>
        <time>2019-05-11T09:17:24Z</time>
      </trkpt>
      <trkpt lat="36.7484664916992" lon="-5.15537786483765">
        <ele>741</ele>
        <time>2019-05-11T09:17:26Z</time>
      </trkpt>
      <trkpt lat="36.7484512329102" lon="-5.15541505813599">
        <ele>741</ele>
        <time>2019-05-11T09:17:28Z</time>
      </trkpt>
      <trkpt lat="36.7484397888184" lon="-5.15544986724854">
        <ele>741</ele>
        <time>2019-05-11T09:17:30Z</time>
      </trkpt>
      <trkpt lat="36.7484245300293" lon="-5.15548992156982">
        <ele>741</ele>
        <time>2019-05-11T09:17:32Z</time>
      </trkpt>
      <trkpt lat="36.7484130859375" lon="-5.15553188323975">
        <ele>741</ele>
        <time>2019-05-11T09:17:34Z</time>
      </trkpt>
      <trkpt lat="36.7483978271484" lon="-5.15556192398071">
        <ele>741</ele>
        <time>2019-05-11T09:17:37Z</time>
      </trkpt>
      <trkpt lat="36.7483863830566" lon="-5.15559482574463">
        <ele>741</ele>
        <time>2019-05-11T09:17:39Z</time>
      </trkpt>
      <trkpt lat="36.7483673095703" lon="-5.1556282043457">
        <ele>741</ele>
        <time>2019-05-11T09:17:41Z</time>
      </trkpt>
      <trkpt lat="36.7483520507812" lon="-5.1556568145752">
        <ele>741</ele>
        <time>2019-05-11T09:17:43Z</time>
      </trkpt>
      <trkpt lat="36.7483367919922" lon="-5.15569305419922">
        <ele>741</ele>
        <time>2019-05-11T09:17:45Z</time>
      </trkpt>
      <trkpt lat="36.7483062744141" lon="-5.15574502944946">
        <ele>741</ele>
        <time>2019-05-11T09:17:47Z</time>
      </trkpt>
      <trkpt lat="36.7482872009277" lon="-5.15577697753906">
        <ele>741</ele>
        <time>2019-05-11T09:17:49Z</time>
      </trkpt>
      <trkpt lat="36.7482681274414" lon="-5.15580797195435">
        <ele>741</ele>
        <time>2019-05-11T09:17:51Z</time>
      </trkpt>
      <trkpt lat="36.7482490539551" lon="-5.155837059021">
        <ele>741</ele>
        <time>2019-05-11T09:17:53Z</time>
      </trkpt>
      <trkpt lat="36.7482261657715" lon="-5.15587186813354">
        <ele>741</ele>
        <time>2019-05-11T09:17:55Z</time>
      </trkpt>
      <trkpt lat="36.7482109069824" lon="-5.15590286254883">
        <ele>741</ele>
        <time>2019-05-11T09:17:57Z</time>
      </trkpt>
      <trkpt lat="36.7481918334961" lon="-5.1559329032898">
        <ele>741</ele>
        <time>2019-05-11T09:17:59Z</time>
      </trkpt>
      <trkpt lat="36.7481689453125" lon="-5.15596485137939">
        <ele>741</ele>
        <time>2019-05-11T09:18:01Z</time>
      </trkpt>
      <trkpt lat="36.7481536865234" lon="-5.15599489212036">
        <ele>741</ele>
        <time>2019-05-11T09:18:03Z</time>
      </trkpt>
      <trkpt lat="36.7481307983398" lon="-5.15602684020996">
        <ele>742</ele>
        <time>2019-05-11T09:18:06Z</time>
      </trkpt>
      <trkpt lat="36.7481117248535" lon="-5.15606212615967">
        <ele>742</ele>
        <time>2019-05-11T09:18:08Z</time>
      </trkpt>
      <trkpt lat="36.7480888366699" lon="-5.15608978271484">
        <ele>743</ele>
        <time>2019-05-11T09:18:10Z</time>
      </trkpt>
      <trkpt lat="36.7480697631836" lon="-5.1561222076416">
        <ele>744</ele>
        <time>2019-05-11T09:18:12Z</time>
      </trkpt>
      <trkpt lat="36.7480430603027" lon="-5.1561450958252">
        <ele>745</ele>
        <time>2019-05-11T09:18:14Z</time>
      </trkpt>
      <trkpt lat="36.7480239868164" lon="-5.15617513656616">
        <ele>745</ele>
        <time>2019-05-11T09:18:16Z</time>
      </trkpt>
      <trkpt lat="36.7480010986328" lon="-5.15620517730713">
        <ele>746</ele>
        <time>2019-05-11T09:18:18Z</time>
      </trkpt>
      <trkpt lat="36.7479782104492" lon="-5.15624809265137">
        <ele>746</ele>
        <time>2019-05-11T09:18:20Z</time>
      </trkpt>
      <trkpt lat="36.7479591369629" lon="-5.15627813339233">
        <ele>747</ele>
        <time>2019-05-11T09:18:22Z</time>
      </trkpt>
      <trkpt lat="36.7479362487793" lon="-5.15631008148193">
        <ele>747</ele>
        <time>2019-05-11T09:18:24Z</time>
      </trkpt>
      <trkpt lat="36.7479209899902" lon="-5.15633678436279">
        <ele>747</ele>
        <time>2019-05-11T09:18:26Z</time>
      </trkpt>
      <trkpt lat="36.7479019165039" lon="-5.15637016296387">
        <ele>747</ele>
        <time>2019-05-11T09:18:28Z</time>
      </trkpt>
      <trkpt lat="36.7478866577148" lon="-5.15639495849609">
        <ele>747</ele>
        <time>2019-05-11T09:18:30Z</time>
      </trkpt>
      <trkpt lat="36.7478713989258" lon="-5.15643215179443">
        <ele>747</ele>
        <time>2019-05-11T09:18:32Z</time>
      </trkpt>
      <trkpt lat="36.7478561401367" lon="-5.15646696090698">
        <ele>748</ele>
        <time>2019-05-11T09:18:34Z</time>
      </trkpt>
      <trkpt lat="36.7478408813477" lon="-5.15649509429932">
        <ele>748</ele>
        <time>2019-05-11T09:18:36Z</time>
      </trkpt>
      <trkpt lat="36.7478256225586" lon="-5.15652704238892">
        <ele>748</ele>
        <time>2019-05-11T09:18:38Z</time>
      </trkpt>
      <trkpt lat="36.7478103637695" lon="-5.15656280517578">
        <ele>748</ele>
        <time>2019-05-11T09:18:41Z</time>
      </trkpt>
      <trkpt lat="36.7477951049805" lon="-5.15659523010254">
        <ele>748</ele>
        <time>2019-05-11T09:18:43Z</time>
      </trkpt>
      <trkpt lat="36.7477798461914" lon="-5.15662813186646">
        <ele>748</ele>
        <time>2019-05-11T09:18:45Z</time>
      </trkpt>
      <trkpt lat="36.7477645874023" lon="-5.15666198730469">
        <ele>748</ele>
        <time>2019-05-11T09:18:47Z</time>
      </trkpt>
      <trkpt lat="36.7477531433106" lon="-5.15669822692871">
        <ele>748</ele>
        <time>2019-05-11T09:18:49Z</time>
      </trkpt>
      <trkpt lat="36.7477416992188" lon="-5.15673303604126">
        <ele>748</ele>
        <time>2019-05-11T09:18:51Z</time>
      </trkpt>
      <trkpt lat="36.7477264404297" lon="-5.15677213668823">
        <ele>748</ele>
        <time>2019-05-11T09:18:53Z</time>
      </trkpt>
      <trkpt lat="36.7477111816406" lon="-5.15681791305542">
        <ele>748</ele>
        <time>2019-05-11T09:18:55Z</time>
      </trkpt>
      <trkpt lat="36.7476921081543" lon="-5.15685319900513">
        <ele>749</ele>
        <time>2019-05-11T09:18:57Z</time>
      </trkpt>
      <trkpt lat="36.747673034668" lon="-5.15687704086304">
        <ele>750</ele>
        <time>2019-05-11T09:18:59Z</time>
      </trkpt>
      <trkpt lat="36.7476539611816" lon="-5.15690517425537">
        <ele>751</ele>
        <time>2019-05-11T09:19:01Z</time>
      </trkpt>
      <trkpt lat="36.7476387023926" lon="-5.15693283081055">
        <ele>751</ele>
        <time>2019-05-11T09:19:03Z</time>
      </trkpt>
      <trkpt lat="36.7476196289062" lon="-5.1569619178772">
        <ele>751</ele>
        <time>2019-05-11T09:19:05Z</time>
      </trkpt>
      <trkpt lat="36.7475929260254" lon="-5.15700006484985">
        <ele>751</ele>
        <time>2019-05-11T09:19:07Z</time>
      </trkpt>
      <trkpt lat="36.7475624084473" lon="-5.15703821182251">
        <ele>751</ele>
        <time>2019-05-11T09:19:09Z</time>
      </trkpt>
      <trkpt lat="36.7475280761719" lon="-5.15707302093506">
        <ele>751</ele>
        <time>2019-05-11T09:19:11Z</time>
      </trkpt>
      <trkpt lat="36.7474937438965" lon="-5.15711212158203">
        <ele>751</ele>
        <time>2019-05-11T09:19:14Z</time>
      </trkpt>
      <trkpt lat="36.7474670410156" lon="-5.15716218948364">
        <ele>751</ele>
        <time>2019-05-11T09:19:16Z</time>
      </trkpt>
      <trkpt lat="36.7474517822266" lon="-5.15721321105957">
        <ele>751</ele>
        <time>2019-05-11T09:19:18Z</time>
      </trkpt>
      <trkpt lat="36.747428894043" lon="-5.15726280212402">
        <ele>751</ele>
        <time>2019-05-11T09:19:20Z</time>
      </trkpt>
      <trkpt lat="36.7474060058594" lon="-5.15730810165405">
        <ele>751</ele>
        <time>2019-05-11T09:19:22Z</time>
      </trkpt>
      <trkpt lat="36.7473831176758" lon="-5.15735483169556">
        <ele>751</ele>
        <time>2019-05-11T09:19:24Z</time>
      </trkpt>
      <trkpt lat="36.7473564147949" lon="-5.15739822387695">
        <ele>751</ele>
        <time>2019-05-11T09:19:26Z</time>
      </trkpt>
      <trkpt lat="36.7473297119141" lon="-5.15743780136108">
        <ele>751</ele>
        <time>2019-05-11T09:19:28Z</time>
      </trkpt>
      <trkpt lat="36.7472991943359" lon="-5.15750694274902">
        <ele>751</ele>
        <time>2019-05-11T09:19:30Z</time>
      </trkpt>
      <trkpt lat="36.7472763061523" lon="-5.15755319595337">
        <ele>751</ele>
        <time>2019-05-11T09:19:32Z</time>
      </trkpt>
      <trkpt lat="36.747257232666" lon="-5.15760278701782">
        <ele>751</ele>
        <time>2019-05-11T09:19:34Z</time>
      </trkpt>
      <trkpt lat="36.7472381591797" lon="-5.15764999389648">
        <ele>751</ele>
        <time>2019-05-11T09:19:36Z</time>
      </trkpt>
      <trkpt lat="36.7472114562988" lon="-5.15769481658936">
        <ele>751</ele>
        <time>2019-05-11T09:19:38Z</time>
      </trkpt>
      <trkpt lat="36.7471885681152" lon="-5.15773820877075">
        <ele>751</ele>
        <time>2019-05-11T09:19:40Z</time>
      </trkpt>
      <trkpt lat="36.7471656799316" lon="-5.15778303146362">
        <ele>751</ele>
        <time>2019-05-11T09:19:42Z</time>
      </trkpt>
      <trkpt lat="36.7471466064453" lon="-5.15783309936523">
        <ele>751</ele>
        <time>2019-05-11T09:19:44Z</time>
      </trkpt>
      <trkpt lat="36.7471160888672" lon="-5.15787506103516">
        <ele>751</ele>
        <time>2019-05-11T09:19:46Z</time>
      </trkpt>
      <trkpt lat="36.7470893859863" lon="-5.15791797637939">
        <ele>751</ele>
        <time>2019-05-11T09:19:49Z</time>
      </trkpt>
      <trkpt lat="36.7470626831055" lon="-5.15796279907227">
        <ele>751</ele>
        <time>2019-05-11T09:19:51Z</time>
      </trkpt>
      <trkpt lat="36.7470359802246" lon="-5.15800714492798">
        <ele>751</ele>
        <time>2019-05-11T09:19:53Z</time>
      </trkpt>
      <trkpt lat="36.7470092773438" lon="-5.15805006027222">
        <ele>751</ele>
        <time>2019-05-11T09:19:55Z</time>
      </trkpt>
      <trkpt lat="36.7469787597656" lon="-5.1580982208252">
        <ele>752</ele>
        <time>2019-05-11T09:19:57Z</time>
      </trkpt>
      <trkpt lat="36.7469520568848" lon="-5.15814304351807">
        <ele>752</ele>
        <time>2019-05-11T09:19:59Z</time>
      </trkpt>
      <trkpt lat="36.7469215393066" lon="-5.15818500518799">
        <ele>752</ele>
        <time>2019-05-11T09:20:01Z</time>
      </trkpt>
      <trkpt lat="36.7468872070312" lon="-5.15822982788086">
        <ele>752</ele>
        <time>2019-05-11T09:20:03Z</time>
      </trkpt>
      <trkpt lat="36.7468414306641" lon="-5.15828704833984">
        <ele>753</ele>
        <time>2019-05-11T09:20:05Z</time>
      </trkpt>
      <trkpt lat="36.7468147277832" lon="-5.15831804275513">
        <ele>753</ele>
        <time>2019-05-11T09:20:07Z</time>
      </trkpt>
      <trkpt lat="36.7467880249023" lon="-5.1583399772644">
        <ele>753</ele>
        <time>2019-05-11T09:20:09Z</time>
      </trkpt>
      <trkpt lat="36.7467460632324" lon="-5.15835523605347">
        <ele>753</ele>
        <time>2019-05-11T09:20:11Z</time>
      </trkpt>
      <trkpt lat="36.7467155456543" lon="-5.15838479995728">
        <ele>754</ele>
        <time>2019-05-11T09:20:13Z</time>
      </trkpt>
      <trkpt lat="36.7466812133789" lon="-5.15841484069824">
        <ele>754</ele>
        <time>2019-05-11T09:20:15Z</time>
      </trkpt>
      <trkpt lat="36.7466506958008" lon="-5.15845203399658">
        <ele>754</ele>
        <time>2019-05-11T09:20:17Z</time>
      </trkpt>
      <trkpt lat="36.7466239929199" lon="-5.15850019454956">
        <ele>754</ele>
        <time>2019-05-11T09:20:19Z</time>
      </trkpt>
      <trkpt lat="36.7465972900391" lon="-5.15854787826538">
        <ele>754</ele>
        <time>2019-05-11T09:20:21Z</time>
      </trkpt>
      <trkpt lat="36.7465744018555" lon="-5.15860223770142">
        <ele>754</ele>
        <time>2019-05-11T09:20:23Z</time>
      </trkpt>
      <trkpt lat="36.7465476989746" lon="-5.15865278244019">
        <ele>754</ele>
        <time>2019-05-11T09:20:26Z</time>
      </trkpt>
      <trkpt lat="36.746524810791" lon="-5.1587028503418">
        <ele>754</ele>
        <time>2019-05-11T09:20:28Z</time>
      </trkpt>
      <trkpt lat="36.7465019226074" lon="-5.15875291824341">
        <ele>754</ele>
        <time>2019-05-11T09:20:30Z</time>
      </trkpt>
      <trkpt lat="36.7464828491211" lon="-5.15879821777344">
        <ele>754</ele>
        <time>2019-05-11T09:20:32Z</time>
      </trkpt>
      <trkpt lat="36.7464599609375" lon="-5.15885019302368">
        <ele>754</ele>
        <time>2019-05-11T09:20:34Z</time>
      </trkpt>
      <trkpt lat="36.7464447021484" lon="-5.15890216827393">
        <ele>754</ele>
        <time>2019-05-11T09:20:36Z</time>
      </trkpt>
      <trkpt lat="36.7464218139648" lon="-5.15894985198975">
        <ele>754</ele>
        <time>2019-05-11T09:20:38Z</time>
      </trkpt>
      <trkpt lat="36.7463874816894" lon="-5.15902185440064">
        <ele>754</ele>
        <time>2019-05-11T09:20:40Z</time>
      </trkpt>
      <trkpt lat="36.7463645935059" lon="-5.15907001495361">
        <ele>754</ele>
        <time>2019-05-11T09:20:42Z</time>
      </trkpt>
      <trkpt lat="36.7463417053223" lon="-5.15911197662354">
        <ele>754</ele>
        <time>2019-05-11T09:20:44Z</time>
      </trkpt>
      <trkpt lat="36.7463226318359" lon="-5.15915203094482">
        <ele>754</ele>
        <time>2019-05-11T09:20:46Z</time>
      </trkpt>
      <trkpt lat="36.7462959289551" lon="-5.15919494628906">
        <ele>754</ele>
        <time>2019-05-11T09:20:48Z</time>
      </trkpt>
      <trkpt lat="36.746265411377" lon="-5.15924310684204">
        <ele>754</ele>
        <time>2019-05-11T09:20:50Z</time>
      </trkpt>
      <trkpt lat="36.7462310791016" lon="-5.15928983688354">
        <ele>754</ele>
        <time>2019-05-11T09:20:52Z</time>
      </trkpt>
      <trkpt lat="36.7462005615234" lon="-5.15933513641357">
        <ele>755</ele>
        <time>2019-05-11T09:20:54Z</time>
      </trkpt>
      <trkpt lat="36.746166229248" lon="-5.1593770980835">
        <ele>755</ele>
        <time>2019-05-11T09:20:56Z</time>
      </trkpt>
      <trkpt lat="36.7461395263672" lon="-5.15942478179932">
        <ele>755</ele>
        <time>2019-05-11T09:20:59Z</time>
      </trkpt>
      <trkpt lat="36.7461090087891" lon="-5.15946483612061">
        <ele>755</ele>
        <time>2019-05-11T09:21:01Z</time>
      </trkpt>
      <trkpt lat="36.7460784912109" lon="-5.15951013565064">
        <ele>755</ele>
        <time>2019-05-11T09:21:03Z</time>
      </trkpt>
      <trkpt lat="36.7460479736328" lon="-5.15955686569214">
        <ele>755</ele>
        <time>2019-05-11T09:21:05Z</time>
      </trkpt>
      <trkpt lat="36.746021270752" lon="-5.15960311889648">
        <ele>755</ele>
        <time>2019-05-11T09:21:07Z</time>
      </trkpt>
      <trkpt lat="36.7460021972656" lon="-5.1596531867981">
        <ele>755</ele>
        <time>2019-05-11T09:21:09Z</time>
      </trkpt>
      <trkpt lat="36.745979309082" lon="-5.15970277786255">
        <ele>755</ele>
        <time>2019-05-11T09:21:11Z</time>
      </trkpt>
      <trkpt lat="36.7459487915039" lon="-5.1597728729248">
        <ele>755</ele>
        <time>2019-05-11T09:21:13Z</time>
      </trkpt>
      <trkpt lat="36.745922088623" lon="-5.15982294082642">
        <ele>755</ele>
        <time>2019-05-11T09:21:15Z</time>
      </trkpt>
      <trkpt lat="36.7458992004394" lon="-5.15987205505371">
        <ele>755</ele>
        <time>2019-05-11T09:21:17Z</time>
      </trkpt>
      <trkpt lat="36.7458763122559" lon="-5.1599178314209">
        <ele>755</ele>
        <time>2019-05-11T09:21:19Z</time>
      </trkpt>
      <trkpt lat="36.7458457946777" lon="-5.15996313095093">
        <ele>755</ele>
        <time>2019-05-11T09:21:21Z</time>
      </trkpt>
      <trkpt lat="36.7458190917969" lon="-5.15999984741211">
        <ele>755</ele>
        <time>2019-05-11T09:21:23Z</time>
      </trkpt>
      <trkpt lat="36.7457885742188" lon="-5.16003322601318">
        <ele>755</ele>
        <time>2019-05-11T09:21:25Z</time>
      </trkpt>
      <trkpt lat="36.7457618713379" lon="-5.16006517410278">
        <ele>755</ele>
        <time>2019-05-11T09:21:27Z</time>
      </trkpt>
      <trkpt lat="36.7457427978516" lon="-5.16010999679565">
        <ele>755</ele>
        <time>2019-05-11T09:21:29Z</time>
      </trkpt>
      <trkpt lat="36.745719909668" lon="-5.16014814376831">
        <ele>754</ele>
        <time>2019-05-11T09:21:31Z</time>
      </trkpt>
      <trkpt lat="36.7456970214844" lon="-5.16019487380981">
        <ele>754</ele>
        <time>2019-05-11T09:21:34Z</time>
      </trkpt>
      <trkpt lat="36.7456817626953" lon="-5.16023778915405">
        <ele>753</ele>
        <time>2019-05-11T09:21:36Z</time>
      </trkpt>
      <trkpt lat="36.7456665039062" lon="-5.16027498245239">
        <ele>753</ele>
        <time>2019-05-11T09:21:38Z</time>
      </trkpt>
      <trkpt lat="36.7456512451172" lon="-5.16030788421631">
        <ele>753</ele>
        <time>2019-05-11T09:21:40Z</time>
      </trkpt>
      <trkpt lat="36.7456436157227" lon="-5.16034698486328">
        <ele>751</ele>
        <time>2019-05-11T09:21:42Z</time>
      </trkpt>
      <trkpt lat="36.7456245422363" lon="-5.16038513183594">
        <ele>751</ele>
        <time>2019-05-11T09:21:44Z</time>
      </trkpt>
      <trkpt lat="36.7456016540527" lon="-5.16042184829712">
        <ele>751</ele>
        <time>2019-05-11T09:21:46Z</time>
      </trkpt>
      <trkpt lat="36.7455863952637" lon="-5.1604700088501">
        <ele>751</ele>
        <time>2019-05-11T09:21:48Z</time>
      </trkpt>
      <trkpt lat="36.7455711364746" lon="-5.1605019569397">
        <ele>751</ele>
        <time>2019-05-11T09:21:50Z</time>
      </trkpt>
      <trkpt lat="36.745548248291" lon="-5.16054201126099">
        <ele>751</ele>
        <time>2019-05-11T09:21:52Z</time>
      </trkpt>
      <trkpt lat="36.7455215454102" lon="-5.16058206558228">
        <ele>751</ele>
        <time>2019-05-11T09:21:54Z</time>
      </trkpt>
      <trkpt lat="36.7454948425293" lon="-5.16062498092651">
        <ele>751</ele>
        <time>2019-05-11T09:21:56Z</time>
      </trkpt>
      <trkpt lat="36.7454681396484" lon="-5.16066789627075">
        <ele>751</ele>
        <time>2019-05-11T09:21:58Z</time>
      </trkpt>
      <trkpt lat="36.7454414367676" lon="-5.16070699691772">
        <ele>751</ele>
        <time>2019-05-11T09:22:00Z</time>
      </trkpt>
      <trkpt lat="36.7454071044922" lon="-5.16075277328491">
        <ele>751</ele>
        <time>2019-05-11T09:22:02Z</time>
      </trkpt>
      <trkpt lat="36.7453765869141" lon="-5.16079998016357">
        <ele>751</ele>
        <time>2019-05-11T09:22:04Z</time>
      </trkpt>
      <trkpt lat="36.7453536987305" lon="-5.16084814071655">
        <ele>751</ele>
        <time>2019-05-11T09:22:06Z</time>
      </trkpt>
      <trkpt lat="36.7453269958496" lon="-5.16089296340942">
        <ele>751</ele>
        <time>2019-05-11T09:22:09Z</time>
      </trkpt>
      <trkpt lat="36.745304107666" lon="-5.1609320640564">
        <ele>751</ele>
        <time>2019-05-11T09:22:11Z</time>
      </trkpt>
      <trkpt lat="36.7452735900879" lon="-5.16097497940064">
        <ele>751</ele>
        <time>2019-05-11T09:22:13Z</time>
      </trkpt>
      <trkpt lat="36.7452392578125" lon="-5.16102313995361">
        <ele>751</ele>
        <time>2019-05-11T09:22:15Z</time>
      </trkpt>
      <trkpt lat="36.7452087402344" lon="-5.16107320785522">
        <ele>751</ele>
        <time>2019-05-11T09:22:17Z</time>
      </trkpt>
      <trkpt lat="36.7451934814453" lon="-5.16112279891968">
        <ele>751</ele>
        <time>2019-05-11T09:22:19Z</time>
      </trkpt>
      <trkpt lat="36.745174407959" lon="-5.16117286682129">
        <ele>751</ele>
        <time>2019-05-11T09:22:21Z</time>
      </trkpt>
      <trkpt lat="36.7451515197754" lon="-5.16122198104858">
        <ele>751</ele>
        <time>2019-05-11T09:22:23Z</time>
      </trkpt>
      <trkpt lat="36.7451171875" lon="-5.16128301620483">
        <ele>751</ele>
        <time>2019-05-11T09:22:25Z</time>
      </trkpt>
      <trkpt lat="36.7451019287109" lon="-5.16132211685181">
        <ele>751</ele>
        <time>2019-05-11T09:22:27Z</time>
      </trkpt>
      <trkpt lat="36.7450828552246" lon="-5.1613597869873">
        <ele>751</ele>
        <time>2019-05-11T09:22:29Z</time>
      </trkpt>
      <trkpt lat="36.7450714111328" lon="-5.16140794754028">
        <ele>750</ele>
        <time>2019-05-11T09:22:31Z</time>
      </trkpt>
      <trkpt lat="36.7450637817383" lon="-5.16144514083862">
        <ele>748</ele>
        <time>2019-05-11T09:22:33Z</time>
      </trkpt>
      <trkpt lat="36.7450561523438" lon="-5.1614818572998">
        <ele>746</ele>
        <time>2019-05-11T09:22:35Z</time>
      </trkpt>
      <trkpt lat="36.7450332641602" lon="-5.16153192520142">
        <ele>744</ele>
        <time>2019-05-11T09:22:37Z</time>
      </trkpt>
      <trkpt lat="36.7450141906738" lon="-5.1615719795227">
        <ele>742</ele>
        <time>2019-05-11T09:22:39Z</time>
      </trkpt>
      <trkpt lat="36.7449951171875" lon="-5.16160202026367">
        <ele>741</ele>
        <time>2019-05-11T09:22:41Z</time>
      </trkpt>
      <trkpt lat="36.7449836730957" lon="-5.16163682937622">
        <ele>741</ele>
        <time>2019-05-11T09:22:44Z</time>
      </trkpt>
      <trkpt lat="36.7449645996094" lon="-5.16167306900024">
        <ele>741</ele>
        <time>2019-05-11T09:22:46Z</time>
      </trkpt>
      <trkpt lat="36.744930267334" lon="-5.16171216964722">
        <ele>741</ele>
        <time>2019-05-11T09:22:48Z</time>
      </trkpt>
      <trkpt lat="36.7448997497559" lon="-5.1617431640625">
        <ele>741</ele>
        <time>2019-05-11T09:22:50Z</time>
      </trkpt>
      <trkpt lat="36.7448768615723" lon="-5.16176986694336">
        <ele>741</ele>
        <time>2019-05-11T09:22:52Z</time>
      </trkpt>
      <trkpt lat="36.7448501586914" lon="-5.16180181503296">
        <ele>741</ele>
        <time>2019-05-11T09:22:54Z</time>
      </trkpt>
      <trkpt lat="36.7448196411133" lon="-5.16183996200562">
        <ele>742</ele>
        <time>2019-05-11T09:22:56Z</time>
      </trkpt>
      <trkpt lat="36.7447814941406" lon="-5.16187715530396">
        <ele>744</ele>
        <time>2019-05-11T09:22:58Z</time>
      </trkpt>
      <trkpt lat="36.7447280883789" lon="-5.16194295883179">
        <ele>746</ele>
        <time>2019-05-11T09:23:00Z</time>
      </trkpt>
      <trkpt lat="36.7446937561035" lon="-5.16198492050171">
        <ele>748</ele>
        <time>2019-05-11T09:23:02Z</time>
      </trkpt>
      <trkpt lat="36.7446708679199" lon="-5.162024974823">
        <ele>750</ele>
        <time>2019-05-11T09:23:04Z</time>
      </trkpt>
      <trkpt lat="36.7446479797363" lon="-5.1620569229126">
        <ele>752</ele>
        <time>2019-05-11T09:23:06Z</time>
      </trkpt>
      <trkpt lat="36.7446327209473" lon="-5.16208696365356">
        <ele>754</ele>
        <time>2019-05-11T09:23:08Z</time>
      </trkpt>
      <trkpt lat="36.7446174621582" lon="-5.16212177276611">
        <ele>755</ele>
        <time>2019-05-11T09:23:10Z</time>
      </trkpt>
      <trkpt lat="36.7446022033691" lon="-5.1621527671814">
        <ele>755</ele>
        <time>2019-05-11T09:23:12Z</time>
      </trkpt>
      <trkpt lat="36.7445831298828" lon="-5.16217803955078">
        <ele>755</ele>
        <time>2019-05-11T09:23:14Z</time>
      </trkpt>
      <trkpt lat="36.7445640563965" lon="-5.1622052192688">
        <ele>755</ele>
        <time>2019-05-11T09:23:16Z</time>
      </trkpt>
      <trkpt lat="36.7445487976074" lon="-5.16223478317261">
        <ele>755</ele>
        <time>2019-05-11T09:23:18Z</time>
      </trkpt>
      <trkpt lat="36.7445373535156" lon="-5.16226816177368">
        <ele>755</ele>
        <time>2019-05-11T09:23:20Z</time>
      </trkpt>
      <trkpt lat="36.7445259094238" lon="-5.16230297088623">
        <ele>755</ele>
        <time>2019-05-11T09:23:23Z</time>
      </trkpt>
      <trkpt lat="36.7445106506348" lon="-5.16233015060425">
        <ele>755</ele>
        <time>2019-05-11T09:23:25Z</time>
      </trkpt>
      <trkpt lat="36.7444953918457" lon="-5.16235494613647">
        <ele>755</ele>
        <time>2019-05-11T09:23:27Z</time>
      </trkpt>
      <trkpt lat="36.7444877624512" lon="-5.16237783432007">
        <ele>755</ele>
        <time>2019-05-11T09:23:29Z</time>
      </trkpt>
      <trkpt lat="36.7444763183594" lon="-5.16238784790039">
        <ele>755</ele>
        <time>2019-05-11T09:23:31Z</time>
      </trkpt>
      <trkpt lat="36.7444686889648" lon="-5.16241312026978">
        <ele>755</ele>
        <time>2019-05-11T09:23:33Z</time>
      </trkpt>
      <trkpt lat="36.7444610595703" lon="-5.16244792938232">
        <ele>755</ele>
        <time>2019-05-11T09:23:35Z</time>
      </trkpt>
      <trkpt lat="36.7444534301758" lon="-5.16247320175171">
        <ele>754</ele>
        <time>2019-05-11T09:23:37Z</time>
      </trkpt>
      <trkpt lat="36.7444381713867" lon="-5.16251277923584">
        <ele>752</ele>
        <time>2019-05-11T09:23:39Z</time>
      </trkpt>
      <trkpt lat="36.7444343566894" lon="-5.16252994537354">
        <ele>750</ele>
        <time>2019-05-11T09:23:41Z</time>
      </trkpt>
      <trkpt lat="36.7444267272949" lon="-5.16254997253418">
        <ele>748</ele>
        <time>2019-05-11T09:23:43Z</time>
      </trkpt>
      <trkpt lat="36.7444190979004" lon="-5.16256284713745">
        <ele>746</ele>
        <time>2019-05-11T09:23:45Z</time>
      </trkpt>
      <trkpt lat="36.7444038391113" lon="-5.16258716583252">
        <ele>744</ele>
        <time>2019-05-11T09:23:47Z</time>
      </trkpt>
      <trkpt lat="36.7443885803223" lon="-5.1626148223877">
        <ele>742</ele>
        <time>2019-05-11T09:23:49Z</time>
      </trkpt>
      <trkpt lat="36.7443809509277" lon="-5.16265201568604">
        <ele>740</ele>
        <time>2019-05-11T09:23:51Z</time>
      </trkpt>
      <trkpt lat="36.7443656921387" lon="-5.16269493103027">
        <ele>738</ele>
        <time>2019-05-11T09:23:53Z</time>
      </trkpt>
      <trkpt lat="36.7443466186523" lon="-5.16273212432861">
        <ele>736</ele>
        <time>2019-05-11T09:23:55Z</time>
      </trkpt>
      <trkpt lat="36.7443237304688" lon="-5.16275978088379">
        <ele>736</ele>
        <time>2019-05-11T09:23:57Z</time>
      </trkpt>
      <trkpt lat="36.7443084716797" lon="-5.16279315948486">
        <ele>736</ele>
        <time>2019-05-11T09:24:00Z</time>
      </trkpt>
      <trkpt lat="36.7442855834961" lon="-5.1628270149231">
        <ele>736</ele>
        <time>2019-05-11T09:24:02Z</time>
      </trkpt>
      <trkpt lat="36.744270324707" lon="-5.16285705566406">
        <ele>736</ele>
        <time>2019-05-11T09:24:04Z</time>
      </trkpt>
      <trkpt lat="36.744255065918" lon="-5.16287994384766">
        <ele>736</ele>
        <time>2019-05-11T09:24:06Z</time>
      </trkpt>
      <trkpt lat="36.7442436218262" lon="-5.16290521621704">
        <ele>736</ele>
        <time>2019-05-11T09:24:08Z</time>
      </trkpt>
      <trkpt lat="36.7442245483398" lon="-5.16292810440064">
        <ele>736</ele>
        <time>2019-05-11T09:24:10Z</time>
      </trkpt>
      <trkpt lat="36.7442016601562" lon="-5.16294813156128">
        <ele>736</ele>
        <time>2019-05-11T09:24:12Z</time>
      </trkpt>
      <trkpt lat="36.7441787719727" lon="-5.16296720504761">
        <ele>736</ele>
        <time>2019-05-11T09:24:14Z</time>
      </trkpt>
      <trkpt lat="36.7441596984863" lon="-5.16298484802246">
        <ele>736</ele>
        <time>2019-05-11T09:24:16Z</time>
      </trkpt>
      <trkpt lat="36.7441444396973" lon="-5.16300487518311">
        <ele>737</ele>
        <time>2019-05-11T09:24:18Z</time>
      </trkpt>
      <trkpt lat="36.7441215515137" lon="-5.16303014755249">
        <ele>737</ele>
        <time>2019-05-11T09:24:20Z</time>
      </trkpt>
      <trkpt lat="36.7440986633301" lon="-5.16305303573608">
        <ele>737</ele>
        <time>2019-05-11T09:24:22Z</time>
      </trkpt>
      <trkpt lat="36.7440795898438" lon="-5.16307783126831">
        <ele>737</ele>
        <time>2019-05-11T09:24:24Z</time>
      </trkpt>
      <trkpt lat="36.7440490722656" lon="-5.16312694549561">
        <ele>737</ele>
        <time>2019-05-11T09:24:26Z</time>
      </trkpt>
      <trkpt lat="36.7440338134766" lon="-5.16316223144531">
        <ele>737</ele>
        <time>2019-05-11T09:24:28Z</time>
      </trkpt>
      <trkpt lat="36.7440223693848" lon="-5.16319704055786">
        <ele>737</ele>
        <time>2019-05-11T09:24:30Z</time>
      </trkpt>
      <trkpt lat="36.7440032958984" lon="-5.16322803497314">
        <ele>737</ele>
        <time>2019-05-11T09:24:32Z</time>
      </trkpt>
      <trkpt lat="36.7439918518066" lon="-5.16325998306274">
        <ele>737</ele>
        <time>2019-05-11T09:24:34Z</time>
      </trkpt>
      <trkpt lat="36.7439765930176" lon="-5.16328477859497">
        <ele>737</ele>
        <time>2019-05-11T09:24:36Z</time>
      </trkpt>
      <trkpt lat="36.7439498901367" lon="-5.16332006454468">
        <ele>737</ele>
        <time>2019-05-11T09:24:38Z</time>
      </trkpt>
      <trkpt lat="36.7439346313477" lon="-5.16335201263428">
        <ele>737</ele>
        <time>2019-05-11T09:24:40Z</time>
      </trkpt>
      <trkpt lat="36.7439117431641" lon="-5.16338205337524">
        <ele>737</ele>
        <time>2019-05-11T09:24:42Z</time>
      </trkpt>
      <trkpt lat="36.7438888549805" lon="-5.16341209411621">
        <ele>737</ele>
        <time>2019-05-11T09:24:44Z</time>
      </trkpt>
      <trkpt lat="36.7438659667969" lon="-5.16344213485718">
        <ele>737</ele>
        <time>2019-05-11T09:24:46Z</time>
      </trkpt>
      <trkpt lat="36.7438468933106" lon="-5.16347217559814">
        <ele>737</ele>
        <time>2019-05-11T09:24:48Z</time>
      </trkpt>
      <trkpt lat="36.7438316345215" lon="-5.16350507736206">
        <ele>737</ele>
        <time>2019-05-11T09:24:50Z</time>
      </trkpt>
      <trkpt lat="36.7438087463379" lon="-5.16353178024292">
        <ele>738</ele>
        <time>2019-05-11T09:24:52Z</time>
      </trkpt>
      <trkpt lat="36.7437858581543" lon="-5.16355514526367">
        <ele>738</ele>
        <time>2019-05-11T09:24:54Z</time>
      </trkpt>
      <trkpt lat="36.7437705993652" lon="-5.16357278823853">
        <ele>738</ele>
        <time>2019-05-11T09:24:56Z</time>
      </trkpt>
      <trkpt lat="36.743766784668" lon="-5.16359186172485">
        <ele>738</ele>
        <time>2019-05-11T09:24:58Z</time>
      </trkpt>
      <trkpt lat="36.743766784668" lon="-5.16360282897949">
        <ele>738</ele>
        <time>2019-05-11T09:25:00Z</time>
      </trkpt>
      <trkpt lat="36.743766784668" lon="-5.16362285614014">
        <ele>738</ele>
        <time>2019-05-11T09:25:02Z</time>
      </trkpt>
      <trkpt lat="36.743766784668" lon="-5.16365194320679">
        <ele>738</ele>
        <time>2019-05-11T09:25:04Z</time>
      </trkpt>
      <trkpt lat="36.7437553405762" lon="-5.16368198394775">
        <ele>738</ele>
        <time>2019-05-11T09:25:06Z</time>
      </trkpt>
      <trkpt lat="36.7437438964844" lon="-5.16371202468872">
        <ele>738</ele>
        <time>2019-05-11T09:25:08Z</time>
      </trkpt>
      <trkpt lat="36.7437286376953" lon="-5.16374206542969">
        <ele>738</ele>
        <time>2019-05-11T09:25:10Z</time>
      </trkpt>
      <trkpt lat="36.7437133789062" lon="-5.16376686096191">
        <ele>738</ele>
        <time>2019-05-11T09:25:12Z</time>
      </trkpt>
      <trkpt lat="36.7436981201172" lon="-5.16379499435425">
        <ele>737</ele>
        <time>2019-05-11T09:25:15Z</time>
      </trkpt>
      <trkpt lat="36.7436866760254" lon="-5.16381502151489">
        <ele>736</ele>
        <time>2019-05-11T09:25:17Z</time>
      </trkpt>
      <trkpt lat="36.7436714172363" lon="-5.16382694244385">
        <ele>736</ele>
        <time>2019-05-11T09:25:19Z</time>
      </trkpt>
      <trkpt lat="36.7436637878418" lon="-5.16384315490723">
        <ele>734</ele>
        <time>2019-05-11T09:25:21Z</time>
      </trkpt>
      <trkpt lat="36.7436485290527" lon="-5.16384792327881">
        <ele>734</ele>
        <time>2019-05-11T09:25:23Z</time>
      </trkpt>
      <trkpt lat="36.7436370849609" lon="-5.16386985778809">
        <ele>733</ele>
        <time>2019-05-11T09:25:25Z</time>
      </trkpt>
      <trkpt lat="36.7436256408691" lon="-5.16389179229736">
        <ele>733</ele>
        <time>2019-05-11T09:25:27Z</time>
      </trkpt>
      <trkpt lat="36.7436180114746" lon="-5.16391706466675">
        <ele>731</ele>
        <time>2019-05-11T09:25:29Z</time>
      </trkpt>
      <trkpt lat="36.7436065673828" lon="-5.16394996643066">
        <ele>731</ele>
        <time>2019-05-11T09:25:31Z</time>
      </trkpt>
      <trkpt lat="36.7435913085938" lon="-5.163987159729">
        <ele>731</ele>
        <time>2019-05-11T09:25:33Z</time>
      </trkpt>
      <trkpt lat="36.743579864502" lon="-5.16401815414429">
        <ele>731</ele>
        <time>2019-05-11T09:25:35Z</time>
      </trkpt>
      <trkpt lat="36.743579864502" lon="-5.16404676437378">
        <ele>731</ele>
        <time>2019-05-11T09:25:37Z</time>
      </trkpt>
      <trkpt lat="36.7435607910156" lon="-5.16406679153442">
        <ele>731</ele>
        <time>2019-05-11T09:25:39Z</time>
      </trkpt>
      <trkpt lat="36.743537902832" lon="-5.16410684585571">
        <ele>731</ele>
        <time>2019-05-11T09:25:41Z</time>
      </trkpt>
      <trkpt lat="36.7435150146484" lon="-5.1641321182251">
        <ele>731</ele>
        <time>2019-05-11T09:25:43Z</time>
      </trkpt>
      <trkpt lat="36.7434883117676" lon="-5.16415977478027">
        <ele>731</ele>
        <time>2019-05-11T09:25:45Z</time>
      </trkpt>
      <trkpt lat="36.7434616088867" lon="-5.16418218612671">
        <ele>731</ele>
        <time>2019-05-11T09:25:47Z</time>
      </trkpt>
      <trkpt lat="36.7434539794922" lon="-5.16420793533325">
        <ele>731</ele>
        <time>2019-05-11T09:25:49Z</time>
      </trkpt>
      <trkpt lat="36.7434616088867" lon="-5.16425514221191">
        <ele>730</ele>
        <time>2019-05-11T09:25:51Z</time>
      </trkpt>
      <trkpt lat="36.7434616088867" lon="-5.16428279876709">
        <ele>728</ele>
        <time>2019-05-11T09:25:53Z</time>
      </trkpt>
      <trkpt lat="36.7434463500977" lon="-5.16431188583374">
        <ele>726</ele>
        <time>2019-05-11T09:25:55Z</time>
      </trkpt>
      <trkpt lat="36.7434387207031" lon="-5.1643328666687">
        <ele>724</ele>
        <time>2019-05-11T09:25:57Z</time>
      </trkpt>
      <trkpt lat="36.7434120178223" lon="-5.16436195373535">
        <ele>722</ele>
        <time>2019-05-11T09:25:59Z</time>
      </trkpt>
      <trkpt lat="36.7433891296387" lon="-5.16438484191894">
        <ele>720</ele>
        <time>2019-05-11T09:26:01Z</time>
      </trkpt>
      <trkpt lat="36.7433738708496" lon="-5.16440677642822">
        <ele>719</ele>
        <time>2019-05-11T09:26:03Z</time>
      </trkpt>
      <trkpt lat="36.7433547973633" lon="-5.16443300247192">
        <ele>719</ele>
        <time>2019-05-11T09:26:05Z</time>
      </trkpt>
      <trkpt lat="36.743335723877" lon="-5.16445302963257">
        <ele>718</ele>
        <time>2019-05-11T09:26:07Z</time>
      </trkpt>
      <trkpt lat="36.7433242797852" lon="-5.16448211669922">
        <ele>716</ele>
        <time>2019-05-11T09:26:09Z</time>
      </trkpt>
      <trkpt lat="36.7433128356934" lon="-5.16451215744019">
        <ele>716</ele>
        <time>2019-05-11T09:26:11Z</time>
      </trkpt>
      <trkpt lat="36.7432975769043" lon="-5.16453790664673">
        <ele>715</ele>
        <time>2019-05-11T09:26:13Z</time>
      </trkpt>
      <trkpt lat="36.7432861328125" lon="-5.1645622253418">
        <ele>714</ele>
        <time>2019-05-11T09:26:15Z</time>
      </trkpt>
      <trkpt lat="36.7432632446289" lon="-5.16459321975708">
        <ele>713</ele>
        <time>2019-05-11T09:26:17Z</time>
      </trkpt>
      <trkpt lat="36.7432518005371" lon="-5.16462707519531">
        <ele>711</ele>
        <time>2019-05-11T09:26:19Z</time>
      </trkpt>
      <trkpt lat="36.7432250976562" lon="-5.16465520858765">
        <ele>711</ele>
        <time>2019-05-11T09:26:21Z</time>
      </trkpt>
      <trkpt lat="36.7431907653809" lon="-5.16468286514282">
        <ele>711</ele>
        <time>2019-05-11T09:26:23Z</time>
      </trkpt>
      <trkpt lat="36.7431716918945" lon="-5.1647219657898">
        <ele>711</ele>
        <time>2019-05-11T09:26:25Z</time>
      </trkpt>
      <trkpt lat="36.7431678771973" lon="-5.16475820541382">
        <ele>711</ele>
        <time>2019-05-11T09:26:27Z</time>
      </trkpt>
      <trkpt lat="36.7431526184082" lon="-5.16478204727173">
        <ele>711</ele>
        <time>2019-05-11T09:26:29Z</time>
      </trkpt>
      <trkpt lat="36.7431297302246" lon="-5.16480684280396">
        <ele>711</ele>
        <time>2019-05-11T09:26:31Z</time>
      </trkpt>
      <trkpt lat="36.7431144714356" lon="-5.16483688354492">
        <ele>711</ele>
        <time>2019-05-11T09:26:33Z</time>
      </trkpt>
      <trkpt lat="36.7430992126465" lon="-5.1648678779602">
        <ele>711</ele>
        <time>2019-05-11T09:26:35Z</time>
      </trkpt>
      <trkpt lat="36.743091583252" lon="-5.16489696502686">
        <ele>711</ele>
        <time>2019-05-11T09:26:37Z</time>
      </trkpt>
      <trkpt lat="36.7430763244629" lon="-5.16492319107056">
        <ele>711</ele>
        <time>2019-05-11T09:26:39Z</time>
      </trkpt>
      <trkpt lat="36.7430572509766" lon="-5.16494989395142">
        <ele>711</ele>
        <time>2019-05-11T09:26:41Z</time>
      </trkpt>
      <trkpt lat="36.7430458068848" lon="-5.16497993469238">
        <ele>711</ele>
        <time>2019-05-11T09:26:43Z</time>
      </trkpt>
      <trkpt lat="36.7430305480957" lon="-5.16500282287598">
        <ele>710</ele>
        <time>2019-05-11T09:26:45Z</time>
      </trkpt>
      <trkpt lat="36.7430191040039" lon="-5.16502285003662">
        <ele>709</ele>
        <time>2019-05-11T09:26:47Z</time>
      </trkpt>
      <trkpt lat="36.7430076599121" lon="-5.16504287719727">
        <ele>708</ele>
        <time>2019-05-11T09:26:50Z</time>
      </trkpt>
      <trkpt lat="36.7429847717285" lon="-5.16506814956665">
        <ele>708</ele>
        <time>2019-05-11T09:26:52Z</time>
      </trkpt>
      <trkpt lat="36.7429695129394" lon="-5.16509294509888">
        <ele>708</ele>
        <time>2019-05-11T09:26:54Z</time>
      </trkpt>
      <trkpt lat="36.7429466247559" lon="-5.16512489318848">
        <ele>708</ele>
        <time>2019-05-11T09:26:56Z</time>
      </trkpt>
      <trkpt lat="36.7429237365723" lon="-5.16515684127808">
        <ele>708</ele>
        <time>2019-05-11T09:26:58Z</time>
      </trkpt>
      <trkpt lat="36.7429122924805" lon="-5.16518688201904">
        <ele>708</ele>
        <time>2019-05-11T09:27:00Z</time>
      </trkpt>
      <trkpt lat="36.7428932189941" lon="-5.16522216796875">
        <ele>708</ele>
        <time>2019-05-11T09:27:02Z</time>
      </trkpt>
      <trkpt lat="36.7428703308106" lon="-5.16525506973267">
        <ele>708</ele>
        <time>2019-05-11T09:27:04Z</time>
      </trkpt>
      <trkpt lat="36.742847442627" lon="-5.16528987884522">
        <ele>708</ele>
        <time>2019-05-11T09:27:06Z</time>
      </trkpt>
      <trkpt lat="36.7428283691406" lon="-5.16531801223755">
        <ele>708</ele>
        <time>2019-05-11T09:27:08Z</time>
      </trkpt>
      <trkpt lat="36.7428092956543" lon="-5.1653470993042">
        <ele>708</ele>
        <time>2019-05-11T09:27:10Z</time>
      </trkpt>
      <trkpt lat="36.742790222168" lon="-5.16536998748779">
        <ele>708</ele>
        <time>2019-05-11T09:27:12Z</time>
      </trkpt>
      <trkpt lat="36.7427711486816" lon="-5.16539812088013">
        <ele>710</ele>
        <time>2019-05-11T09:27:14Z</time>
      </trkpt>
      <trkpt lat="36.7427444458008" lon="-5.16543483734131">
        <ele>712</ele>
        <time>2019-05-11T09:27:16Z</time>
      </trkpt>
      <trkpt lat="36.7427215576172" lon="-5.16549205780029">
        <ele>714</ele>
        <time>2019-05-11T09:27:18Z</time>
      </trkpt>
      <trkpt lat="36.7426948547363" lon="-5.16552019119263">
        <ele>716</ele>
        <time>2019-05-11T09:27:20Z</time>
      </trkpt>
      <trkpt lat="36.7426681518555" lon="-5.16555690765381">
        <ele>718</ele>
        <time>2019-05-11T09:27:22Z</time>
      </trkpt>
      <trkpt lat="36.7426338195801" lon="-5.16558980941772">
        <ele>720</ele>
        <time>2019-05-11T09:27:24Z</time>
      </trkpt>
      <trkpt lat="36.742603302002" lon="-5.1656231880188">
        <ele>722</ele>
        <time>2019-05-11T09:27:26Z</time>
      </trkpt>
      <trkpt lat="36.7425880432129" lon="-5.16565704345703">
        <ele>723</ele>
        <time>2019-05-11T09:27:28Z</time>
      </trkpt>
      <trkpt lat="36.742561340332" lon="-5.165687084198">
        <ele>724</ele>
        <time>2019-05-11T09:27:30Z</time>
      </trkpt>
      <trkpt lat="36.7425346374512" lon="-5.16570997238159">
        <ele>725</ele>
        <time>2019-05-11T09:27:32Z</time>
      </trkpt>
      <trkpt lat="36.7425117492676" lon="-5.16573715209961">
        <ele>725</ele>
        <time>2019-05-11T09:27:34Z</time>
      </trkpt>
      <trkpt lat="36.7424926757812" lon="-5.1657600402832">
        <ele>726</ele>
        <time>2019-05-11T09:27:36Z</time>
      </trkpt>
      <trkpt lat="36.7424812316894" lon="-5.16579008102417">
        <ele>726</ele>
        <time>2019-05-11T09:27:38Z</time>
      </trkpt>
      <trkpt lat="36.7424697875977" lon="-5.16582202911377">
        <ele>726</ele>
        <time>2019-05-11T09:27:40Z</time>
      </trkpt>
      <trkpt lat="36.7424507141113" lon="-5.16586017608643">
        <ele>726</ele>
        <time>2019-05-11T09:27:42Z</time>
      </trkpt>
      <trkpt lat="36.7424354553223" lon="-5.16588497161865">
        <ele>726</ele>
        <time>2019-05-11T09:27:44Z</time>
      </trkpt>
      <trkpt lat="36.7424240112305" lon="-5.16592216491699">
        <ele>726</ele>
        <time>2019-05-11T09:27:46Z</time>
      </trkpt>
      <trkpt lat="36.7424201965332" lon="-5.16595315933228">
        <ele>726</ele>
        <time>2019-05-11T09:27:48Z</time>
      </trkpt>
      <trkpt lat="36.7424163818359" lon="-5.16598796844482">
        <ele>726</ele>
        <time>2019-05-11T09:27:50Z</time>
      </trkpt>
      <trkpt lat="36.7424087524414" lon="-5.16601514816284">
        <ele>726</ele>
        <time>2019-05-11T09:27:52Z</time>
      </trkpt>
      <trkpt lat="36.7423973083496" lon="-5.16604280471802">
        <ele>726</ele>
        <time>2019-05-11T09:27:54Z</time>
      </trkpt>
      <trkpt lat="36.7423782348633" lon="-5.16607999801636">
        <ele>726</ele>
        <time>2019-05-11T09:27:56Z</time>
      </trkpt>
      <trkpt lat="36.7423629760742" lon="-5.1661229133606">
        <ele>726</ele>
        <time>2019-05-11T09:27:58Z</time>
      </trkpt>
      <trkpt lat="36.7423477172852" lon="-5.16615295410156">
        <ele>725</ele>
        <time>2019-05-11T09:28:00Z</time>
      </trkpt>
      <trkpt lat="36.7423362731934" lon="-5.16617822647095">
        <ele>725</ele>
        <time>2019-05-11T09:28:02Z</time>
      </trkpt>
      <trkpt lat="36.7423248291016" lon="-5.16619491577148">
        <ele>724</ele>
        <time>2019-05-11T09:28:04Z</time>
      </trkpt>
      <trkpt lat="36.742317199707" lon="-5.1662278175354">
        <ele>722</ele>
        <time>2019-05-11T09:28:07Z</time>
      </trkpt>
      <trkpt lat="36.742301940918" lon="-5.16625213623047">
        <ele>721</ele>
        <time>2019-05-11T09:28:09Z</time>
      </trkpt>
      <trkpt lat="36.7422904968262" lon="-5.1662769317627">
        <ele>719</ele>
        <time>2019-05-11T09:28:11Z</time>
      </trkpt>
      <trkpt lat="36.7422866821289" lon="-5.16630506515503">
        <ele>718</ele>
        <time>2019-05-11T09:28:13Z</time>
      </trkpt>
      <trkpt lat="36.7422981262207" lon="-5.16633701324463">
        <ele>717</ele>
        <time>2019-05-11T09:28:15Z</time>
      </trkpt>
      <trkpt lat="36.742317199707" lon="-5.16636276245117">
        <ele>716</ele>
        <time>2019-05-11T09:28:17Z</time>
      </trkpt>
      <trkpt lat="36.7423477172852" lon="-5.16638708114624">
        <ele>716</ele>
        <time>2019-05-11T09:28:19Z</time>
      </trkpt>
      <trkpt lat="36.742374420166" lon="-5.1664080619812">
        <ele>716</ele>
        <time>2019-05-11T09:28:21Z</time>
      </trkpt>
      <trkpt lat="36.7423934936523" lon="-5.1664252281189">
        <ele>716</ele>
        <time>2019-05-11T09:28:23Z</time>
      </trkpt>
      <trkpt lat="36.7424087524414" lon="-5.16644191741943">
        <ele>716</ele>
        <time>2019-05-11T09:28:25Z</time>
      </trkpt>
      <trkpt lat="36.7424240112305" lon="-5.1664547920227">
        <ele>716</ele>
        <time>2019-05-11T09:28:27Z</time>
      </trkpt>
      <trkpt lat="36.7424468994141" lon="-5.16647005081177">
        <ele>716</ele>
        <time>2019-05-11T09:28:29Z</time>
      </trkpt>
      <trkpt lat="36.7424659729004" lon="-5.16648483276367">
        <ele>716</ele>
        <time>2019-05-11T09:28:31Z</time>
      </trkpt>
      <trkpt lat="36.7424812316894" lon="-5.16649007797241">
        <ele>716</ele>
        <time>2019-05-11T09:28:33Z</time>
      </trkpt>
      <trkpt lat="36.7424926757812" lon="-5.16649723052978">
        <ele>716</ele>
        <time>2019-05-11T09:28:35Z</time>
      </trkpt>
      <trkpt lat="36.7425003051758" lon="-5.16650295257568">
        <ele>716</ele>
        <time>2019-05-11T09:28:37Z</time>
      </trkpt>
      <trkpt lat="36.742504119873" lon="-5.16651296615601">
        <ele>716</ele>
        <time>2019-05-11T09:28:39Z</time>
      </trkpt>
      <trkpt lat="36.7425117492676" lon="-5.16651821136475">
        <ele>716</ele>
        <time>2019-05-11T09:28:41Z</time>
      </trkpt>
      <trkpt lat="36.7425117492676" lon="-5.16652488708496">
        <ele>716</ele>
        <time>2019-05-11T09:28:43Z</time>
      </trkpt>
      <trkpt lat="36.7425117492676" lon="-5.16653490066528">
        <ele>716</ele>
        <time>2019-05-11T09:28:45Z</time>
      </trkpt>
      <trkpt lat="36.7425155639648" lon="-5.16654205322266">
        <ele>716</ele>
        <time>2019-05-11T09:28:47Z</time>
      </trkpt>
      <trkpt lat="36.7425231933594" lon="-5.16655492782593">
        <ele>716</ele>
        <time>2019-05-11T09:28:49Z</time>
      </trkpt>
      <trkpt lat="36.7425308227539" lon="-5.16657018661499">
        <ele>717</ele>
        <time>2019-05-11T09:28:51Z</time>
      </trkpt>
      <trkpt lat="36.7425346374512" lon="-5.16657781600952">
        <ele>717</ele>
        <time>2019-05-11T09:28:53Z</time>
      </trkpt>
      <trkpt lat="36.7425346374512" lon="-5.16659212112427">
        <ele>718</ele>
        <time>2019-05-11T09:28:55Z</time>
      </trkpt>
      <trkpt lat="36.7425346374512" lon="-5.16660022735596">
        <ele>718</ele>
        <time>2019-05-11T09:28:57Z</time>
      </trkpt>
      <trkpt lat="36.7425384521484" lon="-5.16660690307617">
        <ele>718</ele>
        <time>2019-05-11T09:28:59Z</time>
      </trkpt>
      <trkpt lat="36.7425384521484" lon="-5.16660785675049">
        <ele>718</ele>
        <time>2019-05-11T09:29:01Z</time>
      </trkpt>
      <trkpt lat="36.7425422668457" lon="-5.16660308837891">
        <ele>718</ele>
        <time>2019-05-11T09:29:03Z</time>
      </trkpt>
      <trkpt lat="36.7425498962402" lon="-5.16660022735596">
        <ele>718</ele>
        <time>2019-05-11T09:29:05Z</time>
      </trkpt>
      <trkpt lat="36.7425537109375" lon="-5.16659784317017">
        <ele>718</ele>
        <time>2019-05-11T09:29:07Z</time>
      </trkpt>
      <trkpt lat="36.7425498962402" lon="-5.16660499572754">
        <ele>718</ele>
        <time>2019-05-11T09:29:09Z</time>
      </trkpt>
      <trkpt lat="36.7425384521484" lon="-5.16661310195923">
        <ele>718</ele>
        <time>2019-05-11T09:29:11Z</time>
      </trkpt>
      <trkpt lat="36.7425346374512" lon="-5.16662502288818">
        <ele>718</ele>
        <time>2019-05-11T09:29:13Z</time>
      </trkpt>
      <trkpt lat="36.7425308227539" lon="-5.16663694381714">
        <ele>718</ele>
        <time>2019-05-11T09:29:15Z</time>
      </trkpt>
      <trkpt lat="36.7425270080566" lon="-5.1666579246521">
        <ele>718</ele>
        <time>2019-05-11T09:29:17Z</time>
      </trkpt>
      <trkpt lat="36.7425384521484" lon="-5.16667985916138">
        <ele>718</ele>
        <time>2019-05-11T09:29:19Z</time>
      </trkpt>
      <trkpt lat="36.7425537109375" lon="-5.16670513153076">
        <ele>718</ele>
        <time>2019-05-11T09:29:21Z</time>
      </trkpt>
      <trkpt lat="36.742561340332" lon="-5.16671800613403">
        <ele>718</ele>
        <time>2019-05-11T09:29:23Z</time>
      </trkpt>
      <trkpt lat="36.7425689697266" lon="-5.16672515869141">
        <ele>718</ele>
        <time>2019-05-11T09:29:25Z</time>
      </trkpt>
      <trkpt lat="36.7425651550293" lon="-5.16673278808594">
        <ele>718</ele>
        <time>2019-05-11T09:29:27Z</time>
      </trkpt>
      <trkpt lat="36.7425651550293" lon="-5.16674280166626">
        <ele>718</ele>
        <time>2019-05-11T09:29:29Z</time>
      </trkpt>
      <trkpt lat="36.7425727844238" lon="-5.16675281524658">
        <ele>718</ele>
        <time>2019-05-11T09:29:31Z</time>
      </trkpt>
      <trkpt lat="36.7425727844238" lon="-5.16675519943237">
        <ele>718</ele>
        <time>2019-05-11T09:29:33Z</time>
      </trkpt>
      <trkpt lat="36.7425765991211" lon="-5.1667628288269">
        <ele>718</ele>
        <time>2019-05-11T09:29:35Z</time>
      </trkpt>
      <trkpt lat="36.7425727844238" lon="-5.16677188873291">
        <ele>718</ele>
        <time>2019-05-11T09:29:37Z</time>
      </trkpt>
      <trkpt lat="36.7425689697266" lon="-5.16677713394165">
        <ele>718</ele>
        <time>2019-05-11T09:29:39Z</time>
      </trkpt>
      <trkpt lat="36.7425689697266" lon="-5.16679286956787">
        <ele>718</ele>
        <time>2019-05-11T09:29:41Z</time>
      </trkpt>
      <trkpt lat="36.7425804138184" lon="-5.16680812835693">
        <ele>718</ele>
        <time>2019-05-11T09:29:43Z</time>
      </trkpt>
      <trkpt lat="36.7425918579102" lon="-5.16683292388916">
        <ele>718</ele>
        <time>2019-05-11T09:29:45Z</time>
      </trkpt>
      <trkpt lat="36.742603302002" lon="-5.16686487197876">
        <ele>718</ele>
        <time>2019-05-11T09:29:47Z</time>
      </trkpt>
      <trkpt lat="36.7426071166992" lon="-5.1669020652771">
        <ele>718</ele>
        <time>2019-05-11T09:29:49Z</time>
      </trkpt>
      <trkpt lat="36.7426071166992" lon="-5.16694498062134">
        <ele>718</ele>
        <time>2019-05-11T09:29:51Z</time>
      </trkpt>
      <trkpt lat="36.7426071166992" lon="-5.16698217391968">
        <ele>718</ele>
        <time>2019-05-11T09:29:53Z</time>
      </trkpt>
      <trkpt lat="36.7426071166992" lon="-5.16701984405518">
        <ele>718</ele>
        <time>2019-05-11T09:29:56Z</time>
      </trkpt>
      <trkpt lat="36.7425994873047" lon="-5.16706323623657">
        <ele>719</ele>
        <time>2019-05-11T09:29:58Z</time>
      </trkpt>
      <trkpt lat="36.7425842285156" lon="-5.16710710525513">
        <ele>720</ele>
        <time>2019-05-11T09:30:00Z</time>
      </trkpt>
      <trkpt lat="36.7425651550293" lon="-5.16714811325073">
        <ele>722</ele>
        <time>2019-05-11T09:30:02Z</time>
      </trkpt>
      <trkpt lat="36.742546081543" lon="-5.16718816757202">
        <ele>723</ele>
        <time>2019-05-11T09:30:04Z</time>
      </trkpt>
      <trkpt lat="36.7425270080566" lon="-5.16722297668457">
        <ele>725</ele>
        <time>2019-05-11T09:30:06Z</time>
      </trkpt>
      <trkpt lat="36.7425117492676" lon="-5.16725492477417">
        <ele>726</ele>
        <time>2019-05-11T09:30:08Z</time>
      </trkpt>
      <trkpt lat="36.7424812316894" lon="-5.1672830581665">
        <ele>727</ele>
        <time>2019-05-11T09:30:10Z</time>
      </trkpt>
      <trkpt lat="36.7424583435059" lon="-5.16730690002441">
        <ele>728</ele>
        <time>2019-05-11T09:30:12Z</time>
      </trkpt>
      <trkpt lat="36.7424354553223" lon="-5.16732215881348">
        <ele>728</ele>
        <time>2019-05-11T09:30:14Z</time>
      </trkpt>
      <trkpt lat="36.7424125671387" lon="-5.16734218597412">
        <ele>729</ele>
        <time>2019-05-11T09:30:16Z</time>
      </trkpt>
      <trkpt lat="36.7423934936523" lon="-5.16735506057739">
        <ele>729</ele>
        <time>2019-05-11T09:30:18Z</time>
      </trkpt>
      <trkpt lat="36.7423667907715" lon="-5.1673698425293">
        <ele>729</ele>
        <time>2019-05-11T09:30:20Z</time>
      </trkpt>
      <trkpt lat="36.7423400878906" lon="-5.16738319396973">
        <ele>729</ele>
        <time>2019-05-11T09:30:22Z</time>
      </trkpt>
      <trkpt lat="36.7423210144043" lon="-5.16739320755005">
        <ele>729</ele>
        <time>2019-05-11T09:30:24Z</time>
      </trkpt>
      <trkpt lat="36.7422981262207" lon="-5.16739988327026">
        <ele>729</ele>
        <time>2019-05-11T09:30:26Z</time>
      </trkpt>
      <trkpt lat="36.7422752380371" lon="-5.16739988327026">
        <ele>729</ele>
        <time>2019-05-11T09:30:28Z</time>
      </trkpt>
      <trkpt lat="36.7422523498535" lon="-5.16739702224731">
        <ele>729</ele>
        <time>2019-05-11T09:30:30Z</time>
      </trkpt>
      <trkpt lat="36.7422332763672" lon="-5.16739702224731">
        <ele>729</ele>
        <time>2019-05-11T09:30:32Z</time>
      </trkpt>
      <trkpt lat="36.7422218322754" lon="-5.16738986968994">
        <ele>729</ele>
        <time>2019-05-11T09:30:34Z</time>
      </trkpt>
      <trkpt lat="36.7421989440918" lon="-5.16737794876099">
        <ele>729</ele>
        <time>2019-05-11T09:30:36Z</time>
      </trkpt>
      <trkpt lat="36.7421836853027" lon="-5.16735982894897">
        <ele>729</ele>
        <time>2019-05-11T09:30:38Z</time>
      </trkpt>
      <trkpt lat="36.7421684265137" lon="-5.16734504699707">
        <ele>729</ele>
        <time>2019-05-11T09:30:40Z</time>
      </trkpt>
      <trkpt lat="36.7421531677246" lon="-5.16732692718506">
        <ele>729</ele>
        <time>2019-05-11T09:30:42Z</time>
      </trkpt>
      <trkpt lat="36.7421455383301" lon="-5.16730308532715">
        <ele>729</ele>
        <time>2019-05-11T09:30:44Z</time>
      </trkpt>
      <trkpt lat="36.7421379089356" lon="-5.16727304458618">
        <ele>729</ele>
        <time>2019-05-11T09:30:46Z</time>
      </trkpt>
      <trkpt lat="36.7421417236328" lon="-5.16724681854248">
        <ele>729</ele>
        <time>2019-05-11T09:30:48Z</time>
      </trkpt>
      <trkpt lat="36.7421417236328" lon="-5.16722679138184">
        <ele>729</ele>
        <time>2019-05-11T09:30:50Z</time>
      </trkpt>
      <trkpt lat="36.7421417236328" lon="-5.16721200942993">
        <ele>729</ele>
        <time>2019-05-11T09:30:52Z</time>
      </trkpt>
      <trkpt lat="36.7421379089356" lon="-5.16719818115234">
        <ele>729</ele>
        <time>2019-05-11T09:30:54Z</time>
      </trkpt>
      <trkpt lat="36.7421379089356" lon="-5.16718482971191">
        <ele>729</ele>
        <time>2019-05-11T09:30:56Z</time>
      </trkpt>
      <trkpt lat="36.7421340942383" lon="-5.16716289520264">
        <ele>729</ele>
        <time>2019-05-11T09:30:58Z</time>
      </trkpt>
      <trkpt lat="36.7421264648438" lon="-5.1671347618103">
        <ele>729</ele>
        <time>2019-05-11T09:31:00Z</time>
      </trkpt>
      <trkpt lat="36.7421264648438" lon="-5.16710519790649">
        <ele>729</ele>
        <time>2019-05-11T09:31:02Z</time>
      </trkpt>
      <trkpt lat="36.742130279541" lon="-5.16707515716553">
        <ele>729</ele>
        <time>2019-05-11T09:31:04Z</time>
      </trkpt>
      <trkpt lat="36.7421379089356" lon="-5.16704988479614">
        <ele>729</ele>
        <time>2019-05-11T09:31:06Z</time>
      </trkpt>
      <trkpt lat="36.7421417236328" lon="-5.16701984405518">
        <ele>729</ele>
        <time>2019-05-11T09:31:08Z</time>
      </trkpt>
      <trkpt lat="36.7421455383301" lon="-5.16699504852295">
        <ele>728</ele>
        <time>2019-05-11T09:31:10Z</time>
      </trkpt>
      <trkpt lat="36.7421455383301" lon="-5.16697216033936">
        <ele>728</ele>
        <time>2019-05-11T09:31:12Z</time>
      </trkpt>
      <trkpt lat="36.7421379089356" lon="-5.16695499420166">
        <ele>728</ele>
        <time>2019-05-11T09:31:14Z</time>
      </trkpt>
      <trkpt lat="36.7421264648438" lon="-5.16694688796997">
        <ele>728</ele>
        <time>2019-05-11T09:31:16Z</time>
      </trkpt>
      <trkpt lat="36.7421035766602" lon="-5.16692781448364">
        <ele>728</ele>
        <time>2019-05-11T09:31:18Z</time>
      </trkpt>
      <trkpt lat="36.7420845031738" lon="-5.16691493988037">
        <ele>728</ele>
        <time>2019-05-11T09:31:20Z</time>
      </trkpt>
      <trkpt lat="36.7420654296875" lon="-5.16689491271973">
        <ele>727</ele>
        <time>2019-05-11T09:31:22Z</time>
      </trkpt>
      <trkpt lat="36.7420539855957" lon="-5.16686677932739">
        <ele>726</ele>
        <time>2019-05-11T09:31:24Z</time>
      </trkpt>
      <trkpt lat="36.7420501708984" lon="-5.16683197021484">
        <ele>726</ele>
        <time>2019-05-11T09:31:26Z</time>
      </trkpt>
      <trkpt lat="36.7420425415039" lon="-5.1667971611023">
        <ele>725</ele>
        <time>2019-05-11T09:31:29Z</time>
      </trkpt>
      <trkpt lat="36.7420387268066" lon="-5.16676187515259">
        <ele>725</ele>
        <time>2019-05-11T09:31:31Z</time>
      </trkpt>
      <trkpt lat="36.7420463562012" lon="-5.16672992706299">
        <ele>725</ele>
        <time>2019-05-11T09:31:33Z</time>
      </trkpt>
      <trkpt lat="36.7420539855957" lon="-5.16670322418213">
        <ele>725</ele>
        <time>2019-05-11T09:31:35Z</time>
      </trkpt>
      <trkpt lat="36.7420616149902" lon="-5.1666750907898">
        <ele>725</ele>
        <time>2019-05-11T09:31:37Z</time>
      </trkpt>
      <trkpt lat="36.7420768737793" lon="-5.16664505004883">
        <ele>725</ele>
        <time>2019-05-11T09:31:39Z</time>
      </trkpt>
      <trkpt lat="36.7420883178711" lon="-5.16661214828491">
        <ele>725</ele>
        <time>2019-05-11T09:31:41Z</time>
      </trkpt>
      <trkpt lat="36.7420921325684" lon="-5.16658496856689">
        <ele>725</ele>
        <time>2019-05-11T09:31:43Z</time>
      </trkpt>
      <trkpt lat="36.7421035766602" lon="-5.1665678024292">
        <ele>725</ele>
        <time>2019-05-11T09:31:45Z</time>
      </trkpt>
      <trkpt lat="36.7420997619629" lon="-5.1665530204773">
        <ele>725</ele>
        <time>2019-05-11T09:31:47Z</time>
      </trkpt>
      <trkpt lat="36.7420883178711" lon="-5.16653776168823">
        <ele>725</ele>
        <time>2019-05-11T09:31:49Z</time>
      </trkpt>
      <trkpt lat="36.742073059082" lon="-5.16651821136475">
        <ele>725</ele>
        <time>2019-05-11T09:31:51Z</time>
      </trkpt>
      <trkpt lat="36.7420463562012" lon="-5.1664981842041">
        <ele>725</ele>
        <time>2019-05-11T09:31:53Z</time>
      </trkpt>
      <trkpt lat="36.7420272827148" lon="-5.16647481918335">
        <ele>724</ele>
        <time>2019-05-11T09:31:55Z</time>
      </trkpt>
      <trkpt lat="36.7420082092285" lon="-5.1664547920227">
        <ele>723</ele>
        <time>2019-05-11T09:31:57Z</time>
      </trkpt>
      <trkpt lat="36.7419853210449" lon="-5.16644191741943">
        <ele>722</ele>
        <time>2019-05-11T09:31:59Z</time>
      </trkpt>
      <trkpt lat="36.7419586181641" lon="-5.16642999649048">
        <ele>721</ele>
        <time>2019-05-11T09:32:01Z</time>
      </trkpt>
      <trkpt lat="36.7419319152832" lon="-5.16641712188721">
        <ele>721</ele>
        <time>2019-05-11T09:32:03Z</time>
      </trkpt>
      <trkpt lat="36.7419013977051" lon="-5.16640281677246">
        <ele>721</ele>
        <time>2019-05-11T09:32:05Z</time>
      </trkpt>
      <trkpt lat="36.7418785095215" lon="-5.16638994216919">
        <ele>721</ele>
        <time>2019-05-11T09:32:07Z</time>
      </trkpt>
      <trkpt lat="36.7418556213379" lon="-5.16636991500854">
        <ele>721</ele>
        <time>2019-05-11T09:32:09Z</time>
      </trkpt>
      <trkpt lat="36.7418365478516" lon="-5.16635179519653">
        <ele>721</ele>
        <time>2019-05-11T09:32:11Z</time>
      </trkpt>
      <trkpt lat="36.7418022155762" lon="-5.16633319854736">
        <ele>721</ele>
        <time>2019-05-11T09:32:13Z</time>
      </trkpt>
      <trkpt lat="36.7417831420898" lon="-5.16630792617798">
        <ele>721</ele>
        <time>2019-05-11T09:32:15Z</time>
      </trkpt>
      <trkpt lat="36.7417640686035" lon="-5.16628789901733">
        <ele>719</ele>
        <time>2019-05-11T09:32:17Z</time>
      </trkpt>
      <trkpt lat="36.7417411804199" lon="-5.16627311706543">
        <ele>718</ele>
        <time>2019-05-11T09:32:19Z</time>
      </trkpt>
      <trkpt lat="36.7417221069336" lon="-5.166259765625">
        <ele>716</ele>
        <time>2019-05-11T09:32:21Z</time>
      </trkpt>
      <trkpt lat="36.74169921875" lon="-5.16624212265015">
        <ele>715</ele>
        <time>2019-05-11T09:32:23Z</time>
      </trkpt>
      <trkpt lat="36.7416725158691" lon="-5.16622304916382">
        <ele>713</ele>
        <time>2019-05-11T09:32:25Z</time>
      </trkpt>
      <trkpt lat="36.7416496276856" lon="-5.16620302200317">
        <ele>713</ele>
        <time>2019-05-11T09:32:27Z</time>
      </trkpt>
      <trkpt lat="36.7416229248047" lon="-5.16619300842285">
        <ele>711</ele>
        <time>2019-05-11T09:32:29Z</time>
      </trkpt>
      <trkpt lat="36.7415924072266" lon="-5.16618204116821">
        <ele>711</ele>
        <time>2019-05-11T09:32:31Z</time>
      </trkpt>
      <trkpt lat="36.7415618896484" lon="-5.16617012023926">
        <ele>711</ele>
        <time>2019-05-11T09:32:33Z</time>
      </trkpt>
      <trkpt lat="36.741527557373" lon="-5.16615676879883">
        <ele>711</ele>
        <time>2019-05-11T09:32:35Z</time>
      </trkpt>
      <trkpt lat="36.7414932250977" lon="-5.16614723205566">
        <ele>711</ele>
        <time>2019-05-11T09:32:37Z</time>
      </trkpt>
      <trkpt lat="36.7414588928223" lon="-5.16613292694092">
        <ele>711</ele>
        <time>2019-05-11T09:32:39Z</time>
      </trkpt>
      <trkpt lat="36.7414283752441" lon="-5.1661229133606">
        <ele>711</ele>
        <time>2019-05-11T09:32:41Z</time>
      </trkpt>
      <trkpt lat="36.741397857666" lon="-5.16611480712891">
        <ele>711</ele>
        <time>2019-05-11T09:32:43Z</time>
      </trkpt>
      <trkpt lat="36.7413673400879" lon="-5.16610813140869">
        <ele>712</ele>
        <time>2019-05-11T09:32:45Z</time>
      </trkpt>
      <trkpt lat="36.7413368225098" lon="-5.166100025177">
        <ele>713</ele>
        <time>2019-05-11T09:32:47Z</time>
      </trkpt>
      <trkpt lat="36.7413024902344" lon="-5.16609477996826">
        <ele>713</ele>
        <time>2019-05-11T09:32:49Z</time>
      </trkpt>
      <trkpt lat="36.741268157959" lon="-5.16609477996826">
        <ele>714</ele>
        <time>2019-05-11T09:32:51Z</time>
      </trkpt>
      <trkpt lat="36.7412338256836" lon="-5.16609191894531">
        <ele>714</ele>
        <time>2019-05-11T09:32:53Z</time>
      </trkpt>
      <trkpt lat="36.7411918640137" lon="-5.16609287261963">
        <ele>715</ele>
        <time>2019-05-11T09:32:55Z</time>
      </trkpt>
      <trkpt lat="36.7411575317383" lon="-5.16609287261963">
        <ele>716</ele>
        <time>2019-05-11T09:32:57Z</time>
      </trkpt>
      <trkpt lat="36.7411193847656" lon="-5.16609287261963">
        <ele>717</ele>
        <time>2019-05-11T09:32:59Z</time>
      </trkpt>
      <trkpt lat="36.741081237793" lon="-5.16608810424805">
        <ele>719</ele>
        <time>2019-05-11T09:33:02Z</time>
      </trkpt>
      <trkpt lat="36.7410469055176" lon="-5.16608285903931">
        <ele>720</ele>
        <time>2019-05-11T09:33:04Z</time>
      </trkpt>
      <trkpt lat="36.7410125732422" lon="-5.16607522964478">
        <ele>721</ele>
        <time>2019-05-11T09:33:06Z</time>
      </trkpt>
      <trkpt lat="36.7409782409668" lon="-5.16607189178467">
        <ele>722</ele>
        <time>2019-05-11T09:33:08Z</time>
      </trkpt>
      <trkpt lat="36.7409439086914" lon="-5.16606998443604">
        <ele>723</ele>
        <time>2019-05-11T09:33:10Z</time>
      </trkpt>
      <trkpt lat="36.7409210205078" lon="-5.16605806350708">
        <ele>723</ele>
        <time>2019-05-11T09:33:12Z</time>
      </trkpt>
      <trkpt lat="36.740894317627" lon="-5.16604709625244">
        <ele>724</ele>
        <time>2019-05-11T09:33:14Z</time>
      </trkpt>
      <trkpt lat="36.7408676147461" lon="-5.16604280471802">
        <ele>724</ele>
        <time>2019-05-11T09:33:16Z</time>
      </trkpt>
      <trkpt lat="36.7408561706543" lon="-5.16604804992676">
        <ele>724</ele>
        <time>2019-05-11T09:33:18Z</time>
      </trkpt>
      <trkpt lat="36.740852355957" lon="-5.16604709625244">
        <ele>724</ele>
        <time>2019-05-11T09:33:20Z</time>
      </trkpt>
      <trkpt lat="36.7408447265625" lon="-5.16603803634644">
        <ele>724</ele>
        <time>2019-05-11T09:33:22Z</time>
      </trkpt>
      <trkpt lat="36.7408256530762" lon="-5.16602277755737">
        <ele>724</ele>
        <time>2019-05-11T09:33:24Z</time>
      </trkpt>
      <trkpt lat="36.7408065795898" lon="-5.16600704193115">
        <ele>724</ele>
        <time>2019-05-11T09:33:26Z</time>
      </trkpt>
      <trkpt lat="36.7407875061035" lon="-5.16599178314209">
        <ele>724</ele>
        <time>2019-05-11T09:33:28Z</time>
      </trkpt>
      <trkpt lat="36.7407684326172" lon="-5.16597318649292">
        <ele>724</ele>
        <time>2019-05-11T09:33:30Z</time>
      </trkpt>
      <trkpt lat="36.7407417297363" lon="-5.16594791412354">
        <ele>724</ele>
        <time>2019-05-11T09:33:32Z</time>
      </trkpt>
      <trkpt lat="36.74072265625" lon="-5.16593217849731">
        <ele>724</ele>
        <time>2019-05-11T09:33:34Z</time>
      </trkpt>
      <trkpt lat="36.7406959533691" lon="-5.1659049987793">
        <ele>724</ele>
        <time>2019-05-11T09:33:36Z</time>
      </trkpt>
      <trkpt lat="36.7406578063965" lon="-5.16587018966675">
        <ele>723</ele>
        <time>2019-05-11T09:33:38Z</time>
      </trkpt>
      <trkpt lat="36.7406234741211" lon="-5.16584014892578">
        <ele>723</ele>
        <time>2019-05-11T09:33:40Z</time>
      </trkpt>
      <trkpt lat="36.7405853271484" lon="-5.16580820083618">
        <ele>721</ele>
        <time>2019-05-11T09:33:42Z</time>
      </trkpt>
      <trkpt lat="36.7405548095703" lon="-5.16578817367554">
        <ele>721</ele>
        <time>2019-05-11T09:33:44Z</time>
      </trkpt>
      <trkpt lat="36.7405128479004" lon="-5.1657600402832">
        <ele>721</ele>
        <time>2019-05-11T09:33:46Z</time>
      </trkpt>
      <trkpt lat="36.7404899597168" lon="-5.16574478149414">
        <ele>720</ele>
        <time>2019-05-11T09:33:48Z</time>
      </trkpt>
      <trkpt lat="36.7404632568359" lon="-5.16574287414551">
        <ele>719</ele>
        <time>2019-05-11T09:33:50Z</time>
      </trkpt>
      <trkpt lat="36.7404327392578" lon="-5.16574192047119">
        <ele>718</ele>
        <time>2019-05-11T09:33:52Z</time>
      </trkpt>
      <trkpt lat="36.740406036377" lon="-5.16574287414551">
        <ele>718</ele>
        <time>2019-05-11T09:33:54Z</time>
      </trkpt>
      <trkpt lat="36.7403831481934" lon="-5.16574192047119">
        <ele>718</ele>
        <time>2019-05-11T09:33:56Z</time>
      </trkpt>
      <trkpt lat="36.7403526306152" lon="-5.16573286056519">
        <ele>716</ele>
        <time>2019-05-11T09:33:58Z</time>
      </trkpt>
      <trkpt lat="36.7403221130371" lon="-5.16573476791382">
        <ele>716</ele>
        <time>2019-05-11T09:34:00Z</time>
      </trkpt>
      <trkpt lat="36.7402954101562" lon="-5.1657280921936">
        <ele>716</ele>
        <time>2019-05-11T09:34:02Z</time>
      </trkpt>
      <trkpt lat="36.7402572631836" lon="-5.16571998596191">
        <ele>716</ele>
        <time>2019-05-11T09:34:04Z</time>
      </trkpt>
      <trkpt lat="36.7402267456055" lon="-5.16570997238159">
        <ele>716</ele>
        <time>2019-05-11T09:34:06Z</time>
      </trkpt>
      <trkpt lat="36.7401962280273" lon="-5.16570711135864">
        <ele>716</ele>
        <time>2019-05-11T09:34:08Z</time>
      </trkpt>
      <trkpt lat="36.7401657104492" lon="-5.16570281982422">
        <ele>716</ele>
        <time>2019-05-11T09:34:10Z</time>
      </trkpt>
      <trkpt lat="36.7401428222656" lon="-5.16569709777832">
        <ele>716</ele>
        <time>2019-05-11T09:34:12Z</time>
      </trkpt>
      <trkpt lat="36.740119934082" lon="-5.16568517684936">
        <ele>716</ele>
        <time>2019-05-11T09:34:14Z</time>
      </trkpt>
      <trkpt lat="36.7400970458984" lon="-5.16567707061768">
        <ele>716</ele>
        <time>2019-05-11T09:34:16Z</time>
      </trkpt>
      <trkpt lat="36.7400703430176" lon="-5.16566705703735">
        <ele>716</ele>
        <time>2019-05-11T09:34:18Z</time>
      </trkpt>
      <trkpt lat="36.7400436401367" lon="-5.16565704345703">
        <ele>716</ele>
        <time>2019-05-11T09:34:20Z</time>
      </trkpt>
      <trkpt lat="36.7400093078613" lon="-5.1656379699707">
        <ele>716</ele>
        <time>2019-05-11T09:34:22Z</time>
      </trkpt>
      <trkpt lat="36.7399787902832" lon="-5.16562700271606">
        <ele>716</ele>
        <time>2019-05-11T09:34:24Z</time>
      </trkpt>
      <trkpt lat="36.7399520874023" lon="-5.16561317443848">
        <ele>716</ele>
        <time>2019-05-11T09:34:26Z</time>
      </trkpt>
      <trkpt lat="36.7399253845215" lon="-5.16559505462646">
        <ele>716</ele>
        <time>2019-05-11T09:34:28Z</time>
      </trkpt>
      <trkpt lat="36.7398986816406" lon="-5.16556215286255">
        <ele>716</ele>
        <time>2019-05-11T09:34:30Z</time>
      </trkpt>
      <trkpt lat="36.7398872375488" lon="-5.16552495956421">
        <ele>716</ele>
        <time>2019-05-11T09:34:32Z</time>
      </trkpt>
      <trkpt lat="36.7398834228516" lon="-5.16549015045166">
        <ele>716</ele>
        <time>2019-05-11T09:34:34Z</time>
      </trkpt>
      <trkpt lat="36.739875793457" lon="-5.16544818878174">
        <ele>716</ele>
        <time>2019-05-11T09:34:36Z</time>
      </trkpt>
      <trkpt lat="36.7398834228516" lon="-5.16541290283203">
        <ele>716</ele>
        <time>2019-05-11T09:34:38Z</time>
      </trkpt>
      <trkpt lat="36.7398796081543" lon="-5.16538715362549">
        <ele>716</ele>
        <time>2019-05-11T09:34:41Z</time>
      </trkpt>
      <trkpt lat="36.7398834228516" lon="-5.16534996032715">
        <ele>716</ele>
        <time>2019-05-11T09:34:43Z</time>
      </trkpt>
      <trkpt lat="36.7398872375488" lon="-5.1653151512146">
        <ele>716</ele>
        <time>2019-05-11T09:34:45Z</time>
      </trkpt>
      <trkpt lat="36.7398986816406" lon="-5.16527986526489">
        <ele>716</ele>
        <time>2019-05-11T09:34:47Z</time>
      </trkpt>
      <trkpt lat="36.7399063110352" lon="-5.16524314880371">
        <ele>716</ele>
        <time>2019-05-11T09:34:49Z</time>
      </trkpt>
      <trkpt lat="36.7399063110352" lon="-5.16520500183106">
        <ele>716</ele>
        <time>2019-05-11T09:34:51Z</time>
      </trkpt>
      <trkpt lat="36.7398986816406" lon="-5.16517782211304">
        <ele>716</ele>
        <time>2019-05-11T09:34:53Z</time>
      </trkpt>
      <trkpt lat="36.7398948669434" lon="-5.16513681411743">
        <ele>716</ele>
        <time>2019-05-11T09:34:55Z</time>
      </trkpt>
      <trkpt lat="36.7398948669434" lon="-5.1651120185852">
        <ele>717</ele>
        <time>2019-05-11T09:34:57Z</time>
      </trkpt>
      <trkpt lat="36.7398986816406" lon="-5.16509485244751">
        <ele>717</ele>
        <time>2019-05-11T09:34:59Z</time>
      </trkpt>
      <trkpt lat="36.7398986816406" lon="-5.16507291793823">
        <ele>718</ele>
        <time>2019-05-11T09:35:01Z</time>
      </trkpt>
      <trkpt lat="36.7399101257324" lon="-5.16503190994263">
        <ele>718</ele>
        <time>2019-05-11T09:35:03Z</time>
      </trkpt>
      <trkpt lat="36.7399063110352" lon="-5.16500186920166">
        <ele>718</ele>
        <time>2019-05-11T09:35:05Z</time>
      </trkpt>
      <trkpt lat="36.7399063110352" lon="-5.1649751663208">
        <ele>718</ele>
        <time>2019-05-11T09:35:07Z</time>
      </trkpt>
      <trkpt lat="36.7399024963379" lon="-5.16494798660278">
        <ele>718</ele>
        <time>2019-05-11T09:35:09Z</time>
      </trkpt>
      <trkpt lat="36.7398910522461" lon="-5.16492223739624">
        <ele>718</ele>
        <time>2019-05-11T09:35:11Z</time>
      </trkpt>
      <trkpt lat="36.7398834228516" lon="-5.16490697860718">
        <ele>718</ele>
        <time>2019-05-11T09:35:13Z</time>
      </trkpt>
      <trkpt lat="36.7398681640625" lon="-5.16488695144653">
        <ele>718</ele>
        <time>2019-05-11T09:35:15Z</time>
      </trkpt>
      <trkpt lat="36.7398567199707" lon="-5.16485786437988">
        <ele>718</ele>
        <time>2019-05-11T09:35:17Z</time>
      </trkpt>
      <trkpt lat="36.7398452758789" lon="-5.16482305526733">
        <ele>718</ele>
        <time>2019-05-11T09:35:19Z</time>
      </trkpt>
      <trkpt lat="36.7398300170898" lon="-5.16478776931763">
        <ele>718</ele>
        <time>2019-05-11T09:35:21Z</time>
      </trkpt>
      <trkpt lat="36.7398223876953" lon="-5.16475820541382">
        <ele>718</ele>
        <time>2019-05-11T09:35:23Z</time>
      </trkpt>
      <trkpt lat="36.739803314209" lon="-5.16473007202148">
        <ele>718</ele>
        <time>2019-05-11T09:35:25Z</time>
      </trkpt>
      <trkpt lat="36.7397918701172" lon="-5.16471004486084">
        <ele>718</ele>
        <time>2019-05-11T09:35:27Z</time>
      </trkpt>
      <trkpt lat="36.7397804260254" lon="-5.16468286514282">
        <ele>718</ele>
        <time>2019-05-11T09:35:29Z</time>
      </trkpt>
      <trkpt lat="36.7397766113281" lon="-5.16466188430786">
        <ele>719</ele>
        <time>2019-05-11T09:35:31Z</time>
      </trkpt>
      <trkpt lat="36.7397766113281" lon="-5.16463184356689">
        <ele>720</ele>
        <time>2019-05-11T09:35:33Z</time>
      </trkpt>
      <trkpt lat="36.7397727966309" lon="-5.1645998954773">
        <ele>720</ele>
        <time>2019-05-11T09:35:35Z</time>
      </trkpt>
      <trkpt lat="36.7397613525391" lon="-5.16457319259644">
        <ele>720</ele>
        <time>2019-05-11T09:35:37Z</time>
      </trkpt>
      <trkpt lat="36.7397537231445" lon="-5.16454696655273">
        <ele>720</ele>
        <time>2019-05-11T09:35:39Z</time>
      </trkpt>
      <trkpt lat="36.7397575378418" lon="-5.16451978683472">
        <ele>720</ele>
        <time>2019-05-11T09:35:41Z</time>
      </trkpt>
      <trkpt lat="36.7397727966309" lon="-5.16449213027954">
        <ele>720</ele>
        <time>2019-05-11T09:35:43Z</time>
      </trkpt>
      <trkpt lat="36.7397766113281" lon="-5.16446304321289">
        <ele>719</ele>
        <time>2019-05-11T09:35:45Z</time>
      </trkpt>
      <trkpt lat="36.7397766113281" lon="-5.16443490982056">
        <ele>718</ele>
        <time>2019-05-11T09:35:47Z</time>
      </trkpt>
      <trkpt lat="36.7397689819336" lon="-5.1644082069397">
        <ele>718</ele>
        <time>2019-05-11T09:35:49Z</time>
      </trkpt>
      <trkpt lat="36.7397613525391" lon="-5.16438007354736">
        <ele>716</ele>
        <time>2019-05-11T09:35:51Z</time>
      </trkpt>
      <trkpt lat="36.7397613525391" lon="-5.16434812545776">
        <ele>716</ele>
        <time>2019-05-11T09:35:53Z</time>
      </trkpt>
      <trkpt lat="36.7397766113281" lon="-5.16431999206543">
        <ele>716</ele>
        <time>2019-05-11T09:35:55Z</time>
      </trkpt>
      <trkpt lat="36.7397880554199" lon="-5.16429281234741">
        <ele>716</ele>
        <time>2019-05-11T09:35:57Z</time>
      </trkpt>
      <trkpt lat="36.7397918701172" lon="-5.16426181793213">
        <ele>716</ele>
        <time>2019-05-11T09:35:59Z</time>
      </trkpt>
      <trkpt lat="36.7397956848144" lon="-5.16423320770264">
        <ele>716</ele>
        <time>2019-05-11T09:36:01Z</time>
      </trkpt>
      <trkpt lat="36.7397918701172" lon="-5.1642050743103">
        <ele>716</ele>
        <time>2019-05-11T09:36:03Z</time>
      </trkpt>
      <trkpt lat="36.7397842407227" lon="-5.16417694091797">
        <ele>716</ele>
        <time>2019-05-11T09:36:05Z</time>
      </trkpt>
      <trkpt lat="36.7397804260254" lon="-5.16414785385132">
        <ele>716</ele>
        <time>2019-05-11T09:36:07Z</time>
      </trkpt>
      <trkpt lat="36.7397727966309" lon="-5.16412305831909">
        <ele>715</ele>
        <time>2019-05-11T09:36:09Z</time>
      </trkpt>
      <trkpt lat="36.7397575378418" lon="-5.16410684585571">
        <ele>714</ele>
        <time>2019-05-11T09:36:12Z</time>
      </trkpt>
      <trkpt lat="36.7397499084473" lon="-5.16408014297485">
        <ele>713</ele>
        <time>2019-05-11T09:36:14Z</time>
      </trkpt>
      <trkpt lat="36.7397346496582" lon="-5.16405200958252">
        <ele>713</ele>
        <time>2019-05-11T09:36:16Z</time>
      </trkpt>
      <trkpt lat="36.7397232055664" lon="-5.16402006149292">
        <ele>713</ele>
        <time>2019-05-11T09:36:18Z</time>
      </trkpt>
      <trkpt lat="36.7397117614746" lon="-5.1639928817749">
        <ele>713</ele>
        <time>2019-05-11T09:36:20Z</time>
      </trkpt>
      <trkpt lat="36.7396965026856" lon="-5.16396713256836">
        <ele>713</ele>
        <time>2019-05-11T09:36:22Z</time>
      </trkpt>
      <trkpt lat="36.7396812438965" lon="-5.16393518447876">
        <ele>712</ele>
        <time>2019-05-11T09:36:24Z</time>
      </trkpt>
      <trkpt lat="36.7396659851074" lon="-5.16390705108643">
        <ele>711</ele>
        <time>2019-05-11T09:36:26Z</time>
      </trkpt>
      <trkpt lat="36.7396469116211" lon="-5.16388177871704">
        <ele>711</ele>
        <time>2019-05-11T09:36:28Z</time>
      </trkpt>
      <trkpt lat="36.739631652832" lon="-5.16386699676514">
        <ele>710</ele>
        <time>2019-05-11T09:36:30Z</time>
      </trkpt>
      <trkpt lat="36.7396125793457" lon="-5.16384792327881">
        <ele>709</ele>
        <time>2019-05-11T09:36:32Z</time>
      </trkpt>
      <trkpt lat="36.7395973205566" lon="-5.16382789611816">
        <ele>709</ele>
        <time>2019-05-11T09:36:34Z</time>
      </trkpt>
      <trkpt lat="36.7395973205566" lon="-5.16380310058594">
        <ele>708</ele>
        <time>2019-05-11T09:36:36Z</time>
      </trkpt>
      <trkpt lat="36.7396087646484" lon="-5.16379499435425">
        <ele>708</ele>
        <time>2019-05-11T09:36:38Z</time>
      </trkpt>
      <trkpt lat="36.7396125793457" lon="-5.16378784179688">
        <ele>706</ele>
        <time>2019-05-11T09:36:40Z</time>
      </trkpt>
      <trkpt lat="36.7396202087402" lon="-5.16377782821655">
        <ele>706</ele>
        <time>2019-05-11T09:36:42Z</time>
      </trkpt>
      <trkpt lat="36.7396240234375" lon="-5.16376304626465">
        <ele>704</ele>
        <time>2019-05-11T09:36:44Z</time>
      </trkpt>
      <trkpt lat="36.7396354675293" lon="-5.16375303268433">
        <ele>703</ele>
        <time>2019-05-11T09:36:46Z</time>
      </trkpt>
      <trkpt lat="36.7396354675293" lon="-5.16373491287231">
        <ele>701</ele>
        <time>2019-05-11T09:36:48Z</time>
      </trkpt>
      <trkpt lat="36.739631652832" lon="-5.16371011734009">
        <ele>701</ele>
        <time>2019-05-11T09:36:50Z</time>
      </trkpt>
      <trkpt lat="36.7396392822266" lon="-5.1636848449707">
        <ele>699</ele>
        <time>2019-05-11T09:36:52Z</time>
      </trkpt>
      <trkpt lat="36.7396469116211" lon="-5.16365814208984">
        <ele>699</ele>
        <time>2019-05-11T09:36:54Z</time>
      </trkpt>
      <trkpt lat="36.7396430969238" lon="-5.16362714767456">
        <ele>698</ele>
        <time>2019-05-11T09:36:56Z</time>
      </trkpt>
      <trkpt lat="36.739631652832" lon="-5.16360807418823">
        <ele>698</ele>
        <time>2019-05-11T09:36:58Z</time>
      </trkpt>
      <trkpt lat="36.739616394043" lon="-5.16358280181885">
        <ele>696</ele>
        <time>2019-05-11T09:37:00Z</time>
      </trkpt>
      <trkpt lat="36.7395935058594" lon="-5.16357517242432">
        <ele>696</ele>
        <time>2019-05-11T09:37:02Z</time>
      </trkpt>
      <trkpt lat="36.7395668029785" lon="-5.16355323791504">
        <ele>696</ele>
        <time>2019-05-11T09:37:04Z</time>
      </trkpt>
      <trkpt lat="36.7395439147949" lon="-5.16353988647461">
        <ele>694</ele>
        <time>2019-05-11T09:37:06Z</time>
      </trkpt>
      <trkpt lat="36.7395248413086" lon="-5.16353797912598">
        <ele>693</ele>
        <time>2019-05-11T09:37:08Z</time>
      </trkpt>
      <trkpt lat="36.7395057678223" lon="-5.16354513168335">
        <ele>693</ele>
        <time>2019-05-11T09:37:10Z</time>
      </trkpt>
      <trkpt lat="36.7394866943359" lon="-5.16355323791504">
        <ele>691</ele>
        <time>2019-05-11T09:37:12Z</time>
      </trkpt>
      <trkpt lat="36.7394638061523" lon="-5.16354513168335">
        <ele>691</ele>
        <time>2019-05-11T09:37:14Z</time>
      </trkpt>
      <trkpt lat="36.7394371032715" lon="-5.1635251045227">
        <ele>691</ele>
        <time>2019-05-11T09:37:16Z</time>
      </trkpt>
      <trkpt lat="36.7394218444824" lon="-5.16350698471069">
        <ele>690</ele>
        <time>2019-05-11T09:37:18Z</time>
      </trkpt>
      <trkpt lat="36.7394104003906" lon="-5.16347694396973">
        <ele>689</ele>
        <time>2019-05-11T09:37:20Z</time>
      </trkpt>
      <trkpt lat="36.7394180297852" lon="-5.1634578704834">
        <ele>687</ele>
        <time>2019-05-11T09:37:22Z</time>
      </trkpt>
      <trkpt lat="36.739429473877" lon="-5.16344976425171">
        <ele>686</ele>
        <time>2019-05-11T09:37:24Z</time>
      </trkpt>
      <trkpt lat="36.739444732666" lon="-5.1634521484375">
        <ele>686</ele>
        <time>2019-05-11T09:37:26Z</time>
      </trkpt>
      <trkpt lat="36.7394523620606" lon="-5.1634521484375">
        <ele>685</ele>
        <time>2019-05-11T09:37:28Z</time>
      </trkpt>
      <trkpt lat="36.7394561767578" lon="-5.1634578704834">
        <ele>684</ele>
        <time>2019-05-11T09:37:30Z</time>
      </trkpt>
      <trkpt lat="36.7394599914551" lon="-5.1634669303894">
        <ele>684</ele>
        <time>2019-05-11T09:37:32Z</time>
      </trkpt>
      <trkpt lat="36.7394714355469" lon="-5.16347694396973">
        <ele>684</ele>
        <time>2019-05-11T09:37:34Z</time>
      </trkpt>
      <trkpt lat="36.7394866943359" lon="-5.16349697113037">
        <ele>683</ele>
        <time>2019-05-11T09:37:36Z</time>
      </trkpt>
      <trkpt lat="36.7394943237305" lon="-5.16350221633911">
        <ele>683</ele>
        <time>2019-05-11T09:37:38Z</time>
      </trkpt>
      <trkpt lat="36.739501953125" lon="-5.16349983215332">
        <ele>681</ele>
        <time>2019-05-11T09:37:40Z</time>
      </trkpt>
      <trkpt lat="36.7395095825195" lon="-5.16349315643311">
        <ele>681</ele>
        <time>2019-05-11T09:37:42Z</time>
      </trkpt>
      <trkpt lat="36.7395095825195" lon="-5.16346979141235">
        <ele>681</ele>
        <time>2019-05-11T09:37:44Z</time>
      </trkpt>
      <trkpt lat="36.739501953125" lon="-5.16342687606812">
        <ele>681</ele>
        <time>2019-05-11T09:37:46Z</time>
      </trkpt>
      <trkpt lat="36.7395057678223" lon="-5.16340780258179">
        <ele>681</ele>
        <time>2019-05-11T09:37:49Z</time>
      </trkpt>
      <trkpt lat="36.7395057678223" lon="-5.16339302062988">
        <ele>681</ele>
        <time>2019-05-11T09:37:51Z</time>
      </trkpt>
      <trkpt lat="36.7395133972168" lon="-5.16339206695557">
        <ele>681</ele>
        <time>2019-05-11T09:37:53Z</time>
      </trkpt>
      <trkpt lat="36.7395286560059" lon="-5.16339206695557">
        <ele>681</ele>
        <time>2019-05-11T09:37:55Z</time>
      </trkpt>
      <trkpt lat="36.7395401000977" lon="-5.16338777542114">
        <ele>681</ele>
        <time>2019-05-11T09:37:57Z</time>
      </trkpt>
      <trkpt lat="36.739559173584" lon="-5.16338205337524">
        <ele>681</ele>
        <time>2019-05-11T09:37:59Z</time>
      </trkpt>
      <trkpt lat="36.739574432373" lon="-5.16337203979492">
        <ele>681</ele>
        <time>2019-05-11T09:38:01Z</time>
      </trkpt>
      <trkpt lat="36.7395896911621" lon="-5.16336488723755">
        <ele>681</ele>
        <time>2019-05-11T09:38:03Z</time>
      </trkpt>
      <trkpt lat="36.7396087646484" lon="-5.16335678100586">
        <ele>681</ele>
        <time>2019-05-11T09:38:05Z</time>
      </trkpt>
      <trkpt lat="36.739631652832" lon="-5.16335296630859">
        <ele>681</ele>
        <time>2019-05-11T09:38:07Z</time>
      </trkpt>
      <trkpt lat="36.7396583557129" lon="-5.16335201263428">
        <ele>681</ele>
        <time>2019-05-11T09:38:09Z</time>
      </trkpt>
      <trkpt lat="36.7396774291992" lon="-5.16335487365723">
        <ele>681</ele>
        <time>2019-05-11T09:38:11Z</time>
      </trkpt>
      <trkpt lat="36.7396965026856" lon="-5.16335678100586">
        <ele>681</ele>
        <time>2019-05-11T09:38:13Z</time>
      </trkpt>
      <trkpt lat="36.7397232055664" lon="-5.163330078125">
        <ele>681</ele>
        <time>2019-05-11T09:38:15Z</time>
      </trkpt>
      <trkpt lat="36.7397499084473" lon="-5.16330480575562">
        <ele>681</ele>
        <time>2019-05-11T09:38:17Z</time>
      </trkpt>
      <trkpt lat="36.7397727966309" lon="-5.16328191757202">
        <ele>681</ele>
        <time>2019-05-11T09:38:19Z</time>
      </trkpt>
      <trkpt lat="36.7397956848144" lon="-5.16325807571411">
        <ele>681</ele>
        <time>2019-05-11T09:38:21Z</time>
      </trkpt>
      <trkpt lat="36.739818572998" lon="-5.16323518753052">
        <ele>681</ele>
        <time>2019-05-11T09:38:23Z</time>
      </trkpt>
      <trkpt lat="36.7398414611816" lon="-5.1632080078125">
        <ele>680</ele>
        <time>2019-05-11T09:38:25Z</time>
      </trkpt>
      <trkpt lat="36.7398643493652" lon="-5.16317987442017">
        <ele>680</ele>
        <time>2019-05-11T09:38:27Z</time>
      </trkpt>
      <trkpt lat="36.7398834228516" lon="-5.16315317153931">
        <ele>680</ele>
        <time>2019-05-11T09:38:29Z</time>
      </trkpt>
      <trkpt lat="36.7399024963379" lon="-5.16312789916992">
        <ele>680</ele>
        <time>2019-05-11T09:38:31Z</time>
      </trkpt>
      <trkpt lat="36.739933013916" lon="-5.16309213638306">
        <ele>680</ele>
        <time>2019-05-11T09:38:33Z</time>
      </trkpt>
      <trkpt lat="36.7399482727051" lon="-5.16306686401367">
        <ele>680</ele>
        <time>2019-05-11T09:38:35Z</time>
      </trkpt>
      <trkpt lat="36.7399787902832" lon="-5.16303777694702">
        <ele>679</ele>
        <time>2019-05-11T09:38:37Z</time>
      </trkpt>
      <trkpt lat="36.7399940490723" lon="-5.1630129814148">
        <ele>679</ele>
        <time>2019-05-11T09:38:39Z</time>
      </trkpt>
      <trkpt lat="36.7400169372559" lon="-5.16298484802246">
        <ele>679</ele>
        <time>2019-05-11T09:38:41Z</time>
      </trkpt>
      <trkpt lat="36.7400398254394" lon="-5.16296005249023">
        <ele>679</ele>
        <time>2019-05-11T09:38:43Z</time>
      </trkpt>
      <trkpt lat="36.7400512695312" lon="-5.16293811798096">
        <ele>679</ele>
        <time>2019-05-11T09:38:45Z</time>
      </trkpt>
      <trkpt lat="36.7400779724121" lon="-5.16290712356567">
        <ele>679</ele>
        <time>2019-05-11T09:38:47Z</time>
      </trkpt>
      <trkpt lat="36.7400932312012" lon="-5.16288185119629">
        <ele>679</ele>
        <time>2019-05-11T09:38:49Z</time>
      </trkpt>
      <trkpt lat="36.7401123046875" lon="-5.16286516189575">
        <ele>679</ele>
        <time>2019-05-11T09:38:51Z</time>
      </trkpt>
      <trkpt lat="36.7401351928711" lon="-5.162841796875">
        <ele>679</ele>
        <time>2019-05-11T09:38:54Z</time>
      </trkpt>
      <trkpt lat="36.740161895752" lon="-5.16282510757446">
        <ele>679</ele>
        <time>2019-05-11T09:38:56Z</time>
      </trkpt>
      <trkpt lat="36.7401809692383" lon="-5.16279697418213">
        <ele>679</ele>
        <time>2019-05-11T09:38:58Z</time>
      </trkpt>
      <trkpt lat="36.7402038574219" lon="-5.16277503967285">
        <ele>679</ele>
        <time>2019-05-11T09:39:00Z</time>
      </trkpt>
      <trkpt lat="36.7402191162109" lon="-5.16275215148926">
        <ele>679</ele>
        <time>2019-05-11T09:39:02Z</time>
      </trkpt>
      <trkpt lat="36.7402381896973" lon="-5.16272687911987">
        <ele>679</ele>
        <time>2019-05-11T09:39:04Z</time>
      </trkpt>
      <trkpt lat="36.7402534484863" lon="-5.16270017623901">
        <ele>679</ele>
        <time>2019-05-11T09:39:06Z</time>
      </trkpt>
      <trkpt lat="36.7402648925781" lon="-5.16267681121826">
        <ele>679</ele>
        <time>2019-05-11T09:39:08Z</time>
      </trkpt>
      <trkpt lat="36.7402763366699" lon="-5.16263198852539">
        <ele>679</ele>
        <time>2019-05-11T09:39:10Z</time>
      </trkpt>
      <trkpt lat="36.740291595459" lon="-5.16260719299316">
        <ele>679</ele>
        <time>2019-05-11T09:39:12Z</time>
      </trkpt>
      <trkpt lat="36.740306854248" lon="-5.16258001327515">
        <ele>680</ele>
        <time>2019-05-11T09:39:14Z</time>
      </trkpt>
      <trkpt lat="36.7403221130371" lon="-5.16256284713745">
        <ele>680</ele>
        <time>2019-05-11T09:39:16Z</time>
      </trkpt>
      <trkpt lat="36.7403373718262" lon="-5.16253805160522">
        <ele>680</ele>
        <time>2019-05-11T09:39:18Z</time>
      </trkpt>
      <trkpt lat="36.740348815918" lon="-5.16251277923584">
        <ele>680</ele>
        <time>2019-05-11T09:39:20Z</time>
      </trkpt>
      <trkpt lat="36.7403602600098" lon="-5.16248321533203">
        <ele>681</ele>
        <time>2019-05-11T09:39:22Z</time>
      </trkpt>
      <trkpt lat="36.7403717041016" lon="-5.16245698928833">
        <ele>681</ele>
        <time>2019-05-11T09:39:24Z</time>
      </trkpt>
      <trkpt lat="36.7403907775879" lon="-5.16243314743042">
        <ele>681</ele>
        <time>2019-05-11T09:39:26Z</time>
      </trkpt>
      <trkpt lat="36.7404022216797" lon="-5.16240978240967">
        <ele>681</ele>
        <time>2019-05-11T09:39:28Z</time>
      </trkpt>
      <trkpt lat="36.7404174804688" lon="-5.16238498687744">
        <ele>681</ele>
        <time>2019-05-11T09:39:31Z</time>
      </trkpt>
      <trkpt lat="36.7404365539551" lon="-5.16236209869385">
        <ele>681</ele>
        <time>2019-05-11T09:39:33Z</time>
      </trkpt>
      <trkpt lat="36.7404556274414" lon="-5.16233777999878">
        <ele>681</ele>
        <time>2019-05-11T09:39:35Z</time>
      </trkpt>
      <trkpt lat="36.7404670715332" lon="-5.1623067855835">
        <ele>681</ele>
        <time>2019-05-11T09:39:37Z</time>
      </trkpt>
      <trkpt lat="36.7404861450195" lon="-5.16228485107422">
        <ele>681</ele>
        <time>2019-05-11T09:39:39Z</time>
      </trkpt>
      <trkpt lat="36.7405014038086" lon="-5.16226291656494">
        <ele>681</ele>
        <time>2019-05-11T09:39:41Z</time>
      </trkpt>
      <trkpt lat="36.7405166625977" lon="-5.16223192214966">
        <ele>681</ele>
        <time>2019-05-11T09:39:43Z</time>
      </trkpt>
      <trkpt lat="36.7405242919922" lon="-5.1622052192688">
        <ele>682</ele>
        <time>2019-05-11T09:39:45Z</time>
      </trkpt>
      <trkpt lat="36.740535736084" lon="-5.16217184066772">
        <ele>683</ele>
        <time>2019-05-11T09:39:47Z</time>
      </trkpt>
      <trkpt lat="36.7405471801758" lon="-5.16214323043823">
        <ele>685</ele>
        <time>2019-05-11T09:39:49Z</time>
      </trkpt>
      <trkpt lat="36.7405586242676" lon="-5.16211986541748">
        <ele>687</ele>
        <time>2019-05-11T09:39:51Z</time>
      </trkpt>
      <trkpt lat="36.7405662536621" lon="-5.1620979309082">
        <ele>689</ele>
        <time>2019-05-11T09:39:53Z</time>
      </trkpt>
      <trkpt lat="36.7405853271484" lon="-5.16207504272461">
        <ele>690</ele>
        <time>2019-05-11T09:39:55Z</time>
      </trkpt>
      <trkpt lat="36.7405967712402" lon="-5.16205215454102">
        <ele>692</ele>
        <time>2019-05-11T09:39:57Z</time>
      </trkpt>
      <trkpt lat="36.740608215332" lon="-5.16202306747436">
        <ele>693</ele>
        <time>2019-05-11T09:39:59Z</time>
      </trkpt>
      <trkpt lat="36.7406234741211" lon="-5.1619930267334">
        <ele>693</ele>
        <time>2019-05-11T09:40:01Z</time>
      </trkpt>
      <trkpt lat="36.7406387329102" lon="-5.16196823120117">
        <ele>694</ele>
        <time>2019-05-11T09:40:03Z</time>
      </trkpt>
      <trkpt lat="36.740650177002" lon="-5.16194009780884">
        <ele>694</ele>
        <time>2019-05-11T09:40:05Z</time>
      </trkpt>
      <trkpt lat="36.7406616210938" lon="-5.16191816329956">
        <ele>694</ele>
        <time>2019-05-11T09:40:08Z</time>
      </trkpt>
      <trkpt lat="36.7406806945801" lon="-5.16189289093018">
        <ele>694</ele>
        <time>2019-05-11T09:40:10Z</time>
      </trkpt>
      <trkpt lat="36.7406921386719" lon="-5.16187286376953">
        <ele>694</ele>
        <time>2019-05-11T09:40:12Z</time>
      </trkpt>
      <trkpt lat="36.7407112121582" lon="-5.16185522079468">
        <ele>694</ele>
        <time>2019-05-11T09:40:14Z</time>
      </trkpt>
      <trkpt lat="36.7407264709473" lon="-5.16183519363403">
        <ele>694</ele>
        <time>2019-05-11T09:40:16Z</time>
      </trkpt>
      <trkpt lat="36.7407417297363" lon="-5.1618070602417">
        <ele>694</ele>
        <time>2019-05-11T09:40:18Z</time>
      </trkpt>
      <trkpt lat="36.7407646179199" lon="-5.16178178787231">
        <ele>694</ele>
        <time>2019-05-11T09:40:20Z</time>
      </trkpt>
      <trkpt lat="36.7407875061035" lon="-5.16175317764282">
        <ele>694</ele>
        <time>2019-05-11T09:40:22Z</time>
      </trkpt>
      <trkpt lat="36.740795135498" lon="-5.16171789169312">
        <ele>693</ele>
        <time>2019-05-11T09:40:24Z</time>
      </trkpt>
      <trkpt lat="36.7408218383789" lon="-5.16168785095215">
        <ele>691</ele>
        <time>2019-05-11T09:40:26Z</time>
      </trkpt>
      <trkpt lat="36.740837097168" lon="-5.16166019439697">
        <ele>691</ele>
        <time>2019-05-11T09:40:28Z</time>
      </trkpt>
      <trkpt lat="36.7408561706543" lon="-5.16163778305054">
        <ele>691</ele>
        <time>2019-05-11T09:40:30Z</time>
      </trkpt>
      <trkpt lat="36.7408752441406" lon="-5.16161823272705">
        <ele>691</ele>
        <time>2019-05-11T09:40:32Z</time>
      </trkpt>
      <trkpt lat="36.740894317627" lon="-5.16159009933472">
        <ele>691</ele>
        <time>2019-05-11T09:40:34Z</time>
      </trkpt>
      <trkpt lat="36.7409057617188" lon="-5.16156482696533">
        <ele>691</ele>
        <time>2019-05-11T09:40:36Z</time>
      </trkpt>
      <trkpt lat="36.7409210205078" lon="-5.16153478622436">
        <ele>690</ele>
        <time>2019-05-11T09:40:38Z</time>
      </trkpt>
      <trkpt lat="36.7409324645996" lon="-5.16150712966919">
        <ele>690</ele>
        <time>2019-05-11T09:40:40Z</time>
      </trkpt>
      <trkpt lat="36.7409400939941" lon="-5.16147994995117">
        <ele>689</ele>
        <time>2019-05-11T09:40:42Z</time>
      </trkpt>
      <trkpt lat="36.7409629821777" lon="-5.16145515441894">
        <ele>689</ele>
        <time>2019-05-11T09:40:45Z</time>
      </trkpt>
      <trkpt lat="36.7409782409668" lon="-5.16142702102661">
        <ele>688</ele>
        <time>2019-05-11T09:40:47Z</time>
      </trkpt>
      <trkpt lat="36.7409934997559" lon="-5.16139984130859">
        <ele>688</ele>
        <time>2019-05-11T09:40:49Z</time>
      </trkpt>
      <trkpt lat="36.7410125732422" lon="-5.161376953125">
        <ele>688</ele>
        <time>2019-05-11T09:40:51Z</time>
      </trkpt>
      <trkpt lat="36.7410202026367" lon="-5.16135311126709">
        <ele>688</ele>
        <time>2019-05-11T09:40:53Z</time>
      </trkpt>
      <trkpt lat="36.7410354614258" lon="-5.16132497787476">
        <ele>688</ele>
        <time>2019-05-11T09:40:55Z</time>
      </trkpt>
      <trkpt lat="36.741039276123" lon="-5.16129302978516">
        <ele>688</ele>
        <time>2019-05-11T09:40:57Z</time>
      </trkpt>
      <trkpt lat="36.7410354614258" lon="-5.16125011444092">
        <ele>688</ele>
        <time>2019-05-11T09:40:59Z</time>
      </trkpt>
      <trkpt lat="36.741039276123" lon="-5.16116809844971">
        <ele>688</ele>
        <time>2019-05-11T09:41:01Z</time>
      </trkpt>
      <trkpt lat="36.7410545349121" lon="-5.16111183166504">
        <ele>688</ele>
        <time>2019-05-11T09:41:03Z</time>
      </trkpt>
      <trkpt lat="36.7410736083984" lon="-5.1610598564148">
        <ele>687</ele>
        <time>2019-05-11T09:41:05Z</time>
      </trkpt>
      <trkpt lat="36.741096496582" lon="-5.16100788116455">
        <ele>686</ele>
        <time>2019-05-11T09:41:07Z</time>
      </trkpt>
      <trkpt lat="36.7411193847656" lon="-5.16095781326294">
        <ele>686</ele>
        <time>2019-05-11T09:41:09Z</time>
      </trkpt>
      <trkpt lat="36.7411346435547" lon="-5.16091823577881">
        <ele>686</ele>
        <time>2019-05-11T09:41:11Z</time>
      </trkpt>
      <trkpt lat="36.741153717041" lon="-5.16088008880615">
        <ele>685</ele>
        <time>2019-05-11T09:41:13Z</time>
      </trkpt>
      <trkpt lat="36.7411804199219" lon="-5.16083288192749">
        <ele>685</ele>
        <time>2019-05-11T09:41:15Z</time>
      </trkpt>
      <trkpt lat="36.7411994934082" lon="-5.16078519821167">
        <ele>684</ele>
        <time>2019-05-11T09:41:17Z</time>
      </trkpt>
      <trkpt lat="36.7412109375" lon="-5.16074323654175">
        <ele>683</ele>
        <time>2019-05-11T09:41:19Z</time>
      </trkpt>
      <trkpt lat="36.7412261962891" lon="-5.16070318222046">
        <ele>683</ele>
        <time>2019-05-11T09:41:22Z</time>
      </trkpt>
      <trkpt lat="36.7412414550781" lon="-5.16066789627075">
        <ele>682</ele>
        <time>2019-05-11T09:41:24Z</time>
      </trkpt>
      <trkpt lat="36.7412528991699" lon="-5.16063690185547">
        <ele>681</ele>
        <time>2019-05-11T09:41:26Z</time>
      </trkpt>
      <trkpt lat="36.7412643432617" lon="-5.16060209274292">
        <ele>681</ele>
        <time>2019-05-11T09:41:28Z</time>
      </trkpt>
      <trkpt lat="36.741283416748" lon="-5.16057777404785">
        <ele>681</ele>
        <time>2019-05-11T09:41:30Z</time>
      </trkpt>
      <trkpt lat="36.7412948608398" lon="-5.16055011749268">
        <ele>681</ele>
        <time>2019-05-11T09:41:32Z</time>
      </trkpt>
      <trkpt lat="36.7412986755371" lon="-5.16051292419434">
        <ele>681</ele>
        <time>2019-05-11T09:41:34Z</time>
      </trkpt>
      <trkpt lat="36.7413139343262" lon="-5.16047286987305">
        <ele>681</ele>
        <time>2019-05-11T09:41:36Z</time>
      </trkpt>
      <trkpt lat="36.7413368225098" lon="-5.1604151725769">
        <ele>681</ele>
        <time>2019-05-11T09:41:38Z</time>
      </trkpt>
      <trkpt lat="36.7413597106934" lon="-5.16037797927856">
        <ele>681</ele>
        <time>2019-05-11T09:41:40Z</time>
      </trkpt>
      <trkpt lat="36.7413711547852" lon="-5.16033792495728">
        <ele>681</ele>
        <time>2019-05-11T09:41:42Z</time>
      </trkpt>
      <trkpt lat="36.741382598877" lon="-5.16028690338135">
        <ele>681</ele>
        <time>2019-05-11T09:41:44Z</time>
      </trkpt>
      <trkpt lat="36.7414054870606" lon="-5.16023015975952">
        <ele>681</ele>
        <time>2019-05-11T09:41:46Z</time>
      </trkpt>
      <trkpt lat="36.7414360046387" lon="-5.16019010543823">
        <ele>682</ele>
        <time>2019-05-11T09:41:48Z</time>
      </trkpt>
      <trkpt lat="36.7414627075195" lon="-5.16014289855957">
        <ele>682</ele>
        <time>2019-05-11T09:41:50Z</time>
      </trkpt>
      <trkpt lat="36.7414855957031" lon="-5.16008806228638">
        <ele>682</ele>
        <time>2019-05-11T09:41:52Z</time>
      </trkpt>
      <trkpt lat="36.741512298584" lon="-5.1600399017334">
        <ele>682</ele>
        <time>2019-05-11T09:41:54Z</time>
      </trkpt>
      <trkpt lat="36.7415466308594" lon="-5.15999221801758">
        <ele>682</ele>
        <time>2019-05-11T09:41:56Z</time>
      </trkpt>
      <trkpt lat="36.7415733337402" lon="-5.15994310379028">
        <ele>682</ele>
        <time>2019-05-11T09:41:58Z</time>
      </trkpt>
      <trkpt lat="36.7415962219238" lon="-5.15989017486572">
        <ele>682</ele>
        <time>2019-05-11T09:42:01Z</time>
      </trkpt>
      <trkpt lat="36.7416114807129" lon="-5.15983486175537">
        <ele>682</ele>
        <time>2019-05-11T09:42:03Z</time>
      </trkpt>
      <trkpt lat="36.7416114807129" lon="-5.15977716445923">
        <ele>682</ele>
        <time>2019-05-11T09:42:05Z</time>
      </trkpt>
      <trkpt lat="36.7416114807129" lon="-5.1597170829773">
        <ele>682</ele>
        <time>2019-05-11T09:42:07Z</time>
      </trkpt>
      <trkpt lat="36.7416114807129" lon="-5.15965509414673">
        <ele>682</ele>
        <time>2019-05-11T09:42:09Z</time>
      </trkpt>
      <trkpt lat="36.7416152954102" lon="-5.15960788726807">
        <ele>682</ele>
        <time>2019-05-11T09:42:11Z</time>
      </trkpt>
      <trkpt lat="36.7416229248047" lon="-5.15957498550415">
        <ele>682</ele>
        <time>2019-05-11T09:42:13Z</time>
      </trkpt>
      <trkpt lat="36.741626739502" lon="-5.15954303741455">
        <ele>682</ele>
        <time>2019-05-11T09:42:15Z</time>
      </trkpt>
      <trkpt lat="36.741626739502" lon="-5.15951013565064">
        <ele>682</ele>
        <time>2019-05-11T09:42:17Z</time>
      </trkpt>
      <trkpt lat="36.741626739502" lon="-5.1594500541687">
        <ele>682</ele>
        <time>2019-05-11T09:42:19Z</time>
      </trkpt>
      <trkpt lat="36.7416229248047" lon="-5.1594181060791">
        <ele>682</ele>
        <time>2019-05-11T09:42:21Z</time>
      </trkpt>
      <trkpt lat="36.7416191101074" lon="-5.15938711166382">
        <ele>682</ele>
        <time>2019-05-11T09:42:23Z</time>
      </trkpt>
      <trkpt lat="36.7416191101074" lon="-5.15935277938843">
        <ele>682</ele>
        <time>2019-05-11T09:42:25Z</time>
      </trkpt>
      <trkpt lat="36.7416152954102" lon="-5.15932512283325">
        <ele>681</ele>
        <time>2019-05-11T09:42:27Z</time>
      </trkpt>
      <trkpt lat="36.7416114807129" lon="-5.15929317474365">
        <ele>680</ele>
        <time>2019-05-11T09:42:29Z</time>
      </trkpt>
      <trkpt lat="36.7416114807129" lon="-5.15925216674805">
        <ele>679</ele>
        <time>2019-05-11T09:42:31Z</time>
      </trkpt>
      <trkpt lat="36.7416038513184" lon="-5.15921783447266">
        <ele>678</ele>
        <time>2019-05-11T09:42:33Z</time>
      </trkpt>
      <trkpt lat="36.7416038513184" lon="-5.15918493270874">
        <ele>678</ele>
        <time>2019-05-11T09:42:35Z</time>
      </trkpt>
      <trkpt lat="36.7416038513184" lon="-5.15915489196777">
        <ele>676</ele>
        <time>2019-05-11T09:42:37Z</time>
      </trkpt>
      <trkpt lat="36.7416038513184" lon="-5.1591272354126">
        <ele>676</ele>
        <time>2019-05-11T09:42:40Z</time>
      </trkpt>
      <trkpt lat="36.7415962219238" lon="-5.15909719467163">
        <ele>676</ele>
        <time>2019-05-11T09:42:42Z</time>
      </trkpt>
      <trkpt lat="36.7415924072266" lon="-5.15906810760498">
        <ele>675</ele>
        <time>2019-05-11T09:42:44Z</time>
      </trkpt>
      <trkpt lat="36.7415885925293" lon="-5.15903806686401">
        <ele>674</ele>
        <time>2019-05-11T09:42:46Z</time>
      </trkpt>
      <trkpt lat="36.741584777832" lon="-5.15900278091431">
        <ele>674</ele>
        <time>2019-05-11T09:42:48Z</time>
      </trkpt>
      <trkpt lat="36.7415809631348" lon="-5.15896987915039">
        <ele>673</ele>
        <time>2019-05-11T09:42:50Z</time>
      </trkpt>
      <trkpt lat="36.7415809631348" lon="-5.15893507003784">
        <ele>671</ele>
        <time>2019-05-11T09:42:52Z</time>
      </trkpt>
      <trkpt lat="36.7415771484375" lon="-5.1588978767395">
        <ele>671</ele>
        <time>2019-05-11T09:42:54Z</time>
      </trkpt>
      <trkpt lat="36.7415733337402" lon="-5.15886306762695">
        <ele>671</ele>
        <time>2019-05-11T09:42:56Z</time>
      </trkpt>
      <trkpt lat="36.7415618896484" lon="-5.15880823135376">
        <ele>671</ele>
        <time>2019-05-11T09:42:58Z</time>
      </trkpt>
      <trkpt lat="36.7415542602539" lon="-5.15877199172974">
        <ele>670</ele>
        <time>2019-05-11T09:43:00Z</time>
      </trkpt>
      <trkpt lat="36.7415504455566" lon="-5.15873289108276">
        <ele>670</ele>
        <time>2019-05-11T09:43:02Z</time>
      </trkpt>
      <trkpt lat="36.7415466308594" lon="-5.15869522094727">
        <ele>670</ele>
        <time>2019-05-11T09:43:04Z</time>
      </trkpt>
      <trkpt lat="36.7415428161621" lon="-5.15865802764893">
        <ele>670</ele>
        <time>2019-05-11T09:43:06Z</time>
      </trkpt>
      <trkpt lat="36.7415428161621" lon="-5.15862321853638">
        <ele>669</ele>
        <time>2019-05-11T09:43:08Z</time>
      </trkpt>
      <trkpt lat="36.7415390014648" lon="-5.15858697891235">
        <ele>669</ele>
        <time>2019-05-11T09:43:10Z</time>
      </trkpt>
      <trkpt lat="36.7415313720703" lon="-5.1585521697998">
        <ele>669</ele>
        <time>2019-05-11T09:43:12Z</time>
      </trkpt>
      <trkpt lat="36.7415237426758" lon="-5.15851783752441">
        <ele>668</ele>
        <time>2019-05-11T09:43:14Z</time>
      </trkpt>
      <trkpt lat="36.7415161132812" lon="-5.15848302841186">
        <ele>668</ele>
        <time>2019-05-11T09:43:17Z</time>
      </trkpt>
      <trkpt lat="36.741512298584" lon="-5.15845012664795">
        <ele>668</ele>
        <time>2019-05-11T09:43:19Z</time>
      </trkpt>
      <trkpt lat="36.7415084838867" lon="-5.15841722488403">
        <ele>668</ele>
        <time>2019-05-11T09:43:21Z</time>
      </trkpt>
      <trkpt lat="36.7415008544922" lon="-5.15838718414307">
        <ele>668</ele>
        <time>2019-05-11T09:43:23Z</time>
      </trkpt>
      <trkpt lat="36.7414932250977" lon="-5.15835285186768">
        <ele>668</ele>
        <time>2019-05-11T09:43:25Z</time>
      </trkpt>
      <trkpt lat="36.7414894104004" lon="-5.15832710266113">
        <ele>668</ele>
        <time>2019-05-11T09:43:27Z</time>
      </trkpt>
      <trkpt lat="36.7414817810059" lon="-5.15829277038574">
        <ele>668</ele>
        <time>2019-05-11T09:43:29Z</time>
      </trkpt>
      <trkpt lat="36.7414779663086" lon="-5.15825986862183">
        <ele>667</ele>
        <time>2019-05-11T09:43:31Z</time>
      </trkpt>
      <trkpt lat="36.7414665222168" lon="-5.15820980072022">
        <ele>666</ele>
        <time>2019-05-11T09:43:33Z</time>
      </trkpt>
      <trkpt lat="36.7414627075195" lon="-5.15818023681641">
        <ele>666</ele>
        <time>2019-05-11T09:43:35Z</time>
      </trkpt>
      <trkpt lat="36.741455078125" lon="-5.15814781188965">
        <ele>666</ele>
        <time>2019-05-11T09:43:37Z</time>
      </trkpt>
      <trkpt lat="36.7414436340332" lon="-5.1581130027771">
        <ele>666</ele>
        <time>2019-05-11T09:43:39Z</time>
      </trkpt>
      <trkpt lat="36.7414321899414" lon="-5.15808200836182">
        <ele>666</ele>
        <time>2019-05-11T09:43:41Z</time>
      </trkpt>
      <trkpt lat="36.7414245605469" lon="-5.15804815292358">
        <ele>666</ele>
        <time>2019-05-11T09:43:43Z</time>
      </trkpt>
      <trkpt lat="36.7414169311523" lon="-5.15801477432251">
        <ele>666</ele>
        <time>2019-05-11T09:43:45Z</time>
      </trkpt>
      <trkpt lat="36.7414054870606" lon="-5.15798187255859">
        <ele>665</ele>
        <time>2019-05-11T09:43:47Z</time>
      </trkpt>
      <trkpt lat="36.7414016723633" lon="-5.15794992446899">
        <ele>665</ele>
        <time>2019-05-11T09:43:49Z</time>
      </trkpt>
      <trkpt lat="36.7413864135742" lon="-5.15791988372803">
        <ele>665</ele>
        <time>2019-05-11T09:43:52Z</time>
      </trkpt>
      <trkpt lat="36.741382598877" lon="-5.15788698196411">
        <ele>665</ele>
        <time>2019-05-11T09:43:54Z</time>
      </trkpt>
      <trkpt lat="36.7413749694824" lon="-5.15785217285156">
        <ele>665</ele>
        <time>2019-05-11T09:43:56Z</time>
      </trkpt>
      <trkpt lat="36.7413673400879" lon="-5.15781784057617">
        <ele>664</ele>
        <time>2019-05-11T09:43:58Z</time>
      </trkpt>
      <trkpt lat="36.7413635253906" lon="-5.15778493881226">
        <ele>664</ele>
        <time>2019-05-11T09:44:00Z</time>
      </trkpt>
      <trkpt lat="36.7413635253906" lon="-5.15775680541992">
        <ele>663</ele>
        <time>2019-05-11T09:44:02Z</time>
      </trkpt>
      <trkpt lat="36.7413597106934" lon="-5.15772676467896">
        <ele>663</ele>
        <time>2019-05-11T09:44:04Z</time>
      </trkpt>
      <trkpt lat="36.7413482666016" lon="-5.15769720077515">
        <ele>663</ele>
        <time>2019-05-11T09:44:06Z</time>
      </trkpt>
      <trkpt lat="36.7413368225098" lon="-5.15765190124512">
        <ele>663</ele>
        <time>2019-05-11T09:44:08Z</time>
      </trkpt>
      <trkpt lat="36.7413291931152" lon="-5.15761995315552">
        <ele>661</ele>
        <time>2019-05-11T09:44:10Z</time>
      </trkpt>
      <trkpt lat="36.7413215637207" lon="-5.15758991241455">
        <ele>661</ele>
        <time>2019-05-11T09:44:12Z</time>
      </trkpt>
      <trkpt lat="36.7413063049316" lon="-5.15755796432495">
        <ele>661</ele>
        <time>2019-05-11T09:44:14Z</time>
      </trkpt>
      <trkpt lat="36.7412910461426" lon="-5.15752792358398">
        <ele>661</ele>
        <time>2019-05-11T09:44:16Z</time>
      </trkpt>
      <trkpt lat="36.7412796020508" lon="-5.1574969291687">
        <ele>661</ele>
        <time>2019-05-11T09:44:18Z</time>
      </trkpt>
      <trkpt lat="36.7412719726562" lon="-5.15746307373047">
        <ele>661</ele>
        <time>2019-05-11T09:44:20Z</time>
      </trkpt>
      <trkpt lat="36.7412605285644" lon="-5.15743207931519">
        <ele>661</ele>
        <time>2019-05-11T09:44:22Z</time>
      </trkpt>
      <trkpt lat="36.7412490844727" lon="-5.15739679336548">
        <ele>661</ele>
        <time>2019-05-11T09:44:24Z</time>
      </trkpt>
      <trkpt lat="36.7412376403809" lon="-5.15736293792725">
        <ele>661</ele>
        <time>2019-05-11T09:44:27Z</time>
      </trkpt>
      <trkpt lat="36.7412261962891" lon="-5.1573281288147">
        <ele>661</ele>
        <time>2019-05-11T09:44:29Z</time>
      </trkpt>
      <trkpt lat="36.7412147521973" lon="-5.15729284286499">
        <ele>661</ele>
        <time>2019-05-11T09:44:31Z</time>
      </trkpt>
      <trkpt lat="36.7412033081055" lon="-5.15726184844971">
        <ele>661</ele>
        <time>2019-05-11T09:44:33Z</time>
      </trkpt>
      <trkpt lat="36.7411918640137" lon="-5.15722703933716">
        <ele>661</ele>
        <time>2019-05-11T09:44:35Z</time>
      </trkpt>
      <trkpt lat="36.7411766052246" lon="-5.15718507766724">
        <ele>661</ele>
        <time>2019-05-11T09:44:37Z</time>
      </trkpt>
      <trkpt lat="36.7411613464356" lon="-5.15715217590332">
        <ele>661</ele>
        <time>2019-05-11T09:44:39Z</time>
      </trkpt>
      <trkpt lat="36.7411499023438" lon="-5.15711688995361">
        <ele>661</ele>
        <time>2019-05-11T09:44:41Z</time>
      </trkpt>
      <trkpt lat="36.7411308288574" lon="-5.157066822052">
        <ele>661</ele>
        <time>2019-05-11T09:44:43Z</time>
      </trkpt>
      <trkpt lat="36.7411270141602" lon="-5.15702819824219">
        <ele>661</ele>
        <time>2019-05-11T09:44:45Z</time>
      </trkpt>
      <trkpt lat="36.7411231994629" lon="-5.15699291229248">
        <ele>661</ele>
        <time>2019-05-11T09:44:47Z</time>
      </trkpt>
      <trkpt lat="36.7411193847656" lon="-5.15695714950562">
        <ele>661</ele>
        <time>2019-05-11T09:44:49Z</time>
      </trkpt>
      <trkpt lat="36.7411231994629" lon="-5.15691184997559">
        <ele>661</ele>
        <time>2019-05-11T09:44:51Z</time>
      </trkpt>
      <trkpt lat="36.741138458252" lon="-5.15687322616577">
        <ele>661</ele>
        <time>2019-05-11T09:44:53Z</time>
      </trkpt>
      <trkpt lat="36.7411613464356" lon="-5.15682792663574">
        <ele>661</ele>
        <time>2019-05-11T09:44:55Z</time>
      </trkpt>
      <trkpt lat="36.7411651611328" lon="-5.1567702293396">
        <ele>661</ele>
        <time>2019-05-11T09:44:57Z</time>
      </trkpt>
      <trkpt lat="36.7411766052246" lon="-5.15671491622925">
        <ele>661</ele>
        <time>2019-05-11T09:44:59Z</time>
      </trkpt>
      <trkpt lat="36.7411880493164" lon="-5.15666198730469">
        <ele>661</ele>
        <time>2019-05-11T09:45:01Z</time>
      </trkpt>
      <trkpt lat="36.7411918640137" lon="-5.15659809112549">
        <ele>661</ele>
        <time>2019-05-11T09:45:03Z</time>
      </trkpt>
      <trkpt lat="36.7411956787109" lon="-5.15654182434082">
        <ele>661</ele>
        <time>2019-05-11T09:45:05Z</time>
      </trkpt>
      <trkpt lat="36.7411956787109" lon="-5.15648221969604">
        <ele>661</ele>
        <time>2019-05-11T09:45:07Z</time>
      </trkpt>
      <trkpt lat="36.7411956787109" lon="-5.15642023086548">
        <ele>661</ele>
        <time>2019-05-11T09:45:09Z</time>
      </trkpt>
      <trkpt lat="36.7411842346191" lon="-5.15635299682617">
        <ele>661</ele>
        <time>2019-05-11T09:45:11Z</time>
      </trkpt>
      <trkpt lat="36.7411804199219" lon="-5.15629291534424">
        <ele>661</ele>
        <time>2019-05-11T09:45:14Z</time>
      </trkpt>
      <trkpt lat="36.7411766052246" lon="-5.1562352180481">
        <ele>661</ele>
        <time>2019-05-11T09:45:16Z</time>
      </trkpt>
      <trkpt lat="36.7411727905273" lon="-5.1561918258667">
        <ele>661</ele>
        <time>2019-05-11T09:45:18Z</time>
      </trkpt>
      <trkpt lat="36.7411613464356" lon="-5.15614986419678">
        <ele>661</ele>
        <time>2019-05-11T09:45:20Z</time>
      </trkpt>
      <trkpt lat="36.7411613464356" lon="-5.15611219406128">
        <ele>661</ele>
        <time>2019-05-11T09:45:22Z</time>
      </trkpt>
      <trkpt lat="36.741153717041" lon="-5.15607500076294">
        <ele>661</ele>
        <time>2019-05-11T09:45:24Z</time>
      </trkpt>
      <trkpt lat="36.7411499023438" lon="-5.1560378074646">
        <ele>661</ele>
        <time>2019-05-11T09:45:26Z</time>
      </trkpt>
      <trkpt lat="36.7411422729492" lon="-5.1560001373291">
        <ele>661</ele>
        <time>2019-05-11T09:45:28Z</time>
      </trkpt>
      <trkpt lat="36.7411270141602" lon="-5.15594005584717">
        <ele>661</ele>
        <time>2019-05-11T09:45:30Z</time>
      </trkpt>
      <trkpt lat="36.7411155700684" lon="-5.15590190887451">
        <ele>661</ele>
        <time>2019-05-11T09:45:32Z</time>
      </trkpt>
      <trkpt lat="36.7411041259766" lon="-5.15586519241333">
        <ele>661</ele>
        <time>2019-05-11T09:45:34Z</time>
      </trkpt>
      <trkpt lat="36.741096496582" lon="-5.15583515167236">
        <ele>661</ele>
        <time>2019-05-11T09:45:36Z</time>
      </trkpt>
      <trkpt lat="36.741081237793" lon="-5.15580701828003">
        <ele>661</ele>
        <time>2019-05-11T09:45:38Z</time>
      </trkpt>
      <trkpt lat="36.7410659790039" lon="-5.15577983856201">
        <ele>661</ele>
        <time>2019-05-11T09:45:40Z</time>
      </trkpt>
      <trkpt lat="36.7410507202148" lon="-5.15575313568115">
        <ele>661</ele>
        <time>2019-05-11T09:45:42Z</time>
      </trkpt>
      <trkpt lat="36.7410354614258" lon="-5.15572309494019">
        <ele>661</ele>
        <time>2019-05-11T09:45:44Z</time>
      </trkpt>
      <trkpt lat="36.7410202026367" lon="-5.15570020675659">
        <ele>661</ele>
        <time>2019-05-11T09:45:46Z</time>
      </trkpt>
      <trkpt lat="36.7410049438477" lon="-5.15567207336426">
        <ele>661</ele>
        <time>2019-05-11T09:45:49Z</time>
      </trkpt>
      <trkpt lat="36.7409896850586" lon="-5.15563821792603">
        <ele>661</ele>
        <time>2019-05-11T09:45:51Z</time>
      </trkpt>
      <trkpt lat="36.7409744262695" lon="-5.15561008453369">
        <ele>661</ele>
        <time>2019-05-11T09:45:53Z</time>
      </trkpt>
      <trkpt lat="36.7409591674805" lon="-5.15558004379272">
        <ele>661</ele>
        <time>2019-05-11T09:45:55Z</time>
      </trkpt>
      <trkpt lat="36.7409400939941" lon="-5.15555191040039">
        <ele>661</ele>
        <time>2019-05-11T09:45:57Z</time>
      </trkpt>
      <trkpt lat="36.7409286499023" lon="-5.15552282333374">
        <ele>661</ele>
        <time>2019-05-11T09:45:59Z</time>
      </trkpt>
      <trkpt lat="36.7409133911133" lon="-5.1554970741272">
        <ele>661</ele>
        <time>2019-05-11T09:46:01Z</time>
      </trkpt>
      <trkpt lat="36.7408981323242" lon="-5.15546703338623">
        <ele>661</ele>
        <time>2019-05-11T09:46:03Z</time>
      </trkpt>
      <trkpt lat="36.7408752441406" lon="-5.15542507171631">
        <ele>661</ele>
        <time>2019-05-11T09:46:05Z</time>
      </trkpt>
      <trkpt lat="36.7408561706543" lon="-5.15540313720703">
        <ele>661</ele>
        <time>2019-05-11T09:46:07Z</time>
      </trkpt>
      <trkpt lat="36.740837097168" lon="-5.1553750038147">
        <ele>661</ele>
        <time>2019-05-11T09:46:09Z</time>
      </trkpt>
      <trkpt lat="36.7408218383789" lon="-5.15535020828247">
        <ele>661</ele>
        <time>2019-05-11T09:46:11Z</time>
      </trkpt>
      <trkpt lat="36.7408065795898" lon="-5.1553201675415">
        <ele>661</ele>
        <time>2019-05-11T09:46:13Z</time>
      </trkpt>
      <trkpt lat="36.7407836914062" lon="-5.1552882194519">
        <ele>662</ele>
        <time>2019-05-11T09:46:15Z</time>
      </trkpt>
      <trkpt lat="36.7407684326172" lon="-5.15526676177978">
        <ele>662</ele>
        <time>2019-05-11T09:46:17Z</time>
      </trkpt>
      <trkpt lat="36.7407531738281" lon="-5.15523719787598">
        <ele>662</ele>
        <time>2019-05-11T09:46:19Z</time>
      </trkpt>
      <trkpt lat="36.7407341003418" lon="-5.15520811080933">
        <ele>663</ele>
        <time>2019-05-11T09:46:22Z</time>
      </trkpt>
      <trkpt lat="36.7407035827637" lon="-5.15517997741699">
        <ele>663</ele>
        <time>2019-05-11T09:46:24Z</time>
      </trkpt>
      <trkpt lat="36.7406883239746" lon="-5.15515804290772">
        <ele>664</ele>
        <time>2019-05-11T09:46:26Z</time>
      </trkpt>
      <trkpt lat="36.7406616210938" lon="-5.15513515472412">
        <ele>665</ele>
        <time>2019-05-11T09:46:28Z</time>
      </trkpt>
      <trkpt lat="36.7406387329102" lon="-5.15511512756348">
        <ele>665</ele>
        <time>2019-05-11T09:46:30Z</time>
      </trkpt>
      <trkpt lat="36.7406158447266" lon="-5.15508985519409">
        <ele>667</ele>
        <time>2019-05-11T09:46:32Z</time>
      </trkpt>
      <trkpt lat="36.7405967712402" lon="-5.15506315231323">
        <ele>668</ele>
        <time>2019-05-11T09:46:34Z</time>
      </trkpt>
      <trkpt lat="36.7405776977539" lon="-5.15503311157227">
        <ele>669</ele>
        <time>2019-05-11T09:46:36Z</time>
      </trkpt>
      <trkpt lat="36.7405624389648" lon="-5.15500211715698">
        <ele>669</ele>
        <time>2019-05-11T09:46:38Z</time>
      </trkpt>
      <trkpt lat="36.740535736084" lon="-5.15495681762695">
        <ele>670</ele>
        <time>2019-05-11T09:46:40Z</time>
      </trkpt>
      <trkpt lat="36.7405166625977" lon="-5.15492820739746">
        <ele>670</ele>
        <time>2019-05-11T09:46:42Z</time>
      </trkpt>
      <trkpt lat="36.7405014038086" lon="-5.15489721298218">
        <ele>670</ele>
        <time>2019-05-11T09:46:44Z</time>
      </trkpt>
      <trkpt lat="36.7404861450195" lon="-5.15486478805542">
        <ele>671</ele>
        <time>2019-05-11T09:46:46Z</time>
      </trkpt>
      <trkpt lat="36.7404708862305" lon="-5.15483808517456">
        <ele>671</ele>
        <time>2019-05-11T09:46:48Z</time>
      </trkpt>
      <trkpt lat="36.7404594421387" lon="-5.15480518341064">
        <ele>671</ele>
        <time>2019-05-11T09:46:50Z</time>
      </trkpt>
      <trkpt lat="36.7404594421387" lon="-5.15476989746094">
        <ele>671</ele>
        <time>2019-05-11T09:46:52Z</time>
      </trkpt>
      <trkpt lat="36.7404479980469" lon="-5.15473318099976">
        <ele>671</ele>
        <time>2019-05-11T09:46:54Z</time>
      </trkpt>
      <trkpt lat="36.7404365539551" lon="-5.15469789505005">
        <ele>671</ele>
        <time>2019-05-11T09:46:57Z</time>
      </trkpt>
      <trkpt lat="36.7404251098633" lon="-5.15466785430908">
        <ele>672</ele>
        <time>2019-05-11T09:46:59Z</time>
      </trkpt>
      <trkpt lat="36.7404136657715" lon="-5.15463781356812">
        <ele>672</ele>
        <time>2019-05-11T09:47:01Z</time>
      </trkpt>
      <trkpt lat="36.7403945922852" lon="-5.1546049118042">
        <ele>672</ele>
        <time>2019-05-11T09:47:03Z</time>
      </trkpt>
      <trkpt lat="36.7403793334961" lon="-5.15457677841186">
        <ele>672</ele>
        <time>2019-05-11T09:47:05Z</time>
      </trkpt>
      <trkpt lat="36.740364074707" lon="-5.15453815460205">
        <ele>672</ele>
        <time>2019-05-11T09:47:07Z</time>
      </trkpt>
      <trkpt lat="36.740348815918" lon="-5.15450811386108">
        <ele>672</ele>
        <time>2019-05-11T09:47:09Z</time>
      </trkpt>
      <trkpt lat="36.7403335571289" lon="-5.15447998046875">
        <ele>672</ele>
        <time>2019-05-11T09:47:11Z</time>
      </trkpt>
      <trkpt lat="36.7403182983398" lon="-5.15444993972778">
        <ele>672</ele>
        <time>2019-05-11T09:47:13Z</time>
      </trkpt>
      <trkpt lat="36.7402839660644" lon="-5.15440702438354">
        <ele>672</ele>
        <time>2019-05-11T09:47:15Z</time>
      </trkpt>
      <trkpt lat="36.7402610778809" lon="-5.15437793731689">
        <ele>672</ele>
        <time>2019-05-11T09:47:17Z</time>
      </trkpt>
      <trkpt lat="36.7402496337891" lon="-5.15434980392456">
        <ele>672</ele>
        <time>2019-05-11T09:47:19Z</time>
      </trkpt>
      <trkpt lat="36.7402267456055" lon="-5.15432214736938">
        <ele>672</ele>
        <time>2019-05-11T09:47:21Z</time>
      </trkpt>
      <trkpt lat="36.7402038574219" lon="-5.15429782867432">
        <ele>672</ele>
        <time>2019-05-11T09:47:23Z</time>
      </trkpt>
      <trkpt lat="36.7401847839356" lon="-5.15428018569946">
        <ele>672</ele>
        <time>2019-05-11T09:47:25Z</time>
      </trkpt>
      <trkpt lat="36.740161895752" lon="-5.15425777435303">
        <ele>672</ele>
        <time>2019-05-11T09:47:27Z</time>
      </trkpt>
      <trkpt lat="36.7401428222656" lon="-5.15423822402954">
        <ele>672</ele>
        <time>2019-05-11T09:47:29Z</time>
      </trkpt>
      <trkpt lat="36.7401275634766" lon="-5.15422010421753">
        <ele>672</ele>
        <time>2019-05-11T09:47:32Z</time>
      </trkpt>
      <trkpt lat="36.7401084899902" lon="-5.15419292449951">
        <ele>672</ele>
        <time>2019-05-11T09:47:34Z</time>
      </trkpt>
      <trkpt lat="36.7400856018066" lon="-5.15416812896728">
        <ele>672</ele>
        <time>2019-05-11T09:47:36Z</time>
      </trkpt>
      <trkpt lat="36.740062713623" lon="-5.15414810180664">
        <ele>672</ele>
        <time>2019-05-11T09:47:38Z</time>
      </trkpt>
      <trkpt lat="36.7400321960449" lon="-5.15413284301758">
        <ele>672</ele>
        <time>2019-05-11T09:47:40Z</time>
      </trkpt>
      <trkpt lat="36.7400093078613" lon="-5.15411806106567">
        <ele>672</ele>
        <time>2019-05-11T09:47:42Z</time>
      </trkpt>
      <trkpt lat="36.7399864196777" lon="-5.15410280227661">
        <ele>672</ele>
        <time>2019-05-11T09:47:44Z</time>
      </trkpt>
      <trkpt lat="36.7399711608887" lon="-5.15408182144165">
        <ele>672</ele>
        <time>2019-05-11T09:47:46Z</time>
      </trkpt>
      <trkpt lat="36.7399597167969" lon="-5.15405511856079">
        <ele>672</ele>
        <time>2019-05-11T09:47:48Z</time>
      </trkpt>
      <trkpt lat="36.739933013916" lon="-5.15402317047119">
        <ele>672</ele>
        <time>2019-05-11T09:47:50Z</time>
      </trkpt>
      <trkpt lat="36.739917755127" lon="-5.15400218963623">
        <ele>672</ele>
        <time>2019-05-11T09:47:52Z</time>
      </trkpt>
      <trkpt lat="36.7398986816406" lon="-5.15398216247559">
        <ele>672</ele>
        <time>2019-05-11T09:47:54Z</time>
      </trkpt>
      <trkpt lat="36.7398719787598" lon="-5.15395498275757">
        <ele>672</ele>
        <time>2019-05-11T09:47:56Z</time>
      </trkpt>
      <trkpt lat="36.7398490905762" lon="-5.15393018722534">
        <ele>672</ele>
        <time>2019-05-11T09:47:58Z</time>
      </trkpt>
      <trkpt lat="36.7398338317871" lon="-5.15390300750732">
        <ele>673</ele>
        <time>2019-05-11T09:48:00Z</time>
      </trkpt>
      <trkpt lat="36.739818572998" lon="-5.15387487411499">
        <ele>673</ele>
        <time>2019-05-11T09:48:02Z</time>
      </trkpt>
      <trkpt lat="36.7398109436035" lon="-5.15384197235107">
        <ele>673</ele>
        <time>2019-05-11T09:48:04Z</time>
      </trkpt>
      <trkpt lat="36.739803314209" lon="-5.15381193161011">
        <ele>674</ele>
        <time>2019-05-11T09:48:07Z</time>
      </trkpt>
      <trkpt lat="36.7397880554199" lon="-5.15378713607788">
        <ele>675</ele>
        <time>2019-05-11T09:48:09Z</time>
      </trkpt>
      <trkpt lat="36.7397766113281" lon="-5.1537618637085">
        <ele>676</ele>
        <time>2019-05-11T09:48:11Z</time>
      </trkpt>
      <trkpt lat="36.7397651672363" lon="-5.1537299156189">
        <ele>677</ele>
        <time>2019-05-11T09:48:13Z</time>
      </trkpt>
      <trkpt lat="36.7397575378418" lon="-5.1536979675293">
        <ele>677</ele>
        <time>2019-05-11T09:48:15Z</time>
      </trkpt>
      <trkpt lat="36.7397422790527" lon="-5.15366983413696">
        <ele>677</ele>
        <time>2019-05-11T09:48:17Z</time>
      </trkpt>
      <trkpt lat="36.7397346496582" lon="-5.153639793396">
        <ele>677</ele>
        <time>2019-05-11T09:48:19Z</time>
      </trkpt>
      <trkpt lat="36.7397232055664" lon="-5.15361213684082">
        <ele>677</ele>
        <time>2019-05-11T09:48:21Z</time>
      </trkpt>
      <trkpt lat="36.7397117614746" lon="-5.15358209609985">
        <ele>677</ele>
        <time>2019-05-11T09:48:23Z</time>
      </trkpt>
      <trkpt lat="36.7396965026856" lon="-5.15353298187256">
        <ele>677</ele>
        <time>2019-05-11T09:48:25Z</time>
      </trkpt>
      <trkpt lat="36.7396812438965" lon="-5.15350198745728">
        <ele>677</ele>
        <time>2019-05-11T09:48:27Z</time>
      </trkpt>
      <trkpt lat="36.739673614502" lon="-5.15347480773926">
        <ele>677</ele>
        <time>2019-05-11T09:48:29Z</time>
      </trkpt>
      <trkpt lat="36.7396621704102" lon="-5.15344285964966">
        <ele>677</ele>
        <time>2019-05-11T09:48:31Z</time>
      </trkpt>
      <trkpt lat="36.7396507263184" lon="-5.15341186523438">
        <ele>678</ele>
        <time>2019-05-11T09:48:33Z</time>
      </trkpt>
      <trkpt lat="36.7396392822266" lon="-5.15338277816772">
        <ele>678</ele>
        <time>2019-05-11T09:48:35Z</time>
      </trkpt>
      <trkpt lat="36.7396278381348" lon="-5.15335512161255">
        <ele>679</ele>
        <time>2019-05-11T09:48:37Z</time>
      </trkpt>
      <trkpt lat="36.739616394043" lon="-5.15332508087158">
        <ele>679</ele>
        <time>2019-05-11T09:48:39Z</time>
      </trkpt>
      <trkpt lat="36.7396087646484" lon="-5.15329790115356">
        <ele>680</ele>
        <time>2019-05-11T09:48:42Z</time>
      </trkpt>
      <trkpt lat="36.7395973205566" lon="-5.15327310562134">
        <ele>680</ele>
        <time>2019-05-11T09:48:44Z</time>
      </trkpt>
      <trkpt lat="36.7395858764648" lon="-5.15323781967163">
        <ele>681</ele>
        <time>2019-05-11T09:48:46Z</time>
      </trkpt>
      <trkpt lat="36.7395782470703" lon="-5.15321683883667">
        <ele>682</ele>
        <time>2019-05-11T09:48:48Z</time>
      </trkpt>
      <trkpt lat="36.7395706176758" lon="-5.15318822860718">
        <ele>682</ele>
        <time>2019-05-11T09:48:50Z</time>
      </trkpt>
      <trkpt lat="36.739559173584" lon="-5.15316295623779">
        <ele>683</ele>
        <time>2019-05-11T09:48:52Z</time>
      </trkpt>
      <trkpt lat="36.7395515441894" lon="-5.15314197540283">
        <ele>683</ele>
        <time>2019-05-11T09:48:54Z</time>
      </trkpt>
      <trkpt lat="36.7395439147949" lon="-5.15311002731323">
        <ele>683</ele>
        <time>2019-05-11T09:48:56Z</time>
      </trkpt>
      <trkpt lat="36.7395286560059" lon="-5.1530818939209">
        <ele>684</ele>
        <time>2019-05-11T09:48:58Z</time>
      </trkpt>
      <trkpt lat="36.7395133972168" lon="-5.15304517745972">
        <ele>684</ele>
        <time>2019-05-11T09:49:00Z</time>
      </trkpt>
      <trkpt lat="36.739501953125" lon="-5.15301990509033">
        <ele>684</ele>
        <time>2019-05-11T09:49:02Z</time>
      </trkpt>
      <trkpt lat="36.7394943237305" lon="-5.15299701690674">
        <ele>684</ele>
        <time>2019-05-11T09:49:04Z</time>
      </trkpt>
      <trkpt lat="36.7394828796387" lon="-5.15296697616577">
        <ele>685</ele>
        <time>2019-05-11T09:49:06Z</time>
      </trkpt>
      <trkpt lat="36.7394714355469" lon="-5.15294218063354">
        <ele>686</ele>
        <time>2019-05-11T09:49:08Z</time>
      </trkpt>
      <trkpt lat="36.7394638061523" lon="-5.15291690826416">
        <ele>687</ele>
        <time>2019-05-11T09:49:10Z</time>
      </trkpt>
      <trkpt lat="36.7394485473633" lon="-5.15289306640625">
        <ele>688</ele>
        <time>2019-05-11T09:49:12Z</time>
      </trkpt>
      <trkpt lat="36.7394332885742" lon="-5.15286684036255">
        <ele>688</ele>
        <time>2019-05-11T09:49:14Z</time>
      </trkpt>
      <trkpt lat="36.7394218444824" lon="-5.15283823013306">
        <ele>689</ele>
        <time>2019-05-11T09:49:17Z</time>
      </trkpt>
      <trkpt lat="36.7394104003906" lon="-5.15281295776367">
        <ele>689</ele>
        <time>2019-05-11T09:49:19Z</time>
      </trkpt>
      <trkpt lat="36.7393989562988" lon="-5.15278482437134">
        <ele>689</ele>
        <time>2019-05-11T09:49:21Z</time>
      </trkpt>
      <trkpt lat="36.739387512207" lon="-5.15275716781616">
        <ele>690</ele>
        <time>2019-05-11T09:49:23Z</time>
      </trkpt>
      <trkpt lat="36.7393760681152" lon="-5.15273189544678">
        <ele>691</ele>
        <time>2019-05-11T09:49:25Z</time>
      </trkpt>
      <trkpt lat="36.7393646240234" lon="-5.1527099609375">
        <ele>691</ele>
        <time>2019-05-11T09:49:27Z</time>
      </trkpt>
      <trkpt lat="36.7393531799316" lon="-5.15268993377686">
        <ele>692</ele>
        <time>2019-05-11T09:49:29Z</time>
      </trkpt>
      <trkpt lat="36.7393417358398" lon="-5.15267181396484">
        <ele>692</ele>
        <time>2019-05-11T09:49:31Z</time>
      </trkpt>
      <trkpt lat="36.7393264770508" lon="-5.15265321731567">
        <ele>692</ele>
        <time>2019-05-11T09:49:33Z</time>
      </trkpt>
      <trkpt lat="36.7393035888672" lon="-5.15261507034302">
        <ele>692</ele>
        <time>2019-05-11T09:49:35Z</time>
      </trkpt>
      <trkpt lat="36.7392959594727" lon="-5.15258502960205">
        <ele>692</ele>
        <time>2019-05-11T09:49:37Z</time>
      </trkpt>
      <trkpt lat="36.7392883300781" lon="-5.15256214141846">
        <ele>692</ele>
        <time>2019-05-11T09:49:39Z</time>
      </trkpt>
      <trkpt lat="36.7392768859863" lon="-5.15253782272339">
        <ele>692</ele>
        <time>2019-05-11T09:49:41Z</time>
      </trkpt>
      <trkpt lat="36.7392730712891" lon="-5.1525149345398">
        <ele>692</ele>
        <time>2019-05-11T09:49:43Z</time>
      </trkpt>
      <trkpt lat="36.7392616271973" lon="-5.1524829864502">
        <ele>692</ele>
        <time>2019-05-11T09:49:45Z</time>
      </trkpt>
      <trkpt lat="36.7392539978027" lon="-5.15244722366333">
        <ele>692</ele>
        <time>2019-05-11T09:49:47Z</time>
      </trkpt>
      <trkpt lat="36.7392463684082" lon="-5.15241003036499">
        <ele>692</ele>
        <time>2019-05-11T09:49:49Z</time>
      </trkpt>
      <trkpt lat="36.7392311096191" lon="-5.15237283706665">
        <ele>692</ele>
        <time>2019-05-11T09:49:52Z</time>
      </trkpt>
      <trkpt lat="36.7392234802246" lon="-5.1523380279541">
        <ele>692</ele>
        <time>2019-05-11T09:49:54Z</time>
      </trkpt>
      <trkpt lat="36.7392120361328" lon="-5.15230703353882">
        <ele>692</ele>
        <time>2019-05-11T09:49:56Z</time>
      </trkpt>
      <trkpt lat="36.7392044067383" lon="-5.15227508544922">
        <ele>692</ele>
        <time>2019-05-11T09:49:58Z</time>
      </trkpt>
      <trkpt lat="36.7391967773438" lon="-5.1522421836853">
        <ele>692</ele>
        <time>2019-05-11T09:50:00Z</time>
      </trkpt>
      <trkpt lat="36.7391891479492" lon="-5.1522102355957">
        <ele>692</ele>
        <time>2019-05-11T09:50:02Z</time>
      </trkpt>
      <trkpt lat="36.7391815185547" lon="-5.15218019485474">
        <ele>692</ele>
        <time>2019-05-11T09:50:04Z</time>
      </trkpt>
      <trkpt lat="36.7391738891602" lon="-5.15214681625366">
        <ele>692</ele>
        <time>2019-05-11T09:50:06Z</time>
      </trkpt>
      <trkpt lat="36.7391662597656" lon="-5.15210676193237">
        <ele>691</ele>
        <time>2019-05-11T09:50:08Z</time>
      </trkpt>
      <trkpt lat="36.7391471862793" lon="-5.15204477310181">
        <ele>691</ele>
        <time>2019-05-11T09:50:10Z</time>
      </trkpt>
      <trkpt lat="36.739143371582" lon="-5.15200805664062">
        <ele>691</ele>
        <time>2019-05-11T09:50:12Z</time>
      </trkpt>
      <trkpt lat="36.7391319274902" lon="-5.1519718170166">
        <ele>691</ele>
        <time>2019-05-11T09:50:14Z</time>
      </trkpt>
      <trkpt lat="36.7391204833984" lon="-5.15193510055542">
        <ele>690</ele>
        <time>2019-05-11T09:50:16Z</time>
      </trkpt>
      <trkpt lat="36.7391128540039" lon="-5.15189504623413">
        <ele>690</ele>
        <time>2019-05-11T09:50:18Z</time>
      </trkpt>
      <trkpt lat="36.7391014099121" lon="-5.15185689926147">
        <ele>690</ele>
        <time>2019-05-11T09:50:20Z</time>
      </trkpt>
      <trkpt lat="36.7390937805176" lon="-5.15182495117188">
        <ele>690</ele>
        <time>2019-05-11T09:50:22Z</time>
      </trkpt>
      <trkpt lat="36.7390823364258" lon="-5.15179491043091">
        <ele>690</ele>
        <time>2019-05-11T09:50:24Z</time>
      </trkpt>
      <trkpt lat="36.7390747070312" lon="-5.15176200866699">
        <ele>690</ele>
        <time>2019-05-11T09:50:27Z</time>
      </trkpt>
      <trkpt lat="36.7390632629394" lon="-5.15172719955444">
        <ele>690</ele>
        <time>2019-05-11T09:50:29Z</time>
      </trkpt>
      <trkpt lat="36.7390518188477" lon="-5.15168809890747">
        <ele>690</ele>
        <time>2019-05-11T09:50:31Z</time>
      </trkpt>
      <trkpt lat="36.7390403747559" lon="-5.15164995193481">
        <ele>690</ele>
        <time>2019-05-11T09:50:33Z</time>
      </trkpt>
      <trkpt lat="36.7390251159668" lon="-5.15161800384522">
        <ele>690</ele>
        <time>2019-05-11T09:50:35Z</time>
      </trkpt>
      <trkpt lat="36.739013671875" lon="-5.15158796310425">
        <ele>690</ele>
        <time>2019-05-11T09:50:37Z</time>
      </trkpt>
      <trkpt lat="36.7390060424805" lon="-5.15155696868896">
        <ele>690</ele>
        <time>2019-05-11T09:50:39Z</time>
      </trkpt>
      <trkpt lat="36.7389984130859" lon="-5.151526927948">
        <ele>690</ele>
        <time>2019-05-11T09:50:41Z</time>
      </trkpt>
      <trkpt lat="36.7389945983887" lon="-5.1514949798584">
        <ele>690</ele>
        <time>2019-05-11T09:50:43Z</time>
      </trkpt>
      <trkpt lat="36.7389793395996" lon="-5.15145206451416">
        <ele>690</ele>
        <time>2019-05-11T09:50:45Z</time>
      </trkpt>
      <trkpt lat="36.7389717102051" lon="-5.15141677856445">
        <ele>690</ele>
        <time>2019-05-11T09:50:47Z</time>
      </trkpt>
      <trkpt lat="36.7389640808106" lon="-5.15138292312622">
        <ele>690</ele>
        <time>2019-05-11T09:50:49Z</time>
      </trkpt>
      <trkpt lat="36.738956451416" lon="-5.15135288238525">
        <ele>690</ele>
        <time>2019-05-11T09:50:51Z</time>
      </trkpt>
      <trkpt lat="36.7389450073242" lon="-5.15131998062134">
        <ele>690</ele>
        <time>2019-05-11T09:50:53Z</time>
      </trkpt>
      <trkpt lat="36.7389335632324" lon="-5.15128993988037">
        <ele>689</ele>
        <time>2019-05-11T09:50:56Z</time>
      </trkpt>
      <trkpt lat="36.7389221191406" lon="-5.15125799179077">
        <ele>689</ele>
        <time>2019-05-11T09:50:58Z</time>
      </trkpt>
      <trkpt lat="36.7389068603516" lon="-5.1512279510498">
        <ele>688</ele>
        <time>2019-05-11T09:51:00Z</time>
      </trkpt>
      <trkpt lat="36.738899230957" lon="-5.15119314193726">
        <ele>688</ele>
        <time>2019-05-11T09:51:02Z</time>
      </trkpt>
      <trkpt lat="36.7388916015625" lon="-5.15115690231323">
        <ele>688</ele>
        <time>2019-05-11T09:51:04Z</time>
      </trkpt>
      <trkpt lat="36.7388763427734" lon="-5.15112495422363">
        <ele>686</ele>
        <time>2019-05-11T09:51:06Z</time>
      </trkpt>
      <trkpt lat="36.7388687133789" lon="-5.15109491348267">
        <ele>686</ele>
        <time>2019-05-11T09:51:08Z</time>
      </trkpt>
      <trkpt lat="36.7388572692871" lon="-5.1510648727417">
        <ele>686</ele>
        <time>2019-05-11T09:51:10Z</time>
      </trkpt>
      <trkpt lat="36.7388458251953" lon="-5.15102815628052">
        <ele>686</ele>
        <time>2019-05-11T09:51:12Z</time>
      </trkpt>
      <trkpt lat="36.7388305664062" lon="-5.15097808837891">
        <ele>686</ele>
        <time>2019-05-11T09:51:14Z</time>
      </trkpt>
      <trkpt lat="36.7388229370117" lon="-5.15094518661499">
        <ele>686</ele>
        <time>2019-05-11T09:51:16Z</time>
      </trkpt>
      <trkpt lat="36.7388114929199" lon="-5.15090990066528">
        <ele>685</ele>
        <time>2019-05-11T09:51:18Z</time>
      </trkpt>
      <trkpt lat="36.7388076782227" lon="-5.15087223052978">
        <ele>685</ele>
        <time>2019-05-11T09:51:20Z</time>
      </trkpt>
      <trkpt lat="36.7388038635254" lon="-5.15083789825439">
        <ele>685</ele>
        <time>2019-05-11T09:51:22Z</time>
      </trkpt>
      <trkpt lat="36.7388038635254" lon="-5.15079689025879">
        <ele>685</ele>
        <time>2019-05-11T09:51:24Z</time>
      </trkpt>
      <trkpt lat="36.7388076782227" lon="-5.15075778961182">
        <ele>685</ele>
        <time>2019-05-11T09:51:26Z</time>
      </trkpt>
      <trkpt lat="36.7388153076172" lon="-5.15071678161621">
        <ele>685</ele>
        <time>2019-05-11T09:51:28Z</time>
      </trkpt>
      <trkpt lat="36.7388229370117" lon="-5.15067720413208">
        <ele>685</ele>
        <time>2019-05-11T09:51:31Z</time>
      </trkpt>
      <trkpt lat="36.738826751709" lon="-5.15064287185669">
        <ele>685</ele>
        <time>2019-05-11T09:51:33Z</time>
      </trkpt>
      <trkpt lat="36.7388305664062" lon="-5.15060710906982">
        <ele>685</ele>
        <time>2019-05-11T09:51:35Z</time>
      </trkpt>
      <trkpt lat="36.7388305664062" lon="-5.15056705474854">
        <ele>685</ele>
        <time>2019-05-11T09:51:37Z</time>
      </trkpt>
      <trkpt lat="36.7388381958008" lon="-5.15052509307861">
        <ele>685</ele>
        <time>2019-05-11T09:51:39Z</time>
      </trkpt>
      <trkpt lat="36.7388458251953" lon="-5.15048217773438">
        <ele>686</ele>
        <time>2019-05-11T09:51:41Z</time>
      </trkpt>
      <trkpt lat="36.7388496398926" lon="-5.15043497085571">
        <ele>687</ele>
        <time>2019-05-11T09:51:43Z</time>
      </trkpt>
      <trkpt lat="36.7388534545898" lon="-5.15039014816284">
        <ele>687</ele>
        <time>2019-05-11T09:51:45Z</time>
      </trkpt>
      <trkpt lat="36.7388648986816" lon="-5.15034818649292">
        <ele>688</ele>
        <time>2019-05-11T09:51:47Z</time>
      </trkpt>
      <trkpt lat="36.7388763427734" lon="-5.15027809143066">
        <ele>688</ele>
        <time>2019-05-11T09:51:49Z</time>
      </trkpt>
      <trkpt lat="36.738883972168" lon="-5.15023994445801">
        <ele>688</ele>
        <time>2019-05-11T09:51:51Z</time>
      </trkpt>
      <trkpt lat="36.7388916015625" lon="-5.15019798278809">
        <ele>688</ele>
        <time>2019-05-11T09:51:53Z</time>
      </trkpt>
      <trkpt lat="36.738899230957" lon="-5.15016317367554">
        <ele>688</ele>
        <time>2019-05-11T09:51:55Z</time>
      </trkpt>
      <trkpt lat="36.7389068603516" lon="-5.15012693405151">
        <ele>688</ele>
        <time>2019-05-11T09:51:57Z</time>
      </trkpt>
      <trkpt lat="36.7389183044434" lon="-5.15009307861328">
        <ele>688</ele>
        <time>2019-05-11T09:51:59Z</time>
      </trkpt>
      <trkpt lat="36.7389297485352" lon="-5.15006303787231">
        <ele>688</ele>
        <time>2019-05-11T09:52:01Z</time>
      </trkpt>
      <trkpt lat="36.7389373779297" lon="-5.15003204345703">
        <ele>688</ele>
        <time>2019-05-11T09:52:03Z</time>
      </trkpt>
      <trkpt lat="36.7389488220215" lon="-5.14999723434448">
        <ele>688</ele>
        <time>2019-05-11T09:52:06Z</time>
      </trkpt>
      <trkpt lat="36.738956451416" lon="-5.14996290206909">
        <ele>688</ele>
        <time>2019-05-11T09:52:08Z</time>
      </trkpt>
      <trkpt lat="36.7389640808106" lon="-5.14993190765381">
        <ele>688</ele>
        <time>2019-05-11T09:52:10Z</time>
      </trkpt>
      <trkpt lat="36.7389755249023" lon="-5.14989519119263">
        <ele>688</ele>
        <time>2019-05-11T09:52:12Z</time>
      </trkpt>
      <trkpt lat="36.7389907836914" lon="-5.14985799789429">
        <ele>688</ele>
        <time>2019-05-11T09:52:14Z</time>
      </trkpt>
      <trkpt lat="36.7389984130859" lon="-5.14982509613037">
        <ele>688</ele>
        <time>2019-05-11T09:52:16Z</time>
      </trkpt>
      <trkpt lat="36.7390098571777" lon="-5.14978981018066">
        <ele>688</ele>
        <time>2019-05-11T09:52:18Z</time>
      </trkpt>
      <trkpt lat="36.7390213012695" lon="-5.14975214004517">
        <ele>688</ele>
        <time>2019-05-11T09:52:20Z</time>
      </trkpt>
      <trkpt lat="36.7390365600586" lon="-5.14971303939819">
        <ele>688</ele>
        <time>2019-05-11T09:52:22Z</time>
      </trkpt>
      <trkpt lat="36.7390518188477" lon="-5.14966201782227">
        <ele>687</ele>
        <time>2019-05-11T09:52:24Z</time>
      </trkpt>
      <trkpt lat="36.7390632629394" lon="-5.14962482452393">
        <ele>686</ele>
        <time>2019-05-11T09:52:26Z</time>
      </trkpt>
      <trkpt lat="36.7390747070312" lon="-5.14958715438843">
        <ele>686</ele>
        <time>2019-05-11T09:52:28Z</time>
      </trkpt>
      <trkpt lat="36.739086151123" lon="-5.14954996109009">
        <ele>686</ele>
        <time>2019-05-11T09:52:30Z</time>
      </trkpt>
      <trkpt lat="36.7391014099121" lon="-5.14951705932617">
        <ele>686</ele>
        <time>2019-05-11T09:52:32Z</time>
      </trkpt>
      <trkpt lat="36.7391090393066" lon="-5.14949512481689">
        <ele>686</ele>
        <time>2019-05-11T09:52:34Z</time>
      </trkpt>
      <trkpt lat="36.7391204833984" lon="-5.14946508407593">
        <ele>686</ele>
        <time>2019-05-11T09:52:36Z</time>
      </trkpt>
      <trkpt lat="36.739128112793" lon="-5.14943218231201">
        <ele>686</ele>
        <time>2019-05-11T09:52:38Z</time>
      </trkpt>
      <trkpt lat="36.7391395568848" lon="-5.14939785003662">
        <ele>686</ele>
        <time>2019-05-11T09:52:41Z</time>
      </trkpt>
      <trkpt lat="36.739143371582" lon="-5.14936685562134">
        <ele>686</ele>
        <time>2019-05-11T09:52:43Z</time>
      </trkpt>
      <trkpt lat="36.7391548156738" lon="-5.14933681488037">
        <ele>686</ele>
        <time>2019-05-11T09:52:45Z</time>
      </trkpt>
      <trkpt lat="36.7391624450684" lon="-5.14931201934814">
        <ele>686</ele>
        <time>2019-05-11T09:52:47Z</time>
      </trkpt>
      <trkpt lat="36.7391738891602" lon="-5.1492919921875">
        <ele>686</ele>
        <time>2019-05-11T09:52:49Z</time>
      </trkpt>
      <trkpt lat="36.7391815185547" lon="-5.1492600440979">
        <ele>686</ele>
        <time>2019-05-11T09:52:51Z</time>
      </trkpt>
      <trkpt lat="36.7391891479492" lon="-5.14922523498535">
        <ele>686</ele>
        <time>2019-05-11T09:52:53Z</time>
      </trkpt>
      <trkpt lat="36.7391929626465" lon="-5.1491870880127">
        <ele>686</ele>
        <time>2019-05-11T09:52:55Z</time>
      </trkpt>
      <trkpt lat="36.739200592041" lon="-5.14915180206299">
        <ele>686</ele>
        <time>2019-05-11T09:52:57Z</time>
      </trkpt>
      <trkpt lat="36.7392082214356" lon="-5.14910507202148">
        <ele>686</ele>
        <time>2019-05-11T09:52:59Z</time>
      </trkpt>
      <trkpt lat="36.7392158508301" lon="-5.14907312393188">
        <ele>686</ele>
        <time>2019-05-11T09:53:01Z</time>
      </trkpt>
      <trkpt lat="36.7392234802246" lon="-5.14903783798218">
        <ele>686</ele>
        <time>2019-05-11T09:53:03Z</time>
      </trkpt>
      <trkpt lat="36.7392387390137" lon="-5.149010181427">
        <ele>686</ele>
        <time>2019-05-11T09:53:05Z</time>
      </trkpt>
      <trkpt lat="36.7392616271973" lon="-5.14898300170898">
        <ele>686</ele>
        <time>2019-05-11T09:53:07Z</time>
      </trkpt>
      <trkpt lat="36.7392921447754" lon="-5.14896011352539">
        <ele>686</ele>
        <time>2019-05-11T09:53:09Z</time>
      </trkpt>
      <trkpt lat="36.7393188476562" lon="-5.1489429473877">
        <ele>686</ele>
        <time>2019-05-11T09:53:11Z</time>
      </trkpt>
      <trkpt lat="36.7393531799316" lon="-5.14892721176147">
        <ele>686</ele>
        <time>2019-05-11T09:53:13Z</time>
      </trkpt>
      <trkpt lat="36.7393913269043" lon="-5.14891290664673">
        <ele>686</ele>
        <time>2019-05-11T09:53:16Z</time>
      </trkpt>
      <trkpt lat="36.7394256591797" lon="-5.14890480041504">
        <ele>686</ele>
        <time>2019-05-11T09:53:18Z</time>
      </trkpt>
      <trkpt lat="36.7394599914551" lon="-5.14889717102051">
        <ele>686</ele>
        <time>2019-05-11T09:53:20Z</time>
      </trkpt>
      <trkpt lat="36.7394943237305" lon="-5.14888000488281">
        <ele>686</ele>
        <time>2019-05-11T09:53:22Z</time>
      </trkpt>
      <trkpt lat="36.7395172119141" lon="-5.14886999130249">
        <ele>686</ele>
        <time>2019-05-11T09:53:24Z</time>
      </trkpt>
      <trkpt lat="36.7395362854004" lon="-5.14885711669922">
        <ele>686</ele>
        <time>2019-05-11T09:53:26Z</time>
      </trkpt>
      <trkpt lat="36.7395668029785" lon="-5.14883995056152">
        <ele>686</ele>
        <time>2019-05-11T09:53:28Z</time>
      </trkpt>
      <trkpt lat="36.7395820617676" lon="-5.14882516860962">
        <ele>686</ele>
        <time>2019-05-11T09:53:30Z</time>
      </trkpt>
      <trkpt lat="36.7396087646484" lon="-5.14881277084351">
        <ele>686</ele>
        <time>2019-05-11T09:53:32Z</time>
      </trkpt>
      <trkpt lat="36.7396430969238" lon="-5.14880704879761">
        <ele>686</ele>
        <time>2019-05-11T09:53:34Z</time>
      </trkpt>
      <trkpt lat="36.7396697998047" lon="-5.14879703521728">
        <ele>686</ele>
        <time>2019-05-11T09:53:36Z</time>
      </trkpt>
      <trkpt lat="36.7396965026856" lon="-5.14878988265991">
        <ele>686</ele>
        <time>2019-05-11T09:53:38Z</time>
      </trkpt>
      <trkpt lat="36.7397232055664" lon="-5.14878177642822">
        <ele>686</ele>
        <time>2019-05-11T09:53:40Z</time>
      </trkpt>
      <trkpt lat="36.7397499084473" lon="-5.14877796173096">
        <ele>686</ele>
        <time>2019-05-11T09:53:42Z</time>
      </trkpt>
      <trkpt lat="36.7397842407227" lon="-5.1487717628479">
        <ele>686</ele>
        <time>2019-05-11T09:53:44Z</time>
      </trkpt>
      <trkpt lat="36.739818572998" lon="-5.14876222610474">
        <ele>686</ele>
        <time>2019-05-11T09:53:46Z</time>
      </trkpt>
      <trkpt lat="36.7398490905762" lon="-5.14875507354736">
        <ele>686</ele>
        <time>2019-05-11T09:53:48Z</time>
      </trkpt>
      <trkpt lat="36.7398719787598" lon="-5.14874505996704">
        <ele>686</ele>
        <time>2019-05-11T09:53:51Z</time>
      </trkpt>
      <trkpt lat="36.7399024963379" lon="-5.14873790740967">
        <ele>686</ele>
        <time>2019-05-11T09:53:53Z</time>
      </trkpt>
      <trkpt lat="36.7399482727051" lon="-5.14873695373535">
        <ele>686</ele>
        <time>2019-05-11T09:53:55Z</time>
      </trkpt>
      <trkpt lat="36.7399826049805" lon="-5.14873218536377">
        <ele>686</ele>
        <time>2019-05-11T09:53:57Z</time>
      </trkpt>
      <trkpt lat="36.7400169372559" lon="-5.14872789382935">
        <ele>686</ele>
        <time>2019-05-11T09:53:59Z</time>
      </trkpt>
      <trkpt lat="36.7400588989258" lon="-5.14870977401733">
        <ele>686</ele>
        <time>2019-05-11T09:54:01Z</time>
      </trkpt>
      <trkpt lat="36.740104675293" lon="-5.14869785308838">
        <ele>687</ele>
        <time>2019-05-11T09:54:03Z</time>
      </trkpt>
      <trkpt lat="36.7401351928711" lon="-5.14868021011353">
        <ele>687</ele>
        <time>2019-05-11T09:54:05Z</time>
      </trkpt>
      <trkpt lat="36.7401924133301" lon="-5.14866495132446">
        <ele>687</ele>
        <time>2019-05-11T09:54:07Z</time>
      </trkpt>
      <trkpt lat="36.7402687072754" lon="-5.14864778518677">
        <ele>687</ele>
        <time>2019-05-11T09:54:09Z</time>
      </trkpt>
      <trkpt lat="36.7403144836426" lon="-5.14863300323486">
        <ele>688</ele>
        <time>2019-05-11T09:54:11Z</time>
      </trkpt>
      <trkpt lat="36.7403602600098" lon="-5.14860820770264">
        <ele>688</ele>
        <time>2019-05-11T09:54:13Z</time>
      </trkpt>
      <trkpt lat="36.7404098510742" lon="-5.14859008789062">
        <ele>688</ele>
        <time>2019-05-11T09:54:15Z</time>
      </trkpt>
      <trkpt lat="36.7404479980469" lon="-5.14856815338135">
        <ele>688</ele>
        <time>2019-05-11T09:54:17Z</time>
      </trkpt>
      <trkpt lat="36.7404937744141" lon="-5.14854192733765">
        <ele>688</ele>
        <time>2019-05-11T09:54:19Z</time>
      </trkpt>
      <trkpt lat="36.7405281066894" lon="-5.14852285385132">
        <ele>688</ele>
        <time>2019-05-11T09:54:21Z</time>
      </trkpt>
      <trkpt lat="36.7405624389648" lon="-5.14850521087646">
        <ele>689</ele>
        <time>2019-05-11T09:54:23Z</time>
      </trkpt>
      <trkpt lat="36.740592956543" lon="-5.14848184585571">
        <ele>690</ele>
        <time>2019-05-11T09:54:25Z</time>
      </trkpt>
      <trkpt lat="36.7406158447266" lon="-5.1484580039978">
        <ele>690</ele>
        <time>2019-05-11T09:54:28Z</time>
      </trkpt>
      <trkpt lat="36.7406463623047" lon="-5.14843797683716">
        <ele>690</ele>
        <time>2019-05-11T09:54:30Z</time>
      </trkpt>
      <trkpt lat="36.7406806945801" lon="-5.14842176437378">
        <ele>690</ele>
        <time>2019-05-11T09:54:32Z</time>
      </trkpt>
      <trkpt lat="36.7407112121582" lon="-5.14840984344482">
        <ele>690</ele>
        <time>2019-05-11T09:54:34Z</time>
      </trkpt>
      <trkpt lat="36.7407379150391" lon="-5.14839696884155">
        <ele>690</ele>
        <time>2019-05-11T09:54:36Z</time>
      </trkpt>
      <trkpt lat="36.7407722473144" lon="-5.14838218688965">
        <ele>690</ele>
        <time>2019-05-11T09:54:38Z</time>
      </trkpt>
      <trkpt lat="36.7408027648926" lon="-5.14837217330933">
        <ele>690</ele>
        <time>2019-05-11T09:54:40Z</time>
      </trkpt>
      <trkpt lat="36.7408332824707" lon="-5.14835977554321">
        <ele>690</ele>
        <time>2019-05-11T09:54:42Z</time>
      </trkpt>
      <trkpt lat="36.7408638000488" lon="-5.14834690093994">
        <ele>690</ele>
        <time>2019-05-11T09:54:44Z</time>
      </trkpt>
      <trkpt lat="36.7409133911133" lon="-5.14834308624268">
        <ele>690</ele>
        <time>2019-05-11T09:54:46Z</time>
      </trkpt>
      <trkpt lat="36.7409400939941" lon="-5.14833307266235">
        <ele>690</ele>
        <time>2019-05-11T09:54:48Z</time>
      </trkpt>
      <trkpt lat="36.7409629821777" lon="-5.14831304550171">
        <ele>690</ele>
        <time>2019-05-11T09:54:50Z</time>
      </trkpt>
      <trkpt lat="36.7409744262695" lon="-5.1482949256897">
        <ele>690</ele>
        <time>2019-05-11T09:54:52Z</time>
      </trkpt>
      <trkpt lat="36.7409858703613" lon="-5.14825820922852">
        <ele>690</ele>
        <time>2019-05-11T09:54:54Z</time>
      </trkpt>
      <trkpt lat="36.7410087585449" lon="-5.14822483062744">
        <ele>690</ele>
        <time>2019-05-11T09:54:56Z</time>
      </trkpt>
      <trkpt lat="36.7410278320312" lon="-5.14818477630615">
        <ele>690</ele>
        <time>2019-05-11T09:54:58Z</time>
      </trkpt>
      <trkpt lat="36.7410469055176" lon="-5.14814186096191">
        <ele>690</ele>
        <time>2019-05-11T09:55:00Z</time>
      </trkpt>
      <trkpt lat="36.741039276123" lon="-5.14809322357178">
        <ele>690</ele>
        <time>2019-05-11T09:55:03Z</time>
      </trkpt>
      <trkpt lat="36.7410202026367" lon="-5.14806509017944">
        <ele>690</ele>
        <time>2019-05-11T09:55:05Z</time>
      </trkpt>
      <trkpt lat="36.7410049438477" lon="-5.14805316925049">
        <ele>691</ele>
        <time>2019-05-11T09:55:07Z</time>
      </trkpt>
      <trkpt lat="36.7409896850586" lon="-5.14805316925049">
        <ele>691</ele>
        <time>2019-05-11T09:55:09Z</time>
      </trkpt>
      <trkpt lat="36.7409629821777" lon="-5.14805793762207">
        <ele>691</ele>
        <time>2019-05-11T09:55:11Z</time>
      </trkpt>
      <trkpt lat="36.7409400939941" lon="-5.14807176589966">
        <ele>691</ele>
        <time>2019-05-11T09:55:13Z</time>
      </trkpt>
      <trkpt lat="36.7409133911133" lon="-5.14808988571167">
        <ele>691</ele>
        <time>2019-05-11T09:55:15Z</time>
      </trkpt>
      <trkpt lat="36.7408981323242" lon="-5.1480917930603">
        <ele>691</ele>
        <time>2019-05-11T09:55:17Z</time>
      </trkpt>
      <trkpt lat="36.7408905029297" lon="-5.14809989929199">
        <ele>691</ele>
        <time>2019-05-11T09:55:19Z</time>
      </trkpt>
      <trkpt lat="36.7408638000488" lon="-5.14811992645264">
        <ele>691</ele>
        <time>2019-05-11T09:55:21Z</time>
      </trkpt>
      <trkpt lat="36.7408409118652" lon="-5.14812994003296">
        <ele>691</ele>
        <time>2019-05-11T09:55:23Z</time>
      </trkpt>
      <trkpt lat="36.7408142089844" lon="-5.1481351852417">
        <ele>691</ele>
        <time>2019-05-11T09:55:25Z</time>
      </trkpt>
      <trkpt lat="36.7407836914062" lon="-5.14814281463623">
        <ele>691</ele>
        <time>2019-05-11T09:55:27Z</time>
      </trkpt>
      <trkpt lat="36.7407608032227" lon="-5.14814710617065">
        <ele>691</ele>
        <time>2019-05-11T09:55:29Z</time>
      </trkpt>
      <trkpt lat="36.7407341003418" lon="-5.14815711975098">
        <ele>691</ele>
        <time>2019-05-11T09:55:31Z</time>
      </trkpt>
      <trkpt lat="36.7407112121582" lon="-5.14816808700562">
        <ele>691</ele>
        <time>2019-05-11T09:55:33Z</time>
      </trkpt>
      <trkpt lat="36.7406806945801" lon="-5.14818000793457">
        <ele>691</ele>
        <time>2019-05-11T09:55:35Z</time>
      </trkpt>
      <trkpt lat="36.7406539916992" lon="-5.14819002151489">
        <ele>691</ele>
        <time>2019-05-11T09:55:38Z</time>
      </trkpt>
      <trkpt lat="36.7406272888184" lon="-5.14818811416626">
        <ele>691</ele>
        <time>2019-05-11T09:55:40Z</time>
      </trkpt>
      <trkpt lat="36.7406005859375" lon="-5.14819192886353">
        <ele>691</ele>
        <time>2019-05-11T09:55:42Z</time>
      </trkpt>
      <trkpt lat="36.7405738830566" lon="-5.14819812774658">
        <ele>691</ele>
        <time>2019-05-11T09:55:44Z</time>
      </trkpt>
      <trkpt lat="36.7405395507812" lon="-5.14820289611816">
        <ele>691</ele>
        <time>2019-05-11T09:55:46Z</time>
      </trkpt>
      <trkpt lat="36.7405128479004" lon="-5.1482081413269">
        <ele>691</ele>
        <time>2019-05-11T09:55:48Z</time>
      </trkpt>
      <trkpt lat="36.7404861450195" lon="-5.14821004867554">
        <ele>691</ele>
        <time>2019-05-11T09:55:50Z</time>
      </trkpt>
      <trkpt lat="36.7404594421387" lon="-5.14821290969849">
        <ele>691</ele>
        <time>2019-05-11T09:55:52Z</time>
      </trkpt>
      <trkpt lat="36.7404136657715" lon="-5.14821815490723">
        <ele>691</ele>
        <time>2019-05-11T09:55:54Z</time>
      </trkpt>
      <trkpt lat="36.7403831481934" lon="-5.14822006225586">
        <ele>691</ele>
        <time>2019-05-11T09:55:56Z</time>
      </trkpt>
      <trkpt lat="36.7403564453125" lon="-5.14822292327881">
        <ele>691</ele>
        <time>2019-05-11T09:55:58Z</time>
      </trkpt>
      <trkpt lat="36.7403297424316" lon="-5.14822483062744">
        <ele>690</ele>
        <time>2019-05-11T09:56:00Z</time>
      </trkpt>
      <trkpt lat="36.7402954101562" lon="-5.14822292327881">
        <ele>690</ele>
        <time>2019-05-11T09:56:02Z</time>
      </trkpt>
      <trkpt lat="36.7402648925781" lon="-5.14822816848755">
        <ele>689</ele>
        <time>2019-05-11T09:56:04Z</time>
      </trkpt>
      <trkpt lat="36.740234375" lon="-5.14824199676514">
        <ele>689</ele>
        <time>2019-05-11T09:56:06Z</time>
      </trkpt>
      <trkpt lat="36.7402076721191" lon="-5.14824485778809">
        <ele>689</ele>
        <time>2019-05-11T09:56:08Z</time>
      </trkpt>
      <trkpt lat="36.7401809692383" lon="-5.14824485778809">
        <ele>689</ele>
        <time>2019-05-11T09:56:10Z</time>
      </trkpt>
      <trkpt lat="36.7401466369629" lon="-5.14824485778809">
        <ele>689</ele>
        <time>2019-05-11T09:56:13Z</time>
      </trkpt>
      <trkpt lat="36.7401237487793" lon="-5.14824819564819">
        <ele>689</ele>
        <time>2019-05-11T09:56:15Z</time>
      </trkpt>
      <trkpt lat="36.7401008605957" lon="-5.14824819564819">
        <ele>689</ele>
        <time>2019-05-11T09:56:17Z</time>
      </trkpt>
      <trkpt lat="36.7400703430176" lon="-5.14824676513672">
        <ele>689</ele>
        <time>2019-05-11T09:56:19Z</time>
      </trkpt>
      <trkpt lat="36.740047454834" lon="-5.14825010299683">
        <ele>689</ele>
        <time>2019-05-11T09:56:21Z</time>
      </trkpt>
      <trkpt lat="36.7400207519531" lon="-5.14825677871704">
        <ele>689</ele>
        <time>2019-05-11T09:56:23Z</time>
      </trkpt>
      <trkpt lat="36.739990234375" lon="-5.14826202392578">
        <ele>689</ele>
        <time>2019-05-11T09:56:25Z</time>
      </trkpt>
      <trkpt lat="36.7399635314941" lon="-5.1482629776001">
        <ele>689</ele>
        <time>2019-05-11T09:56:27Z</time>
      </trkpt>
      <trkpt lat="36.7399215698242" lon="-5.14826822280884">
        <ele>689</ele>
        <time>2019-05-11T09:56:29Z</time>
      </trkpt>
      <trkpt lat="36.7398948669434" lon="-5.14826679229736">
        <ele>689</ele>
        <time>2019-05-11T09:56:31Z</time>
      </trkpt>
      <trkpt lat="36.7398643493652" lon="-5.1482629776001">
        <ele>689</ele>
        <time>2019-05-11T09:56:33Z</time>
      </trkpt>
      <trkpt lat="36.7398300170898" lon="-5.14826202392578">
        <ele>689</ele>
        <time>2019-05-11T09:56:35Z</time>
      </trkpt>
      <trkpt lat="36.739803314209" lon="-5.14826011657715">
        <ele>689</ele>
        <time>2019-05-11T09:56:37Z</time>
      </trkpt>
      <trkpt lat="36.7397766113281" lon="-5.14825677871704">
        <ele>689</ele>
        <time>2019-05-11T09:56:39Z</time>
      </trkpt>
      <trkpt lat="36.7397537231445" lon="-5.14825677871704">
        <ele>689</ele>
        <time>2019-05-11T09:56:41Z</time>
      </trkpt>
      <trkpt lat="36.7397270202637" lon="-5.14826202392578">
        <ele>689</ele>
        <time>2019-05-11T09:56:43Z</time>
      </trkpt>
      <trkpt lat="36.7397155761719" lon="-5.14826488494873">
        <ele>689</ele>
        <time>2019-05-11T09:56:45Z</time>
      </trkpt>
      <trkpt lat="36.7397079467773" lon="-5.14826488494873">
        <ele>689</ele>
        <time>2019-05-11T09:56:48Z</time>
      </trkpt>
      <trkpt lat="36.7397003173828" lon="-5.14825677871704">
        <ele>689</ele>
        <time>2019-05-11T09:56:50Z</time>
      </trkpt>
      <trkpt lat="36.7396965026856" lon="-5.14825201034546">
        <ele>689</ele>
        <time>2019-05-11T09:56:52Z</time>
      </trkpt>
      <trkpt lat="36.739688873291" lon="-5.14823722839356">
        <ele>689</ele>
        <time>2019-05-11T09:56:54Z</time>
      </trkpt>
      <trkpt lat="36.739673614502" lon="-5.14822816848755">
        <ele>689</ele>
        <time>2019-05-11T09:56:56Z</time>
      </trkpt>
      <trkpt lat="36.7396545410156" lon="-5.14822196960449">
        <ele>689</ele>
        <time>2019-05-11T09:56:58Z</time>
      </trkpt>
      <trkpt lat="36.739631652832" lon="-5.14822196960449">
        <ele>689</ele>
        <time>2019-05-11T09:57:00Z</time>
      </trkpt>
      <trkpt lat="36.7396087646484" lon="-5.14822196960449">
        <ele>689</ele>
        <time>2019-05-11T09:57:02Z</time>
      </trkpt>
      <trkpt lat="36.7395896911621" lon="-5.14822196960449">
        <ele>689</ele>
        <time>2019-05-11T09:57:04Z</time>
      </trkpt>
      <trkpt lat="36.7395629882812" lon="-5.14822816848755">
        <ele>689</ele>
        <time>2019-05-11T09:57:06Z</time>
      </trkpt>
      <trkpt lat="36.7395553588867" lon="-5.14823198318481">
        <ele>689</ele>
        <time>2019-05-11T09:57:08Z</time>
      </trkpt>
      <trkpt lat="36.739559173584" lon="-5.14823484420776">
        <ele>689</ele>
        <time>2019-05-11T09:57:10Z</time>
      </trkpt>
      <trkpt lat="36.739559173584" lon="-5.14823818206787">
        <ele>689</ele>
        <time>2019-05-11T09:57:12Z</time>
      </trkpt>
      <trkpt lat="36.7395553588867" lon="-5.14823818206787">
        <ele>689</ele>
        <time>2019-05-11T09:57:14Z</time>
      </trkpt>
      <trkpt lat="36.7395515441894" lon="-5.14823818206787">
        <ele>689</ele>
        <time>2019-05-11T09:57:16Z</time>
      </trkpt>
      <trkpt lat="36.7395477294922" lon="-5.14823484420776">
        <ele>689</ele>
        <time>2019-05-11T09:57:18Z</time>
      </trkpt>
      <trkpt lat="36.7395439147949" lon="-5.14823293685913">
        <ele>689</ele>
        <time>2019-05-11T09:57:20Z</time>
      </trkpt>
      <trkpt lat="36.7395439147949" lon="-5.14823293685913">
        <ele>689</ele>
        <time>2019-05-11T09:57:22Z</time>
      </trkpt>
      <trkpt lat="36.7395362854004" lon="-5.14823198318481">
        <ele>689</ele>
        <time>2019-05-11T09:57:24Z</time>
      </trkpt>
      <trkpt lat="36.7395362854004" lon="-5.14823293685913">
        <ele>689</ele>
        <time>2019-05-11T09:57:26Z</time>
      </trkpt>
      <trkpt lat="36.7395362854004" lon="-5.14823818206787">
        <ele>689</ele>
        <time>2019-05-11T09:57:28Z</time>
      </trkpt>
      <trkpt lat="36.7395324707031" lon="-5.1482400894165">
        <ele>689</ele>
        <time>2019-05-11T09:57:30Z</time>
      </trkpt>
      <trkpt lat="36.7395324707031" lon="-5.14824199676514">
        <ele>689</ele>
        <time>2019-05-11T09:57:32Z</time>
      </trkpt>
      <trkpt lat="36.7395286560059" lon="-5.14823818206787">
        <ele>689</ele>
        <time>2019-05-11T09:57:34Z</time>
      </trkpt>
      <trkpt lat="36.7395172119141" lon="-5.14823293685913">
        <ele>689</ele>
        <time>2019-05-11T09:57:37Z</time>
      </trkpt>
      <trkpt lat="36.7395095825195" lon="-5.14822292327881">
        <ele>689</ele>
        <time>2019-05-11T09:57:39Z</time>
      </trkpt>
      <trkpt lat="36.7394981384277" lon="-5.14820718765259">
        <ele>690</ele>
        <time>2019-05-11T09:57:41Z</time>
      </trkpt>
      <trkpt lat="36.7394981384277" lon="-5.14819002151489">
        <ele>690</ele>
        <time>2019-05-11T09:57:43Z</time>
      </trkpt>
      <trkpt lat="36.7394981384277" lon="-5.14818286895752">
        <ele>691</ele>
        <time>2019-05-11T09:57:45Z</time>
      </trkpt>
      <trkpt lat="36.7394981384277" lon="-5.14816999435425">
        <ele>691</ele>
        <time>2019-05-11T09:57:47Z</time>
      </trkpt>
      <trkpt lat="36.739501953125" lon="-5.14815807342529">
        <ele>691</ele>
        <time>2019-05-11T09:57:49Z</time>
      </trkpt>
      <trkpt lat="36.7395057678223" lon="-5.14814281463623">
        <ele>692</ele>
        <time>2019-05-11T09:57:51Z</time>
      </trkpt>
      <trkpt lat="36.7395057678223" lon="-5.14812183380127">
        <ele>692</ele>
        <time>2019-05-11T09:57:53Z</time>
      </trkpt>
      <trkpt lat="36.739501953125" lon="-5.14808988571167">
        <ele>692</ele>
        <time>2019-05-11T09:57:55Z</time>
      </trkpt>
      <trkpt lat="36.7395133972168" lon="-5.14800310134888">
        <ele>692</ele>
        <time>2019-05-11T09:57:57Z</time>
      </trkpt>
      <trkpt lat="36.7395286560059" lon="-5.14795017242432">
        <ele>692</ele>
        <time>2019-05-11T09:57:59Z</time>
      </trkpt>
      <trkpt lat="36.7395401000977" lon="-5.1478967666626">
        <ele>692</ele>
        <time>2019-05-11T09:58:01Z</time>
      </trkpt>
      <trkpt lat="36.7395515441894" lon="-5.14785480499268">
        <ele>692</ele>
        <time>2019-05-11T09:58:03Z</time>
      </trkpt>
      <trkpt lat="36.7395629882812" lon="-5.1478099822998">
        <ele>692</ele>
        <time>2019-05-11T09:58:05Z</time>
      </trkpt>
      <trkpt lat="36.7395668029785" lon="-5.14776802062988">
        <ele>692</ele>
        <time>2019-05-11T09:58:07Z</time>
      </trkpt>
      <trkpt lat="36.7395820617676" lon="-5.14772176742554">
        <ele>692</ele>
        <time>2019-05-11T09:58:09Z</time>
      </trkpt>
      <trkpt lat="36.7395820617676" lon="-5.14766502380371">
        <ele>692</ele>
        <time>2019-05-11T09:58:11Z</time>
      </trkpt>
      <trkpt lat="36.7395858764648" lon="-5.14762020111084">
        <ele>692</ele>
        <time>2019-05-11T09:58:14Z</time>
      </trkpt>
      <trkpt lat="36.7396011352539" lon="-5.14757490158081">
        <ele>692</ele>
        <time>2019-05-11T09:58:16Z</time>
      </trkpt>
      <trkpt lat="36.7396087646484" lon="-5.14750719070435">
        <ele>692</ele>
        <time>2019-05-11T09:58:18Z</time>
      </trkpt>
      <trkpt lat="36.7396125793457" lon="-5.14745712280273">
        <ele>692</ele>
        <time>2019-05-11T09:58:20Z</time>
      </trkpt>
      <trkpt lat="36.739616394043" lon="-5.14740991592407">
        <ele>692</ele>
        <time>2019-05-11T09:58:22Z</time>
      </trkpt>
      <trkpt lat="36.7396202087402" lon="-5.14734697341919">
        <ele>692</ele>
        <time>2019-05-11T09:58:24Z</time>
      </trkpt>
      <trkpt lat="36.7396202087402" lon="-5.14728021621704">
        <ele>692</ele>
        <time>2019-05-11T09:58:26Z</time>
      </trkpt>
      <trkpt lat="36.7396202087402" lon="-5.14722681045532">
        <ele>692</ele>
        <time>2019-05-11T09:58:28Z</time>
      </trkpt>
      <trkpt lat="36.7396278381348" lon="-5.14716720581055">
        <ele>692</ele>
        <time>2019-05-11T09:58:30Z</time>
      </trkpt>
      <trkpt lat="36.7396430969238" lon="-5.14708805084228">
        <ele>692</ele>
        <time>2019-05-11T09:58:32Z</time>
      </trkpt>
      <trkpt lat="36.7396545410156" lon="-5.14702701568604">
        <ele>692</ele>
        <time>2019-05-11T09:58:34Z</time>
      </trkpt>
      <trkpt lat="36.7396621704102" lon="-5.14696216583252">
        <ele>692</ele>
        <time>2019-05-11T09:58:36Z</time>
      </trkpt>
      <trkpt lat="36.7396697998047" lon="-5.14690208435059">
        <ele>692</ele>
        <time>2019-05-11T09:58:38Z</time>
      </trkpt>
      <trkpt lat="36.7396812438965" lon="-5.14684009552002">
        <ele>692</ele>
        <time>2019-05-11T09:58:40Z</time>
      </trkpt>
      <trkpt lat="36.7397003173828" lon="-5.14678287506104">
        <ele>692</ele>
        <time>2019-05-11T09:58:42Z</time>
      </trkpt>
      <trkpt lat="36.7397079467773" lon="-5.14674806594849">
        <ele>692</ele>
        <time>2019-05-11T09:58:44Z</time>
      </trkpt>
      <trkpt lat="36.7397155761719" lon="-5.14670705795288">
        <ele>692</ele>
        <time>2019-05-11T09:58:46Z</time>
      </trkpt>
      <trkpt lat="36.7397270202637" lon="-5.14667320251465">
        <ele>692</ele>
        <time>2019-05-11T09:58:49Z</time>
      </trkpt>
      <trkpt lat="36.7397346496582" lon="-5.14663791656494">
        <ele>692</ele>
        <time>2019-05-11T09:58:51Z</time>
      </trkpt>
      <trkpt lat="36.73974609375" lon="-5.14660692214966">
        <ele>692</ele>
        <time>2019-05-11T09:58:53Z</time>
      </trkpt>
      <trkpt lat="36.7397575378418" lon="-5.14657211303711">
        <ele>692</ele>
        <time>2019-05-11T09:58:55Z</time>
      </trkpt>
      <trkpt lat="36.7397651672363" lon="-5.14654016494751">
        <ele>692</ele>
        <time>2019-05-11T09:58:57Z</time>
      </trkpt>
      <trkpt lat="36.7397766113281" lon="-5.14650297164917">
        <ele>692</ele>
        <time>2019-05-11T09:58:59Z</time>
      </trkpt>
      <trkpt lat="36.7397880554199" lon="-5.1464672088623">
        <ele>692</ele>
        <time>2019-05-11T09:59:01Z</time>
      </trkpt>
      <trkpt lat="36.7397956848144" lon="-5.1464319229126">
        <ele>692</ele>
        <time>2019-05-11T09:59:03Z</time>
      </trkpt>
      <trkpt lat="36.739803314209" lon="-5.14639711380005">
        <ele>692</ele>
        <time>2019-05-11T09:59:05Z</time>
      </trkpt>
      <trkpt lat="36.739818572998" lon="-5.14634323120117">
        <ele>692</ele>
        <time>2019-05-11T09:59:07Z</time>
      </trkpt>
      <trkpt lat="36.7398262023926" lon="-5.1463098526001">
        <ele>692</ele>
        <time>2019-05-11T09:59:09Z</time>
      </trkpt>
      <trkpt lat="36.7398338317871" lon="-5.1462779045105">
        <ele>692</ele>
        <time>2019-05-11T09:59:11Z</time>
      </trkpt>
      <trkpt lat="36.7398414611816" lon="-5.14624500274658">
        <ele>692</ele>
        <time>2019-05-11T09:59:13Z</time>
      </trkpt>
      <trkpt lat="36.7398529052734" lon="-5.14621210098267">
        <ele>692</ele>
        <time>2019-05-11T09:59:15Z</time>
      </trkpt>
      <trkpt lat="36.739860534668" lon="-5.14618015289307">
        <ele>692</ele>
        <time>2019-05-11T09:59:17Z</time>
      </trkpt>
      <trkpt lat="36.7398719787598" lon="-5.14614677429199">
        <ele>692</ele>
        <time>2019-05-11T09:59:19Z</time>
      </trkpt>
      <trkpt lat="36.7398796081543" lon="-5.14611196517944">
        <ele>692</ele>
        <time>2019-05-11T09:59:21Z</time>
      </trkpt>
      <trkpt lat="36.7398910522461" lon="-5.1460747718811">
        <ele>692</ele>
        <time>2019-05-11T09:59:24Z</time>
      </trkpt>
      <trkpt lat="36.7398986816406" lon="-5.14603996276856">
        <ele>692</ele>
        <time>2019-05-11T09:59:26Z</time>
      </trkpt>
      <trkpt lat="36.7399063110352" lon="-5.14600515365601">
        <ele>692</ele>
        <time>2019-05-11T09:59:28Z</time>
      </trkpt>
      <trkpt lat="36.739917755127" lon="-5.1459698677063">
        <ele>692</ele>
        <time>2019-05-11T09:59:30Z</time>
      </trkpt>
      <trkpt lat="36.7399215698242" lon="-5.14593315124512">
        <ele>692</ele>
        <time>2019-05-11T09:59:32Z</time>
      </trkpt>
      <trkpt lat="36.7399291992188" lon="-5.14589977264404">
        <ele>691</ele>
        <time>2019-05-11T09:59:34Z</time>
      </trkpt>
      <trkpt lat="36.7399368286133" lon="-5.14586305618286">
        <ele>691</ele>
        <time>2019-05-11T09:59:36Z</time>
      </trkpt>
      <trkpt lat="36.7399444580078" lon="-5.14582777023315">
        <ele>691</ele>
        <time>2019-05-11T09:59:38Z</time>
      </trkpt>
      <trkpt lat="36.7399482727051" lon="-5.14579200744629">
        <ele>691</ele>
        <time>2019-05-11T09:59:40Z</time>
      </trkpt>
      <trkpt lat="36.7399520874023" lon="-5.14573812484741">
        <ele>691</ele>
        <time>2019-05-11T09:59:42Z</time>
      </trkpt>
      <trkpt lat="36.7399520874023" lon="-5.1457028388977">
        <ele>691</ele>
        <time>2019-05-11T09:59:44Z</time>
      </trkpt>
      <trkpt lat="36.7399520874023" lon="-5.14566707611084">
        <ele>691</ele>
        <time>2019-05-11T09:59:46Z</time>
      </trkpt>
      <trkpt lat="36.7399520874023" lon="-5.14563322067261">
        <ele>691</ele>
        <time>2019-05-11T09:59:48Z</time>
      </trkpt>
      <trkpt lat="36.7399520874023" lon="-5.14559984207153">
        <ele>691</ele>
        <time>2019-05-11T09:59:50Z</time>
      </trkpt>
      <trkpt lat="36.7399482727051" lon="-5.14556694030762">
        <ele>691</ele>
        <time>2019-05-11T09:59:52Z</time>
      </trkpt>
      <trkpt lat="36.7399482727051" lon="-5.14553213119507">
        <ele>691</ele>
        <time>2019-05-11T09:59:54Z</time>
      </trkpt>
      <trkpt lat="36.7399482727051" lon="-5.14549779891968">
        <ele>691</ele>
        <time>2019-05-11T09:59:56Z</time>
      </trkpt>
      <trkpt lat="36.7399444580078" lon="-5.14546203613281">
        <ele>691</ele>
        <time>2019-05-11T09:59:59Z</time>
      </trkpt>
      <trkpt lat="36.7399444580078" lon="-5.14542484283447">
        <ele>691</ele>
        <time>2019-05-11T10:00:01Z</time>
      </trkpt>
      <trkpt lat="36.7399444580078" lon="-5.14538717269897">
        <ele>691</ele>
        <time>2019-05-11T10:00:03Z</time>
      </trkpt>
      <trkpt lat="36.7399368286133" lon="-5.14534997940064">
        <ele>691</ele>
        <time>2019-05-11T10:00:05Z</time>
      </trkpt>
      <trkpt lat="36.7399368286133" lon="-5.14531183242798">
        <ele>691</ele>
        <time>2019-05-11T10:00:07Z</time>
      </trkpt>
      <trkpt lat="36.7399368286133" lon="-5.14527702331543">
        <ele>691</ele>
        <time>2019-05-11T10:00:09Z</time>
      </trkpt>
      <trkpt lat="36.7399368286133" lon="-5.14524221420288">
        <ele>691</ele>
        <time>2019-05-11T10:00:11Z</time>
      </trkpt>
      <trkpt lat="36.7399368286133" lon="-5.14520502090454">
        <ele>691</ele>
        <time>2019-05-11T10:00:13Z</time>
      </trkpt>
      <trkpt lat="36.739933013916" lon="-5.14517307281494">
        <ele>691</ele>
        <time>2019-05-11T10:00:15Z</time>
      </trkpt>
      <trkpt lat="36.739933013916" lon="-5.14514017105103">
        <ele>691</ele>
        <time>2019-05-11T10:00:17Z</time>
      </trkpt>
      <trkpt lat="36.7399253845215" lon="-5.14508676528931">
        <ele>691</ele>
        <time>2019-05-11T10:00:19Z</time>
      </trkpt>
      <trkpt lat="36.7399215698242" lon="-5.14505290985107">
        <ele>691</ele>
        <time>2019-05-11T10:00:21Z</time>
      </trkpt>
      <trkpt lat="36.739917755127" lon="-5.14501714706421">
        <ele>691</ele>
        <time>2019-05-11T10:00:23Z</time>
      </trkpt>
      <trkpt lat="36.7399139404297" lon="-5.14498281478882">
        <ele>691</ele>
        <time>2019-05-11T10:00:25Z</time>
      </trkpt>
      <trkpt lat="36.7399101257324" lon="-5.1449499130249">
        <ele>691</ele>
        <time>2019-05-11T10:00:27Z</time>
      </trkpt>
      <trkpt lat="36.7399063110352" lon="-5.14491510391235">
        <ele>691</ele>
        <time>2019-05-11T10:00:29Z</time>
      </trkpt>
      <trkpt lat="36.7399024963379" lon="-5.14487981796265">
        <ele>691</ele>
        <time>2019-05-11T10:00:31Z</time>
      </trkpt>
      <trkpt lat="36.7398986816406" lon="-5.14484691619873">
        <ele>691</ele>
        <time>2019-05-11T10:00:33Z</time>
      </trkpt>
      <trkpt lat="36.7398986816406" lon="-5.14481210708618">
        <ele>691</ele>
        <time>2019-05-11T10:00:35Z</time>
      </trkpt>
      <trkpt lat="36.7398910522461" lon="-5.14477491378784">
        <ele>691</ele>
        <time>2019-05-11T10:00:38Z</time>
      </trkpt>
      <trkpt lat="36.7398872375488" lon="-5.14473819732666">
        <ele>691</ele>
        <time>2019-05-11T10:00:40Z</time>
      </trkpt>
      <trkpt lat="36.7398796081543" lon="-5.14470291137695">
        <ele>691</ele>
        <time>2019-05-11T10:00:42Z</time>
      </trkpt>
      <trkpt lat="36.7398719787598" lon="-5.1446681022644">
        <ele>691</ele>
        <time>2019-05-11T10:00:44Z</time>
      </trkpt>
      <trkpt lat="36.7398681640625" lon="-5.1446328163147">
        <ele>691</ele>
        <time>2019-05-11T10:00:46Z</time>
      </trkpt>
      <trkpt lat="36.7398643493652" lon="-5.14459991455078">
        <ele>691</ele>
        <time>2019-05-11T10:00:48Z</time>
      </trkpt>
      <trkpt lat="36.739860534668" lon="-5.1445631980896">
        <ele>691</ele>
        <time>2019-05-11T10:00:50Z</time>
      </trkpt>
      <trkpt lat="36.7398529052734" lon="-5.14452505111694">
        <ele>691</ele>
        <time>2019-05-11T10:00:52Z</time>
      </trkpt>
      <trkpt lat="36.7398452758789" lon="-5.14446783065796">
        <ele>691</ele>
        <time>2019-05-11T10:00:54Z</time>
      </trkpt>
      <trkpt lat="36.7398414611816" lon="-5.14442777633667">
        <ele>691</ele>
        <time>2019-05-11T10:00:56Z</time>
      </trkpt>
      <trkpt lat="36.7398338317871" lon="-5.14439010620117">
        <ele>691</ele>
        <time>2019-05-11T10:00:58Z</time>
      </trkpt>
      <trkpt lat="36.7398338317871" lon="-5.14435291290283">
        <ele>691</ele>
        <time>2019-05-11T10:01:00Z</time>
      </trkpt>
      <trkpt lat="36.7398338317871" lon="-5.14431810379028">
        <ele>691</ele>
        <time>2019-05-11T10:01:02Z</time>
      </trkpt>
      <trkpt lat="36.7398376464844" lon="-5.144287109375">
        <ele>691</ele>
        <time>2019-05-11T10:01:04Z</time>
      </trkpt>
      <trkpt lat="36.7398414611816" lon="-5.14425182342529">
        <ele>691</ele>
        <time>2019-05-11T10:01:06Z</time>
      </trkpt>
      <trkpt lat="36.7398452758789" lon="-5.14421701431274">
        <ele>691</ele>
        <time>2019-05-11T10:01:08Z</time>
      </trkpt>
      <trkpt lat="36.7398490905762" lon="-5.14417314529419">
        <ele>691</ele>
        <time>2019-05-11T10:01:10Z</time>
      </trkpt>
      <trkpt lat="36.7398529052734" lon="-5.1441330909729">
        <ele>691</ele>
        <time>2019-05-11T10:01:12Z</time>
      </trkpt>
      <trkpt lat="36.7398529052734" lon="-5.14409303665161">
        <ele>691</ele>
        <time>2019-05-11T10:01:15Z</time>
      </trkpt>
      <trkpt lat="36.7398567199707" lon="-5.1440601348877">
        <ele>691</ele>
        <time>2019-05-11T10:01:17Z</time>
      </trkpt>
      <trkpt lat="36.739860534668" lon="-5.1440281867981">
        <ele>691</ele>
        <time>2019-05-11T10:01:19Z</time>
      </trkpt>
      <trkpt lat="36.7398681640625" lon="-5.14400005340576">
        <ele>691</ele>
        <time>2019-05-11T10:01:21Z</time>
      </trkpt>
      <trkpt lat="36.7398681640625" lon="-5.14396476745606">
        <ele>691</ele>
        <time>2019-05-11T10:01:23Z</time>
      </trkpt>
      <trkpt lat="36.7398719787598" lon="-5.14392709732056">
        <ele>691</ele>
        <time>2019-05-11T10:01:25Z</time>
      </trkpt>
      <trkpt lat="36.739875793457" lon="-5.14389181137085">
        <ele>691</ele>
        <time>2019-05-11T10:01:27Z</time>
      </trkpt>
      <trkpt lat="36.739875793457" lon="-5.14385223388672">
        <ele>691</ele>
        <time>2019-05-11T10:01:29Z</time>
      </trkpt>
      <trkpt lat="36.7398796081543" lon="-5.14379787445068">
        <ele>691</ele>
        <time>2019-05-11T10:01:31Z</time>
      </trkpt>
      <trkpt lat="36.7398796081543" lon="-5.14376497268677">
        <ele>691</ele>
        <time>2019-05-11T10:01:33Z</time>
      </trkpt>
      <trkpt lat="36.7398834228516" lon="-5.14372682571411">
        <ele>691</ele>
        <time>2019-05-11T10:01:35Z</time>
      </trkpt>
      <trkpt lat="36.7398872375488" lon="-5.14368486404419">
        <ele>691</ele>
        <time>2019-05-11T10:01:37Z</time>
      </trkpt>
      <trkpt lat="36.7398872375488" lon="-5.14364814758301">
        <ele>691</ele>
        <time>2019-05-11T10:01:39Z</time>
      </trkpt>
      <trkpt lat="36.7398910522461" lon="-5.14361000061035">
        <ele>691</ele>
        <time>2019-05-11T10:01:41Z</time>
      </trkpt>
      <trkpt lat="36.7398948669434" lon="-5.14357280731201">
        <ele>691</ele>
        <time>2019-05-11T10:01:43Z</time>
      </trkpt>
      <trkpt lat="36.7398986816406" lon="-5.14353513717651">
        <ele>691</ele>
        <time>2019-05-11T10:01:45Z</time>
      </trkpt>
      <trkpt lat="36.7398986816406" lon="-5.14349985122681">
        <ele>691</ele>
        <time>2019-05-11T10:01:47Z</time>
      </trkpt>
      <trkpt lat="36.7399024963379" lon="-5.14346218109131">
        <ele>691</ele>
        <time>2019-05-11T10:01:50Z</time>
      </trkpt>
      <trkpt lat="36.7399063110352" lon="-5.14342308044434">
        <ele>691</ele>
        <time>2019-05-11T10:01:52Z</time>
      </trkpt>
      <trkpt lat="36.7399101257324" lon="-5.14339017868042">
        <ele>691</ele>
        <time>2019-05-11T10:01:54Z</time>
      </trkpt>
      <trkpt lat="36.739917755127" lon="-5.14335298538208">
        <ele>691</ele>
        <time>2019-05-11T10:01:56Z</time>
      </trkpt>
      <trkpt lat="36.7399215698242" lon="-5.14331722259522">
        <ele>691</ele>
        <time>2019-05-11T10:01:58Z</time>
      </trkpt>
      <trkpt lat="36.7399215698242" lon="-5.14328193664551">
        <ele>691</ele>
        <time>2019-05-11T10:02:00Z</time>
      </trkpt>
      <trkpt lat="36.7399215698242" lon="-5.14324998855591">
        <ele>691</ele>
        <time>2019-05-11T10:02:02Z</time>
      </trkpt>
      <trkpt lat="36.739917755127" lon="-5.14321279525757">
        <ele>691</ele>
        <time>2019-05-11T10:02:04Z</time>
      </trkpt>
      <trkpt lat="36.7399139404297" lon="-5.1431770324707">
        <ele>691</ele>
        <time>2019-05-11T10:02:06Z</time>
      </trkpt>
      <trkpt lat="36.7399101257324" lon="-5.14311981201172">
        <ele>691</ele>
        <time>2019-05-11T10:02:08Z</time>
      </trkpt>
      <trkpt lat="36.7399063110352" lon="-5.14308214187622">
        <ele>691</ele>
        <time>2019-05-11T10:02:10Z</time>
      </trkpt>
      <trkpt lat="36.7399024963379" lon="-5.14304494857788">
        <ele>691</ele>
        <time>2019-05-11T10:02:12Z</time>
      </trkpt>
      <trkpt lat="36.7398986816406" lon="-5.14300680160522">
        <ele>691</ele>
        <time>2019-05-11T10:02:14Z</time>
      </trkpt>
      <trkpt lat="36.7398948669434" lon="-5.14296817779541">
        <ele>691</ele>
        <time>2019-05-11T10:02:16Z</time>
      </trkpt>
      <trkpt lat="36.7398872375488" lon="-5.14293718338013">
        <ele>691</ele>
        <time>2019-05-11T10:02:18Z</time>
      </trkpt>
      <trkpt lat="36.7398834228516" lon="-5.14290523529053">
        <ele>691</ele>
        <time>2019-05-11T10:02:20Z</time>
      </trkpt>
      <trkpt lat="36.7398796081543" lon="-5.14287185668945">
        <ele>691</ele>
        <time>2019-05-11T10:02:22Z</time>
      </trkpt>
      <trkpt lat="36.739875793457" lon="-5.1428370475769">
        <ele>691</ele>
        <time>2019-05-11T10:02:24Z</time>
      </trkpt>
      <trkpt lat="36.7398681640625" lon="-5.14280319213867">
        <ele>691</ele>
        <time>2019-05-11T10:02:27Z</time>
      </trkpt>
      <trkpt lat="36.7398643493652" lon="-5.1427731513977">
        <ele>691</ele>
        <time>2019-05-11T10:02:29Z</time>
      </trkpt>
      <trkpt lat="36.7398567199707" lon="-5.142737865448">
        <ele>691</ele>
        <time>2019-05-11T10:02:31Z</time>
      </trkpt>
      <trkpt lat="36.7398529052734" lon="-5.14270305633545">
        <ele>691</ele>
        <time>2019-05-11T10:02:33Z</time>
      </trkpt>
      <trkpt lat="36.7398490905762" lon="-5.14266490936279">
        <ele>691</ele>
        <time>2019-05-11T10:02:35Z</time>
      </trkpt>
      <trkpt lat="36.7398452758789" lon="-5.1426248550415">
        <ele>691</ele>
        <time>2019-05-11T10:02:37Z</time>
      </trkpt>
      <trkpt lat="36.7398414611816" lon="-5.14258480072022">
        <ele>691</ele>
        <time>2019-05-11T10:02:39Z</time>
      </trkpt>
      <trkpt lat="36.7398376464844" lon="-5.14254283905029">
        <ele>691</ele>
        <time>2019-05-11T10:02:41Z</time>
      </trkpt>
      <trkpt lat="36.7398338317871" lon="-5.14250707626343">
        <ele>691</ele>
        <time>2019-05-11T10:02:43Z</time>
      </trkpt>
      <trkpt lat="36.7398262023926" lon="-5.14245319366455">
        <ele>691</ele>
        <time>2019-05-11T10:02:45Z</time>
      </trkpt>
      <trkpt lat="36.7398223876953" lon="-5.14241790771484">
        <ele>691</ele>
        <time>2019-05-11T10:02:47Z</time>
      </trkpt>
      <trkpt lat="36.739818572998" lon="-5.14237689971924">
        <ele>691</ele>
        <time>2019-05-11T10:02:49Z</time>
      </trkpt>
      <trkpt lat="36.7398147583008" lon="-5.14234209060669">
        <ele>691</ele>
        <time>2019-05-11T10:02:51Z</time>
      </trkpt>
      <trkpt lat="36.7398109436035" lon="-5.14230489730835">
        <ele>691</ele>
        <time>2019-05-11T10:02:53Z</time>
      </trkpt>
      <trkpt lat="36.7398071289062" lon="-5.14226722717285">
        <ele>691</ele>
        <time>2019-05-11T10:02:55Z</time>
      </trkpt>
      <trkpt lat="36.7398071289062" lon="-5.14223003387451">
        <ele>691</ele>
        <time>2019-05-11T10:02:57Z</time>
      </trkpt>
      <trkpt lat="36.739803314209" lon="-5.1421971321106">
        <ele>691</ele>
        <time>2019-05-11T10:02:59Z</time>
      </trkpt>
      <trkpt lat="36.7397994995117" lon="-5.14215993881226">
        <ele>691</ele>
        <time>2019-05-11T10:03:02Z</time>
      </trkpt>
      <trkpt lat="36.7397918701172" lon="-5.14212703704834">
        <ele>691</ele>
        <time>2019-05-11T10:03:04Z</time>
      </trkpt>
      <trkpt lat="36.7397880554199" lon="-5.14208793640137">
        <ele>691</ele>
        <time>2019-05-11T10:03:06Z</time>
      </trkpt>
      <trkpt lat="36.7397804260254" lon="-5.14205312728882">
        <ele>691</ele>
        <time>2019-05-11T10:03:08Z</time>
      </trkpt>
      <trkpt lat="36.7397727966309" lon="-5.1420202255249">
        <ele>691</ele>
        <time>2019-05-11T10:03:10Z</time>
      </trkpt>
      <trkpt lat="36.7397651672363" lon="-5.14198780059814">
        <ele>691</ele>
        <time>2019-05-11T10:03:12Z</time>
      </trkpt>
      <trkpt lat="36.7397537231445" lon="-5.14195489883423">
        <ele>691</ele>
        <time>2019-05-11T10:03:14Z</time>
      </trkpt>
      <trkpt lat="36.73974609375" lon="-5.14192199707031">
        <ele>691</ele>
        <time>2019-05-11T10:03:16Z</time>
      </trkpt>
      <trkpt lat="36.7397346496582" lon="-5.14188814163208">
        <ele>691</ele>
        <time>2019-05-11T10:03:18Z</time>
      </trkpt>
      <trkpt lat="36.7397193908691" lon="-5.14183807373047">
        <ele>691</ele>
        <time>2019-05-11T10:03:20Z</time>
      </trkpt>
      <trkpt lat="36.7397117614746" lon="-5.14180517196655">
        <ele>691</ele>
        <time>2019-05-11T10:03:22Z</time>
      </trkpt>
      <trkpt lat="36.7396965026856" lon="-5.14177513122559">
        <ele>691</ele>
        <time>2019-05-11T10:03:24Z</time>
      </trkpt>
      <trkpt lat="36.739688873291" lon="-5.14174699783325">
        <ele>691</ele>
        <time>2019-05-11T10:03:26Z</time>
      </trkpt>
      <trkpt lat="36.7396812438965" lon="-5.1417121887207">
        <ele>691</ele>
        <time>2019-05-11T10:03:28Z</time>
      </trkpt>
      <trkpt lat="36.739673614502" lon="-5.141676902771">
        <ele>691</ele>
        <time>2019-05-11T10:03:30Z</time>
      </trkpt>
      <trkpt lat="36.7396659851074" lon="-5.14164018630981">
        <ele>691</ele>
        <time>2019-05-11T10:03:32Z</time>
      </trkpt>
      <trkpt lat="36.7396545410156" lon="-5.14160203933716">
        <ele>691</ele>
        <time>2019-05-11T10:03:34Z</time>
      </trkpt>
      <trkpt lat="36.7396469116211" lon="-5.14156818389893">
        <ele>691</ele>
        <time>2019-05-11T10:03:37Z</time>
      </trkpt>
      <trkpt lat="36.7396430969238" lon="-5.14153814315796">
        <ele>691</ele>
        <time>2019-05-11T10:03:39Z</time>
      </trkpt>
      <trkpt lat="36.7396354675293" lon="-5.14150285720825">
        <ele>691</ele>
        <time>2019-05-11T10:03:41Z</time>
      </trkpt>
      <trkpt lat="36.739631652832" lon="-5.14147186279297">
        <ele>691</ele>
        <time>2019-05-11T10:03:43Z</time>
      </trkpt>
      <trkpt lat="36.7396278381348" lon="-5.14143800735474">
        <ele>690</ele>
        <time>2019-05-11T10:03:45Z</time>
      </trkpt>
      <trkpt lat="36.7396202087402" lon="-5.14140176773071">
        <ele>690</ele>
        <time>2019-05-11T10:03:47Z</time>
      </trkpt>
      <trkpt lat="36.739616394043" lon="-5.14135980606079">
        <ele>690</ele>
        <time>2019-05-11T10:03:49Z</time>
      </trkpt>
      <trkpt lat="36.7396087646484" lon="-5.14132690429688">
        <ele>689</ele>
        <time>2019-05-11T10:03:51Z</time>
      </trkpt>
      <trkpt lat="36.7396011352539" lon="-5.14129018783569">
        <ele>689</ele>
        <time>2019-05-11T10:03:53Z</time>
      </trkpt>
      <trkpt lat="36.7395935058594" lon="-5.14123821258545">
        <ele>689</ele>
        <time>2019-05-11T10:03:55Z</time>
      </trkpt>
      <trkpt lat="36.7395858764648" lon="-5.14120483398438">
        <ele>689</ele>
        <time>2019-05-11T10:03:57Z</time>
      </trkpt>
      <trkpt lat="36.7395820617676" lon="-5.14117288589478">
        <ele>689</ele>
        <time>2019-05-11T10:03:59Z</time>
      </trkpt>
      <trkpt lat="36.7395782470703" lon="-5.14113998413086">
        <ele>689</ele>
        <time>2019-05-11T10:04:01Z</time>
      </trkpt>
      <trkpt lat="36.7395706176758" lon="-5.14110708236694">
        <ele>689</ele>
        <time>2019-05-11T10:04:03Z</time>
      </trkpt>
      <trkpt lat="36.7395668029785" lon="-5.14107179641724">
        <ele>689</ele>
        <time>2019-05-11T10:04:05Z</time>
      </trkpt>
      <trkpt lat="36.739559173584" lon="-5.141037940979">
        <ele>689</ele>
        <time>2019-05-11T10:04:07Z</time>
      </trkpt>
      <trkpt lat="36.7395515441894" lon="-5.14100313186646">
        <ele>689</ele>
        <time>2019-05-11T10:04:09Z</time>
      </trkpt>
      <trkpt lat="36.7395439147949" lon="-5.14097213745117">
        <ele>689</ele>
        <time>2019-05-11T10:04:11Z</time>
      </trkpt>
      <trkpt lat="36.7395362854004" lon="-5.14093780517578">
        <ele>689</ele>
        <time>2019-05-11T10:04:14Z</time>
      </trkpt>
      <trkpt lat="36.7395362854004" lon="-5.14090013504028">
        <ele>689</ele>
        <time>2019-05-11T10:04:16Z</time>
      </trkpt>
      <trkpt lat="36.7395286560059" lon="-5.14086294174194">
        <ele>689</ele>
        <time>2019-05-11T10:04:18Z</time>
      </trkpt>
      <trkpt lat="36.7395210266113" lon="-5.14082717895508">
        <ele>689</ele>
        <time>2019-05-11T10:04:20Z</time>
      </trkpt>
      <trkpt lat="36.7395172119141" lon="-5.14078807830811">
        <ele>689</ele>
        <time>2019-05-11T10:04:22Z</time>
      </trkpt>
      <trkpt lat="36.7395095825195" lon="-5.14074993133545">
        <ele>689</ele>
        <time>2019-05-11T10:04:24Z</time>
      </trkpt>
      <trkpt lat="36.739501953125" lon="-5.1407151222229">
        <ele>689</ele>
        <time>2019-05-11T10:04:26Z</time>
      </trkpt>
      <trkpt lat="36.7394981384277" lon="-5.14067697525024">
        <ele>689</ele>
        <time>2019-05-11T10:04:28Z</time>
      </trkpt>
      <trkpt lat="36.7394943237305" lon="-5.14062023162842">
        <ele>689</ele>
        <time>2019-05-11T10:04:30Z</time>
      </trkpt>
      <trkpt lat="36.7394905090332" lon="-5.14058303833008">
        <ele>689</ele>
        <time>2019-05-11T10:04:32Z</time>
      </trkpt>
      <trkpt lat="36.7394905090332" lon="-5.14054489135742">
        <ele>689</ele>
        <time>2019-05-11T10:04:34Z</time>
      </trkpt>
      <trkpt lat="36.7394866943359" lon="-5.14050817489624">
        <ele>689</ele>
        <time>2019-05-11T10:04:36Z</time>
      </trkpt>
      <trkpt lat="36.7394828796387" lon="-5.14046812057495">
        <ele>689</ele>
        <time>2019-05-11T10:04:38Z</time>
      </trkpt>
      <trkpt lat="36.7394790649414" lon="-5.1404299736023">
        <ele>689</ele>
        <time>2019-05-11T10:04:40Z</time>
      </trkpt>
      <trkpt lat="36.7394752502441" lon="-5.14039182662964">
        <ele>689</ele>
        <time>2019-05-11T10:04:42Z</time>
      </trkpt>
      <trkpt lat="36.7394752502441" lon="-5.14035511016846">
        <ele>689</ele>
        <time>2019-05-11T10:04:44Z</time>
      </trkpt>
      <trkpt lat="36.7394714355469" lon="-5.14031505584717">
        <ele>689</ele>
        <time>2019-05-11T10:04:46Z</time>
      </trkpt>
      <trkpt lat="36.7394714355469" lon="-5.14027690887451">
        <ele>689</ele>
        <time>2019-05-11T10:04:49Z</time>
      </trkpt>
      <trkpt lat="36.7394676208496" lon="-5.14023780822754">
        <ele>689</ele>
        <time>2019-05-11T10:04:51Z</time>
      </trkpt>
      <trkpt lat="36.7394676208496" lon="-5.14020013809204">
        <ele>689</ele>
        <time>2019-05-11T10:04:53Z</time>
      </trkpt>
      <trkpt lat="36.7394714355469" lon="-5.14016199111938">
        <ele>689</ele>
        <time>2019-05-11T10:04:55Z</time>
      </trkpt>
      <trkpt lat="36.7394714355469" lon="-5.14012289047241">
        <ele>689</ele>
        <time>2019-05-11T10:04:57Z</time>
      </trkpt>
      <trkpt lat="36.7394714355469" lon="-5.14008522033691">
        <ele>689</ele>
        <time>2019-05-11T10:04:59Z</time>
      </trkpt>
      <trkpt lat="36.7394676208496" lon="-5.14004516601562">
        <ele>690</ele>
        <time>2019-05-11T10:05:01Z</time>
      </trkpt>
      <trkpt lat="36.7394638061523" lon="-5.14000797271728">
        <ele>690</ele>
        <time>2019-05-11T10:05:03Z</time>
      </trkpt>
      <trkpt lat="36.7394638061523" lon="-5.13996982574463">
        <ele>691</ele>
        <time>2019-05-11T10:05:05Z</time>
      </trkpt>
      <trkpt lat="36.7394561767578" lon="-5.13991689682007">
        <ele>691</ele>
        <time>2019-05-11T10:05:07Z</time>
      </trkpt>
      <trkpt lat="36.7394561767578" lon="-5.13988018035889">
        <ele>692</ele>
        <time>2019-05-11T10:05:09Z</time>
      </trkpt>
      <trkpt lat="36.7394523620606" lon="-5.13984489440918">
        <ele>692</ele>
        <time>2019-05-11T10:05:11Z</time>
      </trkpt>
      <trkpt lat="36.7394523620606" lon="-5.13981008529663">
        <ele>692</ele>
        <time>2019-05-11T10:05:13Z</time>
      </trkpt>
      <trkpt lat="36.7394523620606" lon="-5.13977479934692">
        <ele>692</ele>
        <time>2019-05-11T10:05:15Z</time>
      </trkpt>
      <trkpt lat="36.7394523620606" lon="-5.13973808288574">
        <ele>692</ele>
        <time>2019-05-11T10:05:17Z</time>
      </trkpt>
      <trkpt lat="36.7394485473633" lon="-5.13969707489014">
        <ele>692</ele>
        <time>2019-05-11T10:05:19Z</time>
      </trkpt>
      <trkpt lat="36.7394485473633" lon="-5.13965797424316">
        <ele>692</ele>
        <time>2019-05-11T10:05:21Z</time>
      </trkpt>
      <trkpt lat="36.739444732666" lon="-5.13962316513062">
        <ele>692</ele>
        <time>2019-05-11T10:05:24Z</time>
      </trkpt>
      <trkpt lat="36.739444732666" lon="-5.13958501815796">
        <ele>692</ele>
        <time>2019-05-11T10:05:26Z</time>
      </trkpt>
      <trkpt lat="36.7394409179688" lon="-5.13955020904541">
        <ele>692</ele>
        <time>2019-05-11T10:05:28Z</time>
      </trkpt>
      <trkpt lat="36.7394371032715" lon="-5.1395149230957">
        <ele>692</ele>
        <time>2019-05-11T10:05:30Z</time>
      </trkpt>
      <trkpt lat="36.7394332885742" lon="-5.13947820663452">
        <ele>692</ele>
        <time>2019-05-11T10:05:32Z</time>
      </trkpt>
      <trkpt lat="36.7394332885742" lon="-5.13944292068481">
        <ele>692</ele>
        <time>2019-05-11T10:05:34Z</time>
      </trkpt>
      <trkpt lat="36.7394256591797" lon="-5.13940811157227">
        <ele>692</ele>
        <time>2019-05-11T10:05:36Z</time>
      </trkpt>
      <trkpt lat="36.7394218444824" lon="-5.13937520980835">
        <ele>692</ele>
        <time>2019-05-11T10:05:38Z</time>
      </trkpt>
      <trkpt lat="36.7394142150879" lon="-5.13933992385864">
        <ele>692</ele>
        <time>2019-05-11T10:05:40Z</time>
      </trkpt>
      <trkpt lat="36.7394065856934" lon="-5.13930320739746">
        <ele>692</ele>
        <time>2019-05-11T10:05:42Z</time>
      </trkpt>
      <trkpt lat="36.7394065856934" lon="-5.13924503326416">
        <ele>692</ele>
        <time>2019-05-11T10:05:44Z</time>
      </trkpt>
      <trkpt lat="36.7393989562988" lon="-5.13920497894287">
        <ele>692</ele>
        <time>2019-05-11T10:05:46Z</time>
      </trkpt>
      <trkpt lat="36.7393913269043" lon="-5.13916778564453">
        <ele>692</ele>
        <time>2019-05-11T10:05:48Z</time>
      </trkpt>
      <trkpt lat="36.7393913269043" lon="-5.1391282081604">
        <ele>692</ele>
        <time>2019-05-11T10:05:50Z</time>
      </trkpt>
      <trkpt lat="36.739387512207" lon="-5.13909292221069">
        <ele>692</ele>
        <time>2019-05-11T10:05:52Z</time>
      </trkpt>
      <trkpt lat="36.7393836975098" lon="-5.13905811309814">
        <ele>692</ele>
        <time>2019-05-11T10:05:54Z</time>
      </trkpt>
      <trkpt lat="36.739387512207" lon="-5.13902187347412">
        <ele>691</ele>
        <time>2019-05-11T10:05:56Z</time>
      </trkpt>
      <trkpt lat="36.7393836975098" lon="-5.13898277282715">
        <ele>691</ele>
        <time>2019-05-11T10:05:58Z</time>
      </trkpt>
      <trkpt lat="36.7393798828125" lon="-5.13894701004028">
        <ele>691</ele>
        <time>2019-05-11T10:06:01Z</time>
      </trkpt>
      <trkpt lat="36.7393760681152" lon="-5.13890981674194">
        <ele>691</ele>
        <time>2019-05-11T10:06:03Z</time>
      </trkpt>
      <trkpt lat="36.739372253418" lon="-5.13887214660644">
        <ele>691</ele>
        <time>2019-05-11T10:06:05Z</time>
      </trkpt>
      <trkpt lat="36.739372253418" lon="-5.13883686065674">
        <ele>691</ele>
        <time>2019-05-11T10:06:07Z</time>
      </trkpt>
      <trkpt lat="36.7393684387207" lon="-5.13880300521851">
        <ele>690</ele>
        <time>2019-05-11T10:06:09Z</time>
      </trkpt>
      <trkpt lat="36.7393684387207" lon="-5.13877010345459">
        <ele>690</ele>
        <time>2019-05-11T10:06:11Z</time>
      </trkpt>
      <trkpt lat="36.7393684387207" lon="-5.13873481750488">
        <ele>689</ele>
        <time>2019-05-11T10:06:13Z</time>
      </trkpt>
      <trkpt lat="36.7393646240234" lon="-5.13870286941528">
        <ele>689</ele>
        <time>2019-05-11T10:06:15Z</time>
      </trkpt>
      <trkpt lat="36.7393646240234" lon="-5.138671875">
        <ele>689</ele>
        <time>2019-05-11T10:06:17Z</time>
      </trkpt>
      <trkpt lat="36.7393608093262" lon="-5.13862323760986">
        <ele>689</ele>
        <time>2019-05-11T10:06:19Z</time>
      </trkpt>
      <trkpt lat="36.7393608093262" lon="-5.13858699798584">
        <ele>689</ele>
        <time>2019-05-11T10:06:21Z</time>
      </trkpt>
      <trkpt lat="36.7393531799316" lon="-5.13854694366455">
        <ele>689</ele>
        <time>2019-05-11T10:06:23Z</time>
      </trkpt>
      <trkpt lat="36.7393531799316" lon="-5.13850498199463">
        <ele>689</ele>
        <time>2019-05-11T10:06:25Z</time>
      </trkpt>
      <trkpt lat="36.7393531799316" lon="-5.13846492767334">
        <ele>689</ele>
        <time>2019-05-11T10:06:27Z</time>
      </trkpt>
      <trkpt lat="36.7393531799316" lon="-5.13842487335205">
        <ele>689</ele>
        <time>2019-05-11T10:06:29Z</time>
      </trkpt>
      <trkpt lat="36.7393531799316" lon="-5.13838481903076">
        <ele>689</ele>
        <time>2019-05-11T10:06:31Z</time>
      </trkpt>
      <trkpt lat="36.7393493652344" lon="-5.13834476470947">
        <ele>689</ele>
        <time>2019-05-11T10:06:33Z</time>
      </trkpt>
      <trkpt lat="36.7393531799316" lon="-5.13830709457397">
        <ele>689</ele>
        <time>2019-05-11T10:06:35Z</time>
      </trkpt>
      <trkpt lat="36.7393531799316" lon="-5.13826513290405">
        <ele>689</ele>
        <time>2019-05-11T10:06:37Z</time>
      </trkpt>
      <trkpt lat="36.7393531799316" lon="-5.1382269859314">
        <ele>689</ele>
        <time>2019-05-11T10:06:39Z</time>
      </trkpt>
      <trkpt lat="36.7393531799316" lon="-5.13818788528442">
        <ele>689</ele>
        <time>2019-05-11T10:06:42Z</time>
      </trkpt>
      <trkpt lat="36.7393531799316" lon="-5.13815307617188">
        <ele>689</ele>
        <time>2019-05-11T10:06:44Z</time>
      </trkpt>
      <trkpt lat="36.7393531799316" lon="-5.13812017440796">
        <ele>689</ele>
        <time>2019-05-11T10:06:46Z</time>
      </trkpt>
      <trkpt lat="36.7393569946289" lon="-5.13808298110962">
        <ele>689</ele>
        <time>2019-05-11T10:06:48Z</time>
      </trkpt>
      <trkpt lat="36.7393569946289" lon="-5.13804483413696">
        <ele>689</ele>
        <time>2019-05-11T10:06:50Z</time>
      </trkpt>
      <trkpt lat="36.7393531799316" lon="-5.13800716400146">
        <ele>689</ele>
        <time>2019-05-11T10:06:52Z</time>
      </trkpt>
      <trkpt lat="36.7393531799316" lon="-5.13796710968018">
        <ele>689</ele>
        <time>2019-05-11T10:06:54Z</time>
      </trkpt>
      <trkpt lat="36.7393531799316" lon="-5.13793182373047">
        <ele>689</ele>
        <time>2019-05-11T10:06:56Z</time>
      </trkpt>
      <trkpt lat="36.7393531799316" lon="-5.13789510726929">
        <ele>689</ele>
        <time>2019-05-11T10:06:58Z</time>
      </trkpt>
      <trkpt lat="36.7393493652344" lon="-5.13785791397095">
        <ele>689</ele>
        <time>2019-05-11T10:07:00Z</time>
      </trkpt>
      <trkpt lat="36.7393417358398" lon="-5.13780784606934">
        <ele>689</ele>
        <time>2019-05-11T10:07:02Z</time>
      </trkpt>
      <trkpt lat="36.7393417358398" lon="-5.13777685165405">
        <ele>689</ele>
        <time>2019-05-11T10:07:04Z</time>
      </trkpt>
      <trkpt lat="36.7393417358398" lon="-5.13774013519287">
        <ele>689</ele>
        <time>2019-05-11T10:07:06Z</time>
      </trkpt>
      <trkpt lat="36.7393417358398" lon="-5.13770008087158">
        <ele>689</ele>
        <time>2019-05-11T10:07:08Z</time>
      </trkpt>
      <trkpt lat="36.7393379211426" lon="-5.13765811920166">
        <ele>689</ele>
        <time>2019-05-11T10:07:10Z</time>
      </trkpt>
      <trkpt lat="36.7393341064453" lon="-5.13762187957764">
        <ele>689</ele>
        <time>2019-05-11T10:07:12Z</time>
      </trkpt>
      <trkpt lat="36.739330291748" lon="-5.13758516311646">
        <ele>690</ele>
        <time>2019-05-11T10:07:14Z</time>
      </trkpt>
      <trkpt lat="36.7393264770508" lon="-5.1375470161438">
        <ele>690</ele>
        <time>2019-05-11T10:07:16Z</time>
      </trkpt>
      <trkpt lat="36.7393226623535" lon="-5.13751316070557">
        <ele>690</ele>
        <time>2019-05-11T10:07:19Z</time>
      </trkpt>
      <trkpt lat="36.739315032959" lon="-5.13747978210449">
        <ele>691</ele>
        <time>2019-05-11T10:07:21Z</time>
      </trkpt>
      <trkpt lat="36.7393112182617" lon="-5.13744783401489">
        <ele>691</ele>
        <time>2019-05-11T10:07:23Z</time>
      </trkpt>
      <trkpt lat="36.7393035888672" lon="-5.1374077796936">
        <ele>691</ele>
        <time>2019-05-11T10:07:25Z</time>
      </trkpt>
      <trkpt lat="36.7392997741699" lon="-5.13737297058106">
        <ele>691</ele>
        <time>2019-05-11T10:07:27Z</time>
      </trkpt>
      <trkpt lat="36.7392921447754" lon="-5.1373348236084">
        <ele>691</ele>
        <time>2019-05-11T10:07:29Z</time>
      </trkpt>
      <trkpt lat="36.7392845153809" lon="-5.13730001449585">
        <ele>691</ele>
        <time>2019-05-11T10:07:31Z</time>
      </trkpt>
      <trkpt lat="36.7392807006836" lon="-5.13726186752319">
        <ele>691</ele>
        <time>2019-05-11T10:07:33Z</time>
      </trkpt>
      <trkpt lat="36.7392768859863" lon="-5.13722801208496">
        <ele>691</ele>
        <time>2019-05-11T10:07:35Z</time>
      </trkpt>
      <trkpt lat="36.7392692565918" lon="-5.13717699050903">
        <ele>691</ele>
        <time>2019-05-11T10:07:37Z</time>
      </trkpt>
      <trkpt lat="36.7392616271973" lon="-5.13713979721069">
        <ele>691</ele>
        <time>2019-05-11T10:07:39Z</time>
      </trkpt>
      <trkpt lat="36.7392501831055" lon="-5.13710689544678">
        <ele>691</ele>
        <time>2019-05-11T10:07:41Z</time>
      </trkpt>
      <trkpt lat="36.7392425537109" lon="-5.13707304000854">
        <ele>691</ele>
        <time>2019-05-11T10:07:43Z</time>
      </trkpt>
      <trkpt lat="36.7392311096191" lon="-5.13703489303589">
        <ele>692</ele>
        <time>2019-05-11T10:07:45Z</time>
      </trkpt>
      <trkpt lat="36.7392196655273" lon="-5.13700008392334">
        <ele>692</ele>
        <time>2019-05-11T10:07:47Z</time>
      </trkpt>
      <trkpt lat="36.7392082214356" lon="-5.13696479797363">
        <ele>692</ele>
        <time>2019-05-11T10:07:49Z</time>
      </trkpt>
      <trkpt lat="36.739200592041" lon="-5.13692712783814">
        <ele>692</ele>
        <time>2019-05-11T10:07:51Z</time>
      </trkpt>
      <trkpt lat="36.7391929626465" lon="-5.1368899345398">
        <ele>692</ele>
        <time>2019-05-11T10:07:54Z</time>
      </trkpt>
      <trkpt lat="36.739185333252" lon="-5.13685178756714">
        <ele>692</ele>
        <time>2019-05-11T10:07:56Z</time>
      </trkpt>
      <trkpt lat="36.7391738891602" lon="-5.13680982589722">
        <ele>692</ele>
        <time>2019-05-11T10:07:58Z</time>
      </trkpt>
      <trkpt lat="36.7391662597656" lon="-5.1367678642273">
        <ele>692</ele>
        <time>2019-05-11T10:08:00Z</time>
      </trkpt>
      <trkpt lat="36.7391586303711" lon="-5.13673210144043">
        <ele>692</ele>
        <time>2019-05-11T10:08:02Z</time>
      </trkpt>
      <trkpt lat="36.7391471862793" lon="-5.13669300079346">
        <ele>692</ele>
        <time>2019-05-11T10:08:04Z</time>
      </trkpt>
      <trkpt lat="36.7391395568848" lon="-5.13665723800659">
        <ele>692</ele>
        <time>2019-05-11T10:08:06Z</time>
      </trkpt>
      <trkpt lat="36.739128112793" lon="-5.13662195205688">
        <ele>692</ele>
        <time>2019-05-11T10:08:08Z</time>
      </trkpt>
      <trkpt lat="36.7391242980957" lon="-5.1365852355957">
        <ele>692</ele>
        <time>2019-05-11T10:08:10Z</time>
      </trkpt>
      <trkpt lat="36.7391090393066" lon="-5.13653516769409">
        <ele>692</ele>
        <time>2019-05-11T10:08:12Z</time>
      </trkpt>
      <trkpt lat="36.7391014099121" lon="-5.13649988174438">
        <ele>692</ele>
        <time>2019-05-11T10:08:14Z</time>
      </trkpt>
      <trkpt lat="36.7390937805176" lon="-5.13646507263184">
        <ele>692</ele>
        <time>2019-05-11T10:08:16Z</time>
      </trkpt>
      <trkpt lat="36.7390823364258" lon="-5.1364278793335">
        <ele>692</ele>
        <time>2019-05-11T10:08:18Z</time>
      </trkpt>
      <trkpt lat="36.739070892334" lon="-5.13639211654663">
        <ele>692</ele>
        <time>2019-05-11T10:08:20Z</time>
      </trkpt>
      <trkpt lat="36.7390594482422" lon="-5.13635301589966">
        <ele>692</ele>
        <time>2019-05-11T10:08:22Z</time>
      </trkpt>
      <trkpt lat="36.7390518188477" lon="-5.13631677627564">
        <ele>692</ele>
        <time>2019-05-11T10:08:24Z</time>
      </trkpt>
      <trkpt lat="36.7390403747559" lon="-5.13628196716309">
        <ele>692</ele>
        <time>2019-05-11T10:08:26Z</time>
      </trkpt>
      <trkpt lat="36.7390365600586" lon="-5.13624715805054">
        <ele>692</ele>
        <time>2019-05-11T10:08:28Z</time>
      </trkpt>
      <trkpt lat="36.7390251159668" lon="-5.13621282577515">
        <ele>692</ele>
        <time>2019-05-11T10:08:31Z</time>
      </trkpt>
      <trkpt lat="36.739013671875" lon="-5.1361780166626">
        <ele>692</ele>
        <time>2019-05-11T10:08:33Z</time>
      </trkpt>
      <trkpt lat="36.7390060424805" lon="-5.13614511489868">
        <ele>692</ele>
        <time>2019-05-11T10:08:35Z</time>
      </trkpt>
      <trkpt lat="36.7389984130859" lon="-5.13610982894897">
        <ele>692</ele>
        <time>2019-05-11T10:08:37Z</time>
      </trkpt>
      <trkpt lat="36.7389869689941" lon="-5.13607311248779">
        <ele>692</ele>
        <time>2019-05-11T10:08:39Z</time>
      </trkpt>
      <trkpt lat="36.7389831542969" lon="-5.13603782653809">
        <ele>692</ele>
        <time>2019-05-11T10:08:41Z</time>
      </trkpt>
      <trkpt lat="36.7389755249023" lon="-5.13600206375122">
        <ele>692</ele>
        <time>2019-05-11T10:08:43Z</time>
      </trkpt>
      <trkpt lat="36.7389717102051" lon="-5.13596487045288">
        <ele>692</ele>
        <time>2019-05-11T10:08:45Z</time>
      </trkpt>
      <trkpt lat="36.7389640808106" lon="-5.13593292236328">
        <ele>692</ele>
        <time>2019-05-11T10:08:47Z</time>
      </trkpt>
      <trkpt lat="36.738956451416" lon="-5.13587284088135">
        <ele>692</ele>
        <time>2019-05-11T10:08:49Z</time>
      </trkpt>
      <trkpt lat="36.7389526367188" lon="-5.13583993911743">
        <ele>692</ele>
        <time>2019-05-11T10:08:51Z</time>
      </trkpt>
      <trkpt lat="36.7389488220215" lon="-5.13579797744751">
        <ele>692</ele>
        <time>2019-05-11T10:08:53Z</time>
      </trkpt>
      <trkpt lat="36.7389450073242" lon="-5.13576221466064">
        <ele>692</ele>
        <time>2019-05-11T10:08:55Z</time>
      </trkpt>
      <trkpt lat="36.738941192627" lon="-5.13572216033936">
        <ele>692</ele>
        <time>2019-05-11T10:08:57Z</time>
      </trkpt>
      <trkpt lat="36.7389373779297" lon="-5.13568305969238">
        <ele>692</ele>
        <time>2019-05-11T10:08:59Z</time>
      </trkpt>
      <trkpt lat="36.7389335632324" lon="-5.13564682006836">
        <ele>692</ele>
        <time>2019-05-11T10:09:01Z</time>
      </trkpt>
      <trkpt lat="36.7389297485352" lon="-5.13560676574707">
        <ele>692</ele>
        <time>2019-05-11T10:09:03Z</time>
      </trkpt>
      <trkpt lat="36.7389221191406" lon="-5.13556289672852">
        <ele>692</ele>
        <time>2019-05-11T10:09:06Z</time>
      </trkpt>
      <trkpt lat="36.7389144897461" lon="-5.13552522659302">
        <ele>692</ele>
        <time>2019-05-11T10:09:08Z</time>
      </trkpt>
      <trkpt lat="36.7389106750488" lon="-5.13548994064331">
        <ele>692</ele>
        <time>2019-05-11T10:09:10Z</time>
      </trkpt>
      <trkpt lat="36.7389068603516" lon="-5.13545513153076">
        <ele>692</ele>
        <time>2019-05-11T10:09:12Z</time>
      </trkpt>
      <trkpt lat="36.7389068603516" lon="-5.13541793823242">
        <ele>692</ele>
        <time>2019-05-11T10:09:14Z</time>
      </trkpt>
      <trkpt lat="36.7389068603516" lon="-5.13537788391113">
        <ele>692</ele>
        <time>2019-05-11T10:09:16Z</time>
      </trkpt>
      <trkpt lat="36.7389068603516" lon="-5.13533782958984">
        <ele>692</ele>
        <time>2019-05-11T10:09:18Z</time>
      </trkpt>
      <trkpt lat="36.7389068603516" lon="-5.13529300689697">
        <ele>692</ele>
        <time>2019-05-11T10:09:20Z</time>
      </trkpt>
      <trkpt lat="36.7389068603516" lon="-5.13525485992432">
        <ele>692</ele>
        <time>2019-05-11T10:09:22Z</time>
      </trkpt>
      <trkpt lat="36.7389106750488" lon="-5.13520193099976">
        <ele>692</ele>
        <time>2019-05-11T10:09:24Z</time>
      </trkpt>
      <trkpt lat="36.7389106750488" lon="-5.13516998291016">
        <ele>692</ele>
        <time>2019-05-11T10:09:26Z</time>
      </trkpt>
      <trkpt lat="36.7389068603516" lon="-5.13513278961182">
        <ele>692</ele>
        <time>2019-05-11T10:09:28Z</time>
      </trkpt>
      <trkpt lat="36.7389068603516" lon="-5.13508319854736">
        <ele>692</ele>
        <time>2019-05-11T10:09:30Z</time>
      </trkpt>
      <trkpt lat="36.7389068603516" lon="-5.1350269317627">
        <ele>692</ele>
        <time>2019-05-11T10:09:32Z</time>
      </trkpt>
      <trkpt lat="36.7389068603516" lon="-5.13497304916382">
        <ele>692</ele>
        <time>2019-05-11T10:09:34Z</time>
      </trkpt>
      <trkpt lat="36.7389030456543" lon="-5.13492679595947">
        <ele>692</ele>
        <time>2019-05-11T10:09:36Z</time>
      </trkpt>
      <trkpt lat="36.7388916015625" lon="-5.13486814498901">
        <ele>692</ele>
        <time>2019-05-11T10:09:38Z</time>
      </trkpt>
      <trkpt lat="36.738883972168" lon="-5.13481712341309">
        <ele>692</ele>
        <time>2019-05-11T10:09:40Z</time>
      </trkpt>
      <trkpt lat="36.7388763427734" lon="-5.13476181030273">
        <ele>692</ele>
        <time>2019-05-11T10:09:42Z</time>
      </trkpt>
      <trkpt lat="36.7388687133789" lon="-5.13470697402954">
        <ele>692</ele>
        <time>2019-05-11T10:09:44Z</time>
      </trkpt>
      <trkpt lat="36.7388648986816" lon="-5.1346549987793">
        <ele>692</ele>
        <time>2019-05-11T10:09:47Z</time>
      </trkpt>
      <trkpt lat="36.7388648986816" lon="-5.13460779190064">
        <ele>692</ele>
        <time>2019-05-11T10:09:49Z</time>
      </trkpt>
      <trkpt lat="36.7388648986816" lon="-5.13456201553345">
        <ele>692</ele>
        <time>2019-05-11T10:09:51Z</time>
      </trkpt>
      <trkpt lat="36.7388725280762" lon="-5.13451814651489">
        <ele>692</ele>
        <time>2019-05-11T10:09:53Z</time>
      </trkpt>
      <trkpt lat="36.7388725280762" lon="-5.13446712493896">
        <ele>692</ele>
        <time>2019-05-11T10:09:55Z</time>
      </trkpt>
      <trkpt lat="36.7388725280762" lon="-5.13441705703735">
        <ele>692</ele>
        <time>2019-05-11T10:09:57Z</time>
      </trkpt>
      <trkpt lat="36.7388687133789" lon="-5.13436794281006">
        <ele>692</ele>
        <time>2019-05-11T10:09:59Z</time>
      </trkpt>
      <trkpt lat="36.7388572692871" lon="-5.13431787490845">
        <ele>692</ele>
        <time>2019-05-11T10:10:01Z</time>
      </trkpt>
      <trkpt lat="36.7388534545898" lon="-5.13426780700684">
        <ele>692</ele>
        <time>2019-05-11T10:10:03Z</time>
      </trkpt>
      <trkpt lat="36.7388534545898" lon="-5.13418006896973">
        <ele>692</ele>
        <time>2019-05-11T10:10:05Z</time>
      </trkpt>
      <trkpt lat="36.7388534545898" lon="-5.13412189483643">
        <ele>692</ele>
        <time>2019-05-11T10:10:07Z</time>
      </trkpt>
      <trkpt lat="36.7388687133789" lon="-5.13407516479492">
        <ele>692</ele>
        <time>2019-05-11T10:10:09Z</time>
      </trkpt>
      <trkpt lat="36.7388687133789" lon="-5.13402223587036">
        <ele>692</ele>
        <time>2019-05-11T10:10:11Z</time>
      </trkpt>
      <trkpt lat="36.7388687133789" lon="-5.13396692276001">
        <ele>692</ele>
        <time>2019-05-11T10:10:13Z</time>
      </trkpt>
      <trkpt lat="36.7388572692871" lon="-5.13390684127808">
        <ele>692</ele>
        <time>2019-05-11T10:10:15Z</time>
      </trkpt>
      <trkpt lat="36.7388534545898" lon="-5.1338529586792">
        <ele>692</ele>
        <time>2019-05-11T10:10:17Z</time>
      </trkpt>
      <trkpt lat="36.7388458251953" lon="-5.13379716873169">
        <ele>692</ele>
        <time>2019-05-11T10:10:19Z</time>
      </trkpt>
      <trkpt lat="36.738826751709" lon="-5.13374280929565">
        <ele>692</ele>
        <time>2019-05-11T10:10:21Z</time>
      </trkpt>
      <trkpt lat="36.7388076782227" lon="-5.13368511199951">
        <ele>692</ele>
        <time>2019-05-11T10:10:24Z</time>
      </trkpt>
      <trkpt lat="36.7388000488281" lon="-5.13362503051758">
        <ele>692</ele>
        <time>2019-05-11T10:10:26Z</time>
      </trkpt>
      <trkpt lat="36.7388000488281" lon="-5.13357496261597">
        <ele>692</ele>
        <time>2019-05-11T10:10:28Z</time>
      </trkpt>
      <trkpt lat="36.7387886047363" lon="-5.13352012634277">
        <ele>692</ele>
        <time>2019-05-11T10:10:30Z</time>
      </trkpt>
      <trkpt lat="36.7387733459473" lon="-5.13345718383789">
        <ele>692</ele>
        <time>2019-05-11T10:10:32Z</time>
      </trkpt>
      <trkpt lat="36.7387580871582" lon="-5.13339996337891">
        <ele>692</ele>
        <time>2019-05-11T10:10:34Z</time>
      </trkpt>
      <trkpt lat="36.7387351989746" lon="-5.13334512710571">
        <ele>692</ele>
        <time>2019-05-11T10:10:36Z</time>
      </trkpt>
      <trkpt lat="36.738712310791" lon="-5.13329219818115">
        <ele>692</ele>
        <time>2019-05-11T10:10:38Z</time>
      </trkpt>
      <trkpt lat="36.7386894226074" lon="-5.13323497772217">
        <ele>692</ele>
        <time>2019-05-11T10:10:40Z</time>
      </trkpt>
      <trkpt lat="36.7386665344238" lon="-5.1331582069397">
        <ele>692</ele>
        <time>2019-05-11T10:10:42Z</time>
      </trkpt>
      <trkpt lat="36.7386474609375" lon="-5.1331148147583">
        <ele>692</ele>
        <time>2019-05-11T10:10:44Z</time>
      </trkpt>
      <trkpt lat="36.7386245727539" lon="-5.13307809829712">
        <ele>692</ele>
        <time>2019-05-11T10:10:46Z</time>
      </trkpt>
      <trkpt lat="36.7386131286621" lon="-5.13302278518677">
        <ele>692</ele>
        <time>2019-05-11T10:10:48Z</time>
      </trkpt>
      <trkpt lat="36.7386054992676" lon="-5.13296985626221">
        <ele>692</ele>
        <time>2019-05-11T10:10:50Z</time>
      </trkpt>
      <trkpt lat="36.7385940551758" lon="-5.13291501998901">
        <ele>692</ele>
        <time>2019-05-11T10:10:52Z</time>
      </trkpt>
      <trkpt lat="36.7385864257812" lon="-5.13286018371582">
        <ele>692</ele>
        <time>2019-05-11T10:10:54Z</time>
      </trkpt>
      <trkpt lat="36.7385787963867" lon="-5.13280200958252">
        <ele>692</ele>
        <time>2019-05-11T10:10:56Z</time>
      </trkpt>
      <trkpt lat="36.7385711669922" lon="-5.1327428817749">
        <ele>692</ele>
        <time>2019-05-11T10:10:59Z</time>
      </trkpt>
      <trkpt lat="36.7385635375977" lon="-5.13268518447876">
        <ele>692</ele>
        <time>2019-05-11T10:11:01Z</time>
      </trkpt>
      <trkpt lat="36.7385559082031" lon="-5.13262510299683">
        <ele>692</ele>
        <time>2019-05-11T10:11:03Z</time>
      </trkpt>
      <trkpt lat="36.7385559082031" lon="-5.13256788253784">
        <ele>692</ele>
        <time>2019-05-11T10:11:05Z</time>
      </trkpt>
      <trkpt lat="36.7385597229004" lon="-5.13251686096191">
        <ele>692</ele>
        <time>2019-05-11T10:11:07Z</time>
      </trkpt>
      <trkpt lat="36.7385597229004" lon="-5.13246297836304">
        <ele>692</ele>
        <time>2019-05-11T10:11:09Z</time>
      </trkpt>
      <trkpt lat="36.7385559082031" lon="-5.13241291046143">
        <ele>692</ele>
        <time>2019-05-11T10:11:11Z</time>
      </trkpt>
      <trkpt lat="36.7385482788086" lon="-5.13236522674561">
        <ele>692</ele>
        <time>2019-05-11T10:11:13Z</time>
      </trkpt>
      <trkpt lat="36.7385406494141" lon="-5.13231706619263">
        <ele>692</ele>
        <time>2019-05-11T10:11:15Z</time>
      </trkpt>
      <trkpt lat="36.7385330200195" lon="-5.13223218917847">
        <ele>692</ele>
        <time>2019-05-11T10:11:17Z</time>
      </trkpt>
      <trkpt lat="36.7385292053223" lon="-5.13217210769653">
        <ele>692</ele>
        <time>2019-05-11T10:11:19Z</time>
      </trkpt>
      <trkpt lat="36.738525390625" lon="-5.13212203979492">
        <ele>692</ele>
        <time>2019-05-11T10:11:21Z</time>
      </trkpt>
      <trkpt lat="36.7385292053223" lon="-5.13206481933594">
        <ele>692</ele>
        <time>2019-05-11T10:11:23Z</time>
      </trkpt>
      <trkpt lat="36.7385177612305" lon="-5.13201189041138">
        <ele>692</ele>
        <time>2019-05-11T10:11:25Z</time>
      </trkpt>
      <trkpt lat="36.7385025024414" lon="-5.1319580078125">
        <ele>692</ele>
        <time>2019-05-11T10:11:27Z</time>
      </trkpt>
      <trkpt lat="36.7384872436523" lon="-5.13190793991089">
        <ele>692</ele>
        <time>2019-05-11T10:11:29Z</time>
      </trkpt>
      <trkpt lat="36.7384796142578" lon="-5.13185977935791">
        <ele>692</ele>
        <time>2019-05-11T10:11:31Z</time>
      </trkpt>
      <trkpt lat="36.7384796142578" lon="-5.13181018829346">
        <ele>692</ele>
        <time>2019-05-11T10:11:34Z</time>
      </trkpt>
      <trkpt lat="36.7384796142578" lon="-5.13176012039185">
        <ele>692</ele>
        <time>2019-05-11T10:11:36Z</time>
      </trkpt>
      <trkpt lat="36.7384796142578" lon="-5.13170480728149">
        <ele>692</ele>
        <time>2019-05-11T10:11:38Z</time>
      </trkpt>
      <trkpt lat="36.7384643554688" lon="-5.13165521621704">
        <ele>693</ele>
        <time>2019-05-11T10:11:40Z</time>
      </trkpt>
      <trkpt lat="36.7384338378906" lon="-5.13161277770996">
        <ele>693</ele>
        <time>2019-05-11T10:11:42Z</time>
      </trkpt>
      <trkpt lat="36.7384033203125" lon="-5.13156986236572">
        <ele>693</ele>
        <time>2019-05-11T10:11:44Z</time>
      </trkpt>
      <trkpt lat="36.7383728027344" lon="-5.13153314590454">
        <ele>693</ele>
        <time>2019-05-11T10:11:46Z</time>
      </trkpt>
      <trkpt lat="36.7383422851562" lon="-5.13149499893188">
        <ele>694</ele>
        <time>2019-05-11T10:11:48Z</time>
      </trkpt>
      <trkpt lat="36.7383079528809" lon="-5.13145685195923">
        <ele>694</ele>
        <time>2019-05-11T10:11:50Z</time>
      </trkpt>
      <trkpt lat="36.7382736206055" lon="-5.13142490386963">
        <ele>694</ele>
        <time>2019-05-11T10:11:52Z</time>
      </trkpt>
      <trkpt lat="36.7382278442383" lon="-5.1313967704773">
        <ele>694</ele>
        <time>2019-05-11T10:11:54Z</time>
      </trkpt>
      <trkpt lat="36.7382011413574" lon="-5.13137483596802">
        <ele>694</ele>
        <time>2019-05-11T10:11:56Z</time>
      </trkpt>
      <trkpt lat="36.7381782531738" lon="-5.13134717941284">
        <ele>694</ele>
        <time>2019-05-11T10:11:58Z</time>
      </trkpt>
      <trkpt lat="36.7381553649902" lon="-5.13131713867188">
        <ele>694</ele>
        <time>2019-05-11T10:12:00Z</time>
      </trkpt>
      <trkpt lat="36.7381362915039" lon="-5.13128995895386">
        <ele>694</ele>
        <time>2019-05-11T10:12:02Z</time>
      </trkpt>
      <trkpt lat="36.7381134033203" lon="-5.13126277923584">
        <ele>694</ele>
        <time>2019-05-11T10:12:04Z</time>
      </trkpt>
      <trkpt lat="36.7380867004394" lon="-5.1312370300293">
        <ele>694</ele>
        <time>2019-05-11T10:12:06Z</time>
      </trkpt>
      <trkpt lat="36.7380638122559" lon="-5.13121509552002">
        <ele>694</ele>
        <time>2019-05-11T10:12:08Z</time>
      </trkpt>
      <trkpt lat="36.738037109375" lon="-5.13118982315064">
        <ele>695</ele>
        <time>2019-05-11T10:12:11Z</time>
      </trkpt>
      <trkpt lat="36.7380104064941" lon="-5.13117504119873">
        <ele>695</ele>
        <time>2019-05-11T10:12:13Z</time>
      </trkpt>
      <trkpt lat="36.7379875183106" lon="-5.13115978240967">
        <ele>695</ele>
        <time>2019-05-11T10:12:15Z</time>
      </trkpt>
      <trkpt lat="36.737964630127" lon="-5.13113784790039">
        <ele>696</ele>
        <time>2019-05-11T10:12:17Z</time>
      </trkpt>
      <trkpt lat="36.7379417419434" lon="-5.13112020492554">
        <ele>697</ele>
        <time>2019-05-11T10:12:19Z</time>
      </trkpt>
      <trkpt lat="36.7379188537598" lon="-5.13110303878784">
        <ele>697</ele>
        <time>2019-05-11T10:12:21Z</time>
      </trkpt>
      <trkpt lat="36.7378921508789" lon="-5.1310830116272">
        <ele>698</ele>
        <time>2019-05-11T10:12:23Z</time>
      </trkpt>
      <trkpt lat="36.7378730773926" lon="-5.13106298446655">
        <ele>698</ele>
        <time>2019-05-11T10:12:25Z</time>
      </trkpt>
      <trkpt lat="36.7378463745117" lon="-5.13104820251465">
        <ele>698</ele>
        <time>2019-05-11T10:12:27Z</time>
      </trkpt>
      <trkpt lat="36.7378196716309" lon="-5.13103818893433">
        <ele>698</ele>
        <time>2019-05-11T10:12:29Z</time>
      </trkpt>
      <trkpt lat="36.7377738952637" lon="-5.131028175354">
        <ele>698</ele>
        <time>2019-05-11T10:12:31Z</time>
      </trkpt>
      <trkpt lat="36.7377433776856" lon="-5.1310248374939">
        <ele>698</ele>
        <time>2019-05-11T10:12:33Z</time>
      </trkpt>
      <trkpt lat="36.7377166748047" lon="-5.13101482391357">
        <ele>698</ele>
        <time>2019-05-11T10:12:35Z</time>
      </trkpt>
      <trkpt lat="36.7376861572266" lon="-5.13100290298462">
        <ele>698</ele>
        <time>2019-05-11T10:12:37Z</time>
      </trkpt>
      <trkpt lat="36.7376594543457" lon="-5.13098478317261">
        <ele>698</ele>
        <time>2019-05-11T10:12:39Z</time>
      </trkpt>
      <trkpt lat="36.7376365661621" lon="-5.13096523284912">
        <ele>698</ele>
        <time>2019-05-11T10:12:41Z</time>
      </trkpt>
      <trkpt lat="36.7376136779785" lon="-5.13093996047974">
        <ele>699</ele>
        <time>2019-05-11T10:12:43Z</time>
      </trkpt>
      <trkpt lat="36.7375907897949" lon="-5.13091707229614">
        <ele>699</ele>
        <time>2019-05-11T10:12:45Z</time>
      </trkpt>
      <trkpt lat="36.7375640869141" lon="-5.13089323043823">
        <ele>699</ele>
        <time>2019-05-11T10:12:48Z</time>
      </trkpt>
      <trkpt lat="36.7375450134277" lon="-5.13086700439453">
        <ele>699</ele>
        <time>2019-05-11T10:12:50Z</time>
      </trkpt>
      <trkpt lat="36.7375259399414" lon="-5.1308422088623">
        <ele>700</ele>
        <time>2019-05-11T10:12:52Z</time>
      </trkpt>
      <trkpt lat="36.7375030517578" lon="-5.13081502914429">
        <ele>700</ele>
        <time>2019-05-11T10:12:54Z</time>
      </trkpt>
      <trkpt lat="36.7374801635742" lon="-5.13078498840332">
        <ele>700</ele>
        <time>2019-05-11T10:12:56Z</time>
      </trkpt>
      <trkpt lat="36.7374610900879" lon="-5.13075494766235">
        <ele>700</ele>
        <time>2019-05-11T10:12:58Z</time>
      </trkpt>
      <trkpt lat="36.7374382019043" lon="-5.13073301315308">
        <ele>700</ele>
        <time>2019-05-11T10:13:00Z</time>
      </trkpt>
      <trkpt lat="36.737419128418" lon="-5.13070821762085">
        <ele>701</ele>
        <time>2019-05-11T10:13:02Z</time>
      </trkpt>
      <trkpt lat="36.7373924255371" lon="-5.13069009780884">
        <ele>701</ele>
        <time>2019-05-11T10:13:04Z</time>
      </trkpt>
      <trkpt lat="36.7373695373535" lon="-5.13067007064819">
        <ele>702</ele>
        <time>2019-05-11T10:13:06Z</time>
      </trkpt>
      <trkpt lat="36.7373352050781" lon="-5.13062286376953">
        <ele>703</ele>
        <time>2019-05-11T10:13:08Z</time>
      </trkpt>
      <trkpt lat="36.7373161315918" lon="-5.13058805465698">
        <ele>703</ele>
        <time>2019-05-11T10:13:10Z</time>
      </trkpt>
      <trkpt lat="36.7372970581055" lon="-5.13055992126465">
        <ele>704</ele>
        <time>2019-05-11T10:13:12Z</time>
      </trkpt>
      <trkpt lat="36.7372779846191" lon="-5.13052797317505">
        <ele>704</ele>
        <time>2019-05-11T10:13:14Z</time>
      </trkpt>
      <trkpt lat="36.7372665405273" lon="-5.13049507141113">
        <ele>705</ele>
        <time>2019-05-11T10:13:16Z</time>
      </trkpt>
      <trkpt lat="36.7372589111328" lon="-5.13046312332153">
        <ele>705</ele>
        <time>2019-05-11T10:13:18Z</time>
      </trkpt>
      <trkpt lat="36.7372512817383" lon="-5.13042497634888">
        <ele>706</ele>
        <time>2019-05-11T10:13:20Z</time>
      </trkpt>
      <trkpt lat="36.7372436523438" lon="-5.13038492202759">
        <ele>706</ele>
        <time>2019-05-11T10:13:22Z</time>
      </trkpt>
      <trkpt lat="36.7372360229492" lon="-5.13035011291504">
        <ele>706</ele>
        <time>2019-05-11T10:13:25Z</time>
      </trkpt>
      <trkpt lat="36.7372283935547" lon="-5.13031005859375">
        <ele>706</ele>
        <time>2019-05-11T10:13:27Z</time>
      </trkpt>
      <trkpt lat="36.7372283935547" lon="-5.13027286529541">
        <ele>706</ele>
        <time>2019-05-11T10:13:29Z</time>
      </trkpt>
      <trkpt lat="36.7372207641602" lon="-5.13024187088013">
        <ele>706</ele>
        <time>2019-05-11T10:13:31Z</time>
      </trkpt>
      <trkpt lat="36.7372169494629" lon="-5.13020992279053">
        <ele>706</ele>
        <time>2019-05-11T10:13:33Z</time>
      </trkpt>
      <trkpt lat="36.7372055053711" lon="-5.13017511367798">
        <ele>706</ele>
        <time>2019-05-11T10:13:35Z</time>
      </trkpt>
      <trkpt lat="36.7372055053711" lon="-5.13014221191406">
        <ele>706</ele>
        <time>2019-05-11T10:13:37Z</time>
      </trkpt>
      <trkpt lat="36.7371978759766" lon="-5.13010787963867">
        <ele>706</ele>
        <time>2019-05-11T10:13:39Z</time>
      </trkpt>
      <trkpt lat="36.737190246582" lon="-5.13007497787476">
        <ele>707</ele>
        <time>2019-05-11T10:13:41Z</time>
      </trkpt>
      <trkpt lat="36.7371864318848" lon="-5.13002490997314">
        <ele>707</ele>
        <time>2019-05-11T10:13:43Z</time>
      </trkpt>
      <trkpt lat="36.7371788024902" lon="-5.12998819351196">
        <ele>708</ele>
        <time>2019-05-11T10:13:45Z</time>
      </trkpt>
      <trkpt lat="36.7371711730957" lon="-5.12995290756226">
        <ele>709</ele>
        <time>2019-05-11T10:13:47Z</time>
      </trkpt>
      <trkpt lat="36.7371673583984" lon="-5.12992191314697">
        <ele>709</ele>
        <time>2019-05-11T10:13:49Z</time>
      </trkpt>
      <trkpt lat="36.7371597290039" lon="-5.12988805770874">
        <ele>709</ele>
        <time>2019-05-11T10:13:51Z</time>
      </trkpt>
      <trkpt lat="36.7371482849121" lon="-5.12986183166504">
        <ele>709</ele>
        <time>2019-05-11T10:13:53Z</time>
      </trkpt>
      <trkpt lat="36.7371444702148" lon="-5.12983989715576">
        <ele>709</ele>
        <time>2019-05-11T10:13:55Z</time>
      </trkpt>
      <trkpt lat="36.7371368408203" lon="-5.12981176376343">
        <ele>709</ele>
        <time>2019-05-11T10:13:57Z</time>
      </trkpt>
      <trkpt lat="36.7371215820312" lon="-5.12978506088257">
        <ele>709</ele>
        <time>2019-05-11T10:13:59Z</time>
      </trkpt>
      <trkpt lat="36.7371025085449" lon="-5.12975311279297">
        <ele>709</ele>
        <time>2019-05-11T10:14:02Z</time>
      </trkpt>
      <trkpt lat="36.7370948791504" lon="-5.12972021102905">
        <ele>709</ele>
        <time>2019-05-11T10:14:04Z</time>
      </trkpt>
      <trkpt lat="36.7370834350586" lon="-5.1296820640564">
        <ele>709</ele>
        <time>2019-05-11T10:14:06Z</time>
      </trkpt>
      <trkpt lat="36.7370719909668" lon="-5.12964677810669">
        <ele>709</ele>
        <time>2019-05-11T10:14:08Z</time>
      </trkpt>
      <trkpt lat="36.7370643615723" lon="-5.12961292266846">
        <ele>709</ele>
        <time>2019-05-11T10:14:10Z</time>
      </trkpt>
      <trkpt lat="36.7370529174805" lon="-5.12958192825317">
        <ele>709</ele>
        <time>2019-05-11T10:14:12Z</time>
      </trkpt>
      <trkpt lat="36.7370338439941" lon="-5.12955188751221">
        <ele>709</ele>
        <time>2019-05-11T10:14:14Z</time>
      </trkpt>
      <trkpt lat="36.7370223999023" lon="-5.12952518463135">
        <ele>709</ele>
        <time>2019-05-11T10:14:16Z</time>
      </trkpt>
      <trkpt lat="36.7370109558106" lon="-5.12949705123901">
        <ele>709</ele>
        <time>2019-05-11T10:14:18Z</time>
      </trkpt>
      <trkpt lat="36.7369918823242" lon="-5.12945222854614">
        <ele>709</ele>
        <time>2019-05-11T10:14:20Z</time>
      </trkpt>
      <trkpt lat="36.7369804382324" lon="-5.12941980361938">
        <ele>709</ele>
        <time>2019-05-11T10:14:22Z</time>
      </trkpt>
      <trkpt lat="36.7369728088379" lon="-5.12938976287842">
        <ele>709</ele>
        <time>2019-05-11T10:14:24Z</time>
      </trkpt>
      <trkpt lat="36.7369613647461" lon="-5.12935304641724">
        <ele>709</ele>
        <time>2019-05-11T10:14:26Z</time>
      </trkpt>
      <trkpt lat="36.736946105957" lon="-5.12932205200195">
        <ele>709</ele>
        <time>2019-05-11T10:14:28Z</time>
      </trkpt>
      <trkpt lat="36.7369422912598" lon="-5.1292929649353">
        <ele>709</ele>
        <time>2019-05-11T10:14:30Z</time>
      </trkpt>
      <trkpt lat="36.7369346618652" lon="-5.12926197052002">
        <ele>709</ele>
        <time>2019-05-11T10:14:32Z</time>
      </trkpt>
      <trkpt lat="36.7369232177734" lon="-5.12923002243042">
        <ele>709</ele>
        <time>2019-05-11T10:14:34Z</time>
      </trkpt>
      <trkpt lat="36.7369117736816" lon="-5.12919521331787">
        <ele>709</ele>
        <time>2019-05-11T10:14:37Z</time>
      </trkpt>
      <trkpt lat="36.7369003295898" lon="-5.12915802001953">
        <ele>709</ele>
        <time>2019-05-11T10:14:39Z</time>
      </trkpt>
      <trkpt lat="36.736888885498" lon="-5.1291298866272">
        <ele>709</ele>
        <time>2019-05-11T10:14:41Z</time>
      </trkpt>
      <trkpt lat="36.7368812561035" lon="-5.12909984588623">
        <ele>710</ele>
        <time>2019-05-11T10:14:43Z</time>
      </trkpt>
      <trkpt lat="36.7368659973144" lon="-5.12906694412231">
        <ele>711</ele>
        <time>2019-05-11T10:14:45Z</time>
      </trkpt>
      <trkpt lat="36.7368431091309" lon="-5.12904214859009">
        <ele>712</ele>
        <time>2019-05-11T10:14:47Z</time>
      </trkpt>
      <trkpt lat="36.7368240356445" lon="-5.12901210784912">
        <ele>713</ele>
        <time>2019-05-11T10:14:49Z</time>
      </trkpt>
      <trkpt lat="36.7368011474609" lon="-5.1289849281311">
        <ele>714</ele>
        <time>2019-05-11T10:14:51Z</time>
      </trkpt>
      <trkpt lat="36.7367820739746" lon="-5.12896203994751">
        <ele>714</ele>
        <time>2019-05-11T10:14:53Z</time>
      </trkpt>
      <trkpt lat="36.7367630004883" lon="-5.12891483306885">
        <ele>715</ele>
        <time>2019-05-11T10:14:55Z</time>
      </trkpt>
      <trkpt lat="36.7367401123047" lon="-5.12888717651367">
        <ele>716</ele>
        <time>2019-05-11T10:14:57Z</time>
      </trkpt>
      <trkpt lat="36.7367248535156" lon="-5.12885522842407">
        <ele>717</ele>
        <time>2019-05-11T10:14:59Z</time>
      </trkpt>
      <trkpt lat="36.7367057800293" lon="-5.12883520126343">
        <ele>718</ele>
        <time>2019-05-11T10:15:01Z</time>
      </trkpt>
      <trkpt lat="36.7366943359375" lon="-5.12880802154541">
        <ele>719</ele>
        <time>2019-05-11T10:15:03Z</time>
      </trkpt>
      <trkpt lat="36.7366790771484" lon="-5.12878322601318">
        <ele>719</ele>
        <time>2019-05-11T10:15:05Z</time>
      </trkpt>
      <trkpt lat="36.7366638183594" lon="-5.12876319885254">
        <ele>720</ele>
        <time>2019-05-11T10:15:07Z</time>
      </trkpt>
      <trkpt lat="36.7366371154785" lon="-5.12874221801758">
        <ele>720</ele>
        <time>2019-05-11T10:15:09Z</time>
      </trkpt>
      <trkpt lat="36.7366180419922" lon="-5.12871980667114">
        <ele>720</ele>
        <time>2019-05-11T10:15:12Z</time>
      </trkpt>
      <trkpt lat="36.7365951538086" lon="-5.12870311737061">
        <ele>720</ele>
        <time>2019-05-11T10:15:14Z</time>
      </trkpt>
      <trkpt lat="36.736572265625" lon="-5.12868213653564">
        <ele>720</ele>
        <time>2019-05-11T10:15:16Z</time>
      </trkpt>
      <trkpt lat="36.7365493774414" lon="-5.1286678314209">
        <ele>720</ele>
        <time>2019-05-11T10:15:18Z</time>
      </trkpt>
      <trkpt lat="36.7365264892578" lon="-5.12864685058594">
        <ele>720</ele>
        <time>2019-05-11T10:15:20Z</time>
      </trkpt>
      <trkpt lat="36.7365074157715" lon="-5.12862777709961">
        <ele>720</ele>
        <time>2019-05-11T10:15:22Z</time>
      </trkpt>
      <trkpt lat="36.7364845275879" lon="-5.12861204147339">
        <ele>720</ele>
        <time>2019-05-11T10:15:24Z</time>
      </trkpt>
      <trkpt lat="36.7364616394043" lon="-5.12859487533569">
        <ele>720</ele>
        <time>2019-05-11T10:15:26Z</time>
      </trkpt>
      <trkpt lat="36.7364387512207" lon="-5.12857818603516">
        <ele>720</ele>
        <time>2019-05-11T10:15:28Z</time>
      </trkpt>
      <trkpt lat="36.736400604248" lon="-5.12855005264282">
        <ele>720</ele>
        <time>2019-05-11T10:15:30Z</time>
      </trkpt>
      <trkpt lat="36.7363815307617" lon="-5.12852811813354">
        <ele>720</ele>
        <time>2019-05-11T10:15:32Z</time>
      </trkpt>
      <trkpt lat="36.7363624572754" lon="-5.12850713729858">
        <ele>720</ele>
        <time>2019-05-11T10:15:34Z</time>
      </trkpt>
      <trkpt lat="36.7363395690918" lon="-5.12848806381226">
        <ele>720</ele>
        <time>2019-05-11T10:15:36Z</time>
      </trkpt>
      <trkpt lat="36.7363166809082" lon="-5.12846994400024">
        <ele>720</ele>
        <time>2019-05-11T10:15:38Z</time>
      </trkpt>
      <trkpt lat="36.7362976074219" lon="-5.12845277786255">
        <ele>720</ele>
        <time>2019-05-11T10:15:40Z</time>
      </trkpt>
      <trkpt lat="36.7362747192383" lon="-5.1284351348877">
        <ele>720</ele>
        <time>2019-05-11T10:15:42Z</time>
      </trkpt>
      <trkpt lat="36.736255645752" lon="-5.12841176986694">
        <ele>720</ele>
        <time>2019-05-11T10:15:44Z</time>
      </trkpt>
      <trkpt lat="36.7362327575684" lon="-5.12839221954346">
        <ele>720</ele>
        <time>2019-05-11T10:15:46Z</time>
      </trkpt>
      <trkpt lat="36.7362098693848" lon="-5.12837505340576">
        <ele>720</ele>
        <time>2019-05-11T10:15:49Z</time>
      </trkpt>
      <trkpt lat="36.7361907958984" lon="-5.12835502624512">
        <ele>720</ele>
        <time>2019-05-11T10:15:51Z</time>
      </trkpt>
      <trkpt lat="36.7361679077148" lon="-5.12834215164185">
        <ele>720</ele>
        <time>2019-05-11T10:15:53Z</time>
      </trkpt>
      <trkpt lat="36.7361488342285" lon="-5.12832021713257">
        <ele>720</ele>
        <time>2019-05-11T10:15:55Z</time>
      </trkpt>
      <trkpt lat="36.7361335754394" lon="-5.12830686569214">
        <ele>720</ele>
        <time>2019-05-11T10:15:57Z</time>
      </trkpt>
      <trkpt lat="36.7361068725586" lon="-5.12828779220581">
        <ele>720</ele>
        <time>2019-05-11T10:15:59Z</time>
      </trkpt>
      <trkpt lat="36.7360877990723" lon="-5.12827014923096">
        <ele>720</ele>
        <time>2019-05-11T10:16:01Z</time>
      </trkpt>
      <trkpt lat="36.7360687255859" lon="-5.12825489044189">
        <ele>720</ele>
        <time>2019-05-11T10:16:03Z</time>
      </trkpt>
      <trkpt lat="36.7360458374023" lon="-5.12823486328125">
        <ele>720</ele>
        <time>2019-05-11T10:16:05Z</time>
      </trkpt>
      <trkpt lat="36.736011505127" lon="-5.12821006774902">
        <ele>720</ele>
        <time>2019-05-11T10:16:07Z</time>
      </trkpt>
      <trkpt lat="36.7359886169434" lon="-5.12819290161133">
        <ele>720</ele>
        <time>2019-05-11T10:16:09Z</time>
      </trkpt>
      <trkpt lat="36.735969543457" lon="-5.12817287445068">
        <ele>720</ele>
        <time>2019-05-11T10:16:11Z</time>
      </trkpt>
      <trkpt lat="36.7359504699707" lon="-5.12815713882446">
        <ele>720</ele>
        <time>2019-05-11T10:16:13Z</time>
      </trkpt>
      <trkpt lat="36.7359313964844" lon="-5.12813997268677">
        <ele>720</ele>
        <time>2019-05-11T10:16:15Z</time>
      </trkpt>
      <trkpt lat="36.735912322998" lon="-5.12811517715454">
        <ele>720</ele>
        <time>2019-05-11T10:16:17Z</time>
      </trkpt>
      <trkpt lat="36.735897064209" lon="-5.12808990478516">
        <ele>720</ele>
        <time>2019-05-11T10:16:19Z</time>
      </trkpt>
      <trkpt lat="36.7358856201172" lon="-5.12805795669556">
        <ele>720</ele>
        <time>2019-05-11T10:16:21Z</time>
      </trkpt>
      <trkpt lat="36.7358779907227" lon="-5.12802696228027">
        <ele>721</ele>
        <time>2019-05-11T10:16:23Z</time>
      </trkpt>
      <trkpt lat="36.7358665466309" lon="-5.12799310684204">
        <ele>721</ele>
        <time>2019-05-11T10:16:26Z</time>
      </trkpt>
      <trkpt lat="36.7358665466309" lon="-5.12795782089233">
        <ele>722</ele>
        <time>2019-05-11T10:16:28Z</time>
      </trkpt>
      <trkpt lat="36.7358589172363" lon="-5.12792301177978">
        <ele>722</ele>
        <time>2019-05-11T10:16:30Z</time>
      </trkpt>
      <trkpt lat="36.7358551025391" lon="-5.12788486480713">
        <ele>723</ele>
        <time>2019-05-11T10:16:32Z</time>
      </trkpt>
      <trkpt lat="36.7358512878418" lon="-5.12785196304321">
        <ele>723</ele>
        <time>2019-05-11T10:16:34Z</time>
      </trkpt>
      <trkpt lat="36.7358474731445" lon="-5.12781810760498">
        <ele>723</ele>
        <time>2019-05-11T10:16:36Z</time>
      </trkpt>
      <trkpt lat="36.7358436584473" lon="-5.12778806686401">
        <ele>723</ele>
        <time>2019-05-11T10:16:38Z</time>
      </trkpt>
      <trkpt lat="36.7358360290527" lon="-5.12775802612305">
        <ele>723</ele>
        <time>2019-05-11T10:16:40Z</time>
      </trkpt>
      <trkpt lat="36.7358283996582" lon="-5.12772178649902">
        <ele>723</ele>
        <time>2019-05-11T10:16:42Z</time>
      </trkpt>
      <trkpt lat="36.7358207702637" lon="-5.12766790390015">
        <ele>723</ele>
        <time>2019-05-11T10:16:44Z</time>
      </trkpt>
      <trkpt lat="36.7358169555664" lon="-5.1276330947876">
        <ele>724</ele>
        <time>2019-05-11T10:16:46Z</time>
      </trkpt>
      <trkpt lat="36.7358131408691" lon="-5.12759780883789">
        <ele>724</ele>
        <time>2019-05-11T10:16:48Z</time>
      </trkpt>
      <trkpt lat="36.7358131408691" lon="-5.12756490707397">
        <ele>724</ele>
        <time>2019-05-11T10:16:50Z</time>
      </trkpt>
      <trkpt lat="36.7358093261719" lon="-5.12753486633301">
        <ele>725</ele>
        <time>2019-05-11T10:16:52Z</time>
      </trkpt>
      <trkpt lat="36.7358055114746" lon="-5.12750291824341">
        <ele>725</ele>
        <time>2019-05-11T10:16:54Z</time>
      </trkpt>
      <trkpt lat="36.7358055114746" lon="-5.12747001647949">
        <ele>726</ele>
        <time>2019-05-11T10:16:56Z</time>
      </trkpt>
      <trkpt lat="36.7358055114746" lon="-5.12743711471558">
        <ele>726</ele>
        <time>2019-05-11T10:16:58Z</time>
      </trkpt>
      <trkpt lat="36.7358016967773" lon="-5.12740516662598">
        <ele>726</ele>
        <time>2019-05-11T10:17:00Z</time>
      </trkpt>
      <trkpt lat="36.7357978820801" lon="-5.1273717880249">
        <ele>727</ele>
        <time>2019-05-11T10:17:03Z</time>
      </trkpt>
      <trkpt lat="36.7357940673828" lon="-5.12733507156372">
        <ele>727</ele>
        <time>2019-05-11T10:17:05Z</time>
      </trkpt>
      <trkpt lat="36.7357864379883" lon="-5.12730312347412">
        <ele>728</ele>
        <time>2019-05-11T10:17:07Z</time>
      </trkpt>
      <trkpt lat="36.7357788085938" lon="-5.12727308273315">
        <ele>728</ele>
        <time>2019-05-11T10:17:09Z</time>
      </trkpt>
      <trkpt lat="36.7357749938965" lon="-5.12724018096924">
        <ele>728</ele>
        <time>2019-05-11T10:17:11Z</time>
      </trkpt>
      <trkpt lat="36.7357711791992" lon="-5.12720489501953">
        <ele>729</ele>
        <time>2019-05-11T10:17:13Z</time>
      </trkpt>
      <trkpt lat="36.7357635498047" lon="-5.12717008590698">
        <ele>729</ele>
        <time>2019-05-11T10:17:15Z</time>
      </trkpt>
      <trkpt lat="36.7357597351074" lon="-5.12714195251465">
        <ele>729</ele>
        <time>2019-05-11T10:17:17Z</time>
      </trkpt>
      <trkpt lat="36.7357521057129" lon="-5.12711477279663">
        <ele>729</ele>
        <time>2019-05-11T10:17:19Z</time>
      </trkpt>
      <trkpt lat="36.7357444763184" lon="-5.12706184387207">
        <ele>729</ele>
        <time>2019-05-11T10:17:21Z</time>
      </trkpt>
      <trkpt lat="36.7357368469238" lon="-5.12702703475952">
        <ele>729</ele>
        <time>2019-05-11T10:17:23Z</time>
      </trkpt>
      <trkpt lat="36.7357330322266" lon="-5.12698698043823">
        <ele>729</ele>
        <time>2019-05-11T10:17:25Z</time>
      </trkpt>
      <trkpt lat="36.7357292175293" lon="-5.12694501876831">
        <ele>729</ele>
        <time>2019-05-11T10:17:27Z</time>
      </trkpt>
      <trkpt lat="36.7357330322266" lon="-5.12690782546997">
        <ele>729</ele>
        <time>2019-05-11T10:17:29Z</time>
      </trkpt>
      <trkpt lat="36.7357215881348" lon="-5.12687301635742">
        <ele>729</ele>
        <time>2019-05-11T10:17:31Z</time>
      </trkpt>
      <trkpt lat="36.7357139587402" lon="-5.1268367767334">
        <ele>729</ele>
        <time>2019-05-11T10:17:33Z</time>
      </trkpt>
      <trkpt lat="36.7357063293457" lon="-5.12680292129517">
        <ele>729</ele>
        <time>2019-05-11T10:17:35Z</time>
      </trkpt>
      <trkpt lat="36.7356986999512" lon="-5.1267671585083">
        <ele>729</ele>
        <time>2019-05-11T10:17:37Z</time>
      </trkpt>
      <trkpt lat="36.7356986999512" lon="-5.12673282623291">
        <ele>729</ele>
        <time>2019-05-11T10:17:40Z</time>
      </trkpt>
      <trkpt lat="36.7356948852539" lon="-5.12668800354004">
        <ele>730</ele>
        <time>2019-05-11T10:17:42Z</time>
      </trkpt>
      <trkpt lat="36.7356910705566" lon="-5.12665319442749">
        <ele>730</ele>
        <time>2019-05-11T10:17:44Z</time>
      </trkpt>
      <trkpt lat="36.7356834411621" lon="-5.12661504745483">
        <ele>731</ele>
        <time>2019-05-11T10:17:46Z</time>
      </trkpt>
      <trkpt lat="36.7356834411621" lon="-5.12658500671387">
        <ele>731</ele>
        <time>2019-05-11T10:17:48Z</time>
      </trkpt>
      <trkpt lat="36.7356834411621" lon="-5.12654685974121">
        <ele>731</ele>
        <time>2019-05-11T10:17:50Z</time>
      </trkpt>
      <trkpt lat="36.7356872558594" lon="-5.12651205062866">
        <ele>731</ele>
        <time>2019-05-11T10:17:52Z</time>
      </trkpt>
      <trkpt lat="36.7356872558594" lon="-5.12647819519043">
        <ele>731</ele>
        <time>2019-05-11T10:17:54Z</time>
      </trkpt>
      <trkpt lat="36.7356872558594" lon="-5.12643814086914">
        <ele>731</ele>
        <time>2019-05-11T10:17:56Z</time>
      </trkpt>
      <trkpt lat="36.7356872558594" lon="-5.12638807296753">
        <ele>731</ele>
        <time>2019-05-11T10:17:58Z</time>
      </trkpt>
      <trkpt lat="36.7356872558594" lon="-5.12635183334351">
        <ele>731</ele>
        <time>2019-05-11T10:18:00Z</time>
      </trkpt>
      <trkpt lat="36.7356872558594" lon="-5.12631988525391">
        <ele>731</ele>
        <time>2019-05-11T10:18:02Z</time>
      </trkpt>
      <trkpt lat="36.7356834411621" lon="-5.12628793716431">
        <ele>731</ele>
        <time>2019-05-11T10:18:04Z</time>
      </trkpt>
      <trkpt lat="36.7356796264648" lon="-5.12625217437744">
        <ele>732</ele>
        <time>2019-05-11T10:18:06Z</time>
      </trkpt>
      <trkpt lat="36.7356719970703" lon="-5.12622213363647">
        <ele>733</ele>
        <time>2019-05-11T10:18:08Z</time>
      </trkpt>
      <trkpt lat="36.7356643676758" lon="-5.12619209289551">
        <ele>733</ele>
        <time>2019-05-11T10:18:10Z</time>
      </trkpt>
      <trkpt lat="36.735652923584" lon="-5.12616491317749">
        <ele>734</ele>
        <time>2019-05-11T10:18:12Z</time>
      </trkpt>
      <trkpt lat="36.7356414794922" lon="-5.12614679336548">
        <ele>734</ele>
        <time>2019-05-11T10:18:14Z</time>
      </trkpt>
      <trkpt lat="36.7356338500977" lon="-5.1261248588562">
        <ele>734</ele>
        <time>2019-05-11T10:18:16Z</time>
      </trkpt>
      <trkpt lat="36.7356185913086" lon="-5.12610006332397">
        <ele>734</ele>
        <time>2019-05-11T10:18:19Z</time>
      </trkpt>
      <trkpt lat="36.7356071472168" lon="-5.12607288360596">
        <ele>734</ele>
        <time>2019-05-11T10:18:21Z</time>
      </trkpt>
      <trkpt lat="36.735595703125" lon="-5.12604188919067">
        <ele>734</ele>
        <time>2019-05-11T10:18:23Z</time>
      </trkpt>
      <trkpt lat="36.7355766296387" lon="-5.12601709365845">
        <ele>734</ele>
        <time>2019-05-11T10:18:25Z</time>
      </trkpt>
      <trkpt lat="36.7355613708496" lon="-5.12598991394043">
        <ele>734</ele>
        <time>2019-05-11T10:18:27Z</time>
      </trkpt>
      <trkpt lat="36.7355461120606" lon="-5.12597179412842">
        <ele>734</ele>
        <time>2019-05-11T10:18:29Z</time>
      </trkpt>
      <trkpt lat="36.7355308532715" lon="-5.12594509124756">
        <ele>734</ele>
        <time>2019-05-11T10:18:31Z</time>
      </trkpt>
      <trkpt lat="36.7355194091797" lon="-5.12592315673828">
        <ele>734</ele>
        <time>2019-05-11T10:18:33Z</time>
      </trkpt>
      <trkpt lat="36.7355079650879" lon="-5.12589979171753">
        <ele>734</ele>
        <time>2019-05-11T10:18:35Z</time>
      </trkpt>
      <trkpt lat="36.735481262207" lon="-5.12586307525635">
        <ele>734</ele>
        <time>2019-05-11T10:18:37Z</time>
      </trkpt>
      <trkpt lat="36.7354583740234" lon="-5.1258430480957">
        <ele>733</ele>
        <time>2019-05-11T10:18:39Z</time>
      </trkpt>
      <trkpt lat="36.7354431152344" lon="-5.12582683563232">
        <ele>732</ele>
        <time>2019-05-11T10:18:41Z</time>
      </trkpt>
      <trkpt lat="36.7354278564453" lon="-5.12580013275146">
        <ele>731</ele>
        <time>2019-05-11T10:18:43Z</time>
      </trkpt>
      <trkpt lat="36.735408782959" lon="-5.12577295303345">
        <ele>731</ele>
        <time>2019-05-11T10:18:45Z</time>
      </trkpt>
      <trkpt lat="36.7353935241699" lon="-5.1257472038269">
        <ele>731</ele>
        <time>2019-05-11T10:18:47Z</time>
      </trkpt>
      <trkpt lat="36.7353782653809" lon="-5.12571716308594">
        <ele>731</ele>
        <time>2019-05-11T10:18:49Z</time>
      </trkpt>
      <trkpt lat="36.7353591918945" lon="-5.12569189071655">
        <ele>731</ele>
        <time>2019-05-11T10:18:51Z</time>
      </trkpt>
      <trkpt lat="36.7353401184082" lon="-5.12566518783569">
        <ele>731</ele>
        <time>2019-05-11T10:18:53Z</time>
      </trkpt>
      <trkpt lat="36.7353248596191" lon="-5.12563514709473">
        <ele>731</ele>
        <time>2019-05-11T10:18:56Z</time>
      </trkpt>
      <trkpt lat="36.7353019714356" lon="-5.12560176849365">
        <ele>731</ele>
        <time>2019-05-11T10:18:58Z</time>
      </trkpt>
      <trkpt lat="36.7352867126465" lon="-5.12557315826416">
        <ele>731</ele>
        <time>2019-05-11T10:19:00Z</time>
      </trkpt>
      <trkpt lat="36.7352714538574" lon="-5.12554311752319">
        <ele>731</ele>
        <time>2019-05-11T10:19:02Z</time>
      </trkpt>
      <trkpt lat="36.7352561950684" lon="-5.12552213668823">
        <ele>731</ele>
        <time>2019-05-11T10:19:04Z</time>
      </trkpt>
      <trkpt lat="36.735237121582" lon="-5.12549781799316">
        <ele>731</ele>
        <time>2019-05-11T10:19:06Z</time>
      </trkpt>
      <trkpt lat="36.735221862793" lon="-5.12547302246094">
        <ele>731</ele>
        <time>2019-05-11T10:19:08Z</time>
      </trkpt>
      <trkpt lat="36.7352027893066" lon="-5.12544822692871">
        <ele>731</ele>
        <time>2019-05-11T10:19:10Z</time>
      </trkpt>
      <trkpt lat="36.7351837158203" lon="-5.12542295455933">
        <ele>731</ele>
        <time>2019-05-11T10:19:12Z</time>
      </trkpt>
      <trkpt lat="36.7351493835449" lon="-5.12539482116699">
        <ele>731</ele>
        <time>2019-05-11T10:19:14Z</time>
      </trkpt>
      <trkpt lat="36.7351264953613" lon="-5.12537813186646">
        <ele>731</ele>
        <time>2019-05-11T10:19:16Z</time>
      </trkpt>
      <trkpt lat="36.735107421875" lon="-5.12535810470581">
        <ele>731</ele>
        <time>2019-05-11T10:19:18Z</time>
      </trkpt>
      <trkpt lat="36.7350921630859" lon="-5.12533807754517">
        <ele>732</ele>
        <time>2019-05-11T10:19:20Z</time>
      </trkpt>
      <trkpt lat="36.7350692749023" lon="-5.1253170967102">
        <ele>732</ele>
        <time>2019-05-11T10:19:22Z</time>
      </trkpt>
      <trkpt lat="36.735050201416" lon="-5.12529706954956">
        <ele>732</ele>
        <time>2019-05-11T10:19:24Z</time>
      </trkpt>
      <trkpt lat="36.7350311279297" lon="-5.12527990341186">
        <ele>733</ele>
        <time>2019-05-11T10:19:26Z</time>
      </trkpt>
      <trkpt lat="36.7350120544434" lon="-5.12526321411133">
        <ele>733</ele>
        <time>2019-05-11T10:19:28Z</time>
      </trkpt>
      <trkpt lat="36.734992980957" lon="-5.12524223327637">
        <ele>734</ele>
        <time>2019-05-11T10:19:31Z</time>
      </trkpt>
      <trkpt lat="36.7349739074707" lon="-5.12522506713867">
        <ele>734</ele>
        <time>2019-05-11T10:19:33Z</time>
      </trkpt>
      <trkpt lat="36.7349586486816" lon="-5.12520694732666">
        <ele>734</ele>
        <time>2019-05-11T10:19:35Z</time>
      </trkpt>
      <trkpt lat="36.734935760498" lon="-5.12518978118896">
        <ele>734</ele>
        <time>2019-05-11T10:19:37Z</time>
      </trkpt>
      <trkpt lat="36.7349166870117" lon="-5.12516307830811">
        <ele>734</ele>
        <time>2019-05-11T10:19:39Z</time>
      </trkpt>
      <trkpt lat="36.7348976135254" lon="-5.12513303756714">
        <ele>734</ele>
        <time>2019-05-11T10:19:41Z</time>
      </trkpt>
      <trkpt lat="36.7348861694336" lon="-5.12510776519775">
        <ele>734</ele>
        <time>2019-05-11T10:19:43Z</time>
      </trkpt>
      <trkpt lat="36.7348709106445" lon="-5.12508201599121">
        <ele>734</ele>
        <time>2019-05-11T10:19:45Z</time>
      </trkpt>
      <trkpt lat="36.73486328125" lon="-5.12505483627319">
        <ele>734</ele>
        <time>2019-05-11T10:19:47Z</time>
      </trkpt>
      <trkpt lat="36.7348480224609" lon="-5.12500476837158">
        <ele>734</ele>
        <time>2019-05-11T10:19:49Z</time>
      </trkpt>
      <trkpt lat="36.7348365783691" lon="-5.12497186660767">
        <ele>734</ele>
        <time>2019-05-11T10:19:51Z</time>
      </trkpt>
      <trkpt lat="36.7348251342773" lon="-5.12493276596069">
        <ele>734</ele>
        <time>2019-05-11T10:19:53Z</time>
      </trkpt>
      <trkpt lat="36.7348175048828" lon="-5.12488794326782">
        <ele>734</ele>
        <time>2019-05-11T10:19:55Z</time>
      </trkpt>
      <trkpt lat="36.734806060791" lon="-5.12484502792358">
        <ele>734</ele>
        <time>2019-05-11T10:19:57Z</time>
      </trkpt>
      <trkpt lat="36.7347984313965" lon="-5.12480306625366">
        <ele>734</ele>
        <time>2019-05-11T10:19:59Z</time>
      </trkpt>
      <trkpt lat="36.734790802002" lon="-5.12477207183838">
        <ele>734</ele>
        <time>2019-05-11T10:20:01Z</time>
      </trkpt>
      <trkpt lat="36.7347831726074" lon="-5.12473678588867">
        <ele>734</ele>
        <time>2019-05-11T10:20:03Z</time>
      </trkpt>
      <trkpt lat="36.7347717285156" lon="-5.12470293045044">
        <ele>734</ele>
        <time>2019-05-11T10:20:05Z</time>
      </trkpt>
      <trkpt lat="36.7347679138184" lon="-5.12467002868652">
        <ele>734</ele>
        <time>2019-05-11T10:20:08Z</time>
      </trkpt>
      <trkpt lat="36.7347564697266" lon="-5.12463808059692">
        <ele>734</ele>
        <time>2019-05-11T10:20:10Z</time>
      </trkpt>
      <trkpt lat="36.734748840332" lon="-5.12460279464722">
        <ele>734</ele>
        <time>2019-05-11T10:20:12Z</time>
      </trkpt>
      <trkpt lat="36.7347412109375" lon="-5.1245698928833">
        <ele>734</ele>
        <time>2019-05-11T10:20:14Z</time>
      </trkpt>
      <trkpt lat="36.7347297668457" lon="-5.12453317642212">
        <ele>734</ele>
        <time>2019-05-11T10:20:16Z</time>
      </trkpt>
      <trkpt lat="36.7347183227539" lon="-5.12449979782104">
        <ele>734</ele>
        <time>2019-05-11T10:20:18Z</time>
      </trkpt>
      <trkpt lat="36.7347106933594" lon="-5.12446212768555">
        <ele>734</ele>
        <time>2019-05-11T10:20:20Z</time>
      </trkpt>
      <trkpt lat="36.7347030639648" lon="-5.12443017959595">
        <ele>734</ele>
        <time>2019-05-11T10:20:22Z</time>
      </trkpt>
      <trkpt lat="36.7346954345703" lon="-5.12439012527466">
        <ele>734</ele>
        <time>2019-05-11T10:20:24Z</time>
      </trkpt>
      <trkpt lat="36.7346878051758" lon="-5.12435483932495">
        <ele>734</ele>
        <time>2019-05-11T10:20:26Z</time>
      </trkpt>
      <trkpt lat="36.7346687316894" lon="-5.12430191040039">
        <ele>734</ele>
        <time>2019-05-11T10:20:28Z</time>
      </trkpt>
      <trkpt lat="36.7346611022949" lon="-5.12426519393921">
        <ele>734</ele>
        <time>2019-05-11T10:20:30Z</time>
      </trkpt>
      <trkpt lat="36.7346534729004" lon="-5.12422800064087">
        <ele>734</ele>
        <time>2019-05-11T10:20:32Z</time>
      </trkpt>
      <trkpt lat="36.7346458435059" lon="-5.12419319152832">
        <ele>734</ele>
        <time>2019-05-11T10:20:34Z</time>
      </trkpt>
      <trkpt lat="36.7346343994141" lon="-5.12415790557861">
        <ele>734</ele>
        <time>2019-05-11T10:20:36Z</time>
      </trkpt>
      <trkpt lat="36.7346267700195" lon="-5.1241250038147">
        <ele>734</ele>
        <time>2019-05-11T10:20:38Z</time>
      </trkpt>
      <trkpt lat="36.7346115112305" lon="-5.12409496307373">
        <ele>734</ele>
        <time>2019-05-11T10:20:40Z</time>
      </trkpt>
      <trkpt lat="36.7345962524414" lon="-5.12406301498413">
        <ele>734</ele>
        <time>2019-05-11T10:20:42Z</time>
      </trkpt>
      <trkpt lat="36.7345848083496" lon="-5.12402820587158">
        <ele>735</ele>
        <time>2019-05-11T10:20:45Z</time>
      </trkpt>
      <trkpt lat="36.7345695495606" lon="-5.12399482727051">
        <ele>735</ele>
        <time>2019-05-11T10:20:47Z</time>
      </trkpt>
      <trkpt lat="36.7345542907715" lon="-5.12396287918091">
        <ele>735</ele>
        <time>2019-05-11T10:20:49Z</time>
      </trkpt>
      <trkpt lat="36.7345390319824" lon="-5.12393999099731">
        <ele>735</ele>
        <time>2019-05-11T10:20:51Z</time>
      </trkpt>
      <trkpt lat="36.7345275878906" lon="-5.12391519546509">
        <ele>735</ele>
        <time>2019-05-11T10:20:53Z</time>
      </trkpt>
      <trkpt lat="36.7345123291016" lon="-5.12389183044434">
        <ele>735</ele>
        <time>2019-05-11T10:20:55Z</time>
      </trkpt>
      <trkpt lat="36.7344970703125" lon="-5.12386322021484">
        <ele>735</ele>
        <time>2019-05-11T10:20:57Z</time>
      </trkpt>
      <trkpt lat="36.7344818115234" lon="-5.12383317947388">
        <ele>735</ele>
        <time>2019-05-11T10:20:59Z</time>
      </trkpt>
      <trkpt lat="36.7344703674316" lon="-5.12380981445312">
        <ele>735</ele>
        <time>2019-05-11T10:21:01Z</time>
      </trkpt>
      <trkpt lat="36.7344512939453" lon="-5.12377023696899">
        <ele>735</ele>
        <time>2019-05-11T10:21:03Z</time>
      </trkpt>
      <trkpt lat="36.7344360351562" lon="-5.12374305725098">
        <ele>735</ele>
        <time>2019-05-11T10:21:05Z</time>
      </trkpt>
      <trkpt lat="36.7344207763672" lon="-5.12371778488159">
        <ele>736</ele>
        <time>2019-05-11T10:21:07Z</time>
      </trkpt>
      <trkpt lat="36.7344017028809" lon="-5.12369203567505">
        <ele>736</ele>
        <time>2019-05-11T10:21:09Z</time>
      </trkpt>
      <trkpt lat="36.7343826293945" lon="-5.12366676330566">
        <ele>738</ele>
        <time>2019-05-11T10:21:11Z</time>
      </trkpt>
      <trkpt lat="36.7343673706055" lon="-5.12364721298218">
        <ele>739</ele>
        <time>2019-05-11T10:21:13Z</time>
      </trkpt>
      <trkpt lat="36.7343482971191" lon="-5.12361812591553">
        <ele>740</ele>
        <time>2019-05-11T10:21:15Z</time>
      </trkpt>
      <trkpt lat="36.7343292236328" lon="-5.12359285354614">
        <ele>741</ele>
        <time>2019-05-11T10:21:17Z</time>
      </trkpt>
      <trkpt lat="36.7343139648438" lon="-5.12357187271118">
        <ele>742</ele>
        <time>2019-05-11T10:21:20Z</time>
      </trkpt>
      <trkpt lat="36.7342987060547" lon="-5.12354803085327">
        <ele>744</ele>
        <time>2019-05-11T10:21:22Z</time>
      </trkpt>
      <trkpt lat="36.7342796325684" lon="-5.12352514266968">
        <ele>745</ele>
        <time>2019-05-11T10:21:24Z</time>
      </trkpt>
      <trkpt lat="36.7342681884766" lon="-5.12350511550903">
        <ele>745</ele>
        <time>2019-05-11T10:21:26Z</time>
      </trkpt>
      <trkpt lat="36.734245300293" lon="-5.12348508834839">
        <ele>746</ele>
        <time>2019-05-11T10:21:28Z</time>
      </trkpt>
      <trkpt lat="36.7342262268066" lon="-5.12346696853638">
        <ele>747</ele>
        <time>2019-05-11T10:21:30Z</time>
      </trkpt>
      <trkpt lat="36.7342147827148" lon="-5.12344980239868">
        <ele>748</ele>
        <time>2019-05-11T10:21:32Z</time>
      </trkpt>
      <trkpt lat="36.7341957092285" lon="-5.12343692779541">
        <ele>749</ele>
        <time>2019-05-11T10:21:34Z</time>
      </trkpt>
      <trkpt lat="36.7341690063477" lon="-5.12341976165772">
        <ele>750</ele>
        <time>2019-05-11T10:21:36Z</time>
      </trkpt>
      <trkpt lat="36.7341499328613" lon="-5.12341690063477">
        <ele>750</ele>
        <time>2019-05-11T10:21:38Z</time>
      </trkpt>
      <trkpt lat="36.7341194152832" lon="-5.12340021133423">
        <ele>751</ele>
        <time>2019-05-11T10:21:40Z</time>
      </trkpt>
      <trkpt lat="36.7341003417969" lon="-5.12338781356812">
        <ele>751</ele>
        <time>2019-05-11T10:21:42Z</time>
      </trkpt>
      <trkpt lat="36.7340812683106" lon="-5.12338018417358">
        <ele>752</ele>
        <time>2019-05-11T10:21:44Z</time>
      </trkpt>
      <trkpt lat="36.7340621948242" lon="-5.12337303161621">
        <ele>752</ele>
        <time>2019-05-11T10:21:46Z</time>
      </trkpt>
      <trkpt lat="36.7340431213379" lon="-5.12336683273315">
        <ele>752</ele>
        <time>2019-05-11T10:21:48Z</time>
      </trkpt>
      <trkpt lat="36.7340278625488" lon="-5.12336206436157">
        <ele>752</ele>
        <time>2019-05-11T10:21:50Z</time>
      </trkpt>
      <trkpt lat="36.7340087890625" lon="-5.12335777282715">
        <ele>752</ele>
        <time>2019-05-11T10:21:52Z</time>
      </trkpt>
      <trkpt lat="36.7339935302734" lon="-5.12334680557251">
        <ele>752</ele>
        <time>2019-05-11T10:21:54Z</time>
      </trkpt>
      <trkpt lat="36.7339744567871" lon="-5.12333822250366">
        <ele>752</ele>
        <time>2019-05-11T10:21:57Z</time>
      </trkpt>
      <trkpt lat="36.7339553833008" lon="-5.12332487106323">
        <ele>752</ele>
        <time>2019-05-11T10:21:59Z</time>
      </trkpt>
      <trkpt lat="36.7339363098144" lon="-5.12331485748291">
        <ele>752</ele>
        <time>2019-05-11T10:22:01Z</time>
      </trkpt>
      <trkpt lat="36.7339134216309" lon="-5.12330198287964">
        <ele>752</ele>
        <time>2019-05-11T10:22:03Z</time>
      </trkpt>
      <trkpt lat="36.7338943481445" lon="-5.12328720092773">
        <ele>752</ele>
        <time>2019-05-11T10:22:05Z</time>
      </trkpt>
      <trkpt lat="36.7338714599609" lon="-5.12327718734741">
        <ele>752</ele>
        <time>2019-05-11T10:22:07Z</time>
      </trkpt>
      <trkpt lat="36.7338562011719" lon="-5.12326288223267">
        <ele>752</ele>
        <time>2019-05-11T10:22:09Z</time>
      </trkpt>
      <trkpt lat="36.7338409423828" lon="-5.12324714660644">
        <ele>752</ele>
        <time>2019-05-11T10:22:11Z</time>
      </trkpt>
      <trkpt lat="36.7338256835938" lon="-5.12322998046875">
        <ele>752</ele>
        <time>2019-05-11T10:22:13Z</time>
      </trkpt>
      <trkpt lat="36.7338104248047" lon="-5.12320995330811">
        <ele>752</ele>
        <time>2019-05-11T10:22:15Z</time>
      </trkpt>
      <trkpt lat="36.7337913513184" lon="-5.12317514419556">
        <ele>752</ele>
        <time>2019-05-11T10:22:17Z</time>
      </trkpt>
      <trkpt lat="36.7337799072266" lon="-5.12314701080322">
        <ele>752</ele>
        <time>2019-05-11T10:22:19Z</time>
      </trkpt>
      <trkpt lat="36.7337646484375" lon="-5.123122215271">
        <ele>752</ele>
        <time>2019-05-11T10:22:21Z</time>
      </trkpt>
      <trkpt lat="36.7337455749512" lon="-5.12309789657593">
        <ele>753</ele>
        <time>2019-05-11T10:22:23Z</time>
      </trkpt>
      <trkpt lat="36.7337341308594" lon="-5.12307500839233">
        <ele>753</ele>
        <time>2019-05-11T10:22:25Z</time>
      </trkpt>
      <trkpt lat="36.7337188720703" lon="-5.12304782867432">
        <ele>753</ele>
        <time>2019-05-11T10:22:27Z</time>
      </trkpt>
      <trkpt lat="36.7337074279785" lon="-5.12302494049072">
        <ele>753</ele>
        <time>2019-05-11T10:22:29Z</time>
      </trkpt>
      <trkpt lat="36.7336921691894" lon="-5.1230001449585">
        <ele>753</ele>
        <time>2019-05-11T10:22:31Z</time>
      </trkpt>
      <trkpt lat="36.7336769104004" lon="-5.12297201156616">
        <ele>754</ele>
        <time>2019-05-11T10:22:34Z</time>
      </trkpt>
      <trkpt lat="36.7336616516113" lon="-5.12294483184814">
        <ele>755</ele>
        <time>2019-05-11T10:22:36Z</time>
      </trkpt>
      <trkpt lat="36.7336463928223" lon="-5.12291812896728">
        <ele>756</ele>
        <time>2019-05-11T10:22:38Z</time>
      </trkpt>
      <trkpt lat="36.7336349487305" lon="-5.12289476394653">
        <ele>757</ele>
        <time>2019-05-11T10:22:40Z</time>
      </trkpt>
      <trkpt lat="36.7336196899414" lon="-5.12286996841431">
        <ele>757</ele>
        <time>2019-05-11T10:22:42Z</time>
      </trkpt>
      <trkpt lat="36.7336044311523" lon="-5.12284708023071">
        <ele>758</ele>
        <time>2019-05-11T10:22:44Z</time>
      </trkpt>
      <trkpt lat="36.7335891723633" lon="-5.12282180786133">
        <ele>758</ele>
        <time>2019-05-11T10:22:46Z</time>
      </trkpt>
      <trkpt lat="36.7335739135742" lon="-5.12280178070068">
        <ele>758</ele>
        <time>2019-05-11T10:22:48Z</time>
      </trkpt>
      <trkpt lat="36.7335586547852" lon="-5.1227822303772">
        <ele>758</ele>
        <time>2019-05-11T10:22:50Z</time>
      </trkpt>
      <trkpt lat="36.7335319519043" lon="-5.12274789810181">
        <ele>758</ele>
        <time>2019-05-11T10:22:52Z</time>
      </trkpt>
      <trkpt lat="36.733512878418" lon="-5.12272691726685">
        <ele>758</ele>
        <time>2019-05-11T10:22:54Z</time>
      </trkpt>
      <trkpt lat="36.7334938049316" lon="-5.12270021438599">
        <ele>758</ele>
        <time>2019-05-11T10:22:56Z</time>
      </trkpt>
      <trkpt lat="36.733470916748" lon="-5.12267017364502">
        <ele>758</ele>
        <time>2019-05-11T10:22:58Z</time>
      </trkpt>
      <trkpt lat="36.7334518432617" lon="-5.122642993927">
        <ele>758</ele>
        <time>2019-05-11T10:23:00Z</time>
      </trkpt>
      <trkpt lat="36.7334365844727" lon="-5.1226167678833">
        <ele>758</ele>
        <time>2019-05-11T10:23:02Z</time>
      </trkpt>
      <trkpt lat="36.7334213256836" lon="-5.12259197235107">
        <ele>758</ele>
        <time>2019-05-11T10:23:04Z</time>
      </trkpt>
      <trkpt lat="36.7333984375" lon="-5.12256813049316">
        <ele>758</ele>
        <time>2019-05-11T10:23:06Z</time>
      </trkpt>
      <trkpt lat="36.7333831787109" lon="-5.12254190444946">
        <ele>758</ele>
        <time>2019-05-11T10:23:09Z</time>
      </trkpt>
      <trkpt lat="36.7333641052246" lon="-5.12251806259155">
        <ele>758</ele>
        <time>2019-05-11T10:23:11Z</time>
      </trkpt>
      <trkpt lat="36.7333488464356" lon="-5.12249183654785">
        <ele>758</ele>
        <time>2019-05-11T10:23:13Z</time>
      </trkpt>
      <trkpt lat="36.733325958252" lon="-5.12246513366699">
        <ele>758</ele>
        <time>2019-05-11T10:23:15Z</time>
      </trkpt>
      <trkpt lat="36.7333068847656" lon="-5.12244319915772">
        <ele>758</ele>
        <time>2019-05-11T10:23:17Z</time>
      </trkpt>
      <trkpt lat="36.7332878112793" lon="-5.12241506576538">
        <ele>758</ele>
        <time>2019-05-11T10:23:19Z</time>
      </trkpt>
      <trkpt lat="36.733268737793" lon="-5.12238693237305">
        <ele>758</ele>
        <time>2019-05-11T10:23:21Z</time>
      </trkpt>
      <trkpt lat="36.7332496643066" lon="-5.12236213684082">
        <ele>758</ele>
        <time>2019-05-11T10:23:23Z</time>
      </trkpt>
      <trkpt lat="36.7332305908203" lon="-5.12233209609985">
        <ele>758</ele>
        <time>2019-05-11T10:23:25Z</time>
      </trkpt>
      <trkpt lat="36.733211517334" lon="-5.12230491638184">
        <ele>758</ele>
        <time>2019-05-11T10:23:27Z</time>
      </trkpt>
      <trkpt lat="36.7331848144531" lon="-5.12226819992065">
        <ele>758</ele>
        <time>2019-05-11T10:23:29Z</time>
      </trkpt>
      <trkpt lat="36.7331619262695" lon="-5.12224006652832">
        <ele>758</ele>
        <time>2019-05-11T10:23:31Z</time>
      </trkpt>
      <trkpt lat="36.7331428527832" lon="-5.12222003936768">
        <ele>758</ele>
        <time>2019-05-11T10:23:33Z</time>
      </trkpt>
      <trkpt lat="36.7331237792969" lon="-5.12219476699829">
        <ele>758</ele>
        <time>2019-05-11T10:23:35Z</time>
      </trkpt>
      <trkpt lat="36.7331008911133" lon="-5.12215995788574">
        <ele>758</ele>
        <time>2019-05-11T10:23:37Z</time>
      </trkpt>
      <trkpt lat="36.7330703735352" lon="-5.12212181091309">
        <ele>758</ele>
        <time>2019-05-11T10:23:39Z</time>
      </trkpt>
      <trkpt lat="36.7330474853516" lon="-5.12207317352295">
        <ele>758</ele>
        <time>2019-05-11T10:23:41Z</time>
      </trkpt>
      <trkpt lat="36.733024597168" lon="-5.1220178604126">
        <ele>758</ele>
        <time>2019-05-11T10:23:43Z</time>
      </trkpt>
      <trkpt lat="36.7329978942871" lon="-5.12197017669678">
        <ele>758</ele>
        <time>2019-05-11T10:23:46Z</time>
      </trkpt>
      <trkpt lat="36.732967376709" lon="-5.1219220161438">
        <ele>758</ele>
        <time>2019-05-11T10:23:48Z</time>
      </trkpt>
      <trkpt lat="36.7329444885254" lon="-5.12187194824219">
        <ele>758</ele>
        <time>2019-05-11T10:23:50Z</time>
      </trkpt>
      <trkpt lat="36.7329216003418" lon="-5.12181997299194">
        <ele>756</ele>
        <time>2019-05-11T10:23:52Z</time>
      </trkpt>
      <trkpt lat="36.7329025268555" lon="-5.1217679977417">
        <ele>756</ele>
        <time>2019-05-11T10:23:54Z</time>
      </trkpt>
      <trkpt lat="36.7328834533691" lon="-5.12171316146851">
        <ele>755</ele>
        <time>2019-05-11T10:23:56Z</time>
      </trkpt>
      <trkpt lat="36.7328605651856" lon="-5.12166023254394">
        <ele>755</ele>
        <time>2019-05-11T10:23:58Z</time>
      </trkpt>
      <trkpt lat="36.732837677002" lon="-5.12160778045654">
        <ele>754</ele>
        <time>2019-05-11T10:24:00Z</time>
      </trkpt>
      <trkpt lat="36.7328300476074" lon="-5.12154817581177">
        <ele>753</ele>
        <time>2019-05-11T10:24:02Z</time>
      </trkpt>
      <trkpt lat="36.7328224182129" lon="-5.12149715423584">
        <ele>753</ele>
        <time>2019-05-11T10:24:04Z</time>
      </trkpt>
      <trkpt lat="36.7328186035156" lon="-5.12143802642822">
        <ele>752</ele>
        <time>2019-05-11T10:24:06Z</time>
      </trkpt>
      <trkpt lat="36.7328147888184" lon="-5.12139320373535">
        <ele>751</ele>
        <time>2019-05-11T10:24:08Z</time>
      </trkpt>
      <trkpt lat="36.7328186035156" lon="-5.12133502960205">
        <ele>751</ele>
        <time>2019-05-11T10:24:10Z</time>
      </trkpt>
      <trkpt lat="36.7328147888184" lon="-5.12127494812012">
        <ele>751</ele>
        <time>2019-05-11T10:24:12Z</time>
      </trkpt>
      <trkpt lat="36.7327919006348" lon="-5.12122011184692">
        <ele>751</ele>
        <time>2019-05-11T10:24:14Z</time>
      </trkpt>
      <trkpt lat="36.7327880859375" lon="-5.121178150177">
        <ele>751</ele>
        <time>2019-05-11T10:24:16Z</time>
      </trkpt>
      <trkpt lat="36.7327766418457" lon="-5.12114000320435">
        <ele>751</ele>
        <time>2019-05-11T10:24:18Z</time>
      </trkpt>
      <trkpt lat="36.7327690124512" lon="-5.12109804153442">
        <ele>751</ele>
        <time>2019-05-11T10:24:21Z</time>
      </trkpt>
      <trkpt lat="36.7327575683594" lon="-5.12105178833008">
        <ele>751</ele>
        <time>2019-05-11T10:24:23Z</time>
      </trkpt>
      <trkpt lat="36.7327461242676" lon="-5.12101697921753">
        <ele>751</ele>
        <time>2019-05-11T10:24:25Z</time>
      </trkpt>
      <trkpt lat="36.7327308654785" lon="-5.12096691131592">
        <ele>751</ele>
        <time>2019-05-11T10:24:27Z</time>
      </trkpt>
      <trkpt lat="36.7327194213867" lon="-5.12092018127441">
        <ele>751</ele>
        <time>2019-05-11T10:24:29Z</time>
      </trkpt>
      <trkpt lat="36.7327117919922" lon="-5.12088680267334">
        <ele>751</ele>
        <time>2019-05-11T10:24:31Z</time>
      </trkpt>
      <trkpt lat="36.7327003479004" lon="-5.12085008621216">
        <ele>751</ele>
        <time>2019-05-11T10:24:33Z</time>
      </trkpt>
      <trkpt lat="36.7326850891113" lon="-5.1208119392395">
        <ele>751</ele>
        <time>2019-05-11T10:24:35Z</time>
      </trkpt>
      <trkpt lat="36.7326698303223" lon="-5.12077713012695">
        <ele>751</ele>
        <time>2019-05-11T10:24:37Z</time>
      </trkpt>
      <trkpt lat="36.7326583862305" lon="-5.12073993682861">
        <ele>751</ele>
        <time>2019-05-11T10:24:39Z</time>
      </trkpt>
      <trkpt lat="36.7326354980469" lon="-5.12068796157837">
        <ele>751</ele>
        <time>2019-05-11T10:24:41Z</time>
      </trkpt>
      <trkpt lat="36.7326240539551" lon="-5.12065696716309">
        <ele>751</ele>
        <time>2019-05-11T10:24:43Z</time>
      </trkpt>
      <trkpt lat="36.7326126098633" lon="-5.12062501907349">
        <ele>751</ele>
        <time>2019-05-11T10:24:45Z</time>
      </trkpt>
      <trkpt lat="36.7325973510742" lon="-5.12059688568115">
        <ele>751</ele>
        <time>2019-05-11T10:24:47Z</time>
      </trkpt>
      <trkpt lat="36.7325782775879" lon="-5.12057685852051">
        <ele>751</ele>
        <time>2019-05-11T10:24:49Z</time>
      </trkpt>
      <trkpt lat="36.7325553894043" lon="-5.12057018280029">
        <ele>751</ele>
        <time>2019-05-11T10:24:51Z</time>
      </trkpt>
      <trkpt lat="36.7325248718262" lon="-5.12057018280029">
        <ele>751</ele>
        <time>2019-05-11T10:24:53Z</time>
      </trkpt>
      <trkpt lat="36.7324867248535" lon="-5.12057304382324">
        <ele>751</ele>
        <time>2019-05-11T10:24:55Z</time>
      </trkpt>
      <trkpt lat="36.7324485778809" lon="-5.12057018280029">
        <ele>750</ele>
        <time>2019-05-11T10:24:57Z</time>
      </trkpt>
      <trkpt lat="36.7324066162109" lon="-5.12057685852051">
        <ele>750</ele>
        <time>2019-05-11T10:25:00Z</time>
      </trkpt>
      <trkpt lat="36.7323760986328" lon="-5.12058687210083">
        <ele>749</ele>
        <time>2019-05-11T10:25:02Z</time>
      </trkpt>
      <trkpt lat="36.7323455810547" lon="-5.12061214447022">
        <ele>748</ele>
        <time>2019-05-11T10:25:04Z</time>
      </trkpt>
      <trkpt lat="36.7323112487793" lon="-5.12063312530518">
        <ele>747</ele>
        <time>2019-05-11T10:25:06Z</time>
      </trkpt>
      <trkpt lat="36.7322731018066" lon="-5.12064790725708">
        <ele>746</ele>
        <time>2019-05-11T10:25:08Z</time>
      </trkpt>
      <trkpt lat="36.7322235107422" lon="-5.12066316604614">
        <ele>745</ele>
        <time>2019-05-11T10:25:10Z</time>
      </trkpt>
      <trkpt lat="36.732177734375" lon="-5.12067317962646">
        <ele>744</ele>
        <time>2019-05-11T10:25:12Z</time>
      </trkpt>
      <trkpt lat="36.7321281433106" lon="-5.12068700790405">
        <ele>744</ele>
        <time>2019-05-11T10:25:14Z</time>
      </trkpt>
      <trkpt lat="36.7320861816406" lon="-5.12070322036743">
        <ele>744</ele>
        <time>2019-05-11T10:25:16Z</time>
      </trkpt>
      <trkpt lat="36.7320365905762" lon="-5.1207218170166">
        <ele>743</ele>
        <time>2019-05-11T10:25:18Z</time>
      </trkpt>
      <trkpt lat="36.7320098876953" lon="-5.12073278427124">
        <ele>743</ele>
        <time>2019-05-11T10:25:20Z</time>
      </trkpt>
      <trkpt lat="36.7319793701172" lon="-5.12074184417725">
        <ele>743</ele>
        <time>2019-05-11T10:25:22Z</time>
      </trkpt>
      <trkpt lat="36.7319488525391" lon="-5.12075281143188">
        <ele>742</ele>
        <time>2019-05-11T10:25:24Z</time>
      </trkpt>
      <trkpt lat="36.7319183349609" lon="-5.12076282501221">
        <ele>741</ele>
        <time>2019-05-11T10:25:26Z</time>
      </trkpt>
      <trkpt lat="36.7318801879883" lon="-5.12077522277832">
        <ele>741</ele>
        <time>2019-05-11T10:25:28Z</time>
      </trkpt>
      <trkpt lat="36.7318420410156" lon="-5.12078714370728">
        <ele>741</ele>
        <time>2019-05-11T10:25:30Z</time>
      </trkpt>
      <trkpt lat="36.731819152832" lon="-5.12079811096191">
        <ele>740</ele>
        <time>2019-05-11T10:25:32Z</time>
      </trkpt>
      <trkpt lat="36.7317886352539" lon="-5.1208119392395">
        <ele>738</ele>
        <time>2019-05-11T10:25:34Z</time>
      </trkpt>
      <trkpt lat="36.7317504882812" lon="-5.12082004547119">
        <ele>738</ele>
        <time>2019-05-11T10:25:37Z</time>
      </trkpt>
      <trkpt lat="36.7317199707031" lon="-5.12082815170288">
        <ele>736</ele>
        <time>2019-05-11T10:25:39Z</time>
      </trkpt>
      <trkpt lat="36.7316818237305" lon="-5.1208381652832">
        <ele>736</ele>
        <time>2019-05-11T10:25:41Z</time>
      </trkpt>
      <trkpt lat="36.731632232666" lon="-5.12085008621216">
        <ele>735</ele>
        <time>2019-05-11T10:25:43Z</time>
      </trkpt>
      <trkpt lat="36.7315864562988" lon="-5.12086200714111">
        <ele>735</ele>
        <time>2019-05-11T10:25:45Z</time>
      </trkpt>
      <trkpt lat="36.7315368652344" lon="-5.12086296081543">
        <ele>734</ele>
        <time>2019-05-11T10:25:47Z</time>
      </trkpt>
      <trkpt lat="36.7314987182617" lon="-5.12085485458374">
        <ele>733</ele>
        <time>2019-05-11T10:25:49Z</time>
      </trkpt>
      <trkpt lat="36.7314720153809" lon="-5.12084817886353">
        <ele>733</ele>
        <time>2019-05-11T10:25:51Z</time>
      </trkpt>
      <trkpt lat="36.7314453125" lon="-5.12084817886353">
        <ele>733</ele>
        <time>2019-05-11T10:25:53Z</time>
      </trkpt>
      <trkpt lat="36.7313995361328" lon="-5.12085676193237">
        <ele>731</ele>
        <time>2019-05-11T10:25:55Z</time>
      </trkpt>
      <trkpt lat="36.7313766479492" lon="-5.12086820602417">
        <ele>731</ele>
        <time>2019-05-11T10:25:57Z</time>
      </trkpt>
      <trkpt lat="36.7313537597656" lon="-5.12087488174438">
        <ele>731</ele>
        <time>2019-05-11T10:25:59Z</time>
      </trkpt>
      <trkpt lat="36.7313232421875" lon="-5.12088298797607">
        <ele>730</ele>
        <time>2019-05-11T10:26:01Z</time>
      </trkpt>
      <trkpt lat="36.7312927246094" lon="-5.1208930015564">
        <ele>729</ele>
        <time>2019-05-11T10:26:03Z</time>
      </trkpt>
      <trkpt lat="36.731258392334" lon="-5.12090301513672">
        <ele>728</ele>
        <time>2019-05-11T10:26:05Z</time>
      </trkpt>
      <trkpt lat="36.7312240600586" lon="-5.12089776992798">
        <ele>727</ele>
        <time>2019-05-11T10:26:07Z</time>
      </trkpt>
      <trkpt lat="36.7311935424805" lon="-5.12088680267334">
        <ele>726</ele>
        <time>2019-05-11T10:26:09Z</time>
      </trkpt>
      <trkpt lat="36.7311553955078" lon="-5.12087488174438">
        <ele>725</ele>
        <time>2019-05-11T10:26:12Z</time>
      </trkpt>
      <trkpt lat="36.7311210632324" lon="-5.12085819244385">
        <ele>724</ele>
        <time>2019-05-11T10:26:14Z</time>
      </trkpt>
      <trkpt lat="36.731086730957" lon="-5.12083005905151">
        <ele>723</ele>
        <time>2019-05-11T10:26:16Z</time>
      </trkpt>
      <trkpt lat="36.7310638427734" lon="-5.12079000473022">
        <ele>722</ele>
        <time>2019-05-11T10:26:18Z</time>
      </trkpt>
      <trkpt lat="36.7310485839844" lon="-5.12074184417725">
        <ele>721</ele>
        <time>2019-05-11T10:26:20Z</time>
      </trkpt>
      <trkpt lat="36.7310333251953" lon="-5.120689868927">
        <ele>720</ele>
        <time>2019-05-11T10:26:22Z</time>
      </trkpt>
      <trkpt lat="36.731029510498" lon="-5.12063312530518">
        <ele>719</ele>
        <time>2019-05-11T10:26:24Z</time>
      </trkpt>
      <trkpt lat="36.7310333251953" lon="-5.12058305740356">
        <ele>717</ele>
        <time>2019-05-11T10:26:26Z</time>
      </trkpt>
      <trkpt lat="36.7310333251953" lon="-5.12054204940796">
        <ele>716</ele>
        <time>2019-05-11T10:26:28Z</time>
      </trkpt>
      <trkpt lat="36.7310218811035" lon="-5.12049293518066">
        <ele>716</ele>
        <time>2019-05-11T10:26:30Z</time>
      </trkpt>
      <trkpt lat="36.7309989929199" lon="-5.12044715881348">
        <ele>716</ele>
        <time>2019-05-11T10:26:32Z</time>
      </trkpt>
      <trkpt lat="36.73095703125" lon="-5.12038803100586">
        <ele>715</ele>
        <time>2019-05-11T10:26:34Z</time>
      </trkpt>
      <trkpt lat="36.7309265136719" lon="-5.12035512924194">
        <ele>715</ele>
        <time>2019-05-11T10:26:36Z</time>
      </trkpt>
      <trkpt lat="36.7308959960938" lon="-5.12032508850098">
        <ele>714</ele>
        <time>2019-05-11T10:26:38Z</time>
      </trkpt>
      <trkpt lat="36.7308616638184" lon="-5.12028789520264">
        <ele>714</ele>
        <time>2019-05-11T10:26:40Z</time>
      </trkpt>
      <trkpt lat="36.7308235168457" lon="-5.1202449798584">
        <ele>713</ele>
        <time>2019-05-11T10:26:42Z</time>
      </trkpt>
      <trkpt lat="36.730785369873" lon="-5.12020683288574">
        <ele>713</ele>
        <time>2019-05-11T10:26:44Z</time>
      </trkpt>
      <trkpt lat="36.7307510375977" lon="-5.12016677856445">
        <ele>713</ele>
        <time>2019-05-11T10:26:46Z</time>
      </trkpt>
      <trkpt lat="36.7307243347168" lon="-5.12012004852295">
        <ele>711</ele>
        <time>2019-05-11T10:26:49Z</time>
      </trkpt>
      <trkpt lat="36.7306861877441" lon="-5.12008285522461">
        <ele>711</ele>
        <time>2019-05-11T10:26:51Z</time>
      </trkpt>
      <trkpt lat="36.7306480407715" lon="-5.12003803253174">
        <ele>711</ele>
        <time>2019-05-11T10:26:53Z</time>
      </trkpt>
      <trkpt lat="36.7306213378906" lon="-5.11998987197876">
        <ele>711</ele>
        <time>2019-05-11T10:26:55Z</time>
      </trkpt>
      <trkpt lat="36.7305908203125" lon="-5.1199369430542">
        <ele>711</ele>
        <time>2019-05-11T10:26:57Z</time>
      </trkpt>
      <trkpt lat="36.7305717468262" lon="-5.11988306045532">
        <ele>711</ele>
        <time>2019-05-11T10:26:59Z</time>
      </trkpt>
      <trkpt lat="36.7305564880371" lon="-5.11982488632202">
        <ele>711</ele>
        <time>2019-05-11T10:27:01Z</time>
      </trkpt>
      <trkpt lat="36.7305488586426" lon="-5.11973476409912">
        <ele>711</ele>
        <time>2019-05-11T10:27:03Z</time>
      </trkpt>
      <trkpt lat="36.7305488586426" lon="-5.11970806121826">
        <ele>711</ele>
        <time>2019-05-11T10:27:05Z</time>
      </trkpt>
      <trkpt lat="36.7305526733398" lon="-5.11965990066528">
        <ele>711</ele>
        <time>2019-05-11T10:27:07Z</time>
      </trkpt>
      <trkpt lat="36.7305526733398" lon="-5.11960220336914">
        <ele>711</ele>
        <time>2019-05-11T10:27:09Z</time>
      </trkpt>
      <trkpt lat="36.7305564880371" lon="-5.11955785751343">
        <ele>711</ele>
        <time>2019-05-11T10:27:11Z</time>
      </trkpt>
      <trkpt lat="36.7305564880371" lon="-5.11952209472656">
        <ele>711</ele>
        <time>2019-05-11T10:27:13Z</time>
      </trkpt>
      <trkpt lat="36.7305679321289" lon="-5.11948490142822">
        <ele>711</ele>
        <time>2019-05-11T10:27:15Z</time>
      </trkpt>
      <trkpt lat="36.730583190918" lon="-5.11944818496704">
        <ele>711</ele>
        <time>2019-05-11T10:27:17Z</time>
      </trkpt>
      <trkpt lat="36.730598449707" lon="-5.11941003799438">
        <ele>711</ele>
        <time>2019-05-11T10:27:19Z</time>
      </trkpt>
      <trkpt lat="36.7306098937988" lon="-5.11937189102173">
        <ele>711</ele>
        <time>2019-05-11T10:27:21Z</time>
      </trkpt>
      <trkpt lat="36.7306213378906" lon="-5.11933183670044">
        <ele>711</ele>
        <time>2019-05-11T10:27:23Z</time>
      </trkpt>
      <trkpt lat="36.7306327819824" lon="-5.11929321289062">
        <ele>711</ele>
        <time>2019-05-11T10:27:25Z</time>
      </trkpt>
      <trkpt lat="36.7306442260742" lon="-5.1192569732666">
        <ele>711</ele>
        <time>2019-05-11T10:27:28Z</time>
      </trkpt>
      <trkpt lat="36.730655670166" lon="-5.11921977996826">
        <ele>711</ele>
        <time>2019-05-11T10:27:30Z</time>
      </trkpt>
      <trkpt lat="36.7306671142578" lon="-5.11918497085571">
        <ele>711</ele>
        <time>2019-05-11T10:27:32Z</time>
      </trkpt>
      <trkpt lat="36.7306861877441" lon="-5.1191520690918">
        <ele>711</ele>
        <time>2019-05-11T10:27:34Z</time>
      </trkpt>
      <trkpt lat="36.7307052612305" lon="-5.11911821365356">
        <ele>711</ele>
        <time>2019-05-11T10:27:36Z</time>
      </trkpt>
      <trkpt lat="36.7307205200195" lon="-5.11908292770386">
        <ele>711</ele>
        <time>2019-05-11T10:27:38Z</time>
      </trkpt>
      <trkpt lat="36.7307357788086" lon="-5.11905193328857">
        <ele>711</ele>
        <time>2019-05-11T10:27:40Z</time>
      </trkpt>
      <trkpt lat="36.7307510375977" lon="-5.11901807785034">
        <ele>711</ele>
        <time>2019-05-11T10:27:42Z</time>
      </trkpt>
      <trkpt lat="36.7307662963867" lon="-5.11898279190064">
        <ele>711</ele>
        <time>2019-05-11T10:27:44Z</time>
      </trkpt>
      <trkpt lat="36.7307815551758" lon="-5.11894798278809">
        <ele>711</ele>
        <time>2019-05-11T10:27:46Z</time>
      </trkpt>
      <trkpt lat="36.7307968139648" lon="-5.11891317367554">
        <ele>711</ele>
        <time>2019-05-11T10:27:48Z</time>
      </trkpt>
      <trkpt lat="36.7308235168457" lon="-5.11886692047119">
        <ele>711</ele>
        <time>2019-05-11T10:27:50Z</time>
      </trkpt>
      <trkpt lat="36.7308387756348" lon="-5.11883687973022">
        <ele>711</ele>
        <time>2019-05-11T10:27:52Z</time>
      </trkpt>
      <trkpt lat="36.7308502197266" lon="-5.11880302429199">
        <ele>711</ele>
        <time>2019-05-11T10:27:54Z</time>
      </trkpt>
      <trkpt lat="36.7308616638184" lon="-5.11877202987671">
        <ele>711</ele>
        <time>2019-05-11T10:27:56Z</time>
      </trkpt>
      <trkpt lat="36.7308692932129" lon="-5.11873722076416">
        <ele>712</ele>
        <time>2019-05-11T10:27:58Z</time>
      </trkpt>
      <trkpt lat="36.7308731079102" lon="-5.11870002746582">
        <ele>712</ele>
        <time>2019-05-11T10:28:00Z</time>
      </trkpt>
      <trkpt lat="36.7308807373047" lon="-5.11866283416748">
        <ele>713</ele>
        <time>2019-05-11T10:28:02Z</time>
      </trkpt>
      <trkpt lat="36.7308883666992" lon="-5.11862707138062">
        <ele>713</ele>
        <time>2019-05-11T10:28:04Z</time>
      </trkpt>
      <trkpt lat="36.7308921813965" lon="-5.11859178543091">
        <ele>714</ele>
        <time>2019-05-11T10:28:07Z</time>
      </trkpt>
      <trkpt lat="36.7308959960938" lon="-5.11855506896973">
        <ele>714</ele>
        <time>2019-05-11T10:28:09Z</time>
      </trkpt>
      <trkpt lat="36.7308959960938" lon="-5.11851978302002">
        <ele>714</ele>
        <time>2019-05-11T10:28:11Z</time>
      </trkpt>
      <trkpt lat="36.7308921813965" lon="-5.11848306655884">
        <ele>714</ele>
        <time>2019-05-11T10:28:13Z</time>
      </trkpt>
      <trkpt lat="36.7308921813965" lon="-5.11844491958618">
        <ele>714</ele>
        <time>2019-05-11T10:28:15Z</time>
      </trkpt>
      <trkpt lat="36.7308883666992" lon="-5.118408203125">
        <ele>714</ele>
        <time>2019-05-11T10:28:17Z</time>
      </trkpt>
      <trkpt lat="36.730884552002" lon="-5.11837005615234">
        <ele>714</ele>
        <time>2019-05-11T10:28:19Z</time>
      </trkpt>
      <trkpt lat="36.7308731079102" lon="-5.11833190917969">
        <ele>714</ele>
        <time>2019-05-11T10:28:21Z</time>
      </trkpt>
      <trkpt lat="36.7308654785156" lon="-5.11829280853272">
        <ele>714</ele>
        <time>2019-05-11T10:28:23Z</time>
      </trkpt>
      <trkpt lat="36.7308540344238" lon="-5.11824798583984">
        <ele>714</ele>
        <time>2019-05-11T10:28:25Z</time>
      </trkpt>
      <trkpt lat="36.730842590332" lon="-5.11820697784424">
        <ele>714</ele>
        <time>2019-05-11T10:28:27Z</time>
      </trkpt>
      <trkpt lat="36.7308235168457" lon="-5.11816787719727">
        <ele>714</ele>
        <time>2019-05-11T10:28:29Z</time>
      </trkpt>
      <trkpt lat="36.7307968139648" lon="-5.11810493469238">
        <ele>714</ele>
        <time>2019-05-11T10:28:31Z</time>
      </trkpt>
      <trkpt lat="36.7307739257812" lon="-5.11805486679077">
        <ele>714</ele>
        <time>2019-05-11T10:28:33Z</time>
      </trkpt>
      <trkpt lat="36.7307586669922" lon="-5.11800193786621">
        <ele>714</ele>
        <time>2019-05-11T10:28:35Z</time>
      </trkpt>
      <trkpt lat="36.7307434082031" lon="-5.11795711517334">
        <ele>714</ele>
        <time>2019-05-11T10:28:37Z</time>
      </trkpt>
      <trkpt lat="36.7307281494141" lon="-5.117919921875">
        <ele>714</ele>
        <time>2019-05-11T10:28:39Z</time>
      </trkpt>
      <trkpt lat="36.730712890625" lon="-5.11788320541382">
        <ele>714</ele>
        <time>2019-05-11T10:28:41Z</time>
      </trkpt>
      <trkpt lat="36.7306976318359" lon="-5.11785507202148">
        <ele>714</ele>
        <time>2019-05-11T10:28:43Z</time>
      </trkpt>
      <trkpt lat="36.7306785583496" lon="-5.11782503128052">
        <ele>715</ele>
        <time>2019-05-11T10:28:45Z</time>
      </trkpt>
      <trkpt lat="36.7306709289551" lon="-5.1177978515625">
        <ele>715</ele>
        <time>2019-05-11T10:28:47Z</time>
      </trkpt>
      <trkpt lat="36.730655670166" lon="-5.11776208877564">
        <ele>715</ele>
        <time>2019-05-11T10:28:49Z</time>
      </trkpt>
      <trkpt lat="36.7306365966797" lon="-5.1177248954773">
        <ele>715</ele>
        <time>2019-05-11T10:28:51Z</time>
      </trkpt>
      <trkpt lat="36.7306289672852" lon="-5.11769676208496">
        <ele>715</ele>
        <time>2019-05-11T10:28:54Z</time>
      </trkpt>
      <trkpt lat="36.7306213378906" lon="-5.11767292022705">
        <ele>715</ele>
        <time>2019-05-11T10:28:56Z</time>
      </trkpt>
      <trkpt lat="36.7306137084961" lon="-5.11764287948608">
        <ele>715</ele>
        <time>2019-05-11T10:28:58Z</time>
      </trkpt>
      <trkpt lat="36.730583190918" lon="-5.11760520935059">
        <ele>715</ele>
        <time>2019-05-11T10:29:00Z</time>
      </trkpt>
      <trkpt lat="36.7305564880371" lon="-5.11756992340088">
        <ele>715</ele>
        <time>2019-05-11T10:29:02Z</time>
      </trkpt>
      <trkpt lat="36.7305221557617" lon="-5.11752796173096">
        <ele>715</ele>
        <time>2019-05-11T10:29:04Z</time>
      </trkpt>
      <trkpt lat="36.7304916381836" lon="-5.11747980117798">
        <ele>715</ele>
        <time>2019-05-11T10:29:06Z</time>
      </trkpt>
      <trkpt lat="36.7304611206055" lon="-5.11743211746216">
        <ele>715</ele>
        <time>2019-05-11T10:29:08Z</time>
      </trkpt>
      <trkpt lat="36.7304229736328" lon="-5.11738300323486">
        <ele>716</ele>
        <time>2019-05-11T10:29:10Z</time>
      </trkpt>
      <trkpt lat="36.7303886413574" lon="-5.11734485626221">
        <ele>716</ele>
        <time>2019-05-11T10:29:12Z</time>
      </trkpt>
      <trkpt lat="36.730339050293" lon="-5.11729717254639">
        <ele>716</ele>
        <time>2019-05-11T10:29:14Z</time>
      </trkpt>
      <trkpt lat="36.7303085327148" lon="-5.11727523803711">
        <ele>716</ele>
        <time>2019-05-11T10:29:16Z</time>
      </trkpt>
      <trkpt lat="36.7302932739258" lon="-5.11724710464478">
        <ele>716</ele>
        <time>2019-05-11T10:29:18Z</time>
      </trkpt>
      <trkpt lat="36.7302665710449" lon="-5.11720991134644">
        <ele>716</ele>
        <time>2019-05-11T10:29:20Z</time>
      </trkpt>
      <trkpt lat="36.7302513122559" lon="-5.1171817779541">
        <ele>716</ele>
        <time>2019-05-11T10:29:22Z</time>
      </trkpt>
      <trkpt lat="36.730224609375" lon="-5.11717176437378">
        <ele>716</ele>
        <time>2019-05-11T10:29:24Z</time>
      </trkpt>
      <trkpt lat="36.7302017211914" lon="-5.11713981628418">
        <ele>716</ele>
        <time>2019-05-11T10:29:26Z</time>
      </trkpt>
      <trkpt lat="36.7301712036133" lon="-5.11709308624268">
        <ele>716</ele>
        <time>2019-05-11T10:29:28Z</time>
      </trkpt>
      <trkpt lat="36.7301406860352" lon="-5.1170449256897">
        <ele>716</ele>
        <time>2019-05-11T10:29:30Z</time>
      </trkpt>
      <trkpt lat="36.7301139831543" lon="-5.11700201034546">
        <ele>716</ele>
        <time>2019-05-11T10:29:32Z</time>
      </trkpt>
      <trkpt lat="36.7300872802734" lon="-5.11695718765259">
        <ele>716</ele>
        <time>2019-05-11T10:29:35Z</time>
      </trkpt>
      <trkpt lat="36.7300682067871" lon="-5.11690187454224">
        <ele>716</ele>
        <time>2019-05-11T10:29:37Z</time>
      </trkpt>
      <trkpt lat="36.730052947998" lon="-5.11684703826904">
        <ele>716</ele>
        <time>2019-05-11T10:29:39Z</time>
      </trkpt>
      <trkpt lat="36.7300262451172" lon="-5.11678791046143">
        <ele>717</ele>
        <time>2019-05-11T10:29:41Z</time>
      </trkpt>
      <trkpt lat="36.7300033569336" lon="-5.11673307418823">
        <ele>717</ele>
        <time>2019-05-11T10:29:43Z</time>
      </trkpt>
      <trkpt lat="36.7299766540527" lon="-5.11666822433472">
        <ele>718</ele>
        <time>2019-05-11T10:29:45Z</time>
      </trkpt>
      <trkpt lat="36.7299499511719" lon="-5.11662197113037">
        <ele>719</ele>
        <time>2019-05-11T10:29:47Z</time>
      </trkpt>
      <trkpt lat="36.7299423217773" lon="-5.11657285690308">
        <ele>720</ele>
        <time>2019-05-11T10:29:49Z</time>
      </trkpt>
      <trkpt lat="36.7299308776856" lon="-5.11653804779053">
        <ele>721</ele>
        <time>2019-05-11T10:29:51Z</time>
      </trkpt>
      <trkpt lat="36.7299194335938" lon="-5.11649179458618">
        <ele>721</ele>
        <time>2019-05-11T10:29:53Z</time>
      </trkpt>
      <trkpt lat="36.7299118041992" lon="-5.116455078125">
        <ele>721</ele>
        <time>2019-05-11T10:29:55Z</time>
      </trkpt>
      <trkpt lat="36.7299041748047" lon="-5.11639213562012">
        <ele>721</ele>
        <time>2019-05-11T10:29:57Z</time>
      </trkpt>
      <trkpt lat="36.7298965454102" lon="-5.11635684967041">
        <ele>721</ele>
        <time>2019-05-11T10:29:59Z</time>
      </trkpt>
      <trkpt lat="36.7298889160156" lon="-5.11630201339722">
        <ele>721</ele>
        <time>2019-05-11T10:30:01Z</time>
      </trkpt>
      <trkpt lat="36.7298889160156" lon="-5.11624193191528">
        <ele>721</ele>
        <time>2019-05-11T10:30:03Z</time>
      </trkpt>
      <trkpt lat="36.7298965454102" lon="-5.11619806289673">
        <ele>721</ele>
        <time>2019-05-11T10:30:05Z</time>
      </trkpt>
      <trkpt lat="36.7299041748047" lon="-5.11615800857544">
        <ele>720</ele>
        <time>2019-05-11T10:30:07Z</time>
      </trkpt>
      <trkpt lat="36.7299118041992" lon="-5.11612319946289">
        <ele>719</ele>
        <time>2019-05-11T10:30:09Z</time>
      </trkpt>
      <trkpt lat="36.729923248291" lon="-5.11609220504761">
        <ele>718</ele>
        <time>2019-05-11T10:30:11Z</time>
      </trkpt>
      <trkpt lat="36.7299346923828" lon="-5.11606216430664">
        <ele>717</ele>
        <time>2019-05-11T10:30:13Z</time>
      </trkpt>
      <trkpt lat="36.7299385070801" lon="-5.11603689193726">
        <ele>716</ele>
        <time>2019-05-11T10:30:16Z</time>
      </trkpt>
      <trkpt lat="36.7299385070801" lon="-5.11600494384766">
        <ele>714</ele>
        <time>2019-05-11T10:30:18Z</time>
      </trkpt>
      <trkpt lat="36.7299461364746" lon="-5.11597490310669">
        <ele>713</ele>
        <time>2019-05-11T10:30:20Z</time>
      </trkpt>
      <trkpt lat="36.7299537658691" lon="-5.11594820022583">
        <ele>711</ele>
        <time>2019-05-11T10:30:22Z</time>
      </trkpt>
      <trkpt lat="36.7299613952637" lon="-5.11592292785644">
        <ele>711</ele>
        <time>2019-05-11T10:30:24Z</time>
      </trkpt>
      <trkpt lat="36.7299728393555" lon="-5.11589479446411">
        <ele>711</ele>
        <time>2019-05-11T10:30:26Z</time>
      </trkpt>
      <trkpt lat="36.7299842834473" lon="-5.1158652305603">
        <ele>711</ele>
        <time>2019-05-11T10:30:28Z</time>
      </trkpt>
      <trkpt lat="36.7299880981445" lon="-5.11583518981934">
        <ele>711</ele>
        <time>2019-05-11T10:30:30Z</time>
      </trkpt>
      <trkpt lat="36.7299766540527" lon="-5.11581182479858">
        <ele>711</ele>
        <time>2019-05-11T10:30:32Z</time>
      </trkpt>
      <trkpt lat="36.7299613952637" lon="-5.11579513549805">
        <ele>711</ele>
        <time>2019-05-11T10:30:34Z</time>
      </trkpt>
      <trkpt lat="36.7299423217773" lon="-5.11577701568604">
        <ele>711</ele>
        <time>2019-05-11T10:30:36Z</time>
      </trkpt>
      <trkpt lat="36.729923248291" lon="-5.1157717704773">
        <ele>711</ele>
        <time>2019-05-11T10:30:38Z</time>
      </trkpt>
      <trkpt lat="36.7299041748047" lon="-5.11576509475708">
        <ele>711</ele>
        <time>2019-05-11T10:30:40Z</time>
      </trkpt>
      <trkpt lat="36.7298812866211" lon="-5.11576223373413">
        <ele>711</ele>
        <time>2019-05-11T10:30:42Z</time>
      </trkpt>
      <trkpt lat="36.7298583984375" lon="-5.11575794219971">
        <ele>711</ele>
        <time>2019-05-11T10:30:44Z</time>
      </trkpt>
      <trkpt lat="36.7298316955566" lon="-5.11576223373413">
        <ele>711</ele>
        <time>2019-05-11T10:30:46Z</time>
      </trkpt>
      <trkpt lat="36.7298202514648" lon="-5.11577320098877">
        <ele>711</ele>
        <time>2019-05-11T10:30:48Z</time>
      </trkpt>
      <trkpt lat="36.729808807373" lon="-5.11578989028931">
        <ele>711</ele>
        <time>2019-05-11T10:30:50Z</time>
      </trkpt>
      <trkpt lat="36.7297973632812" lon="-5.11581516265869">
        <ele>711</ele>
        <time>2019-05-11T10:30:52Z</time>
      </trkpt>
      <trkpt lat="36.729793548584" lon="-5.11584186553955">
        <ele>711</ele>
        <time>2019-05-11T10:30:55Z</time>
      </trkpt>
      <trkpt lat="36.7297859191894" lon="-5.11586284637451">
        <ele>711</ele>
        <time>2019-05-11T10:30:57Z</time>
      </trkpt>
      <trkpt lat="36.7297821044922" lon="-5.11588287353516">
        <ele>711</ele>
        <time>2019-05-11T10:30:59Z</time>
      </trkpt>
      <trkpt lat="36.7297821044922" lon="-5.11590003967285">
        <ele>711</ele>
        <time>2019-05-11T10:31:01Z</time>
      </trkpt>
      <trkpt lat="36.7297821044922" lon="-5.11591196060181">
        <ele>711</ele>
        <time>2019-05-11T10:31:03Z</time>
      </trkpt>
      <trkpt lat="36.7297782897949" lon="-5.11592292785644">
        <ele>711</ele>
        <time>2019-05-11T10:31:05Z</time>
      </trkpt>
      <trkpt lat="36.7297744750977" lon="-5.1159348487854">
        <ele>711</ele>
        <time>2019-05-11T10:31:07Z</time>
      </trkpt>
      <trkpt lat="36.7297668457031" lon="-5.11594676971436">
        <ele>711</ele>
        <time>2019-05-11T10:31:09Z</time>
      </trkpt>
      <trkpt lat="36.7297630310059" lon="-5.11595821380615">
        <ele>711</ele>
        <time>2019-05-11T10:31:11Z</time>
      </trkpt>
      <trkpt lat="36.7297554016113" lon="-5.11597013473511">
        <ele>712</ele>
        <time>2019-05-11T10:31:13Z</time>
      </trkpt>
      <trkpt lat="36.7297439575195" lon="-5.11598205566406">
        <ele>712</ele>
        <time>2019-05-11T10:31:15Z</time>
      </trkpt>
      <trkpt lat="36.7297325134277" lon="-5.11599683761597">
        <ele>713</ele>
        <time>2019-05-11T10:31:17Z</time>
      </trkpt>
      <trkpt lat="36.7297248840332" lon="-5.1160249710083">
        <ele>713</ele>
        <time>2019-05-11T10:31:19Z</time>
      </trkpt>
      <trkpt lat="36.7297172546387" lon="-5.11605215072632">
        <ele>714</ele>
        <time>2019-05-11T10:31:21Z</time>
      </trkpt>
      <trkpt lat="36.7297172546387" lon="-5.11606311798096">
        <ele>714</ele>
        <time>2019-05-11T10:31:23Z</time>
      </trkpt>
      <trkpt lat="36.7297134399414" lon="-5.11607980728149">
        <ele>714</ele>
        <time>2019-05-11T10:31:25Z</time>
      </trkpt>
      <trkpt lat="36.7297019958496" lon="-5.11610317230225">
        <ele>715</ele>
        <time>2019-05-11T10:31:27Z</time>
      </trkpt>
      <trkpt lat="36.7296981811523" lon="-5.11613702774048">
        <ele>715</ele>
        <time>2019-05-11T10:31:29Z</time>
      </trkpt>
      <trkpt lat="36.7296943664551" lon="-5.11616992950439">
        <ele>715</ele>
        <time>2019-05-11T10:31:31Z</time>
      </trkpt>
      <trkpt lat="36.7296867370606" lon="-5.11620712280273">
        <ele>716</ele>
        <time>2019-05-11T10:31:33Z</time>
      </trkpt>
      <trkpt lat="36.7296752929688" lon="-5.11624193191528">
        <ele>716</ele>
        <time>2019-05-11T10:31:35Z</time>
      </trkpt>
      <trkpt lat="36.729663848877" lon="-5.11627292633057">
        <ele>717</ele>
        <time>2019-05-11T10:31:38Z</time>
      </trkpt>
      <trkpt lat="36.7296524047852" lon="-5.11630010604858">
        <ele>717</ele>
        <time>2019-05-11T10:31:40Z</time>
      </trkpt>
      <trkpt lat="36.7296409606934" lon="-5.11632490158081">
        <ele>717</ele>
        <time>2019-05-11T10:31:42Z</time>
      </trkpt>
      <trkpt lat="36.7296333312988" lon="-5.11635208129883">
        <ele>718</ele>
        <time>2019-05-11T10:31:44Z</time>
      </trkpt>
      <trkpt lat="36.729621887207" lon="-5.11637783050537">
        <ele>718</ele>
        <time>2019-05-11T10:31:46Z</time>
      </trkpt>
      <trkpt lat="36.7296142578125" lon="-5.11639976501465">
        <ele>719</ele>
        <time>2019-05-11T10:31:48Z</time>
      </trkpt>
      <trkpt lat="36.729606628418" lon="-5.1164231300354">
        <ele>719</ele>
        <time>2019-05-11T10:31:50Z</time>
      </trkpt>
      <trkpt lat="36.7295951843262" lon="-5.11644506454468">
        <ele>720</ele>
        <time>2019-05-11T10:31:52Z</time>
      </trkpt>
      <trkpt lat="36.7295799255371" lon="-5.11647701263428">
        <ele>720</ele>
        <time>2019-05-11T10:31:54Z</time>
      </trkpt>
      <trkpt lat="36.7295684814453" lon="-5.11649513244629">
        <ele>721</ele>
        <time>2019-05-11T10:31:56Z</time>
      </trkpt>
      <trkpt lat="36.7295532226562" lon="-5.11651515960693">
        <ele>721</ele>
        <time>2019-05-11T10:31:58Z</time>
      </trkpt>
      <trkpt lat="36.7295417785644" lon="-5.11653709411621">
        <ele>722</ele>
        <time>2019-05-11T10:32:00Z</time>
      </trkpt>
      <trkpt lat="36.7295265197754" lon="-5.11655187606812">
        <ele>722</ele>
        <time>2019-05-11T10:32:02Z</time>
      </trkpt>
      <trkpt lat="36.7295112609863" lon="-5.11657190322876">
        <ele>723</ele>
        <time>2019-05-11T10:32:04Z</time>
      </trkpt>
      <trkpt lat="36.7294960021973" lon="-5.11658716201782">
        <ele>723</ele>
        <time>2019-05-11T10:32:06Z</time>
      </trkpt>
      <trkpt lat="36.7294845581055" lon="-5.11660289764404">
        <ele>724</ele>
        <time>2019-05-11T10:32:08Z</time>
      </trkpt>
      <trkpt lat="36.7294692993164" lon="-5.11661720275879">
        <ele>724</ele>
        <time>2019-05-11T10:32:10Z</time>
      </trkpt>
      <trkpt lat="36.7294540405273" lon="-5.11663198471069">
        <ele>725</ele>
        <time>2019-05-11T10:32:12Z</time>
      </trkpt>
      <trkpt lat="36.7294387817383" lon="-5.11664485931396">
        <ele>725</ele>
        <time>2019-05-11T10:32:15Z</time>
      </trkpt>
      <trkpt lat="36.729419708252" lon="-5.11665487289429">
        <ele>725</ele>
        <time>2019-05-11T10:32:17Z</time>
      </trkpt>
      <trkpt lat="36.7294006347656" lon="-5.11666488647461">
        <ele>726</ele>
        <time>2019-05-11T10:32:19Z</time>
      </trkpt>
      <trkpt lat="36.7293815612793" lon="-5.11667490005493">
        <ele>727</ele>
        <time>2019-05-11T10:32:21Z</time>
      </trkpt>
      <trkpt lat="36.729362487793" lon="-5.11668300628662">
        <ele>727</ele>
        <time>2019-05-11T10:32:23Z</time>
      </trkpt>
      <trkpt lat="36.7293434143066" lon="-5.11669015884399">
        <ele>728</ele>
        <time>2019-05-11T10:32:25Z</time>
      </trkpt>
      <trkpt lat="36.7293243408203" lon="-5.11669683456421">
        <ele>728</ele>
        <time>2019-05-11T10:32:27Z</time>
      </trkpt>
      <trkpt lat="36.7293090820312" lon="-5.11670017242432">
        <ele>729</ele>
        <time>2019-05-11T10:32:29Z</time>
      </trkpt>
      <trkpt lat="36.7292785644531" lon="-5.11670303344727">
        <ele>730</ele>
        <time>2019-05-11T10:32:31Z</time>
      </trkpt>
      <trkpt lat="36.7292594909668" lon="-5.11670684814453">
        <ele>730</ele>
        <time>2019-05-11T10:32:33Z</time>
      </trkpt>
      <trkpt lat="36.7292404174805" lon="-5.11670780181885">
        <ele>731</ele>
        <time>2019-05-11T10:32:35Z</time>
      </trkpt>
      <trkpt lat="36.7292213439941" lon="-5.11670780181885">
        <ele>731</ele>
        <time>2019-05-11T10:32:37Z</time>
      </trkpt>
      <trkpt lat="36.7291984558106" lon="-5.11671018600464">
        <ele>732</ele>
        <time>2019-05-11T10:32:39Z</time>
      </trkpt>
      <trkpt lat="36.7291793823242" lon="-5.11671018600464">
        <ele>732</ele>
        <time>2019-05-11T10:32:41Z</time>
      </trkpt>
      <trkpt lat="36.7291603088379" lon="-5.11671018600464">
        <ele>733</ele>
        <time>2019-05-11T10:32:43Z</time>
      </trkpt>
      <trkpt lat="36.7291374206543" lon="-5.11671209335327">
        <ele>733</ele>
        <time>2019-05-11T10:32:45Z</time>
      </trkpt>
      <trkpt lat="36.729118347168" lon="-5.11670684814453">
        <ele>733</ele>
        <time>2019-05-11T10:32:47Z</time>
      </trkpt>
      <trkpt lat="36.7290916442871" lon="-5.11669492721558">
        <ele>734</ele>
        <time>2019-05-11T10:32:49Z</time>
      </trkpt>
      <trkpt lat="36.729061126709" lon="-5.11669206619263">
        <ele>734</ele>
        <time>2019-05-11T10:32:52Z</time>
      </trkpt>
      <trkpt lat="36.7290382385254" lon="-5.1166877746582">
        <ele>734</ele>
        <time>2019-05-11T10:32:54Z</time>
      </trkpt>
      <trkpt lat="36.7290115356445" lon="-5.11668300628662">
        <ele>734</ele>
        <time>2019-05-11T10:32:56Z</time>
      </trkpt>
      <trkpt lat="36.7289848327637" lon="-5.11667680740356">
        <ele>734</ele>
        <time>2019-05-11T10:32:58Z</time>
      </trkpt>
      <trkpt lat="36.7289581298828" lon="-5.11667490005493">
        <ele>734</ele>
        <time>2019-05-11T10:33:00Z</time>
      </trkpt>
      <trkpt lat="36.728931427002" lon="-5.11667490005493">
        <ele>734</ele>
        <time>2019-05-11T10:33:02Z</time>
      </trkpt>
      <trkpt lat="36.7289047241211" lon="-5.11667203903198">
        <ele>735</ele>
        <time>2019-05-11T10:33:04Z</time>
      </trkpt>
      <trkpt lat="36.7288818359375" lon="-5.11666679382324">
        <ele>735</ele>
        <time>2019-05-11T10:33:06Z</time>
      </trkpt>
      <trkpt lat="36.7288436889648" lon="-5.11666011810303">
        <ele>736</ele>
        <time>2019-05-11T10:33:08Z</time>
      </trkpt>
      <trkpt lat="36.728816986084" lon="-5.11665821075439">
        <ele>736</ele>
        <time>2019-05-11T10:33:10Z</time>
      </trkpt>
      <trkpt lat="36.7287940979004" lon="-5.11665296554565">
        <ele>737</ele>
        <time>2019-05-11T10:33:12Z</time>
      </trkpt>
      <trkpt lat="36.7287673950195" lon="-5.11664485931396">
        <ele>738</ele>
        <time>2019-05-11T10:33:14Z</time>
      </trkpt>
      <trkpt lat="36.7287445068359" lon="-5.11664009094238">
        <ele>738</ele>
        <time>2019-05-11T10:33:16Z</time>
      </trkpt>
      <trkpt lat="36.7287216186523" lon="-5.11663293838501">
        <ele>739</ele>
        <time>2019-05-11T10:33:18Z</time>
      </trkpt>
      <trkpt lat="36.7286911010742" lon="-5.11662197113037">
        <ele>740</ele>
        <time>2019-05-11T10:33:20Z</time>
      </trkpt>
      <trkpt lat="36.7286682128906" lon="-5.11661195755005">
        <ele>740</ele>
        <time>2019-05-11T10:33:22Z</time>
      </trkpt>
      <trkpt lat="36.728645324707" lon="-5.11660480499268">
        <ele>741</ele>
        <time>2019-05-11T10:33:24Z</time>
      </trkpt>
      <trkpt lat="36.7286186218262" lon="-5.11660003662109">
        <ele>741</ele>
        <time>2019-05-11T10:33:26Z</time>
      </trkpt>
      <trkpt lat="36.7285919189453" lon="-5.11659288406372">
        <ele>742</ele>
        <time>2019-05-11T10:33:29Z</time>
      </trkpt>
      <trkpt lat="36.7285690307617" lon="-5.11658000946045">
        <ele>742</ele>
        <time>2019-05-11T10:33:31Z</time>
      </trkpt>
      <trkpt lat="36.7285423278809" lon="-5.11656522750854">
        <ele>743</ele>
        <time>2019-05-11T10:33:33Z</time>
      </trkpt>
      <trkpt lat="36.728515625" lon="-5.11655187606812">
        <ele>743</ele>
        <time>2019-05-11T10:33:35Z</time>
      </trkpt>
      <trkpt lat="36.7284927368164" lon="-5.11653518676758">
        <ele>744</ele>
        <time>2019-05-11T10:33:37Z</time>
      </trkpt>
      <trkpt lat="36.7284660339356" lon="-5.11651706695557">
        <ele>744</ele>
        <time>2019-05-11T10:33:39Z</time>
      </trkpt>
      <trkpt lat="36.728443145752" lon="-5.11649990081787">
        <ele>744</ele>
        <time>2019-05-11T10:33:41Z</time>
      </trkpt>
      <trkpt lat="36.7284202575684" lon="-5.11647796630859">
        <ele>744</ele>
        <time>2019-05-11T10:33:43Z</time>
      </trkpt>
      <trkpt lat="36.7283935546875" lon="-5.11644315719604">
        <ele>744</ele>
        <time>2019-05-11T10:33:45Z</time>
      </trkpt>
      <trkpt lat="36.7283706665039" lon="-5.11642503738403">
        <ele>744</ele>
        <time>2019-05-11T10:33:47Z</time>
      </trkpt>
      <trkpt lat="36.7283477783203" lon="-5.11640691757202">
        <ele>744</ele>
        <time>2019-05-11T10:33:49Z</time>
      </trkpt>
      <trkpt lat="36.728328704834" lon="-5.11638689041138">
        <ele>744</ele>
        <time>2019-05-11T10:33:51Z</time>
      </trkpt>
      <trkpt lat="36.7283096313477" lon="-5.11636686325073">
        <ele>744</ele>
        <time>2019-05-11T10:33:53Z</time>
      </trkpt>
      <trkpt lat="36.7282905578613" lon="-5.1163477897644">
        <ele>744</ele>
        <time>2019-05-11T10:33:55Z</time>
      </trkpt>
      <trkpt lat="36.728271484375" lon="-5.11633014678955">
        <ele>745</ele>
        <time>2019-05-11T10:33:57Z</time>
      </trkpt>
      <trkpt lat="36.7282485961914" lon="-5.11631488800049">
        <ele>745</ele>
        <time>2019-05-11T10:33:59Z</time>
      </trkpt>
      <trkpt lat="36.7282257080078" lon="-5.11630010604858">
        <ele>746</ele>
        <time>2019-05-11T10:34:01Z</time>
      </trkpt>
      <trkpt lat="36.7282028198242" lon="-5.11628484725952">
        <ele>746</ele>
        <time>2019-05-11T10:34:03Z</time>
      </trkpt>
      <trkpt lat="36.7281761169434" lon="-5.11627817153931">
        <ele>747</ele>
        <time>2019-05-11T10:34:06Z</time>
      </trkpt>
      <trkpt lat="36.7281532287598" lon="-5.11626720428467">
        <ele>747</ele>
        <time>2019-05-11T10:34:08Z</time>
      </trkpt>
      <trkpt lat="36.7281379699707" lon="-5.11625289916992">
        <ele>748</ele>
        <time>2019-05-11T10:34:10Z</time>
      </trkpt>
      <trkpt lat="36.7281188964844" lon="-5.11623811721802">
        <ele>748</ele>
        <time>2019-05-11T10:34:12Z</time>
      </trkpt>
      <trkpt lat="36.7281074523926" lon="-5.1162281036377">
        <ele>749</ele>
        <time>2019-05-11T10:34:14Z</time>
      </trkpt>
      <trkpt lat="36.7280921936035" lon="-5.11621522903442">
        <ele>749</ele>
        <time>2019-05-11T10:34:16Z</time>
      </trkpt>
      <trkpt lat="36.7280807495117" lon="-5.11620187759399">
        <ele>750</ele>
        <time>2019-05-11T10:34:18Z</time>
      </trkpt>
      <trkpt lat="36.7280654907227" lon="-5.11618804931641">
        <ele>750</ele>
        <time>2019-05-11T10:34:20Z</time>
      </trkpt>
      <trkpt lat="36.7280464172363" lon="-5.11617708206177">
        <ele>751</ele>
        <time>2019-05-11T10:34:22Z</time>
      </trkpt>
      <trkpt lat="36.7280311584473" lon="-5.11616277694702">
        <ele>751</ele>
        <time>2019-05-11T10:34:24Z</time>
      </trkpt>
      <trkpt lat="36.7280158996582" lon="-5.11615514755249">
        <ele>751</ele>
        <time>2019-05-11T10:34:26Z</time>
      </trkpt>
      <trkpt lat="36.7280006408691" lon="-5.1161470413208">
        <ele>752</ele>
        <time>2019-05-11T10:34:28Z</time>
      </trkpt>
      <trkpt lat="36.7279815673828" lon="-5.11613702774048">
        <ele>752</ele>
        <time>2019-05-11T10:34:30Z</time>
      </trkpt>
      <trkpt lat="36.7279663085938" lon="-5.11612319946289">
        <ele>753</ele>
        <time>2019-05-11T10:34:32Z</time>
      </trkpt>
      <trkpt lat="36.727954864502" lon="-5.11611223220825">
        <ele>753</ele>
        <time>2019-05-11T10:34:34Z</time>
      </trkpt>
      <trkpt lat="36.7279396057129" lon="-5.11609792709351">
        <ele>753</ele>
        <time>2019-05-11T10:34:36Z</time>
      </trkpt>
      <trkpt lat="36.7279281616211" lon="-5.11608219146728">
        <ele>754</ele>
        <time>2019-05-11T10:34:38Z</time>
      </trkpt>
      <trkpt lat="36.727912902832" lon="-5.11606979370117">
        <ele>754</ele>
        <time>2019-05-11T10:34:41Z</time>
      </trkpt>
      <trkpt lat="36.727897644043" lon="-5.11605501174927">
        <ele>754</ele>
        <time>2019-05-11T10:34:43Z</time>
      </trkpt>
      <trkpt lat="36.7278861999512" lon="-5.11603689193726">
        <ele>755</ele>
        <time>2019-05-11T10:34:45Z</time>
      </trkpt>
      <trkpt lat="36.7278709411621" lon="-5.11601781845093">
        <ele>755</ele>
        <time>2019-05-11T10:34:47Z</time>
      </trkpt>
      <trkpt lat="36.727855682373" lon="-5.11600303649902">
        <ele>755</ele>
        <time>2019-05-11T10:34:49Z</time>
      </trkpt>
      <trkpt lat="36.727840423584" lon="-5.11599016189575">
        <ele>755</ele>
        <time>2019-05-11T10:34:51Z</time>
      </trkpt>
      <trkpt lat="36.7278251647949" lon="-5.11597776412964">
        <ele>756</ele>
        <time>2019-05-11T10:34:53Z</time>
      </trkpt>
      <trkpt lat="36.7278137207031" lon="-5.11596488952637">
        <ele>756</ele>
        <time>2019-05-11T10:34:55Z</time>
      </trkpt>
      <trkpt lat="36.7277908325195" lon="-5.11594295501709">
        <ele>757</ele>
        <time>2019-05-11T10:34:57Z</time>
      </trkpt>
      <trkpt lat="36.7277793884277" lon="-5.11592817306519">
        <ele>757</ele>
        <time>2019-05-11T10:34:59Z</time>
      </trkpt>
      <trkpt lat="36.7277679443359" lon="-5.11591482162476">
        <ele>758</ele>
        <time>2019-05-11T10:35:01Z</time>
      </trkpt>
      <trkpt lat="36.7277526855469" lon="-5.11590003967285">
        <ele>758</ele>
        <time>2019-05-11T10:35:03Z</time>
      </trkpt>
      <trkpt lat="36.7277374267578" lon="-5.11587810516357">
        <ele>759</ele>
        <time>2019-05-11T10:35:05Z</time>
      </trkpt>
      <trkpt lat="36.7277297973633" lon="-5.1158618927002">
        <ele>760</ele>
        <time>2019-05-11T10:35:07Z</time>
      </trkpt>
      <trkpt lat="36.7277183532715" lon="-5.11583805084228">
        <ele>761</ele>
        <time>2019-05-11T10:35:09Z</time>
      </trkpt>
      <trkpt lat="36.7277145385742" lon="-5.11581802368164">
        <ele>761</ele>
        <time>2019-05-11T10:35:11Z</time>
      </trkpt>
      <trkpt lat="36.7277069091797" lon="-5.11579322814941">
        <ele>762</ele>
        <time>2019-05-11T10:35:13Z</time>
      </trkpt>
      <trkpt lat="36.7277030944824" lon="-5.11576986312866">
        <ele>763</ele>
        <time>2019-05-11T10:35:15Z</time>
      </trkpt>
      <trkpt lat="36.7276916503906" lon="-5.11574506759644">
        <ele>764</ele>
        <time>2019-05-11T10:35:18Z</time>
      </trkpt>
      <trkpt lat="36.7276878356934" lon="-5.1157169342041">
        <ele>764</ele>
        <time>2019-05-11T10:35:20Z</time>
      </trkpt>
      <trkpt lat="36.7276840209961" lon="-5.1156849861145">
        <ele>765</ele>
        <time>2019-05-11T10:35:22Z</time>
      </trkpt>
      <trkpt lat="36.7276763916016" lon="-5.11565685272217">
        <ele>765</ele>
        <time>2019-05-11T10:35:24Z</time>
      </trkpt>
      <trkpt lat="36.727668762207" lon="-5.11562490463257">
        <ele>765</ele>
        <time>2019-05-11T10:35:26Z</time>
      </trkpt>
      <trkpt lat="36.7276573181152" lon="-5.11559200286865">
        <ele>765</ele>
        <time>2019-05-11T10:35:28Z</time>
      </trkpt>
      <trkpt lat="36.7276420593262" lon="-5.11555814743042">
        <ele>765</ele>
        <time>2019-05-11T10:35:30Z</time>
      </trkpt>
      <trkpt lat="36.7276344299316" lon="-5.11552715301514">
        <ele>765</ele>
        <time>2019-05-11T10:35:32Z</time>
      </trkpt>
      <trkpt lat="36.7276191711426" lon="-5.11547708511353">
        <ele>765</ele>
        <time>2019-05-11T10:35:34Z</time>
      </trkpt>
      <trkpt lat="36.727611541748" lon="-5.11544704437256">
        <ele>765</ele>
        <time>2019-05-11T10:35:36Z</time>
      </trkpt>
      <trkpt lat="36.7276039123535" lon="-5.11541700363159">
        <ele>765</ele>
        <time>2019-05-11T10:35:38Z</time>
      </trkpt>
      <trkpt lat="36.727596282959" lon="-5.11538791656494">
        <ele>765</ele>
        <time>2019-05-11T10:35:40Z</time>
      </trkpt>
      <trkpt lat="36.7275924682617" lon="-5.11535692214966">
        <ele>765</ele>
        <time>2019-05-11T10:35:42Z</time>
      </trkpt>
      <trkpt lat="36.7275886535644" lon="-5.11532783508301">
        <ele>766</ele>
        <time>2019-05-11T10:35:44Z</time>
      </trkpt>
      <trkpt lat="36.7275848388672" lon="-5.11530208587646">
        <ele>766</ele>
        <time>2019-05-11T10:35:46Z</time>
      </trkpt>
      <trkpt lat="36.7275772094727" lon="-5.1152720451355">
        <ele>767</ele>
        <time>2019-05-11T10:35:48Z</time>
      </trkpt>
      <trkpt lat="36.7275733947754" lon="-5.11524200439453">
        <ele>767</ele>
        <time>2019-05-11T10:35:50Z</time>
      </trkpt>
      <trkpt lat="36.7275695800781" lon="-5.11521196365356">
        <ele>768</ele>
        <time>2019-05-11T10:35:52Z</time>
      </trkpt>
      <trkpt lat="36.7275619506836" lon="-5.11518287658691">
        <ele>768</ele>
        <time>2019-05-11T10:35:55Z</time>
      </trkpt>
      <trkpt lat="36.7275543212891" lon="-5.11515522003174">
        <ele>769</ele>
        <time>2019-05-11T10:35:57Z</time>
      </trkpt>
      <trkpt lat="36.7275466918945" lon="-5.11512517929077">
        <ele>769</ele>
        <time>2019-05-11T10:35:59Z</time>
      </trkpt>
      <trkpt lat="36.7275352478027" lon="-5.11509799957275">
        <ele>770</ele>
        <time>2019-05-11T10:36:01Z</time>
      </trkpt>
      <trkpt lat="36.7275276184082" lon="-5.11506986618042">
        <ele>770</ele>
        <time>2019-05-11T10:36:03Z</time>
      </trkpt>
      <trkpt lat="36.7275161743164" lon="-5.11504316329956">
        <ele>771</ele>
        <time>2019-05-11T10:36:05Z</time>
      </trkpt>
      <trkpt lat="36.7275047302246" lon="-5.11501979827881">
        <ele>771</ele>
        <time>2019-05-11T10:36:07Z</time>
      </trkpt>
      <trkpt lat="36.7274856567383" lon="-5.11499977111816">
        <ele>771</ele>
        <time>2019-05-11T10:36:09Z</time>
      </trkpt>
      <trkpt lat="36.7274589538574" lon="-5.11496305465698">
        <ele>772</ele>
        <time>2019-05-11T10:36:11Z</time>
      </trkpt>
      <trkpt lat="36.7274398803711" lon="-5.1149468421936">
        <ele>772</ele>
        <time>2019-05-11T10:36:13Z</time>
      </trkpt>
      <trkpt lat="36.7274169921875" lon="-5.1149320602417">
        <ele>773</ele>
        <time>2019-05-11T10:36:15Z</time>
      </trkpt>
      <trkpt lat="36.7273941040039" lon="-5.11491680145264">
        <ele>773</ele>
        <time>2019-05-11T10:36:17Z</time>
      </trkpt>
      <trkpt lat="36.7273750305176" lon="-5.11489820480347">
        <ele>773</ele>
        <time>2019-05-11T10:36:19Z</time>
      </trkpt>
      <trkpt lat="36.727352142334" lon="-5.11488199234009">
        <ele>774</ele>
        <time>2019-05-11T10:36:21Z</time>
      </trkpt>
      <trkpt lat="36.7273330688477" lon="-5.11486291885376">
        <ele>774</ele>
        <time>2019-05-11T10:36:23Z</time>
      </trkpt>
      <trkpt lat="36.7273101806641" lon="-5.11484289169312">
        <ele>775</ele>
        <time>2019-05-11T10:36:25Z</time>
      </trkpt>
      <trkpt lat="36.7272872924805" lon="-5.11482715606689">
        <ele>775</ele>
        <time>2019-05-11T10:36:27Z</time>
      </trkpt>
      <trkpt lat="36.7272644042969" lon="-5.11480808258057">
        <ele>775</ele>
        <time>2019-05-11T10:36:29Z</time>
      </trkpt>
      <trkpt lat="36.7272453308106" lon="-5.11478519439697">
        <ele>776</ele>
        <time>2019-05-11T10:36:32Z</time>
      </trkpt>
      <trkpt lat="36.7272262573242" lon="-5.11476182937622">
        <ele>776</ele>
        <time>2019-05-11T10:36:34Z</time>
      </trkpt>
      <trkpt lat="36.7272071838379" lon="-5.11473798751831">
        <ele>776</ele>
        <time>2019-05-11T10:36:36Z</time>
      </trkpt>
      <trkpt lat="36.7271842956543" lon="-5.11471509933472">
        <ele>776</ele>
        <time>2019-05-11T10:36:38Z</time>
      </trkpt>
      <trkpt lat="36.727165222168" lon="-5.11469507217407">
        <ele>776</ele>
        <time>2019-05-11T10:36:40Z</time>
      </trkpt>
      <trkpt lat="36.7271537780762" lon="-5.1146731376648">
        <ele>776</ele>
        <time>2019-05-11T10:36:42Z</time>
      </trkpt>
      <trkpt lat="36.7271347045898" lon="-5.11464977264404">
        <ele>776</ele>
        <time>2019-05-11T10:36:44Z</time>
      </trkpt>
      <trkpt lat="36.7271194458008" lon="-5.11463022232056">
        <ele>776</ele>
        <time>2019-05-11T10:36:46Z</time>
      </trkpt>
      <trkpt lat="36.7270927429199" lon="-5.11459684371948">
        <ele>776</ele>
        <time>2019-05-11T10:36:48Z</time>
      </trkpt>
      <trkpt lat="36.7270774841309" lon="-5.11457300186157">
        <ele>776</ele>
        <time>2019-05-11T10:36:50Z</time>
      </trkpt>
      <trkpt lat="36.7270584106445" lon="-5.11455011367798">
        <ele>777</ele>
        <time>2019-05-11T10:36:52Z</time>
      </trkpt>
      <trkpt lat="36.7270431518555" lon="-5.11452484130859">
        <ele>777</ele>
        <time>2019-05-11T10:36:54Z</time>
      </trkpt>
      <trkpt lat="36.7270240783691" lon="-5.11450004577637">
        <ele>777</ele>
        <time>2019-05-11T10:36:56Z</time>
      </trkpt>
      <trkpt lat="36.7270050048828" lon="-5.11447477340698">
        <ele>778</ele>
        <time>2019-05-11T10:36:58Z</time>
      </trkpt>
      <trkpt lat="36.7269859313965" lon="-5.11445713043213">
        <ele>778</ele>
        <time>2019-05-11T10:37:00Z</time>
      </trkpt>
      <trkpt lat="36.7269668579102" lon="-5.11443710327148">
        <ele>778</ele>
        <time>2019-05-11T10:37:02Z</time>
      </trkpt>
      <trkpt lat="36.7269439697266" lon="-5.11441802978516">
        <ele>778</ele>
        <time>2019-05-11T10:37:04Z</time>
      </trkpt>
      <trkpt lat="36.726921081543" lon="-5.11439800262451">
        <ele>778</ele>
        <time>2019-05-11T10:37:06Z</time>
      </trkpt>
      <trkpt lat="36.7268981933594" lon="-5.11438179016113">
        <ele>778</ele>
        <time>2019-05-11T10:37:09Z</time>
      </trkpt>
      <trkpt lat="36.726879119873" lon="-5.11436700820923">
        <ele>778</ele>
        <time>2019-05-11T10:37:11Z</time>
      </trkpt>
      <trkpt lat="36.7268562316894" lon="-5.11434984207153">
        <ele>778</ele>
        <time>2019-05-11T10:37:13Z</time>
      </trkpt>
      <trkpt lat="36.7268333435059" lon="-5.11433219909668">
        <ele>778</ele>
        <time>2019-05-11T10:37:15Z</time>
      </trkpt>
      <trkpt lat="36.726806640625" lon="-5.11431694030762">
        <ele>778</ele>
        <time>2019-05-11T10:37:17Z</time>
      </trkpt>
      <trkpt lat="36.7267837524414" lon="-5.11430215835571">
        <ele>778</ele>
        <time>2019-05-11T10:37:19Z</time>
      </trkpt>
      <trkpt lat="36.7267608642578" lon="-5.11428689956665">
        <ele>778</ele>
        <time>2019-05-11T10:37:21Z</time>
      </trkpt>
      <trkpt lat="36.7267379760742" lon="-5.11426782608032">
        <ele>778</ele>
        <time>2019-05-11T10:37:23Z</time>
      </trkpt>
      <trkpt lat="36.7267074584961" lon="-5.11423683166504">
        <ele>778</ele>
        <time>2019-05-11T10:37:25Z</time>
      </trkpt>
      <trkpt lat="36.7266883850098" lon="-5.11421823501587">
        <ele>778</ele>
        <time>2019-05-11T10:37:27Z</time>
      </trkpt>
      <trkpt lat="36.7266616821289" lon="-5.11420202255249">
        <ele>779</ele>
        <time>2019-05-11T10:37:29Z</time>
      </trkpt>
      <trkpt lat="36.7266387939453" lon="-5.1141848564148">
        <ele>779</ele>
        <time>2019-05-11T10:37:31Z</time>
      </trkpt>
      <trkpt lat="36.7266159057617" lon="-5.11416721343994">
        <ele>779</ele>
        <time>2019-05-11T10:37:33Z</time>
      </trkpt>
      <trkpt lat="36.7265930175781" lon="-5.11415004730225">
        <ele>779</ele>
        <time>2019-05-11T10:37:35Z</time>
      </trkpt>
      <trkpt lat="36.7265701293945" lon="-5.11413288116455">
        <ele>779</ele>
        <time>2019-05-11T10:37:37Z</time>
      </trkpt>
      <trkpt lat="36.7265510559082" lon="-5.11411809921265">
        <ele>780</ele>
        <time>2019-05-11T10:37:39Z</time>
      </trkpt>
      <trkpt lat="36.7265281677246" lon="-5.11410284042358">
        <ele>780</ele>
        <time>2019-05-11T10:37:41Z</time>
      </trkpt>
      <trkpt lat="36.726505279541" lon="-5.11408805847168">
        <ele>781</ele>
        <time>2019-05-11T10:37:43Z</time>
      </trkpt>
      <trkpt lat="36.7264823913574" lon="-5.11407518386841">
        <ele>781</ele>
        <time>2019-05-11T10:37:46Z</time>
      </trkpt>
      <trkpt lat="36.7264595031738" lon="-5.11406183242798">
        <ele>782</ele>
        <time>2019-05-11T10:37:48Z</time>
      </trkpt>
      <trkpt lat="36.7264366149902" lon="-5.11404800415039">
        <ele>782</ele>
        <time>2019-05-11T10:37:50Z</time>
      </trkpt>
      <trkpt lat="36.7264175415039" lon="-5.11403322219849">
        <ele>783</ele>
        <time>2019-05-11T10:37:52Z</time>
      </trkpt>
      <trkpt lat="36.7263984680176" lon="-5.11401700973511">
        <ele>783</ele>
        <time>2019-05-11T10:37:54Z</time>
      </trkpt>
      <trkpt lat="36.726375579834" lon="-5.11399793624878">
        <ele>783</ele>
        <time>2019-05-11T10:37:56Z</time>
      </trkpt>
      <trkpt lat="36.7263565063477" lon="-5.11397981643677">
        <ele>784</ele>
        <time>2019-05-11T10:37:58Z</time>
      </trkpt>
      <trkpt lat="36.7263336181641" lon="-5.11395692825317">
        <ele>784</ele>
        <time>2019-05-11T10:38:00Z</time>
      </trkpt>
      <trkpt lat="36.7263069152832" lon="-5.11391496658325">
        <ele>785</ele>
        <time>2019-05-11T10:38:02Z</time>
      </trkpt>
      <trkpt lat="36.7262954711914" lon="-5.11388683319092">
        <ele>785</ele>
        <time>2019-05-11T10:38:04Z</time>
      </trkpt>
      <trkpt lat="36.7262840270996" lon="-5.11385202407837">
        <ele>785</ele>
        <time>2019-05-11T10:38:06Z</time>
      </trkpt>
      <trkpt lat="36.7262687683106" lon="-5.1138219833374">
        <ele>785</ele>
        <time>2019-05-11T10:38:08Z</time>
      </trkpt>
      <trkpt lat="36.7262535095215" lon="-5.11379480361938">
        <ele>785</ele>
        <time>2019-05-11T10:38:10Z</time>
      </trkpt>
      <trkpt lat="36.7262382507324" lon="-5.11376476287842">
        <ele>785</ele>
        <time>2019-05-11T10:38:12Z</time>
      </trkpt>
      <trkpt lat="36.7262268066406" lon="-5.1137318611145">
        <ele>785</ele>
        <time>2019-05-11T10:38:14Z</time>
      </trkpt>
      <trkpt lat="36.7262115478516" lon="-5.11370182037354">
        <ele>785</ele>
        <time>2019-05-11T10:38:16Z</time>
      </trkpt>
      <trkpt lat="36.7261962890625" lon="-5.11367177963257">
        <ele>785</ele>
        <time>2019-05-11T10:38:18Z</time>
      </trkpt>
      <trkpt lat="36.7261810302734" lon="-5.11363792419434">
        <ele>785</ele>
        <time>2019-05-11T10:38:20Z</time>
      </trkpt>
      <trkpt lat="36.7261695861816" lon="-5.113609790802">
        <ele>785</ele>
        <time>2019-05-11T10:38:23Z</time>
      </trkpt>
      <trkpt lat="36.7261619567871" lon="-5.11358499526978">
        <ele>785</ele>
        <time>2019-05-11T10:38:25Z</time>
      </trkpt>
      <trkpt lat="36.7261581420898" lon="-5.11355686187744">
        <ele>785</ele>
        <time>2019-05-11T10:38:27Z</time>
      </trkpt>
      <trkpt lat="36.726146697998" lon="-5.11352777481079">
        <ele>785</ele>
        <time>2019-05-11T10:38:29Z</time>
      </trkpt>
      <trkpt lat="36.726131439209" lon="-5.11350202560425">
        <ele>785</ele>
        <time>2019-05-11T10:38:31Z</time>
      </trkpt>
      <trkpt lat="36.7261161804199" lon="-5.11347007751465">
        <ele>785</ele>
        <time>2019-05-11T10:38:33Z</time>
      </trkpt>
      <trkpt lat="36.7261009216309" lon="-5.11344194412231">
        <ele>785</ele>
        <time>2019-05-11T10:38:35Z</time>
      </trkpt>
      <trkpt lat="36.7260818481445" lon="-5.1134147644043">
        <ele>785</ele>
        <time>2019-05-11T10:38:37Z</time>
      </trkpt>
      <trkpt lat="36.7260551452637" lon="-5.11337280273438">
        <ele>785</ele>
        <time>2019-05-11T10:38:39Z</time>
      </trkpt>
      <trkpt lat="36.7260360717773" lon="-5.1133451461792">
        <ele>785</ele>
        <time>2019-05-11T10:38:41Z</time>
      </trkpt>
      <trkpt lat="36.726016998291" lon="-5.11332178115845">
        <ele>785</ele>
        <time>2019-05-11T10:38:43Z</time>
      </trkpt>
      <trkpt lat="36.7259941101074" lon="-5.11329793930054">
        <ele>785</ele>
        <time>2019-05-11T10:38:45Z</time>
      </trkpt>
      <trkpt lat="36.7259712219238" lon="-5.11327505111694">
        <ele>785</ele>
        <time>2019-05-11T10:38:47Z</time>
      </trkpt>
      <trkpt lat="36.7259483337402" lon="-5.11325693130493">
        <ele>785</ele>
        <time>2019-05-11T10:38:49Z</time>
      </trkpt>
      <trkpt lat="36.7259292602539" lon="-5.11324310302734">
        <ele>785</ele>
        <time>2019-05-11T10:38:51Z</time>
      </trkpt>
      <trkpt lat="36.7259063720703" lon="-5.11323022842407">
        <ele>786</ele>
        <time>2019-05-11T10:38:53Z</time>
      </trkpt>
      <trkpt lat="36.7258834838867" lon="-5.11321496963501">
        <ele>786</ele>
        <time>2019-05-11T10:38:55Z</time>
      </trkpt>
      <trkpt lat="36.7258567810059" lon="-5.11320018768311">
        <ele>787</ele>
        <time>2019-05-11T10:38:57Z</time>
      </trkpt>
      <trkpt lat="36.7258338928223" lon="-5.11318683624268">
        <ele>787</ele>
        <time>2019-05-11T10:39:00Z</time>
      </trkpt>
      <trkpt lat="36.7258110046387" lon="-5.11317014694214">
        <ele>787</ele>
        <time>2019-05-11T10:39:02Z</time>
      </trkpt>
      <trkpt lat="36.7257843017578" lon="-5.11315822601318">
        <ele>787</ele>
        <time>2019-05-11T10:39:04Z</time>
      </trkpt>
      <trkpt lat="36.725757598877" lon="-5.11314678192139">
        <ele>787</ele>
        <time>2019-05-11T10:39:06Z</time>
      </trkpt>
      <trkpt lat="36.7257347106934" lon="-5.11313676834106">
        <ele>787</ele>
        <time>2019-05-11T10:39:08Z</time>
      </trkpt>
      <trkpt lat="36.7257080078125" lon="-5.11313009262085">
        <ele>788</ele>
        <time>2019-05-11T10:39:10Z</time>
      </trkpt>
      <trkpt lat="36.7256813049316" lon="-5.11312294006348">
        <ele>788</ele>
        <time>2019-05-11T10:39:12Z</time>
      </trkpt>
      <trkpt lat="36.725658416748" lon="-5.11311721801758">
        <ele>788</ele>
        <time>2019-05-11T10:39:14Z</time>
      </trkpt>
      <trkpt lat="36.7256126403809" lon="-5.11310720443726">
        <ele>789</ele>
        <time>2019-05-11T10:39:16Z</time>
      </trkpt>
      <trkpt lat="36.7255859375" lon="-5.11309719085693">
        <ele>789</ele>
        <time>2019-05-11T10:39:18Z</time>
      </trkpt>
      <trkpt lat="36.7255554199219" lon="-5.11308813095093">
        <ele>789</ele>
        <time>2019-05-11T10:39:20Z</time>
      </trkpt>
      <trkpt lat="36.7255249023438" lon="-5.11308193206787">
        <ele>790</ele>
        <time>2019-05-11T10:39:22Z</time>
      </trkpt>
      <trkpt lat="36.7254943847656" lon="-5.11307287216186">
        <ele>790</ele>
        <time>2019-05-11T10:39:24Z</time>
      </trkpt>
      <trkpt lat="36.7254638671875" lon="-5.11307001113892">
        <ele>790</ele>
        <time>2019-05-11T10:39:26Z</time>
      </trkpt>
      <trkpt lat="36.7254333496094" lon="-5.11307001113892">
        <ele>790</ele>
        <time>2019-05-11T10:39:28Z</time>
      </trkpt>
      <trkpt lat="36.7254066467285" lon="-5.11306715011597">
        <ele>790</ele>
        <time>2019-05-11T10:39:30Z</time>
      </trkpt>
      <trkpt lat="36.7253761291504" lon="-5.11307001113892">
        <ele>790</ele>
        <time>2019-05-11T10:39:32Z</time>
      </trkpt>
      <trkpt lat="36.7253456115723" lon="-5.11307001113892">
        <ele>790</ele>
        <time>2019-05-11T10:39:34Z</time>
      </trkpt>
      <trkpt lat="36.7253150939941" lon="-5.11306810379028">
        <ele>790</ele>
        <time>2019-05-11T10:39:36Z</time>
      </trkpt>
      <trkpt lat="36.725284576416" lon="-5.11306810379028">
        <ele>790</ele>
        <time>2019-05-11T10:39:39Z</time>
      </trkpt>
      <trkpt lat="36.7252540588379" lon="-5.11306810379028">
        <ele>790</ele>
        <time>2019-05-11T10:39:41Z</time>
      </trkpt>
      <trkpt lat="36.725227355957" lon="-5.11306715011597">
        <ele>790</ele>
        <time>2019-05-11T10:39:43Z</time>
      </trkpt>
      <trkpt lat="36.7251968383789" lon="-5.11306190490723">
        <ele>791</ele>
        <time>2019-05-11T10:39:45Z</time>
      </trkpt>
      <trkpt lat="36.7251892089844" lon="-5.11303997039795">
        <ele>791</ele>
        <time>2019-05-11T10:39:47Z</time>
      </trkpt>
      <trkpt lat="36.7251968383789" lon="-5.11301803588867">
        <ele>791</ele>
        <time>2019-05-11T10:39:49Z</time>
      </trkpt>
      <trkpt lat="36.7251968383789" lon="-5.11301279067993">
        <ele>791</ele>
        <time>2019-05-11T10:39:51Z</time>
      </trkpt>
      <trkpt lat="36.7251968383789" lon="-5.11300802230835">
        <ele>791</ele>
        <time>2019-05-11T10:39:53Z</time>
      </trkpt>
      <trkpt lat="36.7252006530762" lon="-5.11300706863403">
        <ele>791</ele>
        <time>2019-05-11T10:39:55Z</time>
      </trkpt>
      <trkpt lat="36.7251968383789" lon="-5.11300706863403">
        <ele>791</ele>
        <time>2019-05-11T10:39:57Z</time>
      </trkpt>
      <trkpt lat="36.7251968383789" lon="-5.11300706863403">
        <ele>791</ele>
        <time>2019-05-11T10:39:59Z</time>
      </trkpt>
      <trkpt lat="36.7251930236816" lon="-5.11300277709961">
        <ele>792</ele>
        <time>2019-05-11T10:40:01Z</time>
      </trkpt>
      <trkpt lat="36.7251930236816" lon="-5.11299991607666">
        <ele>792</ele>
        <time>2019-05-11T10:40:03Z</time>
      </trkpt>
      <trkpt lat="36.7251968383789" lon="-5.11299991607666">
        <ele>792</ele>
        <time>2019-05-11T10:40:05Z</time>
      </trkpt>
      <trkpt lat="36.7251968383789" lon="-5.11299705505371">
        <ele>793</ele>
        <time>2019-05-11T10:40:07Z</time>
      </trkpt>
      <trkpt lat="36.7251968383789" lon="-5.11299180984497">
        <ele>793</ele>
        <time>2019-05-11T10:40:09Z</time>
      </trkpt>
      <trkpt lat="36.7251930236816" lon="-5.1129879951477">
        <ele>794</ele>
        <time>2019-05-11T10:40:11Z</time>
      </trkpt>
      <trkpt lat="36.7251930236816" lon="-5.1129879951477">
        <ele>794</ele>
        <time>2019-05-11T10:40:13Z</time>
      </trkpt>
      <trkpt lat="36.7251930236816" lon="-5.11298990249634">
        <ele>795</ele>
        <time>2019-05-11T10:40:15Z</time>
      </trkpt>
      <trkpt lat="36.7251892089844" lon="-5.11300277709961">
        <ele>795</ele>
        <time>2019-05-11T10:40:17Z</time>
      </trkpt>
      <trkpt lat="36.7251663208008" lon="-5.11301183700562">
        <ele>795</ele>
        <time>2019-05-11T10:40:20Z</time>
      </trkpt>
      <trkpt lat="36.7251396179199" lon="-5.11300802230835">
        <ele>795</ele>
        <time>2019-05-11T10:40:22Z</time>
      </trkpt>
      <trkpt lat="36.7251167297363" lon="-5.11300182342529">
        <ele>796</ele>
        <time>2019-05-11T10:40:24Z</time>
      </trkpt>
      <trkpt lat="36.7250900268555" lon="-5.11299705505371">
        <ele>796</ele>
        <time>2019-05-11T10:40:26Z</time>
      </trkpt>
      <trkpt lat="36.7250633239746" lon="-5.11299180984497">
        <ele>796</ele>
        <time>2019-05-11T10:40:28Z</time>
      </trkpt>
      <trkpt lat="36.7250366210938" lon="-5.11298704147339">
        <ele>796</ele>
        <time>2019-05-11T10:40:30Z</time>
      </trkpt>
      <trkpt lat="36.7250061035156" lon="-5.11297988891602">
        <ele>796</ele>
        <time>2019-05-11T10:40:32Z</time>
      </trkpt>
      <trkpt lat="36.724983215332" lon="-5.11297512054443">
        <ele>796</ele>
        <time>2019-05-11T10:40:34Z</time>
      </trkpt>
      <trkpt lat="36.7249526977539" lon="-5.11296987533569">
        <ele>796</ele>
        <time>2019-05-11T10:40:36Z</time>
      </trkpt>
      <trkpt lat="36.724910736084" lon="-5.11296510696411">
        <ele>796</ele>
        <time>2019-05-11T10:40:38Z</time>
      </trkpt>
      <trkpt lat="36.7248878479004" lon="-5.11295795440674">
        <ele>796</ele>
        <time>2019-05-11T10:40:40Z</time>
      </trkpt>
      <trkpt lat="36.7248764038086" lon="-5.11295318603516">
        <ele>796</ele>
        <time>2019-05-11T10:40:42Z</time>
      </trkpt>
      <trkpt lat="36.7248611450195" lon="-5.11295318603516">
        <ele>796</ele>
        <time>2019-05-11T10:40:44Z</time>
      </trkpt>
      <trkpt lat="36.7248382568359" lon="-5.11294984817505">
        <ele>796</ele>
        <time>2019-05-11T10:40:46Z</time>
      </trkpt>
      <trkpt lat="36.7248115539551" lon="-5.11295509338379">
        <ele>796</ele>
        <time>2019-05-11T10:40:48Z</time>
      </trkpt>
      <trkpt lat="36.7247886657715" lon="-5.11295509338379">
        <ele>796</ele>
        <time>2019-05-11T10:40:50Z</time>
      </trkpt>
      <trkpt lat="36.7247695922852" lon="-5.11294984817505">
        <ele>796</ele>
        <time>2019-05-11T10:40:52Z</time>
      </trkpt>
      <trkpt lat="36.7247619628906" lon="-5.1129469871521">
        <ele>796</ele>
        <time>2019-05-11T10:40:54Z</time>
      </trkpt>
      <trkpt lat="36.7247581481934" lon="-5.11294221878052">
        <ele>796</ele>
        <time>2019-05-11T10:40:57Z</time>
      </trkpt>
      <trkpt lat="36.7247581481934" lon="-5.11293697357178">
        <ele>796</ele>
        <time>2019-05-11T10:40:59Z</time>
      </trkpt>
      <trkpt lat="36.7247543334961" lon="-5.1129322052002">
        <ele>796</ele>
        <time>2019-05-11T10:41:01Z</time>
      </trkpt>
      <trkpt lat="36.7247314453125" lon="-5.11292791366577">
        <ele>796</ele>
        <time>2019-05-11T10:41:03Z</time>
      </trkpt>
      <trkpt lat="36.7247047424316" lon="-5.11292314529419">
        <ele>796</ele>
        <time>2019-05-11T10:41:05Z</time>
      </trkpt>
      <trkpt lat="36.7246780395508" lon="-5.11291980743408">
        <ele>797</ele>
        <time>2019-05-11T10:41:07Z</time>
      </trkpt>
      <trkpt lat="36.7246475219727" lon="-5.11291694641113">
        <ele>797</ele>
        <time>2019-05-11T10:41:09Z</time>
      </trkpt>
      <trkpt lat="36.7246208190918" lon="-5.11290502548218">
        <ele>797</ele>
        <time>2019-05-11T10:41:11Z</time>
      </trkpt>
      <trkpt lat="36.7245864868164" lon="-5.11288690567017">
        <ele>797</ele>
        <time>2019-05-11T10:41:13Z</time>
      </trkpt>
      <trkpt lat="36.7245597839356" lon="-5.11287689208984">
        <ele>798</ele>
        <time>2019-05-11T10:41:15Z</time>
      </trkpt>
      <trkpt lat="36.7245292663574" lon="-5.11287498474121">
        <ele>798</ele>
        <time>2019-05-11T10:41:17Z</time>
      </trkpt>
      <trkpt lat="36.7245025634766" lon="-5.11287021636963">
        <ele>798</ele>
        <time>2019-05-11T10:41:19Z</time>
      </trkpt>
      <trkpt lat="36.724479675293" lon="-5.11286306381226">
        <ele>798</ele>
        <time>2019-05-11T10:41:21Z</time>
      </trkpt>
      <trkpt lat="36.7244529724121" lon="-5.11285305023193">
        <ele>798</ele>
        <time>2019-05-11T10:41:23Z</time>
      </trkpt>
      <trkpt lat="36.7244262695312" lon="-5.11284303665161">
        <ele>798</ele>
        <time>2019-05-11T10:41:25Z</time>
      </trkpt>
      <trkpt lat="36.7243957519531" lon="-5.11283493041992">
        <ele>798</ele>
        <time>2019-05-11T10:41:27Z</time>
      </trkpt>
      <trkpt lat="36.7243690490723" lon="-5.11282300949097">
        <ele>799</ele>
        <time>2019-05-11T10:41:29Z</time>
      </trkpt>
      <trkpt lat="36.7243385314941" lon="-5.11281299591064">
        <ele>799</ele>
        <time>2019-05-11T10:41:31Z</time>
      </trkpt>
      <trkpt lat="36.7243156433106" lon="-5.11280488967896">
        <ele>799</ele>
        <time>2019-05-11T10:41:34Z</time>
      </trkpt>
      <trkpt lat="36.7242889404297" lon="-5.11279821395874">
        <ele>799</ele>
        <time>2019-05-11T10:41:36Z</time>
      </trkpt>
      <trkpt lat="36.7242622375488" lon="-5.11279010772705">
        <ele>800</ele>
        <time>2019-05-11T10:41:38Z</time>
      </trkpt>
      <trkpt lat="36.724235534668" lon="-5.11278295516968">
        <ele>800</ele>
        <time>2019-05-11T10:41:40Z</time>
      </trkpt>
      <trkpt lat="36.7242088317871" lon="-5.11277484893799">
        <ele>800</ele>
        <time>2019-05-11T10:41:42Z</time>
      </trkpt>
      <trkpt lat="36.724178314209" lon="-5.11276197433472">
        <ele>800</ele>
        <time>2019-05-11T10:41:44Z</time>
      </trkpt>
      <trkpt lat="36.7241516113281" lon="-5.11275196075439">
        <ele>800</ele>
        <time>2019-05-11T10:41:46Z</time>
      </trkpt>
      <trkpt lat="36.7241287231445" lon="-5.11274003982544">
        <ele>800</ele>
        <time>2019-05-11T10:41:48Z</time>
      </trkpt>
      <trkpt lat="36.7240791320801" lon="-5.1127200126648">
        <ele>800</ele>
        <time>2019-05-11T10:41:50Z</time>
      </trkpt>
      <trkpt lat="36.7240524291992" lon="-5.11270523071289">
        <ele>800</ele>
        <time>2019-05-11T10:41:52Z</time>
      </trkpt>
      <trkpt lat="36.7240219116211" lon="-5.11268997192383">
        <ele>800</ele>
        <time>2019-05-11T10:41:54Z</time>
      </trkpt>
      <trkpt lat="36.723991394043" lon="-5.11267709732056">
        <ele>801</ele>
        <time>2019-05-11T10:41:56Z</time>
      </trkpt>
      <trkpt lat="36.7239685058594" lon="-5.11265993118286">
        <ele>801</ele>
        <time>2019-05-11T10:41:58Z</time>
      </trkpt>
      <trkpt lat="36.7239379882812" lon="-5.11264705657959">
        <ele>801</ele>
        <time>2019-05-11T10:42:00Z</time>
      </trkpt>
      <trkpt lat="36.7239074707031" lon="-5.11263179779053">
        <ele>801</ele>
        <time>2019-05-11T10:42:02Z</time>
      </trkpt>
      <trkpt lat="36.7238807678223" lon="-5.11261177062988">
        <ele>801</ele>
        <time>2019-05-11T10:42:04Z</time>
      </trkpt>
      <trkpt lat="36.7238540649414" lon="-5.11258792877197">
        <ele>802</ele>
        <time>2019-05-11T10:42:06Z</time>
      </trkpt>
      <trkpt lat="36.7238311767578" lon="-5.11256217956543">
        <ele>802</ele>
        <time>2019-05-11T10:42:09Z</time>
      </trkpt>
      <trkpt lat="36.7238159179688" lon="-5.11253499984741">
        <ele>802</ele>
        <time>2019-05-11T10:42:11Z</time>
      </trkpt>
      <trkpt lat="36.7237968444824" lon="-5.11250782012939">
        <ele>802</ele>
        <time>2019-05-11T10:42:13Z</time>
      </trkpt>
      <trkpt lat="36.7237777709961" lon="-5.11248016357422">
        <ele>802</ele>
        <time>2019-05-11T10:42:15Z</time>
      </trkpt>
      <trkpt lat="36.723762512207" lon="-5.11245203018188">
        <ele>802</ele>
        <time>2019-05-11T10:42:17Z</time>
      </trkpt>
      <trkpt lat="36.7237434387207" lon="-5.11242294311523">
        <ele>802</ele>
        <time>2019-05-11T10:42:19Z</time>
      </trkpt>
      <trkpt lat="36.7237281799316" lon="-5.11239814758301">
        <ele>802</ele>
        <time>2019-05-11T10:42:21Z</time>
      </trkpt>
      <trkpt lat="36.723705291748" lon="-5.11237716674805">
        <ele>802</ele>
        <time>2019-05-11T10:42:23Z</time>
      </trkpt>
      <trkpt lat="36.7236862182617" lon="-5.1123571395874">
        <ele>802</ele>
        <time>2019-05-11T10:42:25Z</time>
      </trkpt>
      <trkpt lat="36.7236557006836" lon="-5.11232805252075">
        <ele>802</ele>
        <time>2019-05-11T10:42:27Z</time>
      </trkpt>
      <trkpt lat="36.7236251831055" lon="-5.11229991912842">
        <ele>802</ele>
        <time>2019-05-11T10:42:29Z</time>
      </trkpt>
      <trkpt lat="36.7235984802246" lon="-5.11227178573608">
        <ele>801</ele>
        <time>2019-05-11T10:42:31Z</time>
      </trkpt>
      <trkpt lat="36.723575592041" lon="-5.11223983764648">
        <ele>800</ele>
        <time>2019-05-11T10:42:33Z</time>
      </trkpt>
      <trkpt lat="36.7235565185547" lon="-5.1122031211853">
        <ele>799</ele>
        <time>2019-05-11T10:42:35Z</time>
      </trkpt>
      <trkpt lat="36.7235336303711" lon="-5.11215782165527">
        <ele>798</ele>
        <time>2019-05-11T10:42:37Z</time>
      </trkpt>
      <trkpt lat="36.7235069274902" lon="-5.11211681365967">
        <ele>798</ele>
        <time>2019-05-11T10:42:39Z</time>
      </trkpt>
      <trkpt lat="36.7234840393066" lon="-5.1120719909668">
        <ele>798</ele>
        <time>2019-05-11T10:42:41Z</time>
      </trkpt>
      <trkpt lat="36.723461151123" lon="-5.11202812194824">
        <ele>798</ele>
        <time>2019-05-11T10:42:43Z</time>
      </trkpt>
      <trkpt lat="36.7234420776367" lon="-5.11198282241821">
        <ele>798</ele>
        <time>2019-05-11T10:42:46Z</time>
      </trkpt>
      <trkpt lat="36.7234268188477" lon="-5.11193990707397">
        <ele>798</ele>
        <time>2019-05-11T10:42:48Z</time>
      </trkpt>
      <trkpt lat="36.7234077453613" lon="-5.11189794540405">
        <ele>798</ele>
        <time>2019-05-11T10:42:50Z</time>
      </trkpt>
      <trkpt lat="36.7233810424805" lon="-5.11185693740845">
        <ele>798</ele>
        <time>2019-05-11T10:42:52Z</time>
      </trkpt>
      <trkpt lat="36.7233505249023" lon="-5.11181020736694">
        <ele>798</ele>
        <time>2019-05-11T10:42:54Z</time>
      </trkpt>
      <trkpt lat="36.7233200073242" lon="-5.11176490783691">
        <ele>798</ele>
        <time>2019-05-11T10:42:56Z</time>
      </trkpt>
      <trkpt lat="36.7232856750488" lon="-5.11173009872436">
        <ele>798</ele>
        <time>2019-05-11T10:42:58Z</time>
      </trkpt>
      <trkpt lat="36.7232475280762" lon="-5.11169481277466">
        <ele>798</ele>
        <time>2019-05-11T10:43:00Z</time>
      </trkpt>
      <trkpt lat="36.7231979370117" lon="-5.1116418838501">
        <ele>798</ele>
        <time>2019-05-11T10:43:02Z</time>
      </trkpt>
      <trkpt lat="36.7231750488281" lon="-5.11160802841186">
        <ele>798</ele>
        <time>2019-05-11T10:43:04Z</time>
      </trkpt>
      <trkpt lat="36.7231559753418" lon="-5.11157703399658">
        <ele>798</ele>
        <time>2019-05-11T10:43:06Z</time>
      </trkpt>
      <trkpt lat="36.7231369018555" lon="-5.11154317855835">
        <ele>798</ele>
        <time>2019-05-11T10:43:08Z</time>
      </trkpt>
      <trkpt lat="36.7231178283691" lon="-5.11150789260864">
        <ele>798</ele>
        <time>2019-05-11T10:43:10Z</time>
      </trkpt>
      <trkpt lat="36.7230987548828" lon="-5.11147212982178">
        <ele>798</ele>
        <time>2019-05-11T10:43:12Z</time>
      </trkpt>
      <trkpt lat="36.7230834960938" lon="-5.11143779754639">
        <ele>798</ele>
        <time>2019-05-11T10:43:14Z</time>
      </trkpt>
      <trkpt lat="36.7230644226074" lon="-5.11140489578247">
        <ele>798</ele>
        <time>2019-05-11T10:43:16Z</time>
      </trkpt>
      <trkpt lat="36.7230415344238" lon="-5.11137294769287">
        <ele>798</ele>
        <time>2019-05-11T10:43:18Z</time>
      </trkpt>
      <trkpt lat="36.7230110168457" lon="-5.11133289337158">
        <ele>798</ele>
        <time>2019-05-11T10:43:21Z</time>
      </trkpt>
      <trkpt lat="36.7229843139648" lon="-5.11129283905029">
        <ele>798</ele>
        <time>2019-05-11T10:43:23Z</time>
      </trkpt>
      <trkpt lat="36.7229537963867" lon="-5.11125183105469">
        <ele>798</ele>
        <time>2019-05-11T10:43:25Z</time>
      </trkpt>
      <trkpt lat="36.7229232788086" lon="-5.11121797561646">
        <ele>798</ele>
        <time>2019-05-11T10:43:27Z</time>
      </trkpt>
      <trkpt lat="36.7228851318359" lon="-5.11119222640991">
        <ele>798</ele>
        <time>2019-05-11T10:43:29Z</time>
      </trkpt>
      <trkpt lat="36.7228469848633" lon="-5.11117315292358">
        <ele>798</ele>
        <time>2019-05-11T10:43:31Z</time>
      </trkpt>
      <trkpt lat="36.7228088378906" lon="-5.1111478805542">
        <ele>798</ele>
        <time>2019-05-11T10:43:33Z</time>
      </trkpt>
      <trkpt lat="36.7227668762207" lon="-5.11113023757935">
        <ele>798</ele>
        <time>2019-05-11T10:43:35Z</time>
      </trkpt>
      <trkpt lat="36.7227210998535" lon="-5.11111688613892">
        <ele>798</ele>
        <time>2019-05-11T10:43:37Z</time>
      </trkpt>
      <trkpt lat="36.72265625" lon="-5.11112022399902">
        <ele>796</ele>
        <time>2019-05-11T10:43:39Z</time>
      </trkpt>
      <trkpt lat="36.7226066589356" lon="-5.11111307144165">
        <ele>796</ele>
        <time>2019-05-11T10:43:41Z</time>
      </trkpt>
      <trkpt lat="36.7225608825684" lon="-5.11110305786133">
        <ele>795</ele>
        <time>2019-05-11T10:43:43Z</time>
      </trkpt>
      <trkpt lat="36.7225151062012" lon="-5.11108016967773">
        <ele>793</ele>
        <time>2019-05-11T10:43:45Z</time>
      </trkpt>
      <trkpt lat="36.7224731445312" lon="-5.11104297637939">
        <ele>793</ele>
        <time>2019-05-11T10:43:47Z</time>
      </trkpt>
      <trkpt lat="36.7224311828613" lon="-5.11100721359253">
        <ele>791</ele>
        <time>2019-05-11T10:43:49Z</time>
      </trkpt>
      <trkpt lat="36.7223854064941" lon="-5.11097812652588">
        <ele>791</ele>
        <time>2019-05-11T10:43:51Z</time>
      </trkpt>
      <trkpt lat="36.7223434448242" lon="-5.11095523834228">
        <ele>791</ele>
        <time>2019-05-11T10:43:53Z</time>
      </trkpt>
      <trkpt lat="36.7223014831543" lon="-5.11091709136963">
        <ele>791</ele>
        <time>2019-05-11T10:43:55Z</time>
      </trkpt>
      <trkpt lat="36.7222709655762" lon="-5.11087799072266">
        <ele>791</ele>
        <time>2019-05-11T10:43:58Z</time>
      </trkpt>
      <trkpt lat="36.7222366333008" lon="-5.11083793640137">
        <ele>791</ele>
        <time>2019-05-11T10:44:00Z</time>
      </trkpt>
      <trkpt lat="36.7221946716309" lon="-5.11080694198608">
        <ele>791</ele>
        <time>2019-05-11T10:44:02Z</time>
      </trkpt>
      <trkpt lat="36.7221527099609" lon="-5.11077690124512">
        <ele>791</ele>
        <time>2019-05-11T10:44:04Z</time>
      </trkpt>
      <trkpt lat="36.7221183776856" lon="-5.11074686050415">
        <ele>791</ele>
        <time>2019-05-11T10:44:06Z</time>
      </trkpt>
      <trkpt lat="36.7220878601074" lon="-5.11072206497192">
        <ele>791</ele>
        <time>2019-05-11T10:44:08Z</time>
      </trkpt>
      <trkpt lat="36.722053527832" lon="-5.11069011688232">
        <ele>791</ele>
        <time>2019-05-11T10:44:10Z</time>
      </trkpt>
      <trkpt lat="36.7220115661621" lon="-5.11066722869873">
        <ele>791</ele>
        <time>2019-05-11T10:44:12Z</time>
      </trkpt>
      <trkpt lat="36.7219429016113" lon="-5.11063194274902">
        <ele>791</ele>
        <time>2019-05-11T10:44:14Z</time>
      </trkpt>
      <trkpt lat="36.7218971252441" lon="-5.11059999465942">
        <ele>791</ele>
        <time>2019-05-11T10:44:16Z</time>
      </trkpt>
      <trkpt lat="36.7218589782715" lon="-5.11056518554688">
        <ele>791</ele>
        <time>2019-05-11T10:44:18Z</time>
      </trkpt>
      <trkpt lat="36.7218170166016" lon="-5.11053705215454">
        <ele>791</ele>
        <time>2019-05-11T10:44:20Z</time>
      </trkpt>
      <trkpt lat="36.7217788696289" lon="-5.11050319671631">
        <ele>791</ele>
        <time>2019-05-11T10:44:22Z</time>
      </trkpt>
      <trkpt lat="36.7217330932617" lon="-5.11047220230103">
        <ele>791</ele>
        <time>2019-05-11T10:44:24Z</time>
      </trkpt>
      <trkpt lat="36.7216911315918" lon="-5.11044979095459">
        <ele>791</ele>
        <time>2019-05-11T10:44:26Z</time>
      </trkpt>
      <trkpt lat="36.7216491699219" lon="-5.11043500900269">
        <ele>791</ele>
        <time>2019-05-11T10:44:28Z</time>
      </trkpt>
      <trkpt lat="36.7216186523438" lon="-5.11040496826172">
        <ele>791</ele>
        <time>2019-05-11T10:44:30Z</time>
      </trkpt>
      <trkpt lat="36.7215690612793" lon="-5.11037302017212">
        <ele>791</ele>
        <time>2019-05-11T10:44:32Z</time>
      </trkpt>
      <trkpt lat="36.7215309143066" lon="-5.11034202575684">
        <ele>791</ele>
        <time>2019-05-11T10:44:35Z</time>
      </trkpt>
      <trkpt lat="36.7214889526367" lon="-5.11032819747925">
        <ele>791</ele>
        <time>2019-05-11T10:44:37Z</time>
      </trkpt>
      <trkpt lat="36.721435546875" lon="-5.11031723022461">
        <ele>791</ele>
        <time>2019-05-11T10:44:39Z</time>
      </trkpt>
      <trkpt lat="36.7213897705078" lon="-5.11029815673828">
        <ele>791</ele>
        <time>2019-05-11T10:44:41Z</time>
      </trkpt>
      <trkpt lat="36.7213401794434" lon="-5.11028814315796">
        <ele>791</ele>
        <time>2019-05-11T10:44:43Z</time>
      </trkpt>
      <trkpt lat="36.7212944030762" lon="-5.11027479171753">
        <ele>791</ele>
        <time>2019-05-11T10:44:45Z</time>
      </trkpt>
      <trkpt lat="36.7212448120117" lon="-5.11026191711426">
        <ele>791</ele>
        <time>2019-05-11T10:44:47Z</time>
      </trkpt>
      <trkpt lat="36.7212028503418" lon="-5.11026191711426">
        <ele>791</ele>
        <time>2019-05-11T10:44:49Z</time>
      </trkpt>
      <trkpt lat="36.7211608886719" lon="-5.11024522781372">
        <ele>791</ele>
        <time>2019-05-11T10:44:51Z</time>
      </trkpt>
      <trkpt lat="36.7211112976074" lon="-5.11022520065308">
        <ele>791</ele>
        <time>2019-05-11T10:44:53Z</time>
      </trkpt>
      <trkpt lat="36.721076965332" lon="-5.11020708084106">
        <ele>790</ele>
        <time>2019-05-11T10:44:55Z</time>
      </trkpt>
      <trkpt lat="36.7210388183594" lon="-5.11019802093506">
        <ele>789</ele>
        <time>2019-05-11T10:44:57Z</time>
      </trkpt>
      <trkpt lat="36.7209930419922" lon="-5.11018800735474">
        <ele>788</ele>
        <time>2019-05-11T10:44:59Z</time>
      </trkpt>
      <trkpt lat="36.720947265625" lon="-5.110182762146">
        <ele>786</ele>
        <time>2019-05-11T10:45:01Z</time>
      </trkpt>
      <trkpt lat="36.7209091186523" lon="-5.110182762146">
        <ele>785</ele>
        <time>2019-05-11T10:45:03Z</time>
      </trkpt>
      <trkpt lat="36.7208671569824" lon="-5.11018991470337">
        <ele>785</ele>
        <time>2019-05-11T10:45:05Z</time>
      </trkpt>
      <trkpt lat="36.7208213806152" lon="-5.11018800735474">
        <ele>784</ele>
        <time>2019-05-11T10:45:07Z</time>
      </trkpt>
      <trkpt lat="36.7207794189453" lon="-5.11018705368042">
        <ele>783</ele>
        <time>2019-05-11T10:45:09Z</time>
      </trkpt>
      <trkpt lat="36.7207336425781" lon="-5.11017990112305">
        <ele>782</ele>
        <time>2019-05-11T10:45:11Z</time>
      </trkpt>
      <trkpt lat="36.7206840515137" lon="-5.11016988754272">
        <ele>781</ele>
        <time>2019-05-11T10:45:14Z</time>
      </trkpt>
      <trkpt lat="36.720630645752" lon="-5.11017179489136">
        <ele>780</ele>
        <time>2019-05-11T10:45:16Z</time>
      </trkpt>
      <trkpt lat="36.7205810546875" lon="-5.11016178131104">
        <ele>779</ele>
        <time>2019-05-11T10:45:18Z</time>
      </trkpt>
      <trkpt lat="36.720531463623" lon="-5.11015176773071">
        <ele>778</ele>
        <time>2019-05-11T10:45:20Z</time>
      </trkpt>
      <trkpt lat="36.7204818725586" lon="-5.11015176773071">
        <ele>778</ele>
        <time>2019-05-11T10:45:22Z</time>
      </trkpt>
      <trkpt lat="36.7204322814941" lon="-5.11014795303345">
        <ele>778</ele>
        <time>2019-05-11T10:45:24Z</time>
      </trkpt>
      <trkpt lat="36.7203826904297" lon="-5.11015176773071">
        <ele>778</ele>
        <time>2019-05-11T10:45:26Z</time>
      </trkpt>
      <trkpt lat="36.7203369140625" lon="-5.11015176773071">
        <ele>776</ele>
        <time>2019-05-11T10:45:28Z</time>
      </trkpt>
      <trkpt lat="36.7202911376953" lon="-5.11014318466186">
        <ele>776</ele>
        <time>2019-05-11T10:45:30Z</time>
      </trkpt>
      <trkpt lat="36.7202262878418" lon="-5.11016178131104">
        <ele>776</ele>
        <time>2019-05-11T10:45:32Z</time>
      </trkpt>
      <trkpt lat="36.7201843261719" lon="-5.1101770401001">
        <ele>776</ele>
        <time>2019-05-11T10:45:34Z</time>
      </trkpt>
      <trkpt lat="36.720142364502" lon="-5.11018514633179">
        <ele>776</ele>
        <time>2019-05-11T10:45:36Z</time>
      </trkpt>
      <trkpt lat="36.720100402832" lon="-5.11018991470337">
        <ele>776</ele>
        <time>2019-05-11T10:45:38Z</time>
      </trkpt>
      <trkpt lat="36.7200622558594" lon="-5.11018705368042">
        <ele>776</ele>
        <time>2019-05-11T10:45:40Z</time>
      </trkpt>
      <trkpt lat="36.720027923584" lon="-5.11018705368042">
        <ele>776</ele>
        <time>2019-05-11T10:45:42Z</time>
      </trkpt>
      <trkpt lat="36.7199859619141" lon="-5.110182762146">
        <ele>776</ele>
        <time>2019-05-11T10:45:44Z</time>
      </trkpt>
      <trkpt lat="36.7199401855469" lon="-5.11017179489136">
        <ele>776</ele>
        <time>2019-05-11T10:45:46Z</time>
      </trkpt>
      <trkpt lat="36.719898223877" lon="-5.11016178131104">
        <ele>776</ele>
        <time>2019-05-11T10:45:48Z</time>
      </trkpt>
      <trkpt lat="36.719856262207" lon="-5.11014986038208">
        <ele>776</ele>
        <time>2019-05-11T10:45:50Z</time>
      </trkpt>
      <trkpt lat="36.7198143005371" lon="-5.11014986038208">
        <ele>776</ele>
        <time>2019-05-11T10:45:53Z</time>
      </trkpt>
      <trkpt lat="36.7197761535644" lon="-5.11014986038208">
        <ele>776</ele>
        <time>2019-05-11T10:45:55Z</time>
      </trkpt>
      <trkpt lat="36.7197456359863" lon="-5.11014986038208">
        <ele>776</ele>
        <time>2019-05-11T10:45:57Z</time>
      </trkpt>
      <trkpt lat="36.7197151184082" lon="-5.11014795303345">
        <ele>776</ele>
        <time>2019-05-11T10:45:59Z</time>
      </trkpt>
      <trkpt lat="36.7196884155273" lon="-5.1101450920105">
        <ele>776</ele>
        <time>2019-05-11T10:46:01Z</time>
      </trkpt>
      <trkpt lat="36.7196578979492" lon="-5.11013984680176">
        <ele>776</ele>
        <time>2019-05-11T10:46:03Z</time>
      </trkpt>
      <trkpt lat="36.7196311950684" lon="-5.1101279258728">
        <ele>776</ele>
        <time>2019-05-11T10:46:05Z</time>
      </trkpt>
      <trkpt lat="36.7196006774902" lon="-5.11011981964111">
        <ele>776</ele>
        <time>2019-05-11T10:46:07Z</time>
      </trkpt>
      <trkpt lat="36.7195587158203" lon="-5.11011219024658">
        <ele>776</ele>
        <time>2019-05-11T10:46:09Z</time>
      </trkpt>
      <trkpt lat="36.7195320129394" lon="-5.11010217666626">
        <ele>776</ele>
        <time>2019-05-11T10:46:11Z</time>
      </trkpt>
      <trkpt lat="36.7195014953613" lon="-5.11009311676025">
        <ele>776</ele>
        <time>2019-05-11T10:46:13Z</time>
      </trkpt>
      <trkpt lat="36.7194747924805" lon="-5.11008214950562">
        <ele>776</ele>
        <time>2019-05-11T10:46:15Z</time>
      </trkpt>
      <trkpt lat="36.7194480895996" lon="-5.11007022857666">
        <ele>776</ele>
        <time>2019-05-11T10:46:17Z</time>
      </trkpt>
      <trkpt lat="36.7194175720215" lon="-5.11005687713623">
        <ele>776</ele>
        <time>2019-05-11T10:46:19Z</time>
      </trkpt>
      <trkpt lat="36.7193870544434" lon="-5.11004495620728">
        <ele>776</ele>
        <time>2019-05-11T10:46:21Z</time>
      </trkpt>
      <trkpt lat="36.7193565368652" lon="-5.110032081604">
        <ele>776</ele>
        <time>2019-05-11T10:46:23Z</time>
      </trkpt>
      <trkpt lat="36.7193336486816" lon="-5.11001300811768">
        <ele>776</ele>
        <time>2019-05-11T10:46:25Z</time>
      </trkpt>
      <trkpt lat="36.7193031311035" lon="-5.1100001335144">
        <ele>776</ele>
        <time>2019-05-11T10:46:28Z</time>
      </trkpt>
      <trkpt lat="36.7192764282227" lon="-5.10998296737671">
        <ele>776</ele>
        <time>2019-05-11T10:46:30Z</time>
      </trkpt>
      <trkpt lat="36.7192459106445" lon="-5.10996723175049">
        <ele>776</ele>
        <time>2019-05-11T10:46:32Z</time>
      </trkpt>
      <trkpt lat="36.7192192077637" lon="-5.10995197296143">
        <ele>776</ele>
        <time>2019-05-11T10:46:34Z</time>
      </trkpt>
      <trkpt lat="36.7191886901856" lon="-5.10993719100952">
        <ele>776</ele>
        <time>2019-05-11T10:46:36Z</time>
      </trkpt>
      <trkpt lat="36.7191619873047" lon="-5.10991811752319">
        <ele>776</ele>
        <time>2019-05-11T10:46:38Z</time>
      </trkpt>
      <trkpt lat="36.7191314697266" lon="-5.10990285873413">
        <ele>777</ele>
        <time>2019-05-11T10:46:40Z</time>
      </trkpt>
      <trkpt lat="36.7191047668457" lon="-5.10988807678223">
        <ele>777</ele>
        <time>2019-05-11T10:46:42Z</time>
      </trkpt>
      <trkpt lat="36.7190628051758" lon="-5.10986280441284">
        <ele>777</ele>
        <time>2019-05-11T10:46:44Z</time>
      </trkpt>
      <trkpt lat="36.7190361022949" lon="-5.10984992980957">
        <ele>777</ele>
        <time>2019-05-11T10:46:46Z</time>
      </trkpt>
      <trkpt lat="36.7190017700195" lon="-5.10983276367188">
        <ele>777</ele>
        <time>2019-05-11T10:46:48Z</time>
      </trkpt>
      <trkpt lat="36.7189788818359" lon="-5.10981798171997">
        <ele>777</ele>
        <time>2019-05-11T10:46:50Z</time>
      </trkpt>
      <trkpt lat="36.7189483642578" lon="-5.10980319976807">
        <ele>777</ele>
        <time>2019-05-11T10:46:52Z</time>
      </trkpt>
      <trkpt lat="36.718921661377" lon="-5.10979223251343">
        <ele>777</ele>
        <time>2019-05-11T10:46:54Z</time>
      </trkpt>
      <trkpt lat="36.7188987731934" lon="-5.10976696014404">
        <ele>777</ele>
        <time>2019-05-11T10:46:56Z</time>
      </trkpt>
      <trkpt lat="36.7188720703125" lon="-5.1097469329834">
        <ele>777</ele>
        <time>2019-05-11T10:46:58Z</time>
      </trkpt>
      <trkpt lat="36.7188453674316" lon="-5.1097297668457">
        <ele>777</ele>
        <time>2019-05-11T10:47:00Z</time>
      </trkpt>
      <trkpt lat="36.7188186645508" lon="-5.10971212387085">
        <ele>777</ele>
        <time>2019-05-11T10:47:02Z</time>
      </trkpt>
      <trkpt lat="36.7187957763672" lon="-5.1096920967102">
        <ele>777</ele>
        <time>2019-05-11T10:47:05Z</time>
      </trkpt>
      <trkpt lat="36.7187690734863" lon="-5.10966682434082">
        <ele>777</ele>
        <time>2019-05-11T10:47:07Z</time>
      </trkpt>
      <trkpt lat="36.7187461853027" lon="-5.10965013504028">
        <ele>777</ele>
        <time>2019-05-11T10:47:09Z</time>
      </trkpt>
      <trkpt lat="36.7187309265137" lon="-5.10962677001953">
        <ele>777</ele>
        <time>2019-05-11T10:47:11Z</time>
      </trkpt>
      <trkpt lat="36.7187118530273" lon="-5.1096019744873">
        <ele>777</ele>
        <time>2019-05-11T10:47:13Z</time>
      </trkpt>
      <trkpt lat="36.7186889648438" lon="-5.10957717895508">
        <ele>777</ele>
        <time>2019-05-11T10:47:15Z</time>
      </trkpt>
      <trkpt lat="36.7186698913574" lon="-5.10955190658569">
        <ele>777</ele>
        <time>2019-05-11T10:47:17Z</time>
      </trkpt>
      <trkpt lat="36.7186470031738" lon="-5.10952711105347">
        <ele>778</ele>
        <time>2019-05-11T10:47:19Z</time>
      </trkpt>
      <trkpt lat="36.7186279296875" lon="-5.10949993133545">
        <ele>778</ele>
        <time>2019-05-11T10:47:21Z</time>
      </trkpt>
      <trkpt lat="36.7186088562012" lon="-5.10947513580322">
        <ele>778</ele>
        <time>2019-05-11T10:47:23Z</time>
      </trkpt>
      <trkpt lat="36.718578338623" lon="-5.10943698883057">
        <ele>778</ele>
        <time>2019-05-11T10:47:25Z</time>
      </trkpt>
      <trkpt lat="36.7185592651367" lon="-5.10941505432129">
        <ele>779</ele>
        <time>2019-05-11T10:47:27Z</time>
      </trkpt>
      <trkpt lat="36.7185401916504" lon="-5.1093921661377">
        <ele>779</ele>
        <time>2019-05-11T10:47:29Z</time>
      </trkpt>
      <trkpt lat="36.7185211181641" lon="-5.10936498641968">
        <ele>779</ele>
        <time>2019-05-11T10:47:31Z</time>
      </trkpt>
      <trkpt lat="36.7185020446777" lon="-5.10933685302734">
        <ele>780</ele>
        <time>2019-05-11T10:47:33Z</time>
      </trkpt>
      <trkpt lat="36.7184791564941" lon="-5.10930681228638">
        <ele>780</ele>
        <time>2019-05-11T10:47:35Z</time>
      </trkpt>
      <trkpt lat="36.7184600830078" lon="-5.10928201675415">
        <ele>780</ele>
        <time>2019-05-11T10:47:37Z</time>
      </trkpt>
      <trkpt lat="36.7184410095215" lon="-5.10925817489624">
        <ele>780</ele>
        <time>2019-05-11T10:47:39Z</time>
      </trkpt>
      <trkpt lat="36.7184219360352" lon="-5.10923480987549">
        <ele>780</ele>
        <time>2019-05-11T10:47:41Z</time>
      </trkpt>
      <trkpt lat="36.7184028625488" lon="-5.10921001434326">
        <ele>780</ele>
        <time>2019-05-11T10:47:44Z</time>
      </trkpt>
      <trkpt lat="36.7183876037598" lon="-5.10917806625366">
        <ele>780</ele>
        <time>2019-05-11T10:47:46Z</time>
      </trkpt>
      <trkpt lat="36.718376159668" lon="-5.10914516448975">
        <ele>780</ele>
        <time>2019-05-11T10:47:48Z</time>
      </trkpt>
      <trkpt lat="36.7183647155762" lon="-5.10911512374878">
        <ele>780</ele>
        <time>2019-05-11T10:47:50Z</time>
      </trkpt>
      <trkpt lat="36.7183532714844" lon="-5.10907983779907">
        <ele>781</ele>
        <time>2019-05-11T10:47:52Z</time>
      </trkpt>
      <trkpt lat="36.7183418273926" lon="-5.10904788970947">
        <ele>782</ele>
        <time>2019-05-11T10:47:54Z</time>
      </trkpt>
      <trkpt lat="36.7183303833008" lon="-5.10901498794556">
        <ele>782</ele>
        <time>2019-05-11T10:47:56Z</time>
      </trkpt>
      <trkpt lat="36.718318939209" lon="-5.10898208618164">
        <ele>783</ele>
        <time>2019-05-11T10:47:58Z</time>
      </trkpt>
      <trkpt lat="36.7183113098144" lon="-5.10894680023193">
        <ele>783</ele>
        <time>2019-05-11T10:48:00Z</time>
      </trkpt>
      <trkpt lat="36.7182922363281" lon="-5.1088981628418">
        <ele>783</ele>
        <time>2019-05-11T10:48:02Z</time>
      </trkpt>
      <trkpt lat="36.7182807922363" lon="-5.10887002944946">
        <ele>783</ele>
        <time>2019-05-11T10:48:04Z</time>
      </trkpt>
      <trkpt lat="36.7182655334473" lon="-5.1088399887085">
        <ele>784</ele>
        <time>2019-05-11T10:48:06Z</time>
      </trkpt>
      <trkpt lat="36.7182502746582" lon="-5.10880994796753">
        <ele>784</ele>
        <time>2019-05-11T10:48:08Z</time>
      </trkpt>
      <trkpt lat="36.7182350158691" lon="-5.1087818145752">
        <ele>784</ele>
        <time>2019-05-11T10:48:10Z</time>
      </trkpt>
      <trkpt lat="36.7182235717773" lon="-5.1087532043457">
        <ele>784</ele>
        <time>2019-05-11T10:48:12Z</time>
      </trkpt>
      <trkpt lat="36.718204498291" lon="-5.108726978302">
        <ele>784</ele>
        <time>2019-05-11T10:48:14Z</time>
      </trkpt>
      <trkpt lat="36.7181854248047" lon="-5.10869789123535">
        <ele>784</ele>
        <time>2019-05-11T10:48:16Z</time>
      </trkpt>
      <trkpt lat="36.7181663513184" lon="-5.10866785049438">
        <ele>784</ele>
        <time>2019-05-11T10:48:18Z</time>
      </trkpt>
      <trkpt lat="36.7181434631348" lon="-5.10864210128784">
        <ele>784</ele>
        <time>2019-05-11T10:48:21Z</time>
      </trkpt>
      <trkpt lat="36.7181243896484" lon="-5.10861301422119">
        <ele>784</ele>
        <time>2019-05-11T10:48:23Z</time>
      </trkpt>
      <trkpt lat="36.7181015014648" lon="-5.10857820510864">
        <ele>784</ele>
        <time>2019-05-11T10:48:25Z</time>
      </trkpt>
      <trkpt lat="36.7180709838867" lon="-5.10853290557861">
        <ele>784</ele>
        <time>2019-05-11T10:48:27Z</time>
      </trkpt>
      <trkpt lat="36.7180442810059" lon="-5.10848522186279">
        <ele>784</ele>
        <time>2019-05-11T10:48:29Z</time>
      </trkpt>
      <trkpt lat="36.7180137634277" lon="-5.10843992233276">
        <ele>784</ele>
        <time>2019-05-11T10:48:31Z</time>
      </trkpt>
      <trkpt lat="36.7179756164551" lon="-5.1084098815918">
        <ele>784</ele>
        <time>2019-05-11T10:48:33Z</time>
      </trkpt>
      <trkpt lat="36.7179412841797" lon="-5.1083869934082">
        <ele>784</ele>
        <time>2019-05-11T10:48:35Z</time>
      </trkpt>
      <trkpt lat="36.717887878418" lon="-5.1083550453186">
        <ele>784</ele>
        <time>2019-05-11T10:48:37Z</time>
      </trkpt>
      <trkpt lat="36.7178115844727" lon="-5.10831785202026">
        <ele>784</ele>
        <time>2019-05-11T10:48:39Z</time>
      </trkpt>
      <trkpt lat="36.7177696228027" lon="-5.1082878112793">
        <ele>784</ele>
        <time>2019-05-11T10:48:41Z</time>
      </trkpt>
      <trkpt lat="36.7177314758301" lon="-5.10824823379517">
        <ele>783</ele>
        <time>2019-05-11T10:48:43Z</time>
      </trkpt>
      <trkpt lat="36.7176933288574" lon="-5.10820722579956">
        <ele>783</ele>
        <time>2019-05-11T10:48:45Z</time>
      </trkpt>
      <trkpt lat="36.7176513671875" lon="-5.10816478729248">
        <ele>781</ele>
        <time>2019-05-11T10:48:47Z</time>
      </trkpt>
      <trkpt lat="36.7176208496094" lon="-5.10812520980835">
        <ele>781</ele>
        <time>2019-05-11T10:48:49Z</time>
      </trkpt>
      <trkpt lat="36.717586517334" lon="-5.10809803009033">
        <ele>781</ele>
        <time>2019-05-11T10:48:51Z</time>
      </trkpt>
      <trkpt lat="36.7175521850586" lon="-5.108069896698">
        <ele>780</ele>
        <time>2019-05-11T10:48:53Z</time>
      </trkpt>
      <trkpt lat="36.7175216674805" lon="-5.10802984237671">
        <ele>780</ele>
        <time>2019-05-11T10:48:55Z</time>
      </trkpt>
      <trkpt lat="36.7174873352051" lon="-5.1079831123352">
        <ele>780</ele>
        <time>2019-05-11T10:48:57Z</time>
      </trkpt>
      <trkpt lat="36.7174530029297" lon="-5.10794496536255">
        <ele>780</ele>
        <time>2019-05-11T10:49:00Z</time>
      </trkpt>
      <trkpt lat="36.7174224853516" lon="-5.10790681838989">
        <ele>780</ele>
        <time>2019-05-11T10:49:02Z</time>
      </trkpt>
      <trkpt lat="36.7174034118652" lon="-5.10785818099976">
        <ele>779</ele>
        <time>2019-05-11T10:49:04Z</time>
      </trkpt>
      <trkpt lat="36.7173728942871" lon="-5.10781478881836">
        <ele>779</ele>
        <time>2019-05-11T10:49:06Z</time>
      </trkpt>
      <trkpt lat="36.7173385620117" lon="-5.10777807235718">
        <ele>779</ele>
        <time>2019-05-11T10:49:08Z</time>
      </trkpt>
      <trkpt lat="36.7172966003418" lon="-5.10774183273315">
        <ele>779</ele>
        <time>2019-05-11T10:49:10Z</time>
      </trkpt>
      <trkpt lat="36.7172737121582" lon="-5.10769987106323">
        <ele>779</ele>
        <time>2019-05-11T10:49:12Z</time>
      </trkpt>
      <trkpt lat="36.7172355651856" lon="-5.10766220092773">
        <ele>779</ele>
        <time>2019-05-11T10:49:14Z</time>
      </trkpt>
      <trkpt lat="36.7171936035156" lon="-5.10761022567749">
        <ele>779</ele>
        <time>2019-05-11T10:49:16Z</time>
      </trkpt>
      <trkpt lat="36.7171630859375" lon="-5.10757780075073">
        <ele>779</ele>
        <time>2019-05-11T10:49:18Z</time>
      </trkpt>
      <trkpt lat="36.7171287536621" lon="-5.10754203796387">
        <ele>779</ele>
        <time>2019-05-11T10:49:20Z</time>
      </trkpt>
      <trkpt lat="36.717098236084" lon="-5.10751295089722">
        <ele>779</ele>
        <time>2019-05-11T10:49:22Z</time>
      </trkpt>
      <trkpt lat="36.7170639038086" lon="-5.10748195648193">
        <ele>779</ele>
        <time>2019-05-11T10:49:24Z</time>
      </trkpt>
      <trkpt lat="36.7170257568359" lon="-5.10745716094971">
        <ele>779</ele>
        <time>2019-05-11T10:49:26Z</time>
      </trkpt>
      <trkpt lat="36.7170066833496" lon="-5.10743188858032">
        <ele>779</ele>
        <time>2019-05-11T10:49:28Z</time>
      </trkpt>
      <trkpt lat="36.7169761657715" lon="-5.10741519927978">
        <ele>779</ele>
        <time>2019-05-11T10:49:30Z</time>
      </trkpt>
      <trkpt lat="36.7169532775879" lon="-5.10739183425903">
        <ele>779</ele>
        <time>2019-05-11T10:49:32Z</time>
      </trkpt>
      <trkpt lat="36.716926574707" lon="-5.10736799240112">
        <ele>779</ele>
        <time>2019-05-11T10:49:34Z</time>
      </trkpt>
      <trkpt lat="36.7169036865234" lon="-5.10734510421753">
        <ele>779</ele>
        <time>2019-05-11T10:49:37Z</time>
      </trkpt>
      <trkpt lat="36.7168769836426" lon="-5.10732507705688">
        <ele>779</ele>
        <time>2019-05-11T10:49:39Z</time>
      </trkpt>
      <trkpt lat="36.7168502807617" lon="-5.10730504989624">
        <ele>779</ele>
        <time>2019-05-11T10:49:41Z</time>
      </trkpt>
      <trkpt lat="36.7168235778809" lon="-5.10728311538696">
        <ele>779</ele>
        <time>2019-05-11T10:49:43Z</time>
      </trkpt>
      <trkpt lat="36.7168006896973" lon="-5.10726022720337">
        <ele>779</ele>
        <time>2019-05-11T10:49:45Z</time>
      </trkpt>
      <trkpt lat="36.7167739868164" lon="-5.10724210739136">
        <ele>779</ele>
        <time>2019-05-11T10:49:47Z</time>
      </trkpt>
      <trkpt lat="36.7167472839356" lon="-5.10722303390503">
        <ele>779</ele>
        <time>2019-05-11T10:49:49Z</time>
      </trkpt>
      <trkpt lat="36.7167205810547" lon="-5.10720682144165">
        <ele>779</ele>
        <time>2019-05-11T10:49:51Z</time>
      </trkpt>
      <trkpt lat="36.716682434082" lon="-5.10718011856079">
        <ele>779</ele>
        <time>2019-05-11T10:49:53Z</time>
      </trkpt>
      <trkpt lat="36.7166595458984" lon="-5.1071629524231">
        <ele>779</ele>
        <time>2019-05-11T10:49:55Z</time>
      </trkpt>
      <trkpt lat="36.7166366577148" lon="-5.10714292526245">
        <ele>779</ele>
        <time>2019-05-11T10:49:57Z</time>
      </trkpt>
      <trkpt lat="36.7166175842285" lon="-5.10711717605591">
        <ele>779</ele>
        <time>2019-05-11T10:49:59Z</time>
      </trkpt>
      <trkpt lat="36.7166061401367" lon="-5.1070818901062">
        <ele>779</ele>
        <time>2019-05-11T10:50:01Z</time>
      </trkpt>
      <trkpt lat="36.7166023254394" lon="-5.10704517364502">
        <ele>780</ele>
        <time>2019-05-11T10:50:03Z</time>
      </trkpt>
      <trkpt lat="36.7166061401367" lon="-5.10700702667236">
        <ele>780</ele>
        <time>2019-05-11T10:50:05Z</time>
      </trkpt>
      <trkpt lat="36.7166175842285" lon="-5.10696792602539">
        <ele>781</ele>
        <time>2019-05-11T10:50:07Z</time>
      </trkpt>
      <trkpt lat="36.716625213623" lon="-5.10692977905273">
        <ele>781</ele>
        <time>2019-05-11T10:50:09Z</time>
      </trkpt>
      <trkpt lat="36.7166328430176" lon="-5.10689210891724">
        <ele>781</ele>
        <time>2019-05-11T10:50:12Z</time>
      </trkpt>
      <trkpt lat="36.7166442871094" lon="-5.10685682296753">
        <ele>781</ele>
        <time>2019-05-11T10:50:14Z</time>
      </trkpt>
      <trkpt lat="36.7166557312012" lon="-5.1068229675293">
        <ele>781</ele>
        <time>2019-05-11T10:50:16Z</time>
      </trkpt>
      <trkpt lat="36.7166633605957" lon="-5.10678720474243">
        <ele>781</ele>
        <time>2019-05-11T10:50:18Z</time>
      </trkpt>
      <trkpt lat="36.7166709899902" lon="-5.10675001144409">
        <ele>782</ele>
        <time>2019-05-11T10:50:20Z</time>
      </trkpt>
      <trkpt lat="36.716682434082" lon="-5.10671281814575">
        <ele>782</ele>
        <time>2019-05-11T10:50:22Z</time>
      </trkpt>
      <trkpt lat="36.7166900634766" lon="-5.10668182373047">
        <ele>782</ele>
        <time>2019-05-11T10:50:24Z</time>
      </trkpt>
      <trkpt lat="36.7166938781738" lon="-5.10664701461792">
        <ele>782</ele>
        <time>2019-05-11T10:50:26Z</time>
      </trkpt>
      <trkpt lat="36.7166976928711" lon="-5.10661315917969">
        <ele>782</ele>
        <time>2019-05-11T10:50:28Z</time>
      </trkpt>
      <trkpt lat="36.7167053222656" lon="-5.10656690597534">
        <ele>783</ele>
        <time>2019-05-11T10:50:30Z</time>
      </trkpt>
      <trkpt lat="36.7167053222656" lon="-5.10653209686279">
        <ele>783</ele>
        <time>2019-05-11T10:50:32Z</time>
      </trkpt>
      <trkpt lat="36.7167091369629" lon="-5.1064977645874">
        <ele>783</ele>
        <time>2019-05-11T10:50:34Z</time>
      </trkpt>
      <trkpt lat="36.7167129516602" lon="-5.10646486282349">
        <ele>783</ele>
        <time>2019-05-11T10:50:36Z</time>
      </trkpt>
      <trkpt lat="36.7167091369629" lon="-5.10643720626831">
        <ele>784</ele>
        <time>2019-05-11T10:50:38Z</time>
      </trkpt>
      <trkpt lat="36.7166938781738" lon="-5.10641288757324">
        <ele>784</ele>
        <time>2019-05-11T10:50:40Z</time>
      </trkpt>
      <trkpt lat="36.7166938781738" lon="-5.10639715194702">
        <ele>785</ele>
        <time>2019-05-11T10:50:42Z</time>
      </trkpt>
      <trkpt lat="36.7166938781738" lon="-5.1063928604126">
        <ele>785</ele>
        <time>2019-05-11T10:50:44Z</time>
      </trkpt>
      <trkpt lat="36.7166938781738" lon="-5.10639190673828">
        <ele>785</ele>
        <time>2019-05-11T10:50:46Z</time>
      </trkpt>
      <trkpt lat="36.7166938781738" lon="-5.10637187957764">
        <ele>786</ele>
        <time>2019-05-11T10:50:48Z</time>
      </trkpt>
      <trkpt lat="36.7166938781738" lon="-5.1063380241394">
        <ele>786</ele>
        <time>2019-05-11T10:50:51Z</time>
      </trkpt>
      <trkpt lat="36.7166976928711" lon="-5.10630512237549">
        <ele>786</ele>
        <time>2019-05-11T10:50:53Z</time>
      </trkpt>
      <trkpt lat="36.7167053222656" lon="-5.10626983642578">
        <ele>786</ele>
        <time>2019-05-11T10:50:55Z</time>
      </trkpt>
      <trkpt lat="36.7167167663574" lon="-5.10623788833618">
        <ele>786</ele>
        <time>2019-05-11T10:50:57Z</time>
      </trkpt>
      <trkpt lat="36.7167320251465" lon="-5.10621023178101">
        <ele>786</ele>
        <time>2019-05-11T10:50:59Z</time>
      </trkpt>
      <trkpt lat="36.7167472839356" lon="-5.10618019104004">
        <ele>786</ele>
        <time>2019-05-11T10:51:01Z</time>
      </trkpt>
      <trkpt lat="36.7167663574219" lon="-5.10615301132202">
        <ele>787</ele>
        <time>2019-05-11T10:51:03Z</time>
      </trkpt>
      <trkpt lat="36.7167892456055" lon="-5.1061282157898">
        <ele>787</ele>
        <time>2019-05-11T10:51:05Z</time>
      </trkpt>
      <trkpt lat="36.7168159484863" lon="-5.10608816146851">
        <ele>787</ele>
        <time>2019-05-11T10:51:07Z</time>
      </trkpt>
      <trkpt lat="36.7168350219727" lon="-5.10606288909912">
        <ele>787</ele>
        <time>2019-05-11T10:51:09Z</time>
      </trkpt>
      <trkpt lat="36.716854095459" lon="-5.10603713989258">
        <ele>787</ele>
        <time>2019-05-11T10:51:11Z</time>
      </trkpt>
      <trkpt lat="36.7168731689453" lon="-5.10600996017456">
        <ele>787</ele>
        <time>2019-05-11T10:51:13Z</time>
      </trkpt>
      <trkpt lat="36.7168922424316" lon="-5.10598707199097">
        <ele>787</ele>
        <time>2019-05-11T10:51:15Z</time>
      </trkpt>
      <trkpt lat="36.716911315918" lon="-5.10595798492432">
        <ele>787</ele>
        <time>2019-05-11T10:51:17Z</time>
      </trkpt>
      <trkpt lat="36.716926574707" lon="-5.10593223571777">
        <ele>787</ele>
        <time>2019-05-11T10:51:19Z</time>
      </trkpt>
      <trkpt lat="36.7169456481934" lon="-5.10590696334839">
        <ele>787</ele>
        <time>2019-05-11T10:51:21Z</time>
      </trkpt>
      <trkpt lat="36.7169647216797" lon="-5.10587787628174">
        <ele>787</ele>
        <time>2019-05-11T10:51:24Z</time>
      </trkpt>
      <trkpt lat="36.716983795166" lon="-5.10585021972656">
        <ele>787</ele>
        <time>2019-05-11T10:51:26Z</time>
      </trkpt>
      <trkpt lat="36.7169990539551" lon="-5.10582494735718">
        <ele>787</ele>
        <time>2019-05-11T10:51:28Z</time>
      </trkpt>
      <trkpt lat="36.7170143127441" lon="-5.1058030128479">
        <ele>787</ele>
        <time>2019-05-11T10:51:30Z</time>
      </trkpt>
      <trkpt lat="36.7170333862305" lon="-5.10578012466431">
        <ele>787</ele>
        <time>2019-05-11T10:51:32Z</time>
      </trkpt>
      <trkpt lat="36.7170524597168" lon="-5.10574817657471">
        <ele>788</ele>
        <time>2019-05-11T10:51:34Z</time>
      </trkpt>
      <trkpt lat="36.7170715332031" lon="-5.10572004318237">
        <ele>788</ele>
        <time>2019-05-11T10:51:36Z</time>
      </trkpt>
      <trkpt lat="36.7170906066894" lon="-5.10569477081299">
        <ele>789</ele>
        <time>2019-05-11T10:51:38Z</time>
      </trkpt>
      <trkpt lat="36.717113494873" lon="-5.10567283630371">
        <ele>789</ele>
        <time>2019-05-11T10:51:40Z</time>
      </trkpt>
      <trkpt lat="36.7171516418457" lon="-5.10563802719116">
        <ele>790</ele>
        <time>2019-05-11T10:51:42Z</time>
      </trkpt>
      <trkpt lat="36.7171783447266" lon="-5.10561800003052">
        <ele>790</ele>
        <time>2019-05-11T10:51:44Z</time>
      </trkpt>
      <trkpt lat="36.7172012329102" lon="-5.10559797286987">
        <ele>790</ele>
        <time>2019-05-11T10:51:46Z</time>
      </trkpt>
      <trkpt lat="36.7172317504883" lon="-5.10558319091797">
        <ele>790</ele>
        <time>2019-05-11T10:51:48Z</time>
      </trkpt>
      <trkpt lat="36.7172584533691" lon="-5.10556316375732">
        <ele>790</ele>
        <time>2019-05-11T10:51:50Z</time>
      </trkpt>
      <trkpt lat="36.71728515625" lon="-5.10554504394531">
        <ele>790</ele>
        <time>2019-05-11T10:51:52Z</time>
      </trkpt>
      <trkpt lat="36.7173118591309" lon="-5.10552310943604">
        <ele>790</ele>
        <time>2019-05-11T10:51:54Z</time>
      </trkpt>
      <trkpt lat="36.7173309326172" lon="-5.10549783706665">
        <ele>790</ele>
        <time>2019-05-11T10:51:56Z</time>
      </trkpt>
      <trkpt lat="36.7173538208008" lon="-5.10547780990601">
        <ele>790</ele>
        <time>2019-05-11T10:51:59Z</time>
      </trkpt>
      <trkpt lat="36.7173767089844" lon="-5.10545682907104">
        <ele>790</ele>
        <time>2019-05-11T10:52:01Z</time>
      </trkpt>
      <trkpt lat="36.717399597168" lon="-5.10543203353882">
        <ele>790</ele>
        <time>2019-05-11T10:52:03Z</time>
      </trkpt>
      <trkpt lat="36.7174186706543" lon="-5.1054048538208">
        <ele>790</ele>
        <time>2019-05-11T10:52:05Z</time>
      </trkpt>
      <trkpt lat="36.7174415588379" lon="-5.10538005828857">
        <ele>790</ele>
        <time>2019-05-11T10:52:07Z</time>
      </trkpt>
      <trkpt lat="36.7174606323242" lon="-5.1053581237793">
        <ele>790</ele>
        <time>2019-05-11T10:52:09Z</time>
      </trkpt>
      <trkpt lat="36.7174835205078" lon="-5.1053352355957">
        <ele>790</ele>
        <time>2019-05-11T10:52:11Z</time>
      </trkpt>
      <trkpt lat="36.7175025939941" lon="-5.10530996322632">
        <ele>790</ele>
        <time>2019-05-11T10:52:13Z</time>
      </trkpt>
      <trkpt lat="36.717529296875" lon="-5.10529708862305">
        <ele>790</ele>
        <time>2019-05-11T10:52:15Z</time>
      </trkpt>
      <trkpt lat="36.7175712585449" lon="-5.10528993606567">
        <ele>790</ele>
        <time>2019-05-11T10:52:17Z</time>
      </trkpt>
      <trkpt lat="36.717601776123" lon="-5.10528993606567">
        <ele>790</ele>
        <time>2019-05-11T10:52:19Z</time>
      </trkpt>
      <trkpt lat="36.7176246643066" lon="-5.105299949646">
        <ele>790</ele>
        <time>2019-05-11T10:52:21Z</time>
      </trkpt>
      <trkpt lat="36.7176513671875" lon="-5.10530710220337">
        <ele>790</ele>
        <time>2019-05-11T10:52:23Z</time>
      </trkpt>
      <trkpt lat="36.7176818847656" lon="-5.10531282424927">
        <ele>790</ele>
        <time>2019-05-11T10:52:25Z</time>
      </trkpt>
      <trkpt lat="36.7177047729492" lon="-5.10531806945801">
        <ele>790</ele>
        <time>2019-05-11T10:52:27Z</time>
      </trkpt>
      <trkpt lat="36.7177314758301" lon="-5.10531711578369">
        <ele>790</ele>
        <time>2019-05-11T10:52:29Z</time>
      </trkpt>
      <trkpt lat="36.7177581787109" lon="-5.10530996322632">
        <ele>790</ele>
        <time>2019-05-11T10:52:31Z</time>
      </trkpt>
      <trkpt lat="36.7177848815918" lon="-5.105299949646">
        <ele>790</ele>
        <time>2019-05-11T10:52:33Z</time>
      </trkpt>
      <trkpt lat="36.7178039550781" lon="-5.10528802871704">
        <ele>789</ele>
        <time>2019-05-11T10:52:36Z</time>
      </trkpt>
      <trkpt lat="36.7178230285644" lon="-5.1052680015564">
        <ele>789</ele>
        <time>2019-05-11T10:52:38Z</time>
      </trkpt>
      <trkpt lat="36.7178382873535" lon="-5.10524702072144">
        <ele>788</ele>
        <time>2019-05-11T10:52:40Z</time>
      </trkpt>
      <trkpt lat="36.7178535461426" lon="-5.10522508621216">
        <ele>788</ele>
        <time>2019-05-11T10:52:42Z</time>
      </trkpt>
      <trkpt lat="36.7178649902344" lon="-5.10519695281982">
        <ele>788</ele>
        <time>2019-05-11T10:52:44Z</time>
      </trkpt>
      <trkpt lat="36.7178764343262" lon="-5.10516500473022">
        <ele>787</ele>
        <time>2019-05-11T10:52:46Z</time>
      </trkpt>
      <trkpt lat="36.7178840637207" lon="-5.10513496398926">
        <ele>786</ele>
        <time>2019-05-11T10:52:48Z</time>
      </trkpt>
      <trkpt lat="36.7178916931152" lon="-5.10510683059692">
        <ele>786</ele>
        <time>2019-05-11T10:52:50Z</time>
      </trkpt>
      <trkpt lat="36.7179069519043" lon="-5.10506010055542">
        <ele>786</ele>
        <time>2019-05-11T10:52:52Z</time>
      </trkpt>
      <trkpt lat="36.7179183959961" lon="-5.10503196716309">
        <ele>786</ele>
        <time>2019-05-11T10:52:54Z</time>
      </trkpt>
      <trkpt lat="36.7179260253906" lon="-5.10500001907349">
        <ele>785</ele>
        <time>2019-05-11T10:52:56Z</time>
      </trkpt>
      <trkpt lat="36.7179412841797" lon="-5.10497283935547">
        <ele>785</ele>
        <time>2019-05-11T10:52:58Z</time>
      </trkpt>
      <trkpt lat="36.7179489135742" lon="-5.1049427986145">
        <ele>785</ele>
        <time>2019-05-11T10:53:00Z</time>
      </trkpt>
      <trkpt lat="36.717960357666" lon="-5.10491180419922">
        <ele>784</ele>
        <time>2019-05-11T10:53:02Z</time>
      </trkpt>
      <trkpt lat="36.7179718017578" lon="-5.10487985610962">
        <ele>784</ele>
        <time>2019-05-11T10:53:04Z</time>
      </trkpt>
      <trkpt lat="36.7179756164551" lon="-5.10485219955444">
        <ele>783</ele>
        <time>2019-05-11T10:53:06Z</time>
      </trkpt>
      <trkpt lat="36.7179832458496" lon="-5.10481977462769">
        <ele>783</ele>
        <time>2019-05-11T10:53:08Z</time>
      </trkpt>
      <trkpt lat="36.7179870605469" lon="-5.10478496551514">
        <ele>783</ele>
        <time>2019-05-11T10:53:11Z</time>
      </trkpt>
      <trkpt lat="36.7179870605469" lon="-5.10475206375122">
        <ele>783</ele>
        <time>2019-05-11T10:53:13Z</time>
      </trkpt>
      <trkpt lat="36.7179870605469" lon="-5.10472011566162">
        <ele>782</ele>
        <time>2019-05-11T10:53:15Z</time>
      </trkpt>
      <trkpt lat="36.7179832458496" lon="-5.10468816757202">
        <ele>781</ele>
        <time>2019-05-11T10:53:17Z</time>
      </trkpt>
      <trkpt lat="36.7179832458496" lon="-5.10465812683106">
        <ele>781</ele>
        <time>2019-05-11T10:53:19Z</time>
      </trkpt>
      <trkpt lat="36.7179832458496" lon="-5.10463190078735">
        <ele>781</ele>
        <time>2019-05-11T10:53:21Z</time>
      </trkpt>
      <trkpt lat="36.7179832458496" lon="-5.1046028137207">
        <ele>781</ele>
        <time>2019-05-11T10:53:23Z</time>
      </trkpt>
      <trkpt lat="36.7179756164551" lon="-5.10457277297974">
        <ele>781</ele>
        <time>2019-05-11T10:53:25Z</time>
      </trkpt>
      <trkpt lat="36.7179718017578" lon="-5.10452795028686">
        <ele>780</ele>
        <time>2019-05-11T10:53:27Z</time>
      </trkpt>
      <trkpt lat="36.7179679870606" lon="-5.1044979095459">
        <ele>780</ele>
        <time>2019-05-11T10:53:29Z</time>
      </trkpt>
      <trkpt lat="36.717960357666" lon="-5.10446786880493">
        <ele>780</ele>
        <time>2019-05-11T10:53:31Z</time>
      </trkpt>
      <trkpt lat="36.7179565429688" lon="-5.10444211959839">
        <ele>779</ele>
        <time>2019-05-11T10:53:33Z</time>
      </trkpt>
      <trkpt lat="36.7179527282715" lon="-5.10441493988037">
        <ele>779</ele>
        <time>2019-05-11T10:53:35Z</time>
      </trkpt>
      <trkpt lat="36.7179412841797" lon="-5.1043848991394">
        <ele>778</ele>
        <time>2019-05-11T10:53:37Z</time>
      </trkpt>
      <trkpt lat="36.7179336547852" lon="-5.10435199737549">
        <ele>778</ele>
        <time>2019-05-11T10:53:39Z</time>
      </trkpt>
      <trkpt lat="36.7179260253906" lon="-5.10432291030884">
        <ele>778</ele>
        <time>2019-05-11T10:53:41Z</time>
      </trkpt>
      <trkpt lat="36.7179183959961" lon="-5.10429286956787">
        <ele>777</ele>
        <time>2019-05-11T10:53:43Z</time>
      </trkpt>
      <trkpt lat="36.7179107666016" lon="-5.1042628288269">
        <ele>776</ele>
        <time>2019-05-11T10:53:45Z</time>
      </trkpt>
      <trkpt lat="36.7178993225098" lon="-5.10422992706299">
        <ele>776</ele>
        <time>2019-05-11T10:53:48Z</time>
      </trkpt>
      <trkpt lat="36.717887878418" lon="-5.10419988632202">
        <ele>776</ele>
        <time>2019-05-11T10:53:50Z</time>
      </trkpt>
      <trkpt lat="36.7178764343262" lon="-5.10417318344116">
        <ele>775</ele>
        <time>2019-05-11T10:53:52Z</time>
      </trkpt>
      <trkpt lat="36.7178688049316" lon="-5.10414505004883">
        <ele>775</ele>
        <time>2019-05-11T10:53:54Z</time>
      </trkpt>
      <trkpt lat="36.7178611755371" lon="-5.10411214828491">
        <ele>775</ele>
        <time>2019-05-11T10:53:56Z</time>
      </trkpt>
      <trkpt lat="36.7178535461426" lon="-5.10407304763794">
        <ele>775</ele>
        <time>2019-05-11T10:53:58Z</time>
      </trkpt>
      <trkpt lat="36.717845916748" lon="-5.10403680801392">
        <ele>775</ele>
        <time>2019-05-11T10:54:00Z</time>
      </trkpt>
      <trkpt lat="36.7178268432617" lon="-5.10401487350464">
        <ele>774</ele>
        <time>2019-05-11T10:54:02Z</time>
      </trkpt>
      <trkpt lat="36.7178115844727" lon="-5.10397005081177">
        <ele>774</ele>
        <time>2019-05-11T10:54:04Z</time>
      </trkpt>
      <trkpt lat="36.7178001403809" lon="-5.10393810272217">
        <ele>774</ele>
        <time>2019-05-11T10:54:06Z</time>
      </trkpt>
      <trkpt lat="36.7177925109863" lon="-5.10390710830688">
        <ele>773</ele>
        <time>2019-05-11T10:54:08Z</time>
      </trkpt>
      <trkpt lat="36.7177810668945" lon="-5.10386514663696">
        <ele>773</ele>
        <time>2019-05-11T10:54:10Z</time>
      </trkpt>
      <trkpt lat="36.7177734375" lon="-5.10382986068726">
        <ele>773</ele>
        <time>2019-05-11T10:54:12Z</time>
      </trkpt>
      <trkpt lat="36.7177734375" lon="-5.10379695892334">
        <ele>773</ele>
        <time>2019-05-11T10:54:14Z</time>
      </trkpt>
      <trkpt lat="36.7177734375" lon="-5.103759765625">
        <ele>773</ele>
        <time>2019-05-11T10:54:16Z</time>
      </trkpt>
      <trkpt lat="36.7177734375" lon="-5.10373306274414">
        <ele>773</ele>
        <time>2019-05-11T10:54:18Z</time>
      </trkpt>
      <trkpt lat="36.7177696228027" lon="-5.10370302200317">
        <ele>773</ele>
        <time>2019-05-11T10:54:20Z</time>
      </trkpt>
      <trkpt lat="36.7177696228027" lon="-5.10367202758789">
        <ele>773</ele>
        <time>2019-05-11T10:54:23Z</time>
      </trkpt>
      <trkpt lat="36.7177658081055" lon="-5.10363292694092">
        <ele>773</ele>
        <time>2019-05-11T10:54:25Z</time>
      </trkpt>
      <trkpt lat="36.7177581787109" lon="-5.10359001159668">
        <ele>773</ele>
        <time>2019-05-11T10:54:27Z</time>
      </trkpt>
      <trkpt lat="36.7177581787109" lon="-5.10355997085571">
        <ele>773</ele>
        <time>2019-05-11T10:54:29Z</time>
      </trkpt>
      <trkpt lat="36.7177581787109" lon="-5.10353183746338">
        <ele>773</ele>
        <time>2019-05-11T10:54:31Z</time>
      </trkpt>
      <trkpt lat="36.7177505493164" lon="-5.10349798202515">
        <ele>771</ele>
        <time>2019-05-11T10:54:33Z</time>
      </trkpt>
      <trkpt lat="36.7177543640137" lon="-5.10346984863281">
        <ele>771</ele>
        <time>2019-05-11T10:54:35Z</time>
      </trkpt>
      <trkpt lat="36.7177543640137" lon="-5.10343980789185">
        <ele>771</ele>
        <time>2019-05-11T10:54:37Z</time>
      </trkpt>
      <trkpt lat="36.7177543640137" lon="-5.10339212417603">
        <ele>770</ele>
        <time>2019-05-11T10:54:39Z</time>
      </trkpt>
      <trkpt lat="36.7177581787109" lon="-5.10335683822632">
        <ele>770</ele>
        <time>2019-05-11T10:54:41Z</time>
      </trkpt>
      <trkpt lat="36.7177619934082" lon="-5.10332298278809">
        <ele>770</ele>
        <time>2019-05-11T10:54:43Z</time>
      </trkpt>
      <trkpt lat="36.7177658081055" lon="-5.10328722000122">
        <ele>770</ele>
        <time>2019-05-11T10:54:45Z</time>
      </trkpt>
      <trkpt lat="36.7177658081055" lon="-5.10325288772583">
        <ele>770</ele>
        <time>2019-05-11T10:54:47Z</time>
      </trkpt>
      <trkpt lat="36.7177619934082" lon="-5.10321807861328">
        <ele>770</ele>
        <time>2019-05-11T10:54:49Z</time>
      </trkpt>
      <trkpt lat="36.7177619934082" lon="-5.10318517684936">
        <ele>769</ele>
        <time>2019-05-11T10:54:51Z</time>
      </trkpt>
      <trkpt lat="36.7177658081055" lon="-5.1031551361084">
        <ele>769</ele>
        <time>2019-05-11T10:54:53Z</time>
      </trkpt>
      <trkpt lat="36.7177581787109" lon="-5.10311794281006">
        <ele>769</ele>
        <time>2019-05-11T10:54:55Z</time>
      </trkpt>
      <trkpt lat="36.7177619934082" lon="-5.10308218002319">
        <ele>769</ele>
        <time>2019-05-11T10:54:58Z</time>
      </trkpt>
      <trkpt lat="36.7177619934082" lon="-5.10305023193359">
        <ele>769</ele>
        <time>2019-05-11T10:55:00Z</time>
      </trkpt>
      <trkpt lat="36.7177619934082" lon="-5.10301780700684">
        <ele>769</ele>
        <time>2019-05-11T10:55:02Z</time>
      </trkpt>
      <trkpt lat="36.7177619934082" lon="-5.10298490524292">
        <ele>769</ele>
        <time>2019-05-11T10:55:04Z</time>
      </trkpt>
      <trkpt lat="36.7177619934082" lon="-5.10294723510742">
        <ele>769</ele>
        <time>2019-05-11T10:55:06Z</time>
      </trkpt>
      <trkpt lat="36.7177658081055" lon="-5.10290813446045">
        <ele>769</ele>
        <time>2019-05-11T10:55:08Z</time>
      </trkpt>
      <trkpt lat="36.7177658081055" lon="-5.10286808013916">
        <ele>769</ele>
        <time>2019-05-11T10:55:10Z</time>
      </trkpt>
      <trkpt lat="36.7177619934082" lon="-5.10283279418945">
        <ele>769</ele>
        <time>2019-05-11T10:55:12Z</time>
      </trkpt>
      <trkpt lat="36.7177543640137" lon="-5.10278797149658">
        <ele>769</ele>
        <time>2019-05-11T10:55:14Z</time>
      </trkpt>
      <trkpt lat="36.7177429199219" lon="-5.10275220870972">
        <ele>769</ele>
        <time>2019-05-11T10:55:16Z</time>
      </trkpt>
      <trkpt lat="36.7177314758301" lon="-5.1027250289917">
        <ele>767</ele>
        <time>2019-05-11T10:55:18Z</time>
      </trkpt>
      <trkpt lat="36.7177238464356" lon="-5.10269021987915">
        <ele>766</ele>
        <time>2019-05-11T10:55:20Z</time>
      </trkpt>
      <trkpt lat="36.717716217041" lon="-5.10265684127808">
        <ele>765</ele>
        <time>2019-05-11T10:55:22Z</time>
      </trkpt>
      <trkpt lat="36.7177124023438" lon="-5.10262489318848">
        <ele>764</ele>
        <time>2019-05-11T10:55:24Z</time>
      </trkpt>
      <trkpt lat="36.717700958252" lon="-5.10258722305298">
        <ele>764</ele>
        <time>2019-05-11T10:55:26Z</time>
      </trkpt>
      <trkpt lat="36.7176971435547" lon="-5.10254812240601">
        <ele>764</ele>
        <time>2019-05-11T10:55:28Z</time>
      </trkpt>
      <trkpt lat="36.7176818847656" lon="-5.10251522064209">
        <ele>764</ele>
        <time>2019-05-11T10:55:30Z</time>
      </trkpt>
      <trkpt lat="36.7176666259766" lon="-5.1024899482727">
        <ele>764</ele>
        <time>2019-05-11T10:55:33Z</time>
      </trkpt>
      <trkpt lat="36.717643737793" lon="-5.10245513916016">
        <ele>764</ele>
        <time>2019-05-11T10:55:35Z</time>
      </trkpt>
      <trkpt lat="36.7176208496094" lon="-5.10242700576782">
        <ele>763</ele>
        <time>2019-05-11T10:55:37Z</time>
      </trkpt>
      <trkpt lat="36.7176055908203" lon="-5.10239791870117">
        <ele>761</ele>
        <time>2019-05-11T10:55:39Z</time>
      </trkpt>
      <trkpt lat="36.7175903320312" lon="-5.10237503051758">
        <ele>760</ele>
        <time>2019-05-11T10:55:41Z</time>
      </trkpt>
      <trkpt lat="36.7175674438477" lon="-5.1023530960083">
        <ele>760</ele>
        <time>2019-05-11T10:55:43Z</time>
      </trkpt>
      <trkpt lat="36.7175483703613" lon="-5.10233020782471">
        <ele>760</ele>
        <time>2019-05-11T10:55:45Z</time>
      </trkpt>
      <trkpt lat="36.7175254821777" lon="-5.10231494903564">
        <ele>760</ele>
        <time>2019-05-11T10:55:47Z</time>
      </trkpt>
      <trkpt lat="36.7174987792969" lon="-5.10228300094604">
        <ele>760</ele>
        <time>2019-05-11T10:55:49Z</time>
      </trkpt>
      <trkpt lat="36.7174797058106" lon="-5.10226678848267">
        <ele>760</ele>
        <time>2019-05-11T10:55:51Z</time>
      </trkpt>
      <trkpt lat="36.7174606323242" lon="-5.10224294662476">
        <ele>760</ele>
        <time>2019-05-11T10:55:53Z</time>
      </trkpt>
      <trkpt lat="36.7174453735352" lon="-5.1022219657898">
        <ele>760</ele>
        <time>2019-05-11T10:55:55Z</time>
      </trkpt>
      <trkpt lat="36.7174415588379" lon="-5.10218191146851">
        <ele>760</ele>
        <time>2019-05-11T10:55:57Z</time>
      </trkpt>
      <trkpt lat="36.7174453735352" lon="-5.10214519500732">
        <ele>760</ele>
        <time>2019-05-11T10:55:59Z</time>
      </trkpt>
      <trkpt lat="36.717456817627" lon="-5.10211515426636">
        <ele>759</ele>
        <time>2019-05-11T10:56:01Z</time>
      </trkpt>
      <trkpt lat="36.7174758911133" lon="-5.10208320617676">
        <ele>758</ele>
        <time>2019-05-11T10:56:03Z</time>
      </trkpt>
      <trkpt lat="36.7174987792969" lon="-5.10205698013306">
        <ele>758</ele>
        <time>2019-05-11T10:56:06Z</time>
      </trkpt>
      <trkpt lat="36.7175178527832" lon="-5.10202693939209">
        <ele>758</ele>
        <time>2019-05-11T10:56:08Z</time>
      </trkpt>
      <trkpt lat="36.7175407409668" lon="-5.10200786590576">
        <ele>758</ele>
        <time>2019-05-11T10:56:10Z</time>
      </trkpt>
      <trkpt lat="36.7175674438477" lon="-5.10200214385986">
        <ele>758</ele>
        <time>2019-05-11T10:56:12Z</time>
      </trkpt>
      <trkpt lat="36.7175979614258" lon="-5.10200214385986">
        <ele>758</ele>
        <time>2019-05-11T10:56:14Z</time>
      </trkpt>
      <trkpt lat="36.7176246643066" lon="-5.10200691223144">
        <ele>758</ele>
        <time>2019-05-11T10:56:16Z</time>
      </trkpt>
      <trkpt lat="36.7176551818848" lon="-5.10201692581177">
        <ele>758</ele>
        <time>2019-05-11T10:56:18Z</time>
      </trkpt>
      <trkpt lat="36.7176818847656" lon="-5.10203313827515">
        <ele>758</ele>
        <time>2019-05-11T10:56:20Z</time>
      </trkpt>
      <trkpt lat="36.7177085876465" lon="-5.10205507278442">
        <ele>758</ele>
        <time>2019-05-11T10:56:22Z</time>
      </trkpt>
      <trkpt lat="36.7177467346191" lon="-5.10209321975708">
        <ele>758</ele>
        <time>2019-05-11T10:56:24Z</time>
      </trkpt>
      <trkpt lat="36.7177696228027" lon="-5.10211992263794">
        <ele>758</ele>
        <time>2019-05-11T10:56:26Z</time>
      </trkpt>
      <trkpt lat="36.7177925109863" lon="-5.10214185714722">
        <ele>758</ele>
        <time>2019-05-11T10:56:28Z</time>
      </trkpt>
      <trkpt lat="36.7178115844727" lon="-5.1021671295166">
        <ele>758</ele>
        <time>2019-05-11T10:56:30Z</time>
      </trkpt>
      <trkpt lat="36.717830657959" lon="-5.10218811035156">
        <ele>758</ele>
        <time>2019-05-11T10:56:32Z</time>
      </trkpt>
      <trkpt lat="36.7178535461426" lon="-5.10221195220947">
        <ele>758</ele>
        <time>2019-05-11T10:56:34Z</time>
      </trkpt>
      <trkpt lat="36.7178764343262" lon="-5.10223484039307">
        <ele>758</ele>
        <time>2019-05-11T10:56:36Z</time>
      </trkpt>
      <trkpt lat="36.7178955078125" lon="-5.10225486755371">
        <ele>758</ele>
        <time>2019-05-11T10:56:38Z</time>
      </trkpt>
      <trkpt lat="36.7179183959961" lon="-5.10227489471436">
        <ele>758</ele>
        <time>2019-05-11T10:56:41Z</time>
      </trkpt>
      <trkpt lat="36.717945098877" lon="-5.10229015350342">
        <ele>758</ele>
        <time>2019-05-11T10:56:43Z</time>
      </trkpt>
      <trkpt lat="36.7179718017578" lon="-5.10230779647827">
        <ele>758</ele>
        <time>2019-05-11T10:56:45Z</time>
      </trkpt>
      <trkpt lat="36.7179946899414" lon="-5.10232496261597">
        <ele>758</ele>
        <time>2019-05-11T10:56:47Z</time>
      </trkpt>
      <trkpt lat="36.718017578125" lon="-5.10234212875366">
        <ele>758</ele>
        <time>2019-05-11T10:56:49Z</time>
      </trkpt>
      <trkpt lat="36.7180480957031" lon="-5.10235786437988">
        <ele>759</ele>
        <time>2019-05-11T10:56:51Z</time>
      </trkpt>
      <trkpt lat="36.7180786132812" lon="-5.10238218307495">
        <ele>759</ele>
        <time>2019-05-11T10:56:53Z</time>
      </trkpt>
      <trkpt lat="36.7181015014648" lon="-5.10240697860718">
        <ele>759</ele>
        <time>2019-05-11T10:56:55Z</time>
      </trkpt>
      <trkpt lat="36.7181243896484" lon="-5.1024317741394">
        <ele>760</ele>
        <time>2019-05-11T10:56:57Z</time>
      </trkpt>
      <trkpt lat="36.7181587219238" lon="-5.10246181488037">
        <ele>760</ele>
        <time>2019-05-11T10:56:59Z</time>
      </trkpt>
      <trkpt lat="36.7181816101074" lon="-5.10247707366943">
        <ele>760</ele>
        <time>2019-05-11T10:57:01Z</time>
      </trkpt>
      <trkpt lat="36.718204498291" lon="-5.10249280929565">
        <ele>761</ele>
        <time>2019-05-11T10:57:03Z</time>
      </trkpt>
      <trkpt lat="36.7182235717773" lon="-5.10250997543335">
        <ele>761</ele>
        <time>2019-05-11T10:57:05Z</time>
      </trkpt>
      <trkpt lat="36.7182464599609" lon="-5.10253000259399">
        <ele>761</ele>
        <time>2019-05-11T10:57:07Z</time>
      </trkpt>
      <trkpt lat="36.7182655334473" lon="-5.10255193710327">
        <ele>761</ele>
        <time>2019-05-11T10:57:09Z</time>
      </trkpt>
      <trkpt lat="36.7182884216309" lon="-5.10256814956665">
        <ele>762</ele>
        <time>2019-05-11T10:57:11Z</time>
      </trkpt>
      <trkpt lat="36.7183074951172" lon="-5.10258483886719">
        <ele>762</ele>
        <time>2019-05-11T10:57:13Z</time>
      </trkpt>
      <trkpt lat="36.7183303833008" lon="-5.10260486602783">
        <ele>763</ele>
        <time>2019-05-11T10:57:16Z</time>
      </trkpt>
      <trkpt lat="36.7183532714844" lon="-5.10262203216553">
        <ele>763</ele>
        <time>2019-05-11T10:57:18Z</time>
      </trkpt>
      <trkpt lat="36.718376159668" lon="-5.10264015197754">
        <ele>764</ele>
        <time>2019-05-11T10:57:20Z</time>
      </trkpt>
      <trkpt lat="36.7183990478516" lon="-5.10265684127808">
        <ele>764</ele>
        <time>2019-05-11T10:57:22Z</time>
      </trkpt>
      <trkpt lat="36.7184219360352" lon="-5.10267210006714">
        <ele>764</ele>
        <time>2019-05-11T10:57:24Z</time>
      </trkpt>
      <trkpt lat="36.718448638916" lon="-5.10268688201904">
        <ele>764</ele>
        <time>2019-05-11T10:57:26Z</time>
      </trkpt>
      <trkpt lat="36.7184715270996" lon="-5.10270023345947">
        <ele>764</ele>
        <time>2019-05-11T10:57:28Z</time>
      </trkpt>
      <trkpt lat="36.7184982299805" lon="-5.10271501541138">
        <ele>765</ele>
        <time>2019-05-11T10:57:30Z</time>
      </trkpt>
      <trkpt lat="36.7185211181641" lon="-5.10272979736328">
        <ele>765</ele>
        <time>2019-05-11T10:57:32Z</time>
      </trkpt>
      <trkpt lat="36.7185516357422" lon="-5.10275220870972">
        <ele>765</ele>
        <time>2019-05-11T10:57:34Z</time>
      </trkpt>
      <trkpt lat="36.718578338623" lon="-5.10276508331299">
        <ele>765</ele>
        <time>2019-05-11T10:57:36Z</time>
      </trkpt>
      <trkpt lat="36.7185974121094" lon="-5.10278177261353">
        <ele>765</ele>
        <time>2019-05-11T10:57:38Z</time>
      </trkpt>
      <trkpt lat="36.718620300293" lon="-5.10279512405396">
        <ele>765</ele>
        <time>2019-05-11T10:57:40Z</time>
      </trkpt>
      <trkpt lat="36.7186431884766" lon="-5.10280990600586">
        <ele>766</ele>
        <time>2019-05-11T10:57:42Z</time>
      </trkpt>
      <trkpt lat="36.7186622619629" lon="-5.10282516479492">
        <ele>766</ele>
        <time>2019-05-11T10:57:44Z</time>
      </trkpt>
      <trkpt lat="36.7186851501465" lon="-5.10283803939819">
        <ele>766</ele>
        <time>2019-05-11T10:57:46Z</time>
      </trkpt>
      <trkpt lat="36.7187080383301" lon="-5.1028528213501">
        <ele>766</ele>
        <time>2019-05-11T10:57:48Z</time>
      </trkpt>
      <trkpt lat="36.7187309265137" lon="-5.10286998748779">
        <ele>767</ele>
        <time>2019-05-11T10:57:50Z</time>
      </trkpt>
      <trkpt lat="36.7187538146973" lon="-5.10288715362549">
        <ele>767</ele>
        <time>2019-05-11T10:57:53Z</time>
      </trkpt>
      <trkpt lat="36.7187767028809" lon="-5.10290288925171">
        <ele>768</ele>
        <time>2019-05-11T10:57:55Z</time>
      </trkpt>
      <trkpt lat="36.7188034057617" lon="-5.10291719436646">
        <ele>768</ele>
        <time>2019-05-11T10:57:57Z</time>
      </trkpt>
      <trkpt lat="36.7188262939453" lon="-5.10292816162109">
        <ele>768</ele>
        <time>2019-05-11T10:57:59Z</time>
      </trkpt>
      <trkpt lat="36.7188491821289" lon="-5.10293817520142">
        <ele>769</ele>
        <time>2019-05-11T10:58:01Z</time>
      </trkpt>
      <trkpt lat="36.7188758850098" lon="-5.10294723510742">
        <ele>769</ele>
        <time>2019-05-11T10:58:03Z</time>
      </trkpt>
      <trkpt lat="36.7188987731934" lon="-5.10295486450195">
        <ele>769</ele>
        <time>2019-05-11T10:58:05Z</time>
      </trkpt>
      <trkpt lat="36.7189254760742" lon="-5.10296201705933">
        <ele>770</ele>
        <time>2019-05-11T10:58:07Z</time>
      </trkpt>
      <trkpt lat="36.7189674377441" lon="-5.10297012329102">
        <ele>770</ele>
        <time>2019-05-11T10:58:09Z</time>
      </trkpt>
      <trkpt lat="36.718994140625" lon="-5.10297203063965">
        <ele>770</ele>
        <time>2019-05-11T10:58:11Z</time>
      </trkpt>
      <trkpt lat="36.7190208435059" lon="-5.1029748916626">
        <ele>770</ele>
        <time>2019-05-11T10:58:13Z</time>
      </trkpt>
      <trkpt lat="36.7190437316894" lon="-5.10297679901123">
        <ele>771</ele>
        <time>2019-05-11T10:58:15Z</time>
      </trkpt>
      <trkpt lat="36.7190704345703" lon="-5.1029782295227">
        <ele>771</ele>
        <time>2019-05-11T10:58:17Z</time>
      </trkpt>
      <trkpt lat="36.7191009521484" lon="-5.1029782295227">
        <ele>771</ele>
        <time>2019-05-11T10:58:19Z</time>
      </trkpt>
      <trkpt lat="36.7191352844238" lon="-5.10298204421997">
        <ele>771</ele>
        <time>2019-05-11T10:58:21Z</time>
      </trkpt>
      <trkpt lat="36.7191619873047" lon="-5.10298204421997">
        <ele>771</ele>
        <time>2019-05-11T10:58:23Z</time>
      </trkpt>
      <trkpt lat="36.7191925048828" lon="-5.10298299789429">
        <ele>771</ele>
        <time>2019-05-11T10:58:25Z</time>
      </trkpt>
      <trkpt lat="36.7192230224609" lon="-5.10298490524292">
        <ele>771</ele>
        <time>2019-05-11T10:58:27Z</time>
      </trkpt>
      <trkpt lat="36.7192497253418" lon="-5.10298490524292">
        <ele>771</ele>
        <time>2019-05-11T10:58:30Z</time>
      </trkpt>
      <trkpt lat="36.7192764282227" lon="-5.10298299789429">
        <ele>771</ele>
        <time>2019-05-11T10:58:32Z</time>
      </trkpt>
      <trkpt lat="36.7193069458008" lon="-5.10298204421997">
        <ele>772</ele>
        <time>2019-05-11T10:58:34Z</time>
      </trkpt>
      <trkpt lat="36.7193336486816" lon="-5.10298013687134">
        <ele>772</ele>
        <time>2019-05-11T10:58:36Z</time>
      </trkpt>
      <trkpt lat="36.7193603515625" lon="-5.1029748916626">
        <ele>772</ele>
        <time>2019-05-11T10:58:38Z</time>
      </trkpt>
      <trkpt lat="36.7193908691406" lon="-5.10297012329102">
        <ele>772</ele>
        <time>2019-05-11T10:58:40Z</time>
      </trkpt>
      <trkpt lat="36.7194175720215" lon="-5.10296297073364">
        <ele>772</ele>
        <time>2019-05-11T10:58:42Z</time>
      </trkpt>
      <trkpt lat="36.7194480895996" lon="-5.10295486450195">
        <ele>773</ele>
        <time>2019-05-11T10:58:44Z</time>
      </trkpt>
      <trkpt lat="36.7194747924805" lon="-5.10294485092163">
        <ele>773</ele>
        <time>2019-05-11T10:58:46Z</time>
      </trkpt>
      <trkpt lat="36.7195129394531" lon="-5.10292816162109">
        <ele>773</ele>
        <time>2019-05-11T10:58:48Z</time>
      </trkpt>
      <trkpt lat="36.719539642334" lon="-5.1029200553894">
        <ele>773</ele>
        <time>2019-05-11T10:58:50Z</time>
      </trkpt>
      <trkpt lat="36.7195663452148" lon="-5.10291004180908">
        <ele>774</ele>
        <time>2019-05-11T10:58:52Z</time>
      </trkpt>
      <trkpt lat="36.719596862793" lon="-5.10290193557739">
        <ele>774</ele>
        <time>2019-05-11T10:58:54Z</time>
      </trkpt>
      <trkpt lat="36.7196197509766" lon="-5.10289192199707">
        <ele>774</ele>
        <time>2019-05-11T10:58:56Z</time>
      </trkpt>
      <trkpt lat="36.7196464538574" lon="-5.10288286209106">
        <ele>775</ele>
        <time>2019-05-11T10:58:58Z</time>
      </trkpt>
      <trkpt lat="36.7196731567383" lon="-5.10286808013916">
        <ele>775</ele>
        <time>2019-05-11T10:59:00Z</time>
      </trkpt>
      <trkpt lat="36.7196998596191" lon="-5.10285806655884">
        <ele>775</ele>
        <time>2019-05-11T10:59:02Z</time>
      </trkpt>
      <trkpt lat="36.7197265625" lon="-5.10284805297852">
        <ele>775</ele>
        <time>2019-05-11T10:59:04Z</time>
      </trkpt>
      <trkpt lat="36.7197494506836" lon="-5.10283708572388">
        <ele>776</ele>
        <time>2019-05-11T10:59:07Z</time>
      </trkpt>
      <trkpt lat="36.7197761535644" lon="-5.10282516479492">
        <ele>776</ele>
        <time>2019-05-11T10:59:09Z</time>
      </trkpt>
      <trkpt lat="36.719799041748" lon="-5.1028151512146">
        <ele>776</ele>
        <time>2019-05-11T10:59:11Z</time>
      </trkpt>
      <trkpt lat="36.7198257446289" lon="-5.10280179977417">
        <ele>777</ele>
        <time>2019-05-11T10:59:13Z</time>
      </trkpt>
      <trkpt lat="36.7198524475098" lon="-5.10278701782227">
        <ele>777</ele>
        <time>2019-05-11T10:59:15Z</time>
      </trkpt>
      <trkpt lat="36.7198829650879" lon="-5.10277509689331">
        <ele>777</ele>
        <time>2019-05-11T10:59:17Z</time>
      </trkpt>
      <trkpt lat="36.7199096679688" lon="-5.10275983810425">
        <ele>778</ele>
        <time>2019-05-11T10:59:19Z</time>
      </trkpt>
      <trkpt lat="36.7199325561523" lon="-5.10274219512939">
        <ele>778</ele>
        <time>2019-05-11T10:59:21Z</time>
      </trkpt>
      <trkpt lat="36.719970703125" lon="-5.10271310806274">
        <ele>778</ele>
        <time>2019-05-11T10:59:23Z</time>
      </trkpt>
      <trkpt lat="36.7199974060059" lon="-5.1026930809021">
        <ele>778</ele>
        <time>2019-05-11T10:59:25Z</time>
      </trkpt>
      <trkpt lat="36.7200202941894" lon="-5.10267496109009">
        <ele>778</ele>
        <time>2019-05-11T10:59:27Z</time>
      </trkpt>
      <trkpt lat="36.7200469970703" lon="-5.10265779495239">
        <ele>778</ele>
        <time>2019-05-11T10:59:29Z</time>
      </trkpt>
      <trkpt lat="36.7200736999512" lon="-5.10264492034912">
        <ele>778</ele>
        <time>2019-05-11T10:59:31Z</time>
      </trkpt>
      <trkpt lat="36.7200965881348" lon="-5.10263299942017">
        <ele>778</ele>
        <time>2019-05-11T10:59:33Z</time>
      </trkpt>
      <trkpt lat="36.7201194763184" lon="-5.10262298583984">
        <ele>778</ele>
        <time>2019-05-11T10:59:35Z</time>
      </trkpt>
      <trkpt lat="36.720142364502" lon="-5.1026120185852">
        <ele>779</ele>
        <time>2019-05-11T10:59:37Z</time>
      </trkpt>
      <trkpt lat="36.7201652526856" lon="-5.10261011123657">
        <ele>779</ele>
        <time>2019-05-11T10:59:39Z</time>
      </trkpt>
      <trkpt lat="36.7201881408691" lon="-5.10260677337646">
        <ele>780</ele>
        <time>2019-05-11T10:59:42Z</time>
      </trkpt>
      <trkpt lat="36.72021484375" lon="-5.10260677337646">
        <ele>780</ele>
        <time>2019-05-11T10:59:44Z</time>
      </trkpt>
      <trkpt lat="36.7202377319336" lon="-5.10260486602783">
        <ele>780</ele>
        <time>2019-05-11T10:59:46Z</time>
      </trkpt>
      <trkpt lat="36.7202606201172" lon="-5.10260486602783">
        <ele>781</ele>
        <time>2019-05-11T10:59:48Z</time>
      </trkpt>
      <trkpt lat="36.720287322998" lon="-5.1026029586792">
        <ele>781</ele>
        <time>2019-05-11T10:59:50Z</time>
      </trkpt>
      <trkpt lat="36.7203140258789" lon="-5.1026029586792">
        <ele>782</ele>
        <time>2019-05-11T10:59:52Z</time>
      </trkpt>
      <trkpt lat="36.7203369140625" lon="-5.10260677337646">
        <ele>782</ele>
        <time>2019-05-11T10:59:54Z</time>
      </trkpt>
      <trkpt lat="36.7203636169434" lon="-5.10261678695679">
        <ele>782</ele>
        <time>2019-05-11T10:59:56Z</time>
      </trkpt>
      <trkpt lat="36.720401763916" lon="-5.10263204574585">
        <ele>782</ele>
        <time>2019-05-11T10:59:58Z</time>
      </trkpt>
      <trkpt lat="36.7204284667969" lon="-5.10264015197754">
        <ele>782</ele>
        <time>2019-05-11T11:00:00Z</time>
      </trkpt>
      <trkpt lat="36.7204551696777" lon="-5.10265207290649">
        <ele>782</ele>
        <time>2019-05-11T11:00:02Z</time>
      </trkpt>
      <trkpt lat="36.7204818725586" lon="-5.10266304016113">
        <ele>782</ele>
        <time>2019-05-11T11:00:04Z</time>
      </trkpt>
      <trkpt lat="36.7205123901367" lon="-5.10267686843872">
        <ele>783</ele>
        <time>2019-05-11T11:00:06Z</time>
      </trkpt>
      <trkpt lat="36.7205429077148" lon="-5.10268783569336">
        <ele>783</ele>
        <time>2019-05-11T11:00:08Z</time>
      </trkpt>
      <trkpt lat="36.720573425293" lon="-5.1026930809021">
        <ele>783</ele>
        <time>2019-05-11T11:00:10Z</time>
      </trkpt>
      <trkpt lat="36.7206001281738" lon="-5.1026930809021">
        <ele>783</ele>
        <time>2019-05-11T11:00:12Z</time>
      </trkpt>
      <trkpt lat="36.720630645752" lon="-5.10268497467041">
        <ele>783</ele>
        <time>2019-05-11T11:00:14Z</time>
      </trkpt>
      <trkpt lat="36.7206611633301" lon="-5.10267686843872">
        <ele>783</ele>
        <time>2019-05-11T11:00:17Z</time>
      </trkpt>
      <trkpt lat="36.7206878662109" lon="-5.10265779495239">
        <ele>783</ele>
        <time>2019-05-11T11:00:19Z</time>
      </trkpt>
      <trkpt lat="36.7207107543945" lon="-5.10263776779175">
        <ele>784</ele>
        <time>2019-05-11T11:00:21Z</time>
      </trkpt>
      <trkpt lat="36.7207298278809" lon="-5.10261487960815">
        <ele>784</ele>
        <time>2019-05-11T11:00:23Z</time>
      </trkpt>
      <trkpt lat="36.7207374572754" lon="-5.10258293151856">
        <ele>784</ele>
        <time>2019-05-11T11:00:25Z</time>
      </trkpt>
      <trkpt lat="36.7207374572754" lon="-5.10255193710327">
        <ele>784</ele>
        <time>2019-05-11T11:00:27Z</time>
      </trkpt>
      <trkpt lat="36.7207298278809" lon="-5.1025218963623">
        <ele>785</ele>
        <time>2019-05-11T11:00:29Z</time>
      </trkpt>
      <trkpt lat="36.7207145690918" lon="-5.10249519348144">
        <ele>785</ele>
        <time>2019-05-11T11:00:31Z</time>
      </trkpt>
      <trkpt lat="36.7206954956055" lon="-5.10246992111206">
        <ele>785</ele>
        <time>2019-05-11T11:00:33Z</time>
      </trkpt>
      <trkpt lat="36.7206611633301" lon="-5.1024432182312">
        <ele>785</ele>
        <time>2019-05-11T11:00:35Z</time>
      </trkpt>
      <trkpt lat="36.7206344604492" lon="-5.10243320465088">
        <ele>785</ele>
        <time>2019-05-11T11:00:37Z</time>
      </trkpt>
      <trkpt lat="36.7206039428711" lon="-5.10242795944214">
        <ele>785</ele>
        <time>2019-05-11T11:00:39Z</time>
      </trkpt>
      <trkpt lat="36.7205772399902" lon="-5.10242319107056">
        <ele>785</ele>
        <time>2019-05-11T11:00:41Z</time>
      </trkpt>
      <trkpt lat="36.7205505371094" lon="-5.10241794586182">
        <ele>786</ele>
        <time>2019-05-11T11:00:43Z</time>
      </trkpt>
      <trkpt lat="36.7205238342285" lon="-5.10241508483887">
        <ele>786</ele>
        <time>2019-05-11T11:00:45Z</time>
      </trkpt>
      <trkpt lat="36.7204971313477" lon="-5.10241508483887">
        <ele>786</ele>
        <time>2019-05-11T11:00:47Z</time>
      </trkpt>
      <trkpt lat="36.7204704284668" lon="-5.10241317749023">
        <ele>786</ele>
        <time>2019-05-11T11:00:49Z</time>
      </trkpt>
      <trkpt lat="36.7204475402832" lon="-5.10240983963013">
        <ele>786</ele>
        <time>2019-05-11T11:00:51Z</time>
      </trkpt>
      <trkpt lat="36.7204284667969" lon="-5.10240793228149">
        <ele>786</ele>
        <time>2019-05-11T11:00:54Z</time>
      </trkpt>
      <trkpt lat="36.720401763916" lon="-5.10240793228149">
        <ele>787</ele>
        <time>2019-05-11T11:00:56Z</time>
      </trkpt>
      <trkpt lat="36.7203826904297" lon="-5.10240507125854">
        <ele>787</ele>
        <time>2019-05-11T11:00:58Z</time>
      </trkpt>
      <trkpt lat="36.7203598022461" lon="-5.1023998260498">
        <ele>787</ele>
        <time>2019-05-11T11:01:00Z</time>
      </trkpt>
      <trkpt lat="36.7203369140625" lon="-5.1023998260498">
        <ele>788</ele>
        <time>2019-05-11T11:01:02Z</time>
      </trkpt>
      <trkpt lat="36.7203140258789" lon="-5.10239696502686">
        <ele>788</ele>
        <time>2019-05-11T11:01:04Z</time>
      </trkpt>
      <trkpt lat="36.7202911376953" lon="-5.10238790512085">
        <ele>788</ele>
        <time>2019-05-11T11:01:06Z</time>
      </trkpt>
      <trkpt lat="36.7202682495117" lon="-5.10238695144653">
        <ele>788</ele>
        <time>2019-05-11T11:01:08Z</time>
      </trkpt>
      <trkpt lat="36.7202301025391" lon="-5.10237979888916">
        <ele>789</ele>
        <time>2019-05-11T11:01:10Z</time>
      </trkpt>
      <trkpt lat="36.7202072143555" lon="-5.10236978530884">
        <ele>789</ele>
        <time>2019-05-11T11:01:12Z</time>
      </trkpt>
      <trkpt lat="36.7201805114746" lon="-5.10236501693726">
        <ele>789</ele>
        <time>2019-05-11T11:01:14Z</time>
      </trkpt>
      <trkpt lat="36.720157623291" lon="-5.10236310958862">
        <ele>789</ele>
        <time>2019-05-11T11:01:16Z</time>
      </trkpt>
      <trkpt lat="36.7201309204102" lon="-5.10236215591431">
        <ele>789</ele>
        <time>2019-05-11T11:01:18Z</time>
      </trkpt>
      <trkpt lat="36.7201080322266" lon="-5.10235786437988">
        <ele>789</ele>
        <time>2019-05-11T11:01:20Z</time>
      </trkpt>
      <trkpt lat="36.720085144043" lon="-5.10235500335693">
        <ele>789</ele>
        <time>2019-05-11T11:01:22Z</time>
      </trkpt>
      <trkpt lat="36.7200584411621" lon="-5.10234689712524">
        <ele>789</ele>
        <time>2019-05-11T11:01:24Z</time>
      </trkpt>
      <trkpt lat="36.7200355529785" lon="-5.10234212875366">
        <ele>789</ele>
        <time>2019-05-11T11:01:27Z</time>
      </trkpt>
      <trkpt lat="36.7200088500977" lon="-5.10233497619629">
        <ele>789</ele>
        <time>2019-05-11T11:01:29Z</time>
      </trkpt>
      <trkpt lat="36.7199821472168" lon="-5.10232782363892">
        <ele>789</ele>
        <time>2019-05-11T11:01:31Z</time>
      </trkpt>
      <trkpt lat="36.7199592590332" lon="-5.10232496261597">
        <ele>789</ele>
        <time>2019-05-11T11:01:33Z</time>
      </trkpt>
      <trkpt lat="36.7199325561523" lon="-5.10232305526733">
        <ele>789</ele>
        <time>2019-05-11T11:01:35Z</time>
      </trkpt>
      <trkpt lat="36.7199058532715" lon="-5.10232305526733">
        <ele>789</ele>
        <time>2019-05-11T11:01:37Z</time>
      </trkpt>
      <trkpt lat="36.7198829650879" lon="-5.10232019424438">
        <ele>789</ele>
        <time>2019-05-11T11:01:39Z</time>
      </trkpt>
      <trkpt lat="36.719856262207" lon="-5.10231685638428">
        <ele>789</ele>
        <time>2019-05-11T11:01:41Z</time>
      </trkpt>
      <trkpt lat="36.7198333740234" lon="-5.10231781005859">
        <ele>789</ele>
        <time>2019-05-11T11:01:43Z</time>
      </trkpt>
      <trkpt lat="36.7197952270508" lon="-5.10232210159302">
        <ele>790</ele>
        <time>2019-05-11T11:01:45Z</time>
      </trkpt>
      <trkpt lat="36.7197685241699" lon="-5.10232210159302">
        <ele>790</ele>
        <time>2019-05-11T11:01:47Z</time>
      </trkpt>
      <trkpt lat="36.7197418212891" lon="-5.10232305526733">
        <ele>790</ele>
        <time>2019-05-11T11:01:49Z</time>
      </trkpt>
      <trkpt lat="36.7197113037109" lon="-5.10232210159302">
        <ele>791</ele>
        <time>2019-05-11T11:01:51Z</time>
      </trkpt>
      <trkpt lat="36.7196884155273" lon="-5.10231781005859">
        <ele>791</ele>
        <time>2019-05-11T11:01:53Z</time>
      </trkpt>
      <trkpt lat="36.7196617126465" lon="-5.10231494903564">
        <ele>791</ele>
        <time>2019-05-11T11:01:55Z</time>
      </trkpt>
      <trkpt lat="36.7196350097656" lon="-5.10230779647827">
        <ele>791</ele>
        <time>2019-05-11T11:01:57Z</time>
      </trkpt>
      <trkpt lat="36.7196083068848" lon="-5.10230016708374">
        <ele>792</ele>
        <time>2019-05-11T11:01:59Z</time>
      </trkpt>
      <trkpt lat="36.7195816040039" lon="-5.10228490829468">
        <ele>792</ele>
        <time>2019-05-11T11:02:01Z</time>
      </trkpt>
      <trkpt lat="36.7195587158203" lon="-5.10226678848267">
        <ele>792</ele>
        <time>2019-05-11T11:02:04Z</time>
      </trkpt>
      <trkpt lat="36.7195434570312" lon="-5.10223722457886">
        <ele>792</ele>
        <time>2019-05-11T11:02:06Z</time>
      </trkpt>
      <trkpt lat="36.719539642334" lon="-5.10220289230347">
        <ele>792</ele>
        <time>2019-05-11T11:02:08Z</time>
      </trkpt>
      <trkpt lat="36.7195358276367" lon="-5.10217189788818">
        <ele>792</ele>
        <time>2019-05-11T11:02:10Z</time>
      </trkpt>
      <trkpt lat="36.7195358276367" lon="-5.10213279724121">
        <ele>792</ele>
        <time>2019-05-11T11:02:12Z</time>
      </trkpt>
      <trkpt lat="36.7195472717285" lon="-5.10209512710571">
        <ele>793</ele>
        <time>2019-05-11T11:02:14Z</time>
      </trkpt>
      <trkpt lat="36.7195625305176" lon="-5.10205793380737">
        <ele>793</ele>
        <time>2019-05-11T11:02:16Z</time>
      </trkpt>
      <trkpt lat="36.7195816040039" lon="-5.10202312469482">
        <ele>793</ele>
        <time>2019-05-11T11:02:18Z</time>
      </trkpt>
      <trkpt lat="36.7196083068848" lon="-5.10197305679321">
        <ele>793</ele>
        <time>2019-05-11T11:02:20Z</time>
      </trkpt>
      <trkpt lat="36.7196235656738" lon="-5.10193777084351">
        <ele>794</ele>
        <time>2019-05-11T11:02:22Z</time>
      </trkpt>
      <trkpt lat="36.7196388244629" lon="-5.10190486907959">
        <ele>794</ele>
        <time>2019-05-11T11:02:24Z</time>
      </trkpt>
      <trkpt lat="36.7196502685547" lon="-5.10187005996704">
        <ele>794</ele>
        <time>2019-05-11T11:02:26Z</time>
      </trkpt>
      <trkpt lat="36.7196617126465" lon="-5.10183477401733">
        <ele>795</ele>
        <time>2019-05-11T11:02:28Z</time>
      </trkpt>
      <trkpt lat="36.7196769714356" lon="-5.10180282592773">
        <ele>795</ele>
        <time>2019-05-11T11:02:30Z</time>
      </trkpt>
      <trkpt lat="36.7196922302246" lon="-5.10177278518677">
        <ele>795</ele>
        <time>2019-05-11T11:02:32Z</time>
      </trkpt>
      <trkpt lat="36.7197074890137" lon="-5.10174179077148">
        <ele>796</ele>
        <time>2019-05-11T11:02:34Z</time>
      </trkpt>
      <trkpt lat="36.7197189331055" lon="-5.10171318054199">
        <ele>796</ele>
        <time>2019-05-11T11:02:36Z</time>
      </trkpt>
      <trkpt lat="36.7197303771973" lon="-5.10168695449829">
        <ele>796</ele>
        <time>2019-05-11T11:02:39Z</time>
      </trkpt>
      <trkpt lat="36.7197456359863" lon="-5.10165691375732">
        <ele>796</ele>
        <time>2019-05-11T11:02:41Z</time>
      </trkpt>
      <trkpt lat="36.7197685241699" lon="-5.10163021087646">
        <ele>797</ele>
        <time>2019-05-11T11:02:43Z</time>
      </trkpt>
      <trkpt lat="36.7197875976562" lon="-5.10160493850708">
        <ele>797</ele>
        <time>2019-05-11T11:02:45Z</time>
      </trkpt>
      <trkpt lat="36.7198066711426" lon="-5.10157823562622">
        <ele>797</ele>
        <time>2019-05-11T11:02:47Z</time>
      </trkpt>
      <trkpt lat="36.7198295593262" lon="-5.10155296325684">
        <ele>797</ele>
        <time>2019-05-11T11:02:49Z</time>
      </trkpt>
      <trkpt lat="36.7198486328125" lon="-5.10153007507324">
        <ele>797</ele>
        <time>2019-05-11T11:02:51Z</time>
      </trkpt>
      <trkpt lat="36.7198715209961" lon="-5.10150718688965">
        <ele>797</ele>
        <time>2019-05-11T11:02:53Z</time>
      </trkpt>
      <trkpt lat="36.719898223877" lon="-5.10146713256836">
        <ele>797</ele>
        <time>2019-05-11T11:02:55Z</time>
      </trkpt>
      <trkpt lat="36.719913482666" lon="-5.10143804550171">
        <ele>797</ele>
        <time>2019-05-11T11:02:57Z</time>
      </trkpt>
      <trkpt lat="36.7199363708496" lon="-5.10141277313232">
        <ele>798</ele>
        <time>2019-05-11T11:02:59Z</time>
      </trkpt>
      <trkpt lat="36.7199554443359" lon="-5.1013879776001">
        <ele>798</ele>
        <time>2019-05-11T11:03:01Z</time>
      </trkpt>
      <trkpt lat="36.7199783325195" lon="-5.10136222839356">
        <ele>798</ele>
        <time>2019-05-11T11:03:03Z</time>
      </trkpt>
      <trkpt lat="36.7200012207031" lon="-5.1013331413269">
        <ele>798</ele>
        <time>2019-05-11T11:03:05Z</time>
      </trkpt>
      <trkpt lat="36.7200202941894" lon="-5.1013069152832">
        <ele>798</ele>
        <time>2019-05-11T11:03:07Z</time>
      </trkpt>
      <trkpt lat="36.720043182373" lon="-5.10127782821655">
        <ele>798</ele>
        <time>2019-05-11T11:03:09Z</time>
      </trkpt>
      <trkpt lat="36.7200622558594" lon="-5.10125017166138">
        <ele>798</ele>
        <time>2019-05-11T11:03:11Z</time>
      </trkpt>
      <trkpt lat="36.7200813293457" lon="-5.10122203826904">
        <ele>798</ele>
        <time>2019-05-11T11:03:14Z</time>
      </trkpt>
      <trkpt lat="36.7201042175293" lon="-5.10119485855103">
        <ele>798</ele>
        <time>2019-05-11T11:03:16Z</time>
      </trkpt>
      <trkpt lat="36.7201232910156" lon="-5.1011700630188">
        <ele>798</ele>
        <time>2019-05-11T11:03:18Z</time>
      </trkpt>
      <trkpt lat="36.7201461791992" lon="-5.10114288330078">
        <ele>799</ele>
        <time>2019-05-11T11:03:20Z</time>
      </trkpt>
      <trkpt lat="36.7201614379883" lon="-5.10111284255981">
        <ele>799</ele>
        <time>2019-05-11T11:03:22Z</time>
      </trkpt>
      <trkpt lat="36.7201843261719" lon="-5.10108280181885">
        <ele>799</ele>
        <time>2019-05-11T11:03:24Z</time>
      </trkpt>
      <trkpt lat="36.7202033996582" lon="-5.1010570526123">
        <ele>799</ele>
        <time>2019-05-11T11:03:26Z</time>
      </trkpt>
      <trkpt lat="36.7202262878418" lon="-5.10102701187134">
        <ele>800</ele>
        <time>2019-05-11T11:03:28Z</time>
      </trkpt>
      <trkpt lat="36.7202568054199" lon="-5.10098505020142">
        <ele>800</ele>
        <time>2019-05-11T11:03:30Z</time>
      </trkpt>
      <trkpt lat="36.720272064209" lon="-5.10095500946045">
        <ele>800</ele>
        <time>2019-05-11T11:03:32Z</time>
      </trkpt>
      <trkpt lat="36.7202949523926" lon="-5.10092687606812">
        <ele>800</ele>
        <time>2019-05-11T11:03:34Z</time>
      </trkpt>
      <trkpt lat="36.7203178405762" lon="-5.10090017318726">
        <ele>801</ele>
        <time>2019-05-11T11:03:36Z</time>
      </trkpt>
      <trkpt lat="36.7203330993652" lon="-5.10086679458618">
        <ele>801</ele>
        <time>2019-05-11T11:03:38Z</time>
      </trkpt>
      <trkpt lat="36.7203521728516" lon="-5.10083723068237">
        <ele>801</ele>
        <time>2019-05-11T11:03:40Z</time>
      </trkpt>
      <trkpt lat="36.7203712463379" lon="-5.10080480575562">
        <ele>802</ele>
        <time>2019-05-11T11:03:42Z</time>
      </trkpt>
      <trkpt lat="36.7203941345215" lon="-5.10077476501465">
        <ele>802</ele>
        <time>2019-05-11T11:03:44Z</time>
      </trkpt>
      <trkpt lat="36.7204132080078" lon="-5.10074806213379">
        <ele>802</ele>
        <time>2019-05-11T11:03:46Z</time>
      </trkpt>
      <trkpt lat="36.7204360961914" lon="-5.10072183609009">
        <ele>802</ele>
        <time>2019-05-11T11:03:49Z</time>
      </trkpt>
      <trkpt lat="36.7204551696777" lon="-5.10069704055786">
        <ele>803</ele>
        <time>2019-05-11T11:03:51Z</time>
      </trkpt>
      <trkpt lat="36.7204780578613" lon="-5.10067176818848">
        <ele>803</ele>
        <time>2019-05-11T11:03:53Z</time>
      </trkpt>
      <trkpt lat="36.7204971313477" lon="-5.10064506530762">
        <ele>803</ele>
        <time>2019-05-11T11:03:55Z</time>
      </trkpt>
      <trkpt lat="36.7205238342285" lon="-5.1006178855896">
        <ele>803</ele>
        <time>2019-05-11T11:03:57Z</time>
      </trkpt>
      <trkpt lat="36.7205505371094" lon="-5.10059976577759">
        <ele>804</ele>
        <time>2019-05-11T11:03:59Z</time>
      </trkpt>
      <trkpt lat="36.7205772399902" lon="-5.10058784484863">
        <ele>804</ele>
        <time>2019-05-11T11:04:01Z</time>
      </trkpt>
      <trkpt lat="36.7206039428711" lon="-5.10057783126831">
        <ele>804</ele>
        <time>2019-05-11T11:04:03Z</time>
      </trkpt>
      <trkpt lat="36.720645904541" lon="-5.10056781768799">
        <ele>804</ele>
        <time>2019-05-11T11:04:05Z</time>
      </trkpt>
      <trkpt lat="36.7206764221191" lon="-5.10056304931641">
        <ele>805</ele>
        <time>2019-05-11T11:04:07Z</time>
      </trkpt>
      <trkpt lat="36.720703125" lon="-5.10055780410767">
        <ele>805</ele>
        <time>2019-05-11T11:04:09Z</time>
      </trkpt>
      <trkpt lat="36.7207298278809" lon="-5.10055780410767">
        <ele>805</ele>
        <time>2019-05-11T11:04:11Z</time>
      </trkpt>
      <trkpt lat="36.7207565307617" lon="-5.10055685043335">
        <ele>805</ele>
        <time>2019-05-11T11:04:13Z</time>
      </trkpt>
      <trkpt lat="36.7207832336426" lon="-5.10055494308472">
        <ele>805</ele>
        <time>2019-05-11T11:04:15Z</time>
      </trkpt>
      <trkpt lat="36.7208061218262" lon="-5.10055685043335">
        <ele>806</ele>
        <time>2019-05-11T11:04:17Z</time>
      </trkpt>
      <trkpt lat="36.720832824707" lon="-5.10056018829346">
        <ele>806</ele>
        <time>2019-05-11T11:04:19Z</time>
      </trkpt>
      <trkpt lat="36.7208557128906" lon="-5.10056018829346">
        <ele>806</ele>
        <time>2019-05-11T11:04:21Z</time>
      </trkpt>
      <trkpt lat="36.7208824157715" lon="-5.10056209564209">
        <ele>807</ele>
        <time>2019-05-11T11:04:24Z</time>
      </trkpt>
      <trkpt lat="36.7209091186523" lon="-5.10056209564209">
        <ele>807</ele>
        <time>2019-05-11T11:04:26Z</time>
      </trkpt>
      <trkpt lat="36.7209396362305" lon="-5.10056018829346">
        <ele>807</ele>
        <time>2019-05-11T11:04:28Z</time>
      </trkpt>
      <trkpt lat="36.7209663391113" lon="-5.10056304931641">
        <ele>807</ele>
        <time>2019-05-11T11:04:30Z</time>
      </trkpt>
      <trkpt lat="36.7209968566894" lon="-5.10056686401367">
        <ele>808</ele>
        <time>2019-05-11T11:04:32Z</time>
      </trkpt>
      <trkpt lat="36.7210235595703" lon="-5.10057306289673">
        <ele>808</ele>
        <time>2019-05-11T11:04:34Z</time>
      </trkpt>
      <trkpt lat="36.7210502624512" lon="-5.10058212280273">
        <ele>808</ele>
        <time>2019-05-11T11:04:36Z</time>
      </trkpt>
      <trkpt lat="36.721076965332" lon="-5.10058689117432">
        <ele>808</ele>
        <time>2019-05-11T11:04:38Z</time>
      </trkpt>
      <trkpt lat="36.7211036682129" lon="-5.10058784484863">
        <ele>809</ele>
        <time>2019-05-11T11:04:40Z</time>
      </trkpt>
      <trkpt lat="36.7211418151856" lon="-5.10059022903442">
        <ele>809</ele>
        <time>2019-05-11T11:04:42Z</time>
      </trkpt>
      <trkpt lat="36.7211685180664" lon="-5.10059022903442">
        <ele>809</ele>
        <time>2019-05-11T11:04:44Z</time>
      </trkpt>
      <trkpt lat="36.7211952209473" lon="-5.10059022903442">
        <ele>809</ele>
        <time>2019-05-11T11:04:46Z</time>
      </trkpt>
      <trkpt lat="36.7212181091309" lon="-5.10059022903442">
        <ele>809</ele>
        <time>2019-05-11T11:04:48Z</time>
      </trkpt>
      <trkpt lat="36.721248626709" lon="-5.10058784484863">
        <ele>810</ele>
        <time>2019-05-11T11:04:50Z</time>
      </trkpt>
      <trkpt lat="36.7212715148926" lon="-5.10058498382568">
        <ele>810</ele>
        <time>2019-05-11T11:04:52Z</time>
      </trkpt>
      <trkpt lat="36.7212982177734" lon="-5.1005802154541">
        <ele>810</ele>
        <time>2019-05-11T11:04:54Z</time>
      </trkpt>
      <trkpt lat="36.7213287353516" lon="-5.10057497024536">
        <ele>811</ele>
        <time>2019-05-11T11:04:56Z</time>
      </trkpt>
      <trkpt lat="36.7213554382324" lon="-5.10056686401367">
        <ele>811</ele>
        <time>2019-05-11T11:04:58Z</time>
      </trkpt>
      <trkpt lat="36.7213821411133" lon="-5.10056018829346">
        <ele>811</ele>
        <time>2019-05-11T11:05:00Z</time>
      </trkpt>
      <trkpt lat="36.7214088439941" lon="-5.10055208206177">
        <ele>812</ele>
        <time>2019-05-11T11:05:02Z</time>
      </trkpt>
      <trkpt lat="36.721435546875" lon="-5.10054492950439">
        <ele>812</ele>
        <time>2019-05-11T11:05:05Z</time>
      </trkpt>
      <trkpt lat="36.7214584350586" lon="-5.10054016113281">
        <ele>812</ele>
        <time>2019-05-11T11:05:07Z</time>
      </trkpt>
      <trkpt lat="36.7214889526367" lon="-5.10053014755249">
        <ele>812</ele>
        <time>2019-05-11T11:05:09Z</time>
      </trkpt>
      <trkpt lat="36.7215194702148" lon="-5.1005220413208">
        <ele>812</ele>
        <time>2019-05-11T11:05:11Z</time>
      </trkpt>
      <trkpt lat="36.7215461730957" lon="-5.10051822662354">
        <ele>812</ele>
        <time>2019-05-11T11:05:13Z</time>
      </trkpt>
      <trkpt lat="36.7215728759766" lon="-5.10051012039185">
        <ele>813</ele>
        <time>2019-05-11T11:05:15Z</time>
      </trkpt>
      <trkpt lat="36.7216033935547" lon="-5.10050296783447">
        <ele>813</ele>
        <time>2019-05-11T11:05:17Z</time>
      </trkpt>
      <trkpt lat="36.7216300964356" lon="-5.10049676895142">
        <ele>813</ele>
        <time>2019-05-11T11:05:19Z</time>
      </trkpt>
      <trkpt lat="36.7216720581055" lon="-5.10048818588257">
        <ele>813</ele>
        <time>2019-05-11T11:05:21Z</time>
      </trkpt>
      <trkpt lat="36.7216987609863" lon="-5.10048294067383">
        <ele>813</ele>
        <time>2019-05-11T11:05:23Z</time>
      </trkpt>
      <trkpt lat="36.7217292785644" lon="-5.10047483444214">
        <ele>813</ele>
        <time>2019-05-11T11:05:25Z</time>
      </trkpt>
      <trkpt lat="36.7217597961426" lon="-5.10046720504761">
        <ele>813</ele>
        <time>2019-05-11T11:05:27Z</time>
      </trkpt>
      <trkpt lat="36.7217903137207" lon="-5.10046195983887">
        <ele>813</ele>
        <time>2019-05-11T11:05:29Z</time>
      </trkpt>
      <trkpt lat="36.7218170166016" lon="-5.10045719146728">
        <ele>814</ele>
        <time>2019-05-11T11:05:31Z</time>
      </trkpt>
      <trkpt lat="36.7218475341797" lon="-5.10045194625854">
        <ele>814</ele>
        <time>2019-05-11T11:05:33Z</time>
      </trkpt>
      <trkpt lat="36.7218742370606" lon="-5.10044717788696">
        <ele>814</ele>
        <time>2019-05-11T11:05:35Z</time>
      </trkpt>
      <trkpt lat="36.7219047546387" lon="-5.10044288635254">
        <ele>814</ele>
        <time>2019-05-11T11:05:37Z</time>
      </trkpt>
      <trkpt lat="36.7219314575195" lon="-5.10044193267822">
        <ele>814</ele>
        <time>2019-05-11T11:05:40Z</time>
      </trkpt>
      <trkpt lat="36.7219657897949" lon="-5.10044288635254">
        <ele>814</ele>
        <time>2019-05-11T11:05:42Z</time>
      </trkpt>
      <trkpt lat="36.721996307373" lon="-5.10044002532959">
        <ele>814</ele>
        <time>2019-05-11T11:05:44Z</time>
      </trkpt>
      <trkpt lat="36.7220230102539" lon="-5.10043716430664">
        <ele>814</ele>
        <time>2019-05-11T11:05:46Z</time>
      </trkpt>
      <trkpt lat="36.722053527832" lon="-5.10043478012085">
        <ele>815</ele>
        <time>2019-05-11T11:05:48Z</time>
      </trkpt>
      <trkpt lat="36.7220802307129" lon="-5.10043478012085">
        <ele>815</ele>
        <time>2019-05-11T11:05:50Z</time>
      </trkpt>
      <trkpt lat="36.7221069335938" lon="-5.10043478012085">
        <ele>815</ele>
        <time>2019-05-11T11:05:52Z</time>
      </trkpt>
      <trkpt lat="36.7221336364746" lon="-5.10042810440064">
        <ele>815</ele>
        <time>2019-05-11T11:05:54Z</time>
      </trkpt>
      <trkpt lat="36.7221717834473" lon="-5.10041189193726">
        <ele>816</ele>
        <time>2019-05-11T11:05:56Z</time>
      </trkpt>
      <trkpt lat="36.7221870422363" lon="-5.10039281845093">
        <ele>816</ele>
        <time>2019-05-11T11:05:58Z</time>
      </trkpt>
      <trkpt lat="36.7222061157227" lon="-5.10037517547607">
        <ele>816</ele>
        <time>2019-05-11T11:06:00Z</time>
      </trkpt>
      <trkpt lat="36.722225189209" lon="-5.10035276412964">
        <ele>816</ele>
        <time>2019-05-11T11:06:02Z</time>
      </trkpt>
      <trkpt lat="36.7222480773926" lon="-5.10033178329468">
        <ele>817</ele>
        <time>2019-05-11T11:06:04Z</time>
      </trkpt>
      <trkpt lat="36.7222671508789" lon="-5.1003098487854">
        <ele>817</ele>
        <time>2019-05-11T11:06:06Z</time>
      </trkpt>
      <trkpt lat="36.7222862243652" lon="-5.10028982162476">
        <ele>817</ele>
        <time>2019-05-11T11:06:08Z</time>
      </trkpt>
      <trkpt lat="36.7223014831543" lon="-5.10026788711548">
        <ele>818</ele>
        <time>2019-05-11T11:06:10Z</time>
      </trkpt>
      <trkpt lat="36.7223205566406" lon="-5.10025310516357">
        <ele>818</ele>
        <time>2019-05-11T11:06:12Z</time>
      </trkpt>
      <trkpt lat="36.722339630127" lon="-5.10023307800293">
        <ele>819</ele>
        <time>2019-05-11T11:06:15Z</time>
      </trkpt>
      <trkpt lat="36.7223587036133" lon="-5.10021209716797">
        <ele>819</ele>
        <time>2019-05-11T11:06:17Z</time>
      </trkpt>
      <trkpt lat="36.7223815917969" lon="-5.10019207000732">
        <ele>820</ele>
        <time>2019-05-11T11:06:19Z</time>
      </trkpt>
      <trkpt lat="36.7224006652832" lon="-5.10017013549805">
        <ele>820</ele>
        <time>2019-05-11T11:06:21Z</time>
      </trkpt>
      <trkpt lat="36.7224235534668" lon="-5.10014820098877">
        <ele>820</ele>
        <time>2019-05-11T11:06:23Z</time>
      </trkpt>
      <trkpt lat="36.7224426269531" lon="-5.10013008117676">
        <ele>821</ele>
        <time>2019-05-11T11:06:25Z</time>
      </trkpt>
      <trkpt lat="36.7224617004394" lon="-5.10011196136475">
        <ele>821</ele>
        <time>2019-05-11T11:06:27Z</time>
      </trkpt>
      <trkpt lat="36.7224807739258" lon="-5.10009479522705">
        <ele>822</ele>
        <time>2019-05-11T11:06:29Z</time>
      </trkpt>
      <trkpt lat="36.7225074768066" lon="-5.10007190704346">
        <ele>822</ele>
        <time>2019-05-11T11:06:31Z</time>
      </trkpt>
      <trkpt lat="36.7225303649902" lon="-5.10005807876587">
        <ele>823</ele>
        <time>2019-05-11T11:06:33Z</time>
      </trkpt>
      <trkpt lat="36.7225494384766" lon="-5.1000452041626">
        <ele>823</ele>
        <time>2019-05-11T11:06:35Z</time>
      </trkpt>
      <trkpt lat="36.7225685119629" lon="-5.10002517700195">
        <ele>824</ele>
        <time>2019-05-11T11:06:37Z</time>
      </trkpt>
      <trkpt lat="36.7225875854492" lon="-5.10000705718994">
        <ele>824</ele>
        <time>2019-05-11T11:06:39Z</time>
      </trkpt>
      <trkpt lat="36.7226066589356" lon="-5.09998989105225">
        <ele>824</ele>
        <time>2019-05-11T11:06:41Z</time>
      </trkpt>
      <trkpt lat="36.7226257324219" lon="-5.0999698638916">
        <ele>825</ele>
        <time>2019-05-11T11:06:43Z</time>
      </trkpt>
      <trkpt lat="36.7226486206055" lon="-5.09995317459106">
        <ele>825</ele>
        <time>2019-05-11T11:06:45Z</time>
      </trkpt>
      <trkpt lat="36.7226676940918" lon="-5.09993314743042">
        <ele>825</ele>
        <time>2019-05-11T11:06:47Z</time>
      </trkpt>
      <trkpt lat="36.7226867675781" lon="-5.09991502761841">
        <ele>825</ele>
        <time>2019-05-11T11:06:50Z</time>
      </trkpt>
      <trkpt lat="36.7227020263672" lon="-5.0998969078064">
        <ele>825</ele>
        <time>2019-05-11T11:06:52Z</time>
      </trkpt>
      <trkpt lat="36.7227172851562" lon="-5.09987783432007">
        <ele>825</ele>
        <time>2019-05-11T11:06:54Z</time>
      </trkpt>
      <trkpt lat="36.7227363586426" lon="-5.09986209869385">
        <ele>825</ele>
        <time>2019-05-11T11:06:56Z</time>
      </trkpt>
      <trkpt lat="36.7227554321289" lon="-5.0998420715332">
        <ele>825</ele>
        <time>2019-05-11T11:06:58Z</time>
      </trkpt>
      <trkpt lat="36.7227745056152" lon="-5.09981679916382">
        <ele>825</ele>
        <time>2019-05-11T11:07:00Z</time>
      </trkpt>
      <trkpt lat="36.7227935791016" lon="-5.09979820251465">
        <ele>825</ele>
        <time>2019-05-11T11:07:02Z</time>
      </trkpt>
      <trkpt lat="36.7228126525879" lon="-5.09978008270264">
        <ele>825</ele>
        <time>2019-05-11T11:07:04Z</time>
      </trkpt>
      <trkpt lat="36.7228317260742" lon="-5.09976196289062">
        <ele>825</ele>
        <time>2019-05-11T11:07:06Z</time>
      </trkpt>
      <trkpt lat="36.7228622436523" lon="-5.09973287582397">
        <ele>825</ele>
        <time>2019-05-11T11:07:08Z</time>
      </trkpt>
      <trkpt lat="36.7228813171387" lon="-5.09971714019775">
        <ele>825</ele>
        <time>2019-05-11T11:07:10Z</time>
      </trkpt>
      <trkpt lat="36.7229042053223" lon="-5.09969997406006">
        <ele>825</ele>
        <time>2019-05-11T11:07:12Z</time>
      </trkpt>
      <trkpt lat="36.7229232788086" lon="-5.09968185424805">
        <ele>825</ele>
        <time>2019-05-11T11:07:14Z</time>
      </trkpt>
      <trkpt lat="36.7229461669922" lon="-5.09966516494751">
        <ele>825</ele>
        <time>2019-05-11T11:07:16Z</time>
      </trkpt>
      <trkpt lat="36.7229652404785" lon="-5.0996470451355">
        <ele>825</ele>
        <time>2019-05-11T11:07:18Z</time>
      </trkpt>
      <trkpt lat="36.7229843139648" lon="-5.09962797164917">
        <ele>825</ele>
        <time>2019-05-11T11:07:20Z</time>
      </trkpt>
      <trkpt lat="36.7229957580566" lon="-5.09960794448853">
        <ele>825</ele>
        <time>2019-05-11T11:07:22Z</time>
      </trkpt>
      <trkpt lat="36.7230110168457" lon="-5.09958791732788">
        <ele>825</ele>
        <time>2019-05-11T11:07:25Z</time>
      </trkpt>
      <trkpt lat="36.7230224609375" lon="-5.09956789016724">
        <ele>825</ele>
        <time>2019-05-11T11:07:27Z</time>
      </trkpt>
      <trkpt lat="36.7230377197266" lon="-5.09954500198364">
        <ele>826</ele>
        <time>2019-05-11T11:07:29Z</time>
      </trkpt>
      <trkpt lat="36.7230491638184" lon="-5.09952020645142">
        <ele>826</ele>
        <time>2019-05-11T11:07:31Z</time>
      </trkpt>
      <trkpt lat="36.7230567932129" lon="-5.09949684143066">
        <ele>826</ele>
        <time>2019-05-11T11:07:33Z</time>
      </trkpt>
      <trkpt lat="36.7230682373047" lon="-5.09947299957275">
        <ele>826</ele>
        <time>2019-05-11T11:07:35Z</time>
      </trkpt>
      <trkpt lat="36.7230834960938" lon="-5.09945201873779">
        <ele>826</ele>
        <time>2019-05-11T11:07:37Z</time>
      </trkpt>
      <trkpt lat="36.7231025695801" lon="-5.09943008422852">
        <ele>826</ele>
        <time>2019-05-11T11:07:39Z</time>
      </trkpt>
      <trkpt lat="36.7231216430664" lon="-5.09941291809082">
        <ele>826</ele>
        <time>2019-05-11T11:07:41Z</time>
      </trkpt>
      <trkpt lat="36.7231636047363" lon="-5.09939479827881">
        <ele>827</ele>
        <time>2019-05-11T11:07:43Z</time>
      </trkpt>
      <trkpt lat="36.7231864929199" lon="-5.09938192367554">
        <ele>827</ele>
        <time>2019-05-11T11:07:45Z</time>
      </trkpt>
      <trkpt lat="36.7232131958008" lon="-5.09937000274658">
        <ele>827</ele>
        <time>2019-05-11T11:07:47Z</time>
      </trkpt>
      <trkpt lat="36.7232360839844" lon="-5.09936285018921">
        <ele>827</ele>
        <time>2019-05-11T11:07:49Z</time>
      </trkpt>
      <trkpt lat="36.7232627868652" lon="-5.09936285018921">
        <ele>827</ele>
        <time>2019-05-11T11:07:51Z</time>
      </trkpt>
      <trkpt lat="36.7232856750488" lon="-5.099365234375">
        <ele>827</ele>
        <time>2019-05-11T11:07:53Z</time>
      </trkpt>
      <trkpt lat="36.7233123779297" lon="-5.09936809539795">
        <ele>827</ele>
        <time>2019-05-11T11:07:55Z</time>
      </trkpt>
      <trkpt lat="36.723331451416" lon="-5.09937000274658">
        <ele>827</ele>
        <time>2019-05-11T11:07:57Z</time>
      </trkpt>
      <trkpt lat="36.7233543395996" lon="-5.09937715530396">
        <ele>827</ele>
        <time>2019-05-11T11:07:59Z</time>
      </trkpt>
      <trkpt lat="36.7233734130859" lon="-5.09939193725586">
        <ele>827</ele>
        <time>2019-05-11T11:08:02Z</time>
      </trkpt>
      <trkpt lat="36.7233963012695" lon="-5.09940719604492">
        <ele>827</ele>
        <time>2019-05-11T11:08:04Z</time>
      </trkpt>
      <trkpt lat="36.7234153747559" lon="-5.09942483901978">
        <ele>827</ele>
        <time>2019-05-11T11:08:06Z</time>
      </trkpt>
      <trkpt lat="36.7234382629394" lon="-5.09944486618042">
        <ele>827</ele>
        <time>2019-05-11T11:08:08Z</time>
      </trkpt>
      <trkpt lat="36.7234535217285" lon="-5.0994668006897">
        <ele>827</ele>
        <time>2019-05-11T11:08:10Z</time>
      </trkpt>
      <trkpt lat="36.7234725952148" lon="-5.09949016571045">
        <ele>827</ele>
        <time>2019-05-11T11:08:12Z</time>
      </trkpt>
      <trkpt lat="36.7234916687012" lon="-5.09951782226562">
        <ele>827</ele>
        <time>2019-05-11T11:08:14Z</time>
      </trkpt>
      <trkpt lat="36.7235107421875" lon="-5.09954500198364">
        <ele>826</ele>
        <time>2019-05-11T11:08:16Z</time>
      </trkpt>
      <trkpt lat="36.7235221862793" lon="-5.09957218170166">
        <ele>826</ele>
        <time>2019-05-11T11:08:18Z</time>
      </trkpt>
      <trkpt lat="36.7235412597656" lon="-5.09961700439453">
        <ele>826</ele>
        <time>2019-05-11T11:08:20Z</time>
      </trkpt>
      <trkpt lat="36.7235565185547" lon="-5.09964323043823">
        <ele>826</ele>
        <time>2019-05-11T11:08:22Z</time>
      </trkpt>
      <trkpt lat="36.7235641479492" lon="-5.09966707229614">
        <ele>826</ele>
        <time>2019-05-11T11:08:24Z</time>
      </trkpt>
      <trkpt lat="36.7235717773438" lon="-5.09969806671143">
        <ele>826</ele>
        <time>2019-05-11T11:08:26Z</time>
      </trkpt>
      <trkpt lat="36.7235794067383" lon="-5.09972715377808">
        <ele>826</ele>
        <time>2019-05-11T11:08:28Z</time>
      </trkpt>
      <trkpt lat="36.7235870361328" lon="-5.09975719451904">
        <ele>826</ele>
        <time>2019-05-11T11:08:30Z</time>
      </trkpt>
      <trkpt lat="36.7235984802246" lon="-5.09978723526001">
        <ele>826</ele>
        <time>2019-05-11T11:08:32Z</time>
      </trkpt>
      <trkpt lat="36.7236022949219" lon="-5.09981298446655">
        <ele>826</ele>
        <time>2019-05-11T11:08:34Z</time>
      </trkpt>
      <trkpt lat="36.7236213684082" lon="-5.09983491897583">
        <ele>826</ele>
        <time>2019-05-11T11:08:36Z</time>
      </trkpt>
      <trkpt lat="36.7236404418945" lon="-5.09984493255615">
        <ele>825</ele>
        <time>2019-05-11T11:08:39Z</time>
      </trkpt>
      <trkpt lat="36.7236557006836" lon="-5.09985494613647">
        <ele>825</ele>
        <time>2019-05-11T11:08:41Z</time>
      </trkpt>
      <trkpt lat="36.7236633300781" lon="-5.09985685348511">
        <ele>825</ele>
        <time>2019-05-11T11:08:43Z</time>
      </trkpt>
      <trkpt lat="36.7236633300781" lon="-5.09985780715942">
        <ele>825</ele>
        <time>2019-05-11T11:08:45Z</time>
      </trkpt>
      <trkpt lat="36.7236671447754" lon="-5.09985685348511">
        <ele>825</ele>
        <time>2019-05-11T11:08:47Z</time>
      </trkpt>
      <trkpt lat="36.7236671447754" lon="-5.09985780715942">
        <ele>825</ele>
        <time>2019-05-11T11:08:49Z</time>
      </trkpt>
      <trkpt lat="36.7236671447754" lon="-5.09986019134522">
        <ele>825</ele>
        <time>2019-05-11T11:08:51Z</time>
      </trkpt>
      <trkpt lat="36.7236671447754" lon="-5.09986305236816">
        <ele>825</ele>
        <time>2019-05-11T11:08:53Z</time>
      </trkpt>
      <trkpt lat="36.7236671447754" lon="-5.09986305236816">
        <ele>825</ele>
        <time>2019-05-11T11:08:55Z</time>
      </trkpt>
      <trkpt lat="36.7236671447754" lon="-5.09986305236816">
        <ele>825</ele>
        <time>2019-05-11T11:08:57Z</time>
      </trkpt>
      <trkpt lat="36.7236671447754" lon="-5.09986782073975">
        <ele>825</ele>
        <time>2019-05-11T11:08:59Z</time>
      </trkpt>
      <trkpt lat="36.7236785888672" lon="-5.09987497329712">
        <ele>825</ele>
        <time>2019-05-11T11:09:01Z</time>
      </trkpt>
      <trkpt lat="36.7236785888672" lon="-5.09987497329712">
        <ele>825</ele>
        <time>2019-05-11T11:09:03Z</time>
      </trkpt>
      <trkpt lat="36.7236785888672" lon="-5.09987688064575">
        <ele>825</ele>
        <time>2019-05-11T11:09:05Z</time>
      </trkpt>
      <trkpt lat="36.7236785888672" lon="-5.09987688064575">
        <ele>825</ele>
        <time>2019-05-11T11:09:07Z</time>
      </trkpt>
      <trkpt lat="36.7236785888672" lon="-5.09987688064575">
        <ele>825</ele>
        <time>2019-05-11T11:09:09Z</time>
      </trkpt>
      <trkpt lat="36.7236785888672" lon="-5.09987688064575">
        <ele>825</ele>
        <time>2019-05-11T11:09:11Z</time>
      </trkpt>
      <trkpt lat="36.7236785888672" lon="-5.09987688064575">
        <ele>825</ele>
        <time>2019-05-11T11:09:13Z</time>
      </trkpt>
      <trkpt lat="36.7236747741699" lon="-5.09987783432007">
        <ele>825</ele>
        <time>2019-05-11T11:09:15Z</time>
      </trkpt>
      <trkpt lat="36.7236747741699" lon="-5.09987783432007">
        <ele>825</ele>
        <time>2019-05-11T11:09:17Z</time>
      </trkpt>
      <trkpt lat="36.7236747741699" lon="-5.09988498687744">
        <ele>825</ele>
        <time>2019-05-11T11:09:19Z</time>
      </trkpt>
      <trkpt lat="36.7236785888672" lon="-5.09989500045776">
        <ele>825</ele>
        <time>2019-05-11T11:09:21Z</time>
      </trkpt>
      <trkpt lat="36.7236862182617" lon="-5.09990501403809">
        <ele>825</ele>
        <time>2019-05-11T11:09:23Z</time>
      </trkpt>
      <trkpt lat="36.7236976623535" lon="-5.09991216659546">
        <ele>825</ele>
        <time>2019-05-11T11:09:25Z</time>
      </trkpt>
      <trkpt lat="36.7237091064453" lon="-5.09991502761841">
        <ele>825</ele>
        <time>2019-05-11T11:09:27Z</time>
      </trkpt>
      <trkpt lat="36.7237205505371" lon="-5.09991693496704">
        <ele>825</ele>
        <time>2019-05-11T11:09:29Z</time>
      </trkpt>
      <trkpt lat="36.7237358093262" lon="-5.09990692138672">
        <ele>825</ele>
        <time>2019-05-11T11:09:32Z</time>
      </trkpt>
      <trkpt lat="36.7237548828125" lon="-5.09989976882935">
        <ele>825</ele>
        <time>2019-05-11T11:09:34Z</time>
      </trkpt>
      <trkpt lat="36.7237663269043" lon="-5.09988498687744">
        <ele>825</ele>
        <time>2019-05-11T11:09:36Z</time>
      </trkpt>
      <trkpt lat="36.7237854003906" lon="-5.09987688064575">
        <ele>825</ele>
        <time>2019-05-11T11:09:38Z</time>
      </trkpt>
      <trkpt lat="36.7238006591797" lon="-5.09986209869385">
        <ele>825</ele>
        <time>2019-05-11T11:09:40Z</time>
      </trkpt>
      <trkpt lat="36.7238159179688" lon="-5.0998477935791">
        <ele>825</ele>
        <time>2019-05-11T11:09:42Z</time>
      </trkpt>
      <trkpt lat="36.7238311767578" lon="-5.0998330116272">
        <ele>825</ele>
        <time>2019-05-11T11:09:44Z</time>
      </trkpt>
      <trkpt lat="36.7238464355469" lon="-5.09981822967529">
        <ele>825</ele>
        <time>2019-05-11T11:09:46Z</time>
      </trkpt>
      <trkpt lat="36.7238616943359" lon="-5.09980201721191">
        <ele>825</ele>
        <time>2019-05-11T11:09:48Z</time>
      </trkpt>
      <trkpt lat="36.7238883972168" lon="-5.09978294372559">
        <ele>825</ele>
        <time>2019-05-11T11:09:50Z</time>
      </trkpt>
      <trkpt lat="36.7239036560059" lon="-5.09977293014526">
        <ele>825</ele>
        <time>2019-05-11T11:09:52Z</time>
      </trkpt>
      <trkpt lat="36.7239227294922" lon="-5.09976482391357">
        <ele>825</ele>
        <time>2019-05-11T11:09:54Z</time>
      </trkpt>
      <trkpt lat="36.7239379882812" lon="-5.09976720809936">
        <ele>825</ele>
        <time>2019-05-11T11:09:56Z</time>
      </trkpt>
      <trkpt lat="36.7239418029785" lon="-5.09976482391357">
        <ele>825</ele>
        <time>2019-05-11T11:09:58Z</time>
      </trkpt>
      <trkpt lat="36.7239418029785" lon="-5.09976291656494">
        <ele>825</ele>
        <time>2019-05-11T11:10:00Z</time>
      </trkpt>
      <trkpt lat="36.7239456176758" lon="-5.09976005554199">
        <ele>825</ele>
        <time>2019-05-11T11:10:02Z</time>
      </trkpt>
      <trkpt lat="36.7239456176758" lon="-5.09976005554199">
        <ele>825</ele>
        <time>2019-05-11T11:10:04Z</time>
      </trkpt>
      <trkpt lat="36.7239456176758" lon="-5.09976196289062">
        <ele>825</ele>
        <time>2019-05-11T11:10:06Z</time>
      </trkpt>
      <trkpt lat="36.7239456176758" lon="-5.09976291656494">
        <ele>825</ele>
        <time>2019-05-11T11:10:08Z</time>
      </trkpt>
      <trkpt lat="36.7239418029785" lon="-5.09976482391357">
        <ele>825</ele>
        <time>2019-05-11T11:10:10Z</time>
      </trkpt>
      <trkpt lat="36.7239418029785" lon="-5.09976720809936">
        <ele>825</ele>
        <time>2019-05-11T11:10:12Z</time>
      </trkpt>
      <trkpt lat="36.7239418029785" lon="-5.09976720809936">
        <ele>825</ele>
        <time>2019-05-11T11:10:15Z</time>
      </trkpt>
      <trkpt lat="36.7239418029785" lon="-5.09976720809936">
        <ele>825</ele>
        <time>2019-05-11T11:10:17Z</time>
      </trkpt>
      <trkpt lat="36.7239418029785" lon="-5.09977006912231">
        <ele>825</ele>
        <time>2019-05-11T11:10:19Z</time>
      </trkpt>
      <trkpt lat="36.7239418029785" lon="-5.09977006912231">
        <ele>825</ele>
        <time>2019-05-11T11:10:21Z</time>
      </trkpt>
      <trkpt lat="36.7239418029785" lon="-5.09977197647095">
        <ele>825</ele>
        <time>2019-05-11T11:10:23Z</time>
      </trkpt>
      <trkpt lat="36.7239418029785" lon="-5.09977293014526">
        <ele>825</ele>
        <time>2019-05-11T11:10:25Z</time>
      </trkpt>
      <trkpt lat="36.7239418029785" lon="-5.09977293014526">
        <ele>825</ele>
        <time>2019-05-11T11:10:27Z</time>
      </trkpt>
      <trkpt lat="36.7239379882812" lon="-5.0997748374939">
        <ele>825</ele>
        <time>2019-05-11T11:10:29Z</time>
      </trkpt>
      <trkpt lat="36.7239379882812" lon="-5.09977722167969">
        <ele>825</ele>
        <time>2019-05-11T11:10:31Z</time>
      </trkpt>
      <trkpt lat="36.7239379882812" lon="-5.099778175354">
        <ele>825</ele>
        <time>2019-05-11T11:10:33Z</time>
      </trkpt>
      <trkpt lat="36.7239379882812" lon="-5.099778175354">
        <ele>825</ele>
        <time>2019-05-11T11:10:35Z</time>
      </trkpt>
      <trkpt lat="36.7239379882812" lon="-5.09978199005127">
        <ele>825</ele>
        <time>2019-05-11T11:10:37Z</time>
      </trkpt>
      <trkpt lat="36.7239379882812" lon="-5.09978008270264">
        <ele>825</ele>
        <time>2019-05-11T11:10:39Z</time>
      </trkpt>
      <trkpt lat="36.7239418029785" lon="-5.09978199005127">
        <ele>825</ele>
        <time>2019-05-11T11:10:41Z</time>
      </trkpt>
      <trkpt lat="36.7239608764648" lon="-5.09978199005127">
        <ele>825</ele>
        <time>2019-05-11T11:10:43Z</time>
      </trkpt>
      <trkpt lat="36.7239837646484" lon="-5.09977293014526">
        <ele>825</ele>
        <time>2019-05-11T11:10:45Z</time>
      </trkpt>
      <trkpt lat="36.7239990234375" lon="-5.09976816177368">
        <ele>826</ele>
        <time>2019-05-11T11:10:47Z</time>
      </trkpt>
      <trkpt lat="36.7240104675293" lon="-5.09976482391357">
        <ele>826</ele>
        <time>2019-05-11T11:10:49Z</time>
      </trkpt>
      <trkpt lat="36.7240104675293" lon="-5.09976005554199">
        <ele>826</ele>
        <time>2019-05-11T11:10:51Z</time>
      </trkpt>
      <trkpt lat="36.724006652832" lon="-5.09976196289062">
        <ele>826</ele>
        <time>2019-05-11T11:10:53Z</time>
      </trkpt>
      <trkpt lat="36.724006652832" lon="-5.09976482391357">
        <ele>826</ele>
        <time>2019-05-11T11:10:55Z</time>
      </trkpt>
      <trkpt lat="36.7240180969238" lon="-5.09976291656494">
        <ele>826</ele>
        <time>2019-05-11T11:10:57Z</time>
      </trkpt>
      <trkpt lat="36.7240371704102" lon="-5.09976291656494">
        <ele>826</ele>
        <time>2019-05-11T11:10:59Z</time>
      </trkpt>
      <trkpt lat="36.7240524291992" lon="-5.09976482391357">
        <ele>826</ele>
        <time>2019-05-11T11:11:01Z</time>
      </trkpt>
      <trkpt lat="36.724063873291" lon="-5.09976005554199">
        <ele>826</ele>
        <time>2019-05-11T11:11:03Z</time>
      </trkpt>
      <trkpt lat="36.7240715026856" lon="-5.09976196289062">
        <ele>826</ele>
        <time>2019-05-11T11:11:05Z</time>
      </trkpt>
      <trkpt lat="36.7240867614746" lon="-5.09976482391357">
        <ele>826</ele>
        <time>2019-05-11T11:11:08Z</time>
      </trkpt>
      <trkpt lat="36.7241058349609" lon="-5.09977197647095">
        <ele>826</ele>
        <time>2019-05-11T11:11:10Z</time>
      </trkpt>
      <trkpt lat="36.7241287231445" lon="-5.09977293014526">
        <ele>826</ele>
        <time>2019-05-11T11:11:12Z</time>
      </trkpt>
      <trkpt lat="36.7241439819336" lon="-5.09977006912231">
        <ele>827</ele>
        <time>2019-05-11T11:11:14Z</time>
      </trkpt>
      <trkpt lat="36.7241592407227" lon="-5.09976291656494">
        <ele>827</ele>
        <time>2019-05-11T11:11:16Z</time>
      </trkpt>
      <trkpt lat="36.7241744995117" lon="-5.09975290298462">
        <ele>828</ele>
        <time>2019-05-11T11:11:18Z</time>
      </trkpt>
      <trkpt lat="36.7241821289062" lon="-5.09974193572998">
        <ele>828</ele>
        <time>2019-05-11T11:11:20Z</time>
      </trkpt>
      <trkpt lat="36.7241859436035" lon="-5.09973478317261">
        <ele>828</ele>
        <time>2019-05-11T11:11:22Z</time>
      </trkpt>
      <trkpt lat="36.724193572998" lon="-5.09972715377808">
        <ele>828</ele>
        <time>2019-05-11T11:11:24Z</time>
      </trkpt>
      <trkpt lat="36.7241973876953" lon="-5.09971714019775">
        <ele>828</ele>
        <time>2019-05-11T11:11:26Z</time>
      </trkpt>
      <trkpt lat="36.7242012023926" lon="-5.09970998764038">
        <ele>828</ele>
        <time>2019-05-11T11:11:28Z</time>
      </trkpt>
      <trkpt lat="36.7242012023926" lon="-5.09970808029175">
        <ele>828</ele>
        <time>2019-05-11T11:11:30Z</time>
      </trkpt>
      <trkpt lat="36.7242012023926" lon="-5.0997052192688">
        <ele>828</ele>
        <time>2019-05-11T11:11:32Z</time>
      </trkpt>
      <trkpt lat="36.7242012023926" lon="-5.09970188140869">
        <ele>828</ele>
        <time>2019-05-11T11:11:34Z</time>
      </trkpt>
      <trkpt lat="36.7242050170898" lon="-5.09969520568848">
        <ele>828</ele>
        <time>2019-05-11T11:11:36Z</time>
      </trkpt>
      <trkpt lat="36.7242012023926" lon="-5.09969282150269">
        <ele>828</ele>
        <time>2019-05-11T11:11:38Z</time>
      </trkpt>
      <trkpt lat="36.7242050170898" lon="-5.09969282150269">
        <ele>828</ele>
        <time>2019-05-11T11:11:40Z</time>
      </trkpt>
      <trkpt lat="36.7242012023926" lon="-5.09969282150269">
        <ele>828</ele>
        <time>2019-05-11T11:11:42Z</time>
      </trkpt>
      <trkpt lat="36.7242050170898" lon="-5.09969186782837">
        <ele>828</ele>
        <time>2019-05-11T11:11:44Z</time>
      </trkpt>
      <trkpt lat="36.7242050170898" lon="-5.09968996047974">
        <ele>828</ele>
        <time>2019-05-11T11:11:46Z</time>
      </trkpt>
      <trkpt lat="36.7242050170898" lon="-5.09968709945679">
        <ele>828</ele>
        <time>2019-05-11T11:11:48Z</time>
      </trkpt>
      <trkpt lat="36.7242012023926" lon="-5.09968280792236">
        <ele>828</ele>
        <time>2019-05-11T11:11:51Z</time>
      </trkpt>
      <trkpt lat="36.7242050170898" lon="-5.09968185424805">
        <ele>828</ele>
        <time>2019-05-11T11:11:53Z</time>
      </trkpt>
      <trkpt lat="36.7242012023926" lon="-5.09967994689941">
        <ele>828</ele>
        <time>2019-05-11T11:11:55Z</time>
      </trkpt>
      <trkpt lat="36.7242012023926" lon="-5.09967708587646">
        <ele>828</ele>
        <time>2019-05-11T11:11:57Z</time>
      </trkpt>
      <trkpt lat="36.7242012023926" lon="-5.09967279434204">
        <ele>828</ele>
        <time>2019-05-11T11:11:59Z</time>
      </trkpt>
      <trkpt lat="36.7242050170898" lon="-5.09967184066772">
        <ele>828</ele>
        <time>2019-05-11T11:12:01Z</time>
      </trkpt>
      <trkpt lat="36.7242088317871" lon="-5.09967184066772">
        <ele>828</ele>
        <time>2019-05-11T11:12:03Z</time>
      </trkpt>
      <trkpt lat="36.7242164611816" lon="-5.09967279434204">
        <ele>828</ele>
        <time>2019-05-11T11:12:05Z</time>
      </trkpt>
      <trkpt lat="36.7242164611816" lon="-5.09967708587646">
        <ele>828</ele>
        <time>2019-05-11T11:12:07Z</time>
      </trkpt>
      <trkpt lat="36.7242164611816" lon="-5.09968709945679">
        <ele>828</ele>
        <time>2019-05-11T11:12:09Z</time>
      </trkpt>
      <trkpt lat="36.7242279052734" lon="-5.09967708587646">
        <ele>828</ele>
        <time>2019-05-11T11:12:11Z</time>
      </trkpt>
      <trkpt lat="36.7242393493652" lon="-5.09966802597046">
        <ele>828</ele>
        <time>2019-05-11T11:12:13Z</time>
      </trkpt>
      <trkpt lat="36.7242431640625" lon="-5.09966278076172">
        <ele>828</ele>
        <time>2019-05-11T11:12:15Z</time>
      </trkpt>
      <trkpt lat="36.7242431640625" lon="-5.09965515136719">
        <ele>828</ele>
        <time>2019-05-11T11:12:17Z</time>
      </trkpt>
      <trkpt lat="36.7242431640625" lon="-5.09964799880981">
        <ele>828</ele>
        <time>2019-05-11T11:12:19Z</time>
      </trkpt>
      <trkpt lat="36.7242431640625" lon="-5.0996470451355">
        <ele>828</ele>
        <time>2019-05-11T11:12:21Z</time>
      </trkpt>
      <trkpt lat="36.7242431640625" lon="-5.09963989257812">
        <ele>828</ele>
        <time>2019-05-11T11:12:23Z</time>
      </trkpt>
      <trkpt lat="36.7242393493652" lon="-5.09963703155518">
        <ele>828</ele>
        <time>2019-05-11T11:12:25Z</time>
      </trkpt>
      <trkpt lat="36.7242393493652" lon="-5.0996298789978">
        <ele>828</ele>
        <time>2019-05-11T11:12:27Z</time>
      </trkpt>
      <trkpt lat="36.724235534668" lon="-5.09962797164917">
        <ele>828</ele>
        <time>2019-05-11T11:12:29Z</time>
      </trkpt>
      <trkpt lat="36.7242279052734" lon="-5.09962511062622">
        <ele>828</ele>
        <time>2019-05-11T11:12:31Z</time>
      </trkpt>
      <trkpt lat="36.7242279052734" lon="-5.09962701797485">
        <ele>828</ele>
        <time>2019-05-11T11:12:33Z</time>
      </trkpt>
      <trkpt lat="36.724235534668" lon="-5.09961986541748">
        <ele>828</ele>
        <time>2019-05-11T11:12:35Z</time>
      </trkpt>
      <trkpt lat="36.724235534668" lon="-5.09961795806885">
        <ele>828</ele>
        <time>2019-05-11T11:12:37Z</time>
      </trkpt>
      <trkpt lat="36.724235534668" lon="-5.09961700439453">
        <ele>828</ele>
        <time>2019-05-11T11:12:39Z</time>
      </trkpt>
      <trkpt lat="36.7242393493652" lon="-5.09961795806885">
        <ele>828</ele>
        <time>2019-05-11T11:12:42Z</time>
      </trkpt>
      <trkpt lat="36.7242431640625" lon="-5.0996150970459">
        <ele>828</ele>
        <time>2019-05-11T11:12:44Z</time>
      </trkpt>
      <trkpt lat="36.724250793457" lon="-5.09960222244263">
        <ele>828</ele>
        <time>2019-05-11T11:12:46Z</time>
      </trkpt>
      <trkpt lat="36.7242546081543" lon="-5.09959316253662">
        <ele>828</ele>
        <time>2019-05-11T11:12:48Z</time>
      </trkpt>
      <trkpt lat="36.7242584228516" lon="-5.0995831489563">
        <ele>828</ele>
        <time>2019-05-11T11:12:50Z</time>
      </trkpt>
      <trkpt lat="36.7242622375488" lon="-5.09957218170166">
        <ele>828</ele>
        <time>2019-05-11T11:12:52Z</time>
      </trkpt>
      <trkpt lat="36.7242698669434" lon="-5.09955978393555">
        <ele>828</ele>
        <time>2019-05-11T11:12:54Z</time>
      </trkpt>
      <trkpt lat="36.7242736816406" lon="-5.09954500198364">
        <ele>828</ele>
        <time>2019-05-11T11:12:56Z</time>
      </trkpt>
      <trkpt lat="36.7242698669434" lon="-5.09953308105469">
        <ele>828</ele>
        <time>2019-05-11T11:12:58Z</time>
      </trkpt>
      <trkpt lat="36.7242698669434" lon="-5.09951496124268">
        <ele>828</ele>
        <time>2019-05-11T11:13:00Z</time>
      </trkpt>
      <trkpt lat="36.7242774963379" lon="-5.09948682785034">
        <ele>828</ele>
        <time>2019-05-11T11:13:02Z</time>
      </trkpt>
      <trkpt lat="36.7242889404297" lon="-5.09947490692139">
        <ele>828</ele>
        <time>2019-05-11T11:13:04Z</time>
      </trkpt>
      <trkpt lat="36.7243041992188" lon="-5.09946012496948">
        <ele>828</ele>
        <time>2019-05-11T11:13:06Z</time>
      </trkpt>
      <trkpt lat="36.7243194580078" lon="-5.09944486618042">
        <ele>828</ele>
        <time>2019-05-11T11:13:08Z</time>
      </trkpt>
      <trkpt lat="36.7243347167969" lon="-5.0994348526001">
        <ele>828</ele>
        <time>2019-05-11T11:13:10Z</time>
      </trkpt>
      <trkpt lat="36.7243537902832" lon="-5.09942197799683">
        <ele>828</ele>
        <time>2019-05-11T11:13:12Z</time>
      </trkpt>
      <trkpt lat="36.7243728637695" lon="-5.09940814971924">
        <ele>828</ele>
        <time>2019-05-11T11:13:14Z</time>
      </trkpt>
      <trkpt lat="36.7243843078613" lon="-5.0993971824646">
        <ele>828</ele>
        <time>2019-05-11T11:13:16Z</time>
      </trkpt>
      <trkpt lat="36.7243995666504" lon="-5.09938287734985">
        <ele>828</ele>
        <time>2019-05-11T11:13:18Z</time>
      </trkpt>
      <trkpt lat="36.7244110107422" lon="-5.09938192367554">
        <ele>828</ele>
        <time>2019-05-11T11:13:21Z</time>
      </trkpt>
      <trkpt lat="36.7244186401367" lon="-5.09938716888428">
        <ele>828</ele>
        <time>2019-05-11T11:13:23Z</time>
      </trkpt>
      <trkpt lat="36.7244186401367" lon="-5.09938716888428">
        <ele>828</ele>
        <time>2019-05-11T11:13:25Z</time>
      </trkpt>
      <trkpt lat="36.7244186401367" lon="-5.09938716888428">
        <ele>828</ele>
        <time>2019-05-11T11:13:27Z</time>
      </trkpt>
      <trkpt lat="36.7244186401367" lon="-5.09938812255859">
        <ele>828</ele>
        <time>2019-05-11T11:13:29Z</time>
      </trkpt>
      <trkpt lat="36.7244186401367" lon="-5.09939193725586">
        <ele>828</ele>
        <time>2019-05-11T11:13:31Z</time>
      </trkpt>
      <trkpt lat="36.7244186401367" lon="-5.09939002990723">
        <ele>828</ele>
        <time>2019-05-11T11:13:33Z</time>
      </trkpt>
      <trkpt lat="36.724422454834" lon="-5.09938716888428">
        <ele>828</ele>
        <time>2019-05-11T11:13:35Z</time>
      </trkpt>
      <trkpt lat="36.724422454834" lon="-5.09938478469849">
        <ele>828</ele>
        <time>2019-05-11T11:13:37Z</time>
      </trkpt>
      <trkpt lat="36.724422454834" lon="-5.09938287734985">
        <ele>828</ele>
        <time>2019-05-11T11:13:39Z</time>
      </trkpt>
      <trkpt lat="36.724422454834" lon="-5.09938287734985">
        <ele>828</ele>
        <time>2019-05-11T11:13:41Z</time>
      </trkpt>
      <trkpt lat="36.724422454834" lon="-5.09938287734985">
        <ele>828</ele>
        <time>2019-05-11T11:13:43Z</time>
      </trkpt>
      <trkpt lat="36.724422454834" lon="-5.09938478469849">
        <ele>828</ele>
        <time>2019-05-11T11:13:45Z</time>
      </trkpt>
      <trkpt lat="36.724422454834" lon="-5.09938716888428">
        <ele>828</ele>
        <time>2019-05-11T11:13:47Z</time>
      </trkpt>
      <trkpt lat="36.7244262695312" lon="-5.09939002990723">
        <ele>828</ele>
        <time>2019-05-11T11:13:49Z</time>
      </trkpt>
      <trkpt lat="36.7244110107422" lon="-5.09941291809082">
        <ele>828</ele>
        <time>2019-05-11T11:13:51Z</time>
      </trkpt>
      <trkpt lat="36.7243957519531" lon="-5.09942197799683">
        <ele>828</ele>
        <time>2019-05-11T11:13:53Z</time>
      </trkpt>
      <trkpt lat="36.7243766784668" lon="-5.0994381904602">
        <ele>828</ele>
        <time>2019-05-11T11:13:55Z</time>
      </trkpt>
      <trkpt lat="36.7243614196777" lon="-5.09946203231812">
        <ele>828</ele>
        <time>2019-05-11T11:13:57Z</time>
      </trkpt>
      <trkpt lat="36.7243461608887" lon="-5.09948301315308">
        <ele>828</ele>
        <time>2019-05-11T11:13:59Z</time>
      </trkpt>
      <trkpt lat="36.7243309020996" lon="-5.09949779510498">
        <ele>828</ele>
        <time>2019-05-11T11:14:01Z</time>
      </trkpt>
      <trkpt lat="36.7243232727051" lon="-5.0995078086853">
        <ele>828</ele>
        <time>2019-05-11T11:14:03Z</time>
      </trkpt>
      <trkpt lat="36.7243232727051" lon="-5.09951019287109">
        <ele>828</ele>
        <time>2019-05-11T11:14:05Z</time>
      </trkpt>
      <trkpt lat="36.7243232727051" lon="-5.09951210021973">
        <ele>828</ele>
        <time>2019-05-11T11:14:07Z</time>
      </trkpt>
      <trkpt lat="36.7243232727051" lon="-5.09951305389404">
        <ele>828</ele>
        <time>2019-05-11T11:14:09Z</time>
      </trkpt>
      <trkpt lat="36.7243232727051" lon="-5.09951496124268">
        <ele>828</ele>
        <time>2019-05-11T11:14:12Z</time>
      </trkpt>
      <trkpt lat="36.7243194580078" lon="-5.09951686859131">
        <ele>828</ele>
        <time>2019-05-11T11:14:14Z</time>
      </trkpt>
      <trkpt lat="36.7243194580078" lon="-5.09951782226562">
        <ele>828</ele>
        <time>2019-05-11T11:14:16Z</time>
      </trkpt>
      <trkpt lat="36.7243194580078" lon="-5.09951782226562">
        <ele>828</ele>
        <time>2019-05-11T11:14:18Z</time>
      </trkpt>
      <trkpt lat="36.7243194580078" lon="-5.09951782226562">
        <ele>828</ele>
        <time>2019-05-11T11:14:20Z</time>
      </trkpt>
      <trkpt lat="36.7243194580078" lon="-5.09951782226562">
        <ele>828</ele>
        <time>2019-05-11T11:14:22Z</time>
      </trkpt>
      <trkpt lat="36.7243194580078" lon="-5.09952211380005">
        <ele>828</ele>
        <time>2019-05-11T11:14:24Z</time>
      </trkpt>
      <trkpt lat="36.7243194580078" lon="-5.09952020645142">
        <ele>828</ele>
        <time>2019-05-11T11:14:26Z</time>
      </trkpt>
      <trkpt lat="36.7243194580078" lon="-5.09952020645142">
        <ele>828</ele>
        <time>2019-05-11T11:14:28Z</time>
      </trkpt>
      <trkpt lat="36.7243194580078" lon="-5.09952020645142">
        <ele>828</ele>
        <time>2019-05-11T11:14:30Z</time>
      </trkpt>
      <trkpt lat="36.7243156433106" lon="-5.09951686859131">
        <ele>828</ele>
        <time>2019-05-11T11:14:32Z</time>
      </trkpt>
      <trkpt lat="36.7243232727051" lon="-5.09951305389404">
        <ele>828</ele>
        <time>2019-05-11T11:14:34Z</time>
      </trkpt>
      <trkpt lat="36.7243232727051" lon="-5.09951305389404">
        <ele>828</ele>
        <time>2019-05-11T11:14:36Z</time>
      </trkpt>
      <trkpt lat="36.7243232727051" lon="-5.09951210021973">
        <ele>828</ele>
        <time>2019-05-11T11:14:38Z</time>
      </trkpt>
      <trkpt lat="36.7243232727051" lon="-5.09951305389404">
        <ele>828</ele>
        <time>2019-05-11T11:14:40Z</time>
      </trkpt>
      <trkpt lat="36.7243232727051" lon="-5.09951496124268">
        <ele>828</ele>
        <time>2019-05-11T11:14:42Z</time>
      </trkpt>
      <trkpt lat="36.7243194580078" lon="-5.09951305389404">
        <ele>828</ele>
        <time>2019-05-11T11:14:44Z</time>
      </trkpt>
      <trkpt lat="36.7243194580078" lon="-5.09951210021973">
        <ele>828</ele>
        <time>2019-05-11T11:14:46Z</time>
      </trkpt>
      <trkpt lat="36.7243194580078" lon="-5.09951210021973">
        <ele>828</ele>
        <time>2019-05-11T11:14:48Z</time>
      </trkpt>
      <trkpt lat="36.7243194580078" lon="-5.09951210021973">
        <ele>828</ele>
        <time>2019-05-11T11:14:50Z</time>
      </trkpt>
      <trkpt lat="36.7243194580078" lon="-5.09951210021973">
        <ele>828</ele>
        <time>2019-05-11T11:14:52Z</time>
      </trkpt>
      <trkpt lat="36.7243194580078" lon="-5.09951210021973">
        <ele>828</ele>
        <time>2019-05-11T11:14:54Z</time>
      </trkpt>
      <trkpt lat="36.7243194580078" lon="-5.09951210021973">
        <ele>828</ele>
        <time>2019-05-11T11:14:56Z</time>
      </trkpt>
      <trkpt lat="36.7243232727051" lon="-5.09951496124268">
        <ele>828</ele>
        <time>2019-05-11T11:14:58Z</time>
      </trkpt>
      <trkpt lat="36.7243232727051" lon="-5.09951496124268">
        <ele>828</ele>
        <time>2019-05-11T11:15:00Z</time>
      </trkpt>
      <trkpt lat="36.7243232727051" lon="-5.09951496124268">
        <ele>828</ele>
        <time>2019-05-11T11:15:02Z</time>
      </trkpt>
      <trkpt lat="36.7243232727051" lon="-5.09951686859131">
        <ele>828</ele>
        <time>2019-05-11T11:15:04Z</time>
      </trkpt>
      <trkpt lat="36.7243270874023" lon="-5.09950304031372">
        <ele>828</ele>
        <time>2019-05-11T11:15:06Z</time>
      </trkpt>
      <trkpt lat="36.7243347167969" lon="-5.09949493408203">
        <ele>828</ele>
        <time>2019-05-11T11:15:08Z</time>
      </trkpt>
      <trkpt lat="36.7243461608887" lon="-5.09947299957275">
        <ele>828</ele>
        <time>2019-05-11T11:15:10Z</time>
      </trkpt>
      <trkpt lat="36.7243537902832" lon="-5.09945487976074">
        <ele>828</ele>
        <time>2019-05-11T11:15:12Z</time>
      </trkpt>
      <trkpt lat="36.7243690490723" lon="-5.09943723678589">
        <ele>828</ele>
        <time>2019-05-11T11:15:14Z</time>
      </trkpt>
      <trkpt lat="36.7243843078613" lon="-5.09942293167114">
        <ele>828</ele>
        <time>2019-05-11T11:15:16Z</time>
      </trkpt>
      <trkpt lat="36.7244071960449" lon="-5.09942293167114">
        <ele>828</ele>
        <time>2019-05-11T11:15:18Z</time>
      </trkpt>
      <trkpt lat="36.7244148254394" lon="-5.09942722320557">
        <ele>828</ele>
        <time>2019-05-11T11:15:21Z</time>
      </trkpt>
      <trkpt lat="36.7244148254394" lon="-5.09942293167114">
        <ele>828</ele>
        <time>2019-05-11T11:15:23Z</time>
      </trkpt>
      <trkpt lat="36.7244148254394" lon="-5.09942007064819">
        <ele>828</ele>
        <time>2019-05-11T11:15:25Z</time>
      </trkpt>
      <trkpt lat="36.7244186401367" lon="-5.09942007064819">
        <ele>828</ele>
        <time>2019-05-11T11:15:27Z</time>
      </trkpt>
      <trkpt lat="36.7244186401367" lon="-5.09940719604492">
        <ele>828</ele>
        <time>2019-05-11T11:15:29Z</time>
      </trkpt>
      <trkpt lat="36.7244262695312" lon="-5.09939193725586">
        <ele>828</ele>
        <time>2019-05-11T11:15:31Z</time>
      </trkpt>
      <trkpt lat="36.7244338989258" lon="-5.09939002990723">
        <ele>828</ele>
        <time>2019-05-11T11:15:33Z</time>
      </trkpt>
      <trkpt lat="36.7244338989258" lon="-5.09939479827881">
        <ele>828</ele>
        <time>2019-05-11T11:15:35Z</time>
      </trkpt>
      <trkpt lat="36.7244338989258" lon="-5.09939479827881">
        <ele>828</ele>
        <time>2019-05-11T11:15:37Z</time>
      </trkpt>
      <trkpt lat="36.7244338989258" lon="-5.09939479827881">
        <ele>828</ele>
        <time>2019-05-11T11:15:39Z</time>
      </trkpt>
      <trkpt lat="36.724437713623" lon="-5.09939289093018">
        <ele>828</ele>
        <time>2019-05-11T11:15:41Z</time>
      </trkpt>
      <trkpt lat="36.7244415283203" lon="-5.09939479827881">
        <ele>828</ele>
        <time>2019-05-11T11:15:43Z</time>
      </trkpt>
      <trkpt lat="36.7244415283203" lon="-5.09939479827881">
        <ele>828</ele>
        <time>2019-05-11T11:15:45Z</time>
      </trkpt>
      <trkpt lat="36.7244415283203" lon="-5.09939289093018">
        <ele>828</ele>
        <time>2019-05-11T11:15:47Z</time>
      </trkpt>
      <trkpt lat="36.724437713623" lon="-5.09939289093018">
        <ele>828</ele>
        <time>2019-05-11T11:15:49Z</time>
      </trkpt>
      <trkpt lat="36.724437713623" lon="-5.09939479827881">
        <ele>828</ele>
        <time>2019-05-11T11:15:51Z</time>
      </trkpt>
      <trkpt lat="36.724437713623" lon="-5.09939479827881">
        <ele>828</ele>
        <time>2019-05-11T11:15:53Z</time>
      </trkpt>
      <trkpt lat="36.724437713623" lon="-5.09939813613892">
        <ele>828</ele>
        <time>2019-05-11T11:15:55Z</time>
      </trkpt>
      <trkpt lat="36.7244415283203" lon="-5.09940195083618">
        <ele>828</ele>
        <time>2019-05-11T11:15:57Z</time>
      </trkpt>
      <trkpt lat="36.7244415283203" lon="-5.09940004348755">
        <ele>828</ele>
        <time>2019-05-11T11:15:59Z</time>
      </trkpt>
      <trkpt lat="36.7244415283203" lon="-5.0994029045105">
        <ele>828</ele>
        <time>2019-05-11T11:16:01Z</time>
      </trkpt>
      <trkpt lat="36.724437713623" lon="-5.09940481185913">
        <ele>828</ele>
        <time>2019-05-11T11:16:03Z</time>
      </trkpt>
      <trkpt lat="36.7244338989258" lon="-5.09940719604492">
        <ele>828</ele>
        <time>2019-05-11T11:16:05Z</time>
      </trkpt>
      <trkpt lat="36.7244338989258" lon="-5.09941005706787">
        <ele>828</ele>
        <time>2019-05-11T11:16:07Z</time>
      </trkpt>
      <trkpt lat="36.7244338989258" lon="-5.09941482543945">
        <ele>828</ele>
        <time>2019-05-11T11:16:09Z</time>
      </trkpt>
      <trkpt lat="36.7244300842285" lon="-5.09941482543945">
        <ele>828</ele>
        <time>2019-05-11T11:16:12Z</time>
      </trkpt>
      <trkpt lat="36.7244262695312" lon="-5.09941720962524">
        <ele>828</ele>
        <time>2019-05-11T11:16:14Z</time>
      </trkpt>
      <trkpt lat="36.7244262695312" lon="-5.09941482543945">
        <ele>828</ele>
        <time>2019-05-11T11:16:16Z</time>
      </trkpt>
      <trkpt lat="36.7244262695312" lon="-5.09941291809082">
        <ele>828</ele>
        <time>2019-05-11T11:16:18Z</time>
      </trkpt>
      <trkpt lat="36.7244262695312" lon="-5.0994119644165">
        <ele>828</ele>
        <time>2019-05-11T11:16:20Z</time>
      </trkpt>
      <trkpt lat="36.724422454834" lon="-5.09941005706787">
        <ele>828</ele>
        <time>2019-05-11T11:16:22Z</time>
      </trkpt>
      <trkpt lat="36.724422454834" lon="-5.09940481185913">
        <ele>828</ele>
        <time>2019-05-11T11:16:24Z</time>
      </trkpt>
      <trkpt lat="36.724422454834" lon="-5.0994029045105">
        <ele>828</ele>
        <time>2019-05-11T11:16:26Z</time>
      </trkpt>
      <trkpt lat="36.724422454834" lon="-5.09940004348755">
        <ele>828</ele>
        <time>2019-05-11T11:16:28Z</time>
      </trkpt>
      <trkpt lat="36.724422454834" lon="-5.0993971824646">
        <ele>828</ele>
        <time>2019-05-11T11:16:30Z</time>
      </trkpt>
      <trkpt lat="36.724422454834" lon="-5.0993971824646">
        <ele>828</ele>
        <time>2019-05-11T11:16:32Z</time>
      </trkpt>
      <trkpt lat="36.724422454834" lon="-5.09939479827881">
        <ele>828</ele>
        <time>2019-05-11T11:16:34Z</time>
      </trkpt>
      <trkpt lat="36.724422454834" lon="-5.09939193725586">
        <ele>828</ele>
        <time>2019-05-11T11:16:36Z</time>
      </trkpt>
      <trkpt lat="36.7244262695312" lon="-5.09938812255859">
        <ele>828</ele>
        <time>2019-05-11T11:16:38Z</time>
      </trkpt>
      <trkpt lat="36.7244262695312" lon="-5.09938287734985">
        <ele>828</ele>
        <time>2019-05-11T11:16:40Z</time>
      </trkpt>
      <trkpt lat="36.7244300842285" lon="-5.09937477111816">
        <ele>828</ele>
        <time>2019-05-11T11:16:42Z</time>
      </trkpt>
      <trkpt lat="36.7244415283203" lon="-5.09935283660889">
        <ele>828</ele>
        <time>2019-05-11T11:16:44Z</time>
      </trkpt>
      <trkpt lat="36.7244415283203" lon="-5.09933710098267">
        <ele>828</ele>
        <time>2019-05-11T11:16:46Z</time>
      </trkpt>
      <trkpt lat="36.7244567871094" lon="-5.09931707382202">
        <ele>828</ele>
        <time>2019-05-11T11:16:48Z</time>
      </trkpt>
      <trkpt lat="36.7244758605957" lon="-5.09930181503296">
        <ele>828</ele>
        <time>2019-05-11T11:16:50Z</time>
      </trkpt>
      <trkpt lat="36.7244987487793" lon="-5.099289894104">
        <ele>828</ele>
        <time>2019-05-11T11:16:52Z</time>
      </trkpt>
      <trkpt lat="36.7245178222656" lon="-5.09927177429199">
        <ele>828</ele>
        <time>2019-05-11T11:16:54Z</time>
      </trkpt>
      <trkpt lat="36.7245407104492" lon="-5.09925508499146">
        <ele>828</ele>
        <time>2019-05-11T11:16:56Z</time>
      </trkpt>
      <trkpt lat="36.7245712280273" lon="-5.09923791885376">
        <ele>828</ele>
        <time>2019-05-11T11:16:58Z</time>
      </trkpt>
      <trkpt lat="36.7245941162109" lon="-5.09922504425049">
        <ele>828</ele>
        <time>2019-05-11T11:17:01Z</time>
      </trkpt>
      <trkpt lat="36.7246246337891" lon="-5.09919786453247">
        <ele>828</ele>
        <time>2019-05-11T11:17:03Z</time>
      </trkpt>
      <trkpt lat="36.7246627807617" lon="-5.0991702079773">
        <ele>828</ele>
        <time>2019-05-11T11:17:05Z</time>
      </trkpt>
      <trkpt lat="36.7246971130371" lon="-5.09915018081665">
        <ele>828</ele>
        <time>2019-05-11T11:17:07Z</time>
      </trkpt>
      <trkpt lat="36.724723815918" lon="-5.09913015365601">
        <ele>828</ele>
        <time>2019-05-11T11:17:09Z</time>
      </trkpt>
      <trkpt lat="36.7247467041016" lon="-5.09911203384399">
        <ele>828</ele>
        <time>2019-05-11T11:17:11Z</time>
      </trkpt>
      <trkpt lat="36.7247734069824" lon="-5.0990948677063">
        <ele>828</ele>
        <time>2019-05-11T11:17:13Z</time>
      </trkpt>
      <trkpt lat="36.7247924804688" lon="-5.09907722473144">
        <ele>828</ele>
        <time>2019-05-11T11:17:15Z</time>
      </trkpt>
      <trkpt lat="36.7248153686523" lon="-5.09905815124512">
        <ele>828</ele>
        <time>2019-05-11T11:17:17Z</time>
      </trkpt>
      <trkpt lat="36.7248497009277" lon="-5.09902477264404">
        <ele>828</ele>
        <time>2019-05-11T11:17:19Z</time>
      </trkpt>
      <trkpt lat="36.7248764038086" lon="-5.09898996353149">
        <ele>828</ele>
        <time>2019-05-11T11:17:21Z</time>
      </trkpt>
      <trkpt lat="36.7249031066894" lon="-5.09894514083862">
        <ele>827</ele>
        <time>2019-05-11T11:17:23Z</time>
      </trkpt>
      <trkpt lat="36.724925994873" lon="-5.09889316558838">
        <ele>826</ele>
        <time>2019-05-11T11:17:25Z</time>
      </trkpt>
      <trkpt lat="36.7249336242676" lon="-5.09883499145508">
        <ele>826</ele>
        <time>2019-05-11T11:17:27Z</time>
      </trkpt>
      <trkpt lat="36.7249526977539" lon="-5.09877777099609">
        <ele>826</ele>
        <time>2019-05-11T11:17:29Z</time>
      </trkpt>
      <trkpt lat="36.7249641418457" lon="-5.09872007369995">
        <ele>826</ele>
        <time>2019-05-11T11:17:31Z</time>
      </trkpt>
      <trkpt lat="36.7249717712402" lon="-5.09865999221802">
        <ele>826</ele>
        <time>2019-05-11T11:17:33Z</time>
      </trkpt>
      <trkpt lat="36.7249717712402" lon="-5.09860515594482">
        <ele>826</ele>
        <time>2019-05-11T11:17:36Z</time>
      </trkpt>
      <trkpt lat="36.724983215332" lon="-5.09855794906616">
        <ele>825</ele>
        <time>2019-05-11T11:17:38Z</time>
      </trkpt>
      <trkpt lat="36.7249946594238" lon="-5.09850215911865">
        <ele>825</ele>
        <time>2019-05-11T11:17:40Z</time>
      </trkpt>
      <trkpt lat="36.7250137329102" lon="-5.0984468460083">
        <ele>824</ele>
        <time>2019-05-11T11:17:42Z</time>
      </trkpt>
      <trkpt lat="36.7250328063965" lon="-5.0984148979187">
        <ele>824</ele>
        <time>2019-05-11T11:17:44Z</time>
      </trkpt>
      <trkpt lat="36.7250595092773" lon="-5.09839487075806">
        <ele>824</ele>
        <time>2019-05-11T11:17:46Z</time>
      </trkpt>
      <trkpt lat="36.7250862121582" lon="-5.09838485717773">
        <ele>823</ele>
        <time>2019-05-11T11:17:48Z</time>
      </trkpt>
      <trkpt lat="36.7251167297363" lon="-5.09839820861816">
        <ele>823</ele>
        <time>2019-05-11T11:17:50Z</time>
      </trkpt>
      <trkpt lat="36.7251319885254" lon="-5.09842205047607">
        <ele>821</ele>
        <time>2019-05-11T11:17:52Z</time>
      </trkpt>
      <trkpt lat="36.7251510620117" lon="-5.09846305847168">
        <ele>820</ele>
        <time>2019-05-11T11:17:54Z</time>
      </trkpt>
      <trkpt lat="36.7251625061035" lon="-5.09849214553833">
        <ele>819</ele>
        <time>2019-05-11T11:17:56Z</time>
      </trkpt>
      <trkpt lat="36.7251777648926" lon="-5.09852313995361">
        <ele>818</ele>
        <time>2019-05-11T11:17:58Z</time>
      </trkpt>
      <trkpt lat="36.7251815795898" lon="-5.0985631942749">
        <ele>816</ele>
        <time>2019-05-11T11:18:00Z</time>
      </trkpt>
      <trkpt lat="36.7251892089844" lon="-5.09860515594482">
        <ele>816</ele>
        <time>2019-05-11T11:18:02Z</time>
      </trkpt>
      <trkpt lat="36.7251968383789" lon="-5.09864711761475">
        <ele>814</ele>
        <time>2019-05-11T11:18:04Z</time>
      </trkpt>
      <trkpt lat="36.7252082824707" lon="-5.09868478775024">
        <ele>813</ele>
        <time>2019-05-11T11:18:06Z</time>
      </trkpt>
      <trkpt lat="36.7252159118652" lon="-5.0987229347229">
        <ele>813</ele>
        <time>2019-05-11T11:18:08Z</time>
      </trkpt>
      <trkpt lat="36.725227355957" lon="-5.09875202178955">
        <ele>811</ele>
        <time>2019-05-11T11:18:11Z</time>
      </trkpt>
      <trkpt lat="36.7252388000488" lon="-5.09879016876221">
        <ele>811</ele>
        <time>2019-05-11T11:18:13Z</time>
      </trkpt>
      <trkpt lat="36.7252464294434" lon="-5.09882307052612">
        <ele>811</ele>
        <time>2019-05-11T11:18:15Z</time>
      </trkpt>
      <trkpt lat="36.7252616882324" lon="-5.0988597869873">
        <ele>811</ele>
        <time>2019-05-11T11:18:17Z</time>
      </trkpt>
      <trkpt lat="36.725269317627" lon="-5.09889793395996">
        <ele>811</ele>
        <time>2019-05-11T11:18:19Z</time>
      </trkpt>
      <trkpt lat="36.7252769470215" lon="-5.09893798828125">
        <ele>811</ele>
        <time>2019-05-11T11:18:21Z</time>
      </trkpt>
      <trkpt lat="36.725284576416" lon="-5.0989727973938">
        <ele>811</ele>
        <time>2019-05-11T11:18:23Z</time>
      </trkpt>
      <trkpt lat="36.7252883911133" lon="-5.09900712966919">
        <ele>811</ele>
        <time>2019-05-11T11:18:25Z</time>
      </trkpt>
      <trkpt lat="36.7252883911133" lon="-5.09904003143311">
        <ele>811</ele>
        <time>2019-05-11T11:18:27Z</time>
      </trkpt>
      <trkpt lat="36.7252922058106" lon="-5.09909200668335">
        <ele>811</ele>
        <time>2019-05-11T11:18:29Z</time>
      </trkpt>
      <trkpt lat="36.7252998352051" lon="-5.09912490844727">
        <ele>811</ele>
        <time>2019-05-11T11:18:31Z</time>
      </trkpt>
      <trkpt lat="36.7253036499023" lon="-5.09915781021118">
        <ele>811</ele>
        <time>2019-05-11T11:18:33Z</time>
      </trkpt>
      <trkpt lat="36.7253036499023" lon="-5.09919309616089">
        <ele>811</ele>
        <time>2019-05-11T11:18:35Z</time>
      </trkpt>
      <trkpt lat="36.7253074645996" lon="-5.09922790527344">
        <ele>811</ele>
        <time>2019-05-11T11:18:37Z</time>
      </trkpt>
      <trkpt lat="36.7253150939941" lon="-5.09926509857178">
        <ele>811</ele>
        <time>2019-05-11T11:18:39Z</time>
      </trkpt>
      <trkpt lat="36.7253265380859" lon="-5.09929990768433">
        <ele>811</ele>
        <time>2019-05-11T11:18:41Z</time>
      </trkpt>
      <trkpt lat="36.7253341674805" lon="-5.09933519363403">
        <ele>811</ele>
        <time>2019-05-11T11:18:43Z</time>
      </trkpt>
      <trkpt lat="36.7253494262695" lon="-5.09937000274658">
        <ele>811</ele>
        <time>2019-05-11T11:18:46Z</time>
      </trkpt>
      <trkpt lat="36.7253608703613" lon="-5.09940719604492">
        <ele>811</ele>
        <time>2019-05-11T11:18:48Z</time>
      </trkpt>
      <trkpt lat="36.7253684997559" lon="-5.09944486618042">
        <ele>811</ele>
        <time>2019-05-11T11:18:50Z</time>
      </trkpt>
      <trkpt lat="36.7253761291504" lon="-5.09948205947876">
        <ele>811</ele>
        <time>2019-05-11T11:18:52Z</time>
      </trkpt>
      <trkpt lat="36.7253761291504" lon="-5.09952020645142">
        <ele>811</ele>
        <time>2019-05-11T11:18:54Z</time>
      </trkpt>
      <trkpt lat="36.7253799438477" lon="-5.09955787658691">
        <ele>811</ele>
        <time>2019-05-11T11:18:56Z</time>
      </trkpt>
      <trkpt lat="36.7253837585449" lon="-5.09959506988525">
        <ele>811</ele>
        <time>2019-05-11T11:18:58Z</time>
      </trkpt>
      <trkpt lat="36.7253875732422" lon="-5.09963178634644">
        <ele>811</ele>
        <time>2019-05-11T11:19:00Z</time>
      </trkpt>
      <trkpt lat="36.7253913879394" lon="-5.09966802597046">
        <ele>811</ele>
        <time>2019-05-11T11:19:02Z</time>
      </trkpt>
      <trkpt lat="36.7253952026367" lon="-5.0997200012207">
        <ele>811</ele>
        <time>2019-05-11T11:19:04Z</time>
      </trkpt>
      <trkpt lat="36.7253952026367" lon="-5.09975004196167">
        <ele>811</ele>
        <time>2019-05-11T11:19:06Z</time>
      </trkpt>
      <trkpt lat="36.7253952026367" lon="-5.09977722167969">
        <ele>812</ele>
        <time>2019-05-11T11:19:08Z</time>
      </trkpt>
      <trkpt lat="36.7253952026367" lon="-5.09980297088623">
        <ele>813</ele>
        <time>2019-05-11T11:19:10Z</time>
      </trkpt>
      <trkpt lat="36.7253952026367" lon="-5.09983205795288">
        <ele>813</ele>
        <time>2019-05-11T11:19:12Z</time>
      </trkpt>
      <trkpt lat="36.7253952026367" lon="-5.09986019134522">
        <ele>814</ele>
        <time>2019-05-11T11:19:14Z</time>
      </trkpt>
      <trkpt lat="36.7253913879394" lon="-5.09989213943481">
        <ele>814</ele>
        <time>2019-05-11T11:19:16Z</time>
      </trkpt>
      <trkpt lat="36.7253875732422" lon="-5.09992218017578">
        <ele>815</ele>
        <time>2019-05-11T11:19:18Z</time>
      </trkpt>
      <trkpt lat="36.7253875732422" lon="-5.0999550819397">
        <ele>815</ele>
        <time>2019-05-11T11:19:20Z</time>
      </trkpt>
      <trkpt lat="36.7253837585449" lon="-5.09998798370361">
        <ele>816</ele>
        <time>2019-05-11T11:19:23Z</time>
      </trkpt>
      <trkpt lat="36.7253837585449" lon="-5.10001802444458">
        <ele>816</ele>
        <time>2019-05-11T11:19:25Z</time>
      </trkpt>
      <trkpt lat="36.7253761291504" lon="-5.10004997253418">
        <ele>816</ele>
        <time>2019-05-11T11:19:27Z</time>
      </trkpt>
      <trkpt lat="36.7253761291504" lon="-5.10008192062378">
        <ele>817</ele>
        <time>2019-05-11T11:19:29Z</time>
      </trkpt>
      <trkpt lat="36.7253761291504" lon="-5.10011291503906">
        <ele>817</ele>
        <time>2019-05-11T11:19:31Z</time>
      </trkpt>
      <trkpt lat="36.7253761291504" lon="-5.1001467704773">
        <ele>817</ele>
        <time>2019-05-11T11:19:33Z</time>
      </trkpt>
      <trkpt lat="36.7253723144531" lon="-5.10018014907837">
        <ele>817</ele>
        <time>2019-05-11T11:19:35Z</time>
      </trkpt>
      <trkpt lat="36.7253684997559" lon="-5.10021686553955">
        <ele>817</ele>
        <time>2019-05-11T11:19:37Z</time>
      </trkpt>
      <trkpt lat="36.7253723144531" lon="-5.10025310516357">
        <ele>817</ele>
        <time>2019-05-11T11:19:39Z</time>
      </trkpt>
      <trkpt lat="36.7253799438477" lon="-5.1003098487854">
        <ele>817</ele>
        <time>2019-05-11T11:19:41Z</time>
      </trkpt>
      <trkpt lat="36.7253875732422" lon="-5.10034513473511">
        <ele>818</ele>
        <time>2019-05-11T11:19:43Z</time>
      </trkpt>
      <trkpt lat="36.7253913879394" lon="-5.10037994384766">
        <ele>818</ele>
        <time>2019-05-11T11:19:45Z</time>
      </trkpt>
      <trkpt lat="36.725399017334" lon="-5.10041189193726">
        <ele>818</ele>
        <time>2019-05-11T11:19:47Z</time>
      </trkpt>
      <trkpt lat="36.7254066467285" lon="-5.10044717788696">
        <ele>818</ele>
        <time>2019-05-11T11:19:49Z</time>
      </trkpt>
      <trkpt lat="36.725414276123" lon="-5.10048198699951">
        <ele>818</ele>
        <time>2019-05-11T11:19:51Z</time>
      </trkpt>
      <trkpt lat="36.7254257202148" lon="-5.10051822662354">
        <ele>819</ele>
        <time>2019-05-11T11:19:53Z</time>
      </trkpt>
      <trkpt lat="36.7254333496094" lon="-5.10055685043335">
        <ele>819</ele>
        <time>2019-05-11T11:19:55Z</time>
      </trkpt>
      <trkpt lat="36.7254371643066" lon="-5.10059309005737">
        <ele>820</ele>
        <time>2019-05-11T11:19:57Z</time>
      </trkpt>
      <trkpt lat="36.7254333496094" lon="-5.10062980651856">
        <ele>820</ele>
        <time>2019-05-11T11:20:00Z</time>
      </trkpt>
      <trkpt lat="36.7254333496094" lon="-5.10066699981689">
        <ele>821</ele>
        <time>2019-05-11T11:20:02Z</time>
      </trkpt>
      <trkpt lat="36.7254333496094" lon="-5.10070514678955">
        <ele>821</ele>
        <time>2019-05-11T11:20:04Z</time>
      </trkpt>
      <trkpt lat="36.7254257202148" lon="-5.10075283050537">
        <ele>821</ele>
        <time>2019-05-11T11:20:06Z</time>
      </trkpt>
      <trkpt lat="36.7254219055176" lon="-5.10080289840698">
        <ele>821</ele>
        <time>2019-05-11T11:20:08Z</time>
      </trkpt>
      <trkpt lat="36.7254066467285" lon="-5.10085010528564">
        <ele>821</ele>
        <time>2019-05-11T11:20:10Z</time>
      </trkpt>
      <trkpt lat="36.7253913879394" lon="-5.10089778900146">
        <ele>821</ele>
        <time>2019-05-11T11:20:12Z</time>
      </trkpt>
      <trkpt lat="36.7253837585449" lon="-5.1009578704834">
        <ele>821</ele>
        <time>2019-05-11T11:20:14Z</time>
      </trkpt>
      <trkpt lat="36.7253684997559" lon="-5.10101509094238">
        <ele>820</ele>
        <time>2019-05-11T11:20:16Z</time>
      </trkpt>
      <trkpt lat="36.7253684997559" lon="-5.10110187530518">
        <ele>820</ele>
        <time>2019-05-11T11:20:18Z</time>
      </trkpt>
      <trkpt lat="36.7253646850586" lon="-5.10115718841553">
        <ele>819</ele>
        <time>2019-05-11T11:20:20Z</time>
      </trkpt>
      <trkpt lat="36.7253570556641" lon="-5.10121297836304">
        <ele>818</ele>
        <time>2019-05-11T11:20:22Z</time>
      </trkpt>
      <trkpt lat="36.7253570556641" lon="-5.10127305984497">
        <ele>818</ele>
        <time>2019-05-11T11:20:24Z</time>
      </trkpt>
      <trkpt lat="36.7253532409668" lon="-5.10133695602417">
        <ele>818</ele>
        <time>2019-05-11T11:20:26Z</time>
      </trkpt>
      <trkpt lat="36.7253456115723" lon="-5.10139322280884">
        <ele>817</ele>
        <time>2019-05-11T11:20:28Z</time>
      </trkpt>
      <trkpt lat="36.725341796875" lon="-5.10145282745361">
        <ele>816</ele>
        <time>2019-05-11T11:20:30Z</time>
      </trkpt>
      <trkpt lat="36.7253379821777" lon="-5.10151195526123">
        <ele>816</ele>
        <time>2019-05-11T11:20:32Z</time>
      </trkpt>
      <trkpt lat="36.725341796875" lon="-5.10156011581421">
        <ele>816</ele>
        <time>2019-05-11T11:20:35Z</time>
      </trkpt>
      <trkpt lat="36.725341796875" lon="-5.10160207748413">
        <ele>816</ele>
        <time>2019-05-11T11:20:37Z</time>
      </trkpt>
      <trkpt lat="36.7253494262695" lon="-5.10164213180542">
        <ele>816</ele>
        <time>2019-05-11T11:20:39Z</time>
      </trkpt>
      <trkpt lat="36.7253532409668" lon="-5.10168218612671">
        <ele>816</ele>
        <time>2019-05-11T11:20:41Z</time>
      </trkpt>
      <trkpt lat="36.7253532409668" lon="-5.10171985626221">
        <ele>816</ele>
        <time>2019-05-11T11:20:43Z</time>
      </trkpt>
      <trkpt lat="36.7253570556641" lon="-5.10177707672119">
        <ele>816</ele>
        <time>2019-05-11T11:20:45Z</time>
      </trkpt>
      <trkpt lat="36.7253684997559" lon="-5.10183715820312">
        <ele>816</ele>
        <time>2019-05-11T11:20:47Z</time>
      </trkpt>
      <trkpt lat="36.7253837585449" lon="-5.10189199447632">
        <ele>815</ele>
        <time>2019-05-11T11:20:49Z</time>
      </trkpt>
      <trkpt lat="36.7253875732422" lon="-5.10194492340088">
        <ele>815</ele>
        <time>2019-05-11T11:20:51Z</time>
      </trkpt>
      <trkpt lat="36.7253875732422" lon="-5.10201787948608">
        <ele>814</ele>
        <time>2019-05-11T11:20:53Z</time>
      </trkpt>
      <trkpt lat="36.7253952026367" lon="-5.10207176208496">
        <ele>814</ele>
        <time>2019-05-11T11:20:55Z</time>
      </trkpt>
      <trkpt lat="36.7253952026367" lon="-5.10212707519531">
        <ele>813</ele>
        <time>2019-05-11T11:20:57Z</time>
      </trkpt>
      <trkpt lat="36.7254028320312" lon="-5.10217523574829">
        <ele>813</ele>
        <time>2019-05-11T11:20:59Z</time>
      </trkpt>
      <trkpt lat="36.7254028320312" lon="-5.10222721099854">
        <ele>811</ele>
        <time>2019-05-11T11:21:01Z</time>
      </trkpt>
      <trkpt lat="36.7254066467285" lon="-5.10228300094604">
        <ele>811</ele>
        <time>2019-05-11T11:21:03Z</time>
      </trkpt>
      <trkpt lat="36.725414276123" lon="-5.10234498977661">
        <ele>811</ele>
        <time>2019-05-11T11:21:05Z</time>
      </trkpt>
      <trkpt lat="36.725414276123" lon="-5.10240507125854">
        <ele>811</ele>
        <time>2019-05-11T11:21:07Z</time>
      </trkpt>
      <trkpt lat="36.7254409790039" lon="-5.10246992111206">
        <ele>811</ele>
        <time>2019-05-11T11:21:10Z</time>
      </trkpt>
      <trkpt lat="36.7254638671875" lon="-5.10253477096558">
        <ele>811</ele>
        <time>2019-05-11T11:21:12Z</time>
      </trkpt>
      <trkpt lat="36.7254867553711" lon="-5.1025972366333">
        <ele>811</ele>
        <time>2019-05-11T11:21:14Z</time>
      </trkpt>
      <trkpt lat="36.7255096435547" lon="-5.10265207290649">
        <ele>811</ele>
        <time>2019-05-11T11:21:16Z</time>
      </trkpt>
      <trkpt lat="36.7255363464356" lon="-5.10271310806274">
        <ele>811</ele>
        <time>2019-05-11T11:21:18Z</time>
      </trkpt>
      <trkpt lat="36.7255668640137" lon="-5.10276222229004">
        <ele>811</ele>
        <time>2019-05-11T11:21:20Z</time>
      </trkpt>
      <trkpt lat="36.7256011962891" lon="-5.10280704498291">
        <ele>811</ele>
        <time>2019-05-11T11:21:22Z</time>
      </trkpt>
      <trkpt lat="36.7256355285644" lon="-5.10284519195557">
        <ele>811</ele>
        <time>2019-05-11T11:21:24Z</time>
      </trkpt>
      <trkpt lat="36.7256774902344" lon="-5.10288286209106">
        <ele>811</ele>
        <time>2019-05-11T11:21:26Z</time>
      </trkpt>
      <trkpt lat="36.7257232666016" lon="-5.10295295715332">
        <ele>810</ele>
        <time>2019-05-11T11:21:28Z</time>
      </trkpt>
      <trkpt lat="36.7257537841797" lon="-5.10300207138062">
        <ele>809</ele>
        <time>2019-05-11T11:21:30Z</time>
      </trkpt>
      <trkpt lat="36.7257843017578" lon="-5.10303688049316">
        <ele>807</ele>
        <time>2019-05-11T11:21:32Z</time>
      </trkpt>
      <trkpt lat="36.7258071899414" lon="-5.10307502746582">
        <ele>806</ele>
        <time>2019-05-11T11:21:34Z</time>
      </trkpt>
      <trkpt lat="36.7258377075195" lon="-5.10311317443848">
        <ele>805</ele>
        <time>2019-05-11T11:21:36Z</time>
      </trkpt>
      <trkpt lat="36.7258720397949" lon="-5.10315322875977">
        <ele>805</ele>
        <time>2019-05-11T11:21:38Z</time>
      </trkpt>
      <trkpt lat="36.7259063720703" lon="-5.10318994522095">
        <ele>805</ele>
        <time>2019-05-11T11:21:40Z</time>
      </trkpt>
      <trkpt lat="36.7259368896484" lon="-5.10321807861328">
        <ele>805</ele>
        <time>2019-05-11T11:21:42Z</time>
      </trkpt>
      <trkpt lat="36.7259712219238" lon="-5.10324478149414">
        <ele>804</ele>
        <time>2019-05-11T11:21:44Z</time>
      </trkpt>
      <trkpt lat="36.7259941101074" lon="-5.10326719284058">
        <ele>803</ele>
        <time>2019-05-11T11:21:47Z</time>
      </trkpt>
      <trkpt lat="36.7260131835938" lon="-5.10328722000122">
        <ele>801</ele>
        <time>2019-05-11T11:21:49Z</time>
      </trkpt>
      <trkpt lat="36.7260437011719" lon="-5.10332012176514">
        <ele>800</ele>
        <time>2019-05-11T11:21:51Z</time>
      </trkpt>
      <trkpt lat="36.7260780334473" lon="-5.1033501625061">
        <ele>800</ele>
        <time>2019-05-11T11:21:53Z</time>
      </trkpt>
      <trkpt lat="36.7261085510254" lon="-5.10338020324707">
        <ele>800</ele>
        <time>2019-05-11T11:21:55Z</time>
      </trkpt>
      <trkpt lat="36.726146697998" lon="-5.10342311859131">
        <ele>800</ele>
        <time>2019-05-11T11:21:57Z</time>
      </trkpt>
      <trkpt lat="36.7261734008789" lon="-5.1034631729126">
        <ele>800</ele>
        <time>2019-05-11T11:21:59Z</time>
      </trkpt>
      <trkpt lat="36.7261772155762" lon="-5.10350704193115">
        <ele>800</ele>
        <time>2019-05-11T11:22:01Z</time>
      </trkpt>
      <trkpt lat="36.726203918457" lon="-5.10355997085571">
        <ele>800</ele>
        <time>2019-05-11T11:22:03Z</time>
      </trkpt>
      <trkpt lat="36.7262535095215" lon="-5.1036171913147">
        <ele>800</ele>
        <time>2019-05-11T11:22:05Z</time>
      </trkpt>
      <trkpt lat="36.7262763977051" lon="-5.10365200042725">
        <ele>800</ele>
        <time>2019-05-11T11:22:07Z</time>
      </trkpt>
      <trkpt lat="36.7263145446777" lon="-5.10367822647095">
        <ele>800</ele>
        <time>2019-05-11T11:22:09Z</time>
      </trkpt>
      <trkpt lat="36.7263488769531" lon="-5.10372304916382">
        <ele>800</ele>
        <time>2019-05-11T11:22:11Z</time>
      </trkpt>
      <trkpt lat="36.7263793945312" lon="-5.10375690460205">
        <ele>800</ele>
        <time>2019-05-11T11:22:13Z</time>
      </trkpt>
      <trkpt lat="36.7264175415039" lon="-5.10378694534302">
        <ele>800</ele>
        <time>2019-05-11T11:22:15Z</time>
      </trkpt>
      <trkpt lat="36.726448059082" lon="-5.1038122177124">
        <ele>800</ele>
        <time>2019-05-11T11:22:17Z</time>
      </trkpt>
      <trkpt lat="36.7264862060547" lon="-5.10383701324463">
        <ele>799</ele>
        <time>2019-05-11T11:22:19Z</time>
      </trkpt>
      <trkpt lat="36.7265205383301" lon="-5.10384798049927">
        <ele>799</ele>
        <time>2019-05-11T11:22:22Z</time>
      </trkpt>
      <trkpt lat="36.7265548706055" lon="-5.10384702682495">
        <ele>799</ele>
        <time>2019-05-11T11:22:24Z</time>
      </trkpt>
      <trkpt lat="36.7265815734863" lon="-5.1038498878479">
        <ele>799</ele>
        <time>2019-05-11T11:22:26Z</time>
      </trkpt>
      <trkpt lat="36.7266044616699" lon="-5.10385513305664">
        <ele>799</ele>
        <time>2019-05-11T11:22:28Z</time>
      </trkpt>
      <trkpt lat="36.7266311645508" lon="-5.10386180877686">
        <ele>799</ele>
        <time>2019-05-11T11:22:30Z</time>
      </trkpt>
      <trkpt lat="36.7266578674316" lon="-5.10386800765991">
        <ele>799</ele>
        <time>2019-05-11T11:22:32Z</time>
      </trkpt>
      <trkpt lat="36.7266845703125" lon="-5.10386991500854">
        <ele>798</ele>
        <time>2019-05-11T11:22:34Z</time>
      </trkpt>
      <trkpt lat="36.7267112731934" lon="-5.1038670539856">
        <ele>798</ele>
        <time>2019-05-11T11:22:36Z</time>
      </trkpt>
      <trkpt lat="36.7267417907715" lon="-5.1038670539856">
        <ele>798</ele>
        <time>2019-05-11T11:22:38Z</time>
      </trkpt>
      <trkpt lat="36.7267761230469" lon="-5.10385799407959">
        <ele>798</ele>
        <time>2019-05-11T11:22:40Z</time>
      </trkpt>
      <trkpt lat="36.726806640625" lon="-5.1038498878479">
        <ele>796</ele>
        <time>2019-05-11T11:22:42Z</time>
      </trkpt>
      <trkpt lat="36.7268333435059" lon="-5.10383987426758">
        <ele>796</ele>
        <time>2019-05-11T11:22:44Z</time>
      </trkpt>
      <trkpt lat="36.726863861084" lon="-5.10382699966431">
        <ele>796</ele>
        <time>2019-05-11T11:22:46Z</time>
      </trkpt>
      <trkpt lat="36.7268943786621" lon="-5.10381698608398">
        <ele>796</ele>
        <time>2019-05-11T11:22:48Z</time>
      </trkpt>
      <trkpt lat="36.7269248962402" lon="-5.1038122177124">
        <ele>796</ele>
        <time>2019-05-11T11:22:50Z</time>
      </trkpt>
      <trkpt lat="36.7269554138184" lon="-5.10380792617798">
        <ele>796</ele>
        <time>2019-05-11T11:22:52Z</time>
      </trkpt>
      <trkpt lat="36.7269973754883" lon="-5.10380792617798">
        <ele>796</ele>
        <time>2019-05-11T11:22:54Z</time>
      </trkpt>
      <trkpt lat="36.7270431518555" lon="-5.1038122177124">
        <ele>796</ele>
        <time>2019-05-11T11:22:57Z</time>
      </trkpt>
      <trkpt lat="36.7270889282227" lon="-5.10382509231567">
        <ele>795</ele>
        <time>2019-05-11T11:22:59Z</time>
      </trkpt>
      <trkpt lat="36.7271308898926" lon="-5.103835105896">
        <ele>794</ele>
        <time>2019-05-11T11:23:01Z</time>
      </trkpt>
      <trkpt lat="36.7271766662598" lon="-5.10383319854736">
        <ele>794</ele>
        <time>2019-05-11T11:23:03Z</time>
      </trkpt>
      <trkpt lat="36.727222442627" lon="-5.1038179397583">
        <ele>794</ele>
        <time>2019-05-11T11:23:05Z</time>
      </trkpt>
      <trkpt lat="36.7272644042969" lon="-5.10379981994629">
        <ele>794</ele>
        <time>2019-05-11T11:23:07Z</time>
      </trkpt>
      <trkpt lat="36.7272987365723" lon="-5.10378217697144">
        <ele>794</ele>
        <time>2019-05-11T11:23:09Z</time>
      </trkpt>
      <trkpt lat="36.7273368835449" lon="-5.103759765625">
        <ele>793</ele>
        <time>2019-05-11T11:23:11Z</time>
      </trkpt>
      <trkpt lat="36.7273712158203" lon="-5.10373497009277">
        <ele>793</ele>
        <time>2019-05-11T11:23:13Z</time>
      </trkpt>
      <trkpt lat="36.7274284362793" lon="-5.10370016098022">
        <ele>791</ele>
        <time>2019-05-11T11:23:15Z</time>
      </trkpt>
      <trkpt lat="36.7274627685547" lon="-5.10367822647095">
        <ele>791</ele>
        <time>2019-05-11T11:23:17Z</time>
      </trkpt>
      <trkpt lat="36.7274971008301" lon="-5.1036548614502">
        <ele>789</ele>
        <time>2019-05-11T11:23:19Z</time>
      </trkpt>
      <trkpt lat="36.7275314331055" lon="-5.10362815856934">
        <ele>788</ele>
        <time>2019-05-11T11:23:21Z</time>
      </trkpt>
      <trkpt lat="36.7275657653809" lon="-5.10359811782837">
        <ele>788</ele>
        <time>2019-05-11T11:23:23Z</time>
      </trkpt>
      <trkpt lat="36.7276077270508" lon="-5.1035680770874">
        <ele>786</ele>
        <time>2019-05-11T11:23:25Z</time>
      </trkpt>
      <trkpt lat="36.7276420593262" lon="-5.1035418510437">
        <ele>785</ele>
        <time>2019-05-11T11:23:27Z</time>
      </trkpt>
      <trkpt lat="36.727668762207" lon="-5.10352182388306">
        <ele>785</ele>
        <time>2019-05-11T11:23:29Z</time>
      </trkpt>
      <trkpt lat="36.7276992797852" lon="-5.10350799560547">
        <ele>784</ele>
        <time>2019-05-11T11:23:31Z</time>
      </trkpt>
      <trkpt lat="36.727710723877" lon="-5.10348987579346">
        <ele>783</ele>
        <time>2019-05-11T11:23:34Z</time>
      </trkpt>
      <trkpt lat="36.7277374267578" lon="-5.10348320007324">
        <ele>781</ele>
        <time>2019-05-11T11:23:36Z</time>
      </trkpt>
      <trkpt lat="36.7277641296387" lon="-5.1034779548645">
        <ele>781</ele>
        <time>2019-05-11T11:23:38Z</time>
      </trkpt>
      <trkpt lat="36.7277908325195" lon="-5.10346984863281">
        <ele>781</ele>
        <time>2019-05-11T11:23:40Z</time>
      </trkpt>
      <trkpt lat="36.7278175354004" lon="-5.1034631729126">
        <ele>781</ele>
        <time>2019-05-11T11:23:42Z</time>
      </trkpt>
      <trkpt lat="36.727840423584" lon="-5.10345792770386">
        <ele>781</ele>
        <time>2019-05-11T11:23:44Z</time>
      </trkpt>
      <trkpt lat="36.7278633117676" lon="-5.10345697402954">
        <ele>781</ele>
        <time>2019-05-11T11:23:46Z</time>
      </trkpt>
      <trkpt lat="36.7278900146484" lon="-5.10345220565796">
        <ele>781</ele>
        <time>2019-05-11T11:23:48Z</time>
      </trkpt>
      <trkpt lat="36.7279167175293" lon="-5.10344982147217">
        <ele>781</ele>
        <time>2019-05-11T11:23:50Z</time>
      </trkpt>
      <trkpt lat="36.7279472351074" lon="-5.10344505310059">
        <ele>781</ele>
        <time>2019-05-11T11:23:52Z</time>
      </trkpt>
      <trkpt lat="36.727970123291" lon="-5.10344314575195">
        <ele>781</ele>
        <time>2019-05-11T11:23:54Z</time>
      </trkpt>
      <trkpt lat="36.7279891967773" lon="-5.1034369468689">
        <ele>781</ele>
        <time>2019-05-11T11:23:56Z</time>
      </trkpt>
      <trkpt lat="36.7280082702637" lon="-5.10343313217163">
        <ele>781</ele>
        <time>2019-05-11T11:23:58Z</time>
      </trkpt>
      <trkpt lat="36.7280311584473" lon="-5.10343313217163">
        <ele>781</ele>
        <time>2019-05-11T11:24:00Z</time>
      </trkpt>
      <trkpt lat="36.7280502319336" lon="-5.10343313217163">
        <ele>781</ele>
        <time>2019-05-11T11:24:02Z</time>
      </trkpt>
      <trkpt lat="36.7280731201172" lon="-5.10343313217163">
        <ele>781</ele>
        <time>2019-05-11T11:24:04Z</time>
      </trkpt>
      <trkpt lat="36.7280921936035" lon="-5.10343313217163">
        <ele>781</ele>
        <time>2019-05-11T11:24:06Z</time>
      </trkpt>
      <trkpt lat="36.7281112670898" lon="-5.1034369468689">
        <ele>782</ele>
        <time>2019-05-11T11:24:08Z</time>
      </trkpt>
      <trkpt lat="36.7281341552734" lon="-5.10344219207764">
        <ele>782</ele>
        <time>2019-05-11T11:24:11Z</time>
      </trkpt>
      <trkpt lat="36.728157043457" lon="-5.10344696044922">
        <ele>783</ele>
        <time>2019-05-11T11:24:13Z</time>
      </trkpt>
      <trkpt lat="36.7281761169434" lon="-5.10345315933228">
        <ele>783</ele>
        <time>2019-05-11T11:24:15Z</time>
      </trkpt>
      <trkpt lat="36.728199005127" lon="-5.10346221923828">
        <ele>784</ele>
        <time>2019-05-11T11:24:17Z</time>
      </trkpt>
      <trkpt lat="36.7282218933106" lon="-5.10346984863281">
        <ele>784</ele>
        <time>2019-05-11T11:24:19Z</time>
      </trkpt>
      <trkpt lat="36.7282447814941" lon="-5.10348701477051">
        <ele>785</ele>
        <time>2019-05-11T11:24:21Z</time>
      </trkpt>
      <trkpt lat="36.7282638549805" lon="-5.10349988937378">
        <ele>785</ele>
        <time>2019-05-11T11:24:23Z</time>
      </trkpt>
      <trkpt lat="36.7282867431641" lon="-5.1035099029541">
        <ele>786</ele>
        <time>2019-05-11T11:24:25Z</time>
      </trkpt>
      <trkpt lat="36.7283058166504" lon="-5.10352182388306">
        <ele>786</ele>
        <time>2019-05-11T11:24:27Z</time>
      </trkpt>
      <trkpt lat="36.728328704834" lon="-5.10353183746338">
        <ele>787</ele>
        <time>2019-05-11T11:24:29Z</time>
      </trkpt>
      <trkpt lat="36.7283592224121" lon="-5.10354804992676">
        <ele>787</ele>
        <time>2019-05-11T11:24:31Z</time>
      </trkpt>
      <trkpt lat="36.728385925293" lon="-5.10356187820435">
        <ele>788</ele>
        <time>2019-05-11T11:24:33Z</time>
      </trkpt>
      <trkpt lat="36.7284088134766" lon="-5.10357522964478">
        <ele>788</ele>
        <time>2019-05-11T11:24:35Z</time>
      </trkpt>
      <trkpt lat="36.7284317016602" lon="-5.10359001159668">
        <ele>789</ele>
        <time>2019-05-11T11:24:37Z</time>
      </trkpt>
      <trkpt lat="36.7284545898438" lon="-5.10360717773438">
        <ele>789</ele>
        <time>2019-05-11T11:24:39Z</time>
      </trkpt>
      <trkpt lat="36.7284736633301" lon="-5.10362005233765">
        <ele>789</ele>
        <time>2019-05-11T11:24:41Z</time>
      </trkpt>
      <trkpt lat="36.7284965515137" lon="-5.10363483428955">
        <ele>790</ele>
        <time>2019-05-11T11:24:43Z</time>
      </trkpt>
      <trkpt lat="36.7285194396973" lon="-5.10365295410156">
        <ele>790</ele>
        <time>2019-05-11T11:24:45Z</time>
      </trkpt>
      <trkpt lat="36.7285385131836" lon="-5.10367202758789">
        <ele>790</ele>
        <time>2019-05-11T11:24:48Z</time>
      </trkpt>
      <trkpt lat="36.7285575866699" lon="-5.10369205474854">
        <ele>791</ele>
        <time>2019-05-11T11:24:50Z</time>
      </trkpt>
      <trkpt lat="36.7285804748535" lon="-5.1037130355835">
        <ele>791</ele>
        <time>2019-05-11T11:24:52Z</time>
      </trkpt>
      <trkpt lat="36.7286033630371" lon="-5.10373306274414">
        <ele>791</ele>
        <time>2019-05-11T11:24:54Z</time>
      </trkpt>
      <trkpt lat="36.7286224365234" lon="-5.10375499725342">
        <ele>791</ele>
        <time>2019-05-11T11:24:56Z</time>
      </trkpt>
      <trkpt lat="36.728645324707" lon="-5.10377502441406">
        <ele>791</ele>
        <time>2019-05-11T11:24:58Z</time>
      </trkpt>
      <trkpt lat="36.7286682128906" lon="-5.10379505157471">
        <ele>792</ele>
        <time>2019-05-11T11:25:00Z</time>
      </trkpt>
      <trkpt lat="36.7286911010742" lon="-5.10381317138672">
        <ele>792</ele>
        <time>2019-05-11T11:25:02Z</time>
      </trkpt>
      <trkpt lat="36.7287178039551" lon="-5.10383176803589">
        <ele>792</ele>
        <time>2019-05-11T11:25:04Z</time>
      </trkpt>
      <trkpt lat="36.7287559509277" lon="-5.10385513305664">
        <ele>792</ele>
        <time>2019-05-11T11:25:06Z</time>
      </trkpt>
      <trkpt lat="36.7287788391113" lon="-5.10386991500854">
        <ele>792</ele>
        <time>2019-05-11T11:25:08Z</time>
      </trkpt>
      <trkpt lat="36.7288055419922" lon="-5.10387992858887">
        <ele>792</ele>
        <time>2019-05-11T11:25:10Z</time>
      </trkpt>
      <trkpt lat="36.7288284301758" lon="-5.10388803482056">
        <ele>792</ele>
        <time>2019-05-11T11:25:12Z</time>
      </trkpt>
      <trkpt lat="36.7288513183594" lon="-5.10387992858887">
        <ele>792</ele>
        <time>2019-05-11T11:25:14Z</time>
      </trkpt>
      <trkpt lat="36.7288703918457" lon="-5.10386180877686">
        <ele>793</ele>
        <time>2019-05-11T11:25:16Z</time>
      </trkpt>
      <trkpt lat="36.7288780212402" lon="-5.10383796691894">
        <ele>793</ele>
        <time>2019-05-11T11:25:18Z</time>
      </trkpt>
      <trkpt lat="36.7288856506348" lon="-5.10381317138672">
        <ele>793</ele>
        <time>2019-05-11T11:25:21Z</time>
      </trkpt>
      <trkpt lat="36.7288932800293" lon="-5.10378694534302">
        <ele>793</ele>
        <time>2019-05-11T11:25:23Z</time>
      </trkpt>
      <trkpt lat="36.7289009094238" lon="-5.10375690460205">
        <ele>794</ele>
        <time>2019-05-11T11:25:25Z</time>
      </trkpt>
      <trkpt lat="36.7289161682129" lon="-5.1037278175354">
        <ele>794</ele>
        <time>2019-05-11T11:25:27Z</time>
      </trkpt>
      <trkpt lat="36.728931427002" lon="-5.10370492935181">
        <ele>794</ele>
        <time>2019-05-11T11:25:29Z</time>
      </trkpt>
      <trkpt lat="36.728946685791" lon="-5.10368013381958">
        <ele>795</ele>
        <time>2019-05-11T11:25:31Z</time>
      </trkpt>
      <trkpt lat="36.7289619445801" lon="-5.10365295410156">
        <ele>795</ele>
        <time>2019-05-11T11:25:33Z</time>
      </trkpt>
      <trkpt lat="36.7289810180664" lon="-5.10362815856934">
        <ele>796</ele>
        <time>2019-05-11T11:25:35Z</time>
      </trkpt>
      <trkpt lat="36.72900390625" lon="-5.10360717773438">
        <ele>796</ele>
        <time>2019-05-11T11:25:37Z</time>
      </trkpt>
      <trkpt lat="36.7290229797363" lon="-5.10359001159668">
        <ele>797</ele>
        <time>2019-05-11T11:25:39Z</time>
      </trkpt>
      <trkpt lat="36.7290534973144" lon="-5.10356712341309">
        <ele>798</ele>
        <time>2019-05-11T11:25:41Z</time>
      </trkpt>
      <trkpt lat="36.729076385498" lon="-5.10355186462402">
        <ele>798</ele>
        <time>2019-05-11T11:25:43Z</time>
      </trkpt>
      <trkpt lat="36.7290992736816" lon="-5.10353803634644">
        <ele>799</ele>
        <time>2019-05-11T11:25:45Z</time>
      </trkpt>
      <trkpt lat="36.7291221618652" lon="-5.10352802276611">
        <ele>799</ele>
        <time>2019-05-11T11:25:47Z</time>
      </trkpt>
      <trkpt lat="36.7291526794434" lon="-5.10352993011475">
        <ele>799</ele>
        <time>2019-05-11T11:25:49Z</time>
      </trkpt>
      <trkpt lat="36.7291793823242" lon="-5.10352993011475">
        <ele>799</ele>
        <time>2019-05-11T11:25:51Z</time>
      </trkpt>
      <trkpt lat="36.7292098999023" lon="-5.10352993011475">
        <ele>800</ele>
        <time>2019-05-11T11:25:53Z</time>
      </trkpt>
      <trkpt lat="36.7292366027832" lon="-5.10352993011475">
        <ele>800</ele>
        <time>2019-05-11T11:25:55Z</time>
      </trkpt>
      <trkpt lat="36.7292633056641" lon="-5.10353183746338">
        <ele>800</ele>
        <time>2019-05-11T11:25:58Z</time>
      </trkpt>
      <trkpt lat="36.7292938232422" lon="-5.1035327911377">
        <ele>800</ele>
        <time>2019-05-11T11:26:00Z</time>
      </trkpt>
      <trkpt lat="36.729320526123" lon="-5.10353517532349">
        <ele>800</ele>
        <time>2019-05-11T11:26:02Z</time>
      </trkpt>
      <trkpt lat="36.7293472290039" lon="-5.10353803634644">
        <ele>801</ele>
        <time>2019-05-11T11:26:04Z</time>
      </trkpt>
      <trkpt lat="36.7293739318848" lon="-5.1035418510437">
        <ele>801</ele>
        <time>2019-05-11T11:26:06Z</time>
      </trkpt>
      <trkpt lat="36.7294044494629" lon="-5.10354518890381">
        <ele>801</ele>
        <time>2019-05-11T11:26:08Z</time>
      </trkpt>
      <trkpt lat="36.7294311523438" lon="-5.10354995727539">
        <ele>801</ele>
        <time>2019-05-11T11:26:10Z</time>
      </trkpt>
      <trkpt lat="36.7294616699219" lon="-5.10355186462402">
        <ele>802</ele>
        <time>2019-05-11T11:26:12Z</time>
      </trkpt>
      <trkpt lat="36.7294883728027" lon="-5.10355520248413">
        <ele>802</ele>
        <time>2019-05-11T11:26:14Z</time>
      </trkpt>
      <trkpt lat="36.7295112609863" lon="-5.10355710983276">
        <ele>802</ele>
        <time>2019-05-11T11:26:16Z</time>
      </trkpt>
      <trkpt lat="36.7295417785644" lon="-5.10355806350708">
        <ele>803</ele>
        <time>2019-05-11T11:26:18Z</time>
      </trkpt>
      <trkpt lat="36.7295761108398" lon="-5.10356187820435">
        <ele>803</ele>
        <time>2019-05-11T11:26:20Z</time>
      </trkpt>
      <trkpt lat="36.7296028137207" lon="-5.10356283187866">
        <ele>803</ele>
        <time>2019-05-11T11:26:22Z</time>
      </trkpt>
      <trkpt lat="36.7296295166016" lon="-5.10356712341309">
        <ele>804</ele>
        <time>2019-05-11T11:26:24Z</time>
      </trkpt>
      <trkpt lat="36.7296562194824" lon="-5.10356712341309">
        <ele>804</ele>
        <time>2019-05-11T11:26:26Z</time>
      </trkpt>
      <trkpt lat="36.729679107666" lon="-5.10357189178467">
        <ele>804</ele>
        <time>2019-05-11T11:26:28Z</time>
      </trkpt>
      <trkpt lat="36.7297058105469" lon="-5.10357522964478">
        <ele>804</ele>
        <time>2019-05-11T11:26:30Z</time>
      </trkpt>
      <trkpt lat="36.7297286987305" lon="-5.10357713699341">
        <ele>804</ele>
        <time>2019-05-11T11:26:32Z</time>
      </trkpt>
      <trkpt lat="36.7297592163086" lon="-5.10358190536499">
        <ele>804</ele>
        <time>2019-05-11T11:26:34Z</time>
      </trkpt>
      <trkpt lat="36.7297859191894" lon="-5.10358476638794">
        <ele>804</ele>
        <time>2019-05-11T11:26:37Z</time>
      </trkpt>
      <trkpt lat="36.7298126220703" lon="-5.10358810424805">
        <ele>805</ele>
        <time>2019-05-11T11:26:39Z</time>
      </trkpt>
      <trkpt lat="36.7298393249512" lon="-5.10359001159668">
        <ele>805</ele>
        <time>2019-05-11T11:26:41Z</time>
      </trkpt>
      <trkpt lat="36.729866027832" lon="-5.10359001159668">
        <ele>805</ele>
        <time>2019-05-11T11:26:43Z</time>
      </trkpt>
      <trkpt lat="36.7298927307129" lon="-5.10359191894531">
        <ele>805</ele>
        <time>2019-05-11T11:26:45Z</time>
      </trkpt>
      <trkpt lat="36.729923248291" lon="-5.10359477996826">
        <ele>805</ele>
        <time>2019-05-11T11:26:47Z</time>
      </trkpt>
      <trkpt lat="36.7299499511719" lon="-5.10359477996826">
        <ele>806</ele>
        <time>2019-05-11T11:26:49Z</time>
      </trkpt>
      <trkpt lat="36.7299766540527" lon="-5.10359477996826">
        <ele>806</ele>
        <time>2019-05-11T11:26:51Z</time>
      </trkpt>
      <trkpt lat="36.7299957275391" lon="-5.10359477996826">
        <ele>806</ele>
        <time>2019-05-11T11:26:53Z</time>
      </trkpt>
      <trkpt lat="36.7300338745117" lon="-5.10358715057373">
        <ele>806</ele>
        <time>2019-05-11T11:26:55Z</time>
      </trkpt>
      <trkpt lat="36.7300643920898" lon="-5.10358190536499">
        <ele>806</ele>
        <time>2019-05-11T11:26:57Z</time>
      </trkpt>
      <trkpt lat="36.7300910949707" lon="-5.10357522964478">
        <ele>807</ele>
        <time>2019-05-11T11:26:59Z</time>
      </trkpt>
      <trkpt lat="36.7301177978516" lon="-5.1035680770874">
        <ele>807</ele>
        <time>2019-05-11T11:27:01Z</time>
      </trkpt>
      <trkpt lat="36.7301445007324" lon="-5.10356187820435">
        <ele>807</ele>
        <time>2019-05-11T11:27:03Z</time>
      </trkpt>
      <trkpt lat="36.7301712036133" lon="-5.10355520248413">
        <ele>808</ele>
        <time>2019-05-11T11:27:05Z</time>
      </trkpt>
      <trkpt lat="36.7302017211914" lon="-5.10354804992676">
        <ele>808</ele>
        <time>2019-05-11T11:27:07Z</time>
      </trkpt>
      <trkpt lat="36.730224609375" lon="-5.1035418510437">
        <ele>808</ele>
        <time>2019-05-11T11:27:09Z</time>
      </trkpt>
      <trkpt lat="36.7302513122559" lon="-5.10353517532349">
        <ele>808</ele>
        <time>2019-05-11T11:27:11Z</time>
      </trkpt>
      <trkpt lat="36.7302742004394" lon="-5.1035270690918">
        <ele>808</ele>
        <time>2019-05-11T11:27:14Z</time>
      </trkpt>
      <trkpt lat="36.730297088623" lon="-5.10352182388306">
        <ele>808</ele>
        <time>2019-05-11T11:27:16Z</time>
      </trkpt>
      <trkpt lat="36.7303161621094" lon="-5.10351181030273">
        <ele>809</ele>
        <time>2019-05-11T11:27:18Z</time>
      </trkpt>
      <trkpt lat="36.7303428649902" lon="-5.10349988937378">
        <ele>809</ele>
        <time>2019-05-11T11:27:20Z</time>
      </trkpt>
      <trkpt lat="36.7303619384766" lon="-5.1034951210022">
        <ele>810</ele>
        <time>2019-05-11T11:27:22Z</time>
      </trkpt>
      <trkpt lat="36.7303848266602" lon="-5.10349321365356">
        <ele>810</ele>
        <time>2019-05-11T11:27:24Z</time>
      </trkpt>
      <trkpt lat="36.7304077148438" lon="-5.10348701477051">
        <ele>810</ele>
        <time>2019-05-11T11:27:26Z</time>
      </trkpt>
      <trkpt lat="36.7304306030273" lon="-5.10347700119019">
        <ele>810</ele>
        <time>2019-05-11T11:27:28Z</time>
      </trkpt>
      <trkpt lat="36.7304534912109" lon="-5.10346794128418">
        <ele>810</ele>
        <time>2019-05-11T11:27:30Z</time>
      </trkpt>
      <trkpt lat="36.7304954528809" lon="-5.10345697402954">
        <ele>810</ele>
        <time>2019-05-11T11:27:32Z</time>
      </trkpt>
      <trkpt lat="36.7305221557617" lon="-5.10344791412354">
        <ele>811</ele>
        <time>2019-05-11T11:27:34Z</time>
      </trkpt>
      <trkpt lat="36.7305488586426" lon="-5.10343980789185">
        <ele>811</ele>
        <time>2019-05-11T11:27:36Z</time>
      </trkpt>
      <trkpt lat="36.7305717468262" lon="-5.10342979431152">
        <ele>811</ele>
        <time>2019-05-11T11:27:38Z</time>
      </trkpt>
      <trkpt lat="36.730598449707" lon="-5.10342216491699">
        <ele>812</ele>
        <time>2019-05-11T11:27:40Z</time>
      </trkpt>
      <trkpt lat="36.7306213378906" lon="-5.10341501235962">
        <ele>812</ele>
        <time>2019-05-11T11:27:42Z</time>
      </trkpt>
      <trkpt lat="36.7306518554688" lon="-5.10340690612793">
        <ele>812</ele>
        <time>2019-05-11T11:27:44Z</time>
      </trkpt>
      <trkpt lat="36.7306785583496" lon="-5.10340023040772">
        <ele>813</ele>
        <time>2019-05-11T11:27:46Z</time>
      </trkpt>
      <trkpt lat="36.7307014465332" lon="-5.10339021682739">
        <ele>813</ele>
        <time>2019-05-11T11:27:49Z</time>
      </trkpt>
      <trkpt lat="36.7307281494141" lon="-5.1033878326416">
        <ele>813</ele>
        <time>2019-05-11T11:27:51Z</time>
      </trkpt>
      <trkpt lat="36.7307510375977" lon="-5.1033821105957">
        <ele>813</ele>
        <time>2019-05-11T11:27:53Z</time>
      </trkpt>
      <trkpt lat="36.7307739257812" lon="-5.1033730506897">
        <ele>813</ele>
        <time>2019-05-11T11:27:55Z</time>
      </trkpt>
      <trkpt lat="36.7308006286621" lon="-5.10336494445801">
        <ele>814</ele>
        <time>2019-05-11T11:27:57Z</time>
      </trkpt>
      <trkpt lat="36.730827331543" lon="-5.10335493087769">
        <ele>814</ele>
        <time>2019-05-11T11:27:59Z</time>
      </trkpt>
      <trkpt lat="36.7308540344238" lon="-5.103346824646">
        <ele>814</ele>
        <time>2019-05-11T11:28:01Z</time>
      </trkpt>
      <trkpt lat="36.7308807373047" lon="-5.10333776473999">
        <ele>814</ele>
        <time>2019-05-11T11:28:03Z</time>
      </trkpt>
      <trkpt lat="36.7309112548828" lon="-5.10332489013672">
        <ele>815</ele>
        <time>2019-05-11T11:28:05Z</time>
      </trkpt>
      <trkpt lat="36.7309532165527" lon="-5.10330486297607">
        <ele>815</ele>
        <time>2019-05-11T11:28:07Z</time>
      </trkpt>
      <trkpt lat="36.7309837341309" lon="-5.10329484939575">
        <ele>815</ele>
        <time>2019-05-11T11:28:09Z</time>
      </trkpt>
      <trkpt lat="36.731014251709" lon="-5.10328483581543">
        <ele>815</ele>
        <time>2019-05-11T11:28:11Z</time>
      </trkpt>
      <trkpt lat="36.7310409545898" lon="-5.10327291488647">
        <ele>815</ele>
        <time>2019-05-11T11:28:13Z</time>
      </trkpt>
      <trkpt lat="36.7310676574707" lon="-5.10325717926025">
        <ele>815</ele>
        <time>2019-05-11T11:28:15Z</time>
      </trkpt>
      <trkpt lat="36.7310943603516" lon="-5.10323810577393">
        <ele>815</ele>
        <time>2019-05-11T11:28:17Z</time>
      </trkpt>
      <trkpt lat="36.7311210632324" lon="-5.10321998596191">
        <ele>815</ele>
        <time>2019-05-11T11:28:19Z</time>
      </trkpt>
      <trkpt lat="36.7311477661133" lon="-5.1032018661499">
        <ele>815</ele>
        <time>2019-05-11T11:28:21Z</time>
      </trkpt>
      <trkpt lat="36.7311706542969" lon="-5.10318183898926">
        <ele>815</ele>
        <time>2019-05-11T11:28:24Z</time>
      </trkpt>
      <trkpt lat="36.7311935424805" lon="-5.10316181182861">
        <ele>815</ele>
        <time>2019-05-11T11:28:26Z</time>
      </trkpt>
      <trkpt lat="36.7312164306641" lon="-5.10314321517944">
        <ele>815</ele>
        <time>2019-05-11T11:28:28Z</time>
      </trkpt>
      <trkpt lat="36.7312431335449" lon="-5.10312795639038">
        <ele>815</ele>
        <time>2019-05-11T11:28:30Z</time>
      </trkpt>
      <trkpt lat="36.7312660217285" lon="-5.10311508178711">
        <ele>815</ele>
        <time>2019-05-11T11:28:32Z</time>
      </trkpt>
      <trkpt lat="36.7312927246094" lon="-5.10309791564941">
        <ele>815</ele>
        <time>2019-05-11T11:28:34Z</time>
      </trkpt>
      <trkpt lat="36.7313232421875" lon="-5.10308694839478">
        <ele>815</ele>
        <time>2019-05-11T11:28:36Z</time>
      </trkpt>
      <trkpt lat="36.7313499450684" lon="-5.10307693481445">
        <ele>815</ele>
        <time>2019-05-11T11:28:38Z</time>
      </trkpt>
      <trkpt lat="36.7313766479492" lon="-5.10306978225708">
        <ele>815</ele>
        <time>2019-05-11T11:28:40Z</time>
      </trkpt>
      <trkpt lat="36.7314033508301" lon="-5.10306215286255">
        <ele>815</ele>
        <time>2019-05-11T11:28:42Z</time>
      </trkpt>
      <trkpt lat="36.7314491271973" lon="-5.10305690765381">
        <ele>815</ele>
        <time>2019-05-11T11:28:44Z</time>
      </trkpt>
      <trkpt lat="36.7314758300781" lon="-5.10305690765381">
        <ele>815</ele>
        <time>2019-05-11T11:28:46Z</time>
      </trkpt>
      <trkpt lat="36.7315063476562" lon="-5.10305500030518">
        <ele>815</ele>
        <time>2019-05-11T11:28:48Z</time>
      </trkpt>
      <trkpt lat="36.7315368652344" lon="-5.10305213928223">
        <ele>815</ele>
        <time>2019-05-11T11:28:50Z</time>
      </trkpt>
      <trkpt lat="36.7315673828125" lon="-5.10305023193359">
        <ele>815</ele>
        <time>2019-05-11T11:28:52Z</time>
      </trkpt>
      <trkpt lat="36.7316017150879" lon="-5.10304307937622">
        <ele>815</ele>
        <time>2019-05-11T11:28:54Z</time>
      </trkpt>
      <trkpt lat="36.731632232666" lon="-5.10303783416748">
        <ele>815</ele>
        <time>2019-05-11T11:28:56Z</time>
      </trkpt>
      <trkpt lat="36.7316627502441" lon="-5.10303497314453">
        <ele>815</ele>
        <time>2019-05-11T11:28:59Z</time>
      </trkpt>
      <trkpt lat="36.7316932678223" lon="-5.10303497314453">
        <ele>815</ele>
        <time>2019-05-11T11:29:01Z</time>
      </trkpt>
      <trkpt lat="36.7317237854004" lon="-5.1030330657959">
        <ele>816</ele>
        <time>2019-05-11T11:29:03Z</time>
      </trkpt>
      <trkpt lat="36.7317504882812" lon="-5.10302686691284">
        <ele>816</ele>
        <time>2019-05-11T11:29:05Z</time>
      </trkpt>
      <trkpt lat="36.7317733764648" lon="-5.10301685333252">
        <ele>816</ele>
        <time>2019-05-11T11:29:07Z</time>
      </trkpt>
      <trkpt lat="36.731803894043" lon="-5.1030068397522">
        <ele>817</ele>
        <time>2019-05-11T11:29:09Z</time>
      </trkpt>
      <trkpt lat="36.7318267822266" lon="-5.10299491882324">
        <ele>817</ele>
        <time>2019-05-11T11:29:11Z</time>
      </trkpt>
      <trkpt lat="36.7318534851074" lon="-5.10298299789429">
        <ele>817</ele>
        <time>2019-05-11T11:29:13Z</time>
      </trkpt>
      <trkpt lat="36.7318801879883" lon="-5.10296821594238">
        <ele>817</ele>
        <time>2019-05-11T11:29:15Z</time>
      </trkpt>
      <trkpt lat="36.7319030761719" lon="-5.10295295715332">
        <ele>818</ele>
        <time>2019-05-11T11:29:17Z</time>
      </trkpt>
      <trkpt lat="36.7319221496582" lon="-5.10293197631836">
        <ele>818</ele>
        <time>2019-05-11T11:29:19Z</time>
      </trkpt>
      <trkpt lat="36.7319602966309" lon="-5.10290718078613">
        <ele>818</ele>
        <time>2019-05-11T11:29:21Z</time>
      </trkpt>
      <trkpt lat="36.7319831848144" lon="-5.10289192199707">
        <ele>819</ele>
        <time>2019-05-11T11:29:23Z</time>
      </trkpt>
      <trkpt lat="36.732006072998" lon="-5.10287714004517">
        <ele>819</ele>
        <time>2019-05-11T11:29:25Z</time>
      </trkpt>
      <trkpt lat="36.7320289611816" lon="-5.1028618812561">
        <ele>819</ele>
        <time>2019-05-11T11:29:27Z</time>
      </trkpt>
      <trkpt lat="36.7320518493652" lon="-5.1028470993042">
        <ele>820</ele>
        <time>2019-05-11T11:29:29Z</time>
      </trkpt>
      <trkpt lat="36.7320785522461" lon="-5.10283279418945">
        <ele>821</ele>
        <time>2019-05-11T11:29:31Z</time>
      </trkpt>
      <trkpt lat="36.7321014404297" lon="-5.10281991958618">
        <ele>821</ele>
        <time>2019-05-11T11:29:33Z</time>
      </trkpt>
      <trkpt lat="36.7321243286133" lon="-5.10280704498291">
        <ele>822</ele>
        <time>2019-05-11T11:29:36Z</time>
      </trkpt>
      <trkpt lat="36.7321472167969" lon="-5.10279178619385">
        <ele>822</ele>
        <time>2019-05-11T11:29:38Z</time>
      </trkpt>
      <trkpt lat="36.7321701049805" lon="-5.10277318954468">
        <ele>823</ele>
        <time>2019-05-11T11:29:40Z</time>
      </trkpt>
      <trkpt lat="36.7321929931641" lon="-5.10275506973267">
        <ele>823</ele>
        <time>2019-05-11T11:29:42Z</time>
      </trkpt>
      <trkpt lat="36.7322158813477" lon="-5.10273790359497">
        <ele>824</ele>
        <time>2019-05-11T11:29:44Z</time>
      </trkpt>
      <trkpt lat="36.7322387695312" lon="-5.1027250289917">
        <ele>824</ele>
        <time>2019-05-11T11:29:46Z</time>
      </trkpt>
      <trkpt lat="36.7322616577148" lon="-5.102707862854">
        <ele>825</ele>
        <time>2019-05-11T11:29:48Z</time>
      </trkpt>
      <trkpt lat="36.7322845458984" lon="-5.1026930809021">
        <ele>825</ele>
        <time>2019-05-11T11:29:50Z</time>
      </trkpt>
      <trkpt lat="36.7323036193848" lon="-5.10267782211304">
        <ele>826</ele>
        <time>2019-05-11T11:29:52Z</time>
      </trkpt>
      <trkpt lat="36.7323226928711" lon="-5.10266304016113">
        <ele>826</ele>
        <time>2019-05-11T11:29:54Z</time>
      </trkpt>
      <trkpt lat="36.7323532104492" lon="-5.10264015197754">
        <ele>827</ele>
        <time>2019-05-11T11:29:56Z</time>
      </trkpt>
      <trkpt lat="36.7323760986328" lon="-5.10262012481689">
        <ele>827</ele>
        <time>2019-05-11T11:29:58Z</time>
      </trkpt>
      <trkpt lat="36.7323951721191" lon="-5.1025972366333">
        <ele>828</ele>
        <time>2019-05-11T11:30:00Z</time>
      </trkpt>
      <trkpt lat="36.7324142456055" lon="-5.10257482528686">
        <ele>828</ele>
        <time>2019-05-11T11:30:02Z</time>
      </trkpt>
      <trkpt lat="36.7324371337891" lon="-5.10255479812622">
        <ele>829</ele>
        <time>2019-05-11T11:30:04Z</time>
      </trkpt>
      <trkpt lat="36.7324562072754" lon="-5.10253286361694">
        <ele>829</ele>
        <time>2019-05-11T11:30:06Z</time>
      </trkpt>
      <trkpt lat="36.732479095459" lon="-5.10250997543335">
        <ele>830</ele>
        <time>2019-05-11T11:30:08Z</time>
      </trkpt>
      <trkpt lat="36.7325019836426" lon="-5.10248708724976">
        <ele>830</ele>
        <time>2019-05-11T11:30:11Z</time>
      </trkpt>
      <trkpt lat="36.7325248718262" lon="-5.10246276855469">
        <ele>830</ele>
        <time>2019-05-11T11:30:13Z</time>
      </trkpt>
      <trkpt lat="36.7325439453125" lon="-5.10244178771973">
        <ele>831</ele>
        <time>2019-05-11T11:30:15Z</time>
      </trkpt>
      <trkpt lat="36.7325668334961" lon="-5.10241794586182">
        <ele>831</ele>
        <time>2019-05-11T11:30:17Z</time>
      </trkpt>
      <trkpt lat="36.732593536377" lon="-5.10239791870117">
        <ele>831</ele>
        <time>2019-05-11T11:30:19Z</time>
      </trkpt>
      <trkpt lat="36.7326126098633" lon="-5.10237789154053">
        <ele>831</ele>
        <time>2019-05-11T11:30:21Z</time>
      </trkpt>
      <trkpt lat="36.7326354980469" lon="-5.10235977172852">
        <ele>831</ele>
        <time>2019-05-11T11:30:23Z</time>
      </trkpt>
      <trkpt lat="36.7326583862305" lon="-5.10234212875366">
        <ele>831</ele>
        <time>2019-05-11T11:30:25Z</time>
      </trkpt>
      <trkpt lat="36.7326812744141" lon="-5.10232496261597">
        <ele>831</ele>
        <time>2019-05-11T11:30:27Z</time>
      </trkpt>
      <trkpt lat="36.7327079772949" lon="-5.1023120880127">
        <ele>831</ele>
        <time>2019-05-11T11:30:29Z</time>
      </trkpt>
      <trkpt lat="36.7327346801758" lon="-5.10230207443237">
        <ele>832</ele>
        <time>2019-05-11T11:30:31Z</time>
      </trkpt>
      <trkpt lat="36.7327766418457" lon="-5.10229206085205">
        <ele>832</ele>
        <time>2019-05-11T11:30:33Z</time>
      </trkpt>
      <trkpt lat="36.7328033447266" lon="-5.10229015350342">
        <ele>832</ele>
        <time>2019-05-11T11:30:35Z</time>
      </trkpt>
      <trkpt lat="36.7328300476074" lon="-5.10229206085205">
        <ele>833</ele>
        <time>2019-05-11T11:30:37Z</time>
      </trkpt>
      <trkpt lat="36.7328567504883" lon="-5.102294921875">
        <ele>833</ele>
        <time>2019-05-11T11:30:39Z</time>
      </trkpt>
      <trkpt lat="36.7328834533691" lon="-5.10230493545532">
        <ele>833</ele>
        <time>2019-05-11T11:30:41Z</time>
      </trkpt>
      <trkpt lat="36.7329063415527" lon="-5.10232019424438">
        <ele>833</ele>
        <time>2019-05-11T11:30:43Z</time>
      </trkpt>
      <trkpt lat="36.7329292297363" lon="-5.10233783721924">
        <ele>833</ele>
        <time>2019-05-11T11:30:45Z</time>
      </trkpt>
      <trkpt lat="36.7329521179199" lon="-5.10235500335693">
        <ele>833</ele>
        <time>2019-05-11T11:30:47Z</time>
      </trkpt>
      <trkpt lat="36.7329750061035" lon="-5.10237216949463">
        <ele>833</ele>
        <time>2019-05-11T11:30:50Z</time>
      </trkpt>
      <trkpt lat="36.7329978942871" lon="-5.10239219665527">
        <ele>833</ele>
        <time>2019-05-11T11:30:52Z</time>
      </trkpt>
      <trkpt lat="36.7330169677734" lon="-5.10240983963013">
        <ele>833</ele>
        <time>2019-05-11T11:30:54Z</time>
      </trkpt>
      <trkpt lat="36.7330322265625" lon="-5.10242223739624">
        <ele>833</ele>
        <time>2019-05-11T11:30:56Z</time>
      </trkpt>
      <trkpt lat="36.7330513000488" lon="-5.1024432182312">
        <ele>833</ele>
        <time>2019-05-11T11:30:58Z</time>
      </trkpt>
      <trkpt lat="36.733081817627" lon="-5.10246276855469">
        <ele>833</ele>
        <time>2019-05-11T11:31:00Z</time>
      </trkpt>
      <trkpt lat="36.7331008911133" lon="-5.10247182846069">
        <ele>833</ele>
        <time>2019-05-11T11:31:02Z</time>
      </trkpt>
      <trkpt lat="36.7331275939941" lon="-5.10247802734375">
        <ele>833</ele>
        <time>2019-05-11T11:31:04Z</time>
      </trkpt>
      <trkpt lat="36.7331504821777" lon="-5.10248708724976">
        <ele>833</ele>
        <time>2019-05-11T11:31:06Z</time>
      </trkpt>
      <trkpt lat="36.7331886291504" lon="-5.10249185562134">
        <ele>833</ele>
        <time>2019-05-11T11:31:08Z</time>
      </trkpt>
      <trkpt lat="36.733211517334" lon="-5.1024899482727">
        <ele>833</ele>
        <time>2019-05-11T11:31:10Z</time>
      </trkpt>
      <trkpt lat="36.7332420349121" lon="-5.10248804092407">
        <ele>833</ele>
        <time>2019-05-11T11:31:12Z</time>
      </trkpt>
      <trkpt lat="36.733268737793" lon="-5.10248184204102">
        <ele>833</ele>
        <time>2019-05-11T11:31:14Z</time>
      </trkpt>
      <trkpt lat="36.7332954406738" lon="-5.10247278213501">
        <ele>833</ele>
        <time>2019-05-11T11:31:16Z</time>
      </trkpt>
      <trkpt lat="36.7333221435547" lon="-5.10246276855469">
        <ele>833</ele>
        <time>2019-05-11T11:31:18Z</time>
      </trkpt>
      <trkpt lat="36.7333488464356" lon="-5.10245323181152">
        <ele>833</ele>
        <time>2019-05-11T11:31:20Z</time>
      </trkpt>
      <trkpt lat="36.7333717346191" lon="-5.10243701934814">
        <ele>833</ele>
        <time>2019-05-11T11:31:22Z</time>
      </trkpt>
      <trkpt lat="36.7333984375" lon="-5.10241985321045">
        <ele>833</ele>
        <time>2019-05-11T11:31:25Z</time>
      </trkpt>
      <trkpt lat="36.7334213256836" lon="-5.10240793228149">
        <ele>833</ele>
        <time>2019-05-11T11:31:27Z</time>
      </trkpt>
      <trkpt lat="36.7334480285644" lon="-5.10239696502686">
        <ele>833</ele>
        <time>2019-05-11T11:31:29Z</time>
      </trkpt>
      <trkpt lat="36.7334785461426" lon="-5.1023850440979">
        <ele>833</ele>
        <time>2019-05-11T11:31:31Z</time>
      </trkpt>
      <trkpt lat="36.7335052490234" lon="-5.10236978530884">
        <ele>833</ele>
        <time>2019-05-11T11:31:33Z</time>
      </trkpt>
      <trkpt lat="36.7335319519043" lon="-5.10235500335693">
        <ele>833</ele>
        <time>2019-05-11T11:31:35Z</time>
      </trkpt>
      <trkpt lat="36.7335624694824" lon="-5.10234689712524">
        <ele>833</ele>
        <time>2019-05-11T11:31:37Z</time>
      </trkpt>
      <trkpt lat="36.7335815429688" lon="-5.10233020782471">
        <ele>833</ele>
        <time>2019-05-11T11:31:39Z</time>
      </trkpt>
      <trkpt lat="36.7336082458496" lon="-5.10231685638428">
        <ele>833</ele>
        <time>2019-05-11T11:31:41Z</time>
      </trkpt>
      <trkpt lat="36.7336387634277" lon="-5.10230684280396">
        <ele>833</ele>
        <time>2019-05-11T11:31:43Z</time>
      </trkpt>
      <trkpt lat="36.7336921691894" lon="-5.10228776931763">
        <ele>832</ele>
        <time>2019-05-11T11:31:45Z</time>
      </trkpt>
      <trkpt lat="36.733715057373" lon="-5.1022801399231">
        <ele>831</ele>
        <time>2019-05-11T11:31:47Z</time>
      </trkpt>
      <trkpt lat="36.7337379455566" lon="-5.10226678848267">
        <ele>831</ele>
        <time>2019-05-11T11:31:49Z</time>
      </trkpt>
      <trkpt lat="36.7337493896484" lon="-5.10225486755371">
        <ele>830</ele>
        <time>2019-05-11T11:31:51Z</time>
      </trkpt>
      <trkpt lat="36.733772277832" lon="-5.10223484039307">
        <ele>830</ele>
        <time>2019-05-11T11:31:53Z</time>
      </trkpt>
      <trkpt lat="36.7337913513184" lon="-5.10221719741821">
        <ele>829</ele>
        <time>2019-05-11T11:31:55Z</time>
      </trkpt>
      <trkpt lat="36.7338066101074" lon="-5.10219478607178">
        <ele>828</ele>
        <time>2019-05-11T11:31:57Z</time>
      </trkpt>
      <trkpt lat="36.7338256835938" lon="-5.10218000411987">
        <ele>828</ele>
        <time>2019-05-11T11:32:00Z</time>
      </trkpt>
      <trkpt lat="36.7338447570801" lon="-5.10215282440186">
        <ele>828</ele>
        <time>2019-05-11T11:32:02Z</time>
      </trkpt>
      <trkpt lat="36.7338676452637" lon="-5.10212802886963">
        <ele>828</ele>
        <time>2019-05-11T11:32:04Z</time>
      </trkpt>
      <trkpt lat="36.73388671875" lon="-5.1020998954773">
        <ele>828</ele>
        <time>2019-05-11T11:32:06Z</time>
      </trkpt>
      <trkpt lat="36.7339057922363" lon="-5.10207176208496">
        <ele>828</ele>
        <time>2019-05-11T11:32:08Z</time>
      </trkpt>
      <trkpt lat="36.7339210510254" lon="-5.10205316543579">
        <ele>828</ele>
        <time>2019-05-11T11:32:10Z</time>
      </trkpt>
      <trkpt lat="36.7339363098144" lon="-5.10203504562378">
        <ele>828</ele>
        <time>2019-05-11T11:32:12Z</time>
      </trkpt>
      <trkpt lat="36.7339515686035" lon="-5.1020131111145">
        <ele>828</ele>
        <time>2019-05-11T11:32:14Z</time>
      </trkpt>
      <trkpt lat="36.7339668273926" lon="-5.10199213027954">
        <ele>828</ele>
        <time>2019-05-11T11:32:16Z</time>
      </trkpt>
      <trkpt lat="36.7339935302734" lon="-5.1019778251648">
        <ele>828</ele>
        <time>2019-05-11T11:32:18Z</time>
      </trkpt>
      <trkpt lat="36.734016418457" lon="-5.10196018218994">
        <ele>827</ele>
        <time>2019-05-11T11:32:20Z</time>
      </trkpt>
      <trkpt lat="36.7340545654297" lon="-5.10192680358887">
        <ele>826</ele>
        <time>2019-05-11T11:32:22Z</time>
      </trkpt>
      <trkpt lat="36.7340774536133" lon="-5.10190296173096">
        <ele>825</ele>
        <time>2019-05-11T11:32:24Z</time>
      </trkpt>
      <trkpt lat="36.7341079711914" lon="-5.10187816619873">
        <ele>824</ele>
        <time>2019-05-11T11:32:26Z</time>
      </trkpt>
      <trkpt lat="36.734130859375" lon="-5.10185718536377">
        <ele>824</ele>
        <time>2019-05-11T11:32:28Z</time>
      </trkpt>
      <trkpt lat="36.7341575622559" lon="-5.1018328666687">
        <ele>824</ele>
        <time>2019-05-11T11:32:30Z</time>
      </trkpt>
      <trkpt lat="36.7341842651367" lon="-5.10180807113647">
        <ele>824</ele>
        <time>2019-05-11T11:32:32Z</time>
      </trkpt>
      <trkpt lat="36.7342071533203" lon="-5.10177993774414">
        <ele>824</ele>
        <time>2019-05-11T11:32:35Z</time>
      </trkpt>
      <trkpt lat="36.7342338562012" lon="-5.10175514221191">
        <ele>824</ele>
        <time>2019-05-11T11:32:37Z</time>
      </trkpt>
      <trkpt lat="36.734260559082" lon="-5.10172986984253">
        <ele>824</ele>
        <time>2019-05-11T11:32:39Z</time>
      </trkpt>
      <trkpt lat="36.7342872619629" lon="-5.10170316696167">
        <ele>824</ele>
        <time>2019-05-11T11:32:41Z</time>
      </trkpt>
      <trkpt lat="36.7343139648438" lon="-5.10168218612671">
        <ele>824</ele>
        <time>2019-05-11T11:32:43Z</time>
      </trkpt>
      <trkpt lat="36.7343406677246" lon="-5.10166311264038">
        <ele>824</ele>
        <time>2019-05-11T11:32:45Z</time>
      </trkpt>
      <trkpt lat="36.7343673706055" lon="-5.10164499282837">
        <ele>824</ele>
        <time>2019-05-11T11:32:47Z</time>
      </trkpt>
      <trkpt lat="36.7343940734863" lon="-5.10162782669067">
        <ele>824</ele>
        <time>2019-05-11T11:32:49Z</time>
      </trkpt>
      <trkpt lat="36.7344207763672" lon="-5.10160779953003">
        <ele>824</ele>
        <time>2019-05-11T11:32:51Z</time>
      </trkpt>
      <trkpt lat="36.7344512939453" lon="-5.10158681869507">
        <ele>824</ele>
        <time>2019-05-11T11:32:53Z</time>
      </trkpt>
      <trkpt lat="36.7344856262207" lon="-5.1015567779541">
        <ele>824</ele>
        <time>2019-05-11T11:32:55Z</time>
      </trkpt>
      <trkpt lat="36.7345123291016" lon="-5.10153722763062">
        <ele>824</ele>
        <time>2019-05-11T11:32:57Z</time>
      </trkpt>
      <trkpt lat="36.7345352172852" lon="-5.10151481628418">
        <ele>824</ele>
        <time>2019-05-11T11:32:59Z</time>
      </trkpt>
      <trkpt lat="36.7345581054688" lon="-5.10149192810059">
        <ele>824</ele>
        <time>2019-05-11T11:33:01Z</time>
      </trkpt>
      <trkpt lat="36.7345848083496" lon="-5.10146713256836">
        <ele>824</ele>
        <time>2019-05-11T11:33:03Z</time>
      </trkpt>
      <trkpt lat="36.7346038818359" lon="-5.10144186019897">
        <ele>824</ele>
        <time>2019-05-11T11:33:05Z</time>
      </trkpt>
      <trkpt lat="36.7346267700195" lon="-5.10141515731812">
        <ele>824</ele>
        <time>2019-05-11T11:33:07Z</time>
      </trkpt>
      <trkpt lat="36.7346496582031" lon="-5.10138702392578">
        <ele>824</ele>
        <time>2019-05-11T11:33:09Z</time>
      </trkpt>
      <trkpt lat="36.7346687316894" lon="-5.10135698318481">
        <ele>824</ele>
        <time>2019-05-11T11:33:12Z</time>
      </trkpt>
      <trkpt lat="36.7346878051758" lon="-5.10132694244385">
        <ele>824</ele>
        <time>2019-05-11T11:33:14Z</time>
      </trkpt>
      <trkpt lat="36.7347068786621" lon="-5.10130214691162">
        <ele>824</ele>
        <time>2019-05-11T11:33:16Z</time>
      </trkpt>
      <trkpt lat="36.7347297668457" lon="-5.10128021240234">
        <ele>824</ele>
        <time>2019-05-11T11:33:18Z</time>
      </trkpt>
      <trkpt lat="36.7347526550293" lon="-5.10126209259033">
        <ele>824</ele>
        <time>2019-05-11T11:33:20Z</time>
      </trkpt>
      <trkpt lat="36.7347717285156" lon="-5.10123491287231">
        <ele>824</ele>
        <time>2019-05-11T11:33:22Z</time>
      </trkpt>
      <trkpt lat="36.7347984313965" lon="-5.1012020111084">
        <ele>824</ele>
        <time>2019-05-11T11:33:24Z</time>
      </trkpt>
      <trkpt lat="36.7348289489746" lon="-5.10116815567017">
        <ele>824</ele>
        <time>2019-05-11T11:33:26Z</time>
      </trkpt>
      <trkpt lat="36.7348556518555" lon="-5.10113716125488">
        <ele>824</ele>
        <time>2019-05-11T11:33:28Z</time>
      </trkpt>
      <trkpt lat="36.7348823547363" lon="-5.10110282897949">
        <ele>824</ele>
        <time>2019-05-11T11:33:30Z</time>
      </trkpt>
      <trkpt lat="36.7349128723144" lon="-5.10106992721558">
        <ele>824</ele>
        <time>2019-05-11T11:33:32Z</time>
      </trkpt>
      <trkpt lat="36.7349586486816" lon="-5.10101985931396">
        <ele>823</ele>
        <time>2019-05-11T11:33:34Z</time>
      </trkpt>
      <trkpt lat="36.7349815368652" lon="-5.10098791122436">
        <ele>823</ele>
        <time>2019-05-11T11:33:36Z</time>
      </trkpt>
      <trkpt lat="36.7350120544434" lon="-5.1009578704834">
        <ele>822</ele>
        <time>2019-05-11T11:33:38Z</time>
      </trkpt>
      <trkpt lat="36.7350387573242" lon="-5.10093021392822">
        <ele>821</ele>
        <time>2019-05-11T11:33:40Z</time>
      </trkpt>
      <trkpt lat="36.7350730895996" lon="-5.10090017318726">
        <ele>821</ele>
        <time>2019-05-11T11:33:42Z</time>
      </trkpt>
      <trkpt lat="36.7351036071777" lon="-5.10086822509766">
        <ele>820</ele>
        <time>2019-05-11T11:33:44Z</time>
      </trkpt>
      <trkpt lat="36.7351341247559" lon="-5.10083293914795">
        <ele>819</ele>
        <time>2019-05-11T11:33:46Z</time>
      </trkpt>
      <trkpt lat="36.7351608276367" lon="-5.10079479217529">
        <ele>818</ele>
        <time>2019-05-11T11:33:49Z</time>
      </trkpt>
      <trkpt lat="36.7351837158203" lon="-5.10075521469116">
        <ele>817</ele>
        <time>2019-05-11T11:33:51Z</time>
      </trkpt>
      <trkpt lat="36.7352066040039" lon="-5.10071516036987">
        <ele>816</ele>
        <time>2019-05-11T11:33:53Z</time>
      </trkpt>
      <trkpt lat="36.7352333068848" lon="-5.10068321228027">
        <ele>815</ele>
        <time>2019-05-11T11:33:55Z</time>
      </trkpt>
      <trkpt lat="36.7352600097656" lon="-5.10065793991089">
        <ele>814</ele>
        <time>2019-05-11T11:33:57Z</time>
      </trkpt>
      <trkpt lat="36.7352867126465" lon="-5.10063219070435">
        <ele>813</ele>
        <time>2019-05-11T11:33:59Z</time>
      </trkpt>
      <trkpt lat="36.7353172302246" lon="-5.10061693191528">
        <ele>811</ele>
        <time>2019-05-11T11:34:01Z</time>
      </trkpt>
      <trkpt lat="36.7353477478027" lon="-5.10060977935791">
        <ele>811</ele>
        <time>2019-05-11T11:34:03Z</time>
      </trkpt>
      <trkpt lat="36.7353782653809" lon="-5.10060214996338">
        <ele>811</ele>
        <time>2019-05-11T11:34:05Z</time>
      </trkpt>
      <trkpt lat="36.735408782959" lon="-5.10059690475464">
        <ele>810</ele>
        <time>2019-05-11T11:34:07Z</time>
      </trkpt>
      <trkpt lat="36.7354621887207" lon="-5.10059309005737">
        <ele>809</ele>
        <time>2019-05-11T11:34:09Z</time>
      </trkpt>
      <trkpt lat="36.7355003356934" lon="-5.10058307647705">
        <ele>809</ele>
        <time>2019-05-11T11:34:11Z</time>
      </trkpt>
      <trkpt lat="36.735538482666" lon="-5.10056781768799">
        <ele>808</ele>
        <time>2019-05-11T11:34:13Z</time>
      </trkpt>
      <trkpt lat="36.7355766296387" lon="-5.10055303573608">
        <ele>807</ele>
        <time>2019-05-11T11:34:15Z</time>
      </trkpt>
      <trkpt lat="36.7356147766113" lon="-5.10053491592407">
        <ele>806</ele>
        <time>2019-05-11T11:34:17Z</time>
      </trkpt>
      <trkpt lat="36.7356452941894" lon="-5.10051488876343">
        <ele>806</ele>
        <time>2019-05-11T11:34:19Z</time>
      </trkpt>
      <trkpt lat="36.7356758117676" lon="-5.10049295425415">
        <ele>805</ele>
        <time>2019-05-11T11:34:21Z</time>
      </trkpt>
      <trkpt lat="36.7357063293457" lon="-5.10046291351318">
        <ele>805</ele>
        <time>2019-05-11T11:34:24Z</time>
      </trkpt>
      <trkpt lat="36.7357406616211" lon="-5.1004319190979">
        <ele>804</ele>
        <time>2019-05-11T11:34:26Z</time>
      </trkpt>
      <trkpt lat="36.7357711791992" lon="-5.1003999710083">
        <ele>804</ele>
        <time>2019-05-11T11:34:28Z</time>
      </trkpt>
      <trkpt lat="36.7358093261719" lon="-5.10037279129028">
        <ele>804</ele>
        <time>2019-05-11T11:34:30Z</time>
      </trkpt>
      <trkpt lat="36.73583984375" lon="-5.10033988952637">
        <ele>803</ele>
        <time>2019-05-11T11:34:32Z</time>
      </trkpt>
      <trkpt lat="36.7358589172363" lon="-5.10029983520508">
        <ele>803</ele>
        <time>2019-05-11T11:34:34Z</time>
      </trkpt>
      <trkpt lat="36.7358932495117" lon="-5.10026979446411">
        <ele>803</ele>
        <time>2019-05-11T11:34:36Z</time>
      </trkpt>
      <trkpt lat="36.7359199523926" lon="-5.10023498535156">
        <ele>803</ele>
        <time>2019-05-11T11:34:38Z</time>
      </trkpt>
      <trkpt lat="36.7359390258789" lon="-5.1001877784729">
        <ele>802</ele>
        <time>2019-05-11T11:34:40Z</time>
      </trkpt>
      <trkpt lat="36.7359619140625" lon="-5.10016202926636">
        <ele>801</ele>
        <time>2019-05-11T11:34:42Z</time>
      </trkpt>
      <trkpt lat="36.7359886169434" lon="-5.10014295578003">
        <ele>801</ele>
        <time>2019-05-11T11:34:44Z</time>
      </trkpt>
      <trkpt lat="36.7360191345215" lon="-5.10011196136475">
        <ele>801</ele>
        <time>2019-05-11T11:34:46Z</time>
      </trkpt>
      <trkpt lat="36.7360458374023" lon="-5.10009288787842">
        <ele>801</ele>
        <time>2019-05-11T11:34:48Z</time>
      </trkpt>
      <trkpt lat="36.7360725402832" lon="-5.10007810592651">
        <ele>801</ele>
        <time>2019-05-11T11:34:50Z</time>
      </trkpt>
      <trkpt lat="36.7360954284668" lon="-5.10006189346314">
        <ele>800</ele>
        <time>2019-05-11T11:34:52Z</time>
      </trkpt>
      <trkpt lat="36.7361106872559" lon="-5.10004186630249">
        <ele>800</ele>
        <time>2019-05-11T11:34:54Z</time>
      </trkpt>
      <trkpt lat="36.7361183166504" lon="-5.10000705718994">
        <ele>799</ele>
        <time>2019-05-11T11:34:56Z</time>
      </trkpt>
      <trkpt lat="36.7361335754394" lon="-5.0999870300293">
        <ele>799</ele>
        <time>2019-05-11T11:34:59Z</time>
      </trkpt>
      <trkpt lat="36.7361488342285" lon="-5.0999698638916">
        <ele>798</ele>
        <time>2019-05-11T11:35:01Z</time>
      </trkpt>
      <trkpt lat="36.7361717224121" lon="-5.09994506835938">
        <ele>798</ele>
        <time>2019-05-11T11:35:03Z</time>
      </trkpt>
      <trkpt lat="36.7361869812012" lon="-5.09992980957031">
        <ele>798</ele>
        <time>2019-05-11T11:35:05Z</time>
      </trkpt>
      <trkpt lat="36.736213684082" lon="-5.09990787506104">
        <ele>798</ele>
        <time>2019-05-11T11:35:07Z</time>
      </trkpt>
      <trkpt lat="36.7362365722656" lon="-5.09990215301514">
        <ele>798</ele>
        <time>2019-05-11T11:35:09Z</time>
      </trkpt>
      <trkpt lat="36.7362670898438" lon="-5.09988307952881">
        <ele>798</ele>
        <time>2019-05-11T11:35:11Z</time>
      </trkpt>
      <trkpt lat="36.7362937927246" lon="-5.09986305236816">
        <ele>798</ele>
        <time>2019-05-11T11:35:13Z</time>
      </trkpt>
      <trkpt lat="36.7363243103027" lon="-5.09984302520752">
        <ele>798</ele>
        <time>2019-05-11T11:35:15Z</time>
      </trkpt>
      <trkpt lat="36.7363510131836" lon="-5.09982204437256">
        <ele>798</ele>
        <time>2019-05-11T11:35:17Z</time>
      </trkpt>
      <trkpt lat="36.7363891601562" lon="-5.09978199005127">
        <ele>798</ele>
        <time>2019-05-11T11:35:19Z</time>
      </trkpt>
      <trkpt lat="36.7364196777344" lon="-5.09974813461304">
        <ele>798</ele>
        <time>2019-05-11T11:35:21Z</time>
      </trkpt>
      <trkpt lat="36.736442565918" lon="-5.09970283508301">
        <ele>798</ele>
        <time>2019-05-11T11:35:23Z</time>
      </trkpt>
      <trkpt lat="36.7364768981934" lon="-5.0996618270874">
        <ele>798</ele>
        <time>2019-05-11T11:35:25Z</time>
      </trkpt>
      <trkpt lat="36.7365074157715" lon="-5.0996298789978">
        <ele>796</ele>
        <time>2019-05-11T11:35:27Z</time>
      </trkpt>
      <trkpt lat="36.7365493774414" lon="-5.09958696365356">
        <ele>795</ele>
        <time>2019-05-11T11:35:29Z</time>
      </trkpt>
      <trkpt lat="36.7365798950195" lon="-5.09954500198364">
        <ele>794</ele>
        <time>2019-05-11T11:35:31Z</time>
      </trkpt>
      <trkpt lat="36.7366142272949" lon="-5.0995078086853">
        <ele>793</ele>
        <time>2019-05-11T11:35:33Z</time>
      </trkpt>
      <trkpt lat="36.7366485595703" lon="-5.0994668006897">
        <ele>791</ele>
        <time>2019-05-11T11:35:36Z</time>
      </trkpt>
      <trkpt lat="36.7366714477539" lon="-5.09942197799683">
        <ele>791</ele>
        <time>2019-05-11T11:35:38Z</time>
      </trkpt>
      <trkpt lat="36.7366943359375" lon="-5.09937810897827">
        <ele>790</ele>
        <time>2019-05-11T11:35:40Z</time>
      </trkpt>
      <trkpt lat="36.7367057800293" lon="-5.09932994842529">
        <ele>789</ele>
        <time>2019-05-11T11:35:42Z</time>
      </trkpt>
      <trkpt lat="36.7367172241211" lon="-5.09927988052368">
        <ele>787</ele>
        <time>2019-05-11T11:35:44Z</time>
      </trkpt>
      <trkpt lat="36.7367134094238" lon="-5.0992431640625">
        <ele>786</ele>
        <time>2019-05-11T11:35:46Z</time>
      </trkpt>
      <trkpt lat="36.7367057800293" lon="-5.09920978546143">
        <ele>786</ele>
        <time>2019-05-11T11:35:48Z</time>
      </trkpt>
      <trkpt lat="36.7366981506348" lon="-5.09918212890625">
        <ele>785</ele>
        <time>2019-05-11T11:35:50Z</time>
      </trkpt>
      <trkpt lat="36.736686706543" lon="-5.09915685653686">
        <ele>785</ele>
        <time>2019-05-11T11:35:52Z</time>
      </trkpt>
      <trkpt lat="36.7366714477539" lon="-5.09914016723633">
        <ele>785</ele>
        <time>2019-05-11T11:35:54Z</time>
      </trkpt>
      <trkpt lat="36.7366523742676" lon="-5.09912204742432">
        <ele>784</ele>
        <time>2019-05-11T11:35:56Z</time>
      </trkpt>
      <trkpt lat="36.7366218566894" lon="-5.09910202026367">
        <ele>784</ele>
        <time>2019-05-11T11:35:58Z</time>
      </trkpt>
      <trkpt lat="36.7365913391113" lon="-5.09908294677734">
        <ele>784</ele>
        <time>2019-05-11T11:36:00Z</time>
      </trkpt>
      <trkpt lat="36.736572265625" lon="-5.09906005859375">
        <ele>784</ele>
        <time>2019-05-11T11:36:02Z</time>
      </trkpt>
      <trkpt lat="36.7365455627441" lon="-5.09903287887573">
        <ele>784</ele>
        <time>2019-05-11T11:36:04Z</time>
      </trkpt>
      <trkpt lat="36.7365303039551" lon="-5.09900283813477">
        <ele>784</ele>
        <time>2019-05-11T11:36:06Z</time>
      </trkpt>
      <trkpt lat="36.7365264892578" lon="-5.09896993637085">
        <ele>784</ele>
        <time>2019-05-11T11:36:08Z</time>
      </trkpt>
      <trkpt lat="36.7365264892578" lon="-5.09893178939819">
        <ele>784</ele>
        <time>2019-05-11T11:36:11Z</time>
      </trkpt>
      <trkpt lat="36.7365341186523" lon="-5.09889698028564">
        <ele>784</ele>
        <time>2019-05-11T11:36:13Z</time>
      </trkpt>
      <trkpt lat="36.7365455627441" lon="-5.0988597869873">
        <ele>784</ele>
        <time>2019-05-11T11:36:15Z</time>
      </trkpt>
      <trkpt lat="36.7365570068359" lon="-5.0988278388977">
        <ele>784</ele>
        <time>2019-05-11T11:36:17Z</time>
      </trkpt>
      <trkpt lat="36.736572265625" lon="-5.09880018234253">
        <ele>784</ele>
        <time>2019-05-11T11:36:19Z</time>
      </trkpt>
      <trkpt lat="36.7366027832031" lon="-5.09877777099609">
        <ele>784</ele>
        <time>2019-05-11T11:36:21Z</time>
      </trkpt>
      <trkpt lat="36.7366333007812" lon="-5.09876012802124">
        <ele>784</ele>
        <time>2019-05-11T11:36:23Z</time>
      </trkpt>
      <trkpt lat="36.7366561889648" lon="-5.0987401008606">
        <ele>784</ele>
        <time>2019-05-11T11:36:25Z</time>
      </trkpt>
      <trkpt lat="36.736686706543" lon="-5.09872198104858">
        <ele>784</ele>
        <time>2019-05-11T11:36:27Z</time>
      </trkpt>
      <trkpt lat="36.7367134094238" lon="-5.09870719909668">
        <ele>784</ele>
        <time>2019-05-11T11:36:29Z</time>
      </trkpt>
      <trkpt lat="36.7367401123047" lon="-5.09869289398193">
        <ele>784</ele>
        <time>2019-05-11T11:36:31Z</time>
      </trkpt>
      <trkpt lat="36.7367668151856" lon="-5.0986819267273">
        <ele>784</ele>
        <time>2019-05-11T11:36:33Z</time>
      </trkpt>
      <trkpt lat="36.7367935180664" lon="-5.09867000579834">
        <ele>784</ele>
        <time>2019-05-11T11:36:35Z</time>
      </trkpt>
      <trkpt lat="36.7368278503418" lon="-5.09865999221802">
        <ele>784</ele>
        <time>2019-05-11T11:36:37Z</time>
      </trkpt>
      <trkpt lat="36.7368583679199" lon="-5.09865283966064">
        <ele>784</ele>
        <time>2019-05-11T11:36:39Z</time>
      </trkpt>
      <trkpt lat="36.7369003295898" lon="-5.09865188598633">
        <ele>784</ele>
        <time>2019-05-11T11:36:41Z</time>
      </trkpt>
      <trkpt lat="36.7369232177734" lon="-5.09865188598633">
        <ele>784</ele>
        <time>2019-05-11T11:36:43Z</time>
      </trkpt>
      <trkpt lat="36.7369537353516" lon="-5.09865188598633">
        <ele>783</ele>
        <time>2019-05-11T11:36:45Z</time>
      </trkpt>
      <trkpt lat="36.7369842529297" lon="-5.09865808486938">
        <ele>783</ele>
        <time>2019-05-11T11:36:47Z</time>
      </trkpt>
      <trkpt lat="36.7370109558106" lon="-5.09866714477539">
        <ele>783</ele>
        <time>2019-05-11T11:36:49Z</time>
      </trkpt>
      <trkpt lat="36.7370414733887" lon="-5.09868288040161">
        <ele>783</ele>
        <time>2019-05-11T11:36:51Z</time>
      </trkpt>
      <trkpt lat="36.7370643615723" lon="-5.09869813919067">
        <ele>783</ele>
        <time>2019-05-11T11:36:53Z</time>
      </trkpt>
      <trkpt lat="36.7370834350586" lon="-5.09872484207153">
        <ele>783</ele>
        <time>2019-05-11T11:36:55Z</time>
      </trkpt>
      <trkpt lat="36.7371063232422" lon="-5.09875679016113">
        <ele>783</ele>
        <time>2019-05-11T11:36:58Z</time>
      </trkpt>
      <trkpt lat="36.7371215820312" lon="-5.09878492355347">
        <ele>783</ele>
        <time>2019-05-11T11:37:00Z</time>
      </trkpt>
      <trkpt lat="36.7371292114258" lon="-5.09881210327148">
        <ele>783</ele>
        <time>2019-05-11T11:37:02Z</time>
      </trkpt>
      <trkpt lat="36.7371444702148" lon="-5.09884309768677">
        <ele>783</ele>
        <time>2019-05-11T11:37:04Z</time>
      </trkpt>
      <trkpt lat="36.7371597290039" lon="-5.09887504577637">
        <ele>783</ele>
        <time>2019-05-11T11:37:06Z</time>
      </trkpt>
      <trkpt lat="36.7371788024902" lon="-5.09890508651733">
        <ele>783</ele>
        <time>2019-05-11T11:37:08Z</time>
      </trkpt>
      <trkpt lat="36.7371978759766" lon="-5.09893178939819">
        <ele>783</ele>
        <time>2019-05-11T11:37:10Z</time>
      </trkpt>
      <trkpt lat="36.7372169494629" lon="-5.09895515441894">
        <ele>783</ele>
        <time>2019-05-11T11:37:12Z</time>
      </trkpt>
      <trkpt lat="36.7372398376465" lon="-5.0989727973938">
        <ele>783</ele>
        <time>2019-05-11T11:37:14Z</time>
      </trkpt>
      <trkpt lat="36.7372741699219" lon="-5.09899187088013">
        <ele>783</ele>
        <time>2019-05-11T11:37:16Z</time>
      </trkpt>
      <trkpt lat="36.7373008728027" lon="-5.09900188446045">
        <ele>783</ele>
        <time>2019-05-11T11:37:18Z</time>
      </trkpt>
      <trkpt lat="36.7373237609863" lon="-5.09901285171509">
        <ele>783</ele>
        <time>2019-05-11T11:37:20Z</time>
      </trkpt>
      <trkpt lat="36.7373466491699" lon="-5.09902811050415">
        <ele>782</ele>
        <time>2019-05-11T11:37:22Z</time>
      </trkpt>
      <trkpt lat="36.7373657226562" lon="-5.09904193878174">
        <ele>781</ele>
        <time>2019-05-11T11:37:24Z</time>
      </trkpt>
      <trkpt lat="36.7373886108398" lon="-5.09906196594238">
        <ele>781</ele>
        <time>2019-05-11T11:37:26Z</time>
      </trkpt>
      <trkpt lat="36.7374038696289" lon="-5.09908199310303">
        <ele>780</ele>
        <time>2019-05-11T11:37:28Z</time>
      </trkpt>
      <trkpt lat="36.7374229431152" lon="-5.09910011291504">
        <ele>779</ele>
        <time>2019-05-11T11:37:30Z</time>
      </trkpt>
      <trkpt lat="36.7374382019043" lon="-5.09912204742432">
        <ele>778</ele>
        <time>2019-05-11T11:37:33Z</time>
      </trkpt>
      <trkpt lat="36.7374610900879" lon="-5.09914302825928">
        <ele>778</ele>
        <time>2019-05-11T11:37:35Z</time>
      </trkpt>
      <trkpt lat="36.7374801635742" lon="-5.09916496276856">
        <ele>776</ele>
        <time>2019-05-11T11:37:37Z</time>
      </trkpt>
      <trkpt lat="36.7374992370606" lon="-5.09918689727783">
        <ele>776</ele>
        <time>2019-05-11T11:37:39Z</time>
      </trkpt>
      <trkpt lat="36.7375144958496" lon="-5.09920692443848">
        <ele>776</ele>
        <time>2019-05-11T11:37:41Z</time>
      </trkpt>
      <trkpt lat="36.7375335693359" lon="-5.09922695159912">
        <ele>776</ele>
        <time>2019-05-11T11:37:43Z</time>
      </trkpt>
      <trkpt lat="36.7375526428223" lon="-5.09924507141113">
        <ele>775</ele>
        <time>2019-05-11T11:37:45Z</time>
      </trkpt>
      <trkpt lat="36.7375717163086" lon="-5.09926509857178">
        <ele>775</ele>
        <time>2019-05-11T11:37:47Z</time>
      </trkpt>
      <trkpt lat="36.7375907897949" lon="-5.09928178787231">
        <ele>774</ele>
        <time>2019-05-11T11:37:49Z</time>
      </trkpt>
      <trkpt lat="36.7376174926758" lon="-5.09930801391602">
        <ele>774</ele>
        <time>2019-05-11T11:37:51Z</time>
      </trkpt>
      <trkpt lat="36.7376365661621" lon="-5.09932708740234">
        <ele>773</ele>
        <time>2019-05-11T11:37:53Z</time>
      </trkpt>
      <trkpt lat="36.7376556396484" lon="-5.09934520721436">
        <ele>772</ele>
        <time>2019-05-11T11:37:55Z</time>
      </trkpt>
      <trkpt lat="36.7376823425293" lon="-5.099365234375">
        <ele>771</ele>
        <time>2019-05-11T11:37:57Z</time>
      </trkpt>
      <trkpt lat="36.7377128601074" lon="-5.09938478469849">
        <ele>771</ele>
        <time>2019-05-11T11:37:59Z</time>
      </trkpt>
      <trkpt lat="36.7377319335938" lon="-5.09939813613892">
        <ele>771</ele>
        <time>2019-05-11T11:38:01Z</time>
      </trkpt>
      <trkpt lat="36.7377548217773" lon="-5.0994119644165">
        <ele>770</ele>
        <time>2019-05-11T11:38:03Z</time>
      </trkpt>
      <trkpt lat="36.7377815246582" lon="-5.09941816329956">
        <ele>769</ele>
        <time>2019-05-11T11:38:05Z</time>
      </trkpt>
      <trkpt lat="36.7378082275391" lon="-5.09942007064819">
        <ele>769</ele>
        <time>2019-05-11T11:38:08Z</time>
      </trkpt>
      <trkpt lat="36.7378349304199" lon="-5.09942293167114">
        <ele>768</ele>
        <time>2019-05-11T11:38:10Z</time>
      </trkpt>
      <trkpt lat="36.7378616333008" lon="-5.09942293167114">
        <ele>768</ele>
        <time>2019-05-11T11:38:12Z</time>
      </trkpt>
      <trkpt lat="36.7378921508789" lon="-5.09942197799683">
        <ele>768</ele>
        <time>2019-05-11T11:38:14Z</time>
      </trkpt>
      <trkpt lat="36.737922668457" lon="-5.09942197799683">
        <ele>768</ele>
        <time>2019-05-11T11:38:16Z</time>
      </trkpt>
      <trkpt lat="36.7379531860352" lon="-5.09941720962524">
        <ele>768</ele>
        <time>2019-05-11T11:38:18Z</time>
      </trkpt>
      <trkpt lat="36.7379837036133" lon="-5.09940719604492">
        <ele>768</ele>
        <time>2019-05-11T11:38:20Z</time>
      </trkpt>
      <trkpt lat="36.7380104064941" lon="-5.09939193725586">
        <ele>768</ele>
        <time>2019-05-11T11:38:22Z</time>
      </trkpt>
      <trkpt lat="36.7380332946777" lon="-5.09936809539795">
        <ele>768</ele>
        <time>2019-05-11T11:38:24Z</time>
      </trkpt>
      <trkpt lat="36.7380561828613" lon="-5.09934997558594">
        <ele>768</ele>
        <time>2019-05-11T11:38:26Z</time>
      </trkpt>
      <trkpt lat="36.7380790710449" lon="-5.09932708740234">
        <ele>768</ele>
        <time>2019-05-11T11:38:28Z</time>
      </trkpt>
      <trkpt lat="36.7381019592285" lon="-5.09930276870728">
        <ele>768</ele>
        <time>2019-05-11T11:38:30Z</time>
      </trkpt>
      <trkpt lat="36.7381248474121" lon="-5.09928703308106">
        <ele>768</ele>
        <time>2019-05-11T11:38:32Z</time>
      </trkpt>
      <trkpt lat="36.7381401062012" lon="-5.09926319122314">
        <ele>768</ele>
        <time>2019-05-11T11:38:34Z</time>
      </trkpt>
      <trkpt lat="36.7381629943848" lon="-5.09923982620239">
        <ele>768</ele>
        <time>2019-05-11T11:38:36Z</time>
      </trkpt>
      <trkpt lat="36.7381858825684" lon="-5.09921789169312">
        <ele>768</ele>
        <time>2019-05-11T11:38:38Z</time>
      </trkpt>
      <trkpt lat="36.738208770752" lon="-5.09919691085815">
        <ele>768</ele>
        <time>2019-05-11T11:38:40Z</time>
      </trkpt>
      <trkpt lat="36.7382278442383" lon="-5.09917497634888">
        <ele>768</ele>
        <time>2019-05-11T11:38:42Z</time>
      </trkpt>
      <trkpt lat="36.7382469177246" lon="-5.0991530418396">
        <ele>768</ele>
        <time>2019-05-11T11:38:44Z</time>
      </trkpt>
      <trkpt lat="36.7382774353027" lon="-5.09912014007568">
        <ele>768</ele>
        <time>2019-05-11T11:38:46Z</time>
      </trkpt>
      <trkpt lat="36.7382965087891" lon="-5.09910011291504">
        <ele>768</ele>
        <time>2019-05-11T11:38:48Z</time>
      </trkpt>
      <trkpt lat="36.7383117675781" lon="-5.09908294677734">
        <ele>768</ele>
        <time>2019-05-11T11:38:50Z</time>
      </trkpt>
      <trkpt lat="36.7383346557617" lon="-5.09906816482544">
        <ele>768</ele>
        <time>2019-05-11T11:38:52Z</time>
      </trkpt>
      <trkpt lat="36.738353729248" lon="-5.09905004501343">
        <ele>768</ele>
        <time>2019-05-11T11:38:54Z</time>
      </trkpt>
      <trkpt lat="36.7383728027344" lon="-5.09902811050415">
        <ele>768</ele>
        <time>2019-05-11T11:38:56Z</time>
      </trkpt>
      <trkpt lat="36.7383918762207" lon="-5.09901189804077">
        <ele>768</ele>
        <time>2019-05-11T11:38:58Z</time>
      </trkpt>
      <trkpt lat="36.7384147644043" lon="-5.09899187088013">
        <ele>768</ele>
        <time>2019-05-11T11:39:00Z</time>
      </trkpt>
      <trkpt lat="36.7384376525879" lon="-5.09896993637085">
        <ele>768</ele>
        <time>2019-05-11T11:39:02Z</time>
      </trkpt>
      <trkpt lat="36.7384643554688" lon="-5.0989499092102">
        <ele>768</ele>
        <time>2019-05-11T11:39:04Z</time>
      </trkpt>
      <trkpt lat="36.7384834289551" lon="-5.09892988204956">
        <ele>768</ele>
        <time>2019-05-11T11:39:06Z</time>
      </trkpt>
      <trkpt lat="36.7385063171387" lon="-5.09891176223755">
        <ele>768</ele>
        <time>2019-05-11T11:39:08Z</time>
      </trkpt>
      <trkpt lat="36.7385292053223" lon="-5.09889507293701">
        <ele>768</ele>
        <time>2019-05-11T11:39:10Z</time>
      </trkpt>
      <trkpt lat="36.7385482788086" lon="-5.09887504577637">
        <ele>768</ele>
        <time>2019-05-11T11:39:12Z</time>
      </trkpt>
      <trkpt lat="36.7385711669922" lon="-5.09885501861572">
        <ele>768</ele>
        <time>2019-05-11T11:39:14Z</time>
      </trkpt>
      <trkpt lat="36.7385902404785" lon="-5.09883499145508">
        <ele>769</ele>
        <time>2019-05-11T11:39:16Z</time>
      </trkpt>
      <trkpt lat="36.7386131286621" lon="-5.0988130569458">
        <ele>769</ele>
        <time>2019-05-11T11:39:18Z</time>
      </trkpt>
      <trkpt lat="36.7386322021484" lon="-5.09879302978516">
        <ele>769</ele>
        <time>2019-05-11T11:39:20Z</time>
      </trkpt>
      <trkpt lat="36.738655090332" lon="-5.09877014160156">
        <ele>770</ele>
        <time>2019-05-11T11:39:22Z</time>
      </trkpt>
      <trkpt lat="36.7386741638184" lon="-5.09874486923218">
        <ele>770</ele>
        <time>2019-05-11T11:39:24Z</time>
      </trkpt>
      <trkpt lat="36.7386894226074" lon="-5.09871816635132">
        <ele>771</ele>
        <time>2019-05-11T11:39:26Z</time>
      </trkpt>
      <trkpt lat="36.7387084960938" lon="-5.09869289398193">
        <ele>772</ele>
        <time>2019-05-11T11:39:29Z</time>
      </trkpt>
      <trkpt lat="36.7387237548828" lon="-5.09866714477539">
        <ele>772</ele>
        <time>2019-05-11T11:39:31Z</time>
      </trkpt>
      <trkpt lat="36.7387428283691" lon="-5.09863710403442">
        <ele>772</ele>
        <time>2019-05-11T11:39:33Z</time>
      </trkpt>
      <trkpt lat="36.7387619018555" lon="-5.09860801696777">
        <ele>772</ele>
        <time>2019-05-11T11:39:35Z</time>
      </trkpt>
      <trkpt lat="36.7387771606445" lon="-5.09858179092407">
        <ele>772</ele>
        <time>2019-05-11T11:39:37Z</time>
      </trkpt>
      <trkpt lat="36.7387962341309" lon="-5.09855508804321">
        <ele>772</ele>
        <time>2019-05-11T11:39:39Z</time>
      </trkpt>
      <trkpt lat="36.7388153076172" lon="-5.09852981567383">
        <ele>772</ele>
        <time>2019-05-11T11:39:41Z</time>
      </trkpt>
      <trkpt lat="36.7388343811035" lon="-5.09850215911865">
        <ele>772</ele>
        <time>2019-05-11T11:39:43Z</time>
      </trkpt>
      <trkpt lat="36.7388534545898" lon="-5.09847497940064">
        <ele>772</ele>
        <time>2019-05-11T11:39:45Z</time>
      </trkpt>
      <trkpt lat="36.7388610839844" lon="-5.09845018386841">
        <ele>772</ele>
        <time>2019-05-11T11:39:47Z</time>
      </trkpt>
      <trkpt lat="36.7388763427734" lon="-5.09842205047607">
        <ele>772</ele>
        <time>2019-05-11T11:39:49Z</time>
      </trkpt>
      <trkpt lat="36.7388954162598" lon="-5.09839200973511">
        <ele>772</ele>
        <time>2019-05-11T11:39:51Z</time>
      </trkpt>
      <trkpt lat="36.7389144897461" lon="-5.09836483001709">
        <ele>772</ele>
        <time>2019-05-11T11:39:53Z</time>
      </trkpt>
      <trkpt lat="36.7389335632324" lon="-5.09833812713623">
        <ele>772</ele>
        <time>2019-05-11T11:39:55Z</time>
      </trkpt>
      <trkpt lat="36.7389450073242" lon="-5.0983099937439">
        <ele>772</ele>
        <time>2019-05-11T11:39:57Z</time>
      </trkpt>
      <trkpt lat="36.7389602661133" lon="-5.09828186035156">
        <ele>772</ele>
        <time>2019-05-11T11:39:59Z</time>
      </trkpt>
      <trkpt lat="36.7389717102051" lon="-5.09824800491333">
        <ele>772</ele>
        <time>2019-05-11T11:40:01Z</time>
      </trkpt>
      <trkpt lat="36.7389831542969" lon="-5.09821701049805">
        <ele>772</ele>
        <time>2019-05-11T11:40:03Z</time>
      </trkpt>
      <trkpt lat="36.7389945983887" lon="-5.09818506240845">
        <ele>772</ele>
        <time>2019-05-11T11:40:05Z</time>
      </trkpt>
      <trkpt lat="36.7390060424805" lon="-5.09815502166748">
        <ele>772</ele>
        <time>2019-05-11T11:40:07Z</time>
      </trkpt>
      <trkpt lat="36.739013671875" lon="-5.09812307357788">
        <ele>772</ele>
        <time>2019-05-11T11:40:09Z</time>
      </trkpt>
      <trkpt lat="36.7390213012695" lon="-5.09809303283691">
        <ele>772</ele>
        <time>2019-05-11T11:40:11Z</time>
      </trkpt>
      <trkpt lat="36.7390251159668" lon="-5.098060131073">
        <ele>772</ele>
        <time>2019-05-11T11:40:13Z</time>
      </trkpt>
      <trkpt lat="36.7390365600586" lon="-5.0980281829834">
        <ele>772</ele>
        <time>2019-05-11T11:40:15Z</time>
      </trkpt>
      <trkpt lat="36.7390441894531" lon="-5.09799480438232">
        <ele>772</ele>
        <time>2019-05-11T11:40:17Z</time>
      </trkpt>
      <trkpt lat="36.7390518188477" lon="-5.09796190261841">
        <ele>772</ele>
        <time>2019-05-11T11:40:19Z</time>
      </trkpt>
      <trkpt lat="36.7390632629394" lon="-5.09792995452881">
        <ele>772</ele>
        <time>2019-05-11T11:40:21Z</time>
      </trkpt>
      <trkpt lat="36.739086151123" lon="-5.09790182113647">
        <ele>772</ele>
        <time>2019-05-11T11:40:23Z</time>
      </trkpt>
      <trkpt lat="36.7391128540039" lon="-5.09785985946655">
        <ele>772</ele>
        <time>2019-05-11T11:40:25Z</time>
      </trkpt>
      <trkpt lat="36.7391319274902" lon="-5.09783506393433">
        <ele>772</ele>
        <time>2019-05-11T11:40:27Z</time>
      </trkpt>
      <trkpt lat="36.7391586303711" lon="-5.09781980514526">
        <ele>772</ele>
        <time>2019-05-11T11:40:29Z</time>
      </trkpt>
      <trkpt lat="36.7391891479492" lon="-5.09781312942505">
        <ele>772</ele>
        <time>2019-05-11T11:40:31Z</time>
      </trkpt>
      <trkpt lat="36.7392196655273" lon="-5.09780502319336">
        <ele>772</ele>
        <time>2019-05-11T11:40:33Z</time>
      </trkpt>
      <trkpt lat="36.7392463684082" lon="-5.09780311584473">
        <ele>772</ele>
        <time>2019-05-11T11:40:35Z</time>
      </trkpt>
      <trkpt lat="36.7392730712891" lon="-5.09779977798462">
        <ele>772</ele>
        <time>2019-05-11T11:40:37Z</time>
      </trkpt>
      <trkpt lat="36.7392959594727" lon="-5.09779500961304">
        <ele>772</ele>
        <time>2019-05-11T11:40:39Z</time>
      </trkpt>
      <trkpt lat="36.7393226623535" lon="-5.09779500961304">
        <ele>772</ele>
        <time>2019-05-11T11:40:41Z</time>
      </trkpt>
      <trkpt lat="36.7393493652344" lon="-5.09779500961304">
        <ele>772</ele>
        <time>2019-05-11T11:40:43Z</time>
      </trkpt>
      <trkpt lat="36.739372253418" lon="-5.09779691696167">
        <ele>772</ele>
        <time>2019-05-11T11:40:45Z</time>
      </trkpt>
      <trkpt lat="36.7394027709961" lon="-5.09779500961304">
        <ele>772</ele>
        <time>2019-05-11T11:40:47Z</time>
      </trkpt>
      <trkpt lat="36.7394332885742" lon="-5.09779691696167">
        <ele>772</ele>
        <time>2019-05-11T11:40:49Z</time>
      </trkpt>
      <trkpt lat="36.7394599914551" lon="-5.09779787063599">
        <ele>772</ele>
        <time>2019-05-11T11:40:51Z</time>
      </trkpt>
      <trkpt lat="36.7394866943359" lon="-5.09780216217041">
        <ele>772</ele>
        <time>2019-05-11T11:40:53Z</time>
      </trkpt>
      <trkpt lat="36.7395095825195" lon="-5.09779977798462">
        <ele>772</ele>
        <time>2019-05-11T11:40:55Z</time>
      </trkpt>
      <trkpt lat="36.7395362854004" lon="-5.0977897644043">
        <ele>772</ele>
        <time>2019-05-11T11:40:57Z</time>
      </trkpt>
      <trkpt lat="36.739559173584" lon="-5.09777784347534">
        <ele>772</ele>
        <time>2019-05-11T11:40:59Z</time>
      </trkpt>
      <trkpt lat="36.7395820617676" lon="-5.09776306152344">
        <ele>773</ele>
        <time>2019-05-11T11:41:01Z</time>
      </trkpt>
      <trkpt lat="36.7396049499512" lon="-5.09774303436279">
        <ele>773</ele>
        <time>2019-05-11T11:41:04Z</time>
      </trkpt>
      <trkpt lat="36.7396202087402" lon="-5.09771490097046">
        <ele>774</ele>
        <time>2019-05-11T11:41:06Z</time>
      </trkpt>
      <trkpt lat="36.7396354675293" lon="-5.09768295288086">
        <ele>774</ele>
        <time>2019-05-11T11:41:08Z</time>
      </trkpt>
      <trkpt lat="36.7396507263184" lon="-5.09765195846558">
        <ele>774</ele>
        <time>2019-05-11T11:41:10Z</time>
      </trkpt>
      <trkpt lat="36.7396621704102" lon="-5.09762191772461">
        <ele>775</ele>
        <time>2019-05-11T11:41:12Z</time>
      </trkpt>
      <trkpt lat="36.7396774291992" lon="-5.09759187698364">
        <ele>775</ele>
        <time>2019-05-11T11:41:14Z</time>
      </trkpt>
      <trkpt lat="36.7396965026856" lon="-5.09756183624268">
        <ele>775</ele>
        <time>2019-05-11T11:41:16Z</time>
      </trkpt>
      <trkpt lat="36.7397117614746" lon="-5.09752988815308">
        <ele>775</ele>
        <time>2019-05-11T11:41:18Z</time>
      </trkpt>
      <trkpt lat="36.7397232055664" lon="-5.09749984741211">
        <ele>775</ele>
        <time>2019-05-11T11:41:20Z</time>
      </trkpt>
      <trkpt lat="36.7397384643555" lon="-5.09746503829956">
        <ele>775</ele>
        <time>2019-05-11T11:41:22Z</time>
      </trkpt>
      <trkpt lat="36.7397575378418" lon="-5.09743690490723">
        <ele>776</ele>
        <time>2019-05-11T11:41:24Z</time>
      </trkpt>
      <trkpt lat="36.7397766113281" lon="-5.09740495681763">
        <ele>776</ele>
        <time>2019-05-11T11:41:26Z</time>
      </trkpt>
      <trkpt lat="36.7397918701172" lon="-5.09737300872803">
        <ele>776</ele>
        <time>2019-05-11T11:41:28Z</time>
      </trkpt>
      <trkpt lat="36.7398109436035" lon="-5.09734296798706">
        <ele>776</ele>
        <time>2019-05-11T11:41:30Z</time>
      </trkpt>
      <trkpt lat="36.7398300170898" lon="-5.09731292724609">
        <ele>777</ele>
        <time>2019-05-11T11:41:32Z</time>
      </trkpt>
      <trkpt lat="36.7398452758789" lon="-5.09728193283081">
        <ele>777</ele>
        <time>2019-05-11T11:41:34Z</time>
      </trkpt>
      <trkpt lat="36.739860534668" lon="-5.09725189208984">
        <ele>777</ele>
        <time>2019-05-11T11:41:36Z</time>
      </trkpt>
      <trkpt lat="36.7398719787598" lon="-5.09721803665161">
        <ele>778</ele>
        <time>2019-05-11T11:41:38Z</time>
      </trkpt>
      <trkpt lat="36.7398872375488" lon="-5.09718704223633">
        <ele>778</ele>
        <time>2019-05-11T11:41:40Z</time>
      </trkpt>
      <trkpt lat="36.7399024963379" lon="-5.09715509414673">
        <ele>778</ele>
        <time>2019-05-11T11:41:42Z</time>
      </trkpt>
      <trkpt lat="36.739917755127" lon="-5.09712696075439">
        <ele>778</ele>
        <time>2019-05-11T11:41:44Z</time>
      </trkpt>
      <trkpt lat="36.739933013916" lon="-5.09709787368774">
        <ele>779</ele>
        <time>2019-05-11T11:41:46Z</time>
      </trkpt>
      <trkpt lat="36.7399444580078" lon="-5.09706687927246">
        <ele>779</ele>
        <time>2019-05-11T11:41:48Z</time>
      </trkpt>
      <trkpt lat="36.7399635314941" lon="-5.09703493118286">
        <ele>779</ele>
        <time>2019-05-11T11:41:50Z</time>
      </trkpt>
      <trkpt lat="36.7399787902832" lon="-5.09700489044189">
        <ele>779</ele>
        <time>2019-05-11T11:41:52Z</time>
      </trkpt>
      <trkpt lat="36.7399940490723" lon="-5.09697818756104">
        <ele>779</ele>
        <time>2019-05-11T11:41:54Z</time>
      </trkpt>
      <trkpt lat="36.7400131225586" lon="-5.0969500541687">
        <ele>780</ele>
        <time>2019-05-11T11:41:56Z</time>
      </trkpt>
      <trkpt lat="36.7400321960449" lon="-5.09692192077637">
        <ele>780</ele>
        <time>2019-05-11T11:41:58Z</time>
      </trkpt>
      <trkpt lat="36.7400588989258" lon="-5.09688282012939">
        <ele>780</ele>
        <time>2019-05-11T11:42:00Z</time>
      </trkpt>
      <trkpt lat="36.7400779724121" lon="-5.09685707092285">
        <ele>781</ele>
        <time>2019-05-11T11:42:02Z</time>
      </trkpt>
      <trkpt lat="36.7400932312012" lon="-5.09683179855347">
        <ele>781</ele>
        <time>2019-05-11T11:42:04Z</time>
      </trkpt>
      <trkpt lat="36.7401123046875" lon="-5.09680795669556">
        <ele>781</ele>
        <time>2019-05-11T11:42:06Z</time>
      </trkpt>
      <trkpt lat="36.7401313781738" lon="-5.09678316116333">
        <ele>782</ele>
        <time>2019-05-11T11:42:08Z</time>
      </trkpt>
      <trkpt lat="36.7401466369629" lon="-5.09675693511963">
        <ele>782</ele>
        <time>2019-05-11T11:42:10Z</time>
      </trkpt>
      <trkpt lat="36.7401657104492" lon="-5.0967321395874">
        <ele>782</ele>
        <time>2019-05-11T11:42:12Z</time>
      </trkpt>
      <trkpt lat="36.7401847839356" lon="-5.09670782089233">
        <ele>783</ele>
        <time>2019-05-11T11:42:14Z</time>
      </trkpt>
      <trkpt lat="36.7402038574219" lon="-5.09668207168579">
        <ele>783</ele>
        <time>2019-05-11T11:42:16Z</time>
      </trkpt>
      <trkpt lat="36.7402191162109" lon="-5.09665489196777">
        <ele>784</ele>
        <time>2019-05-11T11:42:18Z</time>
      </trkpt>
      <trkpt lat="36.7402381896973" lon="-5.09662818908691">
        <ele>784</ele>
        <time>2019-05-11T11:42:20Z</time>
      </trkpt>
      <trkpt lat="36.7402534484863" lon="-5.09660291671753">
        <ele>785</ele>
        <time>2019-05-11T11:42:22Z</time>
      </trkpt>
      <trkpt lat="36.7402725219727" lon="-5.09658002853394">
        <ele>785</ele>
        <time>2019-05-11T11:42:24Z</time>
      </trkpt>
      <trkpt lat="36.740291595459" lon="-5.09655809402466">
        <ele>786</ele>
        <time>2019-05-11T11:42:26Z</time>
      </trkpt>
      <trkpt lat="36.7403106689453" lon="-5.09653282165527">
        <ele>786</ele>
        <time>2019-05-11T11:42:28Z</time>
      </trkpt>
      <trkpt lat="36.7403259277344" lon="-5.09650802612305">
        <ele>787</ele>
        <time>2019-05-11T11:42:30Z</time>
      </trkpt>
      <trkpt lat="36.7403373718262" lon="-5.09648513793945">
        <ele>788</ele>
        <time>2019-05-11T11:42:32Z</time>
      </trkpt>
      <trkpt lat="36.7403526306152" lon="-5.09645986557007">
        <ele>788</ele>
        <time>2019-05-11T11:42:34Z</time>
      </trkpt>
      <trkpt lat="36.7403678894043" lon="-5.09643316268921">
        <ele>789</ele>
        <time>2019-05-11T11:42:37Z</time>
      </trkpt>
      <trkpt lat="36.7403793334961" lon="-5.09640502929688">
        <ele>789</ele>
        <time>2019-05-11T11:42:39Z</time>
      </trkpt>
      <trkpt lat="36.7403945922852" lon="-5.09638023376465">
        <ele>790</ele>
        <time>2019-05-11T11:42:41Z</time>
      </trkpt>
      <trkpt lat="36.7404098510742" lon="-5.0963568687439">
        <ele>790</ele>
        <time>2019-05-11T11:42:43Z</time>
      </trkpt>
      <trkpt lat="36.7404251098633" lon="-5.09633684158325">
        <ele>791</ele>
        <time>2019-05-11T11:42:45Z</time>
      </trkpt>
      <trkpt lat="36.7404441833496" lon="-5.09631776809692">
        <ele>791</ele>
        <time>2019-05-11T11:42:47Z</time>
      </trkpt>
      <trkpt lat="36.7404594421387" lon="-5.09630298614502">
        <ele>792</ele>
        <time>2019-05-11T11:42:49Z</time>
      </trkpt>
      <trkpt lat="36.7404747009277" lon="-5.09628677368164">
        <ele>792</ele>
        <time>2019-05-11T11:42:51Z</time>
      </trkpt>
      <trkpt lat="36.7404937744141" lon="-5.0962700843811">
        <ele>793</ele>
        <time>2019-05-11T11:42:53Z</time>
      </trkpt>
      <trkpt lat="36.7405090332031" lon="-5.09625482559204">
        <ele>793</ele>
        <time>2019-05-11T11:42:55Z</time>
      </trkpt>
      <trkpt lat="36.7405242919922" lon="-5.09624004364014">
        <ele>794</ele>
        <time>2019-05-11T11:42:57Z</time>
      </trkpt>
      <trkpt lat="36.7405433654785" lon="-5.09622812271118">
        <ele>794</ele>
        <time>2019-05-11T11:42:59Z</time>
      </trkpt>
      <trkpt lat="36.7405586242676" lon="-5.09621715545654">
        <ele>795</ele>
        <time>2019-05-11T11:43:01Z</time>
      </trkpt>
      <trkpt lat="36.7405776977539" lon="-5.09620809555054">
        <ele>796</ele>
        <time>2019-05-11T11:43:03Z</time>
      </trkpt>
      <trkpt lat="36.740592956543" lon="-5.09620523452759">
        <ele>796</ele>
        <time>2019-05-11T11:43:05Z</time>
      </trkpt>
      <trkpt lat="36.7406158447266" lon="-5.09620523452759">
        <ele>796</ele>
        <time>2019-05-11T11:43:07Z</time>
      </trkpt>
      <trkpt lat="36.7406387329102" lon="-5.0961971282959">
        <ele>797</ele>
        <time>2019-05-11T11:43:09Z</time>
      </trkpt>
      <trkpt lat="36.7406616210938" lon="-5.09618711471558">
        <ele>798</ele>
        <time>2019-05-11T11:43:11Z</time>
      </trkpt>
      <trkpt lat="36.7406845092773" lon="-5.09617519378662">
        <ele>798</ele>
        <time>2019-05-11T11:43:13Z</time>
      </trkpt>
      <trkpt lat="36.7407035827637" lon="-5.09615802764893">
        <ele>799</ele>
        <time>2019-05-11T11:43:15Z</time>
      </trkpt>
      <trkpt lat="36.7407264709473" lon="-5.09614515304565">
        <ele>799</ele>
        <time>2019-05-11T11:43:17Z</time>
      </trkpt>
      <trkpt lat="36.7407531738281" lon="-5.09613704681396">
        <ele>800</ele>
        <time>2019-05-11T11:43:19Z</time>
      </trkpt>
      <trkpt lat="36.740779876709" lon="-5.09612798690796">
        <ele>800</ele>
        <time>2019-05-11T11:43:21Z</time>
      </trkpt>
      <trkpt lat="36.7408027648926" lon="-5.0961217880249">
        <ele>801</ele>
        <time>2019-05-11T11:43:23Z</time>
      </trkpt>
      <trkpt lat="36.7408294677734" lon="-5.09611320495606">
        <ele>801</ele>
        <time>2019-05-11T11:43:25Z</time>
      </trkpt>
      <trkpt lat="36.740852355957" lon="-5.09610795974731">
        <ele>802</ele>
        <time>2019-05-11T11:43:27Z</time>
      </trkpt>
      <trkpt lat="36.7408752441406" lon="-5.09609985351562">
        <ele>802</ele>
        <time>2019-05-11T11:43:29Z</time>
      </trkpt>
      <trkpt lat="36.7409019470215" lon="-5.0960898399353">
        <ele>803</ele>
        <time>2019-05-11T11:43:31Z</time>
      </trkpt>
      <trkpt lat="36.7409286499023" lon="-5.09607982635498">
        <ele>803</ele>
        <time>2019-05-11T11:43:33Z</time>
      </trkpt>
      <trkpt lat="36.7409591674805" lon="-5.09606504440308">
        <ele>804</ele>
        <time>2019-05-11T11:43:35Z</time>
      </trkpt>
      <trkpt lat="36.7409820556641" lon="-5.09605312347412">
        <ele>804</ele>
        <time>2019-05-11T11:43:37Z</time>
      </trkpt>
      <trkpt lat="36.7410011291504" lon="-5.09603977203369">
        <ele>805</ele>
        <time>2019-05-11T11:43:39Z</time>
      </trkpt>
      <trkpt lat="36.741024017334" lon="-5.09602689743042">
        <ele>805</ele>
        <time>2019-05-11T11:43:41Z</time>
      </trkpt>
      <trkpt lat="36.7410469055176" lon="-5.09601497650146">
        <ele>806</ele>
        <time>2019-05-11T11:43:43Z</time>
      </trkpt>
      <trkpt lat="36.7410697937012" lon="-5.09600019454956">
        <ele>806</ele>
        <time>2019-05-11T11:43:45Z</time>
      </trkpt>
      <trkpt lat="36.7410888671875" lon="-5.09598779678345">
        <ele>807</ele>
        <time>2019-05-11T11:43:47Z</time>
      </trkpt>
      <trkpt lat="36.7411117553711" lon="-5.09597778320312">
        <ele>807</ele>
        <time>2019-05-11T11:43:49Z</time>
      </trkpt>
      <trkpt lat="36.7411346435547" lon="-5.09597015380859">
        <ele>808</ele>
        <time>2019-05-11T11:43:51Z</time>
      </trkpt>
      <trkpt lat="36.741153717041" lon="-5.0959620475769">
        <ele>808</ele>
        <time>2019-05-11T11:43:53Z</time>
      </trkpt>
      <trkpt lat="36.7411766052246" lon="-5.09595489501953">
        <ele>809</ele>
        <time>2019-05-11T11:43:55Z</time>
      </trkpt>
      <trkpt lat="36.7411956787109" lon="-5.09594821929932">
        <ele>809</ele>
        <time>2019-05-11T11:43:57Z</time>
      </trkpt>
      <trkpt lat="36.7412185668945" lon="-5.09594297409058">
        <ele>809</ele>
        <time>2019-05-11T11:43:59Z</time>
      </trkpt>
      <trkpt lat="36.7412376403809" lon="-5.09593677520752">
        <ele>809</ele>
        <time>2019-05-11T11:44:01Z</time>
      </trkpt>
      <trkpt lat="36.7412605285644" lon="-5.09593200683594">
        <ele>810</ele>
        <time>2019-05-11T11:44:03Z</time>
      </trkpt>
      <trkpt lat="36.741283416748" lon="-5.09592485427856">
        <ele>810</ele>
        <time>2019-05-11T11:44:05Z</time>
      </trkpt>
      <trkpt lat="36.7413063049316" lon="-5.09592008590698">
        <ele>810</ele>
        <time>2019-05-11T11:44:07Z</time>
      </trkpt>
      <trkpt lat="36.7413291931152" lon="-5.09591722488403">
        <ele>810</ele>
        <time>2019-05-11T11:44:09Z</time>
      </trkpt>
      <trkpt lat="36.7413482666016" lon="-5.09591484069824">
        <ele>811</ele>
        <time>2019-05-11T11:44:11Z</time>
      </trkpt>
      <trkpt lat="36.7413711547852" lon="-5.09591197967529">
        <ele>811</ele>
        <time>2019-05-11T11:44:14Z</time>
      </trkpt>
      <trkpt lat="36.741397857666" lon="-5.09590721130371">
        <ele>811</ele>
        <time>2019-05-11T11:44:16Z</time>
      </trkpt>
      <trkpt lat="36.7414207458496" lon="-5.09590721130371">
        <ele>811</ele>
        <time>2019-05-11T11:44:18Z</time>
      </trkpt>
      <trkpt lat="36.7414436340332" lon="-5.09590721130371">
        <ele>812</ele>
        <time>2019-05-11T11:44:20Z</time>
      </trkpt>
      <trkpt lat="36.7414665222168" lon="-5.09590721130371">
        <ele>812</ele>
        <time>2019-05-11T11:44:22Z</time>
      </trkpt>
      <trkpt lat="36.7414932250977" lon="-5.09590721130371">
        <ele>812</ele>
        <time>2019-05-11T11:44:24Z</time>
      </trkpt>
      <trkpt lat="36.7415161132812" lon="-5.09590196609497">
        <ele>812</ele>
        <time>2019-05-11T11:44:26Z</time>
      </trkpt>
      <trkpt lat="36.7415313720703" lon="-5.09590482711792">
        <ele>812</ele>
        <time>2019-05-11T11:44:28Z</time>
      </trkpt>
      <trkpt lat="36.7415351867676" lon="-5.09590721130371">
        <ele>812</ele>
        <time>2019-05-11T11:44:30Z</time>
      </trkpt>
      <trkpt lat="36.7415313720703" lon="-5.09590721130371">
        <ele>813</ele>
        <time>2019-05-11T11:44:32Z</time>
      </trkpt>
      <trkpt lat="36.7415313720703" lon="-5.09590721130371">
        <ele>813</ele>
        <time>2019-05-11T11:44:34Z</time>
      </trkpt>
      <trkpt lat="36.7415390014648" lon="-5.09590482711792">
        <ele>813</ele>
        <time>2019-05-11T11:44:36Z</time>
      </trkpt>
      <trkpt lat="36.7415542602539" lon="-5.09590291976929">
        <ele>813</ele>
        <time>2019-05-11T11:44:38Z</time>
      </trkpt>
      <trkpt lat="36.7415771484375" lon="-5.09590482711792">
        <ele>813</ele>
        <time>2019-05-11T11:44:40Z</time>
      </trkpt>
      <trkpt lat="36.7416038513184" lon="-5.09590721130371">
        <ele>813</ele>
        <time>2019-05-11T11:44:42Z</time>
      </trkpt>
      <trkpt lat="36.741626739502" lon="-5.09590721130371">
        <ele>813</ele>
        <time>2019-05-11T11:44:44Z</time>
      </trkpt>
      <trkpt lat="36.7416496276856" lon="-5.09590482711792">
        <ele>813</ele>
        <time>2019-05-11T11:44:46Z</time>
      </trkpt>
      <trkpt lat="36.7416725158691" lon="-5.09590482711792">
        <ele>813</ele>
        <time>2019-05-11T11:44:48Z</time>
      </trkpt>
      <trkpt lat="36.7416954040527" lon="-5.09590291976929">
        <ele>813</ele>
        <time>2019-05-11T11:44:50Z</time>
      </trkpt>
      <trkpt lat="36.7417221069336" lon="-5.09590291976929">
        <ele>814</ele>
        <time>2019-05-11T11:44:52Z</time>
      </trkpt>
      <trkpt lat="36.7417488098144" lon="-5.09590005874634">
        <ele>814</ele>
        <time>2019-05-11T11:44:54Z</time>
      </trkpt>
      <trkpt lat="36.7417755126953" lon="-5.09590005874634">
        <ele>814</ele>
        <time>2019-05-11T11:44:56Z</time>
      </trkpt>
      <trkpt lat="36.7417984008789" lon="-5.09590005874634">
        <ele>814</ele>
        <time>2019-05-11T11:44:58Z</time>
      </trkpt>
      <trkpt lat="36.7418251037598" lon="-5.0958981513977">
        <ele>814</ele>
        <time>2019-05-11T11:45:00Z</time>
      </trkpt>
      <trkpt lat="36.7418518066406" lon="-5.09590196609497">
        <ele>814</ele>
        <time>2019-05-11T11:45:02Z</time>
      </trkpt>
      <trkpt lat="36.7418785095215" lon="-5.09590196609497">
        <ele>814</ele>
        <time>2019-05-11T11:45:04Z</time>
      </trkpt>
      <trkpt lat="36.7419013977051" lon="-5.09590482711792">
        <ele>815</ele>
        <time>2019-05-11T11:45:06Z</time>
      </trkpt>
      <trkpt lat="36.7419281005859" lon="-5.09591197967529">
        <ele>815</ele>
        <time>2019-05-11T11:45:08Z</time>
      </trkpt>
      <trkpt lat="36.7419471740723" lon="-5.09592008590698">
        <ele>815</ele>
        <time>2019-05-11T11:45:10Z</time>
      </trkpt>
      <trkpt lat="36.7419662475586" lon="-5.0959300994873">
        <ele>815</ele>
        <time>2019-05-11T11:45:12Z</time>
      </trkpt>
      <trkpt lat="36.7419891357422" lon="-5.09594202041626">
        <ele>815</ele>
        <time>2019-05-11T11:45:14Z</time>
      </trkpt>
      <trkpt lat="36.7420082092285" lon="-5.09595823287964">
        <ele>816</ele>
        <time>2019-05-11T11:45:16Z</time>
      </trkpt>
      <trkpt lat="36.7420234680176" lon="-5.09597492218018">
        <ele>816</ele>
        <time>2019-05-11T11:45:18Z</time>
      </trkpt>
      <trkpt lat="36.7420387268066" lon="-5.09599494934082">
        <ele>816</ele>
        <time>2019-05-11T11:45:20Z</time>
      </trkpt>
      <trkpt lat="36.7420501708984" lon="-5.0960168838501">
        <ele>816</ele>
        <time>2019-05-11T11:45:22Z</time>
      </trkpt>
      <trkpt lat="36.7420616149902" lon="-5.09603977203369">
        <ele>816</ele>
        <time>2019-05-11T11:45:24Z</time>
      </trkpt>
      <trkpt lat="36.7420692443848" lon="-5.09606695175171">
        <ele>816</ele>
        <time>2019-05-11T11:45:26Z</time>
      </trkpt>
      <trkpt lat="36.742073059082" lon="-5.09609794616699">
        <ele>817</ele>
        <time>2019-05-11T11:45:28Z</time>
      </trkpt>
      <trkpt lat="36.742073059082" lon="-5.09612798690796">
        <ele>817</ele>
        <time>2019-05-11T11:45:30Z</time>
      </trkpt>
      <trkpt lat="36.742073059082" lon="-5.09615802764893">
        <ele>818</ele>
        <time>2019-05-11T11:45:32Z</time>
      </trkpt>
      <trkpt lat="36.7420692443848" lon="-5.09618806838989">
        <ele>818</ele>
        <time>2019-05-11T11:45:34Z</time>
      </trkpt>
      <trkpt lat="36.7420616149902" lon="-5.09621810913086">
        <ele>818</ele>
        <time>2019-05-11T11:45:36Z</time>
      </trkpt>
      <trkpt lat="36.742057800293" lon="-5.09624719619751">
        <ele>818</ele>
        <time>2019-05-11T11:45:38Z</time>
      </trkpt>
      <trkpt lat="36.7420539855957" lon="-5.09627723693848">
        <ele>818</ele>
        <time>2019-05-11T11:45:40Z</time>
      </trkpt>
      <trkpt lat="36.7420463562012" lon="-5.09630489349365">
        <ele>818</ele>
        <time>2019-05-11T11:45:42Z</time>
      </trkpt>
      <trkpt lat="36.7420272827148" lon="-5.09634494781494">
        <ele>818</ele>
        <time>2019-05-11T11:45:44Z</time>
      </trkpt>
      <trkpt lat="36.742015838623" lon="-5.09637022018433">
        <ele>818</ele>
        <time>2019-05-11T11:45:46Z</time>
      </trkpt>
      <trkpt lat="36.7420043945312" lon="-5.09638214111328">
        <ele>818</ele>
        <time>2019-05-11T11:45:48Z</time>
      </trkpt>
      <trkpt lat="36.7419891357422" lon="-5.09638690948486">
        <ele>818</ele>
        <time>2019-05-11T11:45:50Z</time>
      </trkpt>
      <trkpt lat="36.7419662475586" lon="-5.09638977050781">
        <ele>818</ele>
        <time>2019-05-11T11:45:52Z</time>
      </trkpt>
      <trkpt lat="36.7419471740723" lon="-5.09638786315918">
        <ele>818</ele>
        <time>2019-05-11T11:45:54Z</time>
      </trkpt>
      <trkpt lat="36.7419281005859" lon="-5.0963830947876">
        <ele>818</ele>
        <time>2019-05-11T11:45:56Z</time>
      </trkpt>
      <trkpt lat="36.7419013977051" lon="-5.09638023376465">
        <ele>818</ele>
        <time>2019-05-11T11:45:58Z</time>
      </trkpt>
      <trkpt lat="36.7418785095215" lon="-5.09637212753296">
        <ele>818</ele>
        <time>2019-05-11T11:46:00Z</time>
      </trkpt>
      <trkpt lat="36.7418632507324" lon="-5.09636306762695">
        <ele>818</ele>
        <time>2019-05-11T11:46:02Z</time>
      </trkpt>
      <trkpt lat="36.7418403625488" lon="-5.09635305404663">
        <ele>818</ele>
        <time>2019-05-11T11:46:04Z</time>
      </trkpt>
      <trkpt lat="36.7418212890625" lon="-5.09634304046631">
        <ele>818</ele>
        <time>2019-05-11T11:46:06Z</time>
      </trkpt>
      <trkpt lat="36.7417984008789" lon="-5.09633779525757">
        <ele>818</ele>
        <time>2019-05-11T11:46:08Z</time>
      </trkpt>
      <trkpt lat="36.7417793273926" lon="-5.09633207321167">
        <ele>818</ele>
        <time>2019-05-11T11:46:10Z</time>
      </trkpt>
      <trkpt lat="36.7417678833008" lon="-5.09632778167725">
        <ele>818</ele>
        <time>2019-05-11T11:46:12Z</time>
      </trkpt>
      <trkpt lat="36.741756439209" lon="-5.09632682800293">
        <ele>818</ele>
        <time>2019-05-11T11:46:14Z</time>
      </trkpt>
      <trkpt lat="36.741756439209" lon="-5.09632682800293">
        <ele>818</ele>
        <time>2019-05-11T11:46:16Z</time>
      </trkpt>
      <trkpt lat="36.741756439209" lon="-5.09633016586304">
        <ele>818</ele>
        <time>2019-05-11T11:46:19Z</time>
      </trkpt>
      <trkpt lat="36.741756439209" lon="-5.09632682800293">
        <ele>818</ele>
        <time>2019-05-11T11:46:21Z</time>
      </trkpt>
      <trkpt lat="36.7417602539062" lon="-5.09633016586304">
        <ele>818</ele>
        <time>2019-05-11T11:46:23Z</time>
      </trkpt>
      <trkpt lat="36.741756439209" lon="-5.09633207321167">
        <ele>818</ele>
        <time>2019-05-11T11:46:25Z</time>
      </trkpt>
      <trkpt lat="36.741756439209" lon="-5.09633016586304">
        <ele>818</ele>
        <time>2019-05-11T11:46:27Z</time>
      </trkpt>
      <trkpt lat="36.7417640686035" lon="-5.09633684158325">
        <ele>818</ele>
        <time>2019-05-11T11:46:29Z</time>
      </trkpt>
      <trkpt lat="36.7417640686035" lon="-5.09634208679199">
        <ele>818</ele>
        <time>2019-05-11T11:46:31Z</time>
      </trkpt>
      <trkpt lat="36.7417488098144" lon="-5.09635019302368">
        <ele>818</ele>
        <time>2019-05-11T11:46:33Z</time>
      </trkpt>
      <trkpt lat="36.7417335510254" lon="-5.09635305404663">
        <ele>818</ele>
        <time>2019-05-11T11:46:35Z</time>
      </trkpt>
      <trkpt lat="36.7417259216309" lon="-5.09634780883789">
        <ele>818</ele>
        <time>2019-05-11T11:46:37Z</time>
      </trkpt>
      <trkpt lat="36.7417182922363" lon="-5.09635019302368">
        <ele>818</ele>
        <time>2019-05-11T11:46:39Z</time>
      </trkpt>
      <trkpt lat="36.7417182922363" lon="-5.09634780883789">
        <ele>818</ele>
        <time>2019-05-11T11:46:41Z</time>
      </trkpt>
      <trkpt lat="36.7417182922363" lon="-5.09634780883789">
        <ele>818</ele>
        <time>2019-05-11T11:46:43Z</time>
      </trkpt>
      <trkpt lat="36.7417106628418" lon="-5.09635210037231">
        <ele>818</ele>
        <time>2019-05-11T11:46:45Z</time>
      </trkpt>
      <trkpt lat="36.7417030334473" lon="-5.09635019302368">
        <ele>818</ele>
        <time>2019-05-11T11:46:47Z</time>
      </trkpt>
      <trkpt lat="36.7417030334473" lon="-5.09634685516357">
        <ele>818</ele>
        <time>2019-05-11T11:46:49Z</time>
      </trkpt>
      <trkpt lat="36.7417068481445" lon="-5.09634304046631">
        <ele>818</ele>
        <time>2019-05-11T11:46:51Z</time>
      </trkpt>
      <trkpt lat="36.7417106628418" lon="-5.09634208679199">
        <ele>818</ele>
        <time>2019-05-11T11:46:53Z</time>
      </trkpt>
      <trkpt lat="36.7417221069336" lon="-5.09634208679199">
        <ele>818</ele>
        <time>2019-05-11T11:46:55Z</time>
      </trkpt>
      <trkpt lat="36.7417259216309" lon="-5.09633684158325">
        <ele>818</ele>
        <time>2019-05-11T11:46:57Z</time>
      </trkpt>
      <trkpt lat="36.7417259216309" lon="-5.09633207321167">
        <ele>818</ele>
        <time>2019-05-11T11:46:59Z</time>
      </trkpt>
      <trkpt lat="36.7417259216309" lon="-5.09633016586304">
        <ele>818</ele>
        <time>2019-05-11T11:47:01Z</time>
      </trkpt>
      <trkpt lat="36.7417259216309" lon="-5.09633016586304">
        <ele>818</ele>
        <time>2019-05-11T11:47:03Z</time>
      </trkpt>
      <trkpt lat="36.7417259216309" lon="-5.09633016586304">
        <ele>818</ele>
        <time>2019-05-11T11:47:05Z</time>
      </trkpt>
      <trkpt lat="36.7417297363281" lon="-5.09632682800293">
        <ele>818</ele>
        <time>2019-05-11T11:47:07Z</time>
      </trkpt>
      <trkpt lat="36.7417335510254" lon="-5.09632682800293">
        <ele>818</ele>
        <time>2019-05-11T11:47:09Z</time>
      </trkpt>
      <trkpt lat="36.7417335510254" lon="-5.09632301330566">
        <ele>818</ele>
        <time>2019-05-11T11:47:11Z</time>
      </trkpt>
      <trkpt lat="36.7417373657227" lon="-5.09631490707397">
        <ele>818</ele>
        <time>2019-05-11T11:47:13Z</time>
      </trkpt>
      <trkpt lat="36.7417373657227" lon="-5.09631204605103">
        <ele>818</ele>
        <time>2019-05-11T11:47:15Z</time>
      </trkpt>
      <trkpt lat="36.7417411804199" lon="-5.09631013870239">
        <ele>818</ele>
        <time>2019-05-11T11:47:17Z</time>
      </trkpt>
      <trkpt lat="36.7417411804199" lon="-5.09630680084228">
        <ele>818</ele>
        <time>2019-05-11T11:47:19Z</time>
      </trkpt>
      <trkpt lat="36.7417488098144" lon="-5.09630680084228">
        <ele>818</ele>
        <time>2019-05-11T11:47:21Z</time>
      </trkpt>
      <trkpt lat="36.7417526245117" lon="-5.09630823135376">
        <ele>818</ele>
        <time>2019-05-11T11:47:23Z</time>
      </trkpt>
      <trkpt lat="36.7417640686035" lon="-5.09630823135376">
        <ele>818</ele>
        <time>2019-05-11T11:47:25Z</time>
      </trkpt>
      <trkpt lat="36.7417678833008" lon="-5.09630489349365">
        <ele>818</ele>
        <time>2019-05-11T11:47:27Z</time>
      </trkpt>
      <trkpt lat="36.741771697998" lon="-5.09630012512207">
        <ele>818</ele>
        <time>2019-05-11T11:47:29Z</time>
      </trkpt>
      <trkpt lat="36.741771697998" lon="-5.0962929725647">
        <ele>818</ele>
        <time>2019-05-11T11:47:31Z</time>
      </trkpt>
      <trkpt lat="36.7417678833008" lon="-5.09629011154175">
        <ele>818</ele>
        <time>2019-05-11T11:47:33Z</time>
      </trkpt>
      <trkpt lat="36.7417678833008" lon="-5.09629011154175">
        <ele>818</ele>
        <time>2019-05-11T11:47:35Z</time>
      </trkpt>
      <trkpt lat="36.7417640686035" lon="-5.09628677368164">
        <ele>818</ele>
        <time>2019-05-11T11:47:37Z</time>
      </trkpt>
      <trkpt lat="36.7417602539062" lon="-5.09628677368164">
        <ele>818</ele>
        <time>2019-05-11T11:47:39Z</time>
      </trkpt>
      <trkpt lat="36.741756439209" lon="-5.09628486633301">
        <ele>818</ele>
        <time>2019-05-11T11:47:41Z</time>
      </trkpt>
      <trkpt lat="36.7417526245117" lon="-5.09628486633301">
        <ele>818</ele>
        <time>2019-05-11T11:47:43Z</time>
      </trkpt>
      <trkpt lat="36.7417488098144" lon="-5.09628200531006">
        <ele>818</ele>
        <time>2019-05-11T11:47:45Z</time>
      </trkpt>
      <trkpt lat="36.7417488098144" lon="-5.09628486633301">
        <ele>818</ele>
        <time>2019-05-11T11:47:47Z</time>
      </trkpt>
      <trkpt lat="36.7417449951172" lon="-5.09629011154175">
        <ele>818</ele>
        <time>2019-05-11T11:47:49Z</time>
      </trkpt>
      <trkpt lat="36.7417411804199" lon="-5.09629821777344">
        <ele>818</ele>
        <time>2019-05-11T11:47:51Z</time>
      </trkpt>
      <trkpt lat="36.7417411804199" lon="-5.09630012512207">
        <ele>818</ele>
        <time>2019-05-11T11:47:53Z</time>
      </trkpt>
      <trkpt lat="36.7417373657227" lon="-5.09629678726196">
        <ele>818</ele>
        <time>2019-05-11T11:47:55Z</time>
      </trkpt>
      <trkpt lat="36.7417335510254" lon="-5.09629487991333">
        <ele>818</ele>
        <time>2019-05-11T11:47:57Z</time>
      </trkpt>
      <trkpt lat="36.7417297363281" lon="-5.09629011154175">
        <ele>818</ele>
        <time>2019-05-11T11:47:59Z</time>
      </trkpt>
      <trkpt lat="36.7417259216309" lon="-5.09628677368164">
        <ele>818</ele>
        <time>2019-05-11T11:48:01Z</time>
      </trkpt>
      <trkpt lat="36.7417259216309" lon="-5.09628486633301">
        <ele>818</ele>
        <time>2019-05-11T11:48:03Z</time>
      </trkpt>
      <trkpt lat="36.7417297363281" lon="-5.09627723693848">
        <ele>818</ele>
        <time>2019-05-11T11:48:05Z</time>
      </trkpt>
      <trkpt lat="36.7417259216309" lon="-5.09627723693848">
        <ele>816</ele>
        <time>2019-05-11T11:48:07Z</time>
      </trkpt>
      <trkpt lat="36.7417335510254" lon="-5.09627723693848">
        <ele>816</ele>
        <time>2019-05-11T11:48:11Z</time>
      </trkpt>
      <trkpt lat="36.7417411804199" lon="-5.09627723693848">
        <ele>816</ele>
        <time>2019-05-11T11:48:13Z</time>
      </trkpt>
      <trkpt lat="36.7417449951172" lon="-5.09628200531006">
        <ele>816</ele>
        <time>2019-05-11T11:48:15Z</time>
      </trkpt>
      <trkpt lat="36.7417488098144" lon="-5.09628295898438">
        <ele>816</ele>
        <time>2019-05-11T11:48:17Z</time>
      </trkpt>
      <trkpt lat="36.741771697998" lon="-5.09629201889038">
        <ele>816</ele>
        <time>2019-05-11T11:48:23Z</time>
      </trkpt>
      <trkpt lat="36.7417755126953" lon="-5.09629201889038">
        <ele>816</ele>
        <time>2019-05-11T11:48:25Z</time>
      </trkpt>
      <trkpt lat="36.741771697998" lon="-5.09629201889038">
        <ele>816</ele>
        <time>2019-05-11T11:48:27Z</time>
      </trkpt>
      <trkpt lat="36.741771697998" lon="-5.09629011154175">
        <ele>816</ele>
        <time>2019-05-11T11:48:29Z</time>
      </trkpt>
      <trkpt lat="36.7417755126953" lon="-5.09629201889038">
        <ele>816</ele>
        <time>2019-05-11T11:48:31Z</time>
      </trkpt>
      <trkpt lat="36.7417678833008" lon="-5.09630012512207">
        <ele>816</ele>
        <time>2019-05-11T11:48:33Z</time>
      </trkpt>
      <trkpt lat="36.7417755126953" lon="-5.09630489349365">
        <ele>816</ele>
        <time>2019-05-11T11:48:37Z</time>
      </trkpt>
      <trkpt lat="36.7417678833008" lon="-5.09630680084228">
        <ele>819</ele>
        <time>2019-05-11T11:48:41Z</time>
      </trkpt>
      <trkpt lat="36.7417640686035" lon="-5.09630298614502">
        <ele>819</ele>
        <time>2019-05-11T11:48:43Z</time>
      </trkpt>
      <trkpt lat="36.7417602539062" lon="-5.0963020324707">
        <ele>820</ele>
        <time>2019-05-11T11:48:45Z</time>
      </trkpt>
      <trkpt lat="36.7417602539062" lon="-5.0962929725647">
        <ele>820</ele>
        <time>2019-05-11T11:48:47Z</time>
      </trkpt>
      <trkpt lat="36.7417640686035" lon="-5.09628820419312">
        <ele>820</ele>
        <time>2019-05-11T11:48:51Z</time>
      </trkpt>
      <trkpt lat="36.741756439209" lon="-5.09628295898438">
        <ele>820</ele>
        <time>2019-05-11T11:48:53Z</time>
      </trkpt>
      <trkpt lat="36.7417373657227" lon="-5.09628295898438">
        <ele>820</ele>
        <time>2019-05-11T11:48:57Z</time>
      </trkpt>
      <trkpt lat="36.7417335510254" lon="-5.09628009796143">
        <ele>820</ele>
        <time>2019-05-11T11:48:59Z</time>
      </trkpt>
      <trkpt lat="36.7417335510254" lon="-5.09628009796143">
        <ele>820</ele>
        <time>2019-05-11T11:49:01Z</time>
      </trkpt>
      <trkpt lat="36.7417335510254" lon="-5.09628200531006">
        <ele>820</ele>
        <time>2019-05-11T11:49:03Z</time>
      </trkpt>
      <trkpt lat="36.7417335510254" lon="-5.09627819061279">
        <ele>820</ele>
        <time>2019-05-11T11:49:05Z</time>
      </trkpt>
      <trkpt lat="36.7417373657227" lon="-5.09627819061279">
        <ele>820</ele>
        <time>2019-05-11T11:49:07Z</time>
      </trkpt>
      <trkpt lat="36.7417373657227" lon="-5.09628295898438">
        <ele>820</ele>
        <time>2019-05-11T11:49:09Z</time>
      </trkpt>
      <trkpt lat="36.7417373657227" lon="-5.09628009796143">
        <ele>820</ele>
        <time>2019-05-11T11:49:11Z</time>
      </trkpt>
      <trkpt lat="36.7417411804199" lon="-5.09627819061279">
        <ele>820</ele>
        <time>2019-05-11T11:49:13Z</time>
      </trkpt>
      <trkpt lat="36.7417335510254" lon="-5.09626007080078">
        <ele>820</ele>
        <time>2019-05-11T11:49:15Z</time>
      </trkpt>
      <trkpt lat="36.7417335510254" lon="-5.09625482559204">
        <ele>820</ele>
        <time>2019-05-11T11:49:17Z</time>
      </trkpt>
      <trkpt lat="36.7417259216309" lon="-5.09625816345215">
        <ele>818</ele>
        <time>2019-05-11T11:49:19Z</time>
      </trkpt>
      <trkpt lat="36.7417335510254" lon="-5.09625291824341">
        <ele>818</ele>
        <time>2019-05-11T11:49:21Z</time>
      </trkpt>
      <trkpt lat="36.7417411804199" lon="-5.09627199172974">
        <ele>818</ele>
        <time>2019-05-11T11:49:29Z</time>
      </trkpt>
      <trkpt lat="36.7417411804199" lon="-5.09628009796143">
        <ele>818</ele>
        <time>2019-05-11T11:49:31Z</time>
      </trkpt>
      <trkpt lat="36.7417259216309" lon="-5.09627819061279">
        <ele>818</ele>
        <time>2019-05-11T11:49:36Z</time>
      </trkpt>
      <trkpt lat="36.7417221069336" lon="-5.09627294540405">
        <ele>818</ele>
        <time>2019-05-11T11:49:38Z</time>
      </trkpt>
      <trkpt lat="36.7417182922363" lon="-5.09627485275269">
        <ele>818</ele>
        <time>2019-05-11T11:49:40Z</time>
      </trkpt>
      <trkpt lat="36.7417182922363" lon="-5.09627294540405">
        <ele>818</ele>
        <time>2019-05-11T11:49:42Z</time>
      </trkpt>
      <trkpt lat="36.7417182922363" lon="-5.09627723693848">
        <ele>818</ele>
        <time>2019-05-11T11:49:44Z</time>
      </trkpt>
      <trkpt lat="36.7417221069336" lon="-5.09628200531006">
        <ele>818</ele>
        <time>2019-05-11T11:49:46Z</time>
      </trkpt>
      <trkpt lat="36.7417221069336" lon="-5.09628486633301">
        <ele>818</ele>
        <time>2019-05-11T11:49:48Z</time>
      </trkpt>
      <trkpt lat="36.7417221069336" lon="-5.09628486633301">
        <ele>818</ele>
        <time>2019-05-11T11:49:50Z</time>
      </trkpt>
      <trkpt lat="36.7417259216309" lon="-5.09629201889038">
        <ele>818</ele>
        <time>2019-05-11T11:49:52Z</time>
      </trkpt>
      <trkpt lat="36.7417259216309" lon="-5.09629678726196">
        <ele>818</ele>
        <time>2019-05-11T11:49:54Z</time>
      </trkpt>
      <trkpt lat="36.7417259216309" lon="-5.09629821777344">
        <ele>818</ele>
        <time>2019-05-11T11:49:56Z</time>
      </trkpt>
      <trkpt lat="36.7417297363281" lon="-5.09630012512207">
        <ele>818</ele>
        <time>2019-05-11T11:49:58Z</time>
      </trkpt>
      <trkpt lat="36.7417297363281" lon="-5.09629678726196">
        <ele>818</ele>
        <time>2019-05-11T11:50:00Z</time>
      </trkpt>
      <trkpt lat="36.7417335510254" lon="-5.09629487991333">
        <ele>818</ele>
        <time>2019-05-11T11:50:02Z</time>
      </trkpt>
      <trkpt lat="36.7417335510254" lon="-5.09629821777344">
        <ele>818</ele>
        <time>2019-05-11T11:50:04Z</time>
      </trkpt>
      <trkpt lat="36.7417335510254" lon="-5.0963020324707">
        <ele>818</ele>
        <time>2019-05-11T11:50:06Z</time>
      </trkpt>
      <trkpt lat="36.7417335510254" lon="-5.09630680084228">
        <ele>818</ele>
        <time>2019-05-11T11:50:08Z</time>
      </trkpt>
      <trkpt lat="36.7417335510254" lon="-5.09630489349365">
        <ele>818</ele>
        <time>2019-05-11T11:50:10Z</time>
      </trkpt>
      <trkpt lat="36.7417335510254" lon="-5.09630680084228">
        <ele>818</ele>
        <time>2019-05-11T11:50:12Z</time>
      </trkpt>
      <trkpt lat="36.7417373657227" lon="-5.09631013870239">
        <ele>818</ele>
        <time>2019-05-11T11:50:14Z</time>
      </trkpt>
      <trkpt lat="36.7417373657227" lon="-5.09631204605103">
        <ele>818</ele>
        <time>2019-05-11T11:50:16Z</time>
      </trkpt>
      <trkpt lat="36.7417373657227" lon="-5.09631299972534">
        <ele>818</ele>
        <time>2019-05-11T11:50:18Z</time>
      </trkpt>
      <trkpt lat="36.7417411804199" lon="-5.09631681442261">
        <ele>818</ele>
        <time>2019-05-11T11:50:20Z</time>
      </trkpt>
      <trkpt lat="36.7417411804199" lon="-5.09632015228272">
        <ele>818</ele>
        <time>2019-05-11T11:50:22Z</time>
      </trkpt>
      <trkpt lat="36.7417449951172" lon="-5.09632205963135">
        <ele>818</ele>
        <time>2019-05-11T11:50:24Z</time>
      </trkpt>
      <trkpt lat="36.7417411804199" lon="-5.09632301330566">
        <ele>818</ele>
        <time>2019-05-11T11:50:26Z</time>
      </trkpt>
      <trkpt lat="36.7417411804199" lon="-5.09632205963135">
        <ele>818</ele>
        <time>2019-05-11T11:50:28Z</time>
      </trkpt>
      <trkpt lat="36.7417411804199" lon="-5.0963249206543">
        <ele>818</ele>
        <time>2019-05-11T11:50:30Z</time>
      </trkpt>
      <trkpt lat="36.7417411804199" lon="-5.09632682800293">
        <ele>818</ele>
        <time>2019-05-11T11:50:32Z</time>
      </trkpt>
      <trkpt lat="36.7417449951172" lon="-5.09633207321167">
        <ele>818</ele>
        <time>2019-05-11T11:50:34Z</time>
      </trkpt>
      <trkpt lat="36.7417449951172" lon="-5.09633207321167">
        <ele>818</ele>
        <time>2019-05-11T11:50:36Z</time>
      </trkpt>
      <trkpt lat="36.7417488098144" lon="-5.09633207321167">
        <ele>818</ele>
        <time>2019-05-11T11:50:38Z</time>
      </trkpt>
      <trkpt lat="36.7417449951172" lon="-5.09632778167725">
        <ele>818</ele>
        <time>2019-05-11T11:50:40Z</time>
      </trkpt>
      <trkpt lat="36.7417449951172" lon="-5.09632778167725">
        <ele>818</ele>
        <time>2019-05-11T11:50:42Z</time>
      </trkpt>
      <trkpt lat="36.7417373657227" lon="-5.09632301330566">
        <ele>818</ele>
        <time>2019-05-11T11:50:44Z</time>
      </trkpt>
      <trkpt lat="36.7417373657227" lon="-5.09631776809692">
        <ele>818</ele>
        <time>2019-05-11T11:50:46Z</time>
      </trkpt>
      <trkpt lat="36.7417335510254" lon="-5.09631776809692">
        <ele>818</ele>
        <time>2019-05-11T11:50:48Z</time>
      </trkpt>
      <trkpt lat="36.7417373657227" lon="-5.09633302688599">
        <ele>818</ele>
        <time>2019-05-11T11:50:50Z</time>
      </trkpt>
      <trkpt lat="36.7417488098144" lon="-5.09633684158325">
        <ele>818</ele>
        <time>2019-05-11T11:50:52Z</time>
      </trkpt>
      <trkpt lat="36.7417488098144" lon="-5.09633493423462">
        <ele>818</ele>
        <time>2019-05-11T11:50:54Z</time>
      </trkpt>
      <trkpt lat="36.7417488098144" lon="-5.09633779525757">
        <ele>818</ele>
        <time>2019-05-11T11:50:56Z</time>
      </trkpt>
      <trkpt lat="36.7417449951172" lon="-5.09633493423462">
        <ele>818</ele>
        <time>2019-05-11T11:50:58Z</time>
      </trkpt>
      <trkpt lat="36.7417449951172" lon="-5.09632682800293">
        <ele>818</ele>
        <time>2019-05-11T11:51:00Z</time>
      </trkpt>
      <trkpt lat="36.7417488098144" lon="-5.09632682800293">
        <ele>818</ele>
        <time>2019-05-11T11:51:02Z</time>
      </trkpt>
      <trkpt lat="36.7417526245117" lon="-5.09632778167725">
        <ele>818</ele>
        <time>2019-05-11T11:51:04Z</time>
      </trkpt>
      <trkpt lat="36.7417526245117" lon="-5.09633016586304">
        <ele>818</ele>
        <time>2019-05-11T11:51:06Z</time>
      </trkpt>
      <trkpt lat="36.7417526245117" lon="-5.09632778167725">
        <ele>818</ele>
        <time>2019-05-11T11:51:08Z</time>
      </trkpt>
      <trkpt lat="36.7417526245117" lon="-5.0963249206543">
        <ele>818</ele>
        <time>2019-05-11T11:51:10Z</time>
      </trkpt>
      <trkpt lat="36.741756439209" lon="-5.09633016586304">
        <ele>818</ele>
        <time>2019-05-11T11:51:12Z</time>
      </trkpt>
      <trkpt lat="36.7417602539062" lon="-5.09634017944336">
        <ele>818</ele>
        <time>2019-05-11T11:51:14Z</time>
      </trkpt>
      <trkpt lat="36.7417640686035" lon="-5.09634017944336">
        <ele>818</ele>
        <time>2019-05-11T11:51:16Z</time>
      </trkpt>
      <trkpt lat="36.7417640686035" lon="-5.09633684158325">
        <ele>818</ele>
        <time>2019-05-11T11:51:18Z</time>
      </trkpt>
      <trkpt lat="36.7417678833008" lon="-5.09633016586304">
        <ele>818</ele>
        <time>2019-05-11T11:51:20Z</time>
      </trkpt>
      <trkpt lat="36.741771697998" lon="-5.09632778167725">
        <ele>818</ele>
        <time>2019-05-11T11:51:22Z</time>
      </trkpt>
      <trkpt lat="36.741771697998" lon="-5.09632301330566">
        <ele>818</ele>
        <time>2019-05-11T11:51:24Z</time>
      </trkpt>
      <trkpt lat="36.7417678833008" lon="-5.09632301330566">
        <ele>818</ele>
        <time>2019-05-11T11:51:26Z</time>
      </trkpt>
      <trkpt lat="36.7417678833008" lon="-5.09632778167725">
        <ele>818</ele>
        <time>2019-05-11T11:51:28Z</time>
      </trkpt>
      <trkpt lat="36.7417678833008" lon="-5.09634017944336">
        <ele>818</ele>
        <time>2019-05-11T11:51:30Z</time>
      </trkpt>
      <trkpt lat="36.741771697998" lon="-5.09635496139526">
        <ele>818</ele>
        <time>2019-05-11T11:51:32Z</time>
      </trkpt>
      <trkpt lat="36.7417793273926" lon="-5.09637498855591">
        <ele>818</ele>
        <time>2019-05-11T11:51:34Z</time>
      </trkpt>
      <trkpt lat="36.7417831420898" lon="-5.09639310836792">
        <ele>818</ele>
        <time>2019-05-11T11:51:36Z</time>
      </trkpt>
      <trkpt lat="36.7417907714844" lon="-5.09641218185425">
        <ele>818</ele>
        <time>2019-05-11T11:51:38Z</time>
      </trkpt>
      <trkpt lat="36.7417945861816" lon="-5.0964298248291">
        <ele>818</ele>
        <time>2019-05-11T11:51:40Z</time>
      </trkpt>
      <trkpt lat="36.7418098449707" lon="-5.09645318984985">
        <ele>818</ele>
        <time>2019-05-11T11:51:42Z</time>
      </trkpt>
      <trkpt lat="36.7418212890625" lon="-5.09645700454712">
        <ele>818</ele>
        <time>2019-05-11T11:51:44Z</time>
      </trkpt>
      <trkpt lat="36.7418251037598" lon="-5.09645986557007">
        <ele>818</ele>
        <time>2019-05-11T11:51:46Z</time>
      </trkpt>
      <trkpt lat="36.7418251037598" lon="-5.09646797180176">
        <ele>818</ele>
        <time>2019-05-11T11:51:48Z</time>
      </trkpt>
      <trkpt lat="36.7418251037598" lon="-5.09647178649902">
        <ele>818</ele>
        <time>2019-05-11T11:51:50Z</time>
      </trkpt>
      <trkpt lat="36.7418251037598" lon="-5.09646987915039">
        <ele>818</ele>
        <time>2019-05-11T11:51:52Z</time>
      </trkpt>
      <trkpt lat="36.7418327331543" lon="-5.09646511077881">
        <ele>818</ele>
        <time>2019-05-11T11:51:54Z</time>
      </trkpt>
      <trkpt lat="36.7418365478516" lon="-5.0964732170105">
        <ele>818</ele>
        <time>2019-05-11T11:51:56Z</time>
      </trkpt>
      <trkpt lat="36.7418365478516" lon="-5.0964732170105">
        <ele>818</ele>
        <time>2019-05-11T11:51:58Z</time>
      </trkpt>
      <trkpt lat="36.7418365478516" lon="-5.09647798538208">
        <ele>818</ele>
        <time>2019-05-11T11:52:00Z</time>
      </trkpt>
      <trkpt lat="36.7418365478516" lon="-5.09646797180176">
        <ele>818</ele>
        <time>2019-05-11T11:52:02Z</time>
      </trkpt>
      <trkpt lat="36.7418365478516" lon="-5.09647703170776">
        <ele>818</ele>
        <time>2019-05-11T11:52:04Z</time>
      </trkpt>
      <trkpt lat="36.7418365478516" lon="-5.09647512435913">
        <ele>818</ele>
        <time>2019-05-11T11:52:06Z</time>
      </trkpt>
      <trkpt lat="36.7418365478516" lon="-5.09645509719849">
        <ele>818</ele>
        <time>2019-05-11T11:52:08Z</time>
      </trkpt>
      <trkpt lat="36.7418327331543" lon="-5.09643697738647">
        <ele>818</ele>
        <time>2019-05-11T11:52:10Z</time>
      </trkpt>
      <trkpt lat="36.7418212890625" lon="-5.09642696380615">
        <ele>818</ele>
        <time>2019-05-11T11:52:12Z</time>
      </trkpt>
      <trkpt lat="36.741813659668" lon="-5.09642219543457">
        <ele>818</ele>
        <time>2019-05-11T11:52:14Z</time>
      </trkpt>
      <trkpt lat="36.7418174743652" lon="-5.09641981124878">
        <ele>818</ele>
        <time>2019-05-11T11:52:16Z</time>
      </trkpt>
      <trkpt lat="36.7418212890625" lon="-5.09641981124878">
        <ele>818</ele>
        <time>2019-05-11T11:52:18Z</time>
      </trkpt>
      <trkpt lat="36.7418251037598" lon="-5.09641790390015">
        <ele>818</ele>
        <time>2019-05-11T11:52:20Z</time>
      </trkpt>
      <trkpt lat="36.7418212890625" lon="-5.09641695022583">
        <ele>818</ele>
        <time>2019-05-11T11:52:22Z</time>
      </trkpt>
      <trkpt lat="36.7418251037598" lon="-5.09641695022583">
        <ele>818</ele>
        <time>2019-05-11T11:52:24Z</time>
      </trkpt>
      <trkpt lat="36.7418251037598" lon="-5.0964150428772">
        <ele>818</ele>
        <time>2019-05-11T11:52:26Z</time>
      </trkpt>
      <trkpt lat="36.741828918457" lon="-5.09641695022583">
        <ele>818</ele>
        <time>2019-05-11T11:52:28Z</time>
      </trkpt>
      <trkpt lat="36.7418327331543" lon="-5.09641695022583">
        <ele>818</ele>
        <time>2019-05-11T11:52:30Z</time>
      </trkpt>
      <trkpt lat="36.7418365478516" lon="-5.09641790390015">
        <ele>818</ele>
        <time>2019-05-11T11:52:32Z</time>
      </trkpt>
      <trkpt lat="36.7418365478516" lon="-5.09641695022583">
        <ele>818</ele>
        <time>2019-05-11T11:52:35Z</time>
      </trkpt>
      <trkpt lat="36.7418403625488" lon="-5.09640979766846">
        <ele>818</ele>
        <time>2019-05-11T11:52:37Z</time>
      </trkpt>
      <trkpt lat="36.7418441772461" lon="-5.09640979766846">
        <ele>818</ele>
        <time>2019-05-11T11:52:39Z</time>
      </trkpt>
      <trkpt lat="36.7418556213379" lon="-5.09641790390015">
        <ele>818</ele>
        <time>2019-05-11T11:52:41Z</time>
      </trkpt>
      <trkpt lat="36.7418594360352" lon="-5.09644222259522">
        <ele>818</ele>
        <time>2019-05-11T11:52:43Z</time>
      </trkpt>
      <trkpt lat="36.7418556213379" lon="-5.09646797180176">
        <ele>818</ele>
        <time>2019-05-11T11:52:45Z</time>
      </trkpt>
      <trkpt lat="36.7418518066406" lon="-5.09649801254272">
        <ele>818</ele>
        <time>2019-05-11T11:52:47Z</time>
      </trkpt>
      <trkpt lat="36.7418479919434" lon="-5.09652709960938">
        <ele>818</ele>
        <time>2019-05-11T11:52:49Z</time>
      </trkpt>
      <trkpt lat="36.7418441772461" lon="-5.09655284881592">
        <ele>818</ele>
        <time>2019-05-11T11:52:51Z</time>
      </trkpt>
      <trkpt lat="36.7418479919434" lon="-5.09658002853394">
        <ele>818</ele>
        <time>2019-05-11T11:52:53Z</time>
      </trkpt>
      <trkpt lat="36.7418441772461" lon="-5.0966100692749">
        <ele>818</ele>
        <time>2019-05-11T11:52:55Z</time>
      </trkpt>
      <trkpt lat="36.7418403625488" lon="-5.09662485122681">
        <ele>818</ele>
        <time>2019-05-11T11:52:57Z</time>
      </trkpt>
      <trkpt lat="36.7418594360352" lon="-5.0966272354126">
        <ele>818</ele>
        <time>2019-05-11T11:52:59Z</time>
      </trkpt>
      <trkpt lat="36.7418823242188" lon="-5.0966329574585">
        <ele>818</ele>
        <time>2019-05-11T11:53:01Z</time>
      </trkpt>
      <trkpt lat="36.7419052124023" lon="-5.09664821624756">
        <ele>818</ele>
        <time>2019-05-11T11:53:03Z</time>
      </trkpt>
      <trkpt lat="36.7419281005859" lon="-5.09667015075684">
        <ele>818</ele>
        <time>2019-05-11T11:53:05Z</time>
      </trkpt>
      <trkpt lat="36.7419319152832" lon="-5.09669208526611">
        <ele>818</ele>
        <time>2019-05-11T11:53:07Z</time>
      </trkpt>
      <trkpt lat="36.7419319152832" lon="-5.0966968536377">
        <ele>818</ele>
        <time>2019-05-11T11:53:09Z</time>
      </trkpt>
      <trkpt lat="36.7419319152832" lon="-5.09669780731201">
        <ele>818</ele>
        <time>2019-05-11T11:53:11Z</time>
      </trkpt>
      <trkpt lat="36.7419319152832" lon="-5.09669780731201">
        <ele>818</ele>
        <time>2019-05-11T11:53:13Z</time>
      </trkpt>
      <trkpt lat="36.7419319152832" lon="-5.0967001914978">
        <ele>818</ele>
        <time>2019-05-11T11:53:15Z</time>
      </trkpt>
      <trkpt lat="36.7419319152832" lon="-5.09670209884644">
        <ele>818</ele>
        <time>2019-05-11T11:53:17Z</time>
      </trkpt>
      <trkpt lat="36.7419319152832" lon="-5.09670209884644">
        <ele>818</ele>
        <time>2019-05-11T11:53:19Z</time>
      </trkpt>
      <trkpt lat="36.7419281005859" lon="-5.09670305252075">
        <ele>818</ele>
        <time>2019-05-11T11:53:21Z</time>
      </trkpt>
      <trkpt lat="36.7419281005859" lon="-5.09670495986938">
        <ele>818</ele>
        <time>2019-05-11T11:53:23Z</time>
      </trkpt>
      <trkpt lat="36.7419281005859" lon="-5.09670495986938">
        <ele>818</ele>
        <time>2019-05-11T11:53:25Z</time>
      </trkpt>
      <trkpt lat="36.7419281005859" lon="-5.09670686721802">
        <ele>818</ele>
        <time>2019-05-11T11:53:27Z</time>
      </trkpt>
      <trkpt lat="36.7419281005859" lon="-5.09670782089233">
        <ele>818</ele>
        <time>2019-05-11T11:53:29Z</time>
      </trkpt>
      <trkpt lat="36.7419281005859" lon="-5.09671020507812">
        <ele>818</ele>
        <time>2019-05-11T11:53:31Z</time>
      </trkpt>
      <trkpt lat="36.7419281005859" lon="-5.09671020507812">
        <ele>818</ele>
        <time>2019-05-11T11:53:33Z</time>
      </trkpt>
      <trkpt lat="36.7419281005859" lon="-5.09671211242676">
        <ele>818</ele>
        <time>2019-05-11T11:53:35Z</time>
      </trkpt>
      <trkpt lat="36.7419281005859" lon="-5.09671211242676">
        <ele>818</ele>
        <time>2019-05-11T11:53:37Z</time>
      </trkpt>
      <trkpt lat="36.7419242858887" lon="-5.09671306610107">
        <ele>818</ele>
        <time>2019-05-11T11:53:39Z</time>
      </trkpt>
      <trkpt lat="36.7419242858887" lon="-5.09671306610107">
        <ele>818</ele>
        <time>2019-05-11T11:53:41Z</time>
      </trkpt>
      <trkpt lat="36.7419242858887" lon="-5.09671306610107">
        <ele>818</ele>
        <time>2019-05-11T11:53:43Z</time>
      </trkpt>
      <trkpt lat="36.7419242858887" lon="-5.09671497344971">
        <ele>818</ele>
        <time>2019-05-11T11:53:45Z</time>
      </trkpt>
      <trkpt lat="36.7419242858887" lon="-5.09671497344971">
        <ele>818</ele>
        <time>2019-05-11T11:53:47Z</time>
      </trkpt>
      <trkpt lat="36.7419242858887" lon="-5.09671306610107">
        <ele>818</ele>
        <time>2019-05-11T11:53:49Z</time>
      </trkpt>
      <trkpt lat="36.7419281005859" lon="-5.09670209884644">
        <ele>818</ele>
        <time>2019-05-11T11:53:51Z</time>
      </trkpt>
      <trkpt lat="36.7419395446777" lon="-5.09668302536011">
        <ele>818</ele>
        <time>2019-05-11T11:53:53Z</time>
      </trkpt>
      <trkpt lat="36.741943359375" lon="-5.09665822982788">
        <ele>818</ele>
        <time>2019-05-11T11:53:55Z</time>
      </trkpt>
      <trkpt lat="36.7419319152832" lon="-5.09663486480713">
        <ele>818</ele>
        <time>2019-05-11T11:53:57Z</time>
      </trkpt>
      <trkpt lat="36.7419242858887" lon="-5.0966100692749">
        <ele>818</ele>
        <time>2019-05-11T11:53:59Z</time>
      </trkpt>
      <trkpt lat="36.7419128417969" lon="-5.09658193588257">
        <ele>818</ele>
        <time>2019-05-11T11:54:01Z</time>
      </trkpt>
      <trkpt lat="36.7419052124023" lon="-5.09655523300171">
        <ele>818</ele>
        <time>2019-05-11T11:54:03Z</time>
      </trkpt>
      <trkpt lat="36.7418975830078" lon="-5.09652709960938">
        <ele>818</ele>
        <time>2019-05-11T11:54:05Z</time>
      </trkpt>
      <trkpt lat="36.7418937683106" lon="-5.09649515151978">
        <ele>818</ele>
        <time>2019-05-11T11:54:07Z</time>
      </trkpt>
      <trkpt lat="36.7419013977051" lon="-5.09646797180176">
        <ele>818</ele>
        <time>2019-05-11T11:54:09Z</time>
      </trkpt>
      <trkpt lat="36.7419128417969" lon="-5.0964469909668">
        <ele>818</ele>
        <time>2019-05-11T11:54:11Z</time>
      </trkpt>
      <trkpt lat="36.7419281005859" lon="-5.09643220901489">
        <ele>818</ele>
        <time>2019-05-11T11:54:13Z</time>
      </trkpt>
      <trkpt lat="36.7419471740723" lon="-5.09642791748047">
        <ele>818</ele>
        <time>2019-05-11T11:54:15Z</time>
      </trkpt>
      <trkpt lat="36.7419662475586" lon="-5.0964298248291">
        <ele>818</ele>
        <time>2019-05-11T11:54:17Z</time>
      </trkpt>
      <trkpt lat="36.7419891357422" lon="-5.09643983840942">
        <ele>818</ele>
        <time>2019-05-11T11:54:19Z</time>
      </trkpt>
      <trkpt lat="36.7420196533203" lon="-5.09645795822144">
        <ele>818</ele>
        <time>2019-05-11T11:54:21Z</time>
      </trkpt>
      <trkpt lat="36.7420425415039" lon="-5.09646987915039">
        <ele>818</ele>
        <time>2019-05-11T11:54:23Z</time>
      </trkpt>
      <trkpt lat="36.7420692443848" lon="-5.09648513793945">
        <ele>818</ele>
        <time>2019-05-11T11:54:25Z</time>
      </trkpt>
      <trkpt lat="36.7420883178711" lon="-5.09650182723999">
        <ele>818</ele>
        <time>2019-05-11T11:54:27Z</time>
      </trkpt>
      <trkpt lat="36.7421112060547" lon="-5.09651517868042">
        <ele>818</ele>
        <time>2019-05-11T11:54:29Z</time>
      </trkpt>
      <trkpt lat="36.7421379089356" lon="-5.09652996063232">
        <ele>818</ele>
        <time>2019-05-11T11:54:31Z</time>
      </trkpt>
      <trkpt lat="36.7421607971191" lon="-5.09654712677002">
        <ele>818</ele>
        <time>2019-05-11T11:54:33Z</time>
      </trkpt>
      <trkpt lat="36.7421836853027" lon="-5.09656190872192">
        <ele>818</ele>
        <time>2019-05-11T11:54:35Z</time>
      </trkpt>
      <trkpt lat="36.7422065734863" lon="-5.09658002853394">
        <ele>818</ele>
        <time>2019-05-11T11:54:37Z</time>
      </trkpt>
      <trkpt lat="36.7422332763672" lon="-5.09659719467163">
        <ele>818</ele>
        <time>2019-05-11T11:54:39Z</time>
      </trkpt>
      <trkpt lat="36.7422561645508" lon="-5.0966100692749">
        <ele>818</ele>
        <time>2019-05-11T11:54:41Z</time>
      </trkpt>
      <trkpt lat="36.7422790527344" lon="-5.09662818908691">
        <ele>818</ele>
        <time>2019-05-11T11:54:43Z</time>
      </trkpt>
      <trkpt lat="36.7422981262207" lon="-5.09664487838745">
        <ele>818</ele>
        <time>2019-05-11T11:54:45Z</time>
      </trkpt>
      <trkpt lat="36.7423210144043" lon="-5.09666013717651">
        <ele>818</ele>
        <time>2019-05-11T11:54:47Z</time>
      </trkpt>
      <trkpt lat="36.7423439025879" lon="-5.09667491912842">
        <ele>818</ele>
        <time>2019-05-11T11:54:49Z</time>
      </trkpt>
      <trkpt lat="36.7423667907715" lon="-5.09669017791748">
        <ele>818</ele>
        <time>2019-05-11T11:54:51Z</time>
      </trkpt>
      <trkpt lat="36.7423858642578" lon="-5.09670686721802">
        <ele>818</ele>
        <time>2019-05-11T11:54:53Z</time>
      </trkpt>
      <trkpt lat="36.7424087524414" lon="-5.0967230796814">
        <ele>818</ele>
        <time>2019-05-11T11:54:55Z</time>
      </trkpt>
      <trkpt lat="36.742431640625" lon="-5.09674215316772">
        <ele>818</ele>
        <time>2019-05-11T11:54:58Z</time>
      </trkpt>
      <trkpt lat="36.7424583435059" lon="-5.09675979614258">
        <ele>818</ele>
        <time>2019-05-11T11:55:00Z</time>
      </trkpt>
      <trkpt lat="36.7424774169922" lon="-5.09677505493164">
        <ele>818</ele>
        <time>2019-05-11T11:55:02Z</time>
      </trkpt>
      <trkpt lat="36.7424964904785" lon="-5.09678983688354">
        <ele>818</ele>
        <time>2019-05-11T11:55:04Z</time>
      </trkpt>
      <trkpt lat="36.7425193786621" lon="-5.09680700302124">
        <ele>818</ele>
        <time>2019-05-11T11:55:06Z</time>
      </trkpt>
      <trkpt lat="36.7425384521484" lon="-5.09682321548462">
        <ele>818</ele>
        <time>2019-05-11T11:55:08Z</time>
      </trkpt>
      <trkpt lat="36.742561340332" lon="-5.09683799743652">
        <ele>818</ele>
        <time>2019-05-11T11:55:10Z</time>
      </trkpt>
      <trkpt lat="36.7425842285156" lon="-5.09685182571411">
        <ele>818</ele>
        <time>2019-05-11T11:55:12Z</time>
      </trkpt>
      <trkpt lat="36.7426071166992" lon="-5.09686803817749">
        <ele>818</ele>
        <time>2019-05-11T11:55:14Z</time>
      </trkpt>
      <trkpt lat="36.7426338195801" lon="-5.09688806533814">
        <ele>818</ele>
        <time>2019-05-11T11:55:16Z</time>
      </trkpt>
      <trkpt lat="36.7426528930664" lon="-5.09690523147583">
        <ele>818</ele>
        <time>2019-05-11T11:55:18Z</time>
      </trkpt>
      <trkpt lat="36.74267578125" lon="-5.09692287445068">
        <ele>818</ele>
        <time>2019-05-11T11:55:20Z</time>
      </trkpt>
      <trkpt lat="36.7426986694336" lon="-5.09694004058838">
        <ele>818</ele>
        <time>2019-05-11T11:55:22Z</time>
      </trkpt>
      <trkpt lat="36.7427177429199" lon="-5.09695196151733">
        <ele>818</ele>
        <time>2019-05-11T11:55:24Z</time>
      </trkpt>
      <trkpt lat="36.7427368164062" lon="-5.0969672203064">
        <ele>818</ele>
        <time>2019-05-11T11:55:26Z</time>
      </trkpt>
      <trkpt lat="36.7427558898926" lon="-5.09698486328125">
        <ele>818</ele>
        <time>2019-05-11T11:55:28Z</time>
      </trkpt>
      <trkpt lat="36.7427749633789" lon="-5.09700012207031">
        <ele>818</ele>
        <time>2019-05-11T11:55:30Z</time>
      </trkpt>
      <trkpt lat="36.7427978515625" lon="-5.09701299667358">
        <ele>818</ele>
        <time>2019-05-11T11:55:32Z</time>
      </trkpt>
      <trkpt lat="36.7428207397461" lon="-5.09702301025391">
        <ele>818</ele>
        <time>2019-05-11T11:55:34Z</time>
      </trkpt>
      <trkpt lat="36.7428436279297" lon="-5.09703493118286">
        <ele>818</ele>
        <time>2019-05-11T11:55:36Z</time>
      </trkpt>
      <trkpt lat="36.742862701416" lon="-5.09704780578613">
        <ele>818</ele>
        <time>2019-05-11T11:55:38Z</time>
      </trkpt>
      <trkpt lat="36.7428817749023" lon="-5.09706497192383">
        <ele>818</ele>
        <time>2019-05-11T11:55:40Z</time>
      </trkpt>
      <trkpt lat="36.7429046630859" lon="-5.09708213806152">
        <ele>818</ele>
        <time>2019-05-11T11:55:42Z</time>
      </trkpt>
      <trkpt lat="36.7429237365723" lon="-5.09709787368774">
        <ele>818</ele>
        <time>2019-05-11T11:55:44Z</time>
      </trkpt>
      <trkpt lat="36.7429466247559" lon="-5.09711694717407">
        <ele>818</ele>
        <time>2019-05-11T11:55:46Z</time>
      </trkpt>
      <trkpt lat="36.7429618835449" lon="-5.09713220596314">
        <ele>818</ele>
        <time>2019-05-11T11:55:48Z</time>
      </trkpt>
      <trkpt lat="36.7429962158203" lon="-5.09715700149536">
        <ele>818</ele>
        <time>2019-05-11T11:55:50Z</time>
      </trkpt>
      <trkpt lat="36.7430191040039" lon="-5.09717798233032">
        <ele>818</ele>
        <time>2019-05-11T11:55:52Z</time>
      </trkpt>
      <trkpt lat="36.7430419921875" lon="-5.09719800949097">
        <ele>818</ele>
        <time>2019-05-11T11:55:54Z</time>
      </trkpt>
      <trkpt lat="36.7430648803711" lon="-5.0972170829773">
        <ele>818</ele>
        <time>2019-05-11T11:55:56Z</time>
      </trkpt>
      <trkpt lat="36.7430877685547" lon="-5.09723281860352">
        <ele>818</ele>
        <time>2019-05-11T11:55:58Z</time>
      </trkpt>
      <trkpt lat="36.7431144714356" lon="-5.09725189208984">
        <ele>818</ele>
        <time>2019-05-11T11:56:00Z</time>
      </trkpt>
      <trkpt lat="36.7431411743164" lon="-5.09727001190186">
        <ele>818</ele>
        <time>2019-05-11T11:56:02Z</time>
      </trkpt>
      <trkpt lat="36.7431678771973" lon="-5.0972900390625">
        <ele>818</ele>
        <time>2019-05-11T11:56:04Z</time>
      </trkpt>
      <trkpt lat="36.7431945800781" lon="-5.09731006622314">
        <ele>818</ele>
        <time>2019-05-11T11:56:06Z</time>
      </trkpt>
      <trkpt lat="36.7432174682617" lon="-5.09733009338379">
        <ele>818</ele>
        <time>2019-05-11T11:56:08Z</time>
      </trkpt>
      <trkpt lat="36.7432441711426" lon="-5.09735012054443">
        <ele>818</ele>
        <time>2019-05-11T11:56:10Z</time>
      </trkpt>
      <trkpt lat="36.7432708740234" lon="-5.09736776351929">
        <ele>818</ele>
        <time>2019-05-11T11:56:12Z</time>
      </trkpt>
      <trkpt lat="36.743293762207" lon="-5.09739208221436">
        <ele>818</ele>
        <time>2019-05-11T11:56:14Z</time>
      </trkpt>
      <trkpt lat="36.7433166503906" lon="-5.097412109375">
        <ele>818</ele>
        <time>2019-05-11T11:56:16Z</time>
      </trkpt>
      <trkpt lat="36.7433433532715" lon="-5.09743022918701">
        <ele>818</ele>
        <time>2019-05-11T11:56:18Z</time>
      </trkpt>
      <trkpt lat="36.7433662414551" lon="-5.09744691848755">
        <ele>818</ele>
        <time>2019-05-11T11:56:20Z</time>
      </trkpt>
      <trkpt lat="36.7433929443359" lon="-5.09746217727661">
        <ele>818</ele>
        <time>2019-05-11T11:56:23Z</time>
      </trkpt>
      <trkpt lat="36.7434158325195" lon="-5.09747982025146">
        <ele>818</ele>
        <time>2019-05-11T11:56:25Z</time>
      </trkpt>
      <trkpt lat="36.7434425354004" lon="-5.09749507904053">
        <ele>818</ele>
        <time>2019-05-11T11:56:27Z</time>
      </trkpt>
      <trkpt lat="36.743465423584" lon="-5.09751319885254">
        <ele>818</ele>
        <time>2019-05-11T11:56:29Z</time>
      </trkpt>
      <trkpt lat="36.7434883117676" lon="-5.09753179550171">
        <ele>818</ele>
        <time>2019-05-11T11:56:31Z</time>
      </trkpt>
      <trkpt lat="36.7435111999512" lon="-5.09754800796509">
        <ele>817</ele>
        <time>2019-05-11T11:56:33Z</time>
      </trkpt>
      <trkpt lat="36.743537902832" lon="-5.09756278991699">
        <ele>816</ele>
        <time>2019-05-11T11:56:35Z</time>
      </trkpt>
      <trkpt lat="36.7435607910156" lon="-5.09758186340332">
        <ele>816</ele>
        <time>2019-05-11T11:56:37Z</time>
      </trkpt>
      <trkpt lat="36.7435874938965" lon="-5.0975980758667">
        <ele>816</ele>
        <time>2019-05-11T11:56:39Z</time>
      </trkpt>
      <trkpt lat="36.7436065673828" lon="-5.09762001037598">
        <ele>816</ele>
        <time>2019-05-11T11:56:41Z</time>
      </trkpt>
      <trkpt lat="36.7436447143555" lon="-5.0976448059082">
        <ele>816</ele>
        <time>2019-05-11T11:56:43Z</time>
      </trkpt>
      <trkpt lat="36.7436714172363" lon="-5.0976619720459">
        <ele>816</ele>
        <time>2019-05-11T11:56:45Z</time>
      </trkpt>
      <trkpt lat="36.7436981201172" lon="-5.09767818450928">
        <ele>816</ele>
        <time>2019-05-11T11:56:47Z</time>
      </trkpt>
      <trkpt lat="36.7437210083008" lon="-5.09769296646118">
        <ele>816</ele>
        <time>2019-05-11T11:56:49Z</time>
      </trkpt>
      <trkpt lat="36.7437515258789" lon="-5.09770822525024">
        <ele>816</ele>
        <time>2019-05-11T11:56:51Z</time>
      </trkpt>
      <trkpt lat="36.7437744140625" lon="-5.09772491455078">
        <ele>816</ele>
        <time>2019-05-11T11:56:53Z</time>
      </trkpt>
      <trkpt lat="36.7438011169434" lon="-5.09774017333984">
        <ele>816</ele>
        <time>2019-05-11T11:56:55Z</time>
      </trkpt>
      <trkpt lat="36.743824005127" lon="-5.09775686264038">
        <ele>816</ele>
        <time>2019-05-11T11:56:57Z</time>
      </trkpt>
      <trkpt lat="36.7438468933106" lon="-5.09778308868408">
        <ele>816</ele>
        <time>2019-05-11T11:57:00Z</time>
      </trkpt>
      <trkpt lat="36.7438735961914" lon="-5.09780788421631">
        <ele>816</ele>
        <time>2019-05-11T11:57:02Z</time>
      </trkpt>
      <trkpt lat="36.7438926696777" lon="-5.09783506393433">
        <ele>816</ele>
        <time>2019-05-11T11:57:04Z</time>
      </trkpt>
      <trkpt lat="36.7439117431641" lon="-5.09786319732666">
        <ele>816</ele>
        <time>2019-05-11T11:57:06Z</time>
      </trkpt>
      <trkpt lat="36.7439231872559" lon="-5.09789705276489">
        <ele>816</ele>
        <time>2019-05-11T11:57:08Z</time>
      </trkpt>
      <trkpt lat="36.7439308166504" lon="-5.09793186187744">
        <ele>816</ele>
        <time>2019-05-11T11:57:10Z</time>
      </trkpt>
      <trkpt lat="36.7439308166504" lon="-5.09796810150146">
        <ele>816</ele>
        <time>2019-05-11T11:57:12Z</time>
      </trkpt>
      <trkpt lat="36.7439231872559" lon="-5.09800815582275">
        <ele>816</ele>
        <time>2019-05-11T11:57:14Z</time>
      </trkpt>
      <trkpt lat="36.7439155578613" lon="-5.09804487228394">
        <ele>816</ele>
        <time>2019-05-11T11:57:16Z</time>
      </trkpt>
      <trkpt lat="36.7439079284668" lon="-5.09809494018555">
        <ele>816</ele>
        <time>2019-05-11T11:57:18Z</time>
      </trkpt>
      <trkpt lat="36.743896484375" lon="-5.0981330871582">
        <ele>816</ele>
        <time>2019-05-11T11:57:20Z</time>
      </trkpt>
      <trkpt lat="36.7438774108887" lon="-5.0981822013855">
        <ele>816</ele>
        <time>2019-05-11T11:57:22Z</time>
      </trkpt>
      <trkpt lat="36.7438583374023" lon="-5.09822988510132">
        <ele>816</ele>
        <time>2019-05-11T11:57:24Z</time>
      </trkpt>
      <trkpt lat="36.743839263916" lon="-5.09826993942261">
        <ele>816</ele>
        <time>2019-05-11T11:57:26Z</time>
      </trkpt>
      <trkpt lat="36.7438163757324" lon="-5.09830522537231">
        <ele>816</ele>
        <time>2019-05-11T11:57:28Z</time>
      </trkpt>
      <trkpt lat="36.7438011169434" lon="-5.09835004806519">
        <ele>816</ele>
        <time>2019-05-11T11:57:30Z</time>
      </trkpt>
      <trkpt lat="36.7437858581543" lon="-5.09840297698975">
        <ele>816</ele>
        <time>2019-05-11T11:57:32Z</time>
      </trkpt>
      <trkpt lat="36.7437705993652" lon="-5.09845018386841">
        <ele>816</ele>
        <time>2019-05-11T11:57:34Z</time>
      </trkpt>
      <trkpt lat="36.7437553405762" lon="-5.09849977493286">
        <ele>815</ele>
        <time>2019-05-11T11:57:36Z</time>
      </trkpt>
      <trkpt lat="36.7437438964844" lon="-5.09855318069458">
        <ele>814</ele>
        <time>2019-05-11T11:57:39Z</time>
      </trkpt>
      <trkpt lat="36.7437286376953" lon="-5.09860992431641">
        <ele>813</ele>
        <time>2019-05-11T11:57:41Z</time>
      </trkpt>
      <trkpt lat="36.7437171936035" lon="-5.09866285324097">
        <ele>812</ele>
        <time>2019-05-11T11:57:43Z</time>
      </trkpt>
      <trkpt lat="36.743709564209" lon="-5.09872007369995">
        <ele>811</ele>
        <time>2019-05-11T11:57:45Z</time>
      </trkpt>
      <trkpt lat="36.7437019348144" lon="-5.09878206253052">
        <ele>811</ele>
        <time>2019-05-11T11:57:47Z</time>
      </trkpt>
      <trkpt lat="36.7436943054199" lon="-5.09884309768677">
        <ele>811</ele>
        <time>2019-05-11T11:57:49Z</time>
      </trkpt>
      <trkpt lat="36.7436790466309" lon="-5.09890222549438">
        <ele>811</ele>
        <time>2019-05-11T11:57:51Z</time>
      </trkpt>
      <trkpt lat="36.7436637878418" lon="-5.09895801544189">
        <ele>810</ele>
        <time>2019-05-11T11:57:53Z</time>
      </trkpt>
      <trkpt lat="36.7436447143555" lon="-5.09901189804077">
        <ele>810</ele>
        <time>2019-05-11T11:57:55Z</time>
      </trkpt>
      <trkpt lat="36.7436256408691" lon="-5.0990629196167">
        <ele>809</ele>
        <time>2019-05-11T11:57:57Z</time>
      </trkpt>
      <trkpt lat="36.7435913085938" lon="-5.09913682937622">
        <ele>809</ele>
        <time>2019-05-11T11:57:59Z</time>
      </trkpt>
      <trkpt lat="36.7435760498047" lon="-5.09919691085815">
        <ele>808</ele>
        <time>2019-05-11T11:58:01Z</time>
      </trkpt>
      <trkpt lat="36.7435607910156" lon="-5.09925508499146">
        <ele>806</ele>
        <time>2019-05-11T11:58:03Z</time>
      </trkpt>
      <trkpt lat="36.7435455322266" lon="-5.0993127822876">
        <ele>806</ele>
        <time>2019-05-11T11:58:05Z</time>
      </trkpt>
      <trkpt lat="36.7435340881348" lon="-5.09937286376953">
        <ele>806</ele>
        <time>2019-05-11T11:58:07Z</time>
      </trkpt>
      <trkpt lat="36.743522644043" lon="-5.09942722320557">
        <ele>805</ele>
        <time>2019-05-11T11:58:09Z</time>
      </trkpt>
      <trkpt lat="36.7435111999512" lon="-5.09948301315308">
        <ele>804</ele>
        <time>2019-05-11T11:58:11Z</time>
      </trkpt>
      <trkpt lat="36.7435035705566" lon="-5.09953689575195">
        <ele>804</ele>
        <time>2019-05-11T11:58:13Z</time>
      </trkpt>
      <trkpt lat="36.7434959411621" lon="-5.09958982467651">
        <ele>804</ele>
        <time>2019-05-11T11:58:15Z</time>
      </trkpt>
      <trkpt lat="36.7434883117676" lon="-5.09964179992676">
        <ele>804</ele>
        <time>2019-05-11T11:58:18Z</time>
      </trkpt>
      <trkpt lat="36.7434692382812" lon="-5.09968996047974">
        <ele>804</ele>
        <time>2019-05-11T11:58:20Z</time>
      </trkpt>
      <trkpt lat="36.7434577941894" lon="-5.0997371673584">
        <ele>803</ele>
        <time>2019-05-11T11:58:22Z</time>
      </trkpt>
      <trkpt lat="36.7434577941894" lon="-5.09979009628296">
        <ele>803</ele>
        <time>2019-05-11T11:58:24Z</time>
      </trkpt>
      <trkpt lat="36.7434463500977" lon="-5.09984302520752">
        <ele>802</ele>
        <time>2019-05-11T11:58:26Z</time>
      </trkpt>
      <trkpt lat="36.7434349060059" lon="-5.09989023208618">
        <ele>801</ele>
        <time>2019-05-11T11:58:28Z</time>
      </trkpt>
      <trkpt lat="36.7434234619141" lon="-5.09993982315064">
        <ele>801</ele>
        <time>2019-05-11T11:58:30Z</time>
      </trkpt>
      <trkpt lat="36.7434120178223" lon="-5.09999179840088">
        <ele>800</ele>
        <time>2019-05-11T11:58:32Z</time>
      </trkpt>
      <trkpt lat="36.7433967590332" lon="-5.10004281997681">
        <ele>800</ele>
        <time>2019-05-11T11:58:34Z</time>
      </trkpt>
      <trkpt lat="36.7433853149414" lon="-5.1001148223877">
        <ele>800</ele>
        <time>2019-05-11T11:58:36Z</time>
      </trkpt>
      <trkpt lat="36.7433738708496" lon="-5.10014009475708">
        <ele>800</ele>
        <time>2019-05-11T11:58:38Z</time>
      </trkpt>
      <trkpt lat="36.7433471679688" lon="-5.10019683837891">
        <ele>799</ele>
        <time>2019-05-11T11:58:40Z</time>
      </trkpt>
      <trkpt lat="36.7433395385742" lon="-5.10024499893188">
        <ele>799</ele>
        <time>2019-05-11T11:58:42Z</time>
      </trkpt>
      <trkpt lat="36.7433280944824" lon="-5.10029220581055">
        <ele>799</ele>
        <time>2019-05-11T11:58:44Z</time>
      </trkpt>
      <trkpt lat="36.7433128356934" lon="-5.10033798217773">
        <ele>798</ele>
        <time>2019-05-11T11:58:46Z</time>
      </trkpt>
      <trkpt lat="36.7433013916016" lon="-5.1003851890564">
        <ele>798</ele>
        <time>2019-05-11T11:58:48Z</time>
      </trkpt>
      <trkpt lat="36.7432823181152" lon="-5.1004319190979">
        <ele>798</ele>
        <time>2019-05-11T11:58:50Z</time>
      </trkpt>
      <trkpt lat="36.7432708740234" lon="-5.10047721862793">
        <ele>798</ele>
        <time>2019-05-11T11:58:52Z</time>
      </trkpt>
      <trkpt lat="36.7432594299316" lon="-5.10051679611206">
        <ele>798</ele>
        <time>2019-05-11T11:58:54Z</time>
      </trkpt>
      <trkpt lat="36.7432518005371" lon="-5.10057210922241">
        <ele>798</ele>
        <time>2019-05-11T11:58:57Z</time>
      </trkpt>
      <trkpt lat="36.7432327270508" lon="-5.10063219070435">
        <ele>798</ele>
        <time>2019-05-11T11:58:59Z</time>
      </trkpt>
      <trkpt lat="36.7432136535644" lon="-5.10068511962891">
        <ele>798</ele>
        <time>2019-05-11T11:59:01Z</time>
      </trkpt>
      <trkpt lat="36.7431907653809" lon="-5.10073804855347">
        <ele>798</ele>
        <time>2019-05-11T11:59:03Z</time>
      </trkpt>
      <trkpt lat="36.7431716918945" lon="-5.10079193115234">
        <ele>798</ele>
        <time>2019-05-11T11:59:05Z</time>
      </trkpt>
      <trkpt lat="36.7431526184082" lon="-5.10084676742554">
        <ele>798</ele>
        <time>2019-05-11T11:59:07Z</time>
      </trkpt>
      <trkpt lat="36.7431373596191" lon="-5.10089778900146">
        <ele>798</ele>
        <time>2019-05-11T11:59:09Z</time>
      </trkpt>
      <trkpt lat="36.7431182861328" lon="-5.10095310211182">
        <ele>798</ele>
        <time>2019-05-11T11:59:11Z</time>
      </trkpt>
      <trkpt lat="36.7430992126465" lon="-5.10100698471069">
        <ele>798</ele>
        <time>2019-05-11T11:59:13Z</time>
      </trkpt>
      <trkpt lat="36.7430686950684" lon="-5.10107803344727">
        <ele>797</ele>
        <time>2019-05-11T11:59:15Z</time>
      </trkpt>
      <trkpt lat="36.7430534362793" lon="-5.10113000869751">
        <ele>796</ele>
        <time>2019-05-11T11:59:17Z</time>
      </trkpt>
      <trkpt lat="36.7430381774902" lon="-5.10118007659912">
        <ele>796</ele>
        <time>2019-05-11T11:59:19Z</time>
      </trkpt>
      <trkpt lat="36.7430152893066" lon="-5.10122489929199">
        <ele>796</ele>
        <time>2019-05-11T11:59:21Z</time>
      </trkpt>
      <trkpt lat="36.7430038452148" lon="-5.10126495361328">
        <ele>796</ele>
        <time>2019-05-11T11:59:23Z</time>
      </trkpt>
      <trkpt lat="36.742992401123" lon="-5.1013069152832">
        <ele>796</ele>
        <time>2019-05-11T11:59:25Z</time>
      </trkpt>
      <trkpt lat="36.742977142334" lon="-5.10135698318481">
        <ele>795</ele>
        <time>2019-05-11T11:59:27Z</time>
      </trkpt>
      <trkpt lat="36.7429733276367" lon="-5.10140705108643">
        <ele>795</ele>
        <time>2019-05-11T11:59:29Z</time>
      </trkpt>
      <trkpt lat="36.7429618835449" lon="-5.10144186019897">
        <ele>795</ele>
        <time>2019-05-11T11:59:31Z</time>
      </trkpt>
      <trkpt lat="36.7429542541504" lon="-5.10147714614868">
        <ele>795</ele>
        <time>2019-05-11T11:59:34Z</time>
      </trkpt>
      <trkpt lat="36.7429466247559" lon="-5.10152006149292">
        <ele>795</ele>
        <time>2019-05-11T11:59:36Z</time>
      </trkpt>
      <trkpt lat="36.7429313659668" lon="-5.1015682220459">
        <ele>794</ele>
        <time>2019-05-11T11:59:38Z</time>
      </trkpt>
      <trkpt lat="36.7429275512695" lon="-5.10162019729614">
        <ele>794</ele>
        <time>2019-05-11T11:59:40Z</time>
      </trkpt>
      <trkpt lat="36.7429122924805" lon="-5.10167503356934">
        <ele>793</ele>
        <time>2019-05-11T11:59:42Z</time>
      </trkpt>
      <trkpt lat="36.7429008483887" lon="-5.10172510147095">
        <ele>793</ele>
        <time>2019-05-11T11:59:44Z</time>
      </trkpt>
      <trkpt lat="36.7428894042969" lon="-5.10177183151245">
        <ele>793</ele>
        <time>2019-05-11T11:59:46Z</time>
      </trkpt>
      <trkpt lat="36.7428855895996" lon="-5.10181522369385">
        <ele>792</ele>
        <time>2019-05-11T11:59:48Z</time>
      </trkpt>
      <trkpt lat="36.7428970336914" lon="-5.10186719894409">
        <ele>791</ele>
        <time>2019-05-11T11:59:50Z</time>
      </trkpt>
      <trkpt lat="36.7429046630859" lon="-5.10195207595825">
        <ele>791</ele>
        <time>2019-05-11T11:59:52Z</time>
      </trkpt>
      <trkpt lat="36.7429046630859" lon="-5.10198211669922">
        <ele>791</ele>
        <time>2019-05-11T11:59:54Z</time>
      </trkpt>
      <trkpt lat="36.7429122924805" lon="-5.10206508636475">
        <ele>791</ele>
        <time>2019-05-11T11:59:56Z</time>
      </trkpt>
      <trkpt lat="36.7429161071777" lon="-5.10211801528931">
        <ele>791</ele>
        <time>2019-05-11T11:59:58Z</time>
      </trkpt>
      <trkpt lat="36.7429237365723" lon="-5.10216283798218">
        <ele>791</ele>
        <time>2019-05-11T12:00:00Z</time>
      </trkpt>
      <trkpt lat="36.7429237365723" lon="-5.10221481323242">
        <ele>791</ele>
        <time>2019-05-11T12:00:02Z</time>
      </trkpt>
      <trkpt lat="36.7429275512695" lon="-5.10226202011108">
        <ele>791</ele>
        <time>2019-05-11T12:00:04Z</time>
      </trkpt>
      <trkpt lat="36.7429313659668" lon="-5.10230207443237">
        <ele>791</ele>
        <time>2019-05-11T12:00:06Z</time>
      </trkpt>
      <trkpt lat="36.7429313659668" lon="-5.10233783721924">
        <ele>791</ele>
        <time>2019-05-11T12:00:08Z</time>
      </trkpt>
      <trkpt lat="36.7429351806641" lon="-5.10237312316894">
        <ele>791</ele>
        <time>2019-05-11T12:00:10Z</time>
      </trkpt>
      <trkpt lat="36.7429389953613" lon="-5.10240983963013">
        <ele>791</ele>
        <time>2019-05-11T12:00:13Z</time>
      </trkpt>
      <trkpt lat="36.7429389953613" lon="-5.10244798660278">
        <ele>791</ele>
        <time>2019-05-11T12:00:15Z</time>
      </trkpt>
      <trkpt lat="36.7429389953613" lon="-5.10248517990112">
        <ele>791</ele>
        <time>2019-05-11T12:00:17Z</time>
      </trkpt>
      <trkpt lat="36.7429389953613" lon="-5.10251808166504">
        <ele>791</ele>
        <time>2019-05-11T12:00:19Z</time>
      </trkpt>
      <trkpt lat="36.7429351806641" lon="-5.10255002975464">
        <ele>791</ele>
        <time>2019-05-11T12:00:21Z</time>
      </trkpt>
      <trkpt lat="36.7429313659668" lon="-5.10258483886719">
        <ele>791</ele>
        <time>2019-05-11T12:00:23Z</time>
      </trkpt>
      <trkpt lat="36.7429275512695" lon="-5.10262298583984">
        <ele>791</ele>
        <time>2019-05-11T12:00:25Z</time>
      </trkpt>
      <trkpt lat="36.742919921875" lon="-5.10267686843872">
        <ele>791</ele>
        <time>2019-05-11T12:00:27Z</time>
      </trkpt>
      <trkpt lat="36.7429046630859" lon="-5.10273313522339">
        <ele>791</ele>
        <time>2019-05-11T12:00:29Z</time>
      </trkpt>
      <trkpt lat="36.7428817749023" lon="-5.10281181335449">
        <ele>791</ele>
        <time>2019-05-11T12:00:31Z</time>
      </trkpt>
      <trkpt lat="36.7428741455078" lon="-5.10283803939819">
        <ele>791</ele>
        <time>2019-05-11T12:00:33Z</time>
      </trkpt>
      <trkpt lat="36.742847442627" lon="-5.10290193557739">
        <ele>791</ele>
        <time>2019-05-11T12:00:35Z</time>
      </trkpt>
      <trkpt lat="36.7428321838379" lon="-5.10294818878174">
        <ele>791</ele>
        <time>2019-05-11T12:00:37Z</time>
      </trkpt>
      <trkpt lat="36.7428207397461" lon="-5.10299301147461">
        <ele>791</ele>
        <time>2019-05-11T12:00:39Z</time>
      </trkpt>
      <trkpt lat="36.7428016662598" lon="-5.10304021835327">
        <ele>791</ele>
        <time>2019-05-11T12:00:41Z</time>
      </trkpt>
      <trkpt lat="36.742790222168" lon="-5.10309219360352">
        <ele>791</ele>
        <time>2019-05-11T12:00:43Z</time>
      </trkpt>
      <trkpt lat="36.7427787780762" lon="-5.10314321517944">
        <ele>791</ele>
        <time>2019-05-11T12:00:45Z</time>
      </trkpt>
      <trkpt lat="36.7427635192871" lon="-5.10319519042969">
        <ele>791</ele>
        <time>2019-05-11T12:00:47Z</time>
      </trkpt>
      <trkpt lat="36.7427520751953" lon="-5.10324716567993">
        <ele>791</ele>
        <time>2019-05-11T12:00:49Z</time>
      </trkpt>
      <trkpt lat="36.7427406311035" lon="-5.10330200195312">
        <ele>791</ele>
        <time>2019-05-11T12:00:52Z</time>
      </trkpt>
      <trkpt lat="36.7427291870117" lon="-5.10335779190064">
        <ele>791</ele>
        <time>2019-05-11T12:00:54Z</time>
      </trkpt>
      <trkpt lat="36.7427177429199" lon="-5.10341310501099">
        <ele>791</ele>
        <time>2019-05-11T12:00:56Z</time>
      </trkpt>
      <trkpt lat="36.7427062988281" lon="-5.10346698760986">
        <ele>791</ele>
        <time>2019-05-11T12:00:58Z</time>
      </trkpt>
      <trkpt lat="36.7426910400391" lon="-5.10351514816284">
        <ele>791</ele>
        <time>2019-05-11T12:01:00Z</time>
      </trkpt>
      <trkpt lat="36.7426795959473" lon="-5.10356998443604">
        <ele>791</ele>
        <time>2019-05-11T12:01:02Z</time>
      </trkpt>
      <trkpt lat="36.7426643371582" lon="-5.10362482070923">
        <ele>790</ele>
        <time>2019-05-11T12:01:04Z</time>
      </trkpt>
      <trkpt lat="36.7426452636719" lon="-5.10367679595947">
        <ele>790</ele>
        <time>2019-05-11T12:01:06Z</time>
      </trkpt>
      <trkpt lat="36.7426338195801" lon="-5.10373020172119">
        <ele>790</ele>
        <time>2019-05-11T12:01:08Z</time>
      </trkpt>
      <trkpt lat="36.7426223754883" lon="-5.10378503799438">
        <ele>790</ele>
        <time>2019-05-11T12:01:10Z</time>
      </trkpt>
      <trkpt lat="36.7426071166992" lon="-5.10386991500854">
        <ele>790</ele>
        <time>2019-05-11T12:01:12Z</time>
      </trkpt>
      <trkpt lat="36.7425918579102" lon="-5.1039252281189">
        <ele>789</ele>
        <time>2019-05-11T12:01:14Z</time>
      </trkpt>
      <trkpt lat="36.7425842285156" lon="-5.10398006439209">
        <ele>789</ele>
        <time>2019-05-11T12:01:16Z</time>
      </trkpt>
      <trkpt lat="36.7425727844238" lon="-5.10403299331665">
        <ele>789</ele>
        <time>2019-05-11T12:01:18Z</time>
      </trkpt>
      <trkpt lat="36.742561340332" lon="-5.10408687591553">
        <ele>789</ele>
        <time>2019-05-11T12:01:20Z</time>
      </trkpt>
      <trkpt lat="36.7425537109375" lon="-5.1041431427002">
        <ele>789</ele>
        <time>2019-05-11T12:01:22Z</time>
      </trkpt>
      <trkpt lat="36.7425537109375" lon="-5.10420703887939">
        <ele>789</ele>
        <time>2019-05-11T12:01:24Z</time>
      </trkpt>
      <trkpt lat="36.742546081543" lon="-5.1042652130127">
        <ele>789</ele>
        <time>2019-05-11T12:01:26Z</time>
      </trkpt>
      <trkpt lat="36.7425384521484" lon="-5.10432720184326">
        <ele>789</ele>
        <time>2019-05-11T12:01:29Z</time>
      </trkpt>
      <trkpt lat="36.7425308227539" lon="-5.10438299179077">
        <ele>789</ele>
        <time>2019-05-11T12:01:31Z</time>
      </trkpt>
      <trkpt lat="36.7425193786621" lon="-5.10443782806396">
        <ele>789</ele>
        <time>2019-05-11T12:01:33Z</time>
      </trkpt>
      <trkpt lat="36.7425193786621" lon="-5.10449981689453">
        <ele>789</ele>
        <time>2019-05-11T12:01:35Z</time>
      </trkpt>
      <trkpt lat="36.7425155639648" lon="-5.10455799102783">
        <ele>789</ele>
        <time>2019-05-11T12:01:37Z</time>
      </trkpt>
      <trkpt lat="36.7425117492676" lon="-5.10461807250977">
        <ele>789</ele>
        <time>2019-05-11T12:01:39Z</time>
      </trkpt>
      <trkpt lat="36.7425079345703" lon="-5.10468006134033">
        <ele>789</ele>
        <time>2019-05-11T12:01:41Z</time>
      </trkpt>
      <trkpt lat="36.7425079345703" lon="-5.10474014282227">
        <ele>789</ele>
        <time>2019-05-11T12:01:43Z</time>
      </trkpt>
      <trkpt lat="36.742504119873" lon="-5.10480213165283">
        <ele>789</ele>
        <time>2019-05-11T12:01:45Z</time>
      </trkpt>
      <trkpt lat="36.7424964904785" lon="-5.10485792160034">
        <ele>789</ele>
        <time>2019-05-11T12:01:47Z</time>
      </trkpt>
      <trkpt lat="36.742488861084" lon="-5.10491180419922">
        <ele>789</ele>
        <time>2019-05-11T12:01:49Z</time>
      </trkpt>
      <trkpt lat="36.7424964904785" lon="-5.10500478744507">
        <ele>789</ele>
        <time>2019-05-11T12:01:51Z</time>
      </trkpt>
      <trkpt lat="36.7424926757812" lon="-5.10507202148438">
        <ele>789</ele>
        <time>2019-05-11T12:01:53Z</time>
      </trkpt>
      <trkpt lat="36.7424926757812" lon="-5.10513210296631">
        <ele>789</ele>
        <time>2019-05-11T12:01:55Z</time>
      </trkpt>
      <trkpt lat="36.7424926757812" lon="-5.10518503189087">
        <ele>789</ele>
        <time>2019-05-11T12:01:57Z</time>
      </trkpt>
      <trkpt lat="36.742488861084" lon="-5.10522699356079">
        <ele>789</ele>
        <time>2019-05-11T12:01:59Z</time>
      </trkpt>
      <trkpt lat="36.7424926757812" lon="-5.10527515411377">
        <ele>789</ele>
        <time>2019-05-11T12:02:01Z</time>
      </trkpt>
      <trkpt lat="36.7424812316894" lon="-5.1053318977356">
        <ele>789</ele>
        <time>2019-05-11T12:02:03Z</time>
      </trkpt>
      <trkpt lat="36.7424774169922" lon="-5.10539722442627">
        <ele>789</ele>
        <time>2019-05-11T12:02:05Z</time>
      </trkpt>
      <trkpt lat="36.7424697875977" lon="-5.10545301437378">
        <ele>789</ele>
        <time>2019-05-11T12:02:07Z</time>
      </trkpt>
      <trkpt lat="36.7424621582031" lon="-5.10550689697266">
        <ele>789</ele>
        <time>2019-05-11T12:02:10Z</time>
      </trkpt>
      <trkpt lat="36.7424507141113" lon="-5.10555982589722">
        <ele>789</ele>
        <time>2019-05-11T12:02:12Z</time>
      </trkpt>
      <trkpt lat="36.7424507141113" lon="-5.1056170463562">
        <ele>789</ele>
        <time>2019-05-11T12:02:14Z</time>
      </trkpt>
      <trkpt lat="36.7424430847168" lon="-5.10567283630371">
        <ele>789</ele>
        <time>2019-05-11T12:02:16Z</time>
      </trkpt>
      <trkpt lat="36.7424430847168" lon="-5.10572004318237">
        <ele>789</ele>
        <time>2019-05-11T12:02:18Z</time>
      </trkpt>
      <trkpt lat="36.7424430847168" lon="-5.10577201843262">
        <ele>789</ele>
        <time>2019-05-11T12:02:20Z</time>
      </trkpt>
      <trkpt lat="36.7424392700195" lon="-5.10582304000854">
        <ele>789</ele>
        <time>2019-05-11T12:02:22Z</time>
      </trkpt>
      <trkpt lat="36.742431640625" lon="-5.10588216781616">
        <ele>789</ele>
        <time>2019-05-11T12:02:24Z</time>
      </trkpt>
      <trkpt lat="36.7424354553223" lon="-5.10593795776367">
        <ele>789</ele>
        <time>2019-05-11T12:02:26Z</time>
      </trkpt>
      <trkpt lat="36.742431640625" lon="-5.10599184036255">
        <ele>789</ele>
        <time>2019-05-11T12:02:28Z</time>
      </trkpt>
      <trkpt lat="36.7424392700195" lon="-5.10605001449585">
        <ele>789</ele>
        <time>2019-05-11T12:02:30Z</time>
      </trkpt>
      <trkpt lat="36.7424507141113" lon="-5.10610198974609">
        <ele>789</ele>
        <time>2019-05-11T12:02:32Z</time>
      </trkpt>
      <trkpt lat="36.7424468994141" lon="-5.1061577796936">
        <ele>789</ele>
        <time>2019-05-11T12:02:34Z</time>
      </trkpt>
      <trkpt lat="36.7424392700195" lon="-5.10623502731323">
        <ele>789</ele>
        <time>2019-05-11T12:02:36Z</time>
      </trkpt>
      <trkpt lat="36.742431640625" lon="-5.10628223419189">
        <ele>789</ele>
        <time>2019-05-11T12:02:38Z</time>
      </trkpt>
      <trkpt lat="36.7424278259277" lon="-5.10632991790772">
        <ele>789</ele>
        <time>2019-05-11T12:02:40Z</time>
      </trkpt>
      <trkpt lat="36.7424201965332" lon="-5.10638189315796">
        <ele>789</ele>
        <time>2019-05-11T12:02:42Z</time>
      </trkpt>
      <trkpt lat="36.7424125671387" lon="-5.10643291473389">
        <ele>788</ele>
        <time>2019-05-11T12:02:44Z</time>
      </trkpt>
      <trkpt lat="36.7424049377441" lon="-5.1064829826355">
        <ele>788</ele>
        <time>2019-05-11T12:02:46Z</time>
      </trkpt>
      <trkpt lat="36.7423934936523" lon="-5.10653018951416">
        <ele>786</ele>
        <time>2019-05-11T12:02:48Z</time>
      </trkpt>
      <trkpt lat="36.7423896789551" lon="-5.10657978057861">
        <ele>786</ele>
        <time>2019-05-11T12:02:50Z</time>
      </trkpt>
      <trkpt lat="36.7423896789551" lon="-5.10662794113159">
        <ele>786</ele>
        <time>2019-05-11T12:02:52Z</time>
      </trkpt>
      <trkpt lat="36.7423973083496" lon="-5.10668182373047">
        <ele>786</ele>
        <time>2019-05-11T12:02:54Z</time>
      </trkpt>
      <trkpt lat="36.7423896789551" lon="-5.10673522949219">
        <ele>786</ele>
        <time>2019-05-11T12:02:57Z</time>
      </trkpt>
      <trkpt lat="36.7423896789551" lon="-5.10678482055664">
        <ele>786</ele>
        <time>2019-05-11T12:02:59Z</time>
      </trkpt>
      <trkpt lat="36.7423858642578" lon="-5.10684299468994">
        <ele>786</ele>
        <time>2019-05-11T12:03:01Z</time>
      </trkpt>
      <trkpt lat="36.7423973083496" lon="-5.10690307617188">
        <ele>786</ele>
        <time>2019-05-11T12:03:03Z</time>
      </trkpt>
      <trkpt lat="36.7424125671387" lon="-5.10696315765381">
        <ele>786</ele>
        <time>2019-05-11T12:03:05Z</time>
      </trkpt>
      <trkpt lat="36.7424087524414" lon="-5.10702276229858">
        <ele>786</ele>
        <time>2019-05-11T12:03:07Z</time>
      </trkpt>
      <trkpt lat="36.7424087524414" lon="-5.10708522796631">
        <ele>786</ele>
        <time>2019-05-11T12:03:09Z</time>
      </trkpt>
      <trkpt lat="36.7424125671387" lon="-5.10715198516846">
        <ele>786</ele>
        <time>2019-05-11T12:03:11Z</time>
      </trkpt>
      <trkpt lat="36.7424163818359" lon="-5.10721302032471">
        <ele>786</ele>
        <time>2019-05-11T12:03:13Z</time>
      </trkpt>
      <trkpt lat="36.7424201965332" lon="-5.10727787017822">
        <ele>786</ele>
        <time>2019-05-11T12:03:15Z</time>
      </trkpt>
      <trkpt lat="36.7424201965332" lon="-5.10733509063721">
        <ele>786</ele>
        <time>2019-05-11T12:03:17Z</time>
      </trkpt>
      <trkpt lat="36.7424278259277" lon="-5.10739278793335">
        <ele>786</ele>
        <time>2019-05-11T12:03:19Z</time>
      </trkpt>
      <trkpt lat="36.7424392700195" lon="-5.10748195648193">
        <ele>786</ele>
        <time>2019-05-11T12:03:21Z</time>
      </trkpt>
      <trkpt lat="36.7424468994141" lon="-5.10754203796387">
        <ele>786</ele>
        <time>2019-05-11T12:03:23Z</time>
      </trkpt>
      <trkpt lat="36.7424583435059" lon="-5.10760498046875">
        <ele>786</ele>
        <time>2019-05-11T12:03:25Z</time>
      </trkpt>
      <trkpt lat="36.7424659729004" lon="-5.10766506195068">
        <ele>785</ele>
        <time>2019-05-11T12:03:27Z</time>
      </trkpt>
      <trkpt lat="36.7424812316894" lon="-5.10772323608398">
        <ele>785</ele>
        <time>2019-05-11T12:03:29Z</time>
      </trkpt>
      <trkpt lat="36.7424926757812" lon="-5.10778284072876">
        <ele>784</ele>
        <time>2019-05-11T12:03:31Z</time>
      </trkpt>
      <trkpt lat="36.742504119873" lon="-5.10784292221069">
        <ele>784</ele>
        <time>2019-05-11T12:03:33Z</time>
      </trkpt>
      <trkpt lat="36.7425117492676" lon="-5.10790491104126">
        <ele>784</ele>
        <time>2019-05-11T12:03:35Z</time>
      </trkpt>
      <trkpt lat="36.7425155639648" lon="-5.10796785354614">
        <ele>784</ele>
        <time>2019-05-11T12:03:38Z</time>
      </trkpt>
      <trkpt lat="36.7425155639648" lon="-5.10803318023682">
        <ele>784</ele>
        <time>2019-05-11T12:03:40Z</time>
      </trkpt>
      <trkpt lat="36.7425117492676" lon="-5.10809803009033">
        <ele>784</ele>
        <time>2019-05-11T12:03:42Z</time>
      </trkpt>
      <trkpt lat="36.7424964904785" lon="-5.1081600189209">
        <ele>783</ele>
        <time>2019-05-11T12:03:44Z</time>
      </trkpt>
      <trkpt lat="36.7424812316894" lon="-5.1082181930542">
        <ele>783</ele>
        <time>2019-05-11T12:03:46Z</time>
      </trkpt>
      <trkpt lat="36.7424621582031" lon="-5.10828018188477">
        <ele>783</ele>
        <time>2019-05-11T12:03:48Z</time>
      </trkpt>
      <trkpt lat="36.7424430847168" lon="-5.10834312438965">
        <ele>783</ele>
        <time>2019-05-11T12:03:50Z</time>
      </trkpt>
      <trkpt lat="36.7424354553223" lon="-5.10840797424316">
        <ele>783</ele>
        <time>2019-05-11T12:03:52Z</time>
      </trkpt>
      <trkpt lat="36.742431640625" lon="-5.10847282409668">
        <ele>782</ele>
        <time>2019-05-11T12:03:54Z</time>
      </trkpt>
      <trkpt lat="36.7424163818359" lon="-5.10853815078735">
        <ele>781</ele>
        <time>2019-05-11T12:03:56Z</time>
      </trkpt>
      <trkpt lat="36.7424087524414" lon="-5.10860013961792">
        <ele>781</ele>
        <time>2019-05-11T12:03:58Z</time>
      </trkpt>
      <trkpt lat="36.7423896789551" lon="-5.1086950302124">
        <ele>781</ele>
        <time>2019-05-11T12:04:00Z</time>
      </trkpt>
      <trkpt lat="36.7423820495606" lon="-5.10875988006592">
        <ele>781</ele>
        <time>2019-05-11T12:04:02Z</time>
      </trkpt>
      <trkpt lat="36.7423820495606" lon="-5.10882711410522">
        <ele>781</ele>
        <time>2019-05-11T12:04:04Z</time>
      </trkpt>
      <trkpt lat="36.742374420166" lon="-5.10889005661011">
        <ele>781</ele>
        <time>2019-05-11T12:04:06Z</time>
      </trkpt>
      <trkpt lat="36.7423667907715" lon="-5.10895204544067">
        <ele>781</ele>
        <time>2019-05-11T12:04:08Z</time>
      </trkpt>
      <trkpt lat="36.742359161377" lon="-5.10901308059692">
        <ele>781</ele>
        <time>2019-05-11T12:04:10Z</time>
      </trkpt>
      <trkpt lat="36.7423477172852" lon="-5.10907220840454">
        <ele>780</ele>
        <time>2019-05-11T12:04:12Z</time>
      </trkpt>
      <trkpt lat="36.7423362731934" lon="-5.10912799835205">
        <ele>780</ele>
        <time>2019-05-11T12:04:14Z</time>
      </trkpt>
      <trkpt lat="36.7423324584961" lon="-5.10918998718262">
        <ele>780</ele>
        <time>2019-05-11T12:04:16Z</time>
      </trkpt>
      <trkpt lat="36.7423248291016" lon="-5.10924482345581">
        <ele>780</ele>
        <time>2019-05-11T12:04:19Z</time>
      </trkpt>
      <trkpt lat="36.7423248291016" lon="-5.10931205749512">
        <ele>780</ele>
        <time>2019-05-11T12:04:21Z</time>
      </trkpt>
      <trkpt lat="36.7423210144043" lon="-5.10937690734863">
        <ele>779</ele>
        <time>2019-05-11T12:04:23Z</time>
      </trkpt>
      <trkpt lat="36.7423248291016" lon="-5.10943794250488">
        <ele>779</ele>
        <time>2019-05-11T12:04:25Z</time>
      </trkpt>
      <trkpt lat="36.742317199707" lon="-5.10949516296387">
        <ele>779</ele>
        <time>2019-05-11T12:04:27Z</time>
      </trkpt>
      <trkpt lat="36.7423210144043" lon="-5.10955715179443">
        <ele>778</ele>
        <time>2019-05-11T12:04:29Z</time>
      </trkpt>
      <trkpt lat="36.7423210144043" lon="-5.10961818695068">
        <ele>778</ele>
        <time>2019-05-11T12:04:31Z</time>
      </trkpt>
      <trkpt lat="36.742317199707" lon="-5.10971212387085">
        <ele>777</ele>
        <time>2019-05-11T12:04:33Z</time>
      </trkpt>
      <trkpt lat="36.742317199707" lon="-5.10977220535278">
        <ele>776</ele>
        <time>2019-05-11T12:04:35Z</time>
      </trkpt>
      <trkpt lat="36.742317199707" lon="-5.10982799530029">
        <ele>776</ele>
        <time>2019-05-11T12:04:37Z</time>
      </trkpt>
      <trkpt lat="36.7423210144043" lon="-5.10988283157349">
        <ele>776</ele>
        <time>2019-05-11T12:04:39Z</time>
      </trkpt>
      <trkpt lat="36.7423248291016" lon="-5.10994291305542">
        <ele>776</ele>
        <time>2019-05-11T12:04:41Z</time>
      </trkpt>
      <trkpt lat="36.7423248291016" lon="-5.1100001335144">
        <ele>775</ele>
        <time>2019-05-11T12:04:43Z</time>
      </trkpt>
      <trkpt lat="36.7423210144043" lon="-5.11005687713623">
        <ele>775</ele>
        <time>2019-05-11T12:04:45Z</time>
      </trkpt>
      <trkpt lat="36.7423248291016" lon="-5.11011219024658">
        <ele>775</ele>
        <time>2019-05-11T12:04:47Z</time>
      </trkpt>
      <trkpt lat="36.7423362731934" lon="-5.11016702651978">
        <ele>774</ele>
        <time>2019-05-11T12:04:49Z</time>
      </trkpt>
      <trkpt lat="36.7423439025879" lon="-5.11022520065308">
        <ele>774</ele>
        <time>2019-05-11T12:04:51Z</time>
      </trkpt>
      <trkpt lat="36.7423439025879" lon="-5.1102819442749">
        <ele>774</ele>
        <time>2019-05-11T12:04:54Z</time>
      </trkpt>
      <trkpt lat="36.7423439025879" lon="-5.1103367805481">
        <ele>774</ele>
        <time>2019-05-11T12:04:56Z</time>
      </trkpt>
      <trkpt lat="36.7423439025879" lon="-5.11039304733276">
        <ele>774</ele>
        <time>2019-05-11T12:04:58Z</time>
      </trkpt>
      <trkpt lat="36.7423439025879" lon="-5.11045217514038">
        <ele>774</ele>
        <time>2019-05-11T12:05:00Z</time>
      </trkpt>
      <trkpt lat="36.7423400878906" lon="-5.11050701141357">
        <ele>774</ele>
        <time>2019-05-11T12:05:02Z</time>
      </trkpt>
      <trkpt lat="36.7423362731934" lon="-5.11056804656982">
        <ele>774</ele>
        <time>2019-05-11T12:05:04Z</time>
      </trkpt>
      <trkpt lat="36.7423324584961" lon="-5.11062717437744">
        <ele>774</ele>
        <time>2019-05-11T12:05:06Z</time>
      </trkpt>
      <trkpt lat="36.7423286437988" lon="-5.11068487167358">
        <ele>774</ele>
        <time>2019-05-11T12:05:08Z</time>
      </trkpt>
      <trkpt lat="36.7423286437988" lon="-5.11074304580688">
        <ele>774</ele>
        <time>2019-05-11T12:05:10Z</time>
      </trkpt>
      <trkpt lat="36.7423248291016" lon="-5.11079788208008">
        <ele>774</ele>
        <time>2019-05-11T12:05:12Z</time>
      </trkpt>
      <trkpt lat="36.7423248291016" lon="-5.11088800430298">
        <ele>774</ele>
        <time>2019-05-11T12:05:14Z</time>
      </trkpt>
      <trkpt lat="36.742317199707" lon="-5.11094284057617">
        <ele>774</ele>
        <time>2019-05-11T12:05:16Z</time>
      </trkpt>
      <trkpt lat="36.742317199707" lon="-5.11096811294556">
        <ele>774</ele>
        <time>2019-05-11T12:05:18Z</time>
      </trkpt>
      <trkpt lat="36.7423248291016" lon="-5.11097478866577">
        <ele>774</ele>
        <time>2019-05-11T12:05:20Z</time>
      </trkpt>
      <trkpt lat="36.7423210144043" lon="-5.11098003387451">
        <ele>774</ele>
        <time>2019-05-11T12:05:22Z</time>
      </trkpt>
      <trkpt lat="36.7423133850098" lon="-5.11097478866577">
        <ele>774</ele>
        <time>2019-05-11T12:05:24Z</time>
      </trkpt>
      <trkpt lat="36.7423133850098" lon="-5.11097478866577">
        <ele>774</ele>
        <time>2019-05-11T12:05:26Z</time>
      </trkpt>
      <trkpt lat="36.7423095703125" lon="-5.11097717285156">
        <ele>774</ele>
        <time>2019-05-11T12:05:28Z</time>
      </trkpt>
      <trkpt lat="36.742317199707" lon="-5.11098480224609">
        <ele>774</ele>
        <time>2019-05-11T12:05:31Z</time>
      </trkpt>
      <trkpt lat="36.7423248291016" lon="-5.11100292205811">
        <ele>774</ele>
        <time>2019-05-11T12:05:33Z</time>
      </trkpt>
      <trkpt lat="36.7423286437988" lon="-5.11102819442749">
        <ele>774</ele>
        <time>2019-05-11T12:05:35Z</time>
      </trkpt>
      <trkpt lat="36.7423286437988" lon="-5.11105489730835">
        <ele>774</ele>
        <time>2019-05-11T12:05:37Z</time>
      </trkpt>
      <trkpt lat="36.7423248291016" lon="-5.11108779907227">
        <ele>774</ele>
        <time>2019-05-11T12:05:39Z</time>
      </trkpt>
      <trkpt lat="36.7423248291016" lon="-5.11112308502197">
        <ele>774</ele>
        <time>2019-05-11T12:05:41Z</time>
      </trkpt>
      <trkpt lat="36.7423286437988" lon="-5.11115980148315">
        <ele>774</ele>
        <time>2019-05-11T12:05:43Z</time>
      </trkpt>
      <trkpt lat="36.7423286437988" lon="-5.11119508743286">
        <ele>774</ele>
        <time>2019-05-11T12:05:45Z</time>
      </trkpt>
      <trkpt lat="36.7423286437988" lon="-5.11123323440552">
        <ele>774</ele>
        <time>2019-05-11T12:05:47Z</time>
      </trkpt>
      <trkpt lat="36.7423324584961" lon="-5.11128807067871">
        <ele>774</ele>
        <time>2019-05-11T12:05:49Z</time>
      </trkpt>
      <trkpt lat="36.7423324584961" lon="-5.11132717132568">
        <ele>774</ele>
        <time>2019-05-11T12:05:51Z</time>
      </trkpt>
      <trkpt lat="36.7423324584961" lon="-5.11135816574097">
        <ele>774</ele>
        <time>2019-05-11T12:05:53Z</time>
      </trkpt>
      <trkpt lat="36.7423362731934" lon="-5.11139822006226">
        <ele>774</ele>
        <time>2019-05-11T12:05:55Z</time>
      </trkpt>
      <trkpt lat="36.7423362731934" lon="-5.11144018173218">
        <ele>773</ele>
        <time>2019-05-11T12:05:57Z</time>
      </trkpt>
      <trkpt lat="36.7423400878906" lon="-5.11147785186768">
        <ele>773</ele>
        <time>2019-05-11T12:05:59Z</time>
      </trkpt>
      <trkpt lat="36.7423439025879" lon="-5.11151695251465">
        <ele>772</ele>
        <time>2019-05-11T12:06:01Z</time>
      </trkpt>
      <trkpt lat="36.7423515319824" lon="-5.11155796051025">
        <ele>771</ele>
        <time>2019-05-11T12:06:03Z</time>
      </trkpt>
      <trkpt lat="36.7423553466797" lon="-5.11159706115723">
        <ele>771</ele>
        <time>2019-05-11T12:06:05Z</time>
      </trkpt>
      <trkpt lat="36.7423629760742" lon="-5.11163520812988">
        <ele>771</ele>
        <time>2019-05-11T12:06:07Z</time>
      </trkpt>
      <trkpt lat="36.7423706054688" lon="-5.11167192459106">
        <ele>771</ele>
        <time>2019-05-11T12:06:10Z</time>
      </trkpt>
      <trkpt lat="36.7423782348633" lon="-5.11170816421509">
        <ele>771</ele>
        <time>2019-05-11T12:06:12Z</time>
      </trkpt>
      <trkpt lat="36.7423820495606" lon="-5.1117467880249">
        <ele>771</ele>
        <time>2019-05-11T12:06:14Z</time>
      </trkpt>
      <trkpt lat="36.7423896789551" lon="-5.11178302764893">
        <ele>771</ele>
        <time>2019-05-11T12:06:16Z</time>
      </trkpt>
      <trkpt lat="36.7423934936523" lon="-5.11182022094727">
        <ele>771</ele>
        <time>2019-05-11T12:06:18Z</time>
      </trkpt>
      <trkpt lat="36.7424011230469" lon="-5.1118597984314">
        <ele>771</ele>
        <time>2019-05-11T12:06:20Z</time>
      </trkpt>
      <trkpt lat="36.7424087524414" lon="-5.11189794540405">
        <ele>771</ele>
        <time>2019-05-11T12:06:22Z</time>
      </trkpt>
      <trkpt lat="36.7424125671387" lon="-5.11193799972534">
        <ele>771</ele>
        <time>2019-05-11T12:06:24Z</time>
      </trkpt>
      <trkpt lat="36.7424163818359" lon="-5.11199712753296">
        <ele>771</ele>
        <time>2019-05-11T12:06:26Z</time>
      </trkpt>
      <trkpt lat="36.7424201965332" lon="-5.11203718185425">
        <ele>771</ele>
        <time>2019-05-11T12:06:28Z</time>
      </trkpt>
      <trkpt lat="36.7424240112305" lon="-5.11207485198975">
        <ele>771</ele>
        <time>2019-05-11T12:06:30Z</time>
      </trkpt>
      <trkpt lat="36.7424278259277" lon="-5.1121129989624">
        <ele>771</ele>
        <time>2019-05-11T12:06:32Z</time>
      </trkpt>
      <trkpt lat="36.7424354553223" lon="-5.11215019226074">
        <ele>771</ele>
        <time>2019-05-11T12:06:34Z</time>
      </trkpt>
      <trkpt lat="36.7424430847168" lon="-5.11218690872192">
        <ele>771</ele>
        <time>2019-05-11T12:06:36Z</time>
      </trkpt>
      <trkpt lat="36.7424468994141" lon="-5.11222314834595">
        <ele>771</ele>
        <time>2019-05-11T12:06:38Z</time>
      </trkpt>
      <trkpt lat="36.7424545288086" lon="-5.11225986480713">
        <ele>771</ele>
        <time>2019-05-11T12:06:40Z</time>
      </trkpt>
      <trkpt lat="36.7424583435059" lon="-5.11229515075684">
        <ele>771</ele>
        <time>2019-05-11T12:06:42Z</time>
      </trkpt>
      <trkpt lat="36.7424621582031" lon="-5.11232995986938">
        <ele>771</ele>
        <time>2019-05-11T12:06:45Z</time>
      </trkpt>
      <trkpt lat="36.7424736022949" lon="-5.11236476898193">
        <ele>771</ele>
        <time>2019-05-11T12:06:47Z</time>
      </trkpt>
      <trkpt lat="36.7424774169922" lon="-5.11240005493164">
        <ele>771</ele>
        <time>2019-05-11T12:06:49Z</time>
      </trkpt>
      <trkpt lat="36.7424812316894" lon="-5.11243295669556">
        <ele>771</ele>
        <time>2019-05-11T12:06:51Z</time>
      </trkpt>
      <trkpt lat="36.7424812316894" lon="-5.1124701499939">
        <ele>771</ele>
        <time>2019-05-11T12:06:53Z</time>
      </trkpt>
      <trkpt lat="36.7424850463867" lon="-5.11250495910644">
        <ele>771</ele>
        <time>2019-05-11T12:06:55Z</time>
      </trkpt>
      <trkpt lat="36.742488861084" lon="-5.11253786087036">
        <ele>771</ele>
        <time>2019-05-11T12:06:57Z</time>
      </trkpt>
      <trkpt lat="36.7424926757812" lon="-5.11257696151733">
        <ele>771</ele>
        <time>2019-05-11T12:06:59Z</time>
      </trkpt>
      <trkpt lat="36.7424964904785" lon="-5.11261320114136">
        <ele>771</ele>
        <time>2019-05-11T12:07:01Z</time>
      </trkpt>
      <trkpt lat="36.742504119873" lon="-5.11266803741455">
        <ele>771</ele>
        <time>2019-05-11T12:07:03Z</time>
      </trkpt>
      <trkpt lat="36.742504119873" lon="-5.11270713806152">
        <ele>771</ele>
        <time>2019-05-11T12:07:05Z</time>
      </trkpt>
      <trkpt lat="36.7425117492676" lon="-5.11274194717407">
        <ele>771</ele>
        <time>2019-05-11T12:07:07Z</time>
      </trkpt>
      <trkpt lat="36.7425117492676" lon="-5.1127781867981">
        <ele>771</ele>
        <time>2019-05-11T12:07:09Z</time>
      </trkpt>
      <trkpt lat="36.7425155639648" lon="-5.11281490325928">
        <ele>771</ele>
        <time>2019-05-11T12:07:11Z</time>
      </trkpt>
      <trkpt lat="36.7425193786621" lon="-5.11285305023193">
        <ele>771</ele>
        <time>2019-05-11T12:07:13Z</time>
      </trkpt>
      <trkpt lat="36.7425270080566" lon="-5.11288785934448">
        <ele>771</ele>
        <time>2019-05-11T12:07:15Z</time>
      </trkpt>
      <trkpt lat="36.7425384521484" lon="-5.11292219161987">
        <ele>771</ele>
        <time>2019-05-11T12:07:17Z</time>
      </trkpt>
      <trkpt lat="36.742546081543" lon="-5.11295509338379">
        <ele>771</ele>
        <time>2019-05-11T12:07:19Z</time>
      </trkpt>
      <trkpt lat="36.7425537109375" lon="-5.11298704147339">
        <ele>771</ele>
        <time>2019-05-11T12:07:22Z</time>
      </trkpt>
      <trkpt lat="36.742561340332" lon="-5.11301803588867">
        <ele>771</ele>
        <time>2019-05-11T12:07:24Z</time>
      </trkpt>
      <trkpt lat="36.7425689697266" lon="-5.1130518913269">
        <ele>771</ele>
        <time>2019-05-11T12:07:26Z</time>
      </trkpt>
      <trkpt lat="36.7425765991211" lon="-5.11308288574219">
        <ele>771</ele>
        <time>2019-05-11T12:07:28Z</time>
      </trkpt>
      <trkpt lat="36.7425804138184" lon="-5.11312007904053">
        <ele>771</ele>
        <time>2019-05-11T12:07:30Z</time>
      </trkpt>
      <trkpt lat="36.7425842285156" lon="-5.11315298080444">
        <ele>771</ele>
        <time>2019-05-11T12:07:32Z</time>
      </trkpt>
      <trkpt lat="36.7425918579102" lon="-5.11318778991699">
        <ele>771</ele>
        <time>2019-05-11T12:07:34Z</time>
      </trkpt>
      <trkpt lat="36.7425994873047" lon="-5.1132230758667">
        <ele>771</ele>
        <time>2019-05-11T12:07:36Z</time>
      </trkpt>
      <trkpt lat="36.742603302002" lon="-5.11325788497925">
        <ele>771</ele>
        <time>2019-05-11T12:07:38Z</time>
      </trkpt>
      <trkpt lat="36.7426223754883" lon="-5.11330795288086">
        <ele>771</ele>
        <time>2019-05-11T12:07:40Z</time>
      </trkpt>
      <trkpt lat="36.7426338195801" lon="-5.11333513259888">
        <ele>771</ele>
        <time>2019-05-11T12:07:42Z</time>
      </trkpt>
      <trkpt lat="36.7426567077637" lon="-5.1133599281311">
        <ele>771</ele>
        <time>2019-05-11T12:07:44Z</time>
      </trkpt>
      <trkpt lat="36.7426795959473" lon="-5.11337804794312">
        <ele>771</ele>
        <time>2019-05-11T12:07:46Z</time>
      </trkpt>
      <trkpt lat="36.7427062988281" lon="-5.11338996887207">
        <ele>771</ele>
        <time>2019-05-11T12:07:48Z</time>
      </trkpt>
      <trkpt lat="36.742733001709" lon="-5.11340284347534">
        <ele>771</ele>
        <time>2019-05-11T12:07:50Z</time>
      </trkpt>
      <trkpt lat="36.7427635192871" lon="-5.11340808868408">
        <ele>771</ele>
        <time>2019-05-11T12:07:52Z</time>
      </trkpt>
      <trkpt lat="36.7427940368652" lon="-5.11341190338135">
        <ele>771</ele>
        <time>2019-05-11T12:07:54Z</time>
      </trkpt>
      <trkpt lat="36.7428207397461" lon="-5.11340808868408">
        <ele>771</ele>
        <time>2019-05-11T12:07:56Z</time>
      </trkpt>
      <trkpt lat="36.7428512573242" lon="-5.11340713500977">
        <ele>771</ele>
        <time>2019-05-11T12:07:58Z</time>
      </trkpt>
      <trkpt lat="36.7428817749023" lon="-5.11340284347534">
        <ele>771</ele>
        <time>2019-05-11T12:08:01Z</time>
      </trkpt>
      <trkpt lat="36.7429122924805" lon="-5.11339712142944">
        <ele>771</ele>
        <time>2019-05-11T12:08:03Z</time>
      </trkpt>
      <trkpt lat="36.7429389953613" lon="-5.11338996887207">
        <ele>771</ele>
        <time>2019-05-11T12:08:05Z</time>
      </trkpt>
      <trkpt lat="36.742977142334" lon="-5.11337804794312">
        <ele>771</ele>
        <time>2019-05-11T12:08:07Z</time>
      </trkpt>
      <trkpt lat="36.7430114746094" lon="-5.11336994171143">
        <ele>771</ele>
        <time>2019-05-11T12:08:09Z</time>
      </trkpt>
      <trkpt lat="36.7430458068848" lon="-5.11336278915405">
        <ele>771</ele>
        <time>2019-05-11T12:08:11Z</time>
      </trkpt>
      <trkpt lat="36.7430763244629" lon="-5.11335515975952">
        <ele>771</ele>
        <time>2019-05-11T12:08:13Z</time>
      </trkpt>
      <trkpt lat="36.7431182861328" lon="-5.11334276199341">
        <ele>771</ele>
        <time>2019-05-11T12:08:15Z</time>
      </trkpt>
      <trkpt lat="36.7431640625" lon="-5.11333322525024">
        <ele>771</ele>
        <time>2019-05-11T12:08:17Z</time>
      </trkpt>
      <trkpt lat="36.743236541748" lon="-5.11331176757812">
        <ele>771</ele>
        <time>2019-05-11T12:08:19Z</time>
      </trkpt>
      <trkpt lat="36.743293762207" lon="-5.11329507827759">
        <ele>771</ele>
        <time>2019-05-11T12:08:21Z</time>
      </trkpt>
      <trkpt lat="36.7433433532715" lon="-5.11328315734863">
        <ele>771</ele>
        <time>2019-05-11T12:08:23Z</time>
      </trkpt>
      <trkpt lat="36.7433967590332" lon="-5.11327505111694">
        <ele>771</ele>
        <time>2019-05-11T12:08:25Z</time>
      </trkpt>
      <trkpt lat="36.7434501647949" lon="-5.11326503753662">
        <ele>771</ele>
        <time>2019-05-11T12:08:27Z</time>
      </trkpt>
      <trkpt lat="36.7434997558594" lon="-5.11324977874756">
        <ele>771</ele>
        <time>2019-05-11T12:08:29Z</time>
      </trkpt>
      <trkpt lat="36.7435531616211" lon="-5.11323308944702">
        <ele>771</ele>
        <time>2019-05-11T12:08:31Z</time>
      </trkpt>
      <trkpt lat="36.7436027526856" lon="-5.11321783065796">
        <ele>771</ele>
        <time>2019-05-11T12:08:33Z</time>
      </trkpt>
      <trkpt lat="36.7436485290527" lon="-5.11320209503174">
        <ele>771</ele>
        <time>2019-05-11T12:08:35Z</time>
      </trkpt>
      <trkpt lat="36.7436981201172" lon="-5.11319780349731">
        <ele>771</ele>
        <time>2019-05-11T12:08:38Z</time>
      </trkpt>
      <trkpt lat="36.7437438964844" lon="-5.113196849823">
        <ele>771</ele>
        <time>2019-05-11T12:08:40Z</time>
      </trkpt>
      <trkpt lat="36.7437934875488" lon="-5.11319303512573">
        <ele>771</ele>
        <time>2019-05-11T12:08:42Z</time>
      </trkpt>
      <trkpt lat="36.7438468933106" lon="-5.11318492889404">
        <ele>771</ele>
        <time>2019-05-11T12:08:44Z</time>
      </trkpt>
      <trkpt lat="36.743896484375" lon="-5.11317682266235">
        <ele>771</ele>
        <time>2019-05-11T12:08:46Z</time>
      </trkpt>
      <trkpt lat="36.7439422607422" lon="-5.1131649017334">
        <ele>770</ele>
        <time>2019-05-11T12:08:48Z</time>
      </trkpt>
      <trkpt lat="36.7439956665039" lon="-5.11315202713013">
        <ele>770</ele>
        <time>2019-05-11T12:08:50Z</time>
      </trkpt>
      <trkpt lat="36.7440452575684" lon="-5.11314010620117">
        <ele>770</ele>
        <time>2019-05-11T12:08:52Z</time>
      </trkpt>
      <trkpt lat="36.7440948486328" lon="-5.11313199996948">
        <ele>770</ele>
        <time>2019-05-11T12:08:54Z</time>
      </trkpt>
      <trkpt lat="36.7441444396973" lon="-5.11312198638916">
        <ele>770</ele>
        <time>2019-05-11T12:08:56Z</time>
      </trkpt>
      <trkpt lat="36.744197845459" lon="-5.11311721801758">
        <ele>770</ele>
        <time>2019-05-11T12:08:58Z</time>
      </trkpt>
      <trkpt lat="36.7442665100098" lon="-5.11310291290283">
        <ele>770</ele>
        <time>2019-05-11T12:09:00Z</time>
      </trkpt>
      <trkpt lat="36.7443161010742" lon="-5.11309194564819">
        <ele>770</ele>
        <time>2019-05-11T12:09:02Z</time>
      </trkpt>
      <trkpt lat="36.7443695068359" lon="-5.11308288574219">
        <ele>770</ele>
        <time>2019-05-11T12:09:04Z</time>
      </trkpt>
      <trkpt lat="36.7444152832031" lon="-5.11307287216186">
        <ele>770</ele>
        <time>2019-05-11T12:09:06Z</time>
      </trkpt>
      <trkpt lat="36.7444686889648" lon="-5.11306476593018">
        <ele>770</ele>
        <time>2019-05-11T12:09:08Z</time>
      </trkpt>
      <trkpt lat="36.7445220947266" lon="-5.11305713653564">
        <ele>770</ele>
        <time>2019-05-11T12:09:10Z</time>
      </trkpt>
      <trkpt lat="36.744571685791" lon="-5.1130518913269">
        <ele>769</ele>
        <time>2019-05-11T12:09:12Z</time>
      </trkpt>
      <trkpt lat="36.7446212768555" lon="-5.11303520202637">
        <ele>769</ele>
        <time>2019-05-11T12:09:14Z</time>
      </trkpt>
      <trkpt lat="36.7446708679199" lon="-5.11301708221436">
        <ele>769</ele>
        <time>2019-05-11T12:09:16Z</time>
      </trkpt>
      <trkpt lat="36.7447204589844" lon="-5.11300277709961">
        <ele>769</ele>
        <time>2019-05-11T12:09:19Z</time>
      </trkpt>
      <trkpt lat="36.7447662353516" lon="-5.11299180984497">
        <ele>769</ele>
        <time>2019-05-11T12:09:21Z</time>
      </trkpt>
      <trkpt lat="36.7448081970215" lon="-5.11298322677612">
        <ele>768</ele>
        <time>2019-05-11T12:09:23Z</time>
      </trkpt>
      <trkpt lat="36.7448539733887" lon="-5.11297512054443">
        <ele>768</ele>
        <time>2019-05-11T12:09:25Z</time>
      </trkpt>
      <trkpt lat="36.7448997497559" lon="-5.11295509338379">
        <ele>768</ele>
        <time>2019-05-11T12:09:27Z</time>
      </trkpt>
      <trkpt lat="36.7449531555176" lon="-5.11293315887451">
        <ele>768</ele>
        <time>2019-05-11T12:09:29Z</time>
      </trkpt>
      <trkpt lat="36.7450065612793" lon="-5.11291790008545">
        <ele>767</ele>
        <time>2019-05-11T12:09:31Z</time>
      </trkpt>
      <trkpt lat="36.7450637817383" lon="-5.11290979385376">
        <ele>766</ele>
        <time>2019-05-11T12:09:33Z</time>
      </trkpt>
      <trkpt lat="36.7451133728027" lon="-5.11290502548218">
        <ele>766</ele>
        <time>2019-05-11T12:09:35Z</time>
      </trkpt>
      <trkpt lat="36.7451629638672" lon="-5.1128978729248">
        <ele>766</ele>
        <time>2019-05-11T12:09:37Z</time>
      </trkpt>
      <trkpt lat="36.7452239990234" lon="-5.11288690567017">
        <ele>766</ele>
        <time>2019-05-11T12:09:39Z</time>
      </trkpt>
      <trkpt lat="36.7452621459961" lon="-5.11287498474121">
        <ele>766</ele>
        <time>2019-05-11T12:09:41Z</time>
      </trkpt>
      <trkpt lat="36.7453117370606" lon="-5.11286211013794">
        <ele>766</ele>
        <time>2019-05-11T12:09:43Z</time>
      </trkpt>
      <trkpt lat="36.745361328125" lon="-5.11284685134888">
        <ele>766</ele>
        <time>2019-05-11T12:09:45Z</time>
      </trkpt>
      <trkpt lat="36.7454071044922" lon="-5.11283683776856">
        <ele>766</ele>
        <time>2019-05-11T12:09:47Z</time>
      </trkpt>
      <trkpt lat="36.7454566955566" lon="-5.11282682418823">
        <ele>766</ele>
        <time>2019-05-11T12:09:49Z</time>
      </trkpt>
      <trkpt lat="36.7454948425293" lon="-5.11281776428223">
        <ele>766</ele>
        <time>2019-05-11T12:09:51Z</time>
      </trkpt>
      <trkpt lat="36.745532989502" lon="-5.11281204223633">
        <ele>766</ele>
        <time>2019-05-11T12:09:53Z</time>
      </trkpt>
      <trkpt lat="36.7455635070801" lon="-5.11280298233032">
        <ele>766</ele>
        <time>2019-05-11T12:09:55Z</time>
      </trkpt>
      <trkpt lat="36.7456016540527" lon="-5.11280202865601">
        <ele>766</ele>
        <time>2019-05-11T12:09:58Z</time>
      </trkpt>
      <trkpt lat="36.7456398010254" lon="-5.11280012130737">
        <ele>766</ele>
        <time>2019-05-11T12:10:00Z</time>
      </trkpt>
      <trkpt lat="36.7456817626953" lon="-5.11279010772705">
        <ele>766</ele>
        <time>2019-05-11T12:10:02Z</time>
      </trkpt>
      <trkpt lat="36.7457275390625" lon="-5.11277198791504">
        <ele>766</ele>
        <time>2019-05-11T12:10:04Z</time>
      </trkpt>
      <trkpt lat="36.7457733154297" lon="-5.11275815963745">
        <ele>766</ele>
        <time>2019-05-11T12:10:06Z</time>
      </trkpt>
      <trkpt lat="36.7458229064941" lon="-5.11274194717407">
        <ele>766</ele>
        <time>2019-05-11T12:10:08Z</time>
      </trkpt>
      <trkpt lat="36.7458724975586" lon="-5.11272478103638">
        <ele>766</ele>
        <time>2019-05-11T12:10:10Z</time>
      </trkpt>
      <trkpt lat="36.745922088623" lon="-5.11271286010742">
        <ele>766</ele>
        <time>2019-05-11T12:10:12Z</time>
      </trkpt>
      <trkpt lat="36.7459716796875" lon="-5.11269998550415">
        <ele>766</ele>
        <time>2019-05-11T12:10:14Z</time>
      </trkpt>
      <trkpt lat="36.746036529541" lon="-5.11268186569214">
        <ele>766</ele>
        <time>2019-05-11T12:10:16Z</time>
      </trkpt>
      <trkpt lat="36.7460784912109" lon="-5.11266708374023">
        <ele>766</ele>
        <time>2019-05-11T12:10:18Z</time>
      </trkpt>
      <trkpt lat="36.7461204528809" lon="-5.11264705657959">
        <ele>766</ele>
        <time>2019-05-11T12:10:20Z</time>
      </trkpt>
      <trkpt lat="36.7461624145508" lon="-5.112633228302">
        <ele>766</ele>
        <time>2019-05-11T12:10:22Z</time>
      </trkpt>
      <trkpt lat="36.7462120056152" lon="-5.11262989044189">
        <ele>766</ele>
        <time>2019-05-11T12:10:24Z</time>
      </trkpt>
      <trkpt lat="36.746265411377" lon="-5.11261987686157">
        <ele>766</ele>
        <time>2019-05-11T12:10:26Z</time>
      </trkpt>
      <trkpt lat="36.7463111877441" lon="-5.1126070022583">
        <ele>766</ele>
        <time>2019-05-11T12:10:28Z</time>
      </trkpt>
      <trkpt lat="36.7463569641113" lon="-5.1125979423523">
        <ele>766</ele>
        <time>2019-05-11T12:10:30Z</time>
      </trkpt>
      <trkpt lat="36.7463989257812" lon="-5.11259317398071">
        <ele>766</ele>
        <time>2019-05-11T12:10:32Z</time>
      </trkpt>
      <trkpt lat="36.7464447021484" lon="-5.11257982254028">
        <ele>766</ele>
        <time>2019-05-11T12:10:35Z</time>
      </trkpt>
      <trkpt lat="36.7464866638184" lon="-5.11256790161133">
        <ele>766</ele>
        <time>2019-05-11T12:10:37Z</time>
      </trkpt>
      <trkpt lat="36.7465362548828" lon="-5.11254787445068">
        <ele>766</ele>
        <time>2019-05-11T12:10:39Z</time>
      </trkpt>
      <trkpt lat="36.74658203125" lon="-5.11253213882446">
        <ele>766</ele>
        <time>2019-05-11T12:10:41Z</time>
      </trkpt>
      <trkpt lat="36.7466316223144" lon="-5.11251497268677">
        <ele>766</ele>
        <time>2019-05-11T12:10:43Z</time>
      </trkpt>
      <trkpt lat="36.7466773986816" lon="-5.11249780654907">
        <ele>766</ele>
        <time>2019-05-11T12:10:45Z</time>
      </trkpt>
      <trkpt lat="36.7467193603516" lon="-5.11248683929443">
        <ele>766</ele>
        <time>2019-05-11T12:10:47Z</time>
      </trkpt>
      <trkpt lat="36.7467651367188" lon="-5.11247205734253">
        <ele>766</ele>
        <time>2019-05-11T12:10:49Z</time>
      </trkpt>
      <trkpt lat="36.7468109130859" lon="-5.11245822906494">
        <ele>766</ele>
        <time>2019-05-11T12:10:51Z</time>
      </trkpt>
      <trkpt lat="36.746883392334" lon="-5.11243009567261">
        <ele>766</ele>
        <time>2019-05-11T12:10:53Z</time>
      </trkpt>
      <trkpt lat="36.7469329833984" lon="-5.1124119758606">
        <ele>766</ele>
        <time>2019-05-11T12:10:55Z</time>
      </trkpt>
      <trkpt lat="36.7469749450684" lon="-5.1123948097229">
        <ele>766</ele>
        <time>2019-05-11T12:10:57Z</time>
      </trkpt>
      <trkpt lat="36.7470054626465" lon="-5.11238288879394">
        <ele>766</ele>
        <time>2019-05-11T12:10:59Z</time>
      </trkpt>
      <trkpt lat="36.7470321655273" lon="-5.11237192153931">
        <ele>766</ele>
        <time>2019-05-11T12:11:01Z</time>
      </trkpt>
      <trkpt lat="36.7470588684082" lon="-5.11236000061035">
        <ele>766</ele>
        <time>2019-05-11T12:11:03Z</time>
      </trkpt>
      <trkpt lat="36.7470855712891" lon="-5.11234521865845">
        <ele>766</ele>
        <time>2019-05-11T12:11:05Z</time>
      </trkpt>
      <trkpt lat="36.7471122741699" lon="-5.11233282089233">
        <ele>766</ele>
        <time>2019-05-11T12:11:07Z</time>
      </trkpt>
      <trkpt lat="36.7471389770508" lon="-5.11231708526611">
        <ele>766</ele>
        <time>2019-05-11T12:11:09Z</time>
      </trkpt>
      <trkpt lat="36.7471694946289" lon="-5.11230278015137">
        <ele>766</ele>
        <time>2019-05-11T12:11:12Z</time>
      </trkpt>
      <trkpt lat="36.7471961975098" lon="-5.11228799819946">
        <ele>766</ele>
        <time>2019-05-11T12:11:14Z</time>
      </trkpt>
      <trkpt lat="36.7472229003906" lon="-5.11227321624756">
        <ele>766</ele>
        <time>2019-05-11T12:11:16Z</time>
      </trkpt>
      <trkpt lat="36.7472457885742" lon="-5.1122579574585">
        <ele>766</ele>
        <time>2019-05-11T12:11:18Z</time>
      </trkpt>
      <trkpt lat="36.7472686767578" lon="-5.11223983764648">
        <ele>766</ele>
        <time>2019-05-11T12:11:20Z</time>
      </trkpt>
      <trkpt lat="36.7472991943359" lon="-5.11222505569458">
        <ele>766</ele>
        <time>2019-05-11T12:11:22Z</time>
      </trkpt>
      <trkpt lat="36.7473258972168" lon="-5.11220788955688">
        <ele>766</ele>
        <time>2019-05-11T12:11:24Z</time>
      </trkpt>
      <trkpt lat="36.7473564147949" lon="-5.11219215393066">
        <ele>766</ele>
        <time>2019-05-11T12:11:26Z</time>
      </trkpt>
      <trkpt lat="36.7473831176758" lon="-5.11217308044434">
        <ele>766</ele>
        <time>2019-05-11T12:11:28Z</time>
      </trkpt>
      <trkpt lat="36.7474212646484" lon="-5.11215209960938">
        <ele>766</ele>
        <time>2019-05-11T12:11:30Z</time>
      </trkpt>
      <trkpt lat="36.7474517822266" lon="-5.11213493347168">
        <ele>766</ele>
        <time>2019-05-11T12:11:32Z</time>
      </trkpt>
      <trkpt lat="36.7474784851074" lon="-5.11212205886841">
        <ele>766</ele>
        <time>2019-05-11T12:11:34Z</time>
      </trkpt>
      <trkpt lat="36.7475051879883" lon="-5.11211013793945">
        <ele>766</ele>
        <time>2019-05-11T12:11:36Z</time>
      </trkpt>
      <trkpt lat="36.7475318908691" lon="-5.11210012435913">
        <ele>766</ele>
        <time>2019-05-11T12:11:38Z</time>
      </trkpt>
      <trkpt lat="36.7475509643555" lon="-5.11208200454712">
        <ele>766</ele>
        <time>2019-05-11T12:11:40Z</time>
      </trkpt>
      <trkpt lat="36.7475738525391" lon="-5.11207008361816">
        <ele>766</ele>
        <time>2019-05-11T12:11:42Z</time>
      </trkpt>
      <trkpt lat="36.7475929260254" lon="-5.11205005645752">
        <ele>766</ele>
        <time>2019-05-11T12:11:44Z</time>
      </trkpt>
      <trkpt lat="36.747615814209" lon="-5.11203193664551">
        <ele>766</ele>
        <time>2019-05-11T12:11:46Z</time>
      </trkpt>
      <trkpt lat="36.7476387023926" lon="-5.11201286315918">
        <ele>766</ele>
        <time>2019-05-11T12:11:49Z</time>
      </trkpt>
      <trkpt lat="36.7476615905762" lon="-5.11199808120728">
        <ele>766</ele>
        <time>2019-05-11T12:11:51Z</time>
      </trkpt>
      <trkpt lat="36.747688293457" lon="-5.1119818687439">
        <ele>766</ele>
        <time>2019-05-11T12:11:53Z</time>
      </trkpt>
      <trkpt lat="36.7477188110352" lon="-5.11196517944336">
        <ele>766</ele>
        <time>2019-05-11T12:11:55Z</time>
      </trkpt>
      <trkpt lat="36.7477493286133" lon="-5.11194515228272">
        <ele>766</ele>
        <time>2019-05-11T12:11:57Z</time>
      </trkpt>
      <trkpt lat="36.7477760314941" lon="-5.11192798614502">
        <ele>766</ele>
        <time>2019-05-11T12:11:59Z</time>
      </trkpt>
      <trkpt lat="36.747802734375" lon="-5.11191701889038">
        <ele>766</ele>
        <time>2019-05-11T12:12:01Z</time>
      </trkpt>
      <trkpt lat="36.7478294372559" lon="-5.11190223693848">
        <ele>766</ele>
        <time>2019-05-11T12:12:03Z</time>
      </trkpt>
      <trkpt lat="36.7478561401367" lon="-5.11189222335815">
        <ele>766</ele>
        <time>2019-05-11T12:12:05Z</time>
      </trkpt>
      <trkpt lat="36.7479019165039" lon="-5.11187314987183">
        <ele>766</ele>
        <time>2019-05-11T12:12:07Z</time>
      </trkpt>
      <trkpt lat="36.7479286193848" lon="-5.11185312271118">
        <ele>766</ele>
        <time>2019-05-11T12:12:09Z</time>
      </trkpt>
      <trkpt lat="36.7479553222656" lon="-5.11184215545654">
        <ele>765</ele>
        <time>2019-05-11T12:12:11Z</time>
      </trkpt>
      <trkpt lat="36.7479820251465" lon="-5.11183309555054">
        <ele>765</ele>
        <time>2019-05-11T12:12:13Z</time>
      </trkpt>
      <trkpt lat="36.7480087280273" lon="-5.11182498931885">
        <ele>765</ele>
        <time>2019-05-11T12:12:15Z</time>
      </trkpt>
      <trkpt lat="36.7480316162109" lon="-5.11181306838989">
        <ele>765</ele>
        <time>2019-05-11T12:12:17Z</time>
      </trkpt>
      <trkpt lat="36.7480583190918" lon="-5.11180305480957">
        <ele>765</ele>
        <time>2019-05-11T12:12:19Z</time>
      </trkpt>
      <trkpt lat="36.7480888366699" lon="-5.11179208755493">
        <ele>764</ele>
        <time>2019-05-11T12:12:21Z</time>
      </trkpt>
      <trkpt lat="36.7481155395508" lon="-5.11178302764893">
        <ele>764</ele>
        <time>2019-05-11T12:12:23Z</time>
      </trkpt>
      <trkpt lat="36.7481422424316" lon="-5.11176776885986">
        <ele>764</ele>
        <time>2019-05-11T12:12:26Z</time>
      </trkpt>
      <trkpt lat="36.7481727600098" lon="-5.11175298690796">
        <ele>764</ele>
        <time>2019-05-11T12:12:28Z</time>
      </trkpt>
      <trkpt lat="36.7481994628906" lon="-5.11173820495606">
        <ele>764</ele>
        <time>2019-05-11T12:12:30Z</time>
      </trkpt>
      <trkpt lat="36.7482299804688" lon="-5.11172294616699">
        <ele>764</ele>
        <time>2019-05-11T12:12:32Z</time>
      </trkpt>
      <trkpt lat="36.7482528686523" lon="-5.11171293258667">
        <ele>764</ele>
        <time>2019-05-11T12:12:34Z</time>
      </trkpt>
      <trkpt lat="36.7482757568359" lon="-5.11169481277466">
        <ele>764</ele>
        <time>2019-05-11T12:12:36Z</time>
      </trkpt>
      <trkpt lat="36.7483024597168" lon="-5.11168003082275">
        <ele>763</ele>
        <time>2019-05-11T12:12:38Z</time>
      </trkpt>
      <trkpt lat="36.7483291625977" lon="-5.11166286468506">
        <ele>763</ele>
        <time>2019-05-11T12:12:40Z</time>
      </trkpt>
      <trkpt lat="36.7483711242676" lon="-5.11163520812988">
        <ele>763</ele>
        <time>2019-05-11T12:12:42Z</time>
      </trkpt>
      <trkpt lat="36.7483940124512" lon="-5.11162185668945">
        <ele>763</ele>
        <time>2019-05-11T12:12:44Z</time>
      </trkpt>
      <trkpt lat="36.748420715332" lon="-5.11161184310913">
        <ele>761</ele>
        <time>2019-05-11T12:12:46Z</time>
      </trkpt>
      <trkpt lat="36.7484436035156" lon="-5.11159992218018">
        <ele>761</ele>
        <time>2019-05-11T12:12:48Z</time>
      </trkpt>
      <trkpt lat="36.7484664916992" lon="-5.11159706115723">
        <ele>761</ele>
        <time>2019-05-11T12:12:50Z</time>
      </trkpt>
      <trkpt lat="36.7484931945801" lon="-5.11159801483154">
        <ele>761</ele>
        <time>2019-05-11T12:12:52Z</time>
      </trkpt>
      <trkpt lat="36.7485198974609" lon="-5.11160278320312">
        <ele>761</ele>
        <time>2019-05-11T12:12:54Z</time>
      </trkpt>
      <trkpt lat="36.7485504150391" lon="-5.1116099357605">
        <ele>761</ele>
        <time>2019-05-11T12:12:56Z</time>
      </trkpt>
      <trkpt lat="36.7485771179199" lon="-5.11162185668945">
        <ele>761</ele>
        <time>2019-05-11T12:12:58Z</time>
      </trkpt>
      <trkpt lat="36.748607635498" lon="-5.11162996292114">
        <ele>761</ele>
        <time>2019-05-11T12:13:01Z</time>
      </trkpt>
      <trkpt lat="36.7486343383789" lon="-5.11163520812988">
        <ele>761</ele>
        <time>2019-05-11T12:13:03Z</time>
      </trkpt>
      <trkpt lat="36.748664855957" lon="-5.11163187026978">
        <ele>761</ele>
        <time>2019-05-11T12:13:05Z</time>
      </trkpt>
      <trkpt lat="36.7486915588379" lon="-5.11163187026978">
        <ele>761</ele>
        <time>2019-05-11T12:13:07Z</time>
      </trkpt>
      <trkpt lat="36.748722076416" lon="-5.11162710189819">
        <ele>761</ele>
        <time>2019-05-11T12:13:09Z</time>
      </trkpt>
      <trkpt lat="36.7487487792969" lon="-5.11161708831787">
        <ele>761</ele>
        <time>2019-05-11T12:13:11Z</time>
      </trkpt>
      <trkpt lat="36.748779296875" lon="-5.11160802841186">
        <ele>761</ele>
        <time>2019-05-11T12:13:13Z</time>
      </trkpt>
      <trkpt lat="36.7488059997559" lon="-5.11159706115723">
        <ele>761</ele>
        <time>2019-05-11T12:13:15Z</time>
      </trkpt>
      <trkpt lat="36.7488441467285" lon="-5.1115779876709">
        <ele>761</ele>
        <time>2019-05-11T12:13:17Z</time>
      </trkpt>
      <trkpt lat="36.7488708496094" lon="-5.11156177520752">
        <ele>761</ele>
        <time>2019-05-11T12:13:19Z</time>
      </trkpt>
      <trkpt lat="36.7488975524902" lon="-5.11154985427856">
        <ele>761</ele>
        <time>2019-05-11T12:13:21Z</time>
      </trkpt>
      <trkpt lat="36.7489204406738" lon="-5.11153316497803">
        <ele>761</ele>
        <time>2019-05-11T12:13:23Z</time>
      </trkpt>
      <trkpt lat="36.7489547729492" lon="-5.11152219772339">
        <ele>761</ele>
        <time>2019-05-11T12:13:25Z</time>
      </trkpt>
      <trkpt lat="36.7489814758301" lon="-5.11151504516602">
        <ele>761</ele>
        <time>2019-05-11T12:13:27Z</time>
      </trkpt>
      <trkpt lat="36.7490081787109" lon="-5.11150312423706">
        <ele>761</ele>
        <time>2019-05-11T12:13:29Z</time>
      </trkpt>
      <trkpt lat="36.7490386962891" lon="-5.11149311065674">
        <ele>761</ele>
        <time>2019-05-11T12:13:31Z</time>
      </trkpt>
      <trkpt lat="36.7490692138672" lon="-5.1114821434021">
        <ele>761</ele>
        <time>2019-05-11T12:13:33Z</time>
      </trkpt>
      <trkpt lat="36.749095916748" lon="-5.11146783828735">
        <ele>761</ele>
        <time>2019-05-11T12:13:36Z</time>
      </trkpt>
      <trkpt lat="36.7491226196289" lon="-5.11145687103272">
        <ele>761</ele>
        <time>2019-05-11T12:13:38Z</time>
      </trkpt>
      <trkpt lat="36.7491455078125" lon="-5.11144208908081">
        <ele>761</ele>
        <time>2019-05-11T12:13:40Z</time>
      </trkpt>
      <trkpt lat="36.7491760253906" lon="-5.11142683029175">
        <ele>761</ele>
        <time>2019-05-11T12:13:42Z</time>
      </trkpt>
      <trkpt lat="36.7492027282715" lon="-5.11141204833984">
        <ele>761</ele>
        <time>2019-05-11T12:13:44Z</time>
      </trkpt>
      <trkpt lat="36.7492294311523" lon="-5.11139822006226">
        <ele>761</ele>
        <time>2019-05-11T12:13:46Z</time>
      </trkpt>
      <trkpt lat="36.7492599487305" lon="-5.11139011383057">
        <ele>761</ele>
        <time>2019-05-11T12:13:48Z</time>
      </trkpt>
      <trkpt lat="36.7492866516113" lon="-5.11138010025024">
        <ele>761</ele>
        <time>2019-05-11T12:13:50Z</time>
      </trkpt>
      <trkpt lat="36.7493362426758" lon="-5.11136198043823">
        <ele>761</ele>
        <time>2019-05-11T12:13:52Z</time>
      </trkpt>
      <trkpt lat="36.7493667602539" lon="-5.11135005950928">
        <ele>761</ele>
        <time>2019-05-11T12:13:54Z</time>
      </trkpt>
      <trkpt lat="36.7493934631348" lon="-5.11133718490601">
        <ele>761</ele>
        <time>2019-05-11T12:13:56Z</time>
      </trkpt>
      <trkpt lat="36.7494201660156" lon="-5.11132478713989">
        <ele>761</ele>
        <time>2019-05-11T12:13:58Z</time>
      </trkpt>
      <trkpt lat="36.7494506835938" lon="-5.11131477355957">
        <ele>761</ele>
        <time>2019-05-11T12:14:00Z</time>
      </trkpt>
      <trkpt lat="36.7494812011719" lon="-5.11130285263062">
        <ele>761</ele>
        <time>2019-05-11T12:14:02Z</time>
      </trkpt>
      <trkpt lat="36.7495079040527" lon="-5.11129283905029">
        <ele>761</ele>
        <time>2019-05-11T12:14:04Z</time>
      </trkpt>
      <trkpt lat="36.7495346069336" lon="-5.11127996444702">
        <ele>761</ele>
        <time>2019-05-11T12:14:06Z</time>
      </trkpt>
      <trkpt lat="36.7495613098144" lon="-5.11126804351807">
        <ele>761</ele>
        <time>2019-05-11T12:14:08Z</time>
      </trkpt>
      <trkpt lat="36.749584197998" lon="-5.11125707626343">
        <ele>761</ele>
        <time>2019-05-11T12:14:11Z</time>
      </trkpt>
      <trkpt lat="36.7496070861816" lon="-5.11124706268311">
        <ele>761</ele>
        <time>2019-05-11T12:14:13Z</time>
      </trkpt>
      <trkpt lat="36.7496376037598" lon="-5.11123514175415">
        <ele>761</ele>
        <time>2019-05-11T12:14:15Z</time>
      </trkpt>
      <trkpt lat="36.7496643066406" lon="-5.11122512817383">
        <ele>761</ele>
        <time>2019-05-11T12:14:17Z</time>
      </trkpt>
      <trkpt lat="36.7496948242188" lon="-5.11121320724487">
        <ele>761</ele>
        <time>2019-05-11T12:14:19Z</time>
      </trkpt>
      <trkpt lat="36.7497177124023" lon="-5.11119794845581">
        <ele>761</ele>
        <time>2019-05-11T12:14:21Z</time>
      </trkpt>
      <trkpt lat="36.7497406005859" lon="-5.11118507385254">
        <ele>761</ele>
        <time>2019-05-11T12:14:23Z</time>
      </trkpt>
      <trkpt lat="36.7497711181641" lon="-5.11116981506348">
        <ele>761</ele>
        <time>2019-05-11T12:14:25Z</time>
      </trkpt>
      <trkpt lat="36.749813079834" lon="-5.11114692687988">
        <ele>761</ele>
        <time>2019-05-11T12:14:27Z</time>
      </trkpt>
      <trkpt lat="36.7498435974121" lon="-5.1111330986023">
        <ele>761</ele>
        <time>2019-05-11T12:14:29Z</time>
      </trkpt>
      <trkpt lat="36.749870300293" lon="-5.11112022399902">
        <ele>761</ele>
        <time>2019-05-11T12:14:31Z</time>
      </trkpt>
      <trkpt lat="36.7498931884766" lon="-5.11110687255859">
        <ele>761</ele>
        <time>2019-05-11T12:14:33Z</time>
      </trkpt>
      <trkpt lat="36.7499198913574" lon="-5.11109018325806">
        <ele>761</ele>
        <time>2019-05-11T12:14:35Z</time>
      </trkpt>
      <trkpt lat="36.7499465942383" lon="-5.11107683181763">
        <ele>761</ele>
        <time>2019-05-11T12:14:37Z</time>
      </trkpt>
      <trkpt lat="36.7499694824219" lon="-5.11106204986572">
        <ele>761</ele>
        <time>2019-05-11T12:14:39Z</time>
      </trkpt>
      <trkpt lat="36.7499961853027" lon="-5.11104488372803">
        <ele>761</ele>
        <time>2019-05-11T12:14:41Z</time>
      </trkpt>
      <trkpt lat="36.7500190734863" lon="-5.11102294921875">
        <ele>761</ele>
        <time>2019-05-11T12:14:43Z</time>
      </trkpt>
      <trkpt lat="36.7500457763672" lon="-5.11100482940674">
        <ele>761</ele>
        <time>2019-05-11T12:14:45Z</time>
      </trkpt>
      <trkpt lat="36.7500686645508" lon="-5.11098194122314">
        <ele>762</ele>
        <time>2019-05-11T12:14:48Z</time>
      </trkpt>
      <trkpt lat="36.7500915527344" lon="-5.11096000671387">
        <ele>762</ele>
        <time>2019-05-11T12:14:50Z</time>
      </trkpt>
      <trkpt lat="36.7501182556152" lon="-5.11093711853027">
        <ele>763</ele>
        <time>2019-05-11T12:14:52Z</time>
      </trkpt>
      <trkpt lat="36.7501411437988" lon="-5.110915184021">
        <ele>763</ele>
        <time>2019-05-11T12:14:54Z</time>
      </trkpt>
      <trkpt lat="36.7501602172852" lon="-5.11089181900024">
        <ele>764</ele>
        <time>2019-05-11T12:14:56Z</time>
      </trkpt>
      <trkpt lat="36.7501831054688" lon="-5.11086797714233">
        <ele>764</ele>
        <time>2019-05-11T12:14:58Z</time>
      </trkpt>
      <trkpt lat="36.7502059936523" lon="-5.11084699630737">
        <ele>764</ele>
        <time>2019-05-11T12:15:00Z</time>
      </trkpt>
      <trkpt lat="36.7502288818359" lon="-5.11082220077515">
        <ele>764</ele>
        <time>2019-05-11T12:15:02Z</time>
      </trkpt>
      <trkpt lat="36.7502632141113" lon="-5.11078310012817">
        <ele>764</ele>
        <time>2019-05-11T12:15:04Z</time>
      </trkpt>
      <trkpt lat="36.7502861022949" lon="-5.11075782775879">
        <ele>764</ele>
        <time>2019-05-11T12:15:06Z</time>
      </trkpt>
      <trkpt lat="36.7503089904785" lon="-5.1107349395752">
        <ele>764</ele>
        <time>2019-05-11T12:15:08Z</time>
      </trkpt>
      <trkpt lat="36.7503356933594" lon="-5.1107120513916">
        <ele>764</ele>
        <time>2019-05-11T12:15:10Z</time>
      </trkpt>
      <trkpt lat="36.7503547668457" lon="-5.11068296432495">
        <ele>764</ele>
        <time>2019-05-11T12:15:12Z</time>
      </trkpt>
      <trkpt lat="36.7503776550293" lon="-5.11065816879272">
        <ele>764</ele>
        <time>2019-05-11T12:15:14Z</time>
      </trkpt>
      <trkpt lat="36.7504005432129" lon="-5.11063289642334">
        <ele>764</ele>
        <time>2019-05-11T12:15:16Z</time>
      </trkpt>
      <trkpt lat="36.7504234313965" lon="-5.11061000823975">
        <ele>764</ele>
        <time>2019-05-11T12:15:18Z</time>
      </trkpt>
      <trkpt lat="36.7504463195801" lon="-5.11058712005615">
        <ele>764</ele>
        <time>2019-05-11T12:15:20Z</time>
      </trkpt>
      <trkpt lat="36.7504730224609" lon="-5.11056184768677">
        <ele>764</ele>
        <time>2019-05-11T12:15:23Z</time>
      </trkpt>
      <trkpt lat="36.7504959106445" lon="-5.11053705215454">
        <ele>764</ele>
        <time>2019-05-11T12:15:25Z</time>
      </trkpt>
      <trkpt lat="36.7505187988281" lon="-5.11050796508789">
        <ele>764</ele>
        <time>2019-05-11T12:15:27Z</time>
      </trkpt>
      <trkpt lat="36.750545501709" lon="-5.11048316955566">
        <ele>764</ele>
        <time>2019-05-11T12:15:29Z</time>
      </trkpt>
      <trkpt lat="36.7505722045898" lon="-5.11044979095459">
        <ele>764</ele>
        <time>2019-05-11T12:15:31Z</time>
      </trkpt>
      <trkpt lat="36.7505950927734" lon="-5.11042499542236">
        <ele>764</ele>
        <time>2019-05-11T12:15:33Z</time>
      </trkpt>
      <trkpt lat="36.750617980957" lon="-5.11039686203003">
        <ele>764</ele>
        <time>2019-05-11T12:15:35Z</time>
      </trkpt>
      <trkpt lat="36.7506370544434" lon="-5.11036777496338">
        <ele>764</ele>
        <time>2019-05-11T12:15:37Z</time>
      </trkpt>
      <trkpt lat="36.7506675720215" lon="-5.11033010482788">
        <ele>764</ele>
        <time>2019-05-11T12:15:39Z</time>
      </trkpt>
      <trkpt lat="36.7506942749023" lon="-5.1103048324585">
        <ele>764</ele>
        <time>2019-05-11T12:15:41Z</time>
      </trkpt>
      <trkpt lat="36.7507171630859" lon="-5.1102819442749">
        <ele>764</ele>
        <time>2019-05-11T12:15:43Z</time>
      </trkpt>
      <trkpt lat="36.7507476806641" lon="-5.11026191711426">
        <ele>764</ele>
        <time>2019-05-11T12:15:45Z</time>
      </trkpt>
      <trkpt lat="36.7507743835449" lon="-5.11024188995361">
        <ele>764</ele>
        <time>2019-05-11T12:15:47Z</time>
      </trkpt>
      <trkpt lat="36.7508010864258" lon="-5.11022186279297">
        <ele>764</ele>
        <time>2019-05-11T12:15:49Z</time>
      </trkpt>
      <trkpt lat="36.7508239746094" lon="-5.11019706726074">
        <ele>764</ele>
        <time>2019-05-11T12:15:51Z</time>
      </trkpt>
      <trkpt lat="36.7508506774902" lon="-5.11017513275146">
        <ele>764</ele>
        <time>2019-05-11T12:15:53Z</time>
      </trkpt>
      <trkpt lat="36.7508735656738" lon="-5.11015319824219">
        <ele>764</ele>
        <time>2019-05-11T12:15:55Z</time>
      </trkpt>
      <trkpt lat="36.7508964538574" lon="-5.11013507843018">
        <ele>764</ele>
        <time>2019-05-11T12:15:58Z</time>
      </trkpt>
      <trkpt lat="36.7509231567383" lon="-5.11011505126953">
        <ele>764</ele>
        <time>2019-05-11T12:16:00Z</time>
      </trkpt>
      <trkpt lat="36.7509460449219" lon="-5.11009502410889">
        <ele>764</ele>
        <time>2019-05-11T12:16:02Z</time>
      </trkpt>
      <trkpt lat="36.7509689331055" lon="-5.11007499694824">
        <ele>764</ele>
        <time>2019-05-11T12:16:04Z</time>
      </trkpt>
      <trkpt lat="36.7509918212891" lon="-5.11005687713623">
        <ele>764</ele>
        <time>2019-05-11T12:16:06Z</time>
      </trkpt>
      <trkpt lat="36.7510185241699" lon="-5.1100378036499">
        <ele>764</ele>
        <time>2019-05-11T12:16:08Z</time>
      </trkpt>
      <trkpt lat="36.7510414123535" lon="-5.11002016067505">
        <ele>764</ele>
        <time>2019-05-11T12:16:10Z</time>
      </trkpt>
      <trkpt lat="36.7510643005371" lon="-5.11000204086304">
        <ele>764</ele>
        <time>2019-05-11T12:16:12Z</time>
      </trkpt>
      <trkpt lat="36.7510986328125" lon="-5.10997200012207">
        <ele>764</ele>
        <time>2019-05-11T12:16:14Z</time>
      </trkpt>
      <trkpt lat="36.7511215209961" lon="-5.10995292663574">
        <ele>764</ele>
        <time>2019-05-11T12:16:16Z</time>
      </trkpt>
      <trkpt lat="36.751148223877" lon="-5.10993194580078">
        <ele>764</ele>
        <time>2019-05-11T12:16:18Z</time>
      </trkpt>
      <trkpt lat="36.7511711120606" lon="-5.10990810394287">
        <ele>764</ele>
        <time>2019-05-11T12:16:20Z</time>
      </trkpt>
      <trkpt lat="36.7511901855469" lon="-5.10988283157349">
        <ele>764</ele>
        <time>2019-05-11T12:16:22Z</time>
      </trkpt>
      <trkpt lat="36.7512168884277" lon="-5.10985803604126">
        <ele>764</ele>
        <time>2019-05-11T12:16:24Z</time>
      </trkpt>
      <trkpt lat="36.7512435913086" lon="-5.1098370552063">
        <ele>764</ele>
        <time>2019-05-11T12:16:26Z</time>
      </trkpt>
      <trkpt lat="36.7512702941894" lon="-5.10981702804565">
        <ele>764</ele>
        <time>2019-05-11T12:16:28Z</time>
      </trkpt>
      <trkpt lat="36.7512969970703" lon="-5.10979509353638">
        <ele>764</ele>
        <time>2019-05-11T12:16:30Z</time>
      </trkpt>
      <trkpt lat="36.7513275146484" lon="-5.10977697372436">
        <ele>764</ele>
        <time>2019-05-11T12:16:33Z</time>
      </trkpt>
      <trkpt lat="36.7513580322266" lon="-5.10975980758667">
        <ele>764</ele>
        <time>2019-05-11T12:16:35Z</time>
      </trkpt>
      <trkpt lat="36.7513885498047" lon="-5.10974502563477">
        <ele>764</ele>
        <time>2019-05-11T12:16:37Z</time>
      </trkpt>
      <trkpt lat="36.7514152526856" lon="-5.10972785949707">
        <ele>764</ele>
        <time>2019-05-11T12:16:39Z</time>
      </trkpt>
      <trkpt lat="36.7514419555664" lon="-5.10971307754517">
        <ele>764</ele>
        <time>2019-05-11T12:16:41Z</time>
      </trkpt>
      <trkpt lat="36.7514686584473" lon="-5.10970020294189">
        <ele>764</ele>
        <time>2019-05-11T12:16:43Z</time>
      </trkpt>
      <trkpt lat="36.7514953613281" lon="-5.10968494415283">
        <ele>764</ele>
        <time>2019-05-11T12:16:45Z</time>
      </trkpt>
      <trkpt lat="36.751522064209" lon="-5.10966777801514">
        <ele>764</ele>
        <time>2019-05-11T12:16:47Z</time>
      </trkpt>
      <trkpt lat="36.7515487670898" lon="-5.10965204238892">
        <ele>764</ele>
        <time>2019-05-11T12:16:49Z</time>
      </trkpt>
      <trkpt lat="36.7515907287598" lon="-5.10962820053101">
        <ele>764</ele>
        <time>2019-05-11T12:16:51Z</time>
      </trkpt>
      <trkpt lat="36.7516212463379" lon="-5.10961294174194">
        <ele>764</ele>
        <time>2019-05-11T12:16:53Z</time>
      </trkpt>
      <trkpt lat="36.7516441345215" lon="-5.10960006713867">
        <ele>765</ele>
        <time>2019-05-11T12:16:55Z</time>
      </trkpt>
      <trkpt lat="36.7516746520996" lon="-5.10958814620972">
        <ele>765</ele>
        <time>2019-05-11T12:16:57Z</time>
      </trkpt>
      <trkpt lat="36.7517013549805" lon="-5.10957717895508">
        <ele>765</ele>
        <time>2019-05-11T12:16:59Z</time>
      </trkpt>
      <trkpt lat="36.7517318725586" lon="-5.10956478118896">
        <ele>765</ele>
        <time>2019-05-11T12:17:01Z</time>
      </trkpt>
      <trkpt lat="36.7517585754394" lon="-5.10955286026001">
        <ele>766</ele>
        <time>2019-05-11T12:17:03Z</time>
      </trkpt>
      <trkpt lat="36.7517852783203" lon="-5.10954284667969">
        <ele>766</ele>
        <time>2019-05-11T12:17:05Z</time>
      </trkpt>
      <trkpt lat="36.7518196105957" lon="-5.10953998565674">
        <ele>766</ele>
        <time>2019-05-11T12:17:08Z</time>
      </trkpt>
      <trkpt lat="36.7518463134766" lon="-5.10953807830811">
        <ele>766</ele>
        <time>2019-05-11T12:17:10Z</time>
      </trkpt>
      <trkpt lat="36.7518730163574" lon="-5.10953712463379">
        <ele>767</ele>
        <time>2019-05-11T12:17:12Z</time>
      </trkpt>
      <trkpt lat="36.7518997192383" lon="-5.10953187942505">
        <ele>767</ele>
        <time>2019-05-11T12:17:14Z</time>
      </trkpt>
      <trkpt lat="36.7519302368164" lon="-5.10952997207642">
        <ele>767</ele>
        <time>2019-05-11T12:17:16Z</time>
      </trkpt>
      <trkpt lat="36.7519607543945" lon="-5.10953187942505">
        <ele>767</ele>
        <time>2019-05-11T12:17:18Z</time>
      </trkpt>
      <trkpt lat="36.7519874572754" lon="-5.10953283309936">
        <ele>768</ele>
        <time>2019-05-11T12:17:20Z</time>
      </trkpt>
      <trkpt lat="36.7520217895508" lon="-5.10953521728516">
        <ele>768</ele>
        <time>2019-05-11T12:17:22Z</time>
      </trkpt>
      <trkpt lat="36.7520484924316" lon="-5.10953521728516">
        <ele>768</ele>
        <time>2019-05-11T12:17:24Z</time>
      </trkpt>
      <trkpt lat="36.7520751953125" lon="-5.10953807830811">
        <ele>768</ele>
        <time>2019-05-11T12:17:26Z</time>
      </trkpt>
      <trkpt lat="36.7520980834961" lon="-5.10953807830811">
        <ele>768</ele>
        <time>2019-05-11T12:17:28Z</time>
      </trkpt>
      <trkpt lat="36.7521171569824" lon="-5.10953998565674">
        <ele>769</ele>
        <time>2019-05-11T12:17:30Z</time>
      </trkpt>
      <trkpt lat="36.7521362304688" lon="-5.10954189300537">
        <ele>769</ele>
        <time>2019-05-11T12:17:32Z</time>
      </trkpt>
      <trkpt lat="36.7521629333496" lon="-5.10954523086548">
        <ele>769</ele>
        <time>2019-05-11T12:17:34Z</time>
      </trkpt>
      <trkpt lat="36.7521896362305" lon="-5.10954809188843">
        <ele>769</ele>
        <time>2019-05-11T12:17:36Z</time>
      </trkpt>
      <trkpt lat="36.7522163391113" lon="-5.10954999923706">
        <ele>770</ele>
        <time>2019-05-11T12:17:38Z</time>
      </trkpt>
      <trkpt lat="36.7522392272949" lon="-5.10955286026001">
        <ele>770</ele>
        <time>2019-05-11T12:17:40Z</time>
      </trkpt>
      <trkpt lat="36.7522583007812" lon="-5.10955715179443">
        <ele>770</ele>
        <time>2019-05-11T12:17:42Z</time>
      </trkpt>
      <trkpt lat="36.7522811889648" lon="-5.10956192016602">
        <ele>770</ele>
        <time>2019-05-11T12:17:44Z</time>
      </trkpt>
      <trkpt lat="36.7523078918457" lon="-5.10956478118896">
        <ele>770</ele>
        <time>2019-05-11T12:17:46Z</time>
      </trkpt>
      <trkpt lat="36.7523307800293" lon="-5.10957193374634">
        <ele>770</ele>
        <time>2019-05-11T12:17:49Z</time>
      </trkpt>
      <trkpt lat="36.7523612976074" lon="-5.10958003997803">
        <ele>771</ele>
        <time>2019-05-11T12:17:51Z</time>
      </trkpt>
      <trkpt lat="36.7523880004883" lon="-5.10958003997803">
        <ele>771</ele>
        <time>2019-05-11T12:17:53Z</time>
      </trkpt>
      <trkpt lat="36.7524108886719" lon="-5.10958480834961">
        <ele>771</ele>
        <time>2019-05-11T12:17:55Z</time>
      </trkpt>
      <trkpt lat="36.75244140625" lon="-5.1095929145813">
        <ele>771</ele>
        <time>2019-05-11T12:17:57Z</time>
      </trkpt>
      <trkpt lat="36.7524681091309" lon="-5.10960006713867">
        <ele>771</ele>
        <time>2019-05-11T12:17:59Z</time>
      </trkpt>
      <trkpt lat="36.752498626709" lon="-5.10960721969604">
        <ele>771</ele>
        <time>2019-05-11T12:18:01Z</time>
      </trkpt>
      <trkpt lat="36.7525215148926" lon="-5.10961198806763">
        <ele>771</ele>
        <time>2019-05-11T12:18:03Z</time>
      </trkpt>
      <trkpt lat="36.7525520324707" lon="-5.10961723327637">
        <ele>771</ele>
        <time>2019-05-11T12:18:05Z</time>
      </trkpt>
      <trkpt lat="36.7525939941406" lon="-5.10961818695068">
        <ele>771</ele>
        <time>2019-05-11T12:18:07Z</time>
      </trkpt>
      <trkpt lat="36.7526206970215" lon="-5.10961723327637">
        <ele>771</ele>
        <time>2019-05-11T12:18:09Z</time>
      </trkpt>
      <trkpt lat="36.7526512145996" lon="-5.10961008071899">
        <ele>771</ele>
        <time>2019-05-11T12:18:11Z</time>
      </trkpt>
      <trkpt lat="36.7526817321777" lon="-5.1096019744873">
        <ele>771</ele>
        <time>2019-05-11T12:18:13Z</time>
      </trkpt>
      <trkpt lat="36.7527122497559" lon="-5.1095929145813">
        <ele>771</ele>
        <time>2019-05-11T12:18:15Z</time>
      </trkpt>
      <trkpt lat="36.752742767334" lon="-5.10958480834961">
        <ele>771</ele>
        <time>2019-05-11T12:18:17Z</time>
      </trkpt>
      <trkpt lat="36.7527694702148" lon="-5.10958194732666">
        <ele>771</ele>
        <time>2019-05-11T12:18:19Z</time>
      </trkpt>
      <trkpt lat="36.7527961730957" lon="-5.10957813262939">
        <ele>771</ele>
        <time>2019-05-11T12:18:21Z</time>
      </trkpt>
      <trkpt lat="36.7528190612793" lon="-5.10957288742065">
        <ele>771</ele>
        <time>2019-05-11T12:18:24Z</time>
      </trkpt>
      <trkpt lat="36.7528457641602" lon="-5.1095700263977">
        <ele>771</ele>
        <time>2019-05-11T12:18:26Z</time>
      </trkpt>
      <trkpt lat="36.752872467041" lon="-5.10956716537476">
        <ele>771</ele>
        <time>2019-05-11T12:18:28Z</time>
      </trkpt>
      <trkpt lat="36.7528991699219" lon="-5.10956716537476">
        <ele>771</ele>
        <time>2019-05-11T12:18:30Z</time>
      </trkpt>
      <trkpt lat="36.7529296875" lon="-5.10956287384033">
        <ele>771</ele>
        <time>2019-05-11T12:18:32Z</time>
      </trkpt>
      <trkpt lat="36.7529602050781" lon="-5.10956192016602">
        <ele>771</ele>
        <time>2019-05-11T12:18:34Z</time>
      </trkpt>
      <trkpt lat="36.7529945373535" lon="-5.10956001281738">
        <ele>771</ele>
        <time>2019-05-11T12:18:36Z</time>
      </trkpt>
      <trkpt lat="36.7530250549316" lon="-5.10956192016602">
        <ele>771</ele>
        <time>2019-05-11T12:18:38Z</time>
      </trkpt>
      <trkpt lat="36.7530555725098" lon="-5.10956287384033">
        <ele>771</ele>
        <time>2019-05-11T12:18:40Z</time>
      </trkpt>
      <trkpt lat="36.753101348877" lon="-5.10956287384033">
        <ele>771</ele>
        <time>2019-05-11T12:18:42Z</time>
      </trkpt>
      <trkpt lat="36.7531280517578" lon="-5.10956192016602">
        <ele>771</ele>
        <time>2019-05-11T12:18:44Z</time>
      </trkpt>
      <trkpt lat="36.7531585693359" lon="-5.10956001281738">
        <ele>772</ele>
        <time>2019-05-11T12:18:46Z</time>
      </trkpt>
      <trkpt lat="36.7531852722168" lon="-5.10955810546875">
        <ele>772</ele>
        <time>2019-05-11T12:18:48Z</time>
      </trkpt>
      <trkpt lat="36.7532157897949" lon="-5.10956001281738">
        <ele>772</ele>
        <time>2019-05-11T12:18:50Z</time>
      </trkpt>
      <trkpt lat="36.7532386779785" lon="-5.10956716537476">
        <ele>773</ele>
        <time>2019-05-11T12:18:52Z</time>
      </trkpt>
      <trkpt lat="36.7532653808594" lon="-5.10957288742065">
        <ele>773</ele>
        <time>2019-05-11T12:18:54Z</time>
      </trkpt>
      <trkpt lat="36.7532997131348" lon="-5.10958003997803">
        <ele>773</ele>
        <time>2019-05-11T12:18:56Z</time>
      </trkpt>
      <trkpt lat="36.7533264160156" lon="-5.10959196090698">
        <ele>773</ele>
        <time>2019-05-11T12:18:58Z</time>
      </trkpt>
      <trkpt lat="36.7533645629883" lon="-5.10959720611572">
        <ele>774</ele>
        <time>2019-05-11T12:19:01Z</time>
      </trkpt>
      <trkpt lat="36.7533912658691" lon="-5.10960292816162">
        <ele>774</ele>
        <time>2019-05-11T12:19:03Z</time>
      </trkpt>
      <trkpt lat="36.7534255981445" lon="-5.10961198806763">
        <ele>774</ele>
        <time>2019-05-11T12:19:05Z</time>
      </trkpt>
      <trkpt lat="36.7534523010254" lon="-5.10962200164795">
        <ele>774</ele>
        <time>2019-05-11T12:19:07Z</time>
      </trkpt>
      <trkpt lat="36.7534828186035" lon="-5.10963010787964">
        <ele>774</ele>
        <time>2019-05-11T12:19:09Z</time>
      </trkpt>
      <trkpt lat="36.7535095214844" lon="-5.10963821411133">
        <ele>774</ele>
        <time>2019-05-11T12:19:11Z</time>
      </trkpt>
      <trkpt lat="36.753532409668" lon="-5.10964488983154">
        <ele>774</ele>
        <time>2019-05-11T12:19:13Z</time>
      </trkpt>
      <trkpt lat="36.7535629272461" lon="-5.10965013504028">
        <ele>774</ele>
        <time>2019-05-11T12:19:15Z</time>
      </trkpt>
      <trkpt lat="36.753604888916" lon="-5.10965490341186">
        <ele>774</ele>
        <time>2019-05-11T12:19:17Z</time>
      </trkpt>
      <trkpt lat="36.7536315917969" lon="-5.10966014862061">
        <ele>774</ele>
        <time>2019-05-11T12:19:19Z</time>
      </trkpt>
      <trkpt lat="36.7536544799805" lon="-5.10966491699219">
        <ele>775</ele>
        <time>2019-05-11T12:19:21Z</time>
      </trkpt>
      <trkpt lat="36.7536773681641" lon="-5.10966682434082">
        <ele>775</ele>
        <time>2019-05-11T12:19:23Z</time>
      </trkpt>
      <trkpt lat="36.7537040710449" lon="-5.10966682434082">
        <ele>775</ele>
        <time>2019-05-11T12:19:25Z</time>
      </trkpt>
      <trkpt lat="36.7537307739258" lon="-5.10967016220093">
        <ele>775</ele>
        <time>2019-05-11T12:19:27Z</time>
      </trkpt>
      <trkpt lat="36.7537574768066" lon="-5.10967493057251">
        <ele>776</ele>
        <time>2019-05-11T12:19:29Z</time>
      </trkpt>
      <trkpt lat="36.7537841796875" lon="-5.10968208312988">
        <ele>776</ele>
        <time>2019-05-11T12:19:31Z</time>
      </trkpt>
      <trkpt lat="36.7538032531738" lon="-5.10968685150146">
        <ele>776</ele>
        <time>2019-05-11T12:19:33Z</time>
      </trkpt>
      <trkpt lat="36.753833770752" lon="-5.1096920967102">
        <ele>776</ele>
        <time>2019-05-11T12:19:36Z</time>
      </trkpt>
      <trkpt lat="36.7538566589356" lon="-5.1096978187561">
        <ele>777</ele>
        <time>2019-05-11T12:19:38Z</time>
      </trkpt>
      <trkpt lat="36.7538871765137" lon="-5.10970687866211">
        <ele>777</ele>
        <time>2019-05-11T12:19:40Z</time>
      </trkpt>
      <trkpt lat="36.7539138793945" lon="-5.10971307754517">
        <ele>777</ele>
        <time>2019-05-11T12:19:42Z</time>
      </trkpt>
      <trkpt lat="36.7539367675781" lon="-5.10972023010254">
        <ele>777</ele>
        <time>2019-05-11T12:19:44Z</time>
      </trkpt>
      <trkpt lat="36.753963470459" lon="-5.10972690582275">
        <ele>777</ele>
        <time>2019-05-11T12:19:46Z</time>
      </trkpt>
      <trkpt lat="36.7539863586426" lon="-5.10973215103149">
        <ele>777</ele>
        <time>2019-05-11T12:19:48Z</time>
      </trkpt>
      <trkpt lat="36.7540130615234" lon="-5.10972690582275">
        <ele>777</ele>
        <time>2019-05-11T12:19:50Z</time>
      </trkpt>
      <trkpt lat="36.7540397644043" lon="-5.10972690582275">
        <ele>777</ele>
        <time>2019-05-11T12:19:52Z</time>
      </trkpt>
      <trkpt lat="36.7540740966797" lon="-5.10972309112549">
        <ele>777</ele>
        <time>2019-05-11T12:19:54Z</time>
      </trkpt>
      <trkpt lat="36.754093170166" lon="-5.10972309112549">
        <ele>777</ele>
        <time>2019-05-11T12:19:56Z</time>
      </trkpt>
      <trkpt lat="36.7541122436523" lon="-5.10972213745117">
        <ele>778</ele>
        <time>2019-05-11T12:19:58Z</time>
      </trkpt>
      <trkpt lat="36.7541313171387" lon="-5.10972213745117">
        <ele>778</ele>
        <time>2019-05-11T12:20:00Z</time>
      </trkpt>
      <trkpt lat="36.7541618347168" lon="-5.10971689224243">
        <ele>778</ele>
        <time>2019-05-11T12:20:02Z</time>
      </trkpt>
      <trkpt lat="36.7541885375977" lon="-5.10971212387085">
        <ele>778</ele>
        <time>2019-05-11T12:20:04Z</time>
      </trkpt>
      <trkpt lat="36.7542114257812" lon="-5.10970687866211">
        <ele>779</ele>
        <time>2019-05-11T12:20:06Z</time>
      </trkpt>
      <trkpt lat="36.7542419433594" lon="-5.10970306396484">
        <ele>779</ele>
        <time>2019-05-11T12:20:08Z</time>
      </trkpt>
      <trkpt lat="36.7542724609375" lon="-5.10969686508179">
        <ele>779</ele>
        <time>2019-05-11T12:20:11Z</time>
      </trkpt>
      <trkpt lat="36.7542991638184" lon="-5.10969305038452">
        <ele>779</ele>
        <time>2019-05-11T12:20:13Z</time>
      </trkpt>
      <trkpt lat="36.7543296813965" lon="-5.10968780517578">
        <ele>779</ele>
        <time>2019-05-11T12:20:15Z</time>
      </trkpt>
      <trkpt lat="36.7543563842773" lon="-5.10968208312988">
        <ele>779</ele>
        <time>2019-05-11T12:20:17Z</time>
      </trkpt>
      <trkpt lat="36.7543830871582" lon="-5.10967493057251">
        <ele>779</ele>
        <time>2019-05-11T12:20:19Z</time>
      </trkpt>
      <trkpt lat="36.7544097900391" lon="-5.10967302322388">
        <ele>779</ele>
        <time>2019-05-11T12:20:21Z</time>
      </trkpt>
      <trkpt lat="36.7544326782227" lon="-5.10967302322388">
        <ele>779</ele>
        <time>2019-05-11T12:20:23Z</time>
      </trkpt>
      <trkpt lat="36.7544593811035" lon="-5.10967493057251">
        <ele>779</ele>
        <time>2019-05-11T12:20:25Z</time>
      </trkpt>
      <trkpt lat="36.7544860839844" lon="-5.10967683792114">
        <ele>779</ele>
        <time>2019-05-11T12:20:27Z</time>
      </trkpt>
      <trkpt lat="36.7545280456543" lon="-5.10967779159546">
        <ele>779</ele>
        <time>2019-05-11T12:20:29Z</time>
      </trkpt>
      <trkpt lat="36.7545547485352" lon="-5.10968208312988">
        <ele>779</ele>
        <time>2019-05-11T12:20:31Z</time>
      </trkpt>
      <trkpt lat="36.754581451416" lon="-5.10968494415283">
        <ele>779</ele>
        <time>2019-05-11T12:20:33Z</time>
      </trkpt>
      <trkpt lat="36.7546119689941" lon="-5.10968494415283">
        <ele>779</ele>
        <time>2019-05-11T12:20:35Z</time>
      </trkpt>
      <trkpt lat="36.7546424865723" lon="-5.1096830368042">
        <ele>779</ele>
        <time>2019-05-11T12:20:37Z</time>
      </trkpt>
      <trkpt lat="36.7546730041504" lon="-5.10968017578125">
        <ele>779</ele>
        <time>2019-05-11T12:20:39Z</time>
      </trkpt>
      <trkpt lat="36.7546997070312" lon="-5.10967016220093">
        <ele>779</ele>
        <time>2019-05-11T12:20:41Z</time>
      </trkpt>
      <trkpt lat="36.7547187805176" lon="-5.10966300964356">
        <ele>779</ele>
        <time>2019-05-11T12:20:43Z</time>
      </trkpt>
      <trkpt lat="36.7547416687012" lon="-5.10965204238892">
        <ele>779</ele>
        <time>2019-05-11T12:20:46Z</time>
      </trkpt>
      <trkpt lat="36.7547721862793" lon="-5.10963821411133">
        <ele>779</ele>
        <time>2019-05-11T12:20:48Z</time>
      </trkpt>
      <trkpt lat="36.7548027038574" lon="-5.10962677001953">
        <ele>779</ele>
        <time>2019-05-11T12:20:50Z</time>
      </trkpt>
      <trkpt lat="36.7548370361328" lon="-5.10961723327637">
        <ele>779</ele>
        <time>2019-05-11T12:20:52Z</time>
      </trkpt>
      <trkpt lat="36.7548637390137" lon="-5.10961198806763">
        <ele>779</ele>
        <time>2019-05-11T12:20:54Z</time>
      </trkpt>
      <trkpt lat="36.7548942565918" lon="-5.10961198806763">
        <ele>779</ele>
        <time>2019-05-11T12:20:56Z</time>
      </trkpt>
      <trkpt lat="36.7549285888672" lon="-5.10962009429932">
        <ele>779</ele>
        <time>2019-05-11T12:20:58Z</time>
      </trkpt>
      <trkpt lat="36.7549591064453" lon="-5.10962820053101">
        <ele>779</ele>
        <time>2019-05-11T12:21:00Z</time>
      </trkpt>
      <trkpt lat="36.7549896240234" lon="-5.10964202880859">
        <ele>779</ele>
        <time>2019-05-11T12:21:02Z</time>
      </trkpt>
      <trkpt lat="36.7550239562988" lon="-5.10966491699219">
        <ele>779</ele>
        <time>2019-05-11T12:21:04Z</time>
      </trkpt>
      <trkpt lat="36.7550506591797" lon="-5.10968017578125">
        <ele>779</ele>
        <time>2019-05-11T12:21:06Z</time>
      </trkpt>
      <trkpt lat="36.7550735473633" lon="-5.10969305038452">
        <ele>779</ele>
        <time>2019-05-11T12:21:08Z</time>
      </trkpt>
      <trkpt lat="36.7550964355469" lon="-5.10970687866211">
        <ele>779</ele>
        <time>2019-05-11T12:21:10Z</time>
      </trkpt>
      <trkpt lat="36.7551231384277" lon="-5.10971307754517">
        <ele>779</ele>
        <time>2019-05-11T12:21:12Z</time>
      </trkpt>
      <trkpt lat="36.7551498413086" lon="-5.1097149848938">
        <ele>779</ele>
        <time>2019-05-11T12:21:14Z</time>
      </trkpt>
      <trkpt lat="36.7551765441894" lon="-5.1097149848938">
        <ele>779</ele>
        <time>2019-05-11T12:21:16Z</time>
      </trkpt>
      <trkpt lat="36.755199432373" lon="-5.10970783233643">
        <ele>779</ele>
        <time>2019-05-11T12:21:18Z</time>
      </trkpt>
      <trkpt lat="36.7552185058594" lon="-5.10970020294189">
        <ele>780</ele>
        <time>2019-05-11T12:21:21Z</time>
      </trkpt>
      <trkpt lat="36.755241394043" lon="-5.1096920967102">
        <ele>780</ele>
        <time>2019-05-11T12:21:23Z</time>
      </trkpt>
      <trkpt lat="36.755256652832" lon="-5.10967779159546">
        <ele>780</ele>
        <time>2019-05-11T12:21:25Z</time>
      </trkpt>
      <trkpt lat="36.7552795410156" lon="-5.10966205596924">
        <ele>781</ele>
        <time>2019-05-11T12:21:27Z</time>
      </trkpt>
      <trkpt lat="36.7553062438965" lon="-5.10964822769165">
        <ele>781</ele>
        <time>2019-05-11T12:21:29Z</time>
      </trkpt>
      <trkpt lat="36.7553291320801" lon="-5.10964012145996">
        <ele>781</ele>
        <time>2019-05-11T12:21:31Z</time>
      </trkpt>
      <trkpt lat="36.7553558349609" lon="-5.10963201522827">
        <ele>781</ele>
        <time>2019-05-11T12:21:33Z</time>
      </trkpt>
      <trkpt lat="36.7553787231445" lon="-5.10961818695068">
        <ele>781</ele>
        <time>2019-05-11T12:21:35Z</time>
      </trkpt>
      <trkpt lat="36.7554016113281" lon="-5.10960483551025">
        <ele>781</ele>
        <time>2019-05-11T12:21:37Z</time>
      </trkpt>
      <trkpt lat="36.7554359436035" lon="-5.1095871925354">
        <ele>781</ele>
        <time>2019-05-11T12:21:39Z</time>
      </trkpt>
      <trkpt lat="36.7554588317871" lon="-5.10957288742065">
        <ele>781</ele>
        <time>2019-05-11T12:21:41Z</time>
      </trkpt>
      <trkpt lat="36.7554817199707" lon="-5.10956287384033">
        <ele>781</ele>
        <time>2019-05-11T12:21:43Z</time>
      </trkpt>
      <trkpt lat="36.755500793457" lon="-5.10954999923706">
        <ele>781</ele>
        <time>2019-05-11T12:21:45Z</time>
      </trkpt>
      <trkpt lat="36.7555198669434" lon="-5.10953807830811">
        <ele>781</ele>
        <time>2019-05-11T12:21:47Z</time>
      </trkpt>
      <trkpt lat="36.7555389404297" lon="-5.10952997207642">
        <ele>781</ele>
        <time>2019-05-11T12:21:49Z</time>
      </trkpt>
      <trkpt lat="36.7555618286133" lon="-5.10951805114746">
        <ele>781</ele>
        <time>2019-05-11T12:21:51Z</time>
      </trkpt>
      <trkpt lat="36.7555885314941" lon="-5.10950994491577">
        <ele>781</ele>
        <time>2019-05-11T12:21:53Z</time>
      </trkpt>
      <trkpt lat="36.7556114196777" lon="-5.10949516296387">
        <ele>781</ele>
        <time>2019-05-11T12:21:56Z</time>
      </trkpt>
      <trkpt lat="36.7556381225586" lon="-5.10948181152344">
        <ele>782</ele>
        <time>2019-05-11T12:21:58Z</time>
      </trkpt>
      <trkpt lat="36.7556571960449" lon="-5.10946798324585">
        <ele>782</ele>
        <time>2019-05-11T12:22:00Z</time>
      </trkpt>
      <trkpt lat="36.7556838989258" lon="-5.10945701599121">
        <ele>782</ele>
        <time>2019-05-11T12:22:02Z</time>
      </trkpt>
      <trkpt lat="36.7557144165039" lon="-5.10944509506226">
        <ele>782</ele>
        <time>2019-05-11T12:22:04Z</time>
      </trkpt>
      <trkpt lat="36.7557411193848" lon="-5.10943794250488">
        <ele>782</ele>
        <time>2019-05-11T12:22:06Z</time>
      </trkpt>
      <trkpt lat="36.7557678222656" lon="-5.10943222045898">
        <ele>782</ele>
        <time>2019-05-11T12:22:08Z</time>
      </trkpt>
      <trkpt lat="36.7557983398438" lon="-5.10942792892456">
        <ele>783</ele>
        <time>2019-05-11T12:22:10Z</time>
      </trkpt>
      <trkpt lat="36.7558288574219" lon="-5.10942697525024">
        <ele>784</ele>
        <time>2019-05-11T12:22:12Z</time>
      </trkpt>
      <trkpt lat="36.7558708190918" lon="-5.10942316055298">
        <ele>784</ele>
        <time>2019-05-11T12:22:14Z</time>
      </trkpt>
      <trkpt lat="36.7558975219727" lon="-5.10941696166992">
        <ele>784</ele>
        <time>2019-05-11T12:22:16Z</time>
      </trkpt>
      <trkpt lat="36.7559242248535" lon="-5.10940790176392">
        <ele>784</ele>
        <time>2019-05-11T12:22:18Z</time>
      </trkpt>
      <trkpt lat="36.7559585571289" lon="-5.10940980911255">
        <ele>784</ele>
        <time>2019-05-11T12:22:20Z</time>
      </trkpt>
      <trkpt lat="36.7559814453125" lon="-5.10941982269287">
        <ele>785</ele>
        <time>2019-05-11T12:22:22Z</time>
      </trkpt>
      <trkpt lat="36.7560005187988" lon="-5.10942506790161">
        <ele>785</ele>
        <time>2019-05-11T12:22:24Z</time>
      </trkpt>
      <trkpt lat="36.7560234069824" lon="-5.10943222045898">
        <ele>785</ele>
        <time>2019-05-11T12:22:26Z</time>
      </trkpt>
      <trkpt lat="36.7560424804688" lon="-5.1094331741333">
        <ele>786</ele>
        <time>2019-05-11T12:22:28Z</time>
      </trkpt>
      <trkpt lat="36.7560691833496" lon="-5.10943698883057">
        <ele>786</ele>
        <time>2019-05-11T12:22:31Z</time>
      </trkpt>
      <trkpt lat="36.7560920715332" lon="-5.1094479560852">
        <ele>786</ele>
        <time>2019-05-11T12:22:33Z</time>
      </trkpt>
      <trkpt lat="36.7561264038086" lon="-5.10945510864258">
        <ele>786</ele>
        <time>2019-05-11T12:22:35Z</time>
      </trkpt>
      <trkpt lat="36.7561569213867" lon="-5.10945987701416">
        <ele>786</ele>
        <time>2019-05-11T12:22:37Z</time>
      </trkpt>
      <trkpt lat="36.7561874389648" lon="-5.10945987701416">
        <ele>786</ele>
        <time>2019-05-11T12:22:39Z</time>
      </trkpt>
      <trkpt lat="36.7562103271484" lon="-5.10946321487427">
        <ele>786</ele>
        <time>2019-05-11T12:22:41Z</time>
      </trkpt>
      <trkpt lat="36.7562446594238" lon="-5.10947513580322">
        <ele>786</ele>
        <time>2019-05-11T12:22:43Z</time>
      </trkpt>
      <trkpt lat="36.756275177002" lon="-5.1094799041748">
        <ele>786</ele>
        <time>2019-05-11T12:22:45Z</time>
      </trkpt>
      <trkpt lat="36.7563056945801" lon="-5.10948276519775">
        <ele>786</ele>
        <time>2019-05-11T12:22:47Z</time>
      </trkpt>
      <trkpt lat="36.75634765625" lon="-5.10947799682617">
        <ele>786</ele>
        <time>2019-05-11T12:22:49Z</time>
      </trkpt>
      <trkpt lat="36.7563781738281" lon="-5.10947513580322">
        <ele>786</ele>
        <time>2019-05-11T12:22:51Z</time>
      </trkpt>
      <trkpt lat="36.7564086914062" lon="-5.10947179794312">
        <ele>786</ele>
        <time>2019-05-11T12:22:53Z</time>
      </trkpt>
      <trkpt lat="36.7564392089844" lon="-5.10946798324585">
        <ele>786</ele>
        <time>2019-05-11T12:22:55Z</time>
      </trkpt>
      <trkpt lat="36.7564659118652" lon="-5.1094651222229">
        <ele>786</ele>
        <time>2019-05-11T12:22:57Z</time>
      </trkpt>
      <trkpt lat="36.7564926147461" lon="-5.10945987701416">
        <ele>786</ele>
        <time>2019-05-11T12:22:59Z</time>
      </trkpt>
      <trkpt lat="36.756519317627" lon="-5.10945796966553">
        <ele>786</ele>
        <time>2019-05-11T12:23:01Z</time>
      </trkpt>
      <trkpt lat="36.7565422058106" lon="-5.10945177078247">
        <ele>786</ele>
        <time>2019-05-11T12:23:03Z</time>
      </trkpt>
      <trkpt lat="36.7565650939941" lon="-5.10944700241089">
        <ele>786</ele>
        <time>2019-05-11T12:23:06Z</time>
      </trkpt>
      <trkpt lat="36.756591796875" lon="-5.10943984985352">
        <ele>786</ele>
        <time>2019-05-11T12:23:08Z</time>
      </trkpt>
      <trkpt lat="36.7566184997559" lon="-5.10943794250488">
        <ele>786</ele>
        <time>2019-05-11T12:23:10Z</time>
      </trkpt>
      <trkpt lat="36.7566413879394" lon="-5.10943508148193">
        <ele>786</ele>
        <time>2019-05-11T12:23:12Z</time>
      </trkpt>
      <trkpt lat="36.7566680908203" lon="-5.10942792892456">
        <ele>786</ele>
        <time>2019-05-11T12:23:14Z</time>
      </trkpt>
      <trkpt lat="36.7566986083984" lon="-5.10942220687866">
        <ele>786</ele>
        <time>2019-05-11T12:23:16Z</time>
      </trkpt>
      <trkpt lat="36.7567253112793" lon="-5.10941791534424">
        <ele>786</ele>
        <time>2019-05-11T12:23:18Z</time>
      </trkpt>
      <trkpt lat="36.7567558288574" lon="-5.10941219329834">
        <ele>786</ele>
        <time>2019-05-11T12:23:20Z</time>
      </trkpt>
      <trkpt lat="36.7567863464356" lon="-5.10940504074097">
        <ele>786</ele>
        <time>2019-05-11T12:23:22Z</time>
      </trkpt>
      <trkpt lat="36.7568283081055" lon="-5.10939788818359">
        <ele>786</ele>
        <time>2019-05-11T12:23:24Z</time>
      </trkpt>
      <trkpt lat="36.7568588256836" lon="-5.10938787460327">
        <ele>786</ele>
        <time>2019-05-11T12:23:26Z</time>
      </trkpt>
      <trkpt lat="36.756893157959" lon="-5.10937976837158">
        <ele>786</ele>
        <time>2019-05-11T12:23:28Z</time>
      </trkpt>
      <trkpt lat="36.7569236755371" lon="-5.10937309265137">
        <ele>786</ele>
        <time>2019-05-11T12:23:30Z</time>
      </trkpt>
      <trkpt lat="36.7569580078125" lon="-5.10937023162842">
        <ele>786</ele>
        <time>2019-05-11T12:23:32Z</time>
      </trkpt>
      <trkpt lat="36.7569847106934" lon="-5.10937023162842">
        <ele>786</ele>
        <time>2019-05-11T12:23:34Z</time>
      </trkpt>
      <trkpt lat="36.7570114135742" lon="-5.10936689376831">
        <ele>786</ele>
        <time>2019-05-11T12:23:36Z</time>
      </trkpt>
      <trkpt lat="36.7570381164551" lon="-5.10936212539673">
        <ele>786</ele>
        <time>2019-05-11T12:23:38Z</time>
      </trkpt>
      <trkpt lat="36.7570648193359" lon="-5.10935688018799">
        <ele>786</ele>
        <time>2019-05-11T12:23:41Z</time>
      </trkpt>
      <trkpt lat="36.7570915222168" lon="-5.10935306549072">
        <ele>787</ele>
        <time>2019-05-11T12:23:43Z</time>
      </trkpt>
      <trkpt lat="36.7571182250977" lon="-5.10935020446777">
        <ele>787</ele>
        <time>2019-05-11T12:23:45Z</time>
      </trkpt>
      <trkpt lat="36.7571449279785" lon="-5.10934495925903">
        <ele>787</ele>
        <time>2019-05-11T12:23:47Z</time>
      </trkpt>
      <trkpt lat="36.7571716308594" lon="-5.10934019088745">
        <ele>788</ele>
        <time>2019-05-11T12:23:49Z</time>
      </trkpt>
      <trkpt lat="36.757194519043" lon="-5.10933494567871">
        <ele>788</ele>
        <time>2019-05-11T12:23:51Z</time>
      </trkpt>
      <trkpt lat="36.7572250366211" lon="-5.10933017730713">
        <ele>788</ele>
        <time>2019-05-11T12:23:53Z</time>
      </trkpt>
      <trkpt lat="36.757251739502" lon="-5.10932493209839">
        <ele>788</ele>
        <time>2019-05-11T12:23:55Z</time>
      </trkpt>
      <trkpt lat="36.7572822570801" lon="-5.10932302474976">
        <ele>788</ele>
        <time>2019-05-11T12:23:57Z</time>
      </trkpt>
      <trkpt lat="36.7573280334473" lon="-5.10931777954102">
        <ele>788</ele>
        <time>2019-05-11T12:23:59Z</time>
      </trkpt>
      <trkpt lat="36.7573585510254" lon="-5.10931491851807">
        <ele>788</ele>
        <time>2019-05-11T12:24:01Z</time>
      </trkpt>
      <trkpt lat="36.7573890686035" lon="-5.10931205749512">
        <ele>788</ele>
        <time>2019-05-11T12:24:03Z</time>
      </trkpt>
      <trkpt lat="36.7574157714844" lon="-5.10931015014648">
        <ele>788</ele>
        <time>2019-05-11T12:24:05Z</time>
      </trkpt>
      <trkpt lat="36.7574424743652" lon="-5.10930490493774">
        <ele>788</ele>
        <time>2019-05-11T12:24:07Z</time>
      </trkpt>
      <trkpt lat="36.7574729919434" lon="-5.10930013656616">
        <ele>788</ele>
        <time>2019-05-11T12:24:09Z</time>
      </trkpt>
      <trkpt lat="36.7574996948242" lon="-5.10929822921753">
        <ele>788</ele>
        <time>2019-05-11T12:24:11Z</time>
      </trkpt>
      <trkpt lat="36.7575263977051" lon="-5.10929489135742">
        <ele>788</ele>
        <time>2019-05-11T12:24:13Z</time>
      </trkpt>
      <trkpt lat="36.7575607299805" lon="-5.10929012298584">
        <ele>788</ele>
        <time>2019-05-11T12:24:16Z</time>
      </trkpt>
      <trkpt lat="36.7575874328613" lon="-5.10928297042847">
        <ele>788</ele>
        <time>2019-05-11T12:24:18Z</time>
      </trkpt>
      <trkpt lat="36.7576103210449" lon="-5.10927820205688">
        <ele>788</ele>
        <time>2019-05-11T12:24:20Z</time>
      </trkpt>
      <trkpt lat="36.7576370239258" lon="-5.10927200317383">
        <ele>788</ele>
        <time>2019-05-11T12:24:22Z</time>
      </trkpt>
      <trkpt lat="36.7576637268066" lon="-5.10926294326782">
        <ele>788</ele>
        <time>2019-05-11T12:24:24Z</time>
      </trkpt>
      <trkpt lat="36.7576904296875" lon="-5.10925483703613">
        <ele>788</ele>
        <time>2019-05-11T12:24:26Z</time>
      </trkpt>
      <trkpt lat="36.7577133178711" lon="-5.1092472076416">
        <ele>788</ele>
        <time>2019-05-11T12:24:28Z</time>
      </trkpt>
      <trkpt lat="36.7577362060547" lon="-5.10923290252686">
        <ele>789</ele>
        <time>2019-05-11T12:24:30Z</time>
      </trkpt>
      <trkpt lat="36.7577590942383" lon="-5.10922193527222">
        <ele>789</ele>
        <time>2019-05-11T12:24:32Z</time>
      </trkpt>
      <trkpt lat="36.7578010559082" lon="-5.10920810699463">
        <ele>789</ele>
        <time>2019-05-11T12:24:34Z</time>
      </trkpt>
      <trkpt lat="36.7578277587891" lon="-5.10919284820557">
        <ele>789</ele>
        <time>2019-05-11T12:24:36Z</time>
      </trkpt>
      <trkpt lat="36.7578582763672" lon="-5.10918188095093">
        <ele>789</ele>
        <time>2019-05-11T12:24:38Z</time>
      </trkpt>
      <trkpt lat="36.7578926086426" lon="-5.10916996002197">
        <ele>789</ele>
        <time>2019-05-11T12:24:40Z</time>
      </trkpt>
      <trkpt lat="36.7579231262207" lon="-5.1091570854187">
        <ele>789</ele>
        <time>2019-05-11T12:24:42Z</time>
      </trkpt>
      <trkpt lat="36.7579498291016" lon="-5.10914182662964">
        <ele>789</ele>
        <time>2019-05-11T12:24:44Z</time>
      </trkpt>
      <trkpt lat="36.7579803466797" lon="-5.10912799835205">
        <ele>789</ele>
        <time>2019-05-11T12:24:46Z</time>
      </trkpt>
      <trkpt lat="36.7580070495606" lon="-5.10911321640015">
        <ele>789</ele>
        <time>2019-05-11T12:24:48Z</time>
      </trkpt>
      <trkpt lat="36.7580375671387" lon="-5.10909795761108">
        <ele>789</ele>
        <time>2019-05-11T12:24:51Z</time>
      </trkpt>
      <trkpt lat="36.7580604553223" lon="-5.10908794403076">
        <ele>789</ele>
        <time>2019-05-11T12:24:53Z</time>
      </trkpt>
      <trkpt lat="36.7580871582031" lon="-5.10907506942749">
        <ele>789</ele>
        <time>2019-05-11T12:24:55Z</time>
      </trkpt>
      <trkpt lat="36.7581062316894" lon="-5.10906314849854">
        <ele>789</ele>
        <time>2019-05-11T12:24:57Z</time>
      </trkpt>
      <trkpt lat="36.7581367492676" lon="-5.10905694961548">
        <ele>789</ele>
        <time>2019-05-11T12:24:59Z</time>
      </trkpt>
      <trkpt lat="36.7581672668457" lon="-5.1090579032898">
        <ele>789</ele>
        <time>2019-05-11T12:25:01Z</time>
      </trkpt>
      <trkpt lat="36.7581977844238" lon="-5.1090579032898">
        <ele>789</ele>
        <time>2019-05-11T12:25:03Z</time>
      </trkpt>
      <trkpt lat="36.7582244873047" lon="-5.10906314849854">
        <ele>789</ele>
        <time>2019-05-11T12:25:05Z</time>
      </trkpt>
      <trkpt lat="36.7582511901856" lon="-5.10906982421875">
        <ele>789</ele>
        <time>2019-05-11T12:25:07Z</time>
      </trkpt>
      <trkpt lat="36.7582931518555" lon="-5.10908794403076">
        <ele>789</ele>
        <time>2019-05-11T12:25:09Z</time>
      </trkpt>
      <trkpt lat="36.7583084106445" lon="-5.10909795761108">
        <ele>789</ele>
        <time>2019-05-11T12:25:11Z</time>
      </trkpt>
      <trkpt lat="36.7583236694336" lon="-5.10909986495972">
        <ele>789</ele>
        <time>2019-05-11T12:25:13Z</time>
      </trkpt>
      <trkpt lat="36.7583351135254" lon="-5.10911703109741">
        <ele>789</ele>
        <time>2019-05-11T12:25:15Z</time>
      </trkpt>
      <trkpt lat="36.7583465576172" lon="-5.10913181304932">
        <ele>789</ele>
        <time>2019-05-11T12:25:17Z</time>
      </trkpt>
      <trkpt lat="36.7583503723144" lon="-5.10914278030396">
        <ele>789</ele>
        <time>2019-05-11T12:25:19Z</time>
      </trkpt>
      <trkpt lat="36.7583541870117" lon="-5.10914516448975">
        <ele>789</ele>
        <time>2019-05-11T12:25:21Z</time>
      </trkpt>
      <trkpt lat="36.758358001709" lon="-5.10914707183838">
        <ele>789</ele>
        <time>2019-05-11T12:25:23Z</time>
      </trkpt>
      <trkpt lat="36.758358001709" lon="-5.10914516448975">
        <ele>789</ele>
        <time>2019-05-11T12:25:25Z</time>
      </trkpt>
      <trkpt lat="36.7583618164062" lon="-5.10914182662964">
        <ele>790</ele>
        <time>2019-05-11T12:25:28Z</time>
      </trkpt>
      <trkpt lat="36.7583618164062" lon="-5.10914182662964">
        <ele>790</ele>
        <time>2019-05-11T12:25:30Z</time>
      </trkpt>
      <trkpt lat="36.7583618164062" lon="-5.10914278030396">
        <ele>790</ele>
        <time>2019-05-11T12:25:32Z</time>
      </trkpt>
      <trkpt lat="36.7583618164062" lon="-5.10913991928101">
        <ele>791</ele>
        <time>2019-05-11T12:25:34Z</time>
      </trkpt>
      <trkpt lat="36.7583618164062" lon="-5.10913801193237">
        <ele>791</ele>
        <time>2019-05-11T12:25:36Z</time>
      </trkpt>
      <trkpt lat="36.7583656311035" lon="-5.10913515090942">
        <ele>791</ele>
        <time>2019-05-11T12:25:38Z</time>
      </trkpt>
      <trkpt lat="36.7583808898926" lon="-5.10912799835205">
        <ele>791</ele>
        <time>2019-05-11T12:25:40Z</time>
      </trkpt>
      <trkpt lat="36.7583999633789" lon="-5.10913181304932">
        <ele>791</ele>
        <time>2019-05-11T12:25:42Z</time>
      </trkpt>
      <trkpt lat="36.7584075927734" lon="-5.10913991928101">
        <ele>791</ele>
        <time>2019-05-11T12:25:44Z</time>
      </trkpt>
      <trkpt lat="36.7584075927734" lon="-5.10913991928101">
        <ele>791</ele>
        <time>2019-05-11T12:25:46Z</time>
      </trkpt>
      <trkpt lat="36.7584075927734" lon="-5.10914278030396">
        <ele>791</ele>
        <time>2019-05-11T12:25:48Z</time>
      </trkpt>
      <trkpt lat="36.7584075927734" lon="-5.10914707183838">
        <ele>791</ele>
        <time>2019-05-11T12:25:50Z</time>
      </trkpt>
      <trkpt lat="36.7584037780762" lon="-5.10915184020996">
        <ele>791</ele>
        <time>2019-05-11T12:25:52Z</time>
      </trkpt>
      <trkpt lat="36.7584037780762" lon="-5.10915517807007">
        <ele>791</ele>
        <time>2019-05-11T12:25:54Z</time>
      </trkpt>
      <trkpt lat="36.7583999633789" lon="-5.1091570854187">
        <ele>791</ele>
        <time>2019-05-11T12:25:56Z</time>
      </trkpt>
      <trkpt lat="36.7584037780762" lon="-5.10916185379028">
        <ele>791</ele>
        <time>2019-05-11T12:25:58Z</time>
      </trkpt>
      <trkpt lat="36.7583961486816" lon="-5.10916185379028">
        <ele>791</ele>
        <time>2019-05-11T12:26:00Z</time>
      </trkpt>
      <trkpt lat="36.7583961486816" lon="-5.10916519165039">
        <ele>791</ele>
        <time>2019-05-11T12:26:02Z</time>
      </trkpt>
      <trkpt lat="36.7583885192871" lon="-5.10916709899902">
        <ele>791</ele>
        <time>2019-05-11T12:26:04Z</time>
      </trkpt>
      <trkpt lat="36.7583847045898" lon="-5.10917186737061">
        <ele>791</ele>
        <time>2019-05-11T12:26:06Z</time>
      </trkpt>
      <trkpt lat="36.7583808898926" lon="-5.10917520523071">
        <ele>791</ele>
        <time>2019-05-11T12:26:08Z</time>
      </trkpt>
      <trkpt lat="36.7583770751953" lon="-5.10917520523071">
        <ele>791</ele>
        <time>2019-05-11T12:26:11Z</time>
      </trkpt>
      <trkpt lat="36.7583770751953" lon="-5.10917711257935">
        <ele>792</ele>
        <time>2019-05-11T12:26:13Z</time>
      </trkpt>
      <trkpt lat="36.7583770751953" lon="-5.10917806625366">
        <ele>792</ele>
        <time>2019-05-11T12:26:15Z</time>
      </trkpt>
      <trkpt lat="36.7583808898926" lon="-5.1091799736023">
        <ele>792</ele>
        <time>2019-05-11T12:26:17Z</time>
      </trkpt>
      <trkpt lat="36.7583847045898" lon="-5.10917282104492">
        <ele>792</ele>
        <time>2019-05-11T12:26:19Z</time>
      </trkpt>
      <trkpt lat="36.7583885192871" lon="-5.10916805267334">
        <ele>792</ele>
        <time>2019-05-11T12:26:21Z</time>
      </trkpt>
      <trkpt lat="36.7583923339844" lon="-5.1091628074646">
        <ele>792</ele>
        <time>2019-05-11T12:26:23Z</time>
      </trkpt>
      <trkpt lat="36.7583961486816" lon="-5.10915517807007">
        <ele>792</ele>
        <time>2019-05-11T12:26:25Z</time>
      </trkpt>
      <trkpt lat="36.7584114074707" lon="-5.10913801193237">
        <ele>792</ele>
        <time>2019-05-11T12:26:27Z</time>
      </trkpt>
      <trkpt lat="36.7584228515625" lon="-5.10913276672363">
        <ele>792</ele>
        <time>2019-05-11T12:26:29Z</time>
      </trkpt>
      <trkpt lat="36.7584495544434" lon="-5.10913991928101">
        <ele>792</ele>
        <time>2019-05-11T12:26:31Z</time>
      </trkpt>
      <trkpt lat="36.7584571838379" lon="-5.10915184020996">
        <ele>792</ele>
        <time>2019-05-11T12:26:33Z</time>
      </trkpt>
      <trkpt lat="36.7584686279297" lon="-5.10915994644165">
        <ele>792</ele>
        <time>2019-05-11T12:26:35Z</time>
      </trkpt>
      <trkpt lat="36.7584762573242" lon="-5.10915803909302">
        <ele>792</ele>
        <time>2019-05-11T12:26:37Z</time>
      </trkpt>
      <trkpt lat="36.7584915161133" lon="-5.10915517807007">
        <ele>792</ele>
        <time>2019-05-11T12:26:39Z</time>
      </trkpt>
      <trkpt lat="36.7585029602051" lon="-5.1091480255127">
        <ele>792</ele>
        <time>2019-05-11T12:26:41Z</time>
      </trkpt>
      <trkpt lat="36.7585105895996" lon="-5.10915184020996">
        <ele>792</ele>
        <time>2019-05-11T12:26:43Z</time>
      </trkpt>
      <trkpt lat="36.7585182189941" lon="-5.10916709899902">
        <ele>792</ele>
        <time>2019-05-11T12:26:45Z</time>
      </trkpt>
      <trkpt lat="36.7585296630859" lon="-5.10917711257935">
        <ele>792</ele>
        <time>2019-05-11T12:26:48Z</time>
      </trkpt>
      <trkpt lat="36.7585372924805" lon="-5.10917520523071">
        <ele>792</ele>
        <time>2019-05-11T12:26:50Z</time>
      </trkpt>
      <trkpt lat="36.758544921875" lon="-5.10917806625366">
        <ele>792</ele>
        <time>2019-05-11T12:26:52Z</time>
      </trkpt>
      <trkpt lat="36.7585601806641" lon="-5.10917282104492">
        <ele>792</ele>
        <time>2019-05-11T12:26:54Z</time>
      </trkpt>
      <trkpt lat="36.7585754394531" lon="-5.10916185379028">
        <ele>792</ele>
        <time>2019-05-11T12:26:56Z</time>
      </trkpt>
      <trkpt lat="36.7585983276367" lon="-5.10916185379028">
        <ele>792</ele>
        <time>2019-05-11T12:26:58Z</time>
      </trkpt>
      <trkpt lat="36.7586250305176" lon="-5.1091628074646">
        <ele>792</ele>
        <time>2019-05-11T12:27:00Z</time>
      </trkpt>
      <trkpt lat="36.7586479187012" lon="-5.10916709899902">
        <ele>792</ele>
        <time>2019-05-11T12:27:02Z</time>
      </trkpt>
      <trkpt lat="36.7586708068848" lon="-5.10916709899902">
        <ele>792</ele>
        <time>2019-05-11T12:27:04Z</time>
      </trkpt>
      <trkpt lat="36.7586936950684" lon="-5.1091628074646">
        <ele>792</ele>
        <time>2019-05-11T12:27:06Z</time>
      </trkpt>
      <trkpt lat="36.758731842041" lon="-5.10916709899902">
        <ele>792</ele>
        <time>2019-05-11T12:27:08Z</time>
      </trkpt>
      <trkpt lat="36.7587547302246" lon="-5.10915994644165">
        <ele>792</ele>
        <time>2019-05-11T12:27:10Z</time>
      </trkpt>
      <trkpt lat="36.7587738037109" lon="-5.10916185379028">
        <ele>792</ele>
        <time>2019-05-11T12:27:12Z</time>
      </trkpt>
      <trkpt lat="36.7587852478027" lon="-5.10915994644165">
        <ele>793</ele>
        <time>2019-05-11T12:27:14Z</time>
      </trkpt>
      <trkpt lat="36.7587928771973" lon="-5.10916519165039">
        <ele>793</ele>
        <time>2019-05-11T12:27:16Z</time>
      </trkpt>
      <trkpt lat="36.7587966918945" lon="-5.10917186737061">
        <ele>793</ele>
        <time>2019-05-11T12:27:18Z</time>
      </trkpt>
      <trkpt lat="36.7588005065918" lon="-5.10916805267334">
        <ele>793</ele>
        <time>2019-05-11T12:27:20Z</time>
      </trkpt>
      <trkpt lat="36.7588081359863" lon="-5.10915994644165">
        <ele>793</ele>
        <time>2019-05-11T12:27:22Z</time>
      </trkpt>
      <trkpt lat="36.7588119506836" lon="-5.10915994644165">
        <ele>793</ele>
        <time>2019-05-11T12:27:24Z</time>
      </trkpt>
      <trkpt lat="36.7588119506836" lon="-5.10916185379028">
        <ele>793</ele>
        <time>2019-05-11T12:27:27Z</time>
      </trkpt>
      <trkpt lat="36.7588119506836" lon="-5.10915803909302">
        <ele>793</ele>
        <time>2019-05-11T12:27:29Z</time>
      </trkpt>
      <trkpt lat="36.7588157653809" lon="-5.10915803909302">
        <ele>793</ele>
        <time>2019-05-11T12:27:31Z</time>
      </trkpt>
      <trkpt lat="36.7588157653809" lon="-5.10916519165039">
        <ele>793</ele>
        <time>2019-05-11T12:27:33Z</time>
      </trkpt>
      <trkpt lat="36.7588195800781" lon="-5.10916996002197">
        <ele>793</ele>
        <time>2019-05-11T12:27:35Z</time>
      </trkpt>
      <trkpt lat="36.7588272094727" lon="-5.10917520523071">
        <ele>793</ele>
        <time>2019-05-11T12:27:37Z</time>
      </trkpt>
      <trkpt lat="36.7588272094727" lon="-5.10917282104492">
        <ele>793</ele>
        <time>2019-05-11T12:27:39Z</time>
      </trkpt>
      <trkpt lat="36.7588272094727" lon="-5.10917282104492">
        <ele>793</ele>
        <time>2019-05-11T12:27:41Z</time>
      </trkpt>
      <trkpt lat="36.7588272094727" lon="-5.10917282104492">
        <ele>793</ele>
        <time>2019-05-11T12:27:43Z</time>
      </trkpt>
      <trkpt lat="36.7588310241699" lon="-5.10917186737061">
        <ele>793</ele>
        <time>2019-05-11T12:27:45Z</time>
      </trkpt>
      <trkpt lat="36.7588310241699" lon="-5.10917186737061">
        <ele>793</ele>
        <time>2019-05-11T12:27:47Z</time>
      </trkpt>
      <trkpt lat="36.7588348388672" lon="-5.10917186737061">
        <ele>793</ele>
        <time>2019-05-11T12:27:49Z</time>
      </trkpt>
      <trkpt lat="36.7588348388672" lon="-5.10917186737061">
        <ele>793</ele>
        <time>2019-05-11T12:27:51Z</time>
      </trkpt>
      <trkpt lat="36.7588386535644" lon="-5.10917186737061">
        <ele>793</ele>
        <time>2019-05-11T12:27:53Z</time>
      </trkpt>
      <trkpt lat="36.7588386535644" lon="-5.10917282104492">
        <ele>793</ele>
        <time>2019-05-11T12:27:55Z</time>
      </trkpt>
      <trkpt lat="36.7588386535644" lon="-5.10917282104492">
        <ele>793</ele>
        <time>2019-05-11T12:27:57Z</time>
      </trkpt>
      <trkpt lat="36.7588386535644" lon="-5.10917711257935">
        <ele>793</ele>
        <time>2019-05-11T12:27:59Z</time>
      </trkpt>
      <trkpt lat="36.7588310241699" lon="-5.10918188095093">
        <ele>793</ele>
        <time>2019-05-11T12:28:01Z</time>
      </trkpt>
      <trkpt lat="36.7588310241699" lon="-5.10918998718262">
        <ele>793</ele>
        <time>2019-05-11T12:28:03Z</time>
      </trkpt>
      <trkpt lat="36.7588386535644" lon="-5.10920000076294">
        <ele>793</ele>
        <time>2019-05-11T12:28:05Z</time>
      </trkpt>
      <trkpt lat="36.7588424682617" lon="-5.10920715332031">
        <ele>793</ele>
        <time>2019-05-11T12:28:07Z</time>
      </trkpt>
      <trkpt lat="36.758846282959" lon="-5.10920810699463">
        <ele>793</ele>
        <time>2019-05-11T12:28:09Z</time>
      </trkpt>
      <trkpt lat="36.7588539123535" lon="-5.10921478271484">
        <ele>793</ele>
        <time>2019-05-11T12:28:11Z</time>
      </trkpt>
      <trkpt lat="36.758861541748" lon="-5.10921192169189">
        <ele>793</ele>
        <time>2019-05-11T12:28:13Z</time>
      </trkpt>
      <trkpt lat="36.7588691711426" lon="-5.10920715332031">
        <ele>793</ele>
        <time>2019-05-11T12:28:15Z</time>
      </trkpt>
      <trkpt lat="36.7588768005371" lon="-5.10919809341431">
        <ele>793</ele>
        <time>2019-05-11T12:28:18Z</time>
      </trkpt>
      <trkpt lat="36.7588691711426" lon="-5.10920190811157">
        <ele>793</ele>
        <time>2019-05-11T12:28:20Z</time>
      </trkpt>
      <trkpt lat="36.7588691711426" lon="-5.10920000076294">
        <ele>793</ele>
        <time>2019-05-11T12:28:22Z</time>
      </trkpt>
      <trkpt lat="36.7588729858398" lon="-5.10921001434326">
        <ele>793</ele>
        <time>2019-05-11T12:28:24Z</time>
      </trkpt>
      <trkpt lat="36.7588729858398" lon="-5.10922002792358">
        <ele>793</ele>
        <time>2019-05-11T12:28:26Z</time>
      </trkpt>
      <trkpt lat="36.7588806152344" lon="-5.10922002792358">
        <ele>793</ele>
        <time>2019-05-11T12:28:28Z</time>
      </trkpt>
      <trkpt lat="36.7588882446289" lon="-5.10922288894653">
        <ele>793</ele>
        <time>2019-05-11T12:28:30Z</time>
      </trkpt>
      <trkpt lat="36.758903503418" lon="-5.10924196243286">
        <ele>793</ele>
        <time>2019-05-11T12:28:32Z</time>
      </trkpt>
      <trkpt lat="36.7589225769043" lon="-5.10925817489624">
        <ele>793</ele>
        <time>2019-05-11T12:28:34Z</time>
      </trkpt>
      <trkpt lat="36.7589378356934" lon="-5.1092700958252">
        <ele>793</ele>
        <time>2019-05-11T12:28:36Z</time>
      </trkpt>
      <trkpt lat="36.7589454650879" lon="-5.10929489135742">
        <ele>793</ele>
        <time>2019-05-11T12:28:38Z</time>
      </trkpt>
      <trkpt lat="36.7589454650879" lon="-5.10928821563721">
        <ele>793</ele>
        <time>2019-05-11T12:28:40Z</time>
      </trkpt>
      <trkpt lat="36.758960723877" lon="-5.10928297042847">
        <ele>793</ele>
        <time>2019-05-11T12:28:42Z</time>
      </trkpt>
      <trkpt lat="36.7589836120606" lon="-5.10929298400879">
        <ele>793</ele>
        <time>2019-05-11T12:28:44Z</time>
      </trkpt>
      <trkpt lat="36.7590026855469" lon="-5.10930013656616">
        <ele>793</ele>
        <time>2019-05-11T12:28:46Z</time>
      </trkpt>
      <trkpt lat="36.7590255737305" lon="-5.10930776596069">
        <ele>793</ele>
        <time>2019-05-11T12:28:48Z</time>
      </trkpt>
      <trkpt lat="36.7590446472168" lon="-5.10933303833008">
        <ele>793</ele>
        <time>2019-05-11T12:28:50Z</time>
      </trkpt>
      <trkpt lat="36.7590560913086" lon="-5.10935306549072">
        <ele>793</ele>
        <time>2019-05-11T12:28:52Z</time>
      </trkpt>
      <trkpt lat="36.7590599060059" lon="-5.10936784744263">
        <ele>793</ele>
        <time>2019-05-11T12:28:54Z</time>
      </trkpt>
      <trkpt lat="36.7590637207031" lon="-5.10936498641968">
        <ele>793</ele>
        <time>2019-05-11T12:28:57Z</time>
      </trkpt>
      <trkpt lat="36.7590637207031" lon="-5.10936689376831">
        <ele>793</ele>
        <time>2019-05-11T12:28:59Z</time>
      </trkpt>
      <trkpt lat="36.7590637207031" lon="-5.10936498641968">
        <ele>793</ele>
        <time>2019-05-11T12:29:01Z</time>
      </trkpt>
      <trkpt lat="36.7590637207031" lon="-5.10936307907104">
        <ele>793</ele>
        <time>2019-05-11T12:29:03Z</time>
      </trkpt>
      <trkpt lat="36.7590637207031" lon="-5.10936307907104">
        <ele>793</ele>
        <time>2019-05-11T12:29:05Z</time>
      </trkpt>
      <trkpt lat="36.7590713500977" lon="-5.10936498641968">
        <ele>793</ele>
        <time>2019-05-11T12:29:07Z</time>
      </trkpt>
      <trkpt lat="36.7590751647949" lon="-5.10936784744263">
        <ele>793</ele>
        <time>2019-05-11T12:29:09Z</time>
      </trkpt>
      <trkpt lat="36.7590751647949" lon="-5.10937023162842">
        <ele>793</ele>
        <time>2019-05-11T12:29:11Z</time>
      </trkpt>
      <trkpt lat="36.7590751647949" lon="-5.10937023162842">
        <ele>793</ele>
        <time>2019-05-11T12:29:13Z</time>
      </trkpt>
      <trkpt lat="36.7590751647949" lon="-5.10937023162842">
        <ele>793</ele>
        <time>2019-05-11T12:29:15Z</time>
      </trkpt>
      <trkpt lat="36.7590751647949" lon="-5.10937023162842">
        <ele>793</ele>
        <time>2019-05-11T12:29:17Z</time>
      </trkpt>
      <trkpt lat="36.7590713500977" lon="-5.10936784744263">
        <ele>793</ele>
        <time>2019-05-11T12:29:19Z</time>
      </trkpt>
      <trkpt lat="36.7590751647949" lon="-5.10937023162842">
        <ele>793</ele>
        <time>2019-05-11T12:29:21Z</time>
      </trkpt>
      <trkpt lat="36.7590751647949" lon="-5.10937213897705">
        <ele>793</ele>
        <time>2019-05-11T12:29:23Z</time>
      </trkpt>
      <trkpt lat="36.7590789794922" lon="-5.10937023162842">
        <ele>793</ele>
        <time>2019-05-11T12:29:25Z</time>
      </trkpt>
      <trkpt lat="36.7590751647949" lon="-5.10936784744263">
        <ele>793</ele>
        <time>2019-05-11T12:29:27Z</time>
      </trkpt>
      <trkpt lat="36.7590789794922" lon="-5.10937023162842">
        <ele>793</ele>
        <time>2019-05-11T12:29:29Z</time>
      </trkpt>
      <trkpt lat="36.7590789794922" lon="-5.109375">
        <ele>793</ele>
        <time>2019-05-11T12:29:31Z</time>
      </trkpt>
      <trkpt lat="36.7590789794922" lon="-5.109375">
        <ele>793</ele>
        <time>2019-05-11T12:29:33Z</time>
      </trkpt>
      <trkpt lat="36.7590789794922" lon="-5.10937690734863">
        <ele>793</ele>
        <time>2019-05-11T12:29:35Z</time>
      </trkpt>
      <trkpt lat="36.7590751647949" lon="-5.10937690734863">
        <ele>793</ele>
        <time>2019-05-11T12:29:37Z</time>
      </trkpt>
      <trkpt lat="36.7590751647949" lon="-5.109375">
        <ele>793</ele>
        <time>2019-05-11T12:29:39Z</time>
      </trkpt>
      <trkpt lat="36.7590713500977" lon="-5.109375">
        <ele>793</ele>
        <time>2019-05-11T12:29:41Z</time>
      </trkpt>
      <trkpt lat="36.7590713500977" lon="-5.10937690734863">
        <ele>793</ele>
        <time>2019-05-11T12:29:43Z</time>
      </trkpt>
      <trkpt lat="36.7590713500977" lon="-5.10937690734863">
        <ele>793</ele>
        <time>2019-05-11T12:29:45Z</time>
      </trkpt>
      <trkpt lat="36.7590713500977" lon="-5.10937786102295">
        <ele>793</ele>
        <time>2019-05-11T12:29:47Z</time>
      </trkpt>
      <trkpt lat="36.7590713500977" lon="-5.10937786102295">
        <ele>793</ele>
        <time>2019-05-11T12:29:49Z</time>
      </trkpt>
      <trkpt lat="36.7590675354004" lon="-5.10937786102295">
        <ele>793</ele>
        <time>2019-05-11T12:29:51Z</time>
      </trkpt>
      <trkpt lat="36.7590675354004" lon="-5.10937786102295">
        <ele>793</ele>
        <time>2019-05-11T12:29:53Z</time>
      </trkpt>
      <trkpt lat="36.7590637207031" lon="-5.10937690734863">
        <ele>793</ele>
        <time>2019-05-11T12:29:55Z</time>
      </trkpt>
      <trkpt lat="36.7590637207031" lon="-5.10937690734863">
        <ele>793</ele>
        <time>2019-05-11T12:29:57Z</time>
      </trkpt>
      <trkpt lat="36.7590599060059" lon="-5.10937786102295">
        <ele>793</ele>
        <time>2019-05-11T12:29:59Z</time>
      </trkpt>
      <trkpt lat="36.7590599060059" lon="-5.10937786102295">
        <ele>793</ele>
        <time>2019-05-11T12:30:01Z</time>
      </trkpt>
      <trkpt lat="36.7590560913086" lon="-5.10937690734863">
        <ele>793</ele>
        <time>2019-05-11T12:30:03Z</time>
      </trkpt>
      <trkpt lat="36.7590560913086" lon="-5.10937690734863">
        <ele>793</ele>
        <time>2019-05-11T12:30:05Z</time>
      </trkpt>
      <trkpt lat="36.7590560913086" lon="-5.10937690734863">
        <ele>793</ele>
        <time>2019-05-11T12:30:07Z</time>
      </trkpt>
      <trkpt lat="36.7590560913086" lon="-5.10937309265137">
        <ele>793</ele>
        <time>2019-05-11T12:30:09Z</time>
      </trkpt>
      <trkpt lat="36.7590599060059" lon="-5.109375">
        <ele>793</ele>
        <time>2019-05-11T12:30:11Z</time>
      </trkpt>
      <trkpt lat="36.7590560913086" lon="-5.10937213897705">
        <ele>793</ele>
        <time>2019-05-11T12:30:13Z</time>
      </trkpt>
      <trkpt lat="36.7590560913086" lon="-5.10937213897705">
        <ele>793</ele>
        <time>2019-05-11T12:30:15Z</time>
      </trkpt>
      <trkpt lat="36.7590560913086" lon="-5.10937023162842">
        <ele>793</ele>
        <time>2019-05-11T12:30:17Z</time>
      </trkpt>
      <trkpt lat="36.7590560913086" lon="-5.10936689376831">
        <ele>793</ele>
        <time>2019-05-11T12:30:20Z</time>
      </trkpt>
      <trkpt lat="36.7590560913086" lon="-5.10936498641968">
        <ele>793</ele>
        <time>2019-05-11T12:30:22Z</time>
      </trkpt>
      <trkpt lat="36.7590560913086" lon="-5.10936212539673">
        <ele>793</ele>
        <time>2019-05-11T12:30:24Z</time>
      </trkpt>
      <trkpt lat="36.7590560913086" lon="-5.1093602180481">
        <ele>793</ele>
        <time>2019-05-11T12:30:26Z</time>
      </trkpt>
      <trkpt lat="36.7590560913086" lon="-5.1093578338623">
        <ele>793</ele>
        <time>2019-05-11T12:30:28Z</time>
      </trkpt>
      <trkpt lat="36.7590560913086" lon="-5.1093602180481">
        <ele>793</ele>
        <time>2019-05-11T12:30:30Z</time>
      </trkpt>
      <trkpt lat="36.7590560913086" lon="-5.10935688018799">
        <ele>793</ele>
        <time>2019-05-11T12:30:32Z</time>
      </trkpt>
      <trkpt lat="36.7590560913086" lon="-5.1093578338623">
        <ele>793</ele>
        <time>2019-05-11T12:30:34Z</time>
      </trkpt>
      <trkpt lat="36.7590560913086" lon="-5.10935497283936">
        <ele>793</ele>
        <time>2019-05-11T12:30:36Z</time>
      </trkpt>
      <trkpt lat="36.7590484619141" lon="-5.10935688018799">
        <ele>793</ele>
        <time>2019-05-11T12:30:38Z</time>
      </trkpt>
      <trkpt lat="36.7590484619141" lon="-5.10935497283936">
        <ele>793</ele>
        <time>2019-05-11T12:30:40Z</time>
      </trkpt>
      <trkpt lat="36.7590484619141" lon="-5.10935306549072">
        <ele>793</ele>
        <time>2019-05-11T12:30:42Z</time>
      </trkpt>
      <trkpt lat="36.7590522766113" lon="-5.10935306549072">
        <ele>793</ele>
        <time>2019-05-11T12:30:44Z</time>
      </trkpt>
      <trkpt lat="36.7590560913086" lon="-5.10935497283936">
        <ele>793</ele>
        <time>2019-05-11T12:30:46Z</time>
      </trkpt>
      <trkpt lat="36.7590599060059" lon="-5.10935688018799">
        <ele>794</ele>
        <time>2019-05-11T12:30:48Z</time>
      </trkpt>
      <trkpt lat="36.7590637207031" lon="-5.1093578338623">
        <ele>794</ele>
        <time>2019-05-11T12:30:50Z</time>
      </trkpt>
      <trkpt lat="36.7590637207031" lon="-5.1093578338623">
        <ele>794</ele>
        <time>2019-05-11T12:30:52Z</time>
      </trkpt>
      <trkpt lat="36.7590637207031" lon="-5.1093602180481">
        <ele>794</ele>
        <time>2019-05-11T12:30:54Z</time>
      </trkpt>
      <trkpt lat="36.7590637207031" lon="-5.1093602180481">
        <ele>794</ele>
        <time>2019-05-11T12:30:56Z</time>
      </trkpt>
      <trkpt lat="36.7590675354004" lon="-5.10936212539673">
        <ele>794</ele>
        <time>2019-05-11T12:30:58Z</time>
      </trkpt>
      <trkpt lat="36.7590713500977" lon="-5.1093602180481">
        <ele>794</ele>
        <time>2019-05-11T12:31:00Z</time>
      </trkpt>
      <trkpt lat="36.7590713500977" lon="-5.1093602180481">
        <ele>794</ele>
        <time>2019-05-11T12:31:02Z</time>
      </trkpt>
      <trkpt lat="36.7590751647949" lon="-5.10936307907104">
        <ele>794</ele>
        <time>2019-05-11T12:31:04Z</time>
      </trkpt>
      <trkpt lat="36.7590751647949" lon="-5.10936498641968">
        <ele>794</ele>
        <time>2019-05-11T12:31:06Z</time>
      </trkpt>
      <trkpt lat="36.7590751647949" lon="-5.10936498641968">
        <ele>794</ele>
        <time>2019-05-11T12:31:08Z</time>
      </trkpt>
      <trkpt lat="36.7590751647949" lon="-5.10936498641968">
        <ele>794</ele>
        <time>2019-05-11T12:31:10Z</time>
      </trkpt>
      <trkpt lat="36.7590713500977" lon="-5.10936689376831">
        <ele>794</ele>
        <time>2019-05-11T12:31:16Z</time>
      </trkpt>
      <trkpt lat="36.7590713500977" lon="-5.1093578338623">
        <ele>794</ele>
        <time>2019-05-11T12:31:18Z</time>
      </trkpt>
      <trkpt lat="36.7590789794922" lon="-5.10935497283936">
        <ele>794</ele>
        <time>2019-05-11T12:31:20Z</time>
      </trkpt>
      <trkpt lat="36.7590789794922" lon="-5.10935211181641">
        <ele>794</ele>
        <time>2019-05-11T12:31:22Z</time>
      </trkpt>
      <trkpt lat="36.7590789794922" lon="-5.10935211181641">
        <ele>794</ele>
        <time>2019-05-11T12:31:25Z</time>
      </trkpt>
      <trkpt lat="36.7590866088867" lon="-5.10934782028198">
        <ele>794</ele>
        <time>2019-05-11T12:31:27Z</time>
      </trkpt>
      <trkpt lat="36.7591018676758" lon="-5.10934686660767">
        <ele>794</ele>
        <time>2019-05-11T12:31:29Z</time>
      </trkpt>
      <trkpt lat="36.7591133117676" lon="-5.10934209823608">
        <ele>795</ele>
        <time>2019-05-11T12:31:31Z</time>
      </trkpt>
      <trkpt lat="36.7591285705566" lon="-5.10933685302734">
        <ele>795</ele>
        <time>2019-05-11T12:31:33Z</time>
      </trkpt>
      <trkpt lat="36.7591514587402" lon="-5.10934019088745">
        <ele>796</ele>
        <time>2019-05-11T12:31:35Z</time>
      </trkpt>
      <trkpt lat="36.7591705322266" lon="-5.10934686660767">
        <ele>796</ele>
        <time>2019-05-11T12:31:37Z</time>
      </trkpt>
      <trkpt lat="36.7591934204102" lon="-5.10934686660767">
        <ele>797</ele>
        <time>2019-05-11T12:31:39Z</time>
      </trkpt>
      <trkpt lat="36.7592124938965" lon="-5.10934782028198">
        <ele>797</ele>
        <time>2019-05-11T12:31:41Z</time>
      </trkpt>
      <trkpt lat="36.7592430114746" lon="-5.1093602180481">
        <ele>797</ele>
        <time>2019-05-11T12:31:43Z</time>
      </trkpt>
      <trkpt lat="36.7592620849609" lon="-5.10936498641968">
        <ele>797</ele>
        <time>2019-05-11T12:31:45Z</time>
      </trkpt>
      <trkpt lat="36.7592811584473" lon="-5.109375">
        <ele>797</ele>
        <time>2019-05-11T12:31:47Z</time>
      </trkpt>
      <trkpt lat="36.7593040466309" lon="-5.10938310623169">
        <ele>797</ele>
        <time>2019-05-11T12:31:49Z</time>
      </trkpt>
      <trkpt lat="36.7593269348144" lon="-5.10939311981201">
        <ele>797</ele>
        <time>2019-05-11T12:31:51Z</time>
      </trkpt>
      <trkpt lat="36.7593536376953" lon="-5.1094069480896">
        <ele>797</ele>
        <time>2019-05-11T12:31:53Z</time>
      </trkpt>
      <trkpt lat="36.7593765258789" lon="-5.10941314697266">
        <ele>797</ele>
        <time>2019-05-11T12:31:55Z</time>
      </trkpt>
      <trkpt lat="36.7593994140625" lon="-5.10942220687866">
        <ele>797</ele>
        <time>2019-05-11T12:31:57Z</time>
      </trkpt>
      <trkpt lat="36.7594223022461" lon="-5.1094331741333">
        <ele>797</ele>
        <time>2019-05-11T12:32:00Z</time>
      </trkpt>
      <trkpt lat="36.7594413757324" lon="-5.10944318771362">
        <ele>797</ele>
        <time>2019-05-11T12:32:02Z</time>
      </trkpt>
      <trkpt lat="36.7594680786133" lon="-5.1094479560852">
        <ele>797</ele>
        <time>2019-05-11T12:32:04Z</time>
      </trkpt>
      <trkpt lat="36.7594909667969" lon="-5.10945510864258">
        <ele>797</ele>
        <time>2019-05-11T12:32:06Z</time>
      </trkpt>
      <trkpt lat="36.7595138549805" lon="-5.10946798324585">
        <ele>797</ele>
        <time>2019-05-11T12:32:08Z</time>
      </trkpt>
      <trkpt lat="36.7595367431641" lon="-5.10947799682617">
        <ele>797</ele>
        <time>2019-05-11T12:32:10Z</time>
      </trkpt>
      <trkpt lat="36.7595672607422" lon="-5.10949182510376">
        <ele>797</ele>
        <time>2019-05-11T12:32:12Z</time>
      </trkpt>
      <trkpt lat="36.759593963623" lon="-5.10950183868408">
        <ele>797</ele>
        <time>2019-05-11T12:32:14Z</time>
      </trkpt>
      <trkpt lat="36.7596206665039" lon="-5.10951519012451">
        <ele>797</ele>
        <time>2019-05-11T12:32:16Z</time>
      </trkpt>
      <trkpt lat="36.759651184082" lon="-5.10952997207642">
        <ele>797</ele>
        <time>2019-05-11T12:32:18Z</time>
      </trkpt>
      <trkpt lat="36.759693145752" lon="-5.10954713821411">
        <ele>797</ele>
        <time>2019-05-11T12:32:20Z</time>
      </trkpt>
      <trkpt lat="36.7597198486328" lon="-5.10955715179443">
        <ele>797</ele>
        <time>2019-05-11T12:32:22Z</time>
      </trkpt>
      <trkpt lat="36.7597503662109" lon="-5.10956478118896">
        <ele>796</ele>
        <time>2019-05-11T12:32:24Z</time>
      </trkpt>
      <trkpt lat="36.7597770690918" lon="-5.10957717895508">
        <ele>796</ele>
        <time>2019-05-11T12:32:26Z</time>
      </trkpt>
      <trkpt lat="36.7598037719727" lon="-5.10958814620972">
        <ele>796</ele>
        <time>2019-05-11T12:32:28Z</time>
      </trkpt>
      <trkpt lat="36.7598304748535" lon="-5.10960006713867">
        <ele>796</ele>
        <time>2019-05-11T12:32:30Z</time>
      </trkpt>
      <trkpt lat="36.7598571777344" lon="-5.10961008071899">
        <ele>796</ele>
        <time>2019-05-11T12:32:32Z</time>
      </trkpt>
      <trkpt lat="36.7598838806152" lon="-5.10962200164795">
        <ele>795</ele>
        <time>2019-05-11T12:32:35Z</time>
      </trkpt>
      <trkpt lat="36.7599067687988" lon="-5.10963201522827">
        <ele>795</ele>
        <time>2019-05-11T12:32:37Z</time>
      </trkpt>
      <trkpt lat="36.7599334716797" lon="-5.10964202880859">
        <ele>795</ele>
        <time>2019-05-11T12:32:39Z</time>
      </trkpt>
      <trkpt lat="36.7599601745606" lon="-5.10965013504028">
        <ele>795</ele>
        <time>2019-05-11T12:32:41Z</time>
      </trkpt>
      <trkpt lat="36.7599868774414" lon="-5.10965490341186">
        <ele>795</ele>
        <time>2019-05-11T12:32:43Z</time>
      </trkpt>
      <trkpt lat="36.7600135803223" lon="-5.10966300964356">
        <ele>795</ele>
        <time>2019-05-11T12:32:45Z</time>
      </trkpt>
      <trkpt lat="36.7600364685059" lon="-5.10967016220093">
        <ele>795</ele>
        <time>2019-05-11T12:32:47Z</time>
      </trkpt>
      <trkpt lat="36.7600631713867" lon="-5.10967683792114">
        <ele>795</ele>
        <time>2019-05-11T12:32:49Z</time>
      </trkpt>
      <trkpt lat="36.7600860595703" lon="-5.10968494415283">
        <ele>795</ele>
        <time>2019-05-11T12:32:51Z</time>
      </trkpt>
      <trkpt lat="36.7601089477539" lon="-5.10969305038452">
        <ele>794</ele>
        <time>2019-05-11T12:32:53Z</time>
      </trkpt>
      <trkpt lat="36.7601432800293" lon="-5.10970211029053">
        <ele>794</ele>
        <time>2019-05-11T12:32:55Z</time>
      </trkpt>
      <trkpt lat="36.7601737976074" lon="-5.10970497131348">
        <ele>794</ele>
        <time>2019-05-11T12:32:57Z</time>
      </trkpt>
      <trkpt lat="36.760196685791" lon="-5.10971021652222">
        <ele>794</ele>
        <time>2019-05-11T12:32:59Z</time>
      </trkpt>
      <trkpt lat="36.7602233886719" lon="-5.10971212387085">
        <ele>794</ele>
        <time>2019-05-11T12:33:01Z</time>
      </trkpt>
      <trkpt lat="36.7602462768555" lon="-5.10971689224243">
        <ele>794</ele>
        <time>2019-05-11T12:33:03Z</time>
      </trkpt>
      <trkpt lat="36.7602767944336" lon="-5.10972213745117">
        <ele>794</ele>
        <time>2019-05-11T12:33:05Z</time>
      </trkpt>
      <trkpt lat="36.7603034973144" lon="-5.10972785949707">
        <ele>794</ele>
        <time>2019-05-11T12:33:07Z</time>
      </trkpt>
      <trkpt lat="36.7603302001953" lon="-5.10973501205444">
        <ele>794</ele>
        <time>2019-05-11T12:33:09Z</time>
      </trkpt>
      <trkpt lat="36.7603569030762" lon="-5.10973691940308">
        <ele>793</ele>
        <time>2019-05-11T12:33:12Z</time>
      </trkpt>
      <trkpt lat="36.760383605957" lon="-5.10973978042603">
        <ele>793</ele>
        <time>2019-05-11T12:33:14Z</time>
      </trkpt>
      <trkpt lat="36.7604141235352" lon="-5.10974788665772">
        <ele>793</ele>
        <time>2019-05-11T12:33:16Z</time>
      </trkpt>
      <trkpt lat="36.760440826416" lon="-5.10975503921509">
        <ele>793</ele>
        <time>2019-05-11T12:33:18Z</time>
      </trkpt>
      <trkpt lat="36.7604675292969" lon="-5.10975980758667">
        <ele>791</ele>
        <time>2019-05-11T12:33:20Z</time>
      </trkpt>
      <trkpt lat="36.7604942321777" lon="-5.10976219177246">
        <ele>791</ele>
        <time>2019-05-11T12:33:22Z</time>
      </trkpt>
      <trkpt lat="36.7605247497559" lon="-5.10976314544678">
        <ele>791</ele>
        <time>2019-05-11T12:33:24Z</time>
      </trkpt>
      <trkpt lat="36.7605514526367" lon="-5.10976696014404">
        <ele>791</ele>
        <time>2019-05-11T12:33:26Z</time>
      </trkpt>
      <trkpt lat="36.7605743408203" lon="-5.1097731590271">
        <ele>791</ele>
        <time>2019-05-11T12:33:28Z</time>
      </trkpt>
      <trkpt lat="36.7605972290039" lon="-5.10977697372436">
        <ele>791</ele>
        <time>2019-05-11T12:33:30Z</time>
      </trkpt>
      <trkpt lat="36.7606391906738" lon="-5.10978698730469">
        <ele>791</ele>
        <time>2019-05-11T12:33:32Z</time>
      </trkpt>
      <trkpt lat="36.7606620788574" lon="-5.10979795455933">
        <ele>791</ele>
        <time>2019-05-11T12:33:34Z</time>
      </trkpt>
      <trkpt lat="36.7606887817383" lon="-5.1098051071167">
        <ele>791</ele>
        <time>2019-05-11T12:33:36Z</time>
      </trkpt>
      <trkpt lat="36.7607154846191" lon="-5.10980701446533">
        <ele>791</ele>
        <time>2019-05-11T12:33:38Z</time>
      </trkpt>
      <trkpt lat="36.7607421875" lon="-5.10981178283691">
        <ele>791</ele>
        <time>2019-05-11T12:33:40Z</time>
      </trkpt>
      <trkpt lat="36.7607688903809" lon="-5.10980701446533">
        <ele>790</ele>
        <time>2019-05-11T12:33:42Z</time>
      </trkpt>
      <trkpt lat="36.7607955932617" lon="-5.10980987548828">
        <ele>790</ele>
        <time>2019-05-11T12:33:44Z</time>
      </trkpt>
      <trkpt lat="36.7608222961426" lon="-5.10981321334839">
        <ele>790</ele>
        <time>2019-05-11T12:33:46Z</time>
      </trkpt>
      <trkpt lat="36.7608489990234" lon="-5.10981321334839">
        <ele>790</ele>
        <time>2019-05-11T12:33:48Z</time>
      </trkpt>
      <trkpt lat="36.7608795166016" lon="-5.10981512069702">
        <ele>790</ele>
        <time>2019-05-11T12:33:51Z</time>
      </trkpt>
      <trkpt lat="36.760913848877" lon="-5.10981512069702">
        <ele>790</ele>
        <time>2019-05-11T12:33:53Z</time>
      </trkpt>
      <trkpt lat="36.7609367370606" lon="-5.10981702804565">
        <ele>790</ele>
        <time>2019-05-11T12:33:55Z</time>
      </trkpt>
      <trkpt lat="36.7609634399414" lon="-5.10981512069702">
        <ele>790</ele>
        <time>2019-05-11T12:33:57Z</time>
      </trkpt>
      <trkpt lat="36.7609939575195" lon="-5.10981321334839">
        <ele>790</ele>
        <time>2019-05-11T12:33:59Z</time>
      </trkpt>
      <trkpt lat="36.7610244750977" lon="-5.10981178283691">
        <ele>790</ele>
        <time>2019-05-11T12:34:01Z</time>
      </trkpt>
      <trkpt lat="36.761058807373" lon="-5.10981178283691">
        <ele>790</ele>
        <time>2019-05-11T12:34:03Z</time>
      </trkpt>
      <trkpt lat="36.7610855102539" lon="-5.10981178283691">
        <ele>790</ele>
        <time>2019-05-11T12:34:05Z</time>
      </trkpt>
      <trkpt lat="36.7611198425293" lon="-5.10981321334839">
        <ele>790</ele>
        <time>2019-05-11T12:34:07Z</time>
      </trkpt>
      <trkpt lat="36.7611503601074" lon="-5.10981702804565">
        <ele>790</ele>
        <time>2019-05-11T12:34:09Z</time>
      </trkpt>
      <trkpt lat="36.7611808776856" lon="-5.10982179641724">
        <ele>790</ele>
        <time>2019-05-11T12:34:11Z</time>
      </trkpt>
      <trkpt lat="36.7612190246582" lon="-5.10982990264893">
        <ele>790</ele>
        <time>2019-05-11T12:34:13Z</time>
      </trkpt>
      <trkpt lat="36.7612457275391" lon="-5.10983800888062">
        <ele>790</ele>
        <time>2019-05-11T12:34:15Z</time>
      </trkpt>
      <trkpt lat="36.7612762451172" lon="-5.10984182357788">
        <ele>790</ele>
        <time>2019-05-11T12:34:17Z</time>
      </trkpt>
      <trkpt lat="36.7613067626953" lon="-5.10984706878662">
        <ele>790</ele>
        <time>2019-05-11T12:34:19Z</time>
      </trkpt>
      <trkpt lat="36.7613334655762" lon="-5.1098518371582">
        <ele>790</ele>
        <time>2019-05-11T12:34:21Z</time>
      </trkpt>
      <trkpt lat="36.7613639831543" lon="-5.10985279083252">
        <ele>790</ele>
        <time>2019-05-11T12:34:23Z</time>
      </trkpt>
      <trkpt lat="36.7613906860352" lon="-5.10985279083252">
        <ele>790</ele>
        <time>2019-05-11T12:34:25Z</time>
      </trkpt>
      <trkpt lat="36.7614212036133" lon="-5.10985517501831">
        <ele>790</ele>
        <time>2019-05-11T12:34:27Z</time>
      </trkpt>
      <trkpt lat="36.7614517211914" lon="-5.10985517501831">
        <ele>790</ele>
        <time>2019-05-11T12:34:30Z</time>
      </trkpt>
      <trkpt lat="36.7614784240723" lon="-5.10984992980957">
        <ele>790</ele>
        <time>2019-05-11T12:34:32Z</time>
      </trkpt>
      <trkpt lat="36.7615013122559" lon="-5.10984516143799">
        <ele>790</ele>
        <time>2019-05-11T12:34:34Z</time>
      </trkpt>
      <trkpt lat="36.761531829834" lon="-5.1098427772522">
        <ele>790</ele>
        <time>2019-05-11T12:34:36Z</time>
      </trkpt>
      <trkpt lat="36.7615547180176" lon="-5.10984182357788">
        <ele>790</ele>
        <time>2019-05-11T12:34:38Z</time>
      </trkpt>
      <trkpt lat="36.7615814208984" lon="-5.1098427772522">
        <ele>789</ele>
        <time>2019-05-11T12:34:40Z</time>
      </trkpt>
      <trkpt lat="36.7616081237793" lon="-5.10983991622925">
        <ele>789</ele>
        <time>2019-05-11T12:34:42Z</time>
      </trkpt>
      <trkpt lat="36.7616348266602" lon="-5.1098370552063">
        <ele>789</ele>
        <time>2019-05-11T12:34:44Z</time>
      </trkpt>
      <trkpt lat="36.7616577148438" lon="-5.10983514785767">
        <ele>789</ele>
        <time>2019-05-11T12:34:46Z</time>
      </trkpt>
      <trkpt lat="36.7616806030273" lon="-5.10983180999756">
        <ele>789</ele>
        <time>2019-05-11T12:34:48Z</time>
      </trkpt>
      <trkpt lat="36.7617034912109" lon="-5.10982990264893">
        <ele>789</ele>
        <time>2019-05-11T12:34:50Z</time>
      </trkpt>
      <trkpt lat="36.7617301940918" lon="-5.10982990264893">
        <ele>789</ele>
        <time>2019-05-11T12:34:52Z</time>
      </trkpt>
      <trkpt lat="36.761775970459" lon="-5.10982704162598">
        <ele>789</ele>
        <time>2019-05-11T12:34:54Z</time>
      </trkpt>
      <trkpt lat="36.7617988586426" lon="-5.10982704162598">
        <ele>789</ele>
        <time>2019-05-11T12:34:56Z</time>
      </trkpt>
      <trkpt lat="36.7618179321289" lon="-5.10982704162598">
        <ele>789</ele>
        <time>2019-05-11T12:34:58Z</time>
      </trkpt>
      <trkpt lat="36.7618446350098" lon="-5.10982704162598">
        <ele>789</ele>
        <time>2019-05-11T12:35:00Z</time>
      </trkpt>
      <trkpt lat="36.7618713378906" lon="-5.10982704162598">
        <ele>789</ele>
        <time>2019-05-11T12:35:02Z</time>
      </trkpt>
      <trkpt lat="36.7618980407715" lon="-5.10982513427734">
        <ele>789</ele>
        <time>2019-05-11T12:35:04Z</time>
      </trkpt>
      <trkpt lat="36.7619285583496" lon="-5.10982513427734">
        <ele>789</ele>
        <time>2019-05-11T12:35:06Z</time>
      </trkpt>
      <trkpt lat="36.7619590759277" lon="-5.10982704162598">
        <ele>789</ele>
        <time>2019-05-11T12:35:08Z</time>
      </trkpt>
      <trkpt lat="36.7619895935059" lon="-5.10982704162598">
        <ele>789</ele>
        <time>2019-05-11T12:35:10Z</time>
      </trkpt>
      <trkpt lat="36.762020111084" lon="-5.10982704162598">
        <ele>789</ele>
        <time>2019-05-11T12:35:12Z</time>
      </trkpt>
      <trkpt lat="36.7620506286621" lon="-5.10982704162598">
        <ele>789</ele>
        <time>2019-05-11T12:35:14Z</time>
      </trkpt>
      <trkpt lat="36.7620811462402" lon="-5.10982704162598">
        <ele>789</ele>
        <time>2019-05-11T12:35:17Z</time>
      </trkpt>
      <trkpt lat="36.7621154785156" lon="-5.10982704162598">
        <ele>789</ele>
        <time>2019-05-11T12:35:19Z</time>
      </trkpt>
      <trkpt lat="36.762149810791" lon="-5.10982799530029">
        <ele>789</ele>
        <time>2019-05-11T12:35:21Z</time>
      </trkpt>
      <trkpt lat="36.7621803283691" lon="-5.10982799530029">
        <ele>789</ele>
        <time>2019-05-11T12:35:23Z</time>
      </trkpt>
      <trkpt lat="36.7622108459473" lon="-5.10982704162598">
        <ele>789</ele>
        <time>2019-05-11T12:35:25Z</time>
      </trkpt>
      <trkpt lat="36.7622375488281" lon="-5.10982704162598">
        <ele>789</ele>
        <time>2019-05-11T12:35:27Z</time>
      </trkpt>
      <trkpt lat="36.762264251709" lon="-5.10982799530029">
        <ele>789</ele>
        <time>2019-05-11T12:35:29Z</time>
      </trkpt>
      <trkpt lat="36.7622947692871" lon="-5.10982990264893">
        <ele>789</ele>
        <time>2019-05-11T12:35:31Z</time>
      </trkpt>
      <trkpt lat="36.7623252868652" lon="-5.10982990264893">
        <ele>789</ele>
        <time>2019-05-11T12:35:33Z</time>
      </trkpt>
      <trkpt lat="36.7623748779297" lon="-5.10982990264893">
        <ele>789</ele>
        <time>2019-05-11T12:35:35Z</time>
      </trkpt>
      <trkpt lat="36.7624053955078" lon="-5.10982990264893">
        <ele>789</ele>
        <time>2019-05-11T12:35:37Z</time>
      </trkpt>
      <trkpt lat="36.7624359130859" lon="-5.10983180999756">
        <ele>789</ele>
        <time>2019-05-11T12:35:39Z</time>
      </trkpt>
      <trkpt lat="36.7624626159668" lon="-5.10982990264893">
        <ele>789</ele>
        <time>2019-05-11T12:35:41Z</time>
      </trkpt>
      <trkpt lat="36.7624931335449" lon="-5.10982799530029">
        <ele>789</ele>
        <time>2019-05-11T12:35:43Z</time>
      </trkpt>
      <trkpt lat="36.7625198364258" lon="-5.10983180999756">
        <ele>789</ele>
        <time>2019-05-11T12:35:45Z</time>
      </trkpt>
      <trkpt lat="36.7625465393066" lon="-5.10983276367188">
        <ele>789</ele>
        <time>2019-05-11T12:35:47Z</time>
      </trkpt>
      <trkpt lat="36.7625770568848" lon="-5.10983180999756">
        <ele>789</ele>
        <time>2019-05-11T12:35:49Z</time>
      </trkpt>
      <trkpt lat="36.7626037597656" lon="-5.10983180999756">
        <ele>789</ele>
        <time>2019-05-11T12:35:51Z</time>
      </trkpt>
      <trkpt lat="36.7626304626465" lon="-5.10983276367188">
        <ele>789</ele>
        <time>2019-05-11T12:35:54Z</time>
      </trkpt>
      <trkpt lat="36.7626609802246" lon="-5.1098370552063">
        <ele>789</ele>
        <time>2019-05-11T12:35:56Z</time>
      </trkpt>
      <trkpt lat="36.7626914978027" lon="-5.10984182357788">
        <ele>789</ele>
        <time>2019-05-11T12:35:58Z</time>
      </trkpt>
      <trkpt lat="36.7627220153809" lon="-5.1098427772522">
        <ele>789</ele>
        <time>2019-05-11T12:36:00Z</time>
      </trkpt>
      <trkpt lat="36.762752532959" lon="-5.10984706878662">
        <ele>789</ele>
        <time>2019-05-11T12:36:02Z</time>
      </trkpt>
      <trkpt lat="36.7627868652344" lon="-5.10985517501831">
        <ele>789</ele>
        <time>2019-05-11T12:36:04Z</time>
      </trkpt>
      <trkpt lat="36.7628211975098" lon="-5.10986280441284">
        <ele>789</ele>
        <time>2019-05-11T12:36:06Z</time>
      </trkpt>
      <trkpt lat="36.7628517150879" lon="-5.10987186431885">
        <ele>789</ele>
        <time>2019-05-11T12:36:08Z</time>
      </trkpt>
      <trkpt lat="36.762882232666" lon="-5.10988283157349">
        <ele>789</ele>
        <time>2019-05-11T12:36:10Z</time>
      </trkpt>
      <trkpt lat="36.7629127502441" lon="-5.10989809036255">
        <ele>789</ele>
        <time>2019-05-11T12:36:12Z</time>
      </trkpt>
      <trkpt lat="36.7629585266113" lon="-5.10992193222046">
        <ele>789</ele>
        <time>2019-05-11T12:36:14Z</time>
      </trkpt>
      <trkpt lat="36.7629852294922" lon="-5.10994005203247">
        <ele>789</ele>
        <time>2019-05-11T12:36:16Z</time>
      </trkpt>
      <trkpt lat="36.763011932373" lon="-5.10995483398438">
        <ele>789</ele>
        <time>2019-05-11T12:36:18Z</time>
      </trkpt>
      <trkpt lat="36.7630424499512" lon="-5.10997009277344">
        <ele>789</ele>
        <time>2019-05-11T12:36:20Z</time>
      </trkpt>
      <trkpt lat="36.763069152832" lon="-5.10998487472534">
        <ele>789</ele>
        <time>2019-05-11T12:36:22Z</time>
      </trkpt>
      <trkpt lat="36.7630958557129" lon="-5.11000299453735">
        <ele>789</ele>
        <time>2019-05-11T12:36:24Z</time>
      </trkpt>
      <trkpt lat="36.763126373291" lon="-5.11001682281494">
        <ele>789</ele>
        <time>2019-05-11T12:36:26Z</time>
      </trkpt>
      <trkpt lat="36.7631568908691" lon="-5.110032081604">
        <ele>788</ele>
        <time>2019-05-11T12:36:28Z</time>
      </trkpt>
      <trkpt lat="36.7631759643555" lon="-5.11004209518433">
        <ele>788</ele>
        <time>2019-05-11T12:36:31Z</time>
      </trkpt>
      <trkpt lat="36.7632064819336" lon="-5.11005306243896">
        <ele>788</ele>
        <time>2019-05-11T12:36:33Z</time>
      </trkpt>
      <trkpt lat="36.7632293701172" lon="-5.11006498336792">
        <ele>788</ele>
        <time>2019-05-11T12:36:35Z</time>
      </trkpt>
      <trkpt lat="36.763256072998" lon="-5.11007785797119">
        <ele>788</ele>
        <time>2019-05-11T12:36:37Z</time>
      </trkpt>
      <trkpt lat="36.7632827758789" lon="-5.1100869178772">
        <ele>788</ele>
        <time>2019-05-11T12:36:39Z</time>
      </trkpt>
      <trkpt lat="36.7633094787598" lon="-5.11009502410889">
        <ele>788</ele>
        <time>2019-05-11T12:36:41Z</time>
      </trkpt>
      <trkpt lat="36.7633323669434" lon="-5.11010313034058">
        <ele>788</ele>
        <time>2019-05-11T12:36:43Z</time>
      </trkpt>
      <trkpt lat="36.7633590698242" lon="-5.11011505126953">
        <ele>787</ele>
        <time>2019-05-11T12:36:45Z</time>
      </trkpt>
      <trkpt lat="36.7633819580078" lon="-5.11012506484985">
        <ele>786</ele>
        <time>2019-05-11T12:36:47Z</time>
      </trkpt>
      <trkpt lat="36.7634239196777" lon="-5.11013698577881">
        <ele>786</ele>
        <time>2019-05-11T12:36:49Z</time>
      </trkpt>
      <trkpt lat="36.7634582519531" lon="-5.11014223098755">
        <ele>786</ele>
        <time>2019-05-11T12:36:51Z</time>
      </trkpt>
      <trkpt lat="36.7634887695312" lon="-5.11014699935913">
        <ele>786</ele>
        <time>2019-05-11T12:36:53Z</time>
      </trkpt>
      <trkpt lat="36.7635192871094" lon="-5.11014795303345">
        <ele>786</ele>
        <time>2019-05-11T12:36:55Z</time>
      </trkpt>
      <trkpt lat="36.7635498046875" lon="-5.11014699935913">
        <ele>786</ele>
        <time>2019-05-11T12:36:57Z</time>
      </trkpt>
      <trkpt lat="36.7635803222656" lon="-5.11014318466186">
        <ele>786</ele>
        <time>2019-05-11T12:36:59Z</time>
      </trkpt>
      <trkpt lat="36.7636108398438" lon="-5.11013698577881">
        <ele>786</ele>
        <time>2019-05-11T12:37:01Z</time>
      </trkpt>
      <trkpt lat="36.7636413574219" lon="-5.1101279258728">
        <ele>786</ele>
        <time>2019-05-11T12:37:03Z</time>
      </trkpt>
      <trkpt lat="36.7636795043945" lon="-5.11012697219849">
        <ele>786</ele>
        <time>2019-05-11T12:37:06Z</time>
      </trkpt>
      <trkpt lat="36.7637176513672" lon="-5.11012506484985">
        <ele>786</ele>
        <time>2019-05-11T12:37:08Z</time>
      </trkpt>
      <trkpt lat="36.7637596130371" lon="-5.1101222038269">
        <ele>786</ele>
        <time>2019-05-11T12:37:10Z</time>
      </trkpt>
      <trkpt lat="36.7637825012207" lon="-5.11010980606079">
        <ele>786</ele>
        <time>2019-05-11T12:37:12Z</time>
      </trkpt>
      <trkpt lat="36.7638168334961" lon="-5.11009979248047">
        <ele>786</ele>
        <time>2019-05-11T12:37:14Z</time>
      </trkpt>
      <trkpt lat="36.7638473510742" lon="-5.11008501052856">
        <ele>786</ele>
        <time>2019-05-11T12:37:16Z</time>
      </trkpt>
      <trkpt lat="36.7638816833496" lon="-5.11006689071655">
        <ele>786</ele>
        <time>2019-05-11T12:37:18Z</time>
      </trkpt>
      <trkpt lat="36.7639198303223" lon="-5.11004495620728">
        <ele>786</ele>
        <time>2019-05-11T12:37:20Z</time>
      </trkpt>
      <trkpt lat="36.7639579772949" lon="-5.11003017425537">
        <ele>786</ele>
        <time>2019-05-11T12:37:22Z</time>
      </trkpt>
      <trkpt lat="36.7640075683594" lon="-5.11000680923462">
        <ele>787</ele>
        <time>2019-05-11T12:37:24Z</time>
      </trkpt>
      <trkpt lat="36.7640380859375" lon="-5.1099967956543">
        <ele>787</ele>
        <time>2019-05-11T12:37:26Z</time>
      </trkpt>
      <trkpt lat="36.7640724182129" lon="-5.10999202728272">
        <ele>788</ele>
        <time>2019-05-11T12:37:28Z</time>
      </trkpt>
      <trkpt lat="36.7641067504883" lon="-5.10997676849365">
        <ele>788</ele>
        <time>2019-05-11T12:37:30Z</time>
      </trkpt>
      <trkpt lat="36.7641525268555" lon="-5.1099681854248">
        <ele>788</ele>
        <time>2019-05-11T12:37:32Z</time>
      </trkpt>
      <trkpt lat="36.7641983032227" lon="-5.10996198654175">
        <ele>788</ele>
        <time>2019-05-11T12:37:34Z</time>
      </trkpt>
      <trkpt lat="36.7642364501953" lon="-5.10995817184448">
        <ele>788</ele>
        <time>2019-05-11T12:37:36Z</time>
      </trkpt>
      <trkpt lat="36.7642784118652" lon="-5.10994482040405">
        <ele>788</ele>
        <time>2019-05-11T12:37:38Z</time>
      </trkpt>
      <trkpt lat="36.7643165588379" lon="-5.10993194580078">
        <ele>788</ele>
        <time>2019-05-11T12:37:41Z</time>
      </trkpt>
      <trkpt lat="36.7643585205078" lon="-5.10991477966309">
        <ele>788</ele>
        <time>2019-05-11T12:37:43Z</time>
      </trkpt>
      <trkpt lat="36.7643966674805" lon="-5.1098952293396">
        <ele>788</ele>
        <time>2019-05-11T12:37:45Z</time>
      </trkpt>
      <trkpt lat="36.7644386291504" lon="-5.10988187789917">
        <ele>788</ele>
        <time>2019-05-11T12:37:47Z</time>
      </trkpt>
      <trkpt lat="36.764476776123" lon="-5.10986518859863">
        <ele>788</ele>
        <time>2019-05-11T12:37:49Z</time>
      </trkpt>
      <trkpt lat="36.764518737793" lon="-5.10984182357788">
        <ele>788</ele>
        <time>2019-05-11T12:37:51Z</time>
      </trkpt>
      <trkpt lat="36.7645645141602" lon="-5.10982322692871">
        <ele>788</ele>
        <time>2019-05-11T12:37:53Z</time>
      </trkpt>
      <trkpt lat="36.7646026611328" lon="-5.10980701446533">
        <ele>788</ele>
        <time>2019-05-11T12:37:55Z</time>
      </trkpt>
      <trkpt lat="36.7646408081055" lon="-5.10978221893311">
        <ele>788</ele>
        <time>2019-05-11T12:37:57Z</time>
      </trkpt>
      <trkpt lat="36.764705657959" lon="-5.10974979400635">
        <ele>788</ele>
        <time>2019-05-11T12:37:59Z</time>
      </trkpt>
      <trkpt lat="36.7647438049316" lon="-5.10972785949707">
        <ele>788</ele>
        <time>2019-05-11T12:38:01Z</time>
      </trkpt>
      <trkpt lat="36.7647705078125" lon="-5.10970211029053">
        <ele>788</ele>
        <time>2019-05-11T12:38:03Z</time>
      </trkpt>
      <trkpt lat="36.7648010253906" lon="-5.10967493057251">
        <ele>788</ele>
        <time>2019-05-11T12:38:05Z</time>
      </trkpt>
      <trkpt lat="36.7648315429688" lon="-5.10964679718018">
        <ele>788</ele>
        <time>2019-05-11T12:38:07Z</time>
      </trkpt>
      <trkpt lat="36.7648735046387" lon="-5.10962009429932">
        <ele>788</ele>
        <time>2019-05-11T12:38:09Z</time>
      </trkpt>
      <trkpt lat="36.7649040222168" lon="-5.10959482192993">
        <ele>788</ele>
        <time>2019-05-11T12:38:11Z</time>
      </trkpt>
      <trkpt lat="36.7649383544922" lon="-5.10957288742065">
        <ele>788</ele>
        <time>2019-05-11T12:38:14Z</time>
      </trkpt>
      <trkpt lat="36.7649765014648" lon="-5.10954809188843">
        <ele>788</ele>
        <time>2019-05-11T12:38:16Z</time>
      </trkpt>
      <trkpt lat="36.7650108337402" lon="-5.10952806472778">
        <ele>786</ele>
        <time>2019-05-11T12:38:18Z</time>
      </trkpt>
      <trkpt lat="36.7650413513184" lon="-5.10950517654419">
        <ele>786</ele>
        <time>2019-05-11T12:38:20Z</time>
      </trkpt>
      <trkpt lat="36.7650833129883" lon="-5.1094799041748">
        <ele>785</ele>
        <time>2019-05-11T12:38:22Z</time>
      </trkpt>
      <trkpt lat="36.7651214599609" lon="-5.10945510864258">
        <ele>785</ele>
        <time>2019-05-11T12:38:24Z</time>
      </trkpt>
      <trkpt lat="36.7651672363281" lon="-5.10943222045898">
        <ele>784</ele>
        <time>2019-05-11T12:38:26Z</time>
      </trkpt>
      <trkpt lat="36.7652130126953" lon="-5.10940504074097">
        <ele>784</ele>
        <time>2019-05-11T12:38:28Z</time>
      </trkpt>
      <trkpt lat="36.7652587890625" lon="-5.10938215255737">
        <ele>784</ele>
        <time>2019-05-11T12:38:30Z</time>
      </trkpt>
      <trkpt lat="36.7652969360352" lon="-5.10935688018799">
        <ele>784</ele>
        <time>2019-05-11T12:38:32Z</time>
      </trkpt>
      <trkpt lat="36.7653656005859" lon="-5.10931777954102">
        <ele>784</ele>
        <time>2019-05-11T12:38:34Z</time>
      </trkpt>
      <trkpt lat="36.7654151916504" lon="-5.10929679870606">
        <ele>784</ele>
        <time>2019-05-11T12:38:36Z</time>
      </trkpt>
      <trkpt lat="36.7654685974121" lon="-5.10927486419678">
        <ele>784</ele>
        <time>2019-05-11T12:38:38Z</time>
      </trkpt>
      <trkpt lat="36.7655143737793" lon="-5.10924482345581">
        <ele>784</ele>
        <time>2019-05-11T12:38:40Z</time>
      </trkpt>
      <trkpt lat="36.7655601501465" lon="-5.10921192169189">
        <ele>784</ele>
        <time>2019-05-11T12:38:42Z</time>
      </trkpt>
      <trkpt lat="36.7656097412109" lon="-5.10918712615967">
        <ele>784</ele>
        <time>2019-05-11T12:38:44Z</time>
      </trkpt>
      <trkpt lat="36.7656593322754" lon="-5.10916519165039">
        <ele>783</ele>
        <time>2019-05-11T12:38:46Z</time>
      </trkpt>
      <trkpt lat="36.7657012939453" lon="-5.10913801193237">
        <ele>783</ele>
        <time>2019-05-11T12:38:49Z</time>
      </trkpt>
      <trkpt lat="36.765754699707" lon="-5.10911798477173">
        <ele>783</ele>
        <time>2019-05-11T12:38:51Z</time>
      </trkpt>
      <trkpt lat="36.765796661377" lon="-5.10908985137939">
        <ele>783</ele>
        <time>2019-05-11T12:38:53Z</time>
      </trkpt>
      <trkpt lat="36.7658386230469" lon="-5.10906314849854">
        <ele>783</ele>
        <time>2019-05-11T12:38:55Z</time>
      </trkpt>
      <trkpt lat="36.765869140625" lon="-5.10903692245483">
        <ele>783</ele>
        <time>2019-05-11T12:38:57Z</time>
      </trkpt>
      <trkpt lat="36.7659034729004" lon="-5.10901212692261">
        <ele>783</ele>
        <time>2019-05-11T12:38:59Z</time>
      </trkpt>
      <trkpt lat="36.7659454345703" lon="-5.10898780822754">
        <ele>781</ele>
        <time>2019-05-11T12:39:01Z</time>
      </trkpt>
      <trkpt lat="36.765983581543" lon="-5.10895776748657">
        <ele>781</ele>
        <time>2019-05-11T12:39:03Z</time>
      </trkpt>
      <trkpt lat="36.7660255432129" lon="-5.10892820358276">
        <ele>781</ele>
        <time>2019-05-11T12:39:05Z</time>
      </trkpt>
      <trkpt lat="36.7660713195801" lon="-5.10890483856201">
        <ele>781</ele>
        <time>2019-05-11T12:39:07Z</time>
      </trkpt>
      <trkpt lat="36.7661361694336" lon="-5.10887289047241">
        <ele>781</ele>
        <time>2019-05-11T12:39:09Z</time>
      </trkpt>
      <trkpt lat="36.7661819458008" lon="-5.10884809494019">
        <ele>781</ele>
        <time>2019-05-11T12:39:11Z</time>
      </trkpt>
      <trkpt lat="36.7662239074707" lon="-5.10881996154785">
        <ele>781</ele>
        <time>2019-05-11T12:39:13Z</time>
      </trkpt>
      <trkpt lat="36.7662658691406" lon="-5.10880184173584">
        <ele>781</ele>
        <time>2019-05-11T12:39:15Z</time>
      </trkpt>
      <trkpt lat="36.7663040161133" lon="-5.1087818145752">
        <ele>781</ele>
        <time>2019-05-11T12:39:17Z</time>
      </trkpt>
      <trkpt lat="36.7663497924805" lon="-5.10875988006592">
        <ele>781</ele>
        <time>2019-05-11T12:39:19Z</time>
      </trkpt>
      <trkpt lat="36.7663955688477" lon="-5.10874795913696">
        <ele>781</ele>
        <time>2019-05-11T12:39:21Z</time>
      </trkpt>
      <trkpt lat="36.7664337158203" lon="-5.10872983932495">
        <ele>781</ele>
        <time>2019-05-11T12:39:24Z</time>
      </trkpt>
      <trkpt lat="36.766471862793" lon="-5.10871505737305">
        <ele>781</ele>
        <time>2019-05-11T12:39:26Z</time>
      </trkpt>
      <trkpt lat="36.7665138244629" lon="-5.10869789123535">
        <ele>781</ele>
        <time>2019-05-11T12:39:28Z</time>
      </trkpt>
      <trkpt lat="36.7665596008301" lon="-5.10868501663208">
        <ele>781</ele>
        <time>2019-05-11T12:39:30Z</time>
      </trkpt>
      <trkpt lat="36.7666091918945" lon="-5.10868692398071">
        <ele>781</ele>
        <time>2019-05-11T12:39:32Z</time>
      </trkpt>
      <trkpt lat="36.766658782959" lon="-5.10870695114136">
        <ele>780</ele>
        <time>2019-05-11T12:39:34Z</time>
      </trkpt>
      <trkpt lat="36.7667007446289" lon="-5.10873985290527">
        <ele>780</ele>
        <time>2019-05-11T12:39:36Z</time>
      </trkpt>
      <trkpt lat="36.7667388916016" lon="-5.10877799987793">
        <ele>780</ele>
        <time>2019-05-11T12:39:38Z</time>
      </trkpt>
      <trkpt lat="36.7667694091797" lon="-5.10881805419922">
        <ele>780</ele>
        <time>2019-05-11T12:39:40Z</time>
      </trkpt>
      <trkpt lat="36.7667922973633" lon="-5.10886192321777">
        <ele>779</ele>
        <time>2019-05-11T12:39:42Z</time>
      </trkpt>
      <trkpt lat="36.7668190002441" lon="-5.10890293121338">
        <ele>779</ele>
        <time>2019-05-11T12:39:44Z</time>
      </trkpt>
      <trkpt lat="36.7668685913086" lon="-5.108962059021">
        <ele>778</ele>
        <time>2019-05-11T12:39:46Z</time>
      </trkpt>
      <trkpt lat="36.7668991088867" lon="-5.10899686813354">
        <ele>778</ele>
        <time>2019-05-11T12:39:48Z</time>
      </trkpt>
      <trkpt lat="36.7669410705566" lon="-5.10902214050293">
        <ele>778</ele>
        <time>2019-05-11T12:39:50Z</time>
      </trkpt>
      <trkpt lat="36.7669792175293" lon="-5.10903692245483">
        <ele>776</ele>
        <time>2019-05-11T12:39:52Z</time>
      </trkpt>
      <trkpt lat="36.7670249938965" lon="-5.1090350151062">
        <ele>776</ele>
        <time>2019-05-11T12:39:54Z</time>
      </trkpt>
      <trkpt lat="36.7670631408691" lon="-5.10901498794556">
        <ele>776</ele>
        <time>2019-05-11T12:39:56Z</time>
      </trkpt>
      <trkpt lat="36.7670974731445" lon="-5.10898494720459">
        <ele>776</ele>
        <time>2019-05-11T12:39:58Z</time>
      </trkpt>
      <trkpt lat="36.7671318054199" lon="-5.10895013809204">
        <ele>776</ele>
        <time>2019-05-11T12:40:01Z</time>
      </trkpt>
      <trkpt lat="36.7671585083008" lon="-5.10891008377075">
        <ele>776</ele>
        <time>2019-05-11T12:40:03Z</time>
      </trkpt>
      <trkpt lat="36.7671813964844" lon="-5.10886812210083">
        <ele>776</ele>
        <time>2019-05-11T12:40:05Z</time>
      </trkpt>
      <trkpt lat="36.7672080993652" lon="-5.10882711410522">
        <ele>776</ele>
        <time>2019-05-11T12:40:07Z</time>
      </trkpt>
      <trkpt lat="36.7672309875488" lon="-5.10879278182983">
        <ele>776</ele>
        <time>2019-05-11T12:40:09Z</time>
      </trkpt>
      <trkpt lat="36.7672462463379" lon="-5.10876703262329">
        <ele>776</ele>
        <time>2019-05-11T12:40:11Z</time>
      </trkpt>
      <trkpt lat="36.767261505127" lon="-5.10874223709106">
        <ele>776</ele>
        <time>2019-05-11T12:40:13Z</time>
      </trkpt>
      <trkpt lat="36.7672729492188" lon="-5.10871505737305">
        <ele>776</ele>
        <time>2019-05-11T12:40:15Z</time>
      </trkpt>
      <trkpt lat="36.7672882080078" lon="-5.10869216918945">
        <ele>776</ele>
        <time>2019-05-11T12:40:17Z</time>
      </trkpt>
      <trkpt lat="36.7673110961914" lon="-5.10865497589111">
        <ele>776</ele>
        <time>2019-05-11T12:40:19Z</time>
      </trkpt>
      <trkpt lat="36.7673263549805" lon="-5.10863208770752">
        <ele>776</ele>
        <time>2019-05-11T12:40:21Z</time>
      </trkpt>
      <trkpt lat="36.7673377990723" lon="-5.10860681533814">
        <ele>776</ele>
        <time>2019-05-11T12:40:23Z</time>
      </trkpt>
      <trkpt lat="36.7673568725586" lon="-5.10858297348022">
        <ele>776</ele>
        <time>2019-05-11T12:40:25Z</time>
      </trkpt>
      <trkpt lat="36.7673721313477" lon="-5.10855722427368">
        <ele>776</ele>
        <time>2019-05-11T12:40:27Z</time>
      </trkpt>
      <trkpt lat="36.7673873901367" lon="-5.10853290557861">
        <ele>776</ele>
        <time>2019-05-11T12:40:29Z</time>
      </trkpt>
      <trkpt lat="36.767406463623" lon="-5.10851001739502">
        <ele>776</ele>
        <time>2019-05-11T12:40:31Z</time>
      </trkpt>
      <trkpt lat="36.7674217224121" lon="-5.10848522186279">
        <ele>776</ele>
        <time>2019-05-11T12:40:34Z</time>
      </trkpt>
      <trkpt lat="36.7674331665039" lon="-5.10845994949341">
        <ele>776</ele>
        <time>2019-05-11T12:40:36Z</time>
      </trkpt>
      <trkpt lat="36.7674522399902" lon="-5.10843181610107">
        <ele>776</ele>
        <time>2019-05-11T12:40:38Z</time>
      </trkpt>
      <trkpt lat="36.767463684082" lon="-5.10840177536011">
        <ele>776</ele>
        <time>2019-05-11T12:40:40Z</time>
      </trkpt>
      <trkpt lat="36.7674789428711" lon="-5.10836791992188">
        <ele>776</ele>
        <time>2019-05-11T12:40:42Z</time>
      </trkpt>
      <trkpt lat="36.7674980163574" lon="-5.10834312438965">
        <ele>776</ele>
        <time>2019-05-11T12:40:44Z</time>
      </trkpt>
      <trkpt lat="36.7675132751465" lon="-5.10832023620606">
        <ele>776</ele>
        <time>2019-05-11T12:40:46Z</time>
      </trkpt>
      <trkpt lat="36.7675247192383" lon="-5.1082878112793">
        <ele>776</ele>
        <time>2019-05-11T12:40:48Z</time>
      </trkpt>
      <trkpt lat="36.7675323486328" lon="-5.10826206207275">
        <ele>776</ele>
        <time>2019-05-11T12:40:50Z</time>
      </trkpt>
      <trkpt lat="36.7675628662109" lon="-5.10822010040283">
        <ele>776</ele>
        <time>2019-05-11T12:40:52Z</time>
      </trkpt>
      <trkpt lat="36.7675819396973" lon="-5.10819721221924">
        <ele>776</ele>
        <time>2019-05-11T12:40:54Z</time>
      </trkpt>
      <trkpt lat="36.7676010131836" lon="-5.10817289352417">
        <ele>776</ele>
        <time>2019-05-11T12:40:56Z</time>
      </trkpt>
      <trkpt lat="36.7676239013672" lon="-5.10814714431763">
        <ele>776</ele>
        <time>2019-05-11T12:40:58Z</time>
      </trkpt>
      <trkpt lat="36.7676429748535" lon="-5.10812282562256">
        <ele>776</ele>
        <time>2019-05-11T12:41:00Z</time>
      </trkpt>
      <trkpt lat="36.7676620483398" lon="-5.10810279846191">
        <ele>776</ele>
        <time>2019-05-11T12:41:02Z</time>
      </trkpt>
      <trkpt lat="36.7676811218262" lon="-5.10807991027832">
        <ele>776</ele>
        <time>2019-05-11T12:41:04Z</time>
      </trkpt>
      <trkpt lat="36.7677001953125" lon="-5.10805702209473">
        <ele>776</ele>
        <time>2019-05-11T12:41:06Z</time>
      </trkpt>
      <trkpt lat="36.7677192687988" lon="-5.1080322265625">
        <ele>776</ele>
        <time>2019-05-11T12:41:09Z</time>
      </trkpt>
      <trkpt lat="36.7677383422852" lon="-5.10800695419312">
        <ele>776</ele>
        <time>2019-05-11T12:41:11Z</time>
      </trkpt>
      <trkpt lat="36.7677536010742" lon="-5.10798215866089">
        <ele>776</ele>
        <time>2019-05-11T12:41:13Z</time>
      </trkpt>
      <trkpt lat="36.7677688598633" lon="-5.10795497894287">
        <ele>776</ele>
        <time>2019-05-11T12:41:15Z</time>
      </trkpt>
      <trkpt lat="36.7677879333496" lon="-5.10792779922485">
        <ele>776</ele>
        <time>2019-05-11T12:41:17Z</time>
      </trkpt>
      <trkpt lat="36.7678070068359" lon="-5.10790300369263">
        <ele>776</ele>
        <time>2019-05-11T12:41:19Z</time>
      </trkpt>
      <trkpt lat="36.767822265625" lon="-5.10787487030029">
        <ele>776</ele>
        <time>2019-05-11T12:41:21Z</time>
      </trkpt>
      <trkpt lat="36.7678413391113" lon="-5.10784721374512">
        <ele>776</ele>
        <time>2019-05-11T12:41:23Z</time>
      </trkpt>
      <trkpt lat="36.7678565979004" lon="-5.10781478881836">
        <ele>776</ele>
        <time>2019-05-11T12:41:25Z</time>
      </trkpt>
      <trkpt lat="36.7678718566894" lon="-5.1077880859375">
        <ele>776</ele>
        <time>2019-05-11T12:41:27Z</time>
      </trkpt>
      <trkpt lat="36.7678871154785" lon="-5.10773992538452">
        <ele>776</ele>
        <time>2019-05-11T12:41:29Z</time>
      </trkpt>
      <trkpt lat="36.767894744873" lon="-5.10770797729492">
        <ele>776</ele>
        <time>2019-05-11T12:41:31Z</time>
      </trkpt>
      <trkpt lat="36.7679023742676" lon="-5.10767507553101">
        <ele>776</ele>
        <time>2019-05-11T12:41:33Z</time>
      </trkpt>
      <trkpt lat="36.7679138183594" lon="-5.10764312744141">
        <ele>776</ele>
        <time>2019-05-11T12:41:35Z</time>
      </trkpt>
      <trkpt lat="36.7679290771484" lon="-5.1076169013977">
        <ele>776</ele>
        <time>2019-05-11T12:41:37Z</time>
      </trkpt>
      <trkpt lat="36.7679481506348" lon="-5.1075930595398">
        <ele>775</ele>
        <time>2019-05-11T12:41:39Z</time>
      </trkpt>
      <trkpt lat="36.7679672241211" lon="-5.10756683349609">
        <ele>775</ele>
        <time>2019-05-11T12:41:41Z</time>
      </trkpt>
      <trkpt lat="36.7679862976074" lon="-5.10754013061523">
        <ele>775</ele>
        <time>2019-05-11T12:41:43Z</time>
      </trkpt>
      <trkpt lat="36.7680053710938" lon="-5.10751819610596">
        <ele>775</ele>
        <time>2019-05-11T12:41:46Z</time>
      </trkpt>
      <trkpt lat="36.7680206298828" lon="-5.10749292373657">
        <ele>775</ele>
        <time>2019-05-11T12:41:48Z</time>
      </trkpt>
      <trkpt lat="36.7680397033691" lon="-5.10746717453003">
        <ele>775</ele>
        <time>2019-05-11T12:41:50Z</time>
      </trkpt>
      <trkpt lat="36.7680587768555" lon="-5.10743999481201">
        <ele>775</ele>
        <time>2019-05-11T12:41:52Z</time>
      </trkpt>
      <trkpt lat="36.7680740356445" lon="-5.10741519927978">
        <ele>774</ele>
        <time>2019-05-11T12:41:54Z</time>
      </trkpt>
      <trkpt lat="36.7680892944336" lon="-5.1073899269104">
        <ele>774</ele>
        <time>2019-05-11T12:41:56Z</time>
      </trkpt>
      <trkpt lat="36.7681083679199" lon="-5.10735988616943">
        <ele>774</ele>
        <time>2019-05-11T12:41:58Z</time>
      </trkpt>
      <trkpt lat="36.768123626709" lon="-5.10733318328857">
        <ele>774</ele>
        <time>2019-05-11T12:42:00Z</time>
      </trkpt>
      <trkpt lat="36.7681427001953" lon="-5.10730791091919">
        <ele>774</ele>
        <time>2019-05-11T12:42:02Z</time>
      </trkpt>
      <trkpt lat="36.7681694030762" lon="-5.10726690292358">
        <ele>774</ele>
        <time>2019-05-11T12:42:04Z</time>
      </trkpt>
      <trkpt lat="36.7681884765625" lon="-5.10724306106567">
        <ele>774</ele>
        <time>2019-05-11T12:42:06Z</time>
      </trkpt>
      <trkpt lat="36.7682075500488" lon="-5.10721683502197">
        <ele>774</ele>
        <time>2019-05-11T12:42:08Z</time>
      </trkpt>
      <trkpt lat="36.7682228088379" lon="-5.10719013214111">
        <ele>774</ele>
        <time>2019-05-11T12:42:10Z</time>
      </trkpt>
      <trkpt lat="36.768238067627" lon="-5.10716009140015">
        <ele>774</ele>
        <time>2019-05-11T12:42:12Z</time>
      </trkpt>
      <trkpt lat="36.768253326416" lon="-5.10713195800781">
        <ele>774</ele>
        <time>2019-05-11T12:42:14Z</time>
      </trkpt>
      <trkpt lat="36.7682685852051" lon="-5.10710191726685">
        <ele>774</ele>
        <time>2019-05-11T12:42:16Z</time>
      </trkpt>
      <trkpt lat="36.7682838439941" lon="-5.1070728302002">
        <ele>774</ele>
        <time>2019-05-11T12:42:18Z</time>
      </trkpt>
      <trkpt lat="36.7682991027832" lon="-5.10704803466797">
        <ele>774</ele>
        <time>2019-05-11T12:42:21Z</time>
      </trkpt>
      <trkpt lat="36.7683143615723" lon="-5.10702705383301">
        <ele>774</ele>
        <time>2019-05-11T12:42:23Z</time>
      </trkpt>
      <trkpt lat="36.7683334350586" lon="-5.10700702667236">
        <ele>774</ele>
        <time>2019-05-11T12:42:25Z</time>
      </trkpt>
      <trkpt lat="36.7683525085449" lon="-5.10698699951172">
        <ele>774</ele>
        <time>2019-05-11T12:42:27Z</time>
      </trkpt>
      <trkpt lat="36.7683715820312" lon="-5.10696506500244">
        <ele>774</ele>
        <time>2019-05-11T12:42:29Z</time>
      </trkpt>
      <trkpt lat="36.7683868408203" lon="-5.10695314407349">
        <ele>774</ele>
        <time>2019-05-11T12:42:31Z</time>
      </trkpt>
      <trkpt lat="36.7683982849121" lon="-5.10693216323853">
        <ele>774</ele>
        <time>2019-05-11T12:42:33Z</time>
      </trkpt>
      <trkpt lat="36.7684020996094" lon="-5.10691499710083">
        <ele>774</ele>
        <time>2019-05-11T12:42:35Z</time>
      </trkpt>
      <trkpt lat="36.7684173583984" lon="-5.10689496994019">
        <ele>774</ele>
        <time>2019-05-11T12:42:37Z</time>
      </trkpt>
      <trkpt lat="36.7684326171875" lon="-5.10686779022217">
        <ele>774</ele>
        <time>2019-05-11T12:42:39Z</time>
      </trkpt>
      <trkpt lat="36.7684364318848" lon="-5.10683679580688">
        <ele>774</ele>
        <time>2019-05-11T12:42:41Z</time>
      </trkpt>
      <trkpt lat="36.7684364318848" lon="-5.10680198669434">
        <ele>774</ele>
        <time>2019-05-11T12:42:43Z</time>
      </trkpt>
      <trkpt lat="36.7684364318848" lon="-5.106764793396">
        <ele>774</ele>
        <time>2019-05-11T12:42:45Z</time>
      </trkpt>
      <trkpt lat="36.7684440612793" lon="-5.10672807693481">
        <ele>774</ele>
        <time>2019-05-11T12:42:47Z</time>
      </trkpt>
      <trkpt lat="36.7684593200684" lon="-5.10669994354248">
        <ele>774</ele>
        <time>2019-05-11T12:42:49Z</time>
      </trkpt>
      <trkpt lat="36.7684745788574" lon="-5.10667514801025">
        <ele>774</ele>
        <time>2019-05-11T12:42:51Z</time>
      </trkpt>
      <trkpt lat="36.7684898376465" lon="-5.10665321350098">
        <ele>774</ele>
        <time>2019-05-11T12:42:53Z</time>
      </trkpt>
      <trkpt lat="36.7685127258301" lon="-5.10662984848022">
        <ele>774</ele>
        <time>2019-05-11T12:42:56Z</time>
      </trkpt>
      <trkpt lat="36.7685317993164" lon="-5.10661220550537">
        <ele>774</ele>
        <time>2019-05-11T12:42:58Z</time>
      </trkpt>
      <trkpt lat="36.7685585021973" lon="-5.10659313201904">
        <ele>774</ele>
        <time>2019-05-11T12:43:00Z</time>
      </trkpt>
      <trkpt lat="36.7685775756836" lon="-5.1065821647644">
        <ele>774</ele>
        <time>2019-05-11T12:43:02Z</time>
      </trkpt>
      <trkpt lat="36.7686004638672" lon="-5.10656785964966">
        <ele>774</ele>
        <time>2019-05-11T12:43:04Z</time>
      </trkpt>
      <trkpt lat="36.7686233520508" lon="-5.10655498504639">
        <ele>774</ele>
        <time>2019-05-11T12:43:06Z</time>
      </trkpt>
      <trkpt lat="36.7686386108398" lon="-5.10654497146606">
        <ele>774</ele>
        <time>2019-05-11T12:43:08Z</time>
      </trkpt>
      <trkpt lat="36.7686614990234" lon="-5.10653018951416">
        <ele>774</ele>
        <time>2019-05-11T12:43:10Z</time>
      </trkpt>
      <trkpt lat="36.768684387207" lon="-5.10651302337646">
        <ele>774</ele>
        <time>2019-05-11T12:43:12Z</time>
      </trkpt>
      <trkpt lat="36.7687187194824" lon="-5.10650300979614">
        <ele>774</ele>
        <time>2019-05-11T12:43:14Z</time>
      </trkpt>
      <trkpt lat="36.768741607666" lon="-5.1064977645874">
        <ele>774</ele>
        <time>2019-05-11T12:43:16Z</time>
      </trkpt>
      <trkpt lat="36.7687721252441" lon="-5.1064977645874">
        <ele>774</ele>
        <time>2019-05-11T12:43:18Z</time>
      </trkpt>
      <trkpt lat="36.7688064575195" lon="-5.10650014877319">
        <ele>774</ele>
        <time>2019-05-11T12:43:20Z</time>
      </trkpt>
      <trkpt lat="36.7688369750977" lon="-5.1064977645874">
        <ele>774</ele>
        <time>2019-05-11T12:43:22Z</time>
      </trkpt>
      <trkpt lat="36.768871307373" lon="-5.1064920425415">
        <ele>774</ele>
        <time>2019-05-11T12:43:24Z</time>
      </trkpt>
      <trkpt lat="36.7689056396484" lon="-5.10648012161255">
        <ele>774</ele>
        <time>2019-05-11T12:43:26Z</time>
      </trkpt>
      <trkpt lat="36.7689323425293" lon="-5.10646295547485">
        <ele>774</ele>
        <time>2019-05-11T12:43:28Z</time>
      </trkpt>
      <trkpt lat="36.7689552307129" lon="-5.10644006729126">
        <ele>774</ele>
        <time>2019-05-11T12:43:31Z</time>
      </trkpt>
      <trkpt lat="36.7689781188965" lon="-5.10641717910767">
        <ele>774</ele>
        <time>2019-05-11T12:43:33Z</time>
      </trkpt>
      <trkpt lat="36.7690010070801" lon="-5.10639476776123">
        <ele>774</ele>
        <time>2019-05-11T12:43:35Z</time>
      </trkpt>
      <trkpt lat="36.7690277099609" lon="-5.10637187957764">
        <ele>774</ele>
        <time>2019-05-11T12:43:37Z</time>
      </trkpt>
      <trkpt lat="36.7690467834473" lon="-5.10634803771973">
        <ele>774</ele>
        <time>2019-05-11T12:43:39Z</time>
      </trkpt>
      <trkpt lat="36.7690734863281" lon="-5.10632801055908">
        <ele>774</ele>
        <time>2019-05-11T12:43:41Z</time>
      </trkpt>
      <trkpt lat="36.7690925598144" lon="-5.1063117980957">
        <ele>774</ele>
        <time>2019-05-11T12:43:43Z</time>
      </trkpt>
      <trkpt lat="36.7691192626953" lon="-5.10630178451538">
        <ele>774</ele>
        <time>2019-05-11T12:43:45Z</time>
      </trkpt>
      <trkpt lat="36.7691421508789" lon="-5.10629320144653">
        <ele>774</ele>
        <time>2019-05-11T12:43:47Z</time>
      </trkpt>
      <trkpt lat="36.7691879272461" lon="-5.10629510879517">
        <ele>774</ele>
        <time>2019-05-11T12:43:49Z</time>
      </trkpt>
      <trkpt lat="36.7692108154297" lon="-5.10629510879517">
        <ele>774</ele>
        <time>2019-05-11T12:43:51Z</time>
      </trkpt>
      <trkpt lat="36.7692375183106" lon="-5.1062970161438">
        <ele>774</ele>
        <time>2019-05-11T12:43:53Z</time>
      </trkpt>
      <trkpt lat="36.7692718505859" lon="-5.10629320144653">
        <ele>774</ele>
        <time>2019-05-11T12:43:55Z</time>
      </trkpt>
      <trkpt lat="36.7693061828613" lon="-5.10628700256348">
        <ele>774</ele>
        <time>2019-05-11T12:43:57Z</time>
      </trkpt>
      <trkpt lat="36.7693481445312" lon="-5.10628318786621">
        <ele>774</ele>
        <time>2019-05-11T12:43:59Z</time>
      </trkpt>
      <trkpt lat="36.7693939208984" lon="-5.10627698898315">
        <ele>774</ele>
        <time>2019-05-11T12:44:01Z</time>
      </trkpt>
      <trkpt lat="36.7694358825684" lon="-5.10626792907715">
        <ele>774</ele>
        <time>2019-05-11T12:44:03Z</time>
      </trkpt>
      <trkpt lat="36.7694816589356" lon="-5.10626316070557">
        <ele>774</ele>
        <time>2019-05-11T12:44:06Z</time>
      </trkpt>
      <trkpt lat="36.7695236206055" lon="-5.10625696182251">
        <ele>774</ele>
        <time>2019-05-11T12:44:08Z</time>
      </trkpt>
      <trkpt lat="36.7695617675781" lon="-5.10625314712524">
        <ele>774</ele>
        <time>2019-05-11T12:44:10Z</time>
      </trkpt>
      <trkpt lat="36.769603729248" lon="-5.1062479019165">
        <ele>774</ele>
        <time>2019-05-11T12:44:12Z</time>
      </trkpt>
      <trkpt lat="36.769645690918" lon="-5.10625219345093">
        <ele>774</ele>
        <time>2019-05-11T12:44:14Z</time>
      </trkpt>
      <trkpt lat="36.7696838378906" lon="-5.10624217987061">
        <ele>774</ele>
        <time>2019-05-11T12:44:16Z</time>
      </trkpt>
      <trkpt lat="36.7697296142578" lon="-5.10622787475586">
        <ele>774</ele>
        <time>2019-05-11T12:44:18Z</time>
      </trkpt>
      <trkpt lat="36.769775390625" lon="-5.10621690750122">
        <ele>774</ele>
        <time>2019-05-11T12:44:20Z</time>
      </trkpt>
      <trkpt lat="36.7698173522949" lon="-5.1062068939209">
        <ele>774</ele>
        <time>2019-05-11T12:44:22Z</time>
      </trkpt>
      <trkpt lat="36.7698631286621" lon="-5.10619688034058">
        <ele>774</ele>
        <time>2019-05-11T12:44:24Z</time>
      </trkpt>
      <trkpt lat="36.7699089050293" lon="-5.10619306564331">
        <ele>774</ele>
        <time>2019-05-11T12:44:26Z</time>
      </trkpt>
      <trkpt lat="36.769962310791" lon="-5.10619306564331">
        <ele>774</ele>
        <time>2019-05-11T12:44:28Z</time>
      </trkpt>
      <trkpt lat="36.7700042724609" lon="-5.10619211196899">
        <ele>774</ele>
        <time>2019-05-11T12:44:30Z</time>
      </trkpt>
      <trkpt lat="36.7700462341309" lon="-5.10618209838867">
        <ele>774</ele>
        <time>2019-05-11T12:44:32Z</time>
      </trkpt>
      <trkpt lat="36.7700881958008" lon="-5.10616779327393">
        <ele>774</ele>
        <time>2019-05-11T12:44:34Z</time>
      </trkpt>
      <trkpt lat="36.770133972168" lon="-5.10616493225098">
        <ele>774</ele>
        <time>2019-05-11T12:44:36Z</time>
      </trkpt>
      <trkpt lat="36.7701721191406" lon="-5.1061577796936">
        <ele>774</ele>
        <time>2019-05-11T12:44:38Z</time>
      </trkpt>
      <trkpt lat="36.7702178955078" lon="-5.10615491867065">
        <ele>774</ele>
        <time>2019-05-11T12:44:40Z</time>
      </trkpt>
      <trkpt lat="36.7702522277832" lon="-5.10615491867065">
        <ele>774</ele>
        <time>2019-05-11T12:44:43Z</time>
      </trkpt>
      <trkpt lat="36.7702903747559" lon="-5.10615491867065">
        <ele>774</ele>
        <time>2019-05-11T12:44:45Z</time>
      </trkpt>
      <trkpt lat="36.770336151123" lon="-5.10615301132202">
        <ele>774</ele>
        <time>2019-05-11T12:44:47Z</time>
      </trkpt>
      <trkpt lat="36.7703742980957" lon="-5.10615301132202">
        <ele>774</ele>
        <time>2019-05-11T12:44:49Z</time>
      </trkpt>
      <trkpt lat="36.7704162597656" lon="-5.10614204406738">
        <ele>774</ele>
        <time>2019-05-11T12:44:51Z</time>
      </trkpt>
      <trkpt lat="36.7704582214356" lon="-5.10613679885864">
        <ele>774</ele>
        <time>2019-05-11T12:44:53Z</time>
      </trkpt>
      <trkpt lat="36.7704963684082" lon="-5.10613489151001">
        <ele>774</ele>
        <time>2019-05-11T12:44:55Z</time>
      </trkpt>
      <trkpt lat="36.7705383300781" lon="-5.10612297058106">
        <ele>774</ele>
        <time>2019-05-11T12:44:57Z</time>
      </trkpt>
      <trkpt lat="36.770580291748" lon="-5.10611295700073">
        <ele>774</ele>
        <time>2019-05-11T12:44:59Z</time>
      </trkpt>
      <trkpt lat="36.7706489562988" lon="-5.10610723495483">
        <ele>774</ele>
        <time>2019-05-11T12:45:01Z</time>
      </trkpt>
      <trkpt lat="36.7706718444824" lon="-5.10610485076904">
        <ele>774</ele>
        <time>2019-05-11T12:45:03Z</time>
      </trkpt>
      <trkpt lat="36.7707366943359" lon="-5.10609483718872">
        <ele>774</ele>
        <time>2019-05-11T12:45:05Z</time>
      </trkpt>
      <trkpt lat="36.7707786560059" lon="-5.10608196258545">
        <ele>774</ele>
        <time>2019-05-11T12:45:07Z</time>
      </trkpt>
      <trkpt lat="36.770824432373" lon="-5.10606479644775">
        <ele>774</ele>
        <time>2019-05-11T12:45:09Z</time>
      </trkpt>
      <trkpt lat="36.7708625793457" lon="-5.10605192184448">
        <ele>774</ele>
        <time>2019-05-11T12:45:11Z</time>
      </trkpt>
      <trkpt lat="36.7709121704102" lon="-5.10604810714722">
        <ele>774</ele>
        <time>2019-05-11T12:45:13Z</time>
      </trkpt>
      <trkpt lat="36.7709617614746" lon="-5.10603713989258">
        <ele>774</ele>
        <time>2019-05-11T12:45:15Z</time>
      </trkpt>
      <trkpt lat="36.7710075378418" lon="-5.10602712631226">
        <ele>774</ele>
        <time>2019-05-11T12:45:17Z</time>
      </trkpt>
      <trkpt lat="36.7710571289062" lon="-5.10601806640625">
        <ele>774</ele>
        <time>2019-05-11T12:45:20Z</time>
      </trkpt>
      <trkpt lat="36.7711029052734" lon="-5.10600519180298">
        <ele>774</ele>
        <time>2019-05-11T12:45:22Z</time>
      </trkpt>
      <trkpt lat="36.7711486816406" lon="-5.10599803924561">
        <ele>774</ele>
        <time>2019-05-11T12:45:24Z</time>
      </trkpt>
      <trkpt lat="36.7711906433106" lon="-5.10598182678223">
        <ele>774</ele>
        <time>2019-05-11T12:45:26Z</time>
      </trkpt>
      <trkpt lat="36.7712364196777" lon="-5.10596704483032">
        <ele>774</ele>
        <time>2019-05-11T12:45:28Z</time>
      </trkpt>
      <trkpt lat="36.7712860107422" lon="-5.10595321655273">
        <ele>774</ele>
        <time>2019-05-11T12:45:30Z</time>
      </trkpt>
      <trkpt lat="36.7713279724121" lon="-5.10593509674072">
        <ele>774</ele>
        <time>2019-05-11T12:45:32Z</time>
      </trkpt>
      <trkpt lat="36.7713737487793" lon="-5.10591983795166">
        <ele>774</ele>
        <time>2019-05-11T12:45:34Z</time>
      </trkpt>
      <trkpt lat="36.7714195251465" lon="-5.10590696334839">
        <ele>774</ele>
        <time>2019-05-11T12:45:36Z</time>
      </trkpt>
      <trkpt lat="36.7714614868164" lon="-5.10589218139648">
        <ele>774</ele>
        <time>2019-05-11T12:45:38Z</time>
      </trkpt>
      <trkpt lat="36.7715225219727" lon="-5.10586023330688">
        <ele>774</ele>
        <time>2019-05-11T12:45:40Z</time>
      </trkpt>
      <trkpt lat="36.7715682983398" lon="-5.10583686828613">
        <ele>774</ele>
        <time>2019-05-11T12:45:42Z</time>
      </trkpt>
      <trkpt lat="36.7716102600098" lon="-5.1058177947998">
        <ele>774</ele>
        <time>2019-05-11T12:45:44Z</time>
      </trkpt>
      <trkpt lat="36.771656036377" lon="-5.10580205917358">
        <ele>774</ele>
        <time>2019-05-11T12:45:46Z</time>
      </trkpt>
      <trkpt lat="36.7717018127441" lon="-5.105788230896">
        <ele>774</ele>
        <time>2019-05-11T12:45:48Z</time>
      </trkpt>
      <trkpt lat="36.7717437744141" lon="-5.1057767868042">
        <ele>774</ele>
        <time>2019-05-11T12:45:50Z</time>
      </trkpt>
      <trkpt lat="36.7717895507812" lon="-5.10576009750366">
        <ele>774</ele>
        <time>2019-05-11T12:45:53Z</time>
      </trkpt>
      <trkpt lat="36.7718391418457" lon="-5.10575819015503">
        <ele>774</ele>
        <time>2019-05-11T12:45:55Z</time>
      </trkpt>
      <trkpt lat="36.7718811035156" lon="-5.10575819015503">
        <ele>774</ele>
        <time>2019-05-11T12:45:57Z</time>
      </trkpt>
      <trkpt lat="36.771915435791" lon="-5.10574817657471">
        <ele>774</ele>
        <time>2019-05-11T12:45:59Z</time>
      </trkpt>
      <trkpt lat="36.7719612121582" lon="-5.1057300567627">
        <ele>773</ele>
        <time>2019-05-11T12:46:01Z</time>
      </trkpt>
      <trkpt lat="36.7720031738281" lon="-5.105712890625">
        <ele>773</ele>
        <time>2019-05-11T12:46:03Z</time>
      </trkpt>
      <trkpt lat="36.7720489501953" lon="-5.10569190979004">
        <ele>773</ele>
        <time>2019-05-11T12:46:05Z</time>
      </trkpt>
      <trkpt lat="36.7720909118652" lon="-5.10567712783814">
        <ele>773</ele>
        <time>2019-05-11T12:46:07Z</time>
      </trkpt>
      <trkpt lat="36.7721366882324" lon="-5.10566186904907">
        <ele>773</ele>
        <time>2019-05-11T12:46:09Z</time>
      </trkpt>
      <trkpt lat="36.7721786499023" lon="-5.1056399345398">
        <ele>773</ele>
        <time>2019-05-11T12:46:11Z</time>
      </trkpt>
      <trkpt lat="36.7722320556641" lon="-5.10560512542725">
        <ele>773</ele>
        <time>2019-05-11T12:46:13Z</time>
      </trkpt>
      <trkpt lat="36.7722702026367" lon="-5.10557794570923">
        <ele>772</ele>
        <time>2019-05-11T12:46:15Z</time>
      </trkpt>
      <trkpt lat="36.7723083496094" lon="-5.10554504394531">
        <ele>771</ele>
        <time>2019-05-11T12:46:17Z</time>
      </trkpt>
      <trkpt lat="36.772346496582" lon="-5.10551691055298">
        <ele>771</ele>
        <time>2019-05-11T12:46:19Z</time>
      </trkpt>
      <trkpt lat="36.772388458252" lon="-5.10548305511475">
        <ele>771</ele>
        <time>2019-05-11T12:46:21Z</time>
      </trkpt>
      <trkpt lat="36.7724227905273" lon="-5.10545492172241">
        <ele>771</ele>
        <time>2019-05-11T12:46:23Z</time>
      </trkpt>
      <trkpt lat="36.7724647521973" lon="-5.10543012619019">
        <ele>771</ele>
        <time>2019-05-11T12:46:25Z</time>
      </trkpt>
      <trkpt lat="36.7725028991699" lon="-5.10540199279785">
        <ele>771</ele>
        <time>2019-05-11T12:46:28Z</time>
      </trkpt>
      <trkpt lat="36.7725372314453" lon="-5.1053729057312">
        <ele>771</ele>
        <time>2019-05-11T12:46:30Z</time>
      </trkpt>
      <trkpt lat="36.7725791931152" lon="-5.10534000396728">
        <ele>771</ele>
        <time>2019-05-11T12:46:32Z</time>
      </trkpt>
      <trkpt lat="36.7726211547852" lon="-5.10531520843506">
        <ele>771</ele>
        <time>2019-05-11T12:46:34Z</time>
      </trkpt>
      <trkpt lat="36.7726631164551" lon="-5.10529518127441">
        <ele>771</ele>
        <time>2019-05-11T12:46:36Z</time>
      </trkpt>
      <trkpt lat="36.7727012634277" lon="-5.10526990890503">
        <ele>771</ele>
        <time>2019-05-11T12:46:38Z</time>
      </trkpt>
      <trkpt lat="36.7727394104004" lon="-5.10523986816406">
        <ele>771</ele>
        <time>2019-05-11T12:46:40Z</time>
      </trkpt>
      <trkpt lat="36.7727813720703" lon="-5.1052098274231">
        <ele>771</ele>
        <time>2019-05-11T12:46:42Z</time>
      </trkpt>
      <trkpt lat="36.772819519043" lon="-5.10517692565918">
        <ele>771</ele>
        <time>2019-05-11T12:46:44Z</time>
      </trkpt>
      <trkpt lat="36.7728614807129" lon="-5.10514688491821">
        <ele>771</ele>
        <time>2019-05-11T12:46:46Z</time>
      </trkpt>
      <trkpt lat="36.7729263305664" lon="-5.10509204864502">
        <ele>771</ele>
        <time>2019-05-11T12:46:48Z</time>
      </trkpt>
      <trkpt lat="36.7729644775391" lon="-5.10505676269531">
        <ele>771</ele>
        <time>2019-05-11T12:46:50Z</time>
      </trkpt>
      <trkpt lat="36.7729988098144" lon="-5.1050181388855">
        <ele>771</ele>
        <time>2019-05-11T12:46:52Z</time>
      </trkpt>
      <trkpt lat="36.7730331420898" lon="-5.10497283935547">
        <ele>771</ele>
        <time>2019-05-11T12:46:54Z</time>
      </trkpt>
      <trkpt lat="36.7730674743652" lon="-5.10493278503418">
        <ele>771</ele>
        <time>2019-05-11T12:46:56Z</time>
      </trkpt>
      <trkpt lat="36.7731018066406" lon="-5.10489177703857">
        <ele>771</ele>
        <time>2019-05-11T12:46:58Z</time>
      </trkpt>
      <trkpt lat="36.773136138916" lon="-5.10484981536865">
        <ele>771</ele>
        <time>2019-05-11T12:47:00Z</time>
      </trkpt>
      <trkpt lat="36.7731666564941" lon="-5.1048150062561">
        <ele>771</ele>
        <time>2019-05-11T12:47:03Z</time>
      </trkpt>
      <trkpt lat="36.7732048034668" lon="-5.10477495193481">
        <ele>771</ele>
        <time>2019-05-11T12:47:05Z</time>
      </trkpt>
      <trkpt lat="36.7732391357422" lon="-5.10474491119385">
        <ele>771</ele>
        <time>2019-05-11T12:47:07Z</time>
      </trkpt>
      <trkpt lat="36.7732620239258" lon="-5.10471820831299">
        <ele>771</ele>
        <time>2019-05-11T12:47:09Z</time>
      </trkpt>
      <trkpt lat="36.7732887268066" lon="-5.10469484329224">
        <ele>771</ele>
        <time>2019-05-11T12:47:11Z</time>
      </trkpt>
      <trkpt lat="36.7733116149902" lon="-5.10466194152832">
        <ele>771</ele>
        <time>2019-05-11T12:47:13Z</time>
      </trkpt>
      <trkpt lat="36.7733383178711" lon="-5.10461807250977">
        <ele>771</ele>
        <time>2019-05-11T12:47:15Z</time>
      </trkpt>
      <trkpt lat="36.773365020752" lon="-5.10457277297974">
        <ele>771</ele>
        <time>2019-05-11T12:47:17Z</time>
      </trkpt>
      <trkpt lat="36.7733917236328" lon="-5.10453176498413">
        <ele>771</ele>
        <time>2019-05-11T12:47:19Z</time>
      </trkpt>
      <trkpt lat="36.7734260559082" lon="-5.10449695587158">
        <ele>771</ele>
        <time>2019-05-11T12:47:21Z</time>
      </trkpt>
      <trkpt lat="36.7734603881836" lon="-5.10445785522461">
        <ele>771</ele>
        <time>2019-05-11T12:47:23Z</time>
      </trkpt>
      <trkpt lat="36.7735176086426" lon="-5.104407787323">
        <ele>771</ele>
        <time>2019-05-11T12:47:25Z</time>
      </trkpt>
      <trkpt lat="36.7735557556152" lon="-5.10437822341919">
        <ele>771</ele>
        <time>2019-05-11T12:47:27Z</time>
      </trkpt>
      <trkpt lat="36.7735939025879" lon="-5.10435009002686">
        <ele>771</ele>
        <time>2019-05-11T12:47:29Z</time>
      </trkpt>
      <trkpt lat="36.7736282348633" lon="-5.10431289672852">
        <ele>771</ele>
        <time>2019-05-11T12:47:31Z</time>
      </trkpt>
      <trkpt lat="36.7736663818359" lon="-5.10426807403564">
        <ele>771</ele>
        <time>2019-05-11T12:47:33Z</time>
      </trkpt>
      <trkpt lat="36.7737045288086" lon="-5.10423517227173">
        <ele>771</ele>
        <time>2019-05-11T12:47:35Z</time>
      </trkpt>
      <trkpt lat="36.773738861084" lon="-5.10420799255371">
        <ele>771</ele>
        <time>2019-05-11T12:47:38Z</time>
      </trkpt>
      <trkpt lat="36.7737731933594" lon="-5.10418176651001">
        <ele>771</ele>
        <time>2019-05-11T12:47:40Z</time>
      </trkpt>
      <trkpt lat="36.7738075256348" lon="-5.10415506362915">
        <ele>771</ele>
        <time>2019-05-11T12:47:42Z</time>
      </trkpt>
      <trkpt lat="36.7738456726074" lon="-5.10411691665649">
        <ele>771</ele>
        <time>2019-05-11T12:47:44Z</time>
      </trkpt>
      <trkpt lat="36.7738838195801" lon="-5.10408687591553">
        <ele>771</ele>
        <time>2019-05-11T12:47:46Z</time>
      </trkpt>
      <trkpt lat="36.7739181518555" lon="-5.1040678024292">
        <ele>771</ele>
        <time>2019-05-11T12:47:48Z</time>
      </trkpt>
      <trkpt lat="36.7739524841309" lon="-5.10405683517456">
        <ele>771</ele>
        <time>2019-05-11T12:47:50Z</time>
      </trkpt>
      <trkpt lat="36.7739791870117" lon="-5.10403776168823">
        <ele>771</ele>
        <time>2019-05-11T12:47:52Z</time>
      </trkpt>
      <trkpt lat="36.7740097045898" lon="-5.10402488708496">
        <ele>771</ele>
        <time>2019-05-11T12:47:54Z</time>
      </trkpt>
      <trkpt lat="36.774055480957" lon="-5.10401010513306">
        <ele>771</ele>
        <time>2019-05-11T12:47:56Z</time>
      </trkpt>
      <trkpt lat="36.7741088867188" lon="-5.10396814346314">
        <ele>771</ele>
        <time>2019-05-11T12:47:58Z</time>
      </trkpt>
      <trkpt lat="36.7741470336914" lon="-5.10393190383911">
        <ele>771</ele>
        <time>2019-05-11T12:48:00Z</time>
      </trkpt>
      <trkpt lat="36.7741775512695" lon="-5.10389804840088">
        <ele>771</ele>
        <time>2019-05-11T12:48:02Z</time>
      </trkpt>
      <trkpt lat="36.7742195129394" lon="-5.10388278961182">
        <ele>771</ele>
        <time>2019-05-11T12:48:04Z</time>
      </trkpt>
      <trkpt lat="36.7742576599121" lon="-5.10386180877686">
        <ele>771</ele>
        <time>2019-05-11T12:48:06Z</time>
      </trkpt>
      <trkpt lat="36.7742958068848" lon="-5.10382986068726">
        <ele>771</ele>
        <time>2019-05-11T12:48:08Z</time>
      </trkpt>
      <trkpt lat="36.7743377685547" lon="-5.10378980636597">
        <ele>771</ele>
        <time>2019-05-11T12:48:10Z</time>
      </trkpt>
      <trkpt lat="36.7743759155273" lon="-5.10376214981079">
        <ele>771</ele>
        <time>2019-05-11T12:48:12Z</time>
      </trkpt>
      <trkpt lat="36.7744102478027" lon="-5.10373020172119">
        <ele>771</ele>
        <time>2019-05-11T12:48:15Z</time>
      </trkpt>
      <trkpt lat="36.7744522094727" lon="-5.10369777679443">
        <ele>771</ele>
        <time>2019-05-11T12:48:17Z</time>
      </trkpt>
      <trkpt lat="36.7744941711426" lon="-5.10367298126221">
        <ele>771</ele>
        <time>2019-05-11T12:48:19Z</time>
      </trkpt>
      <trkpt lat="36.7745361328125" lon="-5.10365009307861">
        <ele>771</ele>
        <time>2019-05-11T12:48:21Z</time>
      </trkpt>
      <trkpt lat="36.7745780944824" lon="-5.1036229133606">
        <ele>771</ele>
        <time>2019-05-11T12:48:23Z</time>
      </trkpt>
      <trkpt lat="36.7746162414551" lon="-5.10359811782837">
        <ele>771</ele>
        <time>2019-05-11T12:48:25Z</time>
      </trkpt>
      <trkpt lat="36.774658203125" lon="-5.10357713699341">
        <ele>771</ele>
        <time>2019-05-11T12:48:27Z</time>
      </trkpt>
      <trkpt lat="36.7747001647949" lon="-5.10356187820435">
        <ele>771</ele>
        <time>2019-05-11T12:48:29Z</time>
      </trkpt>
      <trkpt lat="36.7747459411621" lon="-5.10354709625244">
        <ele>771</ele>
        <time>2019-05-11T12:48:31Z</time>
      </trkpt>
      <trkpt lat="36.7748031616211" lon="-5.1035327911377">
        <ele>771</ele>
        <time>2019-05-11T12:48:33Z</time>
      </trkpt>
      <trkpt lat="36.7748374938965" lon="-5.10352277755737">
        <ele>771</ele>
        <time>2019-05-11T12:48:35Z</time>
      </trkpt>
      <trkpt lat="36.7748718261719" lon="-5.10351800918579">
        <ele>771</ele>
        <time>2019-05-11T12:48:37Z</time>
      </trkpt>
      <trkpt lat="36.77490234375" lon="-5.10351514816284">
        <ele>771</ele>
        <time>2019-05-11T12:48:39Z</time>
      </trkpt>
      <trkpt lat="36.7749328613281" lon="-5.10351705551147">
        <ele>771</ele>
        <time>2019-05-11T12:48:41Z</time>
      </trkpt>
      <trkpt lat="36.7749633789062" lon="-5.10351276397705">
        <ele>771</ele>
        <time>2019-05-11T12:48:43Z</time>
      </trkpt>
      <trkpt lat="36.7749938964844" lon="-5.10351181030273">
        <ele>771</ele>
        <time>2019-05-11T12:48:45Z</time>
      </trkpt>
      <trkpt lat="36.7750282287598" lon="-5.1035099029541">
        <ele>771</ele>
        <time>2019-05-11T12:48:47Z</time>
      </trkpt>
      <trkpt lat="36.7750587463379" lon="-5.10351181030273">
        <ele>771</ele>
        <time>2019-05-11T12:48:49Z</time>
      </trkpt>
      <trkpt lat="36.7750930786133" lon="-5.10351181030273">
        <ele>771</ele>
        <time>2019-05-11T12:48:52Z</time>
      </trkpt>
      <trkpt lat="36.7751274108887" lon="-5.1035099029541">
        <ele>771</ele>
        <time>2019-05-11T12:48:54Z</time>
      </trkpt>
      <trkpt lat="36.7751579284668" lon="-5.1035099029541">
        <ele>771</ele>
        <time>2019-05-11T12:48:56Z</time>
      </trkpt>
      <trkpt lat="36.7751884460449" lon="-5.10350799560547">
        <ele>771</ele>
        <time>2019-05-11T12:48:58Z</time>
      </trkpt>
      <trkpt lat="36.7752227783203" lon="-5.10350799560547">
        <ele>771</ele>
        <time>2019-05-11T12:49:00Z</time>
      </trkpt>
      <trkpt lat="36.7752532958984" lon="-5.1035099029541">
        <ele>772</ele>
        <time>2019-05-11T12:49:02Z</time>
      </trkpt>
      <trkpt lat="36.7752838134766" lon="-5.10351514816284">
        <ele>772</ele>
        <time>2019-05-11T12:49:04Z</time>
      </trkpt>
      <trkpt lat="36.775318145752" lon="-5.1035270690918">
        <ele>772</ele>
        <time>2019-05-11T12:49:06Z</time>
      </trkpt>
      <trkpt lat="36.7753486633301" lon="-5.10353708267212">
        <ele>772</ele>
        <time>2019-05-11T12:49:08Z</time>
      </trkpt>
      <trkpt lat="36.7753791809082" lon="-5.10354709625244">
        <ele>772</ele>
        <time>2019-05-11T12:49:10Z</time>
      </trkpt>
      <trkpt lat="36.7754211425781" lon="-5.10356283187866">
        <ele>772</ele>
        <time>2019-05-11T12:49:12Z</time>
      </trkpt>
      <trkpt lat="36.775447845459" lon="-5.10357809066772">
        <ele>772</ele>
        <time>2019-05-11T12:49:14Z</time>
      </trkpt>
      <trkpt lat="36.7754745483398" lon="-5.10358190536499">
        <ele>773</ele>
        <time>2019-05-11T12:49:16Z</time>
      </trkpt>
      <trkpt lat="36.7755012512207" lon="-5.10358715057373">
        <ele>773</ele>
        <time>2019-05-11T12:49:18Z</time>
      </trkpt>
      <trkpt lat="36.7755317687988" lon="-5.10358810424805">
        <ele>773</ele>
        <time>2019-05-11T12:49:20Z</time>
      </trkpt>
      <trkpt lat="36.775562286377" lon="-5.10359001159668">
        <ele>773</ele>
        <time>2019-05-11T12:49:22Z</time>
      </trkpt>
      <trkpt lat="36.7755928039551" lon="-5.10358810424805">
        <ele>773</ele>
        <time>2019-05-11T12:49:24Z</time>
      </trkpt>
      <trkpt lat="36.7756233215332" lon="-5.10358285903931">
        <ele>773</ele>
        <time>2019-05-11T12:49:26Z</time>
      </trkpt>
      <trkpt lat="36.7756576538086" lon="-5.10357809066772">
        <ele>773</ele>
        <time>2019-05-11T12:49:29Z</time>
      </trkpt>
      <trkpt lat="36.7756881713867" lon="-5.10357809066772">
        <ele>773</ele>
        <time>2019-05-11T12:49:31Z</time>
      </trkpt>
      <trkpt lat="36.7757186889648" lon="-5.10357189178467">
        <ele>773</ele>
        <time>2019-05-11T12:49:33Z</time>
      </trkpt>
      <trkpt lat="36.775749206543" lon="-5.10356187820435">
        <ele>773</ele>
        <time>2019-05-11T12:49:35Z</time>
      </trkpt>
      <trkpt lat="36.7757759094238" lon="-5.10355281829834">
        <ele>773</ele>
        <time>2019-05-11T12:49:37Z</time>
      </trkpt>
      <trkpt lat="36.775806427002" lon="-5.1035418510437">
        <ele>773</ele>
        <time>2019-05-11T12:49:39Z</time>
      </trkpt>
      <trkpt lat="36.7758369445801" lon="-5.10352993011475">
        <ele>773</ele>
        <time>2019-05-11T12:49:41Z</time>
      </trkpt>
      <trkpt lat="36.7758674621582" lon="-5.10352182388306">
        <ele>773</ele>
        <time>2019-05-11T12:49:43Z</time>
      </trkpt>
      <trkpt lat="36.7758979797363" lon="-5.10351276397705">
        <ele>773</ele>
        <time>2019-05-11T12:49:45Z</time>
      </trkpt>
      <trkpt lat="36.7759284973144" lon="-5.10350179672241">
        <ele>774</ele>
        <time>2019-05-11T12:49:47Z</time>
      </trkpt>
      <trkpt lat="36.7759590148926" lon="-5.1034951210022">
        <ele>774</ele>
        <time>2019-05-11T12:49:49Z</time>
      </trkpt>
      <trkpt lat="36.776008605957" lon="-5.10348320007324">
        <ele>774</ele>
        <time>2019-05-11T12:49:51Z</time>
      </trkpt>
      <trkpt lat="36.7760391235352" lon="-5.10347986221314">
        <ele>774</ele>
        <time>2019-05-11T12:49:53Z</time>
      </trkpt>
      <trkpt lat="36.7760696411133" lon="-5.1034779548645">
        <ele>774</ele>
        <time>2019-05-11T12:49:55Z</time>
      </trkpt>
      <trkpt lat="36.7761001586914" lon="-5.10347700119019">
        <ele>774</ele>
        <time>2019-05-11T12:49:57Z</time>
      </trkpt>
      <trkpt lat="36.7761306762695" lon="-5.10347318649292">
        <ele>774</ele>
        <time>2019-05-11T12:49:59Z</time>
      </trkpt>
      <trkpt lat="36.7761650085449" lon="-5.10346794128418">
        <ele>774</ele>
        <time>2019-05-11T12:50:01Z</time>
      </trkpt>
      <trkpt lat="36.776195526123" lon="-5.10346508026123">
        <ele>774</ele>
        <time>2019-05-11T12:50:03Z</time>
      </trkpt>
      <trkpt lat="36.7762298583984" lon="-5.10346221923828">
        <ele>774</ele>
        <time>2019-05-11T12:50:05Z</time>
      </trkpt>
      <trkpt lat="36.7762603759766" lon="-5.10345792770386">
        <ele>774</ele>
        <time>2019-05-11T12:50:07Z</time>
      </trkpt>
      <trkpt lat="36.776294708252" lon="-5.10345506668091">
        <ele>774</ele>
        <time>2019-05-11T12:50:10Z</time>
      </trkpt>
      <trkpt lat="36.7763252258301" lon="-5.10344982147217">
        <ele>774</ele>
        <time>2019-05-11T12:50:12Z</time>
      </trkpt>
      <trkpt lat="36.7763595581055" lon="-5.10344696044922">
        <ele>774</ele>
        <time>2019-05-11T12:50:14Z</time>
      </trkpt>
      <trkpt lat="36.7763938903809" lon="-5.10344314575195">
        <ele>774</ele>
        <time>2019-05-11T12:50:16Z</time>
      </trkpt>
      <trkpt lat="36.7764282226562" lon="-5.10343790054321">
        <ele>774</ele>
        <time>2019-05-11T12:50:18Z</time>
      </trkpt>
      <trkpt lat="36.7764587402344" lon="-5.1034369468689">
        <ele>774</ele>
        <time>2019-05-11T12:50:20Z</time>
      </trkpt>
      <trkpt lat="36.7764930725098" lon="-5.10343313217163">
        <ele>774</ele>
        <time>2019-05-11T12:50:22Z</time>
      </trkpt>
      <trkpt lat="36.7765235900879" lon="-5.10342979431152">
        <ele>774</ele>
        <time>2019-05-11T12:50:24Z</time>
      </trkpt>
      <trkpt lat="36.7765579223633" lon="-5.10342788696289">
        <ele>774</ele>
        <time>2019-05-11T12:50:26Z</time>
      </trkpt>
      <trkpt lat="36.7765884399414" lon="-5.10342311859131">
        <ele>774</ele>
        <time>2019-05-11T12:50:28Z</time>
      </trkpt>
      <trkpt lat="36.7766380310059" lon="-5.10341787338257">
        <ele>774</ele>
        <time>2019-05-11T12:50:30Z</time>
      </trkpt>
      <trkpt lat="36.7766723632812" lon="-5.10341501235962">
        <ele>774</ele>
        <time>2019-05-11T12:50:32Z</time>
      </trkpt>
      <trkpt lat="36.7767028808594" lon="-5.10341215133667">
        <ele>774</ele>
        <time>2019-05-11T12:50:34Z</time>
      </trkpt>
      <trkpt lat="36.7767333984375" lon="-5.1034049987793">
        <ele>774</ele>
        <time>2019-05-11T12:50:36Z</time>
      </trkpt>
      <trkpt lat="36.7767715454102" lon="-5.10339498519897">
        <ele>774</ele>
        <time>2019-05-11T12:50:38Z</time>
      </trkpt>
      <trkpt lat="36.7768020629883" lon="-5.1033821105957">
        <ele>774</ele>
        <time>2019-05-11T12:50:40Z</time>
      </trkpt>
      <trkpt lat="36.7768363952637" lon="-5.10336685180664">
        <ele>774</ele>
        <time>2019-05-11T12:50:42Z</time>
      </trkpt>
      <trkpt lat="36.7768669128418" lon="-5.10335206985474">
        <ele>774</ele>
        <time>2019-05-11T12:50:45Z</time>
      </trkpt>
      <trkpt lat="36.7769012451172" lon="-5.10333681106567">
        <ele>774</ele>
        <time>2019-05-11T12:50:47Z</time>
      </trkpt>
      <trkpt lat="36.776927947998" lon="-5.1033148765564">
        <ele>774</ele>
        <time>2019-05-11T12:50:49Z</time>
      </trkpt>
      <trkpt lat="36.7769584655762" lon="-5.10329818725586">
        <ele>774</ele>
        <time>2019-05-11T12:50:51Z</time>
      </trkpt>
      <trkpt lat="36.776985168457" lon="-5.10327816009522">
        <ele>774</ele>
        <time>2019-05-11T12:50:53Z</time>
      </trkpt>
      <trkpt lat="36.7770156860352" lon="-5.1032600402832">
        <ele>774</ele>
        <time>2019-05-11T12:50:55Z</time>
      </trkpt>
      <trkpt lat="36.777042388916" lon="-5.10324192047119">
        <ele>774</ele>
        <time>2019-05-11T12:50:57Z</time>
      </trkpt>
      <trkpt lat="36.7770729064941" lon="-5.10322713851929">
        <ele>774</ele>
        <time>2019-05-11T12:50:59Z</time>
      </trkpt>
      <trkpt lat="36.7771034240723" lon="-5.10320997238159">
        <ele>774</ele>
        <time>2019-05-11T12:51:01Z</time>
      </trkpt>
      <trkpt lat="36.7771301269531" lon="-5.10319185256958">
        <ele>774</ele>
        <time>2019-05-11T12:51:03Z</time>
      </trkpt>
      <trkpt lat="36.7771682739258" lon="-5.10315990447998">
        <ele>774</ele>
        <time>2019-05-11T12:51:05Z</time>
      </trkpt>
      <trkpt lat="36.7771949768066" lon="-5.10314178466797">
        <ele>774</ele>
        <time>2019-05-11T12:51:07Z</time>
      </trkpt>
      <trkpt lat="36.7772216796875" lon="-5.10312509536743">
        <ele>774</ele>
        <time>2019-05-11T12:51:09Z</time>
      </trkpt>
      <trkpt lat="36.7772483825684" lon="-5.10310697555542">
        <ele>774</ele>
        <time>2019-05-11T12:51:11Z</time>
      </trkpt>
      <trkpt lat="36.7772789001465" lon="-5.10308790206909">
        <ele>774</ele>
        <time>2019-05-11T12:51:13Z</time>
      </trkpt>
      <trkpt lat="36.7773056030273" lon="-5.10306787490845">
        <ele>774</ele>
        <time>2019-05-11T12:51:15Z</time>
      </trkpt>
      <trkpt lat="36.7773284912109" lon="-5.1030478477478">
        <ele>774</ele>
        <time>2019-05-11T12:51:17Z</time>
      </trkpt>
      <trkpt lat="36.7773590087891" lon="-5.1030330657959">
        <ele>774</ele>
        <time>2019-05-11T12:51:19Z</time>
      </trkpt>
      <trkpt lat="36.7773933410644" lon="-5.10302209854126">
        <ele>774</ele>
        <time>2019-05-11T12:51:22Z</time>
      </trkpt>
      <trkpt lat="36.7774238586426" lon="-5.1030101776123">
        <ele>774</ele>
        <time>2019-05-11T12:51:24Z</time>
      </trkpt>
      <trkpt lat="36.7774505615234" lon="-5.10299682617188">
        <ele>774</ele>
        <time>2019-05-11T12:51:26Z</time>
      </trkpt>
      <trkpt lat="36.7774810791016" lon="-5.10298013687134">
        <ele>774</ele>
        <time>2019-05-11T12:51:28Z</time>
      </trkpt>
      <trkpt lat="36.7775115966797" lon="-5.10296297073364">
        <ele>774</ele>
        <time>2019-05-11T12:51:30Z</time>
      </trkpt>
      <trkpt lat="36.7775382995606" lon="-5.10294723510742">
        <ele>774</ele>
        <time>2019-05-11T12:51:32Z</time>
      </trkpt>
      <trkpt lat="36.7775688171387" lon="-5.10292816162109">
        <ele>774</ele>
        <time>2019-05-11T12:51:34Z</time>
      </trkpt>
      <trkpt lat="36.7775955200195" lon="-5.10291004180908">
        <ele>774</ele>
        <time>2019-05-11T12:51:36Z</time>
      </trkpt>
      <trkpt lat="36.7776222229004" lon="-5.10289192199707">
        <ele>774</ele>
        <time>2019-05-11T12:51:38Z</time>
      </trkpt>
      <trkpt lat="36.7776641845703" lon="-5.10286712646484">
        <ele>774</ele>
        <time>2019-05-11T12:51:40Z</time>
      </trkpt>
      <trkpt lat="36.7776908874512" lon="-5.10285186767578">
        <ele>774</ele>
        <time>2019-05-11T12:51:42Z</time>
      </trkpt>
      <trkpt lat="36.777717590332" lon="-5.10283708572388">
        <ele>774</ele>
        <time>2019-05-11T12:51:44Z</time>
      </trkpt>
      <trkpt lat="36.7777442932129" lon="-5.10281801223755">
        <ele>774</ele>
        <time>2019-05-11T12:51:46Z</time>
      </trkpt>
      <trkpt lat="36.777774810791" lon="-5.10280179977417">
        <ele>774</ele>
        <time>2019-05-11T12:51:48Z</time>
      </trkpt>
      <trkpt lat="36.7778015136719" lon="-5.10278511047363">
        <ele>774</ele>
        <time>2019-05-11T12:51:50Z</time>
      </trkpt>
      <trkpt lat="36.77783203125" lon="-5.10276699066162">
        <ele>774</ele>
        <time>2019-05-11T12:51:52Z</time>
      </trkpt>
      <trkpt lat="36.7778625488281" lon="-5.10275220870972">
        <ele>775</ele>
        <time>2019-05-11T12:51:54Z</time>
      </trkpt>
      <trkpt lat="36.7778930664062" lon="-5.10273694992065">
        <ele>775</ele>
        <time>2019-05-11T12:51:57Z</time>
      </trkpt>
      <trkpt lat="36.7779197692871" lon="-5.10271978378296">
        <ele>775</ele>
        <time>2019-05-11T12:51:59Z</time>
      </trkpt>
      <trkpt lat="36.777946472168" lon="-5.10270214080811">
        <ele>775</ele>
        <time>2019-05-11T12:52:01Z</time>
      </trkpt>
      <trkpt lat="36.7779769897461" lon="-5.10268211364746">
        <ele>775</ele>
        <time>2019-05-11T12:52:03Z</time>
      </trkpt>
      <trkpt lat="36.778003692627" lon="-5.1026668548584">
        <ele>775</ele>
        <time>2019-05-11T12:52:05Z</time>
      </trkpt>
      <trkpt lat="36.7780303955078" lon="-5.10265016555786">
        <ele>775</ele>
        <time>2019-05-11T12:52:07Z</time>
      </trkpt>
      <trkpt lat="36.7780570983887" lon="-5.10263299942017">
        <ele>776</ele>
        <time>2019-05-11T12:52:09Z</time>
      </trkpt>
      <trkpt lat="36.7780838012695" lon="-5.10261821746826">
        <ele>776</ele>
        <time>2019-05-11T12:52:11Z</time>
      </trkpt>
      <trkpt lat="36.7781143188477" lon="-5.10260200500488">
        <ele>776</ele>
        <time>2019-05-11T12:52:13Z</time>
      </trkpt>
      <trkpt lat="36.7781562805176" lon="-5.10257816314697">
        <ele>776</ele>
        <time>2019-05-11T12:52:15Z</time>
      </trkpt>
      <trkpt lat="36.7781867980957" lon="-5.10256290435791">
        <ele>776</ele>
        <time>2019-05-11T12:52:17Z</time>
      </trkpt>
      <trkpt lat="36.7782135009766" lon="-5.10254716873169">
        <ele>776</ele>
        <time>2019-05-11T12:52:19Z</time>
      </trkpt>
      <trkpt lat="36.7782402038574" lon="-5.10253000259399">
        <ele>776</ele>
        <time>2019-05-11T12:52:21Z</time>
      </trkpt>
      <trkpt lat="36.7782707214356" lon="-5.1025128364563">
        <ele>776</ele>
        <time>2019-05-11T12:52:23Z</time>
      </trkpt>
      <trkpt lat="36.7783012390137" lon="-5.10249805450439">
        <ele>776</ele>
        <time>2019-05-11T12:52:25Z</time>
      </trkpt>
      <trkpt lat="36.7783317565918" lon="-5.10248517990112">
        <ele>776</ele>
        <time>2019-05-11T12:52:27Z</time>
      </trkpt>
      <trkpt lat="36.7783584594727" lon="-5.10246992111206">
        <ele>776</ele>
        <time>2019-05-11T12:52:29Z</time>
      </trkpt>
      <trkpt lat="36.7783889770508" lon="-5.10245513916016">
        <ele>776</ele>
        <time>2019-05-11T12:52:32Z</time>
      </trkpt>
      <trkpt lat="36.7784194946289" lon="-5.10244178771973">
        <ele>777</ele>
        <time>2019-05-11T12:52:34Z</time>
      </trkpt>
      <trkpt lat="36.7784461975098" lon="-5.10242319107056">
        <ele>777</ele>
        <time>2019-05-11T12:52:36Z</time>
      </trkpt>
      <trkpt lat="36.7784767150879" lon="-5.10240793228149">
        <ele>777</ele>
        <time>2019-05-11T12:52:38Z</time>
      </trkpt>
      <trkpt lat="36.7785034179688" lon="-5.10239696502686">
        <ele>777</ele>
        <time>2019-05-11T12:52:40Z</time>
      </trkpt>
      <trkpt lat="36.7785263061523" lon="-5.10238313674927">
        <ele>777</ele>
        <time>2019-05-11T12:52:42Z</time>
      </trkpt>
      <trkpt lat="36.7785568237305" lon="-5.10237216949463">
        <ele>778</ele>
        <time>2019-05-11T12:52:44Z</time>
      </trkpt>
      <trkpt lat="36.7785873413086" lon="-5.10235977172852">
        <ele>778</ele>
        <time>2019-05-11T12:52:46Z</time>
      </trkpt>
      <trkpt lat="36.7786140441894" lon="-5.10234689712524">
        <ele>778</ele>
        <time>2019-05-11T12:52:48Z</time>
      </trkpt>
      <trkpt lat="36.7786598205566" lon="-5.10232305526733">
        <ele>778</ele>
        <time>2019-05-11T12:52:50Z</time>
      </trkpt>
      <trkpt lat="36.7786865234375" lon="-5.10231685638428">
        <ele>778</ele>
        <time>2019-05-11T12:52:52Z</time>
      </trkpt>
      <trkpt lat="36.7787170410156" lon="-5.10230684280396">
        <ele>778</ele>
        <time>2019-05-11T12:52:54Z</time>
      </trkpt>
      <trkpt lat="36.7787475585938" lon="-5.102294921875">
        <ele>778</ele>
        <time>2019-05-11T12:52:56Z</time>
      </trkpt>
      <trkpt lat="36.7787780761719" lon="-5.10228776931763">
        <ele>778</ele>
        <time>2019-05-11T12:52:58Z</time>
      </trkpt>
      <trkpt lat="36.77880859375" lon="-5.10227489471436">
        <ele>778</ele>
        <time>2019-05-11T12:53:00Z</time>
      </trkpt>
      <trkpt lat="36.7788352966309" lon="-5.10226202011108">
        <ele>778</ele>
        <time>2019-05-11T12:53:02Z</time>
      </trkpt>
      <trkpt lat="36.778865814209" lon="-5.10224723815918">
        <ele>778</ele>
        <time>2019-05-11T12:53:04Z</time>
      </trkpt>
      <trkpt lat="36.7788963317871" lon="-5.10223484039307">
        <ele>779</ele>
        <time>2019-05-11T12:53:07Z</time>
      </trkpt>
      <trkpt lat="36.7789268493652" lon="-5.1022219657898">
        <ele>779</ele>
        <time>2019-05-11T12:53:09Z</time>
      </trkpt>
      <trkpt lat="36.7789535522461" lon="-5.10221004486084">
        <ele>779</ele>
        <time>2019-05-11T12:53:11Z</time>
      </trkpt>
      <trkpt lat="36.7789840698242" lon="-5.10219717025757">
        <ele>779</ele>
        <time>2019-05-11T12:53:13Z</time>
      </trkpt>
      <trkpt lat="36.7790145874023" lon="-5.10218477249146">
        <ele>779</ele>
        <time>2019-05-11T12:53:15Z</time>
      </trkpt>
      <trkpt lat="36.7790451049805" lon="-5.10217523574829">
        <ele>779</ele>
        <time>2019-05-11T12:53:17Z</time>
      </trkpt>
      <trkpt lat="36.7790756225586" lon="-5.10216188430786">
        <ele>779</ele>
        <time>2019-05-11T12:53:19Z</time>
      </trkpt>
      <trkpt lat="36.7791061401367" lon="-5.10214710235596">
        <ele>779</ele>
        <time>2019-05-11T12:53:21Z</time>
      </trkpt>
      <trkpt lat="36.7791366577148" lon="-5.10213279724121">
        <ele>779</ele>
        <time>2019-05-11T12:53:23Z</time>
      </trkpt>
      <trkpt lat="36.779182434082" lon="-5.10211515426636">
        <ele>779</ele>
        <time>2019-05-11T12:53:25Z</time>
      </trkpt>
      <trkpt lat="36.7792167663574" lon="-5.10210180282593">
        <ele>779</ele>
        <time>2019-05-11T12:53:27Z</time>
      </trkpt>
      <trkpt lat="36.7792434692383" lon="-5.10208797454834">
        <ele>779</ele>
        <time>2019-05-11T12:53:29Z</time>
      </trkpt>
      <trkpt lat="36.7792778015137" lon="-5.10207796096802">
        <ele>779</ele>
        <time>2019-05-11T12:53:31Z</time>
      </trkpt>
      <trkpt lat="36.7793083190918" lon="-5.1020679473877">
        <ele>779</ele>
        <time>2019-05-11T12:53:33Z</time>
      </trkpt>
      <trkpt lat="36.7793388366699" lon="-5.10205698013306">
        <ele>779</ele>
        <time>2019-05-11T12:53:35Z</time>
      </trkpt>
      <trkpt lat="36.7793617248535" lon="-5.10205221176147">
        <ele>779</ele>
        <time>2019-05-11T12:53:37Z</time>
      </trkpt>
      <trkpt lat="36.7793922424316" lon="-5.10203981399536">
        <ele>779</ele>
        <time>2019-05-11T12:53:39Z</time>
      </trkpt>
      <trkpt lat="36.7794227600098" lon="-5.10202217102051">
        <ele>779</ele>
        <time>2019-05-11T12:53:42Z</time>
      </trkpt>
      <trkpt lat="36.7794532775879" lon="-5.10200977325439">
        <ele>779</ele>
        <time>2019-05-11T12:53:44Z</time>
      </trkpt>
      <trkpt lat="36.779483795166" lon="-5.10200214385986">
        <ele>779</ele>
        <time>2019-05-11T12:53:46Z</time>
      </trkpt>
      <trkpt lat="36.7795143127441" lon="-5.10199213027954">
        <ele>779</ele>
        <time>2019-05-11T12:53:48Z</time>
      </trkpt>
      <trkpt lat="36.7795486450195" lon="-5.10198497772217">
        <ele>779</ele>
        <time>2019-05-11T12:53:50Z</time>
      </trkpt>
      <trkpt lat="36.7795829772949" lon="-5.1019778251648">
        <ele>779</ele>
        <time>2019-05-11T12:53:52Z</time>
      </trkpt>
      <trkpt lat="36.779613494873" lon="-5.10198211669922">
        <ele>779</ele>
        <time>2019-05-11T12:53:54Z</time>
      </trkpt>
      <trkpt lat="36.7796401977539" lon="-5.10198307037354">
        <ele>779</ele>
        <time>2019-05-11T12:53:56Z</time>
      </trkpt>
      <trkpt lat="36.7796745300293" lon="-5.10198307037354">
        <ele>779</ele>
        <time>2019-05-11T12:53:58Z</time>
      </trkpt>
      <trkpt lat="36.7797088623047" lon="-5.10198497772217">
        <ele>779</ele>
        <time>2019-05-11T12:54:00Z</time>
      </trkpt>
      <trkpt lat="36.7797508239746" lon="-5.10199213027954">
        <ele>779</ele>
        <time>2019-05-11T12:54:02Z</time>
      </trkpt>
      <trkpt lat="36.77978515625" lon="-5.10199689865112">
        <ele>779</ele>
        <time>2019-05-11T12:54:04Z</time>
      </trkpt>
      <trkpt lat="36.7798156738281" lon="-5.10200023651123">
        <ele>779</ele>
        <time>2019-05-11T12:54:06Z</time>
      </trkpt>
      <trkpt lat="36.7798461914062" lon="-5.10200500488281">
        <ele>779</ele>
        <time>2019-05-11T12:54:08Z</time>
      </trkpt>
      <trkpt lat="36.7798805236816" lon="-5.10200500488281">
        <ele>779</ele>
        <time>2019-05-11T12:54:10Z</time>
      </trkpt>
      <trkpt lat="36.779914855957" lon="-5.10200500488281">
        <ele>779</ele>
        <time>2019-05-11T12:54:12Z</time>
      </trkpt>
      <trkpt lat="36.7799491882324" lon="-5.10200500488281">
        <ele>779</ele>
        <time>2019-05-11T12:54:14Z</time>
      </trkpt>
      <trkpt lat="36.7799835205078" lon="-5.10200500488281">
        <ele>779</ele>
        <time>2019-05-11T12:54:16Z</time>
      </trkpt>
      <trkpt lat="36.7800140380859" lon="-5.10200309753418">
        <ele>779</ele>
        <time>2019-05-11T12:54:18Z</time>
      </trkpt>
      <trkpt lat="36.7800445556641" lon="-5.10199499130249">
        <ele>779</ele>
        <time>2019-05-11T12:54:20Z</time>
      </trkpt>
      <trkpt lat="36.7800712585449" lon="-5.10198211669922">
        <ele>779</ele>
        <time>2019-05-11T12:54:23Z</time>
      </trkpt>
      <trkpt lat="36.7801055908203" lon="-5.10196781158447">
        <ele>779</ele>
        <time>2019-05-11T12:54:25Z</time>
      </trkpt>
      <trkpt lat="36.7801322937012" lon="-5.1019549369812">
        <ele>779</ele>
        <time>2019-05-11T12:54:27Z</time>
      </trkpt>
      <trkpt lat="36.780158996582" lon="-5.10193204879761">
        <ele>779</ele>
        <time>2019-05-11T12:54:29Z</time>
      </trkpt>
      <trkpt lat="36.7801818847656" lon="-5.10190677642822">
        <ele>779</ele>
        <time>2019-05-11T12:54:31Z</time>
      </trkpt>
      <trkpt lat="36.7802085876465" lon="-5.10188484191894">
        <ele>779</ele>
        <time>2019-05-11T12:54:33Z</time>
      </trkpt>
      <trkpt lat="36.7802276611328" lon="-5.10186004638672">
        <ele>779</ele>
        <time>2019-05-11T12:54:35Z</time>
      </trkpt>
      <trkpt lat="36.7802467346191" lon="-5.10183811187744">
        <ele>779</ele>
        <time>2019-05-11T12:54:37Z</time>
      </trkpt>
      <trkpt lat="36.7802696228027" lon="-5.10181713104248">
        <ele>779</ele>
        <time>2019-05-11T12:54:39Z</time>
      </trkpt>
      <trkpt lat="36.7802886962891" lon="-5.1017951965332">
        <ele>779</ele>
        <time>2019-05-11T12:54:41Z</time>
      </trkpt>
      <trkpt lat="36.7803230285644" lon="-5.1017599105835">
        <ele>779</ele>
        <time>2019-05-11T12:54:43Z</time>
      </trkpt>
      <trkpt lat="36.7803382873535" lon="-5.1017370223999">
        <ele>779</ele>
        <time>2019-05-11T12:54:45Z</time>
      </trkpt>
      <trkpt lat="36.7803611755371" lon="-5.10171318054199">
        <ele>779</ele>
        <time>2019-05-11T12:54:47Z</time>
      </trkpt>
      <trkpt lat="36.7803802490234" lon="-5.10168981552124">
        <ele>779</ele>
        <time>2019-05-11T12:54:49Z</time>
      </trkpt>
      <trkpt lat="36.780403137207" lon="-5.10166788101196">
        <ele>779</ele>
        <time>2019-05-11T12:54:51Z</time>
      </trkpt>
      <trkpt lat="36.7804260253906" lon="-5.10164499282837">
        <ele>779</ele>
        <time>2019-05-11T12:54:53Z</time>
      </trkpt>
      <trkpt lat="36.780445098877" lon="-5.10162210464478">
        <ele>779</ele>
        <time>2019-05-11T12:54:55Z</time>
      </trkpt>
      <trkpt lat="36.7804679870606" lon="-5.10159683227539">
        <ele>779</ele>
        <time>2019-05-11T12:54:57Z</time>
      </trkpt>
      <trkpt lat="36.7804908752441" lon="-5.10157012939453">
        <ele>779</ele>
        <time>2019-05-11T12:55:00Z</time>
      </trkpt>
      <trkpt lat="36.7805137634277" lon="-5.10154485702515">
        <ele>779</ele>
        <time>2019-05-11T12:55:02Z</time>
      </trkpt>
      <trkpt lat="36.7805328369141" lon="-5.10151815414429">
        <ele>779</ele>
        <time>2019-05-11T12:55:04Z</time>
      </trkpt>
      <trkpt lat="36.7805519104004" lon="-5.10149478912354">
        <ele>779</ele>
        <time>2019-05-11T12:55:06Z</time>
      </trkpt>
      <trkpt lat="36.780574798584" lon="-5.10146999359131">
        <ele>779</ele>
        <time>2019-05-11T12:55:08Z</time>
      </trkpt>
      <trkpt lat="36.7805976867676" lon="-5.10144710540772">
        <ele>779</ele>
        <time>2019-05-11T12:55:10Z</time>
      </trkpt>
      <trkpt lat="36.7806205749512" lon="-5.10142707824707">
        <ele>779</ele>
        <time>2019-05-11T12:55:12Z</time>
      </trkpt>
      <trkpt lat="36.7806434631348" lon="-5.10140705108643">
        <ele>779</ele>
        <time>2019-05-11T12:55:14Z</time>
      </trkpt>
      <trkpt lat="36.7806625366211" lon="-5.1013879776001">
        <ele>779</ele>
        <time>2019-05-11T12:55:16Z</time>
      </trkpt>
      <trkpt lat="36.780689239502" lon="-5.10137319564819">
        <ele>779</ele>
        <time>2019-05-11T12:55:18Z</time>
      </trkpt>
      <trkpt lat="36.7807312011719" lon="-5.10135507583618">
        <ele>779</ele>
        <time>2019-05-11T12:55:20Z</time>
      </trkpt>
      <trkpt lat="36.7807579040527" lon="-5.10135221481323">
        <ele>779</ele>
        <time>2019-05-11T12:55:22Z</time>
      </trkpt>
      <trkpt lat="36.7807846069336" lon="-5.10135221481323">
        <ele>779</ele>
        <time>2019-05-11T12:55:24Z</time>
      </trkpt>
      <trkpt lat="36.7808151245117" lon="-5.10135316848755">
        <ele>779</ele>
        <time>2019-05-11T12:55:26Z</time>
      </trkpt>
      <trkpt lat="36.7808418273926" lon="-5.10135793685913">
        <ele>779</ele>
        <time>2019-05-11T12:55:28Z</time>
      </trkpt>
      <trkpt lat="36.7808685302734" lon="-5.10136222839356">
        <ele>779</ele>
        <time>2019-05-11T12:55:30Z</time>
      </trkpt>
      <trkpt lat="36.7808990478516" lon="-5.1013650894165">
        <ele>779</ele>
        <time>2019-05-11T12:55:32Z</time>
      </trkpt>
      <trkpt lat="36.7809295654297" lon="-5.10136699676514">
        <ele>779</ele>
        <time>2019-05-11T12:55:35Z</time>
      </trkpt>
      <trkpt lat="36.7809600830078" lon="-5.10137176513672">
        <ele>779</ele>
        <time>2019-05-11T12:55:37Z</time>
      </trkpt>
      <trkpt lat="36.7809906005859" lon="-5.10137319564819">
        <ele>779</ele>
        <time>2019-05-11T12:55:39Z</time>
      </trkpt>
      <trkpt lat="36.7810211181641" lon="-5.10136985778809">
        <ele>779</ele>
        <time>2019-05-11T12:55:41Z</time>
      </trkpt>
      <trkpt lat="36.7810478210449" lon="-5.10135793685913">
        <ele>779</ele>
        <time>2019-05-11T12:55:43Z</time>
      </trkpt>
      <trkpt lat="36.7810707092285" lon="-5.10133504867554">
        <ele>779</ele>
        <time>2019-05-11T12:55:45Z</time>
      </trkpt>
      <trkpt lat="36.7810859680176" lon="-5.10130786895752">
        <ele>779</ele>
        <time>2019-05-11T12:55:47Z</time>
      </trkpt>
      <trkpt lat="36.7811012268066" lon="-5.10128211975098">
        <ele>779</ele>
        <time>2019-05-11T12:55:49Z</time>
      </trkpt>
      <trkpt lat="36.7811088562012" lon="-5.10125207901001">
        <ele>779</ele>
        <time>2019-05-11T12:55:51Z</time>
      </trkpt>
      <trkpt lat="36.7811164855957" lon="-5.10121822357178">
        <ele>779</ele>
        <time>2019-05-11T12:55:53Z</time>
      </trkpt>
      <trkpt lat="36.781120300293" lon="-5.10116815567017">
        <ele>779</ele>
        <time>2019-05-11T12:55:55Z</time>
      </trkpt>
      <trkpt lat="36.781120300293" lon="-5.10113477706909">
        <ele>779</ele>
        <time>2019-05-11T12:55:57Z</time>
      </trkpt>
      <trkpt lat="36.7811241149902" lon="-5.10110282897949">
        <ele>780</ele>
        <time>2019-05-11T12:55:59Z</time>
      </trkpt>
      <trkpt lat="36.7811241149902" lon="-5.10107183456421">
        <ele>780</ele>
        <time>2019-05-11T12:56:01Z</time>
      </trkpt>
      <trkpt lat="36.7811241149902" lon="-5.10103702545166">
        <ele>781</ele>
        <time>2019-05-11T12:56:03Z</time>
      </trkpt>
      <trkpt lat="36.7811241149902" lon="-5.10100317001343">
        <ele>782</ele>
        <time>2019-05-11T12:56:05Z</time>
      </trkpt>
      <trkpt lat="36.7811279296875" lon="-5.10097217559814">
        <ele>782</ele>
        <time>2019-05-11T12:56:07Z</time>
      </trkpt>
      <trkpt lat="36.7811279296875" lon="-5.10093784332275">
        <ele>783</ele>
        <time>2019-05-11T12:56:09Z</time>
      </trkpt>
      <trkpt lat="36.7811279296875" lon="-5.10090684890747">
        <ele>783</ele>
        <time>2019-05-11T12:56:12Z</time>
      </trkpt>
      <trkpt lat="36.7811279296875" lon="-5.10087299346924">
        <ele>783</ele>
        <time>2019-05-11T12:56:14Z</time>
      </trkpt>
      <trkpt lat="36.7811279296875" lon="-5.10084199905396">
        <ele>784</ele>
        <time>2019-05-11T12:56:16Z</time>
      </trkpt>
      <trkpt lat="36.7811279296875" lon="-5.10081195831299">
        <ele>784</ele>
        <time>2019-05-11T12:56:18Z</time>
      </trkpt>
      <trkpt lat="36.7811279296875" lon="-5.10078191757202">
        <ele>785</ele>
        <time>2019-05-11T12:56:20Z</time>
      </trkpt>
      <trkpt lat="36.7811241149902" lon="-5.10075283050537">
        <ele>785</ele>
        <time>2019-05-11T12:56:22Z</time>
      </trkpt>
      <trkpt lat="36.7811317443848" lon="-5.1007251739502">
        <ele>786</ele>
        <time>2019-05-11T12:56:24Z</time>
      </trkpt>
      <trkpt lat="36.7811279296875" lon="-5.10069799423218">
        <ele>786</ele>
        <time>2019-05-11T12:56:26Z</time>
      </trkpt>
      <trkpt lat="36.7811241149902" lon="-5.10067510604858">
        <ele>787</ele>
        <time>2019-05-11T12:56:28Z</time>
      </trkpt>
      <trkpt lat="36.781120300293" lon="-5.10064506530762">
        <ele>788</ele>
        <time>2019-05-11T12:56:30Z</time>
      </trkpt>
      <trkpt lat="36.7811088562012" lon="-5.10061311721802">
        <ele>789</ele>
        <time>2019-05-11T12:56:32Z</time>
      </trkpt>
      <trkpt lat="36.7810935974121" lon="-5.10056781768799">
        <ele>790</ele>
        <time>2019-05-11T12:56:34Z</time>
      </trkpt>
      <trkpt lat="36.7810821533203" lon="-5.10054206848144">
        <ele>790</ele>
        <time>2019-05-11T12:56:36Z</time>
      </trkpt>
      <trkpt lat="36.7810707092285" lon="-5.10051202774048">
        <ele>791</ele>
        <time>2019-05-11T12:56:38Z</time>
      </trkpt>
      <trkpt lat="36.781063079834" lon="-5.10048484802246">
        <ele>792</ele>
        <time>2019-05-11T12:56:40Z</time>
      </trkpt>
      <trkpt lat="36.7810516357422" lon="-5.10045480728149">
        <ele>792</ele>
        <time>2019-05-11T12:56:42Z</time>
      </trkpt>
      <trkpt lat="36.7810516357422" lon="-5.10042285919189">
        <ele>793</ele>
        <time>2019-05-11T12:56:44Z</time>
      </trkpt>
      <trkpt lat="36.7810516357422" lon="-5.10039186477661">
        <ele>793</ele>
        <time>2019-05-11T12:56:46Z</time>
      </trkpt>
      <trkpt lat="36.7810554504394" lon="-5.10035705566406">
        <ele>794</ele>
        <time>2019-05-11T12:56:48Z</time>
      </trkpt>
      <trkpt lat="36.781063079834" lon="-5.10032510757446">
        <ele>794</ele>
        <time>2019-05-11T12:56:51Z</time>
      </trkpt>
      <trkpt lat="36.7810668945312" lon="-5.10029220581055">
        <ele>795</ele>
        <time>2019-05-11T12:56:53Z</time>
      </trkpt>
      <trkpt lat="36.7810668945312" lon="-5.10025787353516">
        <ele>795</ele>
        <time>2019-05-11T12:56:55Z</time>
      </trkpt>
      <trkpt lat="36.7810707092285" lon="-5.10022306442261">
        <ele>795</ele>
        <time>2019-05-11T12:56:57Z</time>
      </trkpt>
      <trkpt lat="36.7810745239258" lon="-5.10019016265869">
        <ele>795</ele>
        <time>2019-05-11T12:56:59Z</time>
      </trkpt>
      <trkpt lat="36.7810745239258" lon="-5.10015296936035">
        <ele>795</ele>
        <time>2019-05-11T12:57:01Z</time>
      </trkpt>
      <trkpt lat="36.7810745239258" lon="-5.10012006759644">
        <ele>795</ele>
        <time>2019-05-11T12:57:03Z</time>
      </trkpt>
      <trkpt lat="36.7810745239258" lon="-5.10008716583252">
        <ele>795</ele>
        <time>2019-05-11T12:57:05Z</time>
      </trkpt>
      <trkpt lat="36.7810707092285" lon="-5.10004997253418">
        <ele>795</ele>
        <time>2019-05-11T12:57:07Z</time>
      </trkpt>
      <trkpt lat="36.781063079834" lon="-5.10001707077026">
        <ele>795</ele>
        <time>2019-05-11T12:57:09Z</time>
      </trkpt>
      <trkpt lat="36.7810516357422" lon="-5.09996509552002">
        <ele>795</ele>
        <time>2019-05-11T12:57:11Z</time>
      </trkpt>
      <trkpt lat="36.7810401916504" lon="-5.0999321937561">
        <ele>795</ele>
        <time>2019-05-11T12:57:13Z</time>
      </trkpt>
      <trkpt lat="36.7810287475586" lon="-5.09989976882935">
        <ele>795</ele>
        <time>2019-05-11T12:57:15Z</time>
      </trkpt>
      <trkpt lat="36.7810134887695" lon="-5.09987211227417">
        <ele>795</ele>
        <time>2019-05-11T12:57:17Z</time>
      </trkpt>
      <trkpt lat="36.7809982299805" lon="-5.09984493255615">
        <ele>795</ele>
        <time>2019-05-11T12:57:19Z</time>
      </trkpt>
      <trkpt lat="36.7809829711914" lon="-5.09982013702393">
        <ele>795</ele>
        <time>2019-05-11T12:57:21Z</time>
      </trkpt>
      <trkpt lat="36.7809677124023" lon="-5.09979295730591">
        <ele>795</ele>
        <time>2019-05-11T12:57:23Z</time>
      </trkpt>
      <trkpt lat="36.780948638916" lon="-5.09976816177368">
        <ele>795</ele>
        <time>2019-05-11T12:57:26Z</time>
      </trkpt>
      <trkpt lat="36.7809257507324" lon="-5.09974002838135">
        <ele>795</ele>
        <time>2019-05-11T12:57:28Z</time>
      </trkpt>
      <trkpt lat="36.7809066772461" lon="-5.09971523284912">
        <ele>795</ele>
        <time>2019-05-11T12:57:30Z</time>
      </trkpt>
      <trkpt lat="36.7808837890625" lon="-5.09969282150269">
        <ele>795</ele>
        <time>2019-05-11T12:57:32Z</time>
      </trkpt>
      <trkpt lat="36.7808647155762" lon="-5.09967279434204">
        <ele>795</ele>
        <time>2019-05-11T12:57:34Z</time>
      </trkpt>
      <trkpt lat="36.7808456420898" lon="-5.09964990615845">
        <ele>795</ele>
        <time>2019-05-11T12:57:36Z</time>
      </trkpt>
      <trkpt lat="36.7808303833008" lon="-5.09962701797485">
        <ele>795</ele>
        <time>2019-05-11T12:57:38Z</time>
      </trkpt>
      <trkpt lat="36.7808151245117" lon="-5.09959983825684">
        <ele>796</ele>
        <time>2019-05-11T12:57:40Z</time>
      </trkpt>
      <trkpt lat="36.7808113098144" lon="-5.09956979751587">
        <ele>796</ele>
        <time>2019-05-11T12:57:42Z</time>
      </trkpt>
      <trkpt lat="36.7808113098144" lon="-5.09954214096069">
        <ele>796</ele>
        <time>2019-05-11T12:57:44Z</time>
      </trkpt>
      <trkpt lat="36.7808456420898" lon="-5.09952688217163">
        <ele>796</ele>
        <time>2019-05-11T12:57:46Z</time>
      </trkpt>
      <trkpt lat="36.780876159668" lon="-5.09952306747436">
        <ele>796</ele>
        <time>2019-05-11T12:57:48Z</time>
      </trkpt>
      <trkpt lat="36.7809104919434" lon="-5.09952783584595">
        <ele>796</ele>
        <time>2019-05-11T12:57:50Z</time>
      </trkpt>
      <trkpt lat="36.7809524536133" lon="-5.09953498840332">
        <ele>796</ele>
        <time>2019-05-11T12:57:52Z</time>
      </trkpt>
      <trkpt lat="36.7809906005859" lon="-5.09954500198364">
        <ele>796</ele>
        <time>2019-05-11T12:57:54Z</time>
      </trkpt>
      <trkpt lat="36.7810325622559" lon="-5.09956312179565">
        <ele>796</ele>
        <time>2019-05-11T12:57:56Z</time>
      </trkpt>
      <trkpt lat="36.7810745239258" lon="-5.09958219528198">
        <ele>796</ele>
        <time>2019-05-11T12:57:58Z</time>
      </trkpt>
      <trkpt lat="36.7811164855957" lon="-5.09960317611694">
        <ele>796</ele>
        <time>2019-05-11T12:58:00Z</time>
      </trkpt>
      <trkpt lat="36.7811584472656" lon="-5.09962511062622">
        <ele>796</ele>
        <time>2019-05-11T12:58:03Z</time>
      </trkpt>
      <trkpt lat="36.7811965942383" lon="-5.09965705871582">
        <ele>795</ele>
        <time>2019-05-11T12:58:05Z</time>
      </trkpt>
      <trkpt lat="36.7812461853027" lon="-5.09967994689941">
        <ele>794</ele>
        <time>2019-05-11T12:58:07Z</time>
      </trkpt>
      <trkpt lat="36.7812957763672" lon="-5.09970808029175">
        <ele>794</ele>
        <time>2019-05-11T12:58:09Z</time>
      </trkpt>
      <trkpt lat="36.7813415527344" lon="-5.09973192214966">
        <ele>794</ele>
        <time>2019-05-11T12:58:11Z</time>
      </trkpt>
      <trkpt lat="36.7813835144043" lon="-5.09975719451904">
        <ele>794</ele>
        <time>2019-05-11T12:58:13Z</time>
      </trkpt>
      <trkpt lat="36.7814331054688" lon="-5.09978008270264">
        <ele>793</ele>
        <time>2019-05-11T12:58:15Z</time>
      </trkpt>
      <trkpt lat="36.7814788818359" lon="-5.09980297088623">
        <ele>793</ele>
        <time>2019-05-11T12:58:17Z</time>
      </trkpt>
      <trkpt lat="36.7815284729004" lon="-5.09982013702393">
        <ele>792</ele>
        <time>2019-05-11T12:58:19Z</time>
      </trkpt>
      <trkpt lat="36.7815780639648" lon="-5.09982490539551">
        <ele>791</ele>
        <time>2019-05-11T12:58:21Z</time>
      </trkpt>
      <trkpt lat="36.781623840332" lon="-5.09982681274414">
        <ele>791</ele>
        <time>2019-05-11T12:58:23Z</time>
      </trkpt>
      <trkpt lat="36.7816925048828" lon="-5.0998477935791">
        <ele>791</ele>
        <time>2019-05-11T12:58:25Z</time>
      </trkpt>
      <trkpt lat="36.78173828125" lon="-5.09986305236816">
        <ele>791</ele>
        <time>2019-05-11T12:58:27Z</time>
      </trkpt>
      <trkpt lat="36.7817764282227" lon="-5.09988307952881">
        <ele>791</ele>
        <time>2019-05-11T12:58:29Z</time>
      </trkpt>
      <trkpt lat="36.7818183898926" lon="-5.09989786148071">
        <ele>791</ele>
        <time>2019-05-11T12:58:31Z</time>
      </trkpt>
      <trkpt lat="36.7818603515625" lon="-5.09991312026978">
        <ele>791</ele>
        <time>2019-05-11T12:58:33Z</time>
      </trkpt>
      <trkpt lat="36.7819061279297" lon="-5.09991979598999">
        <ele>791</ele>
        <time>2019-05-11T12:58:35Z</time>
      </trkpt>
      <trkpt lat="36.7819519042969" lon="-5.09992504119873">
        <ele>791</ele>
        <time>2019-05-11T12:58:37Z</time>
      </trkpt>
      <trkpt lat="36.7819938659668" lon="-5.09992694854736">
        <ele>791</ele>
        <time>2019-05-11T12:58:39Z</time>
      </trkpt>
      <trkpt lat="36.782039642334" lon="-5.09992790222168">
        <ele>791</ele>
        <time>2019-05-11T12:58:42Z</time>
      </trkpt>
      <trkpt lat="36.7820816040039" lon="-5.09992980957031">
        <ele>791</ele>
        <time>2019-05-11T12:58:44Z</time>
      </trkpt>
      <trkpt lat="36.7821311950684" lon="-5.09992694854736">
        <ele>791</ele>
        <time>2019-05-11T12:58:46Z</time>
      </trkpt>
      <trkpt lat="36.7821769714356" lon="-5.09991979598999">
        <ele>790</ele>
        <time>2019-05-11T12:58:48Z</time>
      </trkpt>
      <trkpt lat="36.7822227478027" lon="-5.09991502761841">
        <ele>789</ele>
        <time>2019-05-11T12:58:50Z</time>
      </trkpt>
      <trkpt lat="36.7822647094727" lon="-5.09990787506104">
        <ele>788</ele>
        <time>2019-05-11T12:58:52Z</time>
      </trkpt>
      <trkpt lat="36.7823066711426" lon="-5.09989786148071">
        <ele>787</ele>
        <time>2019-05-11T12:58:54Z</time>
      </trkpt>
      <trkpt lat="36.7823524475098" lon="-5.09988784790039">
        <ele>786</ele>
        <time>2019-05-11T12:58:56Z</time>
      </trkpt>
      <trkpt lat="36.7823944091797" lon="-5.09987497329712">
        <ele>785</ele>
        <time>2019-05-11T12:58:58Z</time>
      </trkpt>
      <trkpt lat="36.7824592590332" lon="-5.0998420715332">
        <ele>784</ele>
        <time>2019-05-11T12:59:00Z</time>
      </trkpt>
      <trkpt lat="36.7825050354004" lon="-5.09982490539551">
        <ele>784</ele>
        <time>2019-05-11T12:59:02Z</time>
      </trkpt>
      <trkpt lat="36.7825546264648" lon="-5.09980821609497">
        <ele>784</ele>
        <time>2019-05-11T12:59:04Z</time>
      </trkpt>
      <trkpt lat="36.7825965881348" lon="-5.09978818893433">
        <ele>784</ele>
        <time>2019-05-11T12:59:06Z</time>
      </trkpt>
      <trkpt lat="36.7826309204102" lon="-5.09975814819336">
        <ele>783</ele>
        <time>2019-05-11T12:59:08Z</time>
      </trkpt>
      <trkpt lat="36.7826766967773" lon="-5.09973287582397">
        <ele>783</ele>
        <time>2019-05-11T12:59:10Z</time>
      </trkpt>
      <trkpt lat="36.7827186584473" lon="-5.0997052192688">
        <ele>781</ele>
        <time>2019-05-11T12:59:12Z</time>
      </trkpt>
      <trkpt lat="36.7827568054199" lon="-5.09967994689941">
        <ele>780</ele>
        <time>2019-05-11T12:59:14Z</time>
      </trkpt>
      <trkpt lat="36.7828025817871" lon="-5.0996470451355">
        <ele>778</ele>
        <time>2019-05-11T12:59:17Z</time>
      </trkpt>
      <trkpt lat="36.7828330993652" lon="-5.09960794448853">
        <ele>777</ele>
        <time>2019-05-11T12:59:19Z</time>
      </trkpt>
      <trkpt lat="36.7828598022461" lon="-5.09958505630493">
        <ele>776</ele>
        <time>2019-05-11T12:59:21Z</time>
      </trkpt>
      <trkpt lat="36.7828712463379" lon="-5.09955215454102">
        <ele>776</ele>
        <time>2019-05-11T12:59:23Z</time>
      </trkpt>
      <trkpt lat="36.7828941345215" lon="-5.09952020645142">
        <ele>775</ele>
        <time>2019-05-11T12:59:25Z</time>
      </trkpt>
      <trkpt lat="36.7829132080078" lon="-5.09949016571045">
        <ele>775</ele>
        <time>2019-05-11T12:59:27Z</time>
      </trkpt>
      <trkpt lat="36.7829437255859" lon="-5.0994701385498">
        <ele>775</ele>
        <time>2019-05-11T12:59:29Z</time>
      </trkpt>
      <trkpt lat="36.7829666137695" lon="-5.09945297241211">
        <ele>775</ele>
        <time>2019-05-11T12:59:31Z</time>
      </trkpt>
      <trkpt lat="36.7829933166504" lon="-5.0994381904602">
        <ele>775</ele>
        <time>2019-05-11T12:59:33Z</time>
      </trkpt>
      <trkpt lat="36.7830390930176" lon="-5.09942007064819">
        <ele>775</ele>
        <time>2019-05-11T12:59:35Z</time>
      </trkpt>
      <trkpt lat="36.7830696105957" lon="-5.09940814971924">
        <ele>775</ele>
        <time>2019-05-11T12:59:37Z</time>
      </trkpt>
      <trkpt lat="36.7831039428711" lon="-5.09939813613892">
        <ele>775</ele>
        <time>2019-05-11T12:59:39Z</time>
      </trkpt>
      <trkpt lat="36.783130645752" lon="-5.09939002990723">
        <ele>775</ele>
        <time>2019-05-11T12:59:41Z</time>
      </trkpt>
      <trkpt lat="36.7831611633301" lon="-5.09938192367554">
        <ele>775</ele>
        <time>2019-05-11T12:59:43Z</time>
      </trkpt>
      <trkpt lat="36.7831916809082" lon="-5.09937286376953">
        <ele>775</ele>
        <time>2019-05-11T12:59:45Z</time>
      </trkpt>
      <trkpt lat="36.7832221984863" lon="-5.09936809539795">
        <ele>775</ele>
        <time>2019-05-11T12:59:47Z</time>
      </trkpt>
      <trkpt lat="36.7832489013672" lon="-5.09935712814331">
        <ele>775</ele>
        <time>2019-05-11T12:59:49Z</time>
      </trkpt>
      <trkpt lat="36.7832717895508" lon="-5.0993480682373">
        <ele>775</ele>
        <time>2019-05-11T12:59:52Z</time>
      </trkpt>
      <trkpt lat="36.7832984924316" lon="-5.09933710098267">
        <ele>775</ele>
        <time>2019-05-11T12:59:54Z</time>
      </trkpt>
      <trkpt lat="36.7833251953125" lon="-5.09932804107666">
        <ele>775</ele>
        <time>2019-05-11T12:59:56Z</time>
      </trkpt>
      <trkpt lat="36.7833557128906" lon="-5.09931802749634">
        <ele>775</ele>
        <time>2019-05-11T12:59:58Z</time>
      </trkpt>
      <trkpt lat="36.7833824157715" lon="-5.0993127822876">
        <ele>775</ele>
        <time>2019-05-11T13:00:00Z</time>
      </trkpt>
      <trkpt lat="36.7834091186523" lon="-5.0993070602417">
        <ele>775</ele>
        <time>2019-05-11T13:00:02Z</time>
      </trkpt>
      <trkpt lat="36.7834358215332" lon="-5.09930181503296">
        <ele>775</ele>
        <time>2019-05-11T13:00:04Z</time>
      </trkpt>
      <trkpt lat="36.7834625244141" lon="-5.09930515289307">
        <ele>775</ele>
        <time>2019-05-11T13:00:06Z</time>
      </trkpt>
      <trkpt lat="36.7834892272949" lon="-5.09931182861328">
        <ele>775</ele>
        <time>2019-05-11T13:00:08Z</time>
      </trkpt>
      <trkpt lat="36.7835159301758" lon="-5.09931993484497">
        <ele>775</ele>
        <time>2019-05-11T13:00:10Z</time>
      </trkpt>
      <trkpt lat="36.7835540771484" lon="-5.09933185577393">
        <ele>775</ele>
        <time>2019-05-11T13:00:12Z</time>
      </trkpt>
      <trkpt lat="36.783576965332" lon="-5.09934282302856">
        <ele>775</ele>
        <time>2019-05-11T13:00:14Z</time>
      </trkpt>
      <trkpt lat="36.7836036682129" lon="-5.09935712814331">
        <ele>775</ele>
        <time>2019-05-11T13:00:16Z</time>
      </trkpt>
      <trkpt lat="36.7836265563965" lon="-5.09937000274658">
        <ele>775</ele>
        <time>2019-05-11T13:00:18Z</time>
      </trkpt>
      <trkpt lat="36.7836532592773" lon="-5.09937810897827">
        <ele>775</ele>
        <time>2019-05-11T13:00:20Z</time>
      </trkpt>
      <trkpt lat="36.7836761474609" lon="-5.09938812255859">
        <ele>775</ele>
        <time>2019-05-11T13:00:22Z</time>
      </trkpt>
      <trkpt lat="36.7837028503418" lon="-5.09939813613892">
        <ele>775</ele>
        <time>2019-05-11T13:00:24Z</time>
      </trkpt>
      <trkpt lat="36.7837295532227" lon="-5.0994119644165">
        <ele>775</ele>
        <time>2019-05-11T13:00:27Z</time>
      </trkpt>
      <trkpt lat="36.7837562561035" lon="-5.09942483901978">
        <ele>775</ele>
        <time>2019-05-11T13:00:29Z</time>
      </trkpt>
      <trkpt lat="36.7837791442871" lon="-5.09943294525146">
        <ele>775</ele>
        <time>2019-05-11T13:00:31Z</time>
      </trkpt>
      <trkpt lat="36.7838020324707" lon="-5.09944486618042">
        <ele>775</ele>
        <time>2019-05-11T13:00:33Z</time>
      </trkpt>
      <trkpt lat="36.7838287353516" lon="-5.09945678710938">
        <ele>775</ele>
        <time>2019-05-11T13:00:35Z</time>
      </trkpt>
      <trkpt lat="36.7838516235352" lon="-5.09947204589844">
        <ele>775</ele>
        <time>2019-05-11T13:00:37Z</time>
      </trkpt>
      <trkpt lat="36.7838745117188" lon="-5.09948301315308">
        <ele>775</ele>
        <time>2019-05-11T13:00:39Z</time>
      </trkpt>
      <trkpt lat="36.7839012145996" lon="-5.0994930267334">
        <ele>775</ele>
        <time>2019-05-11T13:00:41Z</time>
      </trkpt>
      <trkpt lat="36.7839279174805" lon="-5.0995020866394">
        <ele>775</ele>
        <time>2019-05-11T13:00:43Z</time>
      </trkpt>
      <trkpt lat="36.7839622497559" lon="-5.09951210021973">
        <ele>775</ele>
        <time>2019-05-11T13:00:45Z</time>
      </trkpt>
      <trkpt lat="36.7839889526367" lon="-5.09951019287109">
        <ele>775</ele>
        <time>2019-05-11T13:00:47Z</time>
      </trkpt>
      <trkpt lat="36.7840156555176" lon="-5.09951210021973">
        <ele>775</ele>
        <time>2019-05-11T13:00:49Z</time>
      </trkpt>
      <trkpt lat="36.7840423583984" lon="-5.09951305389404">
        <ele>776</ele>
        <time>2019-05-11T13:00:51Z</time>
      </trkpt>
      <trkpt lat="36.7840690612793" lon="-5.09951686859131">
        <ele>776</ele>
        <time>2019-05-11T13:00:53Z</time>
      </trkpt>
      <trkpt lat="36.7840919494629" lon="-5.09952783584595">
        <ele>777</ele>
        <time>2019-05-11T13:00:55Z</time>
      </trkpt>
      <trkpt lat="36.7841186523438" lon="-5.09954309463501">
        <ele>777</ele>
        <time>2019-05-11T13:00:57Z</time>
      </trkpt>
      <trkpt lat="36.7841377258301" lon="-5.09956502914429">
        <ele>777</ele>
        <time>2019-05-11T13:00:59Z</time>
      </trkpt>
      <trkpt lat="36.7841567993164" lon="-5.09958791732788">
        <ele>777</ele>
        <time>2019-05-11T13:01:02Z</time>
      </trkpt>
      <trkpt lat="36.7841758728027" lon="-5.09961223602295">
        <ele>778</ele>
        <time>2019-05-11T13:01:04Z</time>
      </trkpt>
      <trkpt lat="36.7841911315918" lon="-5.09963512420654">
        <ele>779</ele>
        <time>2019-05-11T13:01:06Z</time>
      </trkpt>
      <trkpt lat="36.7842063903809" lon="-5.09965991973877">
        <ele>779</ele>
        <time>2019-05-11T13:01:08Z</time>
      </trkpt>
      <trkpt lat="36.7842216491699" lon="-5.09968519210815">
        <ele>780</ele>
        <time>2019-05-11T13:01:10Z</time>
      </trkpt>
      <trkpt lat="36.7842407226562" lon="-5.09971189498901">
        <ele>780</ele>
        <time>2019-05-11T13:01:12Z</time>
      </trkpt>
      <trkpt lat="36.7842559814453" lon="-5.0997371673584">
        <ele>780</ele>
        <time>2019-05-11T13:01:14Z</time>
      </trkpt>
      <trkpt lat="36.7842712402344" lon="-5.09976196289062">
        <ele>780</ele>
        <time>2019-05-11T13:01:16Z</time>
      </trkpt>
      <trkpt lat="36.7842826843262" lon="-5.09978818893433">
        <ele>780</ele>
        <time>2019-05-11T13:01:18Z</time>
      </trkpt>
      <trkpt lat="36.7842979431152" lon="-5.09981489181519">
        <ele>780</ele>
        <time>2019-05-11T13:01:20Z</time>
      </trkpt>
      <trkpt lat="36.7843284606934" lon="-5.09985494613647">
        <ele>780</ele>
        <time>2019-05-11T13:01:22Z</time>
      </trkpt>
      <trkpt lat="36.7843475341797" lon="-5.09988021850586">
        <ele>780</ele>
        <time>2019-05-11T13:01:24Z</time>
      </trkpt>
      <trkpt lat="36.784366607666" lon="-5.09990692138672">
        <ele>780</ele>
        <time>2019-05-11T13:01:26Z</time>
      </trkpt>
      <trkpt lat="36.7843856811523" lon="-5.09993314743042">
        <ele>780</ele>
        <time>2019-05-11T13:01:28Z</time>
      </trkpt>
      <trkpt lat="36.7844085693359" lon="-5.09995317459106">
        <ele>780</ele>
        <time>2019-05-11T13:01:30Z</time>
      </trkpt>
      <trkpt lat="36.7844314575195" lon="-5.0999698638916">
        <ele>780</ele>
        <time>2019-05-11T13:01:32Z</time>
      </trkpt>
      <trkpt lat="36.7844581604004" lon="-5.09998178482056">
        <ele>780</ele>
        <time>2019-05-11T13:01:34Z</time>
      </trkpt>
      <trkpt lat="36.7844848632812" lon="-5.09999513626099">
        <ele>780</ele>
        <time>2019-05-11T13:01:36Z</time>
      </trkpt>
      <trkpt lat="36.7845115661621" lon="-5.09999799728394">
        <ele>780</ele>
        <time>2019-05-11T13:01:39Z</time>
      </trkpt>
      <trkpt lat="36.7845420837402" lon="-5.10000276565552">
        <ele>780</ele>
        <time>2019-05-11T13:01:41Z</time>
      </trkpt>
      <trkpt lat="36.7845726013184" lon="-5.10000705718994">
        <ele>780</ele>
        <time>2019-05-11T13:01:43Z</time>
      </trkpt>
      <trkpt lat="36.7846031188965" lon="-5.10000705718994">
        <ele>780</ele>
        <time>2019-05-11T13:01:45Z</time>
      </trkpt>
      <trkpt lat="36.7846298217773" lon="-5.10000276565552">
        <ele>780</ele>
        <time>2019-05-11T13:01:47Z</time>
      </trkpt>
      <trkpt lat="36.7846565246582" lon="-5.09999704360962">
        <ele>780</ele>
        <time>2019-05-11T13:01:49Z</time>
      </trkpt>
      <trkpt lat="36.7846832275391" lon="-5.09998512268066">
        <ele>780</ele>
        <time>2019-05-11T13:01:51Z</time>
      </trkpt>
      <trkpt lat="36.7847137451172" lon="-5.09997177124023">
        <ele>780</ele>
        <time>2019-05-11T13:01:53Z</time>
      </trkpt>
      <trkpt lat="36.7847366333008" lon="-5.09995698928833">
        <ele>780</ele>
        <time>2019-05-11T13:01:55Z</time>
      </trkpt>
      <trkpt lat="36.7847709655762" lon="-5.0999231338501">
        <ele>780</ele>
        <time>2019-05-11T13:01:57Z</time>
      </trkpt>
      <trkpt lat="36.7847938537598" lon="-5.09989786148071">
        <ele>780</ele>
        <time>2019-05-11T13:01:59Z</time>
      </trkpt>
      <trkpt lat="36.7848167419434" lon="-5.09987688064575">
        <ele>780</ele>
        <time>2019-05-11T13:02:01Z</time>
      </trkpt>
      <trkpt lat="36.7848358154297" lon="-5.09985017776489">
        <ele>780</ele>
        <time>2019-05-11T13:02:03Z</time>
      </trkpt>
      <trkpt lat="36.784854888916" lon="-5.09982204437256">
        <ele>780</ele>
        <time>2019-05-11T13:02:05Z</time>
      </trkpt>
      <trkpt lat="36.7848739624023" lon="-5.09979295730591">
        <ele>780</ele>
        <time>2019-05-11T13:02:07Z</time>
      </trkpt>
      <trkpt lat="36.7848968505859" lon="-5.09976720809936">
        <ele>780</ele>
        <time>2019-05-11T13:02:09Z</time>
      </trkpt>
      <trkpt lat="36.7849197387695" lon="-5.09974193572998">
        <ele>780</ele>
        <time>2019-05-11T13:02:11Z</time>
      </trkpt>
      <trkpt lat="36.7849388122559" lon="-5.09971714019775">
        <ele>780</ele>
        <time>2019-05-11T13:02:14Z</time>
      </trkpt>
      <trkpt lat="36.7849655151367" lon="-5.09969711303711">
        <ele>780</ele>
        <time>2019-05-11T13:02:16Z</time>
      </trkpt>
      <trkpt lat="36.7849922180176" lon="-5.09967517852783">
        <ele>780</ele>
        <time>2019-05-11T13:02:18Z</time>
      </trkpt>
      <trkpt lat="36.7850189208984" lon="-5.09965801239014">
        <ele>780</ele>
        <time>2019-05-11T13:02:20Z</time>
      </trkpt>
      <trkpt lat="36.7850456237793" lon="-5.09964323043823">
        <ele>780</ele>
        <time>2019-05-11T13:02:22Z</time>
      </trkpt>
      <trkpt lat="36.7850723266602" lon="-5.09962797164917">
        <ele>780</ele>
        <time>2019-05-11T13:02:24Z</time>
      </trkpt>
      <trkpt lat="36.7851028442383" lon="-5.09961700439453">
        <ele>780</ele>
        <time>2019-05-11T13:02:26Z</time>
      </trkpt>
      <trkpt lat="36.7851295471191" lon="-5.09960699081421">
        <ele>780</ele>
        <time>2019-05-11T13:02:28Z</time>
      </trkpt>
      <trkpt lat="36.7851600646973" lon="-5.0995979309082">
        <ele>780</ele>
        <time>2019-05-11T13:02:30Z</time>
      </trkpt>
      <trkpt lat="36.7852058410644" lon="-5.09958696365356">
        <ele>780</ele>
        <time>2019-05-11T13:02:32Z</time>
      </trkpt>
      <trkpt lat="36.7852363586426" lon="-5.09957790374756">
        <ele>780</ele>
        <time>2019-05-11T13:02:34Z</time>
      </trkpt>
      <trkpt lat="36.785270690918" lon="-5.09957218170166">
        <ele>780</ele>
        <time>2019-05-11T13:02:36Z</time>
      </trkpt>
      <trkpt lat="36.7853012084961" lon="-5.09955787658691">
        <ele>780</ele>
        <time>2019-05-11T13:02:38Z</time>
      </trkpt>
      <trkpt lat="36.7853355407715" lon="-5.09954786300659">
        <ele>780</ele>
        <time>2019-05-11T13:02:40Z</time>
      </trkpt>
      <trkpt lat="36.7853660583496" lon="-5.09953498840332">
        <ele>780</ele>
        <time>2019-05-11T13:02:42Z</time>
      </trkpt>
      <trkpt lat="36.7853965759277" lon="-5.09952211380005">
        <ele>780</ele>
        <time>2019-05-11T13:02:44Z</time>
      </trkpt>
      <trkpt lat="36.7854270935059" lon="-5.09950494766235">
        <ele>780</ele>
        <time>2019-05-11T13:02:46Z</time>
      </trkpt>
      <trkpt lat="36.7854537963867" lon="-5.0994930267334">
        <ele>780</ele>
        <time>2019-05-11T13:02:49Z</time>
      </trkpt>
      <trkpt lat="36.7854843139648" lon="-5.09947681427002">
        <ele>780</ele>
        <time>2019-05-11T13:02:51Z</time>
      </trkpt>
      <trkpt lat="36.7855110168457" lon="-5.09946012496948">
        <ele>780</ele>
        <time>2019-05-11T13:02:53Z</time>
      </trkpt>
      <trkpt lat="36.7855377197266" lon="-5.09944295883179">
        <ele>780</ele>
        <time>2019-05-11T13:02:55Z</time>
      </trkpt>
      <trkpt lat="36.7855644226074" lon="-5.09942722320557">
        <ele>780</ele>
        <time>2019-05-11T13:02:57Z</time>
      </trkpt>
      <trkpt lat="36.7855911254883" lon="-5.09941005706787">
        <ele>780</ele>
        <time>2019-05-11T13:02:59Z</time>
      </trkpt>
      <trkpt lat="36.7856178283691" lon="-5.0993971824646">
        <ele>780</ele>
        <time>2019-05-11T13:03:01Z</time>
      </trkpt>
      <trkpt lat="36.78564453125" lon="-5.09938478469849">
        <ele>780</ele>
        <time>2019-05-11T13:03:03Z</time>
      </trkpt>
      <trkpt lat="36.7856712341309" lon="-5.09937191009522">
        <ele>780</ele>
        <time>2019-05-11T13:03:05Z</time>
      </trkpt>
      <trkpt lat="36.7857131958008" lon="-5.0993480682373">
        <ele>780</ele>
        <time>2019-05-11T13:03:07Z</time>
      </trkpt>
      <trkpt lat="36.7857437133789" lon="-5.09932994842529">
        <ele>780</ele>
        <time>2019-05-11T13:03:09Z</time>
      </trkpt>
      <trkpt lat="36.7857818603516" lon="-5.09931182861328">
        <ele>780</ele>
        <time>2019-05-11T13:03:11Z</time>
      </trkpt>
      <trkpt lat="36.7858238220215" lon="-5.09929180145264">
        <ele>780</ele>
        <time>2019-05-11T13:03:13Z</time>
      </trkpt>
      <trkpt lat="36.7858657836914" lon="-5.09928321838379">
        <ele>780</ele>
        <time>2019-05-11T13:03:15Z</time>
      </trkpt>
      <trkpt lat="36.7859039306641" lon="-5.09927320480347">
        <ele>780</ele>
        <time>2019-05-11T13:03:17Z</time>
      </trkpt>
      <trkpt lat="36.785945892334" lon="-5.09925985336304">
        <ele>780</ele>
        <time>2019-05-11T13:03:19Z</time>
      </trkpt>
      <trkpt lat="36.7859954833984" lon="-5.09924983978272">
        <ele>780</ele>
        <time>2019-05-11T13:03:21Z</time>
      </trkpt>
      <trkpt lat="36.7860412597656" lon="-5.09924793243408">
        <ele>779</ele>
        <time>2019-05-11T13:03:24Z</time>
      </trkpt>
      <trkpt lat="36.7860832214356" lon="-5.0992431640625">
        <ele>778</ele>
        <time>2019-05-11T13:03:26Z</time>
      </trkpt>
      <trkpt lat="36.7861213684082" lon="-5.09924507141113">
        <ele>777</ele>
        <time>2019-05-11T13:03:28Z</time>
      </trkpt>
      <trkpt lat="36.7861633300781" lon="-5.09924221038818">
        <ele>776</ele>
        <time>2019-05-11T13:03:30Z</time>
      </trkpt>
      <trkpt lat="36.7862014770508" lon="-5.09923219680786">
        <ele>776</ele>
        <time>2019-05-11T13:03:32Z</time>
      </trkpt>
      <trkpt lat="36.7862358093262" lon="-5.0992169380188">
        <ele>776</ele>
        <time>2019-05-11T13:03:34Z</time>
      </trkpt>
      <trkpt lat="36.7862777709961" lon="-5.09920501708984">
        <ele>775</ele>
        <time>2019-05-11T13:03:36Z</time>
      </trkpt>
      <trkpt lat="36.7863159179688" lon="-5.09919214248657">
        <ele>775</ele>
        <time>2019-05-11T13:03:38Z</time>
      </trkpt>
      <trkpt lat="36.7863616943359" lon="-5.09918022155762">
        <ele>774</ele>
        <time>2019-05-11T13:03:40Z</time>
      </trkpt>
      <trkpt lat="36.7864036560059" lon="-5.09917497634888">
        <ele>774</ele>
        <time>2019-05-11T13:03:42Z</time>
      </trkpt>
      <trkpt lat="36.7864685058594" lon="-5.09916687011719">
        <ele>773</ele>
        <time>2019-05-11T13:03:44Z</time>
      </trkpt>
      <trkpt lat="36.786506652832" lon="-5.09915685653686">
        <ele>773</ele>
        <time>2019-05-11T13:03:46Z</time>
      </trkpt>
      <trkpt lat="36.786548614502" lon="-5.09915494918823">
        <ele>772</ele>
        <time>2019-05-11T13:03:48Z</time>
      </trkpt>
      <trkpt lat="36.7865867614746" lon="-5.09915494918823">
        <ele>771</ele>
        <time>2019-05-11T13:03:50Z</time>
      </trkpt>
      <trkpt lat="36.7866363525391" lon="-5.0991530418396">
        <ele>771</ele>
        <time>2019-05-11T13:03:52Z</time>
      </trkpt>
      <trkpt lat="36.7866744995117" lon="-5.09916019439697">
        <ele>770</ele>
        <time>2019-05-11T13:03:54Z</time>
      </trkpt>
      <trkpt lat="36.7867126464844" lon="-5.09915685653686">
        <ele>770</ele>
        <time>2019-05-11T13:03:56Z</time>
      </trkpt>
      <trkpt lat="36.7867469787598" lon="-5.09914493560791">
        <ele>770</ele>
        <time>2019-05-11T13:03:58Z</time>
      </trkpt>
      <trkpt lat="36.7867660522461" lon="-5.09911823272705">
        <ele>770</ele>
        <time>2019-05-11T13:04:01Z</time>
      </trkpt>
      <trkpt lat="36.7867813110352" lon="-5.09909009933472">
        <ele>770</ele>
        <time>2019-05-11T13:04:03Z</time>
      </trkpt>
      <trkpt lat="36.7868041992188" lon="-5.09906196594238">
        <ele>770</ele>
        <time>2019-05-11T13:04:05Z</time>
      </trkpt>
      <trkpt lat="36.7868347167969" lon="-5.09904003143311">
        <ele>769</ele>
        <time>2019-05-11T13:04:07Z</time>
      </trkpt>
      <trkpt lat="36.7868690490723" lon="-5.09901285171509">
        <ele>769</ele>
        <time>2019-05-11T13:04:09Z</time>
      </trkpt>
      <trkpt lat="36.7868919372559" lon="-5.09896993637085">
        <ele>768</ele>
        <time>2019-05-11T13:04:11Z</time>
      </trkpt>
      <trkpt lat="36.7869186401367" lon="-5.09893321990967">
        <ele>766</ele>
        <time>2019-05-11T13:04:13Z</time>
      </trkpt>
      <trkpt lat="36.786937713623" lon="-5.09890508651733">
        <ele>766</ele>
        <time>2019-05-11T13:04:15Z</time>
      </trkpt>
      <trkpt lat="36.7869644165039" lon="-5.09887218475342">
        <ele>765</ele>
        <time>2019-05-11T13:04:17Z</time>
      </trkpt>
      <trkpt lat="36.7870063781738" lon="-5.09883499145508">
        <ele>763</ele>
        <time>2019-05-11T13:04:19Z</time>
      </trkpt>
      <trkpt lat="36.7870445251465" lon="-5.09881019592285">
        <ele>761</ele>
        <time>2019-05-11T13:04:21Z</time>
      </trkpt>
      <trkpt lat="36.7870750427246" lon="-5.09879302978516">
        <ele>760</ele>
        <time>2019-05-11T13:04:23Z</time>
      </trkpt>
      <trkpt lat="36.7871170043945" lon="-5.09878778457642">
        <ele>759</ele>
        <time>2019-05-11T13:04:25Z</time>
      </trkpt>
      <trkpt lat="36.7871627807617" lon="-5.09879779815674">
        <ele>758</ele>
        <time>2019-05-11T13:04:27Z</time>
      </trkpt>
      <trkpt lat="36.7871971130371" lon="-5.09881496429443">
        <ele>758</ele>
        <time>2019-05-11T13:04:29Z</time>
      </trkpt>
      <trkpt lat="36.7872352600098" lon="-5.09883308410644">
        <ele>758</ele>
        <time>2019-05-11T13:04:31Z</time>
      </trkpt>
      <trkpt lat="36.7872734069824" lon="-5.09885501861572">
        <ele>757</ele>
        <time>2019-05-11T13:04:33Z</time>
      </trkpt>
      <trkpt lat="36.7872886657715" lon="-5.098876953125">
        <ele>756</ele>
        <time>2019-05-11T13:04:36Z</time>
      </trkpt>
      <trkpt lat="36.7873077392578" lon="-5.09889507293701">
        <ele>756</ele>
        <time>2019-05-11T13:04:38Z</time>
      </trkpt>
      <trkpt lat="36.7873268127441" lon="-5.09891986846924">
        <ele>755</ele>
        <time>2019-05-11T13:04:40Z</time>
      </trkpt>
      <trkpt lat="36.7873458862305" lon="-5.09895801544189">
        <ele>754</ele>
        <time>2019-05-11T13:04:42Z</time>
      </trkpt>
      <trkpt lat="36.7873725891113" lon="-5.09899187088013">
        <ele>753</ele>
        <time>2019-05-11T13:04:44Z</time>
      </trkpt>
      <trkpt lat="36.7874031066894" lon="-5.09902477264404">
        <ele>752</ele>
        <time>2019-05-11T13:04:46Z</time>
      </trkpt>
      <trkpt lat="36.7874336242676" lon="-5.09905004501343">
        <ele>751</ele>
        <time>2019-05-11T13:04:48Z</time>
      </trkpt>
      <trkpt lat="36.7874641418457" lon="-5.09908199310303">
        <ele>751</ele>
        <time>2019-05-11T13:04:50Z</time>
      </trkpt>
      <trkpt lat="36.7874984741211" lon="-5.09911203384399">
        <ele>750</ele>
        <time>2019-05-11T13:04:52Z</time>
      </trkpt>
      <trkpt lat="36.7875213623047" lon="-5.0991268157959">
        <ele>749</ele>
        <time>2019-05-11T13:04:54Z</time>
      </trkpt>
      <trkpt lat="36.7875518798828" lon="-5.09915018081665">
        <ele>749</ele>
        <time>2019-05-11T13:04:56Z</time>
      </trkpt>
      <trkpt lat="36.7875709533691" lon="-5.09916496276856">
        <ele>749</ele>
        <time>2019-05-11T13:04:58Z</time>
      </trkpt>
      <trkpt lat="36.7875900268555" lon="-5.09918022155762">
        <ele>749</ele>
        <time>2019-05-11T13:05:00Z</time>
      </trkpt>
      <trkpt lat="36.7876129150391" lon="-5.09918689727783">
        <ele>749</ele>
        <time>2019-05-11T13:05:02Z</time>
      </trkpt>
      <trkpt lat="36.7876281738281" lon="-5.09918785095215">
        <ele>749</ele>
        <time>2019-05-11T13:05:04Z</time>
      </trkpt>
      <trkpt lat="36.7876472473144" lon="-5.09918785095215">
        <ele>749</ele>
        <time>2019-05-11T13:05:06Z</time>
      </trkpt>
      <trkpt lat="36.7876625061035" lon="-5.09919309616089">
        <ele>749</ele>
        <time>2019-05-11T13:05:08Z</time>
      </trkpt>
      <trkpt lat="36.7876815795898" lon="-5.09919691085815">
        <ele>749</ele>
        <time>2019-05-11T13:05:10Z</time>
      </trkpt>
      <trkpt lat="36.7876930236816" lon="-5.0991997718811">
        <ele>749</ele>
        <time>2019-05-11T13:05:13Z</time>
      </trkpt>
      <trkpt lat="36.7877082824707" lon="-5.09920215606689">
        <ele>749</ele>
        <time>2019-05-11T13:05:15Z</time>
      </trkpt>
      <trkpt lat="36.7877235412598" lon="-5.09920787811279">
        <ele>749</ele>
        <time>2019-05-11T13:05:17Z</time>
      </trkpt>
      <trkpt lat="36.7877349853516" lon="-5.09921216964722">
        <ele>750</ele>
        <time>2019-05-11T13:05:19Z</time>
      </trkpt>
      <trkpt lat="36.7877464294434" lon="-5.0992169380188">
        <ele>751</ele>
        <time>2019-05-11T13:05:21Z</time>
      </trkpt>
      <trkpt lat="36.7877540588379" lon="-5.09922313690186">
        <ele>753</ele>
        <time>2019-05-11T13:05:23Z</time>
      </trkpt>
      <trkpt lat="36.7877616882324" lon="-5.09922790527344">
        <ele>754</ele>
        <time>2019-05-11T13:05:25Z</time>
      </trkpt>
      <trkpt lat="36.7877731323242" lon="-5.09923505783081">
        <ele>756</ele>
        <time>2019-05-11T13:05:27Z</time>
      </trkpt>
      <trkpt lat="36.7877883911133" lon="-5.09923791885376">
        <ele>757</ele>
        <time>2019-05-11T13:05:29Z</time>
      </trkpt>
      <trkpt lat="36.7878036499023" lon="-5.09923791885376">
        <ele>759</ele>
        <time>2019-05-11T13:05:31Z</time>
      </trkpt>
      <trkpt lat="36.7878112792969" lon="-5.09923791885376">
        <ele>760</ele>
        <time>2019-05-11T13:05:33Z</time>
      </trkpt>
      <trkpt lat="36.7878265380859" lon="-5.09923219680786">
        <ele>761</ele>
        <time>2019-05-11T13:05:35Z</time>
      </trkpt>
      <trkpt lat="36.787841796875" lon="-5.09922504425049">
        <ele>761</ele>
        <time>2019-05-11T13:05:37Z</time>
      </trkpt>
      <trkpt lat="36.7878532409668" lon="-5.0992169380188">
        <ele>762</ele>
        <time>2019-05-11T13:05:39Z</time>
      </trkpt>
      <trkpt lat="36.7878684997559" lon="-5.09920692443848">
        <ele>762</ele>
        <time>2019-05-11T13:05:41Z</time>
      </trkpt>
      <trkpt lat="36.7878761291504" lon="-5.09919691085815">
        <ele>762</ele>
        <time>2019-05-11T13:05:43Z</time>
      </trkpt>
      <trkpt lat="36.7878913879394" lon="-5.09918689727783">
        <ele>762</ele>
        <time>2019-05-11T13:05:46Z</time>
      </trkpt>
      <trkpt lat="36.7879066467285" lon="-5.09917688369751">
        <ele>762</ele>
        <time>2019-05-11T13:05:48Z</time>
      </trkpt>
      <trkpt lat="36.7879219055176" lon="-5.09916496276856">
        <ele>762</ele>
        <time>2019-05-11T13:05:50Z</time>
      </trkpt>
      <trkpt lat="36.7879333496094" lon="-5.09915685653686">
        <ele>762</ele>
        <time>2019-05-11T13:05:52Z</time>
      </trkpt>
      <trkpt lat="36.7879486083984" lon="-5.09915018081665">
        <ele>762</ele>
        <time>2019-05-11T13:05:54Z</time>
      </trkpt>
      <trkpt lat="36.7879638671875" lon="-5.09914207458496">
        <ele>762</ele>
        <time>2019-05-11T13:05:56Z</time>
      </trkpt>
      <trkpt lat="36.787971496582" lon="-5.09913492202759">
        <ele>762</ele>
        <time>2019-05-11T13:05:58Z</time>
      </trkpt>
      <trkpt lat="36.7879905700684" lon="-5.09912490844727">
        <ele>762</ele>
        <time>2019-05-11T13:06:00Z</time>
      </trkpt>
      <trkpt lat="36.7880020141602" lon="-5.09911680221558">
        <ele>762</ele>
        <time>2019-05-11T13:06:02Z</time>
      </trkpt>
      <trkpt lat="36.788013458252" lon="-5.09911012649536">
        <ele>763</ele>
        <time>2019-05-11T13:06:04Z</time>
      </trkpt>
      <trkpt lat="36.7880325317383" lon="-5.09909677505493">
        <ele>763</ele>
        <time>2019-05-11T13:06:06Z</time>
      </trkpt>
      <trkpt lat="36.7880439758301" lon="-5.09908819198608">
        <ele>763</ele>
        <time>2019-05-11T13:06:08Z</time>
      </trkpt>
      <trkpt lat="36.7880554199219" lon="-5.09908199310303">
        <ele>764</ele>
        <time>2019-05-11T13:06:10Z</time>
      </trkpt>
      <trkpt lat="36.7880668640137" lon="-5.09907817840576">
        <ele>764</ele>
        <time>2019-05-11T13:06:12Z</time>
      </trkpt>
      <trkpt lat="36.7880744934082" lon="-5.09906816482544">
        <ele>764</ele>
        <time>2019-05-11T13:06:14Z</time>
      </trkpt>
      <trkpt lat="36.7880859375" lon="-5.09906005859375">
        <ele>764</ele>
        <time>2019-05-11T13:06:16Z</time>
      </trkpt>
      <trkpt lat="36.7880973815918" lon="-5.09905290603638">
        <ele>765</ele>
        <time>2019-05-11T13:06:18Z</time>
      </trkpt>
      <trkpt lat="36.7881088256836" lon="-5.09904718399048">
        <ele>765</ele>
        <time>2019-05-11T13:06:20Z</time>
      </trkpt>
      <trkpt lat="36.7881164550781" lon="-5.09904003143311">
        <ele>766</ele>
        <time>2019-05-11T13:06:23Z</time>
      </trkpt>
      <trkpt lat="36.7881278991699" lon="-5.09903192520142">
        <ele>766</ele>
        <time>2019-05-11T13:06:25Z</time>
      </trkpt>
      <trkpt lat="36.7881393432617" lon="-5.09902477264404">
        <ele>767</ele>
        <time>2019-05-11T13:06:27Z</time>
      </trkpt>
      <trkpt lat="36.7881546020508" lon="-5.09901809692383">
        <ele>767</ele>
        <time>2019-05-11T13:06:29Z</time>
      </trkpt>
      <trkpt lat="36.7881660461426" lon="-5.09900999069214">
        <ele>768</ele>
        <time>2019-05-11T13:06:31Z</time>
      </trkpt>
      <trkpt lat="36.7881774902344" lon="-5.09900283813477">
        <ele>768</ele>
        <time>2019-05-11T13:06:33Z</time>
      </trkpt>
      <trkpt lat="36.7881927490234" lon="-5.09899187088013">
        <ele>768</ele>
        <time>2019-05-11T13:06:35Z</time>
      </trkpt>
      <trkpt lat="36.7882080078125" lon="-5.0989818572998">
        <ele>769</ele>
        <time>2019-05-11T13:06:37Z</time>
      </trkpt>
      <trkpt lat="36.7882232666016" lon="-5.09897184371948">
        <ele>769</ele>
        <time>2019-05-11T13:06:39Z</time>
      </trkpt>
      <trkpt lat="36.7882347106934" lon="-5.09896183013916">
        <ele>769</ele>
        <time>2019-05-11T13:06:41Z</time>
      </trkpt>
      <trkpt lat="36.7882537841797" lon="-5.09895181655884">
        <ele>769</ele>
        <time>2019-05-11T13:06:43Z</time>
      </trkpt>
      <trkpt lat="36.7882766723633" lon="-5.09893703460693">
        <ele>770</ele>
        <time>2019-05-11T13:06:45Z</time>
      </trkpt>
      <trkpt lat="36.7882881164551" lon="-5.09892702102661">
        <ele>770</ele>
        <time>2019-05-11T13:06:47Z</time>
      </trkpt>
      <trkpt lat="36.7883110046387" lon="-5.09891510009766">
        <ele>771</ele>
        <time>2019-05-11T13:06:49Z</time>
      </trkpt>
      <trkpt lat="36.7883262634277" lon="-5.0989031791687">
        <ele>771</ele>
        <time>2019-05-11T13:06:51Z</time>
      </trkpt>
      <trkpt lat="36.7883453369141" lon="-5.09889316558838">
        <ele>771</ele>
        <time>2019-05-11T13:06:53Z</time>
      </trkpt>
      <trkpt lat="36.7883644104004" lon="-5.09888315200806">
        <ele>771</ele>
        <time>2019-05-11T13:06:55Z</time>
      </trkpt>
      <trkpt lat="36.7883796691894" lon="-5.09887504577637">
        <ele>771</ele>
        <time>2019-05-11T13:06:57Z</time>
      </trkpt>
      <trkpt lat="36.7883987426758" lon="-5.0988621711731">
        <ele>771</ele>
        <time>2019-05-11T13:07:00Z</time>
      </trkpt>
      <trkpt lat="36.7884140014648" lon="-5.09884691238403">
        <ele>771</ele>
        <time>2019-05-11T13:07:02Z</time>
      </trkpt>
      <trkpt lat="36.7884292602539" lon="-5.09883213043213">
        <ele>771</ele>
        <time>2019-05-11T13:07:04Z</time>
      </trkpt>
      <trkpt lat="36.7884483337402" lon="-5.0988130569458">
        <ele>771</ele>
        <time>2019-05-11T13:07:06Z</time>
      </trkpt>
      <trkpt lat="36.7884635925293" lon="-5.09879493713379">
        <ele>771</ele>
        <time>2019-05-11T13:07:08Z</time>
      </trkpt>
      <trkpt lat="36.7884788513184" lon="-5.0987720489502">
        <ele>771</ele>
        <time>2019-05-11T13:07:10Z</time>
      </trkpt>
      <trkpt lat="36.7884979248047" lon="-5.09875011444092">
        <ele>771</ele>
        <time>2019-05-11T13:07:12Z</time>
      </trkpt>
      <trkpt lat="36.7885131835938" lon="-5.09873199462891">
        <ele>771</ele>
        <time>2019-05-11T13:07:14Z</time>
      </trkpt>
      <trkpt lat="36.7885322570801" lon="-5.09871292114258">
        <ele>772</ele>
        <time>2019-05-11T13:07:16Z</time>
      </trkpt>
      <trkpt lat="36.7885551452637" lon="-5.09870004653931">
        <ele>772</ele>
        <time>2019-05-11T13:07:18Z</time>
      </trkpt>
      <trkpt lat="36.7885932922363" lon="-5.09869003295898">
        <ele>772</ele>
        <time>2019-05-11T13:07:20Z</time>
      </trkpt>
      <trkpt lat="36.7886123657227" lon="-5.09869480133057">
        <ele>772</ele>
        <time>2019-05-11T13:07:22Z</time>
      </trkpt>
      <trkpt lat="36.7886390686035" lon="-5.09870004653931">
        <ele>772</ele>
        <time>2019-05-11T13:07:24Z</time>
      </trkpt>
      <trkpt lat="36.7886619567871" lon="-5.09870481491089">
        <ele>772</ele>
        <time>2019-05-11T13:07:26Z</time>
      </trkpt>
      <trkpt lat="36.788688659668" lon="-5.09871006011963">
        <ele>773</ele>
        <time>2019-05-11T13:07:28Z</time>
      </trkpt>
      <trkpt lat="36.7887153625488" lon="-5.09871292114258">
        <ele>773</ele>
        <time>2019-05-11T13:07:30Z</time>
      </trkpt>
      <trkpt lat="36.7887382507324" lon="-5.09871196746826">
        <ele>773</ele>
        <time>2019-05-11T13:07:32Z</time>
      </trkpt>
      <trkpt lat="36.7887649536133" lon="-5.09870719909668">
        <ele>773</ele>
        <time>2019-05-11T13:07:35Z</time>
      </trkpt>
      <trkpt lat="36.7887878417969" lon="-5.09870195388794">
        <ele>774</ele>
        <time>2019-05-11T13:07:37Z</time>
      </trkpt>
      <trkpt lat="36.7888145446777" lon="-5.09869813919067">
        <ele>774</ele>
        <time>2019-05-11T13:07:39Z</time>
      </trkpt>
      <trkpt lat="36.7888374328613" lon="-5.09869480133057">
        <ele>774</ele>
        <time>2019-05-11T13:07:41Z</time>
      </trkpt>
      <trkpt lat="36.7888603210449" lon="-5.09869003295898">
        <ele>774</ele>
        <time>2019-05-11T13:07:43Z</time>
      </trkpt>
      <trkpt lat="36.7888832092285" lon="-5.09868812561035">
        <ele>774</ele>
        <time>2019-05-11T13:07:45Z</time>
      </trkpt>
      <trkpt lat="36.7889060974121" lon="-5.09868717193604">
        <ele>775</ele>
        <time>2019-05-11T13:07:47Z</time>
      </trkpt>
      <trkpt lat="36.788932800293" lon="-5.09868288040161">
        <ele>775</ele>
        <time>2019-05-11T13:07:49Z</time>
      </trkpt>
      <trkpt lat="36.7889556884766" lon="-5.09868288040161">
        <ele>775</ele>
        <time>2019-05-11T13:07:51Z</time>
      </trkpt>
      <trkpt lat="36.7889785766602" lon="-5.09868717193604">
        <ele>775</ele>
        <time>2019-05-11T13:07:53Z</time>
      </trkpt>
      <trkpt lat="36.7890129089356" lon="-5.09869003295898">
        <ele>775</ele>
        <time>2019-05-11T13:07:55Z</time>
      </trkpt>
      <trkpt lat="36.7890357971191" lon="-5.09869194030762">
        <ele>776</ele>
        <time>2019-05-11T13:07:57Z</time>
      </trkpt>
      <trkpt lat="36.7890586853027" lon="-5.09869003295898">
        <ele>776</ele>
        <time>2019-05-11T13:07:59Z</time>
      </trkpt>
      <trkpt lat="36.7890777587891" lon="-5.09868001937866">
        <ele>776</ele>
        <time>2019-05-11T13:08:01Z</time>
      </trkpt>
      <trkpt lat="36.7890930175781" lon="-5.09865999221802">
        <ele>776</ele>
        <time>2019-05-11T13:08:03Z</time>
      </trkpt>
      <trkpt lat="36.7891044616699" lon="-5.09863519668579">
        <ele>777</ele>
        <time>2019-05-11T13:08:05Z</time>
      </trkpt>
      <trkpt lat="36.7891082763672" lon="-5.09860515594482">
        <ele>777</ele>
        <time>2019-05-11T13:08:07Z</time>
      </trkpt>
      <trkpt lat="36.7891159057617" lon="-5.09857797622681">
        <ele>777</ele>
        <time>2019-05-11T13:08:09Z</time>
      </trkpt>
      <trkpt lat="36.789119720459" lon="-5.09854793548584">
        <ele>777</ele>
        <time>2019-05-11T13:08:12Z</time>
      </trkpt>
      <trkpt lat="36.789119720459" lon="-5.09851980209351">
        <ele>777</ele>
        <time>2019-05-11T13:08:14Z</time>
      </trkpt>
      <trkpt lat="36.7891159057617" lon="-5.09848785400391">
        <ele>777</ele>
        <time>2019-05-11T13:08:16Z</time>
      </trkpt>
      <trkpt lat="36.7891082763672" lon="-5.09845781326294">
        <ele>777</ele>
        <time>2019-05-11T13:08:18Z</time>
      </trkpt>
      <trkpt lat="36.7891044616699" lon="-5.09842681884766">
        <ele>778</ele>
        <time>2019-05-11T13:08:20Z</time>
      </trkpt>
      <trkpt lat="36.7891006469727" lon="-5.09839677810669">
        <ele>778</ele>
        <time>2019-05-11T13:08:22Z</time>
      </trkpt>
      <trkpt lat="36.7890968322754" lon="-5.09837007522583">
        <ele>778</ele>
        <time>2019-05-11T13:08:24Z</time>
      </trkpt>
      <trkpt lat="36.7890892028809" lon="-5.09834480285644">
        <ele>779</ele>
        <time>2019-05-11T13:08:26Z</time>
      </trkpt>
      <trkpt lat="36.7890815734863" lon="-5.09831809997559">
        <ele>779</ele>
        <time>2019-05-11T13:08:28Z</time>
      </trkpt>
      <trkpt lat="36.7890701293945" lon="-5.09828996658325">
        <ele>779</ele>
        <time>2019-05-11T13:08:30Z</time>
      </trkpt>
      <trkpt lat="36.7890586853027" lon="-5.09826183319092">
        <ele>779</ele>
        <time>2019-05-11T13:08:32Z</time>
      </trkpt>
      <trkpt lat="36.7890434265137" lon="-5.09822511672974">
        <ele>780</ele>
        <time>2019-05-11T13:08:34Z</time>
      </trkpt>
      <trkpt lat="36.7890281677246" lon="-5.09819984436035">
        <ele>780</ele>
        <time>2019-05-11T13:08:36Z</time>
      </trkpt>
      <trkpt lat="36.7890167236328" lon="-5.09817790985107">
        <ele>780</ele>
        <time>2019-05-11T13:08:38Z</time>
      </trkpt>
      <trkpt lat="36.7890014648438" lon="-5.09815692901611">
        <ele>781</ele>
        <time>2019-05-11T13:08:40Z</time>
      </trkpt>
      <trkpt lat="36.7889862060547" lon="-5.09813213348389">
        <ele>781</ele>
        <time>2019-05-11T13:08:42Z</time>
      </trkpt>
      <trkpt lat="36.7889747619629" lon="-5.0981068611145">
        <ele>781</ele>
        <time>2019-05-11T13:08:44Z</time>
      </trkpt>
      <trkpt lat="36.7889633178711" lon="-5.09807777404785">
        <ele>782</ele>
        <time>2019-05-11T13:08:46Z</time>
      </trkpt>
      <trkpt lat="36.7889518737793" lon="-5.09805202484131">
        <ele>782</ele>
        <time>2019-05-11T13:08:49Z</time>
      </trkpt>
      <trkpt lat="36.7889404296875" lon="-5.09802293777466">
        <ele>782</ele>
        <time>2019-05-11T13:08:51Z</time>
      </trkpt>
      <trkpt lat="36.7889366149902" lon="-5.09798812866211">
        <ele>783</ele>
        <time>2019-05-11T13:08:53Z</time>
      </trkpt>
      <trkpt lat="36.7889366149902" lon="-5.09795999526978">
        <ele>783</ele>
        <time>2019-05-11T13:08:55Z</time>
      </trkpt>
      <trkpt lat="36.7889366149902" lon="-5.09792995452881">
        <ele>783</ele>
        <time>2019-05-11T13:08:57Z</time>
      </trkpt>
      <trkpt lat="36.788948059082" lon="-5.09790277481079">
        <ele>783</ele>
        <time>2019-05-11T13:08:59Z</time>
      </trkpt>
      <trkpt lat="36.7889518737793" lon="-5.09787797927856">
        <ele>783</ele>
        <time>2019-05-11T13:09:01Z</time>
      </trkpt>
      <trkpt lat="36.7889556884766" lon="-5.09785223007202">
        <ele>783</ele>
        <time>2019-05-11T13:09:03Z</time>
      </trkpt>
      <trkpt lat="36.7889518737793" lon="-5.097825050354">
        <ele>783</ele>
        <time>2019-05-11T13:09:05Z</time>
      </trkpt>
      <trkpt lat="36.7889442443848" lon="-5.09780216217041">
        <ele>783</ele>
        <time>2019-05-11T13:09:07Z</time>
      </trkpt>
      <trkpt lat="36.788932800293" lon="-5.09776020050049">
        <ele>783</ele>
        <time>2019-05-11T13:09:09Z</time>
      </trkpt>
      <trkpt lat="36.7889175415039" lon="-5.09773206710815">
        <ele>783</ele>
        <time>2019-05-11T13:09:11Z</time>
      </trkpt>
      <trkpt lat="36.7889022827148" lon="-5.09770679473877">
        <ele>783</ele>
        <time>2019-05-11T13:09:13Z</time>
      </trkpt>
      <trkpt lat="36.7888870239258" lon="-5.09768676757812">
        <ele>783</ele>
        <time>2019-05-11T13:09:15Z</time>
      </trkpt>
      <trkpt lat="36.7888641357422" lon="-5.09767198562622">
        <ele>783</ele>
        <time>2019-05-11T13:09:17Z</time>
      </trkpt>
      <trkpt lat="36.7888488769531" lon="-5.09765481948853">
        <ele>783</ele>
        <time>2019-05-11T13:09:19Z</time>
      </trkpt>
      <trkpt lat="36.7888259887695" lon="-5.09764003753662">
        <ele>783</ele>
        <time>2019-05-11T13:09:21Z</time>
      </trkpt>
      <trkpt lat="36.7888069152832" lon="-5.09762191772461">
        <ele>783</ele>
        <time>2019-05-11T13:09:24Z</time>
      </trkpt>
      <trkpt lat="36.7887916564941" lon="-5.09760284423828">
        <ele>784</ele>
        <time>2019-05-11T13:09:26Z</time>
      </trkpt>
      <trkpt lat="36.7887725830078" lon="-5.09758281707764">
        <ele>784</ele>
        <time>2019-05-11T13:09:28Z</time>
      </trkpt>
      <trkpt lat="36.788761138916" lon="-5.09755992889404">
        <ele>784</ele>
        <time>2019-05-11T13:09:30Z</time>
      </trkpt>
      <trkpt lat="36.7887535095215" lon="-5.09752988815308">
        <ele>785</ele>
        <time>2019-05-11T13:09:32Z</time>
      </trkpt>
      <trkpt lat="36.7887496948242" lon="-5.09749794006348">
        <ele>785</ele>
        <time>2019-05-11T13:09:34Z</time>
      </trkpt>
      <trkpt lat="36.7887420654297" lon="-5.09746789932251">
        <ele>786</ele>
        <time>2019-05-11T13:09:36Z</time>
      </trkpt>
      <trkpt lat="36.7887382507324" lon="-5.09743785858154">
        <ele>786</ele>
        <time>2019-05-11T13:09:38Z</time>
      </trkpt>
      <trkpt lat="36.7887306213379" lon="-5.09740686416626">
        <ele>786</ele>
        <time>2019-05-11T13:09:40Z</time>
      </trkpt>
      <trkpt lat="36.7887229919434" lon="-5.09737682342529">
        <ele>786</ele>
        <time>2019-05-11T13:09:42Z</time>
      </trkpt>
      <trkpt lat="36.7887077331543" lon="-5.09733200073242">
        <ele>787</ele>
        <time>2019-05-11T13:09:44Z</time>
      </trkpt>
      <trkpt lat="36.788703918457" lon="-5.09730195999146">
        <ele>787</ele>
        <time>2019-05-11T13:09:46Z</time>
      </trkpt>
      <trkpt lat="36.7886962890625" lon="-5.09727191925049">
        <ele>787</ele>
        <time>2019-05-11T13:09:48Z</time>
      </trkpt>
      <trkpt lat="36.7886962890625" lon="-5.09723997116089">
        <ele>788</ele>
        <time>2019-05-11T13:09:50Z</time>
      </trkpt>
      <trkpt lat="36.7886962890625" lon="-5.09720802307129">
        <ele>788</ele>
        <time>2019-05-11T13:09:52Z</time>
      </trkpt>
      <trkpt lat="36.7887077331543" lon="-5.09717798233032">
        <ele>788</ele>
        <time>2019-05-11T13:09:54Z</time>
      </trkpt>
      <trkpt lat="36.7887153625488" lon="-5.09714794158936">
        <ele>789</ele>
        <time>2019-05-11T13:09:56Z</time>
      </trkpt>
      <trkpt lat="36.7887268066406" lon="-5.09711980819702">
        <ele>789</ele>
        <time>2019-05-11T13:09:58Z</time>
      </trkpt>
      <trkpt lat="36.788745880127" lon="-5.09709692001343">
        <ele>789</ele>
        <time>2019-05-11T13:10:01Z</time>
      </trkpt>
      <trkpt lat="36.7887687683106" lon="-5.09707307815552">
        <ele>789</ele>
        <time>2019-05-11T13:10:03Z</time>
      </trkpt>
      <trkpt lat="36.7887916564941" lon="-5.09705305099487">
        <ele>789</ele>
        <time>2019-05-11T13:10:05Z</time>
      </trkpt>
      <trkpt lat="36.7888145446777" lon="-5.09703493118286">
        <ele>789</ele>
        <time>2019-05-11T13:10:07Z</time>
      </trkpt>
      <trkpt lat="36.7888374328613" lon="-5.09702014923096">
        <ele>789</ele>
        <time>2019-05-11T13:10:09Z</time>
      </trkpt>
      <trkpt lat="36.7888641357422" lon="-5.09700489044189">
        <ele>789</ele>
        <time>2019-05-11T13:10:11Z</time>
      </trkpt>
      <trkpt lat="36.788890838623" lon="-5.09698820114136">
        <ele>789</ele>
        <time>2019-05-11T13:10:13Z</time>
      </trkpt>
      <trkpt lat="36.7889175415039" lon="-5.09697484970093">
        <ele>789</ele>
        <time>2019-05-11T13:10:15Z</time>
      </trkpt>
      <trkpt lat="36.7889404296875" lon="-5.09696006774902">
        <ele>789</ele>
        <time>2019-05-11T13:10:17Z</time>
      </trkpt>
      <trkpt lat="36.7889671325684" lon="-5.09694719314575">
        <ele>789</ele>
        <time>2019-05-11T13:10:19Z</time>
      </trkpt>
      <trkpt lat="36.7890014648438" lon="-5.09692287445068">
        <ele>789</ele>
        <time>2019-05-11T13:10:21Z</time>
      </trkpt>
      <trkpt lat="36.7890281677246" lon="-5.09690523147583">
        <ele>789</ele>
        <time>2019-05-11T13:10:23Z</time>
      </trkpt>
      <trkpt lat="36.7890510559082" lon="-5.09688520431519">
        <ele>789</ele>
        <time>2019-05-11T13:10:25Z</time>
      </trkpt>
      <trkpt lat="36.7890739440918" lon="-5.09686994552612">
        <ele>789</ele>
        <time>2019-05-11T13:10:27Z</time>
      </trkpt>
      <trkpt lat="36.7890968322754" lon="-5.09685277938843">
        <ele>789</ele>
        <time>2019-05-11T13:10:29Z</time>
      </trkpt>
      <trkpt lat="36.7891235351562" lon="-5.09683179855347">
        <ele>789</ele>
        <time>2019-05-11T13:10:31Z</time>
      </trkpt>
      <trkpt lat="36.7891464233398" lon="-5.09681177139282">
        <ele>789</ele>
        <time>2019-05-11T13:10:33Z</time>
      </trkpt>
      <trkpt lat="36.7891654968262" lon="-5.09679317474365">
        <ele>789</ele>
        <time>2019-05-11T13:10:36Z</time>
      </trkpt>
      <trkpt lat="36.7891883850098" lon="-5.09677314758301">
        <ele>789</ele>
        <time>2019-05-11T13:10:38Z</time>
      </trkpt>
      <trkpt lat="36.7892112731934" lon="-5.09675216674805">
        <ele>789</ele>
        <time>2019-05-11T13:10:40Z</time>
      </trkpt>
      <trkpt lat="36.789234161377" lon="-5.09673023223877">
        <ele>789</ele>
        <time>2019-05-11T13:10:42Z</time>
      </trkpt>
      <trkpt lat="36.7892570495606" lon="-5.09670782089233">
        <ele>789</ele>
        <time>2019-05-11T13:10:44Z</time>
      </trkpt>
      <trkpt lat="36.7892837524414" lon="-5.09668779373169">
        <ele>789</ele>
        <time>2019-05-11T13:10:46Z</time>
      </trkpt>
      <trkpt lat="36.789306640625" lon="-5.09666776657104">
        <ele>789</ele>
        <time>2019-05-11T13:10:48Z</time>
      </trkpt>
      <trkpt lat="36.7893371582031" lon="-5.09665203094482">
        <ele>790</ele>
        <time>2019-05-11T13:10:50Z</time>
      </trkpt>
      <trkpt lat="36.789363861084" lon="-5.09664011001587">
        <ele>790</ele>
        <time>2019-05-11T13:10:52Z</time>
      </trkpt>
      <trkpt lat="36.7893905639648" lon="-5.09662818908691">
        <ele>791</ele>
        <time>2019-05-11T13:10:54Z</time>
      </trkpt>
      <trkpt lat="36.7894287109375" lon="-5.09660720825195">
        <ele>791</ele>
        <time>2019-05-11T13:10:56Z</time>
      </trkpt>
      <trkpt lat="36.7894515991211" lon="-5.09659004211426">
        <ele>791</ele>
        <time>2019-05-11T13:10:58Z</time>
      </trkpt>
      <trkpt lat="36.7894744873047" lon="-5.0965747833252">
        <ele>791</ele>
        <time>2019-05-11T13:11:00Z</time>
      </trkpt>
      <trkpt lat="36.7895011901856" lon="-5.09656715393066">
        <ele>792</ele>
        <time>2019-05-11T13:11:02Z</time>
      </trkpt>
      <trkpt lat="36.7895317077637" lon="-5.09657001495361">
        <ele>792</ele>
        <time>2019-05-11T13:11:04Z</time>
      </trkpt>
      <trkpt lat="36.7895545959473" lon="-5.0965781211853">
        <ele>792</ele>
        <time>2019-05-11T13:11:06Z</time>
      </trkpt>
      <trkpt lat="36.7895736694336" lon="-5.09659194946289">
        <ele>792</ele>
        <time>2019-05-11T13:11:08Z</time>
      </trkpt>
      <trkpt lat="36.7895889282227" lon="-5.09661197662354">
        <ele>792</ele>
        <time>2019-05-11T13:11:10Z</time>
      </trkpt>
      <trkpt lat="36.7896041870117" lon="-5.09663820266724">
        <ele>792</ele>
        <time>2019-05-11T13:11:13Z</time>
      </trkpt>
      <trkpt lat="36.7896156311035" lon="-5.0966649055481">
        <ele>792</ele>
        <time>2019-05-11T13:11:15Z</time>
      </trkpt>
      <trkpt lat="36.789623260498" lon="-5.09669494628906">
        <ele>792</ele>
        <time>2019-05-11T13:11:17Z</time>
      </trkpt>
      <trkpt lat="36.7896385192871" lon="-5.09672212600708">
        <ele>792</ele>
        <time>2019-05-11T13:11:19Z</time>
      </trkpt>
      <trkpt lat="36.7896461486816" lon="-5.09674787521362">
        <ele>792</ele>
        <time>2019-05-11T13:11:21Z</time>
      </trkpt>
      <trkpt lat="36.7896537780762" lon="-5.09677314758301">
        <ele>792</ele>
        <time>2019-05-11T13:11:23Z</time>
      </trkpt>
      <trkpt lat="36.7896614074707" lon="-5.09679222106934">
        <ele>792</ele>
        <time>2019-05-11T13:11:25Z</time>
      </trkpt>
      <trkpt lat="36.7896766662598" lon="-5.09680986404419">
        <ele>792</ele>
        <time>2019-05-11T13:11:27Z</time>
      </trkpt>
      <trkpt lat="36.7896881103516" lon="-5.09683322906494">
        <ele>792</ele>
        <time>2019-05-11T13:11:29Z</time>
      </trkpt>
      <trkpt lat="36.7896995544434" lon="-5.09683990478516">
        <ele>792</ele>
        <time>2019-05-11T13:11:31Z</time>
      </trkpt>
      <trkpt lat="36.7896766662598" lon="-5.09682512283325">
        <ele>793</ele>
        <time>2019-05-11T13:11:33Z</time>
      </trkpt>
      <trkpt lat="36.7896690368652" lon="-5.09681177139282">
        <ele>793</ele>
        <time>2019-05-11T13:11:35Z</time>
      </trkpt>
      <trkpt lat="36.7896690368652" lon="-5.09680509567261">
        <ele>793</ele>
        <time>2019-05-11T13:11:37Z</time>
      </trkpt>
      <trkpt lat="36.7896842956543" lon="-5.09682178497314">
        <ele>793</ele>
        <time>2019-05-11T13:11:39Z</time>
      </trkpt>
      <trkpt lat="36.7897033691406" lon="-5.09683990478516">
        <ele>793</ele>
        <time>2019-05-11T13:11:41Z</time>
      </trkpt>
      <trkpt lat="36.7897262573242" lon="-5.09685707092285">
        <ele>793</ele>
        <time>2019-05-11T13:11:43Z</time>
      </trkpt>
      <trkpt lat="36.7897491455078" lon="-5.09686708450317">
        <ele>793</ele>
        <time>2019-05-11T13:11:45Z</time>
      </trkpt>
      <trkpt lat="36.7897720336914" lon="-5.09687805175781">
        <ele>793</ele>
        <time>2019-05-11T13:11:48Z</time>
      </trkpt>
      <trkpt lat="36.7897987365723" lon="-5.09688520431519">
        <ele>793</ele>
        <time>2019-05-11T13:11:50Z</time>
      </trkpt>
      <trkpt lat="36.7898216247559" lon="-5.09688806533814">
        <ele>793</ele>
        <time>2019-05-11T13:11:52Z</time>
      </trkpt>
      <trkpt lat="36.7898406982422" lon="-5.09689998626709">
        <ele>793</ele>
        <time>2019-05-11T13:11:54Z</time>
      </trkpt>
      <trkpt lat="36.7898597717285" lon="-5.0969181060791">
        <ele>793</ele>
        <time>2019-05-11T13:11:56Z</time>
      </trkpt>
      <trkpt lat="36.7898750305176" lon="-5.09693479537964">
        <ele>793</ele>
        <time>2019-05-11T13:11:58Z</time>
      </trkpt>
      <trkpt lat="36.7898864746094" lon="-5.09695291519165">
        <ele>793</ele>
        <time>2019-05-11T13:12:00Z</time>
      </trkpt>
      <trkpt lat="36.7898902893066" lon="-5.09695816040039">
        <ele>793</ele>
        <time>2019-05-11T13:12:02Z</time>
      </trkpt>
      <trkpt lat="36.7898902893066" lon="-5.09696006774902">
        <ele>793</ele>
        <time>2019-05-11T13:12:04Z</time>
      </trkpt>
      <trkpt lat="36.7898941040039" lon="-5.09696817398071">
        <ele>793</ele>
        <time>2019-05-11T13:12:06Z</time>
      </trkpt>
      <trkpt lat="36.7898979187012" lon="-5.09698009490967">
        <ele>793</ele>
        <time>2019-05-11T13:12:08Z</time>
      </trkpt>
      <trkpt lat="36.7899055480957" lon="-5.09698677062988">
        <ele>793</ele>
        <time>2019-05-11T13:12:10Z</time>
      </trkpt>
      <trkpt lat="36.789909362793" lon="-5.09698677062988">
        <ele>793</ele>
        <time>2019-05-11T13:12:12Z</time>
      </trkpt>
      <trkpt lat="36.7899055480957" lon="-5.09698677062988">
        <ele>793</ele>
        <time>2019-05-11T13:12:14Z</time>
      </trkpt>
      <trkpt lat="36.7899208068848" lon="-5.09699010848999">
        <ele>793</ele>
        <time>2019-05-11T13:12:16Z</time>
      </trkpt>
      <trkpt lat="36.7899322509766" lon="-5.09699821472168">
        <ele>793</ele>
        <time>2019-05-11T13:12:18Z</time>
      </trkpt>
      <trkpt lat="36.7899360656738" lon="-5.09700012207031">
        <ele>793</ele>
        <time>2019-05-11T13:12:20Z</time>
      </trkpt>
      <trkpt lat="36.7899360656738" lon="-5.09699201583862">
        <ele>792</ele>
        <time>2019-05-11T13:12:23Z</time>
      </trkpt>
      <trkpt lat="36.789924621582" lon="-5.09698677062988">
        <ele>791</ele>
        <time>2019-05-11T13:12:25Z</time>
      </trkpt>
      <trkpt lat="36.7899208068848" lon="-5.09697818756104">
        <ele>791</ele>
        <time>2019-05-11T13:12:27Z</time>
      </trkpt>
      <trkpt lat="36.7899208068848" lon="-5.09698295593262">
        <ele>791</ele>
        <time>2019-05-11T13:12:29Z</time>
      </trkpt>
      <trkpt lat="36.789924621582" lon="-5.09699201583862">
        <ele>791</ele>
        <time>2019-05-11T13:12:31Z</time>
      </trkpt>
      <trkpt lat="36.7899322509766" lon="-5.09700012207031">
        <ele>791</ele>
        <time>2019-05-11T13:12:33Z</time>
      </trkpt>
      <trkpt lat="36.7899360656738" lon="-5.09700298309326">
        <ele>791</ele>
        <time>2019-05-11T13:12:35Z</time>
      </trkpt>
      <trkpt lat="36.7899436950684" lon="-5.09701013565064">
        <ele>791</ele>
        <time>2019-05-11T13:12:37Z</time>
      </trkpt>
      <trkpt lat="36.7899398803711" lon="-5.09701299667358">
        <ele>791</ele>
        <time>2019-05-11T13:12:39Z</time>
      </trkpt>
      <trkpt lat="36.7899398803711" lon="-5.09702014923096">
        <ele>791</ele>
        <time>2019-05-11T13:12:41Z</time>
      </trkpt>
      <trkpt lat="36.7899436950684" lon="-5.09703302383423">
        <ele>791</ele>
        <time>2019-05-11T13:12:43Z</time>
      </trkpt>
      <trkpt lat="36.7899551391602" lon="-5.09703683853149">
        <ele>791</ele>
        <time>2019-05-11T13:12:45Z</time>
      </trkpt>
      <trkpt lat="36.7899513244629" lon="-5.09703779220581">
        <ele>791</ele>
        <time>2019-05-11T13:12:47Z</time>
      </trkpt>
      <trkpt lat="36.7899513244629" lon="-5.09703493118286">
        <ele>791</ele>
        <time>2019-05-11T13:12:49Z</time>
      </trkpt>
      <trkpt lat="36.7899589538574" lon="-5.09703207015991">
        <ele>791</ele>
        <time>2019-05-11T13:12:51Z</time>
      </trkpt>
      <trkpt lat="36.7899627685547" lon="-5.09702777862549">
        <ele>791</ele>
        <time>2019-05-11T13:12:53Z</time>
      </trkpt>
      <trkpt lat="36.7899627685547" lon="-5.09703207015991">
        <ele>791</ele>
        <time>2019-05-11T13:12:55Z</time>
      </trkpt>
      <trkpt lat="36.7899513244629" lon="-5.09703302383423">
        <ele>790</ele>
        <time>2019-05-11T13:12:58Z</time>
      </trkpt>
      <trkpt lat="36.7899513244629" lon="-5.09703207015991">
        <ele>789</ele>
        <time>2019-05-11T13:13:00Z</time>
      </trkpt>
      <trkpt lat="36.7899436950684" lon="-5.09703493118286">
        <ele>789</ele>
        <time>2019-05-11T13:13:02Z</time>
      </trkpt>
      <trkpt lat="36.7899436950684" lon="-5.09703683853149">
        <ele>788</ele>
        <time>2019-05-11T13:13:04Z</time>
      </trkpt>
      <trkpt lat="36.7899398803711" lon="-5.0970401763916">
        <ele>788</ele>
        <time>2019-05-11T13:13:06Z</time>
      </trkpt>
      <trkpt lat="36.7899360656738" lon="-5.09704303741455">
        <ele>788</ele>
        <time>2019-05-11T13:13:08Z</time>
      </trkpt>
      <trkpt lat="36.7899360656738" lon="-5.09704303741455">
        <ele>788</ele>
        <time>2019-05-11T13:13:10Z</time>
      </trkpt>
      <trkpt lat="36.7899360656738" lon="-5.09704685211182">
        <ele>788</ele>
        <time>2019-05-11T13:13:12Z</time>
      </trkpt>
      <trkpt lat="36.7899360656738" lon="-5.09704685211182">
        <ele>788</ele>
        <time>2019-05-11T13:13:14Z</time>
      </trkpt>
      <trkpt lat="36.7899360656738" lon="-5.09705018997192">
        <ele>788</ele>
        <time>2019-05-11T13:13:16Z</time>
      </trkpt>
      <trkpt lat="36.7899360656738" lon="-5.09705209732056">
        <ele>788</ele>
        <time>2019-05-11T13:13:18Z</time>
      </trkpt>
      <trkpt lat="36.7899322509766" lon="-5.09704303741455">
        <ele>786</ele>
        <time>2019-05-11T13:13:20Z</time>
      </trkpt>
      <trkpt lat="36.7899284362793" lon="-5.09704685211182">
        <ele>786</ele>
        <time>2019-05-11T13:13:22Z</time>
      </trkpt>
      <trkpt lat="36.789924621582" lon="-5.09705018997192">
        <ele>786</ele>
        <time>2019-05-11T13:13:24Z</time>
      </trkpt>
      <trkpt lat="36.789924621582" lon="-5.09705495834351">
        <ele>786</ele>
        <time>2019-05-11T13:13:26Z</time>
      </trkpt>
      <trkpt lat="36.789924621582" lon="-5.09705686569214">
        <ele>786</ele>
        <time>2019-05-11T13:13:28Z</time>
      </trkpt>
      <trkpt lat="36.7899131774902" lon="-5.09705305099487">
        <ele>786</ele>
        <time>2019-05-11T13:13:30Z</time>
      </trkpt>
      <trkpt lat="36.7899131774902" lon="-5.09705209732056">
        <ele>786</ele>
        <time>2019-05-11T13:13:32Z</time>
      </trkpt>
      <trkpt lat="36.7899131774902" lon="-5.09704685211182">
        <ele>785</ele>
        <time>2019-05-11T13:13:34Z</time>
      </trkpt>
      <trkpt lat="36.7899131774902" lon="-5.09704685211182">
        <ele>785</ele>
        <time>2019-05-11T13:13:36Z</time>
      </trkpt>
      <trkpt lat="36.7899131774902" lon="-5.09704780578613">
        <ele>785</ele>
        <time>2019-05-11T13:13:39Z</time>
      </trkpt>
      <trkpt lat="36.789909362793" lon="-5.09704494476318">
        <ele>785</ele>
        <time>2019-05-11T13:13:41Z</time>
      </trkpt>
      <trkpt lat="36.7899017333984" lon="-5.09704303741455">
        <ele>784</ele>
        <time>2019-05-11T13:13:43Z</time>
      </trkpt>
      <trkpt lat="36.7899017333984" lon="-5.09704208374023">
        <ele>784</ele>
        <time>2019-05-11T13:13:45Z</time>
      </trkpt>
      <trkpt lat="36.7899017333984" lon="-5.0970401763916">
        <ele>784</ele>
        <time>2019-05-11T13:13:47Z</time>
      </trkpt>
      <trkpt lat="36.7898979187012" lon="-5.0970401763916">
        <ele>784</ele>
        <time>2019-05-11T13:13:49Z</time>
      </trkpt>
      <trkpt lat="36.7899017333984" lon="-5.09704494476318">
        <ele>784</ele>
        <time>2019-05-11T13:13:51Z</time>
      </trkpt>
      <trkpt lat="36.7898979187012" lon="-5.09705209732056">
        <ele>784</ele>
        <time>2019-05-11T13:13:53Z</time>
      </trkpt>
      <trkpt lat="36.7898979187012" lon="-5.09705495834351">
        <ele>784</ele>
        <time>2019-05-11T13:13:55Z</time>
      </trkpt>
      <trkpt lat="36.7898979187012" lon="-5.09706687927246">
        <ele>784</ele>
        <time>2019-05-11T13:13:57Z</time>
      </trkpt>
      <trkpt lat="36.7898979187012" lon="-5.09707307815552">
        <ele>784</ele>
        <time>2019-05-11T13:13:59Z</time>
      </trkpt>
      <trkpt lat="36.7899017333984" lon="-5.09708213806152">
        <ele>784</ele>
        <time>2019-05-11T13:14:01Z</time>
      </trkpt>
      <trkpt lat="36.789909362793" lon="-5.0970950126648">
        <ele>784</ele>
        <time>2019-05-11T13:14:03Z</time>
      </trkpt>
      <trkpt lat="36.7899131774902" lon="-5.09710502624512">
        <ele>784</ele>
        <time>2019-05-11T13:14:05Z</time>
      </trkpt>
      <trkpt lat="36.7899131774902" lon="-5.09711790084839">
        <ele>784</ele>
        <time>2019-05-11T13:14:07Z</time>
      </trkpt>
      <trkpt lat="36.7899131774902" lon="-5.09711980819702">
        <ele>784</ele>
        <time>2019-05-11T13:14:09Z</time>
      </trkpt>
      <trkpt lat="36.7899131774902" lon="-5.09711980819702">
        <ele>784</ele>
        <time>2019-05-11T13:14:11Z</time>
      </trkpt>
      <trkpt lat="36.789909362793" lon="-5.09711503982544">
        <ele>784</ele>
        <time>2019-05-11T13:14:13Z</time>
      </trkpt>
      <trkpt lat="36.7899055480957" lon="-5.09711694717407">
        <ele>784</ele>
        <time>2019-05-11T13:14:15Z</time>
      </trkpt>
      <trkpt lat="36.7898902893066" lon="-5.0971097946167">
        <ele>784</ele>
        <time>2019-05-11T13:14:17Z</time>
      </trkpt>
      <trkpt lat="36.7898788452148" lon="-5.09710311889648">
        <ele>784</ele>
        <time>2019-05-11T13:14:20Z</time>
      </trkpt>
      <trkpt lat="36.789867401123" lon="-5.09710693359375">
        <ele>784</ele>
        <time>2019-05-11T13:14:22Z</time>
      </trkpt>
      <trkpt lat="36.7898559570312" lon="-5.09710693359375">
        <ele>784</ele>
        <time>2019-05-11T13:14:24Z</time>
      </trkpt>
      <trkpt lat="36.789852142334" lon="-5.0971097946167">
        <ele>784</ele>
        <time>2019-05-11T13:14:26Z</time>
      </trkpt>
      <trkpt lat="36.7898483276367" lon="-5.0971097946167">
        <ele>784</ele>
        <time>2019-05-11T13:14:28Z</time>
      </trkpt>
      <trkpt lat="36.7898445129394" lon="-5.0971097946167">
        <ele>784</ele>
        <time>2019-05-11T13:14:30Z</time>
      </trkpt>
      <trkpt lat="36.7898445129394" lon="-5.09710311889648">
        <ele>784</ele>
        <time>2019-05-11T13:14:32Z</time>
      </trkpt>
      <trkpt lat="36.7898406982422" lon="-5.09709978103638">
        <ele>784</ele>
        <time>2019-05-11T13:14:34Z</time>
      </trkpt>
      <trkpt lat="36.7898368835449" lon="-5.09709692001343">
        <ele>784</ele>
        <time>2019-05-11T13:14:36Z</time>
      </trkpt>
      <trkpt lat="36.7898330688477" lon="-5.0970950126648">
        <ele>783</ele>
        <time>2019-05-11T13:14:38Z</time>
      </trkpt>
      <trkpt lat="36.7898292541504" lon="-5.0970950126648">
        <ele>783</ele>
        <time>2019-05-11T13:14:40Z</time>
      </trkpt>
      <trkpt lat="36.7898368835449" lon="-5.09709310531616">
        <ele>783</ele>
        <time>2019-05-11T13:14:42Z</time>
      </trkpt>
      <trkpt lat="36.7898368835449" lon="-5.09709215164185">
        <ele>783</ele>
        <time>2019-05-11T13:14:44Z</time>
      </trkpt>
      <trkpt lat="36.7898292541504" lon="-5.09709310531616">
        <ele>783</ele>
        <time>2019-05-11T13:14:46Z</time>
      </trkpt>
      <trkpt lat="36.7898216247559" lon="-5.0970950126648">
        <ele>783</ele>
        <time>2019-05-11T13:14:48Z</time>
      </trkpt>
      <trkpt lat="36.7898139953613" lon="-5.09709978103638">
        <ele>783</ele>
        <time>2019-05-11T13:14:50Z</time>
      </trkpt>
      <trkpt lat="36.7898063659668" lon="-5.09709787368774">
        <ele>783</ele>
        <time>2019-05-11T13:14:52Z</time>
      </trkpt>
      <trkpt lat="36.7897987365723" lon="-5.09709692001343">
        <ele>783</ele>
        <time>2019-05-11T13:14:54Z</time>
      </trkpt>
      <trkpt lat="36.7897911071777" lon="-5.09708976745606">
        <ele>783</ele>
        <time>2019-05-11T13:14:56Z</time>
      </trkpt>
      <trkpt lat="36.7897834777832" lon="-5.09709215164185">
        <ele>783</ele>
        <time>2019-05-11T13:14:59Z</time>
      </trkpt>
      <trkpt lat="36.7897644042969" lon="-5.09710502624512">
        <ele>783</ele>
        <time>2019-05-11T13:15:01Z</time>
      </trkpt>
      <trkpt lat="36.7897529602051" lon="-5.09711790084839">
        <ele>783</ele>
        <time>2019-05-11T13:15:03Z</time>
      </trkpt>
      <trkpt lat="36.789737701416" lon="-5.09714221954346">
        <ele>783</ele>
        <time>2019-05-11T13:15:05Z</time>
      </trkpt>
      <trkpt lat="36.7897262573242" lon="-5.09715986251831">
        <ele>783</ele>
        <time>2019-05-11T13:15:07Z</time>
      </trkpt>
      <trkpt lat="36.7897148132324" lon="-5.09716987609863">
        <ele>783</ele>
        <time>2019-05-11T13:15:09Z</time>
      </trkpt>
      <trkpt lat="36.7897033691406" lon="-5.09718322753906">
        <ele>783</ele>
        <time>2019-05-11T13:15:11Z</time>
      </trkpt>
      <trkpt lat="36.7896957397461" lon="-5.09719800949097">
        <ele>783</ele>
        <time>2019-05-11T13:15:13Z</time>
      </trkpt>
      <trkpt lat="36.7896995544434" lon="-5.09720802307129">
        <ele>783</ele>
        <time>2019-05-11T13:15:15Z</time>
      </trkpt>
      <trkpt lat="36.7897033691406" lon="-5.09720993041992">
        <ele>783</ele>
        <time>2019-05-11T13:15:17Z</time>
      </trkpt>
      <trkpt lat="36.7897033691406" lon="-5.0972170829773">
        <ele>783</ele>
        <time>2019-05-11T13:15:19Z</time>
      </trkpt>
      <trkpt lat="36.7897071838379" lon="-5.0972170829773">
        <ele>783</ele>
        <time>2019-05-11T13:15:21Z</time>
      </trkpt>
      <trkpt lat="36.7897109985352" lon="-5.0972170829773">
        <ele>783</ele>
        <time>2019-05-11T13:15:23Z</time>
      </trkpt>
      <trkpt lat="36.7897148132324" lon="-5.09721803665161">
        <ele>783</ele>
        <time>2019-05-11T13:15:25Z</time>
      </trkpt>
      <trkpt lat="36.7897186279297" lon="-5.09721994400024">
        <ele>784</ele>
        <time>2019-05-11T13:15:27Z</time>
      </trkpt>
      <trkpt lat="36.789722442627" lon="-5.09722280502319">
        <ele>785</ele>
        <time>2019-05-11T13:15:29Z</time>
      </trkpt>
      <trkpt lat="36.7897262573242" lon="-5.09722709655762">
        <ele>785</ele>
        <time>2019-05-11T13:15:31Z</time>
      </trkpt>
      <trkpt lat="36.7897262573242" lon="-5.0972318649292">
        <ele>786</ele>
        <time>2019-05-11T13:15:33Z</time>
      </trkpt>
      <trkpt lat="36.7897262573242" lon="-5.09723711013794">
        <ele>786</ele>
        <time>2019-05-11T13:15:36Z</time>
      </trkpt>
      <trkpt lat="36.7897262573242" lon="-5.09723806381226">
        <ele>787</ele>
        <time>2019-05-11T13:15:38Z</time>
      </trkpt>
      <trkpt lat="36.7897262573242" lon="-5.09723520278931">
        <ele>787</ele>
        <time>2019-05-11T13:15:40Z</time>
      </trkpt>
      <trkpt lat="36.7897262573242" lon="-5.09723806381226">
        <ele>787</ele>
        <time>2019-05-11T13:15:42Z</time>
      </trkpt>
      <trkpt lat="36.7897262573242" lon="-5.09723806381226">
        <ele>787</ele>
        <time>2019-05-11T13:15:44Z</time>
      </trkpt>
      <trkpt lat="36.7897262573242" lon="-5.09723997116089">
        <ele>787</ele>
        <time>2019-05-11T13:15:46Z</time>
      </trkpt>
      <trkpt lat="36.7897262573242" lon="-5.09723997116089">
        <ele>787</ele>
        <time>2019-05-11T13:15:48Z</time>
      </trkpt>
      <trkpt lat="36.789722442627" lon="-5.09724283218384">
        <ele>787</ele>
        <time>2019-05-11T13:15:50Z</time>
      </trkpt>
      <trkpt lat="36.789722442627" lon="-5.0972318649292">
        <ele>787</ele>
        <time>2019-05-11T13:15:52Z</time>
      </trkpt>
      <trkpt lat="36.789737701416" lon="-5.09724283218384">
        <ele>788</ele>
        <time>2019-05-11T13:15:54Z</time>
      </trkpt>
      <trkpt lat="36.7897415161133" lon="-5.09727001190186">
        <ele>789</ele>
        <time>2019-05-11T13:15:56Z</time>
      </trkpt>
      <trkpt lat="36.7897415161133" lon="-5.09728813171387">
        <ele>790</ele>
        <time>2019-05-11T13:15:58Z</time>
      </trkpt>
      <trkpt lat="36.7897300720215" lon="-5.09730005264282">
        <ele>790</ele>
        <time>2019-05-11T13:16:00Z</time>
      </trkpt>
      <trkpt lat="36.7897186279297" lon="-5.09731292724609">
        <ele>791</ele>
        <time>2019-05-11T13:16:02Z</time>
      </trkpt>
      <trkpt lat="36.7897148132324" lon="-5.09731006622314">
        <ele>791</ele>
        <time>2019-05-11T13:16:04Z</time>
      </trkpt>
      <trkpt lat="36.7897109985352" lon="-5.09731006622314">
        <ele>791</ele>
        <time>2019-05-11T13:16:06Z</time>
      </trkpt>
      <trkpt lat="36.7897109985352" lon="-5.0973048210144">
        <ele>791</ele>
        <time>2019-05-11T13:16:08Z</time>
      </trkpt>
      <trkpt lat="36.7897109985352" lon="-5.09729719161987">
        <ele>791</ele>
        <time>2019-05-11T13:16:10Z</time>
      </trkpt>
      <trkpt lat="36.7897033691406" lon="-5.09728813171387">
        <ele>793</ele>
        <time>2019-05-11T13:16:12Z</time>
      </trkpt>
      <trkpt lat="36.7897033691406" lon="-5.09728288650513">
        <ele>794</ele>
        <time>2019-05-11T13:16:14Z</time>
      </trkpt>
      <trkpt lat="36.7897033691406" lon="-5.09727811813354">
        <ele>794</ele>
        <time>2019-05-11T13:16:16Z</time>
      </trkpt>
      <trkpt lat="36.7897033691406" lon="-5.09727478027344">
        <ele>795</ele>
        <time>2019-05-11T13:16:18Z</time>
      </trkpt>
      <trkpt lat="36.7896995544434" lon="-5.09727001190186">
        <ele>796</ele>
        <time>2019-05-11T13:16:21Z</time>
      </trkpt>
      <trkpt lat="36.7896995544434" lon="-5.09726190567017">
        <ele>797</ele>
        <time>2019-05-11T13:16:23Z</time>
      </trkpt>
      <trkpt lat="36.7897033691406" lon="-5.0972580909729">
        <ele>797</ele>
        <time>2019-05-11T13:16:25Z</time>
      </trkpt>
      <trkpt lat="36.7897033691406" lon="-5.09725713729858">
        <ele>798</ele>
        <time>2019-05-11T13:16:29Z</time>
      </trkpt>
      <trkpt lat="36.7897033691406" lon="-5.09725522994995">
        <ele>798</ele>
        <time>2019-05-11T13:16:31Z</time>
      </trkpt>
      <trkpt lat="36.7897033691406" lon="-5.09725189208984">
        <ele>798</ele>
        <time>2019-05-11T13:16:33Z</time>
      </trkpt>
      <trkpt lat="36.7896995544434" lon="-5.09724712371826">
        <ele>798</ele>
        <time>2019-05-11T13:16:35Z</time>
      </trkpt>
      <trkpt lat="36.7897033691406" lon="-5.09724283218384">
        <ele>799</ele>
        <time>2019-05-11T13:16:37Z</time>
      </trkpt>
      <trkpt lat="36.7897033691406" lon="-5.09724521636963">
        <ele>800</ele>
        <time>2019-05-11T13:16:39Z</time>
      </trkpt>
      <trkpt lat="36.7897033691406" lon="-5.09724998474121">
        <ele>800</ele>
        <time>2019-05-11T13:16:41Z</time>
      </trkpt>
      <trkpt lat="36.7897071838379" lon="-5.09725522994995">
        <ele>801</ele>
        <time>2019-05-11T13:16:43Z</time>
      </trkpt>
      <trkpt lat="36.7897071838379" lon="-5.09725522994995">
        <ele>801</ele>
        <time>2019-05-11T13:16:45Z</time>
      </trkpt>
      <trkpt lat="36.7897071838379" lon="-5.09725189208984">
        <ele>802</ele>
        <time>2019-05-11T13:16:47Z</time>
      </trkpt>
      <trkpt lat="36.7897071838379" lon="-5.09724807739258">
        <ele>802</ele>
        <time>2019-05-11T13:16:49Z</time>
      </trkpt>
      <trkpt lat="36.7897109985352" lon="-5.09724998474121">
        <ele>803</ele>
        <time>2019-05-11T13:16:51Z</time>
      </trkpt>
      <trkpt lat="36.7897109985352" lon="-5.09725189208984">
        <ele>804</ele>
        <time>2019-05-11T13:16:53Z</time>
      </trkpt>
      <trkpt lat="36.7897071838379" lon="-5.09724712371826">
        <ele>804</ele>
        <time>2019-05-11T13:16:55Z</time>
      </trkpt>
      <trkpt lat="36.7897109985352" lon="-5.09724283218384">
        <ele>805</ele>
        <time>2019-05-11T13:16:57Z</time>
      </trkpt>
      <trkpt lat="36.7897109985352" lon="-5.09724187850952">
        <ele>805</ele>
        <time>2019-05-11T13:16:59Z</time>
      </trkpt>
      <trkpt lat="36.7897071838379" lon="-5.09723997116089">
        <ele>805</ele>
        <time>2019-05-11T13:17:02Z</time>
      </trkpt>
      <trkpt lat="36.7897109985352" lon="-5.09723711013794">
        <ele>805</ele>
        <time>2019-05-11T13:17:04Z</time>
      </trkpt>
      <trkpt lat="36.7897109985352" lon="-5.09723520278931">
        <ele>805</ele>
        <time>2019-05-11T13:17:06Z</time>
      </trkpt>
      <trkpt lat="36.7897109985352" lon="-5.09723520278931">
        <ele>805</ele>
        <time>2019-05-11T13:17:08Z</time>
      </trkpt>
      <trkpt lat="36.7897109985352" lon="-5.09723520278931">
        <ele>805</ele>
        <time>2019-05-11T13:17:10Z</time>
      </trkpt>
      <trkpt lat="36.7897109985352" lon="-5.09722995758057">
        <ele>805</ele>
        <time>2019-05-11T13:17:12Z</time>
      </trkpt>
      <trkpt lat="36.7897109985352" lon="-5.09722709655762">
        <ele>805</ele>
        <time>2019-05-11T13:17:14Z</time>
      </trkpt>
      <trkpt lat="36.7897109985352" lon="-5.09722280502319">
        <ele>806</ele>
        <time>2019-05-11T13:17:16Z</time>
      </trkpt>
      <trkpt lat="36.7897109985352" lon="-5.09722185134888">
        <ele>807</ele>
        <time>2019-05-11T13:17:18Z</time>
      </trkpt>
      <trkpt lat="36.7897109985352" lon="-5.09721994400024">
        <ele>809</ele>
        <time>2019-05-11T13:17:20Z</time>
      </trkpt>
      <trkpt lat="36.7897148132324" lon="-5.09722280502319">
        <ele>810</ele>
        <time>2019-05-11T13:17:24Z</time>
      </trkpt>
      <trkpt lat="36.7897148132324" lon="-5.09722185134888">
        <ele>810</ele>
        <time>2019-05-11T13:17:26Z</time>
      </trkpt>
      <trkpt lat="36.7897186279297" lon="-5.09722185134888">
        <ele>810</ele>
        <time>2019-05-11T13:17:28Z</time>
      </trkpt>
      <trkpt lat="36.7897186279297" lon="-5.09722280502319">
        <ele>810</ele>
        <time>2019-05-11T13:17:30Z</time>
      </trkpt>
      <trkpt lat="36.7897186279297" lon="-5.09721517562866">
        <ele>810</ele>
        <time>2019-05-11T13:17:32Z</time>
      </trkpt>
      <trkpt lat="36.789722442627" lon="-5.09721279144287">
        <ele>810</ele>
        <time>2019-05-11T13:17:34Z</time>
      </trkpt>
      <trkpt lat="36.789722442627" lon="-5.09721279144287">
        <ele>810</ele>
        <time>2019-05-11T13:17:36Z</time>
      </trkpt>
      <trkpt lat="36.7897186279297" lon="-5.09721517562866">
        <ele>810</ele>
        <time>2019-05-11T13:17:38Z</time>
      </trkpt>
      <trkpt lat="36.789722442627" lon="-5.09721183776856">
        <ele>810</ele>
        <time>2019-05-11T13:17:40Z</time>
      </trkpt>
      <trkpt lat="36.7897262573242" lon="-5.09720993041992">
        <ele>810</ele>
        <time>2019-05-11T13:17:42Z</time>
      </trkpt>
      <trkpt lat="36.7897262573242" lon="-5.09721183776856">
        <ele>809</ele>
        <time>2019-05-11T13:17:44Z</time>
      </trkpt>
      <trkpt lat="36.7897262573242" lon="-5.09721183776856">
        <ele>809</ele>
        <time>2019-05-11T13:17:46Z</time>
      </trkpt>
      <trkpt lat="36.7897338867188" lon="-5.09722280502319">
        <ele>809</ele>
        <time>2019-05-11T13:17:48Z</time>
      </trkpt>
      <trkpt lat="36.789737701416" lon="-5.09722995758057">
        <ele>809</ele>
        <time>2019-05-11T13:17:50Z</time>
      </trkpt>
      <trkpt lat="36.789737701416" lon="-5.09722185134888">
        <ele>809</ele>
        <time>2019-05-11T13:17:52Z</time>
      </trkpt>
      <trkpt lat="36.7897338867188" lon="-5.09721803665161">
        <ele>809</ele>
        <time>2019-05-11T13:17:54Z</time>
      </trkpt>
      <trkpt lat="36.7897300720215" lon="-5.09721183776856">
        <ele>809</ele>
        <time>2019-05-11T13:17:56Z</time>
      </trkpt>
      <trkpt lat="36.7897148132324" lon="-5.09721517562866">
        <ele>809</ele>
        <time>2019-05-11T13:18:00Z</time>
      </trkpt>
      <trkpt lat="36.7897109985352" lon="-5.09720802307129">
        <ele>809</ele>
        <time>2019-05-11T13:18:03Z</time>
      </trkpt>
      <trkpt lat="36.7897109985352" lon="-5.09720706939697">
        <ele>809</ele>
        <time>2019-05-11T13:18:05Z</time>
      </trkpt>
      <trkpt lat="36.7897109985352" lon="-5.09720802307129">
        <ele>809</ele>
        <time>2019-05-11T13:18:07Z</time>
      </trkpt>
      <trkpt lat="36.7897109985352" lon="-5.09720802307129">
        <ele>809</ele>
        <time>2019-05-11T13:18:09Z</time>
      </trkpt>
      <trkpt lat="36.7897071838379" lon="-5.09720277786255">
        <ele>809</ele>
        <time>2019-05-11T13:18:11Z</time>
      </trkpt>
      <trkpt lat="36.7897071838379" lon="-5.0971999168396">
        <ele>809</ele>
        <time>2019-05-11T13:18:13Z</time>
      </trkpt>
      <trkpt lat="36.7897071838379" lon="-5.09719800949097">
        <ele>809</ele>
        <time>2019-05-11T13:18:15Z</time>
      </trkpt>
      <trkpt lat="36.7897071838379" lon="-5.09719514846802">
        <ele>809</ele>
        <time>2019-05-11T13:18:17Z</time>
      </trkpt>
      <trkpt lat="36.7897071838379" lon="-5.09719181060791">
        <ele>809</ele>
        <time>2019-05-11T13:18:19Z</time>
      </trkpt>
      <trkpt lat="36.7897071838379" lon="-5.09719276428223">
        <ele>809</ele>
        <time>2019-05-11T13:18:21Z</time>
      </trkpt>
      <trkpt lat="36.7897071838379" lon="-5.09718990325928">
        <ele>809</ele>
        <time>2019-05-11T13:18:23Z</time>
      </trkpt>
      <trkpt lat="36.7897071838379" lon="-5.09718799591064">
        <ele>809</ele>
        <time>2019-05-11T13:18:25Z</time>
      </trkpt>
      <trkpt lat="36.7897071838379" lon="-5.09718990325928">
        <ele>809</ele>
        <time>2019-05-11T13:18:27Z</time>
      </trkpt>
      <trkpt lat="36.7897071838379" lon="-5.09718990325928">
        <ele>809</ele>
        <time>2019-05-11T13:18:29Z</time>
      </trkpt>
      <trkpt lat="36.7897109985352" lon="-5.09719514846802">
        <ele>809</ele>
        <time>2019-05-11T13:18:31Z</time>
      </trkpt>
      <trkpt lat="36.7897109985352" lon="-5.09719800949097">
        <ele>809</ele>
        <time>2019-05-11T13:18:33Z</time>
      </trkpt>
      <trkpt lat="36.7897109985352" lon="-5.09720516204834">
        <ele>809</ele>
        <time>2019-05-11T13:18:35Z</time>
      </trkpt>
      <trkpt lat="36.7897109985352" lon="-5.09720993041992">
        <ele>808</ele>
        <time>2019-05-11T13:18:37Z</time>
      </trkpt>
      <trkpt lat="36.7897071838379" lon="-5.09721183776856">
        <ele>807</ele>
        <time>2019-05-11T13:18:39Z</time>
      </trkpt>
      <trkpt lat="36.7897071838379" lon="-5.09721517562866">
        <ele>806</ele>
        <time>2019-05-11T13:18:41Z</time>
      </trkpt>
      <trkpt lat="36.7896995544434" lon="-5.09721183776856">
        <ele>806</ele>
        <time>2019-05-11T13:18:47Z</time>
      </trkpt>
      <trkpt lat="36.7896995544434" lon="-5.09720993041992">
        <ele>805</ele>
        <time>2019-05-11T13:18:49Z</time>
      </trkpt>
      <trkpt lat="36.7896995544434" lon="-5.09720277786255">
        <ele>805</ele>
        <time>2019-05-11T13:18:51Z</time>
      </trkpt>
      <trkpt lat="36.7896995544434" lon="-5.0971999168396">
        <ele>805</ele>
        <time>2019-05-11T13:18:54Z</time>
      </trkpt>
      <trkpt lat="36.7896995544434" lon="-5.09719514846802">
        <ele>805</ele>
        <time>2019-05-11T13:18:56Z</time>
      </trkpt>
      <trkpt lat="36.7896957397461" lon="-5.09720182418823">
        <ele>805</ele>
        <time>2019-05-11T13:18:58Z</time>
      </trkpt>
      <trkpt lat="36.7896919250488" lon="-5.09719705581665">
        <ele>805</ele>
        <time>2019-05-11T13:19:00Z</time>
      </trkpt>
      <trkpt lat="36.7896957397461" lon="-5.09719514846802">
        <ele>805</ele>
        <time>2019-05-11T13:19:02Z</time>
      </trkpt>
      <trkpt lat="36.7896957397461" lon="-5.0971999168396">
        <ele>805</ele>
        <time>2019-05-11T13:19:06Z</time>
      </trkpt>
      <trkpt lat="36.7896957397461" lon="-5.09720277786255">
        <ele>805</ele>
        <time>2019-05-11T13:19:08Z</time>
      </trkpt>
      <trkpt lat="36.7896957397461" lon="-5.09720706939697">
        <ele>805</ele>
        <time>2019-05-11T13:19:10Z</time>
      </trkpt>
      <trkpt lat="36.7896995544434" lon="-5.09720277786255">
        <ele>805</ele>
        <time>2019-05-11T13:19:12Z</time>
      </trkpt>
      <trkpt lat="36.7896995544434" lon="-5.09720706939697">
        <ele>805</ele>
        <time>2019-05-11T13:19:14Z</time>
      </trkpt>
      <trkpt lat="36.7896995544434" lon="-5.09721517562866">
        <ele>805</ele>
        <time>2019-05-11T13:19:16Z</time>
      </trkpt>
      <trkpt lat="36.7897033691406" lon="-5.09721994400024">
        <ele>805</ele>
        <time>2019-05-11T13:19:18Z</time>
      </trkpt>
      <trkpt lat="36.7897071838379" lon="-5.09722280502319">
        <ele>805</ele>
        <time>2019-05-11T13:19:20Z</time>
      </trkpt>
      <trkpt lat="36.7897109985352" lon="-5.09723520278931">
        <ele>805</ele>
        <time>2019-05-11T13:19:22Z</time>
      </trkpt>
      <trkpt lat="36.7897071838379" lon="-5.09723997116089">
        <ele>805</ele>
        <time>2019-05-11T13:19:24Z</time>
      </trkpt>
      <trkpt lat="36.7897033691406" lon="-5.09723997116089">
        <ele>805</ele>
        <time>2019-05-11T13:19:26Z</time>
      </trkpt>
      <trkpt lat="36.7897071838379" lon="-5.09723997116089">
        <ele>805</ele>
        <time>2019-05-11T13:19:28Z</time>
      </trkpt>
      <trkpt lat="36.7897109985352" lon="-5.09724283218384">
        <ele>805</ele>
        <time>2019-05-11T13:19:30Z</time>
      </trkpt>
      <trkpt lat="36.7897148132324" lon="-5.09723997116089">
        <ele>805</ele>
        <time>2019-05-11T13:19:32Z</time>
      </trkpt>
      <trkpt lat="36.7897148132324" lon="-5.09723281860352">
        <ele>806</ele>
        <time>2019-05-11T13:19:34Z</time>
      </trkpt>
      <trkpt lat="36.7897148132324" lon="-5.0972318649292">
        <ele>806</ele>
        <time>2019-05-11T13:19:45Z</time>
      </trkpt>
      <trkpt lat="36.7897148132324" lon="-5.09724712371826">
        <ele>806</ele>
        <time>2019-05-11T13:19:49Z</time>
      </trkpt>
      <trkpt lat="36.7897148132324" lon="-5.09724807739258">
        <ele>806</ele>
        <time>2019-05-11T13:19:51Z</time>
      </trkpt>
      <trkpt lat="36.7897148132324" lon="-5.09724712371826">
        <ele>806</ele>
        <time>2019-05-11T13:19:53Z</time>
      </trkpt>
      <trkpt lat="36.7897071838379" lon="-5.09724187850952">
        <ele>806</ele>
        <time>2019-05-11T13:19:57Z</time>
      </trkpt>
      <trkpt lat="36.7896995544434" lon="-5.09723806381226">
        <ele>806</ele>
        <time>2019-05-11T13:19:59Z</time>
      </trkpt>
      <trkpt lat="36.7896957397461" lon="-5.09723997116089">
        <ele>806</ele>
        <time>2019-05-11T13:20:01Z</time>
      </trkpt>
      <trkpt lat="36.7896881103516" lon="-5.09723997116089">
        <ele>806</ele>
        <time>2019-05-11T13:20:03Z</time>
      </trkpt>
      <trkpt lat="36.7896842956543" lon="-5.09723997116089">
        <ele>806</ele>
        <time>2019-05-11T13:20:05Z</time>
      </trkpt>
      <trkpt lat="36.7896690368652" lon="-5.09723711013794">
        <ele>806</ele>
        <time>2019-05-11T13:20:07Z</time>
      </trkpt>
      <trkpt lat="36.789665222168" lon="-5.09723711013794">
        <ele>805</ele>
        <time>2019-05-11T13:20:09Z</time>
      </trkpt>
      <trkpt lat="36.7896614074707" lon="-5.09723711013794">
        <ele>804</ele>
        <time>2019-05-11T13:20:15Z</time>
      </trkpt>
      <trkpt lat="36.7896614074707" lon="-5.09723520278931">
        <ele>804</ele>
        <time>2019-05-11T13:20:17Z</time>
      </trkpt>
      <trkpt lat="36.7896614074707" lon="-5.09723711013794">
        <ele>804</ele>
        <time>2019-05-11T13:20:19Z</time>
      </trkpt>
      <trkpt lat="36.7896575927734" lon="-5.09723997116089">
        <ele>804</ele>
        <time>2019-05-11T13:20:21Z</time>
      </trkpt>
      <trkpt lat="36.789665222168" lon="-5.09724187850952">
        <ele>804</ele>
        <time>2019-05-11T13:20:23Z</time>
      </trkpt>
      <trkpt lat="36.7896728515625" lon="-5.09724283218384">
        <ele>804</ele>
        <time>2019-05-11T13:20:25Z</time>
      </trkpt>
      <trkpt lat="36.7896690368652" lon="-5.09724998474121">
        <ele>804</ele>
        <time>2019-05-11T13:20:27Z</time>
      </trkpt>
      <trkpt lat="36.7896690368652" lon="-5.09724807739258">
        <ele>804</ele>
        <time>2019-05-11T13:20:30Z</time>
      </trkpt>
      <trkpt lat="36.7896690368652" lon="-5.09724998474121">
        <ele>804</ele>
        <time>2019-05-11T13:20:32Z</time>
      </trkpt>
      <trkpt lat="36.7896728515625" lon="-5.09724807739258">
        <ele>804</ele>
        <time>2019-05-11T13:20:34Z</time>
      </trkpt>
      <trkpt lat="36.7896728515625" lon="-5.09724521636963">
        <ele>804</ele>
        <time>2019-05-11T13:20:36Z</time>
      </trkpt>
      <trkpt lat="36.789680480957" lon="-5.09724712371826">
        <ele>804</ele>
        <time>2019-05-11T13:20:38Z</time>
      </trkpt>
      <trkpt lat="36.7896842956543" lon="-5.09724712371826">
        <ele>804</ele>
        <time>2019-05-11T13:20:40Z</time>
      </trkpt>
      <trkpt lat="36.7896881103516" lon="-5.09725284576416">
        <ele>804</ele>
        <time>2019-05-11T13:20:42Z</time>
      </trkpt>
      <trkpt lat="36.7896881103516" lon="-5.09725284576416">
        <ele>804</ele>
        <time>2019-05-11T13:20:44Z</time>
      </trkpt>
      <trkpt lat="36.7896881103516" lon="-5.09725522994995">
        <ele>804</ele>
        <time>2019-05-11T13:20:46Z</time>
      </trkpt>
      <trkpt lat="36.7896881103516" lon="-5.09725189208984">
        <ele>804</ele>
        <time>2019-05-11T13:20:48Z</time>
      </trkpt>
      <trkpt lat="36.7896919250488" lon="-5.09725189208984">
        <ele>804</ele>
        <time>2019-05-11T13:20:50Z</time>
      </trkpt>
      <trkpt lat="36.7896919250488" lon="-5.09724521636963">
        <ele>804</ele>
        <time>2019-05-11T13:20:52Z</time>
      </trkpt>
      <trkpt lat="36.7896919250488" lon="-5.09723806381226">
        <ele>804</ele>
        <time>2019-05-11T13:20:54Z</time>
      </trkpt>
      <trkpt lat="36.7896919250488" lon="-5.0972318649292">
        <ele>804</ele>
        <time>2019-05-11T13:20:56Z</time>
      </trkpt>
      <trkpt lat="36.7896881103516" lon="-5.09722518920898">
        <ele>804</ele>
        <time>2019-05-11T13:20:58Z</time>
      </trkpt>
      <trkpt lat="36.7896881103516" lon="-5.09721803665161">
        <ele>804</ele>
        <time>2019-05-11T13:21:00Z</time>
      </trkpt>
      <trkpt lat="36.7896881103516" lon="-5.09720516204834">
        <ele>804</ele>
        <time>2019-05-11T13:21:02Z</time>
      </trkpt>
      <trkpt lat="36.7896881103516" lon="-5.09720277786255">
        <ele>805</ele>
        <time>2019-05-11T13:21:04Z</time>
      </trkpt>
      <trkpt lat="36.7896881103516" lon="-5.09720182418823">
        <ele>806</ele>
        <time>2019-05-11T13:21:06Z</time>
      </trkpt>
      <trkpt lat="36.7896881103516" lon="-5.09718799591064">
        <ele>807</ele>
        <time>2019-05-11T13:21:08Z</time>
      </trkpt>
      <trkpt lat="36.7896881103516" lon="-5.09718704223633">
        <ele>807</ele>
        <time>2019-05-11T13:21:10Z</time>
      </trkpt>
      <trkpt lat="36.7896881103516" lon="-5.09718990325928">
        <ele>808</ele>
        <time>2019-05-11T13:21:13Z</time>
      </trkpt>
      <trkpt lat="36.7896842956543" lon="-5.09719276428223">
        <ele>809</ele>
        <time>2019-05-11T13:21:15Z</time>
      </trkpt>
      <trkpt lat="36.7896919250488" lon="-5.09718799591064">
        <ele>811</ele>
        <time>2019-05-11T13:21:19Z</time>
      </trkpt>
      <trkpt lat="36.7896957397461" lon="-5.0971851348877">
        <ele>811</ele>
        <time>2019-05-11T13:21:21Z</time>
      </trkpt>
      <trkpt lat="36.7896995544434" lon="-5.09718990325928">
        <ele>812</ele>
        <time>2019-05-11T13:21:23Z</time>
      </trkpt>
      <trkpt lat="36.7897033691406" lon="-5.09719514846802">
        <ele>812</ele>
        <time>2019-05-11T13:21:25Z</time>
      </trkpt>
      <trkpt lat="36.7897071838379" lon="-5.09720706939697">
        <ele>812</ele>
        <time>2019-05-11T13:21:29Z</time>
      </trkpt>
      <trkpt lat="36.7897109985352" lon="-5.09720277786255">
        <ele>812</ele>
        <time>2019-05-11T13:21:31Z</time>
      </trkpt>
      <trkpt lat="36.7897109985352" lon="-5.09720182418823">
        <ele>812</ele>
        <time>2019-05-11T13:21:33Z</time>
      </trkpt>
      <trkpt lat="36.7897148132324" lon="-5.0971999168396">
        <ele>812</ele>
        <time>2019-05-11T13:21:35Z</time>
      </trkpt>
      <trkpt lat="36.7897148132324" lon="-5.0971999168396">
        <ele>812</ele>
        <time>2019-05-11T13:21:37Z</time>
      </trkpt>
      <trkpt lat="36.7897186279297" lon="-5.0971999168396">
        <ele>812</ele>
        <time>2019-05-11T13:21:39Z</time>
      </trkpt>
      <trkpt lat="36.7897186279297" lon="-5.09720993041992">
        <ele>812</ele>
        <time>2019-05-11T13:21:41Z</time>
      </trkpt>
      <trkpt lat="36.7897186279297" lon="-5.09721183776856">
        <ele>812</ele>
        <time>2019-05-11T13:21:43Z</time>
      </trkpt>
      <trkpt lat="36.7897186279297" lon="-5.0972170829773">
        <ele>812</ele>
        <time>2019-05-11T13:21:45Z</time>
      </trkpt>
      <trkpt lat="36.7897186279297" lon="-5.09720802307129">
        <ele>812</ele>
        <time>2019-05-11T13:21:47Z</time>
      </trkpt>
      <trkpt lat="36.7897186279297" lon="-5.09720802307129">
        <ele>812</ele>
        <time>2019-05-11T13:21:49Z</time>
      </trkpt>
      <trkpt lat="36.7897186279297" lon="-5.09721183776856">
        <ele>812</ele>
        <time>2019-05-11T13:21:51Z</time>
      </trkpt>
      <trkpt lat="36.7897186279297" lon="-5.09721279144287">
        <ele>811</ele>
        <time>2019-05-11T13:21:53Z</time>
      </trkpt>
      <trkpt lat="36.7897186279297" lon="-5.09721279144287">
        <ele>811</ele>
        <time>2019-05-11T13:21:55Z</time>
      </trkpt>
      <trkpt lat="36.7897148132324" lon="-5.09721183776856">
        <ele>809</ele>
        <time>2019-05-11T13:22:10Z</time>
      </trkpt>
      <trkpt lat="36.7896995544434" lon="-5.09719705581665">
        <ele>809</ele>
        <time>2019-05-11T13:22:12Z</time>
      </trkpt>
      <trkpt lat="36.7896881103516" lon="-5.09719181060791">
        <ele>809</ele>
        <time>2019-05-11T13:22:14Z</time>
      </trkpt>
      <trkpt lat="36.7896766662598" lon="-5.09718704223633">
        <ele>809</ele>
        <time>2019-05-11T13:22:16Z</time>
      </trkpt>
      <trkpt lat="36.7896728515625" lon="-5.09717798233032">
        <ele>809</ele>
        <time>2019-05-11T13:22:18Z</time>
      </trkpt>
      <trkpt lat="36.7896766662598" lon="-5.09716701507568">
        <ele>808</ele>
        <time>2019-05-11T13:22:20Z</time>
      </trkpt>
      <trkpt lat="36.789680480957" lon="-5.09717512130737">
        <ele>806</ele>
        <time>2019-05-11T13:22:22Z</time>
      </trkpt>
      <trkpt lat="36.789680480957" lon="-5.09718179702759">
        <ele>805</ele>
        <time>2019-05-11T13:22:24Z</time>
      </trkpt>
      <trkpt lat="36.7896842956543" lon="-5.09718799591064">
        <ele>804</ele>
        <time>2019-05-11T13:22:26Z</time>
      </trkpt>
      <trkpt lat="36.7896881103516" lon="-5.09719276428223">
        <ele>803</ele>
        <time>2019-05-11T13:22:28Z</time>
      </trkpt>
      <trkpt lat="36.7896881103516" lon="-5.09719800949097">
        <ele>802</ele>
        <time>2019-05-11T13:22:30Z</time>
      </trkpt>
      <trkpt lat="36.7896919250488" lon="-5.0971999168396">
        <ele>801</ele>
        <time>2019-05-11T13:22:32Z</time>
      </trkpt>
      <trkpt lat="36.7896919250488" lon="-5.09720277786255">
        <ele>801</ele>
        <time>2019-05-11T13:22:34Z</time>
      </trkpt>
      <trkpt lat="36.7896957397461" lon="-5.09720802307129">
        <ele>800</ele>
        <time>2019-05-11T13:22:36Z</time>
      </trkpt>
      <trkpt lat="36.7896957397461" lon="-5.09720993041992">
        <ele>799</ele>
        <time>2019-05-11T13:22:38Z</time>
      </trkpt>
      <trkpt lat="36.7897033691406" lon="-5.09722280502319">
        <ele>798</ele>
        <time>2019-05-11T13:22:45Z</time>
      </trkpt>
      <trkpt lat="36.7897033691406" lon="-5.09722518920898">
        <ele>796</ele>
        <time>2019-05-11T13:22:47Z</time>
      </trkpt>
      <trkpt lat="36.7897033691406" lon="-5.09722995758057">
        <ele>796</ele>
        <time>2019-05-11T13:22:49Z</time>
      </trkpt>
      <trkpt lat="36.7897033691406" lon="-5.09723281860352">
        <ele>796</ele>
        <time>2019-05-11T13:22:51Z</time>
      </trkpt>
      <trkpt lat="36.7897071838379" lon="-5.09723711013794">
        <ele>796</ele>
        <time>2019-05-11T13:22:53Z</time>
      </trkpt>
      <trkpt lat="36.7897033691406" lon="-5.09723711013794">
        <ele>796</ele>
        <time>2019-05-11T13:22:55Z</time>
      </trkpt>
      <trkpt lat="36.7897071838379" lon="-5.09727478027344">
        <ele>796</ele>
        <time>2019-05-11T13:23:01Z</time>
      </trkpt>
      <trkpt lat="36.789722442627" lon="-5.09729719161987">
        <ele>796</ele>
        <time>2019-05-11T13:23:03Z</time>
      </trkpt>
      <trkpt lat="36.7897262573242" lon="-5.09730815887451">
        <ele>796</ele>
        <time>2019-05-11T13:23:05Z</time>
      </trkpt>
      <trkpt lat="36.7897186279297" lon="-5.09731197357178">
        <ele>796</ele>
        <time>2019-05-11T13:23:07Z</time>
      </trkpt>
      <trkpt lat="36.7897148132324" lon="-5.0973048210144">
        <ele>796</ele>
        <time>2019-05-11T13:23:11Z</time>
      </trkpt>
      <trkpt lat="36.7897148132324" lon="-5.09730291366577">
        <ele>796</ele>
        <time>2019-05-11T13:23:13Z</time>
      </trkpt>
      <trkpt lat="36.7897109985352" lon="-5.09730005264282">
        <ele>796</ele>
        <time>2019-05-11T13:23:15Z</time>
      </trkpt>
      <trkpt lat="36.7897109985352" lon="-5.09729480743408">
        <ele>796</ele>
        <time>2019-05-11T13:23:17Z</time>
      </trkpt>
      <trkpt lat="36.7897033691406" lon="-5.0972900390625">
        <ele>796</ele>
        <time>2019-05-11T13:23:19Z</time>
      </trkpt>
      <trkpt lat="36.7897033691406" lon="-5.09728479385376">
        <ele>796</ele>
        <time>2019-05-11T13:23:23Z</time>
      </trkpt>
      <trkpt lat="36.7896995544434" lon="-5.09727716445923">
        <ele>796</ele>
        <time>2019-05-11T13:23:25Z</time>
      </trkpt>
      <trkpt lat="36.7896995544434" lon="-5.09726810455322">
        <ele>797</ele>
        <time>2019-05-11T13:23:28Z</time>
      </trkpt>
      <trkpt lat="36.7896995544434" lon="-5.09726476669312">
        <ele>797</ele>
        <time>2019-05-11T13:23:30Z</time>
      </trkpt>
      <trkpt lat="36.7896957397461" lon="-5.09725999832153">
        <ele>798</ele>
        <time>2019-05-11T13:23:32Z</time>
      </trkpt>
      <trkpt lat="36.7896995544434" lon="-5.09725713729858">
        <ele>798</ele>
        <time>2019-05-11T13:23:34Z</time>
      </trkpt>
      <trkpt lat="36.7896957397461" lon="-5.09724998474121">
        <ele>798</ele>
        <time>2019-05-11T13:23:36Z</time>
      </trkpt>
      <trkpt lat="36.7896995544434" lon="-5.09724998474121">
        <ele>798</ele>
        <time>2019-05-11T13:23:38Z</time>
      </trkpt>
      <trkpt lat="36.7896995544434" lon="-5.09725189208984">
        <ele>798</ele>
        <time>2019-05-11T13:23:40Z</time>
      </trkpt>
      <trkpt lat="36.7896995544434" lon="-5.09725189208984">
        <ele>798</ele>
        <time>2019-05-11T13:23:42Z</time>
      </trkpt>
      <trkpt lat="36.7896995544434" lon="-5.09724998474121">
        <ele>798</ele>
        <time>2019-05-11T13:23:44Z</time>
      </trkpt>
      <trkpt lat="36.7897033691406" lon="-5.09724712371826">
        <ele>798</ele>
        <time>2019-05-11T13:23:46Z</time>
      </trkpt>
      <trkpt lat="36.7897033691406" lon="-5.09724187850952">
        <ele>798</ele>
        <time>2019-05-11T13:23:50Z</time>
      </trkpt>
      <trkpt lat="36.7897071838379" lon="-5.09724283218384">
        <ele>798</ele>
        <time>2019-05-11T13:23:52Z</time>
      </trkpt>
      <trkpt lat="36.7897071838379" lon="-5.09724521636963">
        <ele>799</ele>
        <time>2019-05-11T13:23:58Z</time>
      </trkpt>
      <trkpt lat="36.7897148132324" lon="-5.09725284576416">
        <ele>800</ele>
        <time>2019-05-11T13:24:00Z</time>
      </trkpt>
      <trkpt lat="36.7897186279297" lon="-5.09725522994995">
        <ele>800</ele>
        <time>2019-05-11T13:24:02Z</time>
      </trkpt>
      <trkpt lat="36.7897262573242" lon="-5.09725522994995">
        <ele>800</ele>
        <time>2019-05-11T13:24:04Z</time>
      </trkpt>
      <trkpt lat="36.789722442627" lon="-5.09724998474121">
        <ele>800</ele>
        <time>2019-05-11T13:24:06Z</time>
      </trkpt>
      <trkpt lat="36.7897262573242" lon="-5.09724712371826">
        <ele>800</ele>
        <time>2019-05-11T13:24:08Z</time>
      </trkpt>
      <trkpt lat="36.789722442627" lon="-5.09723997116089">
        <ele>801</ele>
        <time>2019-05-11T13:24:10Z</time>
      </trkpt>
      <trkpt lat="36.789722442627" lon="-5.09723281860352">
        <ele>802</ele>
        <time>2019-05-11T13:24:13Z</time>
      </trkpt>
      <trkpt lat="36.789722442627" lon="-5.09722805023193">
        <ele>803</ele>
        <time>2019-05-11T13:24:15Z</time>
      </trkpt>
      <trkpt lat="36.789722442627" lon="-5.09722518920898">
        <ele>805</ele>
        <time>2019-05-11T13:24:19Z</time>
      </trkpt>
      <trkpt lat="36.7897186279297" lon="-5.09722709655762">
        <ele>806</ele>
        <time>2019-05-11T13:24:21Z</time>
      </trkpt>
      <trkpt lat="36.7897186279297" lon="-5.09722709655762">
        <ele>806</ele>
        <time>2019-05-11T13:24:23Z</time>
      </trkpt>
      <trkpt lat="36.7897262573242" lon="-5.09722518920898">
        <ele>806</ele>
        <time>2019-05-11T13:24:25Z</time>
      </trkpt>
      <trkpt lat="36.7897262573242" lon="-5.09722280502319">
        <ele>806</ele>
        <time>2019-05-11T13:24:27Z</time>
      </trkpt>
      <trkpt lat="36.789722442627" lon="-5.09721994400024">
        <ele>806</ele>
        <time>2019-05-11T13:24:29Z</time>
      </trkpt>
      <trkpt lat="36.7897262573242" lon="-5.09722280502319">
        <ele>806</ele>
        <time>2019-05-11T13:24:31Z</time>
      </trkpt>
      <trkpt lat="36.7897262573242" lon="-5.09722280502319">
        <ele>806</ele>
        <time>2019-05-11T13:24:33Z</time>
      </trkpt>
      <trkpt lat="36.7897262573242" lon="-5.09722185134888">
        <ele>806</ele>
        <time>2019-05-11T13:24:35Z</time>
      </trkpt>
      <trkpt lat="36.7897262573242" lon="-5.09722185134888">
        <ele>806</ele>
        <time>2019-05-11T13:24:37Z</time>
      </trkpt>
      <trkpt lat="36.7897338867188" lon="-5.09722518920898">
        <ele>806</ele>
        <time>2019-05-11T13:24:39Z</time>
      </trkpt>
      <trkpt lat="36.789737701416" lon="-5.0972318649292">
        <ele>806</ele>
        <time>2019-05-11T13:24:41Z</time>
      </trkpt>
      <trkpt lat="36.789737701416" lon="-5.09723520278931">
        <ele>806</ele>
        <time>2019-05-11T13:24:43Z</time>
      </trkpt>
      <trkpt lat="36.7897415161133" lon="-5.09723806381226">
        <ele>806</ele>
        <time>2019-05-11T13:24:45Z</time>
      </trkpt>
      <trkpt lat="36.7897415161133" lon="-5.09723997116089">
        <ele>806</ele>
        <time>2019-05-11T13:24:47Z</time>
      </trkpt>
      <trkpt lat="36.7897453308106" lon="-5.09723806381226">
        <ele>806</ele>
        <time>2019-05-11T13:24:49Z</time>
      </trkpt>
      <trkpt lat="36.7897453308106" lon="-5.09723711013794">
        <ele>806</ele>
        <time>2019-05-11T13:24:51Z</time>
      </trkpt>
      <trkpt lat="36.7897491455078" lon="-5.09723520278931">
        <ele>806</ele>
        <time>2019-05-11T13:24:53Z</time>
      </trkpt>
      <trkpt lat="36.7897491455078" lon="-5.0972318649292">
        <ele>806</ele>
        <time>2019-05-11T13:24:55Z</time>
      </trkpt>
      <trkpt lat="36.7897491455078" lon="-5.09723520278931">
        <ele>806</ele>
        <time>2019-05-11T13:24:57Z</time>
      </trkpt>
      <trkpt lat="36.7897491455078" lon="-5.09723281860352">
        <ele>806</ele>
        <time>2019-05-11T13:24:59Z</time>
      </trkpt>
      <trkpt lat="36.7897491455078" lon="-5.09722709655762">
        <ele>806</ele>
        <time>2019-05-11T13:25:01Z</time>
      </trkpt>
      <trkpt lat="36.7897491455078" lon="-5.09722805023193">
        <ele>806</ele>
        <time>2019-05-11T13:25:03Z</time>
      </trkpt>
      <trkpt lat="36.7897529602051" lon="-5.09723281860352">
        <ele>805</ele>
        <time>2019-05-11T13:25:05Z</time>
      </trkpt>
      <trkpt lat="36.7897529602051" lon="-5.09722805023193">
        <ele>805</ele>
        <time>2019-05-11T13:25:07Z</time>
      </trkpt>
      <trkpt lat="36.7897453308106" lon="-5.09722709655762">
        <ele>804</ele>
        <time>2019-05-11T13:25:12Z</time>
      </trkpt>
      <trkpt lat="36.7897415161133" lon="-5.09722518920898">
        <ele>804</ele>
        <time>2019-05-11T13:25:14Z</time>
      </trkpt>
      <trkpt lat="36.7897453308106" lon="-5.09722280502319">
        <ele>804</ele>
        <time>2019-05-11T13:25:16Z</time>
      </trkpt>
      <trkpt lat="36.7897453308106" lon="-5.09722995758057">
        <ele>804</ele>
        <time>2019-05-11T13:25:18Z</time>
      </trkpt>
      <trkpt lat="36.7897453308106" lon="-5.09723281860352">
        <ele>804</ele>
        <time>2019-05-11T13:25:26Z</time>
      </trkpt>
      <trkpt lat="36.7897453308106" lon="-5.09723281860352">
        <ele>804</ele>
        <time>2019-05-11T13:25:28Z</time>
      </trkpt>
      <trkpt lat="36.7897453308106" lon="-5.09723520278931">
        <ele>804</ele>
        <time>2019-05-11T13:25:30Z</time>
      </trkpt>
      <trkpt lat="36.7897415161133" lon="-5.09723520278931">
        <ele>804</ele>
        <time>2019-05-11T13:25:32Z</time>
      </trkpt>
      <trkpt lat="36.789737701416" lon="-5.09723281860352">
        <ele>804</ele>
        <time>2019-05-11T13:25:34Z</time>
      </trkpt>
      <trkpt lat="36.7897338867188" lon="-5.09723281860352">
        <ele>804</ele>
        <time>2019-05-11T13:25:38Z</time>
      </trkpt>
      <trkpt lat="36.7897338867188" lon="-5.09723806381226">
        <ele>804</ele>
        <time>2019-05-11T13:25:40Z</time>
      </trkpt>
      <trkpt lat="36.7897300720215" lon="-5.09722280502319">
        <ele>804</ele>
        <time>2019-05-11T13:25:42Z</time>
      </trkpt>
      <trkpt lat="36.789722442627" lon="-5.09722185134888">
        <ele>804</ele>
        <time>2019-05-11T13:25:48Z</time>
      </trkpt>
      <trkpt lat="36.7897148132324" lon="-5.09720277786255">
        <ele>803</ele>
        <time>2019-05-11T13:25:59Z</time>
      </trkpt>
      <trkpt lat="36.7897109985352" lon="-5.09719276428223">
        <ele>801</ele>
        <time>2019-05-11T13:26:01Z</time>
      </trkpt>
      <trkpt lat="36.7897033691406" lon="-5.09718799591064">
        <ele>800</ele>
        <time>2019-05-11T13:26:07Z</time>
      </trkpt>
      <trkpt lat="36.7896995544434" lon="-5.0971851348877">
        <ele>799</ele>
        <time>2019-05-11T13:26:09Z</time>
      </trkpt>
      <trkpt lat="36.7896957397461" lon="-5.09718322753906">
        <ele>799</ele>
        <time>2019-05-11T13:26:11Z</time>
      </trkpt>
      <trkpt lat="36.7896919250488" lon="-5.0971851348877">
        <ele>799</ele>
        <time>2019-05-11T13:26:13Z</time>
      </trkpt>
      <trkpt lat="36.7896881103516" lon="-5.09718179702759">
        <ele>799</ele>
        <time>2019-05-11T13:26:15Z</time>
      </trkpt>
      <trkpt lat="36.7896919250488" lon="-5.09717702865601">
        <ele>799</ele>
        <time>2019-05-11T13:26:17Z</time>
      </trkpt>
      <trkpt lat="36.7896919250488" lon="-5.09717798233032">
        <ele>799</ele>
        <time>2019-05-11T13:26:19Z</time>
      </trkpt>
      <trkpt lat="36.7896881103516" lon="-5.09717988967896">
        <ele>799</ele>
        <time>2019-05-11T13:26:21Z</time>
      </trkpt>
      <trkpt lat="36.7896842956543" lon="-5.09717988967896">
        <ele>799</ele>
        <time>2019-05-11T13:26:23Z</time>
      </trkpt>
      <trkpt lat="36.789680480957" lon="-5.09717702865601">
        <ele>799</ele>
        <time>2019-05-11T13:26:25Z</time>
      </trkpt>
      <trkpt lat="36.7896881103516" lon="-5.09717988967896">
        <ele>799</ele>
        <time>2019-05-11T13:26:27Z</time>
      </trkpt>
      <trkpt lat="36.7896881103516" lon="-5.09718322753906">
        <ele>799</ele>
        <time>2019-05-11T13:26:29Z</time>
      </trkpt>
      <trkpt lat="36.7896919250488" lon="-5.09719181060791">
        <ele>799</ele>
        <time>2019-05-11T13:26:31Z</time>
      </trkpt>
      <trkpt lat="36.7896881103516" lon="-5.09720706939697">
        <ele>799</ele>
        <time>2019-05-11T13:26:35Z</time>
      </trkpt>
      <trkpt lat="36.7896919250488" lon="-5.09721279144287">
        <ele>799</ele>
        <time>2019-05-11T13:26:37Z</time>
      </trkpt>
      <trkpt lat="36.7896957397461" lon="-5.09721517562866">
        <ele>799</ele>
        <time>2019-05-11T13:26:40Z</time>
      </trkpt>
      <trkpt lat="36.7896957397461" lon="-5.09721279144287">
        <ele>799</ele>
        <time>2019-05-11T13:26:42Z</time>
      </trkpt>
      <trkpt lat="36.7896957397461" lon="-5.09720516204834">
        <ele>799</ele>
        <time>2019-05-11T13:26:46Z</time>
      </trkpt>
      <trkpt lat="36.7896957397461" lon="-5.09721183776856">
        <ele>799</ele>
        <time>2019-05-11T13:26:48Z</time>
      </trkpt>
      <trkpt lat="36.7896995544434" lon="-5.09721279144287">
        <ele>799</ele>
        <time>2019-05-11T13:26:50Z</time>
      </trkpt>
      <trkpt lat="36.7897033691406" lon="-5.09721517562866">
        <ele>800</ele>
        <time>2019-05-11T13:26:54Z</time>
      </trkpt>
      <trkpt lat="36.7897033691406" lon="-5.09722805023193">
        <ele>801</ele>
        <time>2019-05-11T13:26:58Z</time>
      </trkpt>
      <trkpt lat="36.7897033691406" lon="-5.09722709655762">
        <ele>801</ele>
        <time>2019-05-11T13:27:02Z</time>
      </trkpt>
      <trkpt lat="36.7897033691406" lon="-5.09722185134888">
        <ele>801</ele>
        <time>2019-05-11T13:27:04Z</time>
      </trkpt>
      <trkpt lat="36.7897033691406" lon="-5.09721803665161">
        <ele>802</ele>
        <time>2019-05-11T13:27:06Z</time>
      </trkpt>
      <trkpt lat="36.7897033691406" lon="-5.09721183776856">
        <ele>802</ele>
        <time>2019-05-11T13:27:08Z</time>
      </trkpt>
      <trkpt lat="36.7897033691406" lon="-5.09720277786255">
        <ele>804</ele>
        <time>2019-05-11T13:27:14Z</time>
      </trkpt>
      <trkpt lat="36.7897033691406" lon="-5.09720706939697">
        <ele>804</ele>
        <time>2019-05-11T13:27:16Z</time>
      </trkpt>
      <trkpt lat="36.7897033691406" lon="-5.09721279144287">
        <ele>805</ele>
        <time>2019-05-11T13:27:20Z</time>
      </trkpt>
      <trkpt lat="36.7897071838379" lon="-5.09722280502319">
        <ele>805</ele>
        <time>2019-05-11T13:27:22Z</time>
      </trkpt>
      <trkpt lat="36.7897033691406" lon="-5.0972318649292">
        <ele>805</ele>
        <time>2019-05-11T13:27:26Z</time>
      </trkpt>
      <trkpt lat="36.7897071838379" lon="-5.09723806381226">
        <ele>805</ele>
        <time>2019-05-11T13:27:28Z</time>
      </trkpt>
      <trkpt lat="36.7897071838379" lon="-5.09722995758057">
        <ele>805</ele>
        <time>2019-05-11T13:27:49Z</time>
      </trkpt>
      <trkpt lat="36.7896995544434" lon="-5.0972170829773">
        <ele>805</ele>
        <time>2019-05-11T13:27:51Z</time>
      </trkpt>
      <trkpt lat="36.7896842956543" lon="-5.09719705581665">
        <ele>805</ele>
        <time>2019-05-11T13:27:55Z</time>
      </trkpt>
      <trkpt lat="36.789680480957" lon="-5.09718990325928">
        <ele>805</ele>
        <time>2019-05-11T13:27:57Z</time>
      </trkpt>
      <trkpt lat="36.789680480957" lon="-5.09718799591064">
        <ele>805</ele>
        <time>2019-05-11T13:27:59Z</time>
      </trkpt>
      <trkpt lat="36.7896881103516" lon="-5.0971851348877">
        <ele>805</ele>
        <time>2019-05-11T13:28:01Z</time>
      </trkpt>
      <trkpt lat="36.7896881103516" lon="-5.0971851348877">
        <ele>805</ele>
        <time>2019-05-11T13:28:03Z</time>
      </trkpt>
      <trkpt lat="36.7896957397461" lon="-5.09718799591064">
        <ele>805</ele>
        <time>2019-05-11T13:28:07Z</time>
      </trkpt>
      <trkpt lat="36.7896995544434" lon="-5.09719181060791">
        <ele>805</ele>
        <time>2019-05-11T13:28:09Z</time>
      </trkpt>
      <trkpt lat="36.7897071838379" lon="-5.09721803665161">
        <ele>799</ele>
        <time>2019-05-11T13:28:24Z</time>
      </trkpt>
      <trkpt lat="36.7897109985352" lon="-5.09722518920898">
        <ele>798</ele>
        <time>2019-05-11T13:28:30Z</time>
      </trkpt>
      <trkpt lat="36.7897148132324" lon="-5.09722805023193">
        <ele>798</ele>
        <time>2019-05-11T13:28:34Z</time>
      </trkpt>
      <trkpt lat="36.7897262573242" lon="-5.0972728729248">
        <ele>798</ele>
        <time>2019-05-11T13:28:40Z</time>
      </trkpt>
      <trkpt lat="36.7897300720215" lon="-5.09728813171387">
        <ele>798</ele>
        <time>2019-05-11T13:28:42Z</time>
      </trkpt>
      <trkpt lat="36.7897300720215" lon="-5.09730195999146">
        <ele>798</ele>
        <time>2019-05-11T13:28:44Z</time>
      </trkpt>
      <trkpt lat="36.7897262573242" lon="-5.0973048210144">
        <ele>798</ele>
        <time>2019-05-11T13:28:46Z</time>
      </trkpt>
      <trkpt lat="36.7897300720215" lon="-5.09730291366577">
        <ele>798</ele>
        <time>2019-05-11T13:28:48Z</time>
      </trkpt>
      <trkpt lat="36.7897338867188" lon="-5.09730291366577">
        <ele>798</ele>
        <time>2019-05-11T13:28:50Z</time>
      </trkpt>
      <trkpt lat="36.7897338867188" lon="-5.09730195999146">
        <ele>798</ele>
        <time>2019-05-11T13:28:52Z</time>
      </trkpt>
      <trkpt lat="36.7897338867188" lon="-5.09729719161987">
        <ele>798</ele>
        <time>2019-05-11T13:28:54Z</time>
      </trkpt>
      <trkpt lat="36.7897338867188" lon="-5.09729194641113">
        <ele>799</ele>
        <time>2019-05-11T13:28:56Z</time>
      </trkpt>
      <trkpt lat="36.7897262573242" lon="-5.09728813171387">
        <ele>800</ele>
        <time>2019-05-11T13:28:59Z</time>
      </trkpt>
      <trkpt lat="36.7897415161133" lon="-5.09728717803955">
        <ele>801</ele>
        <time>2019-05-11T13:29:01Z</time>
      </trkpt>
      <trkpt lat="36.7897415161133" lon="-5.09728002548218">
        <ele>802</ele>
        <time>2019-05-11T13:29:03Z</time>
      </trkpt>
      <trkpt lat="36.7897453308106" lon="-5.09727478027344">
        <ele>804</ele>
        <time>2019-05-11T13:29:05Z</time>
      </trkpt>
      <trkpt lat="36.7897415161133" lon="-5.09727191925049">
        <ele>806</ele>
        <time>2019-05-11T13:29:07Z</time>
      </trkpt>
      <trkpt lat="36.789737701416" lon="-5.09726476669312">
        <ele>807</ele>
        <time>2019-05-11T13:29:09Z</time>
      </trkpt>
      <trkpt lat="36.7897453308106" lon="-5.09723997116089">
        <ele>809</ele>
        <time>2019-05-11T13:29:11Z</time>
      </trkpt>
      <trkpt lat="36.789737701416" lon="-5.0972170829773">
        <ele>809</ele>
        <time>2019-05-11T13:29:13Z</time>
      </trkpt>
      <trkpt lat="36.7897338867188" lon="-5.0971999168396">
        <ele>809</ele>
        <time>2019-05-11T13:29:15Z</time>
      </trkpt>
      <trkpt lat="36.7897262573242" lon="-5.09719181060791">
        <ele>809</ele>
        <time>2019-05-11T13:29:17Z</time>
      </trkpt>
      <trkpt lat="36.7897262573242" lon="-5.09719276428223">
        <ele>809</ele>
        <time>2019-05-11T13:29:19Z</time>
      </trkpt>
      <trkpt lat="36.7897262573242" lon="-5.09719514846802">
        <ele>809</ele>
        <time>2019-05-11T13:29:21Z</time>
      </trkpt>
      <trkpt lat="36.789722442627" lon="-5.0971999168396">
        <ele>809</ele>
        <time>2019-05-11T13:29:23Z</time>
      </trkpt>
      <trkpt lat="36.789722442627" lon="-5.09720277786255">
        <ele>809</ele>
        <time>2019-05-11T13:29:25Z</time>
      </trkpt>
      <trkpt lat="36.7897262573242" lon="-5.09720802307129">
        <ele>808</ele>
        <time>2019-05-11T13:29:27Z</time>
      </trkpt>
      <trkpt lat="36.7897415161133" lon="-5.09722280502319">
        <ele>808</ele>
        <time>2019-05-11T13:29:31Z</time>
      </trkpt>
      <trkpt lat="36.7897453308106" lon="-5.09722518920898">
        <ele>806</ele>
        <time>2019-05-11T13:29:33Z</time>
      </trkpt>
      <trkpt lat="36.7897529602051" lon="-5.09722518920898">
        <ele>806</ele>
        <time>2019-05-11T13:29:35Z</time>
      </trkpt>
      <trkpt lat="36.7897567749023" lon="-5.09722518920898">
        <ele>806</ele>
        <time>2019-05-11T13:29:38Z</time>
      </trkpt>
      <trkpt lat="36.7897567749023" lon="-5.09722709655762">
        <ele>806</ele>
        <time>2019-05-11T13:29:40Z</time>
      </trkpt>
      <trkpt lat="36.7897529602051" lon="-5.09722995758057">
        <ele>806</ele>
        <time>2019-05-11T13:29:46Z</time>
      </trkpt>
      <trkpt lat="36.7897529602051" lon="-5.0972318649292">
        <ele>806</ele>
        <time>2019-05-11T13:29:48Z</time>
      </trkpt>
      <trkpt lat="36.7897529602051" lon="-5.09723520278931">
        <ele>806</ele>
        <time>2019-05-11T13:29:52Z</time>
      </trkpt>
      <trkpt lat="36.7897529602051" lon="-5.09723520278931">
        <ele>806</ele>
        <time>2019-05-11T13:29:54Z</time>
      </trkpt>
      <trkpt lat="36.7897529602051" lon="-5.09723520278931">
        <ele>806</ele>
        <time>2019-05-11T13:29:56Z</time>
      </trkpt>
      <trkpt lat="36.7897529602051" lon="-5.09723711013794">
        <ele>806</ele>
        <time>2019-05-11T13:29:58Z</time>
      </trkpt>
      <trkpt lat="36.7897529602051" lon="-5.09723806381226">
        <ele>806</ele>
        <time>2019-05-11T13:30:00Z</time>
      </trkpt>
      <trkpt lat="36.7897567749023" lon="-5.09723520278931">
        <ele>805</ele>
        <time>2019-05-11T13:30:04Z</time>
      </trkpt>
      <trkpt lat="36.7897567749023" lon="-5.09723711013794">
        <ele>804</ele>
        <time>2019-05-11T13:30:06Z</time>
      </trkpt>
      <trkpt lat="36.7897605895996" lon="-5.09723281860352">
        <ele>804</ele>
        <time>2019-05-11T13:30:08Z</time>
      </trkpt>
      <trkpt lat="36.7897682189941" lon="-5.09722805023193">
        <ele>803</ele>
        <time>2019-05-11T13:30:10Z</time>
      </trkpt>
      <trkpt lat="36.7897872924805" lon="-5.09722185134888">
        <ele>803</ele>
        <time>2019-05-11T13:30:12Z</time>
      </trkpt>
      <trkpt lat="36.7898025512695" lon="-5.0972170829773">
        <ele>801</ele>
        <time>2019-05-11T13:30:14Z</time>
      </trkpt>
      <trkpt lat="36.7898292541504" lon="-5.09721803665161">
        <ele>801</ele>
        <time>2019-05-11T13:30:16Z</time>
      </trkpt>
      <trkpt lat="36.7898368835449" lon="-5.09723281860352">
        <ele>800</ele>
        <time>2019-05-11T13:30:18Z</time>
      </trkpt>
      <trkpt lat="36.7898483276367" lon="-5.09725284576416">
        <ele>799</ele>
        <time>2019-05-11T13:30:20Z</time>
      </trkpt>
      <trkpt lat="36.7898559570312" lon="-5.0972728729248">
        <ele>799</ele>
        <time>2019-05-11T13:30:22Z</time>
      </trkpt>
      <trkpt lat="36.7898635864258" lon="-5.09729814529419">
        <ele>798</ele>
        <time>2019-05-11T13:30:24Z</time>
      </trkpt>
      <trkpt lat="36.7898750305176" lon="-5.09732007980347">
        <ele>798</ele>
        <time>2019-05-11T13:30:26Z</time>
      </trkpt>
      <trkpt lat="36.7898826599121" lon="-5.09734201431274">
        <ele>798</ele>
        <time>2019-05-11T13:30:28Z</time>
      </trkpt>
      <trkpt lat="36.7898941040039" lon="-5.09736680984497">
        <ele>798</ele>
        <time>2019-05-11T13:30:31Z</time>
      </trkpt>
      <trkpt lat="36.7899017333984" lon="-5.09739017486572">
        <ele>798</ele>
        <time>2019-05-11T13:30:33Z</time>
      </trkpt>
      <trkpt lat="36.7899131774902" lon="-5.09742021560669">
        <ele>798</ele>
        <time>2019-05-11T13:30:35Z</time>
      </trkpt>
      <trkpt lat="36.789924621582" lon="-5.09744691848755">
        <ele>798</ele>
        <time>2019-05-11T13:30:37Z</time>
      </trkpt>
      <trkpt lat="36.7899360656738" lon="-5.09746789932251">
        <ele>798</ele>
        <time>2019-05-11T13:30:39Z</time>
      </trkpt>
      <trkpt lat="36.7899475097656" lon="-5.09749221801758">
        <ele>798</ele>
        <time>2019-05-11T13:30:41Z</time>
      </trkpt>
      <trkpt lat="36.7899589538574" lon="-5.09752321243286">
        <ele>798</ele>
        <time>2019-05-11T13:30:43Z</time>
      </trkpt>
      <trkpt lat="36.789966583252" lon="-5.09754991531372">
        <ele>798</ele>
        <time>2019-05-11T13:30:45Z</time>
      </trkpt>
      <trkpt lat="36.7899780273438" lon="-5.09757709503174">
        <ele>798</ele>
        <time>2019-05-11T13:30:47Z</time>
      </trkpt>
      <trkpt lat="36.7899856567383" lon="-5.09760189056396">
        <ele>798</ele>
        <time>2019-05-11T13:30:49Z</time>
      </trkpt>
      <trkpt lat="36.7900047302246" lon="-5.0976448059082">
        <ele>798</ele>
        <time>2019-05-11T13:30:51Z</time>
      </trkpt>
      <trkpt lat="36.7900123596191" lon="-5.09767198562622">
        <ele>798</ele>
        <time>2019-05-11T13:30:53Z</time>
      </trkpt>
      <trkpt lat="36.7900238037109" lon="-5.09770488739014">
        <ele>798</ele>
        <time>2019-05-11T13:30:55Z</time>
      </trkpt>
      <trkpt lat="36.7900314331055" lon="-5.09773302078247">
        <ele>798</ele>
        <time>2019-05-11T13:30:57Z</time>
      </trkpt>
      <trkpt lat="36.7900428771973" lon="-5.09776210784912">
        <ele>798</ele>
        <time>2019-05-11T13:30:59Z</time>
      </trkpt>
      <trkpt lat="36.7900543212891" lon="-5.09778785705566">
        <ele>797</ele>
        <time>2019-05-11T13:31:01Z</time>
      </trkpt>
      <trkpt lat="36.7900657653809" lon="-5.09781694412231">
        <ele>796</ele>
        <time>2019-05-11T13:31:03Z</time>
      </trkpt>
      <trkpt lat="36.7900772094727" lon="-5.09784698486328">
        <ele>796</ele>
        <time>2019-05-11T13:31:06Z</time>
      </trkpt>
      <trkpt lat="36.7900886535644" lon="-5.09787702560425">
        <ele>796</ele>
        <time>2019-05-11T13:31:08Z</time>
      </trkpt>
      <trkpt lat="36.7901000976562" lon="-5.09790277481079">
        <ele>796</ele>
        <time>2019-05-11T13:31:10Z</time>
      </trkpt>
      <trkpt lat="36.7901153564453" lon="-5.09792995452881">
        <ele>796</ele>
        <time>2019-05-11T13:31:12Z</time>
      </trkpt>
      <trkpt lat="36.7901306152344" lon="-5.09795808792114">
        <ele>795</ele>
        <time>2019-05-11T13:31:14Z</time>
      </trkpt>
      <trkpt lat="36.7901382446289" lon="-5.09798812866211">
        <ele>795</ele>
        <time>2019-05-11T13:31:16Z</time>
      </trkpt>
      <trkpt lat="36.790153503418" lon="-5.09802007675171">
        <ele>795</ele>
        <time>2019-05-11T13:31:18Z</time>
      </trkpt>
      <trkpt lat="36.7901611328125" lon="-5.09805011749268">
        <ele>795</ele>
        <time>2019-05-11T13:31:20Z</time>
      </trkpt>
      <trkpt lat="36.7901725769043" lon="-5.09808206558228">
        <ele>795</ele>
        <time>2019-05-11T13:31:22Z</time>
      </trkpt>
      <trkpt lat="36.7901878356934" lon="-5.09810781478882">
        <ele>794</ele>
        <time>2019-05-11T13:31:24Z</time>
      </trkpt>
      <trkpt lat="36.7902030944824" lon="-5.09813499450684">
        <ele>794</ele>
        <time>2019-05-11T13:31:26Z</time>
      </trkpt>
      <trkpt lat="36.7902221679688" lon="-5.09817695617676">
        <ele>794</ele>
        <time>2019-05-11T13:31:28Z</time>
      </trkpt>
      <trkpt lat="36.7902336120606" lon="-5.09820699691772">
        <ele>794</ele>
        <time>2019-05-11T13:31:30Z</time>
      </trkpt>
      <trkpt lat="36.7902412414551" lon="-5.09823513031006">
        <ele>794</ele>
        <time>2019-05-11T13:31:32Z</time>
      </trkpt>
      <trkpt lat="36.7902565002441" lon="-5.09826278686523">
        <ele>794</ele>
        <time>2019-05-11T13:31:34Z</time>
      </trkpt>
      <trkpt lat="36.7902679443359" lon="-5.0982928276062">
        <ele>794</ele>
        <time>2019-05-11T13:31:36Z</time>
      </trkpt>
      <trkpt lat="36.7902755737305" lon="-5.0983247756958">
        <ele>794</ele>
        <time>2019-05-11T13:31:38Z</time>
      </trkpt>
      <trkpt lat="36.790283203125" lon="-5.09835720062256">
        <ele>794</ele>
        <time>2019-05-11T13:31:41Z</time>
      </trkpt>
      <trkpt lat="36.7902870178223" lon="-5.09839010238647">
        <ele>794</ele>
        <time>2019-05-11T13:31:43Z</time>
      </trkpt>
      <trkpt lat="36.7902984619141" lon="-5.09842014312744">
        <ele>794</ele>
        <time>2019-05-11T13:31:45Z</time>
      </trkpt>
      <trkpt lat="36.7903137207031" lon="-5.09844779968262">
        <ele>794</ele>
        <time>2019-05-11T13:31:47Z</time>
      </trkpt>
      <trkpt lat="36.7903289794922" lon="-5.09847688674927">
        <ele>794</ele>
        <time>2019-05-11T13:31:49Z</time>
      </trkpt>
      <trkpt lat="36.790340423584" lon="-5.09850311279297">
        <ele>793</ele>
        <time>2019-05-11T13:31:51Z</time>
      </trkpt>
      <trkpt lat="36.790355682373" lon="-5.09852981567383">
        <ele>793</ele>
        <time>2019-05-11T13:31:53Z</time>
      </trkpt>
      <trkpt lat="36.7903671264648" lon="-5.09855794906616">
        <ele>792</ele>
        <time>2019-05-11T13:31:55Z</time>
      </trkpt>
      <trkpt lat="36.7903785705566" lon="-5.09858703613281">
        <ele>791</ele>
        <time>2019-05-11T13:31:57Z</time>
      </trkpt>
      <trkpt lat="36.7903938293457" lon="-5.09861516952515">
        <ele>791</ele>
        <time>2019-05-11T13:31:59Z</time>
      </trkpt>
      <trkpt lat="36.7904014587402" lon="-5.09864187240601">
        <ele>791</ele>
        <time>2019-05-11T13:32:01Z</time>
      </trkpt>
      <trkpt lat="36.7904205322266" lon="-5.09868001937866">
        <ele>790</ele>
        <time>2019-05-11T13:32:03Z</time>
      </trkpt>
      <trkpt lat="36.7904319763184" lon="-5.09870481491089">
        <ele>790</ele>
        <time>2019-05-11T13:32:05Z</time>
      </trkpt>
      <trkpt lat="36.7904472351074" lon="-5.09873294830322">
        <ele>790</ele>
        <time>2019-05-11T13:32:07Z</time>
      </trkpt>
      <trkpt lat="36.7904586791992" lon="-5.09876203536987">
        <ele>790</ele>
        <time>2019-05-11T13:32:09Z</time>
      </trkpt>
      <trkpt lat="36.7904739379883" lon="-5.09878778457642">
        <ele>789</ele>
        <time>2019-05-11T13:32:11Z</time>
      </trkpt>
      <trkpt lat="36.7904853820801" lon="-5.09881782531738">
        <ele>789</ele>
        <time>2019-05-11T13:32:13Z</time>
      </trkpt>
      <trkpt lat="36.7904968261719" lon="-5.09884214401245">
        <ele>789</ele>
        <time>2019-05-11T13:32:16Z</time>
      </trkpt>
      <trkpt lat="36.7905044555664" lon="-5.09886789321899">
        <ele>789</ele>
        <time>2019-05-11T13:32:18Z</time>
      </trkpt>
      <trkpt lat="36.7905158996582" lon="-5.09889316558838">
        <ele>788</ele>
        <time>2019-05-11T13:32:20Z</time>
      </trkpt>
      <trkpt lat="36.7905235290527" lon="-5.09892320632935">
        <ele>788</ele>
        <time>2019-05-11T13:32:22Z</time>
      </trkpt>
      <trkpt lat="36.7905387878418" lon="-5.09895181655884">
        <ele>788</ele>
        <time>2019-05-11T13:32:24Z</time>
      </trkpt>
      <trkpt lat="36.7905464172363" lon="-5.09897994995117">
        <ele>788</ele>
        <time>2019-05-11T13:32:26Z</time>
      </trkpt>
      <trkpt lat="36.7905578613281" lon="-5.09900808334351">
        <ele>788</ele>
        <time>2019-05-11T13:32:28Z</time>
      </trkpt>
      <trkpt lat="36.7905693054199" lon="-5.09903287887573">
        <ele>788</ele>
        <time>2019-05-11T13:32:30Z</time>
      </trkpt>
      <trkpt lat="36.7905807495117" lon="-5.09906482696533">
        <ele>788</ele>
        <time>2019-05-11T13:32:32Z</time>
      </trkpt>
      <trkpt lat="36.7905921936035" lon="-5.0990948677063">
        <ele>788</ele>
        <time>2019-05-11T13:32:34Z</time>
      </trkpt>
      <trkpt lat="36.7906036376953" lon="-5.09912204742432">
        <ele>788</ele>
        <time>2019-05-11T13:32:36Z</time>
      </trkpt>
      <trkpt lat="36.7906188964844" lon="-5.09916305541992">
        <ele>786</ele>
        <time>2019-05-11T13:32:38Z</time>
      </trkpt>
      <trkpt lat="36.7906265258789" lon="-5.09919500350952">
        <ele>786</ele>
        <time>2019-05-11T13:32:40Z</time>
      </trkpt>
      <trkpt lat="36.790641784668" lon="-5.09922218322754">
        <ele>786</ele>
        <time>2019-05-11T13:32:42Z</time>
      </trkpt>
      <trkpt lat="36.7906532287598" lon="-5.09924221038818">
        <ele>786</ele>
        <time>2019-05-11T13:32:44Z</time>
      </trkpt>
      <trkpt lat="36.7906723022461" lon="-5.09926700592041">
        <ele>786</ele>
        <time>2019-05-11T13:32:46Z</time>
      </trkpt>
      <trkpt lat="36.7906875610352" lon="-5.09929323196411">
        <ele>786</ele>
        <time>2019-05-11T13:32:48Z</time>
      </trkpt>
      <trkpt lat="36.7906913757324" lon="-5.09932518005371">
        <ele>786</ele>
        <time>2019-05-11T13:32:50Z</time>
      </trkpt>
      <trkpt lat="36.7907066345215" lon="-5.09935522079468">
        <ele>786</ele>
        <time>2019-05-11T13:32:53Z</time>
      </trkpt>
      <trkpt lat="36.790714263916" lon="-5.09938812255859">
        <ele>786</ele>
        <time>2019-05-11T13:32:55Z</time>
      </trkpt>
      <trkpt lat="36.7907257080078" lon="-5.09941816329956">
        <ele>786</ele>
        <time>2019-05-11T13:32:57Z</time>
      </trkpt>
      <trkpt lat="36.7907333374023" lon="-5.09944820404053">
        <ele>786</ele>
        <time>2019-05-11T13:32:59Z</time>
      </trkpt>
      <trkpt lat="36.7907485961914" lon="-5.09947490692139">
        <ele>786</ele>
        <time>2019-05-11T13:33:01Z</time>
      </trkpt>
      <trkpt lat="36.7907562255859" lon="-5.09950494766235">
        <ele>786</ele>
        <time>2019-05-11T13:33:03Z</time>
      </trkpt>
      <trkpt lat="36.790771484375" lon="-5.09953498840332">
        <ele>786</ele>
        <time>2019-05-11T13:33:05Z</time>
      </trkpt>
      <trkpt lat="36.7907867431641" lon="-5.09956312179565">
        <ele>786</ele>
        <time>2019-05-11T13:33:07Z</time>
      </trkpt>
      <trkpt lat="36.7907981872559" lon="-5.09959506988525">
        <ele>786</ele>
        <time>2019-05-11T13:33:09Z</time>
      </trkpt>
      <trkpt lat="36.7908096313477" lon="-5.09962701797485">
        <ele>786</ele>
        <time>2019-05-11T13:33:11Z</time>
      </trkpt>
      <trkpt lat="36.790828704834" lon="-5.09967279434204">
        <ele>786</ele>
        <time>2019-05-11T13:33:13Z</time>
      </trkpt>
      <trkpt lat="36.7908401489258" lon="-5.09970712661743">
        <ele>786</ele>
        <time>2019-05-11T13:33:15Z</time>
      </trkpt>
      <trkpt lat="36.7908515930176" lon="-5.09973812103272">
        <ele>786</ele>
        <time>2019-05-11T13:33:17Z</time>
      </trkpt>
      <trkpt lat="36.7908630371094" lon="-5.09977006912231">
        <ele>786</ele>
        <time>2019-05-11T13:33:19Z</time>
      </trkpt>
      <trkpt lat="36.7908782958984" lon="-5.09979820251465">
        <ele>786</ele>
        <time>2019-05-11T13:33:21Z</time>
      </trkpt>
      <trkpt lat="36.790885925293" lon="-5.09982299804688">
        <ele>786</ele>
        <time>2019-05-11T13:33:23Z</time>
      </trkpt>
      <trkpt lat="36.7908973693848" lon="-5.09985017776489">
        <ele>786</ele>
        <time>2019-05-11T13:33:25Z</time>
      </trkpt>
      <trkpt lat="36.7909088134766" lon="-5.09987688064575">
        <ele>786</ele>
        <time>2019-05-11T13:33:28Z</time>
      </trkpt>
      <trkpt lat="36.7909202575684" lon="-5.09990215301514">
        <ele>785</ele>
        <time>2019-05-11T13:33:30Z</time>
      </trkpt>
      <trkpt lat="36.7909393310547" lon="-5.0999231338501">
        <ele>785</ele>
        <time>2019-05-11T13:33:32Z</time>
      </trkpt>
      <trkpt lat="36.7909545898438" lon="-5.09994792938232">
        <ele>785</ele>
        <time>2019-05-11T13:33:34Z</time>
      </trkpt>
      <trkpt lat="36.7909698486328" lon="-5.09997320175171">
        <ele>785</ele>
        <time>2019-05-11T13:33:36Z</time>
      </trkpt>
      <trkpt lat="36.7909812927246" lon="-5.10000276565552">
        <ele>785</ele>
        <time>2019-05-11T13:33:38Z</time>
      </trkpt>
      <trkpt lat="36.7910003662109" lon="-5.10002708435059">
        <ele>785</ele>
        <time>2019-05-11T13:33:40Z</time>
      </trkpt>
      <trkpt lat="36.791015625" lon="-5.10005521774292">
        <ele>784</ele>
        <time>2019-05-11T13:33:42Z</time>
      </trkpt>
      <trkpt lat="36.7910270690918" lon="-5.1000828742981">
        <ele>784</ele>
        <time>2019-05-11T13:33:44Z</time>
      </trkpt>
      <trkpt lat="36.7910461425781" lon="-5.10010814666748">
        <ele>784</ele>
        <time>2019-05-11T13:33:46Z</time>
      </trkpt>
      <trkpt lat="36.7910652160644" lon="-5.10013294219971">
        <ele>784</ele>
        <time>2019-05-11T13:33:48Z</time>
      </trkpt>
      <trkpt lat="36.7910804748535" lon="-5.10015678405762">
        <ele>784</ele>
        <time>2019-05-11T13:33:50Z</time>
      </trkpt>
      <trkpt lat="36.7910995483398" lon="-5.100182056427">
        <ele>784</ele>
        <time>2019-05-11T13:33:52Z</time>
      </trkpt>
      <trkpt lat="36.7911148071289" lon="-5.10020780563354">
        <ele>783</ele>
        <time>2019-05-11T13:33:54Z</time>
      </trkpt>
      <trkpt lat="36.7911338806152" lon="-5.1002402305603">
        <ele>783</ele>
        <time>2019-05-11T13:33:56Z</time>
      </trkpt>
      <trkpt lat="36.7911529541016" lon="-5.10026693344116">
        <ele>782</ele>
        <time>2019-05-11T13:33:58Z</time>
      </trkpt>
      <trkpt lat="36.7911758422852" lon="-5.10030317306519">
        <ele>781</ele>
        <time>2019-05-11T13:34:00Z</time>
      </trkpt>
      <trkpt lat="36.7911834716797" lon="-5.10032510757446">
        <ele>781</ele>
        <time>2019-05-11T13:34:02Z</time>
      </trkpt>
      <trkpt lat="36.7911834716797" lon="-5.10032987594604">
        <ele>781</ele>
        <time>2019-05-11T13:34:04Z</time>
      </trkpt>
      <trkpt lat="36.7911834716797" lon="-5.10033512115478">
        <ele>781</ele>
        <time>2019-05-11T13:34:06Z</time>
      </trkpt>
      <trkpt lat="36.791187286377" lon="-5.100341796875">
        <ele>781</ele>
        <time>2019-05-11T13:34:08Z</time>
      </trkpt>
      <trkpt lat="36.791187286377" lon="-5.10034704208374">
        <ele>781</ele>
        <time>2019-05-11T13:34:10Z</time>
      </trkpt>
      <trkpt lat="36.7911911010742" lon="-5.10035276412964">
        <ele>781</ele>
        <time>2019-05-11T13:34:12Z</time>
      </trkpt>
      <trkpt lat="36.7911911010742" lon="-5.10035991668701">
        <ele>781</ele>
        <time>2019-05-11T13:34:14Z</time>
      </trkpt>
      <trkpt lat="36.7911911010742" lon="-5.10036182403564">
        <ele>781</ele>
        <time>2019-05-11T13:34:16Z</time>
      </trkpt>
      <trkpt lat="36.791202545166" lon="-5.10036706924438">
        <ele>781</ele>
        <time>2019-05-11T13:34:18Z</time>
      </trkpt>
      <trkpt lat="36.791202545166" lon="-5.10037183761597">
        <ele>781</ele>
        <time>2019-05-11T13:34:20Z</time>
      </trkpt>
      <trkpt lat="36.7912063598633" lon="-5.10037517547607">
        <ele>781</ele>
        <time>2019-05-11T13:34:22Z</time>
      </trkpt>
      <trkpt lat="36.7912063598633" lon="-5.10037803649902">
        <ele>781</ele>
        <time>2019-05-11T13:34:24Z</time>
      </trkpt>
      <trkpt lat="36.7912063598633" lon="-5.10038185119629">
        <ele>781</ele>
        <time>2019-05-11T13:34:26Z</time>
      </trkpt>
      <trkpt lat="36.7912063598633" lon="-5.1003851890564">
        <ele>781</ele>
        <time>2019-05-11T13:34:28Z</time>
      </trkpt>
      <trkpt lat="36.7912063598633" lon="-5.10038709640503">
        <ele>781</ele>
        <time>2019-05-11T13:34:30Z</time>
      </trkpt>
      <trkpt lat="36.7912101745606" lon="-5.10038995742798">
        <ele>781</ele>
        <time>2019-05-11T13:34:32Z</time>
      </trkpt>
      <trkpt lat="36.7912139892578" lon="-5.1003999710083">
        <ele>781</ele>
        <time>2019-05-11T13:34:34Z</time>
      </trkpt>
      <trkpt lat="36.7912178039551" lon="-5.10040187835693">
        <ele>781</ele>
        <time>2019-05-11T13:34:36Z</time>
      </trkpt>
      <trkpt lat="36.7912254333496" lon="-5.10040998458862">
        <ele>781</ele>
        <time>2019-05-11T13:34:38Z</time>
      </trkpt>
      <trkpt lat="36.7912406921387" lon="-5.10042810440064">
        <ele>781</ele>
        <time>2019-05-11T13:34:40Z</time>
      </trkpt>
      <trkpt lat="36.7912559509277" lon="-5.10044717788696">
        <ele>781</ele>
        <time>2019-05-11T13:34:42Z</time>
      </trkpt>
      <trkpt lat="36.7912673950195" lon="-5.10046720504761">
        <ele>781</ele>
        <time>2019-05-11T13:34:44Z</time>
      </trkpt>
      <trkpt lat="36.7912788391113" lon="-5.10048818588257">
        <ele>781</ele>
        <time>2019-05-11T13:34:46Z</time>
      </trkpt>
      <trkpt lat="36.7912940979004" lon="-5.10050678253174">
        <ele>781</ele>
        <time>2019-05-11T13:34:48Z</time>
      </trkpt>
      <trkpt lat="36.7913093566894" lon="-5.1005277633667">
        <ele>781</ele>
        <time>2019-05-11T13:34:51Z</time>
      </trkpt>
      <trkpt lat="36.7913246154785" lon="-5.10055017471314">
        <ele>781</ele>
        <time>2019-05-11T13:34:53Z</time>
      </trkpt>
      <trkpt lat="36.7913398742676" lon="-5.10057306289673">
        <ele>780</ele>
        <time>2019-05-11T13:34:55Z</time>
      </trkpt>
      <trkpt lat="36.7913589477539" lon="-5.10059785842896">
        <ele>780</ele>
        <time>2019-05-11T13:34:57Z</time>
      </trkpt>
      <trkpt lat="36.791374206543" lon="-5.1006178855896">
        <ele>779</ele>
        <time>2019-05-11T13:34:59Z</time>
      </trkpt>
      <trkpt lat="36.7913856506348" lon="-5.10063791275024">
        <ele>779</ele>
        <time>2019-05-11T13:35:01Z</time>
      </trkpt>
      <trkpt lat="36.7914047241211" lon="-5.10066223144531">
        <ele>779</ele>
        <time>2019-05-11T13:35:03Z</time>
      </trkpt>
      <trkpt lat="36.7914237976074" lon="-5.10067701339722">
        <ele>778</ele>
        <time>2019-05-11T13:35:05Z</time>
      </trkpt>
      <trkpt lat="36.7914390563965" lon="-5.10069704055786">
        <ele>778</ele>
        <time>2019-05-11T13:35:07Z</time>
      </trkpt>
      <trkpt lat="36.7914543151856" lon="-5.10072183609009">
        <ele>776</ele>
        <time>2019-05-11T13:35:09Z</time>
      </trkpt>
      <trkpt lat="36.7914695739746" lon="-5.10074520111084">
        <ele>776</ele>
        <time>2019-05-11T13:35:11Z</time>
      </trkpt>
      <trkpt lat="36.7914848327637" lon="-5.10076522827148">
        <ele>776</ele>
        <time>2019-05-11T13:35:13Z</time>
      </trkpt>
      <trkpt lat="36.7915077209473" lon="-5.10079479217529">
        <ele>776</ele>
        <time>2019-05-11T13:35:15Z</time>
      </trkpt>
      <trkpt lat="36.7915229797363" lon="-5.1008129119873">
        <ele>775</ele>
        <time>2019-05-11T13:35:17Z</time>
      </trkpt>
      <trkpt lat="36.7915306091309" lon="-5.10083723068237">
        <ele>775</ele>
        <time>2019-05-11T13:35:19Z</time>
      </trkpt>
      <trkpt lat="36.7915458679199" lon="-5.10086679458618">
        <ele>775</ele>
        <time>2019-05-11T13:35:21Z</time>
      </trkpt>
      <trkpt lat="36.791561126709" lon="-5.10089206695557">
        <ele>775</ele>
        <time>2019-05-11T13:35:23Z</time>
      </trkpt>
      <trkpt lat="36.7915840148926" lon="-5.10091686248779">
        <ele>775</ele>
        <time>2019-05-11T13:35:25Z</time>
      </trkpt>
      <trkpt lat="36.7916030883789" lon="-5.10093784332275">
        <ele>775</ele>
        <time>2019-05-11T13:35:27Z</time>
      </trkpt>
      <trkpt lat="36.7916221618652" lon="-5.10096216201782">
        <ele>775</ele>
        <time>2019-05-11T13:35:30Z</time>
      </trkpt>
      <trkpt lat="36.791633605957" lon="-5.10098791122436">
        <ele>775</ele>
        <time>2019-05-11T13:35:32Z</time>
      </trkpt>
      <trkpt lat="36.7916526794434" lon="-5.10101222991943">
        <ele>775</ele>
        <time>2019-05-11T13:35:34Z</time>
      </trkpt>
      <trkpt lat="36.7916717529297" lon="-5.10103797912598">
        <ele>775</ele>
        <time>2019-05-11T13:35:36Z</time>
      </trkpt>
      <trkpt lat="36.7916831970215" lon="-5.10105991363525">
        <ele>775</ele>
        <time>2019-05-11T13:35:38Z</time>
      </trkpt>
      <trkpt lat="36.7916984558106" lon="-5.10108280181885">
        <ele>775</ele>
        <time>2019-05-11T13:35:40Z</time>
      </trkpt>
      <trkpt lat="36.7917175292969" lon="-5.10110521316528">
        <ele>775</ele>
        <time>2019-05-11T13:35:42Z</time>
      </trkpt>
      <trkpt lat="36.7917366027832" lon="-5.10113191604614">
        <ele>775</ele>
        <time>2019-05-11T13:35:44Z</time>
      </trkpt>
      <trkpt lat="36.7917518615723" lon="-5.10115718841553">
        <ele>774</ele>
        <time>2019-05-11T13:35:46Z</time>
      </trkpt>
      <trkpt lat="36.7917709350586" lon="-5.10118293762207">
        <ele>774</ele>
        <time>2019-05-11T13:35:48Z</time>
      </trkpt>
      <trkpt lat="36.7917938232422" lon="-5.10122489929199">
        <ele>773</ele>
        <time>2019-05-11T13:35:50Z</time>
      </trkpt>
      <trkpt lat="36.7918090820312" lon="-5.10125303268433">
        <ele>773</ele>
        <time>2019-05-11T13:35:52Z</time>
      </trkpt>
      <trkpt lat="36.7918281555176" lon="-5.10128021240234">
        <ele>773</ele>
        <time>2019-05-11T13:35:54Z</time>
      </trkpt>
      <trkpt lat="36.7918434143066" lon="-5.10130977630615">
        <ele>773</ele>
        <time>2019-05-11T13:35:56Z</time>
      </trkpt>
      <trkpt lat="36.7918586730957" lon="-5.10133790969849">
        <ele>772</ele>
        <time>2019-05-11T13:35:58Z</time>
      </trkpt>
      <trkpt lat="36.791877746582" lon="-5.10136699676514">
        <ele>771</ele>
        <time>2019-05-11T13:36:00Z</time>
      </trkpt>
      <trkpt lat="36.7918930053711" lon="-5.1013970375061">
        <ele>771</ele>
        <time>2019-05-11T13:36:02Z</time>
      </trkpt>
      <trkpt lat="36.7919120788574" lon="-5.10142803192139">
        <ele>771</ele>
        <time>2019-05-11T13:36:05Z</time>
      </trkpt>
      <trkpt lat="36.7919311523438" lon="-5.10145711898804">
        <ele>771</ele>
        <time>2019-05-11T13:36:07Z</time>
      </trkpt>
      <trkpt lat="36.7919540405273" lon="-5.10148191452026">
        <ele>771</ele>
        <time>2019-05-11T13:36:09Z</time>
      </trkpt>
      <trkpt lat="36.7919731140137" lon="-5.1015100479126">
        <ele>771</ele>
        <time>2019-05-11T13:36:11Z</time>
      </trkpt>
      <trkpt lat="36.7919921875" lon="-5.10154008865356">
        <ele>771</ele>
        <time>2019-05-11T13:36:13Z</time>
      </trkpt>
      <trkpt lat="36.7920074462891" lon="-5.10157203674316">
        <ele>771</ele>
        <time>2019-05-11T13:36:15Z</time>
      </trkpt>
      <trkpt lat="36.7920227050781" lon="-5.1016001701355">
        <ele>771</ele>
        <time>2019-05-11T13:36:17Z</time>
      </trkpt>
      <trkpt lat="36.7920379638672" lon="-5.1016321182251">
        <ele>771</ele>
        <time>2019-05-11T13:36:19Z</time>
      </trkpt>
      <trkpt lat="36.7920532226562" lon="-5.10165691375732">
        <ele>771</ele>
        <time>2019-05-11T13:36:21Z</time>
      </trkpt>
      <trkpt lat="36.7920684814453" lon="-5.10168504714966">
        <ele>771</ele>
        <time>2019-05-11T13:36:23Z</time>
      </trkpt>
      <trkpt lat="36.7920951843262" lon="-5.1017279624939">
        <ele>771</ele>
        <time>2019-05-11T13:36:25Z</time>
      </trkpt>
      <trkpt lat="36.7921104431152" lon="-5.10175704956055">
        <ele>771</ele>
        <time>2019-05-11T13:36:27Z</time>
      </trkpt>
      <trkpt lat="36.7921257019043" lon="-5.10178184509277">
        <ele>771</ele>
        <time>2019-05-11T13:36:29Z</time>
      </trkpt>
      <trkpt lat="36.7921409606934" lon="-5.10181283950806">
        <ele>771</ele>
        <time>2019-05-11T13:36:31Z</time>
      </trkpt>
      <trkpt lat="36.7921524047852" lon="-5.10184478759766">
        <ele>771</ele>
        <time>2019-05-11T13:36:33Z</time>
      </trkpt>
      <trkpt lat="36.7921714782715" lon="-5.10187816619873">
        <ele>771</ele>
        <time>2019-05-11T13:36:35Z</time>
      </trkpt>
      <trkpt lat="36.7921829223633" lon="-5.10191202163696">
        <ele>771</ele>
        <time>2019-05-11T13:36:37Z</time>
      </trkpt>
      <trkpt lat="36.7921867370606" lon="-5.10194683074951">
        <ele>771</ele>
        <time>2019-05-11T13:36:39Z</time>
      </trkpt>
      <trkpt lat="36.7921867370606" lon="-5.10198307037354">
        <ele>771</ele>
        <time>2019-05-11T13:36:42Z</time>
      </trkpt>
      <trkpt lat="36.7921829223633" lon="-5.10201978683472">
        <ele>771</ele>
        <time>2019-05-11T13:36:44Z</time>
      </trkpt>
      <trkpt lat="36.7921752929688" lon="-5.10204982757568">
        <ele>771</ele>
        <time>2019-05-11T13:36:46Z</time>
      </trkpt>
      <trkpt lat="36.7921676635742" lon="-5.10207986831665">
        <ele>771</ele>
        <time>2019-05-11T13:36:48Z</time>
      </trkpt>
      <trkpt lat="36.7921524047852" lon="-5.10210704803467">
        <ele>771</ele>
        <time>2019-05-11T13:36:50Z</time>
      </trkpt>
      <trkpt lat="36.7921371459961" lon="-5.10213708877564">
        <ele>771</ele>
        <time>2019-05-11T13:36:52Z</time>
      </trkpt>
      <trkpt lat="36.792121887207" lon="-5.10216188430786">
        <ele>771</ele>
        <time>2019-05-11T13:36:54Z</time>
      </trkpt>
      <trkpt lat="36.7921028137207" lon="-5.10218477249146">
        <ele>771</ele>
        <time>2019-05-11T13:36:56Z</time>
      </trkpt>
      <trkpt lat="36.7920875549316" lon="-5.10220289230347">
        <ele>771</ele>
        <time>2019-05-11T13:36:58Z</time>
      </trkpt>
      <trkpt lat="36.792064666748" lon="-5.10222291946411">
        <ele>771</ele>
        <time>2019-05-11T13:37:00Z</time>
      </trkpt>
      <trkpt lat="36.7920379638672" lon="-5.10225486755371">
        <ele>771</ele>
        <time>2019-05-11T13:37:02Z</time>
      </trkpt>
      <trkpt lat="36.7920150756836" lon="-5.10227680206299">
        <ele>771</ele>
        <time>2019-05-11T13:37:04Z</time>
      </trkpt>
      <trkpt lat="36.7919921875" lon="-5.10229301452637">
        <ele>771</ele>
        <time>2019-05-11T13:37:06Z</time>
      </trkpt>
      <trkpt lat="36.7919692993164" lon="-5.10230302810669">
        <ele>771</ele>
        <time>2019-05-11T13:37:08Z</time>
      </trkpt>
      <trkpt lat="36.7919387817383" lon="-5.1023120880127">
        <ele>771</ele>
        <time>2019-05-11T13:37:10Z</time>
      </trkpt>
      <trkpt lat="36.7919120788574" lon="-5.10231781005859">
        <ele>771</ele>
        <time>2019-05-11T13:37:12Z</time>
      </trkpt>
      <trkpt lat="36.7918853759766" lon="-5.10232019424438">
        <ele>771</ele>
        <time>2019-05-11T13:37:14Z</time>
      </trkpt>
      <trkpt lat="36.7918586730957" lon="-5.10232305526733">
        <ele>771</ele>
        <time>2019-05-11T13:37:17Z</time>
      </trkpt>
      <trkpt lat="36.7918281555176" lon="-5.10232210159302">
        <ele>771</ele>
        <time>2019-05-11T13:37:19Z</time>
      </trkpt>
      <trkpt lat="36.7917900085449" lon="-5.10231685638428">
        <ele>771</ele>
        <time>2019-05-11T13:37:21Z</time>
      </trkpt>
      <trkpt lat="36.7917442321777" lon="-5.10230493545532">
        <ele>771</ele>
        <time>2019-05-11T13:37:23Z</time>
      </trkpt>
      <trkpt lat="36.7917022705078" lon="-5.10228776931763">
        <ele>771</ele>
        <time>2019-05-11T13:37:25Z</time>
      </trkpt>
      <trkpt lat="36.7916641235352" lon="-5.10227203369141">
        <ele>771</ele>
        <time>2019-05-11T13:37:27Z</time>
      </trkpt>
      <trkpt lat="36.7916221618652" lon="-5.10225296020508">
        <ele>771</ele>
        <time>2019-05-11T13:37:29Z</time>
      </trkpt>
      <trkpt lat="36.7915840148926" lon="-5.10223722457886">
        <ele>771</ele>
        <time>2019-05-11T13:37:31Z</time>
      </trkpt>
      <trkpt lat="36.7915496826172" lon="-5.10221004486084">
        <ele>771</ele>
        <time>2019-05-11T13:37:33Z</time>
      </trkpt>
      <trkpt lat="36.7915077209473" lon="-5.10218811035156">
        <ele>771</ele>
        <time>2019-05-11T13:37:35Z</time>
      </trkpt>
      <trkpt lat="36.7914505004883" lon="-5.10215997695923">
        <ele>771</ele>
        <time>2019-05-11T13:37:37Z</time>
      </trkpt>
      <trkpt lat="36.7914161682129" lon="-5.102135181427">
        <ele>771</ele>
        <time>2019-05-11T13:37:39Z</time>
      </trkpt>
      <trkpt lat="36.791374206543" lon="-5.10210990905762">
        <ele>771</ele>
        <time>2019-05-11T13:37:41Z</time>
      </trkpt>
      <trkpt lat="36.7913360595703" lon="-5.10208797454834">
        <ele>771</ele>
        <time>2019-05-11T13:37:43Z</time>
      </trkpt>
      <trkpt lat="36.7912940979004" lon="-5.1020679473877">
        <ele>771</ele>
        <time>2019-05-11T13:37:45Z</time>
      </trkpt>
      <trkpt lat="36.7912521362305" lon="-5.10205507278442">
        <ele>771</ele>
        <time>2019-05-11T13:37:47Z</time>
      </trkpt>
      <trkpt lat="36.791202545166" lon="-5.10204219818115">
        <ele>770</ele>
        <time>2019-05-11T13:37:49Z</time>
      </trkpt>
      <trkpt lat="36.7911605834961" lon="-5.10203218460083">
        <ele>770</ele>
        <time>2019-05-11T13:37:52Z</time>
      </trkpt>
      <trkpt lat="36.7911148071289" lon="-5.10201787948608">
        <ele>769</ele>
        <time>2019-05-11T13:37:54Z</time>
      </trkpt>
      <trkpt lat="36.7910690307617" lon="-5.10200500488281">
        <ele>769</ele>
        <time>2019-05-11T13:37:56Z</time>
      </trkpt>
      <trkpt lat="36.7910270690918" lon="-5.10199499130249">
        <ele>769</ele>
        <time>2019-05-11T13:37:58Z</time>
      </trkpt>
      <trkpt lat="36.7909851074219" lon="-5.1019868850708">
        <ele>768</ele>
        <time>2019-05-11T13:38:00Z</time>
      </trkpt>
      <trkpt lat="36.790943145752" lon="-5.10198020935059">
        <ele>768</ele>
        <time>2019-05-11T13:38:02Z</time>
      </trkpt>
      <trkpt lat="36.7908973693848" lon="-5.10197019577026">
        <ele>767</ele>
        <time>2019-05-11T13:38:04Z</time>
      </trkpt>
      <trkpt lat="36.7908630371094" lon="-5.10196208953857">
        <ele>766</ele>
        <time>2019-05-11T13:38:06Z</time>
      </trkpt>
      <trkpt lat="36.7908172607422" lon="-5.10195207595825">
        <ele>766</ele>
        <time>2019-05-11T13:38:08Z</time>
      </trkpt>
      <trkpt lat="36.790771484375" lon="-5.10194778442383">
        <ele>766</ele>
        <time>2019-05-11T13:38:10Z</time>
      </trkpt>
      <trkpt lat="36.7907257080078" lon="-5.10195779800415">
        <ele>766</ele>
        <time>2019-05-11T13:38:12Z</time>
      </trkpt>
      <trkpt lat="36.7906684875488" lon="-5.10197019577026">
        <ele>766</ele>
        <time>2019-05-11T13:38:14Z</time>
      </trkpt>
      <trkpt lat="36.7906227111816" lon="-5.10198211669922">
        <ele>766</ele>
        <time>2019-05-11T13:38:16Z</time>
      </trkpt>
      <trkpt lat="36.7905769348144" lon="-5.10199308395386">
        <ele>766</ele>
        <time>2019-05-11T13:38:18Z</time>
      </trkpt>
      <trkpt lat="36.7905387878418" lon="-5.10200023651123">
        <ele>766</ele>
        <time>2019-05-11T13:38:20Z</time>
      </trkpt>
      <trkpt lat="36.7904968261719" lon="-5.10201215744019">
        <ele>766</ele>
        <time>2019-05-11T13:38:22Z</time>
      </trkpt>
      <trkpt lat="36.790454864502" lon="-5.10202312469482">
        <ele>766</ele>
        <time>2019-05-11T13:38:24Z</time>
      </trkpt>
      <trkpt lat="36.7904090881348" lon="-5.10203790664673">
        <ele>766</ele>
        <time>2019-05-11T13:38:27Z</time>
      </trkpt>
      <trkpt lat="36.7903671264648" lon="-5.1020622253418">
        <ele>766</ele>
        <time>2019-05-11T13:38:29Z</time>
      </trkpt>
      <trkpt lat="36.7903327941894" lon="-5.1020770072937">
        <ele>765</ele>
        <time>2019-05-11T13:38:31Z</time>
      </trkpt>
      <trkpt lat="36.7902984619141" lon="-5.10210180282593">
        <ele>765</ele>
        <time>2019-05-11T13:38:33Z</time>
      </trkpt>
      <trkpt lat="36.7902565002441" lon="-5.10212802886963">
        <ele>765</ele>
        <time>2019-05-11T13:38:35Z</time>
      </trkpt>
      <trkpt lat="36.790225982666" lon="-5.10213804244995">
        <ele>765</ele>
        <time>2019-05-11T13:38:37Z</time>
      </trkpt>
      <trkpt lat="36.7902030944824" lon="-5.10214281082153">
        <ele>765</ele>
        <time>2019-05-11T13:38:39Z</time>
      </trkpt>
      <trkpt lat="36.7901802062988" lon="-5.10214996337891">
        <ele>765</ele>
        <time>2019-05-11T13:38:41Z</time>
      </trkpt>
      <trkpt lat="36.7901611328125" lon="-5.10217523574829">
        <ele>765</ele>
        <time>2019-05-11T13:38:43Z</time>
      </trkpt>
      <trkpt lat="36.7901382446289" lon="-5.10219478607178">
        <ele>764</ele>
        <time>2019-05-11T13:38:45Z</time>
      </trkpt>
      <trkpt lat="36.790111541748" lon="-5.1022047996521">
        <ele>764</ele>
        <time>2019-05-11T13:38:47Z</time>
      </trkpt>
      <trkpt lat="36.7900695800781" lon="-5.10223293304443">
        <ele>763</ele>
        <time>2019-05-11T13:38:49Z</time>
      </trkpt>
      <trkpt lat="36.7900352478027" lon="-5.10225200653076">
        <ele>762</ele>
        <time>2019-05-11T13:38:51Z</time>
      </trkpt>
      <trkpt lat="36.7900009155273" lon="-5.10225677490234">
        <ele>761</ele>
        <time>2019-05-11T13:38:53Z</time>
      </trkpt>
      <trkpt lat="36.7899513244629" lon="-5.10226678848267">
        <ele>760</ele>
        <time>2019-05-11T13:38:55Z</time>
      </trkpt>
      <trkpt lat="36.7899131774902" lon="-5.10228681564331">
        <ele>759</ele>
        <time>2019-05-11T13:38:57Z</time>
      </trkpt>
      <trkpt lat="36.7898788452148" lon="-5.10232019424438">
        <ele>758</ele>
        <time>2019-05-11T13:38:59Z</time>
      </trkpt>
      <trkpt lat="36.7898063659668" lon="-5.10236978530884">
        <ele>757</ele>
        <time>2019-05-11T13:39:03Z</time>
      </trkpt>
      <trkpt lat="36.7897834777832" lon="-5.10240793228149">
        <ele>755</ele>
        <time>2019-05-11T13:39:06Z</time>
      </trkpt>
      <trkpt lat="36.7897415161133" lon="-5.10242509841919">
        <ele>753</ele>
        <time>2019-05-11T13:39:08Z</time>
      </trkpt>
      <trkpt lat="36.7897033691406" lon="-5.10244178771973">
        <ele>753</ele>
        <time>2019-05-11T13:39:10Z</time>
      </trkpt>
      <trkpt lat="36.7896614074707" lon="-5.10246515274048">
        <ele>753</ele>
        <time>2019-05-11T13:39:12Z</time>
      </trkpt>
      <trkpt lat="36.7896270751953" lon="-5.1024899482727">
        <ele>753</ele>
        <time>2019-05-11T13:39:14Z</time>
      </trkpt>
      <trkpt lat="36.7895927429199" lon="-5.10251998901367">
        <ele>753</ele>
        <time>2019-05-11T13:39:16Z</time>
      </trkpt>
      <trkpt lat="36.7895774841309" lon="-5.10256195068359">
        <ele>753</ele>
        <time>2019-05-11T13:39:18Z</time>
      </trkpt>
      <trkpt lat="36.7895812988281" lon="-5.1025972366333">
        <ele>753</ele>
        <time>2019-05-11T13:39:20Z</time>
      </trkpt>
      <trkpt lat="36.7895965576172" lon="-5.10262823104858">
        <ele>753</ele>
        <time>2019-05-11T13:39:22Z</time>
      </trkpt>
      <trkpt lat="36.7896194458008" lon="-5.10264492034912">
        <ele>753</ele>
        <time>2019-05-11T13:39:24Z</time>
      </trkpt>
      <trkpt lat="36.7896385192871" lon="-5.10266017913818">
        <ele>753</ele>
        <time>2019-05-11T13:39:26Z</time>
      </trkpt>
      <trkpt lat="36.789665222168" lon="-5.10268211364746">
        <ele>753</ele>
        <time>2019-05-11T13:39:28Z</time>
      </trkpt>
      <trkpt lat="36.7896842956543" lon="-5.1026930809021">
        <ele>753</ele>
        <time>2019-05-11T13:39:30Z</time>
      </trkpt>
      <trkpt lat="36.7897033691406" lon="-5.10270690917969">
        <ele>753</ele>
        <time>2019-05-11T13:39:32Z</time>
      </trkpt>
      <trkpt lat="36.7897262573242" lon="-5.10271978378296">
        <ele>753</ele>
        <time>2019-05-11T13:39:34Z</time>
      </trkpt>
      <trkpt lat="36.7897491455078" lon="-5.10273504257202">
        <ele>753</ele>
        <time>2019-05-11T13:39:36Z</time>
      </trkpt>
      <trkpt lat="36.7897720336914" lon="-5.1027569770813">
        <ele>753</ele>
        <time>2019-05-11T13:39:38Z</time>
      </trkpt>
      <trkpt lat="36.7897911071777" lon="-5.10277795791626">
        <ele>753</ele>
        <time>2019-05-11T13:39:41Z</time>
      </trkpt>
      <trkpt lat="36.7898101806641" lon="-5.10279989242554">
        <ele>753</ele>
        <time>2019-05-11T13:39:43Z</time>
      </trkpt>
      <trkpt lat="36.7898254394531" lon="-5.10282516479492">
        <ele>753</ele>
        <time>2019-05-11T13:39:45Z</time>
      </trkpt>
      <trkpt lat="36.7898406982422" lon="-5.10285186767578">
        <ele>753</ele>
        <time>2019-05-11T13:39:47Z</time>
      </trkpt>
      <trkpt lat="36.789852142334" lon="-5.10288000106812">
        <ele>753</ele>
        <time>2019-05-11T13:39:49Z</time>
      </trkpt>
      <trkpt lat="36.7898712158203" lon="-5.10290479660034">
        <ele>753</ele>
        <time>2019-05-11T13:39:51Z</time>
      </trkpt>
      <trkpt lat="36.7898864746094" lon="-5.10293197631836">
        <ele>753</ele>
        <time>2019-05-11T13:39:53Z</time>
      </trkpt>
      <trkpt lat="36.7899017333984" lon="-5.10295486450195">
        <ele>753</ele>
        <time>2019-05-11T13:39:55Z</time>
      </trkpt>
      <trkpt lat="36.7899131774902" lon="-5.10298013687134">
        <ele>753</ele>
        <time>2019-05-11T13:39:57Z</time>
      </trkpt>
      <trkpt lat="36.7899322509766" lon="-5.10300207138062">
        <ele>753</ele>
        <time>2019-05-11T13:39:59Z</time>
      </trkpt>
      <trkpt lat="36.7899436950684" lon="-5.10303020477295">
        <ele>753</ele>
        <time>2019-05-11T13:40:01Z</time>
      </trkpt>
      <trkpt lat="36.7899627685547" lon="-5.10307312011719">
        <ele>753</ele>
        <time>2019-05-11T13:40:03Z</time>
      </trkpt>
      <trkpt lat="36.7899742126465" lon="-5.10310316085815">
        <ele>753</ele>
        <time>2019-05-11T13:40:05Z</time>
      </trkpt>
      <trkpt lat="36.7899856567383" lon="-5.10313510894775">
        <ele>753</ele>
        <time>2019-05-11T13:40:07Z</time>
      </trkpt>
      <trkpt lat="36.7899971008301" lon="-5.10316801071167">
        <ele>753</ele>
        <time>2019-05-11T13:40:09Z</time>
      </trkpt>
      <trkpt lat="36.7900085449219" lon="-5.1032018661499">
        <ele>753</ele>
        <time>2019-05-11T13:40:11Z</time>
      </trkpt>
      <trkpt lat="36.7900161743164" lon="-5.10323715209961">
        <ele>753</ele>
        <time>2019-05-11T13:40:13Z</time>
      </trkpt>
      <trkpt lat="36.7900238037109" lon="-5.10327005386353">
        <ele>753</ele>
        <time>2019-05-11T13:40:16Z</time>
      </trkpt>
      <trkpt lat="36.7900314331055" lon="-5.10330486297607">
        <ele>753</ele>
        <time>2019-05-11T13:40:18Z</time>
      </trkpt>
      <trkpt lat="36.7900352478027" lon="-5.10333776473999">
        <ele>753</ele>
        <time>2019-05-11T13:40:20Z</time>
      </trkpt>
      <trkpt lat="36.7900466918945" lon="-5.10337018966675">
        <ele>753</ele>
        <time>2019-05-11T13:40:22Z</time>
      </trkpt>
      <trkpt lat="36.7900619506836" lon="-5.10340023040772">
        <ele>753</ele>
        <time>2019-05-11T13:40:24Z</time>
      </trkpt>
      <trkpt lat="36.7900810241699" lon="-5.10342216491699">
        <ele>753</ele>
        <time>2019-05-11T13:40:26Z</time>
      </trkpt>
      <trkpt lat="36.790096282959" lon="-5.10344982147217">
        <ele>753</ele>
        <time>2019-05-11T13:40:28Z</time>
      </trkpt>
      <trkpt lat="36.7901000976562" lon="-5.10348176956177">
        <ele>753</ele>
        <time>2019-05-11T13:40:30Z</time>
      </trkpt>
      <trkpt lat="36.7901039123535" lon="-5.10351705551147">
        <ele>753</ele>
        <time>2019-05-11T13:40:32Z</time>
      </trkpt>
      <trkpt lat="36.7901153564453" lon="-5.10354709625244">
        <ele>753</ele>
        <time>2019-05-11T13:40:34Z</time>
      </trkpt>
      <trkpt lat="36.7901306152344" lon="-5.10359191894531">
        <ele>753</ele>
        <time>2019-05-11T13:40:36Z</time>
      </trkpt>
      <trkpt lat="36.7901382446289" lon="-5.1036229133606">
        <ele>753</ele>
        <time>2019-05-11T13:40:38Z</time>
      </trkpt>
      <trkpt lat="36.7901458740234" lon="-5.10365295410156">
        <ele>753</ele>
        <time>2019-05-11T13:40:40Z</time>
      </trkpt>
      <trkpt lat="36.7901496887207" lon="-5.10367202758789">
        <ele>753</ele>
        <time>2019-05-11T13:40:42Z</time>
      </trkpt>
      <trkpt lat="36.7901496887207" lon="-5.10368204116821">
        <ele>753</ele>
        <time>2019-05-11T13:40:44Z</time>
      </trkpt>
      <trkpt lat="36.7901496887207" lon="-5.10368299484253">
        <ele>754</ele>
        <time>2019-05-11T13:40:46Z</time>
      </trkpt>
      <trkpt lat="36.790153503418" lon="-5.10369205474854">
        <ele>754</ele>
        <time>2019-05-11T13:40:48Z</time>
      </trkpt>
      <trkpt lat="36.790153503418" lon="-5.10369491577148">
        <ele>755</ele>
        <time>2019-05-11T13:40:51Z</time>
      </trkpt>
      <trkpt lat="36.7901611328125" lon="-5.10369777679443">
        <ele>755</ele>
        <time>2019-05-11T13:40:53Z</time>
      </trkpt>
      <trkpt lat="36.7901611328125" lon="-5.10370206832886">
        <ele>755</ele>
        <time>2019-05-11T13:40:55Z</time>
      </trkpt>
      <trkpt lat="36.7901611328125" lon="-5.10370492935181">
        <ele>756</ele>
        <time>2019-05-11T13:40:57Z</time>
      </trkpt>
      <trkpt lat="36.7901573181152" lon="-5.10370492935181">
        <ele>756</ele>
        <time>2019-05-11T13:40:59Z</time>
      </trkpt>
      <trkpt lat="36.7901573181152" lon="-5.10370683670044">
        <ele>756</ele>
        <time>2019-05-11T13:41:01Z</time>
      </trkpt>
      <trkpt lat="36.7901573181152" lon="-5.10370683670044">
        <ele>756</ele>
        <time>2019-05-11T13:41:03Z</time>
      </trkpt>
      <trkpt lat="36.7901573181152" lon="-5.10370302200317">
        <ele>756</ele>
        <time>2019-05-11T13:41:05Z</time>
      </trkpt>
      <trkpt lat="36.7901611328125" lon="-5.10370492935181">
        <ele>756</ele>
        <time>2019-05-11T13:41:07Z</time>
      </trkpt>
      <trkpt lat="36.7901573181152" lon="-5.10370779037476">
        <ele>756</ele>
        <time>2019-05-11T13:41:09Z</time>
      </trkpt>
      <trkpt lat="36.7901573181152" lon="-5.1037130355835">
        <ele>756</ele>
        <time>2019-05-11T13:41:11Z</time>
      </trkpt>
      <trkpt lat="36.7901573181152" lon="-5.10371685028076">
        <ele>756</ele>
        <time>2019-05-11T13:41:13Z</time>
      </trkpt>
      <trkpt lat="36.7901573181152" lon="-5.10372018814087">
        <ele>756</ele>
        <time>2019-05-11T13:41:15Z</time>
      </trkpt>
      <trkpt lat="36.7901573181152" lon="-5.10371780395508">
        <ele>756</ele>
        <time>2019-05-11T13:41:17Z</time>
      </trkpt>
      <trkpt lat="36.7901573181152" lon="-5.10371780395508">
        <ele>756</ele>
        <time>2019-05-11T13:41:19Z</time>
      </trkpt>
      <trkpt lat="36.7901573181152" lon="-5.10371494293213">
        <ele>756</ele>
        <time>2019-05-11T13:41:21Z</time>
      </trkpt>
      <trkpt lat="36.790153503418" lon="-5.1037130355835">
        <ele>756</ele>
        <time>2019-05-11T13:41:23Z</time>
      </trkpt>
      <trkpt lat="36.790153503418" lon="-5.10370779037476">
        <ele>756</ele>
        <time>2019-05-11T13:41:25Z</time>
      </trkpt>
      <trkpt lat="36.790153503418" lon="-5.10370492935181">
        <ele>756</ele>
        <time>2019-05-11T13:41:27Z</time>
      </trkpt>
      <trkpt lat="36.790153503418" lon="-5.10370683670044">
        <ele>756</ele>
        <time>2019-05-11T13:41:29Z</time>
      </trkpt>
      <trkpt lat="36.7901458740234" lon="-5.10371017456055">
        <ele>756</ele>
        <time>2019-05-11T13:41:31Z</time>
      </trkpt>
      <trkpt lat="36.7901458740234" lon="-5.10370683670044">
        <ele>756</ele>
        <time>2019-05-11T13:41:33Z</time>
      </trkpt>
      <trkpt lat="36.7901458740234" lon="-5.10370302200317">
        <ele>756</ele>
        <time>2019-05-11T13:41:35Z</time>
      </trkpt>
      <trkpt lat="36.7901420593262" lon="-5.10370206832886">
        <ele>756</ele>
        <time>2019-05-11T13:41:37Z</time>
      </trkpt>
      <trkpt lat="36.7901420593262" lon="-5.10370016098022">
        <ele>756</ele>
        <time>2019-05-11T13:41:39Z</time>
      </trkpt>
      <trkpt lat="36.7901420593262" lon="-5.10369682312012">
        <ele>756</ele>
        <time>2019-05-11T13:41:42Z</time>
      </trkpt>
      <trkpt lat="36.7901458740234" lon="-5.10369300842285">
        <ele>756</ele>
        <time>2019-05-11T13:41:44Z</time>
      </trkpt>
      <trkpt lat="36.7901496887207" lon="-5.10369205474854">
        <ele>756</ele>
        <time>2019-05-11T13:41:46Z</time>
      </trkpt>
      <trkpt lat="36.7901496887207" lon="-5.10369205474854">
        <ele>756</ele>
        <time>2019-05-11T13:41:48Z</time>
      </trkpt>
      <trkpt lat="36.7901496887207" lon="-5.1036901473999">
        <ele>756</ele>
        <time>2019-05-11T13:41:50Z</time>
      </trkpt>
      <trkpt lat="36.790153503418" lon="-5.10368490219116">
        <ele>756</ele>
        <time>2019-05-11T13:41:52Z</time>
      </trkpt>
      <trkpt lat="36.790153503418" lon="-5.1036868095398">
        <ele>756</ele>
        <time>2019-05-11T13:41:54Z</time>
      </trkpt>
      <trkpt lat="36.790153503418" lon="-5.1036868095398">
        <ele>756</ele>
        <time>2019-05-11T13:41:56Z</time>
      </trkpt>
      <trkpt lat="36.790153503418" lon="-5.1036868095398">
        <ele>756</ele>
        <time>2019-05-11T13:41:58Z</time>
      </trkpt>
      <trkpt lat="36.790153503418" lon="-5.1036868095398">
        <ele>756</ele>
        <time>2019-05-11T13:42:00Z</time>
      </trkpt>
      <trkpt lat="36.790153503418" lon="-5.10368776321411">
        <ele>756</ele>
        <time>2019-05-11T13:42:02Z</time>
      </trkpt>
      <trkpt lat="36.790153503418" lon="-5.10369300842285">
        <ele>756</ele>
        <time>2019-05-11T13:42:04Z</time>
      </trkpt>
      <trkpt lat="36.790153503418" lon="-5.10370302200317">
        <ele>756</ele>
        <time>2019-05-11T13:42:06Z</time>
      </trkpt>
      <trkpt lat="36.7901573181152" lon="-5.10371017456055">
        <ele>756</ele>
        <time>2019-05-11T13:42:08Z</time>
      </trkpt>
      <trkpt lat="36.7901725769043" lon="-5.10372495651245">
        <ele>756</ele>
        <time>2019-05-11T13:42:10Z</time>
      </trkpt>
      <trkpt lat="36.7901878356934" lon="-5.10374784469604">
        <ele>756</ele>
        <time>2019-05-11T13:42:12Z</time>
      </trkpt>
      <trkpt lat="36.790210723877" lon="-5.10378694534302">
        <ele>756</ele>
        <time>2019-05-11T13:42:14Z</time>
      </trkpt>
      <trkpt lat="36.790225982666" lon="-5.10381507873535">
        <ele>756</ele>
        <time>2019-05-11T13:42:16Z</time>
      </trkpt>
      <trkpt lat="36.7902412414551" lon="-5.10384178161621">
        <ele>756</ele>
        <time>2019-05-11T13:42:18Z</time>
      </trkpt>
      <trkpt lat="36.7902603149414" lon="-5.10386991500854">
        <ele>756</ele>
        <time>2019-05-11T13:42:20Z</time>
      </trkpt>
      <trkpt lat="36.7902755737305" lon="-5.10389995574951">
        <ele>756</ele>
        <time>2019-05-11T13:42:22Z</time>
      </trkpt>
      <trkpt lat="36.7902908325195" lon="-5.10392999649048">
        <ele>756</ele>
        <time>2019-05-11T13:42:24Z</time>
      </trkpt>
      <trkpt lat="36.7903022766113" lon="-5.10396003723144">
        <ele>756</ele>
        <time>2019-05-11T13:42:26Z</time>
      </trkpt>
      <trkpt lat="36.7903137207031" lon="-5.10398721694946">
        <ele>756</ele>
        <time>2019-05-11T13:42:28Z</time>
      </trkpt>
      <trkpt lat="36.7903251647949" lon="-5.10401296615601">
        <ele>756</ele>
        <time>2019-05-11T13:42:31Z</time>
      </trkpt>
      <trkpt lat="36.7903442382812" lon="-5.10403776168823">
        <ele>756</ele>
        <time>2019-05-11T13:42:33Z</time>
      </trkpt>
      <trkpt lat="36.7903633117676" lon="-5.1040620803833">
        <ele>756</ele>
        <time>2019-05-11T13:42:35Z</time>
      </trkpt>
      <trkpt lat="36.7903861999512" lon="-5.10408496856689">
        <ele>756</ele>
        <time>2019-05-11T13:42:37Z</time>
      </trkpt>
      <trkpt lat="36.7904090881348" lon="-5.10411500930786">
        <ele>756</ele>
        <time>2019-05-11T13:42:39Z</time>
      </trkpt>
      <trkpt lat="36.7904281616211" lon="-5.10414218902588">
        <ele>756</ele>
        <time>2019-05-11T13:42:41Z</time>
      </trkpt>
      <trkpt lat="36.7904472351074" lon="-5.10416793823242">
        <ele>756</ele>
        <time>2019-05-11T13:42:43Z</time>
      </trkpt>
      <trkpt lat="36.790470123291" lon="-5.10419511795044">
        <ele>756</ele>
        <time>2019-05-11T13:42:45Z</time>
      </trkpt>
      <trkpt lat="36.7904891967773" lon="-5.10422277450562">
        <ele>756</ele>
        <time>2019-05-11T13:42:47Z</time>
      </trkpt>
      <trkpt lat="36.7905082702637" lon="-5.10425186157227">
        <ele>756</ele>
        <time>2019-05-11T13:42:49Z</time>
      </trkpt>
      <trkpt lat="36.7905387878418" lon="-5.10428810119629">
        <ele>756</ele>
        <time>2019-05-11T13:42:51Z</time>
      </trkpt>
      <trkpt lat="36.7905616760254" lon="-5.10431480407715">
        <ele>756</ele>
        <time>2019-05-11T13:42:53Z</time>
      </trkpt>
      <trkpt lat="36.790584564209" lon="-5.10434198379517">
        <ele>756</ele>
        <time>2019-05-11T13:42:55Z</time>
      </trkpt>
      <trkpt lat="36.7906036376953" lon="-5.10436487197876">
        <ele>756</ele>
        <time>2019-05-11T13:42:57Z</time>
      </trkpt>
      <trkpt lat="36.7906265258789" lon="-5.10438680648804">
        <ele>756</ele>
        <time>2019-05-11T13:42:59Z</time>
      </trkpt>
      <trkpt lat="36.7906494140625" lon="-5.10441207885742">
        <ele>756</ele>
        <time>2019-05-11T13:43:01Z</time>
      </trkpt>
      <trkpt lat="36.7906723022461" lon="-5.10443496704102">
        <ele>756</ele>
        <time>2019-05-11T13:43:03Z</time>
      </trkpt>
      <trkpt lat="36.790699005127" lon="-5.10445690155029">
        <ele>756</ele>
        <time>2019-05-11T13:43:05Z</time>
      </trkpt>
      <trkpt lat="36.7907218933106" lon="-5.10447788238525">
        <ele>756</ele>
        <time>2019-05-11T13:43:08Z</time>
      </trkpt>
      <trkpt lat="36.7907485961914" lon="-5.1044979095459">
        <ele>756</ele>
        <time>2019-05-11T13:43:10Z</time>
      </trkpt>
      <trkpt lat="36.7907752990723" lon="-5.10451793670654">
        <ele>756</ele>
        <time>2019-05-11T13:43:12Z</time>
      </trkpt>
      <trkpt lat="36.7907981872559" lon="-5.10453701019287">
        <ele>756</ele>
        <time>2019-05-11T13:43:14Z</time>
      </trkpt>
      <trkpt lat="36.7908210754394" lon="-5.10455322265625">
        <ele>756</ele>
        <time>2019-05-11T13:43:16Z</time>
      </trkpt>
      <trkpt lat="36.790843963623" lon="-5.10456991195679">
        <ele>756</ele>
        <time>2019-05-11T13:43:18Z</time>
      </trkpt>
      <trkpt lat="36.7908668518066" lon="-5.1045880317688">
        <ele>756</ele>
        <time>2019-05-11T13:43:20Z</time>
      </trkpt>
      <trkpt lat="36.7908897399902" lon="-5.10460805892944">
        <ele>756</ele>
        <time>2019-05-11T13:43:22Z</time>
      </trkpt>
      <trkpt lat="36.7909126281738" lon="-5.10462284088135">
        <ele>756</ele>
        <time>2019-05-11T13:43:24Z</time>
      </trkpt>
      <trkpt lat="36.7909393310547" lon="-5.10464000701904">
        <ele>756</ele>
        <time>2019-05-11T13:43:26Z</time>
      </trkpt>
      <trkpt lat="36.7909774780273" lon="-5.10466194152832">
        <ele>756</ele>
        <time>2019-05-11T13:43:28Z</time>
      </trkpt>
      <trkpt lat="36.7910041809082" lon="-5.10467481613159">
        <ele>756</ele>
        <time>2019-05-11T13:43:30Z</time>
      </trkpt>
      <trkpt lat="36.7910308837891" lon="-5.10468482971191">
        <ele>756</ele>
        <time>2019-05-11T13:43:32Z</time>
      </trkpt>
      <trkpt lat="36.7910537719727" lon="-5.10470008850098">
        <ele>756</ele>
        <time>2019-05-11T13:43:34Z</time>
      </trkpt>
      <trkpt lat="36.7910804748535" lon="-5.1047101020813">
        <ele>757</ele>
        <time>2019-05-11T13:43:36Z</time>
      </trkpt>
      <trkpt lat="36.7911071777344" lon="-5.10472011566162">
        <ele>757</ele>
        <time>2019-05-11T13:43:38Z</time>
      </trkpt>
      <trkpt lat="36.7911376953125" lon="-5.10473203659058">
        <ele>757</ele>
        <time>2019-05-11T13:43:40Z</time>
      </trkpt>
      <trkpt lat="36.7911643981934" lon="-5.10474014282227">
        <ele>757</ele>
        <time>2019-05-11T13:43:42Z</time>
      </trkpt>
      <trkpt lat="36.791187286377" lon="-5.1047477722168">
        <ele>757</ele>
        <time>2019-05-11T13:43:45Z</time>
      </trkpt>
      <trkpt lat="36.7912139892578" lon="-5.1047568321228">
        <ele>757</ele>
        <time>2019-05-11T13:43:47Z</time>
      </trkpt>
      <trkpt lat="36.7912368774414" lon="-5.10476303100586">
        <ele>757</ele>
        <time>2019-05-11T13:43:49Z</time>
      </trkpt>
      <trkpt lat="36.7912635803223" lon="-5.10477209091186">
        <ele>758</ele>
        <time>2019-05-11T13:43:51Z</time>
      </trkpt>
      <trkpt lat="36.7912864685059" lon="-5.10477781295776">
        <ele>758</ele>
        <time>2019-05-11T13:43:53Z</time>
      </trkpt>
      <trkpt lat="36.7913131713867" lon="-5.1047830581665">
        <ele>758</ele>
        <time>2019-05-11T13:43:55Z</time>
      </trkpt>
      <trkpt lat="36.7913398742676" lon="-5.1047830581665">
        <ele>758</ele>
        <time>2019-05-11T13:43:57Z</time>
      </trkpt>
      <trkpt lat="36.7913665771484" lon="-5.10478687286377">
        <ele>758</ele>
        <time>2019-05-11T13:43:59Z</time>
      </trkpt>
      <trkpt lat="36.7913932800293" lon="-5.10479211807251">
        <ele>758</ele>
        <time>2019-05-11T13:44:01Z</time>
      </trkpt>
      <trkpt lat="36.791431427002" lon="-5.10479211807251">
        <ele>758</ele>
        <time>2019-05-11T13:44:03Z</time>
      </trkpt>
      <trkpt lat="36.7914543151856" lon="-5.10479211807251">
        <ele>758</ele>
        <time>2019-05-11T13:44:05Z</time>
      </trkpt>
      <trkpt lat="36.7914810180664" lon="-5.10479307174683">
        <ele>758</ele>
        <time>2019-05-11T13:44:07Z</time>
      </trkpt>
      <trkpt lat="36.79150390625" lon="-5.10479688644409">
        <ele>758</ele>
        <time>2019-05-11T13:44:09Z</time>
      </trkpt>
      <trkpt lat="36.7915306091309" lon="-5.1048002243042">
        <ele>758</ele>
        <time>2019-05-11T13:44:11Z</time>
      </trkpt>
      <trkpt lat="36.7915534973144" lon="-5.10480213165283">
        <ele>758</ele>
        <time>2019-05-11T13:44:13Z</time>
      </trkpt>
      <trkpt lat="36.7915725708008" lon="-5.10480213165283">
        <ele>758</ele>
        <time>2019-05-11T13:44:15Z</time>
      </trkpt>
      <trkpt lat="36.7915954589844" lon="-5.1048002243042">
        <ele>758</ele>
        <time>2019-05-11T13:44:17Z</time>
      </trkpt>
      <trkpt lat="36.7916221618652" lon="-5.1048002243042">
        <ele>758</ele>
        <time>2019-05-11T13:44:19Z</time>
      </trkpt>
      <trkpt lat="36.7916412353516" lon="-5.10479688644409">
        <ele>758</ele>
        <time>2019-05-11T13:44:21Z</time>
      </trkpt>
      <trkpt lat="36.7916641235352" lon="-5.10479211807251">
        <ele>758</ele>
        <time>2019-05-11T13:44:24Z</time>
      </trkpt>
      <trkpt lat="36.7916870117188" lon="-5.10478687286377">
        <ele>758</ele>
        <time>2019-05-11T13:44:26Z</time>
      </trkpt>
      <trkpt lat="36.7917137145996" lon="-5.10478496551514">
        <ele>758</ele>
        <time>2019-05-11T13:44:28Z</time>
      </trkpt>
      <trkpt lat="36.7917442321777" lon="-5.10478210449219">
        <ele>758</ele>
        <time>2019-05-11T13:44:30Z</time>
      </trkpt>
      <trkpt lat="36.7917747497559" lon="-5.10478019714356">
        <ele>758</ele>
        <time>2019-05-11T13:44:32Z</time>
      </trkpt>
      <trkpt lat="36.7918014526367" lon="-5.10478210449219">
        <ele>758</ele>
        <time>2019-05-11T13:44:34Z</time>
      </trkpt>
      <trkpt lat="36.7918243408203" lon="-5.10478687286377">
        <ele>758</ele>
        <time>2019-05-11T13:44:36Z</time>
      </trkpt>
      <trkpt lat="36.7918510437012" lon="-5.10479307174683">
        <ele>758</ele>
        <time>2019-05-11T13:44:38Z</time>
      </trkpt>
      <trkpt lat="36.791877746582" lon="-5.10478782653809">
        <ele>758</ele>
        <time>2019-05-11T13:44:40Z</time>
      </trkpt>
      <trkpt lat="36.7919044494629" lon="-5.1047830581665">
        <ele>758</ele>
        <time>2019-05-11T13:44:42Z</time>
      </trkpt>
      <trkpt lat="36.7919464111328" lon="-5.10477781295776">
        <ele>758</ele>
        <time>2019-05-11T13:44:44Z</time>
      </trkpt>
      <trkpt lat="36.7919731140137" lon="-5.10477018356323">
        <ele>758</ele>
        <time>2019-05-11T13:44:46Z</time>
      </trkpt>
      <trkpt lat="36.7920036315918" lon="-5.10476779937744">
        <ele>758</ele>
        <time>2019-05-11T13:44:48Z</time>
      </trkpt>
      <trkpt lat="36.7920303344727" lon="-5.10476303100586">
        <ele>758</ele>
        <time>2019-05-11T13:44:50Z</time>
      </trkpt>
      <trkpt lat="36.7920570373535" lon="-5.10475778579712">
        <ele>758</ele>
        <time>2019-05-11T13:44:52Z</time>
      </trkpt>
      <trkpt lat="36.7920875549316" lon="-5.10475778579712">
        <ele>758</ele>
        <time>2019-05-11T13:44:54Z</time>
      </trkpt>
      <trkpt lat="36.7921180725098" lon="-5.10475778579712">
        <ele>758</ele>
        <time>2019-05-11T13:44:56Z</time>
      </trkpt>
      <trkpt lat="36.7921485900879" lon="-5.10475492477417">
        <ele>758</ele>
        <time>2019-05-11T13:44:58Z</time>
      </trkpt>
      <trkpt lat="36.7921752929688" lon="-5.10475206375122">
        <ele>758</ele>
        <time>2019-05-11T13:45:01Z</time>
      </trkpt>
      <trkpt lat="36.7922019958496" lon="-5.10474681854248">
        <ele>758</ele>
        <time>2019-05-11T13:45:03Z</time>
      </trkpt>
      <trkpt lat="36.7922286987305" lon="-5.10474491119385">
        <ele>758</ele>
        <time>2019-05-11T13:45:05Z</time>
      </trkpt>
      <trkpt lat="36.7922477722168" lon="-5.1047477722168">
        <ele>758</ele>
        <time>2019-05-11T13:45:07Z</time>
      </trkpt>
      <trkpt lat="36.7922554016113" lon="-5.10475206375122">
        <ele>758</ele>
        <time>2019-05-11T13:45:09Z</time>
      </trkpt>
      <trkpt lat="36.7922668457031" lon="-5.10474491119385">
        <ele>758</ele>
        <time>2019-05-11T13:45:11Z</time>
      </trkpt>
      <trkpt lat="36.7922897338867" lon="-5.10473823547363">
        <ele>758</ele>
        <time>2019-05-11T13:45:13Z</time>
      </trkpt>
      <trkpt lat="36.7923126220703" lon="-5.10473299026489">
        <ele>758</ele>
        <time>2019-05-11T13:45:15Z</time>
      </trkpt>
      <trkpt lat="36.7923355102539" lon="-5.10472822189331">
        <ele>758</ele>
        <time>2019-05-11T13:45:17Z</time>
      </trkpt>
      <trkpt lat="36.7923698425293" lon="-5.10471677780151">
        <ele>758</ele>
        <time>2019-05-11T13:45:19Z</time>
      </trkpt>
      <trkpt lat="36.7923965454102" lon="-5.10471200942993">
        <ele>758</ele>
        <time>2019-05-11T13:45:21Z</time>
      </trkpt>
      <trkpt lat="36.792423248291" lon="-5.10471200942993">
        <ele>758</ele>
        <time>2019-05-11T13:45:23Z</time>
      </trkpt>
      <trkpt lat="36.7924537658691" lon="-5.10470819473267">
        <ele>758</ele>
        <time>2019-05-11T13:45:25Z</time>
      </trkpt>
      <trkpt lat="36.79248046875" lon="-5.10470485687256">
        <ele>758</ele>
        <time>2019-05-11T13:45:27Z</time>
      </trkpt>
      <trkpt lat="36.7925071716309" lon="-5.10470199584961">
        <ele>758</ele>
        <time>2019-05-11T13:45:29Z</time>
      </trkpt>
      <trkpt lat="36.7925338745117" lon="-5.10469484329224">
        <ele>758</ele>
        <time>2019-05-11T13:45:31Z</time>
      </trkpt>
      <trkpt lat="36.7925605773926" lon="-5.10468816757202">
        <ele>758</ele>
        <time>2019-05-11T13:45:33Z</time>
      </trkpt>
      <trkpt lat="36.7925872802734" lon="-5.1046781539917">
        <ele>758</ele>
        <time>2019-05-11T13:45:35Z</time>
      </trkpt>
      <trkpt lat="36.7926177978516" lon="-5.10467195510864">
        <ele>758</ele>
        <time>2019-05-11T13:45:38Z</time>
      </trkpt>
      <trkpt lat="36.7926445007324" lon="-5.10466814041138">
        <ele>758</ele>
        <time>2019-05-11T13:45:40Z</time>
      </trkpt>
      <trkpt lat="36.7926712036133" lon="-5.10466718673706">
        <ele>758</ele>
        <time>2019-05-11T13:45:42Z</time>
      </trkpt>
      <trkpt lat="36.7927017211914" lon="-5.10466289520264">
        <ele>758</ele>
        <time>2019-05-11T13:45:44Z</time>
      </trkpt>
      <trkpt lat="36.7927284240723" lon="-5.10466289520264">
        <ele>758</ele>
        <time>2019-05-11T13:45:46Z</time>
      </trkpt>
      <trkpt lat="36.7927513122559" lon="-5.10466003417969">
        <ele>758</ele>
        <time>2019-05-11T13:45:48Z</time>
      </trkpt>
      <trkpt lat="36.792781829834" lon="-5.10465717315674">
        <ele>758</ele>
        <time>2019-05-11T13:45:50Z</time>
      </trkpt>
      <trkpt lat="36.7928085327148" lon="-5.10465717315674">
        <ele>758</ele>
        <time>2019-05-11T13:45:52Z</time>
      </trkpt>
      <trkpt lat="36.7928314208984" lon="-5.10465812683106">
        <ele>758</ele>
        <time>2019-05-11T13:45:54Z</time>
      </trkpt>
      <trkpt lat="36.7928581237793" lon="-5.10466003417969">
        <ele>758</ele>
        <time>2019-05-11T13:45:56Z</time>
      </trkpt>
      <trkpt lat="36.7928886413574" lon="-5.10465478897095">
        <ele>758</ele>
        <time>2019-05-11T13:45:58Z</time>
      </trkpt>
      <trkpt lat="36.7929267883301" lon="-5.10465002059936">
        <ele>758</ele>
        <time>2019-05-11T13:46:00Z</time>
      </trkpt>
      <trkpt lat="36.7929534912109" lon="-5.10464477539062">
        <ele>758</ele>
        <time>2019-05-11T13:46:02Z</time>
      </trkpt>
      <trkpt lat="36.7929763793945" lon="-5.10464191436768">
        <ele>758</ele>
        <time>2019-05-11T13:46:04Z</time>
      </trkpt>
      <trkpt lat="36.7930068969727" lon="-5.10463809967041">
        <ele>758</ele>
        <time>2019-05-11T13:46:06Z</time>
      </trkpt>
      <trkpt lat="36.7930335998535" lon="-5.10463190078735">
        <ele>758</ele>
        <time>2019-05-11T13:46:08Z</time>
      </trkpt>
      <trkpt lat="36.7930564880371" lon="-5.10462713241577">
        <ele>758</ele>
        <time>2019-05-11T13:46:10Z</time>
      </trkpt>
      <trkpt lat="36.793083190918" lon="-5.10462713241577">
        <ele>758</ele>
        <time>2019-05-11T13:46:12Z</time>
      </trkpt>
      <trkpt lat="36.7931098937988" lon="-5.1046199798584">
        <ele>758</ele>
        <time>2019-05-11T13:46:14Z</time>
      </trkpt>
      <trkpt lat="36.7931365966797" lon="-5.10461807250977">
        <ele>758</ele>
        <time>2019-05-11T13:46:17Z</time>
      </trkpt>
      <trkpt lat="36.7931632995606" lon="-5.10461282730103">
        <ele>758</ele>
        <time>2019-05-11T13:46:19Z</time>
      </trkpt>
      <trkpt lat="36.7931861877441" lon="-5.10460519790649">
        <ele>758</ele>
        <time>2019-05-11T13:46:21Z</time>
      </trkpt>
      <trkpt lat="36.7932090759277" lon="-5.10459518432617">
        <ele>758</ele>
        <time>2019-05-11T13:46:23Z</time>
      </trkpt>
      <trkpt lat="36.7932319641113" lon="-5.10458993911743">
        <ele>758</ele>
        <time>2019-05-11T13:46:25Z</time>
      </trkpt>
      <trkpt lat="36.7932586669922" lon="-5.10458707809448">
        <ele>758</ele>
        <time>2019-05-11T13:46:27Z</time>
      </trkpt>
      <trkpt lat="36.7932777404785" lon="-5.10458183288574">
        <ele>758</ele>
        <time>2019-05-11T13:46:29Z</time>
      </trkpt>
      <trkpt lat="36.7933006286621" lon="-5.10458183288574">
        <ele>758</ele>
        <time>2019-05-11T13:46:31Z</time>
      </trkpt>
      <trkpt lat="36.7933311462402" lon="-5.10457801818848">
        <ele>756</ele>
        <time>2019-05-11T13:46:33Z</time>
      </trkpt>
      <trkpt lat="36.7933578491211" lon="-5.10457515716553">
        <ele>756</ele>
        <time>2019-05-11T13:46:35Z</time>
      </trkpt>
      <trkpt lat="36.793384552002" lon="-5.10457515716553">
        <ele>756</ele>
        <time>2019-05-11T13:46:37Z</time>
      </trkpt>
      <trkpt lat="36.7934226989746" lon="-5.10456800460815">
        <ele>756</ele>
        <time>2019-05-11T13:46:39Z</time>
      </trkpt>
      <trkpt lat="36.7934532165527" lon="-5.10456323623657">
        <ele>756</ele>
        <time>2019-05-11T13:46:41Z</time>
      </trkpt>
      <trkpt lat="36.7934799194336" lon="-5.10455989837646">
        <ele>755</ele>
        <time>2019-05-11T13:46:43Z</time>
      </trkpt>
      <trkpt lat="36.7935066223144" lon="-5.10455322265625">
        <ele>755</ele>
        <time>2019-05-11T13:46:45Z</time>
      </trkpt>
      <trkpt lat="36.7935333251953" lon="-5.10455322265625">
        <ele>754</ele>
        <time>2019-05-11T13:46:47Z</time>
      </trkpt>
      <trkpt lat="36.7935523986816" lon="-5.10454988479614">
        <ele>754</ele>
        <time>2019-05-11T13:46:49Z</time>
      </trkpt>
      <trkpt lat="36.7935829162598" lon="-5.10454511642456">
        <ele>753</ele>
        <time>2019-05-11T13:46:51Z</time>
      </trkpt>
      <trkpt lat="36.7936058044434" lon="-5.10453510284424">
        <ele>753</ele>
        <time>2019-05-11T13:46:53Z</time>
      </trkpt>
      <trkpt lat="36.7936363220215" lon="-5.10452699661255">
        <ele>753</ele>
        <time>2019-05-11T13:46:56Z</time>
      </trkpt>
      <trkpt lat="36.7936668395996" lon="-5.10451698303223">
        <ele>753</ele>
        <time>2019-05-11T13:46:58Z</time>
      </trkpt>
      <trkpt lat="36.7936935424805" lon="-5.10451507568359">
        <ele>751</ele>
        <time>2019-05-11T13:47:00Z</time>
      </trkpt>
      <trkpt lat="36.7937202453613" lon="-5.10451221466064">
        <ele>751</ele>
        <time>2019-05-11T13:47:02Z</time>
      </trkpt>
      <trkpt lat="36.7937431335449" lon="-5.10450792312622">
        <ele>751</ele>
        <time>2019-05-11T13:47:04Z</time>
      </trkpt>
      <trkpt lat="36.793773651123" lon="-5.10449981689453">
        <ele>751</ele>
        <time>2019-05-11T13:47:06Z</time>
      </trkpt>
      <trkpt lat="36.7937965393066" lon="-5.10449695587158">
        <ele>750</ele>
        <time>2019-05-11T13:47:08Z</time>
      </trkpt>
      <trkpt lat="36.7938194274902" lon="-5.10449695587158">
        <ele>750</ele>
        <time>2019-05-11T13:47:10Z</time>
      </trkpt>
      <trkpt lat="36.7938423156738" lon="-5.1044921875">
        <ele>749</ele>
        <time>2019-05-11T13:47:12Z</time>
      </trkpt>
      <trkpt lat="36.793888092041" lon="-5.10448694229126">
        <ele>748</ele>
        <time>2019-05-11T13:47:14Z</time>
      </trkpt>
      <trkpt lat="36.7939186096191" lon="-5.10449695587158">
        <ele>748</ele>
        <time>2019-05-11T13:47:16Z</time>
      </trkpt>
      <trkpt lat="36.7939453125" lon="-5.10450506210327">
        <ele>748</ele>
        <time>2019-05-11T13:47:18Z</time>
      </trkpt>
      <trkpt lat="36.7939758300781" lon="-5.10450506210327">
        <ele>748</ele>
        <time>2019-05-11T13:47:20Z</time>
      </trkpt>
      <trkpt lat="36.7940063476562" lon="-5.10450506210327">
        <ele>748</ele>
        <time>2019-05-11T13:47:22Z</time>
      </trkpt>
      <trkpt lat="36.7940330505371" lon="-5.10450315475464">
        <ele>748</ele>
        <time>2019-05-11T13:47:24Z</time>
      </trkpt>
      <trkpt lat="36.794059753418" lon="-5.1044979095459">
        <ele>748</ele>
        <time>2019-05-11T13:47:26Z</time>
      </trkpt>
      <trkpt lat="36.7940826416016" lon="-5.10449981689453">
        <ele>748</ele>
        <time>2019-05-11T13:47:28Z</time>
      </trkpt>
      <trkpt lat="36.7941093444824" lon="-5.10450220108032">
        <ele>748</ele>
        <time>2019-05-11T13:47:30Z</time>
      </trkpt>
      <trkpt lat="36.7941360473633" lon="-5.10449504852295">
        <ele>748</ele>
        <time>2019-05-11T13:47:33Z</time>
      </trkpt>
      <trkpt lat="36.7941665649414" lon="-5.10448694229126">
        <ele>748</ele>
        <time>2019-05-11T13:47:35Z</time>
      </trkpt>
      <trkpt lat="36.7941932678223" lon="-5.10448217391968">
        <ele>748</ele>
        <time>2019-05-11T13:47:37Z</time>
      </trkpt>
      <trkpt lat="36.7942237854004" lon="-5.10447788238525">
        <ele>748</ele>
        <time>2019-05-11T13:47:39Z</time>
      </trkpt>
      <trkpt lat="36.7942504882812" lon="-5.10447692871094">
        <ele>748</ele>
        <time>2019-05-11T13:47:41Z</time>
      </trkpt>
      <trkpt lat="36.7942771911621" lon="-5.10447692871094">
        <ele>748</ele>
        <time>2019-05-11T13:47:43Z</time>
      </trkpt>
      <trkpt lat="36.7943077087402" lon="-5.10447692871094">
        <ele>749</ele>
        <time>2019-05-11T13:47:45Z</time>
      </trkpt>
      <trkpt lat="36.7943382263184" lon="-5.10447978973389">
        <ele>750</ele>
        <time>2019-05-11T13:47:47Z</time>
      </trkpt>
      <trkpt lat="36.7943687438965" lon="-5.10448217391968">
        <ele>750</ele>
        <time>2019-05-11T13:47:49Z</time>
      </trkpt>
      <trkpt lat="36.7944107055664" lon="-5.10448312759399">
        <ele>751</ele>
        <time>2019-05-11T13:47:51Z</time>
      </trkpt>
      <trkpt lat="36.7944412231445" lon="-5.10448503494263">
        <ele>752</ele>
        <time>2019-05-11T13:47:53Z</time>
      </trkpt>
      <trkpt lat="36.7944717407227" lon="-5.10448789596558">
        <ele>752</ele>
        <time>2019-05-11T13:47:55Z</time>
      </trkpt>
      <trkpt lat="36.7944984436035" lon="-5.10449504852295">
        <ele>753</ele>
        <time>2019-05-11T13:47:57Z</time>
      </trkpt>
      <trkpt lat="36.7945251464844" lon="-5.10450315475464">
        <ele>753</ele>
        <time>2019-05-11T13:47:59Z</time>
      </trkpt>
      <trkpt lat="36.7945556640625" lon="-5.10450983047485">
        <ele>754</ele>
        <time>2019-05-11T13:48:01Z</time>
      </trkpt>
      <trkpt lat="36.7945861816406" lon="-5.10451698303223">
        <ele>754</ele>
        <time>2019-05-11T13:48:03Z</time>
      </trkpt>
      <trkpt lat="36.7946128845215" lon="-5.10452508926392">
        <ele>754</ele>
        <time>2019-05-11T13:48:05Z</time>
      </trkpt>
      <trkpt lat="36.7946434020996" lon="-5.10453510284424">
        <ele>755</ele>
        <time>2019-05-11T13:48:07Z</time>
      </trkpt>
      <trkpt lat="36.7946662902832" lon="-5.10454320907593">
        <ele>755</ele>
        <time>2019-05-11T13:48:10Z</time>
      </trkpt>
      <trkpt lat="36.7946968078613" lon="-5.10454797744751">
        <ele>755</ele>
        <time>2019-05-11T13:48:12Z</time>
      </trkpt>
      <trkpt lat="36.7947196960449" lon="-5.10455513000488">
        <ele>756</ele>
        <time>2019-05-11T13:48:14Z</time>
      </trkpt>
      <trkpt lat="36.7947463989258" lon="-5.10455513000488">
        <ele>756</ele>
        <time>2019-05-11T13:48:16Z</time>
      </trkpt>
      <trkpt lat="36.7947731018066" lon="-5.10455989837646">
        <ele>756</ele>
        <time>2019-05-11T13:48:18Z</time>
      </trkpt>
      <trkpt lat="36.7947998046875" lon="-5.10456991195679">
        <ele>756</ele>
        <time>2019-05-11T13:48:20Z</time>
      </trkpt>
      <trkpt lat="36.7948265075684" lon="-5.10457706451416">
        <ele>756</ele>
        <time>2019-05-11T13:48:22Z</time>
      </trkpt>
      <trkpt lat="36.7948532104492" lon="-5.10458278656006">
        <ele>756</ele>
        <time>2019-05-11T13:48:24Z</time>
      </trkpt>
      <trkpt lat="36.7948837280273" lon="-5.10459518432617">
        <ele>756</ele>
        <time>2019-05-11T13:48:26Z</time>
      </trkpt>
      <trkpt lat="36.794921875" lon="-5.10461282730103">
        <ele>756</ele>
        <time>2019-05-11T13:48:28Z</time>
      </trkpt>
      <trkpt lat="36.7949485778809" lon="-5.10462188720703">
        <ele>756</ele>
        <time>2019-05-11T13:48:30Z</time>
      </trkpt>
      <trkpt lat="36.7949752807617" lon="-5.10462522506714">
        <ele>756</ele>
        <time>2019-05-11T13:48:32Z</time>
      </trkpt>
      <trkpt lat="36.7950019836426" lon="-5.10462522506714">
        <ele>756</ele>
        <time>2019-05-11T13:48:34Z</time>
      </trkpt>
      <trkpt lat="36.7950286865234" lon="-5.10462522506714">
        <ele>756</ele>
        <time>2019-05-11T13:48:36Z</time>
      </trkpt>
      <trkpt lat="36.7950553894043" lon="-5.10462284088135">
        <ele>756</ele>
        <time>2019-05-11T13:48:38Z</time>
      </trkpt>
      <trkpt lat="36.7950820922852" lon="-5.10461282730103">
        <ele>757</ele>
        <time>2019-05-11T13:48:40Z</time>
      </trkpt>
      <trkpt lat="36.7951011657715" lon="-5.10461521148682">
        <ele>757</ele>
        <time>2019-05-11T13:48:42Z</time>
      </trkpt>
      <trkpt lat="36.7951240539551" lon="-5.10462522506714">
        <ele>758</ele>
        <time>2019-05-11T13:48:45Z</time>
      </trkpt>
      <trkpt lat="36.7951431274414" lon="-5.1046347618103">
        <ele>758</ele>
        <time>2019-05-11T13:48:47Z</time>
      </trkpt>
      <trkpt lat="36.7951469421387" lon="-5.10465812683106">
        <ele>758</ele>
        <time>2019-05-11T13:48:49Z</time>
      </trkpt>
      <trkpt lat="36.7951622009277" lon="-5.10467720031738">
        <ele>758</ele>
        <time>2019-05-11T13:48:51Z</time>
      </trkpt>
      <trkpt lat="36.7951850891113" lon="-5.10469198226929">
        <ele>758</ele>
        <time>2019-05-11T13:48:53Z</time>
      </trkpt>
      <trkpt lat="36.7952117919922" lon="-5.10470294952393">
        <ele>758</ele>
        <time>2019-05-11T13:48:55Z</time>
      </trkpt>
      <trkpt lat="36.795238494873" lon="-5.10471677780151">
        <ele>758</ele>
        <time>2019-05-11T13:48:57Z</time>
      </trkpt>
      <trkpt lat="36.7952651977539" lon="-5.10473012924194">
        <ele>758</ele>
        <time>2019-05-11T13:48:59Z</time>
      </trkpt>
      <trkpt lat="36.7952919006348" lon="-5.10474014282227">
        <ele>758</ele>
        <time>2019-05-11T13:49:01Z</time>
      </trkpt>
      <trkpt lat="36.7953338623047" lon="-5.10475015640259">
        <ele>758</ele>
        <time>2019-05-11T13:49:03Z</time>
      </trkpt>
      <trkpt lat="36.7953643798828" lon="-5.10475778579712">
        <ele>758</ele>
        <time>2019-05-11T13:49:05Z</time>
      </trkpt>
      <trkpt lat="36.7953948974609" lon="-5.10476779937744">
        <ele>758</ele>
        <time>2019-05-11T13:49:07Z</time>
      </trkpt>
      <trkpt lat="36.7954177856445" lon="-5.10478019714356">
        <ele>758</ele>
        <time>2019-05-11T13:49:09Z</time>
      </trkpt>
      <trkpt lat="36.7954444885254" lon="-5.10478782653809">
        <ele>758</ele>
        <time>2019-05-11T13:49:11Z</time>
      </trkpt>
      <trkpt lat="36.7954711914062" lon="-5.10479307174683">
        <ele>758</ele>
        <time>2019-05-11T13:49:13Z</time>
      </trkpt>
      <trkpt lat="36.7955017089844" lon="-5.10479784011841">
        <ele>758</ele>
        <time>2019-05-11T13:49:15Z</time>
      </trkpt>
      <trkpt lat="36.7955284118652" lon="-5.10480785369873">
        <ele>758</ele>
        <time>2019-05-11T13:49:17Z</time>
      </trkpt>
      <trkpt lat="36.7955551147461" lon="-5.10482501983643">
        <ele>758</ele>
        <time>2019-05-11T13:49:20Z</time>
      </trkpt>
      <trkpt lat="36.795581817627" lon="-5.1048378944397">
        <ele>758</ele>
        <time>2019-05-11T13:49:22Z</time>
      </trkpt>
      <trkpt lat="36.7956123352051" lon="-5.10485219955444">
        <ele>758</ele>
        <time>2019-05-11T13:49:24Z</time>
      </trkpt>
      <trkpt lat="36.7956428527832" lon="-5.10486221313477">
        <ele>758</ele>
        <time>2019-05-11T13:49:26Z</time>
      </trkpt>
      <trkpt lat="36.7956695556641" lon="-5.10487508773804">
        <ele>758</ele>
        <time>2019-05-11T13:49:28Z</time>
      </trkpt>
      <trkpt lat="36.7956962585449" lon="-5.10488319396973">
        <ele>758</ele>
        <time>2019-05-11T13:49:30Z</time>
      </trkpt>
      <trkpt lat="36.795726776123" lon="-5.10489177703857">
        <ele>758</ele>
        <time>2019-05-11T13:49:32Z</time>
      </trkpt>
      <trkpt lat="36.7957534790039" lon="-5.1049017906189">
        <ele>758</ele>
        <time>2019-05-11T13:49:34Z</time>
      </trkpt>
      <trkpt lat="36.795783996582" lon="-5.10491514205933">
        <ele>758</ele>
        <time>2019-05-11T13:49:36Z</time>
      </trkpt>
      <trkpt lat="36.795825958252" lon="-5.10492992401123">
        <ele>758</ele>
        <time>2019-05-11T13:49:38Z</time>
      </trkpt>
      <trkpt lat="36.7958526611328" lon="-5.10494184494019">
        <ele>758</ele>
        <time>2019-05-11T13:49:40Z</time>
      </trkpt>
      <trkpt lat="36.7958755493164" lon="-5.10495185852051">
        <ele>758</ele>
        <time>2019-05-11T13:49:42Z</time>
      </trkpt>
      <trkpt lat="36.7959060668945" lon="-5.10495710372925">
        <ele>758</ele>
        <time>2019-05-11T13:49:44Z</time>
      </trkpt>
      <trkpt lat="36.7959365844727" lon="-5.10496187210083">
        <ele>758</ele>
        <time>2019-05-11T13:49:46Z</time>
      </trkpt>
      <trkpt lat="36.7959632873535" lon="-5.10496520996094">
        <ele>758</ele>
        <time>2019-05-11T13:49:48Z</time>
      </trkpt>
      <trkpt lat="36.7959938049316" lon="-5.10497283935547">
        <ele>758</ele>
        <time>2019-05-11T13:49:50Z</time>
      </trkpt>
      <trkpt lat="36.7960243225098" lon="-5.10498189926147">
        <ele>758</ele>
        <time>2019-05-11T13:49:52Z</time>
      </trkpt>
      <trkpt lat="36.7960510253906" lon="-5.1049919128418">
        <ele>758</ele>
        <time>2019-05-11T13:49:55Z</time>
      </trkpt>
      <trkpt lat="36.7960777282715" lon="-5.10500001907349">
        <ele>758</ele>
        <time>2019-05-11T13:49:57Z</time>
      </trkpt>
      <trkpt lat="36.7961082458496" lon="-5.10500717163086">
        <ele>758</ele>
        <time>2019-05-11T13:49:59Z</time>
      </trkpt>
      <trkpt lat="36.7961311340332" lon="-5.10501718521118">
        <ele>758</ele>
        <time>2019-05-11T13:50:01Z</time>
      </trkpt>
      <trkpt lat="36.7961578369141" lon="-5.10502481460571">
        <ele>758</ele>
        <time>2019-05-11T13:50:03Z</time>
      </trkpt>
      <trkpt lat="36.7961845397949" lon="-5.10503721237183">
        <ele>758</ele>
        <time>2019-05-11T13:50:05Z</time>
      </trkpt>
      <trkpt lat="36.7962112426758" lon="-5.10504817962646">
        <ele>758</ele>
        <time>2019-05-11T13:50:07Z</time>
      </trkpt>
      <trkpt lat="36.7962379455566" lon="-5.10505819320679">
        <ele>758</ele>
        <time>2019-05-11T13:50:09Z</time>
      </trkpt>
      <trkpt lat="36.7962646484375" lon="-5.10506677627564">
        <ele>758</ele>
        <time>2019-05-11T13:50:11Z</time>
      </trkpt>
      <trkpt lat="36.7963027954102" lon="-5.10508489608765">
        <ele>758</ele>
        <time>2019-05-11T13:50:13Z</time>
      </trkpt>
      <trkpt lat="36.7963256835938" lon="-5.10509777069092">
        <ele>758</ele>
        <time>2019-05-11T13:50:15Z</time>
      </trkpt>
      <trkpt lat="36.7963523864746" lon="-5.10511493682861">
        <ele>758</ele>
        <time>2019-05-11T13:50:17Z</time>
      </trkpt>
      <trkpt lat="36.7963790893555" lon="-5.10512781143188">
        <ele>758</ele>
        <time>2019-05-11T13:50:19Z</time>
      </trkpt>
      <trkpt lat="36.7964057922363" lon="-5.10514307022095">
        <ele>758</ele>
        <time>2019-05-11T13:50:21Z</time>
      </trkpt>
      <trkpt lat="36.7964324951172" lon="-5.10516023635864">
        <ele>758</ele>
        <time>2019-05-11T13:50:23Z</time>
      </trkpt>
      <trkpt lat="36.7964553833008" lon="-5.10517692565918">
        <ele>758</ele>
        <time>2019-05-11T13:50:25Z</time>
      </trkpt>
      <trkpt lat="36.7964859008789" lon="-5.10518980026245">
        <ele>758</ele>
        <time>2019-05-11T13:50:27Z</time>
      </trkpt>
      <trkpt lat="36.7965087890625" lon="-5.10520315170288">
        <ele>758</ele>
        <time>2019-05-11T13:50:30Z</time>
      </trkpt>
      <trkpt lat="36.7965354919434" lon="-5.10521507263184">
        <ele>758</ele>
        <time>2019-05-11T13:50:32Z</time>
      </trkpt>
      <trkpt lat="36.7965621948242" lon="-5.10522794723511">
        <ele>758</ele>
        <time>2019-05-11T13:50:34Z</time>
      </trkpt>
      <trkpt lat="36.7965888977051" lon="-5.10524320602417">
        <ele>758</ele>
        <time>2019-05-11T13:50:36Z</time>
      </trkpt>
      <trkpt lat="36.7966117858887" lon="-5.10525798797607">
        <ele>758</ele>
        <time>2019-05-11T13:50:38Z</time>
      </trkpt>
      <trkpt lat="36.7966423034668" lon="-5.10527181625366">
        <ele>758</ele>
        <time>2019-05-11T13:50:40Z</time>
      </trkpt>
      <trkpt lat="36.7966651916504" lon="-5.10528516769409">
        <ele>758</ele>
        <time>2019-05-11T13:50:42Z</time>
      </trkpt>
      <trkpt lat="36.7966918945312" lon="-5.10530185699463">
        <ele>758</ele>
        <time>2019-05-11T13:50:44Z</time>
      </trkpt>
      <trkpt lat="36.7967147827148" lon="-5.10531282424927">
        <ele>758</ele>
        <time>2019-05-11T13:50:46Z</time>
      </trkpt>
      <trkpt lat="36.7967567443848" lon="-5.10532808303833">
        <ele>758</ele>
        <time>2019-05-11T13:50:48Z</time>
      </trkpt>
      <trkpt lat="36.7967796325684" lon="-5.10534715652466">
        <ele>758</ele>
        <time>2019-05-11T13:50:50Z</time>
      </trkpt>
      <trkpt lat="36.796802520752" lon="-5.10536479949951">
        <ele>758</ele>
        <time>2019-05-11T13:50:52Z</time>
      </trkpt>
      <trkpt lat="36.7968254089356" lon="-5.10538196563721">
        <ele>758</ele>
        <time>2019-05-11T13:50:54Z</time>
      </trkpt>
      <trkpt lat="36.7968482971191" lon="-5.10540294647217">
        <ele>758</ele>
        <time>2019-05-11T13:50:56Z</time>
      </trkpt>
      <trkpt lat="36.7968673706055" lon="-5.1054220199585">
        <ele>758</ele>
        <time>2019-05-11T13:50:58Z</time>
      </trkpt>
      <trkpt lat="36.7968902587891" lon="-5.10543823242188">
        <ele>758</ele>
        <time>2019-05-11T13:51:00Z</time>
      </trkpt>
      <trkpt lat="36.7969131469727" lon="-5.10545492172241">
        <ele>758</ele>
        <time>2019-05-11T13:51:02Z</time>
      </trkpt>
      <trkpt lat="36.7969398498535" lon="-5.10547208786011">
        <ele>758</ele>
        <time>2019-05-11T13:51:05Z</time>
      </trkpt>
      <trkpt lat="36.7969627380371" lon="-5.10548686981201">
        <ele>758</ele>
        <time>2019-05-11T13:51:07Z</time>
      </trkpt>
      <trkpt lat="36.796989440918" lon="-5.10550212860107">
        <ele>758</ele>
        <time>2019-05-11T13:51:09Z</time>
      </trkpt>
      <trkpt lat="36.7970123291016" lon="-5.10551977157593">
        <ele>758</ele>
        <time>2019-05-11T13:51:11Z</time>
      </trkpt>
      <trkpt lat="36.7970352172852" lon="-5.10553979873657">
        <ele>758</ele>
        <time>2019-05-11T13:51:13Z</time>
      </trkpt>
      <trkpt lat="36.7970581054688" lon="-5.10555505752564">
        <ele>758</ele>
        <time>2019-05-11T13:51:15Z</time>
      </trkpt>
      <trkpt lat="36.7970848083496" lon="-5.10557222366333">
        <ele>758</ele>
        <time>2019-05-11T13:51:17Z</time>
      </trkpt>
      <trkpt lat="36.7971038818359" lon="-5.10558986663818">
        <ele>758</ele>
        <time>2019-05-11T13:51:19Z</time>
      </trkpt>
      <trkpt lat="36.7971267700195" lon="-5.1056079864502">
        <ele>758</ele>
        <time>2019-05-11T13:51:21Z</time>
      </trkpt>
      <trkpt lat="36.7971611022949" lon="-5.10563516616821">
        <ele>758</ele>
        <time>2019-05-11T13:51:23Z</time>
      </trkpt>
      <trkpt lat="36.7971839904785" lon="-5.10565185546875">
        <ele>758</ele>
        <time>2019-05-11T13:51:25Z</time>
      </trkpt>
      <trkpt lat="36.7972106933594" lon="-5.10566806793213">
        <ele>758</ele>
        <time>2019-05-11T13:51:27Z</time>
      </trkpt>
      <trkpt lat="36.797233581543" lon="-5.10568809509277">
        <ele>758</ele>
        <time>2019-05-11T13:51:29Z</time>
      </trkpt>
      <trkpt lat="36.7972564697266" lon="-5.10571193695068">
        <ele>758</ele>
        <time>2019-05-11T13:51:31Z</time>
      </trkpt>
      <trkpt lat="36.7972755432129" lon="-5.10573482513428">
        <ele>758</ele>
        <time>2019-05-11T13:51:33Z</time>
      </trkpt>
      <trkpt lat="36.7972984313965" lon="-5.10575819015503">
        <ele>758</ele>
        <time>2019-05-11T13:51:35Z</time>
      </trkpt>
      <trkpt lat="36.7973213195801" lon="-5.10577821731567">
        <ele>758</ele>
        <time>2019-05-11T13:51:37Z</time>
      </trkpt>
      <trkpt lat="36.7973442077637" lon="-5.10579681396484">
        <ele>758</ele>
        <time>2019-05-11T13:51:40Z</time>
      </trkpt>
      <trkpt lat="36.7973670959473" lon="-5.10581684112549">
        <ele>758</ele>
        <time>2019-05-11T13:51:42Z</time>
      </trkpt>
      <trkpt lat="36.7973937988281" lon="-5.1058349609375">
        <ele>758</ele>
        <time>2019-05-11T13:51:44Z</time>
      </trkpt>
      <trkpt lat="36.7974166870117" lon="-5.1058521270752">
        <ele>758</ele>
        <time>2019-05-11T13:51:46Z</time>
      </trkpt>
      <trkpt lat="36.7974395751953" lon="-5.10586786270142">
        <ele>758</ele>
        <time>2019-05-11T13:51:48Z</time>
      </trkpt>
      <trkpt lat="36.7974624633789" lon="-5.10588788986206">
        <ele>758</ele>
        <time>2019-05-11T13:51:50Z</time>
      </trkpt>
      <trkpt lat="36.7974853515625" lon="-5.10590696334839">
        <ele>758</ele>
        <time>2019-05-11T13:51:52Z</time>
      </trkpt>
      <trkpt lat="36.7975082397461" lon="-5.1059250831604">
        <ele>758</ele>
        <time>2019-05-11T13:51:54Z</time>
      </trkpt>
      <trkpt lat="36.7975311279297" lon="-5.10594320297241">
        <ele>758</ele>
        <time>2019-05-11T13:51:56Z</time>
      </trkpt>
      <trkpt lat="36.7975540161133" lon="-5.10596179962158">
        <ele>758</ele>
        <time>2019-05-11T13:51:58Z</time>
      </trkpt>
      <trkpt lat="36.7975883483887" lon="-5.10598802566528">
        <ele>758</ele>
        <time>2019-05-11T13:52:00Z</time>
      </trkpt>
      <trkpt lat="36.7976112365723" lon="-5.10600185394287">
        <ele>758</ele>
        <time>2019-05-11T13:52:02Z</time>
      </trkpt>
      <trkpt lat="36.7976417541504" lon="-5.10601711273193">
        <ele>758</ele>
        <time>2019-05-11T13:52:04Z</time>
      </trkpt>
      <trkpt lat="36.797664642334" lon="-5.10603189468384">
        <ele>758</ele>
        <time>2019-05-11T13:52:06Z</time>
      </trkpt>
      <trkpt lat="36.7976875305176" lon="-5.10604810714722">
        <ele>758</ele>
        <time>2019-05-11T13:52:08Z</time>
      </trkpt>
      <trkpt lat="36.7977104187012" lon="-5.10606813430786">
        <ele>758</ele>
        <time>2019-05-11T13:52:10Z</time>
      </trkpt>
      <trkpt lat="36.7977333068848" lon="-5.10608720779419">
        <ele>758</ele>
        <time>2019-05-11T13:52:12Z</time>
      </trkpt>
      <trkpt lat="36.7977561950684" lon="-5.10610818862915">
        <ele>758</ele>
        <time>2019-05-11T13:52:14Z</time>
      </trkpt>
      <trkpt lat="36.797779083252" lon="-5.10613203048706">
        <ele>758</ele>
        <time>2019-05-11T13:52:17Z</time>
      </trkpt>
      <trkpt lat="36.7978019714356" lon="-5.10615301132202">
        <ele>758</ele>
        <time>2019-05-11T13:52:19Z</time>
      </trkpt>
      <trkpt lat="36.7978286743164" lon="-5.10617208480835">
        <ele>758</ele>
        <time>2019-05-11T13:52:21Z</time>
      </trkpt>
      <trkpt lat="36.7978515625" lon="-5.10619020462036">
        <ele>758</ele>
        <time>2019-05-11T13:52:23Z</time>
      </trkpt>
      <trkpt lat="36.7978782653809" lon="-5.10620784759522">
        <ele>758</ele>
        <time>2019-05-11T13:52:25Z</time>
      </trkpt>
      <trkpt lat="36.7979011535644" lon="-5.10622501373291">
        <ele>758</ele>
        <time>2019-05-11T13:52:27Z</time>
      </trkpt>
      <trkpt lat="36.797924041748" lon="-5.10624313354492">
        <ele>758</ele>
        <time>2019-05-11T13:52:29Z</time>
      </trkpt>
      <trkpt lat="36.7979507446289" lon="-5.10626220703125">
        <ele>758</ele>
        <time>2019-05-11T13:52:31Z</time>
      </trkpt>
      <trkpt lat="36.7979736328125" lon="-5.1062798500061">
        <ele>758</ele>
        <time>2019-05-11T13:52:33Z</time>
      </trkpt>
      <trkpt lat="36.7980117797852" lon="-5.10630798339844">
        <ele>758</ele>
        <time>2019-05-11T13:52:35Z</time>
      </trkpt>
      <trkpt lat="36.7980346679688" lon="-5.10632705688477">
        <ele>758</ele>
        <time>2019-05-11T13:52:37Z</time>
      </trkpt>
      <trkpt lat="36.7980575561523" lon="-5.10634183883667">
        <ele>758</ele>
        <time>2019-05-11T13:52:39Z</time>
      </trkpt>
      <trkpt lat="36.7980766296387" lon="-5.10636281967163">
        <ele>758</ele>
        <time>2019-05-11T13:52:41Z</time>
      </trkpt>
      <trkpt lat="36.7980918884277" lon="-5.10639190673828">
        <ele>758</ele>
        <time>2019-05-11T13:52:43Z</time>
      </trkpt>
      <trkpt lat="36.7981109619141" lon="-5.10641288757324">
        <ele>758</ele>
        <time>2019-05-11T13:52:45Z</time>
      </trkpt>
      <trkpt lat="36.7981338500977" lon="-5.10643005371094">
        <ele>758</ele>
        <time>2019-05-11T13:52:47Z</time>
      </trkpt>
      <trkpt lat="36.7981567382812" lon="-5.10643720626831">
        <ele>756</ele>
        <time>2019-05-11T13:52:49Z</time>
      </trkpt>
      <trkpt lat="36.7981796264648" lon="-5.10644721984863">
        <ele>756</ele>
        <time>2019-05-11T13:52:52Z</time>
      </trkpt>
      <trkpt lat="36.7982025146484" lon="-5.10645818710327">
        <ele>756</ele>
        <time>2019-05-11T13:52:54Z</time>
      </trkpt>
      <trkpt lat="36.798225402832" lon="-5.10646820068359">
        <ele>756</ele>
        <time>2019-05-11T13:52:56Z</time>
      </trkpt>
      <trkpt lat="36.7982482910156" lon="-5.10648012161255">
        <ele>755</ele>
        <time>2019-05-11T13:52:58Z</time>
      </trkpt>
      <trkpt lat="36.798267364502" lon="-5.10649681091309">
        <ele>755</ele>
        <time>2019-05-11T13:53:00Z</time>
      </trkpt>
      <trkpt lat="36.7982940673828" lon="-5.10651302337646">
        <ele>755</ele>
        <time>2019-05-11T13:53:02Z</time>
      </trkpt>
      <trkpt lat="36.7983169555664" lon="-5.10652780532837">
        <ele>755</ele>
        <time>2019-05-11T13:53:04Z</time>
      </trkpt>
      <trkpt lat="36.7983436584473" lon="-5.10654497146606">
        <ele>754</ele>
        <time>2019-05-11T13:53:06Z</time>
      </trkpt>
      <trkpt lat="36.7983703613281" lon="-5.10656213760376">
        <ele>754</ele>
        <time>2019-05-11T13:53:08Z</time>
      </trkpt>
      <trkpt lat="36.7984046936035" lon="-5.10659217834473">
        <ele>754</ele>
        <time>2019-05-11T13:53:10Z</time>
      </trkpt>
      <trkpt lat="36.7984275817871" lon="-5.10660791397095">
        <ele>754</ele>
        <time>2019-05-11T13:53:12Z</time>
      </trkpt>
      <trkpt lat="36.7984504699707" lon="-5.10662698745728">
        <ele>754</ele>
        <time>2019-05-11T13:53:14Z</time>
      </trkpt>
      <trkpt lat="36.7984733581543" lon="-5.10664510726929">
        <ele>754</ele>
        <time>2019-05-11T13:53:16Z</time>
      </trkpt>
      <trkpt lat="36.7984924316406" lon="-5.10666179656982">
        <ele>754</ele>
        <time>2019-05-11T13:53:18Z</time>
      </trkpt>
      <trkpt lat="36.798511505127" lon="-5.10668182373047">
        <ele>754</ele>
        <time>2019-05-11T13:53:20Z</time>
      </trkpt>
      <trkpt lat="36.7985305786133" lon="-5.10670280456543">
        <ele>754</ele>
        <time>2019-05-11T13:53:22Z</time>
      </trkpt>
      <trkpt lat="36.7985496520996" lon="-5.10672187805176">
        <ele>754</ele>
        <time>2019-05-11T13:53:24Z</time>
      </trkpt>
      <trkpt lat="36.7985725402832" lon="-5.10673809051514">
        <ele>754</ele>
        <time>2019-05-11T13:53:27Z</time>
      </trkpt>
      <trkpt lat="36.7985954284668" lon="-5.10675191879272">
        <ele>754</ele>
        <time>2019-05-11T13:53:29Z</time>
      </trkpt>
      <trkpt lat="36.7986183166504" lon="-5.10676717758179">
        <ele>754</ele>
        <time>2019-05-11T13:53:31Z</time>
      </trkpt>
      <trkpt lat="36.798641204834" lon="-5.10678482055664">
        <ele>754</ele>
        <time>2019-05-11T13:53:33Z</time>
      </trkpt>
      <trkpt lat="36.7986679077148" lon="-5.10680294036865">
        <ele>754</ele>
        <time>2019-05-11T13:53:35Z</time>
      </trkpt>
      <trkpt lat="36.7986907958984" lon="-5.10682010650635">
        <ele>754</ele>
        <time>2019-05-11T13:53:37Z</time>
      </trkpt>
      <trkpt lat="36.798713684082" lon="-5.10683679580688">
        <ele>754</ele>
        <time>2019-05-11T13:53:39Z</time>
      </trkpt>
      <trkpt lat="36.7987365722656" lon="-5.10684776306152">
        <ele>754</ele>
        <time>2019-05-11T13:53:41Z</time>
      </trkpt>
      <trkpt lat="36.7987594604492" lon="-5.10686206817627">
        <ele>754</ele>
        <time>2019-05-11T13:53:43Z</time>
      </trkpt>
      <trkpt lat="36.7987899780273" lon="-5.10688495635986">
        <ele>754</ele>
        <time>2019-05-11T13:53:45Z</time>
      </trkpt>
      <trkpt lat="36.7988128662109" lon="-5.10689783096314">
        <ele>754</ele>
        <time>2019-05-11T13:53:47Z</time>
      </trkpt>
      <trkpt lat="36.7988319396973" lon="-5.1069130897522">
        <ele>754</ele>
        <time>2019-05-11T13:53:49Z</time>
      </trkpt>
      <trkpt lat="36.7988586425781" lon="-5.10692691802978">
        <ele>754</ele>
        <time>2019-05-11T13:53:51Z</time>
      </trkpt>
      <trkpt lat="36.7988815307617" lon="-5.10694313049316">
        <ele>754</ele>
        <time>2019-05-11T13:53:53Z</time>
      </trkpt>
      <trkpt lat="36.798900604248" lon="-5.1069598197937">
        <ele>754</ele>
        <time>2019-05-11T13:53:55Z</time>
      </trkpt>
      <trkpt lat="36.7989234924316" lon="-5.10697984695435">
        <ele>754</ele>
        <time>2019-05-11T13:53:57Z</time>
      </trkpt>
      <trkpt lat="36.7989463806152" lon="-5.10699701309204">
        <ele>754</ele>
        <time>2019-05-11T13:53:59Z</time>
      </trkpt>
      <trkpt lat="36.7989654541016" lon="-5.10701704025269">
        <ele>754</ele>
        <time>2019-05-11T13:54:01Z</time>
      </trkpt>
      <trkpt lat="36.7989883422852" lon="-5.10703802108765">
        <ele>754</ele>
        <time>2019-05-11T13:54:04Z</time>
      </trkpt>
      <trkpt lat="36.7990112304688" lon="-5.10705709457397">
        <ele>754</ele>
        <time>2019-05-11T13:54:06Z</time>
      </trkpt>
      <trkpt lat="36.7990341186523" lon="-5.10707187652588">
        <ele>754</ele>
        <time>2019-05-11T13:54:08Z</time>
      </trkpt>
      <trkpt lat="36.7990608215332" lon="-5.10708522796631">
        <ele>754</ele>
        <time>2019-05-11T13:54:10Z</time>
      </trkpt>
      <trkpt lat="36.7990875244141" lon="-5.10710000991821">
        <ele>754</ele>
        <time>2019-05-11T13:54:12Z</time>
      </trkpt>
      <trkpt lat="36.7991104125977" lon="-5.10711717605591">
        <ele>754</ele>
        <time>2019-05-11T13:54:14Z</time>
      </trkpt>
      <trkpt lat="36.7991333007812" lon="-5.10713291168213">
        <ele>754</ele>
        <time>2019-05-11T13:54:16Z</time>
      </trkpt>
      <trkpt lat="36.7991561889648" lon="-5.10715007781982">
        <ele>754</ele>
        <time>2019-05-11T13:54:18Z</time>
      </trkpt>
      <trkpt lat="36.7991790771484" lon="-5.10716485977173">
        <ele>753</ele>
        <time>2019-05-11T13:54:20Z</time>
      </trkpt>
      <trkpt lat="36.7992134094238" lon="-5.10718822479248">
        <ele>753</ele>
        <time>2019-05-11T13:54:22Z</time>
      </trkpt>
      <trkpt lat="36.7992401123047" lon="-5.10720300674438">
        <ele>753</ele>
        <time>2019-05-11T13:54:24Z</time>
      </trkpt>
      <trkpt lat="36.7992630004883" lon="-5.10721778869629">
        <ele>753</ele>
        <time>2019-05-11T13:54:26Z</time>
      </trkpt>
      <trkpt lat="36.7992897033691" lon="-5.10723209381104">
        <ele>753</ele>
        <time>2019-05-11T13:54:28Z</time>
      </trkpt>
      <trkpt lat="36.7993087768555" lon="-5.10725212097168">
        <ele>753</ele>
        <time>2019-05-11T13:54:30Z</time>
      </trkpt>
      <trkpt lat="36.7993278503418" lon="-5.1072678565979">
        <ele>753</ele>
        <time>2019-05-11T13:54:32Z</time>
      </trkpt>
      <trkpt lat="36.7993469238281" lon="-5.10728216171265">
        <ele>753</ele>
        <time>2019-05-11T13:54:34Z</time>
      </trkpt>
      <trkpt lat="36.799373626709" lon="-5.10729789733887">
        <ele>753</ele>
        <time>2019-05-11T13:54:36Z</time>
      </trkpt>
      <trkpt lat="36.7993927001953" lon="-5.10731315612793">
        <ele>753</ele>
        <time>2019-05-11T13:54:39Z</time>
      </trkpt>
      <trkpt lat="36.7994155883789" lon="-5.10732698440552">
        <ele>753</ele>
        <time>2019-05-11T13:54:41Z</time>
      </trkpt>
      <trkpt lat="36.7994384765625" lon="-5.10734701156616">
        <ele>753</ele>
        <time>2019-05-11T13:54:43Z</time>
      </trkpt>
      <trkpt lat="36.7994613647461" lon="-5.10736703872681">
        <ele>753</ele>
        <time>2019-05-11T13:54:45Z</time>
      </trkpt>
      <trkpt lat="36.7994842529297" lon="-5.10738801956177">
        <ele>753</ele>
        <time>2019-05-11T13:54:47Z</time>
      </trkpt>
      <trkpt lat="36.799503326416" lon="-5.10741281509399">
        <ele>753</ele>
        <time>2019-05-11T13:54:49Z</time>
      </trkpt>
      <trkpt lat="36.7995262145996" lon="-5.10743284225464">
        <ele>753</ele>
        <time>2019-05-11T13:54:51Z</time>
      </trkpt>
      <trkpt lat="36.7995491027832" lon="-5.10745191574097">
        <ele>753</ele>
        <time>2019-05-11T13:54:53Z</time>
      </trkpt>
      <trkpt lat="36.7995758056641" lon="-5.10747289657593">
        <ele>753</ele>
        <time>2019-05-11T13:54:55Z</time>
      </trkpt>
      <trkpt lat="36.7996063232422" lon="-5.10750484466553">
        <ele>753</ele>
        <time>2019-05-11T13:54:57Z</time>
      </trkpt>
      <trkpt lat="36.7996253967285" lon="-5.10752487182617">
        <ele>753</ele>
        <time>2019-05-11T13:54:59Z</time>
      </trkpt>
      <trkpt lat="36.7996482849121" lon="-5.10754680633545">
        <ele>753</ele>
        <time>2019-05-11T13:55:01Z</time>
      </trkpt>
      <trkpt lat="36.7996673583984" lon="-5.10756778717041">
        <ele>753</ele>
        <time>2019-05-11T13:55:03Z</time>
      </trkpt>
      <trkpt lat="36.7996864318848" lon="-5.10759210586548">
        <ele>753</ele>
        <time>2019-05-11T13:55:05Z</time>
      </trkpt>
      <trkpt lat="36.7997016906738" lon="-5.10761976242065">
        <ele>753</ele>
        <time>2019-05-11T13:55:07Z</time>
      </trkpt>
      <trkpt lat="36.7997169494629" lon="-5.10764980316162">
        <ele>753</ele>
        <time>2019-05-11T13:55:09Z</time>
      </trkpt>
      <trkpt lat="36.799732208252" lon="-5.10767793655396">
        <ele>753</ele>
        <time>2019-05-11T13:55:11Z</time>
      </trkpt>
      <trkpt lat="36.7997436523438" lon="-5.10770988464356">
        <ele>753</ele>
        <time>2019-05-11T13:55:14Z</time>
      </trkpt>
      <trkpt lat="36.7997550964356" lon="-5.10773992538452">
        <ele>753</ele>
        <time>2019-05-11T13:55:16Z</time>
      </trkpt>
      <trkpt lat="36.7997703552246" lon="-5.10776805877686">
        <ele>753</ele>
        <time>2019-05-11T13:55:18Z</time>
      </trkpt>
      <trkpt lat="36.7997817993164" lon="-5.10779809951782">
        <ele>753</ele>
        <time>2019-05-11T13:55:20Z</time>
      </trkpt>
      <trkpt lat="36.7997970581055" lon="-5.10782814025879">
        <ele>753</ele>
        <time>2019-05-11T13:55:22Z</time>
      </trkpt>
      <trkpt lat="36.7998161315918" lon="-5.10785293579102">
        <ele>753</ele>
        <time>2019-05-11T13:55:24Z</time>
      </trkpt>
      <trkpt lat="36.7998428344727" lon="-5.10787200927734">
        <ele>753</ele>
        <time>2019-05-11T13:55:26Z</time>
      </trkpt>
      <trkpt lat="36.7998657226562" lon="-5.10789012908936">
        <ele>753</ele>
        <time>2019-05-11T13:55:28Z</time>
      </trkpt>
      <trkpt lat="36.7998924255371" lon="-5.10790681838989">
        <ele>753</ele>
        <time>2019-05-11T13:55:30Z</time>
      </trkpt>
      <trkpt lat="36.7999267578125" lon="-5.10793304443359">
        <ele>753</ele>
        <time>2019-05-11T13:55:32Z</time>
      </trkpt>
      <trkpt lat="36.7999534606934" lon="-5.10795021057129">
        <ele>753</ele>
        <time>2019-05-11T13:55:34Z</time>
      </trkpt>
      <trkpt lat="36.799976348877" lon="-5.10796785354614">
        <ele>753</ele>
        <time>2019-05-11T13:55:36Z</time>
      </trkpt>
      <trkpt lat="36.7999992370606" lon="-5.10798788070679">
        <ele>753</ele>
        <time>2019-05-11T13:55:38Z</time>
      </trkpt>
      <trkpt lat="36.8000221252441" lon="-5.10800695419312">
        <ele>753</ele>
        <time>2019-05-11T13:55:40Z</time>
      </trkpt>
      <trkpt lat="36.800048828125" lon="-5.10802507400513">
        <ele>753</ele>
        <time>2019-05-11T13:55:42Z</time>
      </trkpt>
      <trkpt lat="36.8000717163086" lon="-5.10804176330566">
        <ele>753</ele>
        <time>2019-05-11T13:55:44Z</time>
      </trkpt>
      <trkpt lat="36.8000984191894" lon="-5.10805988311768">
        <ele>753</ele>
        <time>2019-05-11T13:55:47Z</time>
      </trkpt>
      <trkpt lat="36.800121307373" lon="-5.10807704925537">
        <ele>753</ele>
        <time>2019-05-11T13:55:49Z</time>
      </trkpt>
      <trkpt lat="36.8001441955566" lon="-5.10809516906738">
        <ele>753</ele>
        <time>2019-05-11T13:55:51Z</time>
      </trkpt>
      <trkpt lat="36.8001670837402" lon="-5.10811281204224">
        <ele>753</ele>
        <time>2019-05-11T13:55:53Z</time>
      </trkpt>
      <trkpt lat="36.8001937866211" lon="-5.10813188552856">
        <ele>753</ele>
        <time>2019-05-11T13:55:55Z</time>
      </trkpt>
      <trkpt lat="36.8002166748047" lon="-5.10815000534058">
        <ele>753</ele>
        <time>2019-05-11T13:55:57Z</time>
      </trkpt>
      <trkpt lat="36.8002433776856" lon="-5.10816812515259">
        <ele>753</ele>
        <time>2019-05-11T13:55:59Z</time>
      </trkpt>
      <trkpt lat="36.8002662658691" lon="-5.10818719863892">
        <ele>753</ele>
        <time>2019-05-11T13:56:01Z</time>
      </trkpt>
      <trkpt lat="36.8002891540527" lon="-5.10820484161377">
        <ele>753</ele>
        <time>2019-05-11T13:56:03Z</time>
      </trkpt>
      <trkpt lat="36.8003120422363" lon="-5.10822296142578">
        <ele>753</ele>
        <time>2019-05-11T13:56:05Z</time>
      </trkpt>
      <trkpt lat="36.8003463745117" lon="-5.10824823379517">
        <ele>753</ele>
        <time>2019-05-11T13:56:07Z</time>
      </trkpt>
      <trkpt lat="36.8003730773926" lon="-5.10826683044434">
        <ele>753</ele>
        <time>2019-05-11T13:56:09Z</time>
      </trkpt>
      <trkpt lat="36.8003959655762" lon="-5.10828495025635">
        <ele>753</ele>
        <time>2019-05-11T13:56:11Z</time>
      </trkpt>
      <trkpt lat="36.8004188537598" lon="-5.10830307006836">
        <ele>753</ele>
        <time>2019-05-11T13:56:13Z</time>
      </trkpt>
      <trkpt lat="36.8004417419434" lon="-5.10832214355469">
        <ele>753</ele>
        <time>2019-05-11T13:56:15Z</time>
      </trkpt>
      <trkpt lat="36.800464630127" lon="-5.10833978652954">
        <ele>753</ele>
        <time>2019-05-11T13:56:17Z</time>
      </trkpt>
      <trkpt lat="36.8004875183106" lon="-5.10835981369019">
        <ele>753</ele>
        <time>2019-05-11T13:56:19Z</time>
      </trkpt>
      <trkpt lat="36.8005104064941" lon="-5.1083779335022">
        <ele>753</ele>
        <time>2019-05-11T13:56:21Z</time>
      </trkpt>
      <trkpt lat="36.8005332946777" lon="-5.10839796066284">
        <ele>753</ele>
        <time>2019-05-11T13:56:24Z</time>
      </trkpt>
      <trkpt lat="36.8005561828613" lon="-5.10841798782349">
        <ele>753</ele>
        <time>2019-05-11T13:56:26Z</time>
      </trkpt>
      <trkpt lat="36.8005828857422" lon="-5.10843515396118">
        <ele>753</ele>
        <time>2019-05-11T13:56:28Z</time>
      </trkpt>
      <trkpt lat="36.800609588623" lon="-5.10845184326172">
        <ele>753</ele>
        <time>2019-05-11T13:56:30Z</time>
      </trkpt>
      <trkpt lat="36.8006324768066" lon="-5.10846996307373">
        <ele>753</ele>
        <time>2019-05-11T13:56:32Z</time>
      </trkpt>
      <trkpt lat="36.8006553649902" lon="-5.10848712921143">
        <ele>753</ele>
        <time>2019-05-11T13:56:34Z</time>
      </trkpt>
      <trkpt lat="36.8006820678711" lon="-5.10850286483765">
        <ele>753</ele>
        <time>2019-05-11T13:56:36Z</time>
      </trkpt>
      <trkpt lat="36.800708770752" lon="-5.10852193832397">
        <ele>753</ele>
        <time>2019-05-11T13:56:38Z</time>
      </trkpt>
      <trkpt lat="36.8007316589356" lon="-5.10853815078735">
        <ele>753</ele>
        <time>2019-05-11T13:56:40Z</time>
      </trkpt>
      <trkpt lat="36.8007698059082" lon="-5.10856294631958">
        <ele>753</ele>
        <time>2019-05-11T13:56:42Z</time>
      </trkpt>
      <trkpt lat="36.8007965087891" lon="-5.10858011245728">
        <ele>753</ele>
        <time>2019-05-11T13:56:44Z</time>
      </trkpt>
      <trkpt lat="36.8008193969727" lon="-5.10859680175781">
        <ele>753</ele>
        <time>2019-05-11T13:56:46Z</time>
      </trkpt>
      <trkpt lat="36.8008422851562" lon="-5.10861301422119">
        <ele>753</ele>
        <time>2019-05-11T13:56:48Z</time>
      </trkpt>
      <trkpt lat="36.8008651733398" lon="-5.10863018035889">
        <ele>753</ele>
        <time>2019-05-11T13:56:50Z</time>
      </trkpt>
      <trkpt lat="36.8008918762207" lon="-5.10864782333374">
        <ele>753</ele>
        <time>2019-05-11T13:56:52Z</time>
      </trkpt>
      <trkpt lat="36.8009185791016" lon="-5.10866498947144">
        <ele>753</ele>
        <time>2019-05-11T13:56:54Z</time>
      </trkpt>
      <trkpt lat="36.8009414672852" lon="-5.10868310928345">
        <ele>753</ele>
        <time>2019-05-11T13:56:56Z</time>
      </trkpt>
      <trkpt lat="36.8009643554688" lon="-5.10870218276978">
        <ele>753</ele>
        <time>2019-05-11T13:56:59Z</time>
      </trkpt>
      <trkpt lat="36.8009872436523" lon="-5.10871696472168">
        <ele>753</ele>
        <time>2019-05-11T13:57:01Z</time>
      </trkpt>
      <trkpt lat="36.8010139465332" lon="-5.10873317718506">
        <ele>753</ele>
        <time>2019-05-11T13:57:03Z</time>
      </trkpt>
      <trkpt lat="36.8010368347168" lon="-5.1087532043457">
        <ele>753</ele>
        <time>2019-05-11T13:57:05Z</time>
      </trkpt>
      <trkpt lat="36.8010597229004" lon="-5.10877323150635">
        <ele>753</ele>
        <time>2019-05-11T13:57:07Z</time>
      </trkpt>
      <trkpt lat="36.8010787963867" lon="-5.10878705978394">
        <ele>753</ele>
        <time>2019-05-11T13:57:09Z</time>
      </trkpt>
      <trkpt lat="36.8011016845703" lon="-5.10880279541016">
        <ele>753</ele>
        <time>2019-05-11T13:57:11Z</time>
      </trkpt>
      <trkpt lat="36.8011207580566" lon="-5.10881185531616">
        <ele>753</ele>
        <time>2019-05-11T13:57:13Z</time>
      </trkpt>
      <trkpt lat="36.8011436462402" lon="-5.10882186889648">
        <ele>753</ele>
        <time>2019-05-11T13:57:15Z</time>
      </trkpt>
      <trkpt lat="36.8011779785156" lon="-5.10884809494019">
        <ele>753</ele>
        <time>2019-05-11T13:57:17Z</time>
      </trkpt>
      <trkpt lat="36.8012008666992" lon="-5.10887002944946">
        <ele>753</ele>
        <time>2019-05-11T13:57:19Z</time>
      </trkpt>
      <trkpt lat="36.8012237548828" lon="-5.10889291763306">
        <ele>753</ele>
        <time>2019-05-11T13:57:21Z</time>
      </trkpt>
      <trkpt lat="36.8012466430664" lon="-5.1089129447937">
        <ele>753</ele>
        <time>2019-05-11T13:57:23Z</time>
      </trkpt>
      <trkpt lat="36.8012733459473" lon="-5.10893201828003">
        <ele>752</ele>
        <time>2019-05-11T13:57:25Z</time>
      </trkpt>
      <trkpt lat="36.8013000488281" lon="-5.10895204544067">
        <ele>751</ele>
        <time>2019-05-11T13:57:27Z</time>
      </trkpt>
      <trkpt lat="36.801326751709" lon="-5.10896778106689">
        <ele>751</ele>
        <time>2019-05-11T13:57:29Z</time>
      </trkpt>
      <trkpt lat="36.8013534545898" lon="-5.10898494720459">
        <ele>751</ele>
        <time>2019-05-11T13:57:31Z</time>
      </trkpt>
      <trkpt lat="36.8013763427734" lon="-5.10900211334228">
        <ele>751</ele>
        <time>2019-05-11T13:57:34Z</time>
      </trkpt>
      <trkpt lat="36.8014030456543" lon="-5.1090202331543">
        <ele>751</ele>
        <time>2019-05-11T13:57:36Z</time>
      </trkpt>
      <trkpt lat="36.8014259338379" lon="-5.10903692245483">
        <ele>751</ele>
        <time>2019-05-11T13:57:38Z</time>
      </trkpt>
      <trkpt lat="36.8014488220215" lon="-5.10905313491821">
        <ele>751</ele>
        <time>2019-05-11T13:57:40Z</time>
      </trkpt>
      <trkpt lat="36.8014717102051" lon="-5.10907220840454">
        <ele>751</ele>
        <time>2019-05-11T13:57:42Z</time>
      </trkpt>
      <trkpt lat="36.8014945983887" lon="-5.10908699035644">
        <ele>751</ele>
        <time>2019-05-11T13:57:44Z</time>
      </trkpt>
      <trkpt lat="36.8015174865723" lon="-5.10910511016846">
        <ele>751</ele>
        <time>2019-05-11T13:57:46Z</time>
      </trkpt>
      <trkpt lat="36.8015403747559" lon="-5.10911989212036">
        <ele>751</ele>
        <time>2019-05-11T13:57:48Z</time>
      </trkpt>
      <trkpt lat="36.8015632629394" lon="-5.10913801193237">
        <ele>751</ele>
        <time>2019-05-11T13:57:50Z</time>
      </trkpt>
      <trkpt lat="36.8016014099121" lon="-5.10916709899902">
        <ele>751</ele>
        <time>2019-05-11T13:57:52Z</time>
      </trkpt>
      <trkpt lat="36.8016204833984" lon="-5.10918283462524">
        <ele>751</ele>
        <time>2019-05-11T13:57:54Z</time>
      </trkpt>
      <trkpt lat="36.801643371582" lon="-5.10919809341431">
        <ele>751</ele>
        <time>2019-05-11T13:57:56Z</time>
      </trkpt>
      <trkpt lat="36.8016662597656" lon="-5.10921287536621">
        <ele>751</ele>
        <time>2019-05-11T13:57:58Z</time>
      </trkpt>
      <trkpt lat="36.8016891479492" lon="-5.10922718048096">
        <ele>751</ele>
        <time>2019-05-11T13:58:00Z</time>
      </trkpt>
      <trkpt lat="36.8017082214356" lon="-5.10924482345581">
        <ele>751</ele>
        <time>2019-05-11T13:58:02Z</time>
      </trkpt>
      <trkpt lat="36.8017311096191" lon="-5.10926198959351">
        <ele>751</ele>
        <time>2019-05-11T13:58:04Z</time>
      </trkpt>
      <trkpt lat="36.8017539978027" lon="-5.10927677154541">
        <ele>750</ele>
        <time>2019-05-11T13:58:06Z</time>
      </trkpt>
      <trkpt lat="36.8017730712891" lon="-5.10929489135742">
        <ele>750</ele>
        <time>2019-05-11T13:58:09Z</time>
      </trkpt>
      <trkpt lat="36.8017921447754" lon="-5.10930776596069">
        <ele>750</ele>
        <time>2019-05-11T13:58:11Z</time>
      </trkpt>
      <trkpt lat="36.8018188476562" lon="-5.10932493209839">
        <ele>750</ele>
        <time>2019-05-11T13:58:13Z</time>
      </trkpt>
      <trkpt lat="36.8018379211426" lon="-5.10934209823608">
        <ele>750</ele>
        <time>2019-05-11T13:58:15Z</time>
      </trkpt>
      <trkpt lat="36.8018608093262" lon="-5.1093602180481">
        <ele>750</ele>
        <time>2019-05-11T13:58:17Z</time>
      </trkpt>
      <trkpt lat="36.8018836975098" lon="-5.10937690734863">
        <ele>750</ele>
        <time>2019-05-11T13:58:19Z</time>
      </trkpt>
      <trkpt lat="36.8019027709961" lon="-5.10939311981201">
        <ele>750</ele>
        <time>2019-05-11T13:58:21Z</time>
      </trkpt>
      <trkpt lat="36.8019256591797" lon="-5.10941219329834">
        <ele>750</ele>
        <time>2019-05-11T13:58:23Z</time>
      </trkpt>
      <trkpt lat="36.8019485473633" lon="-5.10942983627319">
        <ele>750</ele>
        <time>2019-05-11T13:58:25Z</time>
      </trkpt>
      <trkpt lat="36.8019828796387" lon="-5.10945510864258">
        <ele>749</ele>
        <time>2019-05-11T13:58:27Z</time>
      </trkpt>
      <trkpt lat="36.802001953125" lon="-5.10947179794312">
        <ele>749</ele>
        <time>2019-05-11T13:58:29Z</time>
      </trkpt>
      <trkpt lat="36.8020286560059" lon="-5.10948801040649">
        <ele>749</ele>
        <time>2019-05-11T13:58:31Z</time>
      </trkpt>
      <trkpt lat="36.8020477294922" lon="-5.1095027923584">
        <ele>749</ele>
        <time>2019-05-11T13:58:33Z</time>
      </trkpt>
      <trkpt lat="36.8020668029785" lon="-5.10951805114746">
        <ele>749</ele>
        <time>2019-05-11T13:58:35Z</time>
      </trkpt>
      <trkpt lat="36.8020935058594" lon="-5.10953521728516">
        <ele>749</ele>
        <time>2019-05-11T13:58:37Z</time>
      </trkpt>
      <trkpt lat="36.8021125793457" lon="-5.10954999923706">
        <ele>749</ele>
        <time>2019-05-11T13:58:39Z</time>
      </trkpt>
      <trkpt lat="36.8021354675293" lon="-5.10956811904907">
        <ele>749</ele>
        <time>2019-05-11T13:58:41Z</time>
      </trkpt>
      <trkpt lat="36.8021545410156" lon="-5.10958814620972">
        <ele>749</ele>
        <time>2019-05-11T13:58:43Z</time>
      </trkpt>
      <trkpt lat="36.8021774291992" lon="-5.10960721969604">
        <ele>749</ele>
        <time>2019-05-11T13:58:46Z</time>
      </trkpt>
      <trkpt lat="36.8022003173828" lon="-5.10962295532227">
        <ele>749</ele>
        <time>2019-05-11T13:58:48Z</time>
      </trkpt>
      <trkpt lat="36.8022232055664" lon="-5.10963821411133">
        <ele>749</ele>
        <time>2019-05-11T13:58:50Z</time>
      </trkpt>
      <trkpt lat="36.80224609375" lon="-5.10965490341186">
        <ele>748</ele>
        <time>2019-05-11T13:58:52Z</time>
      </trkpt>
      <trkpt lat="36.8022727966309" lon="-5.10967016220093">
        <ele>748</ele>
        <time>2019-05-11T13:58:54Z</time>
      </trkpt>
      <trkpt lat="36.8022956848144" lon="-5.10968494415283">
        <ele>748</ele>
        <time>2019-05-11T13:58:56Z</time>
      </trkpt>
      <trkpt lat="36.802318572998" lon="-5.10970020294189">
        <ele>748</ele>
        <time>2019-05-11T13:58:58Z</time>
      </trkpt>
      <trkpt lat="36.8023414611816" lon="-5.10971784591675">
        <ele>748</ele>
        <time>2019-05-11T13:59:00Z</time>
      </trkpt>
      <trkpt lat="36.802360534668" lon="-5.10973501205444">
        <ele>748</ele>
        <time>2019-05-11T13:59:02Z</time>
      </trkpt>
      <trkpt lat="36.8023872375488" lon="-5.10975503921509">
        <ele>748</ele>
        <time>2019-05-11T13:59:04Z</time>
      </trkpt>
      <trkpt lat="36.8024063110352" lon="-5.10976982116699">
        <ele>748</ele>
        <time>2019-05-11T13:59:06Z</time>
      </trkpt>
      <trkpt lat="36.8024253845215" lon="-5.109787940979">
        <ele>748</ele>
        <time>2019-05-11T13:59:08Z</time>
      </trkpt>
      <trkpt lat="36.8024444580078" lon="-5.10980796813965">
        <ele>748</ele>
        <time>2019-05-11T13:59:10Z</time>
      </trkpt>
      <trkpt lat="36.8024635314941" lon="-5.10982513427734">
        <ele>748</ele>
        <time>2019-05-11T13:59:12Z</time>
      </trkpt>
      <trkpt lat="36.802490234375" lon="-5.10984182357788">
        <ele>748</ele>
        <time>2019-05-11T13:59:14Z</time>
      </trkpt>
      <trkpt lat="36.8025093078613" lon="-5.10985517501831">
        <ele>748</ele>
        <time>2019-05-11T13:59:16Z</time>
      </trkpt>
      <trkpt lat="36.8025321960449" lon="-5.10986995697022">
        <ele>748</ele>
        <time>2019-05-11T13:59:18Z</time>
      </trkpt>
      <trkpt lat="36.8025512695312" lon="-5.10988521575928">
        <ele>748</ele>
        <time>2019-05-11T13:59:21Z</time>
      </trkpt>
      <trkpt lat="36.8025741577148" lon="-5.10989999771118">
        <ele>748</ele>
        <time>2019-05-11T13:59:23Z</time>
      </trkpt>
      <trkpt lat="36.8025970458984" lon="-5.10991716384888">
        <ele>748</ele>
        <time>2019-05-11T13:59:25Z</time>
      </trkpt>
      <trkpt lat="36.802619934082" lon="-5.10993480682373">
        <ele>748</ele>
        <time>2019-05-11T13:59:27Z</time>
      </trkpt>
      <trkpt lat="36.8026428222656" lon="-5.10995197296143">
        <ele>748</ele>
        <time>2019-05-11T13:59:29Z</time>
      </trkpt>
      <trkpt lat="36.8026695251465" lon="-5.10997009277344">
        <ele>748</ele>
        <time>2019-05-11T13:59:31Z</time>
      </trkpt>
      <trkpt lat="36.8026962280273" lon="-5.10998821258545">
        <ele>748</ele>
        <time>2019-05-11T13:59:33Z</time>
      </trkpt>
      <trkpt lat="36.8027191162109" lon="-5.11000776290894">
        <ele>748</ele>
        <time>2019-05-11T13:59:35Z</time>
      </trkpt>
      <trkpt lat="36.8027381896973" lon="-5.11002683639526">
        <ele>748</ele>
        <time>2019-05-11T13:59:37Z</time>
      </trkpt>
      <trkpt lat="36.8027687072754" lon="-5.11006021499634">
        <ele>748</ele>
        <time>2019-05-11T13:59:39Z</time>
      </trkpt>
      <trkpt lat="36.802791595459" lon="-5.11007499694824">
        <ele>748</ele>
        <time>2019-05-11T13:59:41Z</time>
      </trkpt>
      <trkpt lat="36.8028182983398" lon="-5.11009216308594">
        <ele>748</ele>
        <time>2019-05-11T13:59:43Z</time>
      </trkpt>
      <trkpt lat="36.8028411865234" lon="-5.1101131439209">
        <ele>748</ele>
        <time>2019-05-11T13:59:45Z</time>
      </trkpt>
      <trkpt lat="36.8028602600098" lon="-5.1101279258728">
        <ele>747</ele>
        <time>2019-05-11T13:59:47Z</time>
      </trkpt>
      <trkpt lat="36.8028831481934" lon="-5.11014699935913">
        <ele>746</ele>
        <time>2019-05-11T13:59:49Z</time>
      </trkpt>
      <trkpt lat="36.802906036377" lon="-5.11016178131104">
        <ele>746</ele>
        <time>2019-05-11T13:59:51Z</time>
      </trkpt>
      <trkpt lat="36.8029289245606" lon="-5.1101770401001">
        <ele>746</ele>
        <time>2019-05-11T13:59:53Z</time>
      </trkpt>
      <trkpt lat="36.8029556274414" lon="-5.11019706726074">
        <ele>745</ele>
        <time>2019-05-11T13:59:56Z</time>
      </trkpt>
      <trkpt lat="36.802978515625" lon="-5.11021280288696">
        <ele>745</ele>
        <time>2019-05-11T13:59:58Z</time>
      </trkpt>
      <trkpt lat="36.8029975891113" lon="-5.11022996902466">
        <ele>745</ele>
        <time>2019-05-11T14:00:00Z</time>
      </trkpt>
      <trkpt lat="36.8030242919922" lon="-5.11024808883667">
        <ele>744</ele>
        <time>2019-05-11T14:00:02Z</time>
      </trkpt>
      <trkpt lat="36.8030471801758" lon="-5.110267162323">
        <ele>744</ele>
        <time>2019-05-11T14:00:04Z</time>
      </trkpt>
      <trkpt lat="36.8030738830566" lon="-5.11028289794922">
        <ele>743</ele>
        <time>2019-05-11T14:00:06Z</time>
      </trkpt>
      <trkpt lat="36.8030967712402" lon="-5.11029720306396">
        <ele>742</ele>
        <time>2019-05-11T14:00:08Z</time>
      </trkpt>
      <trkpt lat="36.8031234741211" lon="-5.11031293869019">
        <ele>741</ele>
        <time>2019-05-11T14:00:10Z</time>
      </trkpt>
      <trkpt lat="36.8031463623047" lon="-5.11033296585083">
        <ele>741</ele>
        <time>2019-05-11T14:00:12Z</time>
      </trkpt>
      <trkpt lat="36.8031883239746" lon="-5.11035299301147">
        <ele>740</ele>
        <time>2019-05-11T14:00:14Z</time>
      </trkpt>
      <trkpt lat="36.8032112121582" lon="-5.1103720664978">
        <ele>740</ele>
        <time>2019-05-11T14:00:16Z</time>
      </trkpt>
      <trkpt lat="36.8032379150391" lon="-5.11039304733276">
        <ele>739</ele>
        <time>2019-05-11T14:00:18Z</time>
      </trkpt>
      <trkpt lat="36.8032608032227" lon="-5.11041307449341">
        <ele>739</ele>
        <time>2019-05-11T14:00:20Z</time>
      </trkpt>
      <trkpt lat="36.8032875061035" lon="-5.11043214797974">
        <ele>739</ele>
        <time>2019-05-11T14:00:22Z</time>
      </trkpt>
      <trkpt lat="36.8033103942871" lon="-5.11044979095459">
        <ele>739</ele>
        <time>2019-05-11T14:00:24Z</time>
      </trkpt>
      <trkpt lat="36.803337097168" lon="-5.11046504974365">
        <ele>739</ele>
        <time>2019-05-11T14:00:26Z</time>
      </trkpt>
      <trkpt lat="36.803352355957" lon="-5.11048698425293">
        <ele>739</ele>
        <time>2019-05-11T14:00:28Z</time>
      </trkpt>
      <trkpt lat="36.8033752441406" lon="-5.11050319671631">
        <ele>739</ele>
        <time>2019-05-11T14:00:31Z</time>
      </trkpt>
      <trkpt lat="36.803394317627" lon="-5.11051797866821">
        <ele>739</ele>
        <time>2019-05-11T14:00:33Z</time>
      </trkpt>
      <trkpt lat="36.8034133911133" lon="-5.11053323745728">
        <ele>739</ele>
        <time>2019-05-11T14:00:35Z</time>
      </trkpt>
      <trkpt lat="36.8034324645996" lon="-5.11054992675781">
        <ele>739</ele>
        <time>2019-05-11T14:00:37Z</time>
      </trkpt>
      <trkpt lat="36.8034553527832" lon="-5.11056184768677">
        <ele>739</ele>
        <time>2019-05-11T14:00:39Z</time>
      </trkpt>
      <trkpt lat="36.8034782409668" lon="-5.11057806015015">
        <ele>739</ele>
        <time>2019-05-11T14:00:41Z</time>
      </trkpt>
      <trkpt lat="36.8035087585449" lon="-5.11059999465942">
        <ele>739</ele>
        <time>2019-05-11T14:00:43Z</time>
      </trkpt>
      <trkpt lat="36.8035316467285" lon="-5.11062288284302">
        <ele>739</ele>
        <time>2019-05-11T14:00:45Z</time>
      </trkpt>
      <trkpt lat="36.8035583496094" lon="-5.1106448173523">
        <ele>739</ele>
        <time>2019-05-11T14:00:47Z</time>
      </trkpt>
      <trkpt lat="36.803596496582" lon="-5.11067485809326">
        <ele>739</ele>
        <time>2019-05-11T14:00:49Z</time>
      </trkpt>
      <trkpt lat="36.8036231994629" lon="-5.11069297790527">
        <ele>739</ele>
        <time>2019-05-11T14:00:51Z</time>
      </trkpt>
      <trkpt lat="36.8036499023438" lon="-5.11071300506592">
        <ele>739</ele>
        <time>2019-05-11T14:00:53Z</time>
      </trkpt>
      <trkpt lat="36.8036727905273" lon="-5.11072778701782">
        <ele>739</ele>
        <time>2019-05-11T14:00:55Z</time>
      </trkpt>
      <trkpt lat="36.8036994934082" lon="-5.11074781417847">
        <ele>739</ele>
        <time>2019-05-11T14:00:57Z</time>
      </trkpt>
      <trkpt lat="36.8037261962891" lon="-5.1107668876648">
        <ele>739</ele>
        <time>2019-05-11T14:00:59Z</time>
      </trkpt>
      <trkpt lat="36.8037528991699" lon="-5.11078786849976">
        <ele>739</ele>
        <time>2019-05-11T14:01:01Z</time>
      </trkpt>
      <trkpt lat="36.8037796020508" lon="-5.11080503463745">
        <ele>739</ele>
        <time>2019-05-11T14:01:03Z</time>
      </trkpt>
      <trkpt lat="36.8038063049316" lon="-5.11082220077515">
        <ele>739</ele>
        <time>2019-05-11T14:01:05Z</time>
      </trkpt>
      <trkpt lat="36.8038330078125" lon="-5.11084222793579">
        <ele>739</ele>
        <time>2019-05-11T14:01:08Z</time>
      </trkpt>
      <trkpt lat="36.8038597106934" lon="-5.1108570098877">
        <ele>739</ele>
        <time>2019-05-11T14:01:10Z</time>
      </trkpt>
      <trkpt lat="36.8038864135742" lon="-5.11087322235107">
        <ele>739</ele>
        <time>2019-05-11T14:01:12Z</time>
      </trkpt>
      <trkpt lat="36.8039131164551" lon="-5.11088991165161">
        <ele>739</ele>
        <time>2019-05-11T14:01:14Z</time>
      </trkpt>
      <trkpt lat="36.8039398193359" lon="-5.11090803146362">
        <ele>739</ele>
        <time>2019-05-11T14:01:16Z</time>
      </trkpt>
      <trkpt lat="36.8039665222168" lon="-5.11092519760132">
        <ele>739</ele>
        <time>2019-05-11T14:01:18Z</time>
      </trkpt>
      <trkpt lat="36.8039932250977" lon="-5.11094188690186">
        <ele>739</ele>
        <time>2019-05-11T14:01:20Z</time>
      </trkpt>
      <trkpt lat="36.8040237426758" lon="-5.1109619140625">
        <ele>739</ele>
        <time>2019-05-11T14:01:22Z</time>
      </trkpt>
      <trkpt lat="36.8040504455566" lon="-5.11098003387451">
        <ele>739</ele>
        <time>2019-05-11T14:01:24Z</time>
      </trkpt>
      <trkpt lat="36.8040809631348" lon="-5.11100721359253">
        <ele>739</ele>
        <time>2019-05-11T14:01:26Z</time>
      </trkpt>
      <trkpt lat="36.8041038513184" lon="-5.11102199554443">
        <ele>739</ele>
        <time>2019-05-11T14:01:28Z</time>
      </trkpt>
      <trkpt lat="36.8041229248047" lon="-5.11103010177612">
        <ele>739</ele>
        <time>2019-05-11T14:01:30Z</time>
      </trkpt>
      <trkpt lat="36.8041458129883" lon="-5.11104297637939">
        <ele>739</ele>
        <time>2019-05-11T14:01:32Z</time>
      </trkpt>
      <trkpt lat="36.8041687011719" lon="-5.11105823516846">
        <ele>739</ele>
        <time>2019-05-11T14:01:34Z</time>
      </trkpt>
      <trkpt lat="36.8041954040527" lon="-5.11107492446899">
        <ele>739</ele>
        <time>2019-05-11T14:01:36Z</time>
      </trkpt>
      <trkpt lat="36.8042221069336" lon="-5.11109209060669">
        <ele>739</ele>
        <time>2019-05-11T14:01:38Z</time>
      </trkpt>
      <trkpt lat="36.8042488098144" lon="-5.11110687255859">
        <ele>739</ele>
        <time>2019-05-11T14:01:40Z</time>
      </trkpt>
      <trkpt lat="36.8042793273926" lon="-5.11112499237061">
        <ele>739</ele>
        <time>2019-05-11T14:01:43Z</time>
      </trkpt>
      <trkpt lat="36.804313659668" lon="-5.11113786697388">
        <ele>739</ele>
        <time>2019-05-11T14:01:45Z</time>
      </trkpt>
      <trkpt lat="36.8043365478516" lon="-5.11115217208862">
        <ele>739</ele>
        <time>2019-05-11T14:01:47Z</time>
      </trkpt>
      <trkpt lat="36.8043556213379" lon="-5.11116981506348">
        <ele>739</ele>
        <time>2019-05-11T14:01:49Z</time>
      </trkpt>
      <trkpt lat="36.8043823242188" lon="-5.11118698120117">
        <ele>739</ele>
        <time>2019-05-11T14:01:51Z</time>
      </trkpt>
      <trkpt lat="36.8044090270996" lon="-5.11119985580444">
        <ele>739</ele>
        <time>2019-05-11T14:01:53Z</time>
      </trkpt>
      <trkpt lat="36.8044319152832" lon="-5.11121320724487">
        <ele>739</ele>
        <time>2019-05-11T14:01:55Z</time>
      </trkpt>
      <trkpt lat="36.8044586181641" lon="-5.11122703552246">
        <ele>739</ele>
        <time>2019-05-11T14:01:57Z</time>
      </trkpt>
      <trkpt lat="36.8044891357422" lon="-5.11123991012573">
        <ele>739</ele>
        <time>2019-05-11T14:01:59Z</time>
      </trkpt>
      <trkpt lat="36.8045272827148" lon="-5.11125802993774">
        <ele>739</ele>
        <time>2019-05-11T14:02:01Z</time>
      </trkpt>
      <trkpt lat="36.8045539855957" lon="-5.11127281188965">
        <ele>739</ele>
        <time>2019-05-11T14:02:03Z</time>
      </trkpt>
      <trkpt lat="36.8045806884766" lon="-5.11128807067871">
        <ele>739</ele>
        <time>2019-05-11T14:02:05Z</time>
      </trkpt>
      <trkpt lat="36.8046073913574" lon="-5.11129808425903">
        <ele>739</ele>
        <time>2019-05-11T14:02:07Z</time>
      </trkpt>
      <trkpt lat="36.804630279541" lon="-5.11131000518799">
        <ele>739</ele>
        <time>2019-05-11T14:02:09Z</time>
      </trkpt>
      <trkpt lat="36.8046569824219" lon="-5.11132192611694">
        <ele>739</ele>
        <time>2019-05-11T14:02:11Z</time>
      </trkpt>
      <trkpt lat="36.8046836853027" lon="-5.11133289337158">
        <ele>739</ele>
        <time>2019-05-11T14:02:13Z</time>
      </trkpt>
      <trkpt lat="36.8047103881836" lon="-5.11134481430054">
        <ele>739</ele>
        <time>2019-05-11T14:02:15Z</time>
      </trkpt>
      <trkpt lat="36.8047332763672" lon="-5.11135816574097">
        <ele>739</ele>
        <time>2019-05-11T14:02:18Z</time>
      </trkpt>
      <trkpt lat="36.804759979248" lon="-5.11137294769287">
        <ele>739</ele>
        <time>2019-05-11T14:02:20Z</time>
      </trkpt>
      <trkpt lat="36.8047866821289" lon="-5.11138820648193">
        <ele>739</ele>
        <time>2019-05-11T14:02:22Z</time>
      </trkpt>
      <trkpt lat="36.8048133850098" lon="-5.11140203475952">
        <ele>739</ele>
        <time>2019-05-11T14:02:24Z</time>
      </trkpt>
      <trkpt lat="36.8048439025879" lon="-5.11141490936279">
        <ele>739</ele>
        <time>2019-05-11T14:02:26Z</time>
      </trkpt>
      <trkpt lat="36.8048667907715" lon="-5.11142206192017">
        <ele>739</ele>
        <time>2019-05-11T14:02:28Z</time>
      </trkpt>
      <trkpt lat="36.8048973083496" lon="-5.11142492294312">
        <ele>739</ele>
        <time>2019-05-11T14:02:30Z</time>
      </trkpt>
      <trkpt lat="36.8049278259277" lon="-5.11142683029175">
        <ele>739</ele>
        <time>2019-05-11T14:02:32Z</time>
      </trkpt>
      <trkpt lat="36.8049583435059" lon="-5.11143207550049">
        <ele>739</ele>
        <time>2019-05-11T14:02:34Z</time>
      </trkpt>
      <trkpt lat="36.8049850463867" lon="-5.11143779754639">
        <ele>739</ele>
        <time>2019-05-11T14:02:36Z</time>
      </trkpt>
      <trkpt lat="36.8050270080566" lon="-5.11145210266113">
        <ele>739</ele>
        <time>2019-05-11T14:02:38Z</time>
      </trkpt>
      <trkpt lat="36.8050537109375" lon="-5.11146020889282">
        <ele>739</ele>
        <time>2019-05-11T14:02:40Z</time>
      </trkpt>
      <trkpt lat="36.8050765991211" lon="-5.11147212982178">
        <ele>739</ele>
        <time>2019-05-11T14:02:42Z</time>
      </trkpt>
      <trkpt lat="36.8050956726074" lon="-5.11148309707642">
        <ele>739</ele>
        <time>2019-05-11T14:02:44Z</time>
      </trkpt>
      <trkpt lat="36.8051109313965" lon="-5.111496925354">
        <ele>740</ele>
        <time>2019-05-11T14:02:46Z</time>
      </trkpt>
      <trkpt lat="36.8051261901856" lon="-5.11151313781738">
        <ele>740</ele>
        <time>2019-05-11T14:02:48Z</time>
      </trkpt>
      <trkpt lat="36.8051376342773" lon="-5.11152791976929">
        <ele>740</ele>
        <time>2019-05-11T14:02:50Z</time>
      </trkpt>
      <trkpt lat="36.8051490783691" lon="-5.11153697967529">
        <ele>740</ele>
        <time>2019-05-11T14:02:52Z</time>
      </trkpt>
      <trkpt lat="36.8051528930664" lon="-5.11153984069824">
        <ele>740</ele>
        <time>2019-05-11T14:02:55Z</time>
      </trkpt>
      <trkpt lat="36.8051567077637" lon="-5.11154317855835">
        <ele>741</ele>
        <time>2019-05-11T14:02:57Z</time>
      </trkpt>
      <trkpt lat="36.8051567077637" lon="-5.11154508590698">
        <ele>741</ele>
        <time>2019-05-11T14:02:59Z</time>
      </trkpt>
      <trkpt lat="36.8051681518555" lon="-5.11154699325562">
        <ele>741</ele>
        <time>2019-05-11T14:03:01Z</time>
      </trkpt>
      <trkpt lat="36.8051719665527" lon="-5.1115517616272">
        <ele>741</ele>
        <time>2019-05-11T14:03:03Z</time>
      </trkpt>
      <trkpt lat="36.80517578125" lon="-5.11155319213867">
        <ele>741</ele>
        <time>2019-05-11T14:03:05Z</time>
      </trkpt>
      <trkpt lat="36.8051834106445" lon="-5.1115517616272">
        <ele>741</ele>
        <time>2019-05-11T14:03:07Z</time>
      </trkpt>
      <trkpt lat="36.8051948547363" lon="-5.1115550994873">
        <ele>741</ele>
        <time>2019-05-11T14:03:09Z</time>
      </trkpt>
      <trkpt lat="36.8052024841309" lon="-5.11155986785889">
        <ele>741</ele>
        <time>2019-05-11T14:03:11Z</time>
      </trkpt>
      <trkpt lat="36.8052177429199" lon="-5.11156511306763">
        <ele>741</ele>
        <time>2019-05-11T14:03:13Z</time>
      </trkpt>
      <trkpt lat="36.8052215576172" lon="-5.11156988143921">
        <ele>741</ele>
        <time>2019-05-11T14:03:15Z</time>
      </trkpt>
      <trkpt lat="36.8052291870117" lon="-5.11157512664795">
        <ele>741</ele>
        <time>2019-05-11T14:03:17Z</time>
      </trkpt>
      <trkpt lat="36.8052368164062" lon="-5.11157989501953">
        <ele>741</ele>
        <time>2019-05-11T14:03:19Z</time>
      </trkpt>
      <trkpt lat="36.8052368164062" lon="-5.1115779876709">
        <ele>741</ele>
        <time>2019-05-11T14:03:21Z</time>
      </trkpt>
      <trkpt lat="36.8052406311035" lon="-5.1115779876709">
        <ele>741</ele>
        <time>2019-05-11T14:03:23Z</time>
      </trkpt>
      <trkpt lat="36.8052368164062" lon="-5.1115779876709">
        <ele>741</ele>
        <time>2019-05-11T14:03:25Z</time>
      </trkpt>
      <trkpt lat="36.8052368164062" lon="-5.11158180236816">
        <ele>741</ele>
        <time>2019-05-11T14:03:27Z</time>
      </trkpt>
      <trkpt lat="36.8052368164062" lon="-5.11158180236816">
        <ele>741</ele>
        <time>2019-05-11T14:03:29Z</time>
      </trkpt>
      <trkpt lat="36.8052368164062" lon="-5.11158323287964">
        <ele>741</ele>
        <time>2019-05-11T14:03:31Z</time>
      </trkpt>
      <trkpt lat="36.8052406311035" lon="-5.11158514022827">
        <ele>741</ele>
        <time>2019-05-11T14:03:34Z</time>
      </trkpt>
      <trkpt lat="36.8052406311035" lon="-5.11158323287964">
        <ele>741</ele>
        <time>2019-05-11T14:03:36Z</time>
      </trkpt>
      <trkpt lat="36.8052444458008" lon="-5.11158323287964">
        <ele>741</ele>
        <time>2019-05-11T14:03:38Z</time>
      </trkpt>
      <trkpt lat="36.8052444458008" lon="-5.11158323287964">
        <ele>741</ele>
        <time>2019-05-11T14:03:40Z</time>
      </trkpt>
      <trkpt lat="36.8052444458008" lon="-5.11158323287964">
        <ele>741</ele>
        <time>2019-05-11T14:03:42Z</time>
      </trkpt>
      <trkpt lat="36.805248260498" lon="-5.11158323287964">
        <ele>742</ele>
        <time>2019-05-11T14:03:44Z</time>
      </trkpt>
      <trkpt lat="36.805248260498" lon="-5.11158180236816">
        <ele>742</ele>
        <time>2019-05-11T14:03:46Z</time>
      </trkpt>
      <trkpt lat="36.805248260498" lon="-5.11158514022827">
        <ele>742</ele>
        <time>2019-05-11T14:03:48Z</time>
      </trkpt>
      <trkpt lat="36.8052520751953" lon="-5.11158800125122">
        <ele>743</ele>
        <time>2019-05-11T14:03:50Z</time>
      </trkpt>
      <trkpt lat="36.8052558898926" lon="-5.11158990859985">
        <ele>743</ele>
        <time>2019-05-11T14:03:52Z</time>
      </trkpt>
      <trkpt lat="36.8052558898926" lon="-5.11158800125122">
        <ele>743</ele>
        <time>2019-05-11T14:03:54Z</time>
      </trkpt>
      <trkpt lat="36.8052597045898" lon="-5.11159181594849">
        <ele>743</ele>
        <time>2019-05-11T14:03:56Z</time>
      </trkpt>
      <trkpt lat="36.8052597045898" lon="-5.11159181594849">
        <ele>743</ele>
        <time>2019-05-11T14:03:58Z</time>
      </trkpt>
      <trkpt lat="36.8052597045898" lon="-5.11159181594849">
        <ele>743</ele>
        <time>2019-05-11T14:04:00Z</time>
      </trkpt>
      <trkpt lat="36.8052597045898" lon="-5.11159181594849">
        <ele>743</ele>
        <time>2019-05-11T14:04:02Z</time>
      </trkpt>
      <trkpt lat="36.8052597045898" lon="-5.1115927696228">
        <ele>743</ele>
        <time>2019-05-11T14:04:04Z</time>
      </trkpt>
      <trkpt lat="36.8052597045898" lon="-5.11159515380859">
        <ele>743</ele>
        <time>2019-05-11T14:04:06Z</time>
      </trkpt>
      <trkpt lat="36.8052597045898" lon="-5.11159706115723">
        <ele>743</ele>
        <time>2019-05-11T14:04:08Z</time>
      </trkpt>
      <trkpt lat="36.8052597045898" lon="-5.11159801483154">
        <ele>743</ele>
        <time>2019-05-11T14:04:10Z</time>
      </trkpt>
      <trkpt lat="36.8052597045898" lon="-5.11159801483154">
        <ele>743</ele>
        <time>2019-05-11T14:04:12Z</time>
      </trkpt>
      <trkpt lat="36.8052597045898" lon="-5.11159706115723">
        <ele>743</ele>
        <time>2019-05-11T14:04:14Z</time>
      </trkpt>
      <trkpt lat="36.8052597045898" lon="-5.11159706115723">
        <ele>743</ele>
        <time>2019-05-11T14:04:16Z</time>
      </trkpt>
      <trkpt lat="36.8052597045898" lon="-5.11159801483154">
        <ele>743</ele>
        <time>2019-05-11T14:04:18Z</time>
      </trkpt>
      <trkpt lat="36.8052597045898" lon="-5.11159801483154">
        <ele>743</ele>
        <time>2019-05-11T14:04:20Z</time>
      </trkpt>
      <trkpt lat="36.8052597045898" lon="-5.11159801483154">
        <ele>743</ele>
        <time>2019-05-11T14:04:22Z</time>
      </trkpt>
      <trkpt lat="36.8052597045898" lon="-5.11159992218018">
        <ele>743</ele>
        <time>2019-05-11T14:04:24Z</time>
      </trkpt>
      <trkpt lat="36.8052597045898" lon="-5.11159515380859">
        <ele>743</ele>
        <time>2019-05-11T14:04:26Z</time>
      </trkpt>
      <trkpt lat="36.8052558898926" lon="-5.11159515380859">
        <ele>743</ele>
        <time>2019-05-11T14:04:28Z</time>
      </trkpt>
      <trkpt lat="36.8052597045898" lon="-5.11159515380859">
        <ele>743</ele>
        <time>2019-05-11T14:04:30Z</time>
      </trkpt>
      <trkpt lat="36.8052597045898" lon="-5.11159992218018">
        <ele>743</ele>
        <time>2019-05-11T14:04:32Z</time>
      </trkpt>
      <trkpt lat="36.8052597045898" lon="-5.11159801483154">
        <ele>743</ele>
        <time>2019-05-11T14:04:34Z</time>
      </trkpt>
      <trkpt lat="36.8052597045898" lon="-5.11159801483154">
        <ele>743</ele>
        <time>2019-05-11T14:04:36Z</time>
      </trkpt>
      <trkpt lat="36.8052597045898" lon="-5.11159801483154">
        <ele>743</ele>
        <time>2019-05-11T14:04:38Z</time>
      </trkpt>
      <trkpt lat="36.8052635192871" lon="-5.11160182952881">
        <ele>743</ele>
        <time>2019-05-11T14:04:40Z</time>
      </trkpt>
      <trkpt lat="36.8052711486816" lon="-5.11160182952881">
        <ele>743</ele>
        <time>2019-05-11T14:04:42Z</time>
      </trkpt>
      <trkpt lat="36.8052787780762" lon="-5.11160182952881">
        <ele>743</ele>
        <time>2019-05-11T14:04:45Z</time>
      </trkpt>
      <trkpt lat="36.8052864074707" lon="-5.11160182952881">
        <ele>743</ele>
        <time>2019-05-11T14:04:47Z</time>
      </trkpt>
      <trkpt lat="36.805290222168" lon="-5.11160278320312">
        <ele>743</ele>
        <time>2019-05-11T14:04:49Z</time>
      </trkpt>
      <trkpt lat="36.8052940368652" lon="-5.11160516738892">
        <ele>743</ele>
        <time>2019-05-11T14:04:51Z</time>
      </trkpt>
      <trkpt lat="36.8052978515625" lon="-5.11160707473755">
        <ele>743</ele>
        <time>2019-05-11T14:04:53Z</time>
      </trkpt>
      <trkpt lat="36.8052978515625" lon="-5.11160278320312">
        <ele>743</ele>
        <time>2019-05-11T14:04:55Z</time>
      </trkpt>
      <trkpt lat="36.8052978515625" lon="-5.11160278320312">
        <ele>743</ele>
        <time>2019-05-11T14:04:57Z</time>
      </trkpt>
      <trkpt lat="36.8052978515625" lon="-5.11160278320312">
        <ele>743</ele>
        <time>2019-05-11T14:04:59Z</time>
      </trkpt>
      <trkpt lat="36.8053016662598" lon="-5.11160516738892">
        <ele>743</ele>
        <time>2019-05-11T14:05:01Z</time>
      </trkpt>
      <trkpt lat="36.805305480957" lon="-5.11160707473755">
        <ele>743</ele>
        <time>2019-05-11T14:05:03Z</time>
      </trkpt>
      <trkpt lat="36.8053131103516" lon="-5.11160802841186">
        <ele>743</ele>
        <time>2019-05-11T14:05:05Z</time>
      </trkpt>
      <trkpt lat="36.8053169250488" lon="-5.11160802841186">
        <ele>743</ele>
        <time>2019-05-11T14:05:07Z</time>
      </trkpt>
      <trkpt lat="36.8053207397461" lon="-5.11161279678345">
        <ele>743</ele>
        <time>2019-05-11T14:05:09Z</time>
      </trkpt>
      <trkpt lat="36.8053207397461" lon="-5.11161518096924">
        <ele>743</ele>
        <time>2019-05-11T14:05:11Z</time>
      </trkpt>
      <trkpt lat="36.8053283691406" lon="-5.11161279678345">
        <ele>743</ele>
        <time>2019-05-11T14:05:13Z</time>
      </trkpt>
      <trkpt lat="36.8053436279297" lon="-5.11161279678345">
        <ele>743</ele>
        <time>2019-05-11T14:05:15Z</time>
      </trkpt>
      <trkpt lat="36.8053436279297" lon="-5.11161708831787">
        <ele>743</ele>
        <time>2019-05-11T14:05:17Z</time>
      </trkpt>
      <trkpt lat="36.8053436279297" lon="-5.11161804199219">
        <ele>743</ele>
        <time>2019-05-11T14:05:19Z</time>
      </trkpt>
      <trkpt lat="36.8053436279297" lon="-5.11162519454956">
        <ele>743</ele>
        <time>2019-05-11T14:05:21Z</time>
      </trkpt>
      <trkpt lat="36.8053512573242" lon="-5.11162185668945">
        <ele>743</ele>
        <time>2019-05-11T14:05:23Z</time>
      </trkpt>
      <trkpt lat="36.8053588867188" lon="-5.11162185668945">
        <ele>743</ele>
        <time>2019-05-11T14:05:25Z</time>
      </trkpt>
      <trkpt lat="36.8053779602051" lon="-5.11162710189819">
        <ele>743</ele>
        <time>2019-05-11T14:05:27Z</time>
      </trkpt>
      <trkpt lat="36.8053932189941" lon="-5.11163282394409">
        <ele>743</ele>
        <time>2019-05-11T14:05:30Z</time>
      </trkpt>
      <trkpt lat="36.8054122924805" lon="-5.11163806915283">
        <ele>743</ele>
        <time>2019-05-11T14:05:32Z</time>
      </trkpt>
      <trkpt lat="36.8054351806641" lon="-5.11163806915283">
        <ele>743</ele>
        <time>2019-05-11T14:05:34Z</time>
      </trkpt>
      <trkpt lat="36.8054580688477" lon="-5.11163711547852">
        <ele>743</ele>
        <time>2019-05-11T14:05:36Z</time>
      </trkpt>
      <trkpt lat="36.805477142334" lon="-5.11163806915283">
        <ele>743</ele>
        <time>2019-05-11T14:05:38Z</time>
      </trkpt>
      <trkpt lat="36.8055000305176" lon="-5.1116452217102">
        <ele>743</ele>
        <time>2019-05-11T14:05:40Z</time>
      </trkpt>
      <trkpt lat="36.8055076599121" lon="-5.11164808273315">
        <ele>743</ele>
        <time>2019-05-11T14:05:42Z</time>
      </trkpt>
      <trkpt lat="36.8055152893066" lon="-5.11165189743042">
        <ele>743</ele>
        <time>2019-05-11T14:05:44Z</time>
      </trkpt>
      <trkpt lat="36.8055152893066" lon="-5.11165285110474">
        <ele>743</ele>
        <time>2019-05-11T14:05:46Z</time>
      </trkpt>
      <trkpt lat="36.8055191040039" lon="-5.11165189743042">
        <ele>743</ele>
        <time>2019-05-11T14:05:48Z</time>
      </trkpt>
      <trkpt lat="36.8055305480957" lon="-5.11164808273315">
        <ele>743</ele>
        <time>2019-05-11T14:05:50Z</time>
      </trkpt>
      <trkpt lat="36.8055419921875" lon="-5.11164999008179">
        <ele>743</ele>
        <time>2019-05-11T14:05:52Z</time>
      </trkpt>
      <trkpt lat="36.8055534362793" lon="-5.11165189743042">
        <ele>743</ele>
        <time>2019-05-11T14:05:54Z</time>
      </trkpt>
      <trkpt lat="36.8055648803711" lon="-5.11165285110474">
        <ele>743</ele>
        <time>2019-05-11T14:05:56Z</time>
      </trkpt>
      <trkpt lat="36.8055686950684" lon="-5.11165189743042">
        <ele>743</ele>
        <time>2019-05-11T14:05:58Z</time>
      </trkpt>
      <trkpt lat="36.8055763244629" lon="-5.11166477203369">
        <ele>743</ele>
        <time>2019-05-11T14:06:00Z</time>
      </trkpt>
      <trkpt lat="36.8055801391602" lon="-5.11166286468506">
        <ele>743</ele>
        <time>2019-05-11T14:06:02Z</time>
      </trkpt>
      <trkpt lat="36.8055763244629" lon="-5.11166715621948">
        <ele>743</ele>
        <time>2019-05-11T14:06:04Z</time>
      </trkpt>
      <trkpt lat="36.8055839538574" lon="-5.11167812347412">
        <ele>743</ele>
        <time>2019-05-11T14:06:06Z</time>
      </trkpt>
      <trkpt lat="36.8055877685547" lon="-5.11167812347412">
        <ele>743</ele>
        <time>2019-05-11T14:06:08Z</time>
      </trkpt>
      <trkpt lat="36.805591583252" lon="-5.11167812347412">
        <ele>743</ele>
        <time>2019-05-11T14:06:10Z</time>
      </trkpt>
      <trkpt lat="36.8055953979492" lon="-5.11167812347412">
        <ele>743</ele>
        <time>2019-05-11T14:06:13Z</time>
      </trkpt>
      <trkpt lat="36.8055992126465" lon="-5.11167478561401">
        <ele>743</ele>
        <time>2019-05-11T14:06:15Z</time>
      </trkpt>
      <trkpt lat="36.8056030273438" lon="-5.11167812347412">
        <ele>743</ele>
        <time>2019-05-11T14:06:17Z</time>
      </trkpt>
      <trkpt lat="36.8056030273438" lon="-5.1116771697998">
        <ele>743</ele>
        <time>2019-05-11T14:06:19Z</time>
      </trkpt>
      <trkpt lat="36.805606842041" lon="-5.11168479919434">
        <ele>743</ele>
        <time>2019-05-11T14:06:21Z</time>
      </trkpt>
      <trkpt lat="36.805606842041" lon="-5.11169004440308">
        <ele>743</ele>
        <time>2019-05-11T14:06:23Z</time>
      </trkpt>
      <trkpt lat="36.8056106567383" lon="-5.11169004440308">
        <ele>743</ele>
        <time>2019-05-11T14:06:25Z</time>
      </trkpt>
      <trkpt lat="36.8056182861328" lon="-5.11169290542603">
        <ele>743</ele>
        <time>2019-05-11T14:06:27Z</time>
      </trkpt>
      <trkpt lat="36.8056259155273" lon="-5.1117000579834">
        <ele>743</ele>
        <time>2019-05-11T14:06:29Z</time>
      </trkpt>
      <trkpt lat="36.8056335449219" lon="-5.11170291900635">
        <ele>743</ele>
        <time>2019-05-11T14:06:31Z</time>
      </trkpt>
      <trkpt lat="36.8056411743164" lon="-5.11170196533203">
        <ele>743</ele>
        <time>2019-05-11T14:06:33Z</time>
      </trkpt>
      <trkpt lat="36.8056488037109" lon="-5.11170721054077">
        <ele>743</ele>
        <time>2019-05-11T14:06:35Z</time>
      </trkpt>
      <trkpt lat="36.8056564331055" lon="-5.11170721054077">
        <ele>743</ele>
        <time>2019-05-11T14:06:37Z</time>
      </trkpt>
      <trkpt lat="36.8056678771973" lon="-5.11171197891235">
        <ele>743</ele>
        <time>2019-05-11T14:06:39Z</time>
      </trkpt>
      <trkpt lat="36.8056716918945" lon="-5.11171007156372">
        <ele>743</ele>
        <time>2019-05-11T14:06:41Z</time>
      </trkpt>
      <trkpt lat="36.8056793212891" lon="-5.11170721054077">
        <ele>743</ele>
        <time>2019-05-11T14:06:43Z</time>
      </trkpt>
      <trkpt lat="36.8057022094727" lon="-5.11170482635498">
        <ele>743</ele>
        <time>2019-05-11T14:06:45Z</time>
      </trkpt>
      <trkpt lat="36.8057250976562" lon="-5.11171293258667">
        <ele>743</ele>
        <time>2019-05-11T14:06:47Z</time>
      </trkpt>
      <trkpt lat="36.8057441711426" lon="-5.11172008514404">
        <ele>743</ele>
        <time>2019-05-11T14:06:49Z</time>
      </trkpt>
      <trkpt lat="36.8057708740234" lon="-5.11172485351562">
        <ele>743</ele>
        <time>2019-05-11T14:06:51Z</time>
      </trkpt>
      <trkpt lat="36.805793762207" lon="-5.11172819137573">
        <ele>743</ele>
        <time>2019-05-11T14:06:54Z</time>
      </trkpt>
      <trkpt lat="36.8058166503906" lon="-5.11173677444458">
        <ele>743</ele>
        <time>2019-05-11T14:06:56Z</time>
      </trkpt>
      <trkpt lat="36.8058395385742" lon="-5.11174201965332">
        <ele>743</ele>
        <time>2019-05-11T14:06:58Z</time>
      </trkpt>
      <trkpt lat="36.8058662414551" lon="-5.11174297332764">
        <ele>743</ele>
        <time>2019-05-11T14:07:00Z</time>
      </trkpt>
      <trkpt lat="36.8058967590332" lon="-5.11174297332764">
        <ele>743</ele>
        <time>2019-05-11T14:07:02Z</time>
      </trkpt>
      <trkpt lat="36.8059234619141" lon="-5.11174297332764">
        <ele>743</ele>
        <time>2019-05-11T14:07:04Z</time>
      </trkpt>
      <trkpt lat="36.8059501647949" lon="-5.11174201965332">
        <ele>743</ele>
        <time>2019-05-11T14:07:06Z</time>
      </trkpt>
      <trkpt lat="36.8059768676758" lon="-5.11174011230469">
        <ele>743</ele>
        <time>2019-05-11T14:07:08Z</time>
      </trkpt>
      <trkpt lat="36.8060035705566" lon="-5.11174011230469">
        <ele>743</ele>
        <time>2019-05-11T14:07:10Z</time>
      </trkpt>
      <trkpt lat="36.8060264587402" lon="-5.1117467880249">
        <ele>743</ele>
        <time>2019-05-11T14:07:12Z</time>
      </trkpt>
      <trkpt lat="36.8060684204102" lon="-5.11176681518555">
        <ele>743</ele>
        <time>2019-05-11T14:07:14Z</time>
      </trkpt>
      <trkpt lat="36.8060913085938" lon="-5.11177682876587">
        <ele>743</ele>
        <time>2019-05-11T14:07:16Z</time>
      </trkpt>
      <trkpt lat="36.8061218261719" lon="-5.11178302764893">
        <ele>743</ele>
        <time>2019-05-11T14:07:18Z</time>
      </trkpt>
      <trkpt lat="36.8061485290527" lon="-5.11178493499756">
        <ele>743</ele>
        <time>2019-05-11T14:07:20Z</time>
      </trkpt>
      <trkpt lat="36.8061752319336" lon="-5.11179304122925">
        <ele>743</ele>
        <time>2019-05-11T14:07:22Z</time>
      </trkpt>
      <trkpt lat="36.8062019348144" lon="-5.11180782318115">
        <ele>743</ele>
        <time>2019-05-11T14:07:24Z</time>
      </trkpt>
      <trkpt lat="36.8062286376953" lon="-5.11182308197022">
        <ele>743</ele>
        <time>2019-05-11T14:07:26Z</time>
      </trkpt>
      <trkpt lat="36.8062553405762" lon="-5.11183977127075">
        <ele>743</ele>
        <time>2019-05-11T14:07:28Z</time>
      </trkpt>
      <trkpt lat="36.8062782287598" lon="-5.1118597984314">
        <ele>743</ele>
        <time>2019-05-11T14:07:31Z</time>
      </trkpt>
      <trkpt lat="36.8063011169434" lon="-5.11188316345215">
        <ele>743</ele>
        <time>2019-05-11T14:07:33Z</time>
      </trkpt>
      <trkpt lat="36.8063125610352" lon="-5.11190700531006">
        <ele>743</ele>
        <time>2019-05-11T14:07:35Z</time>
      </trkpt>
      <trkpt lat="36.8063278198242" lon="-5.11191987991333">
        <ele>743</ele>
        <time>2019-05-11T14:07:37Z</time>
      </trkpt>
      <trkpt lat="36.8063354492188" lon="-5.11193799972534">
        <ele>743</ele>
        <time>2019-05-11T14:07:39Z</time>
      </trkpt>
      <trkpt lat="36.8063468933106" lon="-5.11195182800293">
        <ele>743</ele>
        <time>2019-05-11T14:07:41Z</time>
      </trkpt>
      <trkpt lat="36.8063545227051" lon="-5.11195707321167">
        <ele>743</ele>
        <time>2019-05-11T14:07:43Z</time>
      </trkpt>
      <trkpt lat="36.8063621520996" lon="-5.11196517944336">
        <ele>743</ele>
        <time>2019-05-11T14:07:45Z</time>
      </trkpt>
      <trkpt lat="36.8063659667969" lon="-5.11196708679199">
        <ele>743</ele>
        <time>2019-05-11T14:07:47Z</time>
      </trkpt>
      <trkpt lat="36.8063697814941" lon="-5.11196804046631">
        <ele>743</ele>
        <time>2019-05-11T14:07:49Z</time>
      </trkpt>
      <trkpt lat="36.8063697814941" lon="-5.11196708679199">
        <ele>743</ele>
        <time>2019-05-11T14:07:51Z</time>
      </trkpt>
      <trkpt lat="36.8063812255859" lon="-5.11196994781494">
        <ele>743</ele>
        <time>2019-05-11T14:07:53Z</time>
      </trkpt>
      <trkpt lat="36.8063812255859" lon="-5.11197280883789">
        <ele>743</ele>
        <time>2019-05-11T14:07:55Z</time>
      </trkpt>
      <trkpt lat="36.8063850402832" lon="-5.11196804046631">
        <ele>743</ele>
        <time>2019-05-11T14:07:57Z</time>
      </trkpt>
      <trkpt lat="36.8063926696777" lon="-5.11197519302368">
        <ele>743</ele>
        <time>2019-05-11T14:07:59Z</time>
      </trkpt>
      <trkpt lat="36.806396484375" lon="-5.1119818687439">
        <ele>743</ele>
        <time>2019-05-11T14:08:01Z</time>
      </trkpt>
      <trkpt lat="36.806396484375" lon="-5.111985206604">
        <ele>743</ele>
        <time>2019-05-11T14:08:03Z</time>
      </trkpt>
      <trkpt lat="36.8063926696777" lon="-5.11198711395264">
        <ele>743</ele>
        <time>2019-05-11T14:08:05Z</time>
      </trkpt>
      <trkpt lat="36.8063926696777" lon="-5.11198711395264">
        <ele>743</ele>
        <time>2019-05-11T14:08:07Z</time>
      </trkpt>
      <trkpt lat="36.806396484375" lon="-5.11198711395264">
        <ele>743</ele>
        <time>2019-05-11T14:08:10Z</time>
      </trkpt>
      <trkpt lat="36.8063926696777" lon="-5.11198806762695">
        <ele>743</ele>
        <time>2019-05-11T14:08:12Z</time>
      </trkpt>
      <trkpt lat="36.8063926696777" lon="-5.11198806762695">
        <ele>743</ele>
        <time>2019-05-11T14:08:14Z</time>
      </trkpt>
      <trkpt lat="36.8063926696777" lon="-5.11198997497559">
        <ele>743</ele>
        <time>2019-05-11T14:08:16Z</time>
      </trkpt>
      <trkpt lat="36.8064002990723" lon="-5.111985206604">
        <ele>743</ele>
        <time>2019-05-11T14:08:18Z</time>
      </trkpt>
      <trkpt lat="36.8064193725586" lon="-5.11198711395264">
        <ele>743</ele>
        <time>2019-05-11T14:08:20Z</time>
      </trkpt>
      <trkpt lat="36.8064384460449" lon="-5.11198997497559">
        <ele>743</ele>
        <time>2019-05-11T14:08:22Z</time>
      </trkpt>
      <trkpt lat="36.8064575195312" lon="-5.111985206604">
        <ele>743</ele>
        <time>2019-05-11T14:08:24Z</time>
      </trkpt>
      <trkpt lat="36.8064765930176" lon="-5.11197710037231">
        <ele>743</ele>
        <time>2019-05-11T14:08:26Z</time>
      </trkpt>
      <trkpt lat="36.8064956665039" lon="-5.11198711395264">
        <ele>743</ele>
        <time>2019-05-11T14:08:28Z</time>
      </trkpt>
      <trkpt lat="36.8065185546875" lon="-5.11199998855591">
        <ele>743</ele>
        <time>2019-05-11T14:08:30Z</time>
      </trkpt>
      <trkpt lat="36.8065414428711" lon="-5.11200189590454">
        <ele>743</ele>
        <time>2019-05-11T14:08:32Z</time>
      </trkpt>
      <trkpt lat="36.806568145752" lon="-5.11200523376465">
        <ele>743</ele>
        <time>2019-05-11T14:08:34Z</time>
      </trkpt>
      <trkpt lat="36.8066062927246" lon="-5.11200189590454">
        <ele>743</ele>
        <time>2019-05-11T14:08:36Z</time>
      </trkpt>
      <trkpt lat="36.8066291809082" lon="-5.11200523376465">
        <ele>743</ele>
        <time>2019-05-11T14:08:38Z</time>
      </trkpt>
      <trkpt lat="36.8066520690918" lon="-5.11201286315918">
        <ele>743</ele>
        <time>2019-05-11T14:08:40Z</time>
      </trkpt>
      <trkpt lat="36.8066787719727" lon="-5.11201810836792">
        <ele>743</ele>
        <time>2019-05-11T14:08:42Z</time>
      </trkpt>
      <trkpt lat="36.8067016601562" lon="-5.1120228767395">
        <ele>743</ele>
        <time>2019-05-11T14:08:44Z</time>
      </trkpt>
      <trkpt lat="36.8067245483398" lon="-5.11203002929688">
        <ele>743</ele>
        <time>2019-05-11T14:08:46Z</time>
      </trkpt>
      <trkpt lat="36.8067436218262" lon="-5.11204814910889">
        <ele>743</ele>
        <time>2019-05-11T14:08:48Z</time>
      </trkpt>
      <trkpt lat="36.8067665100098" lon="-5.1120548248291">
        <ele>743</ele>
        <time>2019-05-11T14:08:51Z</time>
      </trkpt>
      <trkpt lat="36.8067932128906" lon="-5.11206722259522">
        <ele>743</ele>
        <time>2019-05-11T14:08:53Z</time>
      </trkpt>
      <trkpt lat="36.8068161010742" lon="-5.11207294464111">
        <ele>743</ele>
        <time>2019-05-11T14:08:55Z</time>
      </trkpt>
      <trkpt lat="36.8068389892578" lon="-5.11208486557007">
        <ele>743</ele>
        <time>2019-05-11T14:08:57Z</time>
      </trkpt>
      <trkpt lat="36.8068618774414" lon="-5.11209678649902">
        <ele>743</ele>
        <time>2019-05-11T14:08:59Z</time>
      </trkpt>
      <trkpt lat="36.8068885803223" lon="-5.11211013793945">
        <ele>743</ele>
        <time>2019-05-11T14:09:01Z</time>
      </trkpt>
      <trkpt lat="36.8069114685059" lon="-5.11212301254272">
        <ele>743</ele>
        <time>2019-05-11T14:09:03Z</time>
      </trkpt>
      <trkpt lat="36.8069343566894" lon="-5.11213779449463">
        <ele>743</ele>
        <time>2019-05-11T14:09:05Z</time>
      </trkpt>
      <trkpt lat="36.8069610595703" lon="-5.11215496063232">
        <ele>743</ele>
        <time>2019-05-11T14:09:07Z</time>
      </trkpt>
      <trkpt lat="36.8069839477539" lon="-5.11217498779297">
        <ele>743</ele>
        <time>2019-05-11T14:09:09Z</time>
      </trkpt>
      <trkpt lat="36.8070220947266" lon="-5.11220216751099">
        <ele>743</ele>
        <time>2019-05-11T14:09:11Z</time>
      </trkpt>
      <trkpt lat="36.8070487976074" lon="-5.11221790313721">
        <ele>743</ele>
        <time>2019-05-11T14:09:13Z</time>
      </trkpt>
      <trkpt lat="36.8070755004883" lon="-5.11223793029785">
        <ele>743</ele>
        <time>2019-05-11T14:09:15Z</time>
      </trkpt>
      <trkpt lat="36.8071022033691" lon="-5.11225700378418">
        <ele>743</ele>
        <time>2019-05-11T14:09:17Z</time>
      </trkpt>
      <trkpt lat="36.8071327209473" lon="-5.11227178573608">
        <ele>743</ele>
        <time>2019-05-11T14:09:19Z</time>
      </trkpt>
      <trkpt lat="36.8071556091309" lon="-5.1122899055481">
        <ele>743</ele>
        <time>2019-05-11T14:09:21Z</time>
      </trkpt>
      <trkpt lat="36.8071784973144" lon="-5.11231279373169">
        <ele>743</ele>
        <time>2019-05-11T14:09:23Z</time>
      </trkpt>
      <trkpt lat="36.807201385498" lon="-5.11233711242676">
        <ele>743</ele>
        <time>2019-05-11T14:09:26Z</time>
      </trkpt>
      <trkpt lat="36.8072242736816" lon="-5.11236190795898">
        <ele>743</ele>
        <time>2019-05-11T14:09:28Z</time>
      </trkpt>
      <trkpt lat="36.8072471618652" lon="-5.11238813400269">
        <ele>743</ele>
        <time>2019-05-11T14:09:30Z</time>
      </trkpt>
      <trkpt lat="36.8072700500488" lon="-5.11241292953491">
        <ele>743</ele>
        <time>2019-05-11T14:09:32Z</time>
      </trkpt>
      <trkpt lat="36.8072891235352" lon="-5.11244010925293">
        <ele>743</ele>
        <time>2019-05-11T14:09:34Z</time>
      </trkpt>
      <trkpt lat="36.8073120117188" lon="-5.11246681213379">
        <ele>743</ele>
        <time>2019-05-11T14:09:36Z</time>
      </trkpt>
      <trkpt lat="36.8073348999023" lon="-5.11249017715454">
        <ele>743</ele>
        <time>2019-05-11T14:09:38Z</time>
      </trkpt>
      <trkpt lat="36.8073539733887" lon="-5.11251306533814">
        <ele>743</ele>
        <time>2019-05-11T14:09:40Z</time>
      </trkpt>
      <trkpt lat="36.807373046875" lon="-5.11253499984741">
        <ele>743</ele>
        <time>2019-05-11T14:09:42Z</time>
      </trkpt>
      <trkpt lat="36.8073959350586" lon="-5.11255788803101">
        <ele>743</ele>
        <time>2019-05-11T14:09:44Z</time>
      </trkpt>
      <trkpt lat="36.8074226379394" lon="-5.11258506774902">
        <ele>743</ele>
        <time>2019-05-11T14:09:46Z</time>
      </trkpt>
      <trkpt lat="36.8074340820312" lon="-5.11260318756104">
        <ele>743</ele>
        <time>2019-05-11T14:09:48Z</time>
      </trkpt>
      <trkpt lat="36.8074340820312" lon="-5.1126070022583">
        <ele>743</ele>
        <time>2019-05-11T14:09:50Z</time>
      </trkpt>
      <trkpt lat="36.8074378967285" lon="-5.11260795593262">
        <ele>743</ele>
        <time>2019-05-11T14:09:52Z</time>
      </trkpt>
      <trkpt lat="36.8074378967285" lon="-5.11260986328125">
        <ele>743</ele>
        <time>2019-05-11T14:09:54Z</time>
      </trkpt>
      <trkpt lat="36.8074378967285" lon="-5.11261320114136">
        <ele>743</ele>
        <time>2019-05-11T14:09:56Z</time>
      </trkpt>
      <trkpt lat="36.8074493408203" lon="-5.11262512207031">
        <ele>743</ele>
        <time>2019-05-11T14:09:58Z</time>
      </trkpt>
      <trkpt lat="36.8074531555176" lon="-5.11264276504517">
        <ele>743</ele>
        <time>2019-05-11T14:10:00Z</time>
      </trkpt>
      <trkpt lat="36.8074417114258" lon="-5.11264514923096">
        <ele>743</ele>
        <time>2019-05-11T14:10:02Z</time>
      </trkpt>
      <trkpt lat="36.8074378967285" lon="-5.11264514923096">
        <ele>743</ele>
        <time>2019-05-11T14:10:05Z</time>
      </trkpt>
      <trkpt lat="36.8074340820312" lon="-5.11263990402222">
        <ele>743</ele>
        <time>2019-05-11T14:10:07Z</time>
      </trkpt>
      <trkpt lat="36.8074340820312" lon="-5.11263990402222">
        <ele>743</ele>
        <time>2019-05-11T14:10:09Z</time>
      </trkpt>
      <trkpt lat="36.8074340820312" lon="-5.11263799667358">
        <ele>743</ele>
        <time>2019-05-11T14:10:11Z</time>
      </trkpt>
      <trkpt lat="36.8074378967285" lon="-5.11263990402222">
        <ele>743</ele>
        <time>2019-05-11T14:10:13Z</time>
      </trkpt>
      <trkpt lat="36.8074531555176" lon="-5.11265182495117">
        <ele>743</ele>
        <time>2019-05-11T14:10:15Z</time>
      </trkpt>
      <trkpt lat="36.8074798583984" lon="-5.11267280578613">
        <ele>743</ele>
        <time>2019-05-11T14:10:17Z</time>
      </trkpt>
      <trkpt lat="36.8074989318848" lon="-5.11269998550415">
        <ele>743</ele>
        <time>2019-05-11T14:10:19Z</time>
      </trkpt>
      <trkpt lat="36.8075065612793" lon="-5.11273717880249">
        <ele>743</ele>
        <time>2019-05-11T14:10:21Z</time>
      </trkpt>
      <trkpt lat="36.8074951171875" lon="-5.11277008056641">
        <ele>743</ele>
        <time>2019-05-11T14:10:23Z</time>
      </trkpt>
      <trkpt lat="36.8074798583984" lon="-5.11280202865601">
        <ele>743</ele>
        <time>2019-05-11T14:10:25Z</time>
      </trkpt>
      <trkpt lat="36.8074493408203" lon="-5.11284303665161">
        <ele>743</ele>
        <time>2019-05-11T14:10:27Z</time>
      </trkpt>
      <trkpt lat="36.8074264526367" lon="-5.11286687850952">
        <ele>743</ele>
        <time>2019-05-11T14:10:29Z</time>
      </trkpt>
      <trkpt lat="36.8074073791504" lon="-5.11289310455322">
        <ele>743</ele>
        <time>2019-05-11T14:10:31Z</time>
      </trkpt>
      <trkpt lat="36.8073921203613" lon="-5.11292219161987">
        <ele>743</ele>
        <time>2019-05-11T14:10:33Z</time>
      </trkpt>
      <trkpt lat="36.8073883056641" lon="-5.11295318603516">
        <ele>743</ele>
        <time>2019-05-11T14:10:35Z</time>
      </trkpt>
      <trkpt lat="36.8073921203613" lon="-5.11298179626465">
        <ele>743</ele>
        <time>2019-05-11T14:10:37Z</time>
      </trkpt>
      <trkpt lat="36.8073959350586" lon="-5.11301517486572">
        <ele>743</ele>
        <time>2019-05-11T14:10:39Z</time>
      </trkpt>
      <trkpt lat="36.8073997497559" lon="-5.11304521560669">
        <ele>743</ele>
        <time>2019-05-11T14:10:41Z</time>
      </trkpt>
      <trkpt lat="36.8074035644531" lon="-5.11307716369629">
        <ele>743</ele>
        <time>2019-05-11T14:10:44Z</time>
      </trkpt>
      <trkpt lat="36.8074111938477" lon="-5.11310815811157">
        <ele>743</ele>
        <time>2019-05-11T14:10:46Z</time>
      </trkpt>
      <trkpt lat="36.8074150085449" lon="-5.11314487457275">
        <ele>744</ele>
        <time>2019-05-11T14:10:48Z</time>
      </trkpt>
      <trkpt lat="36.8074226379394" lon="-5.11318492889404">
        <ele>744</ele>
        <time>2019-05-11T14:10:50Z</time>
      </trkpt>
      <trkpt lat="36.8074340820312" lon="-5.11322212219238">
        <ele>745</ele>
        <time>2019-05-11T14:10:52Z</time>
      </trkpt>
      <trkpt lat="36.8074493408203" lon="-5.11325788497925">
        <ele>745</ele>
        <time>2019-05-11T14:10:54Z</time>
      </trkpt>
      <trkpt lat="36.8074607849121" lon="-5.11329698562622">
        <ele>745</ele>
        <time>2019-05-11T14:10:56Z</time>
      </trkpt>
      <trkpt lat="36.8074684143066" lon="-5.11333513259888">
        <ele>745</ele>
        <time>2019-05-11T14:10:58Z</time>
      </trkpt>
      <trkpt lat="36.8074760437012" lon="-5.11337280273438">
        <ele>745</ele>
        <time>2019-05-11T14:11:00Z</time>
      </trkpt>
      <trkpt lat="36.8074836730957" lon="-5.11343193054199">
        <ele>745</ele>
        <time>2019-05-11T14:11:02Z</time>
      </trkpt>
      <trkpt lat="36.8074836730957" lon="-5.1134729385376">
        <ele>745</ele>
        <time>2019-05-11T14:11:04Z</time>
      </trkpt>
      <trkpt lat="36.8074798583984" lon="-5.11351203918457">
        <ele>745</ele>
        <time>2019-05-11T14:11:06Z</time>
      </trkpt>
      <trkpt lat="36.8074760437012" lon="-5.11355209350586">
        <ele>745</ele>
        <time>2019-05-11T14:11:08Z</time>
      </trkpt>
      <trkpt lat="36.8074722290039" lon="-5.11358976364136">
        <ele>745</ele>
        <time>2019-05-11T14:11:10Z</time>
      </trkpt>
      <trkpt lat="36.8074684143066" lon="-5.11362791061401">
        <ele>745</ele>
        <time>2019-05-11T14:11:12Z</time>
      </trkpt>
      <trkpt lat="36.8074645996094" lon="-5.1136679649353">
        <ele>745</ele>
        <time>2019-05-11T14:11:14Z</time>
      </trkpt>
      <trkpt lat="36.8074569702148" lon="-5.11370706558228">
        <ele>745</ele>
        <time>2019-05-11T14:11:16Z</time>
      </trkpt>
      <trkpt lat="36.8074531555176" lon="-5.11374711990356">
        <ele>745</ele>
        <time>2019-05-11T14:11:19Z</time>
      </trkpt>
      <trkpt lat="36.8074493408203" lon="-5.11378479003906">
        <ele>745</ele>
        <time>2019-05-11T14:11:21Z</time>
      </trkpt>
      <trkpt lat="36.807445526123" lon="-5.11382484436035">
        <ele>745</ele>
        <time>2019-05-11T14:11:23Z</time>
      </trkpt>
      <trkpt lat="36.807445526123" lon="-5.11386489868164">
        <ele>745</ele>
        <time>2019-05-11T14:11:25Z</time>
      </trkpt>
      <trkpt lat="36.8074417114258" lon="-5.11390209197998">
        <ele>745</ele>
        <time>2019-05-11T14:11:27Z</time>
      </trkpt>
      <trkpt lat="36.8074378967285" lon="-5.11394214630127">
        <ele>745</ele>
        <time>2019-05-11T14:11:29Z</time>
      </trkpt>
      <trkpt lat="36.8074340820312" lon="-5.11397981643677">
        <ele>745</ele>
        <time>2019-05-11T14:11:31Z</time>
      </trkpt>
      <trkpt lat="36.807430267334" lon="-5.11401700973511">
        <ele>745</ele>
        <time>2019-05-11T14:11:33Z</time>
      </trkpt>
      <trkpt lat="36.8074264526367" lon="-5.11405515670776">
        <ele>745</ele>
        <time>2019-05-11T14:11:35Z</time>
      </trkpt>
      <trkpt lat="36.8074226379394" lon="-5.11409187316894">
        <ele>745</ele>
        <time>2019-05-11T14:11:37Z</time>
      </trkpt>
      <trkpt lat="36.8074188232422" lon="-5.11412000656128">
        <ele>745</ele>
        <time>2019-05-11T14:11:39Z</time>
      </trkpt>
      <trkpt lat="36.8074111938477" lon="-5.11415815353394">
        <ele>745</ele>
        <time>2019-05-11T14:11:41Z</time>
      </trkpt>
      <trkpt lat="36.8074073791504" lon="-5.11419677734375">
        <ele>745</ele>
        <time>2019-05-11T14:11:43Z</time>
      </trkpt>
      <trkpt lat="36.8074035644531" lon="-5.11423301696777">
        <ele>745</ele>
        <time>2019-05-11T14:11:45Z</time>
      </trkpt>
      <trkpt lat="36.8073959350586" lon="-5.11427211761475">
        <ele>745</ele>
        <time>2019-05-11T14:11:47Z</time>
      </trkpt>
      <trkpt lat="36.8073921203613" lon="-5.11430978775024">
        <ele>745</ele>
        <time>2019-05-11T14:11:49Z</time>
      </trkpt>
      <trkpt lat="36.8073844909668" lon="-5.1143479347229">
        <ele>745</ele>
        <time>2019-05-11T14:11:51Z</time>
      </trkpt>
      <trkpt lat="36.8073806762695" lon="-5.11438703536987">
        <ele>745</ele>
        <time>2019-05-11T14:11:54Z</time>
      </trkpt>
      <trkpt lat="36.8073768615723" lon="-5.11442708969116">
        <ele>745</ele>
        <time>2019-05-11T14:11:56Z</time>
      </trkpt>
      <trkpt lat="36.8073692321777" lon="-5.11446285247803">
        <ele>745</ele>
        <time>2019-05-11T14:11:58Z</time>
      </trkpt>
      <trkpt lat="36.8073616027832" lon="-5.11450290679932">
        <ele>745</ele>
        <time>2019-05-11T14:12:00Z</time>
      </trkpt>
      <trkpt lat="36.8073577880859" lon="-5.11454200744629">
        <ele>745</ele>
        <time>2019-05-11T14:12:02Z</time>
      </trkpt>
      <trkpt lat="36.8073539733887" lon="-5.11458206176758">
        <ele>745</ele>
        <time>2019-05-11T14:12:04Z</time>
      </trkpt>
      <trkpt lat="36.8073501586914" lon="-5.11462497711182">
        <ele>745</ele>
        <time>2019-05-11T14:12:06Z</time>
      </trkpt>
      <trkpt lat="36.8073463439941" lon="-5.11466503143311">
        <ele>745</ele>
        <time>2019-05-11T14:12:08Z</time>
      </trkpt>
      <trkpt lat="36.8073387145996" lon="-5.11470699310303">
        <ele>745</ele>
        <time>2019-05-11T14:12:10Z</time>
      </trkpt>
      <trkpt lat="36.8073310852051" lon="-5.11476707458496">
        <ele>745</ele>
        <time>2019-05-11T14:12:12Z</time>
      </trkpt>
      <trkpt lat="36.8073234558106" lon="-5.11480283737183">
        <ele>745</ele>
        <time>2019-05-11T14:12:14Z</time>
      </trkpt>
      <trkpt lat="36.8073120117188" lon="-5.1148419380188">
        <ele>745</ele>
        <time>2019-05-11T14:12:16Z</time>
      </trkpt>
      <trkpt lat="36.8073043823242" lon="-5.11488008499146">
        <ele>745</ele>
        <time>2019-05-11T14:12:18Z</time>
      </trkpt>
      <trkpt lat="36.8072967529297" lon="-5.11491823196411">
        <ele>745</ele>
        <time>2019-05-11T14:12:20Z</time>
      </trkpt>
      <trkpt lat="36.8072853088379" lon="-5.11495685577393">
        <ele>745</ele>
        <time>2019-05-11T14:12:22Z</time>
      </trkpt>
      <trkpt lat="36.8072738647461" lon="-5.11499500274658">
        <ele>745</ele>
        <time>2019-05-11T14:12:24Z</time>
      </trkpt>
      <trkpt lat="36.8072624206543" lon="-5.11503219604492">
        <ele>745</ele>
        <time>2019-05-11T14:12:26Z</time>
      </trkpt>
      <trkpt lat="36.8072509765625" lon="-5.11506986618042">
        <ele>745</ele>
        <time>2019-05-11T14:12:29Z</time>
      </trkpt>
      <trkpt lat="36.8072395324707" lon="-5.11510801315308">
        <ele>745</ele>
        <time>2019-05-11T14:12:31Z</time>
      </trkpt>
      <trkpt lat="36.8072280883789" lon="-5.11514711380005">
        <ele>745</ele>
        <time>2019-05-11T14:12:33Z</time>
      </trkpt>
      <trkpt lat="36.8072166442871" lon="-5.11518478393555">
        <ele>745</ele>
        <time>2019-05-11T14:12:35Z</time>
      </trkpt>
      <trkpt lat="36.8072052001953" lon="-5.1152229309082">
        <ele>745</ele>
        <time>2019-05-11T14:12:37Z</time>
      </trkpt>
      <trkpt lat="36.8071937561035" lon="-5.11526203155518">
        <ele>745</ele>
        <time>2019-05-11T14:12:39Z</time>
      </trkpt>
      <trkpt lat="36.8071823120117" lon="-5.11530017852783">
        <ele>745</ele>
        <time>2019-05-11T14:12:41Z</time>
      </trkpt>
      <trkpt lat="36.8071746826172" lon="-5.11534023284912">
        <ele>745</ele>
        <time>2019-05-11T14:12:43Z</time>
      </trkpt>
      <trkpt lat="36.8071632385254" lon="-5.11537981033325">
        <ele>745</ele>
        <time>2019-05-11T14:12:45Z</time>
      </trkpt>
      <trkpt lat="36.8071479797363" lon="-5.1154351234436">
        <ele>745</ele>
        <time>2019-05-11T14:12:47Z</time>
      </trkpt>
      <trkpt lat="36.8071365356445" lon="-5.11546993255615">
        <ele>745</ele>
        <time>2019-05-11T14:12:49Z</time>
      </trkpt>
      <trkpt lat="36.8071212768555" lon="-5.11550521850586">
        <ele>745</ele>
        <time>2019-05-11T14:12:51Z</time>
      </trkpt>
      <trkpt lat="36.8071136474609" lon="-5.11554288864136">
        <ele>745</ele>
        <time>2019-05-11T14:12:53Z</time>
      </trkpt>
      <trkpt lat="36.8070983886719" lon="-5.11557722091675">
        <ele>745</ele>
        <time>2019-05-11T14:12:55Z</time>
      </trkpt>
      <trkpt lat="36.8070831298828" lon="-5.11561012268066">
        <ele>745</ele>
        <time>2019-05-11T14:12:57Z</time>
      </trkpt>
      <trkpt lat="36.807071685791" lon="-5.11564493179321">
        <ele>745</ele>
        <time>2019-05-11T14:12:59Z</time>
      </trkpt>
      <trkpt lat="36.8070602416992" lon="-5.11568212509155">
        <ele>745</ele>
        <time>2019-05-11T14:13:02Z</time>
      </trkpt>
      <trkpt lat="36.8070487976074" lon="-5.1157169342041">
        <ele>745</ele>
        <time>2019-05-11T14:13:04Z</time>
      </trkpt>
      <trkpt lat="36.8070373535156" lon="-5.11574983596802">
        <ele>745</ele>
        <time>2019-05-11T14:13:06Z</time>
      </trkpt>
      <trkpt lat="36.8070259094238" lon="-5.11578512191772">
        <ele>745</ele>
        <time>2019-05-11T14:13:08Z</time>
      </trkpt>
      <trkpt lat="36.8070106506348" lon="-5.11581993103027">
        <ele>745</ele>
        <time>2019-05-11T14:13:10Z</time>
      </trkpt>
      <trkpt lat="36.806999206543" lon="-5.11585521697998">
        <ele>745</ele>
        <time>2019-05-11T14:13:12Z</time>
      </trkpt>
      <trkpt lat="36.8069839477539" lon="-5.11589002609253">
        <ele>745</ele>
        <time>2019-05-11T14:13:14Z</time>
      </trkpt>
      <trkpt lat="36.8069725036621" lon="-5.11592483520508">
        <ele>745</ele>
        <time>2019-05-11T14:13:16Z</time>
      </trkpt>
      <trkpt lat="36.806957244873" lon="-5.11596202850342">
        <ele>745</ele>
        <time>2019-05-11T14:13:18Z</time>
      </trkpt>
      <trkpt lat="36.8069458007812" lon="-5.11599683761597">
        <ele>745</ele>
        <time>2019-05-11T14:13:20Z</time>
      </trkpt>
      <trkpt lat="36.8069190979004" lon="-5.11604309082031">
        <ele>745</ele>
        <time>2019-05-11T14:13:22Z</time>
      </trkpt>
      <trkpt lat="36.8069000244141" lon="-5.11607313156128">
        <ele>745</ele>
        <time>2019-05-11T14:13:24Z</time>
      </trkpt>
      <trkpt lat="36.8068809509277" lon="-5.11610698699951">
        <ele>745</ele>
        <time>2019-05-11T14:13:26Z</time>
      </trkpt>
      <trkpt lat="36.8068618774414" lon="-5.11614179611206">
        <ele>745</ele>
        <time>2019-05-11T14:13:28Z</time>
      </trkpt>
      <trkpt lat="36.8068428039551" lon="-5.11617517471314">
        <ele>745</ele>
        <time>2019-05-11T14:13:30Z</time>
      </trkpt>
      <trkpt lat="36.8068237304688" lon="-5.11620807647705">
        <ele>745</ele>
        <time>2019-05-11T14:13:32Z</time>
      </trkpt>
      <trkpt lat="36.8068046569824" lon="-5.11624002456665">
        <ele>745</ele>
        <time>2019-05-11T14:13:34Z</time>
      </trkpt>
      <trkpt lat="36.8067855834961" lon="-5.1162748336792">
        <ele>745</ele>
        <time>2019-05-11T14:13:37Z</time>
      </trkpt>
      <trkpt lat="36.8067665100098" lon="-5.11630821228027">
        <ele>745</ele>
        <time>2019-05-11T14:13:39Z</time>
      </trkpt>
      <trkpt lat="36.8067512512207" lon="-5.11634016036987">
        <ele>745</ele>
        <time>2019-05-11T14:13:41Z</time>
      </trkpt>
      <trkpt lat="36.8067398071289" lon="-5.11637306213379">
        <ele>745</ele>
        <time>2019-05-11T14:13:43Z</time>
      </trkpt>
      <trkpt lat="36.8067283630371" lon="-5.11640787124634">
        <ele>745</ele>
        <time>2019-05-11T14:13:45Z</time>
      </trkpt>
      <trkpt lat="36.806713104248" lon="-5.11644506454468">
        <ele>745</ele>
        <time>2019-05-11T14:13:47Z</time>
      </trkpt>
      <trkpt lat="36.8067016601562" lon="-5.11647987365723">
        <ele>745</ele>
        <time>2019-05-11T14:13:49Z</time>
      </trkpt>
      <trkpt lat="36.8066902160644" lon="-5.11651706695557">
        <ele>745</ele>
        <time>2019-05-11T14:13:51Z</time>
      </trkpt>
      <trkpt lat="36.8066749572754" lon="-5.11655282974243">
        <ele>745</ele>
        <time>2019-05-11T14:13:53Z</time>
      </trkpt>
      <trkpt lat="36.8066596984863" lon="-5.11658716201782">
        <ele>745</ele>
        <time>2019-05-11T14:13:55Z</time>
      </trkpt>
      <trkpt lat="36.8066329956055" lon="-5.11664199829102">
        <ele>745</ele>
        <time>2019-05-11T14:13:57Z</time>
      </trkpt>
      <trkpt lat="36.8066177368164" lon="-5.11668014526367">
        <ele>745</ele>
        <time>2019-05-11T14:13:59Z</time>
      </trkpt>
      <trkpt lat="36.8065986633301" lon="-5.11671686172485">
        <ele>745</ele>
        <time>2019-05-11T14:14:01Z</time>
      </trkpt>
      <trkpt lat="36.806583404541" lon="-5.11675214767456">
        <ele>745</ele>
        <time>2019-05-11T14:14:03Z</time>
      </trkpt>
      <trkpt lat="36.806568145752" lon="-5.11678504943848">
        <ele>745</ele>
        <time>2019-05-11T14:14:05Z</time>
      </trkpt>
      <trkpt lat="36.8065528869629" lon="-5.11682319641113">
        <ele>745</ele>
        <time>2019-05-11T14:14:07Z</time>
      </trkpt>
      <trkpt lat="36.8065376281738" lon="-5.11685514450073">
        <ele>745</ele>
        <time>2019-05-11T14:14:09Z</time>
      </trkpt>
      <trkpt lat="36.8065223693848" lon="-5.11688804626465">
        <ele>745</ele>
        <time>2019-05-11T14:14:12Z</time>
      </trkpt>
      <trkpt lat="36.8065032958984" lon="-5.11691999435425">
        <ele>745</ele>
        <time>2019-05-11T14:14:14Z</time>
      </trkpt>
      <trkpt lat="36.8064880371094" lon="-5.1169548034668">
        <ele>745</ele>
        <time>2019-05-11T14:14:16Z</time>
      </trkpt>
      <trkpt lat="36.806468963623" lon="-5.11698818206787">
        <ele>745</ele>
        <time>2019-05-11T14:14:18Z</time>
      </trkpt>
      <trkpt lat="36.806453704834" lon="-5.11702013015747">
        <ele>745</ele>
        <time>2019-05-11T14:14:20Z</time>
      </trkpt>
      <trkpt lat="36.8064346313477" lon="-5.11705303192139">
        <ele>745</ele>
        <time>2019-05-11T14:14:22Z</time>
      </trkpt>
      <trkpt lat="36.8064193725586" lon="-5.11708784103394">
        <ele>745</ele>
        <time>2019-05-11T14:14:24Z</time>
      </trkpt>
      <trkpt lat="36.8064002990723" lon="-5.11712217330933">
        <ele>745</ele>
        <time>2019-05-11T14:14:26Z</time>
      </trkpt>
      <trkpt lat="36.8063812255859" lon="-5.11715507507324">
        <ele>745</ele>
        <time>2019-05-11T14:14:28Z</time>
      </trkpt>
      <trkpt lat="36.8063697814941" lon="-5.11718797683716">
        <ele>745</ele>
        <time>2019-05-11T14:14:30Z</time>
      </trkpt>
      <trkpt lat="36.8063430786133" lon="-5.11723804473877">
        <ele>745</ele>
        <time>2019-05-11T14:14:32Z</time>
      </trkpt>
      <trkpt lat="36.8063278198242" lon="-5.11726999282837">
        <ele>745</ele>
        <time>2019-05-11T14:14:34Z</time>
      </trkpt>
      <trkpt lat="36.8063087463379" lon="-5.11730003356934">
        <ele>745</ele>
        <time>2019-05-11T14:14:36Z</time>
      </trkpt>
      <trkpt lat="36.8062934875488" lon="-5.11733293533325">
        <ele>745</ele>
        <time>2019-05-11T14:14:38Z</time>
      </trkpt>
      <trkpt lat="36.8062782287598" lon="-5.11736679077148">
        <ele>745</ele>
        <time>2019-05-11T14:14:40Z</time>
      </trkpt>
      <trkpt lat="36.8062629699707" lon="-5.11740016937256">
        <ele>745</ele>
        <time>2019-05-11T14:14:42Z</time>
      </trkpt>
      <trkpt lat="36.8062438964844" lon="-5.11743211746216">
        <ele>745</ele>
        <time>2019-05-11T14:14:44Z</time>
      </trkpt>
      <trkpt lat="36.8062286376953" lon="-5.11746311187744">
        <ele>745</ele>
        <time>2019-05-11T14:14:47Z</time>
      </trkpt>
      <trkpt lat="36.8062133789062" lon="-5.11749315261841">
        <ele>745</ele>
        <time>2019-05-11T14:14:49Z</time>
      </trkpt>
      <trkpt lat="36.8061981201172" lon="-5.11752319335938">
        <ele>745</ele>
        <time>2019-05-11T14:14:51Z</time>
      </trkpt>
      <trkpt lat="36.8061828613281" lon="-5.11755514144897">
        <ele>745</ele>
        <time>2019-05-11T14:14:53Z</time>
      </trkpt>
      <trkpt lat="36.8061676025391" lon="-5.11758518218994">
        <ele>745</ele>
        <time>2019-05-11T14:14:55Z</time>
      </trkpt>
      <trkpt lat="36.8061485290527" lon="-5.1176118850708">
        <ele>745</ele>
        <time>2019-05-11T14:14:57Z</time>
      </trkpt>
      <trkpt lat="36.8061408996582" lon="-5.11764287948608">
        <ele>745</ele>
        <time>2019-05-11T14:14:59Z</time>
      </trkpt>
      <trkpt lat="36.8061256408691" lon="-5.11767816543579">
        <ele>745</ele>
        <time>2019-05-11T14:15:01Z</time>
      </trkpt>
      <trkpt lat="36.8061103820801" lon="-5.11771202087402">
        <ele>745</ele>
        <time>2019-05-11T14:15:03Z</time>
      </trkpt>
      <trkpt lat="36.806095123291" lon="-5.11774206161499">
        <ele>745</ele>
        <time>2019-05-11T14:15:05Z</time>
      </trkpt>
      <trkpt lat="36.8060684204102" lon="-5.11778688430786">
        <ele>745</ele>
        <time>2019-05-11T14:15:07Z</time>
      </trkpt>
      <trkpt lat="36.8060493469238" lon="-5.11781311035156">
        <ele>745</ele>
        <time>2019-05-11T14:15:09Z</time>
      </trkpt>
      <trkpt lat="36.8060340881348" lon="-5.1178469657898">
        <ele>745</ele>
        <time>2019-05-11T14:15:11Z</time>
      </trkpt>
      <trkpt lat="36.8060188293457" lon="-5.11788320541382">
        <ele>745</ele>
        <time>2019-05-11T14:15:13Z</time>
      </trkpt>
      <trkpt lat="36.8060035705566" lon="-5.11791515350342">
        <ele>744</ele>
        <time>2019-05-11T14:15:15Z</time>
      </trkpt>
      <trkpt lat="36.8059921264648" lon="-5.11794805526733">
        <ele>744</ele>
        <time>2019-05-11T14:15:17Z</time>
      </trkpt>
      <trkpt lat="36.8059768676758" lon="-5.11798286437988">
        <ele>744</ele>
        <time>2019-05-11T14:15:19Z</time>
      </trkpt>
      <trkpt lat="36.805965423584" lon="-5.11801719665527">
        <ele>744</ele>
        <time>2019-05-11T14:15:22Z</time>
      </trkpt>
      <trkpt lat="36.8059539794922" lon="-5.11805009841919">
        <ele>743</ele>
        <time>2019-05-11T14:15:24Z</time>
      </trkpt>
      <trkpt lat="36.8059387207031" lon="-5.11810302734375">
        <ele>743</ele>
        <time>2019-05-11T14:15:26Z</time>
      </trkpt>
      <trkpt lat="36.8059310913086" lon="-5.11815977096558">
        <ele>743</ele>
        <time>2019-05-11T14:15:28Z</time>
      </trkpt>
      <trkpt lat="36.8059234619141" lon="-5.11821985244751">
        <ele>743</ele>
        <time>2019-05-11T14:15:30Z</time>
      </trkpt>
      <trkpt lat="36.8058967590332" lon="-5.11827802658081">
        <ele>743</ele>
        <time>2019-05-11T14:15:32Z</time>
      </trkpt>
      <trkpt lat="36.8058700561523" lon="-5.11833477020264">
        <ele>743</ele>
        <time>2019-05-11T14:15:34Z</time>
      </trkpt>
      <trkpt lat="36.8058433532715" lon="-5.11838722229004">
        <ele>743</ele>
        <time>2019-05-11T14:15:36Z</time>
      </trkpt>
      <trkpt lat="36.8058166503906" lon="-5.11843490600586">
        <ele>743</ele>
        <time>2019-05-11T14:15:38Z</time>
      </trkpt>
      <trkpt lat="36.8057975769043" lon="-5.11849021911621">
        <ele>743</ele>
        <time>2019-05-11T14:15:40Z</time>
      </trkpt>
      <trkpt lat="36.8057670593262" lon="-5.118577003479">
        <ele>743</ele>
        <time>2019-05-11T14:15:42Z</time>
      </trkpt>
      <trkpt lat="36.8057556152344" lon="-5.11864185333252">
        <ele>743</ele>
        <time>2019-05-11T14:15:44Z</time>
      </trkpt>
      <trkpt lat="36.8057403564453" lon="-5.11870002746582">
        <ele>743</ele>
        <time>2019-05-11T14:15:46Z</time>
      </trkpt>
      <trkpt lat="36.8057174682617" lon="-5.11875677108765">
        <ele>743</ele>
        <time>2019-05-11T14:15:48Z</time>
      </trkpt>
      <trkpt lat="36.8056945800781" lon="-5.11881017684936">
        <ele>741</ele>
        <time>2019-05-11T14:15:50Z</time>
      </trkpt>
      <trkpt lat="36.8056678771973" lon="-5.11886501312256">
        <ele>741</ele>
        <time>2019-05-11T14:15:52Z</time>
      </trkpt>
      <trkpt lat="36.8056411743164" lon="-5.11892223358154">
        <ele>741</ele>
        <time>2019-05-11T14:15:54Z</time>
      </trkpt>
      <trkpt lat="36.8056144714356" lon="-5.11897802352905">
        <ele>741</ele>
        <time>2019-05-11T14:15:57Z</time>
      </trkpt>
      <trkpt lat="36.8055877685547" lon="-5.11902809143066">
        <ele>741</ele>
        <time>2019-05-11T14:15:59Z</time>
      </trkpt>
      <trkpt lat="36.8055610656738" lon="-5.11908292770386">
        <ele>741</ele>
        <time>2019-05-11T14:16:01Z</time>
      </trkpt>
      <trkpt lat="36.8055305480957" lon="-5.11913299560547">
        <ele>740</ele>
        <time>2019-05-11T14:16:03Z</time>
      </trkpt>
      <trkpt lat="36.8055038452148" lon="-5.11918306350708">
        <ele>740</ele>
        <time>2019-05-11T14:16:05Z</time>
      </trkpt>
      <trkpt lat="36.8054809570312" lon="-5.11923694610596">
        <ele>739</ele>
        <time>2019-05-11T14:16:07Z</time>
      </trkpt>
      <trkpt lat="36.8054542541504" lon="-5.1192831993103">
        <ele>738</ele>
        <time>2019-05-11T14:16:09Z</time>
      </trkpt>
      <trkpt lat="36.8054275512695" lon="-5.11932992935181">
        <ele>738</ele>
        <time>2019-05-11T14:16:11Z</time>
      </trkpt>
      <trkpt lat="36.8054046630859" lon="-5.11937999725342">
        <ele>737</ele>
        <time>2019-05-11T14:16:13Z</time>
      </trkpt>
      <trkpt lat="36.8053817749023" lon="-5.11942720413208">
        <ele>736</ele>
        <time>2019-05-11T14:16:15Z</time>
      </trkpt>
      <trkpt lat="36.8053436279297" lon="-5.11951017379761">
        <ele>736</ele>
        <time>2019-05-11T14:16:17Z</time>
      </trkpt>
      <trkpt lat="36.8053245544434" lon="-5.11956310272217">
        <ele>736</ele>
        <time>2019-05-11T14:16:19Z</time>
      </trkpt>
      <trkpt lat="36.8053016662598" lon="-5.11961793899536">
        <ele>736</ele>
        <time>2019-05-11T14:16:21Z</time>
      </trkpt>
      <trkpt lat="36.8052787780762" lon="-5.11966991424561">
        <ele>736</ele>
        <time>2019-05-11T14:16:23Z</time>
      </trkpt>
      <trkpt lat="36.8052520751953" lon="-5.11971282958984">
        <ele>736</ele>
        <time>2019-05-11T14:16:25Z</time>
      </trkpt>
      <trkpt lat="36.805233001709" lon="-5.11976003646851">
        <ele>736</ele>
        <time>2019-05-11T14:16:27Z</time>
      </trkpt>
      <trkpt lat="36.8052139282227" lon="-5.11981296539307">
        <ele>735</ele>
        <time>2019-05-11T14:16:29Z</time>
      </trkpt>
      <trkpt lat="36.8051986694336" lon="-5.11986684799194">
        <ele>734</ele>
        <time>2019-05-11T14:16:32Z</time>
      </trkpt>
      <trkpt lat="36.8051795959473" lon="-5.11992311477661">
        <ele>734</ele>
        <time>2019-05-11T14:16:34Z</time>
      </trkpt>
      <trkpt lat="36.8051681518555" lon="-5.11997985839844">
        <ele>734</ele>
        <time>2019-05-11T14:16:36Z</time>
      </trkpt>
      <trkpt lat="36.8051528930664" lon="-5.12003517150879">
        <ele>733</ele>
        <time>2019-05-11T14:16:38Z</time>
      </trkpt>
      <trkpt lat="36.8051376342773" lon="-5.12008810043335">
        <ele>733</ele>
        <time>2019-05-11T14:16:40Z</time>
      </trkpt>
      <trkpt lat="36.8051223754883" lon="-5.1201319694519">
        <ele>732</ele>
        <time>2019-05-11T14:16:42Z</time>
      </trkpt>
      <trkpt lat="36.8051071166992" lon="-5.12016820907593">
        <ele>731</ele>
        <time>2019-05-11T14:16:44Z</time>
      </trkpt>
      <trkpt lat="36.8050956726074" lon="-5.12020301818848">
        <ele>731</ele>
        <time>2019-05-11T14:16:46Z</time>
      </trkpt>
      <trkpt lat="36.8050804138184" lon="-5.12023687362671">
        <ele>730</ele>
        <time>2019-05-11T14:16:48Z</time>
      </trkpt>
      <trkpt lat="36.8050651550293" lon="-5.12028789520264">
        <ele>730</ele>
        <time>2019-05-11T14:16:50Z</time>
      </trkpt>
      <trkpt lat="36.8050537109375" lon="-5.12032508850098">
        <ele>730</ele>
        <time>2019-05-11T14:16:52Z</time>
      </trkpt>
      <trkpt lat="36.8050384521484" lon="-5.12035512924194">
        <ele>729</ele>
        <time>2019-05-11T14:16:54Z</time>
      </trkpt>
      <trkpt lat="36.8050231933594" lon="-5.12037992477417">
        <ele>729</ele>
        <time>2019-05-11T14:16:56Z</time>
      </trkpt>
      <trkpt lat="36.8050155639648" lon="-5.1204080581665">
        <ele>729</ele>
        <time>2019-05-11T14:16:58Z</time>
      </trkpt>
      <trkpt lat="36.8050003051758" lon="-5.12044191360474">
        <ele>729</ele>
        <time>2019-05-11T14:17:00Z</time>
      </trkpt>
      <trkpt lat="36.8049774169922" lon="-5.12048006057739">
        <ele>729</ele>
        <time>2019-05-11T14:17:02Z</time>
      </trkpt>
      <trkpt lat="36.8049507141113" lon="-5.12052297592163">
        <ele>728</ele>
        <time>2019-05-11T14:17:04Z</time>
      </trkpt>
      <trkpt lat="36.8049278259277" lon="-5.12057018280029">
        <ele>728</ele>
        <time>2019-05-11T14:17:07Z</time>
      </trkpt>
      <trkpt lat="36.8049011230469" lon="-5.1206169128418">
        <ele>726</ele>
        <time>2019-05-11T14:17:09Z</time>
      </trkpt>
      <trkpt lat="36.8048782348633" lon="-5.12066221237183">
        <ele>726</ele>
        <time>2019-05-11T14:17:11Z</time>
      </trkpt>
      <trkpt lat="36.8048553466797" lon="-5.1207070350647">
        <ele>726</ele>
        <time>2019-05-11T14:17:13Z</time>
      </trkpt>
      <trkpt lat="36.8048286437988" lon="-5.12075281143188">
        <ele>726</ele>
        <time>2019-05-11T14:17:15Z</time>
      </trkpt>
      <trkpt lat="36.8048057556152" lon="-5.12079811096191">
        <ele>726</ele>
        <time>2019-05-11T14:17:17Z</time>
      </trkpt>
      <trkpt lat="36.8047866821289" lon="-5.12084722518921">
        <ele>725</ele>
        <time>2019-05-11T14:17:19Z</time>
      </trkpt>
      <trkpt lat="36.8047637939453" lon="-5.12089204788208">
        <ele>725</ele>
        <time>2019-05-11T14:17:21Z</time>
      </trkpt>
      <trkpt lat="36.8047370910644" lon="-5.12094020843506">
        <ele>725</ele>
        <time>2019-05-11T14:17:23Z</time>
      </trkpt>
      <trkpt lat="36.8046989440918" lon="-5.12101221084595">
        <ele>724</ele>
        <time>2019-05-11T14:17:25Z</time>
      </trkpt>
      <trkpt lat="36.8046722412109" lon="-5.12105703353882">
        <ele>724</ele>
        <time>2019-05-11T14:17:27Z</time>
      </trkpt>
      <trkpt lat="36.8046455383301" lon="-5.12110280990601">
        <ele>724</ele>
        <time>2019-05-11T14:17:29Z</time>
      </trkpt>
      <trkpt lat="36.8046226501465" lon="-5.12114715576172">
        <ele>724</ele>
        <time>2019-05-11T14:17:31Z</time>
      </trkpt>
      <trkpt lat="36.8045959472656" lon="-5.12119483947754">
        <ele>723</ele>
        <time>2019-05-11T14:17:33Z</time>
      </trkpt>
      <trkpt lat="36.8045654296875" lon="-5.1212477684021">
        <ele>723</ele>
        <time>2019-05-11T14:17:35Z</time>
      </trkpt>
      <trkpt lat="36.8045387268066" lon="-5.12129783630371">
        <ele>722</ele>
        <time>2019-05-11T14:17:37Z</time>
      </trkpt>
      <trkpt lat="36.804515838623" lon="-5.12134981155396">
        <ele>721</ele>
        <time>2019-05-11T14:17:39Z</time>
      </trkpt>
      <trkpt lat="36.8044967651367" lon="-5.1214017868042">
        <ele>721</ele>
        <time>2019-05-11T14:17:42Z</time>
      </trkpt>
      <trkpt lat="36.8044738769531" lon="-5.12145185470581">
        <ele>720</ele>
        <time>2019-05-11T14:17:44Z</time>
      </trkpt>
      <trkpt lat="36.8044509887695" lon="-5.12150001525879">
        <ele>720</ele>
        <time>2019-05-11T14:17:46Z</time>
      </trkpt>
      <trkpt lat="36.8044166564941" lon="-5.12155485153198">
        <ele>720</ele>
        <time>2019-05-11T14:17:48Z</time>
      </trkpt>
      <trkpt lat="36.804386138916" lon="-5.12161207199097">
        <ele>720</ele>
        <time>2019-05-11T14:17:50Z</time>
      </trkpt>
      <trkpt lat="36.8043556213379" lon="-5.12166213989258">
        <ele>720</ele>
        <time>2019-05-11T14:17:52Z</time>
      </trkpt>
      <trkpt lat="36.804328918457" lon="-5.12171220779419">
        <ele>720</ele>
        <time>2019-05-11T14:17:54Z</time>
      </trkpt>
      <trkpt lat="36.8042984008789" lon="-5.12175798416138">
        <ele>720</ele>
        <time>2019-05-11T14:17:56Z</time>
      </trkpt>
      <trkpt lat="36.8042640686035" lon="-5.12180519104004">
        <ele>720</ele>
        <time>2019-05-11T14:17:58Z</time>
      </trkpt>
      <trkpt lat="36.8042335510254" lon="-5.12185001373291">
        <ele>720</ele>
        <time>2019-05-11T14:18:00Z</time>
      </trkpt>
      <trkpt lat="36.8041915893555" lon="-5.12191820144653">
        <ele>720</ele>
        <time>2019-05-11T14:18:02Z</time>
      </trkpt>
      <trkpt lat="36.8041648864746" lon="-5.12197208404541">
        <ele>720</ele>
        <time>2019-05-11T14:18:04Z</time>
      </trkpt>
      <trkpt lat="36.8041305541992" lon="-5.12201976776123">
        <ele>720</ele>
        <time>2019-05-11T14:18:06Z</time>
      </trkpt>
      <trkpt lat="36.8041000366211" lon="-5.12206697463989">
        <ele>720</ele>
        <time>2019-05-11T14:18:08Z</time>
      </trkpt>
      <trkpt lat="36.8040657043457" lon="-5.12211990356445">
        <ele>720</ele>
        <time>2019-05-11T14:18:10Z</time>
      </trkpt>
      <trkpt lat="36.8040390014648" lon="-5.12216997146606">
        <ele>720</ele>
        <time>2019-05-11T14:18:12Z</time>
      </trkpt>
      <trkpt lat="36.8040084838867" lon="-5.12221717834473">
        <ele>720</ele>
        <time>2019-05-11T14:18:14Z</time>
      </trkpt>
      <trkpt lat="36.8039741516113" lon="-5.12225484848022">
        <ele>720</ele>
        <time>2019-05-11T14:18:17Z</time>
      </trkpt>
      <trkpt lat="36.8039474487305" lon="-5.1222882270813">
        <ele>720</ele>
        <time>2019-05-11T14:18:19Z</time>
      </trkpt>
      <trkpt lat="36.8039207458496" lon="-5.12233018875122">
        <ele>720</ele>
        <time>2019-05-11T14:18:21Z</time>
      </trkpt>
      <trkpt lat="36.8038940429688" lon="-5.12237977981567">
        <ele>719</ele>
        <time>2019-05-11T14:18:23Z</time>
      </trkpt>
      <trkpt lat="36.8038635253906" lon="-5.12243509292603">
        <ele>718</ele>
        <time>2019-05-11T14:18:25Z</time>
      </trkpt>
      <trkpt lat="36.8038368225098" lon="-5.12248182296753">
        <ele>718</ele>
        <time>2019-05-11T14:18:27Z</time>
      </trkpt>
      <trkpt lat="36.8038177490234" lon="-5.12252807617188">
        <ele>717</ele>
        <time>2019-05-11T14:18:29Z</time>
      </trkpt>
      <trkpt lat="36.8037948608398" lon="-5.12257194519043">
        <ele>716</ele>
        <time>2019-05-11T14:18:31Z</time>
      </trkpt>
      <trkpt lat="36.8037643432617" lon="-5.1226167678833">
        <ele>715</ele>
        <time>2019-05-11T14:18:33Z</time>
      </trkpt>
      <trkpt lat="36.8037300109863" lon="-5.12265491485596">
        <ele>714</ele>
        <time>2019-05-11T14:18:35Z</time>
      </trkpt>
      <trkpt lat="36.8036766052246" lon="-5.12271308898926">
        <ele>713</ele>
        <time>2019-05-11T14:18:37Z</time>
      </trkpt>
      <trkpt lat="36.8036460876465" lon="-5.12275981903076">
        <ele>712</ele>
        <time>2019-05-11T14:18:39Z</time>
      </trkpt>
      <trkpt lat="36.8036117553711" lon="-5.12280511856079">
        <ele>711</ele>
        <time>2019-05-11T14:18:41Z</time>
      </trkpt>
      <trkpt lat="36.803581237793" lon="-5.12284517288208">
        <ele>711</ele>
        <time>2019-05-11T14:18:43Z</time>
      </trkpt>
      <trkpt lat="36.8035469055176" lon="-5.122887134552">
        <ele>710</ele>
        <time>2019-05-11T14:18:45Z</time>
      </trkpt>
      <trkpt lat="36.803524017334" lon="-5.12293004989624">
        <ele>709</ele>
        <time>2019-05-11T14:18:47Z</time>
      </trkpt>
      <trkpt lat="36.8034973144531" lon="-5.12297201156616">
        <ele>707</ele>
        <time>2019-05-11T14:18:49Z</time>
      </trkpt>
      <trkpt lat="36.8034706115723" lon="-5.1230149269104">
        <ele>706</ele>
        <time>2019-05-11T14:18:52Z</time>
      </trkpt>
      <trkpt lat="36.8034439086914" lon="-5.12305784225464">
        <ele>706</ele>
        <time>2019-05-11T14:18:54Z</time>
      </trkpt>
      <trkpt lat="36.8034133911133" lon="-5.12310314178467">
        <ele>706</ele>
        <time>2019-05-11T14:18:56Z</time>
      </trkpt>
      <trkpt lat="36.8033790588379" lon="-5.12315320968628">
        <ele>706</ele>
        <time>2019-05-11T14:18:58Z</time>
      </trkpt>
      <trkpt lat="36.8033447265625" lon="-5.12319803237915">
        <ele>706</ele>
        <time>2019-05-11T14:19:00Z</time>
      </trkpt>
      <trkpt lat="36.8033103942871" lon="-5.1232419013977">
        <ele>706</ele>
        <time>2019-05-11T14:19:02Z</time>
      </trkpt>
      <trkpt lat="36.8032760620117" lon="-5.12328290939331">
        <ele>706</ele>
        <time>2019-05-11T14:19:04Z</time>
      </trkpt>
      <trkpt lat="36.8032455444336" lon="-5.12332677841186">
        <ele>706</ele>
        <time>2019-05-11T14:19:06Z</time>
      </trkpt>
      <trkpt lat="36.8032150268555" lon="-5.12337493896484">
        <ele>706</ele>
        <time>2019-05-11T14:19:08Z</time>
      </trkpt>
      <trkpt lat="36.8031845092773" lon="-5.12342214584351">
        <ele>706</ele>
        <time>2019-05-11T14:19:10Z</time>
      </trkpt>
      <trkpt lat="36.8031349182129" lon="-5.12348508834839">
        <ele>705</ele>
        <time>2019-05-11T14:19:12Z</time>
      </trkpt>
      <trkpt lat="36.803108215332" lon="-5.12352705001831">
        <ele>704</ele>
        <time>2019-05-11T14:19:14Z</time>
      </trkpt>
      <trkpt lat="36.8030815124512" lon="-5.1235728263855">
        <ele>704</ele>
        <time>2019-05-11T14:19:16Z</time>
      </trkpt>
      <trkpt lat="36.8030586242676" lon="-5.12362289428711">
        <ele>704</ele>
        <time>2019-05-11T14:19:18Z</time>
      </trkpt>
      <trkpt lat="36.8030281066894" lon="-5.12367486953735">
        <ele>704</ele>
        <time>2019-05-11T14:19:20Z</time>
      </trkpt>
      <trkpt lat="36.8030052185059" lon="-5.12372303009033">
        <ele>704</ele>
        <time>2019-05-11T14:19:22Z</time>
      </trkpt>
      <trkpt lat="36.802978515625" lon="-5.12377309799194">
        <ele>704</ele>
        <time>2019-05-11T14:19:24Z</time>
      </trkpt>
      <trkpt lat="36.8029518127441" lon="-5.12383222579956">
        <ele>704</ele>
        <time>2019-05-11T14:19:27Z</time>
      </trkpt>
      <trkpt lat="36.8029289245606" lon="-5.1238899230957">
        <ele>704</ele>
        <time>2019-05-11T14:19:29Z</time>
      </trkpt>
      <trkpt lat="36.802906036377" lon="-5.12394189834595">
        <ele>704</ele>
        <time>2019-05-11T14:19:31Z</time>
      </trkpt>
      <trkpt lat="36.8028831481934" lon="-5.12399482727051">
        <ele>703</ele>
        <time>2019-05-11T14:19:33Z</time>
      </trkpt>
      <trkpt lat="36.8028564453125" lon="-5.12404680252075">
        <ele>703</ele>
        <time>2019-05-11T14:19:35Z</time>
      </trkpt>
      <trkpt lat="36.8028297424316" lon="-5.12409210205078">
        <ele>702</ele>
        <time>2019-05-11T14:19:37Z</time>
      </trkpt>
      <trkpt lat="36.8028030395508" lon="-5.12413215637207">
        <ele>701</ele>
        <time>2019-05-11T14:19:39Z</time>
      </trkpt>
      <trkpt lat="36.8027763366699" lon="-5.12417793273926">
        <ele>701</ele>
        <time>2019-05-11T14:19:41Z</time>
      </trkpt>
      <trkpt lat="36.8027534484863" lon="-5.12422800064087">
        <ele>701</ele>
        <time>2019-05-11T14:19:43Z</time>
      </trkpt>
      <trkpt lat="36.8027267456055" lon="-5.12428522109985">
        <ele>701</ele>
        <time>2019-05-11T14:19:45Z</time>
      </trkpt>
      <trkpt lat="36.8026962280273" lon="-5.12436294555664">
        <ele>701</ele>
        <time>2019-05-11T14:19:47Z</time>
      </trkpt>
      <trkpt lat="36.8026733398438" lon="-5.12441682815552">
        <ele>701</ele>
        <time>2019-05-11T14:19:49Z</time>
      </trkpt>
      <trkpt lat="36.8026504516602" lon="-5.12447023391724">
        <ele>701</ele>
        <time>2019-05-11T14:19:51Z</time>
      </trkpt>
      <trkpt lat="36.8026275634766" lon="-5.12452507019043">
        <ele>701</ele>
        <time>2019-05-11T14:19:53Z</time>
      </trkpt>
      <trkpt lat="36.8026084899902" lon="-5.12457704544067">
        <ele>700</ele>
        <time>2019-05-11T14:19:55Z</time>
      </trkpt>
      <trkpt lat="36.8025932312012" lon="-5.12462711334228">
        <ele>700</ele>
        <time>2019-05-11T14:19:57Z</time>
      </trkpt>
      <trkpt lat="36.8025703430176" lon="-5.12468004226685">
        <ele>700</ele>
        <time>2019-05-11T14:19:59Z</time>
      </trkpt>
      <trkpt lat="36.8025512695312" lon="-5.12473487854004">
        <ele>700</ele>
        <time>2019-05-11T14:20:02Z</time>
      </trkpt>
      <trkpt lat="36.8025245666504" lon="-5.12478494644165">
        <ele>700</ele>
        <time>2019-05-11T14:20:04Z</time>
      </trkpt>
      <trkpt lat="36.8025093078613" lon="-5.12482786178589">
        <ele>700</ele>
        <time>2019-05-11T14:20:06Z</time>
      </trkpt>
      <trkpt lat="36.8024978637695" lon="-5.1248631477356">
        <ele>699</ele>
        <time>2019-05-11T14:20:08Z</time>
      </trkpt>
      <trkpt lat="36.8024864196777" lon="-5.12489795684814">
        <ele>699</ele>
        <time>2019-05-11T14:20:10Z</time>
      </trkpt>
      <trkpt lat="36.8024787902832" lon="-5.1249270439148">
        <ele>699</ele>
        <time>2019-05-11T14:20:12Z</time>
      </trkpt>
      <trkpt lat="36.8024635314941" lon="-5.12495994567871">
        <ele>699</ele>
        <time>2019-05-11T14:20:14Z</time>
      </trkpt>
      <trkpt lat="36.8024520874023" lon="-5.12499809265137">
        <ele>698</ele>
        <time>2019-05-11T14:20:16Z</time>
      </trkpt>
      <trkpt lat="36.8024406433106" lon="-5.12503004074097">
        <ele>698</ele>
        <time>2019-05-11T14:20:18Z</time>
      </trkpt>
      <trkpt lat="36.802433013916" lon="-5.12506294250488">
        <ele>697</ele>
        <time>2019-05-11T14:20:20Z</time>
      </trkpt>
      <trkpt lat="36.8024139404297" lon="-5.12511301040649">
        <ele>696</ele>
        <time>2019-05-11T14:20:22Z</time>
      </trkpt>
      <trkpt lat="36.8023986816406" lon="-5.12515020370483">
        <ele>696</ele>
        <time>2019-05-11T14:20:24Z</time>
      </trkpt>
      <trkpt lat="36.8023910522461" lon="-5.12518501281738">
        <ele>695</ele>
        <time>2019-05-11T14:20:26Z</time>
      </trkpt>
      <trkpt lat="36.8023796081543" lon="-5.12522220611572">
        <ele>695</ele>
        <time>2019-05-11T14:20:28Z</time>
      </trkpt>
      <trkpt lat="36.8023681640625" lon="-5.12526178359985">
        <ele>694</ele>
        <time>2019-05-11T14:20:30Z</time>
      </trkpt>
      <trkpt lat="36.8023567199707" lon="-5.12529802322388">
        <ele>694</ele>
        <time>2019-05-11T14:20:32Z</time>
      </trkpt>
      <trkpt lat="36.8023452758789" lon="-5.12533521652222">
        <ele>694</ele>
        <time>2019-05-11T14:20:34Z</time>
      </trkpt>
      <trkpt lat="36.8023376464844" lon="-5.12537288665772">
        <ele>693</ele>
        <time>2019-05-11T14:20:36Z</time>
      </trkpt>
      <trkpt lat="36.8023262023926" lon="-5.125412940979">
        <ele>693</ele>
        <time>2019-05-11T14:20:39Z</time>
      </trkpt>
      <trkpt lat="36.802318572998" lon="-5.12545299530029">
        <ele>693</ele>
        <time>2019-05-11T14:20:41Z</time>
      </trkpt>
      <trkpt lat="36.802318572998" lon="-5.12550020217896">
        <ele>693</ele>
        <time>2019-05-11T14:20:43Z</time>
      </trkpt>
      <trkpt lat="36.802318572998" lon="-5.12554693222046">
        <ele>693</ele>
        <time>2019-05-11T14:20:45Z</time>
      </trkpt>
      <trkpt lat="36.802318572998" lon="-5.1255931854248">
        <ele>693</ele>
        <time>2019-05-11T14:20:47Z</time>
      </trkpt>
      <trkpt lat="36.8023147583008" lon="-5.12563514709473">
        <ele>692</ele>
        <time>2019-05-11T14:20:49Z</time>
      </trkpt>
      <trkpt lat="36.802318572998" lon="-5.12567710876465">
        <ele>691</ele>
        <time>2019-05-11T14:20:51Z</time>
      </trkpt>
      <trkpt lat="36.802318572998" lon="-5.12572002410889">
        <ele>691</ele>
        <time>2019-05-11T14:20:53Z</time>
      </trkpt>
      <trkpt lat="36.8023223876953" lon="-5.12576007843018">
        <ele>691</ele>
        <time>2019-05-11T14:20:55Z</time>
      </trkpt>
      <trkpt lat="36.8023223876953" lon="-5.1258020401001">
        <ele>691</ele>
        <time>2019-05-11T14:20:57Z</time>
      </trkpt>
      <trkpt lat="36.8023338317871" lon="-5.12587690353394">
        <ele>691</ele>
        <time>2019-05-11T14:20:59Z</time>
      </trkpt>
      <trkpt lat="36.8023300170898" lon="-5.12592697143555">
        <ele>691</ele>
        <time>2019-05-11T14:21:01Z</time>
      </trkpt>
      <trkpt lat="36.8023338317871" lon="-5.12596702575684">
        <ele>691</ele>
        <time>2019-05-11T14:21:03Z</time>
      </trkpt>
      <trkpt lat="36.8023338317871" lon="-5.12601184844971">
        <ele>691</ele>
        <time>2019-05-11T14:21:05Z</time>
      </trkpt>
      <trkpt lat="36.8023376464844" lon="-5.12605285644531">
        <ele>691</ele>
        <time>2019-05-11T14:21:07Z</time>
      </trkpt>
      <trkpt lat="36.8023452758789" lon="-5.12609195709228">
        <ele>691</ele>
        <time>2019-05-11T14:21:09Z</time>
      </trkpt>
      <trkpt lat="36.8023414611816" lon="-5.12613010406494">
        <ele>691</ele>
        <time>2019-05-11T14:21:11Z</time>
      </trkpt>
      <trkpt lat="36.8023452758789" lon="-5.12617492675781">
        <ele>690</ele>
        <time>2019-05-11T14:21:14Z</time>
      </trkpt>
      <trkpt lat="36.8023529052734" lon="-5.12621784210205">
        <ele>689</ele>
        <time>2019-05-11T14:21:16Z</time>
      </trkpt>
      <trkpt lat="36.8023643493652" lon="-5.12625312805176">
        <ele>689</ele>
        <time>2019-05-11T14:21:18Z</time>
      </trkpt>
      <trkpt lat="36.8023681640625" lon="-5.12629222869873">
        <ele>688</ele>
        <time>2019-05-11T14:21:20Z</time>
      </trkpt>
      <trkpt lat="36.802375793457" lon="-5.12632703781128">
        <ele>688</ele>
        <time>2019-05-11T14:21:22Z</time>
      </trkpt>
      <trkpt lat="36.8023834228516" lon="-5.12636995315552">
        <ele>687</ele>
        <time>2019-05-11T14:21:24Z</time>
      </trkpt>
      <trkpt lat="36.8023872375488" lon="-5.12640810012817">
        <ele>686</ele>
        <time>2019-05-11T14:21:26Z</time>
      </trkpt>
      <trkpt lat="36.8023948669434" lon="-5.1264500617981">
        <ele>686</ele>
        <time>2019-05-11T14:21:28Z</time>
      </trkpt>
      <trkpt lat="36.8023986816406" lon="-5.12649297714233">
        <ele>686</ele>
        <time>2019-05-11T14:21:30Z</time>
      </trkpt>
      <trkpt lat="36.8024063110352" lon="-5.12653493881226">
        <ele>685</ele>
        <time>2019-05-11T14:21:32Z</time>
      </trkpt>
      <trkpt lat="36.8024101257324" lon="-5.12659502029419">
        <ele>685</ele>
        <time>2019-05-11T14:21:34Z</time>
      </trkpt>
      <trkpt lat="36.8024101257324" lon="-5.12663316726685">
        <ele>685</ele>
        <time>2019-05-11T14:21:36Z</time>
      </trkpt>
      <trkpt lat="36.802417755127" lon="-5.12666988372803">
        <ele>685</ele>
        <time>2019-05-11T14:21:38Z</time>
      </trkpt>
      <trkpt lat="36.8024215698242" lon="-5.12670707702637">
        <ele>684</ele>
        <time>2019-05-11T14:21:40Z</time>
      </trkpt>
      <trkpt lat="36.802433013916" lon="-5.12674188613892">
        <ele>683</ele>
        <time>2019-05-11T14:21:42Z</time>
      </trkpt>
      <trkpt lat="36.8024368286133" lon="-5.12677812576294">
        <ele>682</ele>
        <time>2019-05-11T14:21:44Z</time>
      </trkpt>
      <trkpt lat="36.8024406433106" lon="-5.12682199478149">
        <ele>681</ele>
        <time>2019-05-11T14:21:46Z</time>
      </trkpt>
      <trkpt lat="36.8024520874023" lon="-5.12686204910278">
        <ele>681</ele>
        <time>2019-05-11T14:21:48Z</time>
      </trkpt>
      <trkpt lat="36.8024520874023" lon="-5.12690305709839">
        <ele>681</ele>
        <time>2019-05-11T14:21:51Z</time>
      </trkpt>
      <trkpt lat="36.8024520874023" lon="-5.12693977355957">
        <ele>680</ele>
        <time>2019-05-11T14:21:53Z</time>
      </trkpt>
      <trkpt lat="36.8024520874023" lon="-5.12697982788086">
        <ele>680</ele>
        <time>2019-05-11T14:21:55Z</time>
      </trkpt>
      <trkpt lat="36.8024482727051" lon="-5.12701511383057">
        <ele>680</ele>
        <time>2019-05-11T14:21:57Z</time>
      </trkpt>
      <trkpt lat="36.8024482727051" lon="-5.1270580291748">
        <ele>680</ele>
        <time>2019-05-11T14:21:59Z</time>
      </trkpt>
      <trkpt lat="36.8024444580078" lon="-5.12709522247314">
        <ele>680</ele>
        <time>2019-05-11T14:22:01Z</time>
      </trkpt>
      <trkpt lat="36.8024406433106" lon="-5.12713289260864">
        <ele>680</ele>
        <time>2019-05-11T14:22:03Z</time>
      </trkpt>
      <trkpt lat="36.8024406433106" lon="-5.12717294692993">
        <ele>680</ele>
        <time>2019-05-11T14:22:05Z</time>
      </trkpt>
      <trkpt lat="36.802433013916" lon="-5.12721300125122">
        <ele>680</ele>
        <time>2019-05-11T14:22:07Z</time>
      </trkpt>
      <trkpt lat="36.8024253845215" lon="-5.12724685668945">
        <ele>680</ele>
        <time>2019-05-11T14:22:09Z</time>
      </trkpt>
      <trkpt lat="36.8024215698242" lon="-5.12729787826538">
        <ele>680</ele>
        <time>2019-05-11T14:22:11Z</time>
      </trkpt>
      <trkpt lat="36.8024139404297" lon="-5.1273398399353">
        <ele>680</ele>
        <time>2019-05-11T14:22:13Z</time>
      </trkpt>
      <trkpt lat="36.8024101257324" lon="-5.1273832321167">
        <ele>680</ele>
        <time>2019-05-11T14:22:15Z</time>
      </trkpt>
      <trkpt lat="36.8024101257324" lon="-5.12741804122925">
        <ele>680</ele>
        <time>2019-05-11T14:22:17Z</time>
      </trkpt>
      <trkpt lat="36.8024024963379" lon="-5.12745714187622">
        <ele>680</ele>
        <time>2019-05-11T14:22:19Z</time>
      </trkpt>
      <trkpt lat="36.8023986816406" lon="-5.12749814987183">
        <ele>680</ele>
        <time>2019-05-11T14:22:21Z</time>
      </trkpt>
      <trkpt lat="36.8023910522461" lon="-5.12753486633301">
        <ele>680</ele>
        <time>2019-05-11T14:22:23Z</time>
      </trkpt>
      <trkpt lat="36.8023834228516" lon="-5.12757301330566">
        <ele>680</ele>
        <time>2019-05-11T14:22:26Z</time>
      </trkpt>
      <trkpt lat="36.8023872375488" lon="-5.12761211395264">
        <ele>679</ele>
        <time>2019-05-11T14:22:28Z</time>
      </trkpt>
      <trkpt lat="36.8023796081543" lon="-5.12764978408814">
        <ele>679</ele>
        <time>2019-05-11T14:22:30Z</time>
      </trkpt>
      <trkpt lat="36.8023834228516" lon="-5.12768316268921">
        <ele>679</ele>
        <time>2019-05-11T14:22:32Z</time>
      </trkpt>
      <trkpt lat="36.8023834228516" lon="-5.12772512435913">
        <ele>678</ele>
        <time>2019-05-11T14:22:34Z</time>
      </trkpt>
      <trkpt lat="36.8023834228516" lon="-5.12776517868042">
        <ele>678</ele>
        <time>2019-05-11T14:22:36Z</time>
      </trkpt>
      <trkpt lat="36.8023796081543" lon="-5.12779998779297">
        <ele>678</ele>
        <time>2019-05-11T14:22:38Z</time>
      </trkpt>
      <trkpt lat="36.8023719787598" lon="-5.12783479690552">
        <ele>678</ele>
        <time>2019-05-11T14:22:40Z</time>
      </trkpt>
      <trkpt lat="36.8023681640625" lon="-5.12787294387817">
        <ele>678</ele>
        <time>2019-05-11T14:22:42Z</time>
      </trkpt>
      <trkpt lat="36.8023681640625" lon="-5.12791681289673">
        <ele>678</ele>
        <time>2019-05-11T14:22:44Z</time>
      </trkpt>
      <trkpt lat="36.8023681640625" lon="-5.12798309326172">
        <ele>678</ele>
        <time>2019-05-11T14:22:46Z</time>
      </trkpt>
      <trkpt lat="36.8023643493652" lon="-5.1280198097229">
        <ele>678</ele>
        <time>2019-05-11T14:22:48Z</time>
      </trkpt>
      <trkpt lat="36.8023643493652" lon="-5.12804508209228">
        <ele>678</ele>
        <time>2019-05-11T14:22:50Z</time>
      </trkpt>
      <trkpt lat="36.8023681640625" lon="-5.1280779838562">
        <ele>678</ele>
        <time>2019-05-11T14:22:52Z</time>
      </trkpt>
      <trkpt lat="36.8023719787598" lon="-5.12812185287476">
        <ele>678</ele>
        <time>2019-05-11T14:22:54Z</time>
      </trkpt>
      <trkpt lat="36.8023834228516" lon="-5.12814998626709">
        <ele>678</ele>
        <time>2019-05-11T14:22:56Z</time>
      </trkpt>
      <trkpt lat="36.8023834228516" lon="-5.12819004058838">
        <ele>678</ele>
        <time>2019-05-11T14:22:58Z</time>
      </trkpt>
      <trkpt lat="36.8023796081543" lon="-5.12822484970093">
        <ele>678</ele>
        <time>2019-05-11T14:23:00Z</time>
      </trkpt>
      <trkpt lat="36.8023796081543" lon="-5.12826299667358">
        <ele>678</ele>
        <time>2019-05-11T14:23:03Z</time>
      </trkpt>
      <trkpt lat="36.8023796081543" lon="-5.12830686569214">
        <ele>676</ele>
        <time>2019-05-11T14:23:05Z</time>
      </trkpt>
      <trkpt lat="36.802375793457" lon="-5.12834692001343">
        <ele>676</ele>
        <time>2019-05-11T14:23:07Z</time>
      </trkpt>
      <trkpt lat="36.802375793457" lon="-5.12838983535767">
        <ele>676</ele>
        <time>2019-05-11T14:23:09Z</time>
      </trkpt>
      <trkpt lat="36.8023796081543" lon="-5.12842702865601">
        <ele>676</ele>
        <time>2019-05-11T14:23:11Z</time>
      </trkpt>
      <trkpt lat="36.8023834228516" lon="-5.1284670829773">
        <ele>676</ele>
        <time>2019-05-11T14:23:13Z</time>
      </trkpt>
      <trkpt lat="36.8023910522461" lon="-5.12850284576416">
        <ele>675</ele>
        <time>2019-05-11T14:23:15Z</time>
      </trkpt>
      <trkpt lat="36.8023986816406" lon="-5.12853813171387">
        <ele>675</ele>
        <time>2019-05-11T14:23:17Z</time>
      </trkpt>
      <trkpt lat="36.8024063110352" lon="-5.12857294082642">
        <ele>675</ele>
        <time>2019-05-11T14:23:19Z</time>
      </trkpt>
      <trkpt lat="36.8024139404297" lon="-5.12861490249634">
        <ele>675</ele>
        <time>2019-05-11T14:23:21Z</time>
      </trkpt>
      <trkpt lat="36.8024215698242" lon="-5.12865781784058">
        <ele>674</ele>
        <time>2019-05-11T14:23:23Z</time>
      </trkpt>
      <trkpt lat="36.8024291992188" lon="-5.12872982025146">
        <ele>674</ele>
        <time>2019-05-11T14:23:25Z</time>
      </trkpt>
      <trkpt lat="36.8024368286133" lon="-5.12878513336182">
        <ele>674</ele>
        <time>2019-05-11T14:23:27Z</time>
      </trkpt>
      <trkpt lat="36.8024444580078" lon="-5.12884283065796">
        <ele>674</ele>
        <time>2019-05-11T14:23:29Z</time>
      </trkpt>
      <trkpt lat="36.8024597167969" lon="-5.12890195846558">
        <ele>674</ele>
        <time>2019-05-11T14:23:31Z</time>
      </trkpt>
      <trkpt lat="36.8024711608887" lon="-5.12896299362183">
        <ele>674</ele>
        <time>2019-05-11T14:23:33Z</time>
      </trkpt>
      <trkpt lat="36.8024864196777" lon="-5.12901782989502">
        <ele>674</ele>
        <time>2019-05-11T14:23:35Z</time>
      </trkpt>
      <trkpt lat="36.8024940490723" lon="-5.129075050354">
        <ele>674</ele>
        <time>2019-05-11T14:23:37Z</time>
      </trkpt>
      <trkpt lat="36.8025131225586" lon="-5.12913179397583">
        <ele>674</ele>
        <time>2019-05-11T14:23:39Z</time>
      </trkpt>
      <trkpt lat="36.8025321960449" lon="-5.12918519973755">
        <ele>674</ele>
        <time>2019-05-11T14:23:41Z</time>
      </trkpt>
      <trkpt lat="36.8025512695312" lon="-5.12924289703369">
        <ele>674</ele>
        <time>2019-05-11T14:23:44Z</time>
      </trkpt>
      <trkpt lat="36.8025665283203" lon="-5.12930011749268">
        <ele>674</ele>
        <time>2019-05-11T14:23:46Z</time>
      </trkpt>
      <trkpt lat="36.8025932312012" lon="-5.1293568611145">
        <ele>674</ele>
        <time>2019-05-11T14:23:48Z</time>
      </trkpt>
      <trkpt lat="36.8026084899902" lon="-5.12941217422485">
        <ele>674</ele>
        <time>2019-05-11T14:23:50Z</time>
      </trkpt>
      <trkpt lat="36.8026237487793" lon="-5.12946510314941">
        <ele>674</ele>
        <time>2019-05-11T14:23:52Z</time>
      </trkpt>
      <trkpt lat="36.8026390075684" lon="-5.12951993942261">
        <ele>674</ele>
        <time>2019-05-11T14:23:54Z</time>
      </trkpt>
      <trkpt lat="36.8026580810547" lon="-5.12957811355591">
        <ele>674</ele>
        <time>2019-05-11T14:23:56Z</time>
      </trkpt>
      <trkpt lat="36.8026809692383" lon="-5.12963199615478">
        <ele>674</ele>
        <time>2019-05-11T14:23:58Z</time>
      </trkpt>
      <trkpt lat="36.8027038574219" lon="-5.1296877861023">
        <ele>674</ele>
        <time>2019-05-11T14:24:00Z</time>
      </trkpt>
      <trkpt lat="36.8027420043945" lon="-5.12976503372192">
        <ele>674</ele>
        <time>2019-05-11T14:24:02Z</time>
      </trkpt>
      <trkpt lat="36.8027610778809" lon="-5.12982177734375">
        <ele>674</ele>
        <time>2019-05-11T14:24:04Z</time>
      </trkpt>
      <trkpt lat="36.8027725219727" lon="-5.12987995147705">
        <ele>674</ele>
        <time>2019-05-11T14:24:06Z</time>
      </trkpt>
      <trkpt lat="36.802791595459" lon="-5.1299319267273">
        <ele>674</ele>
        <time>2019-05-11T14:24:08Z</time>
      </trkpt>
      <trkpt lat="36.802806854248" lon="-5.12998294830322">
        <ele>674</ele>
        <time>2019-05-11T14:24:10Z</time>
      </trkpt>
      <trkpt lat="36.8028335571289" lon="-5.13003301620483">
        <ele>674</ele>
        <time>2019-05-11T14:24:12Z</time>
      </trkpt>
      <trkpt lat="36.8028564453125" lon="-5.13008213043213">
        <ele>674</ele>
        <time>2019-05-11T14:24:14Z</time>
      </trkpt>
      <trkpt lat="36.8028831481934" lon="-5.13013696670532">
        <ele>674</ele>
        <time>2019-05-11T14:24:16Z</time>
      </trkpt>
      <trkpt lat="36.8029098510742" lon="-5.13019323348999">
        <ele>674</ele>
        <time>2019-05-11T14:24:19Z</time>
      </trkpt>
      <trkpt lat="36.8029289245606" lon="-5.13024997711182">
        <ele>674</ele>
        <time>2019-05-11T14:24:21Z</time>
      </trkpt>
      <trkpt lat="36.8029518127441" lon="-5.13030481338501">
        <ele>674</ele>
        <time>2019-05-11T14:24:23Z</time>
      </trkpt>
      <trkpt lat="36.8029708862305" lon="-5.13036012649536">
        <ele>674</ele>
        <time>2019-05-11T14:24:25Z</time>
      </trkpt>
      <trkpt lat="36.8029937744141" lon="-5.13041496276856">
        <ele>674</ele>
        <time>2019-05-11T14:24:27Z</time>
      </trkpt>
      <trkpt lat="36.8030166625977" lon="-5.13046979904175">
        <ele>674</ele>
        <time>2019-05-11T14:24:29Z</time>
      </trkpt>
      <trkpt lat="36.803035736084" lon="-5.13052320480347">
        <ele>674</ele>
        <time>2019-05-11T14:24:31Z</time>
      </trkpt>
      <trkpt lat="36.8030586242676" lon="-5.13057518005371">
        <ele>674</ele>
        <time>2019-05-11T14:24:33Z</time>
      </trkpt>
      <trkpt lat="36.8030891418457" lon="-5.13062286376953">
        <ele>674</ele>
        <time>2019-05-11T14:24:35Z</time>
      </trkpt>
      <trkpt lat="36.8031311035156" lon="-5.13070011138916">
        <ele>674</ele>
        <time>2019-05-11T14:24:37Z</time>
      </trkpt>
      <trkpt lat="36.803165435791" lon="-5.13074493408203">
        <ele>674</ele>
        <time>2019-05-11T14:24:39Z</time>
      </trkpt>
      <trkpt lat="36.8032035827637" lon="-5.13079023361206">
        <ele>673</ele>
        <time>2019-05-11T14:24:41Z</time>
      </trkpt>
      <trkpt lat="36.8032341003418" lon="-5.13083696365356">
        <ele>673</ele>
        <time>2019-05-11T14:24:43Z</time>
      </trkpt>
      <trkpt lat="36.8032684326172" lon="-5.1308798789978">
        <ele>671</ele>
        <time>2019-05-11T14:24:45Z</time>
      </trkpt>
      <trkpt lat="36.803295135498" lon="-5.13092279434204">
        <ele>671</ele>
        <time>2019-05-11T14:24:47Z</time>
      </trkpt>
      <trkpt lat="36.8033218383789" lon="-5.13096189498901">
        <ele>671</ele>
        <time>2019-05-11T14:24:49Z</time>
      </trkpt>
      <trkpt lat="36.8033561706543" lon="-5.13100814819336">
        <ele>670</ele>
        <time>2019-05-11T14:24:51Z</time>
      </trkpt>
      <trkpt lat="36.8033828735352" lon="-5.1310567855835">
        <ele>669</ele>
        <time>2019-05-11T14:24:54Z</time>
      </trkpt>
      <trkpt lat="36.8034133911133" lon="-5.13110780715942">
        <ele>668</ele>
        <time>2019-05-11T14:24:56Z</time>
      </trkpt>
      <trkpt lat="36.8034324645996" lon="-5.13116216659546">
        <ele>666</ele>
        <time>2019-05-11T14:24:58Z</time>
      </trkpt>
      <trkpt lat="36.8034629821777" lon="-5.13120794296265">
        <ele>666</ele>
        <time>2019-05-11T14:25:00Z</time>
      </trkpt>
      <trkpt lat="36.8034858703613" lon="-5.13125514984131">
        <ele>665</ele>
        <time>2019-05-11T14:25:02Z</time>
      </trkpt>
      <trkpt lat="36.8035087585449" lon="-5.13130807876587">
        <ele>664</ele>
        <time>2019-05-11T14:25:04Z</time>
      </trkpt>
      <trkpt lat="36.803524017334" lon="-5.13136291503906">
        <ele>663</ele>
        <time>2019-05-11T14:25:06Z</time>
      </trkpt>
      <trkpt lat="36.803539276123" lon="-5.13142013549805">
        <ele>661</ele>
        <time>2019-05-11T14:25:08Z</time>
      </trkpt>
      <trkpt lat="36.8035583496094" lon="-5.13147783279419">
        <ele>661</ele>
        <time>2019-05-11T14:25:10Z</time>
      </trkpt>
      <trkpt lat="36.803581237793" lon="-5.13156700134277">
        <ele>660</ele>
        <time>2019-05-11T14:25:12Z</time>
      </trkpt>
      <trkpt lat="36.803596496582" lon="-5.13162517547607">
        <ele>660</ele>
        <time>2019-05-11T14:25:14Z</time>
      </trkpt>
      <trkpt lat="36.8036079406738" lon="-5.13168287277222">
        <ele>660</ele>
        <time>2019-05-11T14:25:16Z</time>
      </trkpt>
      <trkpt lat="36.8036231994629" lon="-5.13174486160278">
        <ele>660</ele>
        <time>2019-05-11T14:25:18Z</time>
      </trkpt>
      <trkpt lat="36.8036270141602" lon="-5.13180685043335">
        <ele>660</ele>
        <time>2019-05-11T14:25:20Z</time>
      </trkpt>
      <trkpt lat="36.8036346435547" lon="-5.13186502456665">
        <ele>660</ele>
        <time>2019-05-11T14:25:22Z</time>
      </trkpt>
      <trkpt lat="36.8036308288574" lon="-5.13192701339722">
        <ele>660</ele>
        <time>2019-05-11T14:25:24Z</time>
      </trkpt>
      <trkpt lat="36.8036231994629" lon="-5.13198709487915">
        <ele>660</ele>
        <time>2019-05-11T14:25:27Z</time>
      </trkpt>
      <trkpt lat="36.8036155700684" lon="-5.13205003738403">
        <ele>660</ele>
        <time>2019-05-11T14:25:29Z</time>
      </trkpt>
      <trkpt lat="36.8036041259766" lon="-5.13210678100586">
        <ele>660</ele>
        <time>2019-05-11T14:25:31Z</time>
      </trkpt>
      <trkpt lat="36.803596496582" lon="-5.13216495513916">
        <ele>660</ele>
        <time>2019-05-11T14:25:33Z</time>
      </trkpt>
      <trkpt lat="36.8035926818848" lon="-5.13222312927246">
        <ele>659</ele>
        <time>2019-05-11T14:25:35Z</time>
      </trkpt>
      <trkpt lat="36.8035850524902" lon="-5.13228178024292">
        <ele>659</ele>
        <time>2019-05-11T14:25:37Z</time>
      </trkpt>
      <trkpt lat="36.8035774230957" lon="-5.13233709335327">
        <ele>658</ele>
        <time>2019-05-11T14:25:39Z</time>
      </trkpt>
      <trkpt lat="36.8035621643066" lon="-5.13240003585815">
        <ele>658</ele>
        <time>2019-05-11T14:25:41Z</time>
      </trkpt>
      <trkpt lat="36.8035507202148" lon="-5.13245677947998">
        <ele>658</ele>
        <time>2019-05-11T14:25:43Z</time>
      </trkpt>
      <trkpt lat="36.8035430908203" lon="-5.13251686096191">
        <ele>657</ele>
        <time>2019-05-11T14:25:45Z</time>
      </trkpt>
      <trkpt lat="36.8035202026367" lon="-5.13260698318481">
        <ele>656</ele>
        <time>2019-05-11T14:25:47Z</time>
      </trkpt>
      <trkpt lat="36.8035011291504" lon="-5.13266801834106">
        <ele>656</ele>
        <time>2019-05-11T14:25:49Z</time>
      </trkpt>
      <trkpt lat="36.8034858703613" lon="-5.13273191452026">
        <ele>655</ele>
        <time>2019-05-11T14:25:51Z</time>
      </trkpt>
      <trkpt lat="36.803466796875" lon="-5.13278484344482">
        <ele>655</ele>
        <time>2019-05-11T14:25:53Z</time>
      </trkpt>
      <trkpt lat="36.8034515380859" lon="-5.13283777236938">
        <ele>655</ele>
        <time>2019-05-11T14:25:55Z</time>
      </trkpt>
      <trkpt lat="36.8034362792969" lon="-5.132896900177">
        <ele>655</ele>
        <time>2019-05-11T14:25:57Z</time>
      </trkpt>
      <trkpt lat="36.8034248352051" lon="-5.13295221328735">
        <ele>654</ele>
        <time>2019-05-11T14:25:59Z</time>
      </trkpt>
      <trkpt lat="36.8034057617188" lon="-5.13300704956055">
        <ele>654</ele>
        <time>2019-05-11T14:26:02Z</time>
      </trkpt>
      <trkpt lat="36.8033866882324" lon="-5.13305997848511">
        <ele>653</ele>
        <time>2019-05-11T14:26:04Z</time>
      </trkpt>
      <trkpt lat="36.8033676147461" lon="-5.13311004638672">
        <ele>653</ele>
        <time>2019-05-11T14:26:06Z</time>
      </trkpt>
      <trkpt lat="36.803352355957" lon="-5.1331582069397">
        <ele>651</ele>
        <time>2019-05-11T14:26:08Z</time>
      </trkpt>
      <trkpt lat="36.8033294677734" lon="-5.1332049369812">
        <ele>651</ele>
        <time>2019-05-11T14:26:10Z</time>
      </trkpt>
      <trkpt lat="36.8033065795898" lon="-5.13325214385986">
        <ele>650</ele>
        <time>2019-05-11T14:26:12Z</time>
      </trkpt>
      <trkpt lat="36.8032836914062" lon="-5.13330221176147">
        <ele>650</ele>
        <time>2019-05-11T14:26:14Z</time>
      </trkpt>
      <trkpt lat="36.8032608032227" lon="-5.13335514068604">
        <ele>649</ele>
        <time>2019-05-11T14:26:16Z</time>
      </trkpt>
      <trkpt lat="36.8032417297363" lon="-5.13340520858765">
        <ele>648</ele>
        <time>2019-05-11T14:26:18Z</time>
      </trkpt>
      <trkpt lat="36.80322265625" lon="-5.13346290588379">
        <ele>646</ele>
        <time>2019-05-11T14:26:20Z</time>
      </trkpt>
      <trkpt lat="36.8031883239746" lon="-5.13355207443237">
        <ele>646</ele>
        <time>2019-05-11T14:26:22Z</time>
      </trkpt>
      <trkpt lat="36.803165435791" lon="-5.13361215591431">
        <ele>646</ele>
        <time>2019-05-11T14:26:24Z</time>
      </trkpt>
      <trkpt lat="36.8031425476074" lon="-5.13366985321045">
        <ele>646</ele>
        <time>2019-05-11T14:26:26Z</time>
      </trkpt>
      <trkpt lat="36.8031234741211" lon="-5.13373184204102">
        <ele>646</ele>
        <time>2019-05-11T14:26:28Z</time>
      </trkpt>
      <trkpt lat="36.8030967712402" lon="-5.13378810882568">
        <ele>646</ele>
        <time>2019-05-11T14:26:30Z</time>
      </trkpt>
      <trkpt lat="36.8030738830566" lon="-5.13384485244751">
        <ele>646</ele>
        <time>2019-05-11T14:26:32Z</time>
      </trkpt>
      <trkpt lat="36.8030548095703" lon="-5.13390016555786">
        <ele>646</ele>
        <time>2019-05-11T14:26:34Z</time>
      </trkpt>
      <trkpt lat="36.8030433654785" lon="-5.13395309448242">
        <ele>646</ele>
        <time>2019-05-11T14:26:37Z</time>
      </trkpt>
      <trkpt lat="36.8030281066894" lon="-5.13401222229004">
        <ele>646</ele>
        <time>2019-05-11T14:26:39Z</time>
      </trkpt>
      <trkpt lat="36.8030166625977" lon="-5.13407278060913">
        <ele>646</ele>
        <time>2019-05-11T14:26:41Z</time>
      </trkpt>
      <trkpt lat="36.8029975891113" lon="-5.13414001464844">
        <ele>646</ele>
        <time>2019-05-11T14:26:43Z</time>
      </trkpt>
      <trkpt lat="36.802978515625" lon="-5.134202003479">
        <ele>646</ele>
        <time>2019-05-11T14:26:45Z</time>
      </trkpt>
      <trkpt lat="36.8029594421387" lon="-5.13426303863525">
        <ele>646</ele>
        <time>2019-05-11T14:26:47Z</time>
      </trkpt>
      <trkpt lat="36.8029441833496" lon="-5.13431787490845">
        <ele>646</ele>
        <time>2019-05-11T14:26:49Z</time>
      </trkpt>
      <trkpt lat="36.8029251098633" lon="-5.13437509536743">
        <ele>646</ele>
        <time>2019-05-11T14:26:51Z</time>
      </trkpt>
      <trkpt lat="36.8029022216797" lon="-5.13443994522095">
        <ele>646</ele>
        <time>2019-05-11T14:26:53Z</time>
      </trkpt>
      <trkpt lat="36.8028831481934" lon="-5.13449716567993">
        <ele>646</ele>
        <time>2019-05-11T14:26:55Z</time>
      </trkpt>
      <trkpt lat="36.8028526306152" lon="-5.13458299636841">
        <ele>646</ele>
        <time>2019-05-11T14:26:57Z</time>
      </trkpt>
      <trkpt lat="36.8028335571289" lon="-5.13464212417603">
        <ele>646</ele>
        <time>2019-05-11T14:26:59Z</time>
      </trkpt>
      <trkpt lat="36.8028144836426" lon="-5.13469791412354">
        <ele>646</ele>
        <time>2019-05-11T14:27:01Z</time>
      </trkpt>
      <trkpt lat="36.8027992248535" lon="-5.1347599029541">
        <ele>646</ele>
        <time>2019-05-11T14:27:03Z</time>
      </trkpt>
      <trkpt lat="36.8027839660644" lon="-5.13482189178467">
        <ele>646</ele>
        <time>2019-05-11T14:27:05Z</time>
      </trkpt>
      <trkpt lat="36.8027687072754" lon="-5.13488006591797">
        <ele>646</ele>
        <time>2019-05-11T14:27:07Z</time>
      </trkpt>
      <trkpt lat="36.8027496337891" lon="-5.1349401473999">
        <ele>646</ele>
        <time>2019-05-11T14:27:09Z</time>
      </trkpt>
      <trkpt lat="36.802734375" lon="-5.13500308990478">
        <ele>646</ele>
        <time>2019-05-11T14:27:12Z</time>
      </trkpt>
      <trkpt lat="36.8027153015137" lon="-5.1350622177124">
        <ele>646</ele>
        <time>2019-05-11T14:27:14Z</time>
      </trkpt>
      <trkpt lat="36.8027000427246" lon="-5.13512182235718">
        <ele>646</ele>
        <time>2019-05-11T14:27:16Z</time>
      </trkpt>
      <trkpt lat="36.8026847839356" lon="-5.13518285751343">
        <ele>646</ele>
        <time>2019-05-11T14:27:18Z</time>
      </trkpt>
      <trkpt lat="36.8026657104492" lon="-5.13523721694946">
        <ele>646</ele>
        <time>2019-05-11T14:27:20Z</time>
      </trkpt>
      <trkpt lat="36.8026466369629" lon="-5.13529205322266">
        <ele>646</ele>
        <time>2019-05-11T14:27:22Z</time>
      </trkpt>
      <trkpt lat="36.8026313781738" lon="-5.13535022735596">
        <ele>646</ele>
        <time>2019-05-11T14:27:24Z</time>
      </trkpt>
      <trkpt lat="36.8026123046875" lon="-5.13540983200073">
        <ele>646</ele>
        <time>2019-05-11T14:27:26Z</time>
      </trkpt>
      <trkpt lat="36.8025932312012" lon="-5.13546514511108">
        <ele>646</ele>
        <time>2019-05-11T14:27:28Z</time>
      </trkpt>
      <trkpt lat="36.8025703430176" lon="-5.13552188873291">
        <ele>646</ele>
        <time>2019-05-11T14:27:30Z</time>
      </trkpt>
      <trkpt lat="36.8025436401367" lon="-5.13560819625854">
        <ele>646</ele>
        <time>2019-05-11T14:27:32Z</time>
      </trkpt>
      <trkpt lat="36.8025131225586" lon="-5.13566207885742">
        <ele>646</ele>
        <time>2019-05-11T14:27:34Z</time>
      </trkpt>
      <trkpt lat="36.802490234375" lon="-5.13571500778198">
        <ele>646</ele>
        <time>2019-05-11T14:27:36Z</time>
      </trkpt>
      <trkpt lat="36.8024559020996" lon="-5.13576316833496">
        <ele>646</ele>
        <time>2019-05-11T14:27:38Z</time>
      </trkpt>
      <trkpt lat="36.8024215698242" lon="-5.1358118057251">
        <ele>646</ele>
        <time>2019-05-11T14:27:40Z</time>
      </trkpt>
      <trkpt lat="36.8023834228516" lon="-5.13585805892944">
        <ele>646</ele>
        <time>2019-05-11T14:27:42Z</time>
      </trkpt>
      <trkpt lat="36.8023529052734" lon="-5.13590002059936">
        <ele>646</ele>
        <time>2019-05-11T14:27:44Z</time>
      </trkpt>
      <trkpt lat="36.802318572998" lon="-5.1359429359436">
        <ele>644</ele>
        <time>2019-05-11T14:27:47Z</time>
      </trkpt>
      <trkpt lat="36.8022918701172" lon="-5.13598680496216">
        <ele>643</ele>
        <time>2019-05-11T14:27:49Z</time>
      </trkpt>
      <trkpt lat="36.8022537231445" lon="-5.13603019714356">
        <ele>642</ele>
        <time>2019-05-11T14:27:51Z</time>
      </trkpt>
      <trkpt lat="36.8022232055664" lon="-5.13607501983643">
        <ele>641</ele>
        <time>2019-05-11T14:27:53Z</time>
      </trkpt>
      <trkpt lat="36.8021850585938" lon="-5.13611793518066">
        <ele>641</ele>
        <time>2019-05-11T14:27:55Z</time>
      </trkpt>
      <trkpt lat="36.8021507263184" lon="-5.13616323471069">
        <ele>641</ele>
        <time>2019-05-11T14:27:57Z</time>
      </trkpt>
      <trkpt lat="36.802116394043" lon="-5.13620805740356">
        <ele>640</ele>
        <time>2019-05-11T14:27:59Z</time>
      </trkpt>
      <trkpt lat="36.8020820617676" lon="-5.13625288009644">
        <ele>640</ele>
        <time>2019-05-11T14:28:01Z</time>
      </trkpt>
      <trkpt lat="36.8020515441894" lon="-5.13629484176636">
        <ele>640</ele>
        <time>2019-05-11T14:28:03Z</time>
      </trkpt>
      <trkpt lat="36.8020133972168" lon="-5.13633680343628">
        <ele>640</ele>
        <time>2019-05-11T14:28:05Z</time>
      </trkpt>
      <trkpt lat="36.8019638061523" lon="-5.13640785217285">
        <ele>640</ele>
        <time>2019-05-11T14:28:07Z</time>
      </trkpt>
      <trkpt lat="36.801929473877" lon="-5.13645792007446">
        <ele>639</ele>
        <time>2019-05-11T14:28:09Z</time>
      </trkpt>
      <trkpt lat="36.8018913269043" lon="-5.13650989532471">
        <ele>639</ele>
        <time>2019-05-11T14:28:11Z</time>
      </trkpt>
      <trkpt lat="36.8018646240234" lon="-5.13655710220337">
        <ele>639</ele>
        <time>2019-05-11T14:28:13Z</time>
      </trkpt>
      <trkpt lat="36.801830291748" lon="-5.13660717010498">
        <ele>639</ele>
        <time>2019-05-11T14:28:15Z</time>
      </trkpt>
      <trkpt lat="36.8017959594727" lon="-5.13665199279785">
        <ele>639</ele>
        <time>2019-05-11T14:28:17Z</time>
      </trkpt>
      <trkpt lat="36.8017692565918" lon="-5.13670492172241">
        <ele>639</ele>
        <time>2019-05-11T14:28:19Z</time>
      </trkpt>
      <trkpt lat="36.8017425537109" lon="-5.13675498962402">
        <ele>639</ele>
        <time>2019-05-11T14:28:22Z</time>
      </trkpt>
      <trkpt lat="36.8017120361328" lon="-5.13680791854858">
        <ele>639</ele>
        <time>2019-05-11T14:28:24Z</time>
      </trkpt>
      <trkpt lat="36.801685333252" lon="-5.13686180114746">
        <ele>639</ele>
        <time>2019-05-11T14:28:26Z</time>
      </trkpt>
      <trkpt lat="36.8016548156738" lon="-5.13691711425781">
        <ele>639</ele>
        <time>2019-05-11T14:28:28Z</time>
      </trkpt>
      <trkpt lat="36.801628112793" lon="-5.13697481155396">
        <ele>639</ele>
        <time>2019-05-11T14:28:30Z</time>
      </trkpt>
      <trkpt lat="36.8015937805176" lon="-5.13703489303589">
        <ele>639</ele>
        <time>2019-05-11T14:28:32Z</time>
      </trkpt>
      <trkpt lat="36.8015670776367" lon="-5.13709306716919">
        <ele>639</ele>
        <time>2019-05-11T14:28:34Z</time>
      </trkpt>
      <trkpt lat="36.8015403747559" lon="-5.13714981079102">
        <ele>639</ele>
        <time>2019-05-11T14:28:36Z</time>
      </trkpt>
      <trkpt lat="36.801513671875" lon="-5.13720703125">
        <ele>639</ele>
        <time>2019-05-11T14:28:38Z</time>
      </trkpt>
      <trkpt lat="36.8014831542969" lon="-5.13725805282593">
        <ele>639</ele>
        <time>2019-05-11T14:28:40Z</time>
      </trkpt>
      <trkpt lat="36.8014526367188" lon="-5.13734722137451">
        <ele>638</ele>
        <time>2019-05-11T14:28:42Z</time>
      </trkpt>
      <trkpt lat="36.8014335632324" lon="-5.13740015029907">
        <ele>638</ele>
        <time>2019-05-11T14:28:44Z</time>
      </trkpt>
      <trkpt lat="36.8014068603516" lon="-5.13745307922363">
        <ele>638</ele>
        <time>2019-05-11T14:28:46Z</time>
      </trkpt>
      <trkpt lat="36.8013916015625" lon="-5.13750791549683">
        <ele>638</ele>
        <time>2019-05-11T14:28:48Z</time>
      </trkpt>
      <trkpt lat="36.8013687133789" lon="-5.13756704330444">
        <ele>636</ele>
        <time>2019-05-11T14:28:50Z</time>
      </trkpt>
      <trkpt lat="36.8013496398926" lon="-5.13762712478638">
        <ele>636</ele>
        <time>2019-05-11T14:28:52Z</time>
      </trkpt>
      <trkpt lat="36.8013305664062" lon="-5.13768720626831">
        <ele>636</ele>
        <time>2019-05-11T14:28:54Z</time>
      </trkpt>
      <trkpt lat="36.8013114929199" lon="-5.1377477645874">
        <ele>636</ele>
        <time>2019-05-11T14:28:57Z</time>
      </trkpt>
      <trkpt lat="36.8012924194336" lon="-5.13781023025513">
        <ele>636</ele>
        <time>2019-05-11T14:28:59Z</time>
      </trkpt>
      <trkpt lat="36.8012771606445" lon="-5.13787221908569">
        <ele>636</ele>
        <time>2019-05-11T14:29:01Z</time>
      </trkpt>
      <trkpt lat="36.8012580871582" lon="-5.13793277740478">
        <ele>636</ele>
        <time>2019-05-11T14:29:03Z</time>
      </trkpt>
      <trkpt lat="36.8012428283691" lon="-5.1379919052124">
        <ele>635</ele>
        <time>2019-05-11T14:29:05Z</time>
      </trkpt>
      <trkpt lat="36.8012313842773" lon="-5.1380500793457">
        <ele>634</ele>
        <time>2019-05-11T14:29:07Z</time>
      </trkpt>
      <trkpt lat="36.801212310791" lon="-5.13810205459595">
        <ele>634</ele>
        <time>2019-05-11T14:29:09Z</time>
      </trkpt>
      <trkpt lat="36.8012008666992" lon="-5.13815021514893">
        <ele>633</ele>
        <time>2019-05-11T14:29:11Z</time>
      </trkpt>
      <trkpt lat="36.8011856079102" lon="-5.13820505142212">
        <ele>631</ele>
        <time>2019-05-11T14:29:13Z</time>
      </trkpt>
      <trkpt lat="36.8011665344238" lon="-5.13825988769531">
        <ele>631</ele>
        <time>2019-05-11T14:29:15Z</time>
      </trkpt>
      <trkpt lat="36.8011360168457" lon="-5.13833713531494">
        <ele>631</ele>
        <time>2019-05-11T14:29:17Z</time>
      </trkpt>
      <trkpt lat="36.8011169433594" lon="-5.1383900642395">
        <ele>631</ele>
        <time>2019-05-11T14:29:19Z</time>
      </trkpt>
      <trkpt lat="36.8011016845703" lon="-5.1384449005127">
        <ele>630</ele>
        <time>2019-05-11T14:29:21Z</time>
      </trkpt>
      <trkpt lat="36.801082611084" lon="-5.13849782943726">
        <ele>630</ele>
        <time>2019-05-11T14:29:23Z</time>
      </trkpt>
      <trkpt lat="36.8010597229004" lon="-5.13854789733887">
        <ele>630</ele>
        <time>2019-05-11T14:29:25Z</time>
      </trkpt>
      <trkpt lat="36.8010368347168" lon="-5.1385931968689">
        <ele>630</ele>
        <time>2019-05-11T14:29:27Z</time>
      </trkpt>
      <trkpt lat="36.8010177612305" lon="-5.13864278793335">
        <ele>629</ele>
        <time>2019-05-11T14:29:29Z</time>
      </trkpt>
      <trkpt lat="36.8009986877441" lon="-5.13869190216064">
        <ele>629</ele>
        <time>2019-05-11T14:29:32Z</time>
      </trkpt>
      <trkpt lat="36.8009719848633" lon="-5.13873720169067">
        <ele>628</ele>
        <time>2019-05-11T14:29:34Z</time>
      </trkpt>
      <trkpt lat="36.8009452819824" lon="-5.13878011703491">
        <ele>626</ele>
        <time>2019-05-11T14:29:36Z</time>
      </trkpt>
      <trkpt lat="36.8009147644043" lon="-5.1388201713562">
        <ele>625</ele>
        <time>2019-05-11T14:29:38Z</time>
      </trkpt>
      <trkpt lat="36.8008880615234" lon="-5.13885498046875">
        <ele>624</ele>
        <time>2019-05-11T14:29:40Z</time>
      </trkpt>
      <trkpt lat="36.8008575439453" lon="-5.13888788223267">
        <ele>623</ele>
        <time>2019-05-11T14:29:42Z</time>
      </trkpt>
      <trkpt lat="36.8008270263672" lon="-5.13892221450806">
        <ele>621</ele>
        <time>2019-05-11T14:29:44Z</time>
      </trkpt>
      <trkpt lat="36.8008041381836" lon="-5.13894987106323">
        <ele>620</ele>
        <time>2019-05-11T14:29:46Z</time>
      </trkpt>
      <trkpt lat="36.8007850646973" lon="-5.13898277282715">
        <ele>619</ele>
        <time>2019-05-11T14:29:48Z</time>
      </trkpt>
      <trkpt lat="36.8007774353027" lon="-5.13901996612549">
        <ele>617</ele>
        <time>2019-05-11T14:29:50Z</time>
      </trkpt>
      <trkpt lat="36.8007888793945" lon="-5.13909006118774">
        <ele>616</ele>
        <time>2019-05-11T14:29:52Z</time>
      </trkpt>
      <trkpt lat="36.8007965087891" lon="-5.13913202285767">
        <ele>614</ele>
        <time>2019-05-11T14:29:54Z</time>
      </trkpt>
      <trkpt lat="36.8008155822754" lon="-5.13917016983032">
        <ele>613</ele>
        <time>2019-05-11T14:29:56Z</time>
      </trkpt>
      <trkpt lat="36.800838470459" lon="-5.1391978263855">
        <ele>611</ele>
        <time>2019-05-11T14:29:58Z</time>
      </trkpt>
      <trkpt lat="36.8008613586426" lon="-5.13923692703247">
        <ele>610</ele>
        <time>2019-05-11T14:30:00Z</time>
      </trkpt>
      <trkpt lat="36.8008918762207" lon="-5.13927316665649">
        <ele>610</ele>
        <time>2019-05-11T14:30:02Z</time>
      </trkpt>
      <trkpt lat="36.8009338378906" lon="-5.13930320739746">
        <ele>610</ele>
        <time>2019-05-11T14:30:04Z</time>
      </trkpt>
      <trkpt lat="36.800968170166" lon="-5.13932704925537">
        <ele>610</ele>
        <time>2019-05-11T14:30:06Z</time>
      </trkpt>
      <trkpt lat="36.8009986877441" lon="-5.13934707641602">
        <ele>610</ele>
        <time>2019-05-11T14:30:09Z</time>
      </trkpt>
      <trkpt lat="36.8010368347168" lon="-5.13936996459961">
        <ele>610</ele>
        <time>2019-05-11T14:30:11Z</time>
      </trkpt>
      <trkpt lat="36.8010749816894" lon="-5.13939714431763">
        <ele>610</ele>
        <time>2019-05-11T14:30:13Z</time>
      </trkpt>
      <trkpt lat="36.8011054992676" lon="-5.13943481445312">
        <ele>610</ele>
        <time>2019-05-11T14:30:15Z</time>
      </trkpt>
      <trkpt lat="36.801139831543" lon="-5.13947010040283">
        <ele>610</ele>
        <time>2019-05-11T14:30:17Z</time>
      </trkpt>
      <trkpt lat="36.8011360168457" lon="-5.13950300216675">
        <ele>610</ele>
        <time>2019-05-11T14:30:19Z</time>
      </trkpt>
      <trkpt lat="36.8011207580566" lon="-5.13953018188477">
        <ele>610</ele>
        <time>2019-05-11T14:30:21Z</time>
      </trkpt>
      <trkpt lat="36.8011016845703" lon="-5.13955783843994">
        <ele>610</ele>
        <time>2019-05-11T14:30:23Z</time>
      </trkpt>
      <trkpt lat="36.801082611084" lon="-5.13958311080933">
        <ele>610</ele>
        <time>2019-05-11T14:30:25Z</time>
      </trkpt>
      <trkpt lat="36.8010635375977" lon="-5.13961505889893">
        <ele>610</ele>
        <time>2019-05-11T14:30:27Z</time>
      </trkpt>
      <trkpt lat="36.8010292053223" lon="-5.13965177536011">
        <ele>610</ele>
        <time>2019-05-11T14:30:29Z</time>
      </trkpt>
      <trkpt lat="36.8010139465332" lon="-5.13967514038086">
        <ele>610</ele>
        <time>2019-05-11T14:30:31Z</time>
      </trkpt>
      <trkpt lat="36.8010025024414" lon="-5.13969278335571">
        <ele>610</ele>
        <time>2019-05-11T14:30:33Z</time>
      </trkpt>
      <trkpt lat="36.8009986877441" lon="-5.13969993591309">
        <ele>610</ele>
        <time>2019-05-11T14:30:35Z</time>
      </trkpt>
      <trkpt lat="36.8009986877441" lon="-5.13970279693604">
        <ele>609</ele>
        <time>2019-05-11T14:30:37Z</time>
      </trkpt>
      <trkpt lat="36.8009948730469" lon="-5.13970804214478">
        <ele>609</ele>
        <time>2019-05-11T14:30:39Z</time>
      </trkpt>
      <trkpt lat="36.8009910583496" lon="-5.13971519470215">
        <ele>609</ele>
        <time>2019-05-11T14:30:41Z</time>
      </trkpt>
      <trkpt lat="36.8009834289551" lon="-5.1397271156311">
        <ele>609</ele>
        <time>2019-05-11T14:30:44Z</time>
      </trkpt>
      <trkpt lat="36.800968170166" lon="-5.13973522186279">
        <ele>609</ele>
        <time>2019-05-11T14:30:46Z</time>
      </trkpt>
      <trkpt lat="36.8009605407715" lon="-5.13974285125732">
        <ele>609</ele>
        <time>2019-05-11T14:30:48Z</time>
      </trkpt>
      <trkpt lat="36.8009567260742" lon="-5.13974809646606">
        <ele>609</ele>
        <time>2019-05-11T14:30:50Z</time>
      </trkpt>
      <trkpt lat="36.8009452819824" lon="-5.13974523544312">
        <ele>609</ele>
        <time>2019-05-11T14:30:52Z</time>
      </trkpt>
      <trkpt lat="36.8009376525879" lon="-5.13975191116333">
        <ele>609</ele>
        <time>2019-05-11T14:30:54Z</time>
      </trkpt>
      <trkpt lat="36.8009262084961" lon="-5.13976716995239">
        <ele>609</ele>
        <time>2019-05-11T14:30:56Z</time>
      </trkpt>
      <trkpt lat="36.8009147644043" lon="-5.13978815078735">
        <ele>609</ele>
        <time>2019-05-11T14:30:58Z</time>
      </trkpt>
      <trkpt lat="36.8008995056152" lon="-5.13980484008789">
        <ele>609</ele>
        <time>2019-05-11T14:31:00Z</time>
      </trkpt>
      <trkpt lat="36.8008766174316" lon="-5.13982677459717">
        <ele>609</ele>
        <time>2019-05-11T14:31:02Z</time>
      </trkpt>
      <trkpt lat="36.8008613586426" lon="-5.13984203338623">
        <ele>609</ele>
        <time>2019-05-11T14:31:04Z</time>
      </trkpt>
      <trkpt lat="36.8008460998535" lon="-5.13985300064087">
        <ele>609</ele>
        <time>2019-05-11T14:31:06Z</time>
      </trkpt>
      <trkpt lat="36.8008308410644" lon="-5.13987016677856">
        <ele>609</ele>
        <time>2019-05-11T14:31:08Z</time>
      </trkpt>
      <trkpt lat="36.8008155822754" lon="-5.13989496231079">
        <ele>609</ele>
        <time>2019-05-11T14:31:10Z</time>
      </trkpt>
      <trkpt lat="36.8008003234863" lon="-5.13991498947144">
        <ele>609</ele>
        <time>2019-05-11T14:31:12Z</time>
      </trkpt>
      <trkpt lat="36.8007850646973" lon="-5.13993787765503">
        <ele>609</ele>
        <time>2019-05-11T14:31:14Z</time>
      </trkpt>
      <trkpt lat="36.8007698059082" lon="-5.13995695114136">
        <ele>609</ele>
        <time>2019-05-11T14:31:16Z</time>
      </trkpt>
      <trkpt lat="36.8007545471191" lon="-5.139976978302">
        <ele>609</ele>
        <time>2019-05-11T14:31:19Z</time>
      </trkpt>
      <trkpt lat="36.8007316589356" lon="-5.13999509811401">
        <ele>609</ele>
        <time>2019-05-11T14:31:21Z</time>
      </trkpt>
      <trkpt lat="36.8007202148438" lon="-5.14000511169434">
        <ele>609</ele>
        <time>2019-05-11T14:31:23Z</time>
      </trkpt>
      <trkpt lat="36.800708770752" lon="-5.14001321792603">
        <ele>609</ele>
        <time>2019-05-11T14:31:25Z</time>
      </trkpt>
      <trkpt lat="36.8006896972656" lon="-5.14001989364624">
        <ele>609</ele>
        <time>2019-05-11T14:31:27Z</time>
      </trkpt>
      <trkpt lat="36.800666809082" lon="-5.14002513885498">
        <ele>609</ele>
        <time>2019-05-11T14:31:29Z</time>
      </trkpt>
      <trkpt lat="36.8006477355957" lon="-5.1400351524353">
        <ele>609</ele>
        <time>2019-05-11T14:31:31Z</time>
      </trkpt>
      <trkpt lat="36.8006324768066" lon="-5.14003992080688">
        <ele>609</ele>
        <time>2019-05-11T14:31:33Z</time>
      </trkpt>
      <trkpt lat="36.8006134033203" lon="-5.14004993438721">
        <ele>609</ele>
        <time>2019-05-11T14:31:35Z</time>
      </trkpt>
      <trkpt lat="36.8005714416504" lon="-5.1400580406189">
        <ele>609</ele>
        <time>2019-05-11T14:31:37Z</time>
      </trkpt>
      <trkpt lat="36.8005485534668" lon="-5.14006996154785">
        <ele>608</ele>
        <time>2019-05-11T14:31:39Z</time>
      </trkpt>
      <trkpt lat="36.8005256652832" lon="-5.14008283615112">
        <ele>607</ele>
        <time>2019-05-11T14:31:41Z</time>
      </trkpt>
      <trkpt lat="36.8005027770996" lon="-5.14009523391724">
        <ele>606</ele>
        <time>2019-05-11T14:31:43Z</time>
      </trkpt>
      <trkpt lat="36.800479888916" lon="-5.14010286331177">
        <ele>605</ele>
        <time>2019-05-11T14:31:45Z</time>
      </trkpt>
      <trkpt lat="36.8004608154297" lon="-5.14011287689209">
        <ele>604</ele>
        <time>2019-05-11T14:31:47Z</time>
      </trkpt>
      <trkpt lat="36.8004341125488" lon="-5.14011716842651">
        <ele>603</ele>
        <time>2019-05-11T14:31:49Z</time>
      </trkpt>
      <trkpt lat="36.8004112243652" lon="-5.14012289047241">
        <ele>602</ele>
        <time>2019-05-11T14:31:51Z</time>
      </trkpt>
      <trkpt lat="36.8003883361816" lon="-5.14014291763306">
        <ele>601</ele>
        <time>2019-05-11T14:31:54Z</time>
      </trkpt>
      <trkpt lat="36.8003692626953" lon="-5.14015483856201">
        <ele>601</ele>
        <time>2019-05-11T14:31:56Z</time>
      </trkpt>
      <trkpt lat="36.8003578186035" lon="-5.1401572227478">
        <ele>601</ele>
        <time>2019-05-11T14:31:58Z</time>
      </trkpt>
      <trkpt lat="36.8003540039062" lon="-5.14016008377075">
        <ele>601</ele>
        <time>2019-05-11T14:32:00Z</time>
      </trkpt>
      <trkpt lat="36.8003463745117" lon="-5.14016819000244">
        <ele>601</ele>
        <time>2019-05-11T14:32:02Z</time>
      </trkpt>
      <trkpt lat="36.8003425598144" lon="-5.14017009735107">
        <ele>601</ele>
        <time>2019-05-11T14:32:04Z</time>
      </trkpt>
      <trkpt lat="36.8003349304199" lon="-5.14017009735107">
        <ele>601</ele>
        <time>2019-05-11T14:32:06Z</time>
      </trkpt>
      <trkpt lat="36.8003234863281" lon="-5.14017200469971">
        <ele>601</ele>
        <time>2019-05-11T14:32:08Z</time>
      </trkpt>
      <trkpt lat="36.8003005981445" lon="-5.14017295837402">
        <ele>601</ele>
        <time>2019-05-11T14:32:10Z</time>
      </trkpt>
      <trkpt lat="36.8002662658691" lon="-5.14017486572266">
        <ele>601</ele>
        <time>2019-05-11T14:32:12Z</time>
      </trkpt>
      <trkpt lat="36.8002433776856" lon="-5.14018201828003">
        <ele>601</ele>
        <time>2019-05-11T14:32:14Z</time>
      </trkpt>
      <trkpt lat="36.8002243041992" lon="-5.14018297195435">
        <ele>601</ele>
        <time>2019-05-11T14:32:16Z</time>
      </trkpt>
      <trkpt lat="36.8002014160156" lon="-5.14018821716309">
        <ele>601</ele>
        <time>2019-05-11T14:32:18Z</time>
      </trkpt>
      <trkpt lat="36.800178527832" lon="-5.14019298553467">
        <ele>601</ele>
        <time>2019-05-11T14:32:20Z</time>
      </trkpt>
      <trkpt lat="36.800163269043" lon="-5.14019012451172">
        <ele>601</ele>
        <time>2019-05-11T14:32:22Z</time>
      </trkpt>
      <trkpt lat="36.8001441955566" lon="-5.14018487930298">
        <ele>601</ele>
        <time>2019-05-11T14:32:24Z</time>
      </trkpt>
      <trkpt lat="36.800121307373" lon="-5.14018297195435">
        <ele>601</ele>
        <time>2019-05-11T14:32:26Z</time>
      </trkpt>
      <trkpt lat="36.8001022338867" lon="-5.14017295837402">
        <ele>601</ele>
        <time>2019-05-11T14:32:28Z</time>
      </trkpt>
      <trkpt lat="36.8000869750977" lon="-5.14017009735107">
        <ele>601</ele>
        <time>2019-05-11T14:32:31Z</time>
      </trkpt>
      <trkpt lat="36.8000831604004" lon="-5.14016199111938">
        <ele>601</ele>
        <time>2019-05-11T14:32:33Z</time>
      </trkpt>
      <trkpt lat="36.8000831604004" lon="-5.14016008377075">
        <ele>601</ele>
        <time>2019-05-11T14:32:35Z</time>
      </trkpt>
      <trkpt lat="36.8000793457031" lon="-5.14015483856201">
        <ele>601</ele>
        <time>2019-05-11T14:32:37Z</time>
      </trkpt>
      <trkpt lat="36.8000717163086" lon="-5.14015007019043">
        <ele>601</ele>
        <time>2019-05-11T14:32:39Z</time>
      </trkpt>
      <trkpt lat="36.8000679016113" lon="-5.14015293121338">
        <ele>601</ele>
        <time>2019-05-11T14:32:41Z</time>
      </trkpt>
      <trkpt lat="36.8000564575195" lon="-5.14015817642212">
        <ele>601</ele>
        <time>2019-05-11T14:32:43Z</time>
      </trkpt>
      <trkpt lat="36.8000564575195" lon="-5.14016008377075">
        <ele>601</ele>
        <time>2019-05-11T14:32:45Z</time>
      </trkpt>
      <trkpt lat="36.8000564575195" lon="-5.14016199111938">
        <ele>601</ele>
        <time>2019-05-11T14:32:47Z</time>
      </trkpt>
      <trkpt lat="36.8000564575195" lon="-5.14015483856201">
        <ele>601</ele>
        <time>2019-05-11T14:32:49Z</time>
      </trkpt>
      <trkpt lat="36.8000526428223" lon="-5.14015293121338">
        <ele>601</ele>
        <time>2019-05-11T14:32:51Z</time>
      </trkpt>
      <trkpt lat="36.8000373840332" lon="-5.14015483856201">
        <ele>601</ele>
        <time>2019-05-11T14:32:53Z</time>
      </trkpt>
      <trkpt lat="36.8000221252441" lon="-5.14015007019043">
        <ele>602</ele>
        <time>2019-05-11T14:32:55Z</time>
      </trkpt>
      <trkpt lat="36.8000068664551" lon="-5.14015007019043">
        <ele>603</ele>
        <time>2019-05-11T14:32:57Z</time>
      </trkpt>
      <trkpt lat="36.8000068664551" lon="-5.14015483856201">
        <ele>605</ele>
        <time>2019-05-11T14:32:59Z</time>
      </trkpt>
      <trkpt lat="36.7999992370606" lon="-5.14015483856201">
        <ele>606</ele>
        <time>2019-05-11T14:33:01Z</time>
      </trkpt>
      <trkpt lat="36.799991607666" lon="-5.1401572227478">
        <ele>608</ele>
        <time>2019-05-11T14:33:03Z</time>
      </trkpt>
      <trkpt lat="36.7999839782715" lon="-5.14016008377075">
        <ele>609</ele>
        <time>2019-05-11T14:33:05Z</time>
      </trkpt>
      <trkpt lat="36.799976348877" lon="-5.14015817642212">
        <ele>610</ele>
        <time>2019-05-11T14:33:07Z</time>
      </trkpt>
      <trkpt lat="36.7999572753906" lon="-5.1401572227478">
        <ele>612</ele>
        <time>2019-05-11T14:33:10Z</time>
      </trkpt>
      <trkpt lat="36.7999267578125" lon="-5.14016199111938">
        <ele>613</ele>
        <time>2019-05-11T14:33:12Z</time>
      </trkpt>
      <trkpt lat="36.7998962402344" lon="-5.14016199111938">
        <ele>615</ele>
        <time>2019-05-11T14:33:14Z</time>
      </trkpt>
      <trkpt lat="36.7998695373535" lon="-5.14016008377075">
        <ele>616</ele>
        <time>2019-05-11T14:33:16Z</time>
      </trkpt>
      <trkpt lat="36.7998428344727" lon="-5.14016008377075">
        <ele>617</ele>
        <time>2019-05-11T14:33:18Z</time>
      </trkpt>
      <trkpt lat="36.7998123168945" lon="-5.14016008377075">
        <ele>618</ele>
        <time>2019-05-11T14:33:20Z</time>
      </trkpt>
      <trkpt lat="36.7997856140137" lon="-5.14016008377075">
        <ele>618</ele>
        <time>2019-05-11T14:33:22Z</time>
      </trkpt>
      <trkpt lat="36.7997627258301" lon="-5.14015817642212">
        <ele>618</ele>
        <time>2019-05-11T14:33:24Z</time>
      </trkpt>
      <trkpt lat="36.7997436523438" lon="-5.14014196395874">
        <ele>618</ele>
        <time>2019-05-11T14:33:26Z</time>
      </trkpt>
      <trkpt lat="36.7997283935547" lon="-5.14012718200684">
        <ele>618</ele>
        <time>2019-05-11T14:33:28Z</time>
      </trkpt>
      <trkpt lat="36.7997131347656" lon="-5.14011287689209">
        <ele>618</ele>
        <time>2019-05-11T14:33:30Z</time>
      </trkpt>
      <trkpt lat="36.7997093200684" lon="-5.14008188247681">
        <ele>618</ele>
        <time>2019-05-11T14:33:32Z</time>
      </trkpt>
      <trkpt lat="36.7997016906738" lon="-5.14006185531616">
        <ele>618</ele>
        <time>2019-05-11T14:33:34Z</time>
      </trkpt>
      <trkpt lat="36.7997016906738" lon="-5.14004707336426">
        <ele>616</ele>
        <time>2019-05-11T14:33:36Z</time>
      </trkpt>
      <trkpt lat="36.7997055053711" lon="-5.14002513885498">
        <ele>616</ele>
        <time>2019-05-11T14:33:38Z</time>
      </trkpt>
      <trkpt lat="36.7997016906738" lon="-5.14000177383423">
        <ele>615</ele>
        <time>2019-05-11T14:33:40Z</time>
      </trkpt>
      <trkpt lat="36.7997055053711" lon="-5.13997316360474">
        <ele>615</ele>
        <time>2019-05-11T14:33:42Z</time>
      </trkpt>
      <trkpt lat="36.7997093200684" lon="-5.1399450302124">
        <ele>614</ele>
        <time>2019-05-11T14:33:44Z</time>
      </trkpt>
      <trkpt lat="36.7997093200684" lon="-5.1399130821228">
        <ele>613</ele>
        <time>2019-05-11T14:33:47Z</time>
      </trkpt>
      <trkpt lat="36.7997131347656" lon="-5.13988494873047">
        <ele>612</ele>
        <time>2019-05-11T14:33:49Z</time>
      </trkpt>
      <trkpt lat="36.7997093200684" lon="-5.13985776901245">
        <ele>611</ele>
        <time>2019-05-11T14:33:51Z</time>
      </trkpt>
      <trkpt lat="36.7997131347656" lon="-5.13983297348022">
        <ele>609</ele>
        <time>2019-05-11T14:33:53Z</time>
      </trkpt>
      <trkpt lat="36.7997169494629" lon="-5.13981008529663">
        <ele>608</ele>
        <time>2019-05-11T14:33:55Z</time>
      </trkpt>
      <trkpt lat="36.7997283935547" lon="-5.13979005813599">
        <ele>608</ele>
        <time>2019-05-11T14:33:57Z</time>
      </trkpt>
      <trkpt lat="36.7997398376465" lon="-5.13977193832397">
        <ele>606</ele>
        <time>2019-05-11T14:33:59Z</time>
      </trkpt>
      <trkpt lat="36.7997436523438" lon="-5.1397500038147">
        <ele>606</ele>
        <time>2019-05-11T14:34:01Z</time>
      </trkpt>
      <trkpt lat="36.799747467041" lon="-5.13972187042236">
        <ele>606</ele>
        <time>2019-05-11T14:34:03Z</time>
      </trkpt>
      <trkpt lat="36.799747467041" lon="-5.13970184326172">
        <ele>605</ele>
        <time>2019-05-11T14:34:05Z</time>
      </trkpt>
      <trkpt lat="36.799747467041" lon="-5.1396598815918">
        <ele>604</ele>
        <time>2019-05-11T14:34:07Z</time>
      </trkpt>
      <trkpt lat="36.7997436523438" lon="-5.13963222503662">
        <ele>604</ele>
        <time>2019-05-11T14:34:09Z</time>
      </trkpt>
      <trkpt lat="36.7997512817383" lon="-5.13960218429565">
        <ele>603</ele>
        <time>2019-05-11T14:34:11Z</time>
      </trkpt>
      <trkpt lat="36.7997512817383" lon="-5.13957214355469">
        <ele>603</ele>
        <time>2019-05-11T14:34:13Z</time>
      </trkpt>
      <trkpt lat="36.7997512817383" lon="-5.1395468711853">
        <ele>602</ele>
        <time>2019-05-11T14:34:15Z</time>
      </trkpt>
      <trkpt lat="36.799747467041" lon="-5.13951206207275">
        <ele>602</ele>
        <time>2019-05-11T14:34:17Z</time>
      </trkpt>
      <trkpt lat="36.7997436523438" lon="-5.13947296142578">
        <ele>601</ele>
        <time>2019-05-11T14:34:19Z</time>
      </trkpt>
      <trkpt lat="36.7997360229492" lon="-5.1394419670105">
        <ele>601</ele>
        <time>2019-05-11T14:34:21Z</time>
      </trkpt>
      <trkpt lat="36.7997283935547" lon="-5.13941812515259">
        <ele>600</ele>
        <time>2019-05-11T14:34:24Z</time>
      </trkpt>
      <trkpt lat="36.7997245788574" lon="-5.13939809799194">
        <ele>599</ele>
        <time>2019-05-11T14:34:26Z</time>
      </trkpt>
      <trkpt lat="36.7997131347656" lon="-5.13937997817993">
        <ele>599</ele>
        <time>2019-05-11T14:34:28Z</time>
      </trkpt>
      <trkpt lat="36.7996978759766" lon="-5.13937187194824">
        <ele>598</ele>
        <time>2019-05-11T14:34:30Z</time>
      </trkpt>
      <trkpt lat="36.7996788024902" lon="-5.13937187194824">
        <ele>597</ele>
        <time>2019-05-11T14:34:32Z</time>
      </trkpt>
      <trkpt lat="36.7996559143066" lon="-5.13936281204224">
        <ele>596</ele>
        <time>2019-05-11T14:34:34Z</time>
      </trkpt>
      <trkpt lat="36.799633026123" lon="-5.13935995101929">
        <ele>596</ele>
        <time>2019-05-11T14:34:36Z</time>
      </trkpt>
      <trkpt lat="36.7996101379394" lon="-5.13936281204224">
        <ele>595</ele>
        <time>2019-05-11T14:34:38Z</time>
      </trkpt>
      <trkpt lat="36.7995834350586" lon="-5.13936519622803">
        <ele>595</ele>
        <time>2019-05-11T14:34:40Z</time>
      </trkpt>
      <trkpt lat="36.799560546875" lon="-5.13937520980835">
        <ele>595</ele>
        <time>2019-05-11T14:34:42Z</time>
      </trkpt>
      <trkpt lat="36.7995376586914" lon="-5.13938808441162">
        <ele>595</ele>
        <time>2019-05-11T14:34:44Z</time>
      </trkpt>
      <trkpt lat="36.7995147705078" lon="-5.13941478729248">
        <ele>594</ele>
        <time>2019-05-11T14:34:46Z</time>
      </trkpt>
      <trkpt lat="36.7994956970215" lon="-5.13942813873291">
        <ele>594</ele>
        <time>2019-05-11T14:34:48Z</time>
      </trkpt>
      <trkpt lat="36.7994842529297" lon="-5.13943719863892">
        <ele>593</ele>
        <time>2019-05-11T14:34:50Z</time>
      </trkpt>
      <trkpt lat="36.7994689941406" lon="-5.13945007324219">
        <ele>591</ele>
        <time>2019-05-11T14:34:52Z</time>
      </trkpt>
      <trkpt lat="36.7994537353516" lon="-5.1394681930542">
        <ele>590</ele>
        <time>2019-05-11T14:34:54Z</time>
      </trkpt>
      <trkpt lat="36.7994346618652" lon="-5.13949203491211">
        <ele>589</ele>
        <time>2019-05-11T14:34:56Z</time>
      </trkpt>
      <trkpt lat="36.7994155883789" lon="-5.13950777053833">
        <ele>589</ele>
        <time>2019-05-11T14:34:58Z</time>
      </trkpt>
      <trkpt lat="36.7993965148926" lon="-5.13952207565308">
        <ele>588</ele>
        <time>2019-05-11T14:35:01Z</time>
      </trkpt>
      <trkpt lat="36.7993812561035" lon="-5.13954496383667">
        <ele>588</ele>
        <time>2019-05-11T14:35:03Z</time>
      </trkpt>
      <trkpt lat="36.7993583679199" lon="-5.13956689834595">
        <ele>587</ele>
        <time>2019-05-11T14:35:05Z</time>
      </trkpt>
      <trkpt lat="36.7993392944336" lon="-5.13957786560059">
        <ele>587</ele>
        <time>2019-05-11T14:35:07Z</time>
      </trkpt>
      <trkpt lat="36.79931640625" lon="-5.13958787918091">
        <ele>586</ele>
        <time>2019-05-11T14:35:09Z</time>
      </trkpt>
      <trkpt lat="36.7992973327637" lon="-5.13960313796997">
        <ele>586</ele>
        <time>2019-05-11T14:35:11Z</time>
      </trkpt>
      <trkpt lat="36.7992820739746" lon="-5.13962697982788">
        <ele>586</ele>
        <time>2019-05-11T14:35:13Z</time>
      </trkpt>
      <trkpt lat="36.7992668151856" lon="-5.13965511322022">
        <ele>586</ele>
        <time>2019-05-11T14:35:15Z</time>
      </trkpt>
      <trkpt lat="36.7992630004883" lon="-5.1396918296814">
        <ele>585</ele>
        <time>2019-05-11T14:35:17Z</time>
      </trkpt>
      <trkpt lat="36.7992515563965" lon="-5.13972187042236">
        <ele>585</ele>
        <time>2019-05-11T14:35:19Z</time>
      </trkpt>
      <trkpt lat="36.7992324829102" lon="-5.13975286483765">
        <ele>585</ele>
        <time>2019-05-11T14:35:21Z</time>
      </trkpt>
      <trkpt lat="36.7992095947266" lon="-5.13979816436768">
        <ele>585</ele>
        <time>2019-05-11T14:35:23Z</time>
      </trkpt>
      <trkpt lat="36.7991943359375" lon="-5.13982820510864">
        <ele>584</ele>
        <time>2019-05-11T14:35:25Z</time>
      </trkpt>
      <trkpt lat="36.7991828918457" lon="-5.13985681533814">
        <ele>584</ele>
        <time>2019-05-11T14:35:27Z</time>
      </trkpt>
      <trkpt lat="36.7991676330566" lon="-5.13988780975342">
        <ele>584</ele>
        <time>2019-05-11T14:35:29Z</time>
      </trkpt>
      <trkpt lat="36.7991561889648" lon="-5.13991689682007">
        <ele>583</ele>
        <time>2019-05-11T14:35:31Z</time>
      </trkpt>
      <trkpt lat="36.7991409301758" lon="-5.13994216918945">
        <ele>583</ele>
        <time>2019-05-11T14:35:33Z</time>
      </trkpt>
      <trkpt lat="36.7991218566894" lon="-5.13996696472168">
        <ele>582</ele>
        <time>2019-05-11T14:35:35Z</time>
      </trkpt>
      <trkpt lat="36.7991104125977" lon="-5.13999223709106">
        <ele>581</ele>
        <time>2019-05-11T14:35:38Z</time>
      </trkpt>
      <trkpt lat="36.7990913391113" lon="-5.14001321792603">
        <ele>581</ele>
        <time>2019-05-11T14:35:40Z</time>
      </trkpt>
      <trkpt lat="36.7990646362305" lon="-5.14002799987793">
        <ele>581</ele>
        <time>2019-05-11T14:35:42Z</time>
      </trkpt>
      <trkpt lat="36.7990455627441" lon="-5.14003801345825">
        <ele>580</ele>
        <time>2019-05-11T14:35:44Z</time>
      </trkpt>
      <trkpt lat="36.7990188598633" lon="-5.14005184173584">
        <ele>580</ele>
        <time>2019-05-11T14:35:46Z</time>
      </trkpt>
      <trkpt lat="36.7989959716797" lon="-5.14006519317627">
        <ele>580</ele>
        <time>2019-05-11T14:35:48Z</time>
      </trkpt>
      <trkpt lat="36.7989730834961" lon="-5.14007997512817">
        <ele>580</ele>
        <time>2019-05-11T14:35:50Z</time>
      </trkpt>
      <trkpt lat="36.7989463806152" lon="-5.1400899887085">
        <ele>579</ele>
        <time>2019-05-11T14:35:52Z</time>
      </trkpt>
      <trkpt lat="36.7989234924316" lon="-5.14010190963745">
        <ele>579</ele>
        <time>2019-05-11T14:35:54Z</time>
      </trkpt>
      <trkpt lat="36.7988967895508" lon="-5.14011716842651">
        <ele>579</ele>
        <time>2019-05-11T14:35:56Z</time>
      </trkpt>
      <trkpt lat="36.7988586425781" lon="-5.14013481140137">
        <ele>579</ele>
        <time>2019-05-11T14:35:58Z</time>
      </trkpt>
      <trkpt lat="36.7988319396973" lon="-5.14015007019043">
        <ele>579</ele>
        <time>2019-05-11T14:36:00Z</time>
      </trkpt>
      <trkpt lat="36.7988090515137" lon="-5.14016723632812">
        <ele>578</ele>
        <time>2019-05-11T14:36:02Z</time>
      </trkpt>
      <trkpt lat="36.7987823486328" lon="-5.14018201828003">
        <ele>578</ele>
        <time>2019-05-11T14:36:04Z</time>
      </trkpt>
      <trkpt lat="36.798755645752" lon="-5.14019680023193">
        <ele>578</ele>
        <time>2019-05-11T14:36:06Z</time>
      </trkpt>
      <trkpt lat="36.7987327575684" lon="-5.14020490646362">
        <ele>578</ele>
        <time>2019-05-11T14:36:08Z</time>
      </trkpt>
      <trkpt lat="36.7987098693848" lon="-5.14021682739258">
        <ele>578</ele>
        <time>2019-05-11T14:36:10Z</time>
      </trkpt>
      <trkpt lat="36.7986869812012" lon="-5.14023017883301">
        <ele>578</ele>
        <time>2019-05-11T14:36:12Z</time>
      </trkpt>
      <trkpt lat="36.7986640930176" lon="-5.14025211334228">
        <ele>578</ele>
        <time>2019-05-11T14:36:15Z</time>
      </trkpt>
      <trkpt lat="36.7986373901367" lon="-5.14026212692261">
        <ele>578</ele>
        <time>2019-05-11T14:36:17Z</time>
      </trkpt>
      <trkpt lat="36.7986106872559" lon="-5.14026689529419">
        <ele>578</ele>
        <time>2019-05-11T14:36:19Z</time>
      </trkpt>
      <trkpt lat="36.7985877990723" lon="-5.14028692245483">
        <ele>578</ele>
        <time>2019-05-11T14:36:21Z</time>
      </trkpt>
      <trkpt lat="36.7985610961914" lon="-5.14030981063843">
        <ele>580</ele>
        <time>2019-05-11T14:36:23Z</time>
      </trkpt>
      <trkpt lat="36.7985343933106" lon="-5.14032316207886">
        <ele>582</ele>
        <time>2019-05-11T14:36:25Z</time>
      </trkpt>
      <trkpt lat="36.7985038757324" lon="-5.14033794403076">
        <ele>583</ele>
        <time>2019-05-11T14:36:27Z</time>
      </trkpt>
      <trkpt lat="36.7984771728516" lon="-5.14035701751709">
        <ele>585</ele>
        <time>2019-05-11T14:36:29Z</time>
      </trkpt>
      <trkpt lat="36.7984504699707" lon="-5.14037322998047">
        <ele>587</ele>
        <time>2019-05-11T14:36:31Z</time>
      </trkpt>
      <trkpt lat="36.7984237670898" lon="-5.14038801193237">
        <ele>588</ele>
        <time>2019-05-11T14:36:33Z</time>
      </trkpt>
      <trkpt lat="36.7983856201172" lon="-5.1404070854187">
        <ele>590</ele>
        <time>2019-05-11T14:36:35Z</time>
      </trkpt>
      <trkpt lat="36.7983589172363" lon="-5.14041805267334">
        <ele>591</ele>
        <time>2019-05-11T14:36:37Z</time>
      </trkpt>
      <trkpt lat="36.7983322143555" lon="-5.14042282104492">
        <ele>593</ele>
        <time>2019-05-11T14:36:39Z</time>
      </trkpt>
      <trkpt lat="36.7983055114746" lon="-5.14042806625366">
        <ele>593</ele>
        <time>2019-05-11T14:36:41Z</time>
      </trkpt>
      <trkpt lat="36.7982788085938" lon="-5.14042520523071">
        <ele>594</ele>
        <time>2019-05-11T14:36:43Z</time>
      </trkpt>
      <trkpt lat="36.7982559204102" lon="-5.14043188095093">
        <ele>594</ele>
        <time>2019-05-11T14:36:45Z</time>
      </trkpt>
      <trkpt lat="36.7982330322266" lon="-5.14043188095093">
        <ele>594</ele>
        <time>2019-05-11T14:36:47Z</time>
      </trkpt>
      <trkpt lat="36.7982063293457" lon="-5.14043712615967">
        <ele>594</ele>
        <time>2019-05-11T14:36:49Z</time>
      </trkpt>
      <trkpt lat="36.7981834411621" lon="-5.14044189453125">
        <ele>594</ele>
        <time>2019-05-11T14:36:51Z</time>
      </trkpt>
      <trkpt lat="36.7981643676758" lon="-5.14045190811157">
        <ele>594</ele>
        <time>2019-05-11T14:36:54Z</time>
      </trkpt>
      <trkpt lat="36.798152923584" lon="-5.14045476913452">
        <ele>594</ele>
        <time>2019-05-11T14:36:56Z</time>
      </trkpt>
      <trkpt lat="36.7981300354004" lon="-5.14046001434326">
        <ele>594</ele>
        <time>2019-05-11T14:36:58Z</time>
      </trkpt>
      <trkpt lat="36.7981033325195" lon="-5.14045715332031">
        <ele>595</ele>
        <time>2019-05-11T14:37:00Z</time>
      </trkpt>
      <trkpt lat="36.7980842590332" lon="-5.14045476913452">
        <ele>595</ele>
        <time>2019-05-11T14:37:02Z</time>
      </trkpt>
      <trkpt lat="36.7980575561523" lon="-5.14045810699463">
        <ele>596</ele>
        <time>2019-05-11T14:37:04Z</time>
      </trkpt>
      <trkpt lat="36.7980346679688" lon="-5.14046287536621">
        <ele>597</ele>
        <time>2019-05-11T14:37:06Z</time>
      </trkpt>
      <trkpt lat="36.7980079650879" lon="-5.14047193527222">
        <ele>597</ele>
        <time>2019-05-11T14:37:08Z</time>
      </trkpt>
      <trkpt lat="36.7979850769043" lon="-5.14046716690064">
        <ele>598</ele>
        <time>2019-05-11T14:37:10Z</time>
      </trkpt>
      <trkpt lat="36.7979583740234" lon="-5.14046478271484">
        <ele>598</ele>
        <time>2019-05-11T14:37:12Z</time>
      </trkpt>
      <trkpt lat="36.7979164123535" lon="-5.14046192169189">
        <ele>598</ele>
        <time>2019-05-11T14:37:14Z</time>
      </trkpt>
      <trkpt lat="36.7978897094727" lon="-5.14044809341431">
        <ele>598</ele>
        <time>2019-05-11T14:37:16Z</time>
      </trkpt>
      <trkpt lat="36.7978630065918" lon="-5.14044189453125">
        <ele>598</ele>
        <time>2019-05-11T14:37:18Z</time>
      </trkpt>
      <trkpt lat="36.7978363037109" lon="-5.14043521881104">
        <ele>598</ele>
        <time>2019-05-11T14:37:20Z</time>
      </trkpt>
      <trkpt lat="36.7978096008301" lon="-5.14042711257935">
        <ele>598</ele>
        <time>2019-05-11T14:37:22Z</time>
      </trkpt>
      <trkpt lat="36.797779083252" lon="-5.14041805267334">
        <ele>598</ele>
        <time>2019-05-11T14:37:24Z</time>
      </trkpt>
      <trkpt lat="36.7977485656738" lon="-5.14042186737061">
        <ele>598</ele>
        <time>2019-05-11T14:37:26Z</time>
      </trkpt>
      <trkpt lat="36.7977180480957" lon="-5.14042711257935">
        <ele>598</ele>
        <time>2019-05-11T14:37:29Z</time>
      </trkpt>
      <trkpt lat="36.7976875305176" lon="-5.14043283462524">
        <ele>598</ele>
        <time>2019-05-11T14:37:31Z</time>
      </trkpt>
      <trkpt lat="36.7976570129394" lon="-5.14043712615967">
        <ele>598</ele>
        <time>2019-05-11T14:37:33Z</time>
      </trkpt>
      <trkpt lat="36.7976226806641" lon="-5.14043188095093">
        <ele>598</ele>
        <time>2019-05-11T14:37:35Z</time>
      </trkpt>
      <trkpt lat="36.7975883483887" lon="-5.14042806625366">
        <ele>598</ele>
        <time>2019-05-11T14:37:37Z</time>
      </trkpt>
      <trkpt lat="36.7975578308106" lon="-5.14042711257935">
        <ele>598</ele>
        <time>2019-05-11T14:37:39Z</time>
      </trkpt>
      <trkpt lat="36.7975273132324" lon="-5.14042186737061">
        <ele>598</ele>
        <time>2019-05-11T14:37:41Z</time>
      </trkpt>
      <trkpt lat="36.7975006103516" lon="-5.1404128074646">
        <ele>599</ele>
        <time>2019-05-11T14:37:43Z</time>
      </trkpt>
      <trkpt lat="36.797477722168" lon="-5.14040517807007">
        <ele>599</ele>
        <time>2019-05-11T14:37:45Z</time>
      </trkpt>
      <trkpt lat="36.7974510192871" lon="-5.1403980255127">
        <ele>599</ele>
        <time>2019-05-11T14:37:47Z</time>
      </trkpt>
      <trkpt lat="36.7974166870117" lon="-5.14038991928101">
        <ele>599</ele>
        <time>2019-05-11T14:37:49Z</time>
      </trkpt>
      <trkpt lat="36.7973899841309" lon="-5.14038515090942">
        <ele>599</ele>
        <time>2019-05-11T14:37:51Z</time>
      </trkpt>
      <trkpt lat="36.7973670959473" lon="-5.14038181304932">
        <ele>599</ele>
        <time>2019-05-11T14:37:53Z</time>
      </trkpt>
      <trkpt lat="36.7973442077637" lon="-5.14037990570068">
        <ele>599</ele>
        <time>2019-05-11T14:37:55Z</time>
      </trkpt>
      <trkpt lat="36.7973213195801" lon="-5.14037322998047">
        <ele>599</ele>
        <time>2019-05-11T14:37:57Z</time>
      </trkpt>
      <trkpt lat="36.7972946166992" lon="-5.14036798477173">
        <ele>599</ele>
        <time>2019-05-11T14:37:59Z</time>
      </trkpt>
      <trkpt lat="36.7972717285156" lon="-5.14036178588867">
        <ele>599</ele>
        <time>2019-05-11T14:38:01Z</time>
      </trkpt>
      <trkpt lat="36.797248840332" lon="-5.14035511016846">
        <ele>599</ele>
        <time>2019-05-11T14:38:03Z</time>
      </trkpt>
      <trkpt lat="36.7972259521484" lon="-5.14034986495972">
        <ele>599</ele>
        <time>2019-05-11T14:38:06Z</time>
      </trkpt>
      <trkpt lat="36.7972068786621" lon="-5.14034223556519">
        <ele>599</ele>
        <time>2019-05-11T14:38:08Z</time>
      </trkpt>
      <trkpt lat="36.797191619873" lon="-5.14033794403076">
        <ele>599</ele>
        <time>2019-05-11T14:38:10Z</time>
      </trkpt>
      <trkpt lat="36.7971687316894" lon="-5.14033508300781">
        <ele>599</ele>
        <time>2019-05-11T14:38:12Z</time>
      </trkpt>
      <trkpt lat="36.7971420288086" lon="-5.14032983779907">
        <ele>599</ele>
        <time>2019-05-11T14:38:14Z</time>
      </trkpt>
      <trkpt lat="36.7971305847168" lon="-5.14032220840454">
        <ele>599</ele>
        <time>2019-05-11T14:38:16Z</time>
      </trkpt>
      <trkpt lat="36.7971115112305" lon="-5.14031982421875">
        <ele>599</ele>
        <time>2019-05-11T14:38:18Z</time>
      </trkpt>
      <trkpt lat="36.7970962524414" lon="-5.14031505584717">
        <ele>599</ele>
        <time>2019-05-11T14:38:20Z</time>
      </trkpt>
      <trkpt lat="36.7970809936523" lon="-5.14030981063843">
        <ele>599</ele>
        <time>2019-05-11T14:38:22Z</time>
      </trkpt>
      <trkpt lat="36.7970542907715" lon="-5.1403021812439">
        <ele>599</ele>
        <time>2019-05-11T14:38:24Z</time>
      </trkpt>
      <trkpt lat="36.7970390319824" lon="-5.14029693603516">
        <ele>599</ele>
        <time>2019-05-11T14:38:26Z</time>
      </trkpt>
      <trkpt lat="36.7970314025879" lon="-5.14029979705811">
        <ele>600</ele>
        <time>2019-05-11T14:38:28Z</time>
      </trkpt>
      <trkpt lat="36.7970314025879" lon="-5.14029788970947">
        <ele>601</ele>
        <time>2019-05-11T14:38:30Z</time>
      </trkpt>
      <trkpt lat="36.7970352172852" lon="-5.14029693603516">
        <ele>602</ele>
        <time>2019-05-11T14:38:32Z</time>
      </trkpt>
      <trkpt lat="36.7970352172852" lon="-5.14029312133789">
        <ele>602</ele>
        <time>2019-05-11T14:38:34Z</time>
      </trkpt>
      <trkpt lat="36.7970428466797" lon="-5.14028978347778">
        <ele>603</ele>
        <time>2019-05-11T14:38:36Z</time>
      </trkpt>
      <trkpt lat="36.7970504760742" lon="-5.14029312133789">
        <ele>603</ele>
        <time>2019-05-11T14:38:38Z</time>
      </trkpt>
      <trkpt lat="36.797061920166" lon="-5.14029216766357">
        <ele>603</ele>
        <time>2019-05-11T14:38:41Z</time>
      </trkpt>
      <trkpt lat="36.797061920166" lon="-5.14028978347778">
        <ele>604</ele>
        <time>2019-05-11T14:38:43Z</time>
      </trkpt>
      <trkpt lat="36.7970581054688" lon="-5.14029216766357">
        <ele>604</ele>
        <time>2019-05-11T14:38:45Z</time>
      </trkpt>
      <trkpt lat="36.7970542907715" lon="-5.14029502868652">
        <ele>607</ele>
        <time>2019-05-11T14:38:49Z</time>
      </trkpt>
      <trkpt lat="36.7970504760742" lon="-5.14029788970947">
        <ele>608</ele>
        <time>2019-05-11T14:38:51Z</time>
      </trkpt>
      <trkpt lat="36.797046661377" lon="-5.14030504226685">
        <ele>609</ele>
        <time>2019-05-11T14:38:53Z</time>
      </trkpt>
      <trkpt lat="36.7970428466797" lon="-5.14030313491821">
        <ele>609</ele>
        <time>2019-05-11T14:38:55Z</time>
      </trkpt>
      <trkpt lat="36.7970428466797" lon="-5.14029502868652">
        <ele>610</ele>
        <time>2019-05-11T14:38:57Z</time>
      </trkpt>
      <trkpt lat="36.7970428466797" lon="-5.14028692245483">
        <ele>610</ele>
        <time>2019-05-11T14:38:59Z</time>
      </trkpt>
      <trkpt lat="36.797046661377" lon="-5.1402850151062">
        <ele>610</ele>
        <time>2019-05-11T14:39:01Z</time>
      </trkpt>
      <trkpt lat="36.7970504760742" lon="-5.14027976989746">
        <ele>610</ele>
        <time>2019-05-11T14:39:03Z</time>
      </trkpt>
      <trkpt lat="36.797046661377" lon="-5.14027786254883">
        <ele>610</ele>
        <time>2019-05-11T14:39:05Z</time>
      </trkpt>
      <trkpt lat="36.7970504760742" lon="-5.14027786254883">
        <ele>611</ele>
        <time>2019-05-11T14:39:07Z</time>
      </trkpt>
      <trkpt lat="36.7970542907715" lon="-5.14027500152588">
        <ele>611</ele>
        <time>2019-05-11T14:39:09Z</time>
      </trkpt>
      <trkpt lat="36.7970428466797" lon="-5.1402850151062">
        <ele>612</ele>
        <time>2019-05-11T14:39:13Z</time>
      </trkpt>
      <trkpt lat="36.797046661377" lon="-5.14028692245483">
        <ele>613</ele>
        <time>2019-05-11T14:39:15Z</time>
      </trkpt>
      <trkpt lat="36.797046661377" lon="-5.14028787612915">
        <ele>613</ele>
        <time>2019-05-11T14:39:17Z</time>
      </trkpt>
      <trkpt lat="36.797046661377" lon="-5.14029502868652">
        <ele>614</ele>
        <time>2019-05-11T14:39:19Z</time>
      </trkpt>
      <trkpt lat="36.7970542907715" lon="-5.14029788970947">
        <ele>614</ele>
        <time>2019-05-11T14:39:21Z</time>
      </trkpt>
      <trkpt lat="36.7970695495606" lon="-5.14029693603516">
        <ele>614</ele>
        <time>2019-05-11T14:39:24Z</time>
      </trkpt>
      <trkpt lat="36.7970886230469" lon="-5.14029312133789">
        <ele>614</ele>
        <time>2019-05-11T14:39:26Z</time>
      </trkpt>
      <trkpt lat="36.7970962524414" lon="-5.14027976989746">
        <ele>614</ele>
        <time>2019-05-11T14:39:28Z</time>
      </trkpt>
      <trkpt lat="36.7971038818359" lon="-5.14027976989746">
        <ele>614</ele>
        <time>2019-05-11T14:39:30Z</time>
      </trkpt>
      <trkpt lat="36.7971076965332" lon="-5.1402850151062">
        <ele>614</ele>
        <time>2019-05-11T14:39:32Z</time>
      </trkpt>
      <trkpt lat="36.7971115112305" lon="-5.1402850151062">
        <ele>614</ele>
        <time>2019-05-11T14:39:34Z</time>
      </trkpt>
      <trkpt lat="36.797119140625" lon="-5.14028787612915">
        <ele>614</ele>
        <time>2019-05-11T14:39:36Z</time>
      </trkpt>
      <trkpt lat="36.7971305847168" lon="-5.14028787612915">
        <ele>614</ele>
        <time>2019-05-11T14:39:38Z</time>
      </trkpt>
      <trkpt lat="36.7971382141113" lon="-5.14028978347778">
        <ele>614</ele>
        <time>2019-05-11T14:39:40Z</time>
      </trkpt>
      <trkpt lat="36.7971382141113" lon="-5.14028692245483">
        <ele>614</ele>
        <time>2019-05-11T14:39:42Z</time>
      </trkpt>
      <trkpt lat="36.7971496582031" lon="-5.14028978347778">
        <ele>614</ele>
        <time>2019-05-11T14:39:44Z</time>
      </trkpt>
      <trkpt lat="36.7971687316894" lon="-5.14030313491821">
        <ele>614</ele>
        <time>2019-05-11T14:39:46Z</time>
      </trkpt>
      <trkpt lat="36.797176361084" lon="-5.14030981063843">
        <ele>614</ele>
        <time>2019-05-11T14:39:48Z</time>
      </trkpt>
      <trkpt lat="36.797191619873" lon="-5.14030694961548">
        <ele>614</ele>
        <time>2019-05-11T14:39:50Z</time>
      </trkpt>
      <trkpt lat="36.7971992492676" lon="-5.14030313491821">
        <ele>614</ele>
        <time>2019-05-11T14:39:52Z</time>
      </trkpt>
      <trkpt lat="36.7972068786621" lon="-5.14029502868652">
        <ele>614</ele>
        <time>2019-05-11T14:39:54Z</time>
      </trkpt>
      <trkpt lat="36.7972106933594" lon="-5.14029502868652">
        <ele>614</ele>
        <time>2019-05-11T14:39:56Z</time>
      </trkpt>
      <trkpt lat="36.7972183227539" lon="-5.14029502868652">
        <ele>614</ele>
        <time>2019-05-11T14:39:58Z</time>
      </trkpt>
      <trkpt lat="36.7972297668457" lon="-5.14029502868652">
        <ele>614</ele>
        <time>2019-05-11T14:40:00Z</time>
      </trkpt>
      <trkpt lat="36.7972373962402" lon="-5.14029502868652">
        <ele>614</ele>
        <time>2019-05-11T14:40:02Z</time>
      </trkpt>
      <trkpt lat="36.797248840332" lon="-5.14029788970947">
        <ele>614</ele>
        <time>2019-05-11T14:40:04Z</time>
      </trkpt>
      <trkpt lat="36.7972679138184" lon="-5.1403021812439">
        <ele>614</ele>
        <time>2019-05-11T14:40:07Z</time>
      </trkpt>
      <trkpt lat="36.7972793579102" lon="-5.14030313491821">
        <ele>614</ele>
        <time>2019-05-11T14:40:09Z</time>
      </trkpt>
      <trkpt lat="36.797290802002" lon="-5.14030504226685">
        <ele>613</ele>
        <time>2019-05-11T14:40:11Z</time>
      </trkpt>
      <trkpt lat="36.7972946166992" lon="-5.14031219482422">
        <ele>613</ele>
        <time>2019-05-11T14:40:13Z</time>
      </trkpt>
      <trkpt lat="36.797290802002" lon="-5.14031314849854">
        <ele>611</ele>
        <time>2019-05-11T14:40:15Z</time>
      </trkpt>
      <trkpt lat="36.7972869873047" lon="-5.14030981063843">
        <ele>611</ele>
        <time>2019-05-11T14:40:17Z</time>
      </trkpt>
      <trkpt lat="36.7972831726074" lon="-5.14030694961548">
        <ele>611</ele>
        <time>2019-05-11T14:40:19Z</time>
      </trkpt>
      <trkpt lat="36.7972755432129" lon="-5.14030313491821">
        <ele>611</ele>
        <time>2019-05-11T14:40:21Z</time>
      </trkpt>
      <trkpt lat="36.7972679138184" lon="-5.14029979705811">
        <ele>611</ele>
        <time>2019-05-11T14:40:23Z</time>
      </trkpt>
      <trkpt lat="36.7972602844238" lon="-5.14029788970947">
        <ele>611</ele>
        <time>2019-05-11T14:40:25Z</time>
      </trkpt>
      <trkpt lat="36.797248840332" lon="-5.14029502868652">
        <ele>611</ele>
        <time>2019-05-11T14:40:27Z</time>
      </trkpt>
      <trkpt lat="36.7972412109375" lon="-5.14030313491821">
        <ele>611</ele>
        <time>2019-05-11T14:40:29Z</time>
      </trkpt>
      <trkpt lat="36.7972373962402" lon="-5.14030313491821">
        <ele>611</ele>
        <time>2019-05-11T14:40:31Z</time>
      </trkpt>
      <trkpt lat="36.7972373962402" lon="-5.14031219482422">
        <ele>610</ele>
        <time>2019-05-11T14:40:33Z</time>
      </trkpt>
      <trkpt lat="36.7972373962402" lon="-5.14032220840454">
        <ele>610</ele>
        <time>2019-05-11T14:40:35Z</time>
      </trkpt>
      <trkpt lat="36.797233581543" lon="-5.14032506942749">
        <ele>610</ele>
        <time>2019-05-11T14:40:37Z</time>
      </trkpt>
      <trkpt lat="36.7972259521484" lon="-5.14032316207886">
        <ele>610</ele>
        <time>2019-05-11T14:40:39Z</time>
      </trkpt>
      <trkpt lat="36.7972297668457" lon="-5.14032220840454">
        <ele>610</ele>
        <time>2019-05-11T14:40:41Z</time>
      </trkpt>
      <trkpt lat="36.7972297668457" lon="-5.14032506942749">
        <ele>610</ele>
        <time>2019-05-11T14:40:43Z</time>
      </trkpt>
      <trkpt lat="36.7972297668457" lon="-5.14031791687012">
        <ele>610</ele>
        <time>2019-05-11T14:40:45Z</time>
      </trkpt>
      <trkpt lat="36.7972259521484" lon="-5.14032220840454">
        <ele>610</ele>
        <time>2019-05-11T14:40:48Z</time>
      </trkpt>
      <trkpt lat="36.7972221374512" lon="-5.14032697677612">
        <ele>610</ele>
        <time>2019-05-11T14:40:50Z</time>
      </trkpt>
      <trkpt lat="36.7972183227539" lon="-5.14031982421875">
        <ele>610</ele>
        <time>2019-05-11T14:40:52Z</time>
      </trkpt>
      <trkpt lat="36.7972145080566" lon="-5.14032316207886">
        <ele>610</ele>
        <time>2019-05-11T14:40:54Z</time>
      </trkpt>
      <trkpt lat="36.7970924377441" lon="-5.14024686813354">
        <ele>612</ele>
        <time>2019-05-11T14:42:44Z</time>
      </trkpt>
      <trkpt lat="36.7971000671387" lon="-5.14025688171387">
        <ele>613</ele>
        <time>2019-05-11T14:42:46Z</time>
      </trkpt>
      <trkpt lat="36.7971153259277" lon="-5.1402702331543">
        <ele>613</ele>
        <time>2019-05-11T14:42:48Z</time>
      </trkpt>
      <trkpt lat="36.7971267700195" lon="-5.14027976989746">
        <ele>613</ele>
        <time>2019-05-11T14:42:50Z</time>
      </trkpt>
      <trkpt lat="36.7971382141113" lon="-5.14028310775757">
        <ele>613</ele>
        <time>2019-05-11T14:42:52Z</time>
      </trkpt>
      <trkpt lat="36.7971496582031" lon="-5.14029312133789">
        <ele>613</ele>
        <time>2019-05-11T14:42:56Z</time>
      </trkpt>
      <trkpt lat="36.7971572875977" lon="-5.14029788970947">
        <ele>613</ele>
        <time>2019-05-11T14:42:59Z</time>
      </trkpt>
      <trkpt lat="36.7971611022949" lon="-5.14030981063843">
        <ele>613</ele>
        <time>2019-05-11T14:43:01Z</time>
      </trkpt>
      <trkpt lat="36.7971687316894" lon="-5.14031791687012">
        <ele>613</ele>
        <time>2019-05-11T14:43:03Z</time>
      </trkpt>
      <trkpt lat="36.7971687316894" lon="-5.14032506942749">
        <ele>613</ele>
        <time>2019-05-11T14:43:05Z</time>
      </trkpt>
      <trkpt lat="36.797176361084" lon="-5.14032793045044">
        <ele>614</ele>
        <time>2019-05-11T14:43:07Z</time>
      </trkpt>
      <trkpt lat="36.7971801757812" lon="-5.14033222198486">
        <ele>614</ele>
        <time>2019-05-11T14:43:09Z</time>
      </trkpt>
      <trkpt lat="36.7971801757812" lon="-5.14033222198486">
        <ele>614</ele>
        <time>2019-05-11T14:43:11Z</time>
      </trkpt>
      <trkpt lat="36.7971839904785" lon="-5.14033222198486">
        <ele>614</ele>
        <time>2019-05-11T14:43:13Z</time>
      </trkpt>
      <trkpt lat="36.797191619873" lon="-5.14033508300781">
        <ele>614</ele>
        <time>2019-05-11T14:43:15Z</time>
      </trkpt>
      <trkpt lat="36.7971954345703" lon="-5.14034223556519">
        <ele>614</ele>
        <time>2019-05-11T14:43:19Z</time>
      </trkpt>
      <trkpt lat="36.7971992492676" lon="-5.1403431892395">
        <ele>614</ele>
        <time>2019-05-11T14:43:21Z</time>
      </trkpt>
      <trkpt lat="36.7972068786621" lon="-5.14034700393677">
        <ele>614</ele>
        <time>2019-05-11T14:43:23Z</time>
      </trkpt>
      <trkpt lat="36.7972068786621" lon="-5.14034795761108">
        <ele>614</ele>
        <time>2019-05-11T14:43:25Z</time>
      </trkpt>
      <trkpt lat="36.7972068786621" lon="-5.14034700393677">
        <ele>614</ele>
        <time>2019-05-11T14:43:27Z</time>
      </trkpt>
      <trkpt lat="36.7972030639648" lon="-5.14034700393677">
        <ele>614</ele>
        <time>2019-05-11T14:43:29Z</time>
      </trkpt>
      <trkpt lat="36.7971992492676" lon="-5.14034700393677">
        <ele>614</ele>
        <time>2019-05-11T14:43:31Z</time>
      </trkpt>
      <trkpt lat="36.7971954345703" lon="-5.14034223556519">
        <ele>614</ele>
        <time>2019-05-11T14:43:33Z</time>
      </trkpt>
      <trkpt lat="36.797191619873" lon="-5.14032697677612">
        <ele>614</ele>
        <time>2019-05-11T14:43:37Z</time>
      </trkpt>
      <trkpt lat="36.7971878051758" lon="-5.1403169631958">
        <ele>614</ele>
        <time>2019-05-11T14:43:40Z</time>
      </trkpt>
      <trkpt lat="36.7971839904785" lon="-5.14030313491821">
        <ele>614</ele>
        <time>2019-05-11T14:43:42Z</time>
      </trkpt>
      <trkpt lat="36.7972183227539" lon="-5.14035177230835">
        <ele>614</ele>
        <time>2019-05-11T14:45:04Z</time>
      </trkpt>
      <trkpt lat="36.7972183227539" lon="-5.14034795761108">
        <ele>614</ele>
        <time>2019-05-11T14:45:06Z</time>
      </trkpt>
      <trkpt lat="36.7972068786621" lon="-5.14034509658814">
        <ele>614</ele>
        <time>2019-05-11T14:45:08Z</time>
      </trkpt>
      <trkpt lat="36.7971954345703" lon="-5.14033985137939">
        <ele>613</ele>
        <time>2019-05-11T14:45:10Z</time>
      </trkpt>
      <trkpt lat="36.7971878051758" lon="-5.14033222198486">
        <ele>611</ele>
        <time>2019-05-11T14:45:13Z</time>
      </trkpt>
      <trkpt lat="36.7971801757812" lon="-5.14032983779907">
        <ele>609</ele>
        <time>2019-05-11T14:45:15Z</time>
      </trkpt>
      <trkpt lat="36.7971687316894" lon="-5.14032220840454">
        <ele>606</ele>
        <time>2019-05-11T14:45:19Z</time>
      </trkpt>
      <trkpt lat="36.7971534729004" lon="-5.1403169631958">
        <ele>606</ele>
        <time>2019-05-11T14:45:21Z</time>
      </trkpt>
      <trkpt lat="36.7971496582031" lon="-5.14031791687012">
        <ele>606</ele>
        <time>2019-05-11T14:45:23Z</time>
      </trkpt>
      <trkpt lat="36.7971382141113" lon="-5.14032506942749">
        <ele>606</ele>
        <time>2019-05-11T14:45:25Z</time>
      </trkpt>
      <trkpt lat="36.7971343994141" lon="-5.14033222198486">
        <ele>606</ele>
        <time>2019-05-11T14:45:27Z</time>
      </trkpt>
      <trkpt lat="36.7971305847168" lon="-5.14034223556519">
        <ele>606</ele>
        <time>2019-05-11T14:45:29Z</time>
      </trkpt>
      <trkpt lat="36.7971305847168" lon="-5.14034795761108">
        <ele>606</ele>
        <time>2019-05-11T14:45:31Z</time>
      </trkpt>
      <trkpt lat="36.7971229553223" lon="-5.14035177230835">
        <ele>606</ele>
        <time>2019-05-11T14:45:33Z</time>
      </trkpt>
      <trkpt lat="36.797119140625" lon="-5.14035320281982">
        <ele>607</ele>
        <time>2019-05-11T14:45:35Z</time>
      </trkpt>
      <trkpt lat="36.7971153259277" lon="-5.14035320281982">
        <ele>607</ele>
        <time>2019-05-11T14:45:37Z</time>
      </trkpt>
      <trkpt lat="36.7971229553223" lon="-5.14034700393677">
        <ele>608</ele>
        <time>2019-05-11T14:45:39Z</time>
      </trkpt>
      <trkpt lat="36.7971305847168" lon="-5.14033508300781">
        <ele>608</ele>
        <time>2019-05-11T14:45:41Z</time>
      </trkpt>
      <trkpt lat="36.7971343994141" lon="-5.14032983779907">
        <ele>608</ele>
        <time>2019-05-11T14:45:43Z</time>
      </trkpt>
      <trkpt lat="36.7971382141113" lon="-5.14032316207886">
        <ele>608</ele>
        <time>2019-05-11T14:45:45Z</time>
      </trkpt>
      <trkpt lat="36.7971420288086" lon="-5.1403169631958">
        <ele>609</ele>
        <time>2019-05-11T14:45:47Z</time>
      </trkpt>
      <trkpt lat="36.7971496582031" lon="-5.14031314849854">
        <ele>609</ele>
        <time>2019-05-11T14:45:49Z</time>
      </trkpt>
      <trkpt lat="36.7971572875977" lon="-5.14031219482422">
        <ele>610</ele>
        <time>2019-05-11T14:45:52Z</time>
      </trkpt>
      <trkpt lat="36.7971649169922" lon="-5.14030981063843">
        <ele>610</ele>
        <time>2019-05-11T14:45:56Z</time>
      </trkpt>
      <trkpt lat="36.7971687316894" lon="-5.1403079032898">
        <ele>610</ele>
        <time>2019-05-11T14:45:58Z</time>
      </trkpt>
      <trkpt lat="36.7971687316894" lon="-5.1403021812439">
        <ele>610</ele>
        <time>2019-05-11T14:46:00Z</time>
      </trkpt>
      <trkpt lat="36.7971458435059" lon="-5.14029216766357">
        <ele>610</ele>
        <time>2019-05-11T14:46:04Z</time>
      </trkpt>
      <trkpt lat="36.7971420288086" lon="-5.1402850151062">
        <ele>610</ele>
        <time>2019-05-11T14:46:06Z</time>
      </trkpt>
      <trkpt lat="36.7971496582031" lon="-5.14027500152588">
        <ele>610</ele>
        <time>2019-05-11T14:46:08Z</time>
      </trkpt>
      <trkpt lat="36.7971496582031" lon="-5.14026784896851">
        <ele>611</ele>
        <time>2019-05-11T14:46:10Z</time>
      </trkpt>
      <trkpt lat="36.7971458435059" lon="-5.14026689529419">
        <ele>611</ele>
        <time>2019-05-11T14:46:12Z</time>
      </trkpt>
      <trkpt lat="36.7971496582031" lon="-5.14026308059692">
        <ele>611</ele>
        <time>2019-05-11T14:46:14Z</time>
      </trkpt>
      <trkpt lat="36.7971534729004" lon="-5.14025783538818">
        <ele>611</ele>
        <time>2019-05-11T14:46:16Z</time>
      </trkpt>
      <trkpt lat="36.7971611022949" lon="-5.14025020599365">
        <ele>611</ele>
        <time>2019-05-11T14:46:18Z</time>
      </trkpt>
      <trkpt lat="36.7971687316894" lon="-5.14025020599365">
        <ele>611</ele>
        <time>2019-05-11T14:46:20Z</time>
      </trkpt>
      <trkpt lat="36.7971687316894" lon="-5.14024305343628">
        <ele>611</ele>
        <time>2019-05-11T14:46:22Z</time>
      </trkpt>
      <trkpt lat="36.7971725463867" lon="-5.14023780822754">
        <ele>611</ele>
        <time>2019-05-11T14:46:24Z</time>
      </trkpt>
      <trkpt lat="36.7971725463867" lon="-5.14023494720459">
        <ele>611</ele>
        <time>2019-05-11T14:46:26Z</time>
      </trkpt>
      <trkpt lat="36.797176361084" lon="-5.14023303985596">
        <ele>611</ele>
        <time>2019-05-11T14:46:28Z</time>
      </trkpt>
      <trkpt lat="36.7971801757812" lon="-5.14023780822754">
        <ele>611</ele>
        <time>2019-05-11T14:46:30Z</time>
      </trkpt>
      <trkpt lat="36.7971801757812" lon="-5.14024496078491">
        <ele>611</ele>
        <time>2019-05-11T14:46:32Z</time>
      </trkpt>
      <trkpt lat="36.7971801757812" lon="-5.14024496078491">
        <ele>611</ele>
        <time>2019-05-11T14:46:35Z</time>
      </trkpt>
      <trkpt lat="36.7971878051758" lon="-5.14023685455322">
        <ele>611</ele>
        <time>2019-05-11T14:46:37Z</time>
      </trkpt>
      <trkpt lat="36.7971878051758" lon="-5.14023017883301">
        <ele>611</ele>
        <time>2019-05-11T14:46:39Z</time>
      </trkpt>
      <trkpt lat="36.797191619873" lon="-5.14022779464722">
        <ele>611</ele>
        <time>2019-05-11T14:46:41Z</time>
      </trkpt>
      <trkpt lat="36.7971954345703" lon="-5.14022302627564">
        <ele>611</ele>
        <time>2019-05-11T14:46:43Z</time>
      </trkpt>
      <trkpt lat="36.7971992492676" lon="-5.14021682739258">
        <ele>611</ele>
        <time>2019-05-11T14:46:45Z</time>
      </trkpt>
      <trkpt lat="36.7972068786621" lon="-5.14020490646362">
        <ele>611</ele>
        <time>2019-05-11T14:46:47Z</time>
      </trkpt>
      <trkpt lat="36.7972030639648" lon="-5.14020204544067">
        <ele>611</ele>
        <time>2019-05-11T14:46:49Z</time>
      </trkpt>
      <trkpt lat="36.7972030639648" lon="-5.14019823074341">
        <ele>611</ele>
        <time>2019-05-11T14:46:51Z</time>
      </trkpt>
      <trkpt lat="36.7971992492676" lon="-5.14019298553467">
        <ele>611</ele>
        <time>2019-05-11T14:46:53Z</time>
      </trkpt>
      <trkpt lat="36.7971954345703" lon="-5.14019203186035">
        <ele>611</ele>
        <time>2019-05-11T14:46:55Z</time>
      </trkpt>
      <trkpt lat="36.797191619873" lon="-5.14018821716309">
        <ele>611</ele>
        <time>2019-05-11T14:46:57Z</time>
      </trkpt>
      <trkpt lat="36.797191619873" lon="-5.14018821716309">
        <ele>611</ele>
        <time>2019-05-11T14:46:59Z</time>
      </trkpt>
      <trkpt lat="36.797191619873" lon="-5.14018821716309">
        <ele>611</ele>
        <time>2019-05-11T14:47:01Z</time>
      </trkpt>
      <trkpt lat="36.797191619873" lon="-5.14019203186035">
        <ele>611</ele>
        <time>2019-05-11T14:47:03Z</time>
      </trkpt>
      <trkpt lat="36.7971878051758" lon="-5.14019680023193">
        <ele>611</ele>
        <time>2019-05-11T14:47:05Z</time>
      </trkpt>
      <trkpt lat="36.7971878051758" lon="-5.14019680023193">
        <ele>611</ele>
        <time>2019-05-11T14:47:07Z</time>
      </trkpt>
      <trkpt lat="36.7971878051758" lon="-5.14020013809204">
        <ele>611</ele>
        <time>2019-05-11T14:47:09Z</time>
      </trkpt>
      <trkpt lat="36.7971878051758" lon="-5.14020204544067">
        <ele>611</ele>
        <time>2019-05-11T14:47:11Z</time>
      </trkpt>
      <trkpt lat="36.797191619873" lon="-5.14020204544067">
        <ele>611</ele>
        <time>2019-05-11T14:47:13Z</time>
      </trkpt>
      <trkpt lat="36.797191619873" lon="-5.14020299911499">
        <ele>611</ele>
        <time>2019-05-11T14:47:15Z</time>
      </trkpt>
      <trkpt lat="36.797191619873" lon="-5.14020776748657">
        <ele>611</ele>
        <time>2019-05-11T14:47:17Z</time>
      </trkpt>
      <trkpt lat="36.7971878051758" lon="-5.14021492004394">
        <ele>611</ele>
        <time>2019-05-11T14:47:20Z</time>
      </trkpt>
      <trkpt lat="36.7971878051758" lon="-5.14021682739258">
        <ele>611</ele>
        <time>2019-05-11T14:47:22Z</time>
      </trkpt>
      <trkpt lat="36.7971878051758" lon="-5.14021492004394">
        <ele>611</ele>
        <time>2019-05-11T14:47:24Z</time>
      </trkpt>
      <trkpt lat="36.7971839904785" lon="-5.14021301269531">
        <ele>611</ele>
        <time>2019-05-11T14:47:26Z</time>
      </trkpt>
      <trkpt lat="36.7971801757812" lon="-5.14021778106689">
        <ele>611</ele>
        <time>2019-05-11T14:47:28Z</time>
      </trkpt>
      <trkpt lat="36.797176361084" lon="-5.14022207260132">
        <ele>611</ele>
        <time>2019-05-11T14:47:30Z</time>
      </trkpt>
      <trkpt lat="36.797176361084" lon="-5.14022493362427">
        <ele>611</ele>
        <time>2019-05-11T14:47:32Z</time>
      </trkpt>
      <trkpt lat="36.797176361084" lon="-5.1402268409729">
        <ele>611</ele>
        <time>2019-05-11T14:47:34Z</time>
      </trkpt>
      <trkpt lat="36.7971687316894" lon="-5.14022779464722">
        <ele>611</ele>
        <time>2019-05-11T14:47:36Z</time>
      </trkpt>
      <trkpt lat="36.7971687316894" lon="-5.14023208618164">
        <ele>611</ele>
        <time>2019-05-11T14:47:38Z</time>
      </trkpt>
      <trkpt lat="36.7971687316894" lon="-5.14023494720459">
        <ele>611</ele>
        <time>2019-05-11T14:47:40Z</time>
      </trkpt>
      <trkpt lat="36.7971687316894" lon="-5.14023494720459">
        <ele>611</ele>
        <time>2019-05-11T14:47:42Z</time>
      </trkpt>
      <trkpt lat="36.7971649169922" lon="-5.14023494720459">
        <ele>611</ele>
        <time>2019-05-11T14:47:44Z</time>
      </trkpt>
      <trkpt lat="36.7971611022949" lon="-5.14023208618164">
        <ele>611</ele>
        <time>2019-05-11T14:47:46Z</time>
      </trkpt>
      <trkpt lat="36.7971611022949" lon="-5.14023685455322">
        <ele>611</ele>
        <time>2019-05-11T14:47:48Z</time>
      </trkpt>
      <trkpt lat="36.7971611022949" lon="-5.14023780822754">
        <ele>612</ele>
        <time>2019-05-11T14:47:50Z</time>
      </trkpt>
      <trkpt lat="36.7971611022949" lon="-5.14023780822754">
        <ele>612</ele>
        <time>2019-05-11T14:47:52Z</time>
      </trkpt>
      <trkpt lat="36.7971572875977" lon="-5.14023303985596">
        <ele>614</ele>
        <time>2019-05-11T14:47:56Z</time>
      </trkpt>
      <trkpt lat="36.7971496582031" lon="-5.1402268409729">
        <ele>614</ele>
        <time>2019-05-11T14:47:58Z</time>
      </trkpt>
      <trkpt lat="36.7971496582031" lon="-5.14022302627564">
        <ele>615</ele>
        <time>2019-05-11T14:48:00Z</time>
      </trkpt>
      <trkpt lat="36.7971496582031" lon="-5.14022493362427">
        <ele>615</ele>
        <time>2019-05-11T14:48:02Z</time>
      </trkpt>
      <trkpt lat="36.7971458435059" lon="-5.1402268409729">
        <ele>616</ele>
        <time>2019-05-11T14:48:04Z</time>
      </trkpt>
      <trkpt lat="36.7971458435059" lon="-5.14023208618164">
        <ele>616</ele>
        <time>2019-05-11T14:48:06Z</time>
      </trkpt>
      <trkpt lat="36.7971496582031" lon="-5.14023685455322">
        <ele>616</ele>
        <time>2019-05-11T14:48:09Z</time>
      </trkpt>
      <trkpt lat="36.7971534729004" lon="-5.14024019241333">
        <ele>616</ele>
        <time>2019-05-11T14:48:11Z</time>
      </trkpt>
      <trkpt lat="36.7971534729004" lon="-5.14024209976196">
        <ele>616</ele>
        <time>2019-05-11T14:48:13Z</time>
      </trkpt>
      <trkpt lat="36.7971572875977" lon="-5.14024496078491">
        <ele>616</ele>
        <time>2019-05-11T14:48:15Z</time>
      </trkpt>
      <trkpt lat="36.7971611022949" lon="-5.14024209976196">
        <ele>616</ele>
        <time>2019-05-11T14:48:17Z</time>
      </trkpt>
      <trkpt lat="36.7971611022949" lon="-5.14024209976196">
        <ele>616</ele>
        <time>2019-05-11T14:48:19Z</time>
      </trkpt>
      <trkpt lat="36.7971611022949" lon="-5.14024305343628">
        <ele>616</ele>
        <time>2019-05-11T14:48:21Z</time>
      </trkpt>
      <trkpt lat="36.7971611022949" lon="-5.14024305343628">
        <ele>616</ele>
        <time>2019-05-11T14:48:23Z</time>
      </trkpt>
      <trkpt lat="36.7971611022949" lon="-5.14024305343628">
        <ele>616</ele>
        <time>2019-05-11T14:48:25Z</time>
      </trkpt>
      <trkpt lat="36.7971611022949" lon="-5.14024019241333">
        <ele>616</ele>
        <time>2019-05-11T14:48:27Z</time>
      </trkpt>
      <trkpt lat="36.7971534729004" lon="-5.14024305343628">
        <ele>616</ele>
        <time>2019-05-11T14:48:29Z</time>
      </trkpt>
      <trkpt lat="36.7971572875977" lon="-5.14024782180786">
        <ele>616</ele>
        <time>2019-05-11T14:48:31Z</time>
      </trkpt>
      <trkpt lat="36.7971534729004" lon="-5.14024686813354">
        <ele>616</ele>
        <time>2019-05-11T14:48:33Z</time>
      </trkpt>
      <trkpt lat="36.7971611022949" lon="-5.14024209976196">
        <ele>616</ele>
        <time>2019-05-11T14:48:35Z</time>
      </trkpt>
      <trkpt lat="36.7971611022949" lon="-5.14023494720459">
        <ele>616</ele>
        <time>2019-05-11T14:48:37Z</time>
      </trkpt>
      <trkpt lat="36.7971534729004" lon="-5.14023017883301">
        <ele>616</ele>
        <time>2019-05-11T14:48:39Z</time>
      </trkpt>
      <trkpt lat="36.7971420288086" lon="-5.14022779464722">
        <ele>616</ele>
        <time>2019-05-11T14:48:41Z</time>
      </trkpt>
      <trkpt lat="36.7971305847168" lon="-5.14022779464722">
        <ele>616</ele>
        <time>2019-05-11T14:48:43Z</time>
      </trkpt>
      <trkpt lat="36.7971305847168" lon="-5.1402268409729">
        <ele>616</ele>
        <time>2019-05-11T14:48:45Z</time>
      </trkpt>
      <trkpt lat="36.7971382141113" lon="-5.14022302627564">
        <ele>616</ele>
        <time>2019-05-11T14:48:47Z</time>
      </trkpt>
      <trkpt lat="36.7971382141113" lon="-5.14022016525269">
        <ele>616</ele>
        <time>2019-05-11T14:48:50Z</time>
      </trkpt>
      <trkpt lat="36.7971343994141" lon="-5.14022302627564">
        <ele>616</ele>
        <time>2019-05-11T14:48:52Z</time>
      </trkpt>
      <trkpt lat="36.7971343994141" lon="-5.14023303985596">
        <ele>616</ele>
        <time>2019-05-11T14:48:54Z</time>
      </trkpt>
      <trkpt lat="36.7971343994141" lon="-5.14024019241333">
        <ele>616</ele>
        <time>2019-05-11T14:48:56Z</time>
      </trkpt>
      <trkpt lat="36.7971343994141" lon="-5.14024686813354">
        <ele>616</ele>
        <time>2019-05-11T14:48:58Z</time>
      </trkpt>
      <trkpt lat="36.7971305847168" lon="-5.14025020599365">
        <ele>616</ele>
        <time>2019-05-11T14:49:00Z</time>
      </trkpt>
      <trkpt lat="36.7971305847168" lon="-5.14025211334228">
        <ele>616</ele>
        <time>2019-05-11T14:49:02Z</time>
      </trkpt>
      <trkpt lat="36.7971267700195" lon="-5.14025688171387">
        <ele>616</ele>
        <time>2019-05-11T14:49:04Z</time>
      </trkpt>
      <trkpt lat="36.7971305847168" lon="-5.14025497436523">
        <ele>616</ele>
        <time>2019-05-11T14:49:06Z</time>
      </trkpt>
      <trkpt lat="36.7971267700195" lon="-5.1402530670166">
        <ele>616</ele>
        <time>2019-05-11T14:49:08Z</time>
      </trkpt>
      <trkpt lat="36.7971229553223" lon="-5.14024782180786">
        <ele>616</ele>
        <time>2019-05-11T14:49:10Z</time>
      </trkpt>
      <trkpt lat="36.7971229553223" lon="-5.14025211334228">
        <ele>616</ele>
        <time>2019-05-11T14:49:12Z</time>
      </trkpt>
      <trkpt lat="36.7971229553223" lon="-5.14024782180786">
        <ele>616</ele>
        <time>2019-05-11T14:49:14Z</time>
      </trkpt>
      <trkpt lat="36.7971267700195" lon="-5.14024686813354">
        <ele>616</ele>
        <time>2019-05-11T14:49:16Z</time>
      </trkpt>
      <trkpt lat="36.7971343994141" lon="-5.14024305343628">
        <ele>616</ele>
        <time>2019-05-11T14:49:18Z</time>
      </trkpt>
      <trkpt lat="36.7971382141113" lon="-5.14024019241333">
        <ele>616</ele>
        <time>2019-05-11T14:49:20Z</time>
      </trkpt>
      <trkpt lat="36.7971420288086" lon="-5.14023494720459">
        <ele>616</ele>
        <time>2019-05-11T14:49:22Z</time>
      </trkpt>
      <trkpt lat="36.7971458435059" lon="-5.1402268409729">
        <ele>616</ele>
        <time>2019-05-11T14:49:24Z</time>
      </trkpt>
      <trkpt lat="36.7971496582031" lon="-5.14021492004394">
        <ele>616</ele>
        <time>2019-05-11T14:49:26Z</time>
      </trkpt>
      <trkpt lat="36.7971534729004" lon="-5.14020681381226">
        <ele>616</ele>
        <time>2019-05-11T14:49:29Z</time>
      </trkpt>
      <trkpt lat="36.7971572875977" lon="-5.14020299911499">
        <ele>616</ele>
        <time>2019-05-11T14:49:31Z</time>
      </trkpt>
      <trkpt lat="36.7971572875977" lon="-5.14020299911499">
        <ele>616</ele>
        <time>2019-05-11T14:49:33Z</time>
      </trkpt>
      <trkpt lat="36.7971534729004" lon="-5.14020490646362">
        <ele>616</ele>
        <time>2019-05-11T14:49:35Z</time>
      </trkpt>
      <trkpt lat="36.7971534729004" lon="-5.14020776748657">
        <ele>616</ele>
        <time>2019-05-11T14:49:37Z</time>
      </trkpt>
      <trkpt lat="36.7971458435059" lon="-5.140212059021">
        <ele>616</ele>
        <time>2019-05-11T14:49:39Z</time>
      </trkpt>
      <trkpt lat="36.7971458435059" lon="-5.14021301269531">
        <ele>616</ele>
        <time>2019-05-11T14:49:41Z</time>
      </trkpt>
      <trkpt lat="36.7971458435059" lon="-5.140212059021">
        <ele>616</ele>
        <time>2019-05-11T14:49:43Z</time>
      </trkpt>
      <trkpt lat="36.7971420288086" lon="-5.14021301269531">
        <ele>616</ele>
        <time>2019-05-11T14:49:45Z</time>
      </trkpt>
      <trkpt lat="36.7971420288086" lon="-5.140212059021">
        <ele>616</ele>
        <time>2019-05-11T14:49:47Z</time>
      </trkpt>
      <trkpt lat="36.7971382141113" lon="-5.14021301269531">
        <ele>616</ele>
        <time>2019-05-11T14:49:49Z</time>
      </trkpt>
      <trkpt lat="36.7971420288086" lon="-5.14021778106689">
        <ele>616</ele>
        <time>2019-05-11T14:49:51Z</time>
      </trkpt>
      <trkpt lat="36.7971382141113" lon="-5.14021682739258">
        <ele>616</ele>
        <time>2019-05-11T14:49:53Z</time>
      </trkpt>
      <trkpt lat="36.7971267700195" lon="-5.14021682739258">
        <ele>616</ele>
        <time>2019-05-11T14:49:55Z</time>
      </trkpt>
      <trkpt lat="36.797119140625" lon="-5.1402268409729">
        <ele>616</ele>
        <time>2019-05-11T14:49:57Z</time>
      </trkpt>
      <trkpt lat="36.7971115112305" lon="-5.14023494720459">
        <ele>616</ele>
        <time>2019-05-11T14:49:59Z</time>
      </trkpt>
      <trkpt lat="36.7971038818359" lon="-5.14023780822754">
        <ele>617</ele>
        <time>2019-05-11T14:50:01Z</time>
      </trkpt>
      <trkpt lat="36.7970962524414" lon="-5.14024209976196">
        <ele>618</ele>
        <time>2019-05-11T14:50:03Z</time>
      </trkpt>
      <trkpt lat="36.7970962524414" lon="-5.14023685455322">
        <ele>618</ele>
        <time>2019-05-11T14:50:05Z</time>
      </trkpt>
      <trkpt lat="36.7971000671387" lon="-5.14023780822754">
        <ele>620</ele>
        <time>2019-05-11T14:50:07Z</time>
      </trkpt>
      <trkpt lat="36.7971076965332" lon="-5.14024019241333">
        <ele>621</ele>
        <time>2019-05-11T14:50:09Z</time>
      </trkpt>
      <trkpt lat="36.797119140625" lon="-5.14023780822754">
        <ele>621</ele>
        <time>2019-05-11T14:50:12Z</time>
      </trkpt>
      <trkpt lat="36.7971267700195" lon="-5.14024782180786">
        <ele>622</ele>
        <time>2019-05-11T14:50:14Z</time>
      </trkpt>
      <trkpt lat="36.7971343994141" lon="-5.14026021957397">
        <ele>622</ele>
        <time>2019-05-11T14:50:16Z</time>
      </trkpt>
      <trkpt lat="36.7971382141113" lon="-5.14026498794556">
        <ele>622</ele>
        <time>2019-05-11T14:50:18Z</time>
      </trkpt>
      <trkpt lat="36.7971420288086" lon="-5.14027214050293">
        <ele>622</ele>
        <time>2019-05-11T14:50:20Z</time>
      </trkpt>
      <trkpt lat="36.7971420288086" lon="-5.14028215408325">
        <ele>622</ele>
        <time>2019-05-11T14:50:22Z</time>
      </trkpt>
      <trkpt lat="36.7971458435059" lon="-5.14028215408325">
        <ele>623</ele>
        <time>2019-05-11T14:50:26Z</time>
      </trkpt>
      <trkpt lat="36.7971572875977" lon="-5.14027976989746">
        <ele>624</ele>
        <time>2019-05-11T14:50:28Z</time>
      </trkpt>
      <trkpt lat="36.7971649169922" lon="-5.14028215408325">
        <ele>625</ele>
        <time>2019-05-11T14:50:30Z</time>
      </trkpt>
      <trkpt lat="36.7971687316894" lon="-5.14028787612915">
        <ele>625</ele>
        <time>2019-05-11T14:50:32Z</time>
      </trkpt>
      <trkpt lat="36.7971687316894" lon="-5.14029502868652">
        <ele>625</ele>
        <time>2019-05-11T14:50:34Z</time>
      </trkpt>
      <trkpt lat="36.7971687316894" lon="-5.14029216766357">
        <ele>625</ele>
        <time>2019-05-11T14:50:36Z</time>
      </trkpt>
      <trkpt lat="36.7971725463867" lon="-5.14028787612915">
        <ele>625</ele>
        <time>2019-05-11T14:50:38Z</time>
      </trkpt>
      <trkpt lat="36.7971725463867" lon="-5.1402850151062">
        <ele>625</ele>
        <time>2019-05-11T14:50:40Z</time>
      </trkpt>
      <trkpt lat="36.7971687316894" lon="-5.14028215408325">
        <ele>625</ele>
        <time>2019-05-11T14:50:42Z</time>
      </trkpt>
      <trkpt lat="36.7971725463867" lon="-5.14027309417725">
        <ele>625</ele>
        <time>2019-05-11T14:50:44Z</time>
      </trkpt>
      <trkpt lat="36.7971687316894" lon="-5.14027214050293">
        <ele>625</ele>
        <time>2019-05-11T14:50:46Z</time>
      </trkpt>
      <trkpt lat="36.7971725463867" lon="-5.14027786254883">
        <ele>625</ele>
        <time>2019-05-11T14:50:48Z</time>
      </trkpt>
      <trkpt lat="36.797176361084" lon="-5.14028310775757">
        <ele>625</ele>
        <time>2019-05-11T14:50:50Z</time>
      </trkpt>
      <trkpt lat="36.7971839904785" lon="-5.1402850151062">
        <ele>625</ele>
        <time>2019-05-11T14:50:53Z</time>
      </trkpt>
      <trkpt lat="36.7971839904785" lon="-5.14029502868652">
        <ele>625</ele>
        <time>2019-05-11T14:50:55Z</time>
      </trkpt>
      <trkpt lat="36.7971878051758" lon="-5.14029788970947">
        <ele>625</ele>
        <time>2019-05-11T14:50:57Z</time>
      </trkpt>
      <trkpt lat="36.7971878051758" lon="-5.14030313491821">
        <ele>624</ele>
        <time>2019-05-11T14:50:59Z</time>
      </trkpt>
      <trkpt lat="36.797191619873" lon="-5.14030981063843">
        <ele>624</ele>
        <time>2019-05-11T14:51:01Z</time>
      </trkpt>
      <trkpt lat="36.797191619873" lon="-5.14031314849854">
        <ele>623</ele>
        <time>2019-05-11T14:51:03Z</time>
      </trkpt>
      <trkpt lat="36.7971839904785" lon="-5.14031791687012">
        <ele>623</ele>
        <time>2019-05-11T14:51:05Z</time>
      </trkpt>
      <trkpt lat="36.7971801757812" lon="-5.14032793045044">
        <ele>623</ele>
        <time>2019-05-11T14:51:07Z</time>
      </trkpt>
      <trkpt lat="36.797176361084" lon="-5.14033508300781">
        <ele>623</ele>
        <time>2019-05-11T14:51:09Z</time>
      </trkpt>
      <trkpt lat="36.797176361084" lon="-5.14033317565918">
        <ele>623</ele>
        <time>2019-05-11T14:51:11Z</time>
      </trkpt>
      <trkpt lat="36.7971611022949" lon="-5.14033508300781">
        <ele>623</ele>
        <time>2019-05-11T14:51:15Z</time>
      </trkpt>
      <trkpt lat="36.7971611022949" lon="-5.14033794403076">
        <ele>623</ele>
        <time>2019-05-11T14:51:17Z</time>
      </trkpt>
      <trkpt lat="36.7971611022949" lon="-5.14033317565918">
        <ele>623</ele>
        <time>2019-05-11T14:51:19Z</time>
      </trkpt>
      <trkpt lat="36.7971572875977" lon="-5.14032983779907">
        <ele>623</ele>
        <time>2019-05-11T14:51:21Z</time>
      </trkpt>
      <trkpt lat="36.7971572875977" lon="-5.14032793045044">
        <ele>623</ele>
        <time>2019-05-11T14:51:23Z</time>
      </trkpt>
      <trkpt lat="36.7971534729004" lon="-5.14032220840454">
        <ele>623</ele>
        <time>2019-05-11T14:51:25Z</time>
      </trkpt>
      <trkpt lat="36.7971534729004" lon="-5.14031505584717">
        <ele>623</ele>
        <time>2019-05-11T14:51:27Z</time>
      </trkpt>
      <trkpt lat="36.7971534729004" lon="-5.14031219482422">
        <ele>623</ele>
        <time>2019-05-11T14:51:29Z</time>
      </trkpt>
      <trkpt lat="36.7971496582031" lon="-5.14030981063843">
        <ele>623</ele>
        <time>2019-05-11T14:51:32Z</time>
      </trkpt>
      <trkpt lat="36.7971534729004" lon="-5.14030694961548">
        <ele>623</ele>
        <time>2019-05-11T14:51:34Z</time>
      </trkpt>
      <trkpt lat="36.7971496582031" lon="-5.1403021812439">
        <ele>623</ele>
        <time>2019-05-11T14:51:36Z</time>
      </trkpt>
      <trkpt lat="36.7971496582031" lon="-5.14029216766357">
        <ele>623</ele>
        <time>2019-05-11T14:51:38Z</time>
      </trkpt>
      <trkpt lat="36.7971458435059" lon="-5.14029312133789">
        <ele>621</ele>
        <time>2019-05-11T14:51:42Z</time>
      </trkpt>
      <trkpt lat="36.7971458435059" lon="-5.14029312133789">
        <ele>621</ele>
        <time>2019-05-11T14:51:44Z</time>
      </trkpt>
      <trkpt lat="36.7971420288086" lon="-5.14029216766357">
        <ele>621</ele>
        <time>2019-05-11T14:51:46Z</time>
      </trkpt>
      <trkpt lat="36.7971420288086" lon="-5.14028978347778">
        <ele>621</ele>
        <time>2019-05-11T14:51:48Z</time>
      </trkpt>
      <trkpt lat="36.7971420288086" lon="-5.14028978347778">
        <ele>621</ele>
        <time>2019-05-11T14:51:50Z</time>
      </trkpt>
      <trkpt lat="36.7971420288086" lon="-5.14028787612915">
        <ele>621</ele>
        <time>2019-05-11T14:51:52Z</time>
      </trkpt>
      <trkpt lat="36.7971420288086" lon="-5.14028978347778">
        <ele>621</ele>
        <time>2019-05-11T14:51:54Z</time>
      </trkpt>
      <trkpt lat="36.7971458435059" lon="-5.1402850151062">
        <ele>621</ele>
        <time>2019-05-11T14:51:56Z</time>
      </trkpt>
      <trkpt lat="36.7971458435059" lon="-5.14028692245483">
        <ele>621</ele>
        <time>2019-05-11T14:51:58Z</time>
      </trkpt>
      <trkpt lat="36.7971496582031" lon="-5.14029788970947">
        <ele>621</ele>
        <time>2019-05-11T14:52:02Z</time>
      </trkpt>
      <trkpt lat="36.7971458435059" lon="-5.14029693603516">
        <ele>621</ele>
        <time>2019-05-11T14:52:04Z</time>
      </trkpt>
      <trkpt lat="36.7971458435059" lon="-5.14028978347778">
        <ele>621</ele>
        <time>2019-05-11T14:52:06Z</time>
      </trkpt>
      <trkpt lat="36.7971496582031" lon="-5.14028787612915">
        <ele>621</ele>
        <time>2019-05-11T14:52:08Z</time>
      </trkpt>
      <trkpt lat="36.7971458435059" lon="-5.14028787612915">
        <ele>621</ele>
        <time>2019-05-11T14:52:10Z</time>
      </trkpt>
      <trkpt lat="36.7971458435059" lon="-5.14029502868652">
        <ele>621</ele>
        <time>2019-05-11T14:52:14Z</time>
      </trkpt>
      <trkpt lat="36.7971458435059" lon="-5.14029502868652">
        <ele>621</ele>
        <time>2019-05-11T14:52:16Z</time>
      </trkpt>
      <trkpt lat="36.7971420288086" lon="-5.14029312133789">
        <ele>621</ele>
        <time>2019-05-11T14:52:18Z</time>
      </trkpt>
      <trkpt lat="36.7971420288086" lon="-5.14029216766357">
        <ele>621</ele>
        <time>2019-05-11T14:52:20Z</time>
      </trkpt>
      <trkpt lat="36.7971382141113" lon="-5.14029312133789">
        <ele>621</ele>
        <time>2019-05-11T14:52:22Z</time>
      </trkpt>
      <trkpt lat="36.7971382141113" lon="-5.14029312133789">
        <ele>621</ele>
        <time>2019-05-11T14:52:24Z</time>
      </trkpt>
      <trkpt lat="36.7971420288086" lon="-5.14027976989746">
        <ele>621</ele>
        <time>2019-05-11T14:52:29Z</time>
      </trkpt>
      <trkpt lat="36.7971458435059" lon="-5.1402702331543">
        <ele>621</ele>
        <time>2019-05-11T14:52:31Z</time>
      </trkpt>
      <trkpt lat="36.7971496582031" lon="-5.14026212692261">
        <ele>621</ele>
        <time>2019-05-11T14:52:35Z</time>
      </trkpt>
      <trkpt lat="36.7971496582031" lon="-5.14025688171387">
        <ele>620</ele>
        <time>2019-05-11T14:52:37Z</time>
      </trkpt>
      <trkpt lat="36.7971496582031" lon="-5.1402530670166">
        <ele>619</ele>
        <time>2019-05-11T14:52:39Z</time>
      </trkpt>
      <trkpt lat="36.7971496582031" lon="-5.1402530670166">
        <ele>619</ele>
        <time>2019-05-11T14:52:41Z</time>
      </trkpt>
      <trkpt lat="36.7971496582031" lon="-5.14025020599365">
        <ele>618</ele>
        <time>2019-05-11T14:52:43Z</time>
      </trkpt>
      <trkpt lat="36.7971496582031" lon="-5.14025020599365">
        <ele>618</ele>
        <time>2019-05-11T14:52:45Z</time>
      </trkpt>
      <trkpt lat="36.7971458435059" lon="-5.14025020599365">
        <ele>618</ele>
        <time>2019-05-11T14:52:47Z</time>
      </trkpt>
      <trkpt lat="36.7971420288086" lon="-5.14025020599365">
        <ele>618</ele>
        <time>2019-05-11T14:52:49Z</time>
      </trkpt>
      <trkpt lat="36.7971420288086" lon="-5.14024686813354">
        <ele>618</ele>
        <time>2019-05-11T14:52:51Z</time>
      </trkpt>
      <trkpt lat="36.7971420288086" lon="-5.14023780822754">
        <ele>617</ele>
        <time>2019-05-11T14:52:53Z</time>
      </trkpt>
      <trkpt lat="36.7971420288086" lon="-5.14023017883301">
        <ele>616</ele>
        <time>2019-05-11T14:52:55Z</time>
      </trkpt>
      <trkpt lat="36.7971496582031" lon="-5.140212059021">
        <ele>616</ele>
        <time>2019-05-11T14:52:57Z</time>
      </trkpt>
      <trkpt lat="36.7971534729004" lon="-5.14020204544067">
        <ele>614</ele>
        <time>2019-05-11T14:52:59Z</time>
      </trkpt>
      <trkpt lat="36.7971572875977" lon="-5.14020013809204">
        <ele>612</ele>
        <time>2019-05-11T14:53:01Z</time>
      </trkpt>
      <trkpt lat="36.7971611022949" lon="-5.14020013809204">
        <ele>610</ele>
        <time>2019-05-11T14:53:03Z</time>
      </trkpt>
      <trkpt lat="36.7971611022949" lon="-5.14019823074341">
        <ele>609</ele>
        <time>2019-05-11T14:53:05Z</time>
      </trkpt>
      <trkpt lat="36.7971687316894" lon="-5.14020013809204">
        <ele>608</ele>
        <time>2019-05-11T14:53:07Z</time>
      </trkpt>
      <trkpt lat="36.7971725463867" lon="-5.14019823074341">
        <ele>606</ele>
        <time>2019-05-11T14:53:11Z</time>
      </trkpt>
      <trkpt lat="36.797176361084" lon="-5.14019823074341">
        <ele>606</ele>
        <time>2019-05-11T14:53:13Z</time>
      </trkpt>
      <trkpt lat="36.797176361084" lon="-5.14020013809204">
        <ele>606</ele>
        <time>2019-05-11T14:53:16Z</time>
      </trkpt>
      <trkpt lat="36.7971801757812" lon="-5.14020204544067">
        <ele>606</ele>
        <time>2019-05-11T14:53:18Z</time>
      </trkpt>
      <trkpt lat="36.7971839904785" lon="-5.14020490646362">
        <ele>606</ele>
        <time>2019-05-11T14:53:20Z</time>
      </trkpt>
      <trkpt lat="36.7971954345703" lon="-5.14020299911499">
        <ele>606</ele>
        <time>2019-05-11T14:53:24Z</time>
      </trkpt>
      <trkpt lat="36.7971954345703" lon="-5.14020299911499">
        <ele>606</ele>
        <time>2019-05-11T14:53:26Z</time>
      </trkpt>
      <trkpt lat="36.7971992492676" lon="-5.14020490646362">
        <ele>606</ele>
        <time>2019-05-11T14:53:28Z</time>
      </trkpt>
      <trkpt lat="36.7971992492676" lon="-5.14020681381226">
        <ele>606</ele>
        <time>2019-05-11T14:53:30Z</time>
      </trkpt>
      <trkpt lat="36.7971992492676" lon="-5.14021015167236">
        <ele>606</ele>
        <time>2019-05-11T14:53:32Z</time>
      </trkpt>
      <trkpt lat="36.7972030639648" lon="-5.14021301269531">
        <ele>606</ele>
        <time>2019-05-11T14:53:34Z</time>
      </trkpt>
      <trkpt lat="36.7972068786621" lon="-5.140212059021">
        <ele>606</ele>
        <time>2019-05-11T14:53:36Z</time>
      </trkpt>
      <trkpt lat="36.7972068786621" lon="-5.14021301269531">
        <ele>606</ele>
        <time>2019-05-11T14:53:38Z</time>
      </trkpt>
      <trkpt lat="36.7972068786621" lon="-5.14021301269531">
        <ele>606</ele>
        <time>2019-05-11T14:53:40Z</time>
      </trkpt>
      <trkpt lat="36.7972106933594" lon="-5.140212059021">
        <ele>606</ele>
        <time>2019-05-11T14:53:42Z</time>
      </trkpt>
      <trkpt lat="36.7972183227539" lon="-5.14021301269531">
        <ele>606</ele>
        <time>2019-05-11T14:53:44Z</time>
      </trkpt>
      <trkpt lat="36.7972183227539" lon="-5.14021301269531">
        <ele>606</ele>
        <time>2019-05-11T14:53:46Z</time>
      </trkpt>
      <trkpt lat="36.7972145080566" lon="-5.14021778106689">
        <ele>606</ele>
        <time>2019-05-11T14:53:48Z</time>
      </trkpt>
      <trkpt lat="36.7972068786621" lon="-5.14022016525269">
        <ele>606</ele>
        <time>2019-05-11T14:53:50Z</time>
      </trkpt>
      <trkpt lat="36.7972068786621" lon="-5.14022016525269">
        <ele>606</ele>
        <time>2019-05-11T14:53:52Z</time>
      </trkpt>
      <trkpt lat="36.7972068786621" lon="-5.14022493362427">
        <ele>607</ele>
        <time>2019-05-11T14:53:54Z</time>
      </trkpt>
      <trkpt lat="36.7972106933594" lon="-5.14022493362427">
        <ele>609</ele>
        <time>2019-05-11T14:53:58Z</time>
      </trkpt>
      <trkpt lat="36.7972106933594" lon="-5.14023017883301">
        <ele>609</ele>
        <time>2019-05-11T14:54:01Z</time>
      </trkpt>
      <trkpt lat="36.7972068786621" lon="-5.14023017883301">
        <ele>610</ele>
        <time>2019-05-11T14:54:03Z</time>
      </trkpt>
      <trkpt lat="36.7972145080566" lon="-5.14023017883301">
        <ele>611</ele>
        <time>2019-05-11T14:54:05Z</time>
      </trkpt>
      <trkpt lat="36.7972106933594" lon="-5.1402268409729">
        <ele>611</ele>
        <time>2019-05-11T14:54:07Z</time>
      </trkpt>
      <trkpt lat="36.7972068786621" lon="-5.14021778106689">
        <ele>612</ele>
        <time>2019-05-11T14:54:09Z</time>
      </trkpt>
      <trkpt lat="36.7972068786621" lon="-5.14021778106689">
        <ele>612</ele>
        <time>2019-05-11T14:54:11Z</time>
      </trkpt>
      <trkpt lat="36.797191619873" lon="-5.14021301269531">
        <ele>612</ele>
        <time>2019-05-11T14:54:13Z</time>
      </trkpt>
      <trkpt lat="36.7971839904785" lon="-5.14021015167236">
        <ele>612</ele>
        <time>2019-05-11T14:54:15Z</time>
      </trkpt>
      <trkpt lat="36.7971801757812" lon="-5.14021682739258">
        <ele>612</ele>
        <time>2019-05-11T14:54:17Z</time>
      </trkpt>
      <trkpt lat="36.7971839904785" lon="-5.14022207260132">
        <ele>612</ele>
        <time>2019-05-11T14:54:19Z</time>
      </trkpt>
      <trkpt lat="36.7971839904785" lon="-5.14022493362427">
        <ele>612</ele>
        <time>2019-05-11T14:54:21Z</time>
      </trkpt>
      <trkpt lat="36.7971801757812" lon="-5.14023017883301">
        <ele>612</ele>
        <time>2019-05-11T14:54:23Z</time>
      </trkpt>
      <trkpt lat="36.797176361084" lon="-5.14023208618164">
        <ele>612</ele>
        <time>2019-05-11T14:54:25Z</time>
      </trkpt>
      <trkpt lat="36.7971725463867" lon="-5.14023685455322">
        <ele>612</ele>
        <time>2019-05-11T14:54:27Z</time>
      </trkpt>
      <trkpt lat="36.7971687316894" lon="-5.14024019241333">
        <ele>612</ele>
        <time>2019-05-11T14:54:31Z</time>
      </trkpt>
      <trkpt lat="36.7971687316894" lon="-5.14024019241333">
        <ele>612</ele>
        <time>2019-05-11T14:54:33Z</time>
      </trkpt>
      <trkpt lat="36.7971687316894" lon="-5.14023780822754">
        <ele>612</ele>
        <time>2019-05-11T14:54:35Z</time>
      </trkpt>
      <trkpt lat="36.7971687316894" lon="-5.14023303985596">
        <ele>612</ele>
        <time>2019-05-11T14:54:37Z</time>
      </trkpt>
      <trkpt lat="36.7971725463867" lon="-5.14022779464722">
        <ele>611</ele>
        <time>2019-05-11T14:54:39Z</time>
      </trkpt>
      <trkpt lat="36.7971725463867" lon="-5.14023017883301">
        <ele>611</ele>
        <time>2019-05-11T14:54:41Z</time>
      </trkpt>
      <trkpt lat="36.7971725463867" lon="-5.14023303985596">
        <ele>610</ele>
        <time>2019-05-11T14:54:43Z</time>
      </trkpt>
      <trkpt lat="36.7971687316894" lon="-5.14023685455322">
        <ele>610</ele>
        <time>2019-05-11T14:54:45Z</time>
      </trkpt>
      <trkpt lat="36.7971687316894" lon="-5.14024209976196">
        <ele>610</ele>
        <time>2019-05-11T14:54:50Z</time>
      </trkpt>
      <trkpt lat="36.7971725463867" lon="-5.14024305343628">
        <ele>609</ele>
        <time>2019-05-11T14:54:56Z</time>
      </trkpt>
      <trkpt lat="36.7971725463867" lon="-5.14024496078491">
        <ele>609</ele>
        <time>2019-05-11T14:54:58Z</time>
      </trkpt>
      <trkpt lat="36.7971725463867" lon="-5.14024209976196">
        <ele>608</ele>
        <time>2019-05-11T14:55:00Z</time>
      </trkpt>
      <trkpt lat="36.797176361084" lon="-5.14023780822754">
        <ele>607</ele>
        <time>2019-05-11T14:55:02Z</time>
      </trkpt>
      <trkpt lat="36.797176361084" lon="-5.14023685455322">
        <ele>606</ele>
        <time>2019-05-11T14:55:04Z</time>
      </trkpt>
      <trkpt lat="36.7971839904785" lon="-5.14024019241333">
        <ele>605</ele>
        <time>2019-05-11T14:55:06Z</time>
      </trkpt>
      <trkpt lat="36.7971839904785" lon="-5.14024496078491">
        <ele>604</ele>
        <time>2019-05-11T14:55:08Z</time>
      </trkpt>
      <trkpt lat="36.7971878051758" lon="-5.1402530670166">
        <ele>604</ele>
        <time>2019-05-11T14:55:10Z</time>
      </trkpt>
      <trkpt lat="36.797191619873" lon="-5.14026021957397">
        <ele>603</ele>
        <time>2019-05-11T14:55:12Z</time>
      </trkpt>
      <trkpt lat="36.7971954345703" lon="-5.14026021957397">
        <ele>602</ele>
        <time>2019-05-11T14:55:14Z</time>
      </trkpt>
      <trkpt lat="36.7971954345703" lon="-5.14026784896851">
        <ele>602</ele>
        <time>2019-05-11T14:55:16Z</time>
      </trkpt>
      <trkpt lat="36.7971992492676" lon="-5.14027786254883">
        <ele>602</ele>
        <time>2019-05-11T14:55:18Z</time>
      </trkpt>
      <trkpt lat="36.7972030639648" lon="-5.14028310775757">
        <ele>602</ele>
        <time>2019-05-11T14:55:20Z</time>
      </trkpt>
      <trkpt lat="36.7972068786621" lon="-5.1402850151062">
        <ele>602</ele>
        <time>2019-05-11T14:55:22Z</time>
      </trkpt>
      <trkpt lat="36.7972068786621" lon="-5.14028787612915">
        <ele>602</ele>
        <time>2019-05-11T14:55:24Z</time>
      </trkpt>
      <trkpt lat="36.7972106933594" lon="-5.14029216766357">
        <ele>602</ele>
        <time>2019-05-11T14:55:26Z</time>
      </trkpt>
      <trkpt lat="36.7972106933594" lon="-5.14029788970947">
        <ele>602</ele>
        <time>2019-05-11T14:55:28Z</time>
      </trkpt>
      <trkpt lat="36.7972106933594" lon="-5.14029788970947">
        <ele>602</ele>
        <time>2019-05-11T14:55:30Z</time>
      </trkpt>
      <trkpt lat="36.7972106933594" lon="-5.14029788970947">
        <ele>602</ele>
        <time>2019-05-11T14:55:33Z</time>
      </trkpt>
      <trkpt lat="36.7972183227539" lon="-5.1403021812439">
        <ele>602</ele>
        <time>2019-05-11T14:55:35Z</time>
      </trkpt>
      <trkpt lat="36.7972221374512" lon="-5.14030504226685">
        <ele>603</ele>
        <time>2019-05-11T14:55:37Z</time>
      </trkpt>
      <trkpt lat="36.7972030639648" lon="-5.14028978347778">
        <ele>604</ele>
        <time>2019-05-11T14:55:39Z</time>
      </trkpt>
      <trkpt lat="36.7971687316894" lon="-5.14027309417725">
        <ele>604</ele>
        <time>2019-05-11T14:55:41Z</time>
      </trkpt>
      <trkpt lat="36.7970733642578" lon="-5.14025783538818">
        <ele>604</ele>
        <time>2019-05-11T14:55:47Z</time>
      </trkpt>
      <trkpt lat="36.7970657348633" lon="-5.14024782180786">
        <ele>604</ele>
        <time>2019-05-11T14:55:49Z</time>
      </trkpt>
      <trkpt lat="36.7970657348633" lon="-5.14023780822754">
        <ele>604</ele>
        <time>2019-05-11T14:55:51Z</time>
      </trkpt>
      <trkpt lat="36.7970733642578" lon="-5.14021778106689">
        <ele>604</ele>
        <time>2019-05-11T14:55:53Z</time>
      </trkpt>
      <trkpt lat="36.7970809936523" lon="-5.14020299911499">
        <ele>604</ele>
        <time>2019-05-11T14:55:55Z</time>
      </trkpt>
      <trkpt lat="36.7970962524414" lon="-5.14020776748657">
        <ele>604</ele>
        <time>2019-05-11T14:55:57Z</time>
      </trkpt>
      <trkpt lat="36.7971076965332" lon="-5.14021682739258">
        <ele>604</ele>
        <time>2019-05-11T14:55:59Z</time>
      </trkpt>
      <trkpt lat="36.797119140625" lon="-5.14019012451172">
        <ele>604</ele>
        <time>2019-05-11T14:56:01Z</time>
      </trkpt>
      <trkpt lat="36.7971305847168" lon="-5.14016199111938">
        <ele>604</ele>
        <time>2019-05-11T14:56:03Z</time>
      </trkpt>
      <trkpt lat="36.7971305847168" lon="-5.1401572227478">
        <ele>604</ele>
        <time>2019-05-11T14:56:05Z</time>
      </trkpt>
      <trkpt lat="36.7971382141113" lon="-5.14016485214233">
        <ele>604</ele>
        <time>2019-05-11T14:56:07Z</time>
      </trkpt>
      <trkpt lat="36.7971496582031" lon="-5.1401572227478">
        <ele>604</ele>
        <time>2019-05-11T14:56:09Z</time>
      </trkpt>
      <trkpt lat="36.7971572875977" lon="-5.14015817642212">
        <ele>604</ele>
        <time>2019-05-11T14:56:11Z</time>
      </trkpt>
      <trkpt lat="36.7971611022949" lon="-5.14016199111938">
        <ele>604</ele>
        <time>2019-05-11T14:56:14Z</time>
      </trkpt>
      <trkpt lat="36.7971611022949" lon="-5.14016819000244">
        <ele>604</ele>
        <time>2019-05-11T14:56:16Z</time>
      </trkpt>
      <trkpt lat="36.7971611022949" lon="-5.14017820358276">
        <ele>604</ele>
        <time>2019-05-11T14:56:18Z</time>
      </trkpt>
      <trkpt lat="36.7971611022949" lon="-5.14019680023193">
        <ele>604</ele>
        <time>2019-05-11T14:56:20Z</time>
      </trkpt>
      <trkpt lat="36.7971534729004" lon="-5.14022207260132">
        <ele>606</ele>
        <time>2019-05-11T14:56:22Z</time>
      </trkpt>
      <trkpt lat="36.7971534729004" lon="-5.14023685455322">
        <ele>608</ele>
        <time>2019-05-11T14:56:24Z</time>
      </trkpt>
      <trkpt lat="36.7971534729004" lon="-5.14028215408325">
        <ele>612</ele>
        <time>2019-05-11T14:56:28Z</time>
      </trkpt>
      <trkpt lat="36.7971534729004" lon="-5.14028978347778">
        <ele>614</ele>
        <time>2019-05-11T14:56:30Z</time>
      </trkpt>
      <trkpt lat="36.7971534729004" lon="-5.1403021812439">
        <ele>616</ele>
        <time>2019-05-11T14:56:32Z</time>
      </trkpt>
      <trkpt lat="36.7971496582031" lon="-5.14031982421875">
        <ele>618</ele>
        <time>2019-05-11T14:56:34Z</time>
      </trkpt>
      <trkpt lat="36.7971420288086" lon="-5.14031982421875">
        <ele>623</ele>
        <time>2019-05-11T14:56:40Z</time>
      </trkpt>
      <trkpt lat="36.7971458435059" lon="-5.14031505584717">
        <ele>623</ele>
        <time>2019-05-11T14:56:44Z</time>
      </trkpt>
      <trkpt lat="36.7971534729004" lon="-5.14030504226685">
        <ele>623</ele>
        <time>2019-05-11T14:56:46Z</time>
      </trkpt>
      <trkpt lat="36.7971611022949" lon="-5.14030313491821">
        <ele>623</ele>
        <time>2019-05-11T14:56:48Z</time>
      </trkpt>
      <trkpt lat="36.7971611022949" lon="-5.1403021812439">
        <ele>621</ele>
        <time>2019-05-11T14:56:50Z</time>
      </trkpt>
      <trkpt lat="36.797176361084" lon="-5.14027976989746">
        <ele>621</ele>
        <time>2019-05-11T14:56:55Z</time>
      </trkpt>
      <trkpt lat="36.7971801757812" lon="-5.14027309417725">
        <ele>621</ele>
        <time>2019-05-11T14:56:57Z</time>
      </trkpt>
      <trkpt lat="36.7971839904785" lon="-5.14027500152588">
        <ele>621</ele>
        <time>2019-05-11T14:56:59Z</time>
      </trkpt>
      <trkpt lat="36.797191619873" lon="-5.14027976989746">
        <ele>621</ele>
        <time>2019-05-11T14:57:01Z</time>
      </trkpt>
      <trkpt lat="36.797191619873" lon="-5.14028215408325">
        <ele>621</ele>
        <time>2019-05-11T14:57:03Z</time>
      </trkpt>
      <trkpt lat="36.7972068786621" lon="-5.14028215408325">
        <ele>621</ele>
        <time>2019-05-11T14:57:05Z</time>
      </trkpt>
      <trkpt lat="36.7972106933594" lon="-5.14027786254883">
        <ele>621</ele>
        <time>2019-05-11T14:57:07Z</time>
      </trkpt>
      <trkpt lat="36.7972145080566" lon="-5.14028215408325">
        <ele>621</ele>
        <time>2019-05-11T14:57:09Z</time>
      </trkpt>
      <trkpt lat="36.7972221374512" lon="-5.14027500152588">
        <ele>621</ele>
        <time>2019-05-11T14:57:11Z</time>
      </trkpt>
      <trkpt lat="36.7972259521484" lon="-5.14027214050293">
        <ele>619</ele>
        <time>2019-05-11T14:57:13Z</time>
      </trkpt>
      <trkpt lat="36.7972259521484" lon="-5.14027500152588">
        <ele>618</ele>
        <time>2019-05-11T14:57:15Z</time>
      </trkpt>
      <trkpt lat="36.7972221374512" lon="-5.14027976989746">
        <ele>616</ele>
        <time>2019-05-11T14:57:17Z</time>
      </trkpt>
      <trkpt lat="36.7972183227539" lon="-5.14028310775757">
        <ele>616</ele>
        <time>2019-05-11T14:57:19Z</time>
      </trkpt>
      <trkpt lat="36.7972145080566" lon="-5.1402850151062">
        <ele>616</ele>
        <time>2019-05-11T14:57:21Z</time>
      </trkpt>
      <trkpt lat="36.7972106933594" lon="-5.1402850151062">
        <ele>616</ele>
        <time>2019-05-11T14:57:23Z</time>
      </trkpt>
      <trkpt lat="36.7972106933594" lon="-5.1402850151062">
        <ele>616</ele>
        <time>2019-05-11T14:57:25Z</time>
      </trkpt>
      <trkpt lat="36.7972106933594" lon="-5.14028692245483">
        <ele>616</ele>
        <time>2019-05-11T14:57:27Z</time>
      </trkpt>
      <trkpt lat="36.7972106933594" lon="-5.14028692245483">
        <ele>616</ele>
        <time>2019-05-11T14:57:30Z</time>
      </trkpt>
      <trkpt lat="36.7971992492676" lon="-5.14029693603516">
        <ele>616</ele>
        <time>2019-05-11T14:57:34Z</time>
      </trkpt>
      <trkpt lat="36.7971725463867" lon="-5.14029788970947">
        <ele>616</ele>
        <time>2019-05-11T14:57:36Z</time>
      </trkpt>
      <trkpt lat="36.7971725463867" lon="-5.14028978347778">
        <ele>616</ele>
        <time>2019-05-11T14:57:40Z</time>
      </trkpt>
      <trkpt lat="36.7971801757812" lon="-5.14028787612915">
        <ele>616</ele>
        <time>2019-05-11T14:57:42Z</time>
      </trkpt>
      <trkpt lat="36.7971839904785" lon="-5.14028692245483">
        <ele>616</ele>
        <time>2019-05-11T14:57:44Z</time>
      </trkpt>
      <trkpt lat="36.7971992492676" lon="-5.14027690887451">
        <ele>616</ele>
        <time>2019-05-11T14:57:46Z</time>
      </trkpt>
      <trkpt lat="36.7972145080566" lon="-5.14026498794556">
        <ele>616</ele>
        <time>2019-05-11T14:57:48Z</time>
      </trkpt>
      <trkpt lat="36.7972221374512" lon="-5.14026212692261">
        <ele>615</ele>
        <time>2019-05-11T14:57:50Z</time>
      </trkpt>
      <trkpt lat="36.797233581543" lon="-5.14026212692261">
        <ele>614</ele>
        <time>2019-05-11T14:57:52Z</time>
      </trkpt>
      <trkpt lat="36.7972412109375" lon="-5.14025497436523">
        <ele>613</ele>
        <time>2019-05-11T14:57:54Z</time>
      </trkpt>
      <trkpt lat="36.7972373962402" lon="-5.14025497436523">
        <ele>611</ele>
        <time>2019-05-11T14:57:56Z</time>
      </trkpt>
      <trkpt lat="36.7972373962402" lon="-5.14025211334228">
        <ele>611</ele>
        <time>2019-05-11T14:57:58Z</time>
      </trkpt>
      <trkpt lat="36.7972412109375" lon="-5.14025020599365">
        <ele>610</ele>
        <time>2019-05-11T14:58:00Z</time>
      </trkpt>
      <trkpt lat="36.7972412109375" lon="-5.14025211334228">
        <ele>609</ele>
        <time>2019-05-11T14:58:02Z</time>
      </trkpt>
      <trkpt lat="36.797233581543" lon="-5.1402530670166">
        <ele>607</ele>
        <time>2019-05-11T14:58:06Z</time>
      </trkpt>
      <trkpt lat="36.797233581543" lon="-5.14025783538818">
        <ele>606</ele>
        <time>2019-05-11T14:58:08Z</time>
      </trkpt>
      <trkpt lat="36.7972259521484" lon="-5.14026021957397">
        <ele>606</ele>
        <time>2019-05-11T14:58:10Z</time>
      </trkpt>
      <trkpt lat="36.7972221374512" lon="-5.14025783538818">
        <ele>606</ele>
        <time>2019-05-11T14:58:13Z</time>
      </trkpt>
      <trkpt lat="36.7972221374512" lon="-5.14026498794556">
        <ele>605</ele>
        <time>2019-05-11T14:58:17Z</time>
      </trkpt>
      <trkpt lat="36.7972221374512" lon="-5.14026689529419">
        <ele>605</ele>
        <time>2019-05-11T14:58:19Z</time>
      </trkpt>
      <trkpt lat="36.7972183227539" lon="-5.1402702331543">
        <ele>605</ele>
        <time>2019-05-11T14:58:21Z</time>
      </trkpt>
      <trkpt lat="36.7972145080566" lon="-5.14027786254883">
        <ele>605</ele>
        <time>2019-05-11T14:58:23Z</time>
      </trkpt>
      <trkpt lat="36.7972106933594" lon="-5.14028310775757">
        <ele>605</ele>
        <time>2019-05-11T14:58:25Z</time>
      </trkpt>
      <trkpt lat="36.7972068786621" lon="-5.14027976989746">
        <ele>605</ele>
        <time>2019-05-11T14:58:27Z</time>
      </trkpt>
      <trkpt lat="36.7972068786621" lon="-5.14027690887451">
        <ele>604</ele>
        <time>2019-05-11T14:58:31Z</time>
      </trkpt>
      <trkpt lat="36.7972068786621" lon="-5.14027690887451">
        <ele>604</ele>
        <time>2019-05-11T14:58:33Z</time>
      </trkpt>
      <trkpt lat="36.7972068786621" lon="-5.14029216766357">
        <ele>604</ele>
        <time>2019-05-11T14:58:37Z</time>
      </trkpt>
      <trkpt lat="36.7972030639648" lon="-5.1403021812439">
        <ele>604</ele>
        <time>2019-05-11T14:58:39Z</time>
      </trkpt>
      <trkpt lat="36.7971992492676" lon="-5.14031219482422">
        <ele>604</ele>
        <time>2019-05-11T14:58:41Z</time>
      </trkpt>
      <trkpt lat="36.7971954345703" lon="-5.14032220840454">
        <ele>605</ele>
        <time>2019-05-11T14:58:43Z</time>
      </trkpt>
      <trkpt lat="36.7971954345703" lon="-5.14033222198486">
        <ele>607</ele>
        <time>2019-05-11T14:58:45Z</time>
      </trkpt>
      <trkpt lat="36.7971992492676" lon="-5.14033985137939">
        <ele>610</ele>
        <time>2019-05-11T14:58:49Z</time>
      </trkpt>
      <trkpt lat="36.7971954345703" lon="-5.14033794403076">
        <ele>611</ele>
        <time>2019-05-11T14:58:51Z</time>
      </trkpt>
      <trkpt lat="36.7971954345703" lon="-5.14033699035644">
        <ele>611</ele>
        <time>2019-05-11T14:58:53Z</time>
      </trkpt>
      <trkpt lat="36.797191619873" lon="-5.14033699035644">
        <ele>612</ele>
        <time>2019-05-11T14:59:00Z</time>
      </trkpt>
      <trkpt lat="36.797191619873" lon="-5.14033985137939">
        <ele>612</ele>
        <time>2019-05-11T14:59:02Z</time>
      </trkpt>
      <trkpt lat="36.7971954345703" lon="-5.1403431892395">
        <ele>612</ele>
        <time>2019-05-11T14:59:08Z</time>
      </trkpt>
      <trkpt lat="36.7971992492676" lon="-5.14034223556519">
        <ele>613</ele>
        <time>2019-05-11T14:59:12Z</time>
      </trkpt>
      <trkpt lat="36.7971992492676" lon="-5.14033794403076">
        <ele>614</ele>
        <time>2019-05-11T14:59:16Z</time>
      </trkpt>
      <trkpt lat="36.7972030639648" lon="-5.14033508300781">
        <ele>614</ele>
        <time>2019-05-11T14:59:18Z</time>
      </trkpt>
      <trkpt lat="36.7972068786621" lon="-5.14033508300781">
        <ele>614</ele>
        <time>2019-05-11T14:59:20Z</time>
      </trkpt>
      <trkpt lat="36.7972068786621" lon="-5.14033794403076">
        <ele>614</ele>
        <time>2019-05-11T14:59:22Z</time>
      </trkpt>
      <trkpt lat="36.7972030639648" lon="-5.14034223556519">
        <ele>614</ele>
        <time>2019-05-11T14:59:24Z</time>
      </trkpt>
      <trkpt lat="36.797191619873" lon="-5.14034700393677">
        <ele>614</ele>
        <time>2019-05-11T14:59:28Z</time>
      </trkpt>
      <trkpt lat="36.7971954345703" lon="-5.14034509658814">
        <ele>615</ele>
        <time>2019-05-11T14:59:30Z</time>
      </trkpt>
      <trkpt lat="36.7971992492676" lon="-5.14033508300781">
        <ele>617</ele>
        <time>2019-05-11T14:59:36Z</time>
      </trkpt>
      <trkpt lat="36.7972030639648" lon="-5.14033317565918">
        <ele>617</ele>
        <time>2019-05-11T14:59:38Z</time>
      </trkpt>
      <trkpt lat="36.7971954345703" lon="-5.14033317565918">
        <ele>617</ele>
        <time>2019-05-11T14:59:40Z</time>
      </trkpt>
      <trkpt lat="36.7971992492676" lon="-5.14033317565918">
        <ele>617</ele>
        <time>2019-05-11T14:59:42Z</time>
      </trkpt>
      <trkpt lat="36.7972030639648" lon="-5.14032983779907">
        <ele>617</ele>
        <time>2019-05-11T14:59:44Z</time>
      </trkpt>
      <trkpt lat="36.7972068786621" lon="-5.14033222198486">
        <ele>617</ele>
        <time>2019-05-11T14:59:46Z</time>
      </trkpt>
      <trkpt lat="36.7972106933594" lon="-5.14033508300781">
        <ele>617</ele>
        <time>2019-05-11T14:59:50Z</time>
      </trkpt>
      <trkpt lat="36.7972145080566" lon="-5.14033317565918">
        <ele>617</ele>
        <time>2019-05-11T14:59:53Z</time>
      </trkpt>
      <trkpt lat="36.7972145080566" lon="-5.14033317565918">
        <ele>617</ele>
        <time>2019-05-11T14:59:55Z</time>
      </trkpt>
      <trkpt lat="36.7972145080566" lon="-5.14033317565918">
        <ele>617</ele>
        <time>2019-05-11T14:59:57Z</time>
      </trkpt>
      <trkpt lat="36.7972145080566" lon="-5.14033508300781">
        <ele>617</ele>
        <time>2019-05-11T14:59:59Z</time>
      </trkpt>
      <trkpt lat="36.7972106933594" lon="-5.14033222198486">
        <ele>617</ele>
        <time>2019-05-11T15:00:01Z</time>
      </trkpt>
      <trkpt lat="36.797191619873" lon="-5.14034223556519">
        <ele>613</ele>
        <time>2019-05-11T15:00:15Z</time>
      </trkpt>
      <trkpt lat="36.7971878051758" lon="-5.1403431892395">
        <ele>613</ele>
        <time>2019-05-11T15:00:17Z</time>
      </trkpt>
      <trkpt lat="36.7971839904785" lon="-5.14034795761108">
        <ele>613</ele>
        <time>2019-05-11T15:00:19Z</time>
      </trkpt>
      <trkpt lat="36.7971801757812" lon="-5.14035701751709">
        <ele>613</ele>
        <time>2019-05-11T15:00:21Z</time>
      </trkpt>
      <trkpt lat="36.797176361084" lon="-5.14036321640015">
        <ele>613</ele>
        <time>2019-05-11T15:00:23Z</time>
      </trkpt>
      <trkpt lat="36.797176361084" lon="-5.14037322998047">
        <ele>613</ele>
        <time>2019-05-11T15:00:25Z</time>
      </trkpt>
      <trkpt lat="36.7971725463867" lon="-5.14037799835205">
        <ele>613</ele>
        <time>2019-05-11T15:00:27Z</time>
      </trkpt>
      <trkpt lat="36.7971687316894" lon="-5.14038705825806">
        <ele>613</ele>
        <time>2019-05-11T15:00:29Z</time>
      </trkpt>
      <trkpt lat="36.7971611022949" lon="-5.14038801193237">
        <ele>614</ele>
        <time>2019-05-11T15:00:31Z</time>
      </trkpt>
      <trkpt lat="36.7971534729004" lon="-5.14038801193237">
        <ele>615</ele>
        <time>2019-05-11T15:00:33Z</time>
      </trkpt>
      <trkpt lat="36.7971534729004" lon="-5.14038181304932">
        <ele>615</ele>
        <time>2019-05-11T15:00:35Z</time>
      </trkpt>
      <trkpt lat="36.7971496582031" lon="-5.1403751373291">
        <ele>615</ele>
        <time>2019-05-11T15:00:38Z</time>
      </trkpt>
      <trkpt lat="36.7971420288086" lon="-5.14036989212036">
        <ele>615</ele>
        <time>2019-05-11T15:00:40Z</time>
      </trkpt>
      <trkpt lat="36.7971305847168" lon="-5.14036989212036">
        <ele>615</ele>
        <time>2019-05-11T15:00:42Z</time>
      </trkpt>
      <trkpt lat="36.7971115112305" lon="-5.14037179946899">
        <ele>615</ele>
        <time>2019-05-11T15:00:44Z</time>
      </trkpt>
      <trkpt lat="36.7970924377441" lon="-5.14037322998047">
        <ele>615</ele>
        <time>2019-05-11T15:00:46Z</time>
      </trkpt>
      <trkpt lat="36.7970733642578" lon="-5.14037179946899">
        <ele>615</ele>
        <time>2019-05-11T15:00:48Z</time>
      </trkpt>
      <trkpt lat="36.7970542907715" lon="-5.14036321640015">
        <ele>615</ele>
        <time>2019-05-11T15:00:50Z</time>
      </trkpt>
      <trkpt lat="36.7970390319824" lon="-5.14035511016846">
        <ele>615</ele>
        <time>2019-05-11T15:00:52Z</time>
      </trkpt>
      <trkpt lat="36.7970161437988" lon="-5.14034700393677">
        <ele>615</ele>
        <time>2019-05-11T15:00:54Z</time>
      </trkpt>
      <trkpt lat="36.797004699707" lon="-5.14034223556519">
        <ele>614</ele>
        <time>2019-05-11T15:00:56Z</time>
      </trkpt>
      <trkpt lat="36.7969856262207" lon="-5.14033985137939">
        <ele>614</ele>
        <time>2019-05-11T15:00:58Z</time>
      </trkpt>
      <trkpt lat="36.7969589233398" lon="-5.14033222198486">
        <ele>613</ele>
        <time>2019-05-11T15:01:00Z</time>
      </trkpt>
      <trkpt lat="36.7969398498535" lon="-5.14032793045044">
        <ele>613</ele>
        <time>2019-05-11T15:01:02Z</time>
      </trkpt>
      <trkpt lat="36.7969131469727" lon="-5.14031982421875">
        <ele>613</ele>
        <time>2019-05-11T15:01:04Z</time>
      </trkpt>
      <trkpt lat="36.7968902587891" lon="-5.14030981063843">
        <ele>613</ele>
        <time>2019-05-11T15:01:06Z</time>
      </trkpt>
      <trkpt lat="36.7968635559082" lon="-5.14029788970947">
        <ele>613</ele>
        <time>2019-05-11T15:01:08Z</time>
      </trkpt>
      <trkpt lat="36.7968406677246" lon="-5.14028978347778">
        <ele>613</ele>
        <time>2019-05-11T15:01:10Z</time>
      </trkpt>
      <trkpt lat="36.796817779541" lon="-5.14027976989746">
        <ele>611</ele>
        <time>2019-05-11T15:01:12Z</time>
      </trkpt>
      <trkpt lat="36.7967987060547" lon="-5.14026689529419">
        <ele>611</ele>
        <time>2019-05-11T15:01:15Z</time>
      </trkpt>
      <trkpt lat="36.7967796325684" lon="-5.1402530670166">
        <ele>611</ele>
        <time>2019-05-11T15:01:17Z</time>
      </trkpt>
      <trkpt lat="36.7967529296875" lon="-5.14024305343628">
        <ele>611</ele>
        <time>2019-05-11T15:01:19Z</time>
      </trkpt>
      <trkpt lat="36.7967262268066" lon="-5.14023494720459">
        <ele>611</ele>
        <time>2019-05-11T15:01:21Z</time>
      </trkpt>
      <trkpt lat="36.7966995239258" lon="-5.14022493362427">
        <ele>611</ele>
        <time>2019-05-11T15:01:23Z</time>
      </trkpt>
      <trkpt lat="36.7966766357422" lon="-5.14022016525269">
        <ele>611</ele>
        <time>2019-05-11T15:01:25Z</time>
      </trkpt>
      <trkpt lat="36.7966461181641" lon="-5.14021778106689">
        <ele>611</ele>
        <time>2019-05-11T15:01:27Z</time>
      </trkpt>
      <trkpt lat="36.7966156005859" lon="-5.14021492004394">
        <ele>611</ele>
        <time>2019-05-11T15:01:29Z</time>
      </trkpt>
      <trkpt lat="36.7965812683106" lon="-5.14020776748657">
        <ele>611</ele>
        <time>2019-05-11T15:01:31Z</time>
      </trkpt>
      <trkpt lat="36.7965545654297" lon="-5.14020299911499">
        <ele>611</ele>
        <time>2019-05-11T15:01:33Z</time>
      </trkpt>
      <trkpt lat="36.7965126037598" lon="-5.14019680023193">
        <ele>611</ele>
        <time>2019-05-11T15:01:35Z</time>
      </trkpt>
      <trkpt lat="36.7964859008789" lon="-5.14019012451172">
        <ele>611</ele>
        <time>2019-05-11T15:01:37Z</time>
      </trkpt>
      <trkpt lat="36.796459197998" lon="-5.14017486572266">
        <ele>611</ele>
        <time>2019-05-11T15:01:39Z</time>
      </trkpt>
      <trkpt lat="36.7964324951172" lon="-5.14016199111938">
        <ele>611</ele>
        <time>2019-05-11T15:01:41Z</time>
      </trkpt>
      <trkpt lat="36.7964019775391" lon="-5.14015293121338">
        <ele>611</ele>
        <time>2019-05-11T15:01:43Z</time>
      </trkpt>
      <trkpt lat="36.7963790893555" lon="-5.14015197753906">
        <ele>611</ele>
        <time>2019-05-11T15:01:45Z</time>
      </trkpt>
      <trkpt lat="36.7963523864746" lon="-5.14015007019043">
        <ele>611</ele>
        <time>2019-05-11T15:01:47Z</time>
      </trkpt>
      <trkpt lat="36.7963218688965" lon="-5.14014291763306">
        <ele>612</ele>
        <time>2019-05-11T15:01:50Z</time>
      </trkpt>
      <trkpt lat="36.7962989807129" lon="-5.14013004302978">
        <ele>612</ele>
        <time>2019-05-11T15:01:52Z</time>
      </trkpt>
      <trkpt lat="36.7962684631348" lon="-5.1401219367981">
        <ele>613</ele>
        <time>2019-05-11T15:01:54Z</time>
      </trkpt>
      <trkpt lat="36.7962417602539" lon="-5.14011192321777">
        <ele>613</ele>
        <time>2019-05-11T15:01:56Z</time>
      </trkpt>
      <trkpt lat="36.7962265014648" lon="-5.14011287689209">
        <ele>613</ele>
        <time>2019-05-11T15:01:58Z</time>
      </trkpt>
      <trkpt lat="36.796199798584" lon="-5.14010715484619">
        <ele>613</ele>
        <time>2019-05-11T15:02:00Z</time>
      </trkpt>
      <trkpt lat="36.7961616516113" lon="-5.14009714126587">
        <ele>613</ele>
        <time>2019-05-11T15:02:02Z</time>
      </trkpt>
      <trkpt lat="36.7961235046387" lon="-5.14008283615112">
        <ele>613</ele>
        <time>2019-05-11T15:02:04Z</time>
      </trkpt>
      <trkpt lat="36.796085357666" lon="-5.1400728225708">
        <ele>613</ele>
        <time>2019-05-11T15:02:06Z</time>
      </trkpt>
      <trkpt lat="36.7960510253906" lon="-5.1400580406189">
        <ele>613</ele>
        <time>2019-05-11T15:02:08Z</time>
      </trkpt>
      <trkpt lat="36.7960014343262" lon="-5.14003705978394">
        <ele>613</ele>
        <time>2019-05-11T15:02:10Z</time>
      </trkpt>
      <trkpt lat="36.7959861755371" lon="-5.14002799987793">
        <ele>613</ele>
        <time>2019-05-11T15:02:12Z</time>
      </trkpt>
      <trkpt lat="36.7959671020508" lon="-5.14001989364624">
        <ele>613</ele>
        <time>2019-05-11T15:02:14Z</time>
      </trkpt>
      <trkpt lat="36.7959632873535" lon="-5.14001178741455">
        <ele>613</ele>
        <time>2019-05-11T15:02:16Z</time>
      </trkpt>
      <trkpt lat="36.7959632873535" lon="-5.14000701904297">
        <ele>613</ele>
        <time>2019-05-11T15:02:18Z</time>
      </trkpt>
      <trkpt lat="36.795955657959" lon="-5.13999509811401">
        <ele>613</ele>
        <time>2019-05-11T15:02:20Z</time>
      </trkpt>
      <trkpt lat="36.7959327697754" lon="-5.13998985290527">
        <ele>613</ele>
        <time>2019-05-11T15:02:22Z</time>
      </trkpt>
      <trkpt lat="36.7959098815918" lon="-5.13998699188232">
        <ele>613</ele>
        <time>2019-05-11T15:02:25Z</time>
      </trkpt>
      <trkpt lat="36.7958831787109" lon="-5.13999319076538">
        <ele>613</ele>
        <time>2019-05-11T15:02:27Z</time>
      </trkpt>
      <trkpt lat="36.7958641052246" lon="-5.13999700546265">
        <ele>613</ele>
        <time>2019-05-11T15:02:29Z</time>
      </trkpt>
      <trkpt lat="36.7958526611328" lon="-5.13999700546265">
        <ele>613</ele>
        <time>2019-05-11T15:02:31Z</time>
      </trkpt>
      <trkpt lat="36.7958335876465" lon="-5.13999223709106">
        <ele>613</ele>
        <time>2019-05-11T15:02:33Z</time>
      </trkpt>
      <trkpt lat="36.7958145141602" lon="-5.13997793197632">
        <ele>613</ele>
        <time>2019-05-11T15:02:35Z</time>
      </trkpt>
      <trkpt lat="36.795783996582" lon="-5.13997316360474">
        <ele>613</ele>
        <time>2019-05-11T15:02:37Z</time>
      </trkpt>
      <trkpt lat="36.7957611083984" lon="-5.13996315002441">
        <ele>613</ele>
        <time>2019-05-11T15:02:39Z</time>
      </trkpt>
      <trkpt lat="36.7957344055176" lon="-5.13996505737305">
        <ele>613</ele>
        <time>2019-05-11T15:02:41Z</time>
      </trkpt>
      <trkpt lat="36.7957077026367" lon="-5.1399621963501">
        <ele>613</ele>
        <time>2019-05-11T15:02:43Z</time>
      </trkpt>
      <trkpt lat="36.7956733703613" lon="-5.13994979858398">
        <ele>614</ele>
        <time>2019-05-11T15:02:45Z</time>
      </trkpt>
      <trkpt lat="36.7956314086914" lon="-5.13995695114136">
        <ele>614</ele>
        <time>2019-05-11T15:02:47Z</time>
      </trkpt>
      <trkpt lat="36.7956275939941" lon="-5.139967918396">
        <ele>614</ele>
        <time>2019-05-11T15:02:49Z</time>
      </trkpt>
      <trkpt lat="36.7956237792969" lon="-5.13998699188232">
        <ele>614</ele>
        <time>2019-05-11T15:02:51Z</time>
      </trkpt>
      <trkpt lat="36.7956390380859" lon="-5.14001321792603">
        <ele>614</ele>
        <time>2019-05-11T15:02:53Z</time>
      </trkpt>
      <trkpt lat="36.7956581115723" lon="-5.14002323150635">
        <ele>614</ele>
        <time>2019-05-11T15:02:55Z</time>
      </trkpt>
      <trkpt lat="36.7956771850586" lon="-5.1400351524353">
        <ele>614</ele>
        <time>2019-05-11T15:02:57Z</time>
      </trkpt>
      <trkpt lat="36.7956886291504" lon="-5.14005994796753">
        <ele>613</ele>
        <time>2019-05-11T15:02:59Z</time>
      </trkpt>
      <trkpt lat="36.7957038879394" lon="-5.14008188247681">
        <ele>611</ele>
        <time>2019-05-11T15:03:02Z</time>
      </trkpt>
      <trkpt lat="36.7957191467285" lon="-5.1400899887085">
        <ele>609</ele>
        <time>2019-05-11T15:03:04Z</time>
      </trkpt>
      <trkpt lat="36.7957382202148" lon="-5.14010715484619">
        <ele>608</ele>
        <time>2019-05-11T15:03:06Z</time>
      </trkpt>
      <trkpt lat="36.7957534790039" lon="-5.14012813568115">
        <ele>606</ele>
        <time>2019-05-11T15:03:08Z</time>
      </trkpt>
      <trkpt lat="36.7957649230957" lon="-5.14015197753906">
        <ele>606</ele>
        <time>2019-05-11T15:03:10Z</time>
      </trkpt>
      <trkpt lat="36.795783996582" lon="-5.14016819000244">
        <ele>605</ele>
        <time>2019-05-11T15:03:12Z</time>
      </trkpt>
      <trkpt lat="36.7958030700684" lon="-5.14019203186035">
        <ele>605</ele>
        <time>2019-05-11T15:03:14Z</time>
      </trkpt>
      <trkpt lat="36.795825958252" lon="-5.14021682739258">
        <ele>605</ele>
        <time>2019-05-11T15:03:16Z</time>
      </trkpt>
      <trkpt lat="36.795841217041" lon="-5.14024782180786">
        <ele>605</ele>
        <time>2019-05-11T15:03:18Z</time>
      </trkpt>
      <trkpt lat="36.7958602905273" lon="-5.14027500152588">
        <ele>605</ele>
        <time>2019-05-11T15:03:20Z</time>
      </trkpt>
      <trkpt lat="36.7958793640137" lon="-5.14032220840454">
        <ele>605</ele>
        <time>2019-05-11T15:03:22Z</time>
      </trkpt>
      <trkpt lat="36.7958869934082" lon="-5.14035701751709">
        <ele>605</ele>
        <time>2019-05-11T15:03:24Z</time>
      </trkpt>
      <trkpt lat="36.7958984375" lon="-5.14039182662964">
        <ele>605</ele>
        <time>2019-05-11T15:03:26Z</time>
      </trkpt>
      <trkpt lat="36.7959136962891" lon="-5.14042282104492">
        <ele>605</ele>
        <time>2019-05-11T15:03:28Z</time>
      </trkpt>
      <trkpt lat="36.7959213256836" lon="-5.14046001434326">
        <ele>605</ele>
        <time>2019-05-11T15:03:30Z</time>
      </trkpt>
      <trkpt lat="36.7959403991699" lon="-5.14049005508423">
        <ele>605</ele>
        <time>2019-05-11T15:03:32Z</time>
      </trkpt>
      <trkpt lat="36.7959518432617" lon="-5.14051818847656">
        <ele>605</ele>
        <time>2019-05-11T15:03:34Z</time>
      </trkpt>
      <trkpt lat="36.795970916748" lon="-5.14054298400879">
        <ele>605</ele>
        <time>2019-05-11T15:03:37Z</time>
      </trkpt>
      <trkpt lat="36.7959785461426" lon="-5.14055681228638">
        <ele>605</ele>
        <time>2019-05-11T15:03:39Z</time>
      </trkpt>
      <trkpt lat="36.7959823608398" lon="-5.14056015014648">
        <ele>605</ele>
        <time>2019-05-11T15:03:41Z</time>
      </trkpt>
      <trkpt lat="36.7959785461426" lon="-5.14056491851807">
        <ele>605</ele>
        <time>2019-05-11T15:03:43Z</time>
      </trkpt>
      <trkpt lat="36.7959823608398" lon="-5.14056777954102">
        <ele>605</ele>
        <time>2019-05-11T15:03:45Z</time>
      </trkpt>
      <trkpt lat="36.7959861755371" lon="-5.14057016372681">
        <ele>605</ele>
        <time>2019-05-11T15:03:47Z</time>
      </trkpt>
      <trkpt lat="36.7959938049316" lon="-5.14057207107544">
        <ele>605</ele>
        <time>2019-05-11T15:03:49Z</time>
      </trkpt>
      <trkpt lat="36.7959938049316" lon="-5.14057016372681">
        <ele>605</ele>
        <time>2019-05-11T15:03:51Z</time>
      </trkpt>
      <trkpt lat="36.7959976196289" lon="-5.14057016372681">
        <ele>605</ele>
        <time>2019-05-11T15:03:53Z</time>
      </trkpt>
      <trkpt lat="36.7960014343262" lon="-5.1405668258667">
        <ele>605</ele>
        <time>2019-05-11T15:03:55Z</time>
      </trkpt>
      <trkpt lat="36.7960014343262" lon="-5.14056777954102">
        <ele>604</ele>
        <time>2019-05-11T15:03:57Z</time>
      </trkpt>
      <trkpt lat="36.7960014343262" lon="-5.14057016372681">
        <ele>604</ele>
        <time>2019-05-11T15:03:59Z</time>
      </trkpt>
      <trkpt lat="36.7960014343262" lon="-5.14057016372681">
        <ele>604</ele>
        <time>2019-05-11T15:04:01Z</time>
      </trkpt>
      <trkpt lat="36.7960014343262" lon="-5.14057207107544">
        <ele>604</ele>
        <time>2019-05-11T15:04:03Z</time>
      </trkpt>
      <trkpt lat="36.7960014343262" lon="-5.14057302474976">
        <ele>603</ele>
        <time>2019-05-11T15:04:05Z</time>
      </trkpt>
      <trkpt lat="36.796012878418" lon="-5.14057207107544">
        <ele>603</ele>
        <time>2019-05-11T15:04:07Z</time>
      </trkpt>
      <trkpt lat="36.7960205078125" lon="-5.14058494567871">
        <ele>603</ele>
        <time>2019-05-11T15:04:09Z</time>
      </trkpt>
      <trkpt lat="36.7960357666016" lon="-5.14061307907104">
        <ele>603</ele>
        <time>2019-05-11T15:04:11Z</time>
      </trkpt>
      <trkpt lat="36.7960510253906" lon="-5.14064693450928">
        <ele>603</ele>
        <time>2019-05-11T15:04:13Z</time>
      </trkpt>
      <trkpt lat="36.796070098877" lon="-5.14069318771362">
        <ele>603</ele>
        <time>2019-05-11T15:04:16Z</time>
      </trkpt>
      <trkpt lat="36.796085357666" lon="-5.14074802398682">
        <ele>603</ele>
        <time>2019-05-11T15:04:18Z</time>
      </trkpt>
      <trkpt lat="36.7961006164551" lon="-5.14079999923706">
        <ele>603</ele>
        <time>2019-05-11T15:04:20Z</time>
      </trkpt>
      <trkpt lat="36.7961120605469" lon="-5.14084482192993">
        <ele>602</ele>
        <time>2019-05-11T15:04:22Z</time>
      </trkpt>
      <trkpt lat="36.7961349487305" lon="-5.14088821411133">
        <ele>602</ele>
        <time>2019-05-11T15:04:24Z</time>
      </trkpt>
      <trkpt lat="36.7961616516113" lon="-5.14092016220093">
        <ele>601</ele>
        <time>2019-05-11T15:04:26Z</time>
      </trkpt>
      <trkpt lat="36.7961845397949" lon="-5.14094686508179">
        <ele>600</ele>
        <time>2019-05-11T15:04:28Z</time>
      </trkpt>
      <trkpt lat="36.7962112426758" lon="-5.14096307754517">
        <ele>600</ele>
        <time>2019-05-11T15:04:30Z</time>
      </trkpt>
      <trkpt lat="36.7962455749512" lon="-5.14097023010254">
        <ele>599</ele>
        <time>2019-05-11T15:04:32Z</time>
      </trkpt>
      <trkpt lat="36.7962760925293" lon="-5.14097785949707">
        <ele>598</ele>
        <time>2019-05-11T15:04:34Z</time>
      </trkpt>
      <trkpt lat="36.7963180541992" lon="-5.14098691940308">
        <ele>598</ele>
        <time>2019-05-11T15:04:36Z</time>
      </trkpt>
      <trkpt lat="36.7963371276856" lon="-5.14100790023804">
        <ele>598</ele>
        <time>2019-05-11T15:04:38Z</time>
      </trkpt>
      <trkpt lat="36.7963638305664" lon="-5.14101982116699">
        <ele>598</ele>
        <time>2019-05-11T15:04:40Z</time>
      </trkpt>
      <trkpt lat="36.7963943481445" lon="-5.14102697372436">
        <ele>598</ele>
        <time>2019-05-11T15:04:42Z</time>
      </trkpt>
      <trkpt lat="36.7964210510254" lon="-5.141037940979">
        <ele>598</ele>
        <time>2019-05-11T15:04:44Z</time>
      </trkpt>
      <trkpt lat="36.7964477539062" lon="-5.14104509353638">
        <ele>598</ele>
        <time>2019-05-11T15:04:46Z</time>
      </trkpt>
      <trkpt lat="36.7964782714844" lon="-5.14104795455933">
        <ele>598</ele>
        <time>2019-05-11T15:04:48Z</time>
      </trkpt>
      <trkpt lat="36.7965087890625" lon="-5.14104795455933">
        <ele>598</ele>
        <time>2019-05-11T15:04:51Z</time>
      </trkpt>
      <trkpt lat="36.7965393066406" lon="-5.1410551071167">
        <ele>598</ele>
        <time>2019-05-11T15:04:53Z</time>
      </trkpt>
      <trkpt lat="36.7965698242188" lon="-5.14105796813965">
        <ele>598</ele>
        <time>2019-05-11T15:04:55Z</time>
      </trkpt>
      <trkpt lat="36.7965965270996" lon="-5.14105987548828">
        <ele>598</ele>
        <time>2019-05-11T15:04:57Z</time>
      </trkpt>
      <trkpt lat="36.7966232299805" lon="-5.14106321334839">
        <ele>598</ele>
        <time>2019-05-11T15:04:59Z</time>
      </trkpt>
      <trkpt lat="36.7966537475586" lon="-5.14107322692871">
        <ele>598</ele>
        <time>2019-05-11T15:05:01Z</time>
      </trkpt>
      <trkpt lat="36.7966766357422" lon="-5.14108180999756">
        <ele>598</ele>
        <time>2019-05-11T15:05:03Z</time>
      </trkpt>
      <trkpt lat="36.7967071533203" lon="-5.14109182357788">
        <ele>598</ele>
        <time>2019-05-11T15:05:05Z</time>
      </trkpt>
      <trkpt lat="36.7967376708984" lon="-5.14110708236694">
        <ele>598</ele>
        <time>2019-05-11T15:05:07Z</time>
      </trkpt>
      <trkpt lat="36.7967643737793" lon="-5.14111804962158">
        <ele>598</ele>
        <time>2019-05-11T15:05:09Z</time>
      </trkpt>
      <trkpt lat="36.7968101501465" lon="-5.14113807678223">
        <ele>599</ele>
        <time>2019-05-11T15:05:11Z</time>
      </trkpt>
      <trkpt lat="36.7968368530273" lon="-5.14115285873413">
        <ele>599</ele>
        <time>2019-05-11T15:05:13Z</time>
      </trkpt>
      <trkpt lat="36.7968711853027" lon="-5.14116287231445">
        <ele>599</ele>
        <time>2019-05-11T15:05:15Z</time>
      </trkpt>
      <trkpt lat="36.7969131469727" lon="-5.14116811752319">
        <ele>599</ele>
        <time>2019-05-11T15:05:17Z</time>
      </trkpt>
      <trkpt lat="36.7969398498535" lon="-5.14117813110352">
        <ele>599</ele>
        <time>2019-05-11T15:05:19Z</time>
      </trkpt>
      <trkpt lat="36.7969589233398" lon="-5.14118814468384">
        <ele>599</ele>
        <time>2019-05-11T15:05:21Z</time>
      </trkpt>
      <trkpt lat="36.7969818115234" lon="-5.14120197296143">
        <ele>599</ele>
        <time>2019-05-11T15:05:23Z</time>
      </trkpt>
      <trkpt lat="36.7970123291016" lon="-5.14121294021606">
        <ele>599</ele>
        <time>2019-05-11T15:05:26Z</time>
      </trkpt>
      <trkpt lat="36.7970390319824" lon="-5.14122819900513">
        <ele>599</ele>
        <time>2019-05-11T15:05:28Z</time>
      </trkpt>
      <trkpt lat="36.7970542907715" lon="-5.14124202728272">
        <ele>599</ele>
        <time>2019-05-11T15:05:30Z</time>
      </trkpt>
      <trkpt lat="36.7970809936523" lon="-5.14126300811768">
        <ele>599</ele>
        <time>2019-05-11T15:05:32Z</time>
      </trkpt>
      <trkpt lat="36.7971115112305" lon="-5.14127779006958">
        <ele>599</ele>
        <time>2019-05-11T15:05:34Z</time>
      </trkpt>
      <trkpt lat="36.7971420288086" lon="-5.14129304885864">
        <ele>599</ele>
        <time>2019-05-11T15:05:36Z</time>
      </trkpt>
      <trkpt lat="36.7971649169922" lon="-5.1413049697876">
        <ele>599</ele>
        <time>2019-05-11T15:05:38Z</time>
      </trkpt>
      <trkpt lat="36.797191619873" lon="-5.14131784439087">
        <ele>599</ele>
        <time>2019-05-11T15:05:40Z</time>
      </trkpt>
      <trkpt lat="36.7972145080566" lon="-5.14133310317993">
        <ele>599</ele>
        <time>2019-05-11T15:05:42Z</time>
      </trkpt>
      <trkpt lat="36.7972412109375" lon="-5.14134502410889">
        <ele>599</ele>
        <time>2019-05-11T15:05:44Z</time>
      </trkpt>
      <trkpt lat="36.797290802002" lon="-5.14136791229248">
        <ele>599</ele>
        <time>2019-05-11T15:05:46Z</time>
      </trkpt>
      <trkpt lat="36.7973213195801" lon="-5.1413779258728">
        <ele>598</ele>
        <time>2019-05-11T15:05:48Z</time>
      </trkpt>
      <trkpt lat="36.7973480224609" lon="-5.14138793945312">
        <ele>597</ele>
        <time>2019-05-11T15:05:50Z</time>
      </trkpt>
      <trkpt lat="36.7973747253418" lon="-5.14140176773071">
        <ele>596</ele>
        <time>2019-05-11T15:05:52Z</time>
      </trkpt>
      <trkpt lat="36.7974014282227" lon="-5.14141178131104">
        <ele>596</ele>
        <time>2019-05-11T15:05:54Z</time>
      </trkpt>
      <trkpt lat="36.7974281311035" lon="-5.14142322540283">
        <ele>595</ele>
        <time>2019-05-11T15:05:56Z</time>
      </trkpt>
      <trkpt lat="36.7974472045898" lon="-5.141432762146">
        <ele>595</ele>
        <time>2019-05-11T15:05:58Z</time>
      </trkpt>
      <trkpt lat="36.7974700927734" lon="-5.14143991470337">
        <ele>595</ele>
        <time>2019-05-11T15:06:01Z</time>
      </trkpt>
      <trkpt lat="36.7974891662598" lon="-5.14144706726074">
        <ele>595</ele>
        <time>2019-05-11T15:06:03Z</time>
      </trkpt>
      <trkpt lat="36.7975158691406" lon="-5.14145183563232">
        <ele>595</ele>
        <time>2019-05-11T15:06:05Z</time>
      </trkpt>
      <trkpt lat="36.7975387573242" lon="-5.14145994186401">
        <ele>595</ele>
        <time>2019-05-11T15:06:07Z</time>
      </trkpt>
      <trkpt lat="36.7975654602051" lon="-5.14146709442139">
        <ele>595</ele>
        <time>2019-05-11T15:06:09Z</time>
      </trkpt>
      <trkpt lat="36.7975883483887" lon="-5.14146995544434">
        <ele>595</ele>
        <time>2019-05-11T15:06:11Z</time>
      </trkpt>
      <trkpt lat="36.7976112365723" lon="-5.14147710800171">
        <ele>595</ele>
        <time>2019-05-11T15:06:13Z</time>
      </trkpt>
      <trkpt lat="36.7976455688477" lon="-5.1414852142334">
        <ele>595</ele>
        <time>2019-05-11T15:06:15Z</time>
      </trkpt>
      <trkpt lat="36.797679901123" lon="-5.14148283004761">
        <ele>595</ele>
        <time>2019-05-11T15:06:17Z</time>
      </trkpt>
      <trkpt lat="36.7977027893066" lon="-5.14149522781372">
        <ele>595</ele>
        <time>2019-05-11T15:06:19Z</time>
      </trkpt>
      <trkpt lat="36.7977409362793" lon="-5.14149713516235">
        <ele>595</ele>
        <time>2019-05-11T15:06:21Z</time>
      </trkpt>
      <trkpt lat="36.7977714538574" lon="-5.14149284362793">
        <ele>595</ele>
        <time>2019-05-11T15:06:23Z</time>
      </trkpt>
      <trkpt lat="36.7978019714356" lon="-5.14148998260498">
        <ele>594</ele>
        <time>2019-05-11T15:06:25Z</time>
      </trkpt>
      <trkpt lat="36.7978324890137" lon="-5.14149284362793">
        <ele>594</ele>
        <time>2019-05-11T15:06:27Z</time>
      </trkpt>
      <trkpt lat="36.7978591918945" lon="-5.1414999961853">
        <ele>594</ele>
        <time>2019-05-11T15:06:29Z</time>
      </trkpt>
      <trkpt lat="36.7978820800781" lon="-5.14150810241699">
        <ele>594</ele>
        <time>2019-05-11T15:06:31Z</time>
      </trkpt>
      <trkpt lat="36.7979049682617" lon="-5.14151191711426">
        <ele>593</ele>
        <time>2019-05-11T15:06:33Z</time>
      </trkpt>
      <trkpt lat="36.7979316711426" lon="-5.14150810241699">
        <ele>593</ele>
        <time>2019-05-11T15:06:36Z</time>
      </trkpt>
      <trkpt lat="36.7979469299316" lon="-5.1414999961853">
        <ele>593</ele>
        <time>2019-05-11T15:06:38Z</time>
      </trkpt>
      <trkpt lat="36.7979736328125" lon="-5.14148807525635">
        <ele>593</ele>
        <time>2019-05-11T15:06:40Z</time>
      </trkpt>
      <trkpt lat="36.7979888916016" lon="-5.14147186279297">
        <ele>593</ele>
        <time>2019-05-11T15:06:42Z</time>
      </trkpt>
      <trkpt lat="36.7980041503906" lon="-5.14145183563232">
        <ele>593</ele>
        <time>2019-05-11T15:06:44Z</time>
      </trkpt>
      <trkpt lat="36.798023223877" lon="-5.14142990112305">
        <ele>593</ele>
        <time>2019-05-11T15:06:46Z</time>
      </trkpt>
      <trkpt lat="36.7980422973633" lon="-5.14140796661377">
        <ele>593</ele>
        <time>2019-05-11T15:06:48Z</time>
      </trkpt>
      <trkpt lat="36.7980651855469" lon="-5.14139318466186">
        <ele>593</ele>
        <time>2019-05-11T15:06:50Z</time>
      </trkpt>
      <trkpt lat="36.7980842590332" lon="-5.14138221740723">
        <ele>593</ele>
        <time>2019-05-11T15:06:52Z</time>
      </trkpt>
      <trkpt lat="36.7981071472168" lon="-5.14136695861816">
        <ele>594</ele>
        <time>2019-05-11T15:06:54Z</time>
      </trkpt>
      <trkpt lat="36.7981452941894" lon="-5.14134311676025">
        <ele>594</ele>
        <time>2019-05-11T15:06:56Z</time>
      </trkpt>
      <trkpt lat="36.7981643676758" lon="-5.14132690429688">
        <ele>595</ele>
        <time>2019-05-11T15:06:58Z</time>
      </trkpt>
      <trkpt lat="36.7981834411621" lon="-5.14130783081055">
        <ele>596</ele>
        <time>2019-05-11T15:07:00Z</time>
      </trkpt>
      <trkpt lat="36.7982025146484" lon="-5.14128684997559">
        <ele>597</ele>
        <time>2019-05-11T15:07:02Z</time>
      </trkpt>
      <trkpt lat="36.7982215881348" lon="-5.141273021698">
        <ele>598</ele>
        <time>2019-05-11T15:07:04Z</time>
      </trkpt>
      <trkpt lat="36.7982330322266" lon="-5.14125490188599">
        <ele>598</ele>
        <time>2019-05-11T15:07:06Z</time>
      </trkpt>
      <trkpt lat="36.7982368469238" lon="-5.14123678207397">
        <ele>598</ele>
        <time>2019-05-11T15:07:08Z</time>
      </trkpt>
      <trkpt lat="36.7982330322266" lon="-5.14121723175049">
        <ele>598</ele>
        <time>2019-05-11T15:07:11Z</time>
      </trkpt>
      <trkpt lat="36.7982292175293" lon="-5.1411919593811">
        <ele>598</ele>
        <time>2019-05-11T15:07:13Z</time>
      </trkpt>
      <trkpt lat="36.7982177734375" lon="-5.1411771774292">
        <ele>598</ele>
        <time>2019-05-11T15:07:15Z</time>
      </trkpt>
      <trkpt lat="36.7982063293457" lon="-5.14114999771118">
        <ele>598</ele>
        <time>2019-05-11T15:07:17Z</time>
      </trkpt>
      <trkpt lat="36.7982063293457" lon="-5.14112520217896">
        <ele>598</ele>
        <time>2019-05-11T15:07:19Z</time>
      </trkpt>
      <trkpt lat="36.7982025146484" lon="-5.14111185073853">
        <ele>598</ele>
        <time>2019-05-11T15:07:21Z</time>
      </trkpt>
      <trkpt lat="36.7982025146484" lon="-5.14108800888062">
        <ele>598</ele>
        <time>2019-05-11T15:07:23Z</time>
      </trkpt>
      <trkpt lat="36.7982177734375" lon="-5.1410551071167">
        <ele>598</ele>
        <time>2019-05-11T15:07:25Z</time>
      </trkpt>
      <trkpt lat="36.798225402832" lon="-5.1410231590271">
        <ele>598</ele>
        <time>2019-05-11T15:07:27Z</time>
      </trkpt>
      <trkpt lat="36.7982292175293" lon="-5.14099502563477">
        <ele>598</ele>
        <time>2019-05-11T15:07:29Z</time>
      </trkpt>
      <trkpt lat="36.7982368469238" lon="-5.14097309112549">
        <ele>598</ele>
        <time>2019-05-11T15:07:31Z</time>
      </trkpt>
      <trkpt lat="36.7982368469238" lon="-5.14093208312988">
        <ele>598</ele>
        <time>2019-05-11T15:07:33Z</time>
      </trkpt>
      <trkpt lat="36.7982521057129" lon="-5.14092206954956">
        <ele>597</ele>
        <time>2019-05-11T15:07:35Z</time>
      </trkpt>
      <trkpt lat="36.7982749938965" lon="-5.14092493057251">
        <ele>596</ele>
        <time>2019-05-11T15:07:37Z</time>
      </trkpt>
      <trkpt lat="36.7982978820801" lon="-5.14093017578125">
        <ele>595</ele>
        <time>2019-05-11T15:07:39Z</time>
      </trkpt>
      <trkpt lat="36.7983169555664" lon="-5.14093494415283">
        <ele>595</ele>
        <time>2019-05-11T15:07:41Z</time>
      </trkpt>
      <trkpt lat="36.7983360290527" lon="-5.14094495773315">
        <ele>594</ele>
        <time>2019-05-11T15:07:43Z</time>
      </trkpt>
      <trkpt lat="36.7983589172363" lon="-5.14095687866211">
        <ele>593</ele>
        <time>2019-05-11T15:07:45Z</time>
      </trkpt>
      <trkpt lat="36.7983741760254" lon="-5.14097785949707">
        <ele>592</ele>
        <time>2019-05-11T15:07:47Z</time>
      </trkpt>
      <trkpt lat="36.7983932495117" lon="-5.14099788665772">
        <ele>591</ele>
        <time>2019-05-11T15:07:50Z</time>
      </trkpt>
      <trkpt lat="36.7984237670898" lon="-5.14100503921509">
        <ele>590</ele>
        <time>2019-05-11T15:07:52Z</time>
      </trkpt>
      <trkpt lat="36.7984504699707" lon="-5.14100790023804">
        <ele>588</ele>
        <time>2019-05-11T15:07:54Z</time>
      </trkpt>
      <trkpt lat="36.798469543457" lon="-5.14103698730469">
        <ele>587</ele>
        <time>2019-05-11T15:07:56Z</time>
      </trkpt>
      <trkpt lat="36.7984886169434" lon="-5.14106702804565">
        <ele>586</ele>
        <time>2019-05-11T15:07:58Z</time>
      </trkpt>
      <trkpt lat="36.7985076904297" lon="-5.14108991622925">
        <ele>585</ele>
        <time>2019-05-11T15:08:00Z</time>
      </trkpt>
      <trkpt lat="36.798526763916" lon="-5.14110708236694">
        <ele>583</ele>
        <time>2019-05-11T15:08:02Z</time>
      </trkpt>
      <trkpt lat="36.7985534667969" lon="-5.14112710952759">
        <ele>582</ele>
        <time>2019-05-11T15:08:04Z</time>
      </trkpt>
      <trkpt lat="36.7985801696777" lon="-5.14114189147949">
        <ele>582</ele>
        <time>2019-05-11T15:08:06Z</time>
      </trkpt>
      <trkpt lat="36.7986145019531" lon="-5.1411600112915">
        <ele>582</ele>
        <time>2019-05-11T15:08:08Z</time>
      </trkpt>
      <trkpt lat="36.7986640930176" lon="-5.1411919593811">
        <ele>582</ele>
        <time>2019-05-11T15:08:10Z</time>
      </trkpt>
      <trkpt lat="36.7986946105957" lon="-5.14121294021606">
        <ele>582</ele>
        <time>2019-05-11T15:08:12Z</time>
      </trkpt>
      <trkpt lat="36.798713684082" lon="-5.14124011993408">
        <ele>582</ele>
        <time>2019-05-11T15:08:14Z</time>
      </trkpt>
      <trkpt lat="36.7987403869629" lon="-5.14126491546631">
        <ele>582</ele>
        <time>2019-05-11T15:08:16Z</time>
      </trkpt>
      <trkpt lat="36.7987670898438" lon="-5.1412878036499">
        <ele>581</ele>
        <time>2019-05-11T15:08:18Z</time>
      </trkpt>
      <trkpt lat="36.7987937927246" lon="-5.14130783081055">
        <ele>581</ele>
        <time>2019-05-11T15:08:20Z</time>
      </trkpt>
      <trkpt lat="36.7988166809082" lon="-5.14132976531982">
        <ele>580</ele>
        <time>2019-05-11T15:08:22Z</time>
      </trkpt>
      <trkpt lat="36.7988433837891" lon="-5.14135503768921">
        <ele>580</ele>
        <time>2019-05-11T15:08:25Z</time>
      </trkpt>
      <trkpt lat="36.7988586425781" lon="-5.14138221740723">
        <ele>579</ele>
        <time>2019-05-11T15:08:27Z</time>
      </trkpt>
      <trkpt lat="36.7988624572754" lon="-5.1414098739624">
        <ele>578</ele>
        <time>2019-05-11T15:08:29Z</time>
      </trkpt>
      <trkpt lat="36.7988700866699" lon="-5.14143705368042">
        <ele>577</ele>
        <time>2019-05-11T15:08:31Z</time>
      </trkpt>
      <trkpt lat="36.7988624572754" lon="-5.14145708084106">
        <ele>577</ele>
        <time>2019-05-11T15:08:33Z</time>
      </trkpt>
      <trkpt lat="36.7988624572754" lon="-5.14147996902466">
        <ele>577</ele>
        <time>2019-05-11T15:08:35Z</time>
      </trkpt>
      <trkpt lat="36.7988586425781" lon="-5.14150714874268">
        <ele>577</ele>
        <time>2019-05-11T15:08:37Z</time>
      </trkpt>
      <trkpt lat="36.7988471984863" lon="-5.14152717590332">
        <ele>577</ele>
        <time>2019-05-11T15:08:39Z</time>
      </trkpt>
      <trkpt lat="36.7988357543945" lon="-5.14154815673828">
        <ele>577</ele>
        <time>2019-05-11T15:08:41Z</time>
      </trkpt>
      <trkpt lat="36.798828125" lon="-5.14157199859619">
        <ele>577</ele>
        <time>2019-05-11T15:08:43Z</time>
      </trkpt>
      <trkpt lat="36.7988052368164" lon="-5.14160203933716">
        <ele>577</ele>
        <time>2019-05-11T15:08:45Z</time>
      </trkpt>
      <trkpt lat="36.7987937927246" lon="-5.14162015914917">
        <ele>577</ele>
        <time>2019-05-11T15:08:47Z</time>
      </trkpt>
      <trkpt lat="36.7987937927246" lon="-5.14164686203003">
        <ele>577</ele>
        <time>2019-05-11T15:08:49Z</time>
      </trkpt>
      <trkpt lat="36.7988014221191" lon="-5.14167499542236">
        <ele>577</ele>
        <time>2019-05-11T15:08:51Z</time>
      </trkpt>
      <trkpt lat="36.7987976074219" lon="-5.1417179107666">
        <ele>577</ele>
        <time>2019-05-11T15:08:53Z</time>
      </trkpt>
      <trkpt lat="36.7988014221191" lon="-5.14175987243652">
        <ele>577</ele>
        <time>2019-05-11T15:08:55Z</time>
      </trkpt>
      <trkpt lat="36.7988014221191" lon="-5.14180278778076">
        <ele>577</ele>
        <time>2019-05-11T15:08:57Z</time>
      </trkpt>
      <trkpt lat="36.7987899780273" lon="-5.14185190200806">
        <ele>577</ele>
        <time>2019-05-11T15:09:00Z</time>
      </trkpt>
      <trkpt lat="36.7987823486328" lon="-5.14188289642334">
        <ele>577</ele>
        <time>2019-05-11T15:09:02Z</time>
      </trkpt>
      <trkpt lat="36.7987823486328" lon="-5.14192199707031">
        <ele>577</ele>
        <time>2019-05-11T15:09:04Z</time>
      </trkpt>
      <trkpt lat="36.7987785339356" lon="-5.14196681976318">
        <ele>577</ele>
        <time>2019-05-11T15:09:06Z</time>
      </trkpt>
      <trkpt lat="36.7987785339356" lon="-5.14199781417847">
        <ele>577</ele>
        <time>2019-05-11T15:09:08Z</time>
      </trkpt>
      <trkpt lat="36.7987785339356" lon="-5.14203310012817">
        <ele>577</ele>
        <time>2019-05-11T15:09:10Z</time>
      </trkpt>
      <trkpt lat="36.7987861633301" lon="-5.14206981658936">
        <ele>577</ele>
        <time>2019-05-11T15:09:12Z</time>
      </trkpt>
      <trkpt lat="36.7987976074219" lon="-5.14210987091064">
        <ele>577</ele>
        <time>2019-05-11T15:09:14Z</time>
      </trkpt>
      <trkpt lat="36.7988128662109" lon="-5.14215278625488">
        <ele>577</ele>
        <time>2019-05-11T15:09:16Z</time>
      </trkpt>
      <trkpt lat="36.798828125" lon="-5.14219188690186">
        <ele>577</ele>
        <time>2019-05-11T15:09:18Z</time>
      </trkpt>
      <trkpt lat="36.7988510131836" lon="-5.14223194122314">
        <ele>577</ele>
        <time>2019-05-11T15:09:20Z</time>
      </trkpt>
      <trkpt lat="36.7988662719727" lon="-5.14226198196411">
        <ele>577</ele>
        <time>2019-05-11T15:09:22Z</time>
      </trkpt>
      <trkpt lat="36.7988815307617" lon="-5.14229202270508">
        <ele>577</ele>
        <time>2019-05-11T15:09:24Z</time>
      </trkpt>
      <trkpt lat="36.7988967895508" lon="-5.14232015609741">
        <ele>577</ele>
        <time>2019-05-11T15:09:26Z</time>
      </trkpt>
      <trkpt lat="36.7989120483398" lon="-5.14235019683838">
        <ele>577</ele>
        <time>2019-05-11T15:09:28Z</time>
      </trkpt>
      <trkpt lat="36.7989311218262" lon="-5.14237689971924">
        <ele>577</ele>
        <time>2019-05-11T15:09:30Z</time>
      </trkpt>
      <trkpt lat="36.7989501953125" lon="-5.14240312576294">
        <ele>577</ele>
        <time>2019-05-11T15:09:32Z</time>
      </trkpt>
      <trkpt lat="36.7989654541016" lon="-5.1424298286438">
        <ele>577</ele>
        <time>2019-05-11T15:09:35Z</time>
      </trkpt>
      <trkpt lat="36.7989845275879" lon="-5.14245510101318">
        <ele>577</ele>
        <time>2019-05-11T15:09:37Z</time>
      </trkpt>
      <trkpt lat="36.7990036010742" lon="-5.14247703552246">
        <ele>577</ele>
        <time>2019-05-11T15:09:39Z</time>
      </trkpt>
      <trkpt lat="36.799015045166" lon="-5.14249801635742">
        <ele>577</ele>
        <time>2019-05-11T15:09:41Z</time>
      </trkpt>
      <trkpt lat="36.7990303039551" lon="-5.14252281188965">
        <ele>577</ele>
        <time>2019-05-11T15:09:43Z</time>
      </trkpt>
      <trkpt lat="36.7990455627441" lon="-5.14254999160767">
        <ele>577</ele>
        <time>2019-05-11T15:09:45Z</time>
      </trkpt>
      <trkpt lat="36.7990570068359" lon="-5.14257717132568">
        <ele>577</ele>
        <time>2019-05-11T15:09:47Z</time>
      </trkpt>
      <trkpt lat="36.7990760803223" lon="-5.14259004592896">
        <ele>577</ele>
        <time>2019-05-11T15:09:49Z</time>
      </trkpt>
      <trkpt lat="36.7991027832031" lon="-5.14259481430054">
        <ele>576</ele>
        <time>2019-05-11T15:09:51Z</time>
      </trkpt>
      <trkpt lat="36.7991409301758" lon="-5.14260292053223">
        <ele>576</ele>
        <time>2019-05-11T15:09:53Z</time>
      </trkpt>
      <trkpt lat="36.7991714477539" lon="-5.14262819290161">
        <ele>576</ele>
        <time>2019-05-11T15:09:55Z</time>
      </trkpt>
      <trkpt lat="36.7991828918457" lon="-5.1426420211792">
        <ele>576</ele>
        <time>2019-05-11T15:09:57Z</time>
      </trkpt>
      <trkpt lat="36.799201965332" lon="-5.14264822006226">
        <ele>576</ele>
        <time>2019-05-11T15:09:59Z</time>
      </trkpt>
      <trkpt lat="36.7992248535156" lon="-5.14265203475952">
        <ele>576</ele>
        <time>2019-05-11T15:10:01Z</time>
      </trkpt>
      <trkpt lat="36.7992515563965" lon="-5.14265823364258">
        <ele>576</ele>
        <time>2019-05-11T15:10:03Z</time>
      </trkpt>
      <trkpt lat="36.7992858886719" lon="-5.14266300201416">
        <ele>574</ele>
        <time>2019-05-11T15:10:05Z</time>
      </trkpt>
      <trkpt lat="36.7993087768555" lon="-5.14268207550049">
        <ele>573</ele>
        <time>2019-05-11T15:10:07Z</time>
      </trkpt>
      <trkpt lat="36.7993354797363" lon="-5.14269018173218">
        <ele>572</ele>
        <time>2019-05-11T15:10:10Z</time>
      </trkpt>
      <trkpt lat="36.7993698120117" lon="-5.14269208908081">
        <ele>571</ele>
        <time>2019-05-11T15:10:12Z</time>
      </trkpt>
      <trkpt lat="36.7993927001953" lon="-5.14269208908081">
        <ele>570</ele>
        <time>2019-05-11T15:10:14Z</time>
      </trkpt>
      <trkpt lat="36.7994041442871" lon="-5.14268016815186">
        <ele>569</ele>
        <time>2019-05-11T15:10:16Z</time>
      </trkpt>
      <trkpt lat="36.7994117736816" lon="-5.14267206192017">
        <ele>569</ele>
        <time>2019-05-11T15:10:18Z</time>
      </trkpt>
      <trkpt lat="36.7994346618652" lon="-5.14266490936279">
        <ele>569</ele>
        <time>2019-05-11T15:10:20Z</time>
      </trkpt>
      <trkpt lat="36.7994537353516" lon="-5.14266014099121">
        <ele>569</ele>
        <time>2019-05-11T15:10:22Z</time>
      </trkpt>
      <trkpt lat="36.7994804382324" lon="-5.14265203475952">
        <ele>569</ele>
        <time>2019-05-11T15:10:24Z</time>
      </trkpt>
      <trkpt lat="36.7994918823242" lon="-5.14263677597046">
        <ele>569</ele>
        <time>2019-05-11T15:10:26Z</time>
      </trkpt>
      <trkpt lat="36.7994842529297" lon="-5.14261198043823">
        <ele>569</ele>
        <time>2019-05-11T15:10:28Z</time>
      </trkpt>
      <trkpt lat="36.7994499206543" lon="-5.14258003234863">
        <ele>569</ele>
        <time>2019-05-11T15:10:30Z</time>
      </trkpt>
      <trkpt lat="36.799430847168" lon="-5.14254808425903">
        <ele>569</ele>
        <time>2019-05-11T15:10:32Z</time>
      </trkpt>
      <trkpt lat="36.7994117736816" lon="-5.14251518249512">
        <ele>569</ele>
        <time>2019-05-11T15:10:34Z</time>
      </trkpt>
      <trkpt lat="36.7994194030762" lon="-5.14247179031372">
        <ele>569</ele>
        <time>2019-05-11T15:10:36Z</time>
      </trkpt>
      <trkpt lat="36.7994232177734" lon="-5.14243221282959">
        <ele>569</ele>
        <time>2019-05-11T15:10:38Z</time>
      </trkpt>
      <trkpt lat="36.7994155883789" lon="-5.14239692687988">
        <ele>569</ele>
        <time>2019-05-11T15:10:40Z</time>
      </trkpt>
      <trkpt lat="36.7994079589844" lon="-5.1423602104187">
        <ele>570</ele>
        <time>2019-05-11T15:10:42Z</time>
      </trkpt>
      <trkpt lat="36.7994117736816" lon="-5.14233016967773">
        <ele>571</ele>
        <time>2019-05-11T15:10:45Z</time>
      </trkpt>
      <trkpt lat="36.7994232177734" lon="-5.14228820800781">
        <ele>571</ele>
        <time>2019-05-11T15:10:47Z</time>
      </trkpt>
      <trkpt lat="36.799430847168" lon="-5.14224290847778">
        <ele>572</ele>
        <time>2019-05-11T15:10:49Z</time>
      </trkpt>
      <trkpt lat="36.7994384765625" lon="-5.14220714569092">
        <ele>572</ele>
        <time>2019-05-11T15:10:51Z</time>
      </trkpt>
      <trkpt lat="36.7994499206543" lon="-5.14216804504394">
        <ele>572</ele>
        <time>2019-05-11T15:10:53Z</time>
      </trkpt>
      <trkpt lat="36.7994613647461" lon="-5.14212989807129">
        <ele>572</ele>
        <time>2019-05-11T15:10:55Z</time>
      </trkpt>
      <trkpt lat="36.7994689941406" lon="-5.14209985733032">
        <ele>572</ele>
        <time>2019-05-11T15:10:57Z</time>
      </trkpt>
      <trkpt lat="36.7994842529297" lon="-5.14207220077515">
        <ele>572</ele>
        <time>2019-05-11T15:10:59Z</time>
      </trkpt>
      <trkpt lat="36.799503326416" lon="-5.14203786849976">
        <ele>572</ele>
        <time>2019-05-11T15:11:01Z</time>
      </trkpt>
      <trkpt lat="36.7995223999023" lon="-5.14201307296753">
        <ele>572</ele>
        <time>2019-05-11T15:11:03Z</time>
      </trkpt>
      <trkpt lat="36.7995567321777" lon="-5.14198017120361">
        <ele>572</ele>
        <time>2019-05-11T15:11:05Z</time>
      </trkpt>
      <trkpt lat="36.7995758056641" lon="-5.14195680618286">
        <ele>573</ele>
        <time>2019-05-11T15:11:07Z</time>
      </trkpt>
      <trkpt lat="36.7995986938477" lon="-5.14194202423096">
        <ele>574</ele>
        <time>2019-05-11T15:11:09Z</time>
      </trkpt>
      <trkpt lat="36.7996215820312" lon="-5.14192676544189">
        <ele>574</ele>
        <time>2019-05-11T15:11:11Z</time>
      </trkpt>
      <trkpt lat="36.7996406555176" lon="-5.14191007614136">
        <ele>575</ele>
        <time>2019-05-11T15:11:13Z</time>
      </trkpt>
      <trkpt lat="36.7996635437012" lon="-5.14188718795776">
        <ele>576</ele>
        <time>2019-05-11T15:11:15Z</time>
      </trkpt>
      <trkpt lat="36.7996864318848" lon="-5.1418628692627">
        <ele>577</ele>
        <time>2019-05-11T15:11:17Z</time>
      </trkpt>
      <trkpt lat="36.7997055053711" lon="-5.1418399810791">
        <ele>578</ele>
        <time>2019-05-11T15:11:20Z</time>
      </trkpt>
      <trkpt lat="36.7997283935547" lon="-5.14181804656982">
        <ele>579</ele>
        <time>2019-05-11T15:11:22Z</time>
      </trkpt>
      <trkpt lat="36.799747467041" lon="-5.14179277420044">
        <ele>580</ele>
        <time>2019-05-11T15:11:24Z</time>
      </trkpt>
      <trkpt lat="36.7997665405273" lon="-5.14177322387695">
        <ele>580</ele>
        <time>2019-05-11T15:11:26Z</time>
      </trkpt>
      <trkpt lat="36.7997894287109" lon="-5.14176177978516">
        <ele>580</ele>
        <time>2019-05-11T15:11:28Z</time>
      </trkpt>
      <trkpt lat="36.7998123168945" lon="-5.14175701141357">
        <ele>580</ele>
        <time>2019-05-11T15:11:30Z</time>
      </trkpt>
      <trkpt lat="36.7998390197754" lon="-5.14175319671631">
        <ele>580</ele>
        <time>2019-05-11T15:11:32Z</time>
      </trkpt>
      <trkpt lat="36.799861907959" lon="-5.1417498588562">
        <ele>580</ele>
        <time>2019-05-11T15:11:34Z</time>
      </trkpt>
      <trkpt lat="36.7998886108398" lon="-5.14175319671631">
        <ele>580</ele>
        <time>2019-05-11T15:11:36Z</time>
      </trkpt>
      <trkpt lat="36.7999153137207" lon="-5.14175510406494">
        <ele>580</ele>
        <time>2019-05-11T15:11:38Z</time>
      </trkpt>
      <trkpt lat="36.7999534606934" lon="-5.14174795150757">
        <ele>580</ele>
        <time>2019-05-11T15:11:40Z</time>
      </trkpt>
      <trkpt lat="36.799976348877" lon="-5.14174699783325">
        <ele>580</ele>
        <time>2019-05-11T15:11:42Z</time>
      </trkpt>
      <trkpt lat="36.8000030517578" lon="-5.14174795150757">
        <ele>580</ele>
        <time>2019-05-11T15:11:44Z</time>
      </trkpt>
      <trkpt lat="36.8000221252441" lon="-5.14175796508789">
        <ele>580</ele>
        <time>2019-05-11T15:11:46Z</time>
      </trkpt>
      <trkpt lat="36.800048828125" lon="-5.14176797866821">
        <ele>580</ele>
        <time>2019-05-11T15:11:48Z</time>
      </trkpt>
      <trkpt lat="36.8000679016113" lon="-5.1417818069458">
        <ele>581</ele>
        <time>2019-05-11T15:11:50Z</time>
      </trkpt>
      <trkpt lat="36.8000869750977" lon="-5.14179992675781">
        <ele>581</ele>
        <time>2019-05-11T15:11:52Z</time>
      </trkpt>
      <trkpt lat="36.800106048584" lon="-5.14182186126709">
        <ele>581</ele>
        <time>2019-05-11T15:11:55Z</time>
      </trkpt>
      <trkpt lat="36.8001174926758" lon="-5.14184188842773">
        <ele>582</ele>
        <time>2019-05-11T15:11:57Z</time>
      </trkpt>
      <trkpt lat="36.8001289367676" lon="-5.14185285568237">
        <ele>582</ele>
        <time>2019-05-11T15:11:59Z</time>
      </trkpt>
      <trkpt lat="36.8001289367676" lon="-5.14185285568237">
        <ele>582</ele>
        <time>2019-05-11T15:12:01Z</time>
      </trkpt>
      <trkpt lat="36.8001327514648" lon="-5.14185285568237">
        <ele>582</ele>
        <time>2019-05-11T15:12:03Z</time>
      </trkpt>
      <trkpt lat="36.8001327514648" lon="-5.14184522628784">
        <ele>582</ele>
        <time>2019-05-11T15:12:05Z</time>
      </trkpt>
      <trkpt lat="36.8001327514648" lon="-5.14184284210205">
        <ele>582</ele>
        <time>2019-05-11T15:12:07Z</time>
      </trkpt>
      <trkpt lat="36.8001327514648" lon="-5.14184188842773">
        <ele>582</ele>
        <time>2019-05-11T15:12:09Z</time>
      </trkpt>
      <trkpt lat="36.8001327514648" lon="-5.14184808731079">
        <ele>584</ele>
        <time>2019-05-11T15:12:19Z</time>
      </trkpt>
      <trkpt lat="36.8001365661621" lon="-5.14184713363647">
        <ele>584</ele>
        <time>2019-05-11T15:12:21Z</time>
      </trkpt>
      <trkpt lat="36.8001289367676" lon="-5.14186477661133">
        <ele>585</ele>
        <time>2019-05-11T15:12:23Z</time>
      </trkpt>
      <trkpt lat="36.8001289367676" lon="-5.14189004898071">
        <ele>585</ele>
        <time>2019-05-11T15:12:25Z</time>
      </trkpt>
      <trkpt lat="36.8001289367676" lon="-5.14191198348999">
        <ele>585</ele>
        <time>2019-05-11T15:12:27Z</time>
      </trkpt>
      <trkpt lat="36.8001365661621" lon="-5.14192819595337">
        <ele>585</ele>
        <time>2019-05-11T15:12:29Z</time>
      </trkpt>
      <trkpt lat="36.8001518249512" lon="-5.14194297790527">
        <ele>585</ele>
        <time>2019-05-11T15:12:31Z</time>
      </trkpt>
      <trkpt lat="36.800163269043" lon="-5.14195823669434">
        <ele>585</ele>
        <time>2019-05-11T15:12:33Z</time>
      </trkpt>
      <trkpt lat="36.800178527832" lon="-5.14197492599487">
        <ele>585</ele>
        <time>2019-05-11T15:12:35Z</time>
      </trkpt>
      <trkpt lat="36.8001937866211" lon="-5.14199781417847">
        <ele>585</ele>
        <time>2019-05-11T15:12:38Z</time>
      </trkpt>
      <trkpt lat="36.8002052307129" lon="-5.14202499389648">
        <ele>585</ele>
        <time>2019-05-11T15:12:40Z</time>
      </trkpt>
      <trkpt lat="36.8002166748047" lon="-5.14204978942871">
        <ele>585</ele>
        <time>2019-05-11T15:12:42Z</time>
      </trkpt>
      <trkpt lat="36.8002319335938" lon="-5.1420750617981">
        <ele>585</ele>
        <time>2019-05-11T15:12:44Z</time>
      </trkpt>
      <trkpt lat="36.8002433776856" lon="-5.1421070098877">
        <ele>585</ele>
        <time>2019-05-11T15:12:46Z</time>
      </trkpt>
      <trkpt lat="36.8002548217773" lon="-5.14213991165161">
        <ele>585</ele>
        <time>2019-05-11T15:12:48Z</time>
      </trkpt>
      <trkpt lat="36.8002624511719" lon="-5.14217185974121">
        <ele>585</ele>
        <time>2019-05-11T15:12:50Z</time>
      </trkpt>
      <trkpt lat="36.8002662658691" lon="-5.14220809936523">
        <ele>585</ele>
        <time>2019-05-11T15:12:52Z</time>
      </trkpt>
      <trkpt lat="36.8002738952637" lon="-5.14224290847778">
        <ele>585</ele>
        <time>2019-05-11T15:12:54Z</time>
      </trkpt>
      <trkpt lat="36.8002815246582" lon="-5.14227819442749">
        <ele>585</ele>
        <time>2019-05-11T15:12:56Z</time>
      </trkpt>
      <trkpt lat="36.8002815246582" lon="-5.14232778549194">
        <ele>585</ele>
        <time>2019-05-11T15:12:58Z</time>
      </trkpt>
      <trkpt lat="36.8002853393555" lon="-5.1423602104187">
        <ele>585</ele>
        <time>2019-05-11T15:13:00Z</time>
      </trkpt>
      <trkpt lat="36.8002891540527" lon="-5.1423921585083">
        <ele>585</ele>
        <time>2019-05-11T15:13:02Z</time>
      </trkpt>
      <trkpt lat="36.8002891540527" lon="-5.14242219924927">
        <ele>585</ele>
        <time>2019-05-11T15:13:04Z</time>
      </trkpt>
      <trkpt lat="36.8002891540527" lon="-5.14245176315308">
        <ele>585</ele>
        <time>2019-05-11T15:13:06Z</time>
      </trkpt>
      <trkpt lat="36.8002891540527" lon="-5.14248180389404">
        <ele>585</ele>
        <time>2019-05-11T15:13:08Z</time>
      </trkpt>
      <trkpt lat="36.80029296875" lon="-5.14251518249512">
        <ele>585</ele>
        <time>2019-05-11T15:13:10Z</time>
      </trkpt>
      <trkpt lat="36.8002891540527" lon="-5.14254808425903">
        <ele>585</ele>
        <time>2019-05-11T15:13:13Z</time>
      </trkpt>
      <trkpt lat="36.80029296875" lon="-5.14258003234863">
        <ele>585</ele>
        <time>2019-05-11T15:13:15Z</time>
      </trkpt>
      <trkpt lat="36.80029296875" lon="-5.14261198043823">
        <ele>585</ele>
        <time>2019-05-11T15:13:17Z</time>
      </trkpt>
      <trkpt lat="36.8002967834473" lon="-5.1426420211792">
        <ele>585</ele>
        <time>2019-05-11T15:13:19Z</time>
      </trkpt>
      <trkpt lat="36.8003005981445" lon="-5.14267301559448">
        <ele>585</ele>
        <time>2019-05-11T15:13:21Z</time>
      </trkpt>
      <trkpt lat="36.8003005981445" lon="-5.14270496368408">
        <ele>585</ele>
        <time>2019-05-11T15:13:23Z</time>
      </trkpt>
      <trkpt lat="36.8003082275391" lon="-5.142737865448">
        <ele>585</ele>
        <time>2019-05-11T15:13:25Z</time>
      </trkpt>
      <trkpt lat="36.8003120422363" lon="-5.1427698135376">
        <ele>585</ele>
        <time>2019-05-11T15:13:27Z</time>
      </trkpt>
      <trkpt lat="36.8003158569336" lon="-5.1428017616272">
        <ele>585</ele>
        <time>2019-05-11T15:13:29Z</time>
      </trkpt>
      <trkpt lat="36.8003196716309" lon="-5.14283180236816">
        <ele>585</ele>
        <time>2019-05-11T15:13:31Z</time>
      </trkpt>
      <trkpt lat="36.8003196716309" lon="-5.14286279678345">
        <ele>585</ele>
        <time>2019-05-11T15:13:33Z</time>
      </trkpt>
      <trkpt lat="36.8003311157227" lon="-5.14290523529053">
        <ele>585</ele>
        <time>2019-05-11T15:13:35Z</time>
      </trkpt>
      <trkpt lat="36.8003387451172" lon="-5.14292001724243">
        <ele>585</ele>
        <time>2019-05-11T15:13:37Z</time>
      </trkpt>
      <trkpt lat="36.8003387451172" lon="-5.14294290542603">
        <ele>585</ele>
        <time>2019-05-11T15:13:39Z</time>
      </trkpt>
      <trkpt lat="36.8003387451172" lon="-5.14297008514404">
        <ele>585</ele>
        <time>2019-05-11T15:13:41Z</time>
      </trkpt>
      <trkpt lat="36.8003349304199" lon="-5.14299488067627">
        <ele>585</ele>
        <time>2019-05-11T15:13:43Z</time>
      </trkpt>
      <trkpt lat="36.8003387451172" lon="-5.1430230140686">
        <ele>584</ele>
        <time>2019-05-11T15:13:45Z</time>
      </trkpt>
      <trkpt lat="36.8003463745117" lon="-5.14305686950684">
        <ele>583</ele>
        <time>2019-05-11T15:13:47Z</time>
      </trkpt>
      <trkpt lat="36.8003578186035" lon="-5.14308786392212">
        <ele>582</ele>
        <time>2019-05-11T15:13:50Z</time>
      </trkpt>
      <trkpt lat="36.800365447998" lon="-5.14312314987183">
        <ele>581</ele>
        <time>2019-05-11T15:13:52Z</time>
      </trkpt>
      <trkpt lat="36.8003768920898" lon="-5.14315986633301">
        <ele>580</ele>
        <time>2019-05-11T15:13:54Z</time>
      </trkpt>
      <trkpt lat="36.8003807067871" lon="-5.14319276809692">
        <ele>579</ele>
        <time>2019-05-11T15:13:56Z</time>
      </trkpt>
      <trkpt lat="36.8003883361816" lon="-5.14322996139526">
        <ele>577</ele>
        <time>2019-05-11T15:13:58Z</time>
      </trkpt>
      <trkpt lat="36.8003959655762" lon="-5.14326477050781">
        <ele>577</ele>
        <time>2019-05-11T15:14:00Z</time>
      </trkpt>
      <trkpt lat="36.8004035949707" lon="-5.14330196380615">
        <ele>576</ele>
        <time>2019-05-11T15:14:02Z</time>
      </trkpt>
      <trkpt lat="36.8004112243652" lon="-5.1433367729187">
        <ele>576</ele>
        <time>2019-05-11T15:14:04Z</time>
      </trkpt>
      <trkpt lat="36.8004264831543" lon="-5.14336776733398">
        <ele>575</ele>
        <time>2019-05-11T15:14:06Z</time>
      </trkpt>
      <trkpt lat="36.8004264831543" lon="-5.14340209960938">
        <ele>575</ele>
        <time>2019-05-11T15:14:08Z</time>
      </trkpt>
      <trkpt lat="36.8004302978516" lon="-5.14345216751099">
        <ele>575</ele>
        <time>2019-05-11T15:14:10Z</time>
      </trkpt>
      <trkpt lat="36.8004417419434" lon="-5.1434850692749">
        <ele>574</ele>
        <time>2019-05-11T15:14:12Z</time>
      </trkpt>
      <trkpt lat="36.8004493713379" lon="-5.14352321624756">
        <ele>574</ele>
        <time>2019-05-11T15:14:14Z</time>
      </trkpt>
      <trkpt lat="36.8004493713379" lon="-5.14356517791748">
        <ele>574</ele>
        <time>2019-05-11T15:14:16Z</time>
      </trkpt>
      <trkpt lat="36.8004608154297" lon="-5.14360284805298">
        <ele>574</ele>
        <time>2019-05-11T15:14:18Z</time>
      </trkpt>
      <trkpt lat="36.800464630127" lon="-5.14364194869995">
        <ele>574</ele>
        <time>2019-05-11T15:14:20Z</time>
      </trkpt>
      <trkpt lat="36.800464630127" lon="-5.14368200302124">
        <ele>574</ele>
        <time>2019-05-11T15:14:22Z</time>
      </trkpt>
      <trkpt lat="36.800464630127" lon="-5.14372301101685">
        <ele>574</ele>
        <time>2019-05-11T15:14:24Z</time>
      </trkpt>
      <trkpt lat="36.8004684448242" lon="-5.14376306533814">
        <ele>574</ele>
        <time>2019-05-11T15:14:27Z</time>
      </trkpt>
      <trkpt lat="36.8004722595215" lon="-5.14380216598511">
        <ele>574</ele>
        <time>2019-05-11T15:14:29Z</time>
      </trkpt>
      <trkpt lat="36.8004722595215" lon="-5.14383792877197">
        <ele>574</ele>
        <time>2019-05-11T15:14:31Z</time>
      </trkpt>
      <trkpt lat="36.800479888916" lon="-5.14387321472168">
        <ele>574</ele>
        <time>2019-05-11T15:14:33Z</time>
      </trkpt>
      <trkpt lat="36.8004875183106" lon="-5.1439151763916">
        <ele>574</ele>
        <time>2019-05-11T15:14:35Z</time>
      </trkpt>
      <trkpt lat="36.8004913330078" lon="-5.1439528465271">
        <ele>574</ele>
        <time>2019-05-11T15:14:37Z</time>
      </trkpt>
      <trkpt lat="36.8004951477051" lon="-5.14398813247681">
        <ele>574</ele>
        <time>2019-05-11T15:14:39Z</time>
      </trkpt>
      <trkpt lat="36.8005027770996" lon="-5.14402198791504">
        <ele>574</ele>
        <time>2019-05-11T15:14:41Z</time>
      </trkpt>
      <trkpt lat="36.8005065917969" lon="-5.1440601348877">
        <ele>574</ele>
        <time>2019-05-11T15:14:43Z</time>
      </trkpt>
      <trkpt lat="36.8005104064941" lon="-5.14409685134888">
        <ele>574</ele>
        <time>2019-05-11T15:14:45Z</time>
      </trkpt>
      <trkpt lat="36.8005218505859" lon="-5.14414978027344">
        <ele>574</ele>
        <time>2019-05-11T15:14:47Z</time>
      </trkpt>
      <trkpt lat="36.8005256652832" lon="-5.1441798210144">
        <ele>574</ele>
        <time>2019-05-11T15:14:49Z</time>
      </trkpt>
      <trkpt lat="36.8005332946777" lon="-5.14421701431274">
        <ele>574</ele>
        <time>2019-05-11T15:14:51Z</time>
      </trkpt>
      <trkpt lat="36.800537109375" lon="-5.14424705505371">
        <ele>574</ele>
        <time>2019-05-11T15:14:53Z</time>
      </trkpt>
      <trkpt lat="36.8005447387695" lon="-5.14427804946899">
        <ele>574</ele>
        <time>2019-05-11T15:14:55Z</time>
      </trkpt>
      <trkpt lat="36.8005561828613" lon="-5.14430809020996">
        <ele>574</ele>
        <time>2019-05-11T15:14:57Z</time>
      </trkpt>
      <trkpt lat="36.8005714416504" lon="-5.14433479309082">
        <ele>574</ele>
        <time>2019-05-11T15:14:59Z</time>
      </trkpt>
      <trkpt lat="36.8005867004394" lon="-5.14435815811157">
        <ele>574</ele>
        <time>2019-05-11T15:15:01Z</time>
      </trkpt>
      <trkpt lat="36.8006172180176" lon="-5.14437294006348">
        <ele>574</ele>
        <time>2019-05-11T15:15:03Z</time>
      </trkpt>
      <trkpt lat="36.8006401062012" lon="-5.1443829536438">
        <ele>574</ele>
        <time>2019-05-11T15:15:05Z</time>
      </trkpt>
      <trkpt lat="36.8006553649902" lon="-5.14438676834106">
        <ele>574</ele>
        <time>2019-05-11T15:15:07Z</time>
      </trkpt>
      <trkpt lat="36.8006782531738" lon="-5.14439821243286">
        <ele>574</ele>
        <time>2019-05-11T15:15:10Z</time>
      </trkpt>
      <trkpt lat="36.8007011413574" lon="-5.14440822601318">
        <ele>574</ele>
        <time>2019-05-11T15:15:12Z</time>
      </trkpt>
      <trkpt lat="36.800724029541" lon="-5.14442300796509">
        <ele>574</ele>
        <time>2019-05-11T15:15:14Z</time>
      </trkpt>
      <trkpt lat="36.8007469177246" lon="-5.14443683624268">
        <ele>574</ele>
        <time>2019-05-11T15:15:16Z</time>
      </trkpt>
      <trkpt lat="36.8007736206055" lon="-5.14445209503174">
        <ele>574</ele>
        <time>2019-05-11T15:15:18Z</time>
      </trkpt>
      <trkpt lat="36.8007965087891" lon="-5.14446306228638">
        <ele>574</ele>
        <time>2019-05-11T15:15:20Z</time>
      </trkpt>
      <trkpt lat="36.8008155822754" lon="-5.14447689056396">
        <ele>574</ele>
        <time>2019-05-11T15:15:22Z</time>
      </trkpt>
      <trkpt lat="36.8008270263672" lon="-5.14449214935303">
        <ele>573</ele>
        <time>2019-05-11T15:15:24Z</time>
      </trkpt>
      <trkpt lat="36.8008460998535" lon="-5.14450979232788">
        <ele>573</ele>
        <time>2019-05-11T15:15:26Z</time>
      </trkpt>
      <trkpt lat="36.8008651733398" lon="-5.14452791213989">
        <ele>572</ele>
        <time>2019-05-11T15:15:28Z</time>
      </trkpt>
      <trkpt lat="36.8008880615234" lon="-5.14454698562622">
        <ele>572</ele>
        <time>2019-05-11T15:15:30Z</time>
      </trkpt>
      <trkpt lat="36.800910949707" lon="-5.1445631980896">
        <ele>571</ele>
        <time>2019-05-11T15:15:32Z</time>
      </trkpt>
      <trkpt lat="36.8009300231934" lon="-5.14458513259888">
        <ele>571</ele>
        <time>2019-05-11T15:15:34Z</time>
      </trkpt>
      <trkpt lat="36.8009490966797" lon="-5.14461183547974">
        <ele>571</ele>
        <time>2019-05-11T15:15:36Z</time>
      </trkpt>
      <trkpt lat="36.8009643554688" lon="-5.14463806152344">
        <ele>571</ele>
        <time>2019-05-11T15:15:38Z</time>
      </trkpt>
      <trkpt lat="36.8009834289551" lon="-5.14466285705566">
        <ele>571</ele>
        <time>2019-05-11T15:15:40Z</time>
      </trkpt>
      <trkpt lat="36.8009986877441" lon="-5.14469194412231">
        <ele>571</ele>
        <time>2019-05-11T15:15:42Z</time>
      </trkpt>
      <trkpt lat="36.8010101318359" lon="-5.14472007751465">
        <ele>571</ele>
        <time>2019-05-11T15:15:44Z</time>
      </trkpt>
      <trkpt lat="36.8010330200195" lon="-5.14476490020752">
        <ele>571</ele>
        <time>2019-05-11T15:15:46Z</time>
      </trkpt>
      <trkpt lat="36.8010406494141" lon="-5.14479494094849">
        <ele>571</ele>
        <time>2019-05-11T15:15:48Z</time>
      </trkpt>
      <trkpt lat="36.8010520935059" lon="-5.14482688903809">
        <ele>571</ele>
        <time>2019-05-11T15:15:50Z</time>
      </trkpt>
      <trkpt lat="36.8010673522949" lon="-5.14485788345337">
        <ele>571</ele>
        <time>2019-05-11T15:15:52Z</time>
      </trkpt>
      <trkpt lat="36.8010787963867" lon="-5.14489316940308">
        <ele>571</ele>
        <time>2019-05-11T15:15:54Z</time>
      </trkpt>
      <trkpt lat="36.8010864257812" lon="-5.14491987228394">
        <ele>571</ele>
        <time>2019-05-11T15:15:56Z</time>
      </trkpt>
      <trkpt lat="36.8010864257812" lon="-5.14492177963257">
        <ele>571</ele>
        <time>2019-05-11T15:15:58Z</time>
      </trkpt>
      <trkpt lat="36.8010902404785" lon="-5.14492511749268">
        <ele>571</ele>
        <time>2019-05-11T15:16:01Z</time>
      </trkpt>
      <trkpt lat="36.8010940551758" lon="-5.14492702484131">
        <ele>571</ele>
        <time>2019-05-11T15:16:03Z</time>
      </trkpt>
      <trkpt lat="36.801097869873" lon="-5.14492797851562">
        <ele>572</ele>
        <time>2019-05-11T15:16:05Z</time>
      </trkpt>
      <trkpt lat="36.8011016845703" lon="-5.14492988586426">
        <ele>572</ele>
        <time>2019-05-11T15:16:07Z</time>
      </trkpt>
      <trkpt lat="36.8011016845703" lon="-5.14493179321289">
        <ele>572</ele>
        <time>2019-05-11T15:16:09Z</time>
      </trkpt>
      <trkpt lat="36.8011131286621" lon="-5.1449499130249">
        <ele>572</ele>
        <time>2019-05-11T15:16:11Z</time>
      </trkpt>
      <trkpt lat="36.8011283874512" lon="-5.1449818611145">
        <ele>572</ele>
        <time>2019-05-11T15:16:13Z</time>
      </trkpt>
      <trkpt lat="36.8011474609375" lon="-5.14500522613525">
        <ele>572</ele>
        <time>2019-05-11T15:16:15Z</time>
      </trkpt>
      <trkpt lat="36.8011589050293" lon="-5.14503192901611">
        <ele>572</ele>
        <time>2019-05-11T15:16:17Z</time>
      </trkpt>
      <trkpt lat="36.8011703491211" lon="-5.14505815505981">
        <ele>572</ele>
        <time>2019-05-11T15:16:19Z</time>
      </trkpt>
      <trkpt lat="36.8011817932129" lon="-5.14508819580078">
        <ele>572</ele>
        <time>2019-05-11T15:16:21Z</time>
      </trkpt>
      <trkpt lat="36.8011932373047" lon="-5.14511299133301">
        <ele>572</ele>
        <time>2019-05-11T15:16:23Z</time>
      </trkpt>
      <trkpt lat="36.8012161254883" lon="-5.14515781402588">
        <ele>572</ele>
        <time>2019-05-11T15:16:25Z</time>
      </trkpt>
      <trkpt lat="36.8012313842773" lon="-5.14518785476685">
        <ele>572</ele>
        <time>2019-05-11T15:16:27Z</time>
      </trkpt>
      <trkpt lat="36.8012428283691" lon="-5.14521503448486">
        <ele>572</ele>
        <time>2019-05-11T15:16:29Z</time>
      </trkpt>
      <trkpt lat="36.8012580871582" lon="-5.14524698257446">
        <ele>572</ele>
        <time>2019-05-11T15:16:31Z</time>
      </trkpt>
      <trkpt lat="36.8012733459473" lon="-5.1452751159668">
        <ele>571</ele>
        <time>2019-05-11T15:16:33Z</time>
      </trkpt>
      <trkpt lat="36.8012847900391" lon="-5.1453070640564">
        <ele>571</ele>
        <time>2019-05-11T15:16:35Z</time>
      </trkpt>
      <trkpt lat="36.8012924194336" lon="-5.14533710479736">
        <ele>570</ele>
        <time>2019-05-11T15:16:37Z</time>
      </trkpt>
      <trkpt lat="36.8013000488281" lon="-5.14536714553833">
        <ele>570</ele>
        <time>2019-05-11T15:16:40Z</time>
      </trkpt>
      <trkpt lat="36.8013038635254" lon="-5.14539289474487">
        <ele>569</ele>
        <time>2019-05-11T15:16:42Z</time>
      </trkpt>
      <trkpt lat="36.8013114929199" lon="-5.14541816711426">
        <ele>569</ele>
        <time>2019-05-11T15:16:44Z</time>
      </trkpt>
      <trkpt lat="36.8013114929199" lon="-5.14544820785522">
        <ele>568</ele>
        <time>2019-05-11T15:16:46Z</time>
      </trkpt>
      <trkpt lat="36.8013191223144" lon="-5.14547681808472">
        <ele>568</ele>
        <time>2019-05-11T15:16:48Z</time>
      </trkpt>
      <trkpt lat="36.801326751709" lon="-5.14550495147705">
        <ele>568</ele>
        <time>2019-05-11T15:16:50Z</time>
      </trkpt>
      <trkpt lat="36.8013381958008" lon="-5.14553308486938">
        <ele>568</ele>
        <time>2019-05-11T15:16:52Z</time>
      </trkpt>
      <trkpt lat="36.8013458251953" lon="-5.14556503295898">
        <ele>568</ele>
        <time>2019-05-11T15:16:54Z</time>
      </trkpt>
      <trkpt lat="36.8013458251953" lon="-5.14559984207153">
        <ele>568</ele>
        <time>2019-05-11T15:16:56Z</time>
      </trkpt>
      <trkpt lat="36.8013534545898" lon="-5.14563798904419">
        <ele>568</ele>
        <time>2019-05-11T15:16:58Z</time>
      </trkpt>
      <trkpt lat="36.8013534545898" lon="-5.1456880569458">
        <ele>568</ele>
        <time>2019-05-11T15:17:00Z</time>
      </trkpt>
      <trkpt lat="36.8013648986816" lon="-5.14572286605835">
        <ele>568</ele>
        <time>2019-05-11T15:17:02Z</time>
      </trkpt>
      <trkpt lat="36.8013763427734" lon="-5.14576196670532">
        <ele>568</ele>
        <time>2019-05-11T15:17:04Z</time>
      </trkpt>
      <trkpt lat="36.8013801574707" lon="-5.14579486846924">
        <ele>568</ele>
        <time>2019-05-11T15:17:06Z</time>
      </trkpt>
      <trkpt lat="36.801383972168" lon="-5.14582681655884">
        <ele>568</ele>
        <time>2019-05-11T15:17:08Z</time>
      </trkpt>
      <trkpt lat="36.8013916015625" lon="-5.14586210250854">
        <ele>568</ele>
        <time>2019-05-11T15:17:10Z</time>
      </trkpt>
      <trkpt lat="36.801399230957" lon="-5.14589500427246">
        <ele>568</ele>
        <time>2019-05-11T15:17:12Z</time>
      </trkpt>
      <trkpt lat="36.8014030456543" lon="-5.14593315124512">
        <ele>568</ele>
        <time>2019-05-11T15:17:15Z</time>
      </trkpt>
      <trkpt lat="36.8014068603516" lon="-5.14597177505493">
        <ele>568</ele>
        <time>2019-05-11T15:17:17Z</time>
      </trkpt>
      <trkpt lat="36.8014144897461" lon="-5.14601182937622">
        <ele>568</ele>
        <time>2019-05-11T15:17:19Z</time>
      </trkpt>
      <trkpt lat="36.8014183044434" lon="-5.14604997634888">
        <ele>568</ele>
        <time>2019-05-11T15:17:21Z</time>
      </trkpt>
      <trkpt lat="36.8014259338379" lon="-5.14608716964722">
        <ele>568</ele>
        <time>2019-05-11T15:17:23Z</time>
      </trkpt>
      <trkpt lat="36.8014297485352" lon="-5.14612293243408">
        <ele>568</ele>
        <time>2019-05-11T15:17:25Z</time>
      </trkpt>
      <trkpt lat="36.8014335632324" lon="-5.14615821838379">
        <ele>568</ele>
        <time>2019-05-11T15:17:27Z</time>
      </trkpt>
      <trkpt lat="36.8014335632324" lon="-5.14619302749634">
        <ele>568</ele>
        <time>2019-05-11T15:17:29Z</time>
      </trkpt>
      <trkpt lat="36.8014335632324" lon="-5.14623022079468">
        <ele>568</ele>
        <time>2019-05-11T15:17:31Z</time>
      </trkpt>
      <trkpt lat="36.8014335632324" lon="-5.14626693725586">
        <ele>568</ele>
        <time>2019-05-11T15:17:33Z</time>
      </trkpt>
      <trkpt lat="36.8014335632324" lon="-5.14631986618042">
        <ele>568</ele>
        <time>2019-05-11T15:17:35Z</time>
      </trkpt>
      <trkpt lat="36.8014335632324" lon="-5.14635515213013">
        <ele>568</ele>
        <time>2019-05-11T15:17:37Z</time>
      </trkpt>
      <trkpt lat="36.8014335632324" lon="-5.14639520645142">
        <ele>568</ele>
        <time>2019-05-11T15:17:39Z</time>
      </trkpt>
      <trkpt lat="36.8014335632324" lon="-5.1464319229126">
        <ele>568</ele>
        <time>2019-05-11T15:17:41Z</time>
      </trkpt>
      <trkpt lat="36.8014335632324" lon="-5.14646482467651">
        <ele>568</ele>
        <time>2019-05-11T15:17:43Z</time>
      </trkpt>
      <trkpt lat="36.8014335632324" lon="-5.14650201797485">
        <ele>568</ele>
        <time>2019-05-11T15:17:45Z</time>
      </trkpt>
      <trkpt lat="36.8014335632324" lon="-5.14653778076172">
        <ele>568</ele>
        <time>2019-05-11T15:17:47Z</time>
      </trkpt>
      <trkpt lat="36.8014373779297" lon="-5.14657497406006">
        <ele>568</ele>
        <time>2019-05-11T15:17:50Z</time>
      </trkpt>
      <trkpt lat="36.801441192627" lon="-5.14660692214966">
        <ele>568</ele>
        <time>2019-05-11T15:17:52Z</time>
      </trkpt>
      <trkpt lat="36.801441192627" lon="-5.14663982391357">
        <ele>568</ele>
        <time>2019-05-11T15:17:54Z</time>
      </trkpt>
      <trkpt lat="36.8014373779297" lon="-5.14667320251465">
        <ele>568</ele>
        <time>2019-05-11T15:17:56Z</time>
      </trkpt>
      <trkpt lat="36.8014335632324" lon="-5.1467080116272">
        <ele>568</ele>
        <time>2019-05-11T15:17:58Z</time>
      </trkpt>
      <trkpt lat="36.8014297485352" lon="-5.14674282073975">
        <ele>568</ele>
        <time>2019-05-11T15:18:00Z</time>
      </trkpt>
      <trkpt lat="36.8014259338379" lon="-5.14677810668945">
        <ele>568</ele>
        <time>2019-05-11T15:18:02Z</time>
      </trkpt>
      <trkpt lat="36.8014297485352" lon="-5.14681482315064">
        <ele>568</ele>
        <time>2019-05-11T15:18:04Z</time>
      </trkpt>
      <trkpt lat="36.8014297485352" lon="-5.14685201644897">
        <ele>568</ele>
        <time>2019-05-11T15:18:06Z</time>
      </trkpt>
      <trkpt lat="36.8014297485352" lon="-5.14688491821289">
        <ele>568</ele>
        <time>2019-05-11T15:18:08Z</time>
      </trkpt>
      <trkpt lat="36.8014297485352" lon="-5.14692783355713">
        <ele>568</ele>
        <time>2019-05-11T15:18:10Z</time>
      </trkpt>
      <trkpt lat="36.8014335632324" lon="-5.14695692062378">
        <ele>568</ele>
        <time>2019-05-11T15:18:12Z</time>
      </trkpt>
      <trkpt lat="36.8014297485352" lon="-5.14697694778442">
        <ele>568</ele>
        <time>2019-05-11T15:18:14Z</time>
      </trkpt>
      <trkpt lat="36.8014297485352" lon="-5.1469898223877">
        <ele>568</ele>
        <time>2019-05-11T15:18:16Z</time>
      </trkpt>
      <trkpt lat="36.8014297485352" lon="-5.14700317382812">
        <ele>568</ele>
        <time>2019-05-11T15:18:18Z</time>
      </trkpt>
      <trkpt lat="36.8014335632324" lon="-5.14700984954834">
        <ele>568</ele>
        <time>2019-05-11T15:18:20Z</time>
      </trkpt>
      <trkpt lat="36.8014335632324" lon="-5.1470217704773">
        <ele>568</ele>
        <time>2019-05-11T15:18:22Z</time>
      </trkpt>
      <trkpt lat="36.8014335632324" lon="-5.14702987670898">
        <ele>568</ele>
        <time>2019-05-11T15:18:24Z</time>
      </trkpt>
      <trkpt lat="36.8014335632324" lon="-5.14703702926636">
        <ele>568</ele>
        <time>2019-05-11T15:18:27Z</time>
      </trkpt>
      <trkpt lat="36.8014335632324" lon="-5.14704179763794">
        <ele>568</ele>
        <time>2019-05-11T15:18:29Z</time>
      </trkpt>
      <trkpt lat="36.8014373779297" lon="-5.14704990386963">
        <ele>568</ele>
        <time>2019-05-11T15:18:31Z</time>
      </trkpt>
      <trkpt lat="36.8014373779297" lon="-5.14706993103027">
        <ele>568</ele>
        <time>2019-05-11T15:18:33Z</time>
      </trkpt>
      <trkpt lat="36.8014373779297" lon="-5.14709281921387">
        <ele>568</ele>
        <time>2019-05-11T15:18:35Z</time>
      </trkpt>
      <trkpt lat="36.8014335632324" lon="-5.14709806442261">
        <ele>568</ele>
        <time>2019-05-11T15:18:37Z</time>
      </trkpt>
      <trkpt lat="36.8014373779297" lon="-5.14710187911987">
        <ele>568</ele>
        <time>2019-05-11T15:18:39Z</time>
      </trkpt>
      <trkpt lat="36.801441192627" lon="-5.14710283279419">
        <ele>568</ele>
        <time>2019-05-11T15:18:41Z</time>
      </trkpt>
      <trkpt lat="36.801441192627" lon="-5.14710712432861">
        <ele>568</ele>
        <time>2019-05-11T15:18:43Z</time>
      </trkpt>
      <trkpt lat="36.801441192627" lon="-5.14710712432861">
        <ele>568</ele>
        <time>2019-05-11T15:18:45Z</time>
      </trkpt>
      <trkpt lat="36.8014450073242" lon="-5.14710807800293">
        <ele>568</ele>
        <time>2019-05-11T15:18:47Z</time>
      </trkpt>
      <trkpt lat="36.8014488220215" lon="-5.1471118927002">
        <ele>568</ele>
        <time>2019-05-11T15:18:49Z</time>
      </trkpt>
      <trkpt lat="36.8014488220215" lon="-5.14710998535156">
        <ele>568</ele>
        <time>2019-05-11T15:18:51Z</time>
      </trkpt>
      <trkpt lat="36.8014488220215" lon="-5.14711809158325">
        <ele>568</ele>
        <time>2019-05-11T15:18:53Z</time>
      </trkpt>
      <trkpt lat="36.8014488220215" lon="-5.1471381187439">
        <ele>568</ele>
        <time>2019-05-11T15:18:55Z</time>
      </trkpt>
      <trkpt lat="36.8014526367188" lon="-5.14715814590454">
        <ele>568</ele>
        <time>2019-05-11T15:18:57Z</time>
      </trkpt>
      <trkpt lat="36.8014526367188" lon="-5.1471848487854">
        <ele>568</ele>
        <time>2019-05-11T15:18:59Z</time>
      </trkpt>
      <trkpt lat="36.8014488220215" lon="-5.14721012115478">
        <ele>568</ele>
        <time>2019-05-11T15:19:01Z</time>
      </trkpt>
      <trkpt lat="36.8014526367188" lon="-5.14723300933838">
        <ele>568</ele>
        <time>2019-05-11T15:19:03Z</time>
      </trkpt>
      <trkpt lat="36.801456451416" lon="-5.14726209640503">
        <ele>567</ele>
        <time>2019-05-11T15:19:05Z</time>
      </trkpt>
      <trkpt lat="36.801456451416" lon="-5.147292137146">
        <ele>567</ele>
        <time>2019-05-11T15:19:08Z</time>
      </trkpt>
      <trkpt lat="36.8014602661133" lon="-5.14731979370117">
        <ele>567</ele>
        <time>2019-05-11T15:19:10Z</time>
      </trkpt>
      <trkpt lat="36.8014640808106" lon="-5.14734792709351">
        <ele>567</ele>
        <time>2019-05-11T15:19:12Z</time>
      </trkpt>
      <trkpt lat="36.8014678955078" lon="-5.14737701416016">
        <ele>566</ele>
        <time>2019-05-11T15:19:14Z</time>
      </trkpt>
      <trkpt lat="36.8014793395996" lon="-5.14740514755249">
        <ele>566</ele>
        <time>2019-05-11T15:19:16Z</time>
      </trkpt>
      <trkpt lat="36.8014869689941" lon="-5.14743280410767">
        <ele>566</ele>
        <time>2019-05-11T15:19:18Z</time>
      </trkpt>
      <trkpt lat="36.8015022277832" lon="-5.14746189117432">
        <ele>566</ele>
        <time>2019-05-11T15:19:20Z</time>
      </trkpt>
      <trkpt lat="36.801513671875" lon="-5.1474871635437">
        <ele>566</ele>
        <time>2019-05-11T15:19:22Z</time>
      </trkpt>
      <trkpt lat="36.8015289306641" lon="-5.14751195907593">
        <ele>566</ele>
        <time>2019-05-11T15:19:24Z</time>
      </trkpt>
      <trkpt lat="36.8015518188477" lon="-5.14753723144531">
        <ele>566</ele>
        <time>2019-05-11T15:19:26Z</time>
      </trkpt>
      <trkpt lat="36.8015747070312" lon="-5.14757490158081">
        <ele>566</ele>
        <time>2019-05-11T15:19:28Z</time>
      </trkpt>
      <trkpt lat="36.801586151123" lon="-5.14759492874146">
        <ele>566</ele>
        <time>2019-05-11T15:19:30Z</time>
      </trkpt>
      <trkpt lat="36.8016014099121" lon="-5.1476149559021">
        <ele>566</ele>
        <time>2019-05-11T15:19:32Z</time>
      </trkpt>
      <trkpt lat="36.8016166687012" lon="-5.14764022827148">
        <ele>566</ele>
        <time>2019-05-11T15:19:34Z</time>
      </trkpt>
      <trkpt lat="36.8016357421875" lon="-5.14766693115234">
        <ele>566</ele>
        <time>2019-05-11T15:19:36Z</time>
      </trkpt>
      <trkpt lat="36.8016586303711" lon="-5.1476879119873">
        <ele>566</ele>
        <time>2019-05-11T15:19:38Z</time>
      </trkpt>
      <trkpt lat="36.8016777038574" lon="-5.14770984649658">
        <ele>566</ele>
        <time>2019-05-11T15:19:40Z</time>
      </trkpt>
      <trkpt lat="36.8017044067383" lon="-5.14772701263428">
        <ele>566</ele>
        <time>2019-05-11T15:19:43Z</time>
      </trkpt>
      <trkpt lat="36.8017234802246" lon="-5.14773797988892">
        <ele>566</ele>
        <time>2019-05-11T15:19:45Z</time>
      </trkpt>
      <trkpt lat="36.8017387390137" lon="-5.14775705337524">
        <ele>566</ele>
        <time>2019-05-11T15:19:47Z</time>
      </trkpt>
      <trkpt lat="36.8017616271973" lon="-5.14777278900146">
        <ele>566</ele>
        <time>2019-05-11T15:19:49Z</time>
      </trkpt>
      <trkpt lat="36.8017883300781" lon="-5.14779186248779">
        <ele>566</ele>
        <time>2019-05-11T15:19:51Z</time>
      </trkpt>
      <trkpt lat="36.8018112182617" lon="-5.14779806137085">
        <ele>566</ele>
        <time>2019-05-11T15:19:53Z</time>
      </trkpt>
      <trkpt lat="36.8018379211426" lon="-5.1478099822998">
        <ele>566</ele>
        <time>2019-05-11T15:19:55Z</time>
      </trkpt>
      <trkpt lat="36.8018684387207" lon="-5.14781999588013">
        <ele>566</ele>
        <time>2019-05-11T15:19:57Z</time>
      </trkpt>
      <trkpt lat="36.801887512207" lon="-5.14783811569214">
        <ele>567</ele>
        <time>2019-05-11T15:19:59Z</time>
      </trkpt>
      <trkpt lat="36.8019065856934" lon="-5.14785480499268">
        <ele>567</ele>
        <time>2019-05-11T15:20:01Z</time>
      </trkpt>
      <trkpt lat="36.8019409179688" lon="-5.14786005020142">
        <ele>567</ele>
        <time>2019-05-11T15:20:03Z</time>
      </trkpt>
      <trkpt lat="36.8019638061523" lon="-5.14786815643311">
        <ele>567</ele>
        <time>2019-05-11T15:20:05Z</time>
      </trkpt>
      <trkpt lat="36.8019905090332" lon="-5.14788293838501">
        <ele>567</ele>
        <time>2019-05-11T15:20:07Z</time>
      </trkpt>
      <trkpt lat="36.8020172119141" lon="-5.14789199829102">
        <ele>567</ele>
        <time>2019-05-11T15:20:09Z</time>
      </trkpt>
      <trkpt lat="36.8020439147949" lon="-5.14791011810303">
        <ele>567</ele>
        <time>2019-05-11T15:20:11Z</time>
      </trkpt>
      <trkpt lat="36.8020668029785" lon="-5.14793300628662">
        <ele>567</ele>
        <time>2019-05-11T15:20:13Z</time>
      </trkpt>
      <trkpt lat="36.8020858764648" lon="-5.14795780181885">
        <ele>567</ele>
        <time>2019-05-11T15:20:15Z</time>
      </trkpt>
      <trkpt lat="36.8021049499512" lon="-5.14799499511719">
        <ele>567</ele>
        <time>2019-05-11T15:20:18Z</time>
      </trkpt>
      <trkpt lat="36.8021125793457" lon="-5.1480278968811">
        <ele>567</ele>
        <time>2019-05-11T15:20:20Z</time>
      </trkpt>
      <trkpt lat="36.8021125793457" lon="-5.14806318283081">
        <ele>567</ele>
        <time>2019-05-11T15:20:22Z</time>
      </trkpt>
      <trkpt lat="36.8021087646484" lon="-5.14809799194336">
        <ele>567</ele>
        <time>2019-05-11T15:20:24Z</time>
      </trkpt>
      <trkpt lat="36.8021087646484" lon="-5.14813280105591">
        <ele>566</ele>
        <time>2019-05-11T15:20:26Z</time>
      </trkpt>
      <trkpt lat="36.8021087646484" lon="-5.14816284179688">
        <ele>565</ele>
        <time>2019-05-11T15:20:28Z</time>
      </trkpt>
      <trkpt lat="36.8020973205566" lon="-5.14819192886353">
        <ele>564</ele>
        <time>2019-05-11T15:20:30Z</time>
      </trkpt>
      <trkpt lat="36.8020820617676" lon="-5.14823007583618">
        <ele>563</ele>
        <time>2019-05-11T15:20:32Z</time>
      </trkpt>
      <trkpt lat="36.8020668029785" lon="-5.14826011657715">
        <ele>563</ele>
        <time>2019-05-11T15:20:34Z</time>
      </trkpt>
      <trkpt lat="36.8020515441894" lon="-5.14828777313232">
        <ele>563</ele>
        <time>2019-05-11T15:20:36Z</time>
      </trkpt>
      <trkpt lat="36.8020362854004" lon="-5.14833307266235">
        <ele>563</ele>
        <time>2019-05-11T15:20:38Z</time>
      </trkpt>
      <trkpt lat="36.8020133972168" lon="-5.14835786819458">
        <ele>563</ele>
        <time>2019-05-11T15:20:40Z</time>
      </trkpt>
      <trkpt lat="36.8019866943359" lon="-5.14837503433228">
        <ele>563</ele>
        <time>2019-05-11T15:20:42Z</time>
      </trkpt>
      <trkpt lat="36.8019638061523" lon="-5.14839315414429">
        <ele>563</ele>
        <time>2019-05-11T15:20:44Z</time>
      </trkpt>
      <trkpt lat="36.8019371032715" lon="-5.14840698242188">
        <ele>563</ele>
        <time>2019-05-11T15:20:46Z</time>
      </trkpt>
      <trkpt lat="36.8019065856934" lon="-5.14841985702515">
        <ele>563</ele>
        <time>2019-05-11T15:20:48Z</time>
      </trkpt>
      <trkpt lat="36.8018798828125" lon="-5.14842796325684">
        <ele>563</ele>
        <time>2019-05-11T15:20:50Z</time>
      </trkpt>
      <trkpt lat="36.8018569946289" lon="-5.14843797683716">
        <ele>563</ele>
        <time>2019-05-11T15:20:53Z</time>
      </trkpt>
      <trkpt lat="36.8018341064453" lon="-5.14845514297485">
        <ele>563</ele>
        <time>2019-05-11T15:20:55Z</time>
      </trkpt>
      <trkpt lat="36.801815032959" lon="-5.1484751701355">
        <ele>563</ele>
        <time>2019-05-11T15:20:57Z</time>
      </trkpt>
      <trkpt lat="36.8017921447754" lon="-5.14848804473877">
        <ele>563</ele>
        <time>2019-05-11T15:20:59Z</time>
      </trkpt>
      <trkpt lat="36.8017730712891" lon="-5.14850807189941">
        <ele>563</ele>
        <time>2019-05-11T15:21:01Z</time>
      </trkpt>
      <trkpt lat="36.8017539978027" lon="-5.14853477478027">
        <ele>563</ele>
        <time>2019-05-11T15:21:03Z</time>
      </trkpt>
      <trkpt lat="36.8017425537109" lon="-5.14855480194092">
        <ele>563</ele>
        <time>2019-05-11T15:21:05Z</time>
      </trkpt>
      <trkpt lat="36.8017272949219" lon="-5.14857721328735">
        <ele>563</ele>
        <time>2019-05-11T15:21:07Z</time>
      </trkpt>
      <trkpt lat="36.8017120361328" lon="-5.14860010147095">
        <ele>563</ele>
        <time>2019-05-11T15:21:09Z</time>
      </trkpt>
      <trkpt lat="36.8016967773438" lon="-5.14863681793213">
        <ele>563</ele>
        <time>2019-05-11T15:21:11Z</time>
      </trkpt>
      <trkpt lat="36.8016815185547" lon="-5.14868497848511">
        <ele>563</ele>
        <time>2019-05-11T15:21:13Z</time>
      </trkpt>
      <trkpt lat="36.8016738891602" lon="-5.14872217178345">
        <ele>564</ele>
        <time>2019-05-11T15:21:15Z</time>
      </trkpt>
      <trkpt lat="36.8016624450684" lon="-5.14875507354736">
        <ele>564</ele>
        <time>2019-05-11T15:21:17Z</time>
      </trkpt>
      <trkpt lat="36.8016548156738" lon="-5.14878797531128">
        <ele>564</ele>
        <time>2019-05-11T15:21:19Z</time>
      </trkpt>
      <trkpt lat="36.8016471862793" lon="-5.14881992340088">
        <ele>564</ele>
        <time>2019-05-11T15:21:21Z</time>
      </trkpt>
      <trkpt lat="36.8016471862793" lon="-5.14885520935059">
        <ele>564</ele>
        <time>2019-05-11T15:21:23Z</time>
      </trkpt>
      <trkpt lat="36.8016395568848" lon="-5.14888477325439">
        <ele>564</ele>
        <time>2019-05-11T15:21:25Z</time>
      </trkpt>
      <trkpt lat="36.8016357421875" lon="-5.14892482757568">
        <ele>564</ele>
        <time>2019-05-11T15:21:28Z</time>
      </trkpt>
      <trkpt lat="36.801643371582" lon="-5.14896297454834">
        <ele>564</ele>
        <time>2019-05-11T15:21:30Z</time>
      </trkpt>
      <trkpt lat="36.8016357421875" lon="-5.14900207519531">
        <ele>564</ele>
        <time>2019-05-11T15:21:32Z</time>
      </trkpt>
      <trkpt lat="36.8016357421875" lon="-5.14904022216797">
        <ele>564</ele>
        <time>2019-05-11T15:21:34Z</time>
      </trkpt>
      <trkpt lat="36.8016357421875" lon="-5.14907217025757">
        <ele>564</ele>
        <time>2019-05-11T15:21:36Z</time>
      </trkpt>
      <trkpt lat="36.801643371582" lon="-5.14910984039307">
        <ele>564</ele>
        <time>2019-05-11T15:21:38Z</time>
      </trkpt>
      <trkpt lat="36.8016510009766" lon="-5.14913988113403">
        <ele>564</ele>
        <time>2019-05-11T15:21:40Z</time>
      </trkpt>
      <trkpt lat="36.8016624450684" lon="-5.14916706085205">
        <ele>564</ele>
        <time>2019-05-11T15:21:42Z</time>
      </trkpt>
      <trkpt lat="36.8016738891602" lon="-5.14918804168701">
        <ele>564</ele>
        <time>2019-05-11T15:21:44Z</time>
      </trkpt>
      <trkpt lat="36.8016891479492" lon="-5.14920711517334">
        <ele>564</ele>
        <time>2019-05-11T15:21:46Z</time>
      </trkpt>
      <trkpt lat="36.8017082214356" lon="-5.14923000335693">
        <ele>564</ele>
        <time>2019-05-11T15:21:48Z</time>
      </trkpt>
      <trkpt lat="36.8017196655273" lon="-5.14925718307495">
        <ele>564</ele>
        <time>2019-05-11T15:21:50Z</time>
      </trkpt>
      <trkpt lat="36.8017311096191" lon="-5.14927816390991">
        <ele>564</ele>
        <time>2019-05-11T15:21:52Z</time>
      </trkpt>
      <trkpt lat="36.8017463684082" lon="-5.14930486679077">
        <ele>564</ele>
        <time>2019-05-11T15:21:54Z</time>
      </trkpt>
      <trkpt lat="36.8017616271973" lon="-5.14932823181152">
        <ele>564</ele>
        <time>2019-05-11T15:21:56Z</time>
      </trkpt>
      <trkpt lat="36.8017845153809" lon="-5.14935302734375">
        <ele>564</ele>
        <time>2019-05-11T15:21:58Z</time>
      </trkpt>
      <trkpt lat="36.8018035888672" lon="-5.14937210083008">
        <ele>564</ele>
        <time>2019-05-11T15:22:01Z</time>
      </trkpt>
      <trkpt lat="36.801830291748" lon="-5.1493878364563">
        <ele>564</ele>
        <time>2019-05-11T15:22:03Z</time>
      </trkpt>
      <trkpt lat="36.8018531799316" lon="-5.14941787719727">
        <ele>564</ele>
        <time>2019-05-11T15:22:05Z</time>
      </trkpt>
      <trkpt lat="36.8018798828125" lon="-5.14944505691528">
        <ele>564</ele>
        <time>2019-05-11T15:22:07Z</time>
      </trkpt>
      <trkpt lat="36.8018951416016" lon="-5.14946985244751">
        <ele>564</ele>
        <time>2019-05-11T15:22:09Z</time>
      </trkpt>
      <trkpt lat="36.8019218444824" lon="-5.14949798583984">
        <ele>564</ele>
        <time>2019-05-11T15:22:11Z</time>
      </trkpt>
      <trkpt lat="36.8019371032715" lon="-5.14952707290649">
        <ele>564</ele>
        <time>2019-05-11T15:22:13Z</time>
      </trkpt>
      <trkpt lat="36.8019561767578" lon="-5.14955520629883">
        <ele>564</ele>
        <time>2019-05-11T15:22:15Z</time>
      </trkpt>
      <trkpt lat="36.8019790649414" lon="-5.14957714080811">
        <ele>564</ele>
        <time>2019-05-11T15:22:17Z</time>
      </trkpt>
      <trkpt lat="36.8020057678223" lon="-5.14959812164307">
        <ele>564</ele>
        <time>2019-05-11T15:22:19Z</time>
      </trkpt>
      <trkpt lat="36.8020286560059" lon="-5.1496148109436">
        <ele>564</ele>
        <time>2019-05-11T15:22:21Z</time>
      </trkpt>
      <trkpt lat="36.8020668029785" lon="-5.14963483810425">
        <ele>564</ele>
        <time>2019-05-11T15:22:23Z</time>
      </trkpt>
      <trkpt lat="36.8020973205566" lon="-5.14964485168457">
        <ele>565</ele>
        <time>2019-05-11T15:22:25Z</time>
      </trkpt>
      <trkpt lat="36.8021202087402" lon="-5.149658203125">
        <ele>566</ele>
        <time>2019-05-11T15:22:27Z</time>
      </trkpt>
      <trkpt lat="36.8021430969238" lon="-5.14967679977417">
        <ele>567</ele>
        <time>2019-05-11T15:22:29Z</time>
      </trkpt>
      <trkpt lat="36.802173614502" lon="-5.14969301223755">
        <ele>568</ele>
        <time>2019-05-11T15:22:31Z</time>
      </trkpt>
      <trkpt lat="36.8021965026856" lon="-5.14971494674683">
        <ele>568</ele>
        <time>2019-05-11T15:22:33Z</time>
      </trkpt>
      <trkpt lat="36.8022193908691" lon="-5.14973783493042">
        <ele>569</ele>
        <time>2019-05-11T15:22:35Z</time>
      </trkpt>
      <trkpt lat="36.8022422790527" lon="-5.14976215362549">
        <ele>569</ele>
        <time>2019-05-11T15:22:38Z</time>
      </trkpt>
      <trkpt lat="36.8022651672363" lon="-5.14978313446045">
        <ele>570</ele>
        <time>2019-05-11T15:22:40Z</time>
      </trkpt>
      <trkpt lat="36.8022842407227" lon="-5.14980983734131">
        <ele>570</ele>
        <time>2019-05-11T15:22:42Z</time>
      </trkpt>
      <trkpt lat="36.8023071289062" lon="-5.14983320236206">
        <ele>570</ele>
        <time>2019-05-11T15:22:44Z</time>
      </trkpt>
      <trkpt lat="36.8023262023926" lon="-5.14985799789429">
        <ele>570</ele>
        <time>2019-05-11T15:22:46Z</time>
      </trkpt>
      <trkpt lat="36.8023414611816" lon="-5.1498851776123">
        <ele>570</ele>
        <time>2019-05-11T15:22:48Z</time>
      </trkpt>
      <trkpt lat="36.8023643493652" lon="-5.1499080657959">
        <ele>570</ele>
        <time>2019-05-11T15:22:50Z</time>
      </trkpt>
      <trkpt lat="36.8023834228516" lon="-5.14993190765381">
        <ele>570</ele>
        <time>2019-05-11T15:22:52Z</time>
      </trkpt>
      <trkpt lat="36.8024063110352" lon="-5.14995718002319">
        <ele>570</ele>
        <time>2019-05-11T15:22:54Z</time>
      </trkpt>
      <trkpt lat="36.8024215698242" lon="-5.14998197555542">
        <ele>570</ele>
        <time>2019-05-11T15:22:56Z</time>
      </trkpt>
      <trkpt lat="36.8024444580078" lon="-5.15002202987671">
        <ele>570</ele>
        <time>2019-05-11T15:22:58Z</time>
      </trkpt>
      <trkpt lat="36.8024635314941" lon="-5.15004205703735">
        <ele>570</ele>
        <time>2019-05-11T15:23:00Z</time>
      </trkpt>
      <trkpt lat="36.8024826049805" lon="-5.150062084198">
        <ele>570</ele>
        <time>2019-05-11T15:23:02Z</time>
      </trkpt>
      <trkpt lat="36.8025016784668" lon="-5.15008211135864">
        <ele>570</ele>
        <time>2019-05-11T15:23:04Z</time>
      </trkpt>
      <trkpt lat="36.8025245666504" lon="-5.15009689331055">
        <ele>570</ele>
        <time>2019-05-11T15:23:06Z</time>
      </trkpt>
      <trkpt lat="36.8025436401367" lon="-5.15010786056519">
        <ele>570</ele>
        <time>2019-05-11T15:23:08Z</time>
      </trkpt>
      <trkpt lat="36.802562713623" lon="-5.15012502670288">
        <ele>570</ele>
        <time>2019-05-11T15:23:10Z</time>
      </trkpt>
      <trkpt lat="36.8025856018066" lon="-5.15014219284058">
        <ele>570</ele>
        <time>2019-05-11T15:23:13Z</time>
      </trkpt>
      <trkpt lat="36.8026123046875" lon="-5.15015506744385">
        <ele>570</ele>
        <time>2019-05-11T15:23:15Z</time>
      </trkpt>
      <trkpt lat="36.8026351928711" lon="-5.1501669883728">
        <ele>570</ele>
        <time>2019-05-11T15:23:17Z</time>
      </trkpt>
      <trkpt lat="36.802661895752" lon="-5.15018177032471">
        <ele>570</ele>
        <time>2019-05-11T15:23:19Z</time>
      </trkpt>
      <trkpt lat="36.8026809692383" lon="-5.15020179748535">
        <ele>570</ele>
        <time>2019-05-11T15:23:21Z</time>
      </trkpt>
      <trkpt lat="36.8027038574219" lon="-5.150221824646">
        <ele>570</ele>
        <time>2019-05-11T15:23:23Z</time>
      </trkpt>
      <trkpt lat="36.8027191162109" lon="-5.15024280548096">
        <ele>570</ele>
        <time>2019-05-11T15:23:25Z</time>
      </trkpt>
      <trkpt lat="36.802734375" lon="-5.15026521682739">
        <ele>570</ele>
        <time>2019-05-11T15:23:27Z</time>
      </trkpt>
      <trkpt lat="36.8027420043945" lon="-5.15029001235962">
        <ele>570</ele>
        <time>2019-05-11T15:23:29Z</time>
      </trkpt>
      <trkpt lat="36.8027534484863" lon="-5.15031814575195">
        <ele>570</ele>
        <time>2019-05-11T15:23:31Z</time>
      </trkpt>
      <trkpt lat="36.8027725219727" lon="-5.15035676956177">
        <ele>570</ele>
        <time>2019-05-11T15:23:33Z</time>
      </trkpt>
      <trkpt lat="36.8027801513672" lon="-5.15038013458252">
        <ele>570</ele>
        <time>2019-05-11T15:23:35Z</time>
      </trkpt>
      <trkpt lat="36.8027954101562" lon="-5.15040302276611">
        <ele>570</ele>
        <time>2019-05-11T15:23:37Z</time>
      </trkpt>
      <trkpt lat="36.8028106689453" lon="-5.15043020248413">
        <ele>570</ele>
        <time>2019-05-11T15:23:39Z</time>
      </trkpt>
      <trkpt lat="36.8028221130371" lon="-5.15045976638794">
        <ele>570</ele>
        <time>2019-05-11T15:23:41Z</time>
      </trkpt>
      <trkpt lat="36.8028335571289" lon="-5.15048313140869">
        <ele>570</ele>
        <time>2019-05-11T15:23:43Z</time>
      </trkpt>
      <trkpt lat="36.8028411865234" lon="-5.15050792694092">
        <ele>570</ele>
        <time>2019-05-11T15:23:45Z</time>
      </trkpt>
      <trkpt lat="36.8028564453125" lon="-5.15053701400757">
        <ele>570</ele>
        <time>2019-05-11T15:23:48Z</time>
      </trkpt>
      <trkpt lat="36.8028678894043" lon="-5.15056800842285">
        <ele>570</ele>
        <time>2019-05-11T15:23:50Z</time>
      </trkpt>
      <trkpt lat="36.8028755187988" lon="-5.15059518814087">
        <ele>570</ele>
        <time>2019-05-11T15:23:52Z</time>
      </trkpt>
      <trkpt lat="36.8028793334961" lon="-5.15062713623047">
        <ele>570</ele>
        <time>2019-05-11T15:23:54Z</time>
      </trkpt>
      <trkpt lat="36.8028831481934" lon="-5.1506519317627">
        <ele>570</ele>
        <time>2019-05-11T15:23:56Z</time>
      </trkpt>
      <trkpt lat="36.8028869628906" lon="-5.15068006515503">
        <ele>570</ele>
        <time>2019-05-11T15:23:58Z</time>
      </trkpt>
      <trkpt lat="36.8028945922852" lon="-5.150710105896">
        <ele>570</ele>
        <time>2019-05-11T15:24:00Z</time>
      </trkpt>
      <trkpt lat="36.8028984069824" lon="-5.15073680877686">
        <ele>570</ele>
        <time>2019-05-11T15:24:02Z</time>
      </trkpt>
      <trkpt lat="36.802906036377" lon="-5.15076303482056">
        <ele>570</ele>
        <time>2019-05-11T15:24:04Z</time>
      </trkpt>
      <trkpt lat="36.8029098510742" lon="-5.15078783035278">
        <ele>570</ele>
        <time>2019-05-11T15:24:06Z</time>
      </trkpt>
      <trkpt lat="36.802921295166" lon="-5.1508321762085">
        <ele>570</ele>
        <time>2019-05-11T15:24:08Z</time>
      </trkpt>
      <trkpt lat="36.8029327392578" lon="-5.15085792541504">
        <ele>570</ele>
        <time>2019-05-11T15:24:10Z</time>
      </trkpt>
      <trkpt lat="36.8029365539551" lon="-5.15088176727295">
        <ele>570</ele>
        <time>2019-05-11T15:24:12Z</time>
      </trkpt>
      <trkpt lat="36.8029403686523" lon="-5.15090799331665">
        <ele>571</ele>
        <time>2019-05-11T15:24:14Z</time>
      </trkpt>
      <trkpt lat="36.8029441833496" lon="-5.15093517303467">
        <ele>571</ele>
        <time>2019-05-11T15:24:16Z</time>
      </trkpt>
      <trkpt lat="36.8029518127441" lon="-5.15096282958984">
        <ele>571</ele>
        <time>2019-05-11T15:24:18Z</time>
      </trkpt>
      <trkpt lat="36.8029594421387" lon="-5.15099287033081">
        <ele>572</ele>
        <time>2019-05-11T15:24:20Z</time>
      </trkpt>
      <trkpt lat="36.8029632568359" lon="-5.15102195739746">
        <ele>572</ele>
        <time>2019-05-11T15:24:23Z</time>
      </trkpt>
      <trkpt lat="36.8029670715332" lon="-5.15105199813843">
        <ele>572</ele>
        <time>2019-05-11T15:24:25Z</time>
      </trkpt>
      <trkpt lat="36.8029747009277" lon="-5.15108203887939">
        <ele>573</ele>
        <time>2019-05-11T15:24:27Z</time>
      </trkpt>
      <trkpt lat="36.802978515625" lon="-5.15111017227173">
        <ele>573</ele>
        <time>2019-05-11T15:24:29Z</time>
      </trkpt>
      <trkpt lat="36.8029861450195" lon="-5.15114212036133">
        <ele>573</ele>
        <time>2019-05-11T15:24:31Z</time>
      </trkpt>
      <trkpt lat="36.8029899597168" lon="-5.1511721611023">
        <ele>574</ele>
        <time>2019-05-11T15:24:33Z</time>
      </trkpt>
      <trkpt lat="36.8029937744141" lon="-5.15120315551758">
        <ele>574</ele>
        <time>2019-05-11T15:24:35Z</time>
      </trkpt>
      <trkpt lat="36.8029937744141" lon="-5.15123176574707">
        <ele>574</ele>
        <time>2019-05-11T15:24:37Z</time>
      </trkpt>
      <trkpt lat="36.8029899597168" lon="-5.15125703811646">
        <ele>574</ele>
        <time>2019-05-11T15:24:39Z</time>
      </trkpt>
      <trkpt lat="36.8029899597168" lon="-5.15128517150879">
        <ele>574</ele>
        <time>2019-05-11T15:24:41Z</time>
      </trkpt>
      <trkpt lat="36.8029899597168" lon="-5.15133285522461">
        <ele>574</ele>
        <time>2019-05-11T15:24:43Z</time>
      </trkpt>
      <trkpt lat="36.8029861450195" lon="-5.1513671875">
        <ele>574</ele>
        <time>2019-05-11T15:24:45Z</time>
      </trkpt>
      <trkpt lat="36.8029861450195" lon="-5.15140008926392">
        <ele>574</ele>
        <time>2019-05-11T15:24:47Z</time>
      </trkpt>
      <trkpt lat="36.8029861450195" lon="-5.15143013000488">
        <ele>575</ele>
        <time>2019-05-11T15:24:49Z</time>
      </trkpt>
      <trkpt lat="36.802978515625" lon="-5.15146017074585">
        <ele>575</ele>
        <time>2019-05-11T15:24:51Z</time>
      </trkpt>
      <trkpt lat="36.8029747009277" lon="-5.15149307250977">
        <ele>575</ele>
        <time>2019-05-11T15:24:53Z</time>
      </trkpt>
      <trkpt lat="36.8029708862305" lon="-5.15151977539062">
        <ele>575</ele>
        <time>2019-05-11T15:24:55Z</time>
      </trkpt>
      <trkpt lat="36.8029632568359" lon="-5.15154790878296">
        <ele>575</ele>
        <time>2019-05-11T15:24:57Z</time>
      </trkpt>
      <trkpt lat="36.8029556274414" lon="-5.15157794952393">
        <ele>575</ele>
        <time>2019-05-11T15:25:00Z</time>
      </trkpt>
      <trkpt lat="36.8029518127441" lon="-5.15161180496216">
        <ele>575</ele>
        <time>2019-05-11T15:25:02Z</time>
      </trkpt>
      <trkpt lat="36.8029479980469" lon="-5.15164518356323">
        <ele>575</ele>
        <time>2019-05-11T15:25:04Z</time>
      </trkpt>
      <trkpt lat="36.8029403686523" lon="-5.15167713165283">
        <ele>576</ele>
        <time>2019-05-11T15:25:06Z</time>
      </trkpt>
      <trkpt lat="36.8029327392578" lon="-5.15171003341675">
        <ele>576</ele>
        <time>2019-05-11T15:25:08Z</time>
      </trkpt>
      <trkpt lat="36.8029251098633" lon="-5.15174007415772">
        <ele>576</ele>
        <time>2019-05-11T15:25:10Z</time>
      </trkpt>
      <trkpt lat="36.802921295166" lon="-5.15177202224731">
        <ele>576</ele>
        <time>2019-05-11T15:25:12Z</time>
      </trkpt>
      <trkpt lat="36.8029136657715" lon="-5.1518030166626">
        <ele>576</ele>
        <time>2019-05-11T15:25:14Z</time>
      </trkpt>
      <trkpt lat="36.8029098510742" lon="-5.15183687210083">
        <ele>577</ele>
        <time>2019-05-11T15:25:16Z</time>
      </trkpt>
      <trkpt lat="36.802906036377" lon="-5.15186309814453">
        <ele>577</ele>
        <time>2019-05-11T15:25:18Z</time>
      </trkpt>
      <trkpt lat="36.8029022216797" lon="-5.15190315246582">
        <ele>577</ele>
        <time>2019-05-11T15:25:20Z</time>
      </trkpt>
      <trkpt lat="36.8029022216797" lon="-5.15192794799805">
        <ele>578</ele>
        <time>2019-05-11T15:25:22Z</time>
      </trkpt>
      <trkpt lat="36.8029022216797" lon="-5.15195798873901">
        <ele>578</ele>
        <time>2019-05-11T15:25:24Z</time>
      </trkpt>
      <trkpt lat="36.8029022216797" lon="-5.15199184417725">
        <ele>578</ele>
        <time>2019-05-11T15:25:26Z</time>
      </trkpt>
      <trkpt lat="36.8029022216797" lon="-5.15201807022095">
        <ele>578</ele>
        <time>2019-05-11T15:25:28Z</time>
      </trkpt>
      <trkpt lat="36.8029022216797" lon="-5.15205192565918">
        <ele>578</ele>
        <time>2019-05-11T15:25:30Z</time>
      </trkpt>
      <trkpt lat="36.8029022216797" lon="-5.15207481384277">
        <ele>578</ele>
        <time>2019-05-11T15:25:33Z</time>
      </trkpt>
      <trkpt lat="36.802906036377" lon="-5.15209817886353">
        <ele>579</ele>
        <time>2019-05-11T15:25:35Z</time>
      </trkpt>
      <trkpt lat="36.802906036377" lon="-5.15213012695312">
        <ele>579</ele>
        <time>2019-05-11T15:25:37Z</time>
      </trkpt>
      <trkpt lat="36.802906036377" lon="-5.15215682983398">
        <ele>580</ele>
        <time>2019-05-11T15:25:39Z</time>
      </trkpt>
      <trkpt lat="36.802906036377" lon="-5.15218496322632">
        <ele>580</ele>
        <time>2019-05-11T15:25:41Z</time>
      </trkpt>
      <trkpt lat="36.8029022216797" lon="-5.15221500396728">
        <ele>580</ele>
        <time>2019-05-11T15:25:43Z</time>
      </trkpt>
      <trkpt lat="36.8028984069824" lon="-5.15224504470825">
        <ele>581</ele>
        <time>2019-05-11T15:25:45Z</time>
      </trkpt>
      <trkpt lat="36.8028984069824" lon="-5.15227317810059">
        <ele>581</ele>
        <time>2019-05-11T15:25:47Z</time>
      </trkpt>
      <trkpt lat="36.8028907775879" lon="-5.15230321884155">
        <ele>582</ele>
        <time>2019-05-11T15:25:49Z</time>
      </trkpt>
      <trkpt lat="36.8028907775879" lon="-5.15233278274536">
        <ele>582</ele>
        <time>2019-05-11T15:25:51Z</time>
      </trkpt>
      <trkpt lat="36.8028869628906" lon="-5.15236282348633">
        <ele>582</ele>
        <time>2019-05-11T15:25:53Z</time>
      </trkpt>
      <trkpt lat="36.8028831481934" lon="-5.15240287780762">
        <ele>582</ele>
        <time>2019-05-11T15:25:55Z</time>
      </trkpt>
      <trkpt lat="36.8028755187988" lon="-5.152428150177">
        <ele>583</ele>
        <time>2019-05-11T15:25:57Z</time>
      </trkpt>
      <trkpt lat="36.8028717041016" lon="-5.15245723724365">
        <ele>583</ele>
        <time>2019-05-11T15:25:59Z</time>
      </trkpt>
      <trkpt lat="36.8028602600098" lon="-5.15248680114746">
        <ele>583</ele>
        <time>2019-05-11T15:26:01Z</time>
      </trkpt>
      <trkpt lat="36.8028564453125" lon="-5.15251779556274">
        <ele>583</ele>
        <time>2019-05-11T15:26:03Z</time>
      </trkpt>
      <trkpt lat="36.8028450012207" lon="-5.15254688262939">
        <ele>583</ele>
        <time>2019-05-11T15:26:05Z</time>
      </trkpt>
      <trkpt lat="36.8028373718262" lon="-5.15257978439331">
        <ele>583</ele>
        <time>2019-05-11T15:26:07Z</time>
      </trkpt>
      <trkpt lat="36.8028259277344" lon="-5.15261316299438">
        <ele>583</ele>
        <time>2019-05-11T15:26:10Z</time>
      </trkpt>
      <trkpt lat="36.8028182983398" lon="-5.15264797210693">
        <ele>584</ele>
        <time>2019-05-11T15:26:12Z</time>
      </trkpt>
      <trkpt lat="36.802806854248" lon="-5.15268707275391">
        <ele>584</ele>
        <time>2019-05-11T15:26:14Z</time>
      </trkpt>
      <trkpt lat="36.8027992248535" lon="-5.15272188186646">
        <ele>585</ele>
        <time>2019-05-11T15:26:16Z</time>
      </trkpt>
      <trkpt lat="36.802791595459" lon="-5.15275478363037">
        <ele>585</ele>
        <time>2019-05-11T15:26:18Z</time>
      </trkpt>
      <trkpt lat="36.8027763366699" lon="-5.15278816223144">
        <ele>586</ele>
        <time>2019-05-11T15:26:20Z</time>
      </trkpt>
      <trkpt lat="36.8027648925781" lon="-5.15281677246094">
        <ele>586</ele>
        <time>2019-05-11T15:26:22Z</time>
      </trkpt>
      <trkpt lat="36.8027534484863" lon="-5.15284776687622">
        <ele>587</ele>
        <time>2019-05-11T15:26:24Z</time>
      </trkpt>
      <trkpt lat="36.8027420043945" lon="-5.15288019180298">
        <ele>587</ele>
        <time>2019-05-11T15:26:26Z</time>
      </trkpt>
      <trkpt lat="36.802734375" lon="-5.15291213989258">
        <ele>588</ele>
        <time>2019-05-11T15:26:28Z</time>
      </trkpt>
      <trkpt lat="36.8027191162109" lon="-5.15296220779419">
        <ele>588</ele>
        <time>2019-05-11T15:26:30Z</time>
      </trkpt>
      <trkpt lat="36.8027153015137" lon="-5.15299701690674">
        <ele>588</ele>
        <time>2019-05-11T15:26:32Z</time>
      </trkpt>
      <trkpt lat="36.8027114868164" lon="-5.15303182601929">
        <ele>588</ele>
        <time>2019-05-11T15:26:34Z</time>
      </trkpt>
      <trkpt lat="36.8027114868164" lon="-5.15306711196899">
        <ele>588</ele>
        <time>2019-05-11T15:26:36Z</time>
      </trkpt>
      <trkpt lat="36.8027076721191" lon="-5.15309810638428">
        <ele>588</ele>
        <time>2019-05-11T15:26:38Z</time>
      </trkpt>
      <trkpt lat="36.8027038574219" lon="-5.15313482284546">
        <ele>588</ele>
        <time>2019-05-11T15:26:40Z</time>
      </trkpt>
      <trkpt lat="36.8027038574219" lon="-5.1531720161438">
        <ele>588</ele>
        <time>2019-05-11T15:26:42Z</time>
      </trkpt>
      <trkpt lat="36.8027038574219" lon="-5.15320491790772">
        <ele>588</ele>
        <time>2019-05-11T15:26:45Z</time>
      </trkpt>
      <trkpt lat="36.8027038574219" lon="-5.15324211120606">
        <ele>588</ele>
        <time>2019-05-11T15:26:47Z</time>
      </trkpt>
      <trkpt lat="36.8027038574219" lon="-5.15327501296997">
        <ele>588</ele>
        <time>2019-05-11T15:26:49Z</time>
      </trkpt>
      <trkpt lat="36.8027038574219" lon="-5.15330791473389">
        <ele>588</ele>
        <time>2019-05-11T15:26:51Z</time>
      </trkpt>
      <trkpt lat="36.8027076721191" lon="-5.15334177017212">
        <ele>588</ele>
        <time>2019-05-11T15:26:53Z</time>
      </trkpt>
      <trkpt lat="36.8027153015137" lon="-5.15337705612183">
        <ele>588</ele>
        <time>2019-05-11T15:26:55Z</time>
      </trkpt>
      <trkpt lat="36.8027267456055" lon="-5.15340280532837">
        <ele>588</ele>
        <time>2019-05-11T15:26:57Z</time>
      </trkpt>
      <trkpt lat="36.8027381896973" lon="-5.15342998504639">
        <ele>588</ele>
        <time>2019-05-11T15:26:59Z</time>
      </trkpt>
      <trkpt lat="36.8027496337891" lon="-5.15346193313599">
        <ele>588</ele>
        <time>2019-05-11T15:27:01Z</time>
      </trkpt>
      <trkpt lat="36.8027610778809" lon="-5.15349197387695">
        <ele>588</ele>
        <time>2019-05-11T15:27:03Z</time>
      </trkpt>
      <trkpt lat="36.8027839660644" lon="-5.15353679656982">
        <ele>588</ele>
        <time>2019-05-11T15:27:05Z</time>
      </trkpt>
      <trkpt lat="36.8027992248535" lon="-5.15356492996216">
        <ele>588</ele>
        <time>2019-05-11T15:27:07Z</time>
      </trkpt>
      <trkpt lat="36.8028144836426" lon="-5.15359210968018">
        <ele>588</ele>
        <time>2019-05-11T15:27:09Z</time>
      </trkpt>
      <trkpt lat="36.8028297424316" lon="-5.15361785888672">
        <ele>588</ele>
        <time>2019-05-11T15:27:11Z</time>
      </trkpt>
      <trkpt lat="36.8028450012207" lon="-5.15364503860474">
        <ele>588</ele>
        <time>2019-05-11T15:27:13Z</time>
      </trkpt>
      <trkpt lat="36.8028602600098" lon="-5.15366983413696">
        <ele>588</ele>
        <time>2019-05-11T15:27:15Z</time>
      </trkpt>
      <trkpt lat="36.8028831481934" lon="-5.15368795394897">
        <ele>588</ele>
        <time>2019-05-11T15:27:18Z</time>
      </trkpt>
      <trkpt lat="36.8028945922852" lon="-5.15371704101562">
        <ele>588</ele>
        <time>2019-05-11T15:27:20Z</time>
      </trkpt>
      <trkpt lat="36.8029098510742" lon="-5.15374279022217">
        <ele>588</ele>
        <time>2019-05-11T15:27:22Z</time>
      </trkpt>
      <trkpt lat="36.802921295166" lon="-5.15377187728882">
        <ele>589</ele>
        <time>2019-05-11T15:27:24Z</time>
      </trkpt>
      <trkpt lat="36.8029327392578" lon="-5.1537971496582">
        <ele>589</ele>
        <time>2019-05-11T15:27:26Z</time>
      </trkpt>
      <trkpt lat="36.8029441833496" lon="-5.1538200378418">
        <ele>590</ele>
        <time>2019-05-11T15:27:28Z</time>
      </trkpt>
      <trkpt lat="36.8029518127441" lon="-5.15384483337402">
        <ele>590</ele>
        <time>2019-05-11T15:27:30Z</time>
      </trkpt>
      <trkpt lat="36.8029556274414" lon="-5.15386009216309">
        <ele>591</ele>
        <time>2019-05-11T15:27:32Z</time>
      </trkpt>
      <trkpt lat="36.8029632568359" lon="-5.1538782119751">
        <ele>591</ele>
        <time>2019-05-11T15:27:34Z</time>
      </trkpt>
      <trkpt lat="36.8029708862305" lon="-5.15390682220459">
        <ele>591</ele>
        <time>2019-05-11T15:27:36Z</time>
      </trkpt>
      <trkpt lat="36.8029861450195" lon="-5.15393304824829">
        <ele>591</ele>
        <time>2019-05-11T15:27:38Z</time>
      </trkpt>
      <trkpt lat="36.8030014038086" lon="-5.15396690368652">
        <ele>591</ele>
        <time>2019-05-11T15:27:40Z</time>
      </trkpt>
      <trkpt lat="36.8030128479004" lon="-5.15399217605591">
        <ele>591</ele>
        <time>2019-05-11T15:27:42Z</time>
      </trkpt>
      <trkpt lat="36.8030242919922" lon="-5.15401983261108">
        <ele>592</ele>
        <time>2019-05-11T15:27:44Z</time>
      </trkpt>
      <trkpt lat="36.803035736084" lon="-5.15404987335205">
        <ele>592</ele>
        <time>2019-05-11T15:27:46Z</time>
      </trkpt>
      <trkpt lat="36.8030548095703" lon="-5.1540732383728">
        <ele>592</ele>
        <time>2019-05-11T15:27:48Z</time>
      </trkpt>
      <trkpt lat="36.8030624389648" lon="-5.15409994125366">
        <ele>592</ele>
        <time>2019-05-11T15:27:50Z</time>
      </trkpt>
      <trkpt lat="36.8030738830566" lon="-5.15412282943726">
        <ele>593</ele>
        <time>2019-05-11T15:27:53Z</time>
      </trkpt>
      <trkpt lat="36.8030815124512" lon="-5.15414714813232">
        <ele>593</ele>
        <time>2019-05-11T15:27:55Z</time>
      </trkpt>
      <trkpt lat="36.8030967712402" lon="-5.15417003631592">
        <ele>593</ele>
        <time>2019-05-11T15:27:57Z</time>
      </trkpt>
      <trkpt lat="36.803108215332" lon="-5.15420293807983">
        <ele>593</ele>
        <time>2019-05-11T15:27:59Z</time>
      </trkpt>
      <trkpt lat="36.8031158447266" lon="-5.15422296524048">
        <ele>593</ele>
        <time>2019-05-11T15:28:01Z</time>
      </trkpt>
      <trkpt lat="36.8031272888184" lon="-5.15424489974976">
        <ele>594</ele>
        <time>2019-05-11T15:28:03Z</time>
      </trkpt>
      <trkpt lat="36.8031387329102" lon="-5.15427303314209">
        <ele>594</ele>
        <time>2019-05-11T15:28:05Z</time>
      </trkpt>
      <trkpt lat="36.803150177002" lon="-5.15429782867432">
        <ele>594</ele>
        <time>2019-05-11T15:28:07Z</time>
      </trkpt>
      <trkpt lat="36.8031616210938" lon="-5.15432500839233">
        <ele>594</ele>
        <time>2019-05-11T15:28:09Z</time>
      </trkpt>
      <trkpt lat="36.8031730651856" lon="-5.15435218811035">
        <ele>594</ele>
        <time>2019-05-11T15:28:11Z</time>
      </trkpt>
      <trkpt lat="36.8031845092773" lon="-5.15437984466553">
        <ele>595</ele>
        <time>2019-05-11T15:28:13Z</time>
      </trkpt>
      <trkpt lat="36.8031997680664" lon="-5.15442705154419">
        <ele>595</ele>
        <time>2019-05-11T15:28:15Z</time>
      </trkpt>
      <trkpt lat="36.8032112121582" lon="-5.15446186065674">
        <ele>595</ele>
        <time>2019-05-11T15:28:17Z</time>
      </trkpt>
      <trkpt lat="36.80322265625" lon="-5.1544919013977">
        <ele>595</ele>
        <time>2019-05-11T15:28:19Z</time>
      </trkpt>
      <trkpt lat="36.8032302856445" lon="-5.15452480316162">
        <ele>595</ele>
        <time>2019-05-11T15:28:21Z</time>
      </trkpt>
      <trkpt lat="36.8032379150391" lon="-5.15455484390259">
        <ele>595</ele>
        <time>2019-05-11T15:28:23Z</time>
      </trkpt>
      <trkpt lat="36.8032455444336" lon="-5.15458202362061">
        <ele>595</ele>
        <time>2019-05-11T15:28:25Z</time>
      </trkpt>
      <trkpt lat="36.8032569885254" lon="-5.15460777282715">
        <ele>595</ele>
        <time>2019-05-11T15:28:28Z</time>
      </trkpt>
      <trkpt lat="36.8032684326172" lon="-5.15463495254517">
        <ele>595</ele>
        <time>2019-05-11T15:28:30Z</time>
      </trkpt>
      <trkpt lat="36.803279876709" lon="-5.15466213226318">
        <ele>595</ele>
        <time>2019-05-11T15:28:32Z</time>
      </trkpt>
      <trkpt lat="36.8032913208008" lon="-5.15468978881836">
        <ele>595</ele>
        <time>2019-05-11T15:28:34Z</time>
      </trkpt>
      <trkpt lat="36.8032989501953" lon="-5.15471982955933">
        <ele>595</ele>
        <time>2019-05-11T15:28:36Z</time>
      </trkpt>
      <trkpt lat="36.8033103942871" lon="-5.15474987030029">
        <ele>595</ele>
        <time>2019-05-11T15:28:38Z</time>
      </trkpt>
      <trkpt lat="36.8033218383789" lon="-5.15477800369263">
        <ele>595</ele>
        <time>2019-05-11T15:28:40Z</time>
      </trkpt>
      <trkpt lat="36.8033332824707" lon="-5.15480709075928">
        <ele>596</ele>
        <time>2019-05-11T15:28:42Z</time>
      </trkpt>
      <trkpt lat="36.803337097168" lon="-5.1548318862915">
        <ele>597</ele>
        <time>2019-05-11T15:28:44Z</time>
      </trkpt>
      <trkpt lat="36.8033485412598" lon="-5.15486192703247">
        <ele>597</ele>
        <time>2019-05-11T15:28:46Z</time>
      </trkpt>
      <trkpt lat="36.8033561706543" lon="-5.1548900604248">
        <ele>598</ele>
        <time>2019-05-11T15:28:48Z</time>
      </trkpt>
      <trkpt lat="36.8033752441406" lon="-5.15493488311768">
        <ele>598</ele>
        <time>2019-05-11T15:28:50Z</time>
      </trkpt>
      <trkpt lat="36.8033866882324" lon="-5.15496492385864">
        <ele>598</ele>
        <time>2019-05-11T15:28:52Z</time>
      </trkpt>
      <trkpt lat="36.8033981323242" lon="-5.15499210357666">
        <ele>599</ele>
        <time>2019-05-11T15:28:54Z</time>
      </trkpt>
      <trkpt lat="36.8034019470215" lon="-5.15501689910889">
        <ele>599</ele>
        <time>2019-05-11T15:28:56Z</time>
      </trkpt>
      <trkpt lat="36.803409576416" lon="-5.15504789352417">
        <ele>600</ele>
        <time>2019-05-11T15:28:58Z</time>
      </trkpt>
      <trkpt lat="36.8034210205078" lon="-5.15507698059082">
        <ele>600</ele>
        <time>2019-05-11T15:29:00Z</time>
      </trkpt>
      <trkpt lat="36.8034324645996" lon="-5.15510988235474">
        <ele>600</ele>
        <time>2019-05-11T15:29:03Z</time>
      </trkpt>
      <trkpt lat="36.8034477233887" lon="-5.1551399230957">
        <ele>601</ele>
        <time>2019-05-11T15:29:05Z</time>
      </trkpt>
      <trkpt lat="36.8034591674805" lon="-5.15516805648804">
        <ele>601</ele>
        <time>2019-05-11T15:29:07Z</time>
      </trkpt>
      <trkpt lat="36.8034706115723" lon="-5.155198097229">
        <ele>602</ele>
        <time>2019-05-11T15:29:09Z</time>
      </trkpt>
      <trkpt lat="36.8034820556641" lon="-5.15522813796997">
        <ele>602</ele>
        <time>2019-05-11T15:29:11Z</time>
      </trkpt>
      <trkpt lat="36.8034934997559" lon="-5.1552619934082">
        <ele>602</ele>
        <time>2019-05-11T15:29:13Z</time>
      </trkpt>
      <trkpt lat="36.8035087585449" lon="-5.15530014038086">
        <ele>602</ele>
        <time>2019-05-11T15:29:15Z</time>
      </trkpt>
      <trkpt lat="36.8035125732422" lon="-5.15532493591309">
        <ele>602</ele>
        <time>2019-05-11T15:29:17Z</time>
      </trkpt>
      <trkpt lat="36.803524017334" lon="-5.15535688400269">
        <ele>602</ele>
        <time>2019-05-11T15:29:19Z</time>
      </trkpt>
      <trkpt lat="36.8035316467285" lon="-5.1553897857666">
        <ele>603</ele>
        <time>2019-05-11T15:29:21Z</time>
      </trkpt>
      <trkpt lat="36.803539276123" lon="-5.15542221069336">
        <ele>603</ele>
        <time>2019-05-11T15:29:23Z</time>
      </trkpt>
      <trkpt lat="36.8035545349121" lon="-5.15546989440918">
        <ele>603</ele>
        <time>2019-05-11T15:29:25Z</time>
      </trkpt>
      <trkpt lat="36.8035583496094" lon="-5.15549993515015">
        <ele>604</ele>
        <time>2019-05-11T15:29:27Z</time>
      </trkpt>
      <trkpt lat="36.8035659790039" lon="-5.15552806854248">
        <ele>604</ele>
        <time>2019-05-11T15:29:29Z</time>
      </trkpt>
      <trkpt lat="36.8035774230957" lon="-5.15555477142334">
        <ele>605</ele>
        <time>2019-05-11T15:29:31Z</time>
      </trkpt>
      <trkpt lat="36.8035888671875" lon="-5.15558195114136">
        <ele>605</ele>
        <time>2019-05-11T15:29:34Z</time>
      </trkpt>
      <trkpt lat="36.8036003112793" lon="-5.15561008453369">
        <ele>606</ele>
        <time>2019-05-11T15:29:36Z</time>
      </trkpt>
      <trkpt lat="36.8036155700684" lon="-5.15563297271728">
        <ele>606</ele>
        <time>2019-05-11T15:29:38Z</time>
      </trkpt>
      <trkpt lat="36.8036270141602" lon="-5.15566682815552">
        <ele>606</ele>
        <time>2019-05-11T15:29:40Z</time>
      </trkpt>
      <trkpt lat="36.803638458252" lon="-5.1556978225708">
        <ele>606</ele>
        <time>2019-05-11T15:29:42Z</time>
      </trkpt>
      <trkpt lat="36.8036499023438" lon="-5.15572786331177">
        <ele>606</ele>
        <time>2019-05-11T15:29:44Z</time>
      </trkpt>
      <trkpt lat="36.8036613464356" lon="-5.15576314926147">
        <ele>606</ele>
        <time>2019-05-11T15:29:46Z</time>
      </trkpt>
      <trkpt lat="36.8036727905273" lon="-5.15579319000244">
        <ele>606</ele>
        <time>2019-05-11T15:29:48Z</time>
      </trkpt>
      <trkpt lat="36.8036842346191" lon="-5.15582180023193">
        <ele>606</ele>
        <time>2019-05-11T15:29:50Z</time>
      </trkpt>
      <trkpt lat="36.8036956787109" lon="-5.15585279464722">
        <ele>606</ele>
        <time>2019-05-11T15:29:52Z</time>
      </trkpt>
      <trkpt lat="36.8037109375" lon="-5.15590000152588">
        <ele>606</ele>
        <time>2019-05-11T15:29:54Z</time>
      </trkpt>
      <trkpt lat="36.8037185668945" lon="-5.15593004226685">
        <ele>606</ele>
        <time>2019-05-11T15:29:56Z</time>
      </trkpt>
      <trkpt lat="36.8037261962891" lon="-5.15596008300781">
        <ele>606</ele>
        <time>2019-05-11T15:29:58Z</time>
      </trkpt>
      <trkpt lat="36.8037338256836" lon="-5.15598821640015">
        <ele>606</ele>
        <time>2019-05-11T15:30:00Z</time>
      </trkpt>
      <trkpt lat="36.8037414550781" lon="-5.15602207183838">
        <ele>606</ele>
        <time>2019-05-11T15:30:02Z</time>
      </trkpt>
      <trkpt lat="36.8037528991699" lon="-5.15606212615967">
        <ele>606</ele>
        <time>2019-05-11T15:30:04Z</time>
      </trkpt>
      <trkpt lat="36.8037605285644" lon="-5.15609693527222">
        <ele>606</ele>
        <time>2019-05-11T15:30:06Z</time>
      </trkpt>
      <trkpt lat="36.8037719726562" lon="-5.1561279296875">
        <ele>606</ele>
        <time>2019-05-11T15:30:09Z</time>
      </trkpt>
      <trkpt lat="36.8037796020508" lon="-5.15616178512573">
        <ele>606</ele>
        <time>2019-05-11T15:30:11Z</time>
      </trkpt>
      <trkpt lat="36.803783416748" lon="-5.15618801116943">
        <ele>607</ele>
        <time>2019-05-11T15:30:13Z</time>
      </trkpt>
      <trkpt lat="36.8037910461426" lon="-5.15621995925903">
        <ele>607</ele>
        <time>2019-05-11T15:30:15Z</time>
      </trkpt>
      <trkpt lat="36.8037986755371" lon="-5.15625">
        <ele>607</ele>
        <time>2019-05-11T15:30:17Z</time>
      </trkpt>
      <trkpt lat="36.8038024902344" lon="-5.15628004074097">
        <ele>607</ele>
        <time>2019-05-11T15:30:19Z</time>
      </trkpt>
      <trkpt lat="36.8038063049316" lon="-5.15631008148193">
        <ele>607</ele>
        <time>2019-05-11T15:30:21Z</time>
      </trkpt>
      <trkpt lat="36.8038177490234" lon="-5.15634202957153">
        <ele>607</ele>
        <time>2019-05-11T15:30:23Z</time>
      </trkpt>
      <trkpt lat="36.803825378418" lon="-5.15637302398682">
        <ele>607</ele>
        <time>2019-05-11T15:30:25Z</time>
      </trkpt>
      <trkpt lat="36.8038330078125" lon="-5.15640497207642">
        <ele>607</ele>
        <time>2019-05-11T15:30:27Z</time>
      </trkpt>
      <trkpt lat="36.8038444519043" lon="-5.15645313262939">
        <ele>607</ele>
        <time>2019-05-11T15:30:29Z</time>
      </trkpt>
      <trkpt lat="36.8038482666016" lon="-5.15648508071899">
        <ele>608</ele>
        <time>2019-05-11T15:30:31Z</time>
      </trkpt>
      <trkpt lat="36.8038558959961" lon="-5.15651321411133">
        <ele>608</ele>
        <time>2019-05-11T15:30:33Z</time>
      </trkpt>
      <trkpt lat="36.8038635253906" lon="-5.15654516220093">
        <ele>608</ele>
        <time>2019-05-11T15:30:35Z</time>
      </trkpt>
      <trkpt lat="36.8038711547852" lon="-5.1565728187561">
        <ele>608</ele>
        <time>2019-05-11T15:30:37Z</time>
      </trkpt>
      <trkpt lat="36.803882598877" lon="-5.15660190582275">
        <ele>608</ele>
        <time>2019-05-11T15:30:39Z</time>
      </trkpt>
      <trkpt lat="36.8038864135742" lon="-5.15663003921509">
        <ele>608</ele>
        <time>2019-05-11T15:30:42Z</time>
      </trkpt>
      <trkpt lat="36.803897857666" lon="-5.15666007995606">
        <ele>609</ele>
        <time>2019-05-11T15:30:44Z</time>
      </trkpt>
      <trkpt lat="36.8039131164551" lon="-5.15668678283691">
        <ele>609</ele>
        <time>2019-05-11T15:30:46Z</time>
      </trkpt>
      <trkpt lat="36.8039245605469" lon="-5.15671491622925">
        <ele>609</ele>
        <time>2019-05-11T15:30:48Z</time>
      </trkpt>
      <trkpt lat="36.8039360046387" lon="-5.15674209594727">
        <ele>609</ele>
        <time>2019-05-11T15:30:50Z</time>
      </trkpt>
      <trkpt lat="36.8039436340332" lon="-5.15676212310791">
        <ele>609</ele>
        <time>2019-05-11T15:30:52Z</time>
      </trkpt>
      <trkpt lat="36.8039436340332" lon="-5.15676689147949">
        <ele>610</ele>
        <time>2019-05-11T15:30:54Z</time>
      </trkpt>
      <trkpt lat="36.8039512634277" lon="-5.15678310394287">
        <ele>610</ele>
        <time>2019-05-11T15:30:56Z</time>
      </trkpt>
      <trkpt lat="36.8039665222168" lon="-5.15680313110352">
        <ele>611</ele>
        <time>2019-05-11T15:30:58Z</time>
      </trkpt>
      <trkpt lat="36.8039779663086" lon="-5.15682697296143">
        <ele>611</ele>
        <time>2019-05-11T15:31:00Z</time>
      </trkpt>
      <trkpt lat="36.8039932250977" lon="-5.15685176849365">
        <ele>612</ele>
        <time>2019-05-11T15:31:02Z</time>
      </trkpt>
      <trkpt lat="36.804012298584" lon="-5.15688276290894">
        <ele>612</ele>
        <time>2019-05-11T15:31:04Z</time>
      </trkpt>
      <trkpt lat="36.8040313720703" lon="-5.15690803527832">
        <ele>612</ele>
        <time>2019-05-11T15:31:06Z</time>
      </trkpt>
      <trkpt lat="36.8040466308594" lon="-5.15693712234497">
        <ele>613</ele>
        <time>2019-05-11T15:31:08Z</time>
      </trkpt>
      <trkpt lat="36.8040618896484" lon="-5.15696477890015">
        <ele>613</ele>
        <time>2019-05-11T15:31:10Z</time>
      </trkpt>
      <trkpt lat="36.8040809631348" lon="-5.15698480606079">
        <ele>613</ele>
        <time>2019-05-11T15:31:12Z</time>
      </trkpt>
      <trkpt lat="36.8040962219238" lon="-5.15700483322144">
        <ele>613</ele>
        <time>2019-05-11T15:31:14Z</time>
      </trkpt>
      <trkpt lat="36.8041114807129" lon="-5.15702819824219">
        <ele>613</ele>
        <time>2019-05-11T15:31:17Z</time>
      </trkpt>
      <trkpt lat="36.8041305541992" lon="-5.1570520401001">
        <ele>614</ele>
        <time>2019-05-11T15:31:19Z</time>
      </trkpt>
      <trkpt lat="36.8041458129883" lon="-5.15707492828369">
        <ele>614</ele>
        <time>2019-05-11T15:31:21Z</time>
      </trkpt>
      <trkpt lat="36.8041610717773" lon="-5.15710020065308">
        <ele>614</ele>
        <time>2019-05-11T15:31:23Z</time>
      </trkpt>
      <trkpt lat="36.8041763305664" lon="-5.1571249961853">
        <ele>614</ele>
        <time>2019-05-11T15:31:25Z</time>
      </trkpt>
      <trkpt lat="36.8041915893555" lon="-5.15715217590332">
        <ele>615</ele>
        <time>2019-05-11T15:31:27Z</time>
      </trkpt>
      <trkpt lat="36.8042068481445" lon="-5.1571798324585">
        <ele>615</ele>
        <time>2019-05-11T15:31:29Z</time>
      </trkpt>
      <trkpt lat="36.8042182922363" lon="-5.15720701217651">
        <ele>615</ele>
        <time>2019-05-11T15:31:31Z</time>
      </trkpt>
      <trkpt lat="36.8042297363281" lon="-5.15723180770874">
        <ele>615</ele>
        <time>2019-05-11T15:31:33Z</time>
      </trkpt>
      <trkpt lat="36.8042373657227" lon="-5.15725994110107">
        <ele>615</ele>
        <time>2019-05-11T15:31:35Z</time>
      </trkpt>
      <trkpt lat="36.8042488098144" lon="-5.15728807449341">
        <ele>615</ele>
        <time>2019-05-11T15:31:37Z</time>
      </trkpt>
      <trkpt lat="36.8042602539062" lon="-5.15732717514038">
        <ele>615</ele>
        <time>2019-05-11T15:31:39Z</time>
      </trkpt>
      <trkpt lat="36.804271697998" lon="-5.15735721588135">
        <ele>615</ele>
        <time>2019-05-11T15:31:41Z</time>
      </trkpt>
      <trkpt lat="36.8042831420898" lon="-5.15738487243652">
        <ele>616</ele>
        <time>2019-05-11T15:31:43Z</time>
      </trkpt>
      <trkpt lat="36.8042984008789" lon="-5.15740823745728">
        <ele>616</ele>
        <time>2019-05-11T15:31:45Z</time>
      </trkpt>
      <trkpt lat="36.8043060302734" lon="-5.15743207931519">
        <ele>616</ele>
        <time>2019-05-11T15:31:47Z</time>
      </trkpt>
      <trkpt lat="36.804313659668" lon="-5.15745496749878">
        <ele>616</ele>
        <time>2019-05-11T15:31:49Z</time>
      </trkpt>
      <trkpt lat="36.8043212890625" lon="-5.1574821472168">
        <ele>616</ele>
        <time>2019-05-11T15:31:52Z</time>
      </trkpt>
      <trkpt lat="36.8043365478516" lon="-5.15750694274902">
        <ele>616</ele>
        <time>2019-05-11T15:31:54Z</time>
      </trkpt>
      <trkpt lat="36.8043441772461" lon="-5.15753698348999">
        <ele>616</ele>
        <time>2019-05-11T15:31:56Z</time>
      </trkpt>
      <trkpt lat="36.8043556213379" lon="-5.15756702423096">
        <ele>617</ele>
        <time>2019-05-11T15:31:58Z</time>
      </trkpt>
      <trkpt lat="36.8043632507324" lon="-5.1575927734375">
        <ele>617</ele>
        <time>2019-05-11T15:32:00Z</time>
      </trkpt>
      <trkpt lat="36.804370880127" lon="-5.15761995315552">
        <ele>617</ele>
        <time>2019-05-11T15:32:02Z</time>
      </trkpt>
      <trkpt lat="36.804370880127" lon="-5.15764999389648">
        <ele>618</ele>
        <time>2019-05-11T15:32:04Z</time>
      </trkpt>
      <trkpt lat="36.8043785095215" lon="-5.15767478942871">
        <ele>618</ele>
        <time>2019-05-11T15:32:06Z</time>
      </trkpt>
      <trkpt lat="36.804386138916" lon="-5.15769815444946">
        <ele>618</ele>
        <time>2019-05-11T15:32:08Z</time>
      </trkpt>
      <trkpt lat="36.8044013977051" lon="-5.15772676467896">
        <ele>619</ele>
        <time>2019-05-11T15:32:10Z</time>
      </trkpt>
      <trkpt lat="36.8044090270996" lon="-5.15775489807129">
        <ele>619</ele>
        <time>2019-05-11T15:32:12Z</time>
      </trkpt>
      <trkpt lat="36.8044281005859" lon="-5.15779495239258">
        <ele>619</ele>
        <time>2019-05-11T15:32:14Z</time>
      </trkpt>
      <trkpt lat="36.8044357299805" lon="-5.15782022476196">
        <ele>619</ele>
        <time>2019-05-11T15:32:16Z</time>
      </trkpt>
      <trkpt lat="36.804443359375" lon="-5.15784692764282">
        <ele>619</ele>
        <time>2019-05-11T15:32:18Z</time>
      </trkpt>
      <trkpt lat="36.8044509887695" lon="-5.15787506103516">
        <ele>620</ele>
        <time>2019-05-11T15:32:20Z</time>
      </trkpt>
      <trkpt lat="36.8044624328613" lon="-5.15790176391602">
        <ele>620</ele>
        <time>2019-05-11T15:32:22Z</time>
      </trkpt>
      <trkpt lat="36.8044700622559" lon="-5.15793180465698">
        <ele>620</ele>
        <time>2019-05-11T15:32:24Z</time>
      </trkpt>
      <trkpt lat="36.8044776916504" lon="-5.15795993804932">
        <ele>620</ele>
        <time>2019-05-11T15:32:27Z</time>
      </trkpt>
      <trkpt lat="36.8044853210449" lon="-5.15799522399902">
        <ele>620</ele>
        <time>2019-05-11T15:32:29Z</time>
      </trkpt>
      <trkpt lat="36.8044891357422" lon="-5.15802001953125">
        <ele>621</ele>
        <time>2019-05-11T15:32:31Z</time>
      </trkpt>
      <trkpt lat="36.8044967651367" lon="-5.15804719924927">
        <ele>621</ele>
        <time>2019-05-11T15:32:33Z</time>
      </trkpt>
      <trkpt lat="36.8045043945312" lon="-5.15807676315308">
        <ele>621</ele>
        <time>2019-05-11T15:32:35Z</time>
      </trkpt>
      <trkpt lat="36.8045082092285" lon="-5.15810823440552">
        <ele>621</ele>
        <time>2019-05-11T15:32:37Z</time>
      </trkpt>
      <trkpt lat="36.8045120239258" lon="-5.15813779830933">
        <ele>621</ele>
        <time>2019-05-11T15:32:39Z</time>
      </trkpt>
      <trkpt lat="36.804515838623" lon="-5.15817022323608">
        <ele>621</ele>
        <time>2019-05-11T15:32:41Z</time>
      </trkpt>
      <trkpt lat="36.8045234680176" lon="-5.158203125">
        <ele>621</ele>
        <time>2019-05-11T15:32:43Z</time>
      </trkpt>
      <trkpt lat="36.8045310974121" lon="-5.15824222564697">
        <ele>622</ele>
        <time>2019-05-11T15:32:45Z</time>
      </trkpt>
      <trkpt lat="36.8045349121094" lon="-5.15827322006226">
        <ele>622</ele>
        <time>2019-05-11T15:32:47Z</time>
      </trkpt>
      <trkpt lat="36.8045425415039" lon="-5.15831708908081">
        <ele>622</ele>
        <time>2019-05-11T15:32:49Z</time>
      </trkpt>
      <trkpt lat="36.8045463562012" lon="-5.15834999084473">
        <ele>622</ele>
        <time>2019-05-11T15:32:51Z</time>
      </trkpt>
      <trkpt lat="36.8045501708984" lon="-5.15838003158569">
        <ele>622</ele>
        <time>2019-05-11T15:32:53Z</time>
      </trkpt>
      <trkpt lat="36.8045539855957" lon="-5.15841484069824">
        <ele>622</ele>
        <time>2019-05-11T15:32:55Z</time>
      </trkpt>
      <trkpt lat="36.804557800293" lon="-5.15844488143921">
        <ele>622</ele>
        <time>2019-05-11T15:32:57Z</time>
      </trkpt>
      <trkpt lat="36.804557800293" lon="-5.15847015380859">
        <ele>622</ele>
        <time>2019-05-11T15:32:59Z</time>
      </trkpt>
      <trkpt lat="36.804557800293" lon="-5.15849494934082">
        <ele>622</ele>
        <time>2019-05-11T15:33:01Z</time>
      </trkpt>
      <trkpt lat="36.8045654296875" lon="-5.15852212905884">
        <ele>622</ele>
        <time>2019-05-11T15:33:04Z</time>
      </trkpt>
      <trkpt lat="36.8045692443848" lon="-5.15854978561401">
        <ele>622</ele>
        <time>2019-05-11T15:33:06Z</time>
      </trkpt>
      <trkpt lat="36.8045768737793" lon="-5.15857696533203">
        <ele>622</ele>
        <time>2019-05-11T15:33:08Z</time>
      </trkpt>
      <trkpt lat="36.8045806884766" lon="-5.15860509872436">
        <ele>622</ele>
        <time>2019-05-11T15:33:10Z</time>
      </trkpt>
      <trkpt lat="36.8045806884766" lon="-5.15863180160522">
        <ele>622</ele>
        <time>2019-05-11T15:33:12Z</time>
      </trkpt>
      <trkpt lat="36.8045883178711" lon="-5.15865993499756">
        <ele>622</ele>
        <time>2019-05-11T15:33:14Z</time>
      </trkpt>
      <trkpt lat="36.8045997619629" lon="-5.15868997573853">
        <ele>622</ele>
        <time>2019-05-11T15:33:16Z</time>
      </trkpt>
      <trkpt lat="36.8046035766602" lon="-5.15871810913086">
        <ele>622</ele>
        <time>2019-05-11T15:33:18Z</time>
      </trkpt>
      <trkpt lat="36.8046112060547" lon="-5.15874719619751">
        <ele>622</ele>
        <time>2019-05-11T15:33:20Z</time>
      </trkpt>
      <trkpt lat="36.8046188354492" lon="-5.15877819061279">
        <ele>622</ele>
        <time>2019-05-11T15:33:22Z</time>
      </trkpt>
      <trkpt lat="36.804630279541" lon="-5.15882778167725">
        <ele>622</ele>
        <time>2019-05-11T15:33:24Z</time>
      </trkpt>
      <trkpt lat="36.8046417236328" lon="-5.158860206604">
        <ele>622</ele>
        <time>2019-05-11T15:33:26Z</time>
      </trkpt>
      <trkpt lat="36.8046531677246" lon="-5.1588830947876">
        <ele>622</ele>
        <time>2019-05-11T15:33:28Z</time>
      </trkpt>
      <trkpt lat="36.8046607971191" lon="-5.15891218185425">
        <ele>622</ele>
        <time>2019-05-11T15:33:30Z</time>
      </trkpt>
      <trkpt lat="36.8046684265137" lon="-5.15894317626953">
        <ele>622</ele>
        <time>2019-05-11T15:33:32Z</time>
      </trkpt>
      <trkpt lat="36.8046760559082" lon="-5.1589732170105">
        <ele>622</ele>
        <time>2019-05-11T15:33:34Z</time>
      </trkpt>
      <trkpt lat="36.8046836853027" lon="-5.1590051651001">
        <ele>622</ele>
        <time>2019-05-11T15:33:36Z</time>
      </trkpt>
      <trkpt lat="36.8046951293945" lon="-5.1590371131897">
        <ele>622</ele>
        <time>2019-05-11T15:33:39Z</time>
      </trkpt>
      <trkpt lat="36.8047065734863" lon="-5.15906000137329">
        <ele>622</ele>
        <time>2019-05-11T15:33:41Z</time>
      </trkpt>
      <trkpt lat="36.8047180175781" lon="-5.15908718109131">
        <ele>622</ele>
        <time>2019-05-11T15:33:43Z</time>
      </trkpt>
      <trkpt lat="36.8047294616699" lon="-5.15911483764648">
        <ele>623</ele>
        <time>2019-05-11T15:33:45Z</time>
      </trkpt>
      <trkpt lat="36.804744720459" lon="-5.15914678573608">
        <ele>623</ele>
        <time>2019-05-11T15:33:47Z</time>
      </trkpt>
      <trkpt lat="36.8047561645508" lon="-5.15917491912842">
        <ele>624</ele>
        <time>2019-05-11T15:33:49Z</time>
      </trkpt>
      <trkpt lat="36.8047676086426" lon="-5.15920209884644">
        <ele>624</ele>
        <time>2019-05-11T15:33:51Z</time>
      </trkpt>
      <trkpt lat="36.8047790527344" lon="-5.15922498703003">
        <ele>625</ele>
        <time>2019-05-11T15:33:53Z</time>
      </trkpt>
      <trkpt lat="36.8047866821289" lon="-5.15925216674805">
        <ele>625</ele>
        <time>2019-05-11T15:33:55Z</time>
      </trkpt>
      <trkpt lat="36.8047943115234" lon="-5.15927982330322">
        <ele>626</ele>
        <time>2019-05-11T15:33:57Z</time>
      </trkpt>
      <trkpt lat="36.8048095703125" lon="-5.15931510925293">
        <ele>626</ele>
        <time>2019-05-11T15:33:59Z</time>
      </trkpt>
      <trkpt lat="36.8048133850098" lon="-5.15933322906494">
        <ele>626</ele>
        <time>2019-05-11T15:34:01Z</time>
      </trkpt>
      <trkpt lat="36.804817199707" lon="-5.1593451499939">
        <ele>627</ele>
        <time>2019-05-11T15:34:03Z</time>
      </trkpt>
      <trkpt lat="36.8048210144043" lon="-5.15935516357422">
        <ele>627</ele>
        <time>2019-05-11T15:34:05Z</time>
      </trkpt>
      <trkpt lat="36.8048210144043" lon="-5.15936279296875">
        <ele>627</ele>
        <time>2019-05-11T15:34:07Z</time>
      </trkpt>
      <trkpt lat="36.804817199707" lon="-5.15937185287476">
        <ele>627</ele>
        <time>2019-05-11T15:34:09Z</time>
      </trkpt>
      <trkpt lat="36.8048133850098" lon="-5.15938711166382">
        <ele>627</ele>
        <time>2019-05-11T15:34:11Z</time>
      </trkpt>
      <trkpt lat="36.8048133850098" lon="-5.15938806533814">
        <ele>627</ele>
        <time>2019-05-11T15:34:14Z</time>
      </trkpt>
      <trkpt lat="36.8048133850098" lon="-5.15938997268677">
        <ele>627</ele>
        <time>2019-05-11T15:34:16Z</time>
      </trkpt>
      <trkpt lat="36.8048133850098" lon="-5.15938997268677">
        <ele>627</ele>
        <time>2019-05-11T15:34:18Z</time>
      </trkpt>
      <trkpt lat="36.8048133850098" lon="-5.15938711166382">
        <ele>627</ele>
        <time>2019-05-11T15:34:20Z</time>
      </trkpt>
      <trkpt lat="36.8048133850098" lon="-5.15938997268677">
        <ele>627</ele>
        <time>2019-05-11T15:34:22Z</time>
      </trkpt>
      <trkpt lat="36.8048210144043" lon="-5.15938806533814">
        <ele>629</ele>
        <time>2019-05-11T15:34:30Z</time>
      </trkpt>
      <trkpt lat="36.8048248291016" lon="-5.15939283370972">
        <ele>629</ele>
        <time>2019-05-11T15:34:32Z</time>
      </trkpt>
      <trkpt lat="36.8048248291016" lon="-5.15939283370972">
        <ele>629</ele>
        <time>2019-05-11T15:34:34Z</time>
      </trkpt>
      <trkpt lat="36.8048248291016" lon="-5.15939283370972">
        <ele>629</ele>
        <time>2019-05-11T15:34:36Z</time>
      </trkpt>
      <trkpt lat="36.8048248291016" lon="-5.15939712524414">
        <ele>630</ele>
        <time>2019-05-11T15:34:38Z</time>
      </trkpt>
      <trkpt lat="36.8048210144043" lon="-5.15939712524414">
        <ele>630</ele>
        <time>2019-05-11T15:34:40Z</time>
      </trkpt>
      <trkpt lat="36.8048210144043" lon="-5.15939712524414">
        <ele>630</ele>
        <time>2019-05-11T15:34:42Z</time>
      </trkpt>
      <trkpt lat="36.804817199707" lon="-5.15939712524414">
        <ele>630</ele>
        <time>2019-05-11T15:34:44Z</time>
      </trkpt>
      <trkpt lat="36.8048210144043" lon="-5.15939521789551">
        <ele>631</ele>
        <time>2019-05-11T15:34:46Z</time>
      </trkpt>
      <trkpt lat="36.8048210144043" lon="-5.15939807891846">
        <ele>631</ele>
        <time>2019-05-11T15:34:50Z</time>
      </trkpt>
      <trkpt lat="36.8048210144043" lon="-5.15939521789551">
        <ele>631</ele>
        <time>2019-05-11T15:34:52Z</time>
      </trkpt>
      <trkpt lat="36.8048210144043" lon="-5.15939521789551">
        <ele>631</ele>
        <time>2019-05-11T15:34:56Z</time>
      </trkpt>
      <trkpt lat="36.8048210144043" lon="-5.15939521789551">
        <ele>631</ele>
        <time>2019-05-11T15:34:58Z</time>
      </trkpt>
      <trkpt lat="36.8048210144043" lon="-5.15939807891846">
        <ele>631</ele>
        <time>2019-05-11T15:35:00Z</time>
      </trkpt>
      <trkpt lat="36.8048248291016" lon="-5.15939807891846">
        <ele>631</ele>
        <time>2019-05-11T15:35:02Z</time>
      </trkpt>
      <trkpt lat="36.8048248291016" lon="-5.15939521789551">
        <ele>631</ele>
        <time>2019-05-11T15:35:04Z</time>
      </trkpt>
      <trkpt lat="36.8048286437988" lon="-5.15939283370972">
        <ele>631</ele>
        <time>2019-05-11T15:35:08Z</time>
      </trkpt>
      <trkpt lat="36.8048210144043" lon="-5.15939521789551">
        <ele>631</ele>
        <time>2019-05-11T15:35:10Z</time>
      </trkpt>
      <trkpt lat="36.8047981262207" lon="-5.15939521789551">
        <ele>631</ele>
        <time>2019-05-11T15:35:13Z</time>
      </trkpt>
      <trkpt lat="36.8047828674316" lon="-5.15939807891846">
        <ele>631</ele>
        <time>2019-05-11T15:35:15Z</time>
      </trkpt>
      <trkpt lat="36.8047866821289" lon="-5.15940189361572">
        <ele>632</ele>
        <time>2019-05-11T15:35:17Z</time>
      </trkpt>
      <trkpt lat="36.8047981262207" lon="-5.15940189361572">
        <ele>632</ele>
        <time>2019-05-11T15:35:19Z</time>
      </trkpt>
      <trkpt lat="36.8048057556152" lon="-5.15939998626709">
        <ele>633</ele>
        <time>2019-05-11T15:35:21Z</time>
      </trkpt>
      <trkpt lat="36.8048095703125" lon="-5.15939521789551">
        <ele>633</ele>
        <time>2019-05-11T15:35:23Z</time>
      </trkpt>
      <trkpt lat="36.8048133850098" lon="-5.15939283370972">
        <ele>633</ele>
        <time>2019-05-11T15:35:25Z</time>
      </trkpt>
      <trkpt lat="36.804817199707" lon="-5.15939283370972">
        <ele>634</ele>
        <time>2019-05-11T15:35:27Z</time>
      </trkpt>
      <trkpt lat="36.8048210144043" lon="-5.15938711166382">
        <ele>634</ele>
        <time>2019-05-11T15:35:29Z</time>
      </trkpt>
      <trkpt lat="36.8048286437988" lon="-5.15938186645508">
        <ele>634</ele>
        <time>2019-05-11T15:35:31Z</time>
      </trkpt>
      <trkpt lat="36.8048439025879" lon="-5.15939521789551">
        <ele>635</ele>
        <time>2019-05-11T15:35:33Z</time>
      </trkpt>
      <trkpt lat="36.8048629760742" lon="-5.15943288803101">
        <ele>635</ele>
        <time>2019-05-11T15:35:35Z</time>
      </trkpt>
      <trkpt lat="36.8048782348633" lon="-5.15945816040039">
        <ele>635</ele>
        <time>2019-05-11T15:35:37Z</time>
      </trkpt>
      <trkpt lat="36.8048896789551" lon="-5.15948295593262">
        <ele>636</ele>
        <time>2019-05-11T15:35:39Z</time>
      </trkpt>
      <trkpt lat="36.8049011230469" lon="-5.15950298309326">
        <ele>636</ele>
        <time>2019-05-11T15:35:41Z</time>
      </trkpt>
      <trkpt lat="36.8049087524414" lon="-5.15952301025391">
        <ele>636</ele>
        <time>2019-05-11T15:35:43Z</time>
      </trkpt>
      <trkpt lat="36.8049125671387" lon="-5.1595401763916">
        <ele>636</ele>
        <time>2019-05-11T15:35:45Z</time>
      </trkpt>
      <trkpt lat="36.8049163818359" lon="-5.15955781936646">
        <ele>636</ele>
        <time>2019-05-11T15:35:47Z</time>
      </trkpt>
      <trkpt lat="36.8049278259277" lon="-5.15957498550415">
        <ele>636</ele>
        <time>2019-05-11T15:35:50Z</time>
      </trkpt>
      <trkpt lat="36.8049354553223" lon="-5.15958499908447">
        <ele>636</ele>
        <time>2019-05-11T15:35:52Z</time>
      </trkpt>
      <trkpt lat="36.8049468994141" lon="-5.15959310531616">
        <ele>636</ele>
        <time>2019-05-11T15:35:54Z</time>
      </trkpt>
      <trkpt lat="36.8049507141113" lon="-5.15959787368774">
        <ele>636</ele>
        <time>2019-05-11T15:35:56Z</time>
      </trkpt>
      <trkpt lat="36.8049507141113" lon="-5.15960216522217">
        <ele>636</ele>
        <time>2019-05-11T15:35:58Z</time>
      </trkpt>
      <trkpt lat="36.8049507141113" lon="-5.15960216522217">
        <ele>636</ele>
        <time>2019-05-11T15:36:00Z</time>
      </trkpt>
      <trkpt lat="36.8049545288086" lon="-5.15960311889648">
        <ele>636</ele>
        <time>2019-05-11T15:36:02Z</time>
      </trkpt>
      <trkpt lat="36.8049507141113" lon="-5.15960693359375">
        <ele>636</ele>
        <time>2019-05-11T15:36:04Z</time>
      </trkpt>
      <trkpt lat="36.8049468994141" lon="-5.15961217880249">
        <ele>636</ele>
        <time>2019-05-11T15:36:06Z</time>
      </trkpt>
      <trkpt lat="36.8049468994141" lon="-5.1596097946167">
        <ele>636</ele>
        <time>2019-05-11T15:36:08Z</time>
      </trkpt>
      <trkpt lat="36.8049468994141" lon="-5.15961217880249">
        <ele>636</ele>
        <time>2019-05-11T15:36:10Z</time>
      </trkpt>
      <trkpt lat="36.8049468994141" lon="-5.15961217880249">
        <ele>636</ele>
        <time>2019-05-11T15:36:12Z</time>
      </trkpt>
      <trkpt lat="36.8049468994141" lon="-5.15961217880249">
        <ele>636</ele>
        <time>2019-05-11T15:36:14Z</time>
      </trkpt>
      <trkpt lat="36.8049507141113" lon="-5.15961217880249">
        <ele>636</ele>
        <time>2019-05-11T15:36:16Z</time>
      </trkpt>
      <trkpt lat="36.8049507141113" lon="-5.1596097946167">
        <ele>636</ele>
        <time>2019-05-11T15:36:18Z</time>
      </trkpt>
      <trkpt lat="36.8049545288086" lon="-5.15960693359375">
        <ele>636</ele>
        <time>2019-05-11T15:36:20Z</time>
      </trkpt>
      <trkpt lat="36.8049583435059" lon="-5.15960788726807">
        <ele>636</ele>
        <time>2019-05-11T15:36:22Z</time>
      </trkpt>
      <trkpt lat="36.8049621582031" lon="-5.15960216522217">
        <ele>636</ele>
        <time>2019-05-11T15:36:24Z</time>
      </trkpt>
      <trkpt lat="36.8049659729004" lon="-5.15960216522217">
        <ele>636</ele>
        <time>2019-05-11T15:36:26Z</time>
      </trkpt>
      <trkpt lat="36.8049697875977" lon="-5.15959787368774">
        <ele>636</ele>
        <time>2019-05-11T15:36:28Z</time>
      </trkpt>
      <trkpt lat="36.8049621582031" lon="-5.15960788726807">
        <ele>636</ele>
        <time>2019-05-11T15:36:30Z</time>
      </trkpt>
      <trkpt lat="36.8049545288086" lon="-5.15961313247681">
        <ele>636</ele>
        <time>2019-05-11T15:36:33Z</time>
      </trkpt>
      <trkpt lat="36.8049545288086" lon="-5.15961313247681">
        <ele>636</ele>
        <time>2019-05-11T15:36:35Z</time>
      </trkpt>
      <trkpt lat="36.8049507141113" lon="-5.15961503982544">
        <ele>636</ele>
        <time>2019-05-11T15:36:37Z</time>
      </trkpt>
      <trkpt lat="36.8049507141113" lon="-5.15961503982544">
        <ele>636</ele>
        <time>2019-05-11T15:36:39Z</time>
      </trkpt>
      <trkpt lat="36.8049507141113" lon="-5.15961503982544">
        <ele>636</ele>
        <time>2019-05-11T15:36:41Z</time>
      </trkpt>
      <trkpt lat="36.8049468994141" lon="-5.15961503982544">
        <ele>636</ele>
        <time>2019-05-11T15:36:43Z</time>
      </trkpt>
      <trkpt lat="36.8049507141113" lon="-5.15961694717407">
        <ele>636</ele>
        <time>2019-05-11T15:36:45Z</time>
      </trkpt>
      <trkpt lat="36.8049507141113" lon="-5.1596097946167">
        <ele>636</ele>
        <time>2019-05-11T15:36:47Z</time>
      </trkpt>
      <trkpt lat="36.8049507141113" lon="-5.1596097946167">
        <ele>636</ele>
        <time>2019-05-11T15:36:49Z</time>
      </trkpt>
      <trkpt lat="36.8049507141113" lon="-5.1596097946167">
        <ele>636</ele>
        <time>2019-05-11T15:36:51Z</time>
      </trkpt>
      <trkpt lat="36.8049468994141" lon="-5.15960788726807">
        <ele>636</ele>
        <time>2019-05-11T15:36:53Z</time>
      </trkpt>
      <trkpt lat="36.8049468994141" lon="-5.15960693359375">
        <ele>636</ele>
        <time>2019-05-11T15:36:55Z</time>
      </trkpt>
      <trkpt lat="36.8049468994141" lon="-5.15960693359375">
        <ele>636</ele>
        <time>2019-05-11T15:36:57Z</time>
      </trkpt>
      <trkpt lat="36.8049468994141" lon="-5.15960693359375">
        <ele>636</ele>
        <time>2019-05-11T15:36:59Z</time>
      </trkpt>
      <trkpt lat="36.8049468994141" lon="-5.15960693359375">
        <ele>636</ele>
        <time>2019-05-11T15:37:01Z</time>
      </trkpt>
      <trkpt lat="36.8049468994141" lon="-5.15960693359375">
        <ele>636</ele>
        <time>2019-05-11T15:37:03Z</time>
      </trkpt>
      <trkpt lat="36.8049468994141" lon="-5.15960693359375">
        <ele>636</ele>
        <time>2019-05-11T15:37:05Z</time>
      </trkpt>
      <trkpt lat="36.8049430847168" lon="-5.15960311889648">
        <ele>636</ele>
        <time>2019-05-11T15:37:07Z</time>
      </trkpt>
      <trkpt lat="36.8049430847168" lon="-5.15960311889648">
        <ele>636</ele>
        <time>2019-05-11T15:37:09Z</time>
      </trkpt>
      <trkpt lat="36.8049430847168" lon="-5.15960311889648">
        <ele>636</ele>
        <time>2019-05-11T15:37:11Z</time>
      </trkpt>
      <trkpt lat="36.8049430847168" lon="-5.15960502624512">
        <ele>636</ele>
        <time>2019-05-11T15:37:13Z</time>
      </trkpt>
      <trkpt lat="36.8049392700195" lon="-5.15960502624512">
        <ele>636</ele>
        <time>2019-05-11T15:37:15Z</time>
      </trkpt>
      <trkpt lat="36.8049392700195" lon="-5.15960502624512">
        <ele>636</ele>
        <time>2019-05-11T15:37:17Z</time>
      </trkpt>
      <trkpt lat="36.8049354553223" lon="-5.15960788726807">
        <ele>636</ele>
        <time>2019-05-11T15:37:19Z</time>
      </trkpt>
      <trkpt lat="36.8049430847168" lon="-5.15962791442871">
        <ele>636</ele>
        <time>2019-05-11T15:37:21Z</time>
      </trkpt>
      <trkpt lat="36.8049507141113" lon="-5.15965223312378">
        <ele>636</ele>
        <time>2019-05-11T15:37:23Z</time>
      </trkpt>
      <trkpt lat="36.8049583435059" lon="-5.15967988967896">
        <ele>636</ele>
        <time>2019-05-11T15:37:25Z</time>
      </trkpt>
      <trkpt lat="36.8049583435059" lon="-5.15970993041992">
        <ele>636</ele>
        <time>2019-05-11T15:37:27Z</time>
      </trkpt>
      <trkpt lat="36.8049545288086" lon="-5.15975713729858">
        <ele>636</ele>
        <time>2019-05-11T15:37:29Z</time>
      </trkpt>
      <trkpt lat="36.8049545288086" lon="-5.15978813171387">
        <ele>636</ele>
        <time>2019-05-11T15:37:31Z</time>
      </trkpt>
      <trkpt lat="36.8049507141113" lon="-5.15982007980347">
        <ele>636</ele>
        <time>2019-05-11T15:37:33Z</time>
      </trkpt>
      <trkpt lat="36.8049468994141" lon="-5.15984678268433">
        <ele>636</ele>
        <time>2019-05-11T15:37:35Z</time>
      </trkpt>
      <trkpt lat="36.8049468994141" lon="-5.15987682342529">
        <ele>636</ele>
        <time>2019-05-11T15:37:37Z</time>
      </trkpt>
      <trkpt lat="36.8049507141113" lon="-5.15990495681763">
        <ele>636</ele>
        <time>2019-05-11T15:37:39Z</time>
      </trkpt>
      <trkpt lat="36.8049621582031" lon="-5.15993213653564">
        <ele>636</ele>
        <time>2019-05-11T15:37:41Z</time>
      </trkpt>
      <trkpt lat="36.8049774169922" lon="-5.15995216369629">
        <ele>636</ele>
        <time>2019-05-11T15:37:44Z</time>
      </trkpt>
      <trkpt lat="36.8049964904785" lon="-5.15997219085693">
        <ele>636</ele>
        <time>2019-05-11T15:37:46Z</time>
      </trkpt>
      <trkpt lat="36.8050193786621" lon="-5.15998220443726">
        <ele>636</ele>
        <time>2019-05-11T15:37:48Z</time>
      </trkpt>
      <trkpt lat="36.8050384521484" lon="-5.15998220443726">
        <ele>636</ele>
        <time>2019-05-11T15:37:50Z</time>
      </trkpt>
      <trkpt lat="36.805061340332" lon="-5.15997314453125">
        <ele>636</ele>
        <time>2019-05-11T15:37:52Z</time>
      </trkpt>
      <trkpt lat="36.8050842285156" lon="-5.15995788574219">
        <ele>636</ele>
        <time>2019-05-11T15:37:54Z</time>
      </trkpt>
      <trkpt lat="36.8050994873047" lon="-5.15994215011597">
        <ele>637</ele>
        <time>2019-05-11T15:37:56Z</time>
      </trkpt>
      <trkpt lat="36.8051147460938" lon="-5.1599268913269">
        <ele>637</ele>
        <time>2019-05-11T15:37:58Z</time>
      </trkpt>
      <trkpt lat="36.8051261901856" lon="-5.15990686416626">
        <ele>637</ele>
        <time>2019-05-11T15:38:00Z</time>
      </trkpt>
      <trkpt lat="36.8051376342773" lon="-5.15988492965698">
        <ele>637</ele>
        <time>2019-05-11T15:38:02Z</time>
      </trkpt>
      <trkpt lat="36.8051490783691" lon="-5.15986490249634">
        <ele>637</ele>
        <time>2019-05-11T15:38:04Z</time>
      </trkpt>
      <trkpt lat="36.8051605224609" lon="-5.15984296798706">
        <ele>638</ele>
        <time>2019-05-11T15:38:06Z</time>
      </trkpt>
      <trkpt lat="36.8051681518555" lon="-5.15983295440674">
        <ele>638</ele>
        <time>2019-05-11T15:38:08Z</time>
      </trkpt>
      <trkpt lat="36.8051681518555" lon="-5.15983295440674">
        <ele>638</ele>
        <time>2019-05-11T15:38:10Z</time>
      </trkpt>
      <trkpt lat="36.8051681518555" lon="-5.15983295440674">
        <ele>638</ele>
        <time>2019-05-11T15:38:12Z</time>
      </trkpt>
      <trkpt lat="36.8051681518555" lon="-5.159836769104">
        <ele>638</ele>
        <time>2019-05-11T15:38:14Z</time>
      </trkpt>
      <trkpt lat="36.80517578125" lon="-5.15984487533569">
        <ele>638</ele>
        <time>2019-05-11T15:38:16Z</time>
      </trkpt>
      <trkpt lat="36.8051795959473" lon="-5.15984678268433">
        <ele>638</ele>
        <time>2019-05-11T15:38:18Z</time>
      </trkpt>
      <trkpt lat="36.8051834106445" lon="-5.15984010696411">
        <ele>638</ele>
        <time>2019-05-11T15:38:21Z</time>
      </trkpt>
      <trkpt lat="36.8051834106445" lon="-5.15984678268433">
        <ele>638</ele>
        <time>2019-05-11T15:38:23Z</time>
      </trkpt>
      <trkpt lat="36.8051834106445" lon="-5.15984678268433">
        <ele>638</ele>
        <time>2019-05-11T15:38:25Z</time>
      </trkpt>
      <trkpt lat="36.8051719665527" lon="-5.15985202789307">
        <ele>638</ele>
        <time>2019-05-11T15:38:27Z</time>
      </trkpt>
      <trkpt lat="36.8051681518555" lon="-5.15985012054443">
        <ele>638</ele>
        <time>2019-05-11T15:38:29Z</time>
      </trkpt>
      <trkpt lat="36.8051643371582" lon="-5.1598482131958">
        <ele>638</ele>
        <time>2019-05-11T15:38:31Z</time>
      </trkpt>
      <trkpt lat="36.8051643371582" lon="-5.15984201431274">
        <ele>638</ele>
        <time>2019-05-11T15:38:33Z</time>
      </trkpt>
      <trkpt lat="36.8051643371582" lon="-5.15984487533569">
        <ele>638</ele>
        <time>2019-05-11T15:38:35Z</time>
      </trkpt>
      <trkpt lat="36.8051643371582" lon="-5.15984201431274">
        <ele>638</ele>
        <time>2019-05-11T15:38:37Z</time>
      </trkpt>
      <trkpt lat="36.8051643371582" lon="-5.159836769104">
        <ele>638</ele>
        <time>2019-05-11T15:38:39Z</time>
      </trkpt>
      <trkpt lat="36.8051643371582" lon="-5.159836769104">
        <ele>638</ele>
        <time>2019-05-11T15:38:41Z</time>
      </trkpt>
      <trkpt lat="36.8051643371582" lon="-5.15983295440674">
        <ele>639</ele>
        <time>2019-05-11T15:38:43Z</time>
      </trkpt>
      <trkpt lat="36.8051643371582" lon="-5.15983486175537">
        <ele>639</ele>
        <time>2019-05-11T15:38:45Z</time>
      </trkpt>
      <trkpt lat="36.8051567077637" lon="-5.15984201431274">
        <ele>639</ele>
        <time>2019-05-11T15:38:47Z</time>
      </trkpt>
      <trkpt lat="36.8051605224609" lon="-5.159836769104">
        <ele>639</ele>
        <time>2019-05-11T15:38:49Z</time>
      </trkpt>
      <trkpt lat="36.8051643371582" lon="-5.15983295440674">
        <ele>639</ele>
        <time>2019-05-11T15:38:51Z</time>
      </trkpt>
      <trkpt lat="36.8051643371582" lon="-5.15983200073242">
        <ele>639</ele>
        <time>2019-05-11T15:38:53Z</time>
      </trkpt>
      <trkpt lat="36.8051643371582" lon="-5.15983200073242">
        <ele>639</ele>
        <time>2019-05-11T15:38:55Z</time>
      </trkpt>
      <trkpt lat="36.8051643371582" lon="-5.15982818603516">
        <ele>639</ele>
        <time>2019-05-11T15:38:57Z</time>
      </trkpt>
      <trkpt lat="36.8051681518555" lon="-5.15982818603516">
        <ele>639</ele>
        <time>2019-05-11T15:38:59Z</time>
      </trkpt>
      <trkpt lat="36.8051643371582" lon="-5.15982818603516">
        <ele>639</ele>
        <time>2019-05-11T15:39:01Z</time>
      </trkpt>
      <trkpt lat="36.8051681518555" lon="-5.15982723236084">
        <ele>639</ele>
        <time>2019-05-11T15:39:03Z</time>
      </trkpt>
      <trkpt lat="36.8051681518555" lon="-5.15982484817505">
        <ele>639</ele>
        <time>2019-05-11T15:39:05Z</time>
      </trkpt>
      <trkpt lat="36.8051681518555" lon="-5.1598219871521">
        <ele>639</ele>
        <time>2019-05-11T15:39:07Z</time>
      </trkpt>
      <trkpt lat="36.8051681518555" lon="-5.15982007980347">
        <ele>639</ele>
        <time>2019-05-11T15:39:10Z</time>
      </trkpt>
      <trkpt lat="36.8051681518555" lon="-5.15982007980347">
        <ele>639</ele>
        <time>2019-05-11T15:39:12Z</time>
      </trkpt>
      <trkpt lat="36.8051719665527" lon="-5.15981817245483">
        <ele>639</ele>
        <time>2019-05-11T15:39:14Z</time>
      </trkpt>
      <trkpt lat="36.8051719665527" lon="-5.15981721878052">
        <ele>640</ele>
        <time>2019-05-11T15:39:16Z</time>
      </trkpt>
      <trkpt lat="36.8051719665527" lon="-5.15981721878052">
        <ele>640</ele>
        <time>2019-05-11T15:39:18Z</time>
      </trkpt>
      <trkpt lat="36.8051719665527" lon="-5.15982007980347">
        <ele>641</ele>
        <time>2019-05-11T15:39:22Z</time>
      </trkpt>
      <trkpt lat="36.8051719665527" lon="-5.1598219871521">
        <ele>641</ele>
        <time>2019-05-11T15:39:24Z</time>
      </trkpt>
      <trkpt lat="36.80517578125" lon="-5.15983200073242">
        <ele>641</ele>
        <time>2019-05-11T15:39:26Z</time>
      </trkpt>
      <trkpt lat="36.8051795959473" lon="-5.15984010696411">
        <ele>641</ele>
        <time>2019-05-11T15:39:28Z</time>
      </trkpt>
      <trkpt lat="36.8051834106445" lon="-5.15985679626465">
        <ele>641</ele>
        <time>2019-05-11T15:39:30Z</time>
      </trkpt>
      <trkpt lat="36.8051834106445" lon="-5.15987777709961">
        <ele>641</ele>
        <time>2019-05-11T15:39:32Z</time>
      </trkpt>
      <trkpt lat="36.8051910400391" lon="-5.15990018844604">
        <ele>641</ele>
        <time>2019-05-11T15:39:34Z</time>
      </trkpt>
      <trkpt lat="36.8051986694336" lon="-5.15992021560669">
        <ele>641</ele>
        <time>2019-05-11T15:39:36Z</time>
      </trkpt>
      <trkpt lat="36.8052101135254" lon="-5.15993690490723">
        <ele>641</ele>
        <time>2019-05-11T15:39:38Z</time>
      </trkpt>
      <trkpt lat="36.8052368164062" lon="-5.15995788574219">
        <ele>641</ele>
        <time>2019-05-11T15:39:40Z</time>
      </trkpt>
      <trkpt lat="36.805248260498" lon="-5.15996313095093">
        <ele>641</ele>
        <time>2019-05-11T15:39:42Z</time>
      </trkpt>
      <trkpt lat="36.8052597045898" lon="-5.15997219085693">
        <ele>641</ele>
        <time>2019-05-11T15:39:44Z</time>
      </trkpt>
      <trkpt lat="36.8052711486816" lon="-5.15998220443726">
        <ele>641</ele>
        <time>2019-05-11T15:39:46Z</time>
      </trkpt>
      <trkpt lat="36.8052787780762" lon="-5.15998220443726">
        <ele>641</ele>
        <time>2019-05-11T15:39:48Z</time>
      </trkpt>
      <trkpt lat="36.8052940368652" lon="-5.15998220443726">
        <ele>641</ele>
        <time>2019-05-11T15:39:50Z</time>
      </trkpt>
      <trkpt lat="36.8053092956543" lon="-5.1599850654602">
        <ele>641</ele>
        <time>2019-05-11T15:39:52Z</time>
      </trkpt>
      <trkpt lat="36.8053207397461" lon="-5.15999317169189">
        <ele>641</ele>
        <time>2019-05-11T15:39:55Z</time>
      </trkpt>
      <trkpt lat="36.8053321838379" lon="-5.16000699996948">
        <ele>641</ele>
        <time>2019-05-11T15:39:57Z</time>
      </trkpt>
      <trkpt lat="36.8053436279297" lon="-5.1600170135498">
        <ele>641</ele>
        <time>2019-05-11T15:39:59Z</time>
      </trkpt>
      <trkpt lat="36.8053588867188" lon="-5.16001510620117">
        <ele>641</ele>
        <time>2019-05-11T15:40:01Z</time>
      </trkpt>
      <trkpt lat="36.8053779602051" lon="-5.16002178192139">
        <ele>641</ele>
        <time>2019-05-11T15:40:03Z</time>
      </trkpt>
      <trkpt lat="36.8053932189941" lon="-5.16003513336182">
        <ele>641</ele>
        <time>2019-05-11T15:40:05Z</time>
      </trkpt>
      <trkpt lat="36.8054122924805" lon="-5.1600399017334">
        <ele>642</ele>
        <time>2019-05-11T15:40:07Z</time>
      </trkpt>
      <trkpt lat="36.8054351806641" lon="-5.16004276275635">
        <ele>642</ele>
        <time>2019-05-11T15:40:09Z</time>
      </trkpt>
      <trkpt lat="36.8054580688477" lon="-5.16004800796509">
        <ele>642</ele>
        <time>2019-05-11T15:40:11Z</time>
      </trkpt>
      <trkpt lat="36.8054809570312" lon="-5.16005706787109">
        <ele>642</ele>
        <time>2019-05-11T15:40:13Z</time>
      </trkpt>
      <trkpt lat="36.8055114746094" lon="-5.16006278991699">
        <ele>642</ele>
        <time>2019-05-11T15:40:15Z</time>
      </trkpt>
      <trkpt lat="36.805534362793" lon="-5.16007280349731">
        <ele>642</ele>
        <time>2019-05-11T15:40:17Z</time>
      </trkpt>
      <trkpt lat="36.8055572509766" lon="-5.16007995605469">
        <ele>642</ele>
        <time>2019-05-11T15:40:19Z</time>
      </trkpt>
      <trkpt lat="36.8055763244629" lon="-5.16008520126343">
        <ele>643</ele>
        <time>2019-05-11T15:40:21Z</time>
      </trkpt>
      <trkpt lat="36.8055953979492" lon="-5.16008806228638">
        <ele>643</ele>
        <time>2019-05-11T15:40:23Z</time>
      </trkpt>
      <trkpt lat="36.8056182861328" lon="-5.16008996963501">
        <ele>643</ele>
        <time>2019-05-11T15:40:25Z</time>
      </trkpt>
      <trkpt lat="36.8056373596191" lon="-5.16009283065796">
        <ele>643</ele>
        <time>2019-05-11T15:40:28Z</time>
      </trkpt>
      <trkpt lat="36.8056564331055" lon="-5.16009187698364">
        <ele>644</ele>
        <time>2019-05-11T15:40:30Z</time>
      </trkpt>
      <trkpt lat="36.8056793212891" lon="-5.16009187698364">
        <ele>644</ele>
        <time>2019-05-11T15:40:32Z</time>
      </trkpt>
      <trkpt lat="36.8056945800781" lon="-5.16009187698364">
        <ele>644</ele>
        <time>2019-05-11T15:40:34Z</time>
      </trkpt>
      <trkpt lat="36.8057136535644" lon="-5.16009187698364">
        <ele>645</ele>
        <time>2019-05-11T15:40:36Z</time>
      </trkpt>
      <trkpt lat="36.805736541748" lon="-5.16009187698364">
        <ele>645</ele>
        <time>2019-05-11T15:40:38Z</time>
      </trkpt>
      <trkpt lat="36.8057556152344" lon="-5.16009187698364">
        <ele>645</ele>
        <time>2019-05-11T15:40:40Z</time>
      </trkpt>
      <trkpt lat="36.8057746887207" lon="-5.16008996963501">
        <ele>646</ele>
        <time>2019-05-11T15:40:42Z</time>
      </trkpt>
      <trkpt lat="36.805793762207" lon="-5.16008806228638">
        <ele>646</ele>
        <time>2019-05-11T15:40:44Z</time>
      </trkpt>
      <trkpt lat="36.8058166503906" lon="-5.16008281707764">
        <ele>647</ele>
        <time>2019-05-11T15:40:46Z</time>
      </trkpt>
      <trkpt lat="36.805835723877" lon="-5.16007804870606">
        <ele>647</ele>
        <time>2019-05-11T15:40:48Z</time>
      </trkpt>
      <trkpt lat="36.8058547973633" lon="-5.160071849823">
        <ele>648</ele>
        <time>2019-05-11T15:40:50Z</time>
      </trkpt>
      <trkpt lat="36.8058738708496" lon="-5.16006517410278">
        <ele>648</ele>
        <time>2019-05-11T15:40:52Z</time>
      </trkpt>
      <trkpt lat="36.8059043884277" lon="-5.16005277633667">
        <ele>648</ele>
        <time>2019-05-11T15:40:54Z</time>
      </trkpt>
      <trkpt lat="36.8059234619141" lon="-5.16004276275635">
        <ele>649</ele>
        <time>2019-05-11T15:40:56Z</time>
      </trkpt>
      <trkpt lat="36.8059425354004" lon="-5.16003322601318">
        <ele>649</ele>
        <time>2019-05-11T15:40:58Z</time>
      </trkpt>
      <trkpt lat="36.8059616088867" lon="-5.16002798080444">
        <ele>649</ele>
        <time>2019-05-11T15:41:00Z</time>
      </trkpt>
      <trkpt lat="36.8059844970703" lon="-5.16001987457275">
        <ele>650</ele>
        <time>2019-05-11T15:41:02Z</time>
      </trkpt>
      <trkpt lat="36.8060035705566" lon="-5.16000986099243">
        <ele>650</ele>
        <time>2019-05-11T15:41:04Z</time>
      </trkpt>
      <trkpt lat="36.806022644043" lon="-5.15999794006348">
        <ele>650</ele>
        <time>2019-05-11T15:41:07Z</time>
      </trkpt>
      <trkpt lat="36.8060417175293" lon="-5.15998983383179">
        <ele>651</ele>
        <time>2019-05-11T15:41:09Z</time>
      </trkpt>
      <trkpt lat="36.8060455322266" lon="-5.15998983383179">
        <ele>651</ele>
        <time>2019-05-11T15:41:11Z</time>
      </trkpt>
      <trkpt lat="36.8060455322266" lon="-5.15998983383179">
        <ele>651</ele>
        <time>2019-05-11T15:41:13Z</time>
      </trkpt>
      <trkpt lat="36.8060455322266" lon="-5.15998697280884">
        <ele>652</ele>
        <time>2019-05-11T15:41:19Z</time>
      </trkpt>
      <trkpt lat="36.8060531616211" lon="-5.1599850654602">
        <ele>652</ele>
        <time>2019-05-11T15:41:21Z</time>
      </trkpt>
      <trkpt lat="36.8060531616211" lon="-5.15998315811157">
        <ele>652</ele>
        <time>2019-05-11T15:41:23Z</time>
      </trkpt>
      <trkpt lat="36.8060531616211" lon="-5.15997695922852">
        <ele>652</ele>
        <time>2019-05-11T15:41:25Z</time>
      </trkpt>
      <trkpt lat="36.8060531616211" lon="-5.15996694564819">
        <ele>652</ele>
        <time>2019-05-11T15:41:27Z</time>
      </trkpt>
      <trkpt lat="36.8060569763184" lon="-5.15996503829956">
        <ele>652</ele>
        <time>2019-05-11T15:41:29Z</time>
      </trkpt>
      <trkpt lat="36.8060569763184" lon="-5.15996313095093">
        <ele>652</ele>
        <time>2019-05-11T15:41:31Z</time>
      </trkpt>
      <trkpt lat="36.8060569763184" lon="-5.15996313095093">
        <ele>652</ele>
        <time>2019-05-11T15:41:33Z</time>
      </trkpt>
      <trkpt lat="36.8060569763184" lon="-5.15996313095093">
        <ele>652</ele>
        <time>2019-05-11T15:41:35Z</time>
      </trkpt>
      <trkpt lat="36.8060569763184" lon="-5.15996503829956">
        <ele>652</ele>
        <time>2019-05-11T15:41:37Z</time>
      </trkpt>
      <trkpt lat="36.8060607910156" lon="-5.15997695922852">
        <ele>652</ele>
        <time>2019-05-11T15:41:39Z</time>
      </trkpt>
      <trkpt lat="36.8060722351074" lon="-5.15997982025146">
        <ele>652</ele>
        <time>2019-05-11T15:41:41Z</time>
      </trkpt>
      <trkpt lat="36.8060874938965" lon="-5.15997982025146">
        <ele>652</ele>
        <time>2019-05-11T15:41:43Z</time>
      </trkpt>
      <trkpt lat="36.8061027526856" lon="-5.15997695922852">
        <ele>652</ele>
        <time>2019-05-11T15:41:45Z</time>
      </trkpt>
      <trkpt lat="36.8061180114746" lon="-5.15997219085693">
        <ele>652</ele>
        <time>2019-05-11T15:41:47Z</time>
      </trkpt>
      <trkpt lat="36.8061332702637" lon="-5.15996694564819">
        <ele>652</ele>
        <time>2019-05-11T15:41:49Z</time>
      </trkpt>
      <trkpt lat="36.80615234375" lon="-5.15996503829956">
        <ele>652</ele>
        <time>2019-05-11T15:41:51Z</time>
      </trkpt>
      <trkpt lat="36.8061676025391" lon="-5.15995979309082">
        <ele>652</ele>
        <time>2019-05-11T15:41:54Z</time>
      </trkpt>
      <trkpt lat="36.8061866760254" lon="-5.15995788574219">
        <ele>653</ele>
        <time>2019-05-11T15:41:56Z</time>
      </trkpt>
      <trkpt lat="36.8062057495117" lon="-5.15995502471924">
        <ele>653</ele>
        <time>2019-05-11T15:41:58Z</time>
      </trkpt>
      <trkpt lat="36.806224822998" lon="-5.15995216369629">
        <ele>653</ele>
        <time>2019-05-11T15:42:00Z</time>
      </trkpt>
      <trkpt lat="36.8062400817871" lon="-5.15995311737061">
        <ele>653</ele>
        <time>2019-05-11T15:42:02Z</time>
      </trkpt>
      <trkpt lat="36.8062591552734" lon="-5.15995311737061">
        <ele>653</ele>
        <time>2019-05-11T15:42:04Z</time>
      </trkpt>
      <trkpt lat="36.8062782287598" lon="-5.15995311737061">
        <ele>653</ele>
        <time>2019-05-11T15:42:06Z</time>
      </trkpt>
      <trkpt lat="36.8062934875488" lon="-5.15994787216186">
        <ele>653</ele>
        <time>2019-05-11T15:42:08Z</time>
      </trkpt>
      <trkpt lat="36.8063125610352" lon="-5.15994787216186">
        <ele>653</ele>
        <time>2019-05-11T15:42:10Z</time>
      </trkpt>
      <trkpt lat="36.8063278198242" lon="-5.15994501113892">
        <ele>653</ele>
        <time>2019-05-11T15:42:12Z</time>
      </trkpt>
      <trkpt lat="36.8063468933106" lon="-5.15993976593018">
        <ele>653</ele>
        <time>2019-05-11T15:42:14Z</time>
      </trkpt>
      <trkpt lat="36.8063659667969" lon="-5.15993309020996">
        <ele>653</ele>
        <time>2019-05-11T15:42:16Z</time>
      </trkpt>
      <trkpt lat="36.8063888549805" lon="-5.1599178314209">
        <ele>653</ele>
        <time>2019-05-11T15:42:18Z</time>
      </trkpt>
      <trkpt lat="36.8064041137695" lon="-5.15990686416626">
        <ele>653</ele>
        <time>2019-05-11T15:42:20Z</time>
      </trkpt>
      <trkpt lat="36.8064155578613" lon="-5.15989208221436">
        <ele>653</ele>
        <time>2019-05-11T15:42:22Z</time>
      </trkpt>
      <trkpt lat="36.8064308166504" lon="-5.15987300872803">
        <ele>653</ele>
        <time>2019-05-11T15:42:24Z</time>
      </trkpt>
      <trkpt lat="36.8064384460449" lon="-5.15985822677612">
        <ele>653</ele>
        <time>2019-05-11T15:42:26Z</time>
      </trkpt>
      <trkpt lat="36.8064498901367" lon="-5.15984201431274">
        <ele>653</ele>
        <time>2019-05-11T15:42:28Z</time>
      </trkpt>
      <trkpt lat="36.8064575195312" lon="-5.1598219871521">
        <ele>653</ele>
        <time>2019-05-11T15:42:31Z</time>
      </trkpt>
      <trkpt lat="36.8064651489258" lon="-5.15980005264282">
        <ele>653</ele>
        <time>2019-05-11T15:42:33Z</time>
      </trkpt>
      <trkpt lat="36.8064765930176" lon="-5.15977478027344">
        <ele>653</ele>
        <time>2019-05-11T15:42:35Z</time>
      </trkpt>
      <trkpt lat="36.8064880371094" lon="-5.15975713729858">
        <ele>653</ele>
        <time>2019-05-11T15:42:37Z</time>
      </trkpt>
      <trkpt lat="36.8064956665039" lon="-5.15973806381226">
        <ele>653</ele>
        <time>2019-05-11T15:42:39Z</time>
      </trkpt>
      <trkpt lat="36.8065071105957" lon="-5.1597170829773">
        <ele>654</ele>
        <time>2019-05-11T15:42:41Z</time>
      </trkpt>
      <trkpt lat="36.8065223693848" lon="-5.15969800949097">
        <ele>654</ele>
        <time>2019-05-11T15:42:43Z</time>
      </trkpt>
      <trkpt lat="36.8065376281738" lon="-5.15967988967896">
        <ele>654</ele>
        <time>2019-05-11T15:42:45Z</time>
      </trkpt>
      <trkpt lat="36.8065567016602" lon="-5.15966176986694">
        <ele>655</ele>
        <time>2019-05-11T15:42:47Z</time>
      </trkpt>
      <trkpt lat="36.8065719604492" lon="-5.15964317321777">
        <ele>655</ele>
        <time>2019-05-11T15:42:49Z</time>
      </trkpt>
      <trkpt lat="36.8065910339356" lon="-5.15962505340576">
        <ele>655</ele>
        <time>2019-05-11T15:42:51Z</time>
      </trkpt>
      <trkpt lat="36.8066177368164" lon="-5.1595950126648">
        <ele>655</ele>
        <time>2019-05-11T15:42:53Z</time>
      </trkpt>
      <trkpt lat="36.8066329956055" lon="-5.1595778465271">
        <ele>655</ele>
        <time>2019-05-11T15:42:55Z</time>
      </trkpt>
      <trkpt lat="36.8066520690918" lon="-5.1595630645752">
        <ele>655</ele>
        <time>2019-05-11T15:42:57Z</time>
      </trkpt>
      <trkpt lat="36.8066711425781" lon="-5.15955018997192">
        <ele>655</ele>
        <time>2019-05-11T15:42:59Z</time>
      </trkpt>
      <trkpt lat="36.8066940307617" lon="-5.15953683853149">
        <ele>655</ele>
        <time>2019-05-11T15:43:01Z</time>
      </trkpt>
      <trkpt lat="36.806713104248" lon="-5.15952491760254">
        <ele>655</ele>
        <time>2019-05-11T15:43:03Z</time>
      </trkpt>
      <trkpt lat="36.8067321777344" lon="-5.15951204299927">
        <ele>655</ele>
        <time>2019-05-11T15:43:06Z</time>
      </trkpt>
      <trkpt lat="36.806755065918" lon="-5.15949821472168">
        <ele>655</ele>
        <time>2019-05-11T15:43:08Z</time>
      </trkpt>
      <trkpt lat="36.8067665100098" lon="-5.15948820114136">
        <ele>655</ele>
        <time>2019-05-11T15:43:10Z</time>
      </trkpt>
      <trkpt lat="36.8067741394043" lon="-5.15947484970093">
        <ele>655</ele>
        <time>2019-05-11T15:43:12Z</time>
      </trkpt>
      <trkpt lat="36.8067893981934" lon="-5.15946292877197">
        <ele>655</ele>
        <time>2019-05-11T15:43:14Z</time>
      </trkpt>
      <trkpt lat="36.8068084716797" lon="-5.15945196151733">
        <ele>655</ele>
        <time>2019-05-11T15:43:16Z</time>
      </trkpt>
      <trkpt lat="36.806827545166" lon="-5.15944480895996">
        <ele>655</ele>
        <time>2019-05-11T15:43:18Z</time>
      </trkpt>
      <trkpt lat="36.8068466186523" lon="-5.15943717956543">
        <ele>656</ele>
        <time>2019-05-11T15:43:20Z</time>
      </trkpt>
      <trkpt lat="36.8068695068359" lon="-5.15942811965942">
        <ele>656</ele>
        <time>2019-05-11T15:43:22Z</time>
      </trkpt>
      <trkpt lat="36.8068885803223" lon="-5.15942001342773">
        <ele>656</ele>
        <time>2019-05-11T15:43:24Z</time>
      </trkpt>
      <trkpt lat="36.8069114685059" lon="-5.15941476821899">
        <ele>657</ele>
        <time>2019-05-11T15:43:26Z</time>
      </trkpt>
      <trkpt lat="36.8069305419922" lon="-5.15940713882446">
        <ele>657</ele>
        <time>2019-05-11T15:43:28Z</time>
      </trkpt>
      <trkpt lat="36.8069610595703" lon="-5.15939712524414">
        <ele>658</ele>
        <time>2019-05-11T15:43:30Z</time>
      </trkpt>
      <trkpt lat="36.8069763183594" lon="-5.1593918800354">
        <ele>658</ele>
        <time>2019-05-11T15:43:32Z</time>
      </trkpt>
      <trkpt lat="36.806999206543" lon="-5.1593918800354">
        <ele>659</ele>
        <time>2019-05-11T15:43:34Z</time>
      </trkpt>
      <trkpt lat="36.8070182800293" lon="-5.15938711166382">
        <ele>659</ele>
        <time>2019-05-11T15:43:36Z</time>
      </trkpt>
      <trkpt lat="36.8070373535156" lon="-5.15938520431519">
        <ele>659</ele>
        <time>2019-05-11T15:43:38Z</time>
      </trkpt>
      <trkpt lat="36.807056427002" lon="-5.15938186645508">
        <ele>659</ele>
        <time>2019-05-11T15:43:40Z</time>
      </trkpt>
      <trkpt lat="36.8070793151856" lon="-5.1593770980835">
        <ele>660</ele>
        <time>2019-05-11T15:43:43Z</time>
      </trkpt>
      <trkpt lat="36.8070983886719" lon="-5.15937519073486">
        <ele>660</ele>
        <time>2019-05-11T15:43:45Z</time>
      </trkpt>
      <trkpt lat="36.8071212768555" lon="-5.15936994552612">
        <ele>660</ele>
        <time>2019-05-11T15:43:47Z</time>
      </trkpt>
      <trkpt lat="36.8071403503418" lon="-5.15936517715454">
        <ele>660</ele>
        <time>2019-05-11T15:43:49Z</time>
      </trkpt>
      <trkpt lat="36.8071632385254" lon="-5.15936183929443">
        <ele>661</ele>
        <time>2019-05-11T15:43:51Z</time>
      </trkpt>
      <trkpt lat="36.8071823120117" lon="-5.1593599319458">
        <ele>661</ele>
        <time>2019-05-11T15:43:53Z</time>
      </trkpt>
      <trkpt lat="36.8072052001953" lon="-5.15935707092285">
        <ele>661</ele>
        <time>2019-05-11T15:43:55Z</time>
      </trkpt>
      <trkpt lat="36.8072242736816" lon="-5.15935277938843">
        <ele>662</ele>
        <time>2019-05-11T15:43:57Z</time>
      </trkpt>
      <trkpt lat="36.8072471618652" lon="-5.15934801101685">
        <ele>662</ele>
        <time>2019-05-11T15:43:59Z</time>
      </trkpt>
      <trkpt lat="36.8072738647461" lon="-5.15934276580811">
        <ele>662</ele>
        <time>2019-05-11T15:44:01Z</time>
      </trkpt>
      <trkpt lat="36.8072967529297" lon="-5.15933799743652">
        <ele>663</ele>
        <time>2019-05-11T15:44:03Z</time>
      </trkpt>
      <trkpt lat="36.8073272705078" lon="-5.1593279838562">
        <ele>663</ele>
        <time>2019-05-11T15:44:05Z</time>
      </trkpt>
      <trkpt lat="36.8073501586914" lon="-5.15932321548462">
        <ele>663</ele>
        <time>2019-05-11T15:44:07Z</time>
      </trkpt>
      <trkpt lat="36.807373046875" lon="-5.15931987762451">
        <ele>664</ele>
        <time>2019-05-11T15:44:09Z</time>
      </trkpt>
      <trkpt lat="36.8073921203613" lon="-5.15931797027588">
        <ele>664</ele>
        <time>2019-05-11T15:44:11Z</time>
      </trkpt>
      <trkpt lat="36.8074111938477" lon="-5.15931510925293">
        <ele>664</ele>
        <time>2019-05-11T15:44:13Z</time>
      </trkpt>
      <trkpt lat="36.8074264526367" lon="-5.15930986404419">
        <ele>665</ele>
        <time>2019-05-11T15:44:15Z</time>
      </trkpt>
      <trkpt lat="36.8074531555176" lon="-5.15930318832397">
        <ele>665</ele>
        <time>2019-05-11T15:44:18Z</time>
      </trkpt>
      <trkpt lat="36.8074722290039" lon="-5.15929698944092">
        <ele>665</ele>
        <time>2019-05-11T15:44:20Z</time>
      </trkpt>
      <trkpt lat="36.8074989318848" lon="-5.15929222106934">
        <ele>665</ele>
        <time>2019-05-11T15:44:22Z</time>
      </trkpt>
      <trkpt lat="36.8075218200684" lon="-5.15928983688354">
        <ele>665</ele>
        <time>2019-05-11T15:44:24Z</time>
      </trkpt>
      <trkpt lat="36.8075561523438" lon="-5.1592869758606">
        <ele>666</ele>
        <time>2019-05-11T15:44:26Z</time>
      </trkpt>
      <trkpt lat="36.8075828552246" lon="-5.1592869758606">
        <ele>666</ele>
        <time>2019-05-11T15:44:28Z</time>
      </trkpt>
      <trkpt lat="36.8076057434082" lon="-5.15927982330322">
        <ele>666</ele>
        <time>2019-05-11T15:44:30Z</time>
      </trkpt>
      <trkpt lat="36.8076286315918" lon="-5.15928220748901">
        <ele>666</ele>
        <time>2019-05-11T15:44:32Z</time>
      </trkpt>
      <trkpt lat="36.8076515197754" lon="-5.15928506851196">
        <ele>667</ele>
        <time>2019-05-11T15:44:34Z</time>
      </trkpt>
      <trkpt lat="36.8076705932617" lon="-5.15928316116333">
        <ele>667</ele>
        <time>2019-05-11T15:44:36Z</time>
      </trkpt>
      <trkpt lat="36.8076934814453" lon="-5.15927982330322">
        <ele>667</ele>
        <time>2019-05-11T15:44:38Z</time>
      </trkpt>
      <trkpt lat="36.8077201843262" lon="-5.15927696228027">
        <ele>667</ele>
        <time>2019-05-11T15:44:40Z</time>
      </trkpt>
      <trkpt lat="36.8077545166016" lon="-5.1592698097229">
        <ele>667</ele>
        <time>2019-05-11T15:44:42Z</time>
      </trkpt>
      <trkpt lat="36.8077774047852" lon="-5.1592698097229">
        <ele>667</ele>
        <time>2019-05-11T15:44:44Z</time>
      </trkpt>
      <trkpt lat="36.807804107666" lon="-5.15926313400269">
        <ele>668</ele>
        <time>2019-05-11T15:44:46Z</time>
      </trkpt>
      <trkpt lat="36.8078269958496" lon="-5.15925693511963">
        <ele>668</ele>
        <time>2019-05-11T15:44:48Z</time>
      </trkpt>
      <trkpt lat="36.8078498840332" lon="-5.15925216674805">
        <ele>668</ele>
        <time>2019-05-11T15:44:50Z</time>
      </trkpt>
      <trkpt lat="36.8078727722168" lon="-5.15924310684204">
        <ele>668</ele>
        <time>2019-05-11T15:44:52Z</time>
      </trkpt>
      <trkpt lat="36.8078918457031" lon="-5.15923309326172">
        <ele>668</ele>
        <time>2019-05-11T15:44:55Z</time>
      </trkpt>
      <trkpt lat="36.8079147338867" lon="-5.15922212600708">
        <ele>668</ele>
        <time>2019-05-11T15:44:57Z</time>
      </trkpt>
      <trkpt lat="36.8079376220703" lon="-5.15920686721802">
        <ele>669</ele>
        <time>2019-05-11T15:44:59Z</time>
      </trkpt>
      <trkpt lat="36.8079605102539" lon="-5.15919780731201">
        <ele>669</ele>
        <time>2019-05-11T15:45:01Z</time>
      </trkpt>
      <trkpt lat="36.8079795837402" lon="-5.15918493270874">
        <ele>669</ele>
        <time>2019-05-11T15:45:03Z</time>
      </trkpt>
      <trkpt lat="36.8079986572266" lon="-5.15917491912842">
        <ele>669</ele>
        <time>2019-05-11T15:45:05Z</time>
      </trkpt>
      <trkpt lat="36.8080177307129" lon="-5.15916013717651">
        <ele>669</ele>
        <time>2019-05-11T15:45:07Z</time>
      </trkpt>
      <trkpt lat="36.8080368041992" lon="-5.15914487838745">
        <ele>669</ele>
        <time>2019-05-11T15:45:09Z</time>
      </trkpt>
      <trkpt lat="36.8080558776856" lon="-5.15912818908691">
        <ele>669</ele>
        <time>2019-05-11T15:45:11Z</time>
      </trkpt>
      <trkpt lat="36.8080711364746" lon="-5.15910816192627">
        <ele>669</ele>
        <time>2019-05-11T15:45:13Z</time>
      </trkpt>
      <trkpt lat="36.8080863952637" lon="-5.15909194946289">
        <ele>669</ele>
        <time>2019-05-11T15:45:15Z</time>
      </trkpt>
      <trkpt lat="36.8081169128418" lon="-5.15906810760498">
        <ele>669</ele>
        <time>2019-05-11T15:45:17Z</time>
      </trkpt>
      <trkpt lat="36.8081398010254" lon="-5.15905284881592">
        <ele>670</ele>
        <time>2019-05-11T15:45:19Z</time>
      </trkpt>
      <trkpt lat="36.808162689209" lon="-5.15903806686401">
        <ele>670</ele>
        <time>2019-05-11T15:45:21Z</time>
      </trkpt>
      <trkpt lat="36.8081817626953" lon="-5.15902185440064">
        <ele>671</ele>
        <time>2019-05-11T15:45:23Z</time>
      </trkpt>
      <trkpt lat="36.8082046508789" lon="-5.15901184082031">
        <ele>671</ele>
        <time>2019-05-11T15:45:25Z</time>
      </trkpt>
      <trkpt lat="36.8082275390625" lon="-5.15899991989136">
        <ele>672</ele>
        <time>2019-05-11T15:45:27Z</time>
      </trkpt>
      <trkpt lat="36.8082504272461" lon="-5.1589879989624">
        <ele>672</ele>
        <time>2019-05-11T15:45:30Z</time>
      </trkpt>
      <trkpt lat="36.8082733154297" lon="-5.15897798538208">
        <ele>672</ele>
        <time>2019-05-11T15:45:32Z</time>
      </trkpt>
      <trkpt lat="36.808292388916" lon="-5.15896511077881">
        <ele>672</ele>
        <time>2019-05-11T15:45:34Z</time>
      </trkpt>
      <trkpt lat="36.8083114624023" lon="-5.15895318984985">
        <ele>672</ele>
        <time>2019-05-11T15:45:36Z</time>
      </trkpt>
      <trkpt lat="36.8083381652832" lon="-5.15894317626953">
        <ele>672</ele>
        <time>2019-05-11T15:45:38Z</time>
      </trkpt>
      <trkpt lat="36.8083572387695" lon="-5.15893507003784">
        <ele>672</ele>
        <time>2019-05-11T15:45:40Z</time>
      </trkpt>
      <trkpt lat="36.8083801269531" lon="-5.1589298248291">
        <ele>672</ele>
        <time>2019-05-11T15:45:42Z</time>
      </trkpt>
      <trkpt lat="36.8084030151367" lon="-5.15893220901489">
        <ele>672</ele>
        <time>2019-05-11T15:45:44Z</time>
      </trkpt>
      <trkpt lat="36.808422088623" lon="-5.15893793106079">
        <ele>672</ele>
        <time>2019-05-11T15:45:46Z</time>
      </trkpt>
      <trkpt lat="36.8084373474121" lon="-5.15894985198975">
        <ele>672</ele>
        <time>2019-05-11T15:45:48Z</time>
      </trkpt>
      <trkpt lat="36.8084487915039" lon="-5.15896701812744">
        <ele>672</ele>
        <time>2019-05-11T15:45:50Z</time>
      </trkpt>
      <trkpt lat="36.8084564208984" lon="-5.15899515151978">
        <ele>672</ele>
        <time>2019-05-11T15:45:52Z</time>
      </trkpt>
      <trkpt lat="36.8084564208984" lon="-5.15901279449463">
        <ele>673</ele>
        <time>2019-05-11T15:45:54Z</time>
      </trkpt>
      <trkpt lat="36.8084526062012" lon="-5.15903520584106">
        <ele>674</ele>
        <time>2019-05-11T15:45:56Z</time>
      </trkpt>
      <trkpt lat="36.8084487915039" lon="-5.15905809402466">
        <ele>675</ele>
        <time>2019-05-11T15:45:58Z</time>
      </trkpt>
      <trkpt lat="36.8084335327148" lon="-5.15907716751099">
        <ele>676</ele>
        <time>2019-05-11T15:46:00Z</time>
      </trkpt>
      <trkpt lat="36.808422088623" lon="-5.15909814834595">
        <ele>677</ele>
        <time>2019-05-11T15:46:02Z</time>
      </trkpt>
      <trkpt lat="36.808406829834" lon="-5.15911817550659">
        <ele>678</ele>
        <time>2019-05-11T15:46:05Z</time>
      </trkpt>
      <trkpt lat="36.8083915710449" lon="-5.15913677215576">
        <ele>678</ele>
        <time>2019-05-11T15:46:07Z</time>
      </trkpt>
      <trkpt lat="36.8083763122559" lon="-5.15915489196777">
        <ele>679</ele>
        <time>2019-05-11T15:46:09Z</time>
      </trkpt>
      <trkpt lat="36.8083572387695" lon="-5.15917205810547">
        <ele>680</ele>
        <time>2019-05-11T15:46:11Z</time>
      </trkpt>
      <trkpt lat="36.8083381652832" lon="-5.15919017791748">
        <ele>680</ele>
        <time>2019-05-11T15:46:13Z</time>
      </trkpt>
      <trkpt lat="36.8083229064941" lon="-5.15921211242676">
        <ele>680</ele>
        <time>2019-05-11T15:46:15Z</time>
      </trkpt>
      <trkpt lat="36.8083038330078" lon="-5.15923023223877">
        <ele>681</ele>
        <time>2019-05-11T15:46:17Z</time>
      </trkpt>
      <trkpt lat="36.8082847595215" lon="-5.15924978256226">
        <ele>681</ele>
        <time>2019-05-11T15:46:19Z</time>
      </trkpt>
      <trkpt lat="36.8082695007324" lon="-5.1592698097229">
        <ele>681</ele>
        <time>2019-05-11T15:46:21Z</time>
      </trkpt>
      <trkpt lat="36.8082504272461" lon="-5.15928792953491">
        <ele>681</ele>
        <time>2019-05-11T15:46:23Z</time>
      </trkpt>
      <trkpt lat="36.8082313537598" lon="-5.15930700302124">
        <ele>681</ele>
        <time>2019-05-11T15:46:25Z</time>
      </trkpt>
      <trkpt lat="36.8082084655762" lon="-5.15933704376221">
        <ele>681</ele>
        <time>2019-05-11T15:46:27Z</time>
      </trkpt>
      <trkpt lat="36.8081893920898" lon="-5.15935707092285">
        <ele>681</ele>
        <time>2019-05-11T15:46:29Z</time>
      </trkpt>
      <trkpt lat="36.8081665039062" lon="-5.1593770980835">
        <ele>682</ele>
        <time>2019-05-11T15:46:31Z</time>
      </trkpt>
      <trkpt lat="36.8081474304199" lon="-5.15939712524414">
        <ele>682</ele>
        <time>2019-05-11T15:46:33Z</time>
      </trkpt>
      <trkpt lat="36.8081283569336" lon="-5.1594181060791">
        <ele>682</ele>
        <time>2019-05-11T15:46:35Z</time>
      </trkpt>
      <trkpt lat="36.80810546875" lon="-5.15943813323975">
        <ele>682</ele>
        <time>2019-05-11T15:46:37Z</time>
      </trkpt>
      <trkpt lat="36.8080863952637" lon="-5.15945816040039">
        <ele>682</ele>
        <time>2019-05-11T15:46:40Z</time>
      </trkpt>
      <trkpt lat="36.8080635070801" lon="-5.15947818756104">
        <ele>682</ele>
        <time>2019-05-11T15:46:42Z</time>
      </trkpt>
      <trkpt lat="36.8080444335938" lon="-5.15949821472168">
        <ele>682</ele>
        <time>2019-05-11T15:46:44Z</time>
      </trkpt>
      <trkpt lat="36.8080215454102" lon="-5.15951681137085">
        <ele>682</ele>
        <time>2019-05-11T15:46:46Z</time>
      </trkpt>
      <trkpt lat="36.8080024719238" lon="-5.15953493118286">
        <ele>682</ele>
        <time>2019-05-11T15:46:48Z</time>
      </trkpt>
      <trkpt lat="36.8079833984375" lon="-5.15955305099487">
        <ele>682</ele>
        <time>2019-05-11T15:46:50Z</time>
      </trkpt>
      <trkpt lat="36.8079605102539" lon="-5.1595721244812">
        <ele>682</ele>
        <time>2019-05-11T15:46:52Z</time>
      </trkpt>
      <trkpt lat="36.8079414367676" lon="-5.15958786010742">
        <ele>682</ele>
        <time>2019-05-11T15:46:54Z</time>
      </trkpt>
      <trkpt lat="36.8079223632812" lon="-5.15960502624512">
        <ele>682</ele>
        <time>2019-05-11T15:46:56Z</time>
      </trkpt>
      <trkpt lat="36.8079032897949" lon="-5.15962314605713">
        <ele>682</ele>
        <time>2019-05-11T15:46:58Z</time>
      </trkpt>
      <trkpt lat="36.8078804016113" lon="-5.15964221954346">
        <ele>682</ele>
        <time>2019-05-11T15:47:00Z</time>
      </trkpt>
      <trkpt lat="36.8078575134277" lon="-5.15965700149536">
        <ele>682</ele>
        <time>2019-05-11T15:47:02Z</time>
      </trkpt>
      <trkpt lat="36.8078269958496" lon="-5.15967798233032">
        <ele>682</ele>
        <time>2019-05-11T15:47:04Z</time>
      </trkpt>
      <trkpt lat="36.8078117370606" lon="-5.15968799591064">
        <ele>682</ele>
        <time>2019-05-11T15:47:06Z</time>
      </trkpt>
      <trkpt lat="36.8077926635742" lon="-5.15970277786255">
        <ele>682</ele>
        <time>2019-05-11T15:47:08Z</time>
      </trkpt>
      <trkpt lat="36.8077697753906" lon="-5.15971803665161">
        <ele>682</ele>
        <time>2019-05-11T15:47:10Z</time>
      </trkpt>
      <trkpt lat="36.807746887207" lon="-5.15973281860352">
        <ele>682</ele>
        <time>2019-05-11T15:47:12Z</time>
      </trkpt>
      <trkpt lat="36.8077239990234" lon="-5.15974998474121">
        <ele>682</ele>
        <time>2019-05-11T15:47:14Z</time>
      </trkpt>
      <trkpt lat="36.8077011108398" lon="-5.15976715087891">
        <ele>682</ele>
        <time>2019-05-11T15:47:17Z</time>
      </trkpt>
      <trkpt lat="36.8076782226562" lon="-5.15978288650513">
        <ele>682</ele>
        <time>2019-05-11T15:47:19Z</time>
      </trkpt>
      <trkpt lat="36.8076553344727" lon="-5.15980195999146">
        <ele>683</ele>
        <time>2019-05-11T15:47:21Z</time>
      </trkpt>
      <trkpt lat="36.8076324462891" lon="-5.15981817245483">
        <ele>683</ele>
        <time>2019-05-11T15:47:23Z</time>
      </trkpt>
      <trkpt lat="36.8076133728027" lon="-5.15983486175537">
        <ele>683</ele>
        <time>2019-05-11T15:47:25Z</time>
      </trkpt>
      <trkpt lat="36.8075942993164" lon="-5.15985488891602">
        <ele>683</ele>
        <time>2019-05-11T15:47:27Z</time>
      </trkpt>
      <trkpt lat="36.8075752258301" lon="-5.15987205505371">
        <ele>683</ele>
        <time>2019-05-11T15:47:29Z</time>
      </trkpt>
      <trkpt lat="36.8075637817383" lon="-5.15988779067993">
        <ele>683</ele>
        <time>2019-05-11T15:47:31Z</time>
      </trkpt>
      <trkpt lat="36.807544708252" lon="-5.15990686416626">
        <ele>683</ele>
        <time>2019-05-11T15:47:33Z</time>
      </trkpt>
      <trkpt lat="36.8075332641602" lon="-5.15992307662964">
        <ele>683</ele>
        <time>2019-05-11T15:47:35Z</time>
      </trkpt>
      <trkpt lat="36.8075218200684" lon="-5.15994310379028">
        <ele>683</ele>
        <time>2019-05-11T15:47:37Z</time>
      </trkpt>
      <trkpt lat="36.807502746582" lon="-5.15997982025146">
        <ele>683</ele>
        <time>2019-05-11T15:47:39Z</time>
      </trkpt>
      <trkpt lat="36.8074836730957" lon="-5.16000699996948">
        <ele>683</ele>
        <time>2019-05-11T15:47:41Z</time>
      </trkpt>
      <trkpt lat="36.8074760437012" lon="-5.16003799438477">
        <ele>683</ele>
        <time>2019-05-11T15:47:43Z</time>
      </trkpt>
      <trkpt lat="36.8074684143066" lon="-5.16006803512573">
        <ele>683</ele>
        <time>2019-05-11T15:47:45Z</time>
      </trkpt>
      <trkpt lat="36.8074607849121" lon="-5.1600980758667">
        <ele>683</ele>
        <time>2019-05-11T15:47:47Z</time>
      </trkpt>
      <trkpt lat="36.8074569702148" lon="-5.16013193130493">
        <ele>683</ele>
        <time>2019-05-11T15:47:49Z</time>
      </trkpt>
      <trkpt lat="36.8074531555176" lon="-5.16016483306885">
        <ele>683</ele>
        <time>2019-05-11T15:47:52Z</time>
      </trkpt>
      <trkpt lat="36.8074531555176" lon="-5.16019678115845">
        <ele>683</ele>
        <time>2019-05-11T15:47:54Z</time>
      </trkpt>
      <trkpt lat="36.8074493408203" lon="-5.16022777557373">
        <ele>683</ele>
        <time>2019-05-11T15:47:56Z</time>
      </trkpt>
      <trkpt lat="36.8074493408203" lon="-5.16026020050049">
        <ele>683</ele>
        <time>2019-05-11T15:47:58Z</time>
      </trkpt>
      <trkpt lat="36.8074493408203" lon="-5.1602897644043">
        <ele>683</ele>
        <time>2019-05-11T15:48:00Z</time>
      </trkpt>
      <trkpt lat="36.8074569702148" lon="-5.16031503677368">
        <ele>683</ele>
        <time>2019-05-11T15:48:02Z</time>
      </trkpt>
      <trkpt lat="36.8074684143066" lon="-5.1603422164917">
        <ele>683</ele>
        <time>2019-05-11T15:48:04Z</time>
      </trkpt>
      <trkpt lat="36.8074760437012" lon="-5.16036987304688">
        <ele>683</ele>
        <time>2019-05-11T15:48:06Z</time>
      </trkpt>
      <trkpt lat="36.807487487793" lon="-5.16039323806763">
        <ele>683</ele>
        <time>2019-05-11T15:48:08Z</time>
      </trkpt>
      <trkpt lat="36.807502746582" lon="-5.16041278839111">
        <ele>683</ele>
        <time>2019-05-11T15:48:10Z</time>
      </trkpt>
      <trkpt lat="36.8075180053711" lon="-5.16043519973755">
        <ele>683</ele>
        <time>2019-05-11T15:48:12Z</time>
      </trkpt>
      <trkpt lat="36.8075332641602" lon="-5.1604528427124">
        <ele>683</ele>
        <time>2019-05-11T15:48:14Z</time>
      </trkpt>
      <trkpt lat="36.8075561523438" lon="-5.16047811508179">
        <ele>683</ele>
        <time>2019-05-11T15:48:16Z</time>
      </trkpt>
      <trkpt lat="36.8075714111328" lon="-5.16049480438232">
        <ele>683</ele>
        <time>2019-05-11T15:48:18Z</time>
      </trkpt>
      <trkpt lat="36.8075904846191" lon="-5.16051292419434">
        <ele>683</ele>
        <time>2019-05-11T15:48:20Z</time>
      </trkpt>
      <trkpt lat="36.8076057434082" lon="-5.16053009033203">
        <ele>683</ele>
        <time>2019-05-11T15:48:22Z</time>
      </trkpt>
      <trkpt lat="36.8076248168945" lon="-5.16054487228394">
        <ele>683</ele>
        <time>2019-05-11T15:48:24Z</time>
      </trkpt>
      <trkpt lat="36.8076438903809" lon="-5.16056203842163">
        <ele>684</ele>
        <time>2019-05-11T15:48:26Z</time>
      </trkpt>
      <trkpt lat="36.8076591491699" lon="-5.16057682037354">
        <ele>684</ele>
        <time>2019-05-11T15:48:29Z</time>
      </trkpt>
      <trkpt lat="36.8076782226562" lon="-5.16058778762817">
        <ele>684</ele>
        <time>2019-05-11T15:48:31Z</time>
      </trkpt>
      <trkpt lat="36.8076934814453" lon="-5.16060018539429">
        <ele>684</ele>
        <time>2019-05-11T15:48:33Z</time>
      </trkpt>
      <trkpt lat="36.8077125549316" lon="-5.16061210632324">
        <ele>685</ele>
        <time>2019-05-11T15:48:35Z</time>
      </trkpt>
      <trkpt lat="36.807731628418" lon="-5.16061210632324">
        <ele>685</ele>
        <time>2019-05-11T15:48:37Z</time>
      </trkpt>
      <trkpt lat="36.8077507019043" lon="-5.16060781478882">
        <ele>685</ele>
        <time>2019-05-11T15:48:39Z</time>
      </trkpt>
      <trkpt lat="36.8077697753906" lon="-5.16061687469482">
        <ele>685</ele>
        <time>2019-05-11T15:48:41Z</time>
      </trkpt>
      <trkpt lat="36.807788848877" lon="-5.16062307357788">
        <ele>685</ele>
        <time>2019-05-11T15:48:43Z</time>
      </trkpt>
      <trkpt lat="36.8078079223633" lon="-5.16062688827515">
        <ele>685</ele>
        <time>2019-05-11T15:48:45Z</time>
      </trkpt>
      <trkpt lat="36.8078308105469" lon="-5.16063022613525">
        <ele>685</ele>
        <time>2019-05-11T15:48:47Z</time>
      </trkpt>
      <trkpt lat="36.8078536987305" lon="-5.1606330871582">
        <ele>685</ele>
        <time>2019-05-11T15:48:49Z</time>
      </trkpt>
      <trkpt lat="36.8078765869141" lon="-5.16063690185547">
        <ele>686</ele>
        <time>2019-05-11T15:48:51Z</time>
      </trkpt>
      <trkpt lat="36.8079071044922" lon="-5.16063785552978">
        <ele>686</ele>
        <time>2019-05-11T15:48:53Z</time>
      </trkpt>
      <trkpt lat="36.8079299926758" lon="-5.16063785552978">
        <ele>686</ele>
        <time>2019-05-11T15:48:55Z</time>
      </trkpt>
      <trkpt lat="36.8079528808594" lon="-5.16063976287842">
        <ele>687</ele>
        <time>2019-05-11T15:48:57Z</time>
      </trkpt>
      <trkpt lat="36.8079681396484" lon="-5.16064214706421">
        <ele>687</ele>
        <time>2019-05-11T15:48:59Z</time>
      </trkpt>
      <trkpt lat="36.8079872131348" lon="-5.16063976287842">
        <ele>688</ele>
        <time>2019-05-11T15:49:01Z</time>
      </trkpt>
      <trkpt lat="36.8080062866211" lon="-5.16063976287842">
        <ele>688</ele>
        <time>2019-05-11T15:49:03Z</time>
      </trkpt>
      <trkpt lat="36.8080253601074" lon="-5.16063976287842">
        <ele>688</ele>
        <time>2019-05-11T15:49:05Z</time>
      </trkpt>
      <trkpt lat="36.8080444335938" lon="-5.16064214706421">
        <ele>688</ele>
        <time>2019-05-11T15:49:08Z</time>
      </trkpt>
      <trkpt lat="36.8080635070801" lon="-5.16063976287842">
        <ele>688</ele>
        <time>2019-05-11T15:49:10Z</time>
      </trkpt>
      <trkpt lat="36.8080825805664" lon="-5.16063785552978">
        <ele>689</ele>
        <time>2019-05-11T15:49:12Z</time>
      </trkpt>
      <trkpt lat="36.8080978393555" lon="-5.16063690185547">
        <ele>689</ele>
        <time>2019-05-11T15:49:14Z</time>
      </trkpt>
      <trkpt lat="36.8081130981445" lon="-5.16063785552978">
        <ele>689</ele>
        <time>2019-05-11T15:49:16Z</time>
      </trkpt>
      <trkpt lat="36.8081321716309" lon="-5.16063690185547">
        <ele>690</ele>
        <time>2019-05-11T15:49:18Z</time>
      </trkpt>
      <trkpt lat="36.8081512451172" lon="-5.1606330871582">
        <ele>690</ele>
        <time>2019-05-11T15:49:20Z</time>
      </trkpt>
      <trkpt lat="36.8081665039062" lon="-5.16063499450684">
        <ele>690</ele>
        <time>2019-05-11T15:49:22Z</time>
      </trkpt>
      <trkpt lat="36.8081855773926" lon="-5.16063690185547">
        <ele>691</ele>
        <time>2019-05-11T15:49:24Z</time>
      </trkpt>
      <trkpt lat="36.8082008361816" lon="-5.16063785552978">
        <ele>691</ele>
        <time>2019-05-11T15:49:26Z</time>
      </trkpt>
      <trkpt lat="36.808219909668" lon="-5.16063785552978">
        <ele>691</ele>
        <time>2019-05-11T15:49:28Z</time>
      </trkpt>
      <trkpt lat="36.808235168457" lon="-5.16063785552978">
        <ele>692</ele>
        <time>2019-05-11T15:49:30Z</time>
      </trkpt>
      <trkpt lat="36.8082580566406" lon="-5.16063690185547">
        <ele>692</ele>
        <time>2019-05-11T15:49:32Z</time>
      </trkpt>
      <trkpt lat="36.8082885742188" lon="-5.16063976287842">
        <ele>692</ele>
        <time>2019-05-11T15:49:34Z</time>
      </trkpt>
      <trkpt lat="36.8083076477051" lon="-5.16064214706421">
        <ele>692</ele>
        <time>2019-05-11T15:49:36Z</time>
      </trkpt>
      <trkpt lat="36.8083229064941" lon="-5.16064310073853">
        <ele>692</ele>
        <time>2019-05-11T15:49:38Z</time>
      </trkpt>
      <trkpt lat="36.8083457946777" lon="-5.16064500808716">
        <ele>693</ele>
        <time>2019-05-11T15:49:40Z</time>
      </trkpt>
      <trkpt lat="36.8083648681641" lon="-5.16064786911011">
        <ele>693</ele>
        <time>2019-05-11T15:49:42Z</time>
      </trkpt>
      <trkpt lat="36.8083801269531" lon="-5.16065216064453">
        <ele>693</ele>
        <time>2019-05-11T15:49:44Z</time>
      </trkpt>
      <trkpt lat="36.8083992004394" lon="-5.16065502166748">
        <ele>693</ele>
        <time>2019-05-11T15:49:46Z</time>
      </trkpt>
      <trkpt lat="36.8084182739258" lon="-5.16065502166748">
        <ele>693</ele>
        <time>2019-05-11T15:49:48Z</time>
      </trkpt>
      <trkpt lat="36.8084373474121" lon="-5.16065979003906">
        <ele>693</ele>
        <time>2019-05-11T15:49:51Z</time>
      </trkpt>
      <trkpt lat="36.8084564208984" lon="-5.16066312789917">
        <ele>694</ele>
        <time>2019-05-11T15:49:53Z</time>
      </trkpt>
      <trkpt lat="36.8084716796875" lon="-5.16066789627075">
        <ele>694</ele>
        <time>2019-05-11T15:49:55Z</time>
      </trkpt>
      <trkpt lat="36.8084907531738" lon="-5.16067790985107">
        <ele>694</ele>
        <time>2019-05-11T15:49:57Z</time>
      </trkpt>
      <trkpt lat="36.8085098266602" lon="-5.16068315505981">
        <ele>695</ele>
        <time>2019-05-11T15:49:59Z</time>
      </trkpt>
      <trkpt lat="36.8085289001465" lon="-5.16068696975708">
        <ele>695</ele>
        <time>2019-05-11T15:50:01Z</time>
      </trkpt>
      <trkpt lat="36.8085441589356" lon="-5.16069221496582">
        <ele>695</ele>
        <time>2019-05-11T15:50:03Z</time>
      </trkpt>
      <trkpt lat="36.8085632324219" lon="-5.1606969833374">
        <ele>695</ele>
        <time>2019-05-11T15:50:05Z</time>
      </trkpt>
      <trkpt lat="36.8085823059082" lon="-5.16069984436035">
        <ele>695</ele>
        <time>2019-05-11T15:50:07Z</time>
      </trkpt>
      <trkpt lat="36.8086013793945" lon="-5.16070699691772">
        <ele>696</ele>
        <time>2019-05-11T15:50:09Z</time>
      </trkpt>
      <trkpt lat="36.8086166381836" lon="-5.16071510314941">
        <ele>696</ele>
        <time>2019-05-11T15:50:11Z</time>
      </trkpt>
      <trkpt lat="36.8086471557617" lon="-5.16072511672974">
        <ele>696</ele>
        <time>2019-05-11T15:50:13Z</time>
      </trkpt>
      <trkpt lat="36.8086624145508" lon="-5.16073179244995">
        <ele>696</ele>
        <time>2019-05-11T15:50:15Z</time>
      </trkpt>
      <trkpt lat="36.8086814880371" lon="-5.16073799133301">
        <ele>696</ele>
        <time>2019-05-11T15:50:17Z</time>
      </trkpt>
      <trkpt lat="36.8086967468262" lon="-5.16074323654175">
        <ele>697</ele>
        <time>2019-05-11T15:50:19Z</time>
      </trkpt>
      <trkpt lat="36.8087158203125" lon="-5.16074705123901">
        <ele>697</ele>
        <time>2019-05-11T15:50:21Z</time>
      </trkpt>
      <trkpt lat="36.8087348937988" lon="-5.16074800491333">
        <ele>698</ele>
        <time>2019-05-11T15:50:24Z</time>
      </trkpt>
      <trkpt lat="36.8087539672852" lon="-5.1607551574707">
        <ele>698</ele>
        <time>2019-05-11T15:50:26Z</time>
      </trkpt>
      <trkpt lat="36.8087730407715" lon="-5.16075801849365">
        <ele>699</ele>
        <time>2019-05-11T15:50:28Z</time>
      </trkpt>
      <trkpt lat="36.8087882995606" lon="-5.16075801849365">
        <ele>699</ele>
        <time>2019-05-11T15:50:30Z</time>
      </trkpt>
      <trkpt lat="36.8088073730469" lon="-5.16076517105103">
        <ele>700</ele>
        <time>2019-05-11T15:50:32Z</time>
      </trkpt>
      <trkpt lat="36.8088226318359" lon="-5.16077280044556">
        <ele>700</ele>
        <time>2019-05-11T15:50:34Z</time>
      </trkpt>
      <trkpt lat="36.8088417053223" lon="-5.16078186035156">
        <ele>700</ele>
        <time>2019-05-11T15:50:36Z</time>
      </trkpt>
      <trkpt lat="36.8088607788086" lon="-5.16078805923462">
        <ele>701</ele>
        <time>2019-05-11T15:50:38Z</time>
      </trkpt>
      <trkpt lat="36.8088760375977" lon="-5.16079711914062">
        <ele>701</ele>
        <time>2019-05-11T15:50:40Z</time>
      </trkpt>
      <trkpt lat="36.808895111084" lon="-5.16080522537231">
        <ele>701</ele>
        <time>2019-05-11T15:50:42Z</time>
      </trkpt>
      <trkpt lat="36.8089141845703" lon="-5.16081285476685">
        <ele>702</ele>
        <time>2019-05-11T15:50:44Z</time>
      </trkpt>
      <trkpt lat="36.8089332580566" lon="-5.16081809997559">
        <ele>702</ele>
        <time>2019-05-11T15:50:46Z</time>
      </trkpt>
      <trkpt lat="36.8089485168457" lon="-5.16082715988159">
        <ele>702</ele>
        <time>2019-05-11T15:50:48Z</time>
      </trkpt>
      <trkpt lat="36.8089714050293" lon="-5.16084003448486">
        <ele>702</ele>
        <time>2019-05-11T15:50:50Z</time>
      </trkpt>
      <trkpt lat="36.8089866638184" lon="-5.16084814071655">
        <ele>703</ele>
        <time>2019-05-11T15:50:52Z</time>
      </trkpt>
      <trkpt lat="36.8090019226074" lon="-5.16085481643677">
        <ele>703</ele>
        <time>2019-05-11T15:50:54Z</time>
      </trkpt>
      <trkpt lat="36.8090209960938" lon="-5.16086483001709">
        <ele>703</ele>
        <time>2019-05-11T15:50:56Z</time>
      </trkpt>
      <trkpt lat="36.8090362548828" lon="-5.16087818145752">
        <ele>703</ele>
        <time>2019-05-11T15:50:58Z</time>
      </trkpt>
      <trkpt lat="36.8090515136719" lon="-5.16089200973511">
        <ele>704</ele>
        <time>2019-05-11T15:51:01Z</time>
      </trkpt>
      <trkpt lat="36.8090705871582" lon="-5.1609001159668">
        <ele>704</ele>
        <time>2019-05-11T15:51:03Z</time>
      </trkpt>
      <trkpt lat="36.8090896606445" lon="-5.16091203689575">
        <ele>704</ele>
        <time>2019-05-11T15:51:05Z</time>
      </trkpt>
      <trkpt lat="36.8091049194336" lon="-5.16092205047607">
        <ele>704</ele>
        <time>2019-05-11T15:51:07Z</time>
      </trkpt>
      <trkpt lat="36.8091201782227" lon="-5.1609320640564">
        <ele>705</ele>
        <time>2019-05-11T15:51:09Z</time>
      </trkpt>
      <trkpt lat="36.809139251709" lon="-5.16094303131104">
        <ele>705</ele>
        <time>2019-05-11T15:51:11Z</time>
      </trkpt>
      <trkpt lat="36.809154510498" lon="-5.16095304489136">
        <ele>705</ele>
        <time>2019-05-11T15:51:13Z</time>
      </trkpt>
      <trkpt lat="36.8091697692871" lon="-5.16096496582031">
        <ele>705</ele>
        <time>2019-05-11T15:51:15Z</time>
      </trkpt>
      <trkpt lat="36.8091888427734" lon="-5.16097497940064">
        <ele>706</ele>
        <time>2019-05-11T15:51:17Z</time>
      </trkpt>
      <trkpt lat="36.8092041015625" lon="-5.16098499298096">
        <ele>706</ele>
        <time>2019-05-11T15:51:19Z</time>
      </trkpt>
      <trkpt lat="36.8092155456543" lon="-5.16099500656128">
        <ele>706</ele>
        <time>2019-05-11T15:51:21Z</time>
      </trkpt>
      <trkpt lat="36.8092346191406" lon="-5.16100692749023">
        <ele>706</ele>
        <time>2019-05-11T15:51:23Z</time>
      </trkpt>
      <trkpt lat="36.8092613220215" lon="-5.16101980209351">
        <ele>706</ele>
        <time>2019-05-11T15:51:25Z</time>
      </trkpt>
      <trkpt lat="36.8092803955078" lon="-5.16102695465088">
        <ele>707</ele>
        <time>2019-05-11T15:51:27Z</time>
      </trkpt>
      <trkpt lat="36.8093032836914" lon="-5.1610369682312">
        <ele>707</ele>
        <time>2019-05-11T15:51:29Z</time>
      </trkpt>
      <trkpt lat="36.8093185424805" lon="-5.16104507446289">
        <ele>707</ele>
        <time>2019-05-11T15:51:31Z</time>
      </trkpt>
      <trkpt lat="36.8093376159668" lon="-5.16105508804321">
        <ele>707</ele>
        <time>2019-05-11T15:51:33Z</time>
      </trkpt>
      <trkpt lat="36.8093566894531" lon="-5.16106176376343">
        <ele>708</ele>
        <time>2019-05-11T15:51:36Z</time>
      </trkpt>
      <trkpt lat="36.8093795776367" lon="-5.16106700897217">
        <ele>708</ele>
        <time>2019-05-11T15:51:38Z</time>
      </trkpt>
      <trkpt lat="36.8094024658203" lon="-5.16107177734375">
        <ele>708</ele>
        <time>2019-05-11T15:51:40Z</time>
      </trkpt>
      <trkpt lat="36.8094215393066" lon="-5.16107702255249">
        <ele>709</ele>
        <time>2019-05-11T15:51:42Z</time>
      </trkpt>
      <trkpt lat="36.8094444274902" lon="-5.16108179092407">
        <ele>709</ele>
        <time>2019-05-11T15:51:44Z</time>
      </trkpt>
      <trkpt lat="36.8094635009766" lon="-5.16108179092407">
        <ele>709</ele>
        <time>2019-05-11T15:51:46Z</time>
      </trkpt>
      <trkpt lat="36.8094863891602" lon="-5.16107797622681">
        <ele>709</ele>
        <time>2019-05-11T15:51:48Z</time>
      </trkpt>
      <trkpt lat="36.8095092773438" lon="-5.16108512878418">
        <ele>709</ele>
        <time>2019-05-11T15:51:50Z</time>
      </trkpt>
      <trkpt lat="36.8095321655273" lon="-5.16108989715576">
        <ele>709</ele>
        <time>2019-05-11T15:51:52Z</time>
      </trkpt>
      <trkpt lat="36.8095512390137" lon="-5.16109180450439">
        <ele>709</ele>
        <time>2019-05-11T15:51:54Z</time>
      </trkpt>
      <trkpt lat="36.8095741271973" lon="-5.16108798980713">
        <ele>709</ele>
        <time>2019-05-11T15:51:56Z</time>
      </trkpt>
      <trkpt lat="36.8095970153809" lon="-5.16108703613281">
        <ele>709</ele>
        <time>2019-05-11T15:51:58Z</time>
      </trkpt>
      <trkpt lat="36.809627532959" lon="-5.16108512878418">
        <ele>710</ele>
        <time>2019-05-11T15:52:00Z</time>
      </trkpt>
      <trkpt lat="36.8096504211426" lon="-5.16108512878418">
        <ele>710</ele>
        <time>2019-05-11T15:52:02Z</time>
      </trkpt>
      <trkpt lat="36.8096733093262" lon="-5.16108512878418">
        <ele>710</ele>
        <time>2019-05-11T15:52:04Z</time>
      </trkpt>
      <trkpt lat="36.8096961975098" lon="-5.16108179092407">
        <ele>710</ele>
        <time>2019-05-11T15:52:06Z</time>
      </trkpt>
      <trkpt lat="36.8097229003906" lon="-5.16107988357544">
        <ele>711</ele>
        <time>2019-05-11T15:52:08Z</time>
      </trkpt>
      <trkpt lat="36.8097457885742" lon="-5.16108512878418">
        <ele>711</ele>
        <time>2019-05-11T15:52:10Z</time>
      </trkpt>
      <trkpt lat="36.8097686767578" lon="-5.16108798980713">
        <ele>711</ele>
        <time>2019-05-11T15:52:13Z</time>
      </trkpt>
      <trkpt lat="36.8097915649414" lon="-5.16108989715576">
        <ele>711</ele>
        <time>2019-05-11T15:52:15Z</time>
      </trkpt>
      <trkpt lat="36.8098182678223" lon="-5.16109180450439">
        <ele>711</ele>
        <time>2019-05-11T15:52:17Z</time>
      </trkpt>
      <trkpt lat="36.8098411560059" lon="-5.16109180450439">
        <ele>711</ele>
        <time>2019-05-11T15:52:19Z</time>
      </trkpt>
      <trkpt lat="36.8098640441894" lon="-5.16109323501587">
        <ele>711</ele>
        <time>2019-05-11T15:52:21Z</time>
      </trkpt>
      <trkpt lat="36.8098907470703" lon="-5.16109991073608">
        <ele>711</ele>
        <time>2019-05-11T15:52:23Z</time>
      </trkpt>
      <trkpt lat="36.8099136352539" lon="-5.16110181808472">
        <ele>711</ele>
        <time>2019-05-11T15:52:25Z</time>
      </trkpt>
      <trkpt lat="36.8099327087402" lon="-5.16110706329346">
        <ele>711</ele>
        <time>2019-05-11T15:52:27Z</time>
      </trkpt>
      <trkpt lat="36.8099555969238" lon="-5.16111278533936">
        <ele>711</ele>
        <time>2019-05-11T15:52:29Z</time>
      </trkpt>
      <trkpt lat="36.8099784851074" lon="-5.1611180305481">
        <ele>711</ele>
        <time>2019-05-11T15:52:31Z</time>
      </trkpt>
      <trkpt lat="36.810001373291" lon="-5.16112279891968">
        <ele>712</ele>
        <time>2019-05-11T15:52:33Z</time>
      </trkpt>
      <trkpt lat="36.8100242614746" lon="-5.16112804412842">
        <ele>712</ele>
        <time>2019-05-11T15:52:35Z</time>
      </trkpt>
      <trkpt lat="36.8100433349609" lon="-5.1611328125">
        <ele>712</ele>
        <time>2019-05-11T15:52:37Z</time>
      </trkpt>
      <trkpt lat="36.8100776672363" lon="-5.16114187240601">
        <ele>713</ele>
        <time>2019-05-11T15:52:39Z</time>
      </trkpt>
      <trkpt lat="36.8100967407227" lon="-5.16114521026611">
        <ele>713</ele>
        <time>2019-05-11T15:52:41Z</time>
      </trkpt>
      <trkpt lat="36.8101196289062" lon="-5.1611499786377">
        <ele>713</ele>
        <time>2019-05-11T15:52:43Z</time>
      </trkpt>
      <trkpt lat="36.8101425170898" lon="-5.16115188598633">
        <ele>713</ele>
        <time>2019-05-11T15:52:45Z</time>
      </trkpt>
      <trkpt lat="36.8101654052734" lon="-5.16115522384644">
        <ele>713</ele>
        <time>2019-05-11T15:52:47Z</time>
      </trkpt>
      <trkpt lat="36.810188293457" lon="-5.16115522384644">
        <ele>713</ele>
        <time>2019-05-11T15:52:49Z</time>
      </trkpt>
      <trkpt lat="36.8102111816406" lon="-5.16115283966064">
        <ele>713</ele>
        <time>2019-05-11T15:52:52Z</time>
      </trkpt>
      <trkpt lat="36.8102340698242" lon="-5.16115522384644">
        <ele>713</ele>
        <time>2019-05-11T15:52:54Z</time>
      </trkpt>
      <trkpt lat="36.8102531433106" lon="-5.16115283966064">
        <ele>713</ele>
        <time>2019-05-11T15:52:56Z</time>
      </trkpt>
      <trkpt lat="36.8102760314941" lon="-5.16115283966064">
        <ele>713</ele>
        <time>2019-05-11T15:52:58Z</time>
      </trkpt>
      <trkpt lat="36.8102951049805" lon="-5.16115188598633">
        <ele>713</ele>
        <time>2019-05-11T15:53:00Z</time>
      </trkpt>
      <trkpt lat="36.8103141784668" lon="-5.16115283966064">
        <ele>713</ele>
        <time>2019-05-11T15:53:02Z</time>
      </trkpt>
      <trkpt lat="36.8103332519531" lon="-5.16115283966064">
        <ele>713</ele>
        <time>2019-05-11T15:53:04Z</time>
      </trkpt>
      <trkpt lat="36.8103523254394" lon="-5.16115713119507">
        <ele>714</ele>
        <time>2019-05-11T15:53:06Z</time>
      </trkpt>
      <trkpt lat="36.8103713989258" lon="-5.16115999221802">
        <ele>714</ele>
        <time>2019-05-11T15:53:08Z</time>
      </trkpt>
      <trkpt lat="36.8103866577148" lon="-5.16115999221802">
        <ele>715</ele>
        <time>2019-05-11T15:53:10Z</time>
      </trkpt>
      <trkpt lat="36.8104057312012" lon="-5.16115999221802">
        <ele>715</ele>
        <time>2019-05-11T15:53:12Z</time>
      </trkpt>
      <trkpt lat="36.810417175293" lon="-5.16116523742676">
        <ele>715</ele>
        <time>2019-05-11T15:53:14Z</time>
      </trkpt>
      <trkpt lat="36.8104362487793" lon="-5.16116523742676">
        <ele>715</ele>
        <time>2019-05-11T15:53:16Z</time>
      </trkpt>
      <trkpt lat="36.8104553222656" lon="-5.16116809844971">
        <ele>716</ele>
        <time>2019-05-11T15:53:18Z</time>
      </trkpt>
      <trkpt lat="36.8104705810547" lon="-5.16117191314697">
        <ele>716</ele>
        <time>2019-05-11T15:53:20Z</time>
      </trkpt>
      <trkpt lat="36.8104820251465" lon="-5.16117715835571">
        <ele>717</ele>
        <time>2019-05-11T15:53:22Z</time>
      </trkpt>
      <trkpt lat="36.8104972839356" lon="-5.16118001937866">
        <ele>717</ele>
        <time>2019-05-11T15:53:24Z</time>
      </trkpt>
      <trkpt lat="36.8105125427246" lon="-5.16118288040161">
        <ele>717</ele>
        <time>2019-05-11T15:53:26Z</time>
      </trkpt>
      <trkpt lat="36.8105278015137" lon="-5.16118478775024">
        <ele>718</ele>
        <time>2019-05-11T15:53:28Z</time>
      </trkpt>
      <trkpt lat="36.810546875" lon="-5.16118717193604">
        <ele>718</ele>
        <time>2019-05-11T15:53:31Z</time>
      </trkpt>
      <trkpt lat="36.8105659484863" lon="-5.16119003295898">
        <ele>718</ele>
        <time>2019-05-11T15:53:33Z</time>
      </trkpt>
      <trkpt lat="36.8105812072754" lon="-5.16119813919067">
        <ele>718</ele>
        <time>2019-05-11T15:53:35Z</time>
      </trkpt>
      <trkpt lat="36.810604095459" lon="-5.161208152771">
        <ele>718</ele>
        <time>2019-05-11T15:53:37Z</time>
      </trkpt>
      <trkpt lat="36.8106231689453" lon="-5.16121482849121">
        <ele>718</ele>
        <time>2019-05-11T15:53:39Z</time>
      </trkpt>
      <trkpt lat="36.8106384277344" lon="-5.16122007369995">
        <ele>718</ele>
        <time>2019-05-11T15:53:41Z</time>
      </trkpt>
      <trkpt lat="36.810661315918" lon="-5.16122722625732">
        <ele>719</ele>
        <time>2019-05-11T15:53:43Z</time>
      </trkpt>
      <trkpt lat="36.8106842041016" lon="-5.16123294830322">
        <ele>719</ele>
        <time>2019-05-11T15:53:45Z</time>
      </trkpt>
      <trkpt lat="36.8107032775879" lon="-5.16124677658081">
        <ele>719</ele>
        <time>2019-05-11T15:53:47Z</time>
      </trkpt>
      <trkpt lat="36.8107223510742" lon="-5.16125679016113">
        <ele>719</ele>
        <time>2019-05-11T15:53:49Z</time>
      </trkpt>
      <trkpt lat="36.8107414245606" lon="-5.16126680374146">
        <ele>719</ele>
        <time>2019-05-11T15:53:51Z</time>
      </trkpt>
      <trkpt lat="36.8107719421387" lon="-5.16127014160156">
        <ele>719</ele>
        <time>2019-05-11T15:53:53Z</time>
      </trkpt>
      <trkpt lat="36.8107986450195" lon="-5.16126298904419">
        <ele>719</ele>
        <time>2019-05-11T15:53:55Z</time>
      </trkpt>
      <trkpt lat="36.8108253479004" lon="-5.16125679016113">
        <ele>719</ele>
        <time>2019-05-11T15:53:57Z</time>
      </trkpt>
      <trkpt lat="36.810848236084" lon="-5.16125297546387">
        <ele>719</ele>
        <time>2019-05-11T15:53:59Z</time>
      </trkpt>
      <trkpt lat="36.8108711242676" lon="-5.16124486923218">
        <ele>719</ele>
        <time>2019-05-11T15:54:01Z</time>
      </trkpt>
      <trkpt lat="36.8108940124512" lon="-5.16123199462891">
        <ele>720</ele>
        <time>2019-05-11T15:54:03Z</time>
      </trkpt>
      <trkpt lat="36.8109092712402" lon="-5.16122198104858">
        <ele>720</ele>
        <time>2019-05-11T15:54:06Z</time>
      </trkpt>
      <trkpt lat="36.8109283447266" lon="-5.16120719909668">
        <ele>721</ele>
        <time>2019-05-11T15:54:08Z</time>
      </trkpt>
      <trkpt lat="36.8109436035156" lon="-5.16119289398193">
        <ele>722</ele>
        <time>2019-05-11T15:54:10Z</time>
      </trkpt>
      <trkpt lat="36.810962677002" lon="-5.16118717193604">
        <ele>722</ele>
        <time>2019-05-11T15:54:12Z</time>
      </trkpt>
      <trkpt lat="36.8109741210938" lon="-5.16118288040161">
        <ele>722</ele>
        <time>2019-05-11T15:54:14Z</time>
      </trkpt>
      <trkpt lat="36.8109741210938" lon="-5.16118478775024">
        <ele>722</ele>
        <time>2019-05-11T15:54:16Z</time>
      </trkpt>
      <trkpt lat="36.810977935791" lon="-5.16118478775024">
        <ele>722</ele>
        <time>2019-05-11T15:54:18Z</time>
      </trkpt>
      <trkpt lat="36.8109817504883" lon="-5.16118478775024">
        <ele>723</ele>
        <time>2019-05-11T15:54:20Z</time>
      </trkpt>
      <trkpt lat="36.8109817504883" lon="-5.16118812561035">
        <ele>723</ele>
        <time>2019-05-11T15:54:22Z</time>
      </trkpt>
      <trkpt lat="36.8109893798828" lon="-5.16118288040161">
        <ele>723</ele>
        <time>2019-05-11T15:54:24Z</time>
      </trkpt>
      <trkpt lat="36.8109893798828" lon="-5.1611819267273">
        <ele>723</ele>
        <time>2019-05-11T15:54:26Z</time>
      </trkpt>
      <trkpt lat="36.8109931945801" lon="-5.16118001937866">
        <ele>724</ele>
        <time>2019-05-11T15:54:28Z</time>
      </trkpt>
      <trkpt lat="36.8109931945801" lon="-5.16117811203003">
        <ele>724</ele>
        <time>2019-05-11T15:54:30Z</time>
      </trkpt>
      <trkpt lat="36.8109931945801" lon="-5.16117715835571">
        <ele>725</ele>
        <time>2019-05-11T15:54:32Z</time>
      </trkpt>
      <trkpt lat="36.8109931945801" lon="-5.16117286682129">
        <ele>726</ele>
        <time>2019-05-11T15:54:34Z</time>
      </trkpt>
      <trkpt lat="36.8109931945801" lon="-5.16117286682129">
        <ele>726</ele>
        <time>2019-05-11T15:54:36Z</time>
      </trkpt>
      <trkpt lat="36.8109931945801" lon="-5.16116809844971">
        <ele>727</ele>
        <time>2019-05-11T15:54:38Z</time>
      </trkpt>
      <trkpt lat="36.8109931945801" lon="-5.16116714477539">
        <ele>727</ele>
        <time>2019-05-11T15:54:40Z</time>
      </trkpt>
      <trkpt lat="36.8109931945801" lon="-5.16116809844971">
        <ele>727</ele>
        <time>2019-05-11T15:54:42Z</time>
      </trkpt>
      <trkpt lat="36.8109893798828" lon="-5.16116714477539">
        <ele>728</ele>
        <time>2019-05-11T15:54:47Z</time>
      </trkpt>
      <trkpt lat="36.8109893798828" lon="-5.16116523742676">
        <ele>728</ele>
        <time>2019-05-11T15:54:49Z</time>
      </trkpt>
      <trkpt lat="36.8109893798828" lon="-5.16116189956665">
        <ele>728</ele>
        <time>2019-05-11T15:54:51Z</time>
      </trkpt>
      <trkpt lat="36.8109893798828" lon="-5.16115999221802">
        <ele>729</ele>
        <time>2019-05-11T15:54:53Z</time>
      </trkpt>
      <trkpt lat="36.8109893798828" lon="-5.16115713119507">
        <ele>729</ele>
        <time>2019-05-11T15:54:55Z</time>
      </trkpt>
      <trkpt lat="36.8109893798828" lon="-5.16115713119507">
        <ele>729</ele>
        <time>2019-05-11T15:54:57Z</time>
      </trkpt>
      <trkpt lat="36.8109893798828" lon="-5.16115522384644">
        <ele>729</ele>
        <time>2019-05-11T15:54:59Z</time>
      </trkpt>
      <trkpt lat="36.8109893798828" lon="-5.16115283966064">
        <ele>729</ele>
        <time>2019-05-11T15:55:01Z</time>
      </trkpt>
      <trkpt lat="36.8109931945801" lon="-5.16115522384644">
        <ele>730</ele>
        <time>2019-05-11T15:55:05Z</time>
      </trkpt>
      <trkpt lat="36.8109855651856" lon="-5.16115188598633">
        <ele>730</ele>
        <time>2019-05-11T15:55:07Z</time>
      </trkpt>
      <trkpt lat="36.8109855651856" lon="-5.16115522384644">
        <ele>730</ele>
        <time>2019-05-11T15:55:09Z</time>
      </trkpt>
      <trkpt lat="36.8109817504883" lon="-5.16115283966064">
        <ele>730</ele>
        <time>2019-05-11T15:55:11Z</time>
      </trkpt>
      <trkpt lat="36.8109817504883" lon="-5.16115713119507">
        <ele>730</ele>
        <time>2019-05-11T15:55:13Z</time>
      </trkpt>
      <trkpt lat="36.8109817504883" lon="-5.16115713119507">
        <ele>730</ele>
        <time>2019-05-11T15:55:15Z</time>
      </trkpt>
      <trkpt lat="36.8109855651856" lon="-5.16115522384644">
        <ele>730</ele>
        <time>2019-05-11T15:55:17Z</time>
      </trkpt>
      <trkpt lat="36.8109855651856" lon="-5.16115713119507">
        <ele>730</ele>
        <time>2019-05-11T15:55:19Z</time>
      </trkpt>
      <trkpt lat="36.8109855651856" lon="-5.16115713119507">
        <ele>730</ele>
        <time>2019-05-11T15:55:21Z</time>
      </trkpt>
      <trkpt lat="36.8109817504883" lon="-5.16115808486938">
        <ele>730</ele>
        <time>2019-05-11T15:55:23Z</time>
      </trkpt>
      <trkpt lat="36.8109817504883" lon="-5.16115808486938">
        <ele>730</ele>
        <time>2019-05-11T15:55:25Z</time>
      </trkpt>
      <trkpt lat="36.8109817504883" lon="-5.16115999221802">
        <ele>730</ele>
        <time>2019-05-11T15:55:27Z</time>
      </trkpt>
      <trkpt lat="36.8109817504883" lon="-5.16115808486938">
        <ele>730</ele>
        <time>2019-05-11T15:55:29Z</time>
      </trkpt>
      <trkpt lat="36.8109931945801" lon="-5.16115283966064">
        <ele>730</ele>
        <time>2019-05-11T15:55:31Z</time>
      </trkpt>
      <trkpt lat="36.8110046386719" lon="-5.16114282608032">
        <ele>730</ele>
        <time>2019-05-11T15:55:34Z</time>
      </trkpt>
      <trkpt lat="36.8110160827637" lon="-5.1611328125">
        <ele>730</ele>
        <time>2019-05-11T15:55:36Z</time>
      </trkpt>
      <trkpt lat="36.8110275268555" lon="-5.16112279891968">
        <ele>730</ele>
        <time>2019-05-11T15:55:38Z</time>
      </trkpt>
      <trkpt lat="36.8110389709473" lon="-5.16111278533936">
        <ele>730</ele>
        <time>2019-05-11T15:55:40Z</time>
      </trkpt>
      <trkpt lat="36.8110542297363" lon="-5.16110515594482">
        <ele>730</ele>
        <time>2019-05-11T15:55:42Z</time>
      </trkpt>
      <trkpt lat="36.8110694885254" lon="-5.16109800338745">
        <ele>730</ele>
        <time>2019-05-11T15:55:44Z</time>
      </trkpt>
      <trkpt lat="36.8110847473144" lon="-5.16108798980713">
        <ele>730</ele>
        <time>2019-05-11T15:55:46Z</time>
      </trkpt>
      <trkpt lat="36.8110961914062" lon="-5.16107702255249">
        <ele>730</ele>
        <time>2019-05-11T15:55:48Z</time>
      </trkpt>
      <trkpt lat="36.8111152648926" lon="-5.16106986999512">
        <ele>730</ele>
        <time>2019-05-11T15:55:50Z</time>
      </trkpt>
      <trkpt lat="36.8111381530762" lon="-5.16105794906616">
        <ele>730</ele>
        <time>2019-05-11T15:55:52Z</time>
      </trkpt>
      <trkpt lat="36.8111572265625" lon="-5.16104984283447">
        <ele>731</ele>
        <time>2019-05-11T15:55:54Z</time>
      </trkpt>
      <trkpt lat="36.8111763000488" lon="-5.16104507446289">
        <ele>731</ele>
        <time>2019-05-11T15:55:56Z</time>
      </trkpt>
      <trkpt lat="36.8112030029297" lon="-5.16103315353394">
        <ele>731</ele>
        <time>2019-05-11T15:55:58Z</time>
      </trkpt>
      <trkpt lat="36.811222076416" lon="-5.16102695465088">
        <ele>731</ele>
        <time>2019-05-11T15:56:00Z</time>
      </trkpt>
      <trkpt lat="36.8112411499023" lon="-5.16101789474487">
        <ele>731</ele>
        <time>2019-05-11T15:56:02Z</time>
      </trkpt>
      <trkpt lat="36.8112602233887" lon="-5.16101217269897">
        <ele>731</ele>
        <time>2019-05-11T15:56:04Z</time>
      </trkpt>
      <trkpt lat="36.8112754821777" lon="-5.16100978851318">
        <ele>731</ele>
        <time>2019-05-11T15:56:06Z</time>
      </trkpt>
      <trkpt lat="36.8112907409668" lon="-5.16100692749023">
        <ele>732</ele>
        <time>2019-05-11T15:56:08Z</time>
      </trkpt>
      <trkpt lat="36.8113021850586" lon="-5.16099977493286">
        <ele>732</ele>
        <time>2019-05-11T15:56:11Z</time>
      </trkpt>
      <trkpt lat="36.8113212585449" lon="-5.16099214553833">
        <ele>732</ele>
        <time>2019-05-11T15:56:13Z</time>
      </trkpt>
      <trkpt lat="36.8113403320312" lon="-5.16098499298096">
        <ele>732</ele>
        <time>2019-05-11T15:56:15Z</time>
      </trkpt>
      <trkpt lat="36.8113594055176" lon="-5.16097497940064">
        <ele>732</ele>
        <time>2019-05-11T15:56:17Z</time>
      </trkpt>
      <trkpt lat="36.8113746643066" lon="-5.16096496582031">
        <ele>732</ele>
        <time>2019-05-11T15:56:19Z</time>
      </trkpt>
      <trkpt lat="36.811393737793" lon="-5.16095018386841">
        <ele>732</ele>
        <time>2019-05-11T15:56:21Z</time>
      </trkpt>
      <trkpt lat="36.811408996582" lon="-5.16094017028809">
        <ele>732</ele>
        <time>2019-05-11T15:56:23Z</time>
      </trkpt>
      <trkpt lat="36.8114318847656" lon="-5.16093492507935">
        <ele>732</ele>
        <time>2019-05-11T15:56:25Z</time>
      </trkpt>
      <trkpt lat="36.8114547729492" lon="-5.16093015670776">
        <ele>733</ele>
        <time>2019-05-11T15:56:27Z</time>
      </trkpt>
      <trkpt lat="36.8114738464356" lon="-5.16092491149902">
        <ele>733</ele>
        <time>2019-05-11T15:56:29Z</time>
      </trkpt>
      <trkpt lat="36.8114967346191" lon="-5.16091823577881">
        <ele>733</ele>
        <time>2019-05-11T15:56:31Z</time>
      </trkpt>
      <trkpt lat="36.8115119934082" lon="-5.16091680526733">
        <ele>734</ele>
        <time>2019-05-11T15:56:33Z</time>
      </trkpt>
      <trkpt lat="36.8115425109863" lon="-5.16090822219849">
        <ele>734</ele>
        <time>2019-05-11T15:56:35Z</time>
      </trkpt>
      <trkpt lat="36.8115615844727" lon="-5.16090297698975">
        <ele>734</ele>
        <time>2019-05-11T15:56:37Z</time>
      </trkpt>
      <trkpt lat="36.8115844726562" lon="-5.16089677810669">
        <ele>734</ele>
        <time>2019-05-11T15:56:39Z</time>
      </trkpt>
      <trkpt lat="36.8116035461426" lon="-5.16089010238647">
        <ele>735</ele>
        <time>2019-05-11T15:56:41Z</time>
      </trkpt>
      <trkpt lat="36.8116188049316" lon="-5.16088485717773">
        <ele>735</ele>
        <time>2019-05-11T15:56:43Z</time>
      </trkpt>
      <trkpt lat="36.811637878418" lon="-5.16087293624878">
        <ele>736</ele>
        <time>2019-05-11T15:56:46Z</time>
      </trkpt>
      <trkpt lat="36.811653137207" lon="-5.16086196899414">
        <ele>736</ele>
        <time>2019-05-11T15:56:48Z</time>
      </trkpt>
      <trkpt lat="36.8116722106934" lon="-5.16084814071655">
        <ele>736</ele>
        <time>2019-05-11T15:56:50Z</time>
      </trkpt>
      <trkpt lat="36.8116912841797" lon="-5.16084289550781">
        <ele>737</ele>
        <time>2019-05-11T15:56:52Z</time>
      </trkpt>
      <trkpt lat="36.811710357666" lon="-5.16084003448486">
        <ele>737</ele>
        <time>2019-05-11T15:56:54Z</time>
      </trkpt>
      <trkpt lat="36.8117256164551" lon="-5.16083717346191">
        <ele>737</ele>
        <time>2019-05-11T15:56:56Z</time>
      </trkpt>
      <trkpt lat="36.8117485046387" lon="-5.16083002090454">
        <ele>737</ele>
        <time>2019-05-11T15:56:58Z</time>
      </trkpt>
      <trkpt lat="36.8117637634277" lon="-5.16082191467285">
        <ele>737</ele>
        <time>2019-05-11T15:57:00Z</time>
      </trkpt>
      <trkpt lat="36.8117828369141" lon="-5.16081714630127">
        <ele>737</ele>
        <time>2019-05-11T15:57:02Z</time>
      </trkpt>
      <trkpt lat="36.8117980957031" lon="-5.16080522537231">
        <ele>737</ele>
        <time>2019-05-11T15:57:04Z</time>
      </trkpt>
      <trkpt lat="36.8118171691894" lon="-5.16079807281494">
        <ele>738</ele>
        <time>2019-05-11T15:57:06Z</time>
      </trkpt>
      <trkpt lat="36.8118362426758" lon="-5.1607928276062">
        <ele>738</ele>
        <time>2019-05-11T15:57:08Z</time>
      </trkpt>
      <trkpt lat="36.8118667602539" lon="-5.16078281402588">
        <ele>738</ele>
        <time>2019-05-11T15:57:10Z</time>
      </trkpt>
      <trkpt lat="36.811882019043" lon="-5.16077995300293">
        <ele>739</ele>
        <time>2019-05-11T15:57:12Z</time>
      </trkpt>
      <trkpt lat="36.8119010925293" lon="-5.16077709197998">
        <ele>739</ele>
        <time>2019-05-11T15:57:14Z</time>
      </trkpt>
      <trkpt lat="36.8119163513184" lon="-5.1607780456543">
        <ele>739</ele>
        <time>2019-05-11T15:57:16Z</time>
      </trkpt>
      <trkpt lat="36.8119239807129" lon="-5.16077709197998">
        <ele>739</ele>
        <time>2019-05-11T15:57:18Z</time>
      </trkpt>
      <trkpt lat="36.8119354248047" lon="-5.16077280044556">
        <ele>739</ele>
        <time>2019-05-11T15:57:20Z</time>
      </trkpt>
      <trkpt lat="36.8119506835938" lon="-5.16077184677124">
        <ele>739</ele>
        <time>2019-05-11T15:57:23Z</time>
      </trkpt>
      <trkpt lat="36.8119659423828" lon="-5.16076707839966">
        <ele>739</ele>
        <time>2019-05-11T15:57:25Z</time>
      </trkpt>
      <trkpt lat="36.8119697570801" lon="-5.16076803207397">
        <ele>739</ele>
        <time>2019-05-11T15:57:27Z</time>
      </trkpt>
      <trkpt lat="36.8119659423828" lon="-5.16076707839966">
        <ele>739</ele>
        <time>2019-05-11T15:57:29Z</time>
      </trkpt>
      <trkpt lat="36.8119697570801" lon="-5.16076707839966">
        <ele>739</ele>
        <time>2019-05-11T15:57:31Z</time>
      </trkpt>
      <trkpt lat="36.8119697570801" lon="-5.16076517105103">
        <ele>739</ele>
        <time>2019-05-11T15:57:33Z</time>
      </trkpt>
      <trkpt lat="36.8119697570801" lon="-5.16076278686523">
        <ele>739</ele>
        <time>2019-05-11T15:57:35Z</time>
      </trkpt>
      <trkpt lat="36.8119697570801" lon="-5.16076278686523">
        <ele>739</ele>
        <time>2019-05-11T15:57:37Z</time>
      </trkpt>
      <trkpt lat="36.8119697570801" lon="-5.16076183319092">
        <ele>739</ele>
        <time>2019-05-11T15:57:39Z</time>
      </trkpt>
      <trkpt lat="36.8119735717773" lon="-5.16075992584228">
        <ele>739</ele>
        <time>2019-05-11T15:57:41Z</time>
      </trkpt>
      <trkpt lat="36.8119735717773" lon="-5.16075801849365">
        <ele>740</ele>
        <time>2019-05-11T15:57:43Z</time>
      </trkpt>
      <trkpt lat="36.8119735717773" lon="-5.1607551574707">
        <ele>740</ele>
        <time>2019-05-11T15:57:45Z</time>
      </trkpt>
      <trkpt lat="36.8119735717773" lon="-5.16075706481934">
        <ele>741</ele>
        <time>2019-05-11T15:57:47Z</time>
      </trkpt>
      <trkpt lat="36.8119773864746" lon="-5.1607551574707">
        <ele>741</ele>
        <time>2019-05-11T15:57:49Z</time>
      </trkpt>
      <trkpt lat="36.8119773864746" lon="-5.16075277328491">
        <ele>742</ele>
        <time>2019-05-11T15:57:51Z</time>
      </trkpt>
      <trkpt lat="36.8119812011719" lon="-5.1607518196106">
        <ele>742</ele>
        <time>2019-05-11T15:57:53Z</time>
      </trkpt>
      <trkpt lat="36.8119812011719" lon="-5.16074800491333">
        <ele>742</ele>
        <time>2019-05-11T15:57:55Z</time>
      </trkpt>
      <trkpt lat="36.8119926452637" lon="-5.16074705123901">
        <ele>743</ele>
        <time>2019-05-11T15:57:57Z</time>
      </trkpt>
      <trkpt lat="36.8120079040527" lon="-5.16074180603027">
        <ele>743</ele>
        <time>2019-05-11T15:57:59Z</time>
      </trkpt>
      <trkpt lat="36.8120269775391" lon="-5.16073799133301">
        <ele>744</ele>
        <time>2019-05-11T15:58:01Z</time>
      </trkpt>
      <trkpt lat="36.8120498657227" lon="-5.16073322296143">
        <ele>744</ele>
        <time>2019-05-11T15:58:03Z</time>
      </trkpt>
      <trkpt lat="36.8120651245117" lon="-5.16073179244995">
        <ele>745</ele>
        <time>2019-05-11T15:58:05Z</time>
      </trkpt>
      <trkpt lat="36.812084197998" lon="-5.16072702407837">
        <ele>745</ele>
        <time>2019-05-11T15:58:07Z</time>
      </trkpt>
      <trkpt lat="36.8121032714844" lon="-5.1607232093811">
        <ele>745</ele>
        <time>2019-05-11T15:58:10Z</time>
      </trkpt>
      <trkpt lat="36.8121185302734" lon="-5.160719871521">
        <ele>745</ele>
        <time>2019-05-11T15:58:12Z</time>
      </trkpt>
      <trkpt lat="36.8121337890625" lon="-5.16071796417236">
        <ele>745</ele>
        <time>2019-05-11T15:58:14Z</time>
      </trkpt>
      <trkpt lat="36.812141418457" lon="-5.160719871521">
        <ele>745</ele>
        <time>2019-05-11T15:58:16Z</time>
      </trkpt>
      <trkpt lat="36.8121566772461" lon="-5.16071510314941">
        <ele>745</ele>
        <time>2019-05-11T15:58:18Z</time>
      </trkpt>
      <trkpt lat="36.8121719360352" lon="-5.16071319580078">
        <ele>745</ele>
        <time>2019-05-11T15:58:20Z</time>
      </trkpt>
      <trkpt lat="36.812183380127" lon="-5.16071176528931">
        <ele>745</ele>
        <time>2019-05-11T15:58:22Z</time>
      </trkpt>
      <trkpt lat="36.812198638916" lon="-5.16070795059204">
        <ele>745</ele>
        <time>2019-05-11T15:58:24Z</time>
      </trkpt>
      <trkpt lat="36.8122100830078" lon="-5.16070508956909">
        <ele>745</ele>
        <time>2019-05-11T15:58:26Z</time>
      </trkpt>
      <trkpt lat="36.8122253417969" lon="-5.16070508956909">
        <ele>745</ele>
        <time>2019-05-11T15:58:28Z</time>
      </trkpt>
      <trkpt lat="36.8122406005859" lon="-5.16070318222046">
        <ele>745</ele>
        <time>2019-05-11T15:58:30Z</time>
      </trkpt>
      <trkpt lat="36.812255859375" lon="-5.16069984436035">
        <ele>745</ele>
        <time>2019-05-11T15:58:32Z</time>
      </trkpt>
      <trkpt lat="36.8122711181641" lon="-5.1606969833374">
        <ele>745</ele>
        <time>2019-05-11T15:58:34Z</time>
      </trkpt>
      <trkpt lat="36.8122940063477" lon="-5.16069221496582">
        <ele>745</ele>
        <time>2019-05-11T15:58:36Z</time>
      </trkpt>
      <trkpt lat="36.812313079834" lon="-5.16068983078003">
        <ele>745</ele>
        <time>2019-05-11T15:58:38Z</time>
      </trkpt>
      <trkpt lat="36.812328338623" lon="-5.1606879234314">
        <ele>745</ele>
        <time>2019-05-11T15:58:40Z</time>
      </trkpt>
      <trkpt lat="36.8123512268066" lon="-5.1606822013855">
        <ele>745</ele>
        <time>2019-05-11T15:58:42Z</time>
      </trkpt>
      <trkpt lat="36.8123664855957" lon="-5.1606822013855">
        <ele>745</ele>
        <time>2019-05-11T15:58:44Z</time>
      </trkpt>
      <trkpt lat="36.8123817443848" lon="-5.1606822013855">
        <ele>745</ele>
        <time>2019-05-11T15:58:46Z</time>
      </trkpt>
      <trkpt lat="36.8124008178711" lon="-5.16067790985107">
        <ele>745</ele>
        <time>2019-05-11T15:58:48Z</time>
      </trkpt>
      <trkpt lat="36.8124122619629" lon="-5.16067695617676">
        <ele>745</ele>
        <time>2019-05-11T15:58:51Z</time>
      </trkpt>
      <trkpt lat="36.812427520752" lon="-5.16067314147949">
        <ele>745</ele>
        <time>2019-05-11T15:58:53Z</time>
      </trkpt>
      <trkpt lat="36.8124389648438" lon="-5.16067314147949">
        <ele>745</ele>
        <time>2019-05-11T15:58:55Z</time>
      </trkpt>
      <trkpt lat="36.8124542236328" lon="-5.16067504882812">
        <ele>746</ele>
        <time>2019-05-11T15:58:57Z</time>
      </trkpt>
      <trkpt lat="36.8124732971191" lon="-5.16067695617676">
        <ele>746</ele>
        <time>2019-05-11T15:58:59Z</time>
      </trkpt>
      <trkpt lat="36.8124885559082" lon="-5.16067504882812">
        <ele>746</ele>
        <time>2019-05-11T15:59:01Z</time>
      </trkpt>
      <trkpt lat="36.8125076293945" lon="-5.16067314147949">
        <ele>746</ele>
        <time>2019-05-11T15:59:03Z</time>
      </trkpt>
      <trkpt lat="36.8125305175781" lon="-5.16067504882812">
        <ele>747</ele>
        <time>2019-05-11T15:59:05Z</time>
      </trkpt>
      <trkpt lat="36.8125495910644" lon="-5.16067218780518">
        <ele>747</ele>
        <time>2019-05-11T15:59:07Z</time>
      </trkpt>
      <trkpt lat="36.8125686645508" lon="-5.16066789627075">
        <ele>748</ele>
        <time>2019-05-11T15:59:09Z</time>
      </trkpt>
      <trkpt lat="36.8125877380371" lon="-5.16066217422485">
        <ele>748</ele>
        <time>2019-05-11T15:59:11Z</time>
      </trkpt>
      <trkpt lat="36.8126068115234" lon="-5.16065788269043">
        <ele>748</ele>
        <time>2019-05-11T15:59:13Z</time>
      </trkpt>
      <trkpt lat="36.8126258850098" lon="-5.16065788269043">
        <ele>749</ele>
        <time>2019-05-11T15:59:15Z</time>
      </trkpt>
      <trkpt lat="36.8126411437988" lon="-5.16065502166748">
        <ele>749</ele>
        <time>2019-05-11T15:59:17Z</time>
      </trkpt>
      <trkpt lat="36.8126564025879" lon="-5.16064977645874">
        <ele>749</ele>
        <time>2019-05-11T15:59:19Z</time>
      </trkpt>
      <trkpt lat="36.812686920166" lon="-5.16064691543579">
        <ele>750</ele>
        <time>2019-05-11T15:59:21Z</time>
      </trkpt>
      <trkpt lat="36.8127059936523" lon="-5.16063976287842">
        <ele>750</ele>
        <time>2019-05-11T15:59:23Z</time>
      </trkpt>
      <trkpt lat="36.8127250671387" lon="-5.16063213348389">
        <ele>751</ele>
        <time>2019-05-11T15:59:25Z</time>
      </trkpt>
      <trkpt lat="36.812744140625" lon="-5.16062688827515">
        <ele>751</ele>
        <time>2019-05-11T15:59:27Z</time>
      </trkpt>
      <trkpt lat="36.8127593994141" lon="-5.16062307357788">
        <ele>751</ele>
        <time>2019-05-11T15:59:29Z</time>
      </trkpt>
      <trkpt lat="36.8127784729004" lon="-5.16061305999756">
        <ele>752</ele>
        <time>2019-05-11T15:59:31Z</time>
      </trkpt>
      <trkpt lat="36.8127861022949" lon="-5.16060495376587">
        <ele>752</ele>
        <time>2019-05-11T15:59:34Z</time>
      </trkpt>
      <trkpt lat="36.812801361084" lon="-5.16060209274292">
        <ele>752</ele>
        <time>2019-05-11T15:59:36Z</time>
      </trkpt>
      <trkpt lat="36.812816619873" lon="-5.16059494018555">
        <ele>753</ele>
        <time>2019-05-11T15:59:38Z</time>
      </trkpt>
      <trkpt lat="36.8128356933594" lon="-5.1605920791626">
        <ele>753</ele>
        <time>2019-05-11T15:59:40Z</time>
      </trkpt>
      <trkpt lat="36.8128547668457" lon="-5.16058683395386">
        <ele>753</ele>
        <time>2019-05-11T15:59:42Z</time>
      </trkpt>
      <trkpt lat="36.812873840332" lon="-5.16058301925659">
        <ele>754</ele>
        <time>2019-05-11T15:59:44Z</time>
      </trkpt>
      <trkpt lat="36.8128890991211" lon="-5.16058015823364">
        <ele>754</ele>
        <time>2019-05-11T15:59:46Z</time>
      </trkpt>
      <trkpt lat="36.8129081726074" lon="-5.16057777404785">
        <ele>754</ele>
        <time>2019-05-11T15:59:48Z</time>
      </trkpt>
      <trkpt lat="36.8129272460938" lon="-5.1605749130249">
        <ele>755</ele>
        <time>2019-05-11T15:59:50Z</time>
      </trkpt>
      <trkpt lat="36.8129463195801" lon="-5.16057300567627">
        <ele>755</ele>
        <time>2019-05-11T15:59:52Z</time>
      </trkpt>
      <trkpt lat="36.8129653930664" lon="-5.16056823730469">
        <ele>755</ele>
        <time>2019-05-11T15:59:54Z</time>
      </trkpt>
      <trkpt lat="36.8129844665527" lon="-5.16056299209595">
        <ele>756</ele>
        <time>2019-05-11T15:59:56Z</time>
      </trkpt>
      <trkpt lat="36.8129997253418" lon="-5.16056299209595">
        <ele>756</ele>
        <time>2019-05-11T15:59:58Z</time>
      </trkpt>
      <trkpt lat="36.8130264282227" lon="-5.16055202484131">
        <ele>756</ele>
        <time>2019-05-11T16:00:00Z</time>
      </trkpt>
      <trkpt lat="36.813045501709" lon="-5.1605429649353">
        <ele>757</ele>
        <time>2019-05-11T16:00:02Z</time>
      </trkpt>
      <trkpt lat="36.813060760498" lon="-5.16054010391235">
        <ele>757</ele>
        <time>2019-05-11T16:00:04Z</time>
      </trkpt>
      <trkpt lat="36.8130836486816" lon="-5.16053676605225">
        <ele>758</ele>
        <time>2019-05-11T16:00:06Z</time>
      </trkpt>
      <trkpt lat="36.8130989074707" lon="-5.16053485870361">
        <ele>758</ele>
        <time>2019-05-11T16:00:08Z</time>
      </trkpt>
      <trkpt lat="36.813117980957" lon="-5.16053199768066">
        <ele>759</ele>
        <time>2019-05-11T16:00:11Z</time>
      </trkpt>
      <trkpt lat="36.8131332397461" lon="-5.16053199768066">
        <ele>759</ele>
        <time>2019-05-11T16:00:13Z</time>
      </trkpt>
      <trkpt lat="36.8131484985352" lon="-5.16053009033203">
        <ele>760</ele>
        <time>2019-05-11T16:00:15Z</time>
      </trkpt>
      <trkpt lat="36.8131675720215" lon="-5.16052722930908">
        <ele>760</ele>
        <time>2019-05-11T16:00:17Z</time>
      </trkpt>
      <trkpt lat="36.8131866455078" lon="-5.16052484512329">
        <ele>760</ele>
        <time>2019-05-11T16:00:19Z</time>
      </trkpt>
      <trkpt lat="36.8132057189941" lon="-5.16052007675171">
        <ele>761</ele>
        <time>2019-05-11T16:00:21Z</time>
      </trkpt>
      <trkpt lat="36.8132286071777" lon="-5.16051816940308">
        <ele>761</ele>
        <time>2019-05-11T16:00:23Z</time>
      </trkpt>
      <trkpt lat="36.8132514953613" lon="-5.16051816940308">
        <ele>761</ele>
        <time>2019-05-11T16:00:25Z</time>
      </trkpt>
      <trkpt lat="36.8132667541504" lon="-5.16051483154297">
        <ele>762</ele>
        <time>2019-05-11T16:00:27Z</time>
      </trkpt>
      <trkpt lat="36.8132820129394" lon="-5.16050815582275">
        <ele>762</ele>
        <time>2019-05-11T16:00:29Z</time>
      </trkpt>
      <trkpt lat="36.8133010864258" lon="-5.16050481796265">
        <ele>762</ele>
        <time>2019-05-11T16:00:31Z</time>
      </trkpt>
      <trkpt lat="36.8133201599121" lon="-5.1605019569397">
        <ele>763</ele>
        <time>2019-05-11T16:00:33Z</time>
      </trkpt>
      <trkpt lat="36.8133506774902" lon="-5.16049718856812">
        <ele>763</ele>
        <time>2019-05-11T16:00:35Z</time>
      </trkpt>
      <trkpt lat="36.8133735656738" lon="-5.16049480438232">
        <ele>764</ele>
        <time>2019-05-11T16:00:37Z</time>
      </trkpt>
      <trkpt lat="36.8133888244629" lon="-5.16049003601074">
        <ele>764</ele>
        <time>2019-05-11T16:00:39Z</time>
      </trkpt>
      <trkpt lat="36.8134117126465" lon="-5.16048812866211">
        <ele>765</ele>
        <time>2019-05-11T16:00:41Z</time>
      </trkpt>
      <trkpt lat="36.8134269714356" lon="-5.160484790802">
        <ele>765</ele>
        <time>2019-05-11T16:00:43Z</time>
      </trkpt>
      <trkpt lat="36.8134460449219" lon="-5.16048192977905">
        <ele>766</ele>
        <time>2019-05-11T16:00:45Z</time>
      </trkpt>
      <trkpt lat="36.8134651184082" lon="-5.16048002243042">
        <ele>766</ele>
        <time>2019-05-11T16:00:48Z</time>
      </trkpt>
      <trkpt lat="36.8134880065918" lon="-5.16047811508179">
        <ele>767</ele>
        <time>2019-05-11T16:00:50Z</time>
      </trkpt>
      <trkpt lat="36.8135070800781" lon="-5.16047716140747">
        <ele>767</ele>
        <time>2019-05-11T16:00:52Z</time>
      </trkpt>
      <trkpt lat="36.8135261535644" lon="-5.16047477722168">
        <ele>767</ele>
        <time>2019-05-11T16:00:54Z</time>
      </trkpt>
      <trkpt lat="36.813549041748" lon="-5.16047477722168">
        <ele>767</ele>
        <time>2019-05-11T16:00:56Z</time>
      </trkpt>
      <trkpt lat="36.8135681152344" lon="-5.16047286987305">
        <ele>768</ele>
        <time>2019-05-11T16:00:58Z</time>
      </trkpt>
      <trkpt lat="36.8135871887207" lon="-5.1604700088501">
        <ele>768</ele>
        <time>2019-05-11T16:01:00Z</time>
      </trkpt>
      <trkpt lat="36.813606262207" lon="-5.1604700088501">
        <ele>768</ele>
        <time>2019-05-11T16:01:02Z</time>
      </trkpt>
      <trkpt lat="36.8136253356934" lon="-5.16046810150146">
        <ele>769</ele>
        <time>2019-05-11T16:01:04Z</time>
      </trkpt>
      <trkpt lat="36.813648223877" lon="-5.16047191619873">
        <ele>769</ele>
        <time>2019-05-11T16:01:06Z</time>
      </trkpt>
      <trkpt lat="36.8136672973633" lon="-5.16047477722168">
        <ele>770</ele>
        <time>2019-05-11T16:01:08Z</time>
      </trkpt>
      <trkpt lat="36.8136863708496" lon="-5.16048002243042">
        <ele>770</ele>
        <time>2019-05-11T16:01:10Z</time>
      </trkpt>
      <trkpt lat="36.8137016296387" lon="-5.16048288345337">
        <ele>770</ele>
        <time>2019-05-11T16:01:12Z</time>
      </trkpt>
      <trkpt lat="36.8137168884277" lon="-5.16049003601074">
        <ele>770</ele>
        <time>2019-05-11T16:01:14Z</time>
      </trkpt>
      <trkpt lat="36.8137435913086" lon="-5.16050004959106">
        <ele>771</ele>
        <time>2019-05-11T16:01:16Z</time>
      </trkpt>
      <trkpt lat="36.8137588500977" lon="-5.16050291061401">
        <ele>771</ele>
        <time>2019-05-11T16:01:18Z</time>
      </trkpt>
      <trkpt lat="36.813777923584" lon="-5.16050720214844">
        <ele>771</ele>
        <time>2019-05-11T16:01:20Z</time>
      </trkpt>
      <trkpt lat="36.813793182373" lon="-5.16051292419434">
        <ele>771</ele>
        <time>2019-05-11T16:01:22Z</time>
      </trkpt>
      <trkpt lat="36.8138084411621" lon="-5.16052293777466">
        <ele>771</ele>
        <time>2019-05-11T16:01:24Z</time>
      </trkpt>
      <trkpt lat="36.8138236999512" lon="-5.16053199768066">
        <ele>771</ele>
        <time>2019-05-11T16:01:26Z</time>
      </trkpt>
      <trkpt lat="36.813835144043" lon="-5.16054201126099">
        <ele>771</ele>
        <time>2019-05-11T16:01:29Z</time>
      </trkpt>
      <trkpt lat="36.8138465881348" lon="-5.16055011749268">
        <ele>771</ele>
        <time>2019-05-11T16:01:31Z</time>
      </trkpt>
      <trkpt lat="36.8138542175293" lon="-5.16055679321289">
        <ele>771</ele>
        <time>2019-05-11T16:01:33Z</time>
      </trkpt>
      <trkpt lat="36.8138618469238" lon="-5.16057014465332">
        <ele>771</ele>
        <time>2019-05-11T16:01:35Z</time>
      </trkpt>
      <trkpt lat="36.8138656616211" lon="-5.16058683395386">
        <ele>771</ele>
        <time>2019-05-11T16:01:37Z</time>
      </trkpt>
      <trkpt lat="36.8138732910156" lon="-5.16060495376587">
        <ele>771</ele>
        <time>2019-05-11T16:01:39Z</time>
      </trkpt>
      <trkpt lat="36.8138656616211" lon="-5.16061687469482">
        <ele>772</ele>
        <time>2019-05-11T16:01:41Z</time>
      </trkpt>
      <trkpt lat="36.8138618469238" lon="-5.16061687469482">
        <ele>772</ele>
        <time>2019-05-11T16:01:43Z</time>
      </trkpt>
      <trkpt lat="36.8138656616211" lon="-5.16061782836914">
        <ele>773</ele>
        <time>2019-05-11T16:01:45Z</time>
      </trkpt>
      <trkpt lat="36.8138618469238" lon="-5.16061782836914">
        <ele>773</ele>
        <time>2019-05-11T16:01:47Z</time>
      </trkpt>
      <trkpt lat="36.8138618469238" lon="-5.16062021255493">
        <ele>773</ele>
        <time>2019-05-11T16:01:49Z</time>
      </trkpt>
      <trkpt lat="36.8138656616211" lon="-5.16062021255493">
        <ele>773</ele>
        <time>2019-05-11T16:01:51Z</time>
      </trkpt>
      <trkpt lat="36.8138656616211" lon="-5.16062211990356">
        <ele>773</ele>
        <time>2019-05-11T16:01:53Z</time>
      </trkpt>
      <trkpt lat="36.8138694763184" lon="-5.16062211990356">
        <ele>773</ele>
        <time>2019-05-11T16:01:55Z</time>
      </trkpt>
      <trkpt lat="36.8138694763184" lon="-5.16062211990356">
        <ele>773</ele>
        <time>2019-05-11T16:01:57Z</time>
      </trkpt>
      <trkpt lat="36.8138694763184" lon="-5.16062307357788">
        <ele>774</ele>
        <time>2019-05-11T16:02:03Z</time>
      </trkpt>
      <trkpt lat="36.8138694763184" lon="-5.16062688827515">
        <ele>774</ele>
        <time>2019-05-11T16:02:05Z</time>
      </trkpt>
      <trkpt lat="36.8138694763184" lon="-5.16062498092651">
        <ele>774</ele>
        <time>2019-05-11T16:02:07Z</time>
      </trkpt>
      <trkpt lat="36.8138694763184" lon="-5.16062688827515">
        <ele>774</ele>
        <time>2019-05-11T16:02:09Z</time>
      </trkpt>
      <trkpt lat="36.8138694763184" lon="-5.16062688827515">
        <ele>774</ele>
        <time>2019-05-11T16:02:11Z</time>
      </trkpt>
      <trkpt lat="36.8138694763184" lon="-5.16062784194946">
        <ele>774</ele>
        <time>2019-05-11T16:02:13Z</time>
      </trkpt>
      <trkpt lat="36.8138656616211" lon="-5.16063022613525">
        <ele>774</ele>
        <time>2019-05-11T16:02:15Z</time>
      </trkpt>
      <trkpt lat="36.8138656616211" lon="-5.16063022613525">
        <ele>774</ele>
        <time>2019-05-11T16:02:17Z</time>
      </trkpt>
      <trkpt lat="36.8138656616211" lon="-5.16063499450684">
        <ele>774</ele>
        <time>2019-05-11T16:02:19Z</time>
      </trkpt>
      <trkpt lat="36.8138656616211" lon="-5.16063690185547">
        <ele>774</ele>
        <time>2019-05-11T16:02:21Z</time>
      </trkpt>
      <trkpt lat="36.8138656616211" lon="-5.16065311431885">
        <ele>774</ele>
        <time>2019-05-11T16:02:24Z</time>
      </trkpt>
      <trkpt lat="36.8138618469238" lon="-5.16066980361938">
        <ele>775</ele>
        <time>2019-05-11T16:02:26Z</time>
      </trkpt>
      <trkpt lat="36.8138618469238" lon="-5.16068983078003">
        <ele>775</ele>
        <time>2019-05-11T16:02:28Z</time>
      </trkpt>
      <trkpt lat="36.8138618469238" lon="-5.16070699691772">
        <ele>776</ele>
        <time>2019-05-11T16:02:30Z</time>
      </trkpt>
      <trkpt lat="36.8138580322266" lon="-5.16072511672974">
        <ele>776</ele>
        <time>2019-05-11T16:02:32Z</time>
      </trkpt>
      <trkpt lat="36.813850402832" lon="-5.16074180603027">
        <ele>776</ele>
        <time>2019-05-11T16:02:34Z</time>
      </trkpt>
      <trkpt lat="36.8138427734375" lon="-5.16075706481934">
        <ele>777</ele>
        <time>2019-05-11T16:02:36Z</time>
      </trkpt>
      <trkpt lat="36.8138313293457" lon="-5.16076517105103">
        <ele>777</ele>
        <time>2019-05-11T16:02:38Z</time>
      </trkpt>
      <trkpt lat="36.8138198852539" lon="-5.16076993942261">
        <ele>778</ele>
        <time>2019-05-11T16:02:42Z</time>
      </trkpt>
      <trkpt lat="36.8138084411621" lon="-5.16077709197998">
        <ele>778</ele>
        <time>2019-05-11T16:02:44Z</time>
      </trkpt>
      <trkpt lat="36.8137969970703" lon="-5.16078281402588">
        <ele>779</ele>
        <time>2019-05-11T16:02:46Z</time>
      </trkpt>
      <trkpt lat="36.8137702941894" lon="-5.16078996658325">
        <ele>779</ele>
        <time>2019-05-11T16:02:48Z</time>
      </trkpt>
      <trkpt lat="36.8137512207031" lon="-5.1607928276062">
        <ele>779</ele>
        <time>2019-05-11T16:02:50Z</time>
      </trkpt>
      <trkpt lat="36.8137321472168" lon="-5.16079998016357">
        <ele>780</ele>
        <time>2019-05-11T16:02:52Z</time>
      </trkpt>
      <trkpt lat="36.813720703125" lon="-5.16080522537231">
        <ele>781</ele>
        <time>2019-05-11T16:02:54Z</time>
      </trkpt>
      <trkpt lat="36.8137092590332" lon="-5.1608099937439">
        <ele>782</ele>
        <time>2019-05-11T16:02:56Z</time>
      </trkpt>
      <trkpt lat="36.8136901855469" lon="-5.16081809997559">
        <ele>782</ele>
        <time>2019-05-11T16:02:58Z</time>
      </trkpt>
      <trkpt lat="36.8136711120606" lon="-5.16082715988159">
        <ele>783</ele>
        <time>2019-05-11T16:03:01Z</time>
      </trkpt>
      <trkpt lat="36.8136520385742" lon="-5.16083002090454">
        <ele>783</ele>
        <time>2019-05-11T16:03:03Z</time>
      </trkpt>
      <trkpt lat="36.8136367797852" lon="-5.16083812713623">
        <ele>784</ele>
        <time>2019-05-11T16:03:05Z</time>
      </trkpt>
      <trkpt lat="36.8136177062988" lon="-5.16084718704224">
        <ele>784</ele>
        <time>2019-05-11T16:03:07Z</time>
      </trkpt>
      <trkpt lat="36.8136024475098" lon="-5.16085815429688">
        <ele>785</ele>
        <time>2019-05-11T16:03:09Z</time>
      </trkpt>
      <trkpt lat="36.8135833740234" lon="-5.16086483001709">
        <ele>785</ele>
        <time>2019-05-11T16:03:11Z</time>
      </trkpt>
      <trkpt lat="36.8135643005371" lon="-5.1608772277832">
        <ele>785</ele>
        <time>2019-05-11T16:03:13Z</time>
      </trkpt>
      <trkpt lat="36.8135452270508" lon="-5.16088485717773">
        <ele>786</ele>
        <time>2019-05-11T16:03:15Z</time>
      </trkpt>
      <trkpt lat="36.8135261535644" lon="-5.16089820861816">
        <ele>786</ele>
        <time>2019-05-11T16:03:17Z</time>
      </trkpt>
      <trkpt lat="36.8135108947754" lon="-5.16090679168701">
        <ele>786</ele>
        <time>2019-05-11T16:03:19Z</time>
      </trkpt>
      <trkpt lat="36.8134880065918" lon="-5.16091823577881">
        <ele>786</ele>
        <time>2019-05-11T16:03:21Z</time>
      </trkpt>
      <trkpt lat="36.8134651184082" lon="-5.16092777252197">
        <ele>786</ele>
        <time>2019-05-11T16:03:23Z</time>
      </trkpt>
      <trkpt lat="36.8134346008301" lon="-5.16095018386841">
        <ele>786</ele>
        <time>2019-05-11T16:03:25Z</time>
      </trkpt>
      <trkpt lat="36.8134117126465" lon="-5.16096305847168">
        <ele>786</ele>
        <time>2019-05-11T16:03:27Z</time>
      </trkpt>
      <trkpt lat="36.8133888244629" lon="-5.16097784042358">
        <ele>786</ele>
        <time>2019-05-11T16:03:29Z</time>
      </trkpt>
      <trkpt lat="36.8133659362793" lon="-5.16099691390991">
        <ele>786</ele>
        <time>2019-05-11T16:03:31Z</time>
      </trkpt>
      <trkpt lat="36.813346862793" lon="-5.16101312637329">
        <ele>786</ele>
        <time>2019-05-11T16:03:33Z</time>
      </trkpt>
      <trkpt lat="36.8133201599121" lon="-5.16102981567383">
        <ele>786</ele>
        <time>2019-05-11T16:03:36Z</time>
      </trkpt>
      <trkpt lat="36.8133010864258" lon="-5.16104793548584">
        <ele>786</ele>
        <time>2019-05-11T16:03:38Z</time>
      </trkpt>
      <trkpt lat="36.8132858276367" lon="-5.1610631942749">
        <ele>786</ele>
        <time>2019-05-11T16:03:40Z</time>
      </trkpt>
      <trkpt lat="36.8132667541504" lon="-5.16107702255249">
        <ele>785</ele>
        <time>2019-05-11T16:03:42Z</time>
      </trkpt>
      <trkpt lat="36.8132438659668" lon="-5.16110277175903">
        <ele>784</ele>
        <time>2019-05-11T16:03:44Z</time>
      </trkpt>
      <trkpt lat="36.8132286071777" lon="-5.16111707687378">
        <ele>784</ele>
        <time>2019-05-11T16:03:46Z</time>
      </trkpt>
      <trkpt lat="36.8132095336914" lon="-5.1611328125">
        <ele>783</ele>
        <time>2019-05-11T16:03:48Z</time>
      </trkpt>
      <trkpt lat="36.8131904602051" lon="-5.16115283966064">
        <ele>783</ele>
        <time>2019-05-11T16:03:50Z</time>
      </trkpt>
      <trkpt lat="36.8131637573242" lon="-5.16117191314697">
        <ele>782</ele>
        <time>2019-05-11T16:03:52Z</time>
      </trkpt>
      <trkpt lat="36.8131408691406" lon="-5.16119003295898">
        <ele>781</ele>
        <time>2019-05-11T16:03:54Z</time>
      </trkpt>
      <trkpt lat="36.8131217956543" lon="-5.16121006011963">
        <ele>781</ele>
        <time>2019-05-11T16:03:56Z</time>
      </trkpt>
      <trkpt lat="36.8130989074707" lon="-5.1612229347229">
        <ele>781</ele>
        <time>2019-05-11T16:03:58Z</time>
      </trkpt>
      <trkpt lat="36.8130722045898" lon="-5.16124677658081">
        <ele>781</ele>
        <time>2019-05-11T16:04:00Z</time>
      </trkpt>
      <trkpt lat="36.8130531311035" lon="-5.16126298904419">
        <ele>781</ele>
        <time>2019-05-11T16:04:02Z</time>
      </trkpt>
      <trkpt lat="36.8130302429199" lon="-5.1612720489502">
        <ele>781</ele>
        <time>2019-05-11T16:04:04Z</time>
      </trkpt>
      <trkpt lat="36.8130073547363" lon="-5.1612868309021">
        <ele>781</ele>
        <time>2019-05-11T16:04:06Z</time>
      </trkpt>
      <trkpt lat="36.8129920959473" lon="-5.16130018234253">
        <ele>780</ele>
        <time>2019-05-11T16:04:08Z</time>
      </trkpt>
      <trkpt lat="36.8129730224609" lon="-5.16131019592285">
        <ele>780</ele>
        <time>2019-05-11T16:04:11Z</time>
      </trkpt>
      <trkpt lat="36.8129539489746" lon="-5.16132020950317">
        <ele>780</ele>
        <time>2019-05-11T16:04:13Z</time>
      </trkpt>
      <trkpt lat="36.8129348754883" lon="-5.16133689880371">
        <ele>779</ele>
        <time>2019-05-11T16:04:15Z</time>
      </trkpt>
      <trkpt lat="36.8129196166992" lon="-5.16134977340698">
        <ele>779</ele>
        <time>2019-05-11T16:04:17Z</time>
      </trkpt>
      <trkpt lat="36.8129043579102" lon="-5.16136693954468">
        <ele>779</ele>
        <time>2019-05-11T16:04:19Z</time>
      </trkpt>
      <trkpt lat="36.8128852844238" lon="-5.16138982772827">
        <ele>779</ele>
        <time>2019-05-11T16:04:21Z</time>
      </trkpt>
      <trkpt lat="36.812873840332" lon="-5.16141319274902">
        <ele>779</ele>
        <time>2019-05-11T16:04:23Z</time>
      </trkpt>
      <trkpt lat="36.8128662109375" lon="-5.16143798828125">
        <ele>779</ele>
        <time>2019-05-11T16:04:25Z</time>
      </trkpt>
      <trkpt lat="36.8128662109375" lon="-5.16145992279053">
        <ele>779</ele>
        <time>2019-05-11T16:04:27Z</time>
      </trkpt>
      <trkpt lat="36.812873840332" lon="-5.16148281097412">
        <ele>779</ele>
        <time>2019-05-11T16:04:29Z</time>
      </trkpt>
      <trkpt lat="36.8128852844238" lon="-5.16150188446045">
        <ele>779</ele>
        <time>2019-05-11T16:04:31Z</time>
      </trkpt>
      <trkpt lat="36.8129005432129" lon="-5.16151285171509">
        <ele>779</ele>
        <time>2019-05-11T16:04:33Z</time>
      </trkpt>
      <trkpt lat="36.8129348754883" lon="-5.16152811050415">
        <ele>779</ele>
        <time>2019-05-11T16:04:35Z</time>
      </trkpt>
      <trkpt lat="36.8129539489746" lon="-5.16153812408447">
        <ele>779</ele>
        <time>2019-05-11T16:04:37Z</time>
      </trkpt>
      <trkpt lat="36.8129768371582" lon="-5.16153812408447">
        <ele>779</ele>
        <time>2019-05-11T16:04:39Z</time>
      </trkpt>
      <trkpt lat="36.8129997253418" lon="-5.16153001785278">
        <ele>779</ele>
        <time>2019-05-11T16:04:41Z</time>
      </trkpt>
      <trkpt lat="36.8130187988281" lon="-5.16152477264404">
        <ele>779</ele>
        <time>2019-05-11T16:04:43Z</time>
      </trkpt>
      <trkpt lat="36.813045501709" lon="-5.16152191162109">
        <ele>779</ele>
        <time>2019-05-11T16:04:45Z</time>
      </trkpt>
      <trkpt lat="36.8130683898926" lon="-5.16151809692383">
        <ele>779</ele>
        <time>2019-05-11T16:04:48Z</time>
      </trkpt>
      <trkpt lat="36.8130912780762" lon="-5.16151809692383">
        <ele>779</ele>
        <time>2019-05-11T16:04:50Z</time>
      </trkpt>
      <trkpt lat="36.8131141662598" lon="-5.16152000427246">
        <ele>779</ele>
        <time>2019-05-11T16:04:52Z</time>
      </trkpt>
      <trkpt lat="36.8131256103516" lon="-5.16152191162109">
        <ele>779</ele>
        <time>2019-05-11T16:04:54Z</time>
      </trkpt>
      <trkpt lat="36.8131370544434" lon="-5.16152000427246">
        <ele>779</ele>
        <time>2019-05-11T16:04:56Z</time>
      </trkpt>
      <trkpt lat="36.8131370544434" lon="-5.16152000427246">
        <ele>779</ele>
        <time>2019-05-11T16:04:58Z</time>
      </trkpt>
      <trkpt lat="36.8131408691406" lon="-5.16151809692383">
        <ele>779</ele>
        <time>2019-05-11T16:05:00Z</time>
      </trkpt>
      <trkpt lat="36.8131370544434" lon="-5.16152191162109">
        <ele>779</ele>
        <time>2019-05-11T16:05:02Z</time>
      </trkpt>
      <trkpt lat="36.8131370544434" lon="-5.16152191162109">
        <ele>779</ele>
        <time>2019-05-11T16:05:04Z</time>
      </trkpt>
      <trkpt lat="36.8131370544434" lon="-5.16152000427246">
        <ele>779</ele>
        <time>2019-05-11T16:05:06Z</time>
      </trkpt>
      <trkpt lat="36.8131408691406" lon="-5.16152000427246">
        <ele>779</ele>
        <time>2019-05-11T16:05:08Z</time>
      </trkpt>
      <trkpt lat="36.8131408691406" lon="-5.16151809692383">
        <ele>779</ele>
        <time>2019-05-11T16:05:10Z</time>
      </trkpt>
      <trkpt lat="36.8131408691406" lon="-5.16151809692383">
        <ele>779</ele>
        <time>2019-05-11T16:05:12Z</time>
      </trkpt>
      <trkpt lat="36.8131370544434" lon="-5.16151809692383">
        <ele>779</ele>
        <time>2019-05-11T16:05:14Z</time>
      </trkpt>
      <trkpt lat="36.8131370544434" lon="-5.16151809692383">
        <ele>779</ele>
        <time>2019-05-11T16:05:16Z</time>
      </trkpt>
      <trkpt lat="36.8131408691406" lon="-5.16152191162109">
        <ele>781</ele>
        <time>2019-05-11T16:05:26Z</time>
      </trkpt>
      <trkpt lat="36.8131408691406" lon="-5.16152191162109">
        <ele>781</ele>
        <time>2019-05-11T16:05:28Z</time>
      </trkpt>
      <trkpt lat="36.8131408691406" lon="-5.16152191162109">
        <ele>781</ele>
        <time>2019-05-11T16:05:30Z</time>
      </trkpt>
      <trkpt lat="36.8131408691406" lon="-5.16152477264404">
        <ele>781</ele>
        <time>2019-05-11T16:05:32Z</time>
      </trkpt>
      <trkpt lat="36.8131408691406" lon="-5.16152715682983">
        <ele>781</ele>
        <time>2019-05-11T16:05:34Z</time>
      </trkpt>
      <trkpt lat="36.8131408691406" lon="-5.16152715682983">
        <ele>781</ele>
        <time>2019-05-11T16:05:36Z</time>
      </trkpt>
      <trkpt lat="36.8131408691406" lon="-5.16152715682983">
        <ele>781</ele>
        <time>2019-05-11T16:05:38Z</time>
      </trkpt>
      <trkpt lat="36.8131446838379" lon="-5.16152477264404">
        <ele>781</ele>
        <time>2019-05-11T16:05:40Z</time>
      </trkpt>
      <trkpt lat="36.8131446838379" lon="-5.16152286529541">
        <ele>781</ele>
        <time>2019-05-11T16:05:42Z</time>
      </trkpt>
      <trkpt lat="36.8131446838379" lon="-5.16152477264404">
        <ele>781</ele>
        <time>2019-05-11T16:05:44Z</time>
      </trkpt>
      <trkpt lat="36.8131446838379" lon="-5.16152477264404">
        <ele>781</ele>
        <time>2019-05-11T16:05:47Z</time>
      </trkpt>
      <trkpt lat="36.8131446838379" lon="-5.16152477264404">
        <ele>781</ele>
        <time>2019-05-11T16:05:49Z</time>
      </trkpt>
      <trkpt lat="36.8131408691406" lon="-5.16152286529541">
        <ele>781</ele>
        <time>2019-05-11T16:05:51Z</time>
      </trkpt>
      <trkpt lat="36.8131446838379" lon="-5.16152000427246">
        <ele>781</ele>
        <time>2019-05-11T16:05:53Z</time>
      </trkpt>
      <trkpt lat="36.8131523132324" lon="-5.16151285171509">
        <ele>781</ele>
        <time>2019-05-11T16:05:55Z</time>
      </trkpt>
      <trkpt lat="36.8131713867188" lon="-5.16150712966919">
        <ele>781</ele>
        <time>2019-05-11T16:05:57Z</time>
      </trkpt>
      <trkpt lat="36.8131866455078" lon="-5.16149997711182">
        <ele>781</ele>
        <time>2019-05-11T16:05:59Z</time>
      </trkpt>
      <trkpt lat="36.8132095336914" lon="-5.16149711608887">
        <ele>781</ele>
        <time>2019-05-11T16:06:01Z</time>
      </trkpt>
      <trkpt lat="36.8132286071777" lon="-5.16149282455444">
        <ele>781</ele>
        <time>2019-05-11T16:06:03Z</time>
      </trkpt>
      <trkpt lat="36.8132476806641" lon="-5.16149187088013">
        <ele>781</ele>
        <time>2019-05-11T16:06:05Z</time>
      </trkpt>
      <trkpt lat="36.8132629394531" lon="-5.1614818572998">
        <ele>782</ele>
        <time>2019-05-11T16:06:07Z</time>
      </trkpt>
      <trkpt lat="36.8132781982422" lon="-5.1614670753479">
        <ele>782</ele>
        <time>2019-05-11T16:06:09Z</time>
      </trkpt>
      <trkpt lat="36.8132972717285" lon="-5.16145801544189">
        <ele>782</ele>
        <time>2019-05-11T16:06:11Z</time>
      </trkpt>
      <trkpt lat="36.8133163452148" lon="-5.1614499092102">
        <ele>783</ele>
        <time>2019-05-11T16:06:13Z</time>
      </trkpt>
      <trkpt lat="36.8133430480957" lon="-5.16143798828125">
        <ele>783</ele>
        <time>2019-05-11T16:06:15Z</time>
      </trkpt>
      <trkpt lat="36.8133583068848" lon="-5.1614351272583">
        <ele>783</ele>
        <time>2019-05-11T16:06:17Z</time>
      </trkpt>
      <trkpt lat="36.8133773803711" lon="-5.16142702102661">
        <ele>784</ele>
        <time>2019-05-11T16:06:19Z</time>
      </trkpt>
      <trkpt lat="36.8133926391602" lon="-5.16142177581787">
        <ele>784</ele>
        <time>2019-05-11T16:06:21Z</time>
      </trkpt>
      <trkpt lat="36.8134117126465" lon="-5.16141796112061">
        <ele>784</ele>
        <time>2019-05-11T16:06:23Z</time>
      </trkpt>
      <trkpt lat="36.8134346008301" lon="-5.16141796112061">
        <ele>784</ele>
        <time>2019-05-11T16:06:26Z</time>
      </trkpt>
      <trkpt lat="36.8134574890137" lon="-5.16141796112061">
        <ele>784</ele>
        <time>2019-05-11T16:06:28Z</time>
      </trkpt>
      <trkpt lat="36.8134803771973" lon="-5.16141796112061">
        <ele>784</ele>
        <time>2019-05-11T16:06:30Z</time>
      </trkpt>
      <trkpt lat="36.8135032653809" lon="-5.16141176223755">
        <ele>785</ele>
        <time>2019-05-11T16:06:32Z</time>
      </trkpt>
      <trkpt lat="36.8135223388672" lon="-5.16140508651733">
        <ele>785</ele>
        <time>2019-05-11T16:06:34Z</time>
      </trkpt>
      <trkpt lat="36.8135414123535" lon="-5.16139984130859">
        <ele>785</ele>
        <time>2019-05-11T16:06:36Z</time>
      </trkpt>
      <trkpt lat="36.8135643005371" lon="-5.1614031791687">
        <ele>786</ele>
        <time>2019-05-11T16:06:38Z</time>
      </trkpt>
      <trkpt lat="36.8135833740234" lon="-5.16140222549438">
        <ele>786</ele>
        <time>2019-05-11T16:06:40Z</time>
      </trkpt>
      <trkpt lat="36.8136024475098" lon="-5.16139793395996">
        <ele>787</ele>
        <time>2019-05-11T16:06:42Z</time>
      </trkpt>
      <trkpt lat="36.8136138916016" lon="-5.16139316558838">
        <ele>787</ele>
        <time>2019-05-11T16:06:44Z</time>
      </trkpt>
      <trkpt lat="36.8136291503906" lon="-5.16138505935669">
        <ele>788</ele>
        <time>2019-05-11T16:06:46Z</time>
      </trkpt>
      <trkpt lat="36.813648223877" lon="-5.16137981414795">
        <ele>788</ele>
        <time>2019-05-11T16:06:48Z</time>
      </trkpt>
      <trkpt lat="36.813663482666" lon="-5.16137790679932">
        <ele>788</ele>
        <time>2019-05-11T16:06:50Z</time>
      </trkpt>
      <trkpt lat="36.8136825561523" lon="-5.161376953125">
        <ele>788</ele>
        <time>2019-05-11T16:06:52Z</time>
      </trkpt>
      <trkpt lat="36.8137092590332" lon="-5.16137313842773">
        <ele>789</ele>
        <time>2019-05-11T16:06:54Z</time>
      </trkpt>
      <trkpt lat="36.8137321472168" lon="-5.16136980056763">
        <ele>789</ele>
        <time>2019-05-11T16:06:56Z</time>
      </trkpt>
      <trkpt lat="36.8137550354004" lon="-5.16136789321899">
        <ele>789</ele>
        <time>2019-05-11T16:06:58Z</time>
      </trkpt>
      <trkpt lat="36.813777923584" lon="-5.16136503219604">
        <ele>789</ele>
        <time>2019-05-11T16:07:00Z</time>
      </trkpt>
      <trkpt lat="36.8138008117676" lon="-5.16136312484741">
        <ele>790</ele>
        <time>2019-05-11T16:07:02Z</time>
      </trkpt>
      <trkpt lat="36.8138236999512" lon="-5.1613621711731">
        <ele>790</ele>
        <time>2019-05-11T16:07:05Z</time>
      </trkpt>
      <trkpt lat="36.8138465881348" lon="-5.1613597869873">
        <ele>790</ele>
        <time>2019-05-11T16:07:07Z</time>
      </trkpt>
      <trkpt lat="36.8138732910156" lon="-5.16135692596436">
        <ele>791</ele>
        <time>2019-05-11T16:07:09Z</time>
      </trkpt>
      <trkpt lat="36.8138961791992" lon="-5.16135215759277">
        <ele>791</ele>
        <time>2019-05-11T16:07:11Z</time>
      </trkpt>
      <trkpt lat="36.8139228820801" lon="-5.16134691238403">
        <ele>791</ele>
        <time>2019-05-11T16:07:13Z</time>
      </trkpt>
      <trkpt lat="36.8139457702637" lon="-5.1613450050354">
        <ele>792</ele>
        <time>2019-05-11T16:07:15Z</time>
      </trkpt>
      <trkpt lat="36.8139724731445" lon="-5.16134023666382">
        <ele>792</ele>
        <time>2019-05-11T16:07:17Z</time>
      </trkpt>
      <trkpt lat="36.8139991760254" lon="-5.16133499145508">
        <ele>792</ele>
        <time>2019-05-11T16:07:19Z</time>
      </trkpt>
      <trkpt lat="36.814022064209" lon="-5.1613302230835">
        <ele>792</ele>
        <time>2019-05-11T16:07:21Z</time>
      </trkpt>
      <trkpt lat="36.8140487670898" lon="-5.16132688522339">
        <ele>792</ele>
        <time>2019-05-11T16:07:23Z</time>
      </trkpt>
      <trkpt lat="36.8140716552734" lon="-5.16132020950317">
        <ele>793</ele>
        <time>2019-05-11T16:07:25Z</time>
      </trkpt>
      <trkpt lat="36.8140983581543" lon="-5.16131687164307">
        <ele>793</ele>
        <time>2019-05-11T16:07:27Z</time>
      </trkpt>
      <trkpt lat="36.814136505127" lon="-5.16130685806274">
        <ele>793</ele>
        <time>2019-05-11T16:07:29Z</time>
      </trkpt>
      <trkpt lat="36.8141632080078" lon="-5.16130208969116">
        <ele>794</ele>
        <time>2019-05-11T16:07:31Z</time>
      </trkpt>
      <trkpt lat="36.8141860961914" lon="-5.16129493713379">
        <ele>794</ele>
        <time>2019-05-11T16:07:33Z</time>
      </trkpt>
      <trkpt lat="36.8142127990723" lon="-5.16128778457642">
        <ele>795</ele>
        <time>2019-05-11T16:07:35Z</time>
      </trkpt>
      <trkpt lat="36.8142356872559" lon="-5.16128015518188">
        <ele>795</ele>
        <time>2019-05-11T16:07:37Z</time>
      </trkpt>
      <trkpt lat="36.8142585754394" lon="-5.16127300262451">
        <ele>795</ele>
        <time>2019-05-11T16:07:40Z</time>
      </trkpt>
      <trkpt lat="36.814281463623" lon="-5.16126489639282">
        <ele>796</ele>
        <time>2019-05-11T16:07:42Z</time>
      </trkpt>
      <trkpt lat="36.8143081665039" lon="-5.16125297546387">
        <ele>796</ele>
        <time>2019-05-11T16:07:44Z</time>
      </trkpt>
      <trkpt lat="36.8143310546875" lon="-5.16125202178955">
        <ele>796</ele>
        <time>2019-05-11T16:07:46Z</time>
      </trkpt>
      <trkpt lat="36.8143577575684" lon="-5.16125202178955">
        <ele>796</ele>
        <time>2019-05-11T16:07:48Z</time>
      </trkpt>
      <trkpt lat="36.8143844604492" lon="-5.16124677658081">
        <ele>797</ele>
        <time>2019-05-11T16:07:50Z</time>
      </trkpt>
      <trkpt lat="36.8144073486328" lon="-5.1612401008606">
        <ele>797</ele>
        <time>2019-05-11T16:07:52Z</time>
      </trkpt>
      <trkpt lat="36.8144340515137" lon="-5.16123294830322">
        <ele>797</ele>
        <time>2019-05-11T16:07:54Z</time>
      </trkpt>
      <trkpt lat="36.8144607543945" lon="-5.16122484207153">
        <ele>797</ele>
        <time>2019-05-11T16:07:56Z</time>
      </trkpt>
      <trkpt lat="36.8144874572754" lon="-5.16121816635132">
        <ele>798</ele>
        <time>2019-05-11T16:07:58Z</time>
      </trkpt>
      <trkpt lat="36.8145141601562" lon="-5.16121196746826">
        <ele>798</ele>
        <time>2019-05-11T16:08:00Z</time>
      </trkpt>
      <trkpt lat="36.8145408630371" lon="-5.16120481491089">
        <ele>798</ele>
        <time>2019-05-11T16:08:02Z</time>
      </trkpt>
      <trkpt lat="36.814567565918" lon="-5.16119718551636">
        <ele>798</ele>
        <time>2019-05-11T16:08:04Z</time>
      </trkpt>
      <trkpt lat="36.8146057128906" lon="-5.16119003295898">
        <ele>799</ele>
        <time>2019-05-11T16:08:06Z</time>
      </trkpt>
      <trkpt lat="36.8146324157715" lon="-5.16118478775024">
        <ele>799</ele>
        <time>2019-05-11T16:08:08Z</time>
      </trkpt>
      <trkpt lat="36.8146553039551" lon="-5.16118001937866">
        <ele>800</ele>
        <time>2019-05-11T16:08:10Z</time>
      </trkpt>
      <trkpt lat="36.8146820068359" lon="-5.16117286682129">
        <ele>800</ele>
        <time>2019-05-11T16:08:12Z</time>
      </trkpt>
      <trkpt lat="36.8147087097168" lon="-5.16116714477539">
        <ele>800</ele>
        <time>2019-05-11T16:08:14Z</time>
      </trkpt>
      <trkpt lat="36.8147354125977" lon="-5.16116285324097">
        <ele>800</ele>
        <time>2019-05-11T16:08:17Z</time>
      </trkpt>
      <trkpt lat="36.8147583007812" lon="-5.16115999221802">
        <ele>801</ele>
        <time>2019-05-11T16:08:19Z</time>
      </trkpt>
      <trkpt lat="36.8147811889648" lon="-5.16115713119507">
        <ele>801</ele>
        <time>2019-05-11T16:08:21Z</time>
      </trkpt>
      <trkpt lat="36.8148078918457" lon="-5.16115188598633">
        <ele>802</ele>
        <time>2019-05-11T16:08:23Z</time>
      </trkpt>
      <trkpt lat="36.8148193359375" lon="-5.1611499786377">
        <ele>802</ele>
        <time>2019-05-11T16:08:25Z</time>
      </trkpt>
      <trkpt lat="36.8148231506348" lon="-5.1611499786377">
        <ele>803</ele>
        <time>2019-05-11T16:08:29Z</time>
      </trkpt>
      <trkpt lat="36.8148231506348" lon="-5.16115188598633">
        <ele>803</ele>
        <time>2019-05-11T16:08:31Z</time>
      </trkpt>
      <trkpt lat="36.8148231506348" lon="-5.1611499786377">
        <ele>803</ele>
        <time>2019-05-11T16:08:33Z</time>
      </trkpt>
      <trkpt lat="36.8148231506348" lon="-5.16115283966064">
        <ele>804</ele>
        <time>2019-05-11T16:08:41Z</time>
      </trkpt>
      <trkpt lat="36.8148231506348" lon="-5.16115522384644">
        <ele>804</ele>
        <time>2019-05-11T16:08:43Z</time>
      </trkpt>
      <trkpt lat="36.8148384094238" lon="-5.1611499786377">
        <ele>804</ele>
        <time>2019-05-11T16:08:45Z</time>
      </trkpt>
      <trkpt lat="36.8148498535156" lon="-5.16114187240601">
        <ele>804</ele>
        <time>2019-05-11T16:08:47Z</time>
      </trkpt>
      <trkpt lat="36.814868927002" lon="-5.1611328125">
        <ele>804</ele>
        <time>2019-05-11T16:08:49Z</time>
      </trkpt>
      <trkpt lat="36.8149032592773" lon="-5.16112804412842">
        <ele>804</ele>
        <time>2019-05-11T16:08:51Z</time>
      </trkpt>
      <trkpt lat="36.8149261474609" lon="-5.16112804412842">
        <ele>804</ele>
        <time>2019-05-11T16:08:53Z</time>
      </trkpt>
      <trkpt lat="36.8149490356445" lon="-5.16112518310547">
        <ele>804</ele>
        <time>2019-05-11T16:08:55Z</time>
      </trkpt>
      <trkpt lat="36.8149757385254" lon="-5.16112279891968">
        <ele>804</ele>
        <time>2019-05-11T16:08:57Z</time>
      </trkpt>
      <trkpt lat="36.814998626709" lon="-5.16111993789673">
        <ele>804</ele>
        <time>2019-05-11T16:08:59Z</time>
      </trkpt>
      <trkpt lat="36.8150215148926" lon="-5.16111707687378">
        <ele>805</ele>
        <time>2019-05-11T16:09:01Z</time>
      </trkpt>
      <trkpt lat="36.8150482177734" lon="-5.16111183166504">
        <ele>805</ele>
        <time>2019-05-11T16:09:04Z</time>
      </trkpt>
      <trkpt lat="36.8150787353516" lon="-5.16110515594482">
        <ele>806</ele>
        <time>2019-05-11T16:09:06Z</time>
      </trkpt>
      <trkpt lat="36.8151016235352" lon="-5.16109991073608">
        <ele>806</ele>
        <time>2019-05-11T16:09:08Z</time>
      </trkpt>
      <trkpt lat="36.815128326416" lon="-5.1610951423645">
        <ele>807</ele>
        <time>2019-05-11T16:09:10Z</time>
      </trkpt>
      <trkpt lat="36.8151588439941" lon="-5.16108989715576">
        <ele>807</ele>
        <time>2019-05-11T16:09:12Z</time>
      </trkpt>
      <trkpt lat="36.8151817321777" lon="-5.16107988357544">
        <ele>807</ele>
        <time>2019-05-11T16:09:14Z</time>
      </trkpt>
      <trkpt lat="36.8152122497559" lon="-5.16107511520386">
        <ele>808</ele>
        <time>2019-05-11T16:09:16Z</time>
      </trkpt>
      <trkpt lat="36.8152389526367" lon="-5.16106700897217">
        <ele>809</ele>
        <time>2019-05-11T16:09:18Z</time>
      </trkpt>
      <trkpt lat="36.8152656555176" lon="-5.16105794906616">
        <ele>810</ele>
        <time>2019-05-11T16:09:20Z</time>
      </trkpt>
      <trkpt lat="36.8152923583984" lon="-5.16104984283447">
        <ele>811</ele>
        <time>2019-05-11T16:09:22Z</time>
      </trkpt>
      <trkpt lat="36.8153190612793" lon="-5.16104221343994">
        <ele>811</ele>
        <time>2019-05-11T16:09:24Z</time>
      </trkpt>
      <trkpt lat="36.8153457641602" lon="-5.1610369682312">
        <ele>812</ele>
        <time>2019-05-11T16:09:26Z</time>
      </trkpt>
      <trkpt lat="36.8153839111328" lon="-5.16102695465088">
        <ele>812</ele>
        <time>2019-05-11T16:09:28Z</time>
      </trkpt>
      <trkpt lat="36.8154067993164" lon="-5.16101789474487">
        <ele>813</ele>
        <time>2019-05-11T16:09:30Z</time>
      </trkpt>
      <trkpt lat="36.8154258728027" lon="-5.16100978851318">
        <ele>813</ele>
        <time>2019-05-11T16:09:32Z</time>
      </trkpt>
      <trkpt lat="36.8154373168945" lon="-5.16101217269897">
        <ele>814</ele>
        <time>2019-05-11T16:09:34Z</time>
      </trkpt>
      <trkpt lat="36.8154373168945" lon="-5.16100692749023">
        <ele>814</ele>
        <time>2019-05-11T16:09:36Z</time>
      </trkpt>
      <trkpt lat="36.8154411315918" lon="-5.1610050201416">
        <ele>814</ele>
        <time>2019-05-11T16:09:38Z</time>
      </trkpt>
      <trkpt lat="36.8154411315918" lon="-5.16100215911865">
        <ele>814</ele>
        <time>2019-05-11T16:09:41Z</time>
      </trkpt>
      <trkpt lat="36.8154411315918" lon="-5.16100311279297">
        <ele>814</ele>
        <time>2019-05-11T16:09:43Z</time>
      </trkpt>
      <trkpt lat="36.8154411315918" lon="-5.16100311279297">
        <ele>814</ele>
        <time>2019-05-11T16:09:45Z</time>
      </trkpt>
      <trkpt lat="36.8154449462891" lon="-5.16100692749023">
        <ele>814</ele>
        <time>2019-05-11T16:09:47Z</time>
      </trkpt>
      <trkpt lat="36.8154449462891" lon="-5.16101312637329">
        <ele>814</ele>
        <time>2019-05-11T16:09:49Z</time>
      </trkpt>
      <trkpt lat="36.8154563903809" lon="-5.16100978851318">
        <ele>814</ele>
        <time>2019-05-11T16:09:51Z</time>
      </trkpt>
      <trkpt lat="36.8154830932617" lon="-5.16100692749023">
        <ele>814</ele>
        <time>2019-05-11T16:09:53Z</time>
      </trkpt>
      <trkpt lat="36.8155136108398" lon="-5.16100215911865">
        <ele>814</ele>
        <time>2019-05-11T16:09:55Z</time>
      </trkpt>
      <trkpt lat="36.8155403137207" lon="-5.16099691390991">
        <ele>814</ele>
        <time>2019-05-11T16:09:57Z</time>
      </trkpt>
      <trkpt lat="36.8155708312988" lon="-5.1609902381897">
        <ele>814</ele>
        <time>2019-05-11T16:09:59Z</time>
      </trkpt>
      <trkpt lat="36.815601348877" lon="-5.16098785400391">
        <ele>814</ele>
        <time>2019-05-11T16:10:01Z</time>
      </trkpt>
      <trkpt lat="36.8156280517578" lon="-5.16098690032959">
        <ele>815</ele>
        <time>2019-05-11T16:10:03Z</time>
      </trkpt>
      <trkpt lat="36.8156547546387" lon="-5.16098690032959">
        <ele>815</ele>
        <time>2019-05-11T16:10:05Z</time>
      </trkpt>
      <trkpt lat="36.8156814575195" lon="-5.16098690032959">
        <ele>816</ele>
        <time>2019-05-11T16:10:07Z</time>
      </trkpt>
      <trkpt lat="36.8157196044922" lon="-5.16097784042358">
        <ele>816</ele>
        <time>2019-05-11T16:10:09Z</time>
      </trkpt>
      <trkpt lat="36.8157424926758" lon="-5.160973072052">
        <ele>816</ele>
        <time>2019-05-11T16:10:11Z</time>
      </trkpt>
      <trkpt lat="36.8157691955566" lon="-5.16097021102905">
        <ele>816</ele>
        <time>2019-05-11T16:10:13Z</time>
      </trkpt>
      <trkpt lat="36.8157920837402" lon="-5.16096496582031">
        <ele>816</ele>
        <time>2019-05-11T16:10:15Z</time>
      </trkpt>
      <trkpt lat="36.8158187866211" lon="-5.16096019744873">
        <ele>816</ele>
        <time>2019-05-11T16:10:17Z</time>
      </trkpt>
      <trkpt lat="36.8158416748047" lon="-5.16095495223999">
        <ele>816</ele>
        <time>2019-05-11T16:10:20Z</time>
      </trkpt>
      <trkpt lat="36.8158645629883" lon="-5.16095304489136">
        <ele>816</ele>
        <time>2019-05-11T16:10:22Z</time>
      </trkpt>
      <trkpt lat="36.8158874511719" lon="-5.16094779968262">
        <ele>816</ele>
        <time>2019-05-11T16:10:24Z</time>
      </trkpt>
      <trkpt lat="36.8159103393555" lon="-5.16094779968262">
        <ele>816</ele>
        <time>2019-05-11T16:10:26Z</time>
      </trkpt>
      <trkpt lat="36.8159217834473" lon="-5.16095018386841">
        <ele>816</ele>
        <time>2019-05-11T16:10:28Z</time>
      </trkpt>
      <trkpt lat="36.8159294128418" lon="-5.16094303131104">
        <ele>816</ele>
        <time>2019-05-11T16:10:30Z</time>
      </trkpt>
      <trkpt lat="36.8159484863281" lon="-5.16094303131104">
        <ele>816</ele>
        <time>2019-05-11T16:10:32Z</time>
      </trkpt>
      <trkpt lat="36.8159675598144" lon="-5.16094207763672">
        <ele>816</ele>
        <time>2019-05-11T16:10:34Z</time>
      </trkpt>
      <trkpt lat="36.8159866333008" lon="-5.1609377861023">
        <ele>816</ele>
        <time>2019-05-11T16:10:36Z</time>
      </trkpt>
      <trkpt lat="36.8160057067871" lon="-5.16093683242798">
        <ele>816</ele>
        <time>2019-05-11T16:10:38Z</time>
      </trkpt>
      <trkpt lat="36.8160285949707" lon="-5.16093492507935">
        <ele>816</ele>
        <time>2019-05-11T16:10:40Z</time>
      </trkpt>
      <trkpt lat="36.8160514831543" lon="-5.16093683242798">
        <ele>816</ele>
        <time>2019-05-11T16:10:42Z</time>
      </trkpt>
      <trkpt lat="36.8160667419434" lon="-5.16094017028809">
        <ele>816</ele>
        <time>2019-05-11T16:10:44Z</time>
      </trkpt>
      <trkpt lat="36.8161010742188" lon="-5.16094017028809">
        <ele>816</ele>
        <time>2019-05-11T16:10:46Z</time>
      </trkpt>
      <trkpt lat="36.8161201477051" lon="-5.1609377861023">
        <ele>817</ele>
        <time>2019-05-11T16:10:48Z</time>
      </trkpt>
      <trkpt lat="36.8161430358887" lon="-5.1609377861023">
        <ele>817</ele>
        <time>2019-05-11T16:10:50Z</time>
      </trkpt>
      <trkpt lat="36.8161582946777" lon="-5.1609377861023">
        <ele>817</ele>
        <time>2019-05-11T16:10:52Z</time>
      </trkpt>
      <trkpt lat="36.8161811828613" lon="-5.16093301773071">
        <ele>818</ele>
        <time>2019-05-11T16:10:54Z</time>
      </trkpt>
      <trkpt lat="36.8162002563477" lon="-5.16092491149902">
        <ele>818</ele>
        <time>2019-05-11T16:10:57Z</time>
      </trkpt>
      <trkpt lat="36.8162231445312" lon="-5.1609148979187">
        <ele>819</ele>
        <time>2019-05-11T16:10:59Z</time>
      </trkpt>
      <trkpt lat="36.8162460327148" lon="-5.16090488433838">
        <ele>819</ele>
        <time>2019-05-11T16:11:01Z</time>
      </trkpt>
      <trkpt lat="36.8162689208984" lon="-5.16089677810669">
        <ele>820</ele>
        <time>2019-05-11T16:11:03Z</time>
      </trkpt>
      <trkpt lat="36.816291809082" lon="-5.16089200973511">
        <ele>820</ele>
        <time>2019-05-11T16:11:05Z</time>
      </trkpt>
      <trkpt lat="36.8163146972656" lon="-5.1608829498291">
        <ele>821</ele>
        <time>2019-05-11T16:11:07Z</time>
      </trkpt>
      <trkpt lat="36.8163375854492" lon="-5.16087484359741">
        <ele>821</ele>
        <time>2019-05-11T16:11:09Z</time>
      </trkpt>
      <trkpt lat="36.8163604736328" lon="-5.16087198257446">
        <ele>821</ele>
        <time>2019-05-11T16:11:11Z</time>
      </trkpt>
      <trkpt lat="36.8163833618164" lon="-5.16087293624878">
        <ele>822</ele>
        <time>2019-05-11T16:11:13Z</time>
      </trkpt>
      <trkpt lat="36.81640625" lon="-5.16087484359741">
        <ele>822</ele>
        <time>2019-05-11T16:11:15Z</time>
      </trkpt>
      <trkpt lat="36.8164291381836" lon="-5.1608829498291">
        <ele>822</ele>
        <time>2019-05-11T16:11:17Z</time>
      </trkpt>
      <trkpt lat="36.8164482116699" lon="-5.16089200973511">
        <ele>822</ele>
        <time>2019-05-11T16:11:19Z</time>
      </trkpt>
      <trkpt lat="36.8164710998535" lon="-5.16090488433838">
        <ele>822</ele>
        <time>2019-05-11T16:11:21Z</time>
      </trkpt>
      <trkpt lat="36.8164825439453" lon="-5.16091299057007">
        <ele>822</ele>
        <time>2019-05-11T16:11:23Z</time>
      </trkpt>
      <trkpt lat="36.8165016174316" lon="-5.16092300415039">
        <ele>822</ele>
        <time>2019-05-11T16:11:25Z</time>
      </trkpt>
      <trkpt lat="36.8165130615234" lon="-5.1609320640564">
        <ele>822</ele>
        <time>2019-05-11T16:11:27Z</time>
      </trkpt>
      <trkpt lat="36.8165321350098" lon="-5.16093683242798">
        <ele>822</ele>
        <time>2019-05-11T16:11:29Z</time>
      </trkpt>
      <trkpt lat="36.8165512084961" lon="-5.16093301773071">
        <ele>822</ele>
        <time>2019-05-11T16:11:32Z</time>
      </trkpt>
      <trkpt lat="36.8165702819824" lon="-5.1609320640564">
        <ele>822</ele>
        <time>2019-05-11T16:11:34Z</time>
      </trkpt>
      <trkpt lat="36.8165855407715" lon="-5.16093301773071">
        <ele>822</ele>
        <time>2019-05-11T16:11:36Z</time>
      </trkpt>
      <trkpt lat="36.8166084289551" lon="-5.1609377861023">
        <ele>822</ele>
        <time>2019-05-11T16:11:38Z</time>
      </trkpt>
      <trkpt lat="36.8166236877441" lon="-5.1609377861023">
        <ele>822</ele>
        <time>2019-05-11T16:11:40Z</time>
      </trkpt>
      <trkpt lat="36.8166465759277" lon="-5.1609377861023">
        <ele>822</ele>
        <time>2019-05-11T16:11:42Z</time>
      </trkpt>
      <trkpt lat="36.8166618347168" lon="-5.16094017028809">
        <ele>822</ele>
        <time>2019-05-11T16:11:44Z</time>
      </trkpt>
      <trkpt lat="36.8166732788086" lon="-5.16094303131104">
        <ele>822</ele>
        <time>2019-05-11T16:11:46Z</time>
      </trkpt>
      <trkpt lat="36.8166885375977" lon="-5.16094779968262">
        <ele>822</ele>
        <time>2019-05-11T16:11:48Z</time>
      </trkpt>
      <trkpt lat="36.8167037963867" lon="-5.16094779968262">
        <ele>822</ele>
        <time>2019-05-11T16:11:50Z</time>
      </trkpt>
      <trkpt lat="36.816722869873" lon="-5.1609468460083">
        <ele>822</ele>
        <time>2019-05-11T16:11:52Z</time>
      </trkpt>
      <trkpt lat="36.8167419433594" lon="-5.16094017028809">
        <ele>822</ele>
        <time>2019-05-11T16:11:54Z</time>
      </trkpt>
      <trkpt lat="36.816764831543" lon="-5.16093301773071">
        <ele>822</ele>
        <time>2019-05-11T16:11:56Z</time>
      </trkpt>
      <trkpt lat="36.8167953491211" lon="-5.1609320640564">
        <ele>822</ele>
        <time>2019-05-11T16:11:58Z</time>
      </trkpt>
      <trkpt lat="36.8168182373047" lon="-5.16092300415039">
        <ele>822</ele>
        <time>2019-05-11T16:12:00Z</time>
      </trkpt>
      <trkpt lat="36.8168334960938" lon="-5.16091012954712">
        <ele>822</ele>
        <time>2019-05-11T16:12:02Z</time>
      </trkpt>
      <trkpt lat="36.8168563842773" lon="-5.1609001159668">
        <ele>822</ele>
        <time>2019-05-11T16:12:04Z</time>
      </trkpt>
      <trkpt lat="36.8168754577637" lon="-5.16089200973511">
        <ele>822</ele>
        <time>2019-05-11T16:12:06Z</time>
      </trkpt>
      <trkpt lat="36.81689453125" lon="-5.16088199615478">
        <ele>822</ele>
        <time>2019-05-11T16:12:08Z</time>
      </trkpt>
      <trkpt lat="36.8169136047363" lon="-5.16087293624878">
        <ele>822</ele>
        <time>2019-05-11T16:12:11Z</time>
      </trkpt>
      <trkpt lat="36.8169326782227" lon="-5.16086483001709">
        <ele>822</ele>
        <time>2019-05-11T16:12:13Z</time>
      </trkpt>
      <trkpt lat="36.816951751709" lon="-5.16086006164551">
        <ele>822</ele>
        <time>2019-05-11T16:12:15Z</time>
      </trkpt>
      <trkpt lat="36.8169784545898" lon="-5.16085290908814">
        <ele>822</ele>
        <time>2019-05-11T16:12:17Z</time>
      </trkpt>
      <trkpt lat="36.8170013427734" lon="-5.16084718704224">
        <ele>822</ele>
        <time>2019-05-11T16:12:19Z</time>
      </trkpt>
      <trkpt lat="36.8170204162598" lon="-5.16085195541382">
        <ele>822</ele>
        <time>2019-05-11T16:12:21Z</time>
      </trkpt>
      <trkpt lat="36.8170394897461" lon="-5.16086006164551">
        <ele>822</ele>
        <time>2019-05-11T16:12:23Z</time>
      </trkpt>
      <trkpt lat="36.8170547485352" lon="-5.16087484359741">
        <ele>822</ele>
        <time>2019-05-11T16:12:25Z</time>
      </trkpt>
      <trkpt lat="36.817066192627" lon="-5.16089296340942">
        <ele>822</ele>
        <time>2019-05-11T16:12:27Z</time>
      </trkpt>
      <trkpt lat="36.8170738220215" lon="-5.16091680526733">
        <ele>822</ele>
        <time>2019-05-11T16:12:29Z</time>
      </trkpt>
      <trkpt lat="36.817081451416" lon="-5.16094207763672">
        <ele>822</ele>
        <time>2019-05-11T16:12:31Z</time>
      </trkpt>
      <trkpt lat="36.817081451416" lon="-5.16098022460938">
        <ele>822</ele>
        <time>2019-05-11T16:12:33Z</time>
      </trkpt>
      <trkpt lat="36.8170738220215" lon="-5.16099977493286">
        <ele>822</ele>
        <time>2019-05-11T16:12:35Z</time>
      </trkpt>
      <trkpt lat="36.8170623779297" lon="-5.16101980209351">
        <ele>822</ele>
        <time>2019-05-11T16:12:37Z</time>
      </trkpt>
      <trkpt lat="36.8170547485352" lon="-5.16103982925415">
        <ele>822</ele>
        <time>2019-05-11T16:12:39Z</time>
      </trkpt>
      <trkpt lat="36.8170433044434" lon="-5.1610598564148">
        <ele>822</ele>
        <time>2019-05-11T16:12:41Z</time>
      </trkpt>
      <trkpt lat="36.8170280456543" lon="-5.16107702255249">
        <ele>822</ele>
        <time>2019-05-11T16:12:43Z</time>
      </trkpt>
      <trkpt lat="36.8170166015625" lon="-5.1610951423645">
        <ele>822</ele>
        <time>2019-05-11T16:12:46Z</time>
      </trkpt>
      <trkpt lat="36.8170013427734" lon="-5.16110992431641">
        <ele>822</ele>
        <time>2019-05-11T16:12:48Z</time>
      </trkpt>
      <trkpt lat="36.8169860839844" lon="-5.16112995147705">
        <ele>822</ele>
        <time>2019-05-11T16:12:50Z</time>
      </trkpt>
      <trkpt lat="36.816967010498" lon="-5.16114711761475">
        <ele>822</ele>
        <time>2019-05-11T16:12:52Z</time>
      </trkpt>
      <trkpt lat="36.816951751709" lon="-5.16116523742676">
        <ele>822</ele>
        <time>2019-05-11T16:12:54Z</time>
      </trkpt>
      <trkpt lat="36.8169364929199" lon="-5.16118001937866">
        <ele>822</ele>
        <time>2019-05-11T16:12:56Z</time>
      </trkpt>
      <trkpt lat="36.8169174194336" lon="-5.16119194030762">
        <ele>822</ele>
        <time>2019-05-11T16:12:58Z</time>
      </trkpt>
      <trkpt lat="36.8169059753418" lon="-5.16120481491089">
        <ele>822</ele>
        <time>2019-05-11T16:13:00Z</time>
      </trkpt>
      <trkpt lat="36.8168907165527" lon="-5.16122007369995">
        <ele>822</ele>
        <time>2019-05-11T16:13:02Z</time>
      </trkpt>
      <trkpt lat="36.8168792724609" lon="-5.16123485565186">
        <ele>822</ele>
        <time>2019-05-11T16:13:04Z</time>
      </trkpt>
      <trkpt lat="36.8168678283691" lon="-5.16125202178955">
        <ele>822</ele>
        <time>2019-05-11T16:13:06Z</time>
      </trkpt>
      <trkpt lat="36.8168411254883" lon="-5.16127490997314">
        <ele>822</ele>
        <time>2019-05-11T16:13:08Z</time>
      </trkpt>
      <trkpt lat="36.8168258666992" lon="-5.16129016876221">
        <ele>822</ele>
        <time>2019-05-11T16:13:10Z</time>
      </trkpt>
      <trkpt lat="36.8168144226074" lon="-5.16130781173706">
        <ele>823</ele>
        <time>2019-05-11T16:13:12Z</time>
      </trkpt>
      <trkpt lat="36.8168067932129" lon="-5.1613302230835">
        <ele>823</ele>
        <time>2019-05-11T16:13:14Z</time>
      </trkpt>
      <trkpt lat="36.8167915344238" lon="-5.1613450050354">
        <ele>823</ele>
        <time>2019-05-11T16:13:16Z</time>
      </trkpt>
      <trkpt lat="36.8167762756348" lon="-5.1613597869873">
        <ele>823</ele>
        <time>2019-05-11T16:13:18Z</time>
      </trkpt>
      <trkpt lat="36.816764831543" lon="-5.16137504577637">
        <ele>823</ele>
        <time>2019-05-11T16:13:21Z</time>
      </trkpt>
      <trkpt lat="36.8167495727539" lon="-5.16139221191406">
        <ele>823</ele>
        <time>2019-05-11T16:13:23Z</time>
      </trkpt>
      <trkpt lat="36.8167381286621" lon="-5.16140794754028">
        <ele>823</ele>
        <time>2019-05-11T16:13:25Z</time>
      </trkpt>
      <trkpt lat="36.816722869873" lon="-5.16142702102661">
        <ele>823</ele>
        <time>2019-05-11T16:13:27Z</time>
      </trkpt>
      <trkpt lat="36.8167114257812" lon="-5.16144800186157">
        <ele>823</ele>
        <time>2019-05-11T16:13:29Z</time>
      </trkpt>
      <trkpt lat="36.816707611084" lon="-5.16147518157959">
        <ele>823</ele>
        <time>2019-05-11T16:13:31Z</time>
      </trkpt>
      <trkpt lat="36.816707611084" lon="-5.16149806976318">
        <ele>823</ele>
        <time>2019-05-11T16:13:33Z</time>
      </trkpt>
      <trkpt lat="36.8167190551758" lon="-5.16151809692383">
        <ele>823</ele>
        <time>2019-05-11T16:13:35Z</time>
      </trkpt>
      <trkpt lat="36.8167266845703" lon="-5.16153001785278">
        <ele>823</ele>
        <time>2019-05-11T16:13:37Z</time>
      </trkpt>
      <trkpt lat="36.8167457580566" lon="-5.16154003143311">
        <ele>823</ele>
        <time>2019-05-11T16:13:39Z</time>
      </trkpt>
      <trkpt lat="36.8167686462402" lon="-5.16154289245606">
        <ele>823</ele>
        <time>2019-05-11T16:13:41Z</time>
      </trkpt>
      <trkpt lat="36.8167877197266" lon="-5.16154003143311">
        <ele>823</ele>
        <time>2019-05-11T16:13:43Z</time>
      </trkpt>
      <trkpt lat="36.8168182373047" lon="-5.16152715682983">
        <ele>824</ele>
        <time>2019-05-11T16:13:45Z</time>
      </trkpt>
      <trkpt lat="36.8168334960938" lon="-5.16150999069214">
        <ele>825</ele>
        <time>2019-05-11T16:13:47Z</time>
      </trkpt>
      <trkpt lat="36.8168487548828" lon="-5.16149282455444">
        <ele>825</ele>
        <time>2019-05-11T16:13:49Z</time>
      </trkpt>
      <trkpt lat="36.8168678283691" lon="-5.16147518157959">
        <ele>826</ele>
        <time>2019-05-11T16:13:51Z</time>
      </trkpt>
      <trkpt lat="36.8168869018555" lon="-5.16146278381348">
        <ele>827</ele>
        <time>2019-05-11T16:13:53Z</time>
      </trkpt>
      <trkpt lat="36.8169059753418" lon="-5.16145515441894">
        <ele>827</ele>
        <time>2019-05-11T16:13:55Z</time>
      </trkpt>
      <trkpt lat="36.8169288635254" lon="-5.16144514083862">
        <ele>828</ele>
        <time>2019-05-11T16:13:58Z</time>
      </trkpt>
      <trkpt lat="36.816951751709" lon="-5.16143989562988">
        <ele>828</ele>
        <time>2019-05-11T16:14:00Z</time>
      </trkpt>
      <trkpt lat="36.8169708251953" lon="-5.1614351272583">
        <ele>829</ele>
        <time>2019-05-11T16:14:02Z</time>
      </trkpt>
      <trkpt lat="36.8169937133789" lon="-5.16142988204956">
        <ele>829</ele>
        <time>2019-05-11T16:14:04Z</time>
      </trkpt>
      <trkpt lat="36.8170127868652" lon="-5.16143178939819">
        <ele>829</ele>
        <time>2019-05-11T16:14:06Z</time>
      </trkpt>
      <trkpt lat="36.8170204162598" lon="-5.1614351272583">
        <ele>830</ele>
        <time>2019-05-11T16:14:08Z</time>
      </trkpt>
      <trkpt lat="36.8170166015625" lon="-5.16143178939819">
        <ele>830</ele>
        <time>2019-05-11T16:14:10Z</time>
      </trkpt>
      <trkpt lat="36.8170051574707" lon="-5.16142988204956">
        <ele>830</ele>
        <time>2019-05-11T16:14:12Z</time>
      </trkpt>
      <trkpt lat="36.8169975280762" lon="-5.16143178939819">
        <ele>831</ele>
        <time>2019-05-11T16:14:14Z</time>
      </trkpt>
      <trkpt lat="36.8169975280762" lon="-5.16143178939819">
        <ele>831</ele>
        <time>2019-05-11T16:14:16Z</time>
      </trkpt>
      <trkpt lat="36.8169975280762" lon="-5.16143178939819">
        <ele>831</ele>
        <time>2019-05-11T16:14:18Z</time>
      </trkpt>
      <trkpt lat="36.8169975280762" lon="-5.16142988204956">
        <ele>831</ele>
        <time>2019-05-11T16:14:20Z</time>
      </trkpt>
      <trkpt lat="36.8169975280762" lon="-5.16142797470093">
        <ele>831</ele>
        <time>2019-05-11T16:14:22Z</time>
      </trkpt>
      <trkpt lat="36.8170013427734" lon="-5.16142797470093">
        <ele>831</ele>
        <time>2019-05-11T16:14:24Z</time>
      </trkpt>
      <trkpt lat="36.8170127868652" lon="-5.16142988204956">
        <ele>831</ele>
        <time>2019-05-11T16:14:26Z</time>
      </trkpt>
      <trkpt lat="36.8170280456543" lon="-5.1614351272583">
        <ele>831</ele>
        <time>2019-05-11T16:14:28Z</time>
      </trkpt>
      <trkpt lat="36.8170280456543" lon="-5.1614351272583">
        <ele>831</ele>
        <time>2019-05-11T16:14:30Z</time>
      </trkpt>
      <trkpt lat="36.8170280456543" lon="-5.16144323348999">
        <ele>831</ele>
        <time>2019-05-11T16:14:32Z</time>
      </trkpt>
      <trkpt lat="36.8170318603516" lon="-5.16144704818726">
        <ele>831</ele>
        <time>2019-05-11T16:14:34Z</time>
      </trkpt>
      <trkpt lat="36.8170318603516" lon="-5.16144514083862">
        <ele>831</ele>
        <time>2019-05-11T16:14:36Z</time>
      </trkpt>
      <trkpt lat="36.8170394897461" lon="-5.16144323348999">
        <ele>831</ele>
        <time>2019-05-11T16:14:38Z</time>
      </trkpt>
      <trkpt lat="36.8170509338379" lon="-5.16144323348999">
        <ele>831</ele>
        <time>2019-05-11T16:14:41Z</time>
      </trkpt>
      <trkpt lat="36.8170547485352" lon="-5.16144323348999">
        <ele>831</ele>
        <time>2019-05-11T16:14:43Z</time>
      </trkpt>
      <trkpt lat="36.817066192627" lon="-5.16144323348999">
        <ele>831</ele>
        <time>2019-05-11T16:14:45Z</time>
      </trkpt>
      <trkpt lat="36.8170890808106" lon="-5.16144704818726">
        <ele>831</ele>
        <time>2019-05-11T16:14:47Z</time>
      </trkpt>
      <trkpt lat="36.8171081542969" lon="-5.16144800186157">
        <ele>831</ele>
        <time>2019-05-11T16:14:49Z</time>
      </trkpt>
      <trkpt lat="36.8171310424805" lon="-5.16145277023315">
        <ele>832</ele>
        <time>2019-05-11T16:14:51Z</time>
      </trkpt>
      <trkpt lat="36.8171539306641" lon="-5.16145801544189">
        <ele>832</ele>
        <time>2019-05-11T16:14:53Z</time>
      </trkpt>
      <trkpt lat="36.8171768188477" lon="-5.1614670753479">
        <ele>833</ele>
        <time>2019-05-11T16:14:55Z</time>
      </trkpt>
      <trkpt lat="36.8171997070312" lon="-5.16147518157959">
        <ele>834</ele>
        <time>2019-05-11T16:14:57Z</time>
      </trkpt>
      <trkpt lat="36.8172225952148" lon="-5.1614818572998">
        <ele>834</ele>
        <time>2019-05-11T16:14:59Z</time>
      </trkpt>
      <trkpt lat="36.8172492980957" lon="-5.16148710250854">
        <ele>835</ele>
        <time>2019-05-11T16:15:01Z</time>
      </trkpt>
      <trkpt lat="36.817268371582" lon="-5.16149282455444">
        <ele>835</ele>
        <time>2019-05-11T16:15:03Z</time>
      </trkpt>
      <trkpt lat="36.8173065185547" lon="-5.16150283813477">
        <ele>836</ele>
        <time>2019-05-11T16:15:05Z</time>
      </trkpt>
      <trkpt lat="36.817325592041" lon="-5.16150999069214">
        <ele>836</ele>
        <time>2019-05-11T16:15:07Z</time>
      </trkpt>
      <trkpt lat="36.8173446655273" lon="-5.16152191162109">
        <ele>836</ele>
        <time>2019-05-11T16:15:09Z</time>
      </trkpt>
      <trkpt lat="36.8173675537109" lon="-5.16153287887573">
        <ele>837</ele>
        <time>2019-05-11T16:15:11Z</time>
      </trkpt>
      <trkpt lat="36.8173904418945" lon="-5.16154718399048">
        <ele>837</ele>
        <time>2019-05-11T16:15:13Z</time>
      </trkpt>
      <trkpt lat="36.8174095153809" lon="-5.16155815124512">
        <ele>837</ele>
        <time>2019-05-11T16:15:15Z</time>
      </trkpt>
      <trkpt lat="36.8174324035644" lon="-5.16157007217407">
        <ele>837</ele>
        <time>2019-05-11T16:15:18Z</time>
      </trkpt>
      <trkpt lat="36.8174514770508" lon="-5.16158199310303">
        <ele>837</ele>
        <time>2019-05-11T16:15:20Z</time>
      </trkpt>
      <trkpt lat="36.8174743652344" lon="-5.16159200668335">
        <ele>837</ele>
        <time>2019-05-11T16:15:22Z</time>
      </trkpt>
      <trkpt lat="36.8174934387207" lon="-5.16160488128662">
        <ele>837</ele>
        <time>2019-05-11T16:15:24Z</time>
      </trkpt>
      <trkpt lat="36.8175163269043" lon="-5.16161680221558">
        <ele>837</ele>
        <time>2019-05-11T16:15:26Z</time>
      </trkpt>
      <trkpt lat="36.8175354003906" lon="-5.16162776947022">
        <ele>837</ele>
        <time>2019-05-11T16:15:28Z</time>
      </trkpt>
      <trkpt lat="36.8175582885742" lon="-5.16164207458496">
        <ele>837</ele>
        <time>2019-05-11T16:15:30Z</time>
      </trkpt>
      <trkpt lat="36.8175773620606" lon="-5.16165494918823">
        <ele>837</ele>
        <time>2019-05-11T16:15:32Z</time>
      </trkpt>
      <trkpt lat="36.8175964355469" lon="-5.16166687011719">
        <ele>837</ele>
        <time>2019-05-11T16:15:34Z</time>
      </trkpt>
      <trkpt lat="36.8176116943359" lon="-5.16168212890625">
        <ele>837</ele>
        <time>2019-05-11T16:15:36Z</time>
      </trkpt>
      <trkpt lat="36.8176383972168" lon="-5.16170215606689">
        <ele>837</ele>
        <time>2019-05-11T16:15:38Z</time>
      </trkpt>
      <trkpt lat="36.8176574707031" lon="-5.16171312332153">
        <ele>837</ele>
        <time>2019-05-11T16:15:40Z</time>
      </trkpt>
      <trkpt lat="36.8176765441894" lon="-5.16172695159912">
        <ele>837</ele>
        <time>2019-05-11T16:15:42Z</time>
      </trkpt>
      <trkpt lat="36.8176918029785" lon="-5.16174221038818">
        <ele>837</ele>
        <time>2019-05-11T16:15:44Z</time>
      </trkpt>
      <trkpt lat="36.8177070617676" lon="-5.16175317764282">
        <ele>837</ele>
        <time>2019-05-11T16:15:46Z</time>
      </trkpt>
      <trkpt lat="36.8177223205566" lon="-5.16176509857178">
        <ele>837</ele>
        <time>2019-05-11T16:15:48Z</time>
      </trkpt>
      <trkpt lat="36.817741394043" lon="-5.16177701950073">
        <ele>837</ele>
        <time>2019-05-11T16:15:51Z</time>
      </trkpt>
      <trkpt lat="36.817756652832" lon="-5.16178798675537">
        <ele>838</ele>
        <time>2019-05-11T16:15:53Z</time>
      </trkpt>
      <trkpt lat="36.8177795410156" lon="-5.16179990768433">
        <ele>838</ele>
        <time>2019-05-11T16:15:55Z</time>
      </trkpt>
      <trkpt lat="36.817798614502" lon="-5.16181182861328">
        <ele>839</ele>
        <time>2019-05-11T16:15:57Z</time>
      </trkpt>
      <trkpt lat="36.817813873291" lon="-5.16182279586792">
        <ele>839</ele>
        <time>2019-05-11T16:15:59Z</time>
      </trkpt>
      <trkpt lat="36.8178329467773" lon="-5.16183710098267">
        <ele>840</ele>
        <time>2019-05-11T16:16:01Z</time>
      </trkpt>
      <trkpt lat="36.8178482055664" lon="-5.16184520721436">
        <ele>840</ele>
        <time>2019-05-11T16:16:03Z</time>
      </trkpt>
      <trkpt lat="36.8178672790527" lon="-5.16185522079468">
        <ele>841</ele>
        <time>2019-05-11T16:16:05Z</time>
      </trkpt>
      <trkpt lat="36.8178863525391" lon="-5.16186285018921">
        <ele>841</ele>
        <time>2019-05-11T16:16:07Z</time>
      </trkpt>
      <trkpt lat="36.8179092407227" lon="-5.16187286376953">
        <ele>841</ele>
        <time>2019-05-11T16:16:09Z</time>
      </trkpt>
      <trkpt lat="36.817928314209" lon="-5.16188812255859">
        <ele>842</ele>
        <time>2019-05-11T16:16:11Z</time>
      </trkpt>
      <trkpt lat="36.8179512023926" lon="-5.16190481185913">
        <ele>842</ele>
        <time>2019-05-11T16:16:13Z</time>
      </trkpt>
      <trkpt lat="36.8179779052734" lon="-5.16193199157715">
        <ele>843</ele>
        <time>2019-05-11T16:16:15Z</time>
      </trkpt>
      <trkpt lat="36.8179969787598" lon="-5.16195011138916">
        <ele>843</ele>
        <time>2019-05-11T16:16:17Z</time>
      </trkpt>
      <trkpt lat="36.8180198669434" lon="-5.16196489334106">
        <ele>843</ele>
        <time>2019-05-11T16:16:19Z</time>
      </trkpt>
      <trkpt lat="36.8180389404297" lon="-5.16198205947876">
        <ele>843</ele>
        <time>2019-05-11T16:16:21Z</time>
      </trkpt>
      <trkpt lat="36.8180541992188" lon="-5.16199779510498">
        <ele>843</ele>
        <time>2019-05-11T16:16:23Z</time>
      </trkpt>
      <trkpt lat="36.8180732727051" lon="-5.16201305389404">
        <ele>843</ele>
        <time>2019-05-11T16:16:26Z</time>
      </trkpt>
      <trkpt lat="36.8180885314941" lon="-5.16202783584595">
        <ele>843</ele>
        <time>2019-05-11T16:16:28Z</time>
      </trkpt>
      <trkpt lat="36.8181037902832" lon="-5.16204500198364">
        <ele>843</ele>
        <time>2019-05-11T16:16:30Z</time>
      </trkpt>
      <trkpt lat="36.8181190490723" lon="-5.16206216812134">
        <ele>843</ele>
        <time>2019-05-11T16:16:32Z</time>
      </trkpt>
      <trkpt lat="36.8181381225586" lon="-5.16207790374756">
        <ele>843</ele>
        <time>2019-05-11T16:16:34Z</time>
      </trkpt>
      <trkpt lat="36.8181495666504" lon="-5.16208791732788">
        <ele>843</ele>
        <time>2019-05-11T16:16:36Z</time>
      </trkpt>
      <trkpt lat="36.8181648254394" lon="-5.16210317611694">
        <ele>843</ele>
        <time>2019-05-11T16:16:38Z</time>
      </trkpt>
      <trkpt lat="36.8181838989258" lon="-5.16211318969727">
        <ele>843</ele>
        <time>2019-05-11T16:16:40Z</time>
      </trkpt>
      <trkpt lat="36.8181991577148" lon="-5.16212511062622">
        <ele>843</ele>
        <time>2019-05-11T16:16:42Z</time>
      </trkpt>
      <trkpt lat="36.8182144165039" lon="-5.16213703155518">
        <ele>843</ele>
        <time>2019-05-11T16:16:44Z</time>
      </trkpt>
      <trkpt lat="36.818229675293" lon="-5.16214990615845">
        <ele>844</ele>
        <time>2019-05-11T16:16:46Z</time>
      </trkpt>
      <trkpt lat="36.8182487487793" lon="-5.16216802597046">
        <ele>844</ele>
        <time>2019-05-11T16:16:48Z</time>
      </trkpt>
      <trkpt lat="36.8182754516602" lon="-5.1621880531311">
        <ele>844</ele>
        <time>2019-05-11T16:16:50Z</time>
      </trkpt>
      <trkpt lat="36.8182945251465" lon="-5.16220283508301">
        <ele>845</ele>
        <time>2019-05-11T16:16:52Z</time>
      </trkpt>
      <trkpt lat="36.8183174133301" lon="-5.16221809387207">
        <ele>845</ele>
        <time>2019-05-11T16:16:54Z</time>
      </trkpt>
      <trkpt lat="36.8183364868164" lon="-5.16223812103272">
        <ele>845</ele>
        <time>2019-05-11T16:16:56Z</time>
      </trkpt>
      <trkpt lat="36.8183517456055" lon="-5.16225290298462">
        <ele>845</ele>
        <time>2019-05-11T16:16:58Z</time>
      </trkpt>
      <trkpt lat="36.8183746337891" lon="-5.16227006912231">
        <ele>845</ele>
        <time>2019-05-11T16:17:01Z</time>
      </trkpt>
      <trkpt lat="36.8183937072754" lon="-5.16228485107422">
        <ele>845</ele>
        <time>2019-05-11T16:17:03Z</time>
      </trkpt>
      <trkpt lat="36.8184127807617" lon="-5.16229677200317">
        <ele>845</ele>
        <time>2019-05-11T16:17:05Z</time>
      </trkpt>
      <trkpt lat="36.818431854248" lon="-5.1623101234436">
        <ele>845</ele>
        <time>2019-05-11T16:17:07Z</time>
      </trkpt>
      <trkpt lat="36.8184509277344" lon="-5.16232299804688">
        <ele>845</ele>
        <time>2019-05-11T16:17:09Z</time>
      </trkpt>
      <trkpt lat="36.818473815918" lon="-5.16233777999878">
        <ele>845</ele>
        <time>2019-05-11T16:17:11Z</time>
      </trkpt>
      <trkpt lat="36.818489074707" lon="-5.16235494613647">
        <ele>845</ele>
        <time>2019-05-11T16:17:13Z</time>
      </trkpt>
      <trkpt lat="36.8185081481934" lon="-5.16237020492554">
        <ele>845</ele>
        <time>2019-05-11T16:17:15Z</time>
      </trkpt>
      <trkpt lat="36.818531036377" lon="-5.16238498687744">
        <ele>846</ele>
        <time>2019-05-11T16:17:17Z</time>
      </trkpt>
      <trkpt lat="36.818546295166" lon="-5.16239976882935">
        <ele>846</ele>
        <time>2019-05-11T16:17:19Z</time>
      </trkpt>
      <trkpt lat="36.8185653686523" lon="-5.16241693496704">
        <ele>846</ele>
        <time>2019-05-11T16:17:21Z</time>
      </trkpt>
      <trkpt lat="36.8185882568359" lon="-5.16243314743042">
        <ele>846</ele>
        <time>2019-05-11T16:17:23Z</time>
      </trkpt>
      <trkpt lat="36.8186111450195" lon="-5.1624550819397">
        <ele>846</ele>
        <time>2019-05-11T16:17:25Z</time>
      </trkpt>
      <trkpt lat="36.8186264038086" lon="-5.16247320175171">
        <ele>846</ele>
        <time>2019-05-11T16:17:27Z</time>
      </trkpt>
      <trkpt lat="36.8186416625977" lon="-5.16249322891235">
        <ele>846</ele>
        <time>2019-05-11T16:17:29Z</time>
      </trkpt>
      <trkpt lat="36.8186531066894" lon="-5.16250991821289">
        <ele>846</ele>
        <time>2019-05-11T16:17:31Z</time>
      </trkpt>
      <trkpt lat="36.8186683654785" lon="-5.16252279281616">
        <ele>846</ele>
        <time>2019-05-11T16:17:33Z</time>
      </trkpt>
      <trkpt lat="36.8186836242676" lon="-5.16253709793091">
        <ele>847</ele>
        <time>2019-05-11T16:17:36Z</time>
      </trkpt>
      <trkpt lat="36.8187026977539" lon="-5.16254806518555">
        <ele>847</ele>
        <time>2019-05-11T16:17:38Z</time>
      </trkpt>
      <trkpt lat="36.818717956543" lon="-5.16256189346314">
        <ele>848</ele>
        <time>2019-05-11T16:17:40Z</time>
      </trkpt>
      <trkpt lat="36.818733215332" lon="-5.1625771522522">
        <ele>848</ele>
        <time>2019-05-11T16:17:42Z</time>
      </trkpt>
      <trkpt lat="36.8187522888184" lon="-5.16259479522705">
        <ele>849</ele>
        <time>2019-05-11T16:17:44Z</time>
      </trkpt>
      <trkpt lat="36.8187637329102" lon="-5.16260814666748">
        <ele>849</ele>
        <time>2019-05-11T16:17:46Z</time>
      </trkpt>
      <trkpt lat="36.8187789916992" lon="-5.16262292861938">
        <ele>850</ele>
        <time>2019-05-11T16:17:48Z</time>
      </trkpt>
      <trkpt lat="36.8187942504883" lon="-5.16263818740845">
        <ele>850</ele>
        <time>2019-05-11T16:17:50Z</time>
      </trkpt>
      <trkpt lat="36.8188133239746" lon="-5.16265296936035">
        <ele>851</ele>
        <time>2019-05-11T16:17:52Z</time>
      </trkpt>
      <trkpt lat="36.8188285827637" lon="-5.16266822814941">
        <ele>851</ele>
        <time>2019-05-11T16:17:54Z</time>
      </trkpt>
      <trkpt lat="36.81884765625" lon="-5.162682056427">
        <ele>851</ele>
        <time>2019-05-11T16:17:56Z</time>
      </trkpt>
      <trkpt lat="36.8188591003418" lon="-5.16269302368164">
        <ele>852</ele>
        <time>2019-05-11T16:17:58Z</time>
      </trkpt>
      <trkpt lat="36.8188858032227" lon="-5.16271686553955">
        <ele>852</ele>
        <time>2019-05-11T16:18:00Z</time>
      </trkpt>
      <trkpt lat="36.8189010620117" lon="-5.16273021697998">
        <ele>852</ele>
        <time>2019-05-11T16:18:02Z</time>
      </trkpt>
      <trkpt lat="36.8189163208008" lon="-5.16274309158325">
        <ele>853</ele>
        <time>2019-05-11T16:18:04Z</time>
      </trkpt>
      <trkpt lat="36.8189353942871" lon="-5.16275787353516">
        <ele>853</ele>
        <time>2019-05-11T16:18:06Z</time>
      </trkpt>
      <trkpt lat="36.8189506530762" lon="-5.16277313232422">
        <ele>854</ele>
        <time>2019-05-11T16:18:08Z</time>
      </trkpt>
      <trkpt lat="36.8189659118652" lon="-5.16278314590454">
        <ele>854</ele>
        <time>2019-05-11T16:18:11Z</time>
      </trkpt>
      <trkpt lat="36.8189811706543" lon="-5.1627950668335">
        <ele>854</ele>
        <time>2019-05-11T16:18:13Z</time>
      </trkpt>
      <trkpt lat="36.8189964294434" lon="-5.16280794143677">
        <ele>854</ele>
        <time>2019-05-11T16:18:15Z</time>
      </trkpt>
      <trkpt lat="36.8190116882324" lon="-5.16282176971436">
        <ele>855</ele>
        <time>2019-05-11T16:18:17Z</time>
      </trkpt>
      <trkpt lat="36.8190269470215" lon="-5.16283512115478">
        <ele>855</ele>
        <time>2019-05-11T16:18:19Z</time>
      </trkpt>
      <trkpt lat="36.8190383911133" lon="-5.16284513473511">
        <ele>855</ele>
        <time>2019-05-11T16:18:21Z</time>
      </trkpt>
      <trkpt lat="36.8190498352051" lon="-5.16285991668701">
        <ele>855</ele>
        <time>2019-05-11T16:18:23Z</time>
      </trkpt>
      <trkpt lat="36.8190612792969" lon="-5.16287517547607">
        <ele>856</ele>
        <time>2019-05-11T16:18:25Z</time>
      </trkpt>
      <trkpt lat="36.8190765380859" lon="-5.16289281845093">
        <ele>856</ele>
        <time>2019-05-11T16:18:27Z</time>
      </trkpt>
      <trkpt lat="36.819091796875" lon="-5.16290807723999">
        <ele>856</ele>
        <time>2019-05-11T16:18:29Z</time>
      </trkpt>
      <trkpt lat="36.8191032409668" lon="-5.16292810440064">
        <ele>856</ele>
        <time>2019-05-11T16:18:31Z</time>
      </trkpt>
      <trkpt lat="36.8191184997559" lon="-5.16294193267822">
        <ele>857</ele>
        <time>2019-05-11T16:18:33Z</time>
      </trkpt>
      <trkpt lat="36.8191375732422" lon="-5.16296482086182">
        <ele>857</ele>
        <time>2019-05-11T16:18:35Z</time>
      </trkpt>
      <trkpt lat="36.819149017334" lon="-5.16298198699951">
        <ele>857</ele>
        <time>2019-05-11T16:18:37Z</time>
      </trkpt>
      <trkpt lat="36.8191566467285" lon="-5.16300296783447">
        <ele>857</ele>
        <time>2019-05-11T16:18:39Z</time>
      </trkpt>
      <trkpt lat="36.8191680908203" lon="-5.1630220413208">
        <ele>857</ele>
        <time>2019-05-11T16:18:41Z</time>
      </trkpt>
      <trkpt lat="36.8191833496094" lon="-5.16304302215576">
        <ele>857</ele>
        <time>2019-05-11T16:18:43Z</time>
      </trkpt>
      <trkpt lat="36.8191986083984" lon="-5.16306495666504">
        <ele>857</ele>
        <time>2019-05-11T16:18:46Z</time>
      </trkpt>
      <trkpt lat="36.8192100524902" lon="-5.16308307647705">
        <ele>857</ele>
        <time>2019-05-11T16:18:48Z</time>
      </trkpt>
      <trkpt lat="36.819221496582" lon="-5.16310214996338">
        <ele>857</ele>
        <time>2019-05-11T16:18:50Z</time>
      </trkpt>
      <trkpt lat="36.8192329406738" lon="-5.16312217712402">
        <ele>857</ele>
        <time>2019-05-11T16:18:52Z</time>
      </trkpt>
      <trkpt lat="36.8192481994629" lon="-5.16314220428467">
        <ele>857</ele>
        <time>2019-05-11T16:18:54Z</time>
      </trkpt>
      <trkpt lat="36.8192596435547" lon="-5.16316318511963">
        <ele>857</ele>
        <time>2019-05-11T16:18:56Z</time>
      </trkpt>
      <trkpt lat="36.8192710876465" lon="-5.16318321228027">
        <ele>857</ele>
        <time>2019-05-11T16:18:58Z</time>
      </trkpt>
      <trkpt lat="36.819278717041" lon="-5.16320514678955">
        <ele>857</ele>
        <time>2019-05-11T16:19:00Z</time>
      </trkpt>
      <trkpt lat="36.8192863464356" lon="-5.16322803497314">
        <ele>857</ele>
        <time>2019-05-11T16:19:02Z</time>
      </trkpt>
      <trkpt lat="36.8193016052246" lon="-5.16325187683106">
        <ele>857</ele>
        <time>2019-05-11T16:19:04Z</time>
      </trkpt>
      <trkpt lat="36.8193168640137" lon="-5.16327285766602">
        <ele>857</ele>
        <time>2019-05-11T16:19:06Z</time>
      </trkpt>
      <trkpt lat="36.8193283081055" lon="-5.16329479217529">
        <ele>857</ele>
        <time>2019-05-11T16:19:08Z</time>
      </trkpt>
      <trkpt lat="36.8193283081055" lon="-5.16332292556763">
        <ele>857</ele>
        <time>2019-05-11T16:19:10Z</time>
      </trkpt>
      <trkpt lat="36.8193359375" lon="-5.1633448600769">
        <ele>857</ele>
        <time>2019-05-11T16:19:12Z</time>
      </trkpt>
      <trkpt lat="36.8193550109863" lon="-5.16336011886597">
        <ele>858</ele>
        <time>2019-05-11T16:19:14Z</time>
      </trkpt>
      <trkpt lat="36.8193740844727" lon="-5.16336679458618">
        <ele>858</ele>
        <time>2019-05-11T16:19:16Z</time>
      </trkpt>
      <trkpt lat="36.8193893432617" lon="-5.16338300704956">
        <ele>858</ele>
        <time>2019-05-11T16:19:18Z</time>
      </trkpt>
      <trkpt lat="36.8194046020508" lon="-5.16340208053589">
        <ele>858</ele>
        <time>2019-05-11T16:19:20Z</time>
      </trkpt>
      <trkpt lat="36.8194198608398" lon="-5.16342210769653">
        <ele>858</ele>
        <time>2019-05-11T16:19:23Z</time>
      </trkpt>
      <trkpt lat="36.8194313049316" lon="-5.16344213485718">
        <ele>859</ele>
        <time>2019-05-11T16:19:25Z</time>
      </trkpt>
      <trkpt lat="36.8194427490234" lon="-5.1634578704834">
        <ele>859</ele>
        <time>2019-05-11T16:19:27Z</time>
      </trkpt>
      <trkpt lat="36.819450378418" lon="-5.16347503662109">
        <ele>859</ele>
        <time>2019-05-11T16:19:29Z</time>
      </trkpt>
      <trkpt lat="36.8194694519043" lon="-5.16349220275879">
        <ele>860</ele>
        <time>2019-05-11T16:19:31Z</time>
      </trkpt>
      <trkpt lat="36.8194847106934" lon="-5.16351318359375">
        <ele>860</ele>
        <time>2019-05-11T16:19:33Z</time>
      </trkpt>
      <trkpt lat="36.8195037841797" lon="-5.16353178024292">
        <ele>861</ele>
        <time>2019-05-11T16:19:35Z</time>
      </trkpt>
      <trkpt lat="36.8195266723633" lon="-5.16354990005493">
        <ele>861</ele>
        <time>2019-05-11T16:19:37Z</time>
      </trkpt>
      <trkpt lat="36.8195457458496" lon="-5.16356515884399">
        <ele>862</ele>
        <time>2019-05-11T16:19:39Z</time>
      </trkpt>
      <trkpt lat="36.8195686340332" lon="-5.16357803344727">
        <ele>862</ele>
        <time>2019-05-11T16:19:41Z</time>
      </trkpt>
      <trkpt lat="36.8195953369141" lon="-5.16358995437622">
        <ele>863</ele>
        <time>2019-05-11T16:19:43Z</time>
      </trkpt>
      <trkpt lat="36.8196334838867" lon="-5.16360998153686">
        <ele>863</ele>
        <time>2019-05-11T16:19:45Z</time>
      </trkpt>
      <trkpt lat="36.8196563720703" lon="-5.16362190246582">
        <ele>864</ele>
        <time>2019-05-11T16:19:47Z</time>
      </trkpt>
      <trkpt lat="36.8196792602539" lon="-5.16363477706909">
        <ele>865</ele>
        <time>2019-05-11T16:19:49Z</time>
      </trkpt>
      <trkpt lat="36.8197021484375" lon="-5.16364812850952">
        <ele>865</ele>
        <time>2019-05-11T16:19:51Z</time>
      </trkpt>
      <trkpt lat="36.8197326660156" lon="-5.16365718841553">
        <ele>865</ele>
        <time>2019-05-11T16:19:53Z</time>
      </trkpt>
      <trkpt lat="36.8197593688965" lon="-5.16366291046143">
        <ele>866</ele>
        <time>2019-05-11T16:19:55Z</time>
      </trkpt>
      <trkpt lat="36.8197822570801" lon="-5.16366291046143">
        <ele>866</ele>
        <time>2019-05-11T16:19:58Z</time>
      </trkpt>
      <trkpt lat="36.8198089599609" lon="-5.16366195678711">
        <ele>866</ele>
        <time>2019-05-11T16:20:00Z</time>
      </trkpt>
      <trkpt lat="36.8198318481445" lon="-5.16366481781006">
        <ele>866</ele>
        <time>2019-05-11T16:20:02Z</time>
      </trkpt>
      <trkpt lat="36.8198509216309" lon="-5.16366291046143">
        <ele>866</ele>
        <time>2019-05-11T16:20:04Z</time>
      </trkpt>
      <trkpt lat="36.8198738098144" lon="-5.16366195678711">
        <ele>866</ele>
        <time>2019-05-11T16:20:06Z</time>
      </trkpt>
      <trkpt lat="36.819896697998" lon="-5.16365718841553">
        <ele>866</ele>
        <time>2019-05-11T16:20:08Z</time>
      </trkpt>
      <trkpt lat="36.8199234008789" lon="-5.16365480422974">
        <ele>866</ele>
        <time>2019-05-11T16:20:10Z</time>
      </trkpt>
      <trkpt lat="36.8199462890625" lon="-5.1636528968811">
        <ele>866</ele>
        <time>2019-05-11T16:20:12Z</time>
      </trkpt>
      <trkpt lat="36.8199729919434" lon="-5.16365194320679">
        <ele>866</ele>
        <time>2019-05-11T16:20:14Z</time>
      </trkpt>
      <trkpt lat="36.8199996948242" lon="-5.16365194320679">
        <ele>866</ele>
        <time>2019-05-11T16:20:16Z</time>
      </trkpt>
      <trkpt lat="36.8200263977051" lon="-5.16365480422974">
        <ele>866</ele>
        <time>2019-05-11T16:20:18Z</time>
      </trkpt>
      <trkpt lat="36.8200531005859" lon="-5.16365814208984">
        <ele>866</ele>
        <time>2019-05-11T16:20:20Z</time>
      </trkpt>
      <trkpt lat="36.8200798034668" lon="-5.16366195678711">
        <ele>866</ele>
        <time>2019-05-11T16:20:22Z</time>
      </trkpt>
      <trkpt lat="36.8201179504394" lon="-5.16366720199585">
        <ele>866</ele>
        <time>2019-05-11T16:20:24Z</time>
      </trkpt>
      <trkpt lat="36.8201446533203" lon="-5.16367197036743">
        <ele>866</ele>
        <time>2019-05-11T16:20:26Z</time>
      </trkpt>
      <trkpt lat="36.8201637268066" lon="-5.16367721557617">
        <ele>866</ele>
        <time>2019-05-11T16:20:28Z</time>
      </trkpt>
      <trkpt lat="36.8201713562012" lon="-5.16368722915649">
        <ele>866</ele>
        <time>2019-05-11T16:20:30Z</time>
      </trkpt>
      <trkpt lat="36.820182800293" lon="-5.16369199752808">
        <ele>866</ele>
        <time>2019-05-11T16:20:32Z</time>
      </trkpt>
      <trkpt lat="36.8201866149902" lon="-5.16369199752808">
        <ele>867</ele>
        <time>2019-05-11T16:20:34Z</time>
      </trkpt>
      <trkpt lat="36.820182800293" lon="-5.16368818283081">
        <ele>867</ele>
        <time>2019-05-11T16:20:37Z</time>
      </trkpt>
      <trkpt lat="36.820182800293" lon="-5.16368818283081">
        <ele>867</ele>
        <time>2019-05-11T16:20:39Z</time>
      </trkpt>
      <trkpt lat="36.820182800293" lon="-5.16369009017944">
        <ele>867</ele>
        <time>2019-05-11T16:20:41Z</time>
      </trkpt>
      <trkpt lat="36.8201789855957" lon="-5.16369009017944">
        <ele>868</ele>
        <time>2019-05-11T16:20:45Z</time>
      </trkpt>
      <trkpt lat="36.820182800293" lon="-5.16369295120239">
        <ele>868</ele>
        <time>2019-05-11T16:20:49Z</time>
      </trkpt>
      <trkpt lat="36.8201789855957" lon="-5.16369295120239">
        <ele>868</ele>
        <time>2019-05-11T16:20:51Z</time>
      </trkpt>
      <trkpt lat="36.8201789855957" lon="-5.16369295120239">
        <ele>868</ele>
        <time>2019-05-11T16:20:53Z</time>
      </trkpt>
      <trkpt lat="36.820182800293" lon="-5.16369295120239">
        <ele>868</ele>
        <time>2019-05-11T16:20:55Z</time>
      </trkpt>
      <trkpt lat="36.820182800293" lon="-5.16369676589966">
        <ele>868</ele>
        <time>2019-05-11T16:20:57Z</time>
      </trkpt>
      <trkpt lat="36.8201789855957" lon="-5.16369676589966">
        <ele>868</ele>
        <time>2019-05-11T16:20:59Z</time>
      </trkpt>
      <trkpt lat="36.8201789855957" lon="-5.16369819641113">
        <ele>869</ele>
        <time>2019-05-11T16:21:01Z</time>
      </trkpt>
      <trkpt lat="36.8201751708984" lon="-5.16369819641113">
        <ele>869</ele>
        <time>2019-05-11T16:21:03Z</time>
      </trkpt>
      <trkpt lat="36.8201751708984" lon="-5.16369676589966">
        <ele>869</ele>
        <time>2019-05-11T16:21:05Z</time>
      </trkpt>
      <trkpt lat="36.8201751708984" lon="-5.16370010375977">
        <ele>869</ele>
        <time>2019-05-11T16:21:07Z</time>
      </trkpt>
      <trkpt lat="36.8201751708984" lon="-5.16370010375977">
        <ele>869</ele>
        <time>2019-05-11T16:21:09Z</time>
      </trkpt>
      <trkpt lat="36.8201789855957" lon="-5.16369819641113">
        <ele>869</ele>
        <time>2019-05-11T16:21:11Z</time>
      </trkpt>
      <trkpt lat="36.8201751708984" lon="-5.1637020111084">
        <ele>869</ele>
        <time>2019-05-11T16:21:13Z</time>
      </trkpt>
      <trkpt lat="36.8201789855957" lon="-5.16370010375977">
        <ele>870</ele>
        <time>2019-05-11T16:21:15Z</time>
      </trkpt>
      <trkpt lat="36.8201751708984" lon="-5.16370677947998">
        <ele>871</ele>
        <time>2019-05-11T16:21:33Z</time>
      </trkpt>
      <trkpt lat="36.820182800293" lon="-5.16370487213135">
        <ele>871</ele>
        <time>2019-05-11T16:21:36Z</time>
      </trkpt>
      <trkpt lat="36.8201942443848" lon="-5.16371202468872">
        <ele>871</ele>
        <time>2019-05-11T16:21:38Z</time>
      </trkpt>
      <trkpt lat="36.8202018737793" lon="-5.16372680664062">
        <ele>871</ele>
        <time>2019-05-11T16:21:40Z</time>
      </trkpt>
      <trkpt lat="36.8202056884766" lon="-5.16373777389526">
        <ele>871</ele>
        <time>2019-05-11T16:21:42Z</time>
      </trkpt>
      <trkpt lat="36.8202095031738" lon="-5.16376304626465">
        <ele>871</ele>
        <time>2019-05-11T16:21:44Z</time>
      </trkpt>
      <trkpt lat="36.8202095031738" lon="-5.16378498077393">
        <ele>871</ele>
        <time>2019-05-11T16:21:46Z</time>
      </trkpt>
      <trkpt lat="36.8202133178711" lon="-5.16380500793457">
        <ele>871</ele>
        <time>2019-05-11T16:21:48Z</time>
      </trkpt>
      <trkpt lat="36.8202171325684" lon="-5.16382312774658">
        <ele>871</ele>
        <time>2019-05-11T16:21:50Z</time>
      </trkpt>
      <trkpt lat="36.8202285766602" lon="-5.16384220123291">
        <ele>871</ele>
        <time>2019-05-11T16:21:52Z</time>
      </trkpt>
      <trkpt lat="36.8202323913574" lon="-5.16384696960449">
        <ele>871</ele>
        <time>2019-05-11T16:21:54Z</time>
      </trkpt>
      <trkpt lat="36.8202323913574" lon="-5.16384983062744">
        <ele>871</ele>
        <time>2019-05-11T16:21:56Z</time>
      </trkpt>
      <trkpt lat="36.8202362060547" lon="-5.16385507583618">
        <ele>871</ele>
        <time>2019-05-11T16:21:58Z</time>
      </trkpt>
      <trkpt lat="36.8202362060547" lon="-5.16385698318481">
        <ele>871</ele>
        <time>2019-05-11T16:22:00Z</time>
      </trkpt>
      <trkpt lat="36.8202438354492" lon="-5.16386222839356">
        <ele>871</ele>
        <time>2019-05-11T16:22:02Z</time>
      </trkpt>
      <trkpt lat="36.8202438354492" lon="-5.1638650894165">
        <ele>871</ele>
        <time>2019-05-11T16:22:04Z</time>
      </trkpt>
      <trkpt lat="36.8202476501465" lon="-5.16386699676514">
        <ele>871</ele>
        <time>2019-05-11T16:22:06Z</time>
      </trkpt>
      <trkpt lat="36.8202476501465" lon="-5.16386985778809">
        <ele>871</ele>
        <time>2019-05-11T16:22:08Z</time>
      </trkpt>
      <trkpt lat="36.8202514648438" lon="-5.16387319564819">
        <ele>871</ele>
        <time>2019-05-11T16:22:10Z</time>
      </trkpt>
      <trkpt lat="36.8202514648438" lon="-5.16387510299683">
        <ele>871</ele>
        <time>2019-05-11T16:22:12Z</time>
      </trkpt>
      <trkpt lat="36.8202514648438" lon="-5.16387701034546">
        <ele>871</ele>
        <time>2019-05-11T16:22:15Z</time>
      </trkpt>
      <trkpt lat="36.8202514648438" lon="-5.16387796401978">
        <ele>871</ele>
        <time>2019-05-11T16:22:17Z</time>
      </trkpt>
      <trkpt lat="36.8202514648438" lon="-5.16387987136841">
        <ele>871</ele>
        <time>2019-05-11T16:22:19Z</time>
      </trkpt>
      <trkpt lat="36.820255279541" lon="-5.16387987136841">
        <ele>871</ele>
        <time>2019-05-11T16:22:21Z</time>
      </trkpt>
      <trkpt lat="36.820255279541" lon="-5.16388177871704">
        <ele>871</ele>
        <time>2019-05-11T16:22:23Z</time>
      </trkpt>
      <trkpt lat="36.820255279541" lon="-5.16387987136841">
        <ele>871</ele>
        <time>2019-05-11T16:22:25Z</time>
      </trkpt>
      <trkpt lat="36.820255279541" lon="-5.16387987136841">
        <ele>871</ele>
        <time>2019-05-11T16:22:27Z</time>
      </trkpt>
      <trkpt lat="36.8202590942383" lon="-5.16387510299683">
        <ele>871</ele>
        <time>2019-05-11T16:22:29Z</time>
      </trkpt>
      <trkpt lat="36.8202590942383" lon="-5.16385984420776">
        <ele>871</ele>
        <time>2019-05-11T16:22:31Z</time>
      </trkpt>
      <trkpt lat="36.8202514648438" lon="-5.16384315490723">
        <ele>871</ele>
        <time>2019-05-11T16:22:33Z</time>
      </trkpt>
      <trkpt lat="36.8202476501465" lon="-5.16382694244385">
        <ele>871</ele>
        <time>2019-05-11T16:22:35Z</time>
      </trkpt>
      <trkpt lat="36.820240020752" lon="-5.16381216049194">
        <ele>871</ele>
        <time>2019-05-11T16:22:37Z</time>
      </trkpt>
      <trkpt lat="36.8202362060547" lon="-5.16379976272583">
        <ele>871</ele>
        <time>2019-05-11T16:22:39Z</time>
      </trkpt>
      <trkpt lat="36.8202362060547" lon="-5.16379022598267">
        <ele>871</ele>
        <time>2019-05-11T16:22:41Z</time>
      </trkpt>
      <trkpt lat="36.8202323913574" lon="-5.16378307342529">
        <ele>871</ele>
        <time>2019-05-11T16:22:43Z</time>
      </trkpt>
      <trkpt lat="36.8202285766602" lon="-5.16377305984497">
        <ele>871</ele>
        <time>2019-05-11T16:22:45Z</time>
      </trkpt>
      <trkpt lat="36.8202285766602" lon="-5.16376781463623">
        <ele>871</ele>
        <time>2019-05-11T16:22:47Z</time>
      </trkpt>
      <trkpt lat="36.8202247619629" lon="-5.16376495361328">
        <ele>871</ele>
        <time>2019-05-11T16:22:49Z</time>
      </trkpt>
      <trkpt lat="36.8202209472656" lon="-5.16376304626465">
        <ele>871</ele>
        <time>2019-05-11T16:22:51Z</time>
      </trkpt>
      <trkpt lat="36.8202171325684" lon="-5.1637601852417">
        <ele>871</ele>
        <time>2019-05-11T16:22:53Z</time>
      </trkpt>
      <trkpt lat="36.8202133178711" lon="-5.16375684738159">
        <ele>871</ele>
        <time>2019-05-11T16:22:55Z</time>
      </trkpt>
      <trkpt lat="36.8202133178711" lon="-5.16375303268433">
        <ele>871</ele>
        <time>2019-05-11T16:22:57Z</time>
      </trkpt>
      <trkpt lat="36.8202095031738" lon="-5.16375207901001">
        <ele>871</ele>
        <time>2019-05-11T16:23:00Z</time>
      </trkpt>
      <trkpt lat="36.8202018737793" lon="-5.16374778747559">
        <ele>871</ele>
        <time>2019-05-11T16:23:02Z</time>
      </trkpt>
      <trkpt lat="36.8202018737793" lon="-5.16373777389526">
        <ele>870</ele>
        <time>2019-05-11T16:23:04Z</time>
      </trkpt>
      <trkpt lat="36.820198059082" lon="-5.16373777389526">
        <ele>869</ele>
        <time>2019-05-11T16:23:06Z</time>
      </trkpt>
      <trkpt lat="36.820198059082" lon="-5.16373300552368">
        <ele>868</ele>
        <time>2019-05-11T16:23:08Z</time>
      </trkpt>
      <trkpt lat="36.8201942443848" lon="-5.16372680664062">
        <ele>867</ele>
        <time>2019-05-11T16:23:10Z</time>
      </trkpt>
      <trkpt lat="36.8201942443848" lon="-5.16372299194336">
        <ele>866</ele>
        <time>2019-05-11T16:23:12Z</time>
      </trkpt>
      <trkpt lat="36.8201904296875" lon="-5.16372013092041">
        <ele>866</ele>
        <time>2019-05-11T16:23:14Z</time>
      </trkpt>
      <trkpt lat="36.820198059082" lon="-5.16370677947998">
        <ele>866</ele>
        <time>2019-05-11T16:23:16Z</time>
      </trkpt>
      <trkpt lat="36.820198059082" lon="-5.16369676589966">
        <ele>866</ele>
        <time>2019-05-11T16:23:18Z</time>
      </trkpt>
      <trkpt lat="36.820198059082" lon="-5.16369199752808">
        <ele>866</ele>
        <time>2019-05-11T16:23:20Z</time>
      </trkpt>
      <trkpt lat="36.8201942443848" lon="-5.16369009017944">
        <ele>866</ele>
        <time>2019-05-11T16:23:22Z</time>
      </trkpt>
      <trkpt lat="36.8201942443848" lon="-5.16368722915649">
        <ele>866</ele>
        <time>2019-05-11T16:23:24Z</time>
      </trkpt>
      <trkpt lat="36.8201942443848" lon="-5.16368007659912">
        <ele>866</ele>
        <time>2019-05-11T16:23:26Z</time>
      </trkpt>
      <trkpt lat="36.8201942443848" lon="-5.16367816925049">
        <ele>866</ele>
        <time>2019-05-11T16:23:28Z</time>
      </trkpt>
      <trkpt lat="36.8201904296875" lon="-5.16367483139038">
        <ele>866</ele>
        <time>2019-05-11T16:23:30Z</time>
      </trkpt>
      <trkpt lat="36.8201904296875" lon="-5.16367483139038">
        <ele>866</ele>
        <time>2019-05-11T16:23:32Z</time>
      </trkpt>
      <trkpt lat="36.8201904296875" lon="-5.16367292404175">
        <ele>866</ele>
        <time>2019-05-11T16:23:34Z</time>
      </trkpt>
      <trkpt lat="36.8201866149902" lon="-5.16367197036743">
        <ele>866</ele>
        <time>2019-05-11T16:23:36Z</time>
      </trkpt>
      <trkpt lat="36.8201866149902" lon="-5.16367292404175">
        <ele>866</ele>
        <time>2019-05-11T16:23:38Z</time>
      </trkpt>
      <trkpt lat="36.8201866149902" lon="-5.1636700630188">
        <ele>866</ele>
        <time>2019-05-11T16:23:40Z</time>
      </trkpt>
      <trkpt lat="36.8201866149902" lon="-5.16366720199585">
        <ele>866</ele>
        <time>2019-05-11T16:23:42Z</time>
      </trkpt>
      <trkpt lat="36.8201904296875" lon="-5.16366291046143">
        <ele>866</ele>
        <time>2019-05-11T16:23:44Z</time>
      </trkpt>
      <trkpt lat="36.8201904296875" lon="-5.16366004943848">
        <ele>867</ele>
        <time>2019-05-11T16:23:46Z</time>
      </trkpt>
      <trkpt lat="36.8201942443848" lon="-5.16365814208984">
        <ele>868</ele>
        <time>2019-05-11T16:23:48Z</time>
      </trkpt>
      <trkpt lat="36.820198059082" lon="-5.1636528968811">
        <ele>869</ele>
        <time>2019-05-11T16:23:51Z</time>
      </trkpt>
      <trkpt lat="36.820198059082" lon="-5.16365194320679">
        <ele>870</ele>
        <time>2019-05-11T16:23:53Z</time>
      </trkpt>
      <trkpt lat="36.8202018737793" lon="-5.16365194320679">
        <ele>871</ele>
        <time>2019-05-11T16:23:57Z</time>
      </trkpt>
      <trkpt lat="36.8202018737793" lon="-5.1636528968811">
        <ele>872</ele>
        <time>2019-05-11T16:24:01Z</time>
      </trkpt>
      <trkpt lat="36.8202056884766" lon="-5.16364479064941">
        <ele>873</ele>
        <time>2019-05-11T16:24:05Z</time>
      </trkpt>
      <trkpt lat="36.8202133178711" lon="-5.16364288330078">
        <ele>873</ele>
        <time>2019-05-11T16:24:07Z</time>
      </trkpt>
      <trkpt lat="36.8202133178711" lon="-5.16364192962646">
        <ele>873</ele>
        <time>2019-05-11T16:24:09Z</time>
      </trkpt>
      <trkpt lat="36.8202133178711" lon="-5.16364192962646">
        <ele>873</ele>
        <time>2019-05-11T16:24:11Z</time>
      </trkpt>
      <trkpt lat="36.8202133178711" lon="-5.16364002227783">
        <ele>873</ele>
        <time>2019-05-11T16:24:13Z</time>
      </trkpt>
      <trkpt lat="36.8202095031738" lon="-5.16364002227783">
        <ele>873</ele>
        <time>2019-05-11T16:24:15Z</time>
      </trkpt>
      <trkpt lat="36.8202056884766" lon="-5.16364479064941">
        <ele>873</ele>
        <time>2019-05-11T16:24:17Z</time>
      </trkpt>
      <trkpt lat="36.8202018737793" lon="-5.1636471748352">
        <ele>873</ele>
        <time>2019-05-11T16:24:19Z</time>
      </trkpt>
      <trkpt lat="36.8202018737793" lon="-5.16365003585815">
        <ele>873</ele>
        <time>2019-05-11T16:24:21Z</time>
      </trkpt>
      <trkpt lat="36.820198059082" lon="-5.16365480422974">
        <ele>873</ele>
        <time>2019-05-11T16:24:29Z</time>
      </trkpt>
      <trkpt lat="36.8201866149902" lon="-5.16366291046143">
        <ele>873</ele>
        <time>2019-05-11T16:24:31Z</time>
      </trkpt>
      <trkpt lat="36.820182800293" lon="-5.16366720199585">
        <ele>873</ele>
        <time>2019-05-11T16:24:34Z</time>
      </trkpt>
      <trkpt lat="36.820182800293" lon="-5.1636700630188">
        <ele>873</ele>
        <time>2019-05-11T16:24:36Z</time>
      </trkpt>
      <trkpt lat="36.820182800293" lon="-5.16367292404175">
        <ele>873</ele>
        <time>2019-05-11T16:24:38Z</time>
      </trkpt>
      <trkpt lat="36.8201789855957" lon="-5.16367292404175">
        <ele>873</ele>
        <time>2019-05-11T16:24:40Z</time>
      </trkpt>
      <trkpt lat="36.8201789855957" lon="-5.16367721557617">
        <ele>873</ele>
        <time>2019-05-11T16:24:42Z</time>
      </trkpt>
      <trkpt lat="36.8201789855957" lon="-5.16368007659912">
        <ele>873</ele>
        <time>2019-05-11T16:24:44Z</time>
      </trkpt>
      <trkpt lat="36.8201789855957" lon="-5.16368198394775">
        <ele>873</ele>
        <time>2019-05-11T16:24:46Z</time>
      </trkpt>
      <trkpt lat="36.8201751708984" lon="-5.16368293762207">
        <ele>873</ele>
        <time>2019-05-11T16:24:48Z</time>
      </trkpt>
      <trkpt lat="36.8201751708984" lon="-5.16368293762207">
        <ele>873</ele>
        <time>2019-05-11T16:24:50Z</time>
      </trkpt>
      <trkpt lat="36.8201789855957" lon="-5.16368198394775">
        <ele>873</ele>
        <time>2019-05-11T16:24:52Z</time>
      </trkpt>
      <trkpt lat="36.8201789855957" lon="-5.16368198394775">
        <ele>873</ele>
        <time>2019-05-11T16:24:54Z</time>
      </trkpt>
      <trkpt lat="36.8201789855957" lon="-5.16367816925049">
        <ele>873</ele>
        <time>2019-05-11T16:24:56Z</time>
      </trkpt>
      <trkpt lat="36.820182800293" lon="-5.16367197036743">
        <ele>871</ele>
        <time>2019-05-11T16:25:02Z</time>
      </trkpt>
      <trkpt lat="36.8201866149902" lon="-5.16366815567017">
        <ele>871</ele>
        <time>2019-05-11T16:25:04Z</time>
      </trkpt>
      <trkpt lat="36.8201866149902" lon="-5.16366815567017">
        <ele>871</ele>
        <time>2019-05-11T16:25:08Z</time>
      </trkpt>
      <trkpt lat="36.8201904296875" lon="-5.16366720199585">
        <ele>870</ele>
        <time>2019-05-11T16:25:14Z</time>
      </trkpt>
      <trkpt lat="36.8201942443848" lon="-5.16367197036743">
        <ele>870</ele>
        <time>2019-05-11T16:25:16Z</time>
      </trkpt>
      <trkpt lat="36.8201904296875" lon="-5.16368007659912">
        <ele>869</ele>
        <time>2019-05-11T16:25:20Z</time>
      </trkpt>
      <trkpt lat="36.8201904296875" lon="-5.16368198394775">
        <ele>869</ele>
        <time>2019-05-11T16:25:22Z</time>
      </trkpt>
      <trkpt lat="36.8201904296875" lon="-5.16368293762207">
        <ele>869</ele>
        <time>2019-05-11T16:25:24Z</time>
      </trkpt>
      <trkpt lat="36.8201942443848" lon="-5.16368293762207">
        <ele>869</ele>
        <time>2019-05-11T16:25:26Z</time>
      </trkpt>
      <trkpt lat="36.8201942443848" lon="-5.16368198394775">
        <ele>869</ele>
        <time>2019-05-11T16:25:28Z</time>
      </trkpt>
      <trkpt lat="36.8201942443848" lon="-5.16368198394775">
        <ele>869</ele>
        <time>2019-05-11T16:25:30Z</time>
      </trkpt>
      <trkpt lat="36.8201942443848" lon="-5.16368198394775">
        <ele>869</ele>
        <time>2019-05-11T16:25:32Z</time>
      </trkpt>
      <trkpt lat="36.8201904296875" lon="-5.16369009017944">
        <ele>869</ele>
        <time>2019-05-11T16:25:38Z</time>
      </trkpt>
      <trkpt lat="36.8201942443848" lon="-5.16369295120239">
        <ele>869</ele>
        <time>2019-05-11T16:25:42Z</time>
      </trkpt>
      <trkpt lat="36.8201942443848" lon="-5.16369485855103">
        <ele>869</ele>
        <time>2019-05-11T16:25:44Z</time>
      </trkpt>
      <trkpt lat="36.820198059082" lon="-5.16370010375977">
        <ele>869</ele>
        <time>2019-05-11T16:25:48Z</time>
      </trkpt>
      <trkpt lat="36.820198059082" lon="-5.16370296478272">
        <ele>869</ele>
        <time>2019-05-11T16:25:51Z</time>
      </trkpt>
      <trkpt lat="36.8202018737793" lon="-5.16370487213135">
        <ele>869</ele>
        <time>2019-05-11T16:25:53Z</time>
      </trkpt>
      <trkpt lat="36.8202018737793" lon="-5.1637020111084">
        <ele>869</ele>
        <time>2019-05-11T16:25:55Z</time>
      </trkpt>
      <trkpt lat="36.8202018737793" lon="-5.16370296478272">
        <ele>869</ele>
        <time>2019-05-11T16:25:57Z</time>
      </trkpt>
      <trkpt lat="36.8202018737793" lon="-5.16370677947998">
        <ele>869</ele>
        <time>2019-05-11T16:25:59Z</time>
      </trkpt>
      <trkpt lat="36.8202018737793" lon="-5.16370820999146">
        <ele>869</ele>
        <time>2019-05-11T16:26:01Z</time>
      </trkpt>
      <trkpt lat="36.8202056884766" lon="-5.16370820999146">
        <ele>869</ele>
        <time>2019-05-11T16:26:03Z</time>
      </trkpt>
      <trkpt lat="36.8202056884766" lon="-5.16370677947998">
        <ele>869</ele>
        <time>2019-05-11T16:26:05Z</time>
      </trkpt>
      <trkpt lat="36.8202056884766" lon="-5.16370296478272">
        <ele>869</ele>
        <time>2019-05-11T16:26:07Z</time>
      </trkpt>
      <trkpt lat="36.8202095031738" lon="-5.1637020111084">
        <ele>869</ele>
        <time>2019-05-11T16:26:09Z</time>
      </trkpt>
      <trkpt lat="36.8202095031738" lon="-5.16370010375977">
        <ele>869</ele>
        <time>2019-05-11T16:26:11Z</time>
      </trkpt>
      <trkpt lat="36.8202095031738" lon="-5.16369819641113">
        <ele>869</ele>
        <time>2019-05-11T16:26:13Z</time>
      </trkpt>
      <trkpt lat="36.8202133178711" lon="-5.16369485855103">
        <ele>869</ele>
        <time>2019-05-11T16:26:15Z</time>
      </trkpt>
      <trkpt lat="36.8202133178711" lon="-5.16369199752808">
        <ele>869</ele>
        <time>2019-05-11T16:26:17Z</time>
      </trkpt>
      <trkpt lat="36.8202133178711" lon="-5.16368818283081">
        <ele>869</ele>
        <time>2019-05-11T16:26:19Z</time>
      </trkpt>
      <trkpt lat="36.8202133178711" lon="-5.16368007659912">
        <ele>869</ele>
        <time>2019-05-11T16:26:21Z</time>
      </trkpt>
      <trkpt lat="36.8202171325684" lon="-5.16367816925049">
        <ele>867</ele>
        <time>2019-05-11T16:26:25Z</time>
      </trkpt>
      <trkpt lat="36.8202209472656" lon="-5.16367816925049">
        <ele>866</ele>
        <time>2019-05-11T16:26:27Z</time>
      </trkpt>
      <trkpt lat="36.8202209472656" lon="-5.16368007659912">
        <ele>866</ele>
        <time>2019-05-11T16:26:29Z</time>
      </trkpt>
      <trkpt lat="36.8202247619629" lon="-5.16368198394775">
        <ele>866</ele>
        <time>2019-05-11T16:26:31Z</time>
      </trkpt>
      <trkpt lat="36.8202247619629" lon="-5.16368198394775">
        <ele>866</ele>
        <time>2019-05-11T16:26:33Z</time>
      </trkpt>
      <trkpt lat="36.8202247619629" lon="-5.16368293762207">
        <ele>866</ele>
        <time>2019-05-11T16:26:35Z</time>
      </trkpt>
      <trkpt lat="36.8202247619629" lon="-5.16368722915649">
        <ele>866</ele>
        <time>2019-05-11T16:26:37Z</time>
      </trkpt>
      <trkpt lat="36.8202247619629" lon="-5.16368818283081">
        <ele>866</ele>
        <time>2019-05-11T16:26:39Z</time>
      </trkpt>
      <trkpt lat="36.8202247619629" lon="-5.16368818283081">
        <ele>866</ele>
        <time>2019-05-11T16:26:41Z</time>
      </trkpt>
      <trkpt lat="36.8202209472656" lon="-5.16368818283081">
        <ele>866</ele>
        <time>2019-05-11T16:26:43Z</time>
      </trkpt>
      <trkpt lat="36.8202171325684" lon="-5.16368722915649">
        <ele>866</ele>
        <time>2019-05-11T16:26:45Z</time>
      </trkpt>
      <trkpt lat="36.8202133178711" lon="-5.1636848449707">
        <ele>866</ele>
        <time>2019-05-11T16:26:47Z</time>
      </trkpt>
      <trkpt lat="36.8202133178711" lon="-5.1636848449707">
        <ele>866</ele>
        <time>2019-05-11T16:26:50Z</time>
      </trkpt>
      <trkpt lat="36.8202133178711" lon="-5.16368293762207">
        <ele>866</ele>
        <time>2019-05-11T16:26:52Z</time>
      </trkpt>
      <trkpt lat="36.8202095031738" lon="-5.16368198394775">
        <ele>866</ele>
        <time>2019-05-11T16:26:54Z</time>
      </trkpt>
      <trkpt lat="36.8202095031738" lon="-5.1636848449707">
        <ele>866</ele>
        <time>2019-05-11T16:26:56Z</time>
      </trkpt>
      <trkpt lat="36.8202171325684" lon="-5.16368293762207">
        <ele>866</ele>
        <time>2019-05-11T16:27:00Z</time>
      </trkpt>
      <trkpt lat="36.8202285766602" lon="-5.16368293762207">
        <ele>866</ele>
        <time>2019-05-11T16:27:02Z</time>
      </trkpt>
      <trkpt lat="36.8202285766602" lon="-5.16368293762207">
        <ele>866</ele>
        <time>2019-05-11T16:27:04Z</time>
      </trkpt>
      <trkpt lat="36.8202285766602" lon="-5.16368722915649">
        <ele>866</ele>
        <time>2019-05-11T16:27:06Z</time>
      </trkpt>
      <trkpt lat="36.8202247619629" lon="-5.16368722915649">
        <ele>866</ele>
        <time>2019-05-11T16:27:08Z</time>
      </trkpt>
      <trkpt lat="36.8202209472656" lon="-5.16368722915649">
        <ele>866</ele>
        <time>2019-05-11T16:27:10Z</time>
      </trkpt>
      <trkpt lat="36.8202247619629" lon="-5.16368722915649">
        <ele>866</ele>
        <time>2019-05-11T16:27:12Z</time>
      </trkpt>
      <trkpt lat="36.8202247619629" lon="-5.16368722915649">
        <ele>866</ele>
        <time>2019-05-11T16:27:14Z</time>
      </trkpt>
      <trkpt lat="36.8202247619629" lon="-5.16368818283081">
        <ele>866</ele>
        <time>2019-05-11T16:27:16Z</time>
      </trkpt>
      <trkpt lat="36.8202133178711" lon="-5.1636848449707">
        <ele>866</ele>
        <time>2019-05-11T16:27:18Z</time>
      </trkpt>
      <trkpt lat="36.8202095031738" lon="-5.16368293762207">
        <ele>866</ele>
        <time>2019-05-11T16:27:20Z</time>
      </trkpt>
      <trkpt lat="36.8202056884766" lon="-5.1636848449707">
        <ele>866</ele>
        <time>2019-05-11T16:27:22Z</time>
      </trkpt>
      <trkpt lat="36.8202056884766" lon="-5.16368722915649">
        <ele>866</ele>
        <time>2019-05-11T16:27:24Z</time>
      </trkpt>
      <trkpt lat="36.8202056884766" lon="-5.16368818283081">
        <ele>866</ele>
        <time>2019-05-11T16:27:26Z</time>
      </trkpt>
      <trkpt lat="36.8202018737793" lon="-5.16368818283081">
        <ele>866</ele>
        <time>2019-05-11T16:27:28Z</time>
      </trkpt>
      <trkpt lat="36.8202018737793" lon="-5.16368818283081">
        <ele>866</ele>
        <time>2019-05-11T16:27:30Z</time>
      </trkpt>
      <trkpt lat="36.820198059082" lon="-5.16368818283081">
        <ele>866</ele>
        <time>2019-05-11T16:27:32Z</time>
      </trkpt>
      <trkpt lat="36.8201942443848" lon="-5.16369009017944">
        <ele>866</ele>
        <time>2019-05-11T16:27:35Z</time>
      </trkpt>
      <trkpt lat="36.8201942443848" lon="-5.16369199752808">
        <ele>866</ele>
        <time>2019-05-11T16:27:37Z</time>
      </trkpt>
      <trkpt lat="36.8201866149902" lon="-5.16369676589966">
        <ele>866</ele>
        <time>2019-05-11T16:27:39Z</time>
      </trkpt>
      <trkpt lat="36.8201866149902" lon="-5.16369676589966">
        <ele>866</ele>
        <time>2019-05-11T16:27:41Z</time>
      </trkpt>
      <trkpt lat="36.8201866149902" lon="-5.16369676589966">
        <ele>866</ele>
        <time>2019-05-11T16:27:43Z</time>
      </trkpt>
      <trkpt lat="36.8201866149902" lon="-5.16369819641113">
        <ele>866</ele>
        <time>2019-05-11T16:27:45Z</time>
      </trkpt>
      <trkpt lat="36.8201866149902" lon="-5.16369676589966">
        <ele>866</ele>
        <time>2019-05-11T16:27:47Z</time>
      </trkpt>
      <trkpt lat="36.8201866149902" lon="-5.16369485855103">
        <ele>866</ele>
        <time>2019-05-11T16:27:49Z</time>
      </trkpt>
      <trkpt lat="36.8201866149902" lon="-5.16369485855103">
        <ele>866</ele>
        <time>2019-05-11T16:27:51Z</time>
      </trkpt>
      <trkpt lat="36.8201866149902" lon="-5.16369485855103">
        <ele>866</ele>
        <time>2019-05-11T16:27:53Z</time>
      </trkpt>
      <trkpt lat="36.8201866149902" lon="-5.16370010375977">
        <ele>866</ele>
        <time>2019-05-11T16:27:55Z</time>
      </trkpt>
      <trkpt lat="36.8201904296875" lon="-5.16370296478272">
        <ele>866</ele>
        <time>2019-05-11T16:27:57Z</time>
      </trkpt>
      <trkpt lat="36.8201904296875" lon="-5.16371011734009">
        <ele>866</ele>
        <time>2019-05-11T16:27:59Z</time>
      </trkpt>
      <trkpt lat="36.8201866149902" lon="-5.16371011734009">
        <ele>866</ele>
        <time>2019-05-11T16:28:01Z</time>
      </trkpt>
      <trkpt lat="36.8201866149902" lon="-5.16370820999146">
        <ele>866</ele>
        <time>2019-05-11T16:28:03Z</time>
      </trkpt>
      <trkpt lat="36.8201866149902" lon="-5.16371202468872">
        <ele>866</ele>
        <time>2019-05-11T16:28:05Z</time>
      </trkpt>
      <trkpt lat="36.8202018737793" lon="-5.16372203826904">
        <ele>867</ele>
        <time>2019-05-11T16:28:11Z</time>
      </trkpt>
      <trkpt lat="36.8202209472656" lon="-5.16373205184936">
        <ele>868</ele>
        <time>2019-05-11T16:28:13Z</time>
      </trkpt>
      <trkpt lat="36.8202362060547" lon="-5.16373682022095">
        <ele>868</ele>
        <time>2019-05-11T16:28:15Z</time>
      </trkpt>
      <trkpt lat="36.8202476501465" lon="-5.16374206542969">
        <ele>869</ele>
        <time>2019-05-11T16:28:17Z</time>
      </trkpt>
      <trkpt lat="36.8202629089356" lon="-5.163743019104">
        <ele>869</ele>
        <time>2019-05-11T16:28:19Z</time>
      </trkpt>
      <trkpt lat="36.8202743530273" lon="-5.16374683380127">
        <ele>869</ele>
        <time>2019-05-11T16:28:21Z</time>
      </trkpt>
      <trkpt lat="36.8202896118164" lon="-5.16374778747559">
        <ele>870</ele>
        <time>2019-05-11T16:28:23Z</time>
      </trkpt>
      <trkpt lat="36.8203086853027" lon="-5.16375017166138">
        <ele>870</ele>
        <time>2019-05-11T16:28:26Z</time>
      </trkpt>
      <trkpt lat="36.8203201293945" lon="-5.16375684738159">
        <ele>870</ele>
        <time>2019-05-11T16:28:28Z</time>
      </trkpt>
      <trkpt lat="36.8203392028809" lon="-5.16376209259033">
        <ele>870</ele>
        <time>2019-05-11T16:28:30Z</time>
      </trkpt>
      <trkpt lat="36.8203582763672" lon="-5.1637601852417">
        <ele>870</ele>
        <time>2019-05-11T16:28:32Z</time>
      </trkpt>
      <trkpt lat="36.8203735351562" lon="-5.16376304626465">
        <ele>870</ele>
        <time>2019-05-11T16:28:34Z</time>
      </trkpt>
      <trkpt lat="36.8203964233398" lon="-5.16376781463623">
        <ele>870</ele>
        <time>2019-05-11T16:28:36Z</time>
      </trkpt>
      <trkpt lat="36.8204116821289" lon="-5.16377305984497">
        <ele>870</ele>
        <time>2019-05-11T16:28:38Z</time>
      </trkpt>
      <trkpt lat="36.8204345703125" lon="-5.1637749671936">
        <ele>870</ele>
        <time>2019-05-11T16:28:40Z</time>
      </trkpt>
      <trkpt lat="36.8204574584961" lon="-5.16377305984497">
        <ele>870</ele>
        <time>2019-05-11T16:28:42Z</time>
      </trkpt>
      <trkpt lat="36.8204765319824" lon="-5.1637749671936">
        <ele>870</ele>
        <time>2019-05-11T16:28:44Z</time>
      </trkpt>
      <trkpt lat="36.820499420166" lon="-5.16377782821655">
        <ele>870</ele>
        <time>2019-05-11T16:28:46Z</time>
      </trkpt>
      <trkpt lat="36.8205184936523" lon="-5.16378211975098">
        <ele>870</ele>
        <time>2019-05-11T16:28:48Z</time>
      </trkpt>
      <trkpt lat="36.8205528259277" lon="-5.16379022598267">
        <ele>870</ele>
        <time>2019-05-11T16:28:50Z</time>
      </trkpt>
      <trkpt lat="36.8205718994141" lon="-5.16379690170288">
        <ele>870</ele>
        <time>2019-05-11T16:28:52Z</time>
      </trkpt>
      <trkpt lat="36.8205909729004" lon="-5.16380310058594">
        <ele>870</ele>
        <time>2019-05-11T16:28:54Z</time>
      </trkpt>
      <trkpt lat="36.820613861084" lon="-5.16380786895752">
        <ele>870</ele>
        <time>2019-05-11T16:28:56Z</time>
      </trkpt>
      <trkpt lat="36.8206367492676" lon="-5.16381311416626">
        <ele>870</ele>
        <time>2019-05-11T16:28:58Z</time>
      </trkpt>
      <trkpt lat="36.8206558227539" lon="-5.16381978988647">
        <ele>870</ele>
        <time>2019-05-11T16:29:00Z</time>
      </trkpt>
      <trkpt lat="36.8206748962402" lon="-5.16382312774658">
        <ele>870</ele>
        <time>2019-05-11T16:29:03Z</time>
      </trkpt>
      <trkpt lat="36.8206901550293" lon="-5.1638298034668">
        <ele>870</ele>
        <time>2019-05-11T16:29:05Z</time>
      </trkpt>
      <trkpt lat="36.8206977844238" lon="-5.16383504867554">
        <ele>870</ele>
        <time>2019-05-11T16:29:07Z</time>
      </trkpt>
      <trkpt lat="36.8206977844238" lon="-5.16383504867554">
        <ele>870</ele>
        <time>2019-05-11T16:29:09Z</time>
      </trkpt>
      <trkpt lat="36.8207015991211" lon="-5.16383504867554">
        <ele>870</ele>
        <time>2019-05-11T16:29:11Z</time>
      </trkpt>
      <trkpt lat="36.8207015991211" lon="-5.16383695602417">
        <ele>870</ele>
        <time>2019-05-11T16:29:13Z</time>
      </trkpt>
      <trkpt lat="36.8207015991211" lon="-5.16383695602417">
        <ele>870</ele>
        <time>2019-05-11T16:29:15Z</time>
      </trkpt>
      <trkpt lat="36.8207015991211" lon="-5.16383695602417">
        <ele>870</ele>
        <time>2019-05-11T16:29:17Z</time>
      </trkpt>
      <trkpt lat="36.8207015991211" lon="-5.16383981704712">
        <ele>870</ele>
        <time>2019-05-11T16:29:19Z</time>
      </trkpt>
      <trkpt lat="36.8207054138184" lon="-5.16384220123291">
        <ele>870</ele>
        <time>2019-05-11T16:29:21Z</time>
      </trkpt>
      <trkpt lat="36.8207130432129" lon="-5.16384315490723">
        <ele>870</ele>
        <time>2019-05-11T16:29:23Z</time>
      </trkpt>
      <trkpt lat="36.8207321166992" lon="-5.16384983062744">
        <ele>870</ele>
        <time>2019-05-11T16:29:25Z</time>
      </trkpt>
      <trkpt lat="36.8207511901856" lon="-5.16385793685913">
        <ele>870</ele>
        <time>2019-05-11T16:29:27Z</time>
      </trkpt>
      <trkpt lat="36.8207740783691" lon="-5.1638650894165">
        <ele>870</ele>
        <time>2019-05-11T16:29:29Z</time>
      </trkpt>
      <trkpt lat="36.82080078125" lon="-5.16388177871704">
        <ele>870</ele>
        <time>2019-05-11T16:29:31Z</time>
      </trkpt>
      <trkpt lat="36.8208236694336" lon="-5.1638879776001">
        <ele>870</ele>
        <time>2019-05-11T16:29:33Z</time>
      </trkpt>
      <trkpt lat="36.8208427429199" lon="-5.1638970375061">
        <ele>870</ele>
        <time>2019-05-11T16:29:35Z</time>
      </trkpt>
      <trkpt lat="36.8208618164062" lon="-5.16390514373779">
        <ele>870</ele>
        <time>2019-05-11T16:29:37Z</time>
      </trkpt>
      <trkpt lat="36.8208808898926" lon="-5.16391277313232">
        <ele>870</ele>
        <time>2019-05-11T16:29:39Z</time>
      </trkpt>
      <trkpt lat="36.8209037780762" lon="-5.16391801834106">
        <ele>870</ele>
        <time>2019-05-11T16:29:42Z</time>
      </trkpt>
      <trkpt lat="36.8209228515625" lon="-5.16392803192139">
        <ele>870</ele>
        <time>2019-05-11T16:29:44Z</time>
      </trkpt>
      <trkpt lat="36.8209381103516" lon="-5.16393709182739">
        <ele>870</ele>
        <time>2019-05-11T16:29:46Z</time>
      </trkpt>
      <trkpt lat="36.8209609985352" lon="-5.16394519805908">
        <ele>870</ele>
        <time>2019-05-11T16:29:48Z</time>
      </trkpt>
      <trkpt lat="36.8209838867188" lon="-5.16395282745361">
        <ele>870</ele>
        <time>2019-05-11T16:29:50Z</time>
      </trkpt>
      <trkpt lat="36.8210067749023" lon="-5.16396188735962">
        <ele>870</ele>
        <time>2019-05-11T16:29:52Z</time>
      </trkpt>
      <trkpt lat="36.8210296630859" lon="-5.16396713256836">
        <ele>870</ele>
        <time>2019-05-11T16:29:54Z</time>
      </trkpt>
      <trkpt lat="36.8210525512695" lon="-5.16397285461426">
        <ele>870</ele>
        <time>2019-05-11T16:29:56Z</time>
      </trkpt>
      <trkpt lat="36.8210754394531" lon="-5.16398191452026">
        <ele>870</ele>
        <time>2019-05-11T16:29:58Z</time>
      </trkpt>
      <trkpt lat="36.8210983276367" lon="-5.16399002075195">
        <ele>870</ele>
        <time>2019-05-11T16:30:00Z</time>
      </trkpt>
      <trkpt lat="36.8211212158203" lon="-5.16400003433228">
        <ele>870</ele>
        <time>2019-05-11T16:30:02Z</time>
      </trkpt>
      <trkpt lat="36.8211441040039" lon="-5.16401195526123">
        <ele>870</ele>
        <time>2019-05-11T16:30:04Z</time>
      </trkpt>
      <trkpt lat="36.8211784362793" lon="-5.16402292251587">
        <ele>870</ele>
        <time>2019-05-11T16:30:06Z</time>
      </trkpt>
      <trkpt lat="36.8212013244629" lon="-5.16403007507324">
        <ele>870</ele>
        <time>2019-05-11T16:30:08Z</time>
      </trkpt>
      <trkpt lat="36.8212203979492" lon="-5.16402816772461">
        <ele>870</ele>
        <time>2019-05-11T16:30:10Z</time>
      </trkpt>
      <trkpt lat="36.8212432861328" lon="-5.16403007507324">
        <ele>870</ele>
        <time>2019-05-11T16:30:12Z</time>
      </trkpt>
      <trkpt lat="36.8212661743164" lon="-5.16404008865356">
        <ele>870</ele>
        <time>2019-05-11T16:30:14Z</time>
      </trkpt>
      <trkpt lat="36.8212890625" lon="-5.16405010223389">
        <ele>870</ele>
        <time>2019-05-11T16:30:17Z</time>
      </trkpt>
      <trkpt lat="36.8213081359863" lon="-5.16406202316284">
        <ele>870</ele>
        <time>2019-05-11T16:30:19Z</time>
      </trkpt>
      <trkpt lat="36.8213310241699" lon="-5.16407823562622">
        <ele>870</ele>
        <time>2019-05-11T16:30:21Z</time>
      </trkpt>
      <trkpt lat="36.821346282959" lon="-5.16409015655518">
        <ele>870</ele>
        <time>2019-05-11T16:30:23Z</time>
      </trkpt>
      <trkpt lat="36.8213653564453" lon="-5.16410303115845">
        <ele>870</ele>
        <time>2019-05-11T16:30:25Z</time>
      </trkpt>
      <trkpt lat="36.8213844299316" lon="-5.16412019729614">
        <ele>870</ele>
        <time>2019-05-11T16:30:27Z</time>
      </trkpt>
      <trkpt lat="36.821403503418" lon="-5.16413021087646">
        <ele>871</ele>
        <time>2019-05-11T16:30:29Z</time>
      </trkpt>
      <trkpt lat="36.8214225769043" lon="-5.16413497924805">
        <ele>871</ele>
        <time>2019-05-11T16:30:31Z</time>
      </trkpt>
      <trkpt lat="36.8214378356934" lon="-5.16413688659668">
        <ele>871</ele>
        <time>2019-05-11T16:30:33Z</time>
      </trkpt>
      <trkpt lat="36.8214569091797" lon="-5.16414308547974">
        <ele>871</ele>
        <time>2019-05-11T16:30:35Z</time>
      </trkpt>
      <trkpt lat="36.821475982666" lon="-5.16415214538574">
        <ele>871</ele>
        <time>2019-05-11T16:30:37Z</time>
      </trkpt>
      <trkpt lat="36.8215026855469" lon="-5.16416788101196">
        <ele>871</ele>
        <time>2019-05-11T16:30:39Z</time>
      </trkpt>
      <trkpt lat="36.8215255737305" lon="-5.1641731262207">
        <ele>871</ele>
        <time>2019-05-11T16:30:41Z</time>
      </trkpt>
      <trkpt lat="36.8215484619141" lon="-5.16417694091797">
        <ele>871</ele>
        <time>2019-05-11T16:30:43Z</time>
      </trkpt>
      <trkpt lat="36.8215713500977" lon="-5.16418695449829">
        <ele>871</ele>
        <time>2019-05-11T16:30:45Z</time>
      </trkpt>
      <trkpt lat="36.8215942382812" lon="-5.16419982910156">
        <ele>871</ele>
        <time>2019-05-11T16:30:47Z</time>
      </trkpt>
      <trkpt lat="36.8216133117676" lon="-5.16421318054199">
        <ele>871</ele>
        <time>2019-05-11T16:30:49Z</time>
      </trkpt>
      <trkpt lat="36.8216361999512" lon="-5.16422700881958">
        <ele>871</ele>
        <time>2019-05-11T16:30:52Z</time>
      </trkpt>
      <trkpt lat="36.821662902832" lon="-5.16423988342285">
        <ele>871</ele>
        <time>2019-05-11T16:30:54Z</time>
      </trkpt>
      <trkpt lat="36.8216857910156" lon="-5.16425704956055">
        <ele>871</ele>
        <time>2019-05-11T16:30:56Z</time>
      </trkpt>
      <trkpt lat="36.8217086791992" lon="-5.16426992416382">
        <ele>871</ele>
        <time>2019-05-11T16:30:58Z</time>
      </trkpt>
      <trkpt lat="36.8217315673828" lon="-5.16428804397583">
        <ele>871</ele>
        <time>2019-05-11T16:31:00Z</time>
      </trkpt>
      <trkpt lat="36.8217506408691" lon="-5.16430711746216">
        <ele>871</ele>
        <time>2019-05-11T16:31:02Z</time>
      </trkpt>
      <trkpt lat="36.8217735290527" lon="-5.1643271446228">
        <ele>871</ele>
        <time>2019-05-11T16:31:04Z</time>
      </trkpt>
      <trkpt lat="36.8217926025391" lon="-5.16435194015503">
        <ele>871</ele>
        <time>2019-05-11T16:31:06Z</time>
      </trkpt>
      <trkpt lat="36.8218116760254" lon="-5.16437721252441">
        <ele>871</ele>
        <time>2019-05-11T16:31:08Z</time>
      </trkpt>
      <trkpt lat="36.8218307495117" lon="-5.16439819335938">
        <ele>871</ele>
        <time>2019-05-11T16:31:10Z</time>
      </trkpt>
      <trkpt lat="36.8218536376953" lon="-5.16441488265991">
        <ele>871</ele>
        <time>2019-05-11T16:31:12Z</time>
      </trkpt>
      <trkpt lat="36.8218879699707" lon="-5.16444492340088">
        <ele>871</ele>
        <time>2019-05-11T16:31:14Z</time>
      </trkpt>
      <trkpt lat="36.8219108581543" lon="-5.16446685791016">
        <ele>871</ele>
        <time>2019-05-11T16:31:16Z</time>
      </trkpt>
      <trkpt lat="36.8219337463379" lon="-5.16449022293091">
        <ele>871</ele>
        <time>2019-05-11T16:31:18Z</time>
      </trkpt>
      <trkpt lat="36.8219528198242" lon="-5.16451501846314">
        <ele>871</ele>
        <time>2019-05-11T16:31:20Z</time>
      </trkpt>
      <trkpt lat="36.8219718933106" lon="-5.16453790664673">
        <ele>871</ele>
        <time>2019-05-11T16:31:22Z</time>
      </trkpt>
      <trkpt lat="36.8219871520996" lon="-5.16455793380737">
        <ele>871</ele>
        <time>2019-05-11T16:31:24Z</time>
      </trkpt>
      <trkpt lat="36.8220024108887" lon="-5.16458177566528">
        <ele>871</ele>
        <time>2019-05-11T16:31:27Z</time>
      </trkpt>
      <trkpt lat="36.8220176696777" lon="-5.16460514068604">
        <ele>871</ele>
        <time>2019-05-11T16:31:29Z</time>
      </trkpt>
      <trkpt lat="36.8220367431641" lon="-5.16462278366089">
        <ele>871</ele>
        <time>2019-05-11T16:31:31Z</time>
      </trkpt>
      <trkpt lat="36.8220596313477" lon="-5.16464185714722">
        <ele>871</ele>
        <time>2019-05-11T16:31:33Z</time>
      </trkpt>
      <trkpt lat="36.822078704834" lon="-5.16466283798218">
        <ele>871</ele>
        <time>2019-05-11T16:31:35Z</time>
      </trkpt>
      <trkpt lat="36.822093963623" lon="-5.16468715667725">
        <ele>871</ele>
        <time>2019-05-11T16:31:37Z</time>
      </trkpt>
      <trkpt lat="36.8221092224121" lon="-5.16471004486084">
        <ele>871</ele>
        <time>2019-05-11T16:31:39Z</time>
      </trkpt>
      <trkpt lat="36.8221244812012" lon="-5.16473293304443">
        <ele>871</ele>
        <time>2019-05-11T16:31:41Z</time>
      </trkpt>
      <trkpt lat="36.8221397399902" lon="-5.16475820541382">
        <ele>871</ele>
        <time>2019-05-11T16:31:43Z</time>
      </trkpt>
      <trkpt lat="36.822151184082" lon="-5.16478204727173">
        <ele>871</ele>
        <time>2019-05-11T16:31:45Z</time>
      </trkpt>
      <trkpt lat="36.8221664428711" lon="-5.16480684280396">
        <ele>871</ele>
        <time>2019-05-11T16:31:47Z</time>
      </trkpt>
      <trkpt lat="36.8221855163574" lon="-5.16484308242798">
        <ele>871</ele>
        <time>2019-05-11T16:31:49Z</time>
      </trkpt>
      <trkpt lat="36.8221969604492" lon="-5.16486215591431">
        <ele>871</ele>
        <time>2019-05-11T16:31:51Z</time>
      </trkpt>
      <trkpt lat="36.8222122192383" lon="-5.16487789154053">
        <ele>871</ele>
        <time>2019-05-11T16:31:53Z</time>
      </trkpt>
      <trkpt lat="36.8222274780273" lon="-5.16489696502686">
        <ele>871</ele>
        <time>2019-05-11T16:31:55Z</time>
      </trkpt>
      <trkpt lat="36.8222389221191" lon="-5.16491508483887">
        <ele>872</ele>
        <time>2019-05-11T16:31:57Z</time>
      </trkpt>
      <trkpt lat="36.8222541809082" lon="-5.16493701934814">
        <ele>872</ele>
        <time>2019-05-11T16:31:59Z</time>
      </trkpt>
      <trkpt lat="36.8222694396973" lon="-5.16495323181152">
        <ele>872</ele>
        <time>2019-05-11T16:32:02Z</time>
      </trkpt>
      <trkpt lat="36.8222885131836" lon="-5.16496706008911">
        <ele>872</ele>
        <time>2019-05-11T16:32:04Z</time>
      </trkpt>
      <trkpt lat="36.8223075866699" lon="-5.16498279571533">
        <ele>872</ele>
        <time>2019-05-11T16:32:06Z</time>
      </trkpt>
      <trkpt lat="36.8223266601562" lon="-5.16499996185303">
        <ele>872</ele>
        <time>2019-05-11T16:32:08Z</time>
      </trkpt>
      <trkpt lat="36.8223457336426" lon="-5.16501712799072">
        <ele>872</ele>
        <time>2019-05-11T16:32:10Z</time>
      </trkpt>
      <trkpt lat="36.8223609924316" lon="-5.16503477096558">
        <ele>872</ele>
        <time>2019-05-11T16:32:12Z</time>
      </trkpt>
      <trkpt lat="36.8223762512207" lon="-5.16505002975464">
        <ele>872</ele>
        <time>2019-05-11T16:32:14Z</time>
      </trkpt>
      <trkpt lat="36.822395324707" lon="-5.16506719589233">
        <ele>872</ele>
        <time>2019-05-11T16:32:16Z</time>
      </trkpt>
      <trkpt lat="36.8224143981934" lon="-5.16508483886719">
        <ele>872</ele>
        <time>2019-05-11T16:32:18Z</time>
      </trkpt>
      <trkpt lat="36.8224334716797" lon="-5.1651029586792">
        <ele>872</ele>
        <time>2019-05-11T16:32:20Z</time>
      </trkpt>
      <trkpt lat="36.822452545166" lon="-5.16512298583984">
        <ele>872</ele>
        <time>2019-05-11T16:32:22Z</time>
      </trkpt>
      <trkpt lat="36.8224792480469" lon="-5.16515016555786">
        <ele>872</ele>
        <time>2019-05-11T16:32:24Z</time>
      </trkpt>
      <trkpt lat="36.8224983215332" lon="-5.16516494750977">
        <ele>873</ele>
        <time>2019-05-11T16:32:26Z</time>
      </trkpt>
      <trkpt lat="36.8225135803223" lon="-5.16518211364746">
        <ele>873</ele>
        <time>2019-05-11T16:32:28Z</time>
      </trkpt>
      <trkpt lat="36.8225288391113" lon="-5.16519689559936">
        <ele>873</ele>
        <time>2019-05-11T16:32:30Z</time>
      </trkpt>
      <trkpt lat="36.8225517272949" lon="-5.16521215438843">
        <ele>873</ele>
        <time>2019-05-11T16:32:32Z</time>
      </trkpt>
      <trkpt lat="36.8225746154785" lon="-5.16522693634033">
        <ele>873</ele>
        <time>2019-05-11T16:32:34Z</time>
      </trkpt>
      <trkpt lat="36.8225898742676" lon="-5.16524505615234">
        <ele>873</ele>
        <time>2019-05-11T16:32:37Z</time>
      </trkpt>
      <trkpt lat="36.8226051330566" lon="-5.16526222229004">
        <ele>873</ele>
        <time>2019-05-11T16:32:39Z</time>
      </trkpt>
      <trkpt lat="36.822624206543" lon="-5.16527986526489">
        <ele>873</ele>
        <time>2019-05-11T16:32:41Z</time>
      </trkpt>
      <trkpt lat="36.8226470947266" lon="-5.1652979850769">
        <ele>873</ele>
        <time>2019-05-11T16:32:43Z</time>
      </trkpt>
      <trkpt lat="36.8226661682129" lon="-5.1653151512146">
        <ele>873</ele>
        <time>2019-05-11T16:32:45Z</time>
      </trkpt>
      <trkpt lat="36.8226852416992" lon="-5.16533184051514">
        <ele>873</ele>
        <time>2019-05-11T16:32:47Z</time>
      </trkpt>
      <trkpt lat="36.8227081298828" lon="-5.1653470993042">
        <ele>874</ele>
        <time>2019-05-11T16:32:49Z</time>
      </trkpt>
      <trkpt lat="36.8227272033691" lon="-5.1653618812561">
        <ele>874</ele>
        <time>2019-05-11T16:32:51Z</time>
      </trkpt>
      <trkpt lat="36.8227500915527" lon="-5.16537714004517">
        <ele>874</ele>
        <time>2019-05-11T16:32:53Z</time>
      </trkpt>
      <trkpt lat="36.8227729797363" lon="-5.16539001464844">
        <ele>874</ele>
        <time>2019-05-11T16:32:55Z</time>
      </trkpt>
      <trkpt lat="36.8227958679199" lon="-5.16540193557739">
        <ele>874</ele>
        <time>2019-05-11T16:32:57Z</time>
      </trkpt>
      <trkpt lat="36.822826385498" lon="-5.16542196273804">
        <ele>874</ele>
        <time>2019-05-11T16:32:59Z</time>
      </trkpt>
      <trkpt lat="36.8228492736816" lon="-5.1654372215271">
        <ele>874</ele>
        <time>2019-05-11T16:33:01Z</time>
      </trkpt>
      <trkpt lat="36.8228721618652" lon="-5.16545009613037">
        <ele>874</ele>
        <time>2019-05-11T16:33:03Z</time>
      </trkpt>
      <trkpt lat="36.8228988647461" lon="-5.16546297073364">
        <ele>874</ele>
        <time>2019-05-11T16:33:05Z</time>
      </trkpt>
      <trkpt lat="36.8229217529297" lon="-5.1654748916626">
        <ele>874</ele>
        <time>2019-05-11T16:33:07Z</time>
      </trkpt>
      <trkpt lat="36.8229446411133" lon="-5.16549015045166">
        <ele>874</ele>
        <time>2019-05-11T16:33:09Z</time>
      </trkpt>
      <trkpt lat="36.8229675292969" lon="-5.16550493240356">
        <ele>874</ele>
        <time>2019-05-11T16:33:12Z</time>
      </trkpt>
      <trkpt lat="36.8229904174805" lon="-5.16552209854126">
        <ele>874</ele>
        <time>2019-05-11T16:33:14Z</time>
      </trkpt>
      <trkpt lat="36.8230133056641" lon="-5.1655421257019">
        <ele>874</ele>
        <time>2019-05-11T16:33:16Z</time>
      </trkpt>
      <trkpt lat="36.8230361938477" lon="-5.16556215286255">
        <ele>874</ele>
        <time>2019-05-11T16:33:18Z</time>
      </trkpt>
      <trkpt lat="36.823055267334" lon="-5.16558504104614">
        <ele>874</ele>
        <time>2019-05-11T16:33:20Z</time>
      </trkpt>
      <trkpt lat="36.8230743408203" lon="-5.16560792922974">
        <ele>874</ele>
        <time>2019-05-11T16:33:22Z</time>
      </trkpt>
      <trkpt lat="36.8230972290039" lon="-5.16562795639038">
        <ele>874</ele>
        <time>2019-05-11T16:33:24Z</time>
      </trkpt>
      <trkpt lat="36.8231163024902" lon="-5.16564798355103">
        <ele>874</ele>
        <time>2019-05-11T16:33:26Z</time>
      </trkpt>
      <trkpt lat="36.8231391906738" lon="-5.16566801071167">
        <ele>874</ele>
        <time>2019-05-11T16:33:28Z</time>
      </trkpt>
      <trkpt lat="36.8231620788574" lon="-5.16568517684936">
        <ele>874</ele>
        <time>2019-05-11T16:33:30Z</time>
      </trkpt>
      <trkpt lat="36.8231811523438" lon="-5.16570520401001">
        <ele>874</ele>
        <time>2019-05-11T16:33:32Z</time>
      </trkpt>
      <trkpt lat="36.8232154846191" lon="-5.16573190689087">
        <ele>874</ele>
        <time>2019-05-11T16:33:34Z</time>
      </trkpt>
      <trkpt lat="36.8232383728027" lon="-5.16575002670288">
        <ele>874</ele>
        <time>2019-05-11T16:33:36Z</time>
      </trkpt>
      <trkpt lat="36.8232574462891" lon="-5.16576719284058">
        <ele>874</ele>
        <time>2019-05-11T16:33:38Z</time>
      </trkpt>
      <trkpt lat="36.8232765197754" lon="-5.16578197479248">
        <ele>874</ele>
        <time>2019-05-11T16:33:40Z</time>
      </trkpt>
      <trkpt lat="36.823299407959" lon="-5.16580200195312">
        <ele>874</ele>
        <time>2019-05-11T16:33:42Z</time>
      </trkpt>
      <trkpt lat="36.8233184814453" lon="-5.16582202911377">
        <ele>874</ele>
        <time>2019-05-11T16:33:44Z</time>
      </trkpt>
      <trkpt lat="36.8233375549316" lon="-5.16584205627441">
        <ele>874</ele>
        <time>2019-05-11T16:33:47Z</time>
      </trkpt>
      <trkpt lat="36.823356628418" lon="-5.16586208343506">
        <ele>874</ele>
        <time>2019-05-11T16:33:49Z</time>
      </trkpt>
      <trkpt lat="36.8233795166016" lon="-5.16588306427002">
        <ele>874</ele>
        <time>2019-05-11T16:33:51Z</time>
      </trkpt>
      <trkpt lat="36.8234024047852" lon="-5.16590309143066">
        <ele>874</ele>
        <time>2019-05-11T16:33:53Z</time>
      </trkpt>
      <trkpt lat="36.8234214782715" lon="-5.16592216491699">
        <ele>874</ele>
        <time>2019-05-11T16:33:55Z</time>
      </trkpt>
      <trkpt lat="36.8234443664551" lon="-5.16594219207764">
        <ele>874</ele>
        <time>2019-05-11T16:33:57Z</time>
      </trkpt>
      <trkpt lat="36.8234634399414" lon="-5.16596221923828">
        <ele>874</ele>
        <time>2019-05-11T16:33:59Z</time>
      </trkpt>
      <trkpt lat="36.823486328125" lon="-5.16597986221314">
        <ele>874</ele>
        <time>2019-05-11T16:34:01Z</time>
      </trkpt>
      <trkpt lat="36.8235015869141" lon="-5.16599702835083">
        <ele>874</ele>
        <time>2019-05-11T16:34:03Z</time>
      </trkpt>
      <trkpt lat="36.8235244750977" lon="-5.16601705551147">
        <ele>874</ele>
        <time>2019-05-11T16:34:05Z</time>
      </trkpt>
      <trkpt lat="36.823543548584" lon="-5.16603517532349">
        <ele>874</ele>
        <time>2019-05-11T16:34:07Z</time>
      </trkpt>
      <trkpt lat="36.8235664367676" lon="-5.16606521606445">
        <ele>874</ele>
        <time>2019-05-11T16:34:09Z</time>
      </trkpt>
      <trkpt lat="36.8235855102539" lon="-5.16608715057373">
        <ele>874</ele>
        <time>2019-05-11T16:34:11Z</time>
      </trkpt>
      <trkpt lat="36.8236045837402" lon="-5.16610717773438">
        <ele>874</ele>
        <time>2019-05-11T16:34:13Z</time>
      </trkpt>
      <trkpt lat="36.8236236572266" lon="-5.16612815856934">
        <ele>874</ele>
        <time>2019-05-11T16:34:15Z</time>
      </trkpt>
      <trkpt lat="36.8236427307129" lon="-5.16614294052124">
        <ele>874</ele>
        <time>2019-05-11T16:34:17Z</time>
      </trkpt>
      <trkpt lat="36.8236541748047" lon="-5.16615295410156">
        <ele>874</ele>
        <time>2019-05-11T16:34:20Z</time>
      </trkpt>
      <trkpt lat="36.823673248291" lon="-5.16616678237915">
        <ele>874</ele>
        <time>2019-05-11T16:34:22Z</time>
      </trkpt>
      <trkpt lat="36.8236923217773" lon="-5.16618204116821">
        <ele>874</ele>
        <time>2019-05-11T16:34:24Z</time>
      </trkpt>
      <trkpt lat="36.8237113952637" lon="-5.16619682312012">
        <ele>874</ele>
        <time>2019-05-11T16:34:26Z</time>
      </trkpt>
      <trkpt lat="36.8237342834473" lon="-5.16621685028076">
        <ele>874</ele>
        <time>2019-05-11T16:34:28Z</time>
      </trkpt>
      <trkpt lat="36.8237533569336" lon="-5.16623687744141">
        <ele>875</ele>
        <time>2019-05-11T16:34:30Z</time>
      </trkpt>
      <trkpt lat="36.8237762451172" lon="-5.16625499725342">
        <ele>875</ele>
        <time>2019-05-11T16:34:32Z</time>
      </trkpt>
      <trkpt lat="36.8237953186035" lon="-5.16626977920532">
        <ele>875</ele>
        <time>2019-05-11T16:34:34Z</time>
      </trkpt>
      <trkpt lat="36.8238143920898" lon="-5.16628980636597">
        <ele>875</ele>
        <time>2019-05-11T16:34:36Z</time>
      </trkpt>
      <trkpt lat="36.8238334655762" lon="-5.16630792617798">
        <ele>875</ele>
        <time>2019-05-11T16:34:38Z</time>
      </trkpt>
      <trkpt lat="36.8238525390625" lon="-5.16632795333862">
        <ele>876</ele>
        <time>2019-05-11T16:34:40Z</time>
      </trkpt>
      <trkpt lat="36.8238716125488" lon="-5.16634798049927">
        <ele>876</ele>
        <time>2019-05-11T16:34:42Z</time>
      </trkpt>
      <trkpt lat="36.823902130127" lon="-5.16637516021728">
        <ele>876</ele>
        <time>2019-05-11T16:34:44Z</time>
      </trkpt>
      <trkpt lat="36.8239212036133" lon="-5.16639280319214">
        <ele>876</ele>
        <time>2019-05-11T16:34:46Z</time>
      </trkpt>
      <trkpt lat="36.8239440917969" lon="-5.16641187667847">
        <ele>876</ele>
        <time>2019-05-11T16:34:48Z</time>
      </trkpt>
      <trkpt lat="36.8239631652832" lon="-5.16642999649048">
        <ele>876</ele>
        <time>2019-05-11T16:34:50Z</time>
      </trkpt>
      <trkpt lat="36.8239860534668" lon="-5.16645002365112">
        <ele>876</ele>
        <time>2019-05-11T16:34:52Z</time>
      </trkpt>
      <trkpt lat="36.8240051269531" lon="-5.16646718978882">
        <ele>876</ele>
        <time>2019-05-11T16:34:54Z</time>
      </trkpt>
      <trkpt lat="36.8240280151367" lon="-5.16648006439209">
        <ele>876</ele>
        <time>2019-05-11T16:34:57Z</time>
      </trkpt>
      <trkpt lat="36.8240509033203" lon="-5.16649484634399">
        <ele>876</ele>
        <time>2019-05-11T16:34:59Z</time>
      </trkpt>
      <trkpt lat="36.8240737915039" lon="-5.16651010513306">
        <ele>876</ele>
        <time>2019-05-11T16:35:01Z</time>
      </trkpt>
      <trkpt lat="36.8240966796875" lon="-5.16652488708496">
        <ele>876</ele>
        <time>2019-05-11T16:35:03Z</time>
      </trkpt>
      <trkpt lat="36.8241195678711" lon="-5.16654205322266">
        <ele>876</ele>
        <time>2019-05-11T16:35:05Z</time>
      </trkpt>
      <trkpt lat="36.8241424560547" lon="-5.16655683517456">
        <ele>876</ele>
        <time>2019-05-11T16:35:07Z</time>
      </trkpt>
      <trkpt lat="36.8241653442383" lon="-5.16657209396362">
        <ele>876</ele>
        <time>2019-05-11T16:35:09Z</time>
      </trkpt>
      <trkpt lat="36.8241920471191" lon="-5.16658687591553">
        <ele>876</ele>
        <time>2019-05-11T16:35:11Z</time>
      </trkpt>
      <trkpt lat="36.82421875" lon="-5.16659784317017">
        <ele>876</ele>
        <time>2019-05-11T16:35:13Z</time>
      </trkpt>
      <trkpt lat="36.8242416381836" lon="-5.16661214828491">
        <ele>876</ele>
        <time>2019-05-11T16:35:15Z</time>
      </trkpt>
      <trkpt lat="36.8242683410644" lon="-5.16662311553955">
        <ele>876</ele>
        <time>2019-05-11T16:35:17Z</time>
      </trkpt>
      <trkpt lat="36.8243103027344" lon="-5.16663980484009">
        <ele>876</ele>
        <time>2019-05-11T16:35:19Z</time>
      </trkpt>
      <trkpt lat="36.8243370056152" lon="-5.16665315628052">
        <ele>876</ele>
        <time>2019-05-11T16:35:21Z</time>
      </trkpt>
      <trkpt lat="36.8243598937988" lon="-5.16666507720947">
        <ele>876</ele>
        <time>2019-05-11T16:35:23Z</time>
      </trkpt>
      <trkpt lat="36.8243827819824" lon="-5.16667699813843">
        <ele>876</ele>
        <time>2019-05-11T16:35:25Z</time>
      </trkpt>
      <trkpt lat="36.824405670166" lon="-5.16668796539307">
        <ele>876</ele>
        <time>2019-05-11T16:35:27Z</time>
      </trkpt>
      <trkpt lat="36.8244323730469" lon="-5.16669797897339">
        <ele>876</ele>
        <time>2019-05-11T16:35:29Z</time>
      </trkpt>
      <trkpt lat="36.8244552612305" lon="-5.16670989990234">
        <ele>876</ele>
        <time>2019-05-11T16:35:32Z</time>
      </trkpt>
      <trkpt lat="36.8244819641113" lon="-5.16671800613403">
        <ele>876</ele>
        <time>2019-05-11T16:35:34Z</time>
      </trkpt>
      <trkpt lat="36.8245086669922" lon="-5.16672992706299">
        <ele>876</ele>
        <time>2019-05-11T16:35:36Z</time>
      </trkpt>
      <trkpt lat="36.8245315551758" lon="-5.16674184799194">
        <ele>876</ele>
        <time>2019-05-11T16:35:38Z</time>
      </trkpt>
      <trkpt lat="36.8245582580566" lon="-5.16675186157227">
        <ele>876</ele>
        <time>2019-05-11T16:35:40Z</time>
      </trkpt>
      <trkpt lat="36.8245811462402" lon="-5.1667628288269">
        <ele>876</ele>
        <time>2019-05-11T16:35:42Z</time>
      </trkpt>
      <trkpt lat="36.8246078491211" lon="-5.16677522659302">
        <ele>876</ele>
        <time>2019-05-11T16:35:44Z</time>
      </trkpt>
      <trkpt lat="36.8246307373047" lon="-5.16678476333618">
        <ele>876</ele>
        <time>2019-05-11T16:35:46Z</time>
      </trkpt>
      <trkpt lat="36.8246574401856" lon="-5.1667947769165">
        <ele>876</ele>
        <time>2019-05-11T16:35:48Z</time>
      </trkpt>
      <trkpt lat="36.8246841430664" lon="-5.16680717468262">
        <ele>876</ele>
        <time>2019-05-11T16:35:50Z</time>
      </trkpt>
      <trkpt lat="36.82470703125" lon="-5.16681718826294">
        <ele>876</ele>
        <time>2019-05-11T16:35:52Z</time>
      </trkpt>
      <trkpt lat="36.8247451782227" lon="-5.16683006286621">
        <ele>876</ele>
        <time>2019-05-11T16:35:54Z</time>
      </trkpt>
      <trkpt lat="36.8247718811035" lon="-5.1668381690979">
        <ele>876</ele>
        <time>2019-05-11T16:35:56Z</time>
      </trkpt>
      <trkpt lat="36.8247985839844" lon="-5.16684293746948">
        <ele>876</ele>
        <time>2019-05-11T16:35:58Z</time>
      </trkpt>
      <trkpt lat="36.8248176574707" lon="-5.16684198379517">
        <ele>876</ele>
        <time>2019-05-11T16:36:00Z</time>
      </trkpt>
      <trkpt lat="36.8248443603516" lon="-5.16684722900391">
        <ele>876</ele>
        <time>2019-05-11T16:36:02Z</time>
      </trkpt>
      <trkpt lat="36.8248710632324" lon="-5.1668529510498">
        <ele>876</ele>
        <time>2019-05-11T16:36:04Z</time>
      </trkpt>
      <trkpt lat="36.824893951416" lon="-5.16686296463013">
        <ele>876</ele>
        <time>2019-05-11T16:36:07Z</time>
      </trkpt>
      <trkpt lat="36.8249206542969" lon="-5.16687297821045">
        <ele>876</ele>
        <time>2019-05-11T16:36:09Z</time>
      </trkpt>
      <trkpt lat="36.8249435424805" lon="-5.16688013076782">
        <ele>876</ele>
        <time>2019-05-11T16:36:11Z</time>
      </trkpt>
      <trkpt lat="36.8249740600586" lon="-5.16689014434814">
        <ele>876</ele>
        <time>2019-05-11T16:36:13Z</time>
      </trkpt>
      <trkpt lat="36.8249969482422" lon="-5.1669020652771">
        <ele>876</ele>
        <time>2019-05-11T16:36:15Z</time>
      </trkpt>
      <trkpt lat="36.825023651123" lon="-5.16691303253174">
        <ele>876</ele>
        <time>2019-05-11T16:36:17Z</time>
      </trkpt>
      <trkpt lat="36.8250503540039" lon="-5.16692495346069">
        <ele>876</ele>
        <time>2019-05-11T16:36:19Z</time>
      </trkpt>
      <trkpt lat="36.8250770568848" lon="-5.16693496704102">
        <ele>876</ele>
        <time>2019-05-11T16:36:21Z</time>
      </trkpt>
      <trkpt lat="36.8251037597656" lon="-5.1669430732727">
        <ele>876</ele>
        <time>2019-05-11T16:36:23Z</time>
      </trkpt>
      <trkpt lat="36.8251304626465" lon="-5.16695499420166">
        <ele>876</ele>
        <time>2019-05-11T16:36:25Z</time>
      </trkpt>
      <trkpt lat="36.8251571655273" lon="-5.16696691513062">
        <ele>876</ele>
        <time>2019-05-11T16:36:27Z</time>
      </trkpt>
      <trkpt lat="36.8251914978027" lon="-5.16698980331421">
        <ele>876</ele>
        <time>2019-05-11T16:36:29Z</time>
      </trkpt>
      <trkpt lat="36.8252182006836" lon="-5.16700220108032">
        <ele>876</ele>
        <time>2019-05-11T16:36:31Z</time>
      </trkpt>
      <trkpt lat="36.8252372741699" lon="-5.16701316833496">
        <ele>876</ele>
        <time>2019-05-11T16:36:33Z</time>
      </trkpt>
      <trkpt lat="36.825252532959" lon="-5.16702795028686">
        <ele>876</ele>
        <time>2019-05-11T16:36:35Z</time>
      </trkpt>
      <trkpt lat="36.8252716064453" lon="-5.16704797744751">
        <ele>876</ele>
        <time>2019-05-11T16:36:37Z</time>
      </trkpt>
      <trkpt lat="36.8252868652344" lon="-5.16707181930542">
        <ele>876</ele>
        <time>2019-05-11T16:36:39Z</time>
      </trkpt>
      <trkpt lat="36.8252906799316" lon="-5.16709280014038">
        <ele>876</ele>
        <time>2019-05-11T16:36:42Z</time>
      </trkpt>
      <trkpt lat="36.8252906799316" lon="-5.1671028137207">
        <ele>876</ele>
        <time>2019-05-11T16:36:44Z</time>
      </trkpt>
      <trkpt lat="36.8252906799316" lon="-5.16710710525513">
        <ele>876</ele>
        <time>2019-05-11T16:36:46Z</time>
      </trkpt>
      <trkpt lat="36.8252944946289" lon="-5.16710710525513">
        <ele>876</ele>
        <time>2019-05-11T16:36:48Z</time>
      </trkpt>
      <trkpt lat="36.8252944946289" lon="-5.16710710525513">
        <ele>876</ele>
        <time>2019-05-11T16:36:50Z</time>
      </trkpt>
      <trkpt lat="36.8252983093262" lon="-5.16710710525513">
        <ele>876</ele>
        <time>2019-05-11T16:36:52Z</time>
      </trkpt>
      <trkpt lat="36.8252983093262" lon="-5.16710519790649">
        <ele>876</ele>
        <time>2019-05-11T16:36:54Z</time>
      </trkpt>
      <trkpt lat="36.8252983093262" lon="-5.16710519790649">
        <ele>876</ele>
        <time>2019-05-11T16:36:56Z</time>
      </trkpt>
      <trkpt lat="36.8252983093262" lon="-5.1671028137207">
        <ele>876</ele>
        <time>2019-05-11T16:36:58Z</time>
      </trkpt>
      <trkpt lat="36.8252983093262" lon="-5.16710186004639">
        <ele>876</ele>
        <time>2019-05-11T16:37:00Z</time>
      </trkpt>
      <trkpt lat="36.8252983093262" lon="-5.16710186004639">
        <ele>876</ele>
        <time>2019-05-11T16:37:02Z</time>
      </trkpt>
      <trkpt lat="36.8252983093262" lon="-5.16709995269775">
        <ele>877</ele>
        <time>2019-05-11T16:37:04Z</time>
      </trkpt>
      <trkpt lat="36.8253021240234" lon="-5.16709995269775">
        <ele>877</ele>
        <time>2019-05-11T16:37:06Z</time>
      </trkpt>
      <trkpt lat="36.8253021240234" lon="-5.16709995269775">
        <ele>877</ele>
        <time>2019-05-11T16:37:08Z</time>
      </trkpt>
      <trkpt lat="36.8253021240234" lon="-5.1670970916748">
        <ele>878</ele>
        <time>2019-05-11T16:37:10Z</time>
      </trkpt>
      <trkpt lat="36.8253021240234" lon="-5.16709518432617">
        <ele>878</ele>
        <time>2019-05-11T16:37:12Z</time>
      </trkpt>
      <trkpt lat="36.8253059387207" lon="-5.1670970916748">
        <ele>879</ele>
        <time>2019-05-11T16:37:14Z</time>
      </trkpt>
      <trkpt lat="36.8253059387207" lon="-5.16708993911743">
        <ele>881</ele>
        <time>2019-05-11T16:37:18Z</time>
      </trkpt>
      <trkpt lat="36.8253059387207" lon="-5.16708278656006">
        <ele>882</ele>
        <time>2019-05-11T16:37:20Z</time>
      </trkpt>
      <trkpt lat="36.8253021240234" lon="-5.16707801818848">
        <ele>882</ele>
        <time>2019-05-11T16:37:22Z</time>
      </trkpt>
      <trkpt lat="36.8253021240234" lon="-5.16706800460815">
        <ele>883</ele>
        <time>2019-05-11T16:37:24Z</time>
      </trkpt>
      <trkpt lat="36.8253135681152" lon="-5.1670298576355">
        <ele>883</ele>
        <time>2019-05-11T16:37:26Z</time>
      </trkpt>
      <trkpt lat="36.8253173828125" lon="-5.16699981689453">
        <ele>883</ele>
        <time>2019-05-11T16:37:28Z</time>
      </trkpt>
      <trkpt lat="36.8253288269043" lon="-5.1669750213623">
        <ele>883</ele>
        <time>2019-05-11T16:37:30Z</time>
      </trkpt>
      <trkpt lat="36.8253402709961" lon="-5.16695022583008">
        <ele>883</ele>
        <time>2019-05-11T16:37:32Z</time>
      </trkpt>
      <trkpt lat="36.8253517150879" lon="-5.16692781448364">
        <ele>883</ele>
        <time>2019-05-11T16:37:34Z</time>
      </trkpt>
      <trkpt lat="36.8253593444824" lon="-5.1669020652771">
        <ele>883</ele>
        <time>2019-05-11T16:37:36Z</time>
      </trkpt>
      <trkpt lat="36.825366973877" lon="-5.16687679290772">
        <ele>883</ele>
        <time>2019-05-11T16:37:39Z</time>
      </trkpt>
      <trkpt lat="36.8253746032715" lon="-5.1668529510498">
        <ele>883</ele>
        <time>2019-05-11T16:37:41Z</time>
      </trkpt>
      <trkpt lat="36.825382232666" lon="-5.16682720184326">
        <ele>883</ele>
        <time>2019-05-11T16:37:43Z</time>
      </trkpt>
      <trkpt lat="36.825382232666" lon="-5.16680479049683">
        <ele>883</ele>
        <time>2019-05-11T16:37:45Z</time>
      </trkpt>
      <trkpt lat="36.8253898620606" lon="-5.16678285598755">
        <ele>883</ele>
        <time>2019-05-11T16:37:47Z</time>
      </trkpt>
      <trkpt lat="36.8253974914551" lon="-5.16676187515259">
        <ele>883</ele>
        <time>2019-05-11T16:37:49Z</time>
      </trkpt>
      <trkpt lat="36.8254013061523" lon="-5.16673803329468">
        <ele>883</ele>
        <time>2019-05-11T16:37:51Z</time>
      </trkpt>
      <trkpt lat="36.8254089355469" lon="-5.16671800613403">
        <ele>883</ele>
        <time>2019-05-11T16:37:53Z</time>
      </trkpt>
      <trkpt lat="36.8254165649414" lon="-5.16669702529907">
        <ele>881</ele>
        <time>2019-05-11T16:37:55Z</time>
      </trkpt>
      <trkpt lat="36.8254241943359" lon="-5.16667222976685">
        <ele>881</ele>
        <time>2019-05-11T16:37:57Z</time>
      </trkpt>
      <trkpt lat="36.8254318237305" lon="-5.16664695739746">
        <ele>881</ele>
        <time>2019-05-11T16:37:59Z</time>
      </trkpt>
      <trkpt lat="36.8254432678223" lon="-5.16660976409912">
        <ele>881</ele>
        <time>2019-05-11T16:38:01Z</time>
      </trkpt>
      <trkpt lat="36.8254470825195" lon="-5.16658782958984">
        <ele>880</ele>
        <time>2019-05-11T16:38:03Z</time>
      </trkpt>
      <trkpt lat="36.8254547119141" lon="-5.16656494140625">
        <ele>879</ele>
        <time>2019-05-11T16:38:05Z</time>
      </trkpt>
      <trkpt lat="36.8254623413086" lon="-5.16654014587402">
        <ele>879</ele>
        <time>2019-05-11T16:38:07Z</time>
      </trkpt>
      <trkpt lat="36.8254699707031" lon="-5.16651678085327">
        <ele>879</ele>
        <time>2019-05-11T16:38:09Z</time>
      </trkpt>
      <trkpt lat="36.8254776000977" lon="-5.16649198532104">
        <ele>878</ele>
        <time>2019-05-11T16:38:11Z</time>
      </trkpt>
      <trkpt lat="36.8254890441894" lon="-5.16646718978882">
        <ele>878</ele>
        <time>2019-05-11T16:38:14Z</time>
      </trkpt>
      <trkpt lat="36.825496673584" lon="-5.16644287109375">
        <ele>878</ele>
        <time>2019-05-11T16:38:16Z</time>
      </trkpt>
      <trkpt lat="36.8255081176758" lon="-5.16642189025879">
        <ele>876</ele>
        <time>2019-05-11T16:38:18Z</time>
      </trkpt>
      <trkpt lat="36.8255157470703" lon="-5.16639804840088">
        <ele>876</ele>
        <time>2019-05-11T16:38:20Z</time>
      </trkpt>
      <trkpt lat="36.8255233764648" lon="-5.16637992858887">
        <ele>876</ele>
        <time>2019-05-11T16:38:22Z</time>
      </trkpt>
      <trkpt lat="36.8255310058594" lon="-5.16635704040527">
        <ele>876</ele>
        <time>2019-05-11T16:38:24Z</time>
      </trkpt>
      <trkpt lat="36.8255424499512" lon="-5.16633176803589">
        <ele>876</ele>
        <time>2019-05-11T16:38:26Z</time>
      </trkpt>
      <trkpt lat="36.825553894043" lon="-5.16630983352661">
        <ele>876</ele>
        <time>2019-05-11T16:38:28Z</time>
      </trkpt>
      <trkpt lat="36.8255615234375" lon="-5.16629219055176">
        <ele>876</ele>
        <time>2019-05-11T16:38:30Z</time>
      </trkpt>
      <trkpt lat="36.8255729675293" lon="-5.16627979278564">
        <ele>876</ele>
        <time>2019-05-11T16:38:32Z</time>
      </trkpt>
      <trkpt lat="36.8255844116211" lon="-5.16626977920532">
        <ele>876</ele>
        <time>2019-05-11T16:38:34Z</time>
      </trkpt>
      <trkpt lat="36.8255882263184" lon="-5.16626691818237">
        <ele>876</ele>
        <time>2019-05-11T16:38:36Z</time>
      </trkpt>
      <trkpt lat="36.8255882263184" lon="-5.16626310348511">
        <ele>876</ele>
        <time>2019-05-11T16:38:38Z</time>
      </trkpt>
      <trkpt lat="36.8255882263184" lon="-5.16626214981079">
        <ele>876</ele>
        <time>2019-05-11T16:38:40Z</time>
      </trkpt>
      <trkpt lat="36.8255882263184" lon="-5.16625785827637">
        <ele>876</ele>
        <time>2019-05-11T16:38:42Z</time>
      </trkpt>
      <trkpt lat="36.8255882263184" lon="-5.16625785827637">
        <ele>876</ele>
        <time>2019-05-11T16:38:44Z</time>
      </trkpt>
      <trkpt lat="36.8255920410156" lon="-5.16625785827637">
        <ele>876</ele>
        <time>2019-05-11T16:38:46Z</time>
      </trkpt>
      <trkpt lat="36.8255920410156" lon="-5.16625690460205">
        <ele>876</ele>
        <time>2019-05-11T16:38:48Z</time>
      </trkpt>
      <trkpt lat="36.8255882263184" lon="-5.16625690460205">
        <ele>876</ele>
        <time>2019-05-11T16:38:50Z</time>
      </trkpt>
      <trkpt lat="36.8255882263184" lon="-5.16625690460205">
        <ele>876</ele>
        <time>2019-05-11T16:38:53Z</time>
      </trkpt>
      <trkpt lat="36.8255882263184" lon="-5.16625308990478">
        <ele>876</ele>
        <time>2019-05-11T16:38:55Z</time>
      </trkpt>
      <trkpt lat="36.8255882263184" lon="-5.16625213623047">
        <ele>876</ele>
        <time>2019-05-11T16:38:57Z</time>
      </trkpt>
      <trkpt lat="36.8255844116211" lon="-5.16625213623047">
        <ele>876</ele>
        <time>2019-05-11T16:38:59Z</time>
      </trkpt>
      <trkpt lat="36.8255844116211" lon="-5.16625213623047">
        <ele>876</ele>
        <time>2019-05-11T16:39:01Z</time>
      </trkpt>
      <trkpt lat="36.8255882263184" lon="-5.16625213623047">
        <ele>876</ele>
        <time>2019-05-11T16:39:03Z</time>
      </trkpt>
      <trkpt lat="36.8255882263184" lon="-5.16625022888184">
        <ele>876</ele>
        <time>2019-05-11T16:39:05Z</time>
      </trkpt>
      <trkpt lat="36.8255882263184" lon="-5.16625213623047">
        <ele>876</ele>
        <time>2019-05-11T16:39:07Z</time>
      </trkpt>
      <trkpt lat="36.8255882263184" lon="-5.16625022888184">
        <ele>876</ele>
        <time>2019-05-11T16:39:09Z</time>
      </trkpt>
      <trkpt lat="36.8255882263184" lon="-5.16625022888184">
        <ele>876</ele>
        <time>2019-05-11T16:39:11Z</time>
      </trkpt>
      <trkpt lat="36.8255882263184" lon="-5.16625022888184">
        <ele>876</ele>
        <time>2019-05-11T16:39:13Z</time>
      </trkpt>
      <trkpt lat="36.8255882263184" lon="-5.16625022888184">
        <ele>876</ele>
        <time>2019-05-11T16:39:15Z</time>
      </trkpt>
      <trkpt lat="36.8255882263184" lon="-5.16625022888184">
        <ele>876</ele>
        <time>2019-05-11T16:39:17Z</time>
      </trkpt>
      <trkpt lat="36.8255882263184" lon="-5.16625022888184">
        <ele>876</ele>
        <time>2019-05-11T16:39:19Z</time>
      </trkpt>
      <trkpt lat="36.8255882263184" lon="-5.16625022888184">
        <ele>876</ele>
        <time>2019-05-11T16:39:21Z</time>
      </trkpt>
      <trkpt lat="36.8255882263184" lon="-5.16625022888184">
        <ele>876</ele>
        <time>2019-05-11T16:39:23Z</time>
      </trkpt>
      <trkpt lat="36.8255920410156" lon="-5.16625022888184">
        <ele>876</ele>
        <time>2019-05-11T16:39:25Z</time>
      </trkpt>
      <trkpt lat="36.8255920410156" lon="-5.16625022888184">
        <ele>876</ele>
        <time>2019-05-11T16:39:27Z</time>
      </trkpt>
      <trkpt lat="36.8255882263184" lon="-5.16625022888184">
        <ele>876</ele>
        <time>2019-05-11T16:39:29Z</time>
      </trkpt>
      <trkpt lat="36.8255882263184" lon="-5.16625022888184">
        <ele>876</ele>
        <time>2019-05-11T16:39:31Z</time>
      </trkpt>
      <trkpt lat="36.8255882263184" lon="-5.16625022888184">
        <ele>876</ele>
        <time>2019-05-11T16:39:33Z</time>
      </trkpt>
      <trkpt lat="36.8255882263184" lon="-5.16625022888184">
        <ele>876</ele>
        <time>2019-05-11T16:39:35Z</time>
      </trkpt>
      <trkpt lat="36.8255882263184" lon="-5.16625022888184">
        <ele>876</ele>
        <time>2019-05-11T16:39:37Z</time>
      </trkpt>
      <trkpt lat="36.8255882263184" lon="-5.16625022888184">
        <ele>876</ele>
        <time>2019-05-11T16:39:39Z</time>
      </trkpt>
      <trkpt lat="36.8255920410156" lon="-5.16625499725342">
        <ele>876</ele>
        <time>2019-05-11T16:39:41Z</time>
      </trkpt>
      <trkpt lat="36.8255920410156" lon="-5.16625690460205">
        <ele>876</ele>
        <time>2019-05-11T16:39:43Z</time>
      </trkpt>
      <trkpt lat="36.8255882263184" lon="-5.16625690460205">
        <ele>876</ele>
        <time>2019-05-11T16:39:45Z</time>
      </trkpt>
      <trkpt lat="36.8255882263184" lon="-5.16625499725342">
        <ele>876</ele>
        <time>2019-05-11T16:39:47Z</time>
      </trkpt>
      <trkpt lat="36.8255882263184" lon="-5.16625499725342">
        <ele>876</ele>
        <time>2019-05-11T16:39:49Z</time>
      </trkpt>
      <trkpt lat="36.8255920410156" lon="-5.16625308990478">
        <ele>876</ele>
        <time>2019-05-11T16:39:51Z</time>
      </trkpt>
      <trkpt lat="36.8255920410156" lon="-5.16625308990478">
        <ele>876</ele>
        <time>2019-05-11T16:39:53Z</time>
      </trkpt>
      <trkpt lat="36.8255920410156" lon="-5.16625308990478">
        <ele>876</ele>
        <time>2019-05-11T16:39:55Z</time>
      </trkpt>
      <trkpt lat="36.8255882263184" lon="-5.16625499725342">
        <ele>876</ele>
        <time>2019-05-11T16:39:57Z</time>
      </trkpt>
      <trkpt lat="36.8255882263184" lon="-5.16625690460205">
        <ele>876</ele>
        <time>2019-05-11T16:39:59Z</time>
      </trkpt>
      <trkpt lat="36.8255882263184" lon="-5.16625499725342">
        <ele>876</ele>
        <time>2019-05-11T16:40:01Z</time>
      </trkpt>
      <trkpt lat="36.8255882263184" lon="-5.16625499725342">
        <ele>876</ele>
        <time>2019-05-11T16:40:03Z</time>
      </trkpt>
      <trkpt lat="36.8255882263184" lon="-5.16625308990478">
        <ele>876</ele>
        <time>2019-05-11T16:40:05Z</time>
      </trkpt>
      <trkpt lat="36.8255882263184" lon="-5.16625213623047">
        <ele>876</ele>
        <time>2019-05-11T16:40:07Z</time>
      </trkpt>
      <trkpt lat="36.8255882263184" lon="-5.16625022888184">
        <ele>876</ele>
        <time>2019-05-11T16:40:09Z</time>
      </trkpt>
      <trkpt lat="36.8255882263184" lon="-5.16625022888184">
        <ele>876</ele>
        <time>2019-05-11T16:40:12Z</time>
      </trkpt>
      <trkpt lat="36.8255882263184" lon="-5.16624784469604">
        <ele>876</ele>
        <time>2019-05-11T16:40:14Z</time>
      </trkpt>
      <trkpt lat="36.8255882263184" lon="-5.16624689102173">
        <ele>876</ele>
        <time>2019-05-11T16:40:16Z</time>
      </trkpt>
      <trkpt lat="36.8255882263184" lon="-5.16624689102173">
        <ele>876</ele>
        <time>2019-05-11T16:40:18Z</time>
      </trkpt>
      <trkpt lat="36.8255882263184" lon="-5.16624689102173">
        <ele>876</ele>
        <time>2019-05-11T16:40:20Z</time>
      </trkpt>
      <trkpt lat="36.8255882263184" lon="-5.1662449836731">
        <ele>876</ele>
        <time>2019-05-11T16:40:22Z</time>
      </trkpt>
      <trkpt lat="36.8255882263184" lon="-5.1662449836731">
        <ele>876</ele>
        <time>2019-05-11T16:40:24Z</time>
      </trkpt>
      <trkpt lat="36.8255882263184" lon="-5.16624689102173">
        <ele>876</ele>
        <time>2019-05-11T16:40:26Z</time>
      </trkpt>
      <trkpt lat="36.8255882263184" lon="-5.16624689102173">
        <ele>876</ele>
        <time>2019-05-11T16:40:28Z</time>
      </trkpt>
      <trkpt lat="36.8255882263184" lon="-5.1662449836731">
        <ele>876</ele>
        <time>2019-05-11T16:40:30Z</time>
      </trkpt>
      <trkpt lat="36.8255882263184" lon="-5.1662449836731">
        <ele>876</ele>
        <time>2019-05-11T16:40:32Z</time>
      </trkpt>
      <trkpt lat="36.8255882263184" lon="-5.16624212265015">
        <ele>876</ele>
        <time>2019-05-11T16:40:34Z</time>
      </trkpt>
      <trkpt lat="36.8255844116211" lon="-5.16624212265015">
        <ele>876</ele>
        <time>2019-05-11T16:40:36Z</time>
      </trkpt>
      <trkpt lat="36.8255844116211" lon="-5.16624307632446">
        <ele>876</ele>
        <time>2019-05-11T16:40:38Z</time>
      </trkpt>
      <trkpt lat="36.8255844116211" lon="-5.16624307632446">
        <ele>876</ele>
        <time>2019-05-11T16:40:40Z</time>
      </trkpt>
      <trkpt lat="36.8255882263184" lon="-5.16624021530151">
        <ele>876</ele>
        <time>2019-05-11T16:40:42Z</time>
      </trkpt>
      <trkpt lat="36.8255882263184" lon="-5.1662449836731">
        <ele>876</ele>
        <time>2019-05-11T16:40:44Z</time>
      </trkpt>
      <trkpt lat="36.8255882263184" lon="-5.16624689102173">
        <ele>876</ele>
        <time>2019-05-11T16:40:46Z</time>
      </trkpt>
      <trkpt lat="36.8255882263184" lon="-5.16624689102173">
        <ele>876</ele>
        <time>2019-05-11T16:40:48Z</time>
      </trkpt>
      <trkpt lat="36.8255882263184" lon="-5.1662449836731">
        <ele>876</ele>
        <time>2019-05-11T16:40:50Z</time>
      </trkpt>
      <trkpt lat="36.8255882263184" lon="-5.16624307632446">
        <ele>876</ele>
        <time>2019-05-11T16:40:52Z</time>
      </trkpt>
      <trkpt lat="36.8255920410156" lon="-5.16624021530151">
        <ele>878</ele>
        <time>2019-05-11T16:41:16Z</time>
      </trkpt>
      <trkpt lat="36.8255920410156" lon="-5.16624212265015">
        <ele>878</ele>
        <time>2019-05-11T16:41:18Z</time>
      </trkpt>
      <trkpt lat="36.8255920410156" lon="-5.16624212265015">
        <ele>878</ele>
        <time>2019-05-11T16:41:20Z</time>
      </trkpt>
      <trkpt lat="36.8255920410156" lon="-5.16624212265015">
        <ele>878</ele>
        <time>2019-05-11T16:41:22Z</time>
      </trkpt>
      <trkpt lat="36.8255920410156" lon="-5.16624212265015">
        <ele>878</ele>
        <time>2019-05-11T16:41:28Z</time>
      </trkpt>
      <trkpt lat="36.8255920410156" lon="-5.16624307632446">
        <ele>878</ele>
        <time>2019-05-11T16:41:31Z</time>
      </trkpt>
      <trkpt lat="36.8255920410156" lon="-5.16624212265015">
        <ele>878</ele>
        <time>2019-05-11T16:41:33Z</time>
      </trkpt>
      <trkpt lat="36.8255958557129" lon="-5.16624307632446">
        <ele>878</ele>
        <time>2019-05-11T16:41:35Z</time>
      </trkpt>
      <trkpt lat="36.8255958557129" lon="-5.16624307632446">
        <ele>878</ele>
        <time>2019-05-11T16:41:37Z</time>
      </trkpt>
      <trkpt lat="36.8255958557129" lon="-5.16624307632446">
        <ele>878</ele>
        <time>2019-05-11T16:41:39Z</time>
      </trkpt>
      <trkpt lat="36.8255958557129" lon="-5.16624307632446">
        <ele>878</ele>
        <time>2019-05-11T16:41:41Z</time>
      </trkpt>
      <trkpt lat="36.8255958557129" lon="-5.16624307632446">
        <ele>878</ele>
        <time>2019-05-11T16:41:43Z</time>
      </trkpt>
      <trkpt lat="36.8255958557129" lon="-5.16624307632446">
        <ele>878</ele>
        <time>2019-05-11T16:41:45Z</time>
      </trkpt>
      <trkpt lat="36.8255996704102" lon="-5.16624307632446">
        <ele>878</ele>
        <time>2019-05-11T16:41:47Z</time>
      </trkpt>
      <trkpt lat="36.8255996704102" lon="-5.16624689102173">
        <ele>878</ele>
        <time>2019-05-11T16:41:49Z</time>
      </trkpt>
      <trkpt lat="36.8255996704102" lon="-5.16624689102173">
        <ele>878</ele>
        <time>2019-05-11T16:41:51Z</time>
      </trkpt>
      <trkpt lat="36.8255996704102" lon="-5.16624689102173">
        <ele>878</ele>
        <time>2019-05-11T16:41:53Z</time>
      </trkpt>
      <trkpt lat="36.8255996704102" lon="-5.16624784469604">
        <ele>878</ele>
        <time>2019-05-11T16:41:55Z</time>
      </trkpt>
      <trkpt lat="36.8255996704102" lon="-5.16625022888184">
        <ele>878</ele>
        <time>2019-05-11T16:41:57Z</time>
      </trkpt>
      <trkpt lat="36.8255996704102" lon="-5.16625022888184">
        <ele>878</ele>
        <time>2019-05-11T16:41:59Z</time>
      </trkpt>
      <trkpt lat="36.8255996704102" lon="-5.16625213623047">
        <ele>878</ele>
        <time>2019-05-11T16:42:01Z</time>
      </trkpt>
      <trkpt lat="36.8255996704102" lon="-5.16625213623047">
        <ele>878</ele>
        <time>2019-05-11T16:42:03Z</time>
      </trkpt>
      <trkpt lat="36.8255996704102" lon="-5.16625499725342">
        <ele>878</ele>
        <time>2019-05-11T16:42:05Z</time>
      </trkpt>
      <trkpt lat="36.8255996704102" lon="-5.16625690460205">
        <ele>878</ele>
        <time>2019-05-11T16:42:07Z</time>
      </trkpt>
      <trkpt lat="36.8255996704102" lon="-5.16625690460205">
        <ele>878</ele>
        <time>2019-05-11T16:42:09Z</time>
      </trkpt>
      <trkpt lat="36.8256034851074" lon="-5.16625690460205">
        <ele>876</ele>
        <time>2019-05-11T16:42:13Z</time>
      </trkpt>
      <trkpt lat="36.8256034851074" lon="-5.16625690460205">
        <ele>876</ele>
        <time>2019-05-11T16:42:15Z</time>
      </trkpt>
      <trkpt lat="36.8256034851074" lon="-5.16625690460205">
        <ele>876</ele>
        <time>2019-05-11T16:42:17Z</time>
      </trkpt>
      <trkpt lat="36.8256034851074" lon="-5.16625690460205">
        <ele>876</ele>
        <time>2019-05-11T16:42:19Z</time>
      </trkpt>
      <trkpt lat="36.8256034851074" lon="-5.16625785827637">
        <ele>876</ele>
        <time>2019-05-11T16:42:21Z</time>
      </trkpt>
      <trkpt lat="36.8256034851074" lon="-5.16625785827637">
        <ele>876</ele>
        <time>2019-05-11T16:42:23Z</time>
      </trkpt>
      <trkpt lat="36.8256034851074" lon="-5.16626310348511">
        <ele>876</ele>
        <time>2019-05-11T16:42:25Z</time>
      </trkpt>
      <trkpt lat="36.8256072998047" lon="-5.16626310348511">
        <ele>876</ele>
        <time>2019-05-11T16:42:27Z</time>
      </trkpt>
      <trkpt lat="36.8256072998047" lon="-5.16626977920532">
        <ele>876</ele>
        <time>2019-05-11T16:42:29Z</time>
      </trkpt>
      <trkpt lat="36.8256072998047" lon="-5.16627216339111">
        <ele>876</ele>
        <time>2019-05-11T16:42:31Z</time>
      </trkpt>
      <trkpt lat="36.8256072998047" lon="-5.16626977920532">
        <ele>876</ele>
        <time>2019-05-11T16:42:33Z</time>
      </trkpt>
      <trkpt lat="36.8256034851074" lon="-5.16627311706543">
        <ele>876</ele>
        <time>2019-05-11T16:42:35Z</time>
      </trkpt>
      <trkpt lat="36.8256034851074" lon="-5.16627502441406">
        <ele>876</ele>
        <time>2019-05-11T16:42:37Z</time>
      </trkpt>
      <trkpt lat="36.8256034851074" lon="-5.1662769317627">
        <ele>876</ele>
        <time>2019-05-11T16:42:39Z</time>
      </trkpt>
      <trkpt lat="36.8256034851074" lon="-5.1662769317627">
        <ele>876</ele>
        <time>2019-05-11T16:42:41Z</time>
      </trkpt>
      <trkpt lat="36.8256034851074" lon="-5.1662769317627">
        <ele>876</ele>
        <time>2019-05-11T16:42:43Z</time>
      </trkpt>
      <trkpt lat="36.8256034851074" lon="-5.1662769317627">
        <ele>876</ele>
        <time>2019-05-11T16:42:45Z</time>
      </trkpt>
      <trkpt lat="36.8256034851074" lon="-5.1662769317627">
        <ele>876</ele>
        <time>2019-05-11T16:42:47Z</time>
      </trkpt>
      <trkpt lat="36.8256034851074" lon="-5.16627788543701">
        <ele>876</ele>
        <time>2019-05-11T16:42:49Z</time>
      </trkpt>
      <trkpt lat="36.8256034851074" lon="-5.16627788543701">
        <ele>876</ele>
        <time>2019-05-11T16:42:51Z</time>
      </trkpt>
      <trkpt lat="36.8256034851074" lon="-5.16627788543701">
        <ele>876</ele>
        <time>2019-05-11T16:42:53Z</time>
      </trkpt>
      <trkpt lat="36.8256034851074" lon="-5.16627979278564">
        <ele>876</ele>
        <time>2019-05-11T16:42:55Z</time>
      </trkpt>
      <trkpt lat="36.8256072998047" lon="-5.16628217697144">
        <ele>876</ele>
        <time>2019-05-11T16:42:57Z</time>
      </trkpt>
      <trkpt lat="36.8256072998047" lon="-5.16628217697144">
        <ele>876</ele>
        <time>2019-05-11T16:42:59Z</time>
      </trkpt>
      <trkpt lat="36.8256072998047" lon="-5.16628313064575">
        <ele>876</ele>
        <time>2019-05-11T16:43:01Z</time>
      </trkpt>
      <trkpt lat="36.8256072998047" lon="-5.16628217697144">
        <ele>876</ele>
        <time>2019-05-11T16:43:03Z</time>
      </trkpt>
      <trkpt lat="36.8256072998047" lon="-5.16628313064575">
        <ele>876</ele>
        <time>2019-05-11T16:43:05Z</time>
      </trkpt>
      <trkpt lat="36.8256072998047" lon="-5.16628313064575">
        <ele>876</ele>
        <time>2019-05-11T16:43:07Z</time>
      </trkpt>
      <trkpt lat="36.8256072998047" lon="-5.16628313064575">
        <ele>876</ele>
        <time>2019-05-11T16:43:09Z</time>
      </trkpt>
      <trkpt lat="36.8256034851074" lon="-5.16628313064575">
        <ele>876</ele>
        <time>2019-05-11T16:43:11Z</time>
      </trkpt>
      <trkpt lat="36.8256034851074" lon="-5.16628313064575">
        <ele>876</ele>
        <time>2019-05-11T16:43:13Z</time>
      </trkpt>
      <trkpt lat="36.8256034851074" lon="-5.16628313064575">
        <ele>876</ele>
        <time>2019-05-11T16:43:15Z</time>
      </trkpt>
      <trkpt lat="36.8256034851074" lon="-5.16628313064575">
        <ele>876</ele>
        <time>2019-05-11T16:43:17Z</time>
      </trkpt>
      <trkpt lat="36.8256034851074" lon="-5.16628503799438">
        <ele>876</ele>
        <time>2019-05-11T16:43:19Z</time>
      </trkpt>
      <trkpt lat="36.8256034851074" lon="-5.16628503799438">
        <ele>876</ele>
        <time>2019-05-11T16:43:21Z</time>
      </trkpt>
      <trkpt lat="36.8256034851074" lon="-5.16628503799438">
        <ele>876</ele>
        <time>2019-05-11T16:43:23Z</time>
      </trkpt>
      <trkpt lat="36.8256034851074" lon="-5.16628503799438">
        <ele>876</ele>
        <time>2019-05-11T16:43:25Z</time>
      </trkpt>
      <trkpt lat="36.8255996704102" lon="-5.16628503799438">
        <ele>876</ele>
        <time>2019-05-11T16:43:27Z</time>
      </trkpt>
      <trkpt lat="36.8255996704102" lon="-5.16628503799438">
        <ele>876</ele>
        <time>2019-05-11T16:43:29Z</time>
      </trkpt>
      <trkpt lat="36.8255996704102" lon="-5.16628503799438">
        <ele>876</ele>
        <time>2019-05-11T16:43:31Z</time>
      </trkpt>
      <trkpt lat="36.8255996704102" lon="-5.16628694534302">
        <ele>876</ele>
        <time>2019-05-11T16:43:33Z</time>
      </trkpt>
      <trkpt lat="36.8255996704102" lon="-5.16628694534302">
        <ele>876</ele>
        <time>2019-05-11T16:43:35Z</time>
      </trkpt>
      <trkpt lat="36.8255996704102" lon="-5.16628694534302">
        <ele>876</ele>
        <time>2019-05-11T16:43:37Z</time>
      </trkpt>
      <trkpt lat="36.8255958557129" lon="-5.16628694534302">
        <ele>876</ele>
        <time>2019-05-11T16:43:39Z</time>
      </trkpt>
      <trkpt lat="36.8255958557129" lon="-5.16628694534302">
        <ele>876</ele>
        <time>2019-05-11T16:43:41Z</time>
      </trkpt>
      <trkpt lat="36.8255958557129" lon="-5.16628694534302">
        <ele>876</ele>
        <time>2019-05-11T16:43:43Z</time>
      </trkpt>
      <trkpt lat="36.8255958557129" lon="-5.16628694534302">
        <ele>876</ele>
        <time>2019-05-11T16:43:45Z</time>
      </trkpt>
      <trkpt lat="36.8255958557129" lon="-5.16628694534302">
        <ele>876</ele>
        <time>2019-05-11T16:43:47Z</time>
      </trkpt>
      <trkpt lat="36.8255920410156" lon="-5.16628789901733">
        <ele>876</ele>
        <time>2019-05-11T16:43:49Z</time>
      </trkpt>
      <trkpt lat="36.8255920410156" lon="-5.16628789901733">
        <ele>876</ele>
        <time>2019-05-11T16:43:51Z</time>
      </trkpt>
      <trkpt lat="36.8255920410156" lon="-5.16628503799438">
        <ele>876</ele>
        <time>2019-05-11T16:43:53Z</time>
      </trkpt>
      <trkpt lat="36.8255882263184" lon="-5.16628217697144">
        <ele>876</ele>
        <time>2019-05-11T16:43:56Z</time>
      </trkpt>
      <trkpt lat="36.8255882263184" lon="-5.16628503799438">
        <ele>876</ele>
        <time>2019-05-11T16:43:58Z</time>
      </trkpt>
      <trkpt lat="36.8255882263184" lon="-5.16628503799438">
        <ele>876</ele>
        <time>2019-05-11T16:44:00Z</time>
      </trkpt>
      <trkpt lat="36.8255882263184" lon="-5.16628503799438">
        <ele>876</ele>
        <time>2019-05-11T16:44:02Z</time>
      </trkpt>
      <trkpt lat="36.8255882263184" lon="-5.16628503799438">
        <ele>876</ele>
        <time>2019-05-11T16:44:04Z</time>
      </trkpt>
      <trkpt lat="36.8255882263184" lon="-5.16628503799438">
        <ele>876</ele>
        <time>2019-05-11T16:44:06Z</time>
      </trkpt>
      <trkpt lat="36.8255882263184" lon="-5.16628503799438">
        <ele>876</ele>
        <time>2019-05-11T16:44:08Z</time>
      </trkpt>
      <trkpt lat="36.8255882263184" lon="-5.16628503799438">
        <ele>876</ele>
        <time>2019-05-11T16:44:10Z</time>
      </trkpt>
      <trkpt lat="36.8255920410156" lon="-5.16628313064575">
        <ele>876</ele>
        <time>2019-05-11T16:44:12Z</time>
      </trkpt>
      <trkpt lat="36.8255920410156" lon="-5.16628313064575">
        <ele>876</ele>
        <time>2019-05-11T16:44:14Z</time>
      </trkpt>
      <trkpt lat="36.8255920410156" lon="-5.16628694534302">
        <ele>874</ele>
        <time>2019-05-11T16:44:24Z</time>
      </trkpt>
      <trkpt lat="36.8255996704102" lon="-5.16629219055176">
        <ele>874</ele>
        <time>2019-05-11T16:44:26Z</time>
      </trkpt>
      <trkpt lat="36.8256034851074" lon="-5.16629314422607">
        <ele>874</ele>
        <time>2019-05-11T16:44:28Z</time>
      </trkpt>
      <trkpt lat="36.8256034851074" lon="-5.16629505157471">
        <ele>874</ele>
        <time>2019-05-11T16:44:30Z</time>
      </trkpt>
      <trkpt lat="36.8256034851074" lon="-5.16629314422607">
        <ele>874</ele>
        <time>2019-05-11T16:44:32Z</time>
      </trkpt>
      <trkpt lat="36.8255996704102" lon="-5.16629219055176">
        <ele>874</ele>
        <time>2019-05-11T16:44:34Z</time>
      </trkpt>
      <trkpt lat="36.8256034851074" lon="-5.16628980636597">
        <ele>874</ele>
        <time>2019-05-11T16:44:36Z</time>
      </trkpt>
      <trkpt lat="36.8256034851074" lon="-5.16628694534302">
        <ele>874</ele>
        <time>2019-05-11T16:44:38Z</time>
      </trkpt>
      <trkpt lat="36.8256034851074" lon="-5.16628789901733">
        <ele>874</ele>
        <time>2019-05-11T16:44:40Z</time>
      </trkpt>
      <trkpt lat="36.8256034851074" lon="-5.16628217697144">
        <ele>874</ele>
        <time>2019-05-11T16:44:44Z</time>
      </trkpt>
      <trkpt lat="36.8256034851074" lon="-5.16628217697144">
        <ele>874</ele>
        <time>2019-05-11T16:44:50Z</time>
      </trkpt>
      <trkpt lat="36.8256034851074" lon="-5.16628217697144">
        <ele>874</ele>
        <time>2019-05-11T16:44:59Z</time>
      </trkpt>
      <trkpt lat="36.8256034851074" lon="-5.16628217697144">
        <ele>874</ele>
        <time>2019-05-11T16:45:01Z</time>
      </trkpt>
      <trkpt lat="36.8256034851074" lon="-5.16628217697144">
        <ele>874</ele>
        <time>2019-05-11T16:45:03Z</time>
      </trkpt>
      <trkpt lat="36.8256034851074" lon="-5.16628217697144">
        <ele>874</ele>
        <time>2019-05-11T16:45:05Z</time>
      </trkpt>
      <trkpt lat="36.8256034851074" lon="-5.16628217697144">
        <ele>874</ele>
        <time>2019-05-11T16:45:07Z</time>
      </trkpt>
      <trkpt lat="36.8256034851074" lon="-5.16628217697144">
        <ele>874</ele>
        <time>2019-05-11T16:45:09Z</time>
      </trkpt>
      <trkpt lat="36.8256072998047" lon="-5.16627979278564">
        <ele>874</ele>
        <time>2019-05-11T16:45:13Z</time>
      </trkpt>
      <trkpt lat="36.8256072998047" lon="-5.16627979278564">
        <ele>874</ele>
        <time>2019-05-11T16:45:15Z</time>
      </trkpt>
      <trkpt lat="36.8256072998047" lon="-5.16627788543701">
        <ele>874</ele>
        <time>2019-05-11T16:45:17Z</time>
      </trkpt>
      <trkpt lat="36.8256072998047" lon="-5.16627788543701">
        <ele>874</ele>
        <time>2019-05-11T16:45:19Z</time>
      </trkpt>
      <trkpt lat="36.8256072998047" lon="-5.16627979278564">
        <ele>874</ele>
        <time>2019-05-11T16:45:21Z</time>
      </trkpt>
      <trkpt lat="36.8256072998047" lon="-5.16627788543701">
        <ele>874</ele>
        <time>2019-05-11T16:45:23Z</time>
      </trkpt>
      <trkpt lat="36.8256072998047" lon="-5.1662769317627">
        <ele>874</ele>
        <time>2019-05-11T16:45:25Z</time>
      </trkpt>
      <trkpt lat="36.825611114502" lon="-5.16627788543701">
        <ele>876</ele>
        <time>2019-05-11T16:45:31Z</time>
      </trkpt>
      <trkpt lat="36.8256072998047" lon="-5.16627502441406">
        <ele>877</ele>
        <time>2019-05-11T16:45:41Z</time>
      </trkpt>
      <trkpt lat="36.8256072998047" lon="-5.16627311706543">
        <ele>877</ele>
        <time>2019-05-11T16:45:43Z</time>
      </trkpt>
      <trkpt lat="36.8255996704102" lon="-5.16628217697144">
        <ele>877</ele>
        <time>2019-05-11T16:46:08Z</time>
      </trkpt>
      <trkpt lat="36.8255958557129" lon="-5.16628217697144">
        <ele>877</ele>
        <time>2019-05-11T16:46:10Z</time>
      </trkpt>
      <trkpt lat="36.8255996704102" lon="-5.16628313064575">
        <ele>877</ele>
        <time>2019-05-11T16:46:12Z</time>
      </trkpt>
      <trkpt lat="36.8255996704102" lon="-5.16628313064575">
        <ele>877</ele>
        <time>2019-05-11T16:46:14Z</time>
      </trkpt>
      <trkpt lat="36.8255996704102" lon="-5.16628217697144">
        <ele>877</ele>
        <time>2019-05-11T16:46:16Z</time>
      </trkpt>
      <trkpt lat="36.8255958557129" lon="-5.16628217697144">
        <ele>877</ele>
        <time>2019-05-11T16:46:18Z</time>
      </trkpt>
      <trkpt lat="36.8255958557129" lon="-5.16627979278564">
        <ele>877</ele>
        <time>2019-05-11T16:46:20Z</time>
      </trkpt>
      <trkpt lat="36.8255958557129" lon="-5.16627979278564">
        <ele>877</ele>
        <time>2019-05-11T16:46:22Z</time>
      </trkpt>
      <trkpt lat="36.8255920410156" lon="-5.16627788543701">
        <ele>877</ele>
        <time>2019-05-11T16:46:24Z</time>
      </trkpt>
      <trkpt lat="36.8255920410156" lon="-5.16627502441406">
        <ele>877</ele>
        <time>2019-05-11T16:46:26Z</time>
      </trkpt>
      <trkpt lat="36.8255920410156" lon="-5.16627311706543">
        <ele>877</ele>
        <time>2019-05-11T16:46:28Z</time>
      </trkpt>
      <trkpt lat="36.8255920410156" lon="-5.16626977920532">
        <ele>877</ele>
        <time>2019-05-11T16:46:30Z</time>
      </trkpt>
      <trkpt lat="36.8255882263184" lon="-5.16626977920532">
        <ele>877</ele>
        <time>2019-05-11T16:46:32Z</time>
      </trkpt>
      <trkpt lat="36.8255920410156" lon="-5.16626787185669">
        <ele>877</ele>
        <time>2019-05-11T16:46:34Z</time>
      </trkpt>
      <trkpt lat="36.8255882263184" lon="-5.166259765625">
        <ele>877</ele>
        <time>2019-05-11T16:46:46Z</time>
      </trkpt>
      <trkpt lat="36.8255882263184" lon="-5.166259765625">
        <ele>877</ele>
        <time>2019-05-11T16:46:48Z</time>
      </trkpt>
      <trkpt lat="36.8255920410156" lon="-5.16626501083374">
        <ele>877</ele>
        <time>2019-05-11T16:46:58Z</time>
      </trkpt>
      <trkpt lat="36.8255920410156" lon="-5.16626501083374">
        <ele>877</ele>
        <time>2019-05-11T16:47:00Z</time>
      </trkpt>
      <trkpt lat="36.8255920410156" lon="-5.16626691818237">
        <ele>877</ele>
        <time>2019-05-11T16:47:02Z</time>
      </trkpt>
      <trkpt lat="36.8255920410156" lon="-5.16626691818237">
        <ele>877</ele>
        <time>2019-05-11T16:47:04Z</time>
      </trkpt>
      <trkpt lat="36.8255882263184" lon="-5.16626787185669">
        <ele>877</ele>
        <time>2019-05-11T16:47:09Z</time>
      </trkpt>
      <trkpt lat="36.8255882263184" lon="-5.16626977920532">
        <ele>877</ele>
        <time>2019-05-11T16:47:11Z</time>
      </trkpt>
      <trkpt lat="36.8255882263184" lon="-5.16626977920532">
        <ele>877</ele>
        <time>2019-05-11T16:47:13Z</time>
      </trkpt>
      <trkpt lat="36.8255882263184" lon="-5.16626977920532">
        <ele>877</ele>
        <time>2019-05-11T16:47:15Z</time>
      </trkpt>
      <trkpt lat="36.8255882263184" lon="-5.16626787185669">
        <ele>877</ele>
        <time>2019-05-11T16:47:17Z</time>
      </trkpt>
      <trkpt lat="36.8255844116211" lon="-5.16626691818237">
        <ele>877</ele>
        <time>2019-05-11T16:47:19Z</time>
      </trkpt>
      <trkpt lat="36.8255844116211" lon="-5.16626691818237">
        <ele>877</ele>
        <time>2019-05-11T16:47:21Z</time>
      </trkpt>
      <trkpt lat="36.8255844116211" lon="-5.16626310348511">
        <ele>877</ele>
        <time>2019-05-11T16:47:23Z</time>
      </trkpt>
      <trkpt lat="36.8255805969238" lon="-5.16626214981079">
        <ele>877</ele>
        <time>2019-05-11T16:47:25Z</time>
      </trkpt>
      <trkpt lat="36.8255805969238" lon="-5.166259765625">
        <ele>877</ele>
        <time>2019-05-11T16:47:27Z</time>
      </trkpt>
      <trkpt lat="36.8255805969238" lon="-5.16626214981079">
        <ele>877</ele>
        <time>2019-05-11T16:47:29Z</time>
      </trkpt>
      <trkpt lat="36.8255844116211" lon="-5.16626214981079">
        <ele>877</ele>
        <time>2019-05-11T16:47:31Z</time>
      </trkpt>
      <trkpt lat="36.8255805969238" lon="-5.16626214981079">
        <ele>877</ele>
        <time>2019-05-11T16:47:33Z</time>
      </trkpt>
      <trkpt lat="36.8255844116211" lon="-5.16626310348511">
        <ele>877</ele>
        <time>2019-05-11T16:47:35Z</time>
      </trkpt>
      <trkpt lat="36.8255767822266" lon="-5.16626310348511">
        <ele>877</ele>
        <time>2019-05-11T16:47:37Z</time>
      </trkpt>
      <trkpt lat="36.8255729675293" lon="-5.16625690460205">
        <ele>877</ele>
        <time>2019-05-11T16:47:39Z</time>
      </trkpt>
      <trkpt lat="36.8255615234375" lon="-5.16625022888184">
        <ele>877</ele>
        <time>2019-05-11T16:47:41Z</time>
      </trkpt>
      <trkpt lat="36.8255577087402" lon="-5.16623497009277">
        <ele>877</ele>
        <time>2019-05-11T16:47:43Z</time>
      </trkpt>
      <trkpt lat="36.8255577087402" lon="-5.1662220954895">
        <ele>877</ele>
        <time>2019-05-11T16:47:45Z</time>
      </trkpt>
      <trkpt lat="36.8255577087402" lon="-5.16621780395508">
        <ele>877</ele>
        <time>2019-05-11T16:47:47Z</time>
      </trkpt>
      <trkpt lat="36.8255577087402" lon="-5.16622018814087">
        <ele>877</ele>
        <time>2019-05-11T16:47:49Z</time>
      </trkpt>
      <trkpt lat="36.8255577087402" lon="-5.16622018814087">
        <ele>877</ele>
        <time>2019-05-11T16:47:51Z</time>
      </trkpt>
      <trkpt lat="36.8255577087402" lon="-5.16621494293213">
        <ele>877</ele>
        <time>2019-05-11T16:47:53Z</time>
      </trkpt>
      <trkpt lat="36.8255577087402" lon="-5.16620492935181">
        <ele>877</ele>
        <time>2019-05-11T16:47:55Z</time>
      </trkpt>
      <trkpt lat="36.8255615234375" lon="-5.16620492935181">
        <ele>877</ele>
        <time>2019-05-11T16:47:57Z</time>
      </trkpt>
      <trkpt lat="36.8255615234375" lon="-5.16620492935181">
        <ele>877</ele>
        <time>2019-05-11T16:47:59Z</time>
      </trkpt>
      <trkpt lat="36.8255615234375" lon="-5.16620302200317">
        <ele>877</ele>
        <time>2019-05-11T16:48:01Z</time>
      </trkpt>
      <trkpt lat="36.8255577087402" lon="-5.16620302200317">
        <ele>877</ele>
        <time>2019-05-11T16:48:03Z</time>
      </trkpt>
      <trkpt lat="36.8255615234375" lon="-5.16620302200317">
        <ele>877</ele>
        <time>2019-05-11T16:48:05Z</time>
      </trkpt>
      <trkpt lat="36.8255615234375" lon="-5.16620206832886">
        <ele>877</ele>
        <time>2019-05-11T16:48:08Z</time>
      </trkpt>
      <trkpt lat="36.8255615234375" lon="-5.16618490219116">
        <ele>877</ele>
        <time>2019-05-11T16:48:10Z</time>
      </trkpt>
      <trkpt lat="36.8255653381348" lon="-5.16616296768188">
        <ele>877</ele>
        <time>2019-05-11T16:48:12Z</time>
      </trkpt>
      <trkpt lat="36.825569152832" lon="-5.16613483428955">
        <ele>877</ele>
        <time>2019-05-11T16:48:14Z</time>
      </trkpt>
      <trkpt lat="36.8255767822266" lon="-5.16610813140869">
        <ele>877</ele>
        <time>2019-05-11T16:48:16Z</time>
      </trkpt>
      <trkpt lat="36.8255844116211" lon="-5.16608190536499">
        <ele>877</ele>
        <time>2019-05-11T16:48:18Z</time>
      </trkpt>
      <trkpt lat="36.8255920410156" lon="-5.16605997085571">
        <ele>876</ele>
        <time>2019-05-11T16:48:20Z</time>
      </trkpt>
      <trkpt lat="36.8256072998047" lon="-5.16603708267212">
        <ele>876</ele>
        <time>2019-05-11T16:48:22Z</time>
      </trkpt>
      <trkpt lat="36.8256187438965" lon="-5.16601181030273">
        <ele>876</ele>
        <time>2019-05-11T16:48:24Z</time>
      </trkpt>
      <trkpt lat="36.825626373291" lon="-5.16598510742188">
        <ele>876</ele>
        <time>2019-05-11T16:48:26Z</time>
      </trkpt>
      <trkpt lat="36.8256416320801" lon="-5.16595792770386">
        <ele>876</ele>
        <time>2019-05-11T16:48:28Z</time>
      </trkpt>
      <trkpt lat="36.8256530761719" lon="-5.16593217849731">
        <ele>876</ele>
        <time>2019-05-11T16:48:30Z</time>
      </trkpt>
      <trkpt lat="36.8256645202637" lon="-5.1659049987793">
        <ele>876</ele>
        <time>2019-05-11T16:48:32Z</time>
      </trkpt>
      <trkpt lat="36.8256759643555" lon="-5.16587018966675">
        <ele>876</ele>
        <time>2019-05-11T16:48:34Z</time>
      </trkpt>
      <trkpt lat="36.82568359375" lon="-5.16584491729736">
        <ele>875</ele>
        <time>2019-05-11T16:48:36Z</time>
      </trkpt>
      <trkpt lat="36.8256874084473" lon="-5.16582298278809">
        <ele>875</ele>
        <time>2019-05-11T16:48:38Z</time>
      </trkpt>
      <trkpt lat="36.8256912231445" lon="-5.16580295562744">
        <ele>875</ele>
        <time>2019-05-11T16:48:40Z</time>
      </trkpt>
      <trkpt lat="36.8256912231445" lon="-5.16577816009522">
        <ele>875</ele>
        <time>2019-05-11T16:48:42Z</time>
      </trkpt>
      <trkpt lat="36.8256988525391" lon="-5.16575479507446">
        <ele>875</ele>
        <time>2019-05-11T16:48:44Z</time>
      </trkpt>
      <trkpt lat="36.8257064819336" lon="-5.16573286056519">
        <ele>875</ele>
        <time>2019-05-11T16:48:46Z</time>
      </trkpt>
      <trkpt lat="36.8257064819336" lon="-5.16570997238159">
        <ele>875</ele>
        <time>2019-05-11T16:48:48Z</time>
      </trkpt>
      <trkpt lat="36.8257102966309" lon="-5.165687084198">
        <ele>875</ele>
        <time>2019-05-11T16:48:51Z</time>
      </trkpt>
      <trkpt lat="36.8257179260254" lon="-5.16566276550293">
        <ele>875</ele>
        <time>2019-05-11T16:48:53Z</time>
      </trkpt>
      <trkpt lat="36.8257179260254" lon="-5.16563987731934">
        <ele>875</ele>
        <time>2019-05-11T16:48:55Z</time>
      </trkpt>
      <trkpt lat="36.8257217407227" lon="-5.16561698913574">
        <ele>875</ele>
        <time>2019-05-11T16:48:57Z</time>
      </trkpt>
      <trkpt lat="36.8257217407227" lon="-5.16559505462646">
        <ele>875</ele>
        <time>2019-05-11T16:48:59Z</time>
      </trkpt>
      <trkpt lat="36.8257255554199" lon="-5.16557216644287">
        <ele>875</ele>
        <time>2019-05-11T16:49:01Z</time>
      </trkpt>
      <trkpt lat="36.8257293701172" lon="-5.1655478477478">
        <ele>875</ele>
        <time>2019-05-11T16:49:03Z</time>
      </trkpt>
      <trkpt lat="36.8257331848144" lon="-5.1655330657959">
        <ele>875</ele>
        <time>2019-05-11T16:49:05Z</time>
      </trkpt>
      <trkpt lat="36.8257331848144" lon="-5.1655101776123">
        <ele>875</ele>
        <time>2019-05-11T16:49:07Z</time>
      </trkpt>
      <trkpt lat="36.8257331848144" lon="-5.16548490524292">
        <ele>875</ele>
        <time>2019-05-11T16:49:09Z</time>
      </trkpt>
      <trkpt lat="36.8257331848144" lon="-5.16545820236206">
        <ele>875</ele>
        <time>2019-05-11T16:49:11Z</time>
      </trkpt>
      <trkpt lat="36.8257331848144" lon="-5.16543006896973">
        <ele>875</ele>
        <time>2019-05-11T16:49:13Z</time>
      </trkpt>
      <trkpt lat="36.8257331848144" lon="-5.16540193557739">
        <ele>875</ele>
        <time>2019-05-11T16:49:15Z</time>
      </trkpt>
      <trkpt lat="36.8257331848144" lon="-5.16537523269653">
        <ele>875</ele>
        <time>2019-05-11T16:49:17Z</time>
      </trkpt>
      <trkpt lat="36.825740814209" lon="-5.16533517837524">
        <ele>875</ele>
        <time>2019-05-11T16:49:19Z</time>
      </trkpt>
      <trkpt lat="36.8257446289062" lon="-5.16532182693481">
        <ele>875</ele>
        <time>2019-05-11T16:49:21Z</time>
      </trkpt>
      <trkpt lat="36.825756072998" lon="-5.16527795791626">
        <ele>875</ele>
        <time>2019-05-11T16:49:23Z</time>
      </trkpt>
      <trkpt lat="36.8257637023926" lon="-5.16525220870972">
        <ele>875</ele>
        <time>2019-05-11T16:49:25Z</time>
      </trkpt>
      <trkpt lat="36.8257713317871" lon="-5.16522693634033">
        <ele>875</ele>
        <time>2019-05-11T16:49:27Z</time>
      </trkpt>
      <trkpt lat="36.8257751464844" lon="-5.16519689559936">
        <ele>875</ele>
        <time>2019-05-11T16:49:29Z</time>
      </trkpt>
      <trkpt lat="36.8257865905762" lon="-5.16516780853272">
        <ele>875</ele>
        <time>2019-05-11T16:49:31Z</time>
      </trkpt>
      <trkpt lat="36.8257942199707" lon="-5.16514015197754">
        <ele>875</ele>
        <time>2019-05-11T16:49:33Z</time>
      </trkpt>
      <trkpt lat="36.8258056640625" lon="-5.16511487960815">
        <ele>875</ele>
        <time>2019-05-11T16:49:36Z</time>
      </trkpt>
      <trkpt lat="36.825813293457" lon="-5.16509008407593">
        <ele>875</ele>
        <time>2019-05-11T16:49:38Z</time>
      </trkpt>
      <trkpt lat="36.8258247375488" lon="-5.16506481170654">
        <ele>875</ele>
        <time>2019-05-11T16:49:40Z</time>
      </trkpt>
      <trkpt lat="36.8258361816406" lon="-5.16503810882568">
        <ele>875</ele>
        <time>2019-05-11T16:49:42Z</time>
      </trkpt>
      <trkpt lat="36.8258438110352" lon="-5.1650128364563">
        <ele>875</ele>
        <time>2019-05-11T16:49:44Z</time>
      </trkpt>
      <trkpt lat="36.8258590698242" lon="-5.16498804092407">
        <ele>875</ele>
        <time>2019-05-11T16:49:46Z</time>
      </trkpt>
      <trkpt lat="36.825870513916" lon="-5.16496181488037">
        <ele>875</ele>
        <time>2019-05-11T16:49:48Z</time>
      </trkpt>
      <trkpt lat="36.8258781433106" lon="-5.16493797302246">
        <ele>875</ele>
        <time>2019-05-11T16:49:50Z</time>
      </trkpt>
      <trkpt lat="36.8258934020996" lon="-5.1649169921875">
        <ele>875</ele>
        <time>2019-05-11T16:49:52Z</time>
      </trkpt>
      <trkpt lat="36.8259086608887" lon="-5.16489315032959">
        <ele>875</ele>
        <time>2019-05-11T16:49:54Z</time>
      </trkpt>
      <trkpt lat="36.8259162902832" lon="-5.16487216949463">
        <ele>875</ele>
        <time>2019-05-11T16:49:56Z</time>
      </trkpt>
      <trkpt lat="36.8259353637695" lon="-5.16483497619629">
        <ele>875</ele>
        <time>2019-05-11T16:49:58Z</time>
      </trkpt>
      <trkpt lat="36.8259506225586" lon="-5.16481018066406">
        <ele>875</ele>
        <time>2019-05-11T16:50:00Z</time>
      </trkpt>
      <trkpt lat="36.8259658813477" lon="-5.16478300094604">
        <ele>875</ele>
        <time>2019-05-11T16:50:02Z</time>
      </trkpt>
      <trkpt lat="36.8259735107422" lon="-5.16475486755371">
        <ele>875</ele>
        <time>2019-05-11T16:50:04Z</time>
      </trkpt>
      <trkpt lat="36.8259887695312" lon="-5.16472816467285">
        <ele>875</ele>
        <time>2019-05-11T16:50:06Z</time>
      </trkpt>
      <trkpt lat="36.8259963989258" lon="-5.16469812393188">
        <ele>875</ele>
        <time>2019-05-11T16:50:09Z</time>
      </trkpt>
      <trkpt lat="36.8260078430176" lon="-5.16467189788818">
        <ele>875</ele>
        <time>2019-05-11T16:50:11Z</time>
      </trkpt>
      <trkpt lat="36.8260154724121" lon="-5.16464281082153">
        <ele>875</ele>
        <time>2019-05-11T16:50:13Z</time>
      </trkpt>
      <trkpt lat="36.8260269165039" lon="-5.16461515426636">
        <ele>875</ele>
        <time>2019-05-11T16:50:15Z</time>
      </trkpt>
      <trkpt lat="36.8260383605957" lon="-5.16458797454834">
        <ele>875</ele>
        <time>2019-05-11T16:50:17Z</time>
      </trkpt>
      <trkpt lat="36.8260459899902" lon="-5.16456317901611">
        <ele>875</ele>
        <time>2019-05-11T16:50:19Z</time>
      </trkpt>
      <trkpt lat="36.8260536193848" lon="-5.16453695297241">
        <ele>874</ele>
        <time>2019-05-11T16:50:21Z</time>
      </trkpt>
      <trkpt lat="36.8260612487793" lon="-5.16450786590576">
        <ele>874</ele>
        <time>2019-05-11T16:50:23Z</time>
      </trkpt>
      <trkpt lat="36.8260726928711" lon="-5.16448211669922">
        <ele>873</ele>
        <time>2019-05-11T16:50:25Z</time>
      </trkpt>
      <trkpt lat="36.8260765075684" lon="-5.16445302963257">
        <ele>873</ele>
        <time>2019-05-11T16:50:27Z</time>
      </trkpt>
      <trkpt lat="36.8260841369629" lon="-5.16443300247192">
        <ele>873</ele>
        <time>2019-05-11T16:50:29Z</time>
      </trkpt>
      <trkpt lat="36.8260841369629" lon="-5.16442680358887">
        <ele>873</ele>
        <time>2019-05-11T16:50:31Z</time>
      </trkpt>
      <trkpt lat="36.8260841369629" lon="-5.1644229888916">
        <ele>873</ele>
        <time>2019-05-11T16:50:33Z</time>
      </trkpt>
      <trkpt lat="36.8260841369629" lon="-5.16441822052002">
        <ele>873</ele>
        <time>2019-05-11T16:50:35Z</time>
      </trkpt>
      <trkpt lat="36.8260841369629" lon="-5.16441202163696">
        <ele>873</ele>
        <time>2019-05-11T16:50:37Z</time>
      </trkpt>
      <trkpt lat="36.8260917663574" lon="-5.16440010070801">
        <ele>873</ele>
        <time>2019-05-11T16:50:39Z</time>
      </trkpt>
      <trkpt lat="36.826099395752" lon="-5.164381980896">
        <ele>873</ele>
        <time>2019-05-11T16:50:41Z</time>
      </trkpt>
      <trkpt lat="36.8261032104492" lon="-5.16435289382935">
        <ele>873</ele>
        <time>2019-05-11T16:50:43Z</time>
      </trkpt>
      <trkpt lat="36.8261070251465" lon="-5.16432809829712">
        <ele>873</ele>
        <time>2019-05-11T16:50:45Z</time>
      </trkpt>
      <trkpt lat="36.8261108398438" lon="-5.16430711746216">
        <ele>873</ele>
        <time>2019-05-11T16:50:47Z</time>
      </trkpt>
      <trkpt lat="36.8261108398438" lon="-5.16428184509277">
        <ele>873</ele>
        <time>2019-05-11T16:50:50Z</time>
      </trkpt>
      <trkpt lat="36.826114654541" lon="-5.16425514221191">
        <ele>873</ele>
        <time>2019-05-11T16:50:52Z</time>
      </trkpt>
      <trkpt lat="36.8261184692383" lon="-5.16422700881958">
        <ele>873</ele>
        <time>2019-05-11T16:50:54Z</time>
      </trkpt>
      <trkpt lat="36.8261184692383" lon="-5.16419792175293">
        <ele>873</ele>
        <time>2019-05-11T16:50:56Z</time>
      </trkpt>
      <trkpt lat="36.8261184692383" lon="-5.1641731262207">
        <ele>873</ele>
        <time>2019-05-11T16:50:58Z</time>
      </trkpt>
      <trkpt lat="36.8261222839356" lon="-5.16414308547974">
        <ele>873</ele>
        <time>2019-05-11T16:51:00Z</time>
      </trkpt>
      <trkpt lat="36.8261260986328" lon="-5.16411304473877">
        <ele>873</ele>
        <time>2019-05-11T16:51:02Z</time>
      </trkpt>
      <trkpt lat="36.8261260986328" lon="-5.16408681869507">
        <ele>873</ele>
        <time>2019-05-11T16:51:04Z</time>
      </trkpt>
      <trkpt lat="36.8261299133301" lon="-5.16406011581421">
        <ele>873</ele>
        <time>2019-05-11T16:51:06Z</time>
      </trkpt>
      <trkpt lat="36.8261337280273" lon="-5.16403198242188">
        <ele>873</ele>
        <time>2019-05-11T16:51:08Z</time>
      </trkpt>
      <trkpt lat="36.8261375427246" lon="-5.16400194168091">
        <ele>873</ele>
        <time>2019-05-11T16:51:10Z</time>
      </trkpt>
      <trkpt lat="36.8261413574219" lon="-5.16397190093994">
        <ele>873</ele>
        <time>2019-05-11T16:51:12Z</time>
      </trkpt>
      <trkpt lat="36.8261413574219" lon="-5.16394186019897">
        <ele>873</ele>
        <time>2019-05-11T16:51:14Z</time>
      </trkpt>
      <trkpt lat="36.8261489868164" lon="-5.1638970375061">
        <ele>873</ele>
        <time>2019-05-11T16:51:16Z</time>
      </trkpt>
      <trkpt lat="36.8261528015137" lon="-5.16386699676514">
        <ele>873</ele>
        <time>2019-05-11T16:51:18Z</time>
      </trkpt>
      <trkpt lat="36.8261566162109" lon="-5.16383504867554">
        <ele>873</ele>
        <time>2019-05-11T16:51:20Z</time>
      </trkpt>
      <trkpt lat="36.8261680603027" lon="-5.16380310058594">
        <ele>873</ele>
        <time>2019-05-11T16:51:22Z</time>
      </trkpt>
      <trkpt lat="36.826171875" lon="-5.16377305984497">
        <ele>873</ele>
        <time>2019-05-11T16:51:24Z</time>
      </trkpt>
      <trkpt lat="36.8261833190918" lon="-5.16374778747559">
        <ele>873</ele>
        <time>2019-05-11T16:51:27Z</time>
      </trkpt>
      <trkpt lat="36.8261985778809" lon="-5.16372203826904">
        <ele>873</ele>
        <time>2019-05-11T16:51:29Z</time>
      </trkpt>
      <trkpt lat="36.8262138366699" lon="-5.16369485855103">
        <ele>873</ele>
        <time>2019-05-11T16:51:31Z</time>
      </trkpt>
      <trkpt lat="36.8262252807617" lon="-5.16366720199585">
        <ele>873</ele>
        <time>2019-05-11T16:51:33Z</time>
      </trkpt>
      <trkpt lat="36.8262405395508" lon="-5.16364192962646">
        <ele>873</ele>
        <time>2019-05-11T16:51:35Z</time>
      </trkpt>
      <trkpt lat="36.8262557983398" lon="-5.16361808776856">
        <ele>873</ele>
        <time>2019-05-11T16:51:37Z</time>
      </trkpt>
      <trkpt lat="36.8262710571289" lon="-5.16359281539917">
        <ele>873</ele>
        <time>2019-05-11T16:51:39Z</time>
      </trkpt>
      <trkpt lat="36.8262825012207" lon="-5.16357803344727">
        <ele>873</ele>
        <time>2019-05-11T16:51:41Z</time>
      </trkpt>
      <trkpt lat="36.8262901306152" lon="-5.16356515884399">
        <ele>873</ele>
        <time>2019-05-11T16:51:43Z</time>
      </trkpt>
      <trkpt lat="36.826301574707" lon="-5.16354703903198">
        <ele>873</ele>
        <time>2019-05-11T16:51:45Z</time>
      </trkpt>
      <trkpt lat="36.8263168334961" lon="-5.16352796554565">
        <ele>873</ele>
        <time>2019-05-11T16:51:47Z</time>
      </trkpt>
      <trkpt lat="36.8263282775879" lon="-5.16350698471069">
        <ele>873</ele>
        <time>2019-05-11T16:51:49Z</time>
      </trkpt>
      <trkpt lat="36.826343536377" lon="-5.16347980499268">
        <ele>873</ele>
        <time>2019-05-11T16:51:51Z</time>
      </trkpt>
      <trkpt lat="36.826358795166" lon="-5.16346311569214">
        <ele>873</ele>
        <time>2019-05-11T16:51:53Z</time>
      </trkpt>
      <trkpt lat="36.8263740539551" lon="-5.16344022750854">
        <ele>873</ele>
        <time>2019-05-11T16:51:55Z</time>
      </trkpt>
      <trkpt lat="36.8263854980469" lon="-5.16341686248779">
        <ele>873</ele>
        <time>2019-05-11T16:51:57Z</time>
      </trkpt>
      <trkpt lat="36.8263969421387" lon="-5.16339492797852">
        <ele>873</ele>
        <time>2019-05-11T16:51:59Z</time>
      </trkpt>
      <trkpt lat="36.8264122009277" lon="-5.16337299346924">
        <ele>873</ele>
        <time>2019-05-11T16:52:02Z</time>
      </trkpt>
      <trkpt lat="36.8264312744141" lon="-5.16335010528564">
        <ele>873</ele>
        <time>2019-05-11T16:52:04Z</time>
      </trkpt>
      <trkpt lat="36.8264465332031" lon="-5.16332721710205">
        <ele>873</ele>
        <time>2019-05-11T16:52:06Z</time>
      </trkpt>
      <trkpt lat="36.8264617919922" lon="-5.16330289840698">
        <ele>873</ele>
        <time>2019-05-11T16:52:08Z</time>
      </trkpt>
      <trkpt lat="36.8264770507812" lon="-5.16327810287476">
        <ele>873</ele>
        <time>2019-05-11T16:52:10Z</time>
      </trkpt>
      <trkpt lat="36.826488494873" lon="-5.1632571220398">
        <ele>873</ele>
        <time>2019-05-11T16:52:12Z</time>
      </trkpt>
      <trkpt lat="36.8265037536621" lon="-5.16323518753052">
        <ele>873</ele>
        <time>2019-05-11T16:52:14Z</time>
      </trkpt>
      <trkpt lat="36.8265190124512" lon="-5.16320991516113">
        <ele>873</ele>
        <time>2019-05-11T16:52:16Z</time>
      </trkpt>
      <trkpt lat="36.8265342712402" lon="-5.16318702697754">
        <ele>873</ele>
        <time>2019-05-11T16:52:18Z</time>
      </trkpt>
      <trkpt lat="36.8265495300293" lon="-5.16316223144531">
        <ele>873</ele>
        <time>2019-05-11T16:52:20Z</time>
      </trkpt>
      <trkpt lat="36.8265609741211" lon="-5.16313695907593">
        <ele>873</ele>
        <time>2019-05-11T16:52:22Z</time>
      </trkpt>
      <trkpt lat="36.8265762329102" lon="-5.16311693191528">
        <ele>873</ele>
        <time>2019-05-11T16:52:24Z</time>
      </trkpt>
      <trkpt lat="36.8265991210938" lon="-5.16308689117432">
        <ele>873</ele>
        <time>2019-05-11T16:52:26Z</time>
      </trkpt>
      <trkpt lat="36.8266143798828" lon="-5.16306018829346">
        <ele>873</ele>
        <time>2019-05-11T16:52:28Z</time>
      </trkpt>
      <trkpt lat="36.8266296386719" lon="-5.1630368232727">
        <ele>873</ele>
        <time>2019-05-11T16:52:30Z</time>
      </trkpt>
      <trkpt lat="36.8266448974609" lon="-5.16301202774048">
        <ele>873</ele>
        <time>2019-05-11T16:52:32Z</time>
      </trkpt>
      <trkpt lat="36.8266563415527" lon="-5.16298818588257">
        <ele>873</ele>
        <time>2019-05-11T16:52:34Z</time>
      </trkpt>
      <trkpt lat="36.8266677856445" lon="-5.16296291351318">
        <ele>873</ele>
        <time>2019-05-11T16:52:37Z</time>
      </trkpt>
      <trkpt lat="36.8266830444336" lon="-5.16293811798096">
        <ele>873</ele>
        <time>2019-05-11T16:52:39Z</time>
      </trkpt>
      <trkpt lat="36.8266983032227" lon="-5.16291284561157">
        <ele>873</ele>
        <time>2019-05-11T16:52:41Z</time>
      </trkpt>
      <trkpt lat="36.8267135620117" lon="-5.16288805007935">
        <ele>873</ele>
        <time>2019-05-11T16:52:43Z</time>
      </trkpt>
      <trkpt lat="36.8267288208008" lon="-5.16286182403564">
        <ele>873</ele>
        <time>2019-05-11T16:52:45Z</time>
      </trkpt>
      <trkpt lat="36.8267402648926" lon="-5.16283798217773">
        <ele>873</ele>
        <time>2019-05-11T16:52:47Z</time>
      </trkpt>
      <trkpt lat="36.8267517089844" lon="-5.16281509399414">
        <ele>873</ele>
        <time>2019-05-11T16:52:49Z</time>
      </trkpt>
      <trkpt lat="36.8267631530762" lon="-5.1627950668335">
        <ele>873</ele>
        <time>2019-05-11T16:52:51Z</time>
      </trkpt>
      <trkpt lat="36.8267707824707" lon="-5.16277980804443">
        <ele>873</ele>
        <time>2019-05-11T16:52:53Z</time>
      </trkpt>
      <trkpt lat="36.8267784118652" lon="-5.16276788711548">
        <ele>873</ele>
        <time>2019-05-11T16:52:55Z</time>
      </trkpt>
      <trkpt lat="36.826789855957" lon="-5.16275215148926">
        <ele>873</ele>
        <time>2019-05-11T16:52:57Z</time>
      </trkpt>
      <trkpt lat="36.8268013000488" lon="-5.16273307800293">
        <ele>873</ele>
        <time>2019-05-11T16:52:59Z</time>
      </trkpt>
      <trkpt lat="36.8268241882324" lon="-5.16270208358765">
        <ele>873</ele>
        <time>2019-05-11T16:53:01Z</time>
      </trkpt>
      <trkpt lat="36.8268394470215" lon="-5.16268301010132">
        <ele>873</ele>
        <time>2019-05-11T16:53:03Z</time>
      </trkpt>
      <trkpt lat="36.8268547058106" lon="-5.16266822814941">
        <ele>873</ele>
        <time>2019-05-11T16:53:05Z</time>
      </trkpt>
      <trkpt lat="36.8268699645996" lon="-5.1626501083374">
        <ele>873</ele>
        <time>2019-05-11T16:53:07Z</time>
      </trkpt>
      <trkpt lat="36.8268852233887" lon="-5.16263294219971">
        <ele>873</ele>
        <time>2019-05-11T16:53:09Z</time>
      </trkpt>
      <trkpt lat="36.826904296875" lon="-5.1626148223877">
        <ele>873</ele>
        <time>2019-05-11T16:53:12Z</time>
      </trkpt>
      <trkpt lat="36.8269233703613" lon="-5.16259717941284">
        <ele>873</ele>
        <time>2019-05-11T16:53:14Z</time>
      </trkpt>
      <trkpt lat="36.8269386291504" lon="-5.16257476806641">
        <ele>873</ele>
        <time>2019-05-11T16:53:16Z</time>
      </trkpt>
      <trkpt lat="36.8269538879394" lon="-5.16255521774292">
        <ele>873</ele>
        <time>2019-05-11T16:53:18Z</time>
      </trkpt>
      <trkpt lat="36.8269691467285" lon="-5.16253709793091">
        <ele>873</ele>
        <time>2019-05-11T16:53:20Z</time>
      </trkpt>
      <trkpt lat="36.8269882202148" lon="-5.16251802444458">
        <ele>873</ele>
        <time>2019-05-11T16:53:22Z</time>
      </trkpt>
      <trkpt lat="36.8270034790039" lon="-5.16249990463257">
        <ele>873</ele>
        <time>2019-05-11T16:53:24Z</time>
      </trkpt>
      <trkpt lat="36.8270225524902" lon="-5.16248178482056">
        <ele>873</ele>
        <time>2019-05-11T16:53:26Z</time>
      </trkpt>
      <trkpt lat="36.8270416259766" lon="-5.16246509552002">
        <ele>873</ele>
        <time>2019-05-11T16:53:28Z</time>
      </trkpt>
      <trkpt lat="36.8270568847656" lon="-5.16244697570801">
        <ele>873</ele>
        <time>2019-05-11T16:53:30Z</time>
      </trkpt>
      <trkpt lat="36.8270721435547" lon="-5.16242694854736">
        <ele>874</ele>
        <time>2019-05-11T16:53:32Z</time>
      </trkpt>
      <trkpt lat="36.827091217041" lon="-5.16240692138672">
        <ele>874</ele>
        <time>2019-05-11T16:53:34Z</time>
      </trkpt>
      <trkpt lat="36.8271217346191" lon="-5.16237688064575">
        <ele>874</ele>
        <time>2019-05-11T16:53:36Z</time>
      </trkpt>
      <trkpt lat="36.8271369934082" lon="-5.16235494613647">
        <ele>874</ele>
        <time>2019-05-11T16:53:38Z</time>
      </trkpt>
      <trkpt lat="36.8271560668945" lon="-5.16233205795288">
        <ele>874</ele>
        <time>2019-05-11T16:53:40Z</time>
      </trkpt>
      <trkpt lat="36.8271751403809" lon="-5.16231203079224">
        <ele>874</ele>
        <time>2019-05-11T16:53:42Z</time>
      </trkpt>
      <trkpt lat="36.8271942138672" lon="-5.16229200363159">
        <ele>874</ele>
        <time>2019-05-11T16:53:44Z</time>
      </trkpt>
      <trkpt lat="36.8272132873535" lon="-5.16227197647095">
        <ele>874</ele>
        <time>2019-05-11T16:53:47Z</time>
      </trkpt>
      <trkpt lat="36.8272285461426" lon="-5.16225290298462">
        <ele>874</ele>
        <time>2019-05-11T16:53:49Z</time>
      </trkpt>
      <trkpt lat="36.8272476196289" lon="-5.16223478317261">
        <ele>874</ele>
        <time>2019-05-11T16:53:51Z</time>
      </trkpt>
      <trkpt lat="36.8272705078125" lon="-5.16221523284912">
        <ele>874</ele>
        <time>2019-05-11T16:53:53Z</time>
      </trkpt>
      <trkpt lat="36.8272895812988" lon="-5.16219282150269">
        <ele>874</ele>
        <time>2019-05-11T16:53:55Z</time>
      </trkpt>
      <trkpt lat="36.8273086547852" lon="-5.16216993331909">
        <ele>874</ele>
        <time>2019-05-11T16:53:57Z</time>
      </trkpt>
      <trkpt lat="36.8273239135742" lon="-5.1621470451355">
        <ele>874</ele>
        <time>2019-05-11T16:53:59Z</time>
      </trkpt>
      <trkpt lat="36.8273429870606" lon="-5.16213178634644">
        <ele>875</ele>
        <time>2019-05-11T16:54:01Z</time>
      </trkpt>
      <trkpt lat="36.8273544311523" lon="-5.1621150970459">
        <ele>875</ele>
        <time>2019-05-11T16:54:03Z</time>
      </trkpt>
      <trkpt lat="36.8273696899414" lon="-5.16209983825684">
        <ele>875</ele>
        <time>2019-05-11T16:54:05Z</time>
      </trkpt>
      <trkpt lat="36.8273811340332" lon="-5.16207790374756">
        <ele>875</ele>
        <time>2019-05-11T16:54:07Z</time>
      </trkpt>
      <trkpt lat="36.8274002075195" lon="-5.16205787658691">
        <ele>875</ele>
        <time>2019-05-11T16:54:09Z</time>
      </trkpt>
      <trkpt lat="36.8274154663086" lon="-5.162024974823">
        <ele>875</ele>
        <time>2019-05-11T16:54:11Z</time>
      </trkpt>
      <trkpt lat="36.8274269104004" lon="-5.1620020866394">
        <ele>875</ele>
        <time>2019-05-11T16:54:13Z</time>
      </trkpt>
      <trkpt lat="36.8274383544922" lon="-5.16198492050171">
        <ele>875</ele>
        <time>2019-05-11T16:54:15Z</time>
      </trkpt>
      <trkpt lat="36.8274421691894" lon="-5.16197490692139">
        <ele>875</ele>
        <time>2019-05-11T16:54:17Z</time>
      </trkpt>
      <trkpt lat="36.8274421691894" lon="-5.16196823120117">
        <ele>875</ele>
        <time>2019-05-11T16:54:19Z</time>
      </trkpt>
      <trkpt lat="36.8274459838867" lon="-5.16196489334106">
        <ele>875</ele>
        <time>2019-05-11T16:54:22Z</time>
      </trkpt>
      <trkpt lat="36.827449798584" lon="-5.16195678710938">
        <ele>875</ele>
        <time>2019-05-11T16:54:24Z</time>
      </trkpt>
      <trkpt lat="36.8274574279785" lon="-5.16194200515747">
        <ele>875</ele>
        <time>2019-05-11T16:54:26Z</time>
      </trkpt>
      <trkpt lat="36.8274688720703" lon="-5.16192197799683">
        <ele>875</ele>
        <time>2019-05-11T16:54:28Z</time>
      </trkpt>
      <trkpt lat="36.8274841308594" lon="-5.16189813613892">
        <ele>875</ele>
        <time>2019-05-11T16:54:30Z</time>
      </trkpt>
      <trkpt lat="36.8274955749512" lon="-5.16187715530396">
        <ele>875</ele>
        <time>2019-05-11T16:54:32Z</time>
      </trkpt>
      <trkpt lat="36.8275108337402" lon="-5.16185712814331">
        <ele>875</ele>
        <time>2019-05-11T16:54:34Z</time>
      </trkpt>
      <trkpt lat="36.8275260925293" lon="-5.16183519363403">
        <ele>876</ele>
        <time>2019-05-11T16:54:36Z</time>
      </trkpt>
      <trkpt lat="36.8275413513184" lon="-5.16181182861328">
        <ele>876</ele>
        <time>2019-05-11T16:54:38Z</time>
      </trkpt>
      <trkpt lat="36.8275604248047" lon="-5.16178703308106">
        <ele>876</ele>
        <time>2019-05-11T16:54:40Z</time>
      </trkpt>
      <trkpt lat="36.827579498291" lon="-5.16176319122314">
        <ele>877</ele>
        <time>2019-05-11T16:54:42Z</time>
      </trkpt>
      <trkpt lat="36.8275985717773" lon="-5.16174507141113">
        <ele>878</ele>
        <time>2019-05-11T16:54:44Z</time>
      </trkpt>
      <trkpt lat="36.8276214599609" lon="-5.1617169380188">
        <ele>878</ele>
        <time>2019-05-11T16:54:46Z</time>
      </trkpt>
      <trkpt lat="36.8276329040527" lon="-5.16170787811279">
        <ele>879</ele>
        <time>2019-05-11T16:54:48Z</time>
      </trkpt>
      <trkpt lat="36.8276634216309" lon="-5.16167497634888">
        <ele>879</ele>
        <time>2019-05-11T16:54:50Z</time>
      </trkpt>
      <trkpt lat="36.8276786804199" lon="-5.16165494918823">
        <ele>879</ele>
        <time>2019-05-11T16:54:52Z</time>
      </trkpt>
      <trkpt lat="36.8276977539062" lon="-5.16163301467896">
        <ele>879</ele>
        <time>2019-05-11T16:54:54Z</time>
      </trkpt>
      <trkpt lat="36.8277168273926" lon="-5.16161298751831">
        <ele>879</ele>
        <time>2019-05-11T16:54:56Z</time>
      </trkpt>
      <trkpt lat="36.8277359008789" lon="-5.16159009933472">
        <ele>879</ele>
        <time>2019-05-11T16:54:58Z</time>
      </trkpt>
      <trkpt lat="36.8277549743652" lon="-5.16156721115112">
        <ele>879</ele>
        <time>2019-05-11T16:55:01Z</time>
      </trkpt>
      <trkpt lat="36.8277702331543" lon="-5.16154479980469">
        <ele>879</ele>
        <time>2019-05-11T16:55:03Z</time>
      </trkpt>
      <trkpt lat="36.8277893066406" lon="-5.16152477264404">
        <ele>879</ele>
        <time>2019-05-11T16:55:05Z</time>
      </trkpt>
      <trkpt lat="36.827808380127" lon="-5.16149997711182">
        <ele>879</ele>
        <time>2019-05-11T16:55:07Z</time>
      </trkpt>
      <trkpt lat="36.827823638916" lon="-5.16147708892822">
        <ele>879</ele>
        <time>2019-05-11T16:55:09Z</time>
      </trkpt>
      <trkpt lat="36.8278388977051" lon="-5.16145181655884">
        <ele>879</ele>
        <time>2019-05-11T16:55:11Z</time>
      </trkpt>
      <trkpt lat="36.8278579711914" lon="-5.16142511367798">
        <ele>879</ele>
        <time>2019-05-11T16:55:13Z</time>
      </trkpt>
      <trkpt lat="36.8278770446777" lon="-5.16139984130859">
        <ele>879</ele>
        <time>2019-05-11T16:55:15Z</time>
      </trkpt>
      <trkpt lat="36.8278923034668" lon="-5.16137313842773">
        <ele>879</ele>
        <time>2019-05-11T16:55:17Z</time>
      </trkpt>
      <trkpt lat="36.8279113769531" lon="-5.16135311126709">
        <ele>879</ele>
        <time>2019-05-11T16:55:19Z</time>
      </trkpt>
      <trkpt lat="36.8279266357422" lon="-5.16132688522339">
        <ele>879</ele>
        <time>2019-05-11T16:55:21Z</time>
      </trkpt>
      <trkpt lat="36.8279418945312" lon="-5.16130018234253">
        <ele>879</ele>
        <time>2019-05-11T16:55:23Z</time>
      </trkpt>
      <trkpt lat="36.8279609680176" lon="-5.16127300262451">
        <ele>879</ele>
        <time>2019-05-11T16:55:25Z</time>
      </trkpt>
      <trkpt lat="36.8279838562012" lon="-5.16124296188354">
        <ele>879</ele>
        <time>2019-05-11T16:55:27Z</time>
      </trkpt>
      <trkpt lat="36.8279876708984" lon="-5.16123294830322">
        <ele>879</ele>
        <time>2019-05-11T16:55:29Z</time>
      </trkpt>
      <trkpt lat="36.8279914855957" lon="-5.16122817993164">
        <ele>879</ele>
        <time>2019-05-11T16:55:31Z</time>
      </trkpt>
      <trkpt lat="36.827995300293" lon="-5.16122198104858">
        <ele>879</ele>
        <time>2019-05-11T16:55:33Z</time>
      </trkpt>
      <trkpt lat="36.828010559082" lon="-5.16120719909668">
        <ele>879</ele>
        <time>2019-05-11T16:55:35Z</time>
      </trkpt>
      <trkpt lat="36.8280258178711" lon="-5.1611819267273">
        <ele>879</ele>
        <time>2019-05-11T16:55:38Z</time>
      </trkpt>
      <trkpt lat="36.8280448913574" lon="-5.16115283966064">
        <ele>879</ele>
        <time>2019-05-11T16:55:40Z</time>
      </trkpt>
      <trkpt lat="36.8280601501465" lon="-5.1611270904541">
        <ele>879</ele>
        <time>2019-05-11T16:55:42Z</time>
      </trkpt>
      <trkpt lat="36.8280754089356" lon="-5.16109991073608">
        <ele>879</ele>
        <time>2019-05-11T16:55:44Z</time>
      </trkpt>
      <trkpt lat="36.8280944824219" lon="-5.16107511520386">
        <ele>879</ele>
        <time>2019-05-11T16:55:46Z</time>
      </trkpt>
      <trkpt lat="36.8281059265137" lon="-5.16105508804321">
        <ele>879</ele>
        <time>2019-05-11T16:55:48Z</time>
      </trkpt>
      <trkpt lat="36.8281211853027" lon="-5.16103506088257">
        <ele>879</ele>
        <time>2019-05-11T16:55:50Z</time>
      </trkpt>
      <trkpt lat="36.8281364440918" lon="-5.16101503372192">
        <ele>879</ele>
        <time>2019-05-11T16:55:52Z</time>
      </trkpt>
      <trkpt lat="36.8281517028809" lon="-5.16099309921265">
        <ele>879</ele>
        <time>2019-05-11T16:55:54Z</time>
      </trkpt>
      <trkpt lat="36.8281707763672" lon="-5.16096782684326">
        <ele>879</ele>
        <time>2019-05-11T16:55:56Z</time>
      </trkpt>
      <trkpt lat="36.8281860351562" lon="-5.16094303131104">
        <ele>880</ele>
        <time>2019-05-11T16:55:58Z</time>
      </trkpt>
      <trkpt lat="36.8282012939453" lon="-5.16091823577881">
        <ele>880</ele>
        <time>2019-05-11T16:56:00Z</time>
      </trkpt>
      <trkpt lat="36.8282203674316" lon="-5.1608829498291">
        <ele>880</ele>
        <time>2019-05-11T16:56:02Z</time>
      </trkpt>
      <trkpt lat="36.8282356262207" lon="-5.16086006164551">
        <ele>880</ele>
        <time>2019-05-11T16:56:04Z</time>
      </trkpt>
      <trkpt lat="36.828254699707" lon="-5.16084003448486">
        <ele>880</ele>
        <time>2019-05-11T16:56:06Z</time>
      </trkpt>
      <trkpt lat="36.8282737731934" lon="-5.16081476211548">
        <ele>880</ele>
        <time>2019-05-11T16:56:08Z</time>
      </trkpt>
      <trkpt lat="36.8282928466797" lon="-5.16078996658325">
        <ele>880</ele>
        <time>2019-05-11T16:56:10Z</time>
      </trkpt>
      <trkpt lat="36.828311920166" lon="-5.16076707839966">
        <ele>880</ele>
        <time>2019-05-11T16:56:12Z</time>
      </trkpt>
      <trkpt lat="36.8283309936523" lon="-5.16074705123901">
        <ele>880</ele>
        <time>2019-05-11T16:56:15Z</time>
      </trkpt>
      <trkpt lat="36.8283538818359" lon="-5.16072511672974">
        <ele>880</ele>
        <time>2019-05-11T16:56:17Z</time>
      </trkpt>
      <trkpt lat="36.8283729553223" lon="-5.16070508956909">
        <ele>880</ele>
        <time>2019-05-11T16:56:19Z</time>
      </trkpt>
      <trkpt lat="36.8283882141113" lon="-5.16068696975708">
        <ele>880</ele>
        <time>2019-05-11T16:56:21Z</time>
      </trkpt>
      <trkpt lat="36.8284111022949" lon="-5.1606650352478">
        <ele>880</ele>
        <time>2019-05-11T16:56:23Z</time>
      </trkpt>
      <trkpt lat="36.828426361084" lon="-5.16064786911011">
        <ele>880</ele>
        <time>2019-05-11T16:56:25Z</time>
      </trkpt>
      <trkpt lat="36.8284492492676" lon="-5.16063499450684">
        <ele>880</ele>
        <time>2019-05-11T16:56:27Z</time>
      </trkpt>
      <trkpt lat="36.8284645080566" lon="-5.16061496734619">
        <ele>880</ele>
        <time>2019-05-11T16:56:29Z</time>
      </trkpt>
      <trkpt lat="36.828483581543" lon="-5.16059303283691">
        <ele>880</ele>
        <time>2019-05-11T16:56:31Z</time>
      </trkpt>
      <trkpt lat="36.8285064697266" lon="-5.16057300567627">
        <ele>880</ele>
        <time>2019-05-11T16:56:33Z</time>
      </trkpt>
      <trkpt lat="36.8285255432129" lon="-5.16055297851562">
        <ele>880</ele>
        <time>2019-05-11T16:56:35Z</time>
      </trkpt>
      <trkpt lat="36.8285484313965" lon="-5.16053295135498">
        <ele>880</ele>
        <time>2019-05-11T16:56:37Z</time>
      </trkpt>
      <trkpt lat="36.8285675048828" lon="-5.16051292419434">
        <ele>880</ele>
        <time>2019-05-11T16:56:39Z</time>
      </trkpt>
      <trkpt lat="36.8285865783691" lon="-5.16048812866211">
        <ele>880</ele>
        <time>2019-05-11T16:56:41Z</time>
      </trkpt>
      <trkpt lat="36.8286094665527" lon="-5.16045188903809">
        <ele>880</ele>
        <time>2019-05-11T16:56:43Z</time>
      </trkpt>
      <trkpt lat="36.8286285400391" lon="-5.16042804718018">
        <ele>880</ele>
        <time>2019-05-11T16:56:45Z</time>
      </trkpt>
      <trkpt lat="36.8286437988281" lon="-5.16039991378784">
        <ele>880</ele>
        <time>2019-05-11T16:56:47Z</time>
      </trkpt>
      <trkpt lat="36.8286514282227" lon="-5.16037321090698">
        <ele>880</ele>
        <time>2019-05-11T16:56:49Z</time>
      </trkpt>
      <trkpt lat="36.8286666870117" lon="-5.1603479385376">
        <ele>880</ele>
        <time>2019-05-11T16:56:51Z</time>
      </trkpt>
      <trkpt lat="36.8286781311035" lon="-5.16032695770264">
        <ele>880</ele>
        <time>2019-05-11T16:56:54Z</time>
      </trkpt>
      <trkpt lat="36.8286895751953" lon="-5.16030693054199">
        <ele>880</ele>
        <time>2019-05-11T16:56:56Z</time>
      </trkpt>
      <trkpt lat="36.8287010192871" lon="-5.16028213500977">
        <ele>880</ele>
        <time>2019-05-11T16:56:58Z</time>
      </trkpt>
      <trkpt lat="36.8287162780762" lon="-5.16025304794312">
        <ele>880</ele>
        <time>2019-05-11T16:57:00Z</time>
      </trkpt>
      <trkpt lat="36.828727722168" lon="-5.16023015975952">
        <ele>880</ele>
        <time>2019-05-11T16:57:02Z</time>
      </trkpt>
      <trkpt lat="36.828742980957" lon="-5.1602029800415">
        <ele>880</ele>
        <time>2019-05-11T16:57:04Z</time>
      </trkpt>
      <trkpt lat="36.8287582397461" lon="-5.16017293930054">
        <ele>880</ele>
        <time>2019-05-11T16:57:06Z</time>
      </trkpt>
      <trkpt lat="36.8287734985352" lon="-5.16014814376831">
        <ele>880</ele>
        <time>2019-05-11T16:57:08Z</time>
      </trkpt>
      <trkpt lat="36.8287887573242" lon="-5.16012287139893">
        <ele>880</ele>
        <time>2019-05-11T16:57:10Z</time>
      </trkpt>
      <trkpt lat="36.8288078308106" lon="-5.16009521484375">
        <ele>880</ele>
        <time>2019-05-11T16:57:12Z</time>
      </trkpt>
      <trkpt lat="36.8288230895996" lon="-5.16006803512573">
        <ele>880</ele>
        <time>2019-05-11T16:57:14Z</time>
      </trkpt>
      <trkpt lat="36.8288383483887" lon="-5.16004514694214">
        <ele>880</ele>
        <time>2019-05-11T16:57:16Z</time>
      </trkpt>
      <trkpt lat="36.8288497924805" lon="-5.16002178192139">
        <ele>880</ele>
        <time>2019-05-11T16:57:18Z</time>
      </trkpt>
      <trkpt lat="36.8288726806641" lon="-5.15998983383179">
        <ele>880</ele>
        <time>2019-05-11T16:57:20Z</time>
      </trkpt>
      <trkpt lat="36.8288917541504" lon="-5.15996694564819">
        <ele>880</ele>
        <time>2019-05-11T16:57:22Z</time>
      </trkpt>
      <trkpt lat="36.8289108276367" lon="-5.15994787216186">
        <ele>880</ele>
        <time>2019-05-11T16:57:24Z</time>
      </trkpt>
      <trkpt lat="36.8289337158203" lon="-5.15992784500122">
        <ele>880</ele>
        <time>2019-05-11T16:57:26Z</time>
      </trkpt>
      <trkpt lat="36.8289527893066" lon="-5.15990304946899">
        <ele>880</ele>
        <time>2019-05-11T16:57:29Z</time>
      </trkpt>
      <trkpt lat="36.8289680480957" lon="-5.15987682342529">
        <ele>880</ele>
        <time>2019-05-11T16:57:31Z</time>
      </trkpt>
      <trkpt lat="36.8289794921875" lon="-5.15985012054443">
        <ele>880</ele>
        <time>2019-05-11T16:57:33Z</time>
      </trkpt>
      <trkpt lat="36.8289909362793" lon="-5.1598219871521">
        <ele>880</ele>
        <time>2019-05-11T16:57:35Z</time>
      </trkpt>
      <trkpt lat="36.8290061950684" lon="-5.15979814529419">
        <ele>880</ele>
        <time>2019-05-11T16:57:37Z</time>
      </trkpt>
      <trkpt lat="36.8290176391602" lon="-5.15978717803955">
        <ele>880</ele>
        <time>2019-05-11T16:57:39Z</time>
      </trkpt>
      <trkpt lat="36.8290367126465" lon="-5.15976715087891">
        <ele>880</ele>
        <time>2019-05-11T16:57:41Z</time>
      </trkpt>
      <trkpt lat="36.8290519714356" lon="-5.15974283218384">
        <ele>880</ele>
        <time>2019-05-11T16:57:43Z</time>
      </trkpt>
      <trkpt lat="36.8290672302246" lon="-5.15971803665161">
        <ele>880</ele>
        <time>2019-05-11T16:57:45Z</time>
      </trkpt>
      <trkpt lat="36.8290824890137" lon="-5.15968990325928">
        <ele>880</ele>
        <time>2019-05-11T16:57:47Z</time>
      </trkpt>
      <trkpt lat="36.8291015625" lon="-5.15966701507568">
        <ele>880</ele>
        <time>2019-05-11T16:57:49Z</time>
      </trkpt>
      <trkpt lat="36.8291168212891" lon="-5.15963983535767">
        <ele>880</ele>
        <time>2019-05-11T16:57:51Z</time>
      </trkpt>
      <trkpt lat="36.8291320800781" lon="-5.15961694717407">
        <ele>880</ele>
        <time>2019-05-11T16:57:53Z</time>
      </trkpt>
      <trkpt lat="36.8291625976562" lon="-5.15958309173584">
        <ele>880</ele>
        <time>2019-05-11T16:57:55Z</time>
      </trkpt>
      <trkpt lat="36.8291816711426" lon="-5.15956020355225">
        <ele>880</ele>
        <time>2019-05-11T16:57:57Z</time>
      </trkpt>
      <trkpt lat="36.8291931152344" lon="-5.15953493118286">
        <ele>880</ele>
        <time>2019-05-11T16:57:59Z</time>
      </trkpt>
      <trkpt lat="36.8292083740234" lon="-5.15951490402222">
        <ele>880</ele>
        <time>2019-05-11T16:58:01Z</time>
      </trkpt>
      <trkpt lat="36.8292236328125" lon="-5.15949296951294">
        <ele>880</ele>
        <time>2019-05-11T16:58:03Z</time>
      </trkpt>
      <trkpt lat="36.829231262207" lon="-5.15948009490967">
        <ele>880</ele>
        <time>2019-05-11T16:58:06Z</time>
      </trkpt>
      <trkpt lat="36.8292427062988" lon="-5.15946006774902">
        <ele>880</ele>
        <time>2019-05-11T16:58:08Z</time>
      </trkpt>
      <trkpt lat="36.8292465209961" lon="-5.15943479537964">
        <ele>880</ele>
        <time>2019-05-11T16:58:10Z</time>
      </trkpt>
      <trkpt lat="36.8292617797852" lon="-5.15941715240478">
        <ele>880</ele>
        <time>2019-05-11T16:58:12Z</time>
      </trkpt>
      <trkpt lat="36.8292808532715" lon="-5.1593918800354">
        <ele>880</ele>
        <time>2019-05-11T16:58:14Z</time>
      </trkpt>
      <trkpt lat="36.8292961120606" lon="-5.15936803817749">
        <ele>880</ele>
        <time>2019-05-11T16:58:16Z</time>
      </trkpt>
      <trkpt lat="36.8293075561523" lon="-5.15934705734253">
        <ele>880</ele>
        <time>2019-05-11T16:58:18Z</time>
      </trkpt>
      <trkpt lat="36.8293228149414" lon="-5.15933322906494">
        <ele>880</ele>
        <time>2019-05-11T16:58:20Z</time>
      </trkpt>
      <trkpt lat="36.8293380737305" lon="-5.1593132019043">
        <ele>880</ele>
        <time>2019-05-11T16:58:22Z</time>
      </trkpt>
      <trkpt lat="36.8293495178223" lon="-5.15929794311523">
        <ele>880</ele>
        <time>2019-05-11T16:58:24Z</time>
      </trkpt>
      <trkpt lat="36.8293609619141" lon="-5.15928506851196">
        <ele>880</ele>
        <time>2019-05-11T16:58:26Z</time>
      </trkpt>
      <trkpt lat="36.8293685913086" lon="-5.15926790237427">
        <ele>880</ele>
        <time>2019-05-11T16:58:28Z</time>
      </trkpt>
      <trkpt lat="36.8293914794922" lon="-5.15923690795898">
        <ele>879</ele>
        <time>2019-05-11T16:58:30Z</time>
      </trkpt>
      <trkpt lat="36.8294067382812" lon="-5.15921497344971">
        <ele>879</ele>
        <time>2019-05-11T16:58:32Z</time>
      </trkpt>
      <trkpt lat="36.8294219970703" lon="-5.1591968536377">
        <ele>879</ele>
        <time>2019-05-11T16:58:34Z</time>
      </trkpt>
      <trkpt lat="36.8294372558594" lon="-5.15917682647705">
        <ele>878</ele>
        <time>2019-05-11T16:58:36Z</time>
      </trkpt>
      <trkpt lat="36.8294525146484" lon="-5.15916013717651">
        <ele>878</ele>
        <time>2019-05-11T16:58:38Z</time>
      </trkpt>
      <trkpt lat="36.8294639587402" lon="-5.15914011001587">
        <ele>877</ele>
        <time>2019-05-11T16:58:41Z</time>
      </trkpt>
      <trkpt lat="36.8294830322266" lon="-5.15912008285522">
        <ele>876</ele>
        <time>2019-05-11T16:58:43Z</time>
      </trkpt>
      <trkpt lat="36.8294982910156" lon="-5.15910720825195">
        <ele>876</ele>
        <time>2019-05-11T16:58:45Z</time>
      </trkpt>
      <trkpt lat="36.8295135498047" lon="-5.15909194946289">
        <ele>876</ele>
        <time>2019-05-11T16:58:47Z</time>
      </trkpt>
      <trkpt lat="36.8295364379883" lon="-5.15907001495361">
        <ele>876</ele>
        <time>2019-05-11T16:58:49Z</time>
      </trkpt>
      <trkpt lat="36.8295516967773" lon="-5.15905284881592">
        <ele>876</ele>
        <time>2019-05-11T16:58:51Z</time>
      </trkpt>
      <trkpt lat="36.8295631408691" lon="-5.15903282165527">
        <ele>876</ele>
        <time>2019-05-11T16:58:53Z</time>
      </trkpt>
      <trkpt lat="36.8295860290527" lon="-5.15900802612305">
        <ele>876</ele>
        <time>2019-05-11T16:58:55Z</time>
      </trkpt>
      <trkpt lat="36.8295974731445" lon="-5.15898990631104">
        <ele>876</ele>
        <time>2019-05-11T16:58:57Z</time>
      </trkpt>
      <trkpt lat="36.8296051025391" lon="-5.15896511077881">
        <ele>876</ele>
        <time>2019-05-11T16:58:59Z</time>
      </trkpt>
      <trkpt lat="36.8296165466309" lon="-5.15894508361816">
        <ele>876</ele>
        <time>2019-05-11T16:59:01Z</time>
      </trkpt>
      <trkpt lat="36.8296203613281" lon="-5.15893220901489">
        <ele>876</ele>
        <time>2019-05-11T16:59:03Z</time>
      </trkpt>
      <trkpt lat="36.8296432495117" lon="-5.15890216827393">
        <ele>876</ele>
        <time>2019-05-11T16:59:05Z</time>
      </trkpt>
      <trkpt lat="36.8296508789062" lon="-5.15888690948486">
        <ele>876</ele>
        <time>2019-05-11T16:59:07Z</time>
      </trkpt>
      <trkpt lat="36.8296585083008" lon="-5.15887308120728">
        <ele>875</ele>
        <time>2019-05-11T16:59:09Z</time>
      </trkpt>
      <trkpt lat="36.8296508789062" lon="-5.15887308120728">
        <ele>875</ele>
        <time>2019-05-11T16:59:11Z</time>
      </trkpt>
      <trkpt lat="36.8296432495117" lon="-5.15887022018433">
        <ele>875</ele>
        <time>2019-05-11T16:59:13Z</time>
      </trkpt>
      <trkpt lat="36.8296279907227" lon="-5.15887212753296">
        <ele>875</ele>
        <time>2019-05-11T16:59:15Z</time>
      </trkpt>
      <trkpt lat="36.8296165466309" lon="-5.15887689590454">
        <ele>875</ele>
        <time>2019-05-11T16:59:18Z</time>
      </trkpt>
      <trkpt lat="36.8296012878418" lon="-5.15888690948486">
        <ele>875</ele>
        <time>2019-05-11T16:59:20Z</time>
      </trkpt>
      <trkpt lat="36.8295936584473" lon="-5.15889501571655">
        <ele>875</ele>
        <time>2019-05-11T16:59:22Z</time>
      </trkpt>
      <trkpt lat="36.8295822143555" lon="-5.15890312194824">
        <ele>875</ele>
        <time>2019-05-11T16:59:24Z</time>
      </trkpt>
      <trkpt lat="36.8295707702637" lon="-5.15891313552856">
        <ele>875</ele>
        <time>2019-05-11T16:59:26Z</time>
      </trkpt>
      <trkpt lat="36.8295631408691" lon="-5.15891790390015">
        <ele>875</ele>
        <time>2019-05-11T16:59:28Z</time>
      </trkpt>
      <trkpt lat="36.8295555114746" lon="-5.15891981124878">
        <ele>875</ele>
        <time>2019-05-11T16:59:30Z</time>
      </trkpt>
      <trkpt lat="36.8295516967773" lon="-5.15891981124878">
        <ele>875</ele>
        <time>2019-05-11T16:59:32Z</time>
      </trkpt>
      <trkpt lat="36.8295478820801" lon="-5.15891790390015">
        <ele>875</ele>
        <time>2019-05-11T16:59:34Z</time>
      </trkpt>
      <trkpt lat="36.8295478820801" lon="-5.15891695022583">
        <ele>875</ele>
        <time>2019-05-11T16:59:36Z</time>
      </trkpt>
      <trkpt lat="36.8295516967773" lon="-5.15891981124878">
        <ele>875</ele>
        <time>2019-05-11T16:59:38Z</time>
      </trkpt>
      <trkpt lat="36.8295516967773" lon="-5.1589150428772">
        <ele>875</ele>
        <time>2019-05-11T16:59:40Z</time>
      </trkpt>
      <trkpt lat="36.8295516967773" lon="-5.15891313552856">
        <ele>875</ele>
        <time>2019-05-11T16:59:42Z</time>
      </trkpt>
      <trkpt lat="36.8295516967773" lon="-5.15891218185425">
        <ele>875</ele>
        <time>2019-05-11T16:59:44Z</time>
      </trkpt>
      <trkpt lat="36.8295555114746" lon="-5.15891218185425">
        <ele>875</ele>
        <time>2019-05-11T16:59:46Z</time>
      </trkpt>
      <trkpt lat="36.8295555114746" lon="-5.15891218185425">
        <ele>875</ele>
        <time>2019-05-11T16:59:48Z</time>
      </trkpt>
      <trkpt lat="36.8295555114746" lon="-5.15891218185425">
        <ele>875</ele>
        <time>2019-05-11T16:59:50Z</time>
      </trkpt>
      <trkpt lat="36.8295555114746" lon="-5.15890979766846">
        <ele>876</ele>
        <time>2019-05-11T16:59:56Z</time>
      </trkpt>
      <trkpt lat="36.8295593261719" lon="-5.15890979766846">
        <ele>877</ele>
        <time>2019-05-11T17:00:02Z</time>
      </trkpt>
      <trkpt lat="36.8295593261719" lon="-5.15890979766846">
        <ele>877</ele>
        <time>2019-05-11T17:00:04Z</time>
      </trkpt>
      <trkpt lat="36.8295593261719" lon="-5.15890979766846">
        <ele>877</ele>
        <time>2019-05-11T17:00:07Z</time>
      </trkpt>
      <trkpt lat="36.8295631408691" lon="-5.15890979766846">
        <ele>877</ele>
        <time>2019-05-11T17:00:09Z</time>
      </trkpt>
      <trkpt lat="36.8295631408691" lon="-5.15890789031982">
        <ele>877</ele>
        <time>2019-05-11T17:00:11Z</time>
      </trkpt>
      <trkpt lat="36.8295631408691" lon="-5.15890979766846">
        <ele>877</ele>
        <time>2019-05-11T17:00:13Z</time>
      </trkpt>
      <trkpt lat="36.8295631408691" lon="-5.15890979766846">
        <ele>877</ele>
        <time>2019-05-11T17:00:15Z</time>
      </trkpt>
      <trkpt lat="36.8295631408691" lon="-5.15890979766846">
        <ele>877</ele>
        <time>2019-05-11T17:00:17Z</time>
      </trkpt>
      <trkpt lat="36.8295631408691" lon="-5.15890979766846">
        <ele>877</ele>
        <time>2019-05-11T17:00:19Z</time>
      </trkpt>
      <trkpt lat="36.8295631408691" lon="-5.15890979766846">
        <ele>877</ele>
        <time>2019-05-11T17:00:21Z</time>
      </trkpt>
      <trkpt lat="36.8295631408691" lon="-5.15890979766846">
        <ele>877</ele>
        <time>2019-05-11T17:00:23Z</time>
      </trkpt>
      <trkpt lat="36.8295631408691" lon="-5.15891218185425">
        <ele>877</ele>
        <time>2019-05-11T17:00:25Z</time>
      </trkpt>
      <trkpt lat="36.8295631408691" lon="-5.15891218185425">
        <ele>877</ele>
        <time>2019-05-11T17:00:27Z</time>
      </trkpt>
      <trkpt lat="36.8295593261719" lon="-5.15892219543457">
        <ele>878</ele>
        <time>2019-05-11T17:00:33Z</time>
      </trkpt>
      <trkpt lat="36.8295669555664" lon="-5.15892791748047">
        <ele>878</ele>
        <time>2019-05-11T17:00:35Z</time>
      </trkpt>
      <trkpt lat="36.8295783996582" lon="-5.1589298248291">
        <ele>878</ele>
        <time>2019-05-11T17:00:37Z</time>
      </trkpt>
      <trkpt lat="36.82958984375" lon="-5.15893316268921">
        <ele>878</ele>
        <time>2019-05-11T17:00:39Z</time>
      </trkpt>
      <trkpt lat="36.8295860290527" lon="-5.15893507003784">
        <ele>878</ele>
        <time>2019-05-11T17:00:41Z</time>
      </trkpt>
      <trkpt lat="36.8295860290527" lon="-5.15893697738647">
        <ele>878</ele>
        <time>2019-05-11T17:00:43Z</time>
      </trkpt>
      <trkpt lat="36.82958984375" lon="-5.15893697738647">
        <ele>878</ele>
        <time>2019-05-11T17:00:45Z</time>
      </trkpt>
      <trkpt lat="36.82958984375" lon="-5.15893793106079">
        <ele>879</ele>
        <time>2019-05-11T17:00:47Z</time>
      </trkpt>
      <trkpt lat="36.82958984375" lon="-5.15893793106079">
        <ele>879</ele>
        <time>2019-05-11T17:00:49Z</time>
      </trkpt>
      <trkpt lat="36.82958984375" lon="-5.15893793106079">
        <ele>879</ele>
        <time>2019-05-11T17:00:51Z</time>
      </trkpt>
      <trkpt lat="36.8295936584473" lon="-5.15893793106079">
        <ele>879</ele>
        <time>2019-05-11T17:00:55Z</time>
      </trkpt>
      <trkpt lat="36.8295936584473" lon="-5.15893793106079">
        <ele>879</ele>
        <time>2019-05-11T17:00:57Z</time>
      </trkpt>
      <trkpt lat="36.8295936584473" lon="-5.15893793106079">
        <ele>879</ele>
        <time>2019-05-11T17:00:59Z</time>
      </trkpt>
      <trkpt lat="36.8295936584473" lon="-5.15893983840942">
        <ele>879</ele>
        <time>2019-05-11T17:01:01Z</time>
      </trkpt>
      <trkpt lat="36.8295936584473" lon="-5.15894317626953">
        <ele>879</ele>
        <time>2019-05-11T17:01:03Z</time>
      </trkpt>
      <trkpt lat="36.8295936584473" lon="-5.15894317626953">
        <ele>879</ele>
        <time>2019-05-11T17:01:05Z</time>
      </trkpt>
      <trkpt lat="36.8295936584473" lon="-5.1589469909668">
        <ele>879</ele>
        <time>2019-05-11T17:01:07Z</time>
      </trkpt>
      <trkpt lat="36.8295936584473" lon="-5.1589469909668">
        <ele>879</ele>
        <time>2019-05-11T17:01:09Z</time>
      </trkpt>
      <trkpt lat="36.8295936584473" lon="-5.15894794464111">
        <ele>879</ele>
        <time>2019-05-11T17:01:11Z</time>
      </trkpt>
      <trkpt lat="36.8295936584473" lon="-5.15894794464111">
        <ele>879</ele>
        <time>2019-05-11T17:01:13Z</time>
      </trkpt>
      <trkpt lat="36.8295936584473" lon="-5.15894317626953">
        <ele>879</ele>
        <time>2019-05-11T17:01:15Z</time>
      </trkpt>
      <trkpt lat="36.8295936584473" lon="-5.15893220901489">
        <ele>879</ele>
        <time>2019-05-11T17:01:17Z</time>
      </trkpt>
      <trkpt lat="36.8295860290527" lon="-5.15891218185425">
        <ele>879</ele>
        <time>2019-05-11T17:01:19Z</time>
      </trkpt>
      <trkpt lat="36.8295936584473" lon="-5.15888214111328">
        <ele>879</ele>
        <time>2019-05-11T17:01:21Z</time>
      </trkpt>
      <trkpt lat="36.8295936584473" lon="-5.15887308120728">
        <ele>879</ele>
        <time>2019-05-11T17:01:24Z</time>
      </trkpt>
      <trkpt lat="36.8295974731445" lon="-5.15887498855591">
        <ele>879</ele>
        <time>2019-05-11T17:01:26Z</time>
      </trkpt>
      <trkpt lat="36.8296012878418" lon="-5.15887784957886">
        <ele>880</ele>
        <time>2019-05-11T17:01:28Z</time>
      </trkpt>
      <trkpt lat="36.8296012878418" lon="-5.15887784957886">
        <ele>880</ele>
        <time>2019-05-11T17:01:30Z</time>
      </trkpt>
      <trkpt lat="36.8296051025391" lon="-5.15887689590454">
        <ele>880</ele>
        <time>2019-05-11T17:01:32Z</time>
      </trkpt>
      <trkpt lat="36.8296051025391" lon="-5.15887498855591">
        <ele>880</ele>
        <time>2019-05-11T17:01:34Z</time>
      </trkpt>
      <trkpt lat="36.8296012878418" lon="-5.15887498855591">
        <ele>880</ele>
        <time>2019-05-11T17:01:36Z</time>
      </trkpt>
      <trkpt lat="36.8296012878418" lon="-5.15887308120728">
        <ele>881</ele>
        <time>2019-05-11T17:01:38Z</time>
      </trkpt>
      <trkpt lat="36.8296012878418" lon="-5.15887212753296">
        <ele>881</ele>
        <time>2019-05-11T17:01:40Z</time>
      </trkpt>
      <trkpt lat="36.8295974731445" lon="-5.15887212753296">
        <ele>881</ele>
        <time>2019-05-11T17:01:42Z</time>
      </trkpt>
      <trkpt lat="36.8296012878418" lon="-5.15887022018433">
        <ele>881</ele>
        <time>2019-05-11T17:01:44Z</time>
      </trkpt>
      <trkpt lat="36.8295936584473" lon="-5.15886783599854">
        <ele>881</ele>
        <time>2019-05-11T17:01:46Z</time>
      </trkpt>
      <trkpt lat="36.8295936584473" lon="-5.15886688232422">
        <ele>881</ele>
        <time>2019-05-11T17:01:48Z</time>
      </trkpt>
      <trkpt lat="36.8296012878418" lon="-5.15887022018433">
        <ele>881</ele>
        <time>2019-05-11T17:01:50Z</time>
      </trkpt>
      <trkpt lat="36.8296012878418" lon="-5.15887689590454">
        <ele>881</ele>
        <time>2019-05-11T17:01:52Z</time>
      </trkpt>
      <trkpt lat="36.8295974731445" lon="-5.15887784957886">
        <ele>881</ele>
        <time>2019-05-11T17:01:54Z</time>
      </trkpt>
      <trkpt lat="36.8295974731445" lon="-5.15887689590454">
        <ele>881</ele>
        <time>2019-05-11T17:01:56Z</time>
      </trkpt>
      <trkpt lat="36.8295974731445" lon="-5.15887784957886">
        <ele>881</ele>
        <time>2019-05-11T17:01:58Z</time>
      </trkpt>
      <trkpt lat="36.8295974731445" lon="-5.15887784957886">
        <ele>881</ele>
        <time>2019-05-11T17:02:00Z</time>
      </trkpt>
      <trkpt lat="36.8295936584473" lon="-5.15887689590454">
        <ele>881</ele>
        <time>2019-05-11T17:02:02Z</time>
      </trkpt>
      <trkpt lat="36.8295936584473" lon="-5.15887212753296">
        <ele>881</ele>
        <time>2019-05-11T17:02:04Z</time>
      </trkpt>
      <trkpt lat="36.8295936584473" lon="-5.15887022018433">
        <ele>882</ele>
        <time>2019-05-11T17:02:06Z</time>
      </trkpt>
      <trkpt lat="36.8295936584473" lon="-5.15886497497559">
        <ele>882</ele>
        <time>2019-05-11T17:02:14Z</time>
      </trkpt>
      <trkpt lat="36.8295936584473" lon="-5.15886497497559">
        <ele>882</ele>
        <time>2019-05-11T17:02:17Z</time>
      </trkpt>
      <trkpt lat="36.8295936584473" lon="-5.15886306762695">
        <ele>882</ele>
        <time>2019-05-11T17:02:19Z</time>
      </trkpt>
      <trkpt lat="36.8295936584473" lon="-5.15886306762695">
        <ele>882</ele>
        <time>2019-05-11T17:02:21Z</time>
      </trkpt>
      <trkpt lat="36.8295936584473" lon="-5.15886211395264">
        <ele>882</ele>
        <time>2019-05-11T17:02:23Z</time>
      </trkpt>
      <trkpt lat="36.8295974731445" lon="-5.15886211395264">
        <ele>882</ele>
        <time>2019-05-11T17:02:25Z</time>
      </trkpt>
      <trkpt lat="36.8295974731445" lon="-5.15886306762695">
        <ele>882</ele>
        <time>2019-05-11T17:02:27Z</time>
      </trkpt>
      <trkpt lat="36.8296012878418" lon="-5.158860206604">
        <ele>882</ele>
        <time>2019-05-11T17:02:29Z</time>
      </trkpt>
      <trkpt lat="36.8296012878418" lon="-5.15885782241821">
        <ele>882</ele>
        <time>2019-05-11T17:02:31Z</time>
      </trkpt>
      <trkpt lat="36.8296051025391" lon="-5.1588568687439">
        <ele>882</ele>
        <time>2019-05-11T17:02:33Z</time>
      </trkpt>
      <trkpt lat="36.8296051025391" lon="-5.1588568687439">
        <ele>882</ele>
        <time>2019-05-11T17:02:35Z</time>
      </trkpt>
      <trkpt lat="36.8296051025391" lon="-5.1588568687439">
        <ele>882</ele>
        <time>2019-05-11T17:02:37Z</time>
      </trkpt>
      <trkpt lat="36.8296051025391" lon="-5.15885496139526">
        <ele>882</ele>
        <time>2019-05-11T17:02:39Z</time>
      </trkpt>
      <trkpt lat="36.8296051025391" lon="-5.15885496139526">
        <ele>882</ele>
        <time>2019-05-11T17:02:41Z</time>
      </trkpt>
      <trkpt lat="36.8296051025391" lon="-5.15885496139526">
        <ele>882</ele>
        <time>2019-05-11T17:02:43Z</time>
      </trkpt>
      <trkpt lat="36.8296051025391" lon="-5.15885305404663">
        <ele>882</ele>
        <time>2019-05-11T17:02:45Z</time>
      </trkpt>
      <trkpt lat="36.8296051025391" lon="-5.15885496139526">
        <ele>882</ele>
        <time>2019-05-11T17:02:47Z</time>
      </trkpt>
      <trkpt lat="36.8296012878418" lon="-5.15885496139526">
        <ele>882</ele>
        <time>2019-05-11T17:02:49Z</time>
      </trkpt>
      <trkpt lat="36.8296012878418" lon="-5.15885496139526">
        <ele>882</ele>
        <time>2019-05-11T17:02:51Z</time>
      </trkpt>
      <trkpt lat="36.8296012878418" lon="-5.1588568687439">
        <ele>882</ele>
        <time>2019-05-11T17:02:53Z</time>
      </trkpt>
      <trkpt lat="36.8296012878418" lon="-5.1588568687439">
        <ele>882</ele>
        <time>2019-05-11T17:02:55Z</time>
      </trkpt>
      <trkpt lat="36.8296012878418" lon="-5.1588568687439">
        <ele>882</ele>
        <time>2019-05-11T17:02:57Z</time>
      </trkpt>
      <trkpt lat="36.8295974731445" lon="-5.15885782241821">
        <ele>882</ele>
        <time>2019-05-11T17:02:59Z</time>
      </trkpt>
      <trkpt lat="36.8295974731445" lon="-5.15885782241821">
        <ele>882</ele>
        <time>2019-05-11T17:03:01Z</time>
      </trkpt>
      <trkpt lat="36.8296012878418" lon="-5.1588568687439">
        <ele>882</ele>
        <time>2019-05-11T17:03:03Z</time>
      </trkpt>
      <trkpt lat="36.8295974731445" lon="-5.15886688232422">
        <ele>882</ele>
        <time>2019-05-11T17:03:05Z</time>
      </trkpt>
      <trkpt lat="36.8295936584473" lon="-5.15887498855591">
        <ele>882</ele>
        <time>2019-05-11T17:03:11Z</time>
      </trkpt>
      <trkpt lat="36.8295860290527" lon="-5.15886783599854">
        <ele>882</ele>
        <time>2019-05-11T17:03:15Z</time>
      </trkpt>
      <trkpt lat="36.82958984375" lon="-5.15887308120728">
        <ele>882</ele>
        <time>2019-05-11T17:03:17Z</time>
      </trkpt>
      <trkpt lat="36.82958984375" lon="-5.15887498855591">
        <ele>882</ele>
        <time>2019-05-11T17:03:19Z</time>
      </trkpt>
      <trkpt lat="36.82958984375" lon="-5.15887689590454">
        <ele>882</ele>
        <time>2019-05-11T17:03:22Z</time>
      </trkpt>
      <trkpt lat="36.8295936584473" lon="-5.15887498855591">
        <ele>882</ele>
        <time>2019-05-11T17:03:24Z</time>
      </trkpt>
      <trkpt lat="36.8296165466309" lon="-5.15886783599854">
        <ele>882</ele>
        <time>2019-05-11T17:03:28Z</time>
      </trkpt>
      <trkpt lat="36.8296279907227" lon="-5.15886783599854">
        <ele>882</ele>
        <time>2019-05-11T17:03:30Z</time>
      </trkpt>
      <trkpt lat="36.8296394348144" lon="-5.15887022018433">
        <ele>882</ele>
        <time>2019-05-11T17:03:32Z</time>
      </trkpt>
      <trkpt lat="36.8296546936035" lon="-5.15887022018433">
        <ele>882</ele>
        <time>2019-05-11T17:03:34Z</time>
      </trkpt>
      <trkpt lat="36.8296546936035" lon="-5.15887212753296">
        <ele>882</ele>
        <time>2019-05-11T17:03:36Z</time>
      </trkpt>
      <trkpt lat="36.829647064209" lon="-5.15887308120728">
        <ele>882</ele>
        <time>2019-05-11T17:03:38Z</time>
      </trkpt>
      <trkpt lat="36.8296356201172" lon="-5.15887689590454">
        <ele>882</ele>
        <time>2019-05-11T17:03:40Z</time>
      </trkpt>
      <trkpt lat="36.8296356201172" lon="-5.15887689590454">
        <ele>882</ele>
        <time>2019-05-11T17:03:42Z</time>
      </trkpt>
      <trkpt lat="36.8296318054199" lon="-5.15887022018433">
        <ele>882</ele>
        <time>2019-05-11T17:03:44Z</time>
      </trkpt>
      <trkpt lat="36.8296356201172" lon="-5.15886688232422">
        <ele>882</ele>
        <time>2019-05-11T17:03:46Z</time>
      </trkpt>
      <trkpt lat="36.829647064209" lon="-5.15887212753296">
        <ele>882</ele>
        <time>2019-05-11T17:03:48Z</time>
      </trkpt>
      <trkpt lat="36.8296585083008" lon="-5.15888023376465">
        <ele>882</ele>
        <time>2019-05-11T17:03:50Z</time>
      </trkpt>
      <trkpt lat="36.8296661376953" lon="-5.15888500213623">
        <ele>882</ele>
        <time>2019-05-11T17:03:52Z</time>
      </trkpt>
      <trkpt lat="36.8296661376953" lon="-5.15888977050781">
        <ele>882</ele>
        <time>2019-05-11T17:03:54Z</time>
      </trkpt>
      <trkpt lat="36.8296737670898" lon="-5.15888977050781">
        <ele>882</ele>
        <time>2019-05-11T17:03:56Z</time>
      </trkpt>
      <trkpt lat="36.8296737670898" lon="-5.1588830947876">
        <ele>882</ele>
        <time>2019-05-11T17:03:58Z</time>
      </trkpt>
      <trkpt lat="36.8296737670898" lon="-5.1588921546936">
        <ele>882</ele>
        <time>2019-05-11T17:04:00Z</time>
      </trkpt>
      <trkpt lat="36.8296737670898" lon="-5.15888500213623">
        <ele>882</ele>
        <time>2019-05-11T17:04:02Z</time>
      </trkpt>
      <trkpt lat="36.8296737670898" lon="-5.15887689590454">
        <ele>882</ele>
        <time>2019-05-11T17:04:05Z</time>
      </trkpt>
      <trkpt lat="36.8296737670898" lon="-5.15887498855591">
        <ele>882</ele>
        <time>2019-05-11T17:04:07Z</time>
      </trkpt>
      <trkpt lat="36.8296737670898" lon="-5.15887212753296">
        <ele>882</ele>
        <time>2019-05-11T17:04:09Z</time>
      </trkpt>
      <trkpt lat="36.8296737670898" lon="-5.15887212753296">
        <ele>882</ele>
        <time>2019-05-11T17:04:11Z</time>
      </trkpt>
      <trkpt lat="36.8296737670898" lon="-5.15887308120728">
        <ele>882</ele>
        <time>2019-05-11T17:04:13Z</time>
      </trkpt>
      <trkpt lat="36.8296699523926" lon="-5.15887308120728">
        <ele>882</ele>
        <time>2019-05-11T17:04:15Z</time>
      </trkpt>
      <trkpt lat="36.8296661376953" lon="-5.15886783599854">
        <ele>882</ele>
        <time>2019-05-11T17:04:17Z</time>
      </trkpt>
      <trkpt lat="36.8296737670898" lon="-5.15886306762695">
        <ele>882</ele>
        <time>2019-05-11T17:04:19Z</time>
      </trkpt>
      <trkpt lat="36.8296737670898" lon="-5.15885782241821">
        <ele>882</ele>
        <time>2019-05-11T17:04:21Z</time>
      </trkpt>
      <trkpt lat="36.8296813964844" lon="-5.15885496139526">
        <ele>882</ele>
        <time>2019-05-11T17:04:23Z</time>
      </trkpt>
      <trkpt lat="36.8296890258789" lon="-5.15884494781494">
        <ele>882</ele>
        <time>2019-05-11T17:04:25Z</time>
      </trkpt>
      <trkpt lat="36.8297080993652" lon="-5.15883779525757">
        <ele>882</ele>
        <time>2019-05-11T17:04:27Z</time>
      </trkpt>
      <trkpt lat="36.829719543457" lon="-5.15882778167725">
        <ele>882</ele>
        <time>2019-05-11T17:04:29Z</time>
      </trkpt>
      <trkpt lat="36.8297309875488" lon="-5.15881013870239">
        <ele>882</ele>
        <time>2019-05-11T17:04:31Z</time>
      </trkpt>
      <trkpt lat="36.8297538757324" lon="-5.15878486633301">
        <ele>882</ele>
        <time>2019-05-11T17:04:33Z</time>
      </trkpt>
      <trkpt lat="36.829761505127" lon="-5.15877294540405">
        <ele>882</ele>
        <time>2019-05-11T17:04:35Z</time>
      </trkpt>
      <trkpt lat="36.829776763916" lon="-5.15876483917236">
        <ele>882</ele>
        <time>2019-05-11T17:04:37Z</time>
      </trkpt>
      <trkpt lat="36.8297920227051" lon="-5.15875482559204">
        <ele>882</ele>
        <time>2019-05-11T17:04:39Z</time>
      </trkpt>
      <trkpt lat="36.8298110961914" lon="-5.15874290466309">
        <ele>882</ele>
        <time>2019-05-11T17:04:41Z</time>
      </trkpt>
      <trkpt lat="36.8298263549805" lon="-5.15873718261719">
        <ele>882</ele>
        <time>2019-05-11T17:04:43Z</time>
      </trkpt>
      <trkpt lat="36.8298416137695" lon="-5.15872192382812">
        <ele>882</ele>
        <time>2019-05-11T17:04:45Z</time>
      </trkpt>
      <trkpt lat="36.8298530578613" lon="-5.15870714187622">
        <ele>882</ele>
        <time>2019-05-11T17:04:48Z</time>
      </trkpt>
      <trkpt lat="36.8298683166504" lon="-5.15869808197022">
        <ele>882</ele>
        <time>2019-05-11T17:04:50Z</time>
      </trkpt>
      <trkpt lat="36.8298797607422" lon="-5.15869188308716">
        <ele>882</ele>
        <time>2019-05-11T17:04:52Z</time>
      </trkpt>
      <trkpt lat="36.8298873901367" lon="-5.15868186950684">
        <ele>882</ele>
        <time>2019-05-11T17:04:54Z</time>
      </trkpt>
      <trkpt lat="36.8298950195312" lon="-5.15867805480957">
        <ele>882</ele>
        <time>2019-05-11T17:04:56Z</time>
      </trkpt>
      <trkpt lat="36.8298950195312" lon="-5.15867805480957">
        <ele>882</ele>
        <time>2019-05-11T17:04:58Z</time>
      </trkpt>
      <trkpt lat="36.8298988342285" lon="-5.15867710113525">
        <ele>882</ele>
        <time>2019-05-11T17:05:00Z</time>
      </trkpt>
      <trkpt lat="36.829891204834" lon="-5.15867280960083">
        <ele>882</ele>
        <time>2019-05-11T17:05:02Z</time>
      </trkpt>
      <trkpt lat="36.8298835754394" lon="-5.15867185592651">
        <ele>882</ele>
        <time>2019-05-11T17:05:04Z</time>
      </trkpt>
      <trkpt lat="36.8298797607422" lon="-5.1586651802063">
        <ele>882</ele>
        <time>2019-05-11T17:05:06Z</time>
      </trkpt>
      <trkpt lat="36.8298797607422" lon="-5.15865802764893">
        <ele>882</ele>
        <time>2019-05-11T17:05:08Z</time>
      </trkpt>
      <trkpt lat="36.8298797607422" lon="-5.15865278244019">
        <ele>882</ele>
        <time>2019-05-11T17:05:10Z</time>
      </trkpt>
      <trkpt lat="36.8298797607422" lon="-5.15864992141724">
        <ele>882</ele>
        <time>2019-05-11T17:05:12Z</time>
      </trkpt>
      <trkpt lat="36.8298759460449" lon="-5.15864992141724">
        <ele>882</ele>
        <time>2019-05-11T17:05:14Z</time>
      </trkpt>
      <trkpt lat="36.8298759460449" lon="-5.15864706039429">
        <ele>882</ele>
        <time>2019-05-11T17:05:16Z</time>
      </trkpt>
      <trkpt lat="36.8298759460449" lon="-5.15864515304565">
        <ele>882</ele>
        <time>2019-05-11T17:05:18Z</time>
      </trkpt>
      <trkpt lat="36.8298721313477" lon="-5.15863990783691">
        <ele>882</ele>
        <time>2019-05-11T17:05:20Z</time>
      </trkpt>
      <trkpt lat="36.8298683166504" lon="-5.15863180160522">
        <ele>882</ele>
        <time>2019-05-11T17:05:22Z</time>
      </trkpt>
      <trkpt lat="36.8298645019531" lon="-5.15862512588501">
        <ele>882</ele>
        <time>2019-05-11T17:05:24Z</time>
      </trkpt>
      <trkpt lat="36.8298606872559" lon="-5.15861511230469">
        <ele>882</ele>
        <time>2019-05-11T17:05:26Z</time>
      </trkpt>
      <trkpt lat="36.8298568725586" lon="-5.15860986709595">
        <ele>882</ele>
        <time>2019-05-11T17:05:28Z</time>
      </trkpt>
      <trkpt lat="36.8298530578613" lon="-5.15860319137573">
        <ele>882</ele>
        <time>2019-05-11T17:05:30Z</time>
      </trkpt>
      <trkpt lat="36.8298568725586" lon="-5.15859985351562">
        <ele>882</ele>
        <time>2019-05-11T17:05:33Z</time>
      </trkpt>
      <trkpt lat="36.8298568725586" lon="-5.15859794616699">
        <ele>882</ele>
        <time>2019-05-11T17:05:35Z</time>
      </trkpt>
      <trkpt lat="36.8298568725586" lon="-5.15859508514404">
        <ele>882</ele>
        <time>2019-05-11T17:05:37Z</time>
      </trkpt>
      <trkpt lat="36.8298530578613" lon="-5.15859317779541">
        <ele>882</ele>
        <time>2019-05-11T17:05:39Z</time>
      </trkpt>
      <trkpt lat="36.8298568725586" lon="-5.1585898399353">
        <ele>883</ele>
        <time>2019-05-11T17:05:41Z</time>
      </trkpt>
      <trkpt lat="36.8298568725586" lon="-5.15858793258667">
        <ele>883</ele>
        <time>2019-05-11T17:05:43Z</time>
      </trkpt>
      <trkpt lat="36.8298568725586" lon="-5.15858316421509">
        <ele>883</ele>
        <time>2019-05-11T17:05:45Z</time>
      </trkpt>
      <trkpt lat="36.8298568725586" lon="-5.15858221054077">
        <ele>883</ele>
        <time>2019-05-11T17:05:47Z</time>
      </trkpt>
      <trkpt lat="36.8298606872559" lon="-5.15857982635498">
        <ele>883</ele>
        <time>2019-05-11T17:05:49Z</time>
      </trkpt>
      <trkpt lat="36.8298568725586" lon="-5.15858221054077">
        <ele>883</ele>
        <time>2019-05-11T17:05:51Z</time>
      </trkpt>
      <trkpt lat="36.8298568725586" lon="-5.15857982635498">
        <ele>884</ele>
        <time>2019-05-11T17:05:53Z</time>
      </trkpt>
      <trkpt lat="36.8298530578613" lon="-5.15858221054077">
        <ele>884</ele>
        <time>2019-05-11T17:05:57Z</time>
      </trkpt>
      <trkpt lat="36.8298530578613" lon="-5.15858507156372">
        <ele>884</ele>
        <time>2019-05-11T17:05:59Z</time>
      </trkpt>
      <trkpt lat="36.8298492431641" lon="-5.15858316421509">
        <ele>884</ele>
        <time>2019-05-11T17:06:01Z</time>
      </trkpt>
      <trkpt lat="36.8298492431641" lon="-5.15857982635498">
        <ele>884</ele>
        <time>2019-05-11T17:06:03Z</time>
      </trkpt>
      <trkpt lat="36.8298530578613" lon="-5.15857791900635">
        <ele>884</ele>
        <time>2019-05-11T17:06:05Z</time>
      </trkpt>
      <trkpt lat="36.8298530578613" lon="-5.15857791900635">
        <ele>884</ele>
        <time>2019-05-11T17:06:07Z</time>
      </trkpt>
      <trkpt lat="36.8298568725586" lon="-5.15857696533203">
        <ele>884</ele>
        <time>2019-05-11T17:06:09Z</time>
      </trkpt>
      <trkpt lat="36.8298568725586" lon="-5.15857696533203">
        <ele>884</ele>
        <time>2019-05-11T17:06:11Z</time>
      </trkpt>
      <trkpt lat="36.8298568725586" lon="-5.15857315063477">
        <ele>884</ele>
        <time>2019-05-11T17:06:13Z</time>
      </trkpt>
      <trkpt lat="36.8298568725586" lon="-5.15857315063477">
        <ele>884</ele>
        <time>2019-05-11T17:06:15Z</time>
      </trkpt>
      <trkpt lat="36.8298568725586" lon="-5.1585750579834">
        <ele>884</ele>
        <time>2019-05-11T17:06:17Z</time>
      </trkpt>
      <trkpt lat="36.8298568725586" lon="-5.15857315063477">
        <ele>884</ele>
        <time>2019-05-11T17:06:19Z</time>
      </trkpt>
      <trkpt lat="36.8298568725586" lon="-5.15857219696045">
        <ele>884</ele>
        <time>2019-05-11T17:06:21Z</time>
      </trkpt>
      <trkpt lat="36.8298568725586" lon="-5.15857219696045">
        <ele>884</ele>
        <time>2019-05-11T17:06:23Z</time>
      </trkpt>
      <trkpt lat="36.8298568725586" lon="-5.1585750579834">
        <ele>884</ele>
        <time>2019-05-11T17:06:25Z</time>
      </trkpt>
      <trkpt lat="36.8298568725586" lon="-5.15857219696045">
        <ele>884</ele>
        <time>2019-05-11T17:06:27Z</time>
      </trkpt>
      <trkpt lat="36.8298568725586" lon="-5.15857219696045">
        <ele>884</ele>
        <time>2019-05-11T17:06:29Z</time>
      </trkpt>
      <trkpt lat="36.8298568725586" lon="-5.15856981277466">
        <ele>884</ele>
        <time>2019-05-11T17:06:32Z</time>
      </trkpt>
      <trkpt lat="36.8298568725586" lon="-5.15856695175171">
        <ele>884</ele>
        <time>2019-05-11T17:06:34Z</time>
      </trkpt>
      <trkpt lat="36.8298568725586" lon="-5.15856790542603">
        <ele>884</ele>
        <time>2019-05-11T17:06:36Z</time>
      </trkpt>
      <trkpt lat="36.8298606872559" lon="-5.15856695175171">
        <ele>884</ele>
        <time>2019-05-11T17:06:38Z</time>
      </trkpt>
      <trkpt lat="36.8298606872559" lon="-5.15856695175171">
        <ele>884</ele>
        <time>2019-05-11T17:06:40Z</time>
      </trkpt>
      <trkpt lat="36.8298606872559" lon="-5.15856790542603">
        <ele>884</ele>
        <time>2019-05-11T17:06:42Z</time>
      </trkpt>
      <trkpt lat="36.8298606872559" lon="-5.15856981277466">
        <ele>884</ele>
        <time>2019-05-11T17:06:44Z</time>
      </trkpt>
      <trkpt lat="36.8298606872559" lon="-5.15857219696045">
        <ele>884</ele>
        <time>2019-05-11T17:06:46Z</time>
      </trkpt>
      <trkpt lat="36.8298606872559" lon="-5.15857315063477">
        <ele>884</ele>
        <time>2019-05-11T17:06:48Z</time>
      </trkpt>
      <trkpt lat="36.8298606872559" lon="-5.15857315063477">
        <ele>884</ele>
        <time>2019-05-11T17:06:50Z</time>
      </trkpt>
      <trkpt lat="36.8298645019531" lon="-5.15857696533203">
        <ele>884</ele>
        <time>2019-05-11T17:06:52Z</time>
      </trkpt>
      <trkpt lat="36.8298683166504" lon="-5.1585750579834">
        <ele>884</ele>
        <time>2019-05-11T17:06:54Z</time>
      </trkpt>
      <trkpt lat="36.8298683166504" lon="-5.15857982635498">
        <ele>884</ele>
        <time>2019-05-11T17:06:56Z</time>
      </trkpt>
      <trkpt lat="36.8298683166504" lon="-5.15858507156372">
        <ele>884</ele>
        <time>2019-05-11T17:06:58Z</time>
      </trkpt>
      <trkpt lat="36.8298721313477" lon="-5.15858793258667">
        <ele>884</ele>
        <time>2019-05-11T17:07:00Z</time>
      </trkpt>
      <trkpt lat="36.8298721313477" lon="-5.15859222412109">
        <ele>884</ele>
        <time>2019-05-11T17:07:02Z</time>
      </trkpt>
      <trkpt lat="36.8298721313477" lon="-5.15859508514404">
        <ele>885</ele>
        <time>2019-05-11T17:07:04Z</time>
      </trkpt>
      <trkpt lat="36.8298759460449" lon="-5.15859508514404">
        <ele>885</ele>
        <time>2019-05-11T17:07:06Z</time>
      </trkpt>
      <trkpt lat="36.8298721313477" lon="-5.15859985351562">
        <ele>885</ele>
        <time>2019-05-11T17:07:08Z</time>
      </trkpt>
      <trkpt lat="36.8298683166504" lon="-5.15860223770142">
        <ele>885</ele>
        <time>2019-05-11T17:07:10Z</time>
      </trkpt>
      <trkpt lat="36.8298683166504" lon="-5.15859985351562">
        <ele>885</ele>
        <time>2019-05-11T17:07:12Z</time>
      </trkpt>
      <trkpt lat="36.8298683166504" lon="-5.15859508514404">
        <ele>885</ele>
        <time>2019-05-11T17:07:14Z</time>
      </trkpt>
      <trkpt lat="36.8298683166504" lon="-5.15859508514404">
        <ele>885</ele>
        <time>2019-05-11T17:07:16Z</time>
      </trkpt>
      <trkpt lat="36.8298683166504" lon="-5.15859699249268">
        <ele>885</ele>
        <time>2019-05-11T17:07:18Z</time>
      </trkpt>
      <trkpt lat="36.8298683166504" lon="-5.15859317779541">
        <ele>885</ele>
        <time>2019-05-11T17:07:20Z</time>
      </trkpt>
      <trkpt lat="36.8298683166504" lon="-5.15859222412109">
        <ele>885</ele>
        <time>2019-05-11T17:07:22Z</time>
      </trkpt>
      <trkpt lat="36.8298683166504" lon="-5.15858793258667">
        <ele>885</ele>
        <time>2019-05-11T17:07:24Z</time>
      </trkpt>
      <trkpt lat="36.8298683166504" lon="-5.15858697891235">
        <ele>885</ele>
        <time>2019-05-11T17:07:26Z</time>
      </trkpt>
      <trkpt lat="36.8298683166504" lon="-5.15858316421509">
        <ele>885</ele>
        <time>2019-05-11T17:07:30Z</time>
      </trkpt>
      <trkpt lat="36.8298721313477" lon="-5.1585750579834">
        <ele>885</ele>
        <time>2019-05-11T17:07:36Z</time>
      </trkpt>
      <trkpt lat="36.8298721313477" lon="-5.15857315063477">
        <ele>885</ele>
        <time>2019-05-11T17:07:38Z</time>
      </trkpt>
      <trkpt lat="36.8298759460449" lon="-5.15857791900635">
        <ele>885</ele>
        <time>2019-05-11T17:07:40Z</time>
      </trkpt>
      <trkpt lat="36.8298721313477" lon="-5.15858507156372">
        <ele>885</ele>
        <time>2019-05-11T17:07:42Z</time>
      </trkpt>
      <trkpt lat="36.8298683166504" lon="-5.15858221054077">
        <ele>885</ele>
        <time>2019-05-11T17:07:44Z</time>
      </trkpt>
      <trkpt lat="36.8298721313477" lon="-5.15857696533203">
        <ele>885</ele>
        <time>2019-05-11T17:07:47Z</time>
      </trkpt>
      <trkpt lat="36.8298721313477" lon="-5.1585750579834">
        <ele>885</ele>
        <time>2019-05-11T17:07:49Z</time>
      </trkpt>
      <trkpt lat="36.8298683166504" lon="-5.15857315063477">
        <ele>885</ele>
        <time>2019-05-11T17:07:51Z</time>
      </trkpt>
      <trkpt lat="36.8298721313477" lon="-5.1585750579834">
        <ele>885</ele>
        <time>2019-05-11T17:07:53Z</time>
      </trkpt>
      <trkpt lat="36.8298721313477" lon="-5.1585750579834">
        <ele>885</ele>
        <time>2019-05-11T17:07:55Z</time>
      </trkpt>
      <trkpt lat="36.8298721313477" lon="-5.1585750579834">
        <ele>885</ele>
        <time>2019-05-11T17:07:57Z</time>
      </trkpt>
      <trkpt lat="36.8298683166504" lon="-5.15857696533203">
        <ele>885</ele>
        <time>2019-05-11T17:07:59Z</time>
      </trkpt>
      <trkpt lat="36.8298721313477" lon="-5.15857696533203">
        <ele>885</ele>
        <time>2019-05-11T17:08:01Z</time>
      </trkpt>
      <trkpt lat="36.8298721313477" lon="-5.15857696533203">
        <ele>885</ele>
        <time>2019-05-11T17:08:03Z</time>
      </trkpt>
      <trkpt lat="36.8298759460449" lon="-5.15857791900635">
        <ele>885</ele>
        <time>2019-05-11T17:08:05Z</time>
      </trkpt>
      <trkpt lat="36.8298759460449" lon="-5.15857982635498">
        <ele>885</ele>
        <time>2019-05-11T17:08:07Z</time>
      </trkpt>
      <trkpt lat="36.8298797607422" lon="-5.15857982635498">
        <ele>885</ele>
        <time>2019-05-11T17:08:09Z</time>
      </trkpt>
      <trkpt lat="36.8298835754394" lon="-5.15857982635498">
        <ele>885</ele>
        <time>2019-05-11T17:08:11Z</time>
      </trkpt>
      <trkpt lat="36.8298835754394" lon="-5.15858221054077">
        <ele>885</ele>
        <time>2019-05-11T17:08:13Z</time>
      </trkpt>
      <trkpt lat="36.8298835754394" lon="-5.15858221054077">
        <ele>885</ele>
        <time>2019-05-11T17:08:15Z</time>
      </trkpt>
      <trkpt lat="36.8298835754394" lon="-5.15858507156372">
        <ele>886</ele>
        <time>2019-05-11T17:08:17Z</time>
      </trkpt>
      <trkpt lat="36.8298873901367" lon="-5.15858507156372">
        <ele>886</ele>
        <time>2019-05-11T17:08:19Z</time>
      </trkpt>
      <trkpt lat="36.829891204834" lon="-5.1585898399353">
        <ele>886</ele>
        <time>2019-05-11T17:08:21Z</time>
      </trkpt>
      <trkpt lat="36.8298950195312" lon="-5.15858793258667">
        <ele>886</ele>
        <time>2019-05-11T17:08:23Z</time>
      </trkpt>
      <trkpt lat="36.8298950195312" lon="-5.15859222412109">
        <ele>886</ele>
        <time>2019-05-11T17:08:25Z</time>
      </trkpt>
      <trkpt lat="36.8298988342285" lon="-5.15859508514404">
        <ele>886</ele>
        <time>2019-05-11T17:08:27Z</time>
      </trkpt>
      <trkpt lat="36.8298988342285" lon="-5.15859317779541">
        <ele>886</ele>
        <time>2019-05-11T17:08:29Z</time>
      </trkpt>
      <trkpt lat="36.8298988342285" lon="-5.15859317779541">
        <ele>886</ele>
        <time>2019-05-11T17:08:31Z</time>
      </trkpt>
      <trkpt lat="36.8298988342285" lon="-5.15859699249268">
        <ele>886</ele>
        <time>2019-05-11T17:08:33Z</time>
      </trkpt>
      <trkpt lat="36.8299026489258" lon="-5.15859794616699">
        <ele>886</ele>
        <time>2019-05-11T17:08:35Z</time>
      </trkpt>
      <trkpt lat="36.829906463623" lon="-5.15859794616699">
        <ele>886</ele>
        <time>2019-05-11T17:08:37Z</time>
      </trkpt>
      <trkpt lat="36.829906463623" lon="-5.15859508514404">
        <ele>886</ele>
        <time>2019-05-11T17:08:39Z</time>
      </trkpt>
      <trkpt lat="36.8299140930176" lon="-5.15859508514404">
        <ele>886</ele>
        <time>2019-05-11T17:08:41Z</time>
      </trkpt>
      <trkpt lat="36.8299140930176" lon="-5.15859508514404">
        <ele>886</ele>
        <time>2019-05-11T17:08:43Z</time>
      </trkpt>
      <trkpt lat="36.8299140930176" lon="-5.15859508514404">
        <ele>886</ele>
        <time>2019-05-11T17:08:46Z</time>
      </trkpt>
      <trkpt lat="36.8299140930176" lon="-5.15859508514404">
        <ele>886</ele>
        <time>2019-05-11T17:08:48Z</time>
      </trkpt>
      <trkpt lat="36.8299179077148" lon="-5.15859508514404">
        <ele>886</ele>
        <time>2019-05-11T17:08:50Z</time>
      </trkpt>
      <trkpt lat="36.8299217224121" lon="-5.15859699249268">
        <ele>886</ele>
        <time>2019-05-11T17:08:52Z</time>
      </trkpt>
      <trkpt lat="36.8299217224121" lon="-5.15859699249268">
        <ele>886</ele>
        <time>2019-05-11T17:08:54Z</time>
      </trkpt>
      <trkpt lat="36.8299217224121" lon="-5.15859508514404">
        <ele>886</ele>
        <time>2019-05-11T17:08:56Z</time>
      </trkpt>
      <trkpt lat="36.8299255371094" lon="-5.15859985351562">
        <ele>886</ele>
        <time>2019-05-11T17:08:58Z</time>
      </trkpt>
      <trkpt lat="36.8299255371094" lon="-5.15860223770142">
        <ele>886</ele>
        <time>2019-05-11T17:09:00Z</time>
      </trkpt>
      <trkpt lat="36.8299293518066" lon="-5.15859985351562">
        <ele>886</ele>
        <time>2019-05-11T17:09:02Z</time>
      </trkpt>
      <trkpt lat="36.8299293518066" lon="-5.15859794616699">
        <ele>886</ele>
        <time>2019-05-11T17:09:04Z</time>
      </trkpt>
      <trkpt lat="36.8299293518066" lon="-5.15859794616699">
        <ele>886</ele>
        <time>2019-05-11T17:09:06Z</time>
      </trkpt>
      <trkpt lat="36.8299255371094" lon="-5.15859699249268">
        <ele>886</ele>
        <time>2019-05-11T17:09:08Z</time>
      </trkpt>
      <trkpt lat="36.8299179077148" lon="-5.15858793258667">
        <ele>886</ele>
        <time>2019-05-11T17:09:10Z</time>
      </trkpt>
      <trkpt lat="36.8299140930176" lon="-5.15858697891235">
        <ele>886</ele>
        <time>2019-05-11T17:09:12Z</time>
      </trkpt>
      <trkpt lat="36.8299140930176" lon="-5.15858507156372">
        <ele>886</ele>
        <time>2019-05-11T17:09:14Z</time>
      </trkpt>
      <trkpt lat="36.8299102783203" lon="-5.15858507156372">
        <ele>886</ele>
        <time>2019-05-11T17:09:16Z</time>
      </trkpt>
      <trkpt lat="36.829906463623" lon="-5.15858507156372">
        <ele>886</ele>
        <time>2019-05-11T17:09:18Z</time>
      </trkpt>
      <trkpt lat="36.8299026489258" lon="-5.15858793258667">
        <ele>885</ele>
        <time>2019-05-11T17:09:20Z</time>
      </trkpt>
      <trkpt lat="36.8298988342285" lon="-5.15858697891235">
        <ele>885</ele>
        <time>2019-05-11T17:09:22Z</time>
      </trkpt>
      <trkpt lat="36.8298988342285" lon="-5.15858793258667">
        <ele>885</ele>
        <time>2019-05-11T17:09:24Z</time>
      </trkpt>
      <trkpt lat="36.829891204834" lon="-5.15858793258667">
        <ele>885</ele>
        <time>2019-05-11T17:09:26Z</time>
      </trkpt>
      <trkpt lat="36.8298873901367" lon="-5.1585898399353">
        <ele>884</ele>
        <time>2019-05-11T17:09:30Z</time>
      </trkpt>
      <trkpt lat="36.8298873901367" lon="-5.15859222412109">
        <ele>884</ele>
        <time>2019-05-11T17:09:32Z</time>
      </trkpt>
      <trkpt lat="36.8298873901367" lon="-5.15859222412109">
        <ele>884</ele>
        <time>2019-05-11T17:09:34Z</time>
      </trkpt>
      <trkpt lat="36.8298835754394" lon="-5.15859508514404">
        <ele>884</ele>
        <time>2019-05-11T17:09:36Z</time>
      </trkpt>
      <trkpt lat="36.8298835754394" lon="-5.15859317779541">
        <ele>883</ele>
        <time>2019-05-11T17:09:38Z</time>
      </trkpt>
      <trkpt lat="36.8298835754394" lon="-5.15859222412109">
        <ele>883</ele>
        <time>2019-05-11T17:09:40Z</time>
      </trkpt>
      <trkpt lat="36.8298835754394" lon="-5.15858793258667">
        <ele>883</ele>
        <time>2019-05-11T17:09:42Z</time>
      </trkpt>
      <trkpt lat="36.8298835754394" lon="-5.15859222412109">
        <ele>883</ele>
        <time>2019-05-11T17:09:48Z</time>
      </trkpt>
      <trkpt lat="36.8298835754394" lon="-5.15859317779541">
        <ele>883</ele>
        <time>2019-05-11T17:09:50Z</time>
      </trkpt>
      <trkpt lat="36.8298873901367" lon="-5.15858793258667">
        <ele>883</ele>
        <time>2019-05-11T17:09:53Z</time>
      </trkpt>
      <trkpt lat="36.829891204834" lon="-5.15858697891235">
        <ele>883</ele>
        <time>2019-05-11T17:09:59Z</time>
      </trkpt>
      <trkpt lat="36.829891204834" lon="-5.15858697891235">
        <ele>883</ele>
        <time>2019-05-11T17:10:01Z</time>
      </trkpt>
      <trkpt lat="36.829891204834" lon="-5.15858507156372">
        <ele>883</ele>
        <time>2019-05-11T17:10:03Z</time>
      </trkpt>
      <trkpt lat="36.829891204834" lon="-5.15858507156372">
        <ele>883</ele>
        <time>2019-05-11T17:10:05Z</time>
      </trkpt>
      <trkpt lat="36.829891204834" lon="-5.15858316421509">
        <ele>883</ele>
        <time>2019-05-11T17:10:07Z</time>
      </trkpt>
      <trkpt lat="36.829891204834" lon="-5.15858316421509">
        <ele>883</ele>
        <time>2019-05-11T17:10:09Z</time>
      </trkpt>
      <trkpt lat="36.829891204834" lon="-5.15858316421509">
        <ele>883</ele>
        <time>2019-05-11T17:10:11Z</time>
      </trkpt>
      <trkpt lat="36.8298873901367" lon="-5.15858697891235">
        <ele>883</ele>
        <time>2019-05-11T17:10:13Z</time>
      </trkpt>
      <trkpt lat="36.8298873901367" lon="-5.15858793258667">
        <ele>883</ele>
        <time>2019-05-11T17:10:15Z</time>
      </trkpt>
      <trkpt lat="36.8298835754394" lon="-5.15858697891235">
        <ele>883</ele>
        <time>2019-05-11T17:10:17Z</time>
      </trkpt>
      <trkpt lat="36.8298873901367" lon="-5.15858697891235">
        <ele>883</ele>
        <time>2019-05-11T17:10:19Z</time>
      </trkpt>
      <trkpt lat="36.829891204834" lon="-5.15859222412109">
        <ele>883</ele>
        <time>2019-05-11T17:10:21Z</time>
      </trkpt>
      <trkpt lat="36.8298950195312" lon="-5.15859317779541">
        <ele>883</ele>
        <time>2019-05-11T17:10:23Z</time>
      </trkpt>
      <trkpt lat="36.829891204834" lon="-5.15859699249268">
        <ele>883</ele>
        <time>2019-05-11T17:10:25Z</time>
      </trkpt>
      <trkpt lat="36.8298950195312" lon="-5.15859508514404">
        <ele>884</ele>
        <time>2019-05-11T17:10:29Z</time>
      </trkpt>
      <trkpt lat="36.829891204834" lon="-5.15859317779541">
        <ele>884</ele>
        <time>2019-05-11T17:10:31Z</time>
      </trkpt>
      <trkpt lat="36.829891204834" lon="-5.15859508514404">
        <ele>884</ele>
        <time>2019-05-11T17:10:33Z</time>
      </trkpt>
      <trkpt lat="36.8298873901367" lon="-5.15859317779541">
        <ele>884</ele>
        <time>2019-05-11T17:10:35Z</time>
      </trkpt>
      <trkpt lat="36.8298873901367" lon="-5.15858221054077">
        <ele>884</ele>
        <time>2019-05-11T17:10:43Z</time>
      </trkpt>
      <trkpt lat="36.8298873901367" lon="-5.15857982635498">
        <ele>884</ele>
        <time>2019-05-11T17:10:48Z</time>
      </trkpt>
      <trkpt lat="36.8298797607422" lon="-5.15857696533203">
        <ele>884</ele>
        <time>2019-05-11T17:10:50Z</time>
      </trkpt>
      <trkpt lat="36.8298797607422" lon="-5.15857791900635">
        <ele>884</ele>
        <time>2019-05-11T17:10:52Z</time>
      </trkpt>
      <trkpt lat="36.8298759460449" lon="-5.15857696533203">
        <ele>884</ele>
        <time>2019-05-11T17:10:54Z</time>
      </trkpt>
      <trkpt lat="36.8298797607422" lon="-5.15857315063477">
        <ele>884</ele>
        <time>2019-05-11T17:10:56Z</time>
      </trkpt>
      <trkpt lat="36.8298835754394" lon="-5.15857219696045">
        <ele>884</ele>
        <time>2019-05-11T17:10:58Z</time>
      </trkpt>
      <trkpt lat="36.829891204834" lon="-5.15857219696045">
        <ele>884</ele>
        <time>2019-05-11T17:11:00Z</time>
      </trkpt>
      <trkpt lat="36.829891204834" lon="-5.15857219696045">
        <ele>884</ele>
        <time>2019-05-11T17:11:02Z</time>
      </trkpt>
      <trkpt lat="36.829891204834" lon="-5.1585750579834">
        <ele>884</ele>
        <time>2019-05-11T17:11:04Z</time>
      </trkpt>
      <trkpt lat="36.8298988342285" lon="-5.15857791900635">
        <ele>884</ele>
        <time>2019-05-11T17:11:06Z</time>
      </trkpt>
      <trkpt lat="36.8298988342285" lon="-5.15858221054077">
        <ele>884</ele>
        <time>2019-05-11T17:11:08Z</time>
      </trkpt>
      <trkpt lat="36.829891204834" lon="-5.15859317779541">
        <ele>884</ele>
        <time>2019-05-11T17:11:12Z</time>
      </trkpt>
      <trkpt lat="36.829891204834" lon="-5.15859794616699">
        <ele>883</ele>
        <time>2019-05-11T17:11:14Z</time>
      </trkpt>
      <trkpt lat="36.8298950195312" lon="-5.15860223770142">
        <ele>883</ele>
        <time>2019-05-11T17:11:16Z</time>
      </trkpt>
      <trkpt lat="36.8298988342285" lon="-5.15860509872436">
        <ele>881</ele>
        <time>2019-05-11T17:11:18Z</time>
      </trkpt>
      <trkpt lat="36.8298988342285" lon="-5.15861177444458">
        <ele>881</ele>
        <time>2019-05-11T17:11:20Z</time>
      </trkpt>
      <trkpt lat="36.8298988342285" lon="-5.15861701965332">
        <ele>881</ele>
        <time>2019-05-11T17:11:22Z</time>
      </trkpt>
      <trkpt lat="36.8299026489258" lon="-5.15861988067627">
        <ele>881</ele>
        <time>2019-05-11T17:11:24Z</time>
      </trkpt>
      <trkpt lat="36.8299026489258" lon="-5.15861797332764">
        <ele>881</ele>
        <time>2019-05-11T17:11:26Z</time>
      </trkpt>
      <trkpt lat="36.829906463623" lon="-5.15861797332764">
        <ele>881</ele>
        <time>2019-05-11T17:11:28Z</time>
      </trkpt>
      <trkpt lat="36.8299102783203" lon="-5.1586217880249">
        <ele>881</ele>
        <time>2019-05-11T17:11:30Z</time>
      </trkpt>
      <trkpt lat="36.829906463623" lon="-5.15861797332764">
        <ele>881</ele>
        <time>2019-05-11T17:11:33Z</time>
      </trkpt>
      <trkpt lat="36.829906463623" lon="-5.15861797332764">
        <ele>881</ele>
        <time>2019-05-11T17:11:35Z</time>
      </trkpt>
      <trkpt lat="36.8299026489258" lon="-5.15861320495606">
        <ele>881</ele>
        <time>2019-05-11T17:11:37Z</time>
      </trkpt>
      <trkpt lat="36.8298988342285" lon="-5.15861701965332">
        <ele>881</ele>
        <time>2019-05-11T17:11:39Z</time>
      </trkpt>
      <trkpt lat="36.829891204834" lon="-5.15861797332764">
        <ele>881</ele>
        <time>2019-05-11T17:11:41Z</time>
      </trkpt>
      <trkpt lat="36.8298873901367" lon="-5.15861797332764">
        <ele>882</ele>
        <time>2019-05-11T17:11:43Z</time>
      </trkpt>
      <trkpt lat="36.8298873901367" lon="-5.15861701965332">
        <ele>882</ele>
        <time>2019-05-11T17:11:45Z</time>
      </trkpt>
      <trkpt lat="36.829891204834" lon="-5.15861177444458">
        <ele>883</ele>
        <time>2019-05-11T17:11:49Z</time>
      </trkpt>
      <trkpt lat="36.8299140930176" lon="-5.15861988067627">
        <ele>884</ele>
        <time>2019-05-11T17:11:53Z</time>
      </trkpt>
      <trkpt lat="36.8299331665039" lon="-5.15862512588501">
        <ele>885</ele>
        <time>2019-05-11T17:11:55Z</time>
      </trkpt>
      <trkpt lat="36.8299522399902" lon="-5.15863180160522">
        <ele>885</ele>
        <time>2019-05-11T17:11:57Z</time>
      </trkpt>
      <trkpt lat="36.8299713134766" lon="-5.15862703323364">
        <ele>885</ele>
        <time>2019-05-11T17:11:59Z</time>
      </trkpt>
      <trkpt lat="36.830005645752" lon="-5.15860509872436">
        <ele>885</ele>
        <time>2019-05-11T17:12:01Z</time>
      </trkpt>
      <trkpt lat="36.8300285339356" lon="-5.1585898399353">
        <ele>885</ele>
        <time>2019-05-11T17:12:03Z</time>
      </trkpt>
      <trkpt lat="36.8300514221191" lon="-5.15857219696045">
        <ele>886</ele>
        <time>2019-05-11T17:12:05Z</time>
      </trkpt>
      <trkpt lat="36.8300743103027" lon="-5.15854501724243">
        <ele>886</ele>
        <time>2019-05-11T17:12:07Z</time>
      </trkpt>
      <trkpt lat="36.8300971984863" lon="-5.15852212905884">
        <ele>886</ele>
        <time>2019-05-11T17:12:09Z</time>
      </trkpt>
      <trkpt lat="36.8301162719727" lon="-5.15849494934082">
        <ele>886</ele>
        <time>2019-05-11T17:12:11Z</time>
      </trkpt>
      <trkpt lat="36.8301429748535" lon="-5.15847301483154">
        <ele>886</ele>
        <time>2019-05-11T17:12:14Z</time>
      </trkpt>
      <trkpt lat="36.8301620483398" lon="-5.1584620475769">
        <ele>886</ele>
        <time>2019-05-11T17:12:16Z</time>
      </trkpt>
      <trkpt lat="36.8301658630371" lon="-5.15846014022827">
        <ele>886</ele>
        <time>2019-05-11T17:12:18Z</time>
      </trkpt>
      <trkpt lat="36.8301696777344" lon="-5.15845680236816">
        <ele>886</ele>
        <time>2019-05-11T17:12:20Z</time>
      </trkpt>
      <trkpt lat="36.8301696777344" lon="-5.1584529876709">
        <ele>887</ele>
        <time>2019-05-11T17:12:22Z</time>
      </trkpt>
      <trkpt lat="36.8301696777344" lon="-5.15845203399658">
        <ele>887</ele>
        <time>2019-05-11T17:12:24Z</time>
      </trkpt>
      <trkpt lat="36.8301696777344" lon="-5.15844678878784">
        <ele>887</ele>
        <time>2019-05-11T17:12:26Z</time>
      </trkpt>
      <trkpt lat="36.8301696777344" lon="-5.15844678878784">
        <ele>887</ele>
        <time>2019-05-11T17:12:28Z</time>
      </trkpt>
      <trkpt lat="36.8301658630371" lon="-5.15844297409058">
        <ele>887</ele>
        <time>2019-05-11T17:12:30Z</time>
      </trkpt>
      <trkpt lat="36.8301658630371" lon="-5.15844202041626">
        <ele>887</ele>
        <time>2019-05-11T17:12:32Z</time>
      </trkpt>
      <trkpt lat="36.8301658630371" lon="-5.15844011306763">
        <ele>887</ele>
        <time>2019-05-11T17:12:34Z</time>
      </trkpt>
      <trkpt lat="36.8301696777344" lon="-5.15843820571899">
        <ele>887</ele>
        <time>2019-05-11T17:12:36Z</time>
      </trkpt>
      <trkpt lat="36.8301696777344" lon="-5.15843677520752">
        <ele>887</ele>
        <time>2019-05-11T17:12:38Z</time>
      </trkpt>
      <trkpt lat="36.8301734924316" lon="-5.15843677520752">
        <ele>887</ele>
        <time>2019-05-11T17:12:40Z</time>
      </trkpt>
      <trkpt lat="36.8301773071289" lon="-5.15843296051025">
        <ele>887</ele>
        <time>2019-05-11T17:12:42Z</time>
      </trkpt>
      <trkpt lat="36.8301773071289" lon="-5.1584267616272">
        <ele>887</ele>
        <time>2019-05-11T17:12:44Z</time>
      </trkpt>
      <trkpt lat="36.8301773071289" lon="-5.15842199325562">
        <ele>888</ele>
        <time>2019-05-11T17:12:46Z</time>
      </trkpt>
      <trkpt lat="36.8301811218262" lon="-5.15841484069824">
        <ele>888</ele>
        <time>2019-05-11T17:12:48Z</time>
      </trkpt>
      <trkpt lat="36.830207824707" lon="-5.15838718414307">
        <ele>889</ele>
        <time>2019-05-11T17:12:50Z</time>
      </trkpt>
      <trkpt lat="36.8302268981934" lon="-5.158371925354">
        <ele>889</ele>
        <time>2019-05-11T17:12:52Z</time>
      </trkpt>
      <trkpt lat="36.8302383422852" lon="-5.15835189819336">
        <ele>890</ele>
        <time>2019-05-11T17:12:54Z</time>
      </trkpt>
      <trkpt lat="36.8302612304688" lon="-5.1583399772644">
        <ele>890</ele>
        <time>2019-05-11T17:12:56Z</time>
      </trkpt>
      <trkpt lat="36.8302803039551" lon="-5.15831995010376">
        <ele>890</ele>
        <time>2019-05-11T17:12:58Z</time>
      </trkpt>
      <trkpt lat="36.8303031921387" lon="-5.15829992294312">
        <ele>890</ele>
        <time>2019-05-11T17:13:00Z</time>
      </trkpt>
      <trkpt lat="36.830322265625" lon="-5.15827989578247">
        <ele>890</ele>
        <time>2019-05-11T17:13:03Z</time>
      </trkpt>
      <trkpt lat="36.8303413391113" lon="-5.1582670211792">
        <ele>890</ele>
        <time>2019-05-11T17:13:05Z</time>
      </trkpt>
      <trkpt lat="36.8303642272949" lon="-5.1582498550415">
        <ele>890</ele>
        <time>2019-05-11T17:13:07Z</time>
      </trkpt>
      <trkpt lat="36.8303833007812" lon="-5.15823793411255">
        <ele>890</ele>
        <time>2019-05-11T17:13:09Z</time>
      </trkpt>
      <trkpt lat="36.8304061889648" lon="-5.15822505950928">
        <ele>890</ele>
        <time>2019-05-11T17:13:11Z</time>
      </trkpt>
      <trkpt lat="36.8304214477539" lon="-5.15820980072022">
        <ele>890</ele>
        <time>2019-05-11T17:13:13Z</time>
      </trkpt>
      <trkpt lat="36.8304405212402" lon="-5.15818977355957">
        <ele>890</ele>
        <time>2019-05-11T17:13:15Z</time>
      </trkpt>
      <trkpt lat="36.8304595947266" lon="-5.15817499160767">
        <ele>890</ele>
        <time>2019-05-11T17:13:17Z</time>
      </trkpt>
      <trkpt lat="36.8304786682129" lon="-5.15816211700439">
        <ele>890</ele>
        <time>2019-05-11T17:13:19Z</time>
      </trkpt>
      <trkpt lat="36.830493927002" lon="-5.15814781188965">
        <ele>890</ele>
        <time>2019-05-11T17:13:21Z</time>
      </trkpt>
      <trkpt lat="36.8305130004883" lon="-5.15813684463501">
        <ele>890</ele>
        <time>2019-05-11T17:13:23Z</time>
      </trkpt>
      <trkpt lat="36.8305320739746" lon="-5.15812492370606">
        <ele>890</ele>
        <time>2019-05-11T17:13:25Z</time>
      </trkpt>
      <trkpt lat="36.83056640625" lon="-5.15810203552246">
        <ele>890</ele>
        <time>2019-05-11T17:13:27Z</time>
      </trkpt>
      <trkpt lat="36.8305892944336" lon="-5.15808486938477">
        <ele>890</ele>
        <time>2019-05-11T17:13:29Z</time>
      </trkpt>
      <trkpt lat="36.8306083679199" lon="-5.15806818008423">
        <ele>890</ele>
        <time>2019-05-11T17:13:31Z</time>
      </trkpt>
      <trkpt lat="36.8306312561035" lon="-5.15804719924927">
        <ele>890</ele>
        <time>2019-05-11T17:13:33Z</time>
      </trkpt>
      <trkpt lat="36.8306541442871" lon="-5.15802812576294">
        <ele>889</ele>
        <time>2019-05-11T17:13:35Z</time>
      </trkpt>
      <trkpt lat="36.8306732177734" lon="-5.15801191329956">
        <ele>889</ele>
        <time>2019-05-11T17:13:37Z</time>
      </trkpt>
      <trkpt lat="36.830696105957" lon="-5.15799522399902">
        <ele>888</ele>
        <time>2019-05-11T17:13:40Z</time>
      </trkpt>
      <trkpt lat="36.8307228088379" lon="-5.15797805786133">
        <ele>888</ele>
        <time>2019-05-11T17:13:42Z</time>
      </trkpt>
      <trkpt lat="36.8307418823242" lon="-5.15796184539795">
        <ele>888</ele>
        <time>2019-05-11T17:13:44Z</time>
      </trkpt>
      <trkpt lat="36.8307647705078" lon="-5.15794515609741">
        <ele>888</ele>
        <time>2019-05-11T17:13:46Z</time>
      </trkpt>
      <trkpt lat="36.8307838439941" lon="-5.15792989730835">
        <ele>888</ele>
        <time>2019-05-11T17:13:48Z</time>
      </trkpt>
      <trkpt lat="36.8308067321777" lon="-5.15791320800781">
        <ele>886</ele>
        <time>2019-05-11T17:13:50Z</time>
      </trkpt>
      <trkpt lat="36.8308258056641" lon="-5.15789985656738">
        <ele>886</ele>
        <time>2019-05-11T17:13:52Z</time>
      </trkpt>
      <trkpt lat="36.8308486938477" lon="-5.15788507461548">
        <ele>886</ele>
        <time>2019-05-11T17:13:54Z</time>
      </trkpt>
      <trkpt lat="36.8308753967285" lon="-5.15787315368652">
        <ele>886</ele>
        <time>2019-05-11T17:13:56Z</time>
      </trkpt>
      <trkpt lat="36.8309059143066" lon="-5.15786981582642">
        <ele>886</ele>
        <time>2019-05-11T17:13:58Z</time>
      </trkpt>
      <trkpt lat="36.8309326171875" lon="-5.15784788131714">
        <ele>886</ele>
        <time>2019-05-11T17:14:00Z</time>
      </trkpt>
      <trkpt lat="36.8309593200684" lon="-5.15782690048218">
        <ele>886</ele>
        <time>2019-05-11T17:14:02Z</time>
      </trkpt>
      <trkpt lat="36.8309898376465" lon="-5.15780305862427">
        <ele>886</ele>
        <time>2019-05-11T17:14:04Z</time>
      </trkpt>
      <trkpt lat="36.8310241699219" lon="-5.15776681900024">
        <ele>885</ele>
        <time>2019-05-11T17:14:06Z</time>
      </trkpt>
      <trkpt lat="36.8310432434082" lon="-5.15774202346802">
        <ele>885</ele>
        <time>2019-05-11T17:14:08Z</time>
      </trkpt>
      <trkpt lat="36.8310623168945" lon="-5.15771293640137">
        <ele>885</ele>
        <time>2019-05-11T17:14:10Z</time>
      </trkpt>
      <trkpt lat="36.8310928344727" lon="-5.15767288208008">
        <ele>885</ele>
        <time>2019-05-11T17:14:12Z</time>
      </trkpt>
      <trkpt lat="36.8311195373535" lon="-5.15762281417847">
        <ele>884</ele>
        <time>2019-05-11T17:14:14Z</time>
      </trkpt>
      <trkpt lat="36.8311462402344" lon="-5.15756177902222">
        <ele>883</ele>
        <time>2019-05-11T17:14:16Z</time>
      </trkpt>
      <trkpt lat="36.8311614990234" lon="-5.1574969291687">
        <ele>882</ele>
        <time>2019-05-11T17:14:19Z</time>
      </trkpt>
      <trkpt lat="36.8311767578125" lon="-5.15743780136108">
        <ele>881</ele>
        <time>2019-05-11T17:14:21Z</time>
      </trkpt>
      <trkpt lat="36.8311958312988" lon="-5.15738010406494">
        <ele>881</ele>
        <time>2019-05-11T17:14:23Z</time>
      </trkpt>
      <trkpt lat="36.8312187194824" lon="-5.15731811523438">
        <ele>881</ele>
        <time>2019-05-11T17:14:25Z</time>
      </trkpt>
      <trkpt lat="36.8312377929688" lon="-5.15726518630981">
        <ele>881</ele>
        <time>2019-05-11T17:14:27Z</time>
      </trkpt>
      <trkpt lat="36.8312530517578" lon="-5.1572117805481">
        <ele>881</ele>
        <time>2019-05-11T17:14:29Z</time>
      </trkpt>
      <trkpt lat="36.8312606811523" lon="-5.15715217590332">
        <ele>881</ele>
        <time>2019-05-11T17:14:31Z</time>
      </trkpt>
      <trkpt lat="36.8312721252441" lon="-5.15709781646728">
        <ele>881</ele>
        <time>2019-05-11T17:14:33Z</time>
      </trkpt>
      <trkpt lat="36.8312835693359" lon="-5.15704679489136">
        <ele>881</ele>
        <time>2019-05-11T17:14:35Z</time>
      </trkpt>
      <trkpt lat="36.831298828125" lon="-5.15700197219849">
        <ele>881</ele>
        <time>2019-05-11T17:14:37Z</time>
      </trkpt>
      <trkpt lat="36.8313102722168" lon="-5.15695714950562">
        <ele>881</ele>
        <time>2019-05-11T17:14:39Z</time>
      </trkpt>
      <trkpt lat="36.8313217163086" lon="-5.15691709518433">
        <ele>881</ele>
        <time>2019-05-11T17:14:41Z</time>
      </trkpt>
      <trkpt lat="36.8313255310059" lon="-5.15688514709473">
        <ele>881</ele>
        <time>2019-05-11T17:14:43Z</time>
      </trkpt>
      <trkpt lat="36.8313331604004" lon="-5.15684986114502">
        <ele>881</ele>
        <time>2019-05-11T17:14:45Z</time>
      </trkpt>
      <trkpt lat="36.8313407897949" lon="-5.15681314468384">
        <ele>881</ele>
        <time>2019-05-11T17:14:47Z</time>
      </trkpt>
      <trkpt lat="36.8313522338867" lon="-5.15677785873413">
        <ele>880</ele>
        <time>2019-05-11T17:14:49Z</time>
      </trkpt>
      <trkpt lat="36.8313636779785" lon="-5.15674781799316">
        <ele>880</ele>
        <time>2019-05-11T17:14:51Z</time>
      </trkpt>
      <trkpt lat="36.831371307373" lon="-5.15671491622925">
        <ele>879</ele>
        <time>2019-05-11T17:14:53Z</time>
      </trkpt>
      <trkpt lat="36.8313827514648" lon="-5.15668678283691">
        <ele>879</ele>
        <time>2019-05-11T17:14:56Z</time>
      </trkpt>
      <trkpt lat="36.8313941955566" lon="-5.15665721893311">
        <ele>879</ele>
        <time>2019-05-11T17:14:58Z</time>
      </trkpt>
      <trkpt lat="36.8314056396484" lon="-5.15662288665772">
        <ele>878</ele>
        <time>2019-05-11T17:15:00Z</time>
      </trkpt>
      <trkpt lat="36.8314208984375" lon="-5.15659189224243">
        <ele>878</ele>
        <time>2019-05-11T17:15:02Z</time>
      </trkpt>
      <trkpt lat="36.831428527832" lon="-5.15655279159546">
        <ele>878</ele>
        <time>2019-05-11T17:15:04Z</time>
      </trkpt>
      <trkpt lat="36.8314437866211" lon="-5.15652322769165">
        <ele>878</ele>
        <time>2019-05-11T17:15:06Z</time>
      </trkpt>
      <trkpt lat="36.8314552307129" lon="-5.15648984909058">
        <ele>878</ele>
        <time>2019-05-11T17:15:08Z</time>
      </trkpt>
      <trkpt lat="36.831470489502" lon="-5.1564621925354">
        <ele>878</ele>
        <time>2019-05-11T17:15:10Z</time>
      </trkpt>
      <trkpt lat="36.8314895629883" lon="-5.15643310546875">
        <ele>878</ele>
        <time>2019-05-11T17:15:12Z</time>
      </trkpt>
      <trkpt lat="36.8315048217773" lon="-5.15640211105347">
        <ele>878</ele>
        <time>2019-05-11T17:15:14Z</time>
      </trkpt>
      <trkpt lat="36.8315315246582" lon="-5.15635776519775">
        <ele>878</ele>
        <time>2019-05-11T17:15:16Z</time>
      </trkpt>
      <trkpt lat="36.8315467834473" lon="-5.15632677078247">
        <ele>878</ele>
        <time>2019-05-11T17:15:18Z</time>
      </trkpt>
      <trkpt lat="36.8315658569336" lon="-5.15630006790161">
        <ele>878</ele>
        <time>2019-05-11T17:15:20Z</time>
      </trkpt>
      <trkpt lat="36.8315887451172" lon="-5.15627288818359">
        <ele>878</ele>
        <time>2019-05-11T17:15:22Z</time>
      </trkpt>
      <trkpt lat="36.831600189209" lon="-5.15624523162842">
        <ele>878</ele>
        <time>2019-05-11T17:15:24Z</time>
      </trkpt>
      <trkpt lat="36.8316192626953" lon="-5.15621709823608">
        <ele>878</ele>
        <time>2019-05-11T17:15:26Z</time>
      </trkpt>
      <trkpt lat="36.8316383361816" lon="-5.15618991851807">
        <ele>878</ele>
        <time>2019-05-11T17:15:29Z</time>
      </trkpt>
      <trkpt lat="36.8316612243652" lon="-5.15615797042847">
        <ele>878</ele>
        <time>2019-05-11T17:15:31Z</time>
      </trkpt>
      <trkpt lat="36.8316802978516" lon="-5.1561279296875">
        <ele>878</ele>
        <time>2019-05-11T17:15:33Z</time>
      </trkpt>
      <trkpt lat="36.8317031860352" lon="-5.15610218048096">
        <ele>878</ele>
        <time>2019-05-11T17:15:35Z</time>
      </trkpt>
      <trkpt lat="36.8317260742188" lon="-5.15607500076294">
        <ele>879</ele>
        <time>2019-05-11T17:15:37Z</time>
      </trkpt>
      <trkpt lat="36.8317413330078" lon="-5.15605020523071">
        <ele>879</ele>
        <time>2019-05-11T17:15:39Z</time>
      </trkpt>
      <trkpt lat="36.8317680358887" lon="-5.15602779388428">
        <ele>879</ele>
        <time>2019-05-11T17:15:41Z</time>
      </trkpt>
      <trkpt lat="36.8317985534668" lon="-5.15599489212036">
        <ele>879</ele>
        <time>2019-05-11T17:15:43Z</time>
      </trkpt>
      <trkpt lat="36.8318252563477" lon="-5.15596294403076">
        <ele>879</ele>
        <time>2019-05-11T17:15:45Z</time>
      </trkpt>
      <trkpt lat="36.8318557739258" lon="-5.15592813491821">
        <ele>879</ele>
        <time>2019-05-11T17:15:47Z</time>
      </trkpt>
      <trkpt lat="36.8318939208984" lon="-5.15588808059692">
        <ele>879</ele>
        <time>2019-05-11T17:15:49Z</time>
      </trkpt>
      <trkpt lat="36.8319244384766" lon="-5.1558518409729">
        <ele>879</ele>
        <time>2019-05-11T17:15:51Z</time>
      </trkpt>
      <trkpt lat="36.8319549560547" lon="-5.15580701828003">
        <ele>879</ele>
        <time>2019-05-11T17:15:53Z</time>
      </trkpt>
      <trkpt lat="36.8319778442383" lon="-5.15573978424072">
        <ele>879</ele>
        <time>2019-05-11T17:15:55Z</time>
      </trkpt>
      <trkpt lat="36.8319892883301" lon="-5.15569305419922">
        <ele>879</ele>
        <time>2019-05-11T17:15:57Z</time>
      </trkpt>
      <trkpt lat="36.8319892883301" lon="-5.15564012527466">
        <ele>879</ele>
        <time>2019-05-11T17:15:59Z</time>
      </trkpt>
      <trkpt lat="36.8320007324219" lon="-5.155592918396">
        <ele>879</ele>
        <time>2019-05-11T17:16:01Z</time>
      </trkpt>
      <trkpt lat="36.8320121765137" lon="-5.15555000305176">
        <ele>879</ele>
        <time>2019-05-11T17:16:03Z</time>
      </trkpt>
      <trkpt lat="36.8320198059082" lon="-5.1555118560791">
        <ele>879</ele>
        <time>2019-05-11T17:16:05Z</time>
      </trkpt>
      <trkpt lat="36.83203125" lon="-5.15546989440918">
        <ele>879</ele>
        <time>2019-05-11T17:16:07Z</time>
      </trkpt>
      <trkpt lat="36.8320465087891" lon="-5.15542507171631">
        <ele>879</ele>
        <time>2019-05-11T17:16:10Z</time>
      </trkpt>
      <trkpt lat="36.8320617675781" lon="-5.15537786483765">
        <ele>879</ele>
        <time>2019-05-11T17:16:12Z</time>
      </trkpt>
      <trkpt lat="36.8320732116699" lon="-5.15532684326172">
        <ele>879</ele>
        <time>2019-05-11T17:16:14Z</time>
      </trkpt>
      <trkpt lat="36.8320808410644" lon="-5.15527296066284">
        <ele>879</ele>
        <time>2019-05-11T17:16:16Z</time>
      </trkpt>
      <trkpt lat="36.832088470459" lon="-5.15522480010986">
        <ele>879</ele>
        <time>2019-05-11T17:16:18Z</time>
      </trkpt>
      <trkpt lat="36.8320999145508" lon="-5.15518283843994">
        <ele>879</ele>
        <time>2019-05-11T17:16:20Z</time>
      </trkpt>
      <trkpt lat="36.8321151733398" lon="-5.15514183044434">
        <ele>879</ele>
        <time>2019-05-11T17:16:22Z</time>
      </trkpt>
      <trkpt lat="36.8321342468262" lon="-5.15510320663452">
        <ele>879</ele>
        <time>2019-05-11T17:16:24Z</time>
      </trkpt>
      <trkpt lat="36.8321418762207" lon="-5.15507507324219">
        <ele>878</ele>
        <time>2019-05-11T17:16:26Z</time>
      </trkpt>
      <trkpt lat="36.8321418762207" lon="-5.15506219863892">
        <ele>878</ele>
        <time>2019-05-11T17:16:28Z</time>
      </trkpt>
      <trkpt lat="36.832145690918" lon="-5.15504503250122">
        <ele>878</ele>
        <time>2019-05-11T17:16:30Z</time>
      </trkpt>
      <trkpt lat="36.8321571350098" lon="-5.15501308441162">
        <ele>878</ele>
        <time>2019-05-11T17:16:32Z</time>
      </trkpt>
      <trkpt lat="36.8321533203125" lon="-5.15498781204224">
        <ele>878</ele>
        <time>2019-05-11T17:16:34Z</time>
      </trkpt>
      <trkpt lat="36.8321533203125" lon="-5.15498495101929">
        <ele>878</ele>
        <time>2019-05-11T17:16:36Z</time>
      </trkpt>
      <trkpt lat="36.8321647644043" lon="-5.15494680404663">
        <ele>878</ele>
        <time>2019-05-11T17:16:38Z</time>
      </trkpt>
      <trkpt lat="36.8321762084961" lon="-5.15490007400513">
        <ele>878</ele>
        <time>2019-05-11T17:16:40Z</time>
      </trkpt>
      <trkpt lat="36.832202911377" lon="-5.15484809875488">
        <ele>878</ele>
        <time>2019-05-11T17:16:42Z</time>
      </trkpt>
      <trkpt lat="36.8322296142578" lon="-5.15480184555054">
        <ele>878</ele>
        <time>2019-05-11T17:16:44Z</time>
      </trkpt>
      <trkpt lat="36.8322486877441" lon="-5.15475511550903">
        <ele>878</ele>
        <time>2019-05-11T17:16:47Z</time>
      </trkpt>
      <trkpt lat="36.8322639465332" lon="-5.15469694137573">
        <ele>878</ele>
        <time>2019-05-11T17:16:49Z</time>
      </trkpt>
      <trkpt lat="36.8322715759277" lon="-5.15464019775391">
        <ele>876</ele>
        <time>2019-05-11T17:16:51Z</time>
      </trkpt>
      <trkpt lat="36.8322868347168" lon="-5.15459299087524">
        <ele>876</ele>
        <time>2019-05-11T17:16:53Z</time>
      </trkpt>
      <trkpt lat="36.8323020935059" lon="-5.15454483032227">
        <ele>875</ele>
        <time>2019-05-11T17:16:55Z</time>
      </trkpt>
      <trkpt lat="36.8323173522949" lon="-5.15449476242065">
        <ele>875</ele>
        <time>2019-05-11T17:16:57Z</time>
      </trkpt>
      <trkpt lat="36.832332611084" lon="-5.1544451713562">
        <ele>874</ele>
        <time>2019-05-11T17:16:59Z</time>
      </trkpt>
      <trkpt lat="36.832347869873" lon="-5.15439510345459">
        <ele>874</ele>
        <time>2019-05-11T17:17:01Z</time>
      </trkpt>
      <trkpt lat="36.8323631286621" lon="-5.15434503555298">
        <ele>874</ele>
        <time>2019-05-11T17:17:03Z</time>
      </trkpt>
      <trkpt lat="36.8323783874512" lon="-5.15429210662842">
        <ele>874</ele>
        <time>2019-05-11T17:17:05Z</time>
      </trkpt>
      <trkpt lat="36.8323822021484" lon="-5.1542329788208">
        <ele>873</ele>
        <time>2019-05-11T17:17:07Z</time>
      </trkpt>
      <trkpt lat="36.8323936462402" lon="-5.15417814254761">
        <ele>873</ele>
        <time>2019-05-11T17:17:09Z</time>
      </trkpt>
      <trkpt lat="36.8323936462402" lon="-5.15409708023071">
        <ele>872</ele>
        <time>2019-05-11T17:17:11Z</time>
      </trkpt>
      <trkpt lat="36.8323974609375" lon="-5.15405702590942">
        <ele>871</ele>
        <time>2019-05-11T17:17:13Z</time>
      </trkpt>
      <trkpt lat="36.8324012756348" lon="-5.15400314331055">
        <ele>871</ele>
        <time>2019-05-11T17:17:15Z</time>
      </trkpt>
      <trkpt lat="36.832405090332" lon="-5.15394306182861">
        <ele>870</ele>
        <time>2019-05-11T17:17:17Z</time>
      </trkpt>
      <trkpt lat="36.832405090332" lon="-5.15388011932373">
        <ele>870</ele>
        <time>2019-05-11T17:17:19Z</time>
      </trkpt>
      <trkpt lat="36.8324089050293" lon="-5.15382289886475">
        <ele>870</ele>
        <time>2019-05-11T17:17:21Z</time>
      </trkpt>
      <trkpt lat="36.8324127197266" lon="-5.15376996994019">
        <ele>870</ele>
        <time>2019-05-11T17:17:24Z</time>
      </trkpt>
      <trkpt lat="36.8324203491211" lon="-5.15371322631836">
        <ele>870</ele>
        <time>2019-05-11T17:17:26Z</time>
      </trkpt>
      <trkpt lat="36.8324279785156" lon="-5.15365982055664">
        <ele>870</ele>
        <time>2019-05-11T17:17:28Z</time>
      </trkpt>
      <trkpt lat="36.8324317932129" lon="-5.15360498428345">
        <ele>870</ele>
        <time>2019-05-11T17:17:30Z</time>
      </trkpt>
      <trkpt lat="36.8324356079102" lon="-5.15355491638184">
        <ele>870</ele>
        <time>2019-05-11T17:17:32Z</time>
      </trkpt>
      <trkpt lat="36.8324394226074" lon="-5.15350818634033">
        <ele>870</ele>
        <time>2019-05-11T17:17:34Z</time>
      </trkpt>
      <trkpt lat="36.832447052002" lon="-5.15346717834473">
        <ele>870</ele>
        <time>2019-05-11T17:17:36Z</time>
      </trkpt>
      <trkpt lat="36.8324584960938" lon="-5.15342998504639">
        <ele>870</ele>
        <time>2019-05-11T17:17:38Z</time>
      </trkpt>
      <trkpt lat="36.8324737548828" lon="-5.15338277816772">
        <ele>870</ele>
        <time>2019-05-11T17:17:40Z</time>
      </trkpt>
      <trkpt lat="36.8324775695801" lon="-5.15332698822022">
        <ele>870</ele>
        <time>2019-05-11T17:17:42Z</time>
      </trkpt>
      <trkpt lat="36.8324813842773" lon="-5.15327310562134">
        <ele>870</ele>
        <time>2019-05-11T17:17:44Z</time>
      </trkpt>
      <trkpt lat="36.8324851989746" lon="-5.15322017669678">
        <ele>870</ele>
        <time>2019-05-11T17:17:46Z</time>
      </trkpt>
      <trkpt lat="36.8324813842773" lon="-5.15314722061157">
        <ele>870</ele>
        <time>2019-05-11T17:17:48Z</time>
      </trkpt>
      <trkpt lat="36.8324813842773" lon="-5.15310001373291">
        <ele>870</ele>
        <time>2019-05-11T17:17:50Z</time>
      </trkpt>
      <trkpt lat="36.8324928283691" lon="-5.15305185317993">
        <ele>870</ele>
        <time>2019-05-11T17:17:52Z</time>
      </trkpt>
      <trkpt lat="36.8324966430664" lon="-5.15300178527832">
        <ele>870</ele>
        <time>2019-05-11T17:17:54Z</time>
      </trkpt>
      <trkpt lat="36.8324966430664" lon="-5.15294694900513">
        <ele>870</ele>
        <time>2019-05-11T17:17:56Z</time>
      </trkpt>
      <trkpt lat="36.8324966430664" lon="-5.15289211273193">
        <ele>869</ele>
        <time>2019-05-11T17:17:58Z</time>
      </trkpt>
      <trkpt lat="36.8324966430664" lon="-5.15283298492432">
        <ele>869</ele>
        <time>2019-05-11T17:18:00Z</time>
      </trkpt>
      <trkpt lat="36.8325042724609" lon="-5.15277814865112">
        <ele>869</ele>
        <time>2019-05-11T17:18:03Z</time>
      </trkpt>
      <trkpt lat="36.83251953125" lon="-5.15272521972656">
        <ele>869</ele>
        <time>2019-05-11T17:18:05Z</time>
      </trkpt>
      <trkpt lat="36.8325271606445" lon="-5.15266990661621">
        <ele>868</ele>
        <time>2019-05-11T17:18:07Z</time>
      </trkpt>
      <trkpt lat="36.8325347900391" lon="-5.15261697769165">
        <ele>868</ele>
        <time>2019-05-11T17:18:09Z</time>
      </trkpt>
      <trkpt lat="36.8325386047363" lon="-5.15256023406982">
        <ele>868</ele>
        <time>2019-05-11T17:18:11Z</time>
      </trkpt>
      <trkpt lat="36.8325576782227" lon="-5.15250778198242">
        <ele>868</ele>
        <time>2019-05-11T17:18:13Z</time>
      </trkpt>
      <trkpt lat="36.8325691223144" lon="-5.15246295928955">
        <ele>868</ele>
        <time>2019-05-11T17:18:15Z</time>
      </trkpt>
      <trkpt lat="36.832576751709" lon="-5.15241003036499">
        <ele>868</ele>
        <time>2019-05-11T17:18:17Z</time>
      </trkpt>
      <trkpt lat="36.8325843811035" lon="-5.15236520767212">
        <ele>868</ele>
        <time>2019-05-11T17:18:19Z</time>
      </trkpt>
      <trkpt lat="36.8325881958008" lon="-5.15232181549072">
        <ele>868</ele>
        <time>2019-05-11T17:18:21Z</time>
      </trkpt>
      <trkpt lat="36.8326034545898" lon="-5.1522798538208">
        <ele>868</ele>
        <time>2019-05-11T17:18:23Z</time>
      </trkpt>
      <trkpt lat="36.8326034545898" lon="-5.1522331237793">
        <ele>868</ele>
        <time>2019-05-11T17:18:25Z</time>
      </trkpt>
      <trkpt lat="36.8325958251953" lon="-5.15215492248535">
        <ele>866</ele>
        <time>2019-05-11T17:18:27Z</time>
      </trkpt>
      <trkpt lat="36.8326034545898" lon="-5.15211009979248">
        <ele>866</ele>
        <time>2019-05-11T17:18:29Z</time>
      </trkpt>
      <trkpt lat="36.8326072692871" lon="-5.15205812454224">
        <ele>866</ele>
        <time>2019-05-11T17:18:31Z</time>
      </trkpt>
      <trkpt lat="36.8326148986816" lon="-5.15200281143188">
        <ele>866</ele>
        <time>2019-05-11T17:18:33Z</time>
      </trkpt>
      <trkpt lat="36.8326301574707" lon="-5.15195512771606">
        <ele>865</ele>
        <time>2019-05-11T17:18:35Z</time>
      </trkpt>
      <trkpt lat="36.8326454162598" lon="-5.15190505981445">
        <ele>865</ele>
        <time>2019-05-11T17:18:37Z</time>
      </trkpt>
      <trkpt lat="36.8326530456543" lon="-5.15185499191284">
        <ele>864</ele>
        <time>2019-05-11T17:18:39Z</time>
      </trkpt>
      <trkpt lat="36.8326683044434" lon="-5.1518120765686">
        <ele>863</ele>
        <time>2019-05-11T17:18:42Z</time>
      </trkpt>
      <trkpt lat="36.8326835632324" lon="-5.15177202224731">
        <ele>863</ele>
        <time>2019-05-11T17:18:44Z</time>
      </trkpt>
      <trkpt lat="36.832691192627" lon="-5.15173196792603">
        <ele>861</ele>
        <time>2019-05-11T17:18:46Z</time>
      </trkpt>
      <trkpt lat="36.8326950073242" lon="-5.15170812606812">
        <ele>861</ele>
        <time>2019-05-11T17:18:48Z</time>
      </trkpt>
      <trkpt lat="36.8326950073242" lon="-5.15166282653809">
        <ele>861</ele>
        <time>2019-05-11T17:18:50Z</time>
      </trkpt>
      <trkpt lat="36.8326988220215" lon="-5.15161180496216">
        <ele>861</ele>
        <time>2019-05-11T17:18:52Z</time>
      </trkpt>
      <trkpt lat="36.8326988220215" lon="-5.15156507492065">
        <ele>860</ele>
        <time>2019-05-11T17:18:54Z</time>
      </trkpt>
      <trkpt lat="36.8326988220215" lon="-5.15151309967041">
        <ele>860</ele>
        <time>2019-05-11T17:18:56Z</time>
      </trkpt>
      <trkpt lat="36.832706451416" lon="-5.15146207809448">
        <ele>859</ele>
        <time>2019-05-11T17:18:58Z</time>
      </trkpt>
      <trkpt lat="36.8327140808106" lon="-5.15141487121582">
        <ele>859</ele>
        <time>2019-05-11T17:19:00Z</time>
      </trkpt>
      <trkpt lat="36.8327217102051" lon="-5.15137004852295">
        <ele>859</ele>
        <time>2019-05-11T17:19:02Z</time>
      </trkpt>
      <trkpt lat="36.8327369689941" lon="-5.15131187438965">
        <ele>859</ele>
        <time>2019-05-11T17:19:04Z</time>
      </trkpt>
      <trkpt lat="36.8327598571777" lon="-5.15121507644653">
        <ele>858</ele>
        <time>2019-05-11T17:19:06Z</time>
      </trkpt>
      <trkpt lat="36.8327713012695" lon="-5.15114688873291">
        <ele>858</ele>
        <time>2019-05-11T17:19:08Z</time>
      </trkpt>
      <trkpt lat="36.8327903747559" lon="-5.15108489990234">
        <ele>857</ele>
        <time>2019-05-11T17:19:10Z</time>
      </trkpt>
      <trkpt lat="36.8328056335449" lon="-5.1510181427002">
        <ele>856</ele>
        <time>2019-05-11T17:19:12Z</time>
      </trkpt>
      <trkpt lat="36.8328170776367" lon="-5.15095281600952">
        <ele>856</ele>
        <time>2019-05-11T17:19:14Z</time>
      </trkpt>
      <trkpt lat="36.8328285217285" lon="-5.15089178085327">
        <ele>856</ele>
        <time>2019-05-11T17:19:16Z</time>
      </trkpt>
      <trkpt lat="36.8328399658203" lon="-5.1508321762085">
        <ele>856</ele>
        <time>2019-05-11T17:19:18Z</time>
      </trkpt>
      <trkpt lat="36.8328475952148" lon="-5.1507830619812">
        <ele>856</ele>
        <time>2019-05-11T17:19:21Z</time>
      </trkpt>
      <trkpt lat="36.8328514099121" lon="-5.15073204040527">
        <ele>856</ele>
        <time>2019-05-11T17:19:23Z</time>
      </trkpt>
      <trkpt lat="36.8328590393066" lon="-5.15068006515503">
        <ele>855</ele>
        <time>2019-05-11T17:19:25Z</time>
      </trkpt>
      <trkpt lat="36.8328628540039" lon="-5.15063190460205">
        <ele>855</ele>
        <time>2019-05-11T17:19:27Z</time>
      </trkpt>
      <trkpt lat="36.8328552246094" lon="-5.15057992935181">
        <ele>854</ele>
        <time>2019-05-11T17:19:29Z</time>
      </trkpt>
      <trkpt lat="36.8328628540039" lon="-5.15053176879883">
        <ele>854</ele>
        <time>2019-05-11T17:19:31Z</time>
      </trkpt>
      <trkpt lat="36.8328704833984" lon="-5.15048313140869">
        <ele>854</ele>
        <time>2019-05-11T17:19:33Z</time>
      </trkpt>
      <trkpt lat="36.8328704833984" lon="-5.15043783187866">
        <ele>853</ele>
        <time>2019-05-11T17:19:35Z</time>
      </trkpt>
      <trkpt lat="36.8328628540039" lon="-5.15039014816284">
        <ele>853</ele>
        <time>2019-05-11T17:19:37Z</time>
      </trkpt>
      <trkpt lat="36.8328590393066" lon="-5.15034198760986">
        <ele>852</ele>
        <time>2019-05-11T17:19:39Z</time>
      </trkpt>
      <trkpt lat="36.8328628540039" lon="-5.1502799987793">
        <ele>851</ele>
        <time>2019-05-11T17:19:41Z</time>
      </trkpt>
      <trkpt lat="36.832878112793" lon="-5.1501932144165">
        <ele>851</ele>
        <time>2019-05-11T17:19:43Z</time>
      </trkpt>
      <trkpt lat="36.8328857421875" lon="-5.15013694763184">
        <ele>851</ele>
        <time>2019-05-11T17:19:45Z</time>
      </trkpt>
      <trkpt lat="36.8328971862793" lon="-5.15008497238159">
        <ele>850</ele>
        <time>2019-05-11T17:19:47Z</time>
      </trkpt>
      <trkpt lat="36.8329124450684" lon="-5.15003681182861">
        <ele>850</ele>
        <time>2019-05-11T17:19:49Z</time>
      </trkpt>
      <trkpt lat="36.8329315185547" lon="-5.14999198913574">
        <ele>849</ele>
        <time>2019-05-11T17:19:51Z</time>
      </trkpt>
      <trkpt lat="36.8329582214356" lon="-5.14995193481445">
        <ele>848</ele>
        <time>2019-05-11T17:19:53Z</time>
      </trkpt>
      <trkpt lat="36.8329887390137" lon="-5.14991188049316">
        <ele>847</ele>
        <time>2019-05-11T17:19:56Z</time>
      </trkpt>
      <trkpt lat="36.8330192565918" lon="-5.14987802505493">
        <ele>846</ele>
        <time>2019-05-11T17:19:58Z</time>
      </trkpt>
      <trkpt lat="36.8330497741699" lon="-5.14983510971069">
        <ele>846</ele>
        <time>2019-05-11T17:20:00Z</time>
      </trkpt>
      <trkpt lat="36.8330726623535" lon="-5.1497950553894">
        <ele>844</ele>
        <time>2019-05-11T17:20:02Z</time>
      </trkpt>
      <trkpt lat="36.8330955505371" lon="-5.14976215362549">
        <ele>843</ele>
        <time>2019-05-11T17:20:04Z</time>
      </trkpt>
      <trkpt lat="36.833122253418" lon="-5.14972496032715">
        <ele>842</ele>
        <time>2019-05-11T17:20:06Z</time>
      </trkpt>
      <trkpt lat="36.8331527709961" lon="-5.1496901512146">
        <ele>841</ele>
        <time>2019-05-11T17:20:08Z</time>
      </trkpt>
      <trkpt lat="36.833179473877" lon="-5.14965677261353">
        <ele>840</ele>
        <time>2019-05-11T17:20:10Z</time>
      </trkpt>
      <trkpt lat="36.8332061767578" lon="-5.14962482452393">
        <ele>839</ele>
        <time>2019-05-11T17:20:12Z</time>
      </trkpt>
      <trkpt lat="36.8332366943359" lon="-5.14959001541138">
        <ele>839</ele>
        <time>2019-05-11T17:20:14Z</time>
      </trkpt>
      <trkpt lat="36.8332633972168" lon="-5.14955186843872">
        <ele>838</ele>
        <time>2019-05-11T17:20:16Z</time>
      </trkpt>
      <trkpt lat="36.8333015441894" lon="-5.14949703216553">
        <ele>836</ele>
        <time>2019-05-11T17:20:18Z</time>
      </trkpt>
      <trkpt lat="36.8333282470703" lon="-5.14946222305298">
        <ele>835</ele>
        <time>2019-05-11T17:20:20Z</time>
      </trkpt>
      <trkpt lat="36.8333625793457" lon="-5.14941787719727">
        <ele>834</ele>
        <time>2019-05-11T17:20:22Z</time>
      </trkpt>
      <trkpt lat="36.8333930969238" lon="-5.14937686920166">
        <ele>833</ele>
        <time>2019-05-11T17:20:24Z</time>
      </trkpt>
      <trkpt lat="36.833423614502" lon="-5.14933204650879">
        <ele>833</ele>
        <time>2019-05-11T17:20:26Z</time>
      </trkpt>
      <trkpt lat="36.8334579467773" lon="-5.14928722381592">
        <ele>831</ele>
        <time>2019-05-11T17:20:28Z</time>
      </trkpt>
      <trkpt lat="36.8334884643555" lon="-5.14923810958862">
        <ele>831</ele>
        <time>2019-05-11T17:20:30Z</time>
      </trkpt>
      <trkpt lat="36.8335266113281" lon="-5.14919185638428">
        <ele>830</ele>
        <time>2019-05-11T17:20:33Z</time>
      </trkpt>
      <trkpt lat="36.833568572998" lon="-5.14914512634277">
        <ele>830</ele>
        <time>2019-05-11T17:20:35Z</time>
      </trkpt>
      <trkpt lat="36.8336067199707" lon="-5.1490969657898">
        <ele>829</ele>
        <time>2019-05-11T17:20:37Z</time>
      </trkpt>
      <trkpt lat="36.8336410522461" lon="-5.1490478515625">
        <ele>828</ele>
        <time>2019-05-11T17:20:39Z</time>
      </trkpt>
      <trkpt lat="36.8336715698242" lon="-5.14900493621826">
        <ele>827</ele>
        <time>2019-05-11T17:20:41Z</time>
      </trkpt>
      <trkpt lat="36.8336982727051" lon="-5.14895296096802">
        <ele>826</ele>
        <time>2019-05-11T17:20:43Z</time>
      </trkpt>
      <trkpt lat="36.8337326049805" lon="-5.14890289306641">
        <ele>826</ele>
        <time>2019-05-11T17:20:45Z</time>
      </trkpt>
      <trkpt lat="36.8337707519531" lon="-5.1488528251648">
        <ele>826</ele>
        <time>2019-05-11T17:20:47Z</time>
      </trkpt>
      <trkpt lat="36.8338050842285" lon="-5.14880180358887">
        <ele>826</ele>
        <time>2019-05-11T17:20:49Z</time>
      </trkpt>
      <trkpt lat="36.8338432312012" lon="-5.14874982833862">
        <ele>826</ele>
        <time>2019-05-11T17:20:51Z</time>
      </trkpt>
      <trkpt lat="36.833869934082" lon="-5.14869689941406">
        <ele>826</ele>
        <time>2019-05-11T17:20:53Z</time>
      </trkpt>
      <trkpt lat="36.8339195251465" lon="-5.1486349105835">
        <ele>826</ele>
        <time>2019-05-11T17:20:55Z</time>
      </trkpt>
      <trkpt lat="36.8339462280273" lon="-5.14858484268188">
        <ele>826</ele>
        <time>2019-05-11T17:20:57Z</time>
      </trkpt>
      <trkpt lat="36.8339729309082" lon="-5.14853811264038">
        <ele>826</ele>
        <time>2019-05-11T17:20:59Z</time>
      </trkpt>
      <trkpt lat="36.8339996337891" lon="-5.1484899520874">
        <ele>826</ele>
        <time>2019-05-11T17:21:01Z</time>
      </trkpt>
      <trkpt lat="36.8340377807617" lon="-5.14843988418579">
        <ele>825</ele>
        <time>2019-05-11T17:21:03Z</time>
      </trkpt>
      <trkpt lat="36.8340721130371" lon="-5.14839506149292">
        <ele>825</ele>
        <time>2019-05-11T17:21:05Z</time>
      </trkpt>
      <trkpt lat="36.834098815918" lon="-5.148353099823">
        <ele>824</ele>
        <time>2019-05-11T17:21:07Z</time>
      </trkpt>
      <trkpt lat="36.8341255187988" lon="-5.14831018447876">
        <ele>824</ele>
        <time>2019-05-11T17:21:10Z</time>
      </trkpt>
      <trkpt lat="36.834156036377" lon="-5.14827013015747">
        <ele>824</ele>
        <time>2019-05-11T17:21:12Z</time>
      </trkpt>
      <trkpt lat="36.8341865539551" lon="-5.14822816848755">
        <ele>824</ele>
        <time>2019-05-11T17:21:14Z</time>
      </trkpt>
      <trkpt lat="36.8342132568359" lon="-5.14817714691162">
        <ele>824</ele>
        <time>2019-05-11T17:21:16Z</time>
      </trkpt>
      <trkpt lat="36.834228515625" lon="-5.14811706542969">
        <ele>824</ele>
        <time>2019-05-11T17:21:18Z</time>
      </trkpt>
      <trkpt lat="36.8342514038086" lon="-5.14806222915649">
        <ele>824</ele>
        <time>2019-05-11T17:21:20Z</time>
      </trkpt>
      <trkpt lat="36.8342666625977" lon="-5.1480221748352">
        <ele>824</ele>
        <time>2019-05-11T17:21:22Z</time>
      </trkpt>
      <trkpt lat="36.834285736084" lon="-5.14798498153686">
        <ele>824</ele>
        <time>2019-05-11T17:21:24Z</time>
      </trkpt>
      <trkpt lat="36.834300994873" lon="-5.14794683456421">
        <ele>824</ele>
        <time>2019-05-11T17:21:26Z</time>
      </trkpt>
      <trkpt lat="36.8343162536621" lon="-5.14791202545166">
        <ele>824</ele>
        <time>2019-05-11T17:21:28Z</time>
      </trkpt>
      <trkpt lat="36.8343353271484" lon="-5.14787817001343">
        <ele>824</ele>
        <time>2019-05-11T17:21:30Z</time>
      </trkpt>
      <trkpt lat="36.834358215332" lon="-5.14784479141235">
        <ele>824</ele>
        <time>2019-05-11T17:21:32Z</time>
      </trkpt>
      <trkpt lat="36.8343811035156" lon="-5.14781284332275">
        <ele>824</ele>
        <time>2019-05-11T17:21:34Z</time>
      </trkpt>
      <trkpt lat="36.8344078063965" lon="-5.14776515960693">
        <ele>824</ele>
        <time>2019-05-11T17:21:36Z</time>
      </trkpt>
      <trkpt lat="36.8344268798828" lon="-5.14773178100586">
        <ele>824</ele>
        <time>2019-05-11T17:21:38Z</time>
      </trkpt>
      <trkpt lat="36.8344421386719" lon="-5.14769697189331">
        <ele>824</ele>
        <time>2019-05-11T17:21:40Z</time>
      </trkpt>
      <trkpt lat="36.8344612121582" lon="-5.14766311645508">
        <ele>824</ele>
        <time>2019-05-11T17:21:42Z</time>
      </trkpt>
      <trkpt lat="36.8344802856445" lon="-5.14763307571411">
        <ele>824</ele>
        <time>2019-05-11T17:21:44Z</time>
      </trkpt>
      <trkpt lat="36.8344993591309" lon="-5.14760208129883">
        <ele>824</ele>
        <time>2019-05-11T17:21:46Z</time>
      </trkpt>
      <trkpt lat="36.8345184326172" lon="-5.14757013320923">
        <ele>824</ele>
        <time>2019-05-11T17:21:49Z</time>
      </trkpt>
      <trkpt lat="36.8345375061035" lon="-5.14753818511963">
        <ele>824</ele>
        <time>2019-05-11T17:21:51Z</time>
      </trkpt>
      <trkpt lat="36.8345565795898" lon="-5.14750719070435">
        <ele>824</ele>
        <time>2019-05-11T17:21:53Z</time>
      </trkpt>
      <trkpt lat="36.8345756530762" lon="-5.14747476577759">
        <ele>824</ele>
        <time>2019-05-11T17:21:55Z</time>
      </trkpt>
      <trkpt lat="36.8345909118652" lon="-5.14743995666504">
        <ele>823</ele>
        <time>2019-05-11T17:21:57Z</time>
      </trkpt>
      <trkpt lat="36.8346099853516" lon="-5.14740991592407">
        <ele>823</ele>
        <time>2019-05-11T17:21:59Z</time>
      </trkpt>
      <trkpt lat="36.8346290588379" lon="-5.14737987518311">
        <ele>823</ele>
        <time>2019-05-11T17:22:01Z</time>
      </trkpt>
      <trkpt lat="36.8346519470215" lon="-5.14734983444214">
        <ele>823</ele>
        <time>2019-05-11T17:22:03Z</time>
      </trkpt>
      <trkpt lat="36.8346748352051" lon="-5.14731788635254">
        <ele>823</ele>
        <time>2019-05-11T17:22:05Z</time>
      </trkpt>
      <trkpt lat="36.8346977233887" lon="-5.14728689193726">
        <ele>823</ele>
        <time>2019-05-11T17:22:07Z</time>
      </trkpt>
      <trkpt lat="36.834716796875" lon="-5.14725494384766">
        <ele>823</ele>
        <time>2019-05-11T17:22:09Z</time>
      </trkpt>
      <trkpt lat="36.8347396850586" lon="-5.14722299575806">
        <ele>823</ele>
        <time>2019-05-11T17:22:11Z</time>
      </trkpt>
      <trkpt lat="36.8347702026367" lon="-5.14717721939087">
        <ele>823</ele>
        <time>2019-05-11T17:22:13Z</time>
      </trkpt>
      <trkpt lat="36.834789276123" lon="-5.14714002609253">
        <ele>822</ele>
        <time>2019-05-11T17:22:15Z</time>
      </trkpt>
      <trkpt lat="36.8348007202148" lon="-5.14709997177124">
        <ele>821</ele>
        <time>2019-05-11T17:22:17Z</time>
      </trkpt>
      <trkpt lat="36.8348121643066" lon="-5.1470627784729">
        <ele>821</ele>
        <time>2019-05-11T17:22:19Z</time>
      </trkpt>
      <trkpt lat="36.8348236083984" lon="-5.14702320098877">
        <ele>820</ele>
        <time>2019-05-11T17:22:21Z</time>
      </trkpt>
      <trkpt lat="36.8348426818848" lon="-5.14698696136475">
        <ele>819</ele>
        <time>2019-05-11T17:22:23Z</time>
      </trkpt>
      <trkpt lat="36.8348617553711" lon="-5.14695310592651">
        <ele>818</ele>
        <time>2019-05-11T17:22:26Z</time>
      </trkpt>
      <trkpt lat="36.8348846435547" lon="-5.14692211151123">
        <ele>816</ele>
        <time>2019-05-11T17:22:28Z</time>
      </trkpt>
      <trkpt lat="36.834903717041" lon="-5.14688491821289">
        <ele>816</ele>
        <time>2019-05-11T17:22:30Z</time>
      </trkpt>
      <trkpt lat="36.8349266052246" lon="-5.14685010910034">
        <ele>816</ele>
        <time>2019-05-11T17:22:32Z</time>
      </trkpt>
      <trkpt lat="36.8349418640137" lon="-5.14681482315064">
        <ele>816</ele>
        <time>2019-05-11T17:22:34Z</time>
      </trkpt>
      <trkpt lat="36.8349647521973" lon="-5.14678716659546">
        <ele>816</ele>
        <time>2019-05-11T17:22:36Z</time>
      </trkpt>
      <trkpt lat="36.8349838256836" lon="-5.14675521850586">
        <ele>815</ele>
        <time>2019-05-11T17:22:38Z</time>
      </trkpt>
      <trkpt lat="36.8349990844727" lon="-5.14671993255615">
        <ele>815</ele>
        <time>2019-05-11T17:22:40Z</time>
      </trkpt>
      <trkpt lat="36.835018157959" lon="-5.14668989181519">
        <ele>814</ele>
        <time>2019-05-11T17:22:42Z</time>
      </trkpt>
      <trkpt lat="36.835033416748" lon="-5.14665794372559">
        <ele>814</ele>
        <time>2019-05-11T17:22:44Z</time>
      </trkpt>
      <trkpt lat="36.8350524902344" lon="-5.14662504196167">
        <ele>814</ele>
        <time>2019-05-11T17:22:46Z</time>
      </trkpt>
      <trkpt lat="36.8350715637207" lon="-5.14659690856934">
        <ele>814</ele>
        <time>2019-05-11T17:22:48Z</time>
      </trkpt>
      <trkpt lat="36.835090637207" lon="-5.14656782150269">
        <ele>814</ele>
        <time>2019-05-11T17:22:50Z</time>
      </trkpt>
      <trkpt lat="36.8351173400879" lon="-5.14652299880981">
        <ele>813</ele>
        <time>2019-05-11T17:22:52Z</time>
      </trkpt>
      <trkpt lat="36.8351364135742" lon="-5.1464900970459">
        <ele>813</ele>
        <time>2019-05-11T17:22:54Z</time>
      </trkpt>
      <trkpt lat="36.8351516723633" lon="-5.1464581489563">
        <ele>813</ele>
        <time>2019-05-11T17:22:56Z</time>
      </trkpt>
      <trkpt lat="36.8351745605469" lon="-5.14642715454102">
        <ele>813</ele>
        <time>2019-05-11T17:22:58Z</time>
      </trkpt>
      <trkpt lat="36.8351898193359" lon="-5.14638996124268">
        <ele>813</ele>
        <time>2019-05-11T17:23:00Z</time>
      </trkpt>
      <trkpt lat="36.8352088928223" lon="-5.14635705947876">
        <ele>813</ele>
        <time>2019-05-11T17:23:02Z</time>
      </trkpt>
      <trkpt lat="36.8352203369141" lon="-5.14631986618042">
        <ele>811</ele>
        <time>2019-05-11T17:23:04Z</time>
      </trkpt>
      <trkpt lat="36.8352394104004" lon="-5.14628791809082">
        <ele>811</ele>
        <time>2019-05-11T17:23:07Z</time>
      </trkpt>
      <trkpt lat="36.835262298584" lon="-5.14625787734985">
        <ele>811</ele>
        <time>2019-05-11T17:23:09Z</time>
      </trkpt>
      <trkpt lat="36.8352813720703" lon="-5.14622783660889">
        <ele>811</ele>
        <time>2019-05-11T17:23:11Z</time>
      </trkpt>
      <trkpt lat="36.8352966308594" lon="-5.1461968421936">
        <ele>811</ele>
        <time>2019-05-11T17:23:13Z</time>
      </trkpt>
      <trkpt lat="36.8353157043457" lon="-5.14616203308106">
        <ele>811</ele>
        <time>2019-05-11T17:23:15Z</time>
      </trkpt>
      <trkpt lat="36.835334777832" lon="-5.14613199234009">
        <ele>811</ele>
        <time>2019-05-11T17:23:17Z</time>
      </trkpt>
      <trkpt lat="36.8353538513184" lon="-5.14609813690186">
        <ele>811</ele>
        <time>2019-05-11T17:23:19Z</time>
      </trkpt>
      <trkpt lat="36.835376739502" lon="-5.14606714248657">
        <ele>811</ele>
        <time>2019-05-11T17:23:21Z</time>
      </trkpt>
      <trkpt lat="36.835391998291" lon="-5.14603519439697">
        <ele>811</ele>
        <time>2019-05-11T17:23:23Z</time>
      </trkpt>
      <trkpt lat="36.8354148864746" lon="-5.14600515365601">
        <ele>811</ele>
        <time>2019-05-11T17:23:25Z</time>
      </trkpt>
      <trkpt lat="36.8354301452637" lon="-5.14597320556641">
        <ele>811</ele>
        <time>2019-05-11T17:23:27Z</time>
      </trkpt>
      <trkpt lat="36.83544921875" lon="-5.14594221115112">
        <ele>811</ele>
        <time>2019-05-11T17:23:29Z</time>
      </trkpt>
      <trkpt lat="36.8354759216309" lon="-5.14589691162109">
        <ele>811</ele>
        <time>2019-05-11T17:23:31Z</time>
      </trkpt>
      <trkpt lat="36.8354949951172" lon="-5.14586782455444">
        <ele>811</ele>
        <time>2019-05-11T17:23:33Z</time>
      </trkpt>
      <trkpt lat="36.8355255126953" lon="-5.14583301544189">
        <ele>811</ele>
        <time>2019-05-11T17:23:35Z</time>
      </trkpt>
      <trkpt lat="36.8355522155762" lon="-5.14579296112061">
        <ele>811</ele>
        <time>2019-05-11T17:23:37Z</time>
      </trkpt>
      <trkpt lat="36.835578918457" lon="-5.14575481414795">
        <ele>811</ele>
        <time>2019-05-11T17:23:39Z</time>
      </trkpt>
      <trkpt lat="36.8356094360352" lon="-5.14571809768677">
        <ele>811</ele>
        <time>2019-05-11T17:23:41Z</time>
      </trkpt>
      <trkpt lat="36.835636138916" lon="-5.14567995071411">
        <ele>811</ele>
        <time>2019-05-11T17:23:44Z</time>
      </trkpt>
      <trkpt lat="36.8356666564941" lon="-5.14563322067261">
        <ele>811</ele>
        <time>2019-05-11T17:23:46Z</time>
      </trkpt>
      <trkpt lat="36.8356971740723" lon="-5.14558982849121">
        <ele>811</ele>
        <time>2019-05-11T17:23:48Z</time>
      </trkpt>
      <trkpt lat="36.8357353210449" lon="-5.14554500579834">
        <ele>811</ele>
        <time>2019-05-11T17:23:50Z</time>
      </trkpt>
      <trkpt lat="36.8357620239258" lon="-5.14549493789673">
        <ele>811</ele>
        <time>2019-05-11T17:23:52Z</time>
      </trkpt>
      <trkpt lat="36.8357887268066" lon="-5.14544296264648">
        <ele>811</ele>
        <time>2019-05-11T17:23:54Z</time>
      </trkpt>
      <trkpt lat="36.8358192443848" lon="-5.14539480209351">
        <ele>811</ele>
        <time>2019-05-11T17:23:56Z</time>
      </trkpt>
      <trkpt lat="36.8358535766602" lon="-5.14534521102905">
        <ele>811</ele>
        <time>2019-05-11T17:23:58Z</time>
      </trkpt>
      <trkpt lat="36.8358764648438" lon="-5.14529323577881">
        <ele>811</ele>
        <time>2019-05-11T17:24:00Z</time>
      </trkpt>
      <trkpt lat="36.8359031677246" lon="-5.14524698257446">
        <ele>811</ele>
        <time>2019-05-11T17:24:02Z</time>
      </trkpt>
      <trkpt lat="36.8359298706055" lon="-5.14520502090454">
        <ele>811</ele>
        <time>2019-05-11T17:24:04Z</time>
      </trkpt>
      <trkpt lat="36.8359565734863" lon="-5.14516019821167">
        <ele>811</ele>
        <time>2019-05-11T17:24:06Z</time>
      </trkpt>
      <trkpt lat="36.8359832763672" lon="-5.14511299133301">
        <ele>811</ele>
        <time>2019-05-11T17:24:08Z</time>
      </trkpt>
      <trkpt lat="36.8360290527344" lon="-5.1450400352478">
        <ele>811</ele>
        <time>2019-05-11T17:24:10Z</time>
      </trkpt>
      <trkpt lat="36.8360481262207" lon="-5.14499521255493">
        <ele>811</ele>
        <time>2019-05-11T17:24:12Z</time>
      </trkpt>
      <trkpt lat="36.8360748291016" lon="-5.14495182037354">
        <ele>811</ele>
        <time>2019-05-11T17:24:14Z</time>
      </trkpt>
      <trkpt lat="36.8361015319824" lon="-5.1449031829834">
        <ele>811</ele>
        <time>2019-05-11T17:24:16Z</time>
      </trkpt>
      <trkpt lat="36.8361320495606" lon="-5.14486217498779">
        <ele>811</ele>
        <time>2019-05-11T17:24:18Z</time>
      </trkpt>
      <trkpt lat="36.8361625671387" lon="-5.14481496810913">
        <ele>811</ele>
        <time>2019-05-11T17:24:20Z</time>
      </trkpt>
      <trkpt lat="36.8361930847168" lon="-5.14476203918457">
        <ele>811</ele>
        <time>2019-05-11T17:24:22Z</time>
      </trkpt>
      <trkpt lat="36.8362197875977" lon="-5.14470815658569">
        <ele>811</ele>
        <time>2019-05-11T17:24:24Z</time>
      </trkpt>
      <trkpt lat="36.8362464904785" lon="-5.14465713500977">
        <ele>811</ele>
        <time>2019-05-11T17:24:27Z</time>
      </trkpt>
      <trkpt lat="36.8362770080566" lon="-5.1446099281311">
        <ele>811</ele>
        <time>2019-05-11T17:24:29Z</time>
      </trkpt>
      <trkpt lat="36.8362998962402" lon="-5.14455795288086">
        <ele>811</ele>
        <time>2019-05-11T17:24:31Z</time>
      </trkpt>
      <trkpt lat="36.8363265991211" lon="-5.14450788497925">
        <ele>811</ele>
        <time>2019-05-11T17:24:33Z</time>
      </trkpt>
      <trkpt lat="36.836353302002" lon="-5.14445686340332">
        <ele>811</ele>
        <time>2019-05-11T17:24:35Z</time>
      </trkpt>
      <trkpt lat="36.8363838195801" lon="-5.14441204071045">
        <ele>811</ele>
        <time>2019-05-11T17:24:37Z</time>
      </trkpt>
      <trkpt lat="36.8364105224609" lon="-5.14436483383179">
        <ele>810</ele>
        <time>2019-05-11T17:24:39Z</time>
      </trkpt>
      <trkpt lat="36.8364334106445" lon="-5.14431190490723">
        <ele>809</ele>
        <time>2019-05-11T17:24:41Z</time>
      </trkpt>
      <trkpt lat="36.8364601135254" lon="-5.14426183700562">
        <ele>809</ele>
        <time>2019-05-11T17:24:43Z</time>
      </trkpt>
      <trkpt lat="36.836483001709" lon="-5.14420986175537">
        <ele>809</ele>
        <time>2019-05-11T17:24:45Z</time>
      </trkpt>
      <trkpt lat="36.8365058898926" lon="-5.14415693283081">
        <ele>808</ele>
        <time>2019-05-11T17:24:47Z</time>
      </trkpt>
      <trkpt lat="36.8365364074707" lon="-5.14408493041992">
        <ele>807</ele>
        <time>2019-05-11T17:24:49Z</time>
      </trkpt>
      <trkpt lat="36.8365631103516" lon="-5.14403820037842">
        <ele>806</ele>
        <time>2019-05-11T17:24:51Z</time>
      </trkpt>
      <trkpt lat="36.8365859985352" lon="-5.14398813247681">
        <ele>806</ele>
        <time>2019-05-11T17:24:53Z</time>
      </trkpt>
      <trkpt lat="36.8366012573242" lon="-5.1439380645752">
        <ele>805</ele>
        <time>2019-05-11T17:24:55Z</time>
      </trkpt>
      <trkpt lat="36.8366165161133" lon="-5.14387989044189">
        <ele>805</ele>
        <time>2019-05-11T17:24:57Z</time>
      </trkpt>
      <trkpt lat="36.8366279602051" lon="-5.1438250541687">
        <ele>805</ele>
        <time>2019-05-11T17:25:00Z</time>
      </trkpt>
      <trkpt lat="36.8366432189941" lon="-5.14376783370972">
        <ele>805</ele>
        <time>2019-05-11T17:25:02Z</time>
      </trkpt>
      <trkpt lat="36.8366661071777" lon="-5.14371681213379">
        <ele>805</ele>
        <time>2019-05-11T17:25:04Z</time>
      </trkpt>
      <trkpt lat="36.8366813659668" lon="-5.14366817474365">
        <ele>804</ele>
        <time>2019-05-11T17:25:06Z</time>
      </trkpt>
      <trkpt lat="36.8367004394531" lon="-5.1436128616333">
        <ele>804</ele>
        <time>2019-05-11T17:25:08Z</time>
      </trkpt>
      <trkpt lat="36.8367233276367" lon="-5.14356184005737">
        <ele>803</ele>
        <time>2019-05-11T17:25:10Z</time>
      </trkpt>
      <trkpt lat="36.8367385864258" lon="-5.14351511001587">
        <ele>803</ele>
        <time>2019-05-11T17:25:12Z</time>
      </trkpt>
      <trkpt lat="36.8367576599121" lon="-5.14346504211426">
        <ele>801</ele>
        <time>2019-05-11T17:25:14Z</time>
      </trkpt>
      <trkpt lat="36.8367767333984" lon="-5.14341306686401">
        <ele>801</ele>
        <time>2019-05-11T17:25:16Z</time>
      </trkpt>
      <trkpt lat="36.8367958068848" lon="-5.14337301254272">
        <ele>801</ele>
        <time>2019-05-11T17:25:18Z</time>
      </trkpt>
      <trkpt lat="36.8368186950684" lon="-5.14332723617554">
        <ele>801</ele>
        <time>2019-05-11T17:25:20Z</time>
      </trkpt>
      <trkpt lat="36.8368377685547" lon="-5.14328718185425">
        <ele>800</ele>
        <time>2019-05-11T17:25:22Z</time>
      </trkpt>
      <trkpt lat="36.8368721008301" lon="-5.14322280883789">
        <ele>800</ele>
        <time>2019-05-11T17:25:24Z</time>
      </trkpt>
      <trkpt lat="36.8368988037109" lon="-5.14317798614502">
        <ele>800</ele>
        <time>2019-05-11T17:25:26Z</time>
      </trkpt>
      <trkpt lat="36.8369140625" lon="-5.14312696456909">
        <ele>799</ele>
        <time>2019-05-11T17:25:28Z</time>
      </trkpt>
      <trkpt lat="36.8369407653809" lon="-5.14307498931885">
        <ele>799</ele>
        <time>2019-05-11T17:25:30Z</time>
      </trkpt>
      <trkpt lat="36.8369750976562" lon="-5.14303016662598">
        <ele>799</ele>
        <time>2019-05-11T17:25:32Z</time>
      </trkpt>
      <trkpt lat="36.8370132446289" lon="-5.14299011230469">
        <ele>798</ele>
        <time>2019-05-11T17:25:34Z</time>
      </trkpt>
      <trkpt lat="36.8370361328125" lon="-5.14293718338013">
        <ele>798</ele>
        <time>2019-05-11T17:25:36Z</time>
      </trkpt>
      <trkpt lat="36.8370552062988" lon="-5.1428952217102">
        <ele>796</ele>
        <time>2019-05-11T17:25:39Z</time>
      </trkpt>
      <trkpt lat="36.8370780944824" lon="-5.14284515380859">
        <ele>796</ele>
        <time>2019-05-11T17:25:41Z</time>
      </trkpt>
      <trkpt lat="36.8370933532715" lon="-5.14278984069824">
        <ele>796</ele>
        <time>2019-05-11T17:25:43Z</time>
      </trkpt>
      <trkpt lat="36.8371047973633" lon="-5.14273977279663">
        <ele>795</ele>
        <time>2019-05-11T17:25:45Z</time>
      </trkpt>
      <trkpt lat="36.8371162414551" lon="-5.14268016815186">
        <ele>795</ele>
        <time>2019-05-11T17:25:47Z</time>
      </trkpt>
      <trkpt lat="36.8371353149414" lon="-5.14263200759888">
        <ele>794</ele>
        <time>2019-05-11T17:25:49Z</time>
      </trkpt>
      <trkpt lat="36.837158203125" lon="-5.14257717132568">
        <ele>794</ele>
        <time>2019-05-11T17:25:51Z</time>
      </trkpt>
      <trkpt lat="36.8371849060059" lon="-5.14252281188965">
        <ele>794</ele>
        <time>2019-05-11T17:25:53Z</time>
      </trkpt>
      <trkpt lat="36.8372039794922" lon="-5.14247798919678">
        <ele>793</ele>
        <time>2019-05-11T17:25:55Z</time>
      </trkpt>
      <trkpt lat="36.8372268676758" lon="-5.14242696762085">
        <ele>793</ele>
        <time>2019-05-11T17:25:57Z</time>
      </trkpt>
      <trkpt lat="36.8372383117676" lon="-5.14236783981323">
        <ele>793</ele>
        <time>2019-05-11T17:25:59Z</time>
      </trkpt>
      <trkpt lat="36.8372688293457" lon="-5.1423020362854">
        <ele>793</ele>
        <time>2019-05-11T17:26:01Z</time>
      </trkpt>
      <trkpt lat="36.8372993469238" lon="-5.14225721359253">
        <ele>793</ele>
        <time>2019-05-11T17:26:03Z</time>
      </trkpt>
      <trkpt lat="36.8373184204102" lon="-5.1422119140625">
        <ele>793</ele>
        <time>2019-05-11T17:26:05Z</time>
      </trkpt>
      <trkpt lat="36.8373374938965" lon="-5.14215707778931">
        <ele>793</ele>
        <time>2019-05-11T17:26:07Z</time>
      </trkpt>
      <trkpt lat="36.8373565673828" lon="-5.14210176467896">
        <ele>793</ele>
        <time>2019-05-11T17:26:09Z</time>
      </trkpt>
      <trkpt lat="36.8373870849609" lon="-5.14204788208008">
        <ele>793</ele>
        <time>2019-05-11T17:26:11Z</time>
      </trkpt>
      <trkpt lat="36.8374176025391" lon="-5.14199304580688">
        <ele>793</ele>
        <time>2019-05-11T17:26:13Z</time>
      </trkpt>
      <trkpt lat="36.8374404907227" lon="-5.14194202423096">
        <ele>793</ele>
        <time>2019-05-11T17:26:16Z</time>
      </trkpt>
      <trkpt lat="36.8374633789062" lon="-5.1418948173523">
        <ele>793</ele>
        <time>2019-05-11T17:26:18Z</time>
      </trkpt>
      <trkpt lat="36.8374786376953" lon="-5.14186191558838">
        <ele>793</ele>
        <time>2019-05-11T17:26:20Z</time>
      </trkpt>
      <trkpt lat="36.8374938964844" lon="-5.14182996749878">
        <ele>793</ele>
        <time>2019-05-11T17:26:22Z</time>
      </trkpt>
      <trkpt lat="36.8375053405762" lon="-5.14179801940918">
        <ele>793</ele>
        <time>2019-05-11T17:26:24Z</time>
      </trkpt>
      <trkpt lat="36.837516784668" lon="-5.14176321029663">
        <ele>793</ele>
        <time>2019-05-11T17:26:26Z</time>
      </trkpt>
      <trkpt lat="36.8375282287598" lon="-5.14172697067261">
        <ele>793</ele>
        <time>2019-05-11T17:26:28Z</time>
      </trkpt>
      <trkpt lat="36.8375434875488" lon="-5.14168787002564">
        <ele>793</ele>
        <time>2019-05-11T17:26:30Z</time>
      </trkpt>
      <trkpt lat="36.8375587463379" lon="-5.14165210723877">
        <ele>793</ele>
        <time>2019-05-11T17:26:32Z</time>
      </trkpt>
      <trkpt lat="36.8375701904297" lon="-5.14161491394043">
        <ele>793</ele>
        <time>2019-05-11T17:26:34Z</time>
      </trkpt>
      <trkpt lat="36.8375854492188" lon="-5.14157676696777">
        <ele>793</ele>
        <time>2019-05-11T17:26:36Z</time>
      </trkpt>
      <trkpt lat="36.8376007080078" lon="-5.14154005050659">
        <ele>793</ele>
        <time>2019-05-11T17:26:38Z</time>
      </trkpt>
      <trkpt lat="36.8376159667969" lon="-5.1414999961853">
        <ele>793</ele>
        <time>2019-05-11T17:26:40Z</time>
      </trkpt>
      <trkpt lat="36.8376388549805" lon="-5.14144277572632">
        <ele>793</ele>
        <time>2019-05-11T17:26:42Z</time>
      </trkpt>
      <trkpt lat="36.8376502990723" lon="-5.14140701293945">
        <ele>793</ele>
        <time>2019-05-11T17:26:44Z</time>
      </trkpt>
      <trkpt lat="36.8376617431641" lon="-5.14136791229248">
        <ele>793</ele>
        <time>2019-05-11T17:26:46Z</time>
      </trkpt>
      <trkpt lat="36.8376808166504" lon="-5.14133501052856">
        <ele>793</ele>
        <time>2019-05-11T17:26:48Z</time>
      </trkpt>
      <trkpt lat="36.8376998901367" lon="-5.14130020141602">
        <ele>793</ele>
        <time>2019-05-11T17:26:50Z</time>
      </trkpt>
      <trkpt lat="36.8377151489258" lon="-5.14126491546631">
        <ele>792</ele>
        <time>2019-05-11T17:26:52Z</time>
      </trkpt>
      <trkpt lat="36.8377304077148" lon="-5.14122819900513">
        <ele>791</ele>
        <time>2019-05-11T17:26:55Z</time>
      </trkpt>
      <trkpt lat="36.8377418518066" lon="-5.1411919593811">
        <ele>791</ele>
        <time>2019-05-11T17:26:57Z</time>
      </trkpt>
      <trkpt lat="36.8377571105957" lon="-5.14115476608276">
        <ele>791</ele>
        <time>2019-05-11T17:26:59Z</time>
      </trkpt>
      <trkpt lat="36.8377685546875" lon="-5.14111804962158">
        <ele>791</ele>
        <time>2019-05-11T17:27:01Z</time>
      </trkpt>
      <trkpt lat="36.8377838134766" lon="-5.14108276367188">
        <ele>791</ele>
        <time>2019-05-11T17:27:03Z</time>
      </trkpt>
      <trkpt lat="36.8377914428711" lon="-5.14104509353638">
        <ele>791</ele>
        <time>2019-05-11T17:27:05Z</time>
      </trkpt>
      <trkpt lat="36.8378028869629" lon="-5.14100694656372">
        <ele>791</ele>
        <time>2019-05-11T17:27:07Z</time>
      </trkpt>
      <trkpt lat="36.8378143310547" lon="-5.14096784591675">
        <ele>791</ele>
        <time>2019-05-11T17:27:09Z</time>
      </trkpt>
      <trkpt lat="36.8378257751465" lon="-5.14093208312988">
        <ele>791</ele>
        <time>2019-05-11T17:27:11Z</time>
      </trkpt>
      <trkpt lat="36.837833404541" lon="-5.14089202880859">
        <ele>791</ele>
        <time>2019-05-11T17:27:13Z</time>
      </trkpt>
      <trkpt lat="36.8378448486328" lon="-5.1408519744873">
        <ele>791</ele>
        <time>2019-05-11T17:27:15Z</time>
      </trkpt>
      <trkpt lat="36.8378562927246" lon="-5.14079189300537">
        <ele>791</ele>
        <time>2019-05-11T17:27:17Z</time>
      </trkpt>
      <trkpt lat="36.8378639221191" lon="-5.14077281951904">
        <ele>791</ele>
        <time>2019-05-11T17:27:19Z</time>
      </trkpt>
      <trkpt lat="36.8378753662109" lon="-5.1407151222229">
        <ele>790</ele>
        <time>2019-05-11T17:27:21Z</time>
      </trkpt>
      <trkpt lat="36.8378868103027" lon="-5.14067792892456">
        <ele>790</ele>
        <time>2019-05-11T17:27:23Z</time>
      </trkpt>
      <trkpt lat="36.8378982543945" lon="-5.14063787460327">
        <ele>790</ele>
        <time>2019-05-11T17:27:25Z</time>
      </trkpt>
      <trkpt lat="36.8379058837891" lon="-5.14060211181641">
        <ele>790</ele>
        <time>2019-05-11T17:27:27Z</time>
      </trkpt>
      <trkpt lat="36.8379173278809" lon="-5.14056491851807">
        <ele>790</ele>
        <time>2019-05-11T17:27:29Z</time>
      </trkpt>
      <trkpt lat="36.8379287719727" lon="-5.14052677154541">
        <ele>790</ele>
        <time>2019-05-11T17:27:31Z</time>
      </trkpt>
      <trkpt lat="36.8379364013672" lon="-5.14049005508423">
        <ele>789</ele>
        <time>2019-05-11T17:27:33Z</time>
      </trkpt>
      <trkpt lat="36.837947845459" lon="-5.14045476913452">
        <ele>789</ele>
        <time>2019-05-11T17:27:36Z</time>
      </trkpt>
      <trkpt lat="36.8379516601562" lon="-5.14042711257935">
        <ele>789</ele>
        <time>2019-05-11T17:27:38Z</time>
      </trkpt>
      <trkpt lat="36.837947845459" lon="-5.14038515090942">
        <ele>788</ele>
        <time>2019-05-11T17:27:40Z</time>
      </trkpt>
      <trkpt lat="36.8379592895508" lon="-5.14034509658814">
        <ele>788</ele>
        <time>2019-05-11T17:27:42Z</time>
      </trkpt>
      <trkpt lat="36.8379745483398" lon="-5.14029312133789">
        <ele>787</ele>
        <time>2019-05-11T17:27:44Z</time>
      </trkpt>
      <trkpt lat="36.8379936218262" lon="-5.14023780822754">
        <ele>786</ele>
        <time>2019-05-11T17:27:46Z</time>
      </trkpt>
      <trkpt lat="36.8380088806152" lon="-5.14018297195435">
        <ele>786</ele>
        <time>2019-05-11T17:27:48Z</time>
      </trkpt>
      <trkpt lat="36.8380241394043" lon="-5.14013004302978">
        <ele>786</ele>
        <time>2019-05-11T17:27:50Z</time>
      </trkpt>
      <trkpt lat="36.8380355834961" lon="-5.14007520675659">
        <ele>786</ele>
        <time>2019-05-11T17:27:52Z</time>
      </trkpt>
      <trkpt lat="36.8380432128906" lon="-5.14001989364624">
        <ele>786</ele>
        <time>2019-05-11T17:27:54Z</time>
      </trkpt>
      <trkpt lat="36.8380584716797" lon="-5.1399621963501">
        <ele>786</ele>
        <time>2019-05-11T17:27:56Z</time>
      </trkpt>
      <trkpt lat="36.8380737304688" lon="-5.13990211486816">
        <ele>786</ele>
        <time>2019-05-11T17:27:58Z</time>
      </trkpt>
      <trkpt lat="36.8380851745606" lon="-5.13984823226929">
        <ele>786</ele>
        <time>2019-05-11T17:28:00Z</time>
      </trkpt>
      <trkpt lat="36.8380928039551" lon="-5.13976716995239">
        <ele>786</ele>
        <time>2019-05-11T17:28:02Z</time>
      </trkpt>
      <trkpt lat="36.8381118774414" lon="-5.13970708847046">
        <ele>785</ele>
        <time>2019-05-11T17:28:04Z</time>
      </trkpt>
      <trkpt lat="36.8381271362305" lon="-5.13965320587158">
        <ele>785</ele>
        <time>2019-05-11T17:28:06Z</time>
      </trkpt>
      <trkpt lat="36.8381423950195" lon="-5.13959980010986">
        <ele>785</ele>
        <time>2019-05-11T17:28:08Z</time>
      </trkpt>
      <trkpt lat="36.8381538391113" lon="-5.13954019546509">
        <ele>785</ele>
        <time>2019-05-11T17:28:10Z</time>
      </trkpt>
      <trkpt lat="36.8381614685059" lon="-5.13947820663452">
        <ele>785</ele>
        <time>2019-05-11T17:28:12Z</time>
      </trkpt>
      <trkpt lat="36.8381767272949" lon="-5.13941478729248">
        <ele>784</ele>
        <time>2019-05-11T17:28:14Z</time>
      </trkpt>
      <trkpt lat="36.8381881713867" lon="-5.1393518447876">
        <ele>784</ele>
        <time>2019-05-11T17:28:17Z</time>
      </trkpt>
      <trkpt lat="36.8381958007812" lon="-5.13928699493408">
        <ele>784</ele>
        <time>2019-05-11T17:28:19Z</time>
      </trkpt>
      <trkpt lat="36.8382034301758" lon="-5.13922786712646">
        <ele>784</ele>
        <time>2019-05-11T17:28:21Z</time>
      </trkpt>
      <trkpt lat="36.8382186889648" lon="-5.13916778564453">
        <ele>784</ele>
        <time>2019-05-11T17:28:23Z</time>
      </trkpt>
      <trkpt lat="36.8382263183594" lon="-5.13910818099976">
        <ele>784</ele>
        <time>2019-05-11T17:28:25Z</time>
      </trkpt>
      <trkpt lat="36.8382377624512" lon="-5.1390528678894">
        <ele>784</ele>
        <time>2019-05-11T17:28:27Z</time>
      </trkpt>
      <trkpt lat="36.8382530212402" lon="-5.13898706436157">
        <ele>784</ele>
        <time>2019-05-11T17:28:29Z</time>
      </trkpt>
      <trkpt lat="36.8382682800293" lon="-5.13892698287964">
        <ele>784</ele>
        <time>2019-05-11T17:28:31Z</time>
      </trkpt>
      <trkpt lat="36.8382797241211" lon="-5.13886785507202">
        <ele>784</ele>
        <time>2019-05-11T17:28:33Z</time>
      </trkpt>
      <trkpt lat="36.8382835388184" lon="-5.1388201713562">
        <ele>784</ele>
        <time>2019-05-11T17:28:35Z</time>
      </trkpt>
      <trkpt lat="36.8382873535156" lon="-5.13876676559448">
        <ele>784</ele>
        <time>2019-05-11T17:28:37Z</time>
      </trkpt>
      <trkpt lat="36.8382987976074" lon="-5.13871288299561">
        <ele>784</ele>
        <time>2019-05-11T17:28:39Z</time>
      </trkpt>
      <trkpt lat="36.8383102416992" lon="-5.13865184783936">
        <ele>784</ele>
        <time>2019-05-11T17:28:41Z</time>
      </trkpt>
      <trkpt lat="36.8383255004883" lon="-5.13856220245361">
        <ele>784</ele>
        <time>2019-05-11T17:28:43Z</time>
      </trkpt>
      <trkpt lat="36.8383369445801" lon="-5.13850498199463">
        <ele>783</ele>
        <time>2019-05-11T17:28:45Z</time>
      </trkpt>
      <trkpt lat="36.8383445739746" lon="-5.13845205307007">
        <ele>783</ele>
        <time>2019-05-11T17:28:47Z</time>
      </trkpt>
      <trkpt lat="36.8383483886719" lon="-5.13839817047119">
        <ele>781</ele>
        <time>2019-05-11T17:28:49Z</time>
      </trkpt>
      <trkpt lat="36.8383483886719" lon="-5.13833713531494">
        <ele>781</ele>
        <time>2019-05-11T17:28:51Z</time>
      </trkpt>
      <trkpt lat="36.8383560180664" lon="-5.13827800750732">
        <ele>781</ele>
        <time>2019-05-11T17:28:53Z</time>
      </trkpt>
      <trkpt lat="36.8383483886719" lon="-5.13822221755981">
        <ele>781</ele>
        <time>2019-05-11T17:28:56Z</time>
      </trkpt>
      <trkpt lat="36.8383522033691" lon="-5.13816690444946">
        <ele>781</ele>
        <time>2019-05-11T17:28:58Z</time>
      </trkpt>
      <trkpt lat="36.8383522033691" lon="-5.13812208175659">
        <ele>781</ele>
        <time>2019-05-11T17:29:00Z</time>
      </trkpt>
      <trkpt lat="36.8383560180664" lon="-5.13808679580688">
        <ele>781</ele>
        <time>2019-05-11T17:29:02Z</time>
      </trkpt>
      <trkpt lat="36.8383636474609" lon="-5.13805484771728">
        <ele>781</ele>
        <time>2019-05-11T17:29:04Z</time>
      </trkpt>
      <trkpt lat="36.8383674621582" lon="-5.13802194595337">
        <ele>780</ele>
        <time>2019-05-11T17:29:06Z</time>
      </trkpt>
      <trkpt lat="36.8383712768555" lon="-5.13798522949219">
        <ele>780</ele>
        <time>2019-05-11T17:29:08Z</time>
      </trkpt>
      <trkpt lat="36.83837890625" lon="-5.13794803619385">
        <ele>780</ele>
        <time>2019-05-11T17:29:10Z</time>
      </trkpt>
      <trkpt lat="36.8383865356445" lon="-5.13791513442993">
        <ele>780</ele>
        <time>2019-05-11T17:29:12Z</time>
      </trkpt>
      <trkpt lat="36.8383941650391" lon="-5.1378870010376">
        <ele>780</ele>
        <time>2019-05-11T17:29:14Z</time>
      </trkpt>
      <trkpt lat="36.8384017944336" lon="-5.13787794113159">
        <ele>780</ele>
        <time>2019-05-11T17:29:16Z</time>
      </trkpt>
      <trkpt lat="36.8383979797363" lon="-5.13787317276001">
        <ele>780</ele>
        <time>2019-05-11T17:29:18Z</time>
      </trkpt>
      <trkpt lat="36.8383941650391" lon="-5.1378698348999">
        <ele>780</ele>
        <time>2019-05-11T17:29:20Z</time>
      </trkpt>
      <trkpt lat="36.8383941650391" lon="-5.13786697387695">
        <ele>780</ele>
        <time>2019-05-11T17:29:22Z</time>
      </trkpt>
      <trkpt lat="36.8383941650391" lon="-5.13786315917969">
        <ele>780</ele>
        <time>2019-05-11T17:29:24Z</time>
      </trkpt>
      <trkpt lat="36.8383903503418" lon="-5.13786220550537">
        <ele>780</ele>
        <time>2019-05-11T17:29:26Z</time>
      </trkpt>
      <trkpt lat="36.8383903503418" lon="-5.13785791397095">
        <ele>780</ele>
        <time>2019-05-11T17:29:28Z</time>
      </trkpt>
      <trkpt lat="36.8383903503418" lon="-5.13785696029663">
        <ele>780</ele>
        <time>2019-05-11T17:29:30Z</time>
      </trkpt>
      <trkpt lat="36.8383941650391" lon="-5.137855052948">
        <ele>780</ele>
        <time>2019-05-11T17:29:32Z</time>
      </trkpt>
      <trkpt lat="36.8383903503418" lon="-5.137855052948">
        <ele>780</ele>
        <time>2019-05-11T17:29:34Z</time>
      </trkpt>
      <trkpt lat="36.8383903503418" lon="-5.13785314559936">
        <ele>780</ele>
        <time>2019-05-11T17:29:36Z</time>
      </trkpt>
      <trkpt lat="36.8383941650391" lon="-5.13784790039062">
        <ele>780</ele>
        <time>2019-05-11T17:29:38Z</time>
      </trkpt>
      <trkpt lat="36.8384017944336" lon="-5.13782691955566">
        <ele>780</ele>
        <time>2019-05-11T17:29:41Z</time>
      </trkpt>
      <trkpt lat="36.8384094238281" lon="-5.13779211044312">
        <ele>780</ele>
        <time>2019-05-11T17:29:43Z</time>
      </trkpt>
      <trkpt lat="36.8384017944336" lon="-5.13775300979614">
        <ele>780</ele>
        <time>2019-05-11T17:29:45Z</time>
      </trkpt>
      <trkpt lat="36.8384132385254" lon="-5.13772201538086">
        <ele>780</ele>
        <time>2019-05-11T17:29:47Z</time>
      </trkpt>
      <trkpt lat="36.838436126709" lon="-5.13770198822022">
        <ele>779</ele>
        <time>2019-05-11T17:29:49Z</time>
      </trkpt>
      <trkpt lat="36.8384628295898" lon="-5.13766002655029">
        <ele>778</ele>
        <time>2019-05-11T17:29:51Z</time>
      </trkpt>
      <trkpt lat="36.8384857177734" lon="-5.13762283325195">
        <ele>776</ele>
        <time>2019-05-11T17:29:53Z</time>
      </trkpt>
      <trkpt lat="36.8385124206543" lon="-5.13760185241699">
        <ele>774</ele>
        <time>2019-05-11T17:29:55Z</time>
      </trkpt>
      <trkpt lat="36.8385276794434" lon="-5.1375880241394">
        <ele>772</ele>
        <time>2019-05-11T17:29:57Z</time>
      </trkpt>
      <trkpt lat="36.8385581970215" lon="-5.13757181167603">
        <ele>770</ele>
        <time>2019-05-11T17:29:59Z</time>
      </trkpt>
      <trkpt lat="36.8385925292969" lon="-5.1375617980957">
        <ele>768</ele>
        <time>2019-05-11T17:30:01Z</time>
      </trkpt>
      <trkpt lat="36.8386383056641" lon="-5.13754510879517">
        <ele>766</ele>
        <time>2019-05-11T17:30:03Z</time>
      </trkpt>
      <trkpt lat="36.8386764526367" lon="-5.13753509521484">
        <ele>766</ele>
        <time>2019-05-11T17:30:05Z</time>
      </trkpt>
      <trkpt lat="36.8387069702148" lon="-5.13752222061157">
        <ele>766</ele>
        <time>2019-05-11T17:30:07Z</time>
      </trkpt>
      <trkpt lat="36.8387413024902" lon="-5.13750982284546">
        <ele>766</ele>
        <time>2019-05-11T17:30:09Z</time>
      </trkpt>
      <trkpt lat="36.8387718200684" lon="-5.13749313354492">
        <ele>766</ele>
        <time>2019-05-11T17:30:11Z</time>
      </trkpt>
      <trkpt lat="36.8388061523438" lon="-5.13747692108154">
        <ele>766</ele>
        <time>2019-05-11T17:30:14Z</time>
      </trkpt>
      <trkpt lat="36.8388404846191" lon="-5.13746309280396">
        <ele>766</ele>
        <time>2019-05-11T17:30:16Z</time>
      </trkpt>
      <trkpt lat="36.8388748168945" lon="-5.13745021820068">
        <ele>766</ele>
        <time>2019-05-11T17:30:18Z</time>
      </trkpt>
      <trkpt lat="36.8389053344727" lon="-5.13743495941162">
        <ele>766</ele>
        <time>2019-05-11T17:30:20Z</time>
      </trkpt>
      <trkpt lat="36.8389358520508" lon="-5.13742303848267">
        <ele>766</ele>
        <time>2019-05-11T17:30:22Z</time>
      </trkpt>
      <trkpt lat="36.8389625549316" lon="-5.13741016387939">
        <ele>766</ele>
        <time>2019-05-11T17:30:24Z</time>
      </trkpt>
      <trkpt lat="36.838996887207" lon="-5.13739490509033">
        <ele>766</ele>
        <time>2019-05-11T17:30:26Z</time>
      </trkpt>
      <trkpt lat="36.8390274047852" lon="-5.13738203048706">
        <ele>766</ele>
        <time>2019-05-11T17:30:28Z</time>
      </trkpt>
      <trkpt lat="36.8390617370606" lon="-5.137366771698">
        <ele>766</ele>
        <time>2019-05-11T17:30:30Z</time>
      </trkpt>
      <trkpt lat="36.8390922546387" lon="-5.13735008239746">
        <ele>766</ele>
        <time>2019-05-11T17:30:32Z</time>
      </trkpt>
      <trkpt lat="36.8391227722168" lon="-5.1373348236084">
        <ele>766</ele>
        <time>2019-05-11T17:30:34Z</time>
      </trkpt>
      <trkpt lat="36.8391532897949" lon="-5.13731813430786">
        <ele>766</ele>
        <time>2019-05-11T17:30:36Z</time>
      </trkpt>
      <trkpt lat="36.839183807373" lon="-5.13730478286743">
        <ele>766</ele>
        <time>2019-05-11T17:30:38Z</time>
      </trkpt>
      <trkpt lat="36.8392333984375" lon="-5.13728284835815">
        <ele>766</ele>
        <time>2019-05-11T17:30:40Z</time>
      </trkpt>
      <trkpt lat="36.8392601013184" lon="-5.13726806640625">
        <ele>767</ele>
        <time>2019-05-11T17:30:42Z</time>
      </trkpt>
      <trkpt lat="36.8392944335938" lon="-5.13725280761719">
        <ele>767</ele>
        <time>2019-05-11T17:30:44Z</time>
      </trkpt>
      <trkpt lat="36.8393211364746" lon="-5.13723516464233">
        <ele>767</ele>
        <time>2019-05-11T17:30:46Z</time>
      </trkpt>
      <trkpt lat="36.8393516540527" lon="-5.13721704483032">
        <ele>767</ele>
        <time>2019-05-11T17:30:48Z</time>
      </trkpt>
      <trkpt lat="36.8393821716309" lon="-5.13719797134399">
        <ele>768</ele>
        <time>2019-05-11T17:30:50Z</time>
      </trkpt>
      <trkpt lat="36.8394165039062" lon="-5.13718223571777">
        <ele>768</ele>
        <time>2019-05-11T17:30:52Z</time>
      </trkpt>
      <trkpt lat="36.8394470214844" lon="-5.13716506958008">
        <ele>768</ele>
        <time>2019-05-11T17:30:55Z</time>
      </trkpt>
      <trkpt lat="36.8394775390625" lon="-5.13714790344238">
        <ele>768</ele>
        <time>2019-05-11T17:30:57Z</time>
      </trkpt>
      <trkpt lat="36.8395080566406" lon="-5.13713312149048">
        <ele>769</ele>
        <time>2019-05-11T17:30:59Z</time>
      </trkpt>
      <trkpt lat="36.8395385742188" lon="-5.13711977005005">
        <ele>769</ele>
        <time>2019-05-11T17:31:01Z</time>
      </trkpt>
      <trkpt lat="36.8395729064941" lon="-5.13710689544678">
        <ele>769</ele>
        <time>2019-05-11T17:31:03Z</time>
      </trkpt>
      <trkpt lat="36.8396034240723" lon="-5.13709020614624">
        <ele>769</ele>
        <time>2019-05-11T17:31:05Z</time>
      </trkpt>
      <trkpt lat="36.8396339416504" lon="-5.13707304000854">
        <ele>769</ele>
        <time>2019-05-11T17:31:07Z</time>
      </trkpt>
      <trkpt lat="36.8396644592285" lon="-5.13705682754517">
        <ele>769</ele>
        <time>2019-05-11T17:31:09Z</time>
      </trkpt>
      <trkpt lat="36.8396949768066" lon="-5.13704204559326">
        <ele>769</ele>
        <time>2019-05-11T17:31:11Z</time>
      </trkpt>
      <trkpt lat="36.8397254943848" lon="-5.13702297210693">
        <ele>769</ele>
        <time>2019-05-11T17:31:13Z</time>
      </trkpt>
      <trkpt lat="36.8397560119629" lon="-5.13700485229492">
        <ele>769</ele>
        <time>2019-05-11T17:31:15Z</time>
      </trkpt>
      <trkpt lat="36.839786529541" lon="-5.13698291778564">
        <ele>769</ele>
        <time>2019-05-11T17:31:17Z</time>
      </trkpt>
      <trkpt lat="36.8398132324219" lon="-5.136962890625">
        <ele>769</ele>
        <time>2019-05-11T17:31:19Z</time>
      </trkpt>
      <trkpt lat="36.8398399353027" lon="-5.13694477081299">
        <ele>769</ele>
        <time>2019-05-11T17:31:21Z</time>
      </trkpt>
      <trkpt lat="36.8398818969727" lon="-5.13691520690918">
        <ele>769</ele>
        <time>2019-05-11T17:31:23Z</time>
      </trkpt>
      <trkpt lat="36.8399124145508" lon="-5.13689804077148">
        <ele>769</ele>
        <time>2019-05-11T17:31:25Z</time>
      </trkpt>
      <trkpt lat="36.8399429321289" lon="-5.13688182830811">
        <ele>769</ele>
        <time>2019-05-11T17:31:27Z</time>
      </trkpt>
      <trkpt lat="36.8399696350098" lon="-5.13686513900757">
        <ele>769</ele>
        <time>2019-05-11T17:31:29Z</time>
      </trkpt>
      <trkpt lat="36.8400001525879" lon="-5.13684511184692">
        <ele>769</ele>
        <time>2019-05-11T17:31:31Z</time>
      </trkpt>
      <trkpt lat="36.8400268554688" lon="-5.13682508468628">
        <ele>769</ele>
        <time>2019-05-11T17:31:34Z</time>
      </trkpt>
      <trkpt lat="36.8400535583496" lon="-5.136803150177">
        <ele>769</ele>
        <time>2019-05-11T17:31:36Z</time>
      </trkpt>
      <trkpt lat="36.8400802612305" lon="-5.13677978515625">
        <ele>769</ele>
        <time>2019-05-11T17:31:38Z</time>
      </trkpt>
      <trkpt lat="36.8401069641113" lon="-5.1367621421814">
        <ele>769</ele>
        <time>2019-05-11T17:31:40Z</time>
      </trkpt>
      <trkpt lat="36.8401374816894" lon="-5.13674211502075">
        <ele>769</ele>
        <time>2019-05-11T17:31:42Z</time>
      </trkpt>
      <trkpt lat="36.8401641845703" lon="-5.13672208786011">
        <ele>769</ele>
        <time>2019-05-11T17:31:44Z</time>
      </trkpt>
      <trkpt lat="36.8401947021484" lon="-5.13670301437378">
        <ele>769</ele>
        <time>2019-05-11T17:31:46Z</time>
      </trkpt>
      <trkpt lat="36.8402214050293" lon="-5.1366868019104">
        <ele>769</ele>
        <time>2019-05-11T17:31:48Z</time>
      </trkpt>
      <trkpt lat="36.8402481079102" lon="-5.13666820526123">
        <ele>769</ele>
        <time>2019-05-11T17:31:50Z</time>
      </trkpt>
      <trkpt lat="36.8402786254883" lon="-5.13665199279785">
        <ele>769</ele>
        <time>2019-05-11T17:31:52Z</time>
      </trkpt>
      <trkpt lat="36.8403053283691" lon="-5.13663196563721">
        <ele>769</ele>
        <time>2019-05-11T17:31:54Z</time>
      </trkpt>
      <trkpt lat="36.8403358459473" lon="-5.13661289215088">
        <ele>769</ele>
        <time>2019-05-11T17:31:56Z</time>
      </trkpt>
      <trkpt lat="36.8403778076172" lon="-5.13658714294434">
        <ele>769</ele>
        <time>2019-05-11T17:31:58Z</time>
      </trkpt>
      <trkpt lat="36.8404083251953" lon="-5.13656806945801">
        <ele>769</ele>
        <time>2019-05-11T17:32:00Z</time>
      </trkpt>
      <trkpt lat="36.8404350280762" lon="-5.136549949646">
        <ele>769</ele>
        <time>2019-05-11T17:32:02Z</time>
      </trkpt>
      <trkpt lat="36.840461730957" lon="-5.13652992248535">
        <ele>769</ele>
        <time>2019-05-11T17:32:04Z</time>
      </trkpt>
      <trkpt lat="36.8404884338379" lon="-5.13651704788208">
        <ele>769</ele>
        <time>2019-05-11T17:32:06Z</time>
      </trkpt>
      <trkpt lat="36.840518951416" lon="-5.13649988174438">
        <ele>769</ele>
        <time>2019-05-11T17:32:08Z</time>
      </trkpt>
      <trkpt lat="36.8405494689941" lon="-5.13648319244385">
        <ele>769</ele>
        <time>2019-05-11T17:32:10Z</time>
      </trkpt>
      <trkpt lat="36.840576171875" lon="-5.13646507263184">
        <ele>769</ele>
        <time>2019-05-11T17:32:13Z</time>
      </trkpt>
      <trkpt lat="36.8406066894531" lon="-5.13644790649414">
        <ele>769</ele>
        <time>2019-05-11T17:32:15Z</time>
      </trkpt>
      <trkpt lat="36.8406372070312" lon="-5.13643217086792">
        <ele>769</ele>
        <time>2019-05-11T17:32:17Z</time>
      </trkpt>
      <trkpt lat="36.8406677246094" lon="-5.13641309738159">
        <ele>769</ele>
        <time>2019-05-11T17:32:19Z</time>
      </trkpt>
      <trkpt lat="36.8406944274902" lon="-5.13639497756958">
        <ele>769</ele>
        <time>2019-05-11T17:32:21Z</time>
      </trkpt>
      <trkpt lat="36.8407211303711" lon="-5.13637781143188">
        <ele>769</ele>
        <time>2019-05-11T17:32:23Z</time>
      </trkpt>
      <trkpt lat="36.8407554626465" lon="-5.13636302947998">
        <ele>769</ele>
        <time>2019-05-11T17:32:25Z</time>
      </trkpt>
      <trkpt lat="36.8407859802246" lon="-5.13634300231934">
        <ele>769</ele>
        <time>2019-05-11T17:32:27Z</time>
      </trkpt>
      <trkpt lat="36.8408164978027" lon="-5.13632678985596">
        <ele>769</ele>
        <time>2019-05-11T17:32:29Z</time>
      </trkpt>
      <trkpt lat="36.8408508300781" lon="-5.13630676269531">
        <ele>769</ele>
        <time>2019-05-11T17:32:31Z</time>
      </trkpt>
      <trkpt lat="36.8408813476562" lon="-5.13629198074341">
        <ele>769</ele>
        <time>2019-05-11T17:32:33Z</time>
      </trkpt>
      <trkpt lat="36.8409080505371" lon="-5.13627290725708">
        <ele>768</ele>
        <time>2019-05-11T17:32:35Z</time>
      </trkpt>
      <trkpt lat="36.8409538269043" lon="-5.13625001907349">
        <ele>766</ele>
        <time>2019-05-11T17:32:37Z</time>
      </trkpt>
      <trkpt lat="36.8409805297852" lon="-5.13623285293579">
        <ele>766</ele>
        <time>2019-05-11T17:32:39Z</time>
      </trkpt>
      <trkpt lat="36.841007232666" lon="-5.13621282577515">
        <ele>766</ele>
        <time>2019-05-11T17:32:41Z</time>
      </trkpt>
      <trkpt lat="36.8410377502441" lon="-5.13619709014893">
        <ele>766</ele>
        <time>2019-05-11T17:32:43Z</time>
      </trkpt>
      <trkpt lat="36.8410682678223" lon="-5.1361780166626">
        <ele>765</ele>
        <time>2019-05-11T17:32:45Z</time>
      </trkpt>
      <trkpt lat="36.8410949707031" lon="-5.13616323471069">
        <ele>765</ele>
        <time>2019-05-11T17:32:47Z</time>
      </trkpt>
      <trkpt lat="36.841121673584" lon="-5.13614320755005">
        <ele>765</ele>
        <time>2019-05-11T17:32:50Z</time>
      </trkpt>
      <trkpt lat="36.8411483764648" lon="-5.1361231803894">
        <ele>765</ele>
        <time>2019-05-11T17:32:52Z</time>
      </trkpt>
      <trkpt lat="36.841178894043" lon="-5.13610696792603">
        <ele>765</ele>
        <time>2019-05-11T17:32:54Z</time>
      </trkpt>
      <trkpt lat="36.8412055969238" lon="-5.13608980178833">
        <ele>765</ele>
        <time>2019-05-11T17:32:56Z</time>
      </trkpt>
      <trkpt lat="36.8412322998047" lon="-5.13607215881348">
        <ele>765</ele>
        <time>2019-05-11T17:32:58Z</time>
      </trkpt>
      <trkpt lat="36.8412628173828" lon="-5.13605308532715">
        <ele>765</ele>
        <time>2019-05-11T17:33:00Z</time>
      </trkpt>
      <trkpt lat="36.8412933349609" lon="-5.1360330581665">
        <ele>765</ele>
        <time>2019-05-11T17:33:02Z</time>
      </trkpt>
      <trkpt lat="36.8413276672363" lon="-5.13601303100586">
        <ele>765</ele>
        <time>2019-05-11T17:33:04Z</time>
      </trkpt>
      <trkpt lat="36.8413581848144" lon="-5.13599491119385">
        <ele>765</ele>
        <time>2019-05-11T17:33:06Z</time>
      </trkpt>
      <trkpt lat="36.8413887023926" lon="-5.13597679138184">
        <ele>764</ele>
        <time>2019-05-11T17:33:08Z</time>
      </trkpt>
      <trkpt lat="36.8414115905762" lon="-5.13595819473267">
        <ele>764</ele>
        <time>2019-05-11T17:33:10Z</time>
      </trkpt>
      <trkpt lat="36.841438293457" lon="-5.13594007492065">
        <ele>764</ele>
        <time>2019-05-11T17:33:12Z</time>
      </trkpt>
      <trkpt lat="36.8414688110352" lon="-5.13592195510864">
        <ele>763</ele>
        <time>2019-05-11T17:33:14Z</time>
      </trkpt>
      <trkpt lat="36.8415184020996" lon="-5.13589286804199">
        <ele>763</ele>
        <time>2019-05-11T17:33:16Z</time>
      </trkpt>
      <trkpt lat="36.8415489196777" lon="-5.13587522506714">
        <ele>762</ele>
        <time>2019-05-11T17:33:18Z</time>
      </trkpt>
      <trkpt lat="36.8415756225586" lon="-5.13585519790649">
        <ele>761</ele>
        <time>2019-05-11T17:33:20Z</time>
      </trkpt>
      <trkpt lat="36.8416061401367" lon="-5.13583707809448">
        <ele>761</ele>
        <time>2019-05-11T17:33:22Z</time>
      </trkpt>
      <trkpt lat="36.8416328430176" lon="-5.13581800460815">
        <ele>761</ele>
        <time>2019-05-11T17:33:24Z</time>
      </trkpt>
      <trkpt lat="36.8416633605957" lon="-5.13580179214478">
        <ele>761</ele>
        <time>2019-05-11T17:33:27Z</time>
      </trkpt>
      <trkpt lat="36.8416862487793" lon="-5.13578319549561">
        <ele>761</ele>
        <time>2019-05-11T17:33:29Z</time>
      </trkpt>
      <trkpt lat="36.8417167663574" lon="-5.13576698303223">
        <ele>761</ele>
        <time>2019-05-11T17:33:31Z</time>
      </trkpt>
      <trkpt lat="36.8417434692383" lon="-5.13574981689453">
        <ele>761</ele>
        <time>2019-05-11T17:33:33Z</time>
      </trkpt>
      <trkpt lat="36.8417739868164" lon="-5.13573217391968">
        <ele>761</ele>
        <time>2019-05-11T17:33:35Z</time>
      </trkpt>
      <trkpt lat="36.8418006896973" lon="-5.13571500778198">
        <ele>761</ele>
        <time>2019-05-11T17:33:37Z</time>
      </trkpt>
      <trkpt lat="36.8418312072754" lon="-5.13570022583008">
        <ele>761</ele>
        <time>2019-05-11T17:33:39Z</time>
      </trkpt>
      <trkpt lat="36.8418617248535" lon="-5.13568496704102">
        <ele>761</ele>
        <time>2019-05-11T17:33:41Z</time>
      </trkpt>
      <trkpt lat="36.8418846130371" lon="-5.13567018508911">
        <ele>761</ele>
        <time>2019-05-11T17:33:43Z</time>
      </trkpt>
      <trkpt lat="36.841911315918" lon="-5.13565492630005">
        <ele>761</ele>
        <time>2019-05-11T17:33:45Z</time>
      </trkpt>
      <trkpt lat="36.8419227600098" lon="-5.1356520652771">
        <ele>761</ele>
        <time>2019-05-11T17:33:47Z</time>
      </trkpt>
      <trkpt lat="36.8419342041016" lon="-5.13564205169678">
        <ele>761</ele>
        <time>2019-05-11T17:33:49Z</time>
      </trkpt>
      <trkpt lat="36.8419570922852" lon="-5.13562822341919">
        <ele>761</ele>
        <time>2019-05-11T17:33:51Z</time>
      </trkpt>
      <trkpt lat="36.841983795166" lon="-5.13561010360718">
        <ele>761</ele>
        <time>2019-05-11T17:33:53Z</time>
      </trkpt>
      <trkpt lat="36.8420066833496" lon="-5.13559198379517">
        <ele>761</ele>
        <time>2019-05-11T17:33:55Z</time>
      </trkpt>
      <trkpt lat="36.8420333862305" lon="-5.13557481765747">
        <ele>761</ele>
        <time>2019-05-11T17:33:57Z</time>
      </trkpt>
      <trkpt lat="36.8420639038086" lon="-5.13556003570557">
        <ele>761</ele>
        <time>2019-05-11T17:33:59Z</time>
      </trkpt>
      <trkpt lat="36.8420906066894" lon="-5.13554191589356">
        <ele>761</ele>
        <time>2019-05-11T17:34:02Z</time>
      </trkpt>
      <trkpt lat="36.8421173095703" lon="-5.13552713394165">
        <ele>761</ele>
        <time>2019-05-11T17:34:04Z</time>
      </trkpt>
      <trkpt lat="36.8421440124512" lon="-5.1355152130127">
        <ele>761</ele>
        <time>2019-05-11T17:34:06Z</time>
      </trkpt>
      <trkpt lat="36.842170715332" lon="-5.13550186157227">
        <ele>761</ele>
        <time>2019-05-11T17:34:08Z</time>
      </trkpt>
      <trkpt lat="36.8421936035156" lon="-5.13548278808594">
        <ele>761</ele>
        <time>2019-05-11T17:34:10Z</time>
      </trkpt>
      <trkpt lat="36.8422164916992" lon="-5.13546705245972">
        <ele>761</ele>
        <time>2019-05-11T17:34:12Z</time>
      </trkpt>
      <trkpt lat="36.8422431945801" lon="-5.13544988632202">
        <ele>761</ele>
        <time>2019-05-11T17:34:14Z</time>
      </trkpt>
      <trkpt lat="36.8422737121582" lon="-5.13543701171875">
        <ele>761</ele>
        <time>2019-05-11T17:34:16Z</time>
      </trkpt>
      <trkpt lat="36.8423004150391" lon="-5.13542318344116">
        <ele>761</ele>
        <time>2019-05-11T17:34:18Z</time>
      </trkpt>
      <trkpt lat="36.8423271179199" lon="-5.13540983200073">
        <ele>761</ele>
        <time>2019-05-11T17:34:20Z</time>
      </trkpt>
      <trkpt lat="36.842357635498" lon="-5.13539791107178">
        <ele>761</ele>
        <time>2019-05-11T17:34:22Z</time>
      </trkpt>
      <trkpt lat="36.842399597168" lon="-5.13537693023682">
        <ele>761</ele>
        <time>2019-05-11T17:34:24Z</time>
      </trkpt>
      <trkpt lat="36.8424263000488" lon="-5.13536500930786">
        <ele>761</ele>
        <time>2019-05-11T17:34:26Z</time>
      </trkpt>
      <trkpt lat="36.842456817627" lon="-5.13535308837891">
        <ele>761</ele>
        <time>2019-05-11T17:34:28Z</time>
      </trkpt>
      <trkpt lat="36.8424873352051" lon="-5.13534212112427">
        <ele>761</ele>
        <time>2019-05-11T17:34:30Z</time>
      </trkpt>
      <trkpt lat="36.8425178527832" lon="-5.13532781600952">
        <ele>761</ele>
        <time>2019-05-11T17:34:32Z</time>
      </trkpt>
      <trkpt lat="36.8425445556641" lon="-5.13531494140625">
        <ele>761</ele>
        <time>2019-05-11T17:34:34Z</time>
      </trkpt>
      <trkpt lat="36.8425750732422" lon="-5.13530492782593">
        <ele>761</ele>
        <time>2019-05-11T17:34:36Z</time>
      </trkpt>
      <trkpt lat="36.8426055908203" lon="-5.13529682159424">
        <ele>761</ele>
        <time>2019-05-11T17:34:39Z</time>
      </trkpt>
      <trkpt lat="36.8426361083984" lon="-5.13528299331665">
        <ele>761</ele>
        <time>2019-05-11T17:34:41Z</time>
      </trkpt>
      <trkpt lat="36.8426628112793" lon="-5.13527297973633">
        <ele>761</ele>
        <time>2019-05-11T17:34:43Z</time>
      </trkpt>
      <trkpt lat="36.8426933288574" lon="-5.13525819778442">
        <ele>761</ele>
        <time>2019-05-11T17:34:45Z</time>
      </trkpt>
      <trkpt lat="36.8427238464356" lon="-5.13524198532104">
        <ele>761</ele>
        <time>2019-05-11T17:34:47Z</time>
      </trkpt>
      <trkpt lat="36.8427505493164" lon="-5.13523197174072">
        <ele>761</ele>
        <time>2019-05-11T17:34:49Z</time>
      </trkpt>
      <trkpt lat="36.8427772521973" lon="-5.1352219581604">
        <ele>761</ele>
        <time>2019-05-11T17:34:51Z</time>
      </trkpt>
      <trkpt lat="36.8428077697754" lon="-5.13521003723144">
        <ele>761</ele>
        <time>2019-05-11T17:34:53Z</time>
      </trkpt>
      <trkpt lat="36.8428344726562" lon="-5.13519716262817">
        <ele>762</ele>
        <time>2019-05-11T17:34:55Z</time>
      </trkpt>
      <trkpt lat="36.8428611755371" lon="-5.13518285751343">
        <ele>762</ele>
        <time>2019-05-11T17:34:57Z</time>
      </trkpt>
      <trkpt lat="36.8428916931152" lon="-5.13516807556152">
        <ele>762</ele>
        <time>2019-05-11T17:34:59Z</time>
      </trkpt>
      <trkpt lat="36.8429336547852" lon="-5.13514518737793">
        <ele>762</ele>
        <time>2019-05-11T17:35:01Z</time>
      </trkpt>
      <trkpt lat="36.8429565429688" lon="-5.13512802124023">
        <ele>762</ele>
        <time>2019-05-11T17:35:03Z</time>
      </trkpt>
      <trkpt lat="36.8429832458496" lon="-5.13511180877686">
        <ele>762</ele>
        <time>2019-05-11T17:35:05Z</time>
      </trkpt>
      <trkpt lat="36.8430023193359" lon="-5.13509321212769">
        <ele>762</ele>
        <time>2019-05-11T17:35:07Z</time>
      </trkpt>
      <trkpt lat="36.8430213928223" lon="-5.13507223129272">
        <ele>762</ele>
        <time>2019-05-11T17:35:09Z</time>
      </trkpt>
      <trkpt lat="36.8430442810059" lon="-5.13505506515503">
        <ele>762</ele>
        <time>2019-05-11T17:35:11Z</time>
      </trkpt>
      <trkpt lat="36.8430633544922" lon="-5.13503503799438">
        <ele>762</ele>
        <time>2019-05-11T17:35:14Z</time>
      </trkpt>
      <trkpt lat="36.8430938720703" lon="-5.13501977920532">
        <ele>762</ele>
        <time>2019-05-11T17:35:16Z</time>
      </trkpt>
      <trkpt lat="36.8431205749512" lon="-5.13500499725342">
        <ele>762</ele>
        <time>2019-05-11T17:35:18Z</time>
      </trkpt>
      <trkpt lat="36.8431510925293" lon="-5.13499307632446">
        <ele>762</ele>
        <time>2019-05-11T17:35:20Z</time>
      </trkpt>
      <trkpt lat="36.8431739807129" lon="-5.13498783111572">
        <ele>762</ele>
        <time>2019-05-11T17:35:22Z</time>
      </trkpt>
      <trkpt lat="36.843189239502" lon="-5.13498210906982">
        <ele>762</ele>
        <time>2019-05-11T17:35:24Z</time>
      </trkpt>
      <trkpt lat="36.8432083129883" lon="-5.13496685028076">
        <ele>762</ele>
        <time>2019-05-11T17:35:26Z</time>
      </trkpt>
      <trkpt lat="36.8432388305664" lon="-5.13495302200317">
        <ele>762</ele>
        <time>2019-05-11T17:35:28Z</time>
      </trkpt>
      <trkpt lat="36.8432579040527" lon="-5.13494205474854">
        <ele>762</ele>
        <time>2019-05-11T17:35:30Z</time>
      </trkpt>
      <trkpt lat="36.8432769775391" lon="-5.13492679595947">
        <ele>762</ele>
        <time>2019-05-11T17:35:32Z</time>
      </trkpt>
      <trkpt lat="36.8433036804199" lon="-5.13491201400757">
        <ele>762</ele>
        <time>2019-05-11T17:35:34Z</time>
      </trkpt>
      <trkpt lat="36.8433380126953" lon="-5.13489007949829">
        <ele>762</ele>
        <time>2019-05-11T17:35:36Z</time>
      </trkpt>
      <trkpt lat="36.8433685302734" lon="-5.13487720489502">
        <ele>762</ele>
        <time>2019-05-11T17:35:38Z</time>
      </trkpt>
      <trkpt lat="36.843391418457" lon="-5.13486289978027">
        <ele>762</ele>
        <time>2019-05-11T17:35:40Z</time>
      </trkpt>
      <trkpt lat="36.8434219360352" lon="-5.134850025177">
        <ele>762</ele>
        <time>2019-05-11T17:35:42Z</time>
      </trkpt>
      <trkpt lat="36.843448638916" lon="-5.13483285903931">
        <ele>762</ele>
        <time>2019-05-11T17:35:44Z</time>
      </trkpt>
      <trkpt lat="36.8434715270996" lon="-5.13482189178467">
        <ele>762</ele>
        <time>2019-05-11T17:35:46Z</time>
      </trkpt>
      <trkpt lat="36.8435020446777" lon="-5.13480710983276">
        <ele>762</ele>
        <time>2019-05-11T17:35:49Z</time>
      </trkpt>
      <trkpt lat="36.8435363769531" lon="-5.1347918510437">
        <ele>762</ele>
        <time>2019-05-11T17:35:51Z</time>
      </trkpt>
      <trkpt lat="36.8435668945312" lon="-5.13477277755737">
        <ele>762</ele>
        <time>2019-05-11T17:35:53Z</time>
      </trkpt>
      <trkpt lat="36.8435897827148" lon="-5.13475704193115">
        <ele>761</ele>
        <time>2019-05-11T17:35:55Z</time>
      </trkpt>
      <trkpt lat="36.8436126708984" lon="-5.13474178314209">
        <ele>761</ele>
        <time>2019-05-11T17:35:57Z</time>
      </trkpt>
      <trkpt lat="36.8436393737793" lon="-5.1347279548645">
        <ele>761</ele>
        <time>2019-05-11T17:35:59Z</time>
      </trkpt>
      <trkpt lat="36.8436737060547" lon="-5.13471698760986">
        <ele>761</ele>
        <time>2019-05-11T17:36:01Z</time>
      </trkpt>
      <trkpt lat="36.8436965942383" lon="-5.13470506668091">
        <ele>761</ele>
        <time>2019-05-11T17:36:03Z</time>
      </trkpt>
      <trkpt lat="36.8437271118164" lon="-5.13469791412354">
        <ele>761</ele>
        <time>2019-05-11T17:36:05Z</time>
      </trkpt>
      <trkpt lat="36.8437614440918" lon="-5.1346869468689">
        <ele>761</ele>
        <time>2019-05-11T17:36:07Z</time>
      </trkpt>
      <trkpt lat="36.8437919616699" lon="-5.13467502593994">
        <ele>761</ele>
        <time>2019-05-11T17:36:09Z</time>
      </trkpt>
      <trkpt lat="36.8438415527344" lon="-5.13464498519897">
        <ele>761</ele>
        <time>2019-05-11T17:36:11Z</time>
      </trkpt>
      <trkpt lat="36.8438682556152" lon="-5.13462495803833">
        <ele>761</ele>
        <time>2019-05-11T17:36:13Z</time>
      </trkpt>
      <trkpt lat="36.8438911437988" lon="-5.13461017608643">
        <ele>761</ele>
        <time>2019-05-11T17:36:15Z</time>
      </trkpt>
      <trkpt lat="36.8439140319824" lon="-5.13459777832031">
        <ele>760</ele>
        <time>2019-05-11T17:36:17Z</time>
      </trkpt>
      <trkpt lat="36.8439445495606" lon="-5.13457822799683">
        <ele>760</ele>
        <time>2019-05-11T17:36:19Z</time>
      </trkpt>
      <trkpt lat="36.8439712524414" lon="-5.13456678390503">
        <ele>760</ele>
        <time>2019-05-11T17:36:21Z</time>
      </trkpt>
      <trkpt lat="36.8440017700195" lon="-5.13455486297607">
        <ele>759</ele>
        <time>2019-05-11T17:36:23Z</time>
      </trkpt>
      <trkpt lat="36.8440284729004" lon="-5.1345419883728">
        <ele>759</ele>
        <time>2019-05-11T17:36:26Z</time>
      </trkpt>
      <trkpt lat="36.8440589904785" lon="-5.13453197479248">
        <ele>758</ele>
        <time>2019-05-11T17:36:28Z</time>
      </trkpt>
      <trkpt lat="36.8440895080566" lon="-5.13452482223511">
        <ele>758</ele>
        <time>2019-05-11T17:36:30Z</time>
      </trkpt>
      <trkpt lat="36.8441162109375" lon="-5.1345100402832">
        <ele>758</ele>
        <time>2019-05-11T17:36:32Z</time>
      </trkpt>
      <trkpt lat="36.8441429138184" lon="-5.13450288772583">
        <ele>758</ele>
        <time>2019-05-11T17:36:34Z</time>
      </trkpt>
      <trkpt lat="36.8441734313965" lon="-5.13449478149414">
        <ele>758</ele>
        <time>2019-05-11T17:36:36Z</time>
      </trkpt>
      <trkpt lat="36.8441963195801" lon="-5.13448810577393">
        <ele>756</ele>
        <time>2019-05-11T17:36:38Z</time>
      </trkpt>
      <trkpt lat="36.8442230224609" lon="-5.13448476791382">
        <ele>756</ele>
        <time>2019-05-11T17:36:40Z</time>
      </trkpt>
      <trkpt lat="36.8442459106445" lon="-5.13447713851929">
        <ele>756</ele>
        <time>2019-05-11T17:36:42Z</time>
      </trkpt>
      <trkpt lat="36.8442764282227" lon="-5.13446807861328">
        <ele>756</ele>
        <time>2019-05-11T17:36:44Z</time>
      </trkpt>
      <trkpt lat="36.8443069458008" lon="-5.13445520401001">
        <ele>755</ele>
        <time>2019-05-11T17:36:46Z</time>
      </trkpt>
      <trkpt lat="36.8443374633789" lon="-5.13444709777832">
        <ele>754</ele>
        <time>2019-05-11T17:36:48Z</time>
      </trkpt>
      <trkpt lat="36.8443603515625" lon="-5.13443803787231">
        <ele>754</ele>
        <time>2019-05-11T17:36:50Z</time>
      </trkpt>
      <trkpt lat="36.8444061279297" lon="-5.13441705703735">
        <ele>754</ele>
        <time>2019-05-11T17:36:52Z</time>
      </trkpt>
      <trkpt lat="36.8444366455078" lon="-5.13440179824829">
        <ele>754</ele>
        <time>2019-05-11T17:36:54Z</time>
      </trkpt>
      <trkpt lat="36.8444747924805" lon="-5.13438987731934">
        <ele>754</ele>
        <time>2019-05-11T17:36:56Z</time>
      </trkpt>
      <trkpt lat="36.8445014953613" lon="-5.13437700271606">
        <ele>754</ele>
        <time>2019-05-11T17:36:58Z</time>
      </trkpt>
      <trkpt lat="36.8445281982422" lon="-5.13436222076416">
        <ele>754</ele>
        <time>2019-05-11T17:37:00Z</time>
      </trkpt>
      <trkpt lat="36.8445587158203" lon="-5.13434791564941">
        <ele>754</ele>
        <time>2019-05-11T17:37:02Z</time>
      </trkpt>
      <trkpt lat="36.8445930480957" lon="-5.13433980941772">
        <ele>754</ele>
        <time>2019-05-11T17:37:04Z</time>
      </trkpt>
      <trkpt lat="36.8446235656738" lon="-5.13433313369751">
        <ele>754</ele>
        <time>2019-05-11T17:37:07Z</time>
      </trkpt>
      <trkpt lat="36.844654083252" lon="-5.13432216644287">
        <ele>753</ele>
        <time>2019-05-11T17:37:09Z</time>
      </trkpt>
      <trkpt lat="36.8446769714356" lon="-5.13431310653686">
        <ele>753</ele>
        <time>2019-05-11T17:37:11Z</time>
      </trkpt>
      <trkpt lat="36.8447074890137" lon="-5.13430213928223">
        <ele>751</ele>
        <time>2019-05-11T17:37:13Z</time>
      </trkpt>
      <trkpt lat="36.8447380065918" lon="-5.13428688049316">
        <ele>751</ele>
        <time>2019-05-11T17:37:15Z</time>
      </trkpt>
      <trkpt lat="36.8447647094727" lon="-5.13428211212158">
        <ele>751</ele>
        <time>2019-05-11T17:37:17Z</time>
      </trkpt>
      <trkpt lat="36.844799041748" lon="-5.13427305221558">
        <ele>751</ele>
        <time>2019-05-11T17:37:19Z</time>
      </trkpt>
      <trkpt lat="36.8448333740234" lon="-5.13426208496094">
        <ele>750</ele>
        <time>2019-05-11T17:37:21Z</time>
      </trkpt>
      <trkpt lat="36.8448677062988" lon="-5.13425493240356">
        <ele>750</ele>
        <time>2019-05-11T17:37:23Z</time>
      </trkpt>
      <trkpt lat="36.8449020385742" lon="-5.13423776626587">
        <ele>750</ele>
        <time>2019-05-11T17:37:25Z</time>
      </trkpt>
      <trkpt lat="36.8449325561523" lon="-5.13421821594238">
        <ele>749</ele>
        <time>2019-05-11T17:37:27Z</time>
      </trkpt>
      <trkpt lat="36.8449821472168" lon="-5.13421297073364">
        <ele>749</ele>
        <time>2019-05-11T17:37:29Z</time>
      </trkpt>
      <trkpt lat="36.8450164794922" lon="-5.13419818878174">
        <ele>749</ele>
        <time>2019-05-11T17:37:31Z</time>
      </trkpt>
      <trkpt lat="36.8450393676758" lon="-5.13419008255005">
        <ele>749</ele>
        <time>2019-05-11T17:37:33Z</time>
      </trkpt>
      <trkpt lat="36.8450660705566" lon="-5.13418006896973">
        <ele>749</ele>
        <time>2019-05-11T17:37:35Z</time>
      </trkpt>
      <trkpt lat="36.8450927734375" lon="-5.13417482376099">
        <ele>749</ele>
        <time>2019-05-11T17:37:37Z</time>
      </trkpt>
      <trkpt lat="36.8451194763184" lon="-5.13416481018066">
        <ele>749</ele>
        <time>2019-05-11T17:37:39Z</time>
      </trkpt>
      <trkpt lat="36.8451614379883" lon="-5.13416004180908">
        <ele>749</ele>
        <time>2019-05-11T17:37:41Z</time>
      </trkpt>
      <trkpt lat="36.8451881408691" lon="-5.13414478302002">
        <ele>749</ele>
        <time>2019-05-11T17:37:44Z</time>
      </trkpt>
      <trkpt lat="36.8452186584473" lon="-5.13413000106812">
        <ele>749</ele>
        <time>2019-05-11T17:37:46Z</time>
      </trkpt>
      <trkpt lat="36.8452453613281" lon="-5.13411712646484">
        <ele>749</ele>
        <time>2019-05-11T17:37:48Z</time>
      </trkpt>
      <trkpt lat="36.8452682495117" lon="-5.1341028213501">
        <ele>749</ele>
        <time>2019-05-11T17:37:50Z</time>
      </trkpt>
      <trkpt lat="36.8453025817871" lon="-5.13409185409546">
        <ele>749</ele>
        <time>2019-05-11T17:37:52Z</time>
      </trkpt>
      <trkpt lat="36.8453330993652" lon="-5.13407802581787">
        <ele>749</ele>
        <time>2019-05-11T17:37:54Z</time>
      </trkpt>
      <trkpt lat="36.8453598022461" lon="-5.13406705856323">
        <ele>749</ele>
        <time>2019-05-11T17:37:56Z</time>
      </trkpt>
      <trkpt lat="36.8453903198242" lon="-5.13405990600586">
        <ele>749</ele>
        <time>2019-05-11T17:37:58Z</time>
      </trkpt>
      <trkpt lat="36.8454170227051" lon="-5.13405323028564">
        <ele>749</ele>
        <time>2019-05-11T17:38:00Z</time>
      </trkpt>
      <trkpt lat="36.8454437255859" lon="-5.13404178619385">
        <ele>749</ele>
        <time>2019-05-11T17:38:02Z</time>
      </trkpt>
      <trkpt lat="36.8454627990723" lon="-5.13403511047363">
        <ele>749</ele>
        <time>2019-05-11T17:38:04Z</time>
      </trkpt>
      <trkpt lat="36.8454895019531" lon="-5.13402509689331">
        <ele>749</ele>
        <time>2019-05-11T17:38:06Z</time>
      </trkpt>
      <trkpt lat="36.845516204834" lon="-5.13401699066162">
        <ele>749</ele>
        <time>2019-05-11T17:38:08Z</time>
      </trkpt>
      <trkpt lat="36.8455467224121" lon="-5.13400793075562">
        <ele>749</ele>
        <time>2019-05-11T17:38:10Z</time>
      </trkpt>
      <trkpt lat="36.8455924987793" lon="-5.13399505615234">
        <ele>749</ele>
        <time>2019-05-11T17:38:12Z</time>
      </trkpt>
      <trkpt lat="36.845630645752" lon="-5.13398694992065">
        <ele>749</ele>
        <time>2019-05-11T17:38:14Z</time>
      </trkpt>
      <trkpt lat="36.8456573486328" lon="-5.1339750289917">
        <ele>749</ele>
        <time>2019-05-11T17:38:16Z</time>
      </trkpt>
      <trkpt lat="36.8456916809082" lon="-5.13396310806274">
        <ele>749</ele>
        <time>2019-05-11T17:38:18Z</time>
      </trkpt>
      <trkpt lat="36.8457221984863" lon="-5.13395500183106">
        <ele>749</ele>
        <time>2019-05-11T17:38:20Z</time>
      </trkpt>
      <trkpt lat="36.8457489013672" lon="-5.1339430809021">
        <ele>749</ele>
        <time>2019-05-11T17:38:23Z</time>
      </trkpt>
      <trkpt lat="36.845775604248" lon="-5.13393306732178">
        <ele>749</ele>
        <time>2019-05-11T17:38:25Z</time>
      </trkpt>
      <trkpt lat="36.8458137512207" lon="-5.13392496109009">
        <ele>749</ele>
        <time>2019-05-11T17:38:27Z</time>
      </trkpt>
      <trkpt lat="36.8458480834961" lon="-5.13391304016113">
        <ele>749</ele>
        <time>2019-05-11T17:38:29Z</time>
      </trkpt>
      <trkpt lat="36.8458786010742" lon="-5.13390207290649">
        <ele>749</ele>
        <time>2019-05-11T17:38:31Z</time>
      </trkpt>
      <trkpt lat="36.8459053039551" lon="-5.13388681411743">
        <ele>749</ele>
        <time>2019-05-11T17:38:33Z</time>
      </trkpt>
      <trkpt lat="36.8459358215332" lon="-5.13387823104858">
        <ele>749</ele>
        <time>2019-05-11T17:38:35Z</time>
      </trkpt>
      <trkpt lat="36.8459701538086" lon="-5.13386678695679">
        <ele>749</ele>
        <time>2019-05-11T17:38:37Z</time>
      </trkpt>
      <trkpt lat="36.8460006713867" lon="-5.13385677337646">
        <ele>749</ele>
        <time>2019-05-11T17:38:39Z</time>
      </trkpt>
      <trkpt lat="36.8460311889648" lon="-5.13384199142456">
        <ele>749</ele>
        <time>2019-05-11T17:38:41Z</time>
      </trkpt>
      <trkpt lat="36.846061706543" lon="-5.13383483886719">
        <ele>749</ele>
        <time>2019-05-11T17:38:43Z</time>
      </trkpt>
      <trkpt lat="36.8461112976074" lon="-5.13381481170654">
        <ele>749</ele>
        <time>2019-05-11T17:38:45Z</time>
      </trkpt>
      <trkpt lat="36.8461380004883" lon="-5.13380289077759">
        <ele>749</ele>
        <time>2019-05-11T17:38:47Z</time>
      </trkpt>
      <trkpt lat="36.8461685180664" lon="-5.13379287719727">
        <ele>749</ele>
        <time>2019-05-11T17:38:49Z</time>
      </trkpt>
      <trkpt lat="36.8461990356445" lon="-5.13378715515137">
        <ele>749</ele>
        <time>2019-05-11T17:38:51Z</time>
      </trkpt>
      <trkpt lat="36.8462295532227" lon="-5.13378000259399">
        <ele>749</ele>
        <time>2019-05-11T17:38:53Z</time>
      </trkpt>
      <trkpt lat="36.8462562561035" lon="-5.1337718963623">
        <ele>749</ele>
        <time>2019-05-11T17:38:55Z</time>
      </trkpt>
      <trkpt lat="36.8462867736816" lon="-5.13376188278198">
        <ele>749</ele>
        <time>2019-05-11T17:38:58Z</time>
      </trkpt>
      <trkpt lat="36.8463172912598" lon="-5.13375282287598">
        <ele>749</ele>
        <time>2019-05-11T17:39:00Z</time>
      </trkpt>
      <trkpt lat="36.8463439941406" lon="-5.13374185562134">
        <ele>749</ele>
        <time>2019-05-11T17:39:02Z</time>
      </trkpt>
      <trkpt lat="36.8463668823242" lon="-5.13373184204102">
        <ele>749</ele>
        <time>2019-05-11T17:39:04Z</time>
      </trkpt>
      <trkpt lat="36.8463897705078" lon="-5.13372278213501">
        <ele>749</ele>
        <time>2019-05-11T17:39:06Z</time>
      </trkpt>
      <trkpt lat="36.8464202880859" lon="-5.13371181488037">
        <ele>750</ele>
        <time>2019-05-11T17:39:08Z</time>
      </trkpt>
      <trkpt lat="36.8464508056641" lon="-5.13370323181152">
        <ele>751</ele>
        <time>2019-05-11T17:39:10Z</time>
      </trkpt>
      <trkpt lat="36.8464851379394" lon="-5.13369703292847">
        <ele>751</ele>
        <time>2019-05-11T17:39:12Z</time>
      </trkpt>
      <trkpt lat="36.8465156555176" lon="-5.13369178771973">
        <ele>751</ele>
        <time>2019-05-11T17:39:14Z</time>
      </trkpt>
      <trkpt lat="36.8465538024902" lon="-5.13368701934814">
        <ele>751</ele>
        <time>2019-05-11T17:39:16Z</time>
      </trkpt>
      <trkpt lat="36.8465805053711" lon="-5.13367700576782">
        <ele>751</ele>
        <time>2019-05-11T17:39:18Z</time>
      </trkpt>
      <trkpt lat="36.8466262817383" lon="-5.13366222381592">
        <ele>751</ele>
        <time>2019-05-11T17:39:20Z</time>
      </trkpt>
      <trkpt lat="36.8466453552246" lon="-5.13365697860718">
        <ele>751</ele>
        <time>2019-05-11T17:39:22Z</time>
      </trkpt>
      <trkpt lat="36.8466911315918" lon="-5.13363790512085">
        <ele>751</ele>
        <time>2019-05-11T17:39:24Z</time>
      </trkpt>
      <trkpt lat="36.8467216491699" lon="-5.13362503051758">
        <ele>751</ele>
        <time>2019-05-11T17:39:26Z</time>
      </trkpt>
      <trkpt lat="36.8467483520508" lon="-5.13361501693726">
        <ele>751</ele>
        <time>2019-05-11T17:39:28Z</time>
      </trkpt>
      <trkpt lat="36.8467788696289" lon="-5.13360691070557">
        <ele>751</ele>
        <time>2019-05-11T17:39:30Z</time>
      </trkpt>
      <trkpt lat="36.8468132019043" lon="-5.13360023498535">
        <ele>751</ele>
        <time>2019-05-11T17:39:32Z</time>
      </trkpt>
      <trkpt lat="36.8468399047852" lon="-5.13359498977661">
        <ele>751</ele>
        <time>2019-05-11T17:39:34Z</time>
      </trkpt>
      <trkpt lat="36.846866607666" lon="-5.13358688354492">
        <ele>751</ele>
        <time>2019-05-11T17:39:36Z</time>
      </trkpt>
      <trkpt lat="36.8468933105469" lon="-5.1335768699646">
        <ele>751</ele>
        <time>2019-05-11T17:39:38Z</time>
      </trkpt>
      <trkpt lat="36.846923828125" lon="-5.13356685638428">
        <ele>751</ele>
        <time>2019-05-11T17:39:41Z</time>
      </trkpt>
      <trkpt lat="36.8469543457031" lon="-5.13355302810669">
        <ele>751</ele>
        <time>2019-05-11T17:39:43Z</time>
      </trkpt>
      <trkpt lat="36.8469886779785" lon="-5.13354015350342">
        <ele>751</ele>
        <time>2019-05-11T17:39:45Z</time>
      </trkpt>
      <trkpt lat="36.8470191955566" lon="-5.13352823257446">
        <ele>751</ele>
        <time>2019-05-11T17:39:47Z</time>
      </trkpt>
      <trkpt lat="36.847053527832" lon="-5.13351678848267">
        <ele>751</ele>
        <time>2019-05-11T17:39:49Z</time>
      </trkpt>
      <trkpt lat="36.8470878601074" lon="-5.13350296020508">
        <ele>751</ele>
        <time>2019-05-11T17:39:51Z</time>
      </trkpt>
      <trkpt lat="36.847110748291" lon="-5.13349199295044">
        <ele>751</ele>
        <time>2019-05-11T17:39:53Z</time>
      </trkpt>
      <trkpt lat="36.8471374511719" lon="-5.13348007202148">
        <ele>751</ele>
        <time>2019-05-11T17:39:55Z</time>
      </trkpt>
      <trkpt lat="36.84716796875" lon="-5.13346719741821">
        <ele>751</ele>
        <time>2019-05-11T17:39:57Z</time>
      </trkpt>
      <trkpt lat="36.8471984863281" lon="-5.1334547996521">
        <ele>752</ele>
        <time>2019-05-11T17:39:59Z</time>
      </trkpt>
      <trkpt lat="36.8472290039062" lon="-5.13343715667725">
        <ele>752</ele>
        <time>2019-05-11T17:40:01Z</time>
      </trkpt>
      <trkpt lat="36.8472557067871" lon="-5.13341808319092">
        <ele>752</ele>
        <time>2019-05-11T17:40:03Z</time>
      </trkpt>
      <trkpt lat="36.8472900390625" lon="-5.13340997695923">
        <ele>752</ele>
        <time>2019-05-11T17:40:05Z</time>
      </trkpt>
      <trkpt lat="36.847339630127" lon="-5.13339519500732">
        <ele>752</ele>
        <time>2019-05-11T17:40:07Z</time>
      </trkpt>
      <trkpt lat="36.8473663330078" lon="-5.133385181427">
        <ele>752</ele>
        <time>2019-05-11T17:40:09Z</time>
      </trkpt>
      <trkpt lat="36.8473968505859" lon="-5.13337278366089">
        <ele>752</ele>
        <time>2019-05-11T17:40:11Z</time>
      </trkpt>
      <trkpt lat="36.8474235534668" lon="-5.13336277008057">
        <ele>752</ele>
        <time>2019-05-11T17:40:13Z</time>
      </trkpt>
      <trkpt lat="36.8474540710449" lon="-5.13335180282593">
        <ele>752</ele>
        <time>2019-05-11T17:40:15Z</time>
      </trkpt>
      <trkpt lat="36.847484588623" lon="-5.13334512710571">
        <ele>752</ele>
        <time>2019-05-11T17:40:17Z</time>
      </trkpt>
      <trkpt lat="36.8475151062012" lon="-5.13333511352539">
        <ele>753</ele>
        <time>2019-05-11T17:40:20Z</time>
      </trkpt>
      <trkpt lat="36.8475494384766" lon="-5.13332796096802">
        <ele>753</ele>
        <time>2019-05-11T17:40:22Z</time>
      </trkpt>
      <trkpt lat="36.8475799560547" lon="-5.13331985473633">
        <ele>753</ele>
        <time>2019-05-11T17:40:24Z</time>
      </trkpt>
      <trkpt lat="36.8476181030273" lon="-5.13330984115601">
        <ele>754</ele>
        <time>2019-05-11T17:40:26Z</time>
      </trkpt>
      <trkpt lat="36.8476486206055" lon="-5.1332950592041">
        <ele>754</ele>
        <time>2019-05-11T17:40:28Z</time>
      </trkpt>
      <trkpt lat="36.8476867675781" lon="-5.13328695297241">
        <ele>754</ele>
        <time>2019-05-11T17:40:30Z</time>
      </trkpt>
      <trkpt lat="36.8477172851562" lon="-5.13327217102051">
        <ele>754</ele>
        <time>2019-05-11T17:40:32Z</time>
      </trkpt>
      <trkpt lat="36.8477478027344" lon="-5.13326501846314">
        <ele>754</ele>
        <time>2019-05-11T17:40:34Z</time>
      </trkpt>
      <trkpt lat="36.8477783203125" lon="-5.13325691223144">
        <ele>754</ele>
        <time>2019-05-11T17:40:36Z</time>
      </trkpt>
      <trkpt lat="36.8478012084961" lon="-5.13324213027954">
        <ele>754</ele>
        <time>2019-05-11T17:40:38Z</time>
      </trkpt>
      <trkpt lat="36.847827911377" lon="-5.13323020935059">
        <ele>754</ele>
        <time>2019-05-11T17:40:40Z</time>
      </trkpt>
      <trkpt lat="36.8478775024414" lon="-5.13320207595825">
        <ele>754</ele>
        <time>2019-05-11T17:40:42Z</time>
      </trkpt>
      <trkpt lat="36.8479042053223" lon="-5.1331901550293">
        <ele>754</ele>
        <time>2019-05-11T17:40:44Z</time>
      </trkpt>
      <trkpt lat="36.8479309082031" lon="-5.13318014144897">
        <ele>754</ele>
        <time>2019-05-11T17:40:46Z</time>
      </trkpt>
      <trkpt lat="36.847957611084" lon="-5.13316822052002">
        <ele>754</ele>
        <time>2019-05-11T17:40:48Z</time>
      </trkpt>
      <trkpt lat="36.8479843139648" lon="-5.13315296173096">
        <ele>754</ele>
        <time>2019-05-11T17:40:50Z</time>
      </trkpt>
      <trkpt lat="36.8480186462402" lon="-5.13314199447632">
        <ele>754</ele>
        <time>2019-05-11T17:40:52Z</time>
      </trkpt>
      <trkpt lat="36.8480453491211" lon="-5.13312816619873">
        <ele>754</ele>
        <time>2019-05-11T17:40:55Z</time>
      </trkpt>
      <trkpt lat="36.8480796813965" lon="-5.13311815261841">
        <ele>754</ele>
        <time>2019-05-11T17:40:57Z</time>
      </trkpt>
      <trkpt lat="36.8481063842773" lon="-5.13310718536377">
        <ele>754</ele>
        <time>2019-05-11T17:40:59Z</time>
      </trkpt>
      <trkpt lat="36.8481369018555" lon="-5.13309812545776">
        <ele>754</ele>
        <time>2019-05-11T17:41:01Z</time>
      </trkpt>
      <trkpt lat="36.8481559753418" lon="-5.13308715820312">
        <ele>754</ele>
        <time>2019-05-11T17:41:03Z</time>
      </trkpt>
      <trkpt lat="36.8481826782227" lon="-5.1330771446228">
        <ele>754</ele>
        <time>2019-05-11T17:41:05Z</time>
      </trkpt>
      <trkpt lat="36.8482093811035" lon="-5.13306522369385">
        <ele>754</ele>
        <time>2019-05-11T17:41:07Z</time>
      </trkpt>
      <trkpt lat="36.8482284545898" lon="-5.13305282592773">
        <ele>754</ele>
        <time>2019-05-11T17:41:09Z</time>
      </trkpt>
      <trkpt lat="36.8482627868652" lon="-5.1330418586731">
        <ele>754</ele>
        <time>2019-05-11T17:41:11Z</time>
      </trkpt>
      <trkpt lat="36.8482933044434" lon="-5.13303184509277">
        <ele>754</ele>
        <time>2019-05-11T17:41:13Z</time>
      </trkpt>
      <trkpt lat="36.8483238220215" lon="-5.13302278518677">
        <ele>754</ele>
        <time>2019-05-11T17:41:15Z</time>
      </trkpt>
      <trkpt lat="36.8483543395996" lon="-5.13301515579224">
        <ele>754</ele>
        <time>2019-05-11T17:41:17Z</time>
      </trkpt>
      <trkpt lat="36.8483924865723" lon="-5.13299703598022">
        <ele>754</ele>
        <time>2019-05-11T17:41:19Z</time>
      </trkpt>
      <trkpt lat="36.8484230041504" lon="-5.13298320770264">
        <ele>754</ele>
        <time>2019-05-11T17:41:21Z</time>
      </trkpt>
      <trkpt lat="36.8484535217285" lon="-5.13296794891357">
        <ele>754</ele>
        <time>2019-05-11T17:41:23Z</time>
      </trkpt>
      <trkpt lat="36.8484878540039" lon="-5.13295221328735">
        <ele>754</ele>
        <time>2019-05-11T17:41:25Z</time>
      </trkpt>
      <trkpt lat="36.8485145568848" lon="-5.13294219970703">
        <ele>753</ele>
        <time>2019-05-11T17:41:27Z</time>
      </trkpt>
      <trkpt lat="36.8485412597656" lon="-5.13293313980103">
        <ele>753</ele>
        <time>2019-05-11T17:41:29Z</time>
      </trkpt>
      <trkpt lat="36.8485717773438" lon="-5.13291788101196">
        <ele>753</ele>
        <time>2019-05-11T17:41:31Z</time>
      </trkpt>
      <trkpt lat="36.8486022949219" lon="-5.13290309906006">
        <ele>753</ele>
        <time>2019-05-11T17:41:34Z</time>
      </trkpt>
      <trkpt lat="36.8486251831055" lon="-5.13289022445679">
        <ele>753</ele>
        <time>2019-05-11T17:41:36Z</time>
      </trkpt>
      <trkpt lat="36.8486518859863" lon="-5.13288021087646">
        <ele>753</ele>
        <time>2019-05-11T17:41:38Z</time>
      </trkpt>
      <trkpt lat="36.8486785888672" lon="-5.1328649520874">
        <ele>753</ele>
        <time>2019-05-11T17:41:40Z</time>
      </trkpt>
      <trkpt lat="36.848705291748" lon="-5.13285779953003">
        <ele>753</ele>
        <time>2019-05-11T17:41:42Z</time>
      </trkpt>
      <trkpt lat="36.8487396240234" lon="-5.13284683227539">
        <ele>753</ele>
        <time>2019-05-11T17:41:44Z</time>
      </trkpt>
      <trkpt lat="36.8487663269043" lon="-5.13283491134644">
        <ele>753</ele>
        <time>2019-05-11T17:41:46Z</time>
      </trkpt>
      <trkpt lat="36.8487968444824" lon="-5.13282012939453">
        <ele>753</ele>
        <time>2019-05-11T17:41:48Z</time>
      </trkpt>
      <trkpt lat="36.8488235473633" lon="-5.13280820846558">
        <ele>753</ele>
        <time>2019-05-11T17:41:50Z</time>
      </trkpt>
      <trkpt lat="36.8488502502441" lon="-5.13279485702515">
        <ele>753</ele>
        <time>2019-05-11T17:41:52Z</time>
      </trkpt>
      <trkpt lat="36.8488807678223" lon="-5.13278293609619">
        <ele>753</ele>
        <time>2019-05-11T17:41:54Z</time>
      </trkpt>
      <trkpt lat="36.8489265441894" lon="-5.13277721405029">
        <ele>753</ele>
        <time>2019-05-11T17:41:56Z</time>
      </trkpt>
      <trkpt lat="36.8489570617676" lon="-5.1327600479126">
        <ele>753</ele>
        <time>2019-05-11T17:41:58Z</time>
      </trkpt>
      <trkpt lat="36.8489875793457" lon="-5.13274717330933">
        <ele>753</ele>
        <time>2019-05-11T17:42:00Z</time>
      </trkpt>
      <trkpt lat="36.8490180969238" lon="-5.13273811340332">
        <ele>753</ele>
        <time>2019-05-11T17:42:02Z</time>
      </trkpt>
      <trkpt lat="36.849048614502" lon="-5.132728099823">
        <ele>753</ele>
        <time>2019-05-11T17:42:04Z</time>
      </trkpt>
      <trkpt lat="36.8490715026856" lon="-5.13271999359131">
        <ele>753</ele>
        <time>2019-05-11T17:42:06Z</time>
      </trkpt>
      <trkpt lat="36.8490982055664" lon="-5.13270807266235">
        <ele>753</ele>
        <time>2019-05-11T17:42:09Z</time>
      </trkpt>
      <trkpt lat="36.8491287231445" lon="-5.13269805908203">
        <ele>753</ele>
        <time>2019-05-11T17:42:11Z</time>
      </trkpt>
      <trkpt lat="36.8491592407227" lon="-5.13268709182739">
        <ele>753</ele>
        <time>2019-05-11T17:42:13Z</time>
      </trkpt>
      <trkpt lat="36.849193572998" lon="-5.13266801834106">
        <ele>753</ele>
        <time>2019-05-11T17:42:15Z</time>
      </trkpt>
      <trkpt lat="36.8492202758789" lon="-5.13265514373779">
        <ele>753</ele>
        <time>2019-05-11T17:42:17Z</time>
      </trkpt>
      <trkpt lat="36.849250793457" lon="-5.13264322280884">
        <ele>753</ele>
        <time>2019-05-11T17:42:19Z</time>
      </trkpt>
      <trkpt lat="36.8492774963379" lon="-5.13263177871704">
        <ele>753</ele>
        <time>2019-05-11T17:42:21Z</time>
      </trkpt>
      <trkpt lat="36.8493041992188" lon="-5.13262176513672">
        <ele>753</ele>
        <time>2019-05-11T17:42:23Z</time>
      </trkpt>
      <trkpt lat="36.8493270874023" lon="-5.13260793685913">
        <ele>753</ele>
        <time>2019-05-11T17:42:25Z</time>
      </trkpt>
      <trkpt lat="36.8493576049805" lon="-5.13259315490723">
        <ele>753</ele>
        <time>2019-05-11T17:42:27Z</time>
      </trkpt>
      <trkpt lat="36.8493843078613" lon="-5.1325831413269">
        <ele>753</ele>
        <time>2019-05-11T17:42:29Z</time>
      </trkpt>
      <trkpt lat="36.8494186401367" lon="-5.13257312774658">
        <ele>753</ele>
        <time>2019-05-11T17:42:31Z</time>
      </trkpt>
      <trkpt lat="36.8494453430176" lon="-5.13256692886353">
        <ele>753</ele>
        <time>2019-05-11T17:42:33Z</time>
      </trkpt>
      <trkpt lat="36.8494682312012" lon="-5.13255786895752">
        <ele>753</ele>
        <time>2019-05-11T17:42:35Z</time>
      </trkpt>
      <trkpt lat="36.8494987487793" lon="-5.13254690170288">
        <ele>753</ele>
        <time>2019-05-11T17:42:37Z</time>
      </trkpt>
      <trkpt lat="36.8495254516602" lon="-5.13253498077393">
        <ele>753</ele>
        <time>2019-05-11T17:42:39Z</time>
      </trkpt>
      <trkpt lat="36.849552154541" lon="-5.13252305984497">
        <ele>753</ele>
        <time>2019-05-11T17:42:41Z</time>
      </trkpt>
      <trkpt lat="36.8495712280273" lon="-5.13251495361328">
        <ele>753</ele>
        <time>2019-05-11T17:42:43Z</time>
      </trkpt>
      <trkpt lat="36.8496055603027" lon="-5.13250494003296">
        <ele>753</ele>
        <time>2019-05-11T17:42:45Z</time>
      </trkpt>
      <trkpt lat="36.8496322631836" lon="-5.13250494003296">
        <ele>753</ele>
        <time>2019-05-11T17:42:47Z</time>
      </trkpt>
      <trkpt lat="36.849666595459" lon="-5.132493019104">
        <ele>753</ele>
        <time>2019-05-11T17:42:49Z</time>
      </trkpt>
      <trkpt lat="36.8496971130371" lon="-5.13248300552368">
        <ele>753</ele>
        <time>2019-05-11T17:42:51Z</time>
      </trkpt>
      <trkpt lat="36.8497314453125" lon="-5.1324782371521">
        <ele>753</ele>
        <time>2019-05-11T17:42:53Z</time>
      </trkpt>
      <trkpt lat="36.8497581481934" lon="-5.13247203826904">
        <ele>753</ele>
        <time>2019-05-11T17:42:55Z</time>
      </trkpt>
      <trkpt lat="36.8497886657715" lon="-5.1324667930603">
        <ele>753</ele>
        <time>2019-05-11T17:42:57Z</time>
      </trkpt>
      <trkpt lat="36.8498153686523" lon="-5.13246011734009">
        <ele>753</ele>
        <time>2019-05-11T17:42:59Z</time>
      </trkpt>
      <trkpt lat="36.8498611450195" lon="-5.1324520111084">
        <ele>753</ele>
        <time>2019-05-11T17:43:01Z</time>
      </trkpt>
      <trkpt lat="36.8498954772949" lon="-5.13244676589966">
        <ele>753</ele>
        <time>2019-05-11T17:43:03Z</time>
      </trkpt>
      <trkpt lat="36.849925994873" lon="-5.13244199752808">
        <ele>753</ele>
        <time>2019-05-11T17:43:05Z</time>
      </trkpt>
      <trkpt lat="36.8499603271484" lon="-5.1324348449707">
        <ele>753</ele>
        <time>2019-05-11T17:43:07Z</time>
      </trkpt>
      <trkpt lat="36.8499870300293" lon="-5.13243007659912">
        <ele>753</ele>
        <time>2019-05-11T17:43:09Z</time>
      </trkpt>
      <trkpt lat="36.8500213623047" lon="-5.13242721557617">
        <ele>753</ele>
        <time>2019-05-11T17:43:11Z</time>
      </trkpt>
      <trkpt lat="36.8500518798828" lon="-5.1324200630188">
        <ele>753</ele>
        <time>2019-05-11T17:43:14Z</time>
      </trkpt>
      <trkpt lat="36.8500862121582" lon="-5.13241720199585">
        <ele>753</ele>
        <time>2019-05-11T17:43:16Z</time>
      </trkpt>
      <trkpt lat="36.8501167297363" lon="-5.13241195678711">
        <ele>753</ele>
        <time>2019-05-11T17:43:18Z</time>
      </trkpt>
      <trkpt lat="36.8501472473144" lon="-5.13240814208984">
        <ele>753</ele>
        <time>2019-05-11T17:43:20Z</time>
      </trkpt>
      <trkpt lat="36.8501815795898" lon="-5.13240718841553">
        <ele>753</ele>
        <time>2019-05-11T17:43:22Z</time>
      </trkpt>
      <trkpt lat="36.8502159118652" lon="-5.13240480422974">
        <ele>753</ele>
        <time>2019-05-11T17:43:24Z</time>
      </trkpt>
      <trkpt lat="36.8502502441406" lon="-5.13240003585815">
        <ele>753</ele>
        <time>2019-05-11T17:43:26Z</time>
      </trkpt>
      <trkpt lat="36.850284576416" lon="-5.1323971748352">
        <ele>753</ele>
        <time>2019-05-11T17:43:28Z</time>
      </trkpt>
      <trkpt lat="36.8503150939941" lon="-5.13239192962646">
        <ele>753</ele>
        <time>2019-05-11T17:43:30Z</time>
      </trkpt>
      <trkpt lat="36.8503456115723" lon="-5.13239002227783">
        <ele>753</ele>
        <time>2019-05-11T17:43:32Z</time>
      </trkpt>
      <trkpt lat="36.8503837585449" lon="-5.13238477706909">
        <ele>753</ele>
        <time>2019-05-11T17:43:34Z</time>
      </trkpt>
      <trkpt lat="36.850414276123" lon="-5.13238286972046">
        <ele>753</ele>
        <time>2019-05-11T17:43:36Z</time>
      </trkpt>
      <trkpt lat="36.8504486083984" lon="-5.13237810134888">
        <ele>753</ele>
        <time>2019-05-11T17:43:38Z</time>
      </trkpt>
      <trkpt lat="36.8504867553711" lon="-5.13236808776856">
        <ele>753</ele>
        <time>2019-05-11T17:43:40Z</time>
      </trkpt>
      <trkpt lat="36.850513458252" lon="-5.13235998153686">
        <ele>753</ele>
        <time>2019-05-11T17:43:42Z</time>
      </trkpt>
      <trkpt lat="36.8505439758301" lon="-5.13235282897949">
        <ele>753</ele>
        <time>2019-05-11T17:43:44Z</time>
      </trkpt>
      <trkpt lat="36.8505744934082" lon="-5.13234806060791">
        <ele>753</ele>
        <time>2019-05-11T17:43:46Z</time>
      </trkpt>
      <trkpt lat="36.8506088256836" lon="-5.13234186172485">
        <ele>754</ele>
        <time>2019-05-11T17:43:48Z</time>
      </trkpt>
      <trkpt lat="36.8506393432617" lon="-5.13233280181885">
        <ele>754</ele>
        <time>2019-05-11T17:43:50Z</time>
      </trkpt>
      <trkpt lat="36.8506736755371" lon="-5.13232803344727">
        <ele>755</ele>
        <time>2019-05-11T17:43:53Z</time>
      </trkpt>
      <trkpt lat="36.8507080078125" lon="-5.13232183456421">
        <ele>755</ele>
        <time>2019-05-11T17:43:55Z</time>
      </trkpt>
      <trkpt lat="36.8507423400879" lon="-5.13231515884399">
        <ele>756</ele>
        <time>2019-05-11T17:43:57Z</time>
      </trkpt>
      <trkpt lat="36.8507766723633" lon="-5.13230800628662">
        <ele>756</ele>
        <time>2019-05-11T17:43:59Z</time>
      </trkpt>
      <trkpt lat="36.8508110046387" lon="-5.13230323791504">
        <ele>756</ele>
        <time>2019-05-11T17:44:01Z</time>
      </trkpt>
      <trkpt lat="36.8508453369141" lon="-5.1322979927063">
        <ele>756</ele>
        <time>2019-05-11T17:44:03Z</time>
      </trkpt>
      <trkpt lat="36.8508796691894" lon="-5.13229322433472">
        <ele>756</ele>
        <time>2019-05-11T17:44:05Z</time>
      </trkpt>
      <trkpt lat="36.8509140014648" lon="-5.13229179382324">
        <ele>756</ele>
        <time>2019-05-11T17:44:07Z</time>
      </trkpt>
      <trkpt lat="36.8509483337402" lon="-5.13228797912598">
        <ele>756</ele>
        <time>2019-05-11T17:44:09Z</time>
      </trkpt>
      <trkpt lat="36.8509826660156" lon="-5.13228511810303">
        <ele>757</ele>
        <time>2019-05-11T17:44:11Z</time>
      </trkpt>
      <trkpt lat="36.8510131835938" lon="-5.13228321075439">
        <ele>757</ele>
        <time>2019-05-11T17:44:13Z</time>
      </trkpt>
      <trkpt lat="36.8510475158691" lon="-5.13228321075439">
        <ele>757</ele>
        <time>2019-05-11T17:44:15Z</time>
      </trkpt>
      <trkpt lat="36.8510932922363" lon="-5.13228511810303">
        <ele>757</ele>
        <time>2019-05-11T17:44:17Z</time>
      </trkpt>
      <trkpt lat="36.851131439209" lon="-5.13228511810303">
        <ele>757</ele>
        <time>2019-05-11T17:44:19Z</time>
      </trkpt>
      <trkpt lat="36.8511619567871" lon="-5.13228321075439">
        <ele>757</ele>
        <time>2019-05-11T17:44:21Z</time>
      </trkpt>
      <trkpt lat="36.8511924743652" lon="-5.13228321075439">
        <ele>757</ele>
        <time>2019-05-11T17:44:23Z</time>
      </trkpt>
      <trkpt lat="36.8512229919434" lon="-5.13228321075439">
        <ele>757</ele>
        <time>2019-05-11T17:44:25Z</time>
      </trkpt>
      <trkpt lat="36.8512535095215" lon="-5.13228511810303">
        <ele>757</ele>
        <time>2019-05-11T17:44:27Z</time>
      </trkpt>
      <trkpt lat="36.8512840270996" lon="-5.13228702545166">
        <ele>757</ele>
        <time>2019-05-11T17:44:29Z</time>
      </trkpt>
      <trkpt lat="36.851318359375" lon="-5.13228988647461">
        <ele>757</ele>
        <time>2019-05-11T17:44:32Z</time>
      </trkpt>
      <trkpt lat="36.8513526916504" lon="-5.13229322433472">
        <ele>757</ele>
        <time>2019-05-11T17:44:34Z</time>
      </trkpt>
      <trkpt lat="36.8513870239258" lon="-5.13229322433472">
        <ele>757</ele>
        <time>2019-05-11T17:44:36Z</time>
      </trkpt>
      <trkpt lat="36.8514213562012" lon="-5.13229513168335">
        <ele>757</ele>
        <time>2019-05-11T17:44:38Z</time>
      </trkpt>
      <trkpt lat="36.8514518737793" lon="-5.13229990005493">
        <ele>757</ele>
        <time>2019-05-11T17:44:40Z</time>
      </trkpt>
      <trkpt lat="36.8514862060547" lon="-5.1323070526123">
        <ele>757</ele>
        <time>2019-05-11T17:44:42Z</time>
      </trkpt>
      <trkpt lat="36.8515167236328" lon="-5.13231182098389">
        <ele>757</ele>
        <time>2019-05-11T17:44:44Z</time>
      </trkpt>
      <trkpt lat="36.8515510559082" lon="-5.1323127746582">
        <ele>757</ele>
        <time>2019-05-11T17:44:46Z</time>
      </trkpt>
      <trkpt lat="36.8515815734863" lon="-5.13231992721558">
        <ele>757</ele>
        <time>2019-05-11T17:44:48Z</time>
      </trkpt>
      <trkpt lat="36.8516120910644" lon="-5.13232278823853">
        <ele>757</ele>
        <time>2019-05-11T17:44:50Z</time>
      </trkpt>
      <trkpt lat="36.8516426086426" lon="-5.1323299407959">
        <ele>757</ele>
        <time>2019-05-11T17:44:52Z</time>
      </trkpt>
      <trkpt lat="36.851676940918" lon="-5.13233518600464">
        <ele>758</ele>
        <time>2019-05-11T17:44:54Z</time>
      </trkpt>
      <trkpt lat="36.8517227172852" lon="-5.13234186172485">
        <ele>758</ele>
        <time>2019-05-11T17:44:56Z</time>
      </trkpt>
      <trkpt lat="36.8517570495606" lon="-5.13234710693359">
        <ele>758</ele>
        <time>2019-05-11T17:44:58Z</time>
      </trkpt>
      <trkpt lat="36.8517913818359" lon="-5.13234806060791">
        <ele>759</ele>
        <time>2019-05-11T17:45:00Z</time>
      </trkpt>
      <trkpt lat="36.8518257141113" lon="-5.13234710693359">
        <ele>759</ele>
        <time>2019-05-11T17:45:02Z</time>
      </trkpt>
      <trkpt lat="36.8518562316894" lon="-5.13235187530518">
        <ele>759</ele>
        <time>2019-05-11T17:45:04Z</time>
      </trkpt>
      <trkpt lat="36.8518905639648" lon="-5.13235187530518">
        <ele>759</ele>
        <time>2019-05-11T17:45:06Z</time>
      </trkpt>
      <trkpt lat="36.8519248962402" lon="-5.13235712051392">
        <ele>759</ele>
        <time>2019-05-11T17:45:09Z</time>
      </trkpt>
      <trkpt lat="36.8519592285156" lon="-5.13236284255981">
        <ele>759</ele>
        <time>2019-05-11T17:45:11Z</time>
      </trkpt>
      <trkpt lat="36.851993560791" lon="-5.13236713409424">
        <ele>759</ele>
        <time>2019-05-11T17:45:13Z</time>
      </trkpt>
      <trkpt lat="36.8520240783691" lon="-5.13236999511719">
        <ele>759</ele>
        <time>2019-05-11T17:45:15Z</time>
      </trkpt>
      <trkpt lat="36.8520584106445" lon="-5.13237476348877">
        <ele>759</ele>
        <time>2019-05-11T17:45:17Z</time>
      </trkpt>
      <trkpt lat="36.8520889282227" lon="-5.13237476348877">
        <ele>759</ele>
        <time>2019-05-11T17:45:19Z</time>
      </trkpt>
      <trkpt lat="36.8521194458008" lon="-5.13237714767456">
        <ele>759</ele>
        <time>2019-05-11T17:45:21Z</time>
      </trkpt>
      <trkpt lat="36.8521537780762" lon="-5.13238191604614">
        <ele>759</ele>
        <time>2019-05-11T17:45:23Z</time>
      </trkpt>
      <trkpt lat="36.8521842956543" lon="-5.13238286972046">
        <ele>759</ele>
        <time>2019-05-11T17:45:25Z</time>
      </trkpt>
      <trkpt lat="36.8522186279297" lon="-5.13238286972046">
        <ele>759</ele>
        <time>2019-05-11T17:45:27Z</time>
      </trkpt>
      <trkpt lat="36.8522453308106" lon="-5.13238286972046">
        <ele>759</ele>
        <time>2019-05-11T17:45:29Z</time>
      </trkpt>
      <trkpt lat="36.8522758483887" lon="-5.13238716125488">
        <ele>759</ele>
        <time>2019-05-11T17:45:31Z</time>
      </trkpt>
      <trkpt lat="36.8523101806641" lon="-5.13239192962646">
        <ele>759</ele>
        <time>2019-05-11T17:45:33Z</time>
      </trkpt>
      <trkpt lat="36.8523597717285" lon="-5.13239479064941">
        <ele>759</ele>
        <time>2019-05-11T17:45:35Z</time>
      </trkpt>
      <trkpt lat="36.8523941040039" lon="-5.13240194320679">
        <ele>759</ele>
        <time>2019-05-11T17:45:37Z</time>
      </trkpt>
      <trkpt lat="36.852424621582" lon="-5.13240718841553">
        <ele>759</ele>
        <time>2019-05-11T17:45:39Z</time>
      </trkpt>
      <trkpt lat="36.8524589538574" lon="-5.13241195678711">
        <ele>759</ele>
        <time>2019-05-11T17:45:41Z</time>
      </trkpt>
      <trkpt lat="36.8524932861328" lon="-5.13241720199585">
        <ele>759</ele>
        <time>2019-05-11T17:45:43Z</time>
      </trkpt>
      <trkpt lat="36.8525276184082" lon="-5.13242197036743">
        <ele>759</ele>
        <time>2019-05-11T17:45:45Z</time>
      </trkpt>
      <trkpt lat="36.8525619506836" lon="-5.13242721557617">
        <ele>759</ele>
        <time>2019-05-11T17:45:47Z</time>
      </trkpt>
      <trkpt lat="36.8525924682617" lon="-5.13243198394775">
        <ele>759</ele>
        <time>2019-05-11T17:45:50Z</time>
      </trkpt>
      <trkpt lat="36.8526268005371" lon="-5.13243293762207">
        <ele>759</ele>
        <time>2019-05-11T17:45:52Z</time>
      </trkpt>
      <trkpt lat="36.852653503418" lon="-5.13243198394775">
        <ele>759</ele>
        <time>2019-05-11T17:45:54Z</time>
      </trkpt>
      <trkpt lat="36.8526840209961" lon="-5.13243198394775">
        <ele>759</ele>
        <time>2019-05-11T17:45:56Z</time>
      </trkpt>
      <trkpt lat="36.8527145385742" lon="-5.13243007659912">
        <ele>759</ele>
        <time>2019-05-11T17:45:58Z</time>
      </trkpt>
      <trkpt lat="36.8527488708496" lon="-5.13243007659912">
        <ele>759</ele>
        <time>2019-05-11T17:46:00Z</time>
      </trkpt>
      <trkpt lat="36.8527793884277" lon="-5.13243198394775">
        <ele>759</ele>
        <time>2019-05-11T17:46:02Z</time>
      </trkpt>
      <trkpt lat="36.8528137207031" lon="-5.13243722915649">
        <ele>759</ele>
        <time>2019-05-11T17:46:04Z</time>
      </trkpt>
      <trkpt lat="36.8528480529785" lon="-5.13244009017944">
        <ele>759</ele>
        <time>2019-05-11T17:46:06Z</time>
      </trkpt>
      <trkpt lat="36.8528785705566" lon="-5.13244295120239">
        <ele>759</ele>
        <time>2019-05-11T17:46:08Z</time>
      </trkpt>
      <trkpt lat="36.8529052734375" lon="-5.13244485855103">
        <ele>759</ele>
        <time>2019-05-11T17:46:10Z</time>
      </trkpt>
      <trkpt lat="36.8529357910156" lon="-5.13244819641113">
        <ele>759</ele>
        <time>2019-05-11T17:46:12Z</time>
      </trkpt>
      <trkpt lat="36.8529853820801" lon="-5.1324520111084">
        <ele>759</ele>
        <time>2019-05-11T17:46:14Z</time>
      </trkpt>
      <trkpt lat="36.8530197143555" lon="-5.13245487213135">
        <ele>759</ele>
        <time>2019-05-11T17:46:16Z</time>
      </trkpt>
      <trkpt lat="36.8530502319336" lon="-5.13246297836304">
        <ele>759</ele>
        <time>2019-05-11T17:46:18Z</time>
      </trkpt>
      <trkpt lat="36.853084564209" lon="-5.13246822357178">
        <ele>759</ele>
        <time>2019-05-11T17:46:20Z</time>
      </trkpt>
      <trkpt lat="36.8531188964844" lon="-5.13247489929199">
        <ele>759</ele>
        <time>2019-05-11T17:46:22Z</time>
      </trkpt>
      <trkpt lat="36.8531532287598" lon="-5.13248300552368">
        <ele>759</ele>
        <time>2019-05-11T17:46:24Z</time>
      </trkpt>
      <trkpt lat="36.8531837463379" lon="-5.13249206542969">
        <ele>759</ele>
        <time>2019-05-11T17:46:27Z</time>
      </trkpt>
      <trkpt lat="36.8532180786133" lon="-5.13249683380127">
        <ele>759</ele>
        <time>2019-05-11T17:46:29Z</time>
      </trkpt>
      <trkpt lat="36.8532524108887" lon="-5.13250303268433">
        <ele>759</ele>
        <time>2019-05-11T17:46:31Z</time>
      </trkpt>
      <trkpt lat="36.8532829284668" lon="-5.13250494003296">
        <ele>759</ele>
        <time>2019-05-11T17:46:33Z</time>
      </trkpt>
      <trkpt lat="36.8533134460449" lon="-5.1325101852417">
        <ele>759</ele>
        <time>2019-05-11T17:46:35Z</time>
      </trkpt>
      <trkpt lat="36.853343963623" lon="-5.13251495361328">
        <ele>759</ele>
        <time>2019-05-11T17:46:37Z</time>
      </trkpt>
      <trkpt lat="36.8533782958984" lon="-5.1325249671936">
        <ele>759</ele>
        <time>2019-05-11T17:46:39Z</time>
      </trkpt>
      <trkpt lat="36.8534088134766" lon="-5.13253021240234">
        <ele>759</ele>
        <time>2019-05-11T17:46:41Z</time>
      </trkpt>
      <trkpt lat="36.853443145752" lon="-5.13253688812256">
        <ele>759</ele>
        <time>2019-05-11T17:46:43Z</time>
      </trkpt>
      <trkpt lat="36.8534736633301" lon="-5.13254499435425">
        <ele>759</ele>
        <time>2019-05-11T17:46:45Z</time>
      </trkpt>
      <trkpt lat="36.8535079956055" lon="-5.13254976272583">
        <ele>759</ele>
        <time>2019-05-11T17:46:47Z</time>
      </trkpt>
      <trkpt lat="36.8535461425781" lon="-5.13255500793457">
        <ele>759</ele>
        <time>2019-05-11T17:46:49Z</time>
      </trkpt>
      <trkpt lat="36.8535766601562" lon="-5.13255500793457">
        <ele>759</ele>
        <time>2019-05-11T17:46:51Z</time>
      </trkpt>
      <trkpt lat="36.8536071777344" lon="-5.13255977630615">
        <ele>759</ele>
        <time>2019-05-11T17:46:53Z</time>
      </trkpt>
      <trkpt lat="36.8536338806152" lon="-5.13256311416626">
        <ele>759</ele>
        <time>2019-05-11T17:46:55Z</time>
      </trkpt>
      <trkpt lat="36.8536643981934" lon="-5.13256692886353">
        <ele>759</ele>
        <time>2019-05-11T17:46:57Z</time>
      </trkpt>
      <trkpt lat="36.8536911010742" lon="-5.13256692886353">
        <ele>759</ele>
        <time>2019-05-11T17:46:59Z</time>
      </trkpt>
      <trkpt lat="36.8537178039551" lon="-5.13256788253784">
        <ele>759</ele>
        <time>2019-05-11T17:47:02Z</time>
      </trkpt>
      <trkpt lat="36.8537483215332" lon="-5.13257789611816">
        <ele>759</ele>
        <time>2019-05-11T17:47:04Z</time>
      </trkpt>
      <trkpt lat="36.8537788391113" lon="-5.1325831413269">
        <ele>758</ele>
        <time>2019-05-11T17:47:06Z</time>
      </trkpt>
      <trkpt lat="36.8538093566894" lon="-5.13258218765259">
        <ele>758</ele>
        <time>2019-05-11T17:47:08Z</time>
      </trkpt>
      <trkpt lat="36.8538360595703" lon="-5.13258695602417">
        <ele>758</ele>
        <time>2019-05-11T17:47:10Z</time>
      </trkpt>
      <trkpt lat="36.8538665771484" lon="-5.13258981704712">
        <ele>758</ele>
        <time>2019-05-11T17:47:12Z</time>
      </trkpt>
      <trkpt lat="36.8538970947266" lon="-5.13259315490723">
        <ele>758</ele>
        <time>2019-05-11T17:47:14Z</time>
      </trkpt>
      <trkpt lat="36.8539276123047" lon="-5.13259506225586">
        <ele>758</ele>
        <time>2019-05-11T17:47:16Z</time>
      </trkpt>
      <trkpt lat="36.8539581298828" lon="-5.13259696960449">
        <ele>758</ele>
        <time>2019-05-11T17:47:18Z</time>
      </trkpt>
      <trkpt lat="36.8539886474609" lon="-5.13259696960449">
        <ele>758</ele>
        <time>2019-05-11T17:47:20Z</time>
      </trkpt>
      <trkpt lat="36.8540191650391" lon="-5.13259506225586">
        <ele>758</ele>
        <time>2019-05-11T17:47:22Z</time>
      </trkpt>
      <trkpt lat="36.8540534973144" lon="-5.13259315490723">
        <ele>758</ele>
        <time>2019-05-11T17:47:24Z</time>
      </trkpt>
      <trkpt lat="36.8540840148926" lon="-5.13258981704712">
        <ele>758</ele>
        <time>2019-05-11T17:47:26Z</time>
      </trkpt>
      <trkpt lat="36.854133605957" lon="-5.13259220123291">
        <ele>758</ele>
        <time>2019-05-11T17:47:28Z</time>
      </trkpt>
      <trkpt lat="36.8541603088379" lon="-5.13259315490723">
        <ele>758</ele>
        <time>2019-05-11T17:47:30Z</time>
      </trkpt>
      <trkpt lat="36.8541831970215" lon="-5.13259506225586">
        <ele>757</ele>
        <time>2019-05-11T17:47:32Z</time>
      </trkpt>
      <trkpt lat="36.8542137145996" lon="-5.13259792327881">
        <ele>756</ele>
        <time>2019-05-11T17:47:34Z</time>
      </trkpt>
      <trkpt lat="36.8542442321777" lon="-5.13260221481323">
        <ele>756</ele>
        <time>2019-05-11T17:47:36Z</time>
      </trkpt>
      <trkpt lat="36.8542785644531" lon="-5.13260507583618">
        <ele>756</ele>
        <time>2019-05-11T17:47:38Z</time>
      </trkpt>
      <trkpt lat="36.8543090820312" lon="-5.13260507583618">
        <ele>756</ele>
        <time>2019-05-11T17:47:41Z</time>
      </trkpt>
      <trkpt lat="36.8543395996094" lon="-5.13260793685913">
        <ele>756</ele>
        <time>2019-05-11T17:47:43Z</time>
      </trkpt>
      <trkpt lat="36.8543701171875" lon="-5.1326150894165">
        <ele>756</ele>
        <time>2019-05-11T17:47:45Z</time>
      </trkpt>
      <trkpt lat="36.8544006347656" lon="-5.13261795043945">
        <ele>756</ele>
        <time>2019-05-11T17:47:47Z</time>
      </trkpt>
      <trkpt lat="36.8544311523438" lon="-5.13262176513672">
        <ele>756</ele>
        <time>2019-05-11T17:47:49Z</time>
      </trkpt>
      <trkpt lat="36.8544578552246" lon="-5.13262987136841">
        <ele>756</ele>
        <time>2019-05-11T17:47:51Z</time>
      </trkpt>
      <trkpt lat="36.8544883728027" lon="-5.13263702392578">
        <ele>756</ele>
        <time>2019-05-11T17:47:53Z</time>
      </trkpt>
      <trkpt lat="36.8545112609863" lon="-5.13264513015747">
        <ele>756</ele>
        <time>2019-05-11T17:47:55Z</time>
      </trkpt>
      <trkpt lat="36.8545417785644" lon="-5.13265514373779">
        <ele>756</ele>
        <time>2019-05-11T17:47:57Z</time>
      </trkpt>
      <trkpt lat="36.8545684814453" lon="-5.13266515731812">
        <ele>756</ele>
        <time>2019-05-11T17:47:59Z</time>
      </trkpt>
      <trkpt lat="36.8545951843262" lon="-5.13267278671265">
        <ele>756</ele>
        <time>2019-05-11T17:48:01Z</time>
      </trkpt>
      <trkpt lat="36.8546409606934" lon="-5.13268804550171">
        <ele>756</ele>
        <time>2019-05-11T17:48:03Z</time>
      </trkpt>
      <trkpt lat="36.8546676635742" lon="-5.13269710540772">
        <ele>756</ele>
        <time>2019-05-11T17:48:05Z</time>
      </trkpt>
      <trkpt lat="36.8546981811523" lon="-5.1327052116394">
        <ele>756</ele>
        <time>2019-05-11T17:48:07Z</time>
      </trkpt>
      <trkpt lat="36.8547248840332" lon="-5.13271188735962">
        <ele>756</ele>
        <time>2019-05-11T17:48:09Z</time>
      </trkpt>
      <trkpt lat="36.8547554016113" lon="-5.13271808624268">
        <ele>756</ele>
        <time>2019-05-11T17:48:11Z</time>
      </trkpt>
      <trkpt lat="36.8547821044922" lon="-5.13272285461426">
        <ele>756</ele>
        <time>2019-05-11T17:48:13Z</time>
      </trkpt>
      <trkpt lat="36.8548126220703" lon="-5.13273000717163">
        <ele>756</ele>
        <time>2019-05-11T17:48:16Z</time>
      </trkpt>
      <trkpt lat="36.8548431396484" lon="-5.13273286819458">
        <ele>756</ele>
        <time>2019-05-11T17:48:18Z</time>
      </trkpt>
      <trkpt lat="36.8548736572266" lon="-5.132737159729">
        <ele>756</ele>
        <time>2019-05-11T17:48:20Z</time>
      </trkpt>
      <trkpt lat="36.8549041748047" lon="-5.132737159729">
        <ele>756</ele>
        <time>2019-05-11T17:48:22Z</time>
      </trkpt>
      <trkpt lat="36.8549346923828" lon="-5.13274002075195">
        <ele>756</ele>
        <time>2019-05-11T17:48:24Z</time>
      </trkpt>
      <trkpt lat="36.8549613952637" lon="-5.13274478912354">
        <ele>756</ele>
        <time>2019-05-11T17:48:26Z</time>
      </trkpt>
      <trkpt lat="36.8549880981445" lon="-5.13275003433228">
        <ele>756</ele>
        <time>2019-05-11T17:48:28Z</time>
      </trkpt>
      <trkpt lat="36.8550186157227" lon="-5.13275194168091">
        <ele>756</ele>
        <time>2019-05-11T17:48:30Z</time>
      </trkpt>
      <trkpt lat="36.8550453186035" lon="-5.13275718688965">
        <ele>756</ele>
        <time>2019-05-11T17:48:32Z</time>
      </trkpt>
      <trkpt lat="36.8550758361816" lon="-5.13276290893555">
        <ele>756</ele>
        <time>2019-05-11T17:48:34Z</time>
      </trkpt>
      <trkpt lat="36.8551025390625" lon="-5.13277006149292">
        <ele>756</ele>
        <time>2019-05-11T17:48:36Z</time>
      </trkpt>
      <trkpt lat="36.8551483154297" lon="-5.13278007507324">
        <ele>756</ele>
        <time>2019-05-11T17:48:38Z</time>
      </trkpt>
      <trkpt lat="36.8551788330078" lon="-5.13278293609619">
        <ele>756</ele>
        <time>2019-05-11T17:48:40Z</time>
      </trkpt>
      <trkpt lat="36.8552055358887" lon="-5.13279008865356">
        <ele>756</ele>
        <time>2019-05-11T17:48:42Z</time>
      </trkpt>
      <trkpt lat="36.8552322387695" lon="-5.13279008865356">
        <ele>756</ele>
        <time>2019-05-11T17:48:44Z</time>
      </trkpt>
      <trkpt lat="36.8552627563477" lon="-5.13279485702515">
        <ele>756</ele>
        <time>2019-05-11T17:48:46Z</time>
      </trkpt>
      <trkpt lat="36.8552894592285" lon="-5.13280010223389">
        <ele>756</ele>
        <time>2019-05-11T17:48:48Z</time>
      </trkpt>
      <trkpt lat="36.8553199768066" lon="-5.13280487060547">
        <ele>756</ele>
        <time>2019-05-11T17:48:50Z</time>
      </trkpt>
      <trkpt lat="36.8553504943848" lon="-5.13280820846558">
        <ele>756</ele>
        <time>2019-05-11T17:48:52Z</time>
      </trkpt>
      <trkpt lat="36.8553810119629" lon="-5.13281679153442">
        <ele>756</ele>
        <time>2019-05-11T17:48:54Z</time>
      </trkpt>
      <trkpt lat="36.8554077148438" lon="-5.13282012939453">
        <ele>756</ele>
        <time>2019-05-11T17:48:57Z</time>
      </trkpt>
      <trkpt lat="36.8554382324219" lon="-5.13282203674316">
        <ele>756</ele>
        <time>2019-05-11T17:48:59Z</time>
      </trkpt>
      <trkpt lat="36.8554649353027" lon="-5.13282680511475">
        <ele>756</ele>
        <time>2019-05-11T17:49:01Z</time>
      </trkpt>
      <trkpt lat="36.8554916381836" lon="-5.1328330039978">
        <ele>756</ele>
        <time>2019-05-11T17:49:03Z</time>
      </trkpt>
      <trkpt lat="36.8555221557617" lon="-5.13283681869507">
        <ele>756</ele>
        <time>2019-05-11T17:49:05Z</time>
      </trkpt>
      <trkpt lat="36.8555526733398" lon="-5.13284206390381">
        <ele>756</ele>
        <time>2019-05-11T17:49:07Z</time>
      </trkpt>
      <trkpt lat="36.8555793762207" lon="-5.13284301757812">
        <ele>756</ele>
        <time>2019-05-11T17:49:09Z</time>
      </trkpt>
      <trkpt lat="36.8556098937988" lon="-5.13284301757812">
        <ele>756</ele>
        <time>2019-05-11T17:49:11Z</time>
      </trkpt>
      <trkpt lat="36.855640411377" lon="-5.13284492492676">
        <ele>756</ele>
        <time>2019-05-11T17:49:13Z</time>
      </trkpt>
      <trkpt lat="36.8556747436523" lon="-5.13284492492676">
        <ele>756</ele>
        <time>2019-05-11T17:49:15Z</time>
      </trkpt>
      <trkpt lat="36.8557014465332" lon="-5.13284683227539">
        <ele>756</ele>
        <time>2019-05-11T17:49:17Z</time>
      </trkpt>
      <trkpt lat="36.8557319641113" lon="-5.13284492492676">
        <ele>756</ele>
        <time>2019-05-11T17:49:19Z</time>
      </trkpt>
      <trkpt lat="36.8557586669922" lon="-5.13284492492676">
        <ele>756</ele>
        <time>2019-05-11T17:49:21Z</time>
      </trkpt>
      <trkpt lat="36.8557891845703" lon="-5.13284492492676">
        <ele>756</ele>
        <time>2019-05-11T17:49:23Z</time>
      </trkpt>
      <trkpt lat="36.8558158874512" lon="-5.13284683227539">
        <ele>756</ele>
        <time>2019-05-11T17:49:25Z</time>
      </trkpt>
      <trkpt lat="36.8558464050293" lon="-5.1328501701355">
        <ele>756</ele>
        <time>2019-05-11T17:49:27Z</time>
      </trkpt>
      <trkpt lat="36.8558731079102" lon="-5.13285684585571">
        <ele>756</ele>
        <time>2019-05-11T17:49:29Z</time>
      </trkpt>
      <trkpt lat="36.8559036254883" lon="-5.13285684585571">
        <ele>756</ele>
        <time>2019-05-11T17:49:31Z</time>
      </trkpt>
      <trkpt lat="36.8559341430664" lon="-5.13285779953003">
        <ele>756</ele>
        <time>2019-05-11T17:49:33Z</time>
      </trkpt>
      <trkpt lat="36.8559646606445" lon="-5.13286018371582">
        <ele>756</ele>
        <time>2019-05-11T17:49:35Z</time>
      </trkpt>
      <trkpt lat="36.8559951782227" lon="-5.13286209106445">
        <ele>756</ele>
        <time>2019-05-11T17:49:37Z</time>
      </trkpt>
      <trkpt lat="36.856029510498" lon="-5.13286018371582">
        <ele>756</ele>
        <time>2019-05-11T17:49:39Z</time>
      </trkpt>
      <trkpt lat="36.8560562133789" lon="-5.13286018371582">
        <ele>756</ele>
        <time>2019-05-11T17:49:41Z</time>
      </trkpt>
      <trkpt lat="36.856086730957" lon="-5.13286209106445">
        <ele>756</ele>
        <time>2019-05-11T17:49:43Z</time>
      </trkpt>
      <trkpt lat="36.856128692627" lon="-5.13286685943604">
        <ele>756</ele>
        <time>2019-05-11T17:49:45Z</time>
      </trkpt>
      <trkpt lat="36.8561592102051" lon="-5.13287019729614">
        <ele>756</ele>
        <time>2019-05-11T17:49:47Z</time>
      </trkpt>
      <trkpt lat="36.8561897277832" lon="-5.13287210464478">
        <ele>756</ele>
        <time>2019-05-11T17:49:49Z</time>
      </trkpt>
      <trkpt lat="36.8562202453613" lon="-5.13287305831909">
        <ele>756</ele>
        <time>2019-05-11T17:49:51Z</time>
      </trkpt>
      <trkpt lat="36.8562507629394" lon="-5.13286781311035">
        <ele>756</ele>
        <time>2019-05-11T17:49:53Z</time>
      </trkpt>
      <trkpt lat="36.8562774658203" lon="-5.13287019729614">
        <ele>756</ele>
        <time>2019-05-11T17:49:55Z</time>
      </trkpt>
      <trkpt lat="36.8563079833984" lon="-5.13286685943604">
        <ele>756</ele>
        <time>2019-05-11T17:49:58Z</time>
      </trkpt>
      <trkpt lat="36.8563346862793" lon="-5.13286018371582">
        <ele>756</ele>
        <time>2019-05-11T17:50:00Z</time>
      </trkpt>
      <trkpt lat="36.8563613891602" lon="-5.13285779953003">
        <ele>756</ele>
        <time>2019-05-11T17:50:02Z</time>
      </trkpt>
      <trkpt lat="36.8563919067383" lon="-5.13285684585571">
        <ele>756</ele>
        <time>2019-05-11T17:50:04Z</time>
      </trkpt>
      <trkpt lat="36.8564186096191" lon="-5.13285684585571">
        <ele>756</ele>
        <time>2019-05-11T17:50:06Z</time>
      </trkpt>
      <trkpt lat="36.8564453125" lon="-5.13285303115845">
        <ele>756</ele>
        <time>2019-05-11T17:50:08Z</time>
      </trkpt>
      <trkpt lat="36.8564758300781" lon="-5.13285303115845">
        <ele>756</ele>
        <time>2019-05-11T17:50:10Z</time>
      </trkpt>
      <trkpt lat="36.8565063476562" lon="-5.13285684585571">
        <ele>756</ele>
        <time>2019-05-11T17:50:12Z</time>
      </trkpt>
      <trkpt lat="36.8565406799316" lon="-5.13285493850708">
        <ele>756</ele>
        <time>2019-05-11T17:50:14Z</time>
      </trkpt>
      <trkpt lat="36.8565711975098" lon="-5.13285207748413">
        <ele>756</ele>
        <time>2019-05-11T17:50:16Z</time>
      </trkpt>
      <trkpt lat="36.8566017150879" lon="-5.13284683227539">
        <ele>756</ele>
        <time>2019-05-11T17:50:18Z</time>
      </trkpt>
      <trkpt lat="36.856632232666" lon="-5.13284492492676">
        <ele>756</ele>
        <time>2019-05-11T17:50:20Z</time>
      </trkpt>
      <trkpt lat="36.8566818237305" lon="-5.13284206390381">
        <ele>756</ele>
        <time>2019-05-11T17:50:22Z</time>
      </trkpt>
      <trkpt lat="36.8567085266113" lon="-5.13283681869507">
        <ele>756</ele>
        <time>2019-05-11T17:50:24Z</time>
      </trkpt>
      <trkpt lat="36.8567390441894" lon="-5.1328330039978">
        <ele>756</ele>
        <time>2019-05-11T17:50:26Z</time>
      </trkpt>
      <trkpt lat="36.856761932373" lon="-5.13282823562622">
        <ele>756</ele>
        <time>2019-05-11T17:50:28Z</time>
      </trkpt>
      <trkpt lat="36.8567924499512" lon="-5.13282680511475">
        <ele>756</ele>
        <time>2019-05-11T17:50:30Z</time>
      </trkpt>
      <trkpt lat="36.8568229675293" lon="-5.13282823562622">
        <ele>756</ele>
        <time>2019-05-11T17:50:32Z</time>
      </trkpt>
      <trkpt lat="36.8568572998047" lon="-5.13282823562622">
        <ele>756</ele>
        <time>2019-05-11T17:50:35Z</time>
      </trkpt>
      <trkpt lat="36.8568916320801" lon="-5.13283014297485">
        <ele>756</ele>
        <time>2019-05-11T17:50:37Z</time>
      </trkpt>
      <trkpt lat="36.8569221496582" lon="-5.13283014297485">
        <ele>756</ele>
        <time>2019-05-11T17:50:39Z</time>
      </trkpt>
      <trkpt lat="36.8569488525391" lon="-5.13283491134644">
        <ele>756</ele>
        <time>2019-05-11T17:50:41Z</time>
      </trkpt>
      <trkpt lat="36.8569831848144" lon="-5.1328330039978">
        <ele>756</ele>
        <time>2019-05-11T17:50:43Z</time>
      </trkpt>
      <trkpt lat="36.8570137023926" lon="-5.13283205032349">
        <ele>756</ele>
        <time>2019-05-11T17:50:45Z</time>
      </trkpt>
      <trkpt lat="36.8570442199707" lon="-5.13282823562622">
        <ele>756</ele>
        <time>2019-05-11T17:50:47Z</time>
      </trkpt>
      <trkpt lat="36.8570709228516" lon="-5.13282823562622">
        <ele>756</ele>
        <time>2019-05-11T17:50:49Z</time>
      </trkpt>
      <trkpt lat="36.8571014404297" lon="-5.13282680511475">
        <ele>756</ele>
        <time>2019-05-11T17:50:51Z</time>
      </trkpt>
      <trkpt lat="36.8571281433106" lon="-5.13282823562622">
        <ele>756</ele>
        <time>2019-05-11T17:50:53Z</time>
      </trkpt>
      <trkpt lat="36.8571586608887" lon="-5.13282823562622">
        <ele>756</ele>
        <time>2019-05-11T17:50:55Z</time>
      </trkpt>
      <trkpt lat="36.8571891784668" lon="-5.13283014297485">
        <ele>756</ele>
        <time>2019-05-11T17:50:57Z</time>
      </trkpt>
      <trkpt lat="36.8572158813477" lon="-5.13282823562622">
        <ele>756</ele>
        <time>2019-05-11T17:50:59Z</time>
      </trkpt>
      <trkpt lat="36.8572616577148" lon="-5.13282823562622">
        <ele>756</ele>
        <time>2019-05-11T17:51:01Z</time>
      </trkpt>
      <trkpt lat="36.857292175293" lon="-5.13282823562622">
        <ele>756</ele>
        <time>2019-05-11T17:51:03Z</time>
      </trkpt>
      <trkpt lat="36.8573188781738" lon="-5.13283014297485">
        <ele>756</ele>
        <time>2019-05-11T17:51:05Z</time>
      </trkpt>
      <trkpt lat="36.8573455810547" lon="-5.1328330039978">
        <ele>756</ele>
        <time>2019-05-11T17:51:07Z</time>
      </trkpt>
      <trkpt lat="36.8573760986328" lon="-5.13283491134644">
        <ele>756</ele>
        <time>2019-05-11T17:51:09Z</time>
      </trkpt>
      <trkpt lat="36.8574066162109" lon="-5.1328330039978">
        <ele>756</ele>
        <time>2019-05-11T17:51:11Z</time>
      </trkpt>
      <trkpt lat="36.8574333190918" lon="-5.13283491134644">
        <ele>756</ele>
        <time>2019-05-11T17:51:14Z</time>
      </trkpt>
      <trkpt lat="36.8574600219727" lon="-5.13283681869507">
        <ele>756</ele>
        <time>2019-05-11T17:51:16Z</time>
      </trkpt>
      <trkpt lat="36.8574867248535" lon="-5.13283014297485">
        <ele>756</ele>
        <time>2019-05-11T17:51:18Z</time>
      </trkpt>
      <trkpt lat="36.8575172424316" lon="-5.13282489776611">
        <ele>756</ele>
        <time>2019-05-11T17:51:20Z</time>
      </trkpt>
      <trkpt lat="36.8575439453125" lon="-5.13282012939453">
        <ele>756</ele>
        <time>2019-05-11T17:51:22Z</time>
      </trkpt>
      <trkpt lat="36.8575706481934" lon="-5.13281488418579">
        <ele>756</ele>
        <time>2019-05-11T17:51:24Z</time>
      </trkpt>
      <trkpt lat="36.8576011657715" lon="-5.13281011581421">
        <ele>756</ele>
        <time>2019-05-11T17:51:26Z</time>
      </trkpt>
      <trkpt lat="36.8576316833496" lon="-5.1328067779541">
        <ele>756</ele>
        <time>2019-05-11T17:51:28Z</time>
      </trkpt>
      <trkpt lat="36.8576622009277" lon="-5.13280296325684">
        <ele>756</ele>
        <time>2019-05-11T17:51:30Z</time>
      </trkpt>
      <trkpt lat="36.8576927185059" lon="-5.13280296325684">
        <ele>756</ele>
        <time>2019-05-11T17:51:32Z</time>
      </trkpt>
      <trkpt lat="36.857723236084" lon="-5.13280010223389">
        <ele>756</ele>
        <time>2019-05-11T17:51:34Z</time>
      </trkpt>
      <trkpt lat="36.8577499389648" lon="-5.13279485702515">
        <ele>756</ele>
        <time>2019-05-11T17:51:36Z</time>
      </trkpt>
      <trkpt lat="36.8577919006348" lon="-5.13278484344482">
        <ele>756</ele>
        <time>2019-05-11T17:51:38Z</time>
      </trkpt>
      <trkpt lat="36.8578147888184" lon="-5.13278007507324">
        <ele>756</ele>
        <time>2019-05-11T17:51:40Z</time>
      </trkpt>
      <trkpt lat="36.8578414916992" lon="-5.13277196884155">
        <ele>756</ele>
        <time>2019-05-11T17:51:42Z</time>
      </trkpt>
      <trkpt lat="36.8578681945801" lon="-5.13276720046997">
        <ele>756</ele>
        <time>2019-05-11T17:51:44Z</time>
      </trkpt>
      <trkpt lat="36.8578987121582" lon="-5.13276481628418">
        <ele>756</ele>
        <time>2019-05-11T17:51:46Z</time>
      </trkpt>
      <trkpt lat="36.8579254150391" lon="-5.13276481628418">
        <ele>756</ele>
        <time>2019-05-11T17:51:48Z</time>
      </trkpt>
      <trkpt lat="36.8579597473144" lon="-5.13276481628418">
        <ele>756</ele>
        <time>2019-05-11T17:51:50Z</time>
      </trkpt>
      <trkpt lat="36.8579864501953" lon="-5.13276290893555">
        <ele>756</ele>
        <time>2019-05-11T17:51:53Z</time>
      </trkpt>
      <trkpt lat="36.8580131530762" lon="-5.13275718688965">
        <ele>756</ele>
        <time>2019-05-11T17:51:55Z</time>
      </trkpt>
      <trkpt lat="36.858039855957" lon="-5.13275194168091">
        <ele>756</ele>
        <time>2019-05-11T17:51:57Z</time>
      </trkpt>
      <trkpt lat="36.8580665588379" lon="-5.13274812698364">
        <ele>756</ele>
        <time>2019-05-11T17:51:59Z</time>
      </trkpt>
      <trkpt lat="36.858097076416" lon="-5.1327428817749">
        <ele>756</ele>
        <time>2019-05-11T17:52:01Z</time>
      </trkpt>
      <trkpt lat="36.8581237792969" lon="-5.13274002075195">
        <ele>756</ele>
        <time>2019-05-11T17:52:03Z</time>
      </trkpt>
      <trkpt lat="36.858154296875" lon="-5.13273477554321">
        <ele>756</ele>
        <time>2019-05-11T17:52:05Z</time>
      </trkpt>
      <trkpt lat="36.8581771850586" lon="-5.13272476196289">
        <ele>756</ele>
        <time>2019-05-11T17:52:07Z</time>
      </trkpt>
      <trkpt lat="36.8582038879394" lon="-5.13271188735962">
        <ele>756</ele>
        <time>2019-05-11T17:52:09Z</time>
      </trkpt>
      <trkpt lat="36.8582305908203" lon="-5.13270282745361">
        <ele>756</ele>
        <time>2019-05-11T17:52:11Z</time>
      </trkpt>
      <trkpt lat="36.8582572937012" lon="-5.13269710540772">
        <ele>755</ele>
        <time>2019-05-11T17:52:13Z</time>
      </trkpt>
      <trkpt lat="36.8582878112793" lon="-5.13269710540772">
        <ele>755</ele>
        <time>2019-05-11T17:52:15Z</time>
      </trkpt>
      <trkpt lat="36.8583297729492" lon="-5.13269186019897">
        <ele>755</ele>
        <time>2019-05-11T17:52:17Z</time>
      </trkpt>
      <trkpt lat="36.8583564758301" lon="-5.13268280029297">
        <ele>755</ele>
        <time>2019-05-11T17:52:19Z</time>
      </trkpt>
      <trkpt lat="36.8583831787109" lon="-5.13267517089844">
        <ele>755</ele>
        <time>2019-05-11T17:52:21Z</time>
      </trkpt>
      <trkpt lat="36.8584098815918" lon="-5.13267183303833">
        <ele>755</ele>
        <time>2019-05-11T17:52:23Z</time>
      </trkpt>
      <trkpt lat="36.8584327697754" lon="-5.1326699256897">
        <ele>755</ele>
        <time>2019-05-11T17:52:25Z</time>
      </trkpt>
      <trkpt lat="36.8584594726562" lon="-5.13266515731812">
        <ele>755</ele>
        <time>2019-05-11T17:52:27Z</time>
      </trkpt>
      <trkpt lat="36.8584861755371" lon="-5.13266277313232">
        <ele>755</ele>
        <time>2019-05-11T17:52:30Z</time>
      </trkpt>
      <trkpt lat="36.8585166931152" lon="-5.13265800476074">
        <ele>755</ele>
        <time>2019-05-11T17:52:32Z</time>
      </trkpt>
      <trkpt lat="36.8585472106934" lon="-5.13265514373779">
        <ele>755</ele>
        <time>2019-05-11T17:52:34Z</time>
      </trkpt>
      <trkpt lat="36.8585777282715" lon="-5.13265180587769">
        <ele>755</ele>
        <time>2019-05-11T17:52:36Z</time>
      </trkpt>
      <trkpt lat="36.8586082458496" lon="-5.13264799118042">
        <ele>755</ele>
        <time>2019-05-11T17:52:38Z</time>
      </trkpt>
      <trkpt lat="36.8586387634277" lon="-5.13263988494873">
        <ele>755</ele>
        <time>2019-05-11T17:52:40Z</time>
      </trkpt>
      <trkpt lat="36.8586654663086" lon="-5.13263320922852">
        <ele>755</ele>
        <time>2019-05-11T17:52:42Z</time>
      </trkpt>
      <trkpt lat="36.8586921691894" lon="-5.13262796401978">
        <ele>755</ele>
        <time>2019-05-11T17:52:44Z</time>
      </trkpt>
      <trkpt lat="36.8587188720703" lon="-5.13261985778809">
        <ele>755</ele>
        <time>2019-05-11T17:52:46Z</time>
      </trkpt>
      <trkpt lat="36.8587493896484" lon="-5.13261318206787">
        <ele>755</ele>
        <time>2019-05-11T17:52:48Z</time>
      </trkpt>
      <trkpt lat="36.8587760925293" lon="-5.13260698318481">
        <ele>755</ele>
        <time>2019-05-11T17:52:50Z</time>
      </trkpt>
      <trkpt lat="36.8588027954102" lon="-5.13259983062744">
        <ele>755</ele>
        <time>2019-05-11T17:52:52Z</time>
      </trkpt>
      <trkpt lat="36.8588485717773" lon="-5.13259696960449">
        <ele>755</ele>
        <time>2019-05-11T17:52:54Z</time>
      </trkpt>
      <trkpt lat="36.8588714599609" lon="-5.13259220123291">
        <ele>755</ele>
        <time>2019-05-11T17:52:56Z</time>
      </trkpt>
      <trkpt lat="36.8589019775391" lon="-5.13258790969849">
        <ele>755</ele>
        <time>2019-05-11T17:52:58Z</time>
      </trkpt>
      <trkpt lat="36.8589324951172" lon="-5.13258504867554">
        <ele>755</ele>
        <time>2019-05-11T17:53:00Z</time>
      </trkpt>
      <trkpt lat="36.858959197998" lon="-5.1325798034668">
        <ele>755</ele>
        <time>2019-05-11T17:53:02Z</time>
      </trkpt>
      <trkpt lat="36.8589935302734" lon="-5.13257312774658">
        <ele>755</ele>
        <time>2019-05-11T17:53:05Z</time>
      </trkpt>
      <trkpt lat="36.8590202331543" lon="-5.13256788253784">
        <ele>755</ele>
        <time>2019-05-11T17:53:07Z</time>
      </trkpt>
      <trkpt lat="36.8590507507324" lon="-5.13256216049194">
        <ele>755</ele>
        <time>2019-05-11T17:53:09Z</time>
      </trkpt>
      <trkpt lat="36.8590812683106" lon="-5.13255310058594">
        <ele>755</ele>
        <time>2019-05-11T17:53:11Z</time>
      </trkpt>
      <trkpt lat="36.8591079711914" lon="-5.13254690170288">
        <ele>755</ele>
        <time>2019-05-11T17:53:13Z</time>
      </trkpt>
      <trkpt lat="36.8591346740723" lon="-5.1325421333313">
        <ele>755</ele>
        <time>2019-05-11T17:53:15Z</time>
      </trkpt>
      <trkpt lat="36.8591613769531" lon="-5.13253784179688">
        <ele>755</ele>
        <time>2019-05-11T17:53:17Z</time>
      </trkpt>
      <trkpt lat="36.8591918945312" lon="-5.13253784179688">
        <ele>755</ele>
        <time>2019-05-11T17:53:19Z</time>
      </trkpt>
      <trkpt lat="36.8592185974121" lon="-5.13253784179688">
        <ele>755</ele>
        <time>2019-05-11T17:53:21Z</time>
      </trkpt>
      <trkpt lat="36.8592491149902" lon="-5.13253307342529">
        <ele>755</ele>
        <time>2019-05-11T17:53:23Z</time>
      </trkpt>
      <trkpt lat="36.8592758178711" lon="-5.13252687454224">
        <ele>755</ele>
        <time>2019-05-11T17:53:25Z</time>
      </trkpt>
      <trkpt lat="36.859302520752" lon="-5.13252019882202">
        <ele>755</ele>
        <time>2019-05-11T17:53:27Z</time>
      </trkpt>
      <trkpt lat="36.8593482971191" lon="-5.13251304626465">
        <ele>755</ele>
        <time>2019-05-11T17:53:29Z</time>
      </trkpt>
      <trkpt lat="36.859375" lon="-5.1325101852417">
        <ele>755</ele>
        <time>2019-05-11T17:53:31Z</time>
      </trkpt>
      <trkpt lat="36.8594017028809" lon="-5.13250684738159">
        <ele>755</ele>
        <time>2019-05-11T17:53:33Z</time>
      </trkpt>
      <trkpt lat="36.8594360351562" lon="-5.13250207901001">
        <ele>755</ele>
        <time>2019-05-11T17:53:35Z</time>
      </trkpt>
      <trkpt lat="36.8594627380371" lon="-5.13250017166138">
        <ele>755</ele>
        <time>2019-05-11T17:53:37Z</time>
      </trkpt>
      <trkpt lat="36.859489440918" lon="-5.132493019104">
        <ele>755</ele>
        <time>2019-05-11T17:53:39Z</time>
      </trkpt>
      <trkpt lat="36.8595199584961" lon="-5.13248682022095">
        <ele>755</ele>
        <time>2019-05-11T17:53:41Z</time>
      </trkpt>
      <trkpt lat="36.859546661377" lon="-5.13248300552368">
        <ele>755</ele>
        <time>2019-05-11T17:53:44Z</time>
      </trkpt>
      <trkpt lat="36.8595809936523" lon="-5.1324782371521">
        <ele>755</ele>
        <time>2019-05-11T17:53:46Z</time>
      </trkpt>
      <trkpt lat="36.8596115112305" lon="-5.13247299194336">
        <ele>755</ele>
        <time>2019-05-11T17:53:48Z</time>
      </trkpt>
      <trkpt lat="36.8596382141113" lon="-5.13246297836304">
        <ele>755</ele>
        <time>2019-05-11T17:53:50Z</time>
      </trkpt>
      <trkpt lat="36.8596687316894" lon="-5.13245677947998">
        <ele>755</ele>
        <time>2019-05-11T17:53:52Z</time>
      </trkpt>
      <trkpt lat="36.8596992492676" lon="-5.1324520111084">
        <ele>755</ele>
        <time>2019-05-11T17:53:54Z</time>
      </trkpt>
      <trkpt lat="36.8597259521484" lon="-5.13244199752808">
        <ele>755</ele>
        <time>2019-05-11T17:53:56Z</time>
      </trkpt>
      <trkpt lat="36.8597564697266" lon="-5.1324348449707">
        <ele>755</ele>
        <time>2019-05-11T17:53:58Z</time>
      </trkpt>
      <trkpt lat="36.8597869873047" lon="-5.13242816925049">
        <ele>755</ele>
        <time>2019-05-11T17:54:00Z</time>
      </trkpt>
      <trkpt lat="36.8598175048828" lon="-5.13242483139038">
        <ele>755</ele>
        <time>2019-05-11T17:54:02Z</time>
      </trkpt>
      <trkpt lat="36.8598480224609" lon="-5.13242197036743">
        <ele>755</ele>
        <time>2019-05-11T17:54:04Z</time>
      </trkpt>
      <trkpt lat="36.8598785400391" lon="-5.13241720199585">
        <ele>755</ele>
        <time>2019-05-11T17:54:06Z</time>
      </trkpt>
      <trkpt lat="36.8599052429199" lon="-5.13241291046143">
        <ele>755</ele>
        <time>2019-05-11T17:54:08Z</time>
      </trkpt>
      <trkpt lat="36.8599510192871" lon="-5.13240480422974">
        <ele>755</ele>
        <time>2019-05-11T17:54:10Z</time>
      </trkpt>
      <trkpt lat="36.8599815368652" lon="-5.13240003585815">
        <ele>755</ele>
        <time>2019-05-11T17:54:12Z</time>
      </trkpt>
      <trkpt lat="36.8600120544434" lon="-5.13239288330078">
        <ele>755</ele>
        <time>2019-05-11T17:54:14Z</time>
      </trkpt>
      <trkpt lat="36.8600425720215" lon="-5.13239192962646">
        <ele>755</ele>
        <time>2019-05-11T17:54:16Z</time>
      </trkpt>
      <trkpt lat="36.8600730895996" lon="-5.1323881149292">
        <ele>755</ele>
        <time>2019-05-11T17:54:18Z</time>
      </trkpt>
      <trkpt lat="36.8601036071777" lon="-5.13238286972046">
        <ele>755</ele>
        <time>2019-05-11T17:54:21Z</time>
      </trkpt>
      <trkpt lat="36.8601379394531" lon="-5.13238000869751">
        <ele>755</ele>
        <time>2019-05-11T17:54:23Z</time>
      </trkpt>
      <trkpt lat="36.860164642334" lon="-5.13237476348877">
        <ele>755</ele>
        <time>2019-05-11T17:54:25Z</time>
      </trkpt>
      <trkpt lat="36.8601951599121" lon="-5.13237285614014">
        <ele>755</ele>
        <time>2019-05-11T17:54:27Z</time>
      </trkpt>
      <trkpt lat="36.860221862793" lon="-5.13236999511719">
        <ele>755</ele>
        <time>2019-05-11T17:54:29Z</time>
      </trkpt>
      <trkpt lat="36.8602523803711" lon="-5.13236522674561">
        <ele>755</ele>
        <time>2019-05-11T17:54:31Z</time>
      </trkpt>
      <trkpt lat="36.8602867126465" lon="-5.13236999511719">
        <ele>755</ele>
        <time>2019-05-11T17:54:33Z</time>
      </trkpt>
      <trkpt lat="36.8603172302246" lon="-5.13236713409424">
        <ele>755</ele>
        <time>2019-05-11T17:54:35Z</time>
      </trkpt>
      <trkpt lat="36.8603477478027" lon="-5.13236284255981">
        <ele>755</ele>
        <time>2019-05-11T17:54:37Z</time>
      </trkpt>
      <trkpt lat="36.8603782653809" lon="-5.1323618888855">
        <ele>755</ele>
        <time>2019-05-11T17:54:39Z</time>
      </trkpt>
      <trkpt lat="36.8604011535644" lon="-5.13235712051392">
        <ele>755</ele>
        <time>2019-05-11T17:54:41Z</time>
      </trkpt>
      <trkpt lat="36.8604354858398" lon="-5.13235282897949">
        <ele>755</ele>
        <time>2019-05-11T17:54:43Z</time>
      </trkpt>
      <trkpt lat="36.8604774475098" lon="-5.13234519958496">
        <ele>756</ele>
        <time>2019-05-11T17:54:45Z</time>
      </trkpt>
      <trkpt lat="36.8605117797852" lon="-5.13233995437622">
        <ele>756</ele>
        <time>2019-05-11T17:54:47Z</time>
      </trkpt>
      <trkpt lat="36.8605422973633" lon="-5.13233804702759">
        <ele>756</ele>
        <time>2019-05-11T17:54:49Z</time>
      </trkpt>
      <trkpt lat="36.8605728149414" lon="-5.13233709335327">
        <ele>756</ele>
        <time>2019-05-11T17:54:51Z</time>
      </trkpt>
      <trkpt lat="36.8606033325195" lon="-5.13233518600464">
        <ele>756</ele>
        <time>2019-05-11T17:54:53Z</time>
      </trkpt>
      <trkpt lat="36.8606262207031" lon="-5.1323299407959">
        <ele>756</ele>
        <time>2019-05-11T17:54:55Z</time>
      </trkpt>
      <trkpt lat="36.8606567382812" lon="-5.1323299407959">
        <ele>756</ele>
        <time>2019-05-11T17:54:58Z</time>
      </trkpt>
      <trkpt lat="36.8606872558594" lon="-5.13232517242432">
        <ele>757</ele>
        <time>2019-05-11T17:55:00Z</time>
      </trkpt>
      <trkpt lat="36.8607177734375" lon="-5.13231992721558">
        <ele>757</ele>
        <time>2019-05-11T17:55:02Z</time>
      </trkpt>
      <trkpt lat="36.8607521057129" lon="-5.13231801986694">
        <ele>757</ele>
        <time>2019-05-11T17:55:04Z</time>
      </trkpt>
      <trkpt lat="36.860782623291" lon="-5.13231706619263">
        <ele>757</ele>
        <time>2019-05-11T17:55:06Z</time>
      </trkpt>
      <trkpt lat="36.8608131408691" lon="-5.13231182098389">
        <ele>757</ele>
        <time>2019-05-11T17:55:08Z</time>
      </trkpt>
      <trkpt lat="36.8608436584473" lon="-5.13230800628662">
        <ele>757</ele>
        <time>2019-05-11T17:55:10Z</time>
      </trkpt>
      <trkpt lat="36.8608703613281" lon="-5.13230180740356">
        <ele>757</ele>
        <time>2019-05-11T17:55:12Z</time>
      </trkpt>
      <trkpt lat="36.860897064209" lon="-5.13229322433472">
        <ele>757</ele>
        <time>2019-05-11T17:55:14Z</time>
      </trkpt>
      <trkpt lat="36.8609313964844" lon="-5.13228702545166">
        <ele>757</ele>
        <time>2019-05-11T17:55:16Z</time>
      </trkpt>
      <trkpt lat="36.8609619140625" lon="-5.13227987289429">
        <ele>757</ele>
        <time>2019-05-11T17:55:18Z</time>
      </trkpt>
      <trkpt lat="36.8609962463379" lon="-5.13227796554565">
        <ele>757</ele>
        <time>2019-05-11T17:55:20Z</time>
      </trkpt>
      <trkpt lat="36.861026763916" lon="-5.1322751045227">
        <ele>757</ele>
        <time>2019-05-11T17:55:22Z</time>
      </trkpt>
      <trkpt lat="36.8610687255859" lon="-5.13226985931396">
        <ele>757</ele>
        <time>2019-05-11T17:55:24Z</time>
      </trkpt>
      <trkpt lat="36.8611030578613" lon="-5.13226699829102">
        <ele>757</ele>
        <time>2019-05-11T17:55:26Z</time>
      </trkpt>
      <trkpt lat="36.8611335754394" lon="-5.13226318359375">
        <ele>757</ele>
        <time>2019-05-11T17:55:28Z</time>
      </trkpt>
      <trkpt lat="36.8611679077148" lon="-5.13226222991943">
        <ele>757</ele>
        <time>2019-05-11T17:55:30Z</time>
      </trkpt>
      <trkpt lat="36.861198425293" lon="-5.13226222991943">
        <ele>757</ele>
        <time>2019-05-11T17:55:32Z</time>
      </trkpt>
      <trkpt lat="36.8612289428711" lon="-5.13226222991943">
        <ele>757</ele>
        <time>2019-05-11T17:55:34Z</time>
      </trkpt>
      <trkpt lat="36.8612594604492" lon="-5.13226509094238">
        <ele>757</ele>
        <time>2019-05-11T17:55:37Z</time>
      </trkpt>
      <trkpt lat="36.8612899780273" lon="-5.13226699829102">
        <ele>757</ele>
        <time>2019-05-11T17:55:39Z</time>
      </trkpt>
      <trkpt lat="36.8613166809082" lon="-5.13226509094238">
        <ele>757</ele>
        <time>2019-05-11T17:55:41Z</time>
      </trkpt>
      <trkpt lat="36.8613433837891" lon="-5.13226509094238">
        <ele>757</ele>
        <time>2019-05-11T17:55:43Z</time>
      </trkpt>
      <trkpt lat="36.8613739013672" lon="-5.13226699829102">
        <ele>757</ele>
        <time>2019-05-11T17:55:45Z</time>
      </trkpt>
      <trkpt lat="36.8614044189453" lon="-5.13226985931396">
        <ele>757</ele>
        <time>2019-05-11T17:55:47Z</time>
      </trkpt>
      <trkpt lat="36.8614311218262" lon="-5.1322717666626">
        <ele>757</ele>
        <time>2019-05-11T17:55:49Z</time>
      </trkpt>
      <trkpt lat="36.8614616394043" lon="-5.1322751045227">
        <ele>757</ele>
        <time>2019-05-11T17:55:51Z</time>
      </trkpt>
      <trkpt lat="36.861499786377" lon="-5.13227796554565">
        <ele>757</ele>
        <time>2019-05-11T17:55:53Z</time>
      </trkpt>
      <trkpt lat="36.8615303039551" lon="-5.13227987289429">
        <ele>757</ele>
        <time>2019-05-11T17:55:55Z</time>
      </trkpt>
      <trkpt lat="36.8615608215332" lon="-5.13228321075439">
        <ele>757</ele>
        <time>2019-05-11T17:55:57Z</time>
      </trkpt>
      <trkpt lat="36.8615951538086" lon="-5.13228702545166">
        <ele>757</ele>
        <time>2019-05-11T17:55:59Z</time>
      </trkpt>
      <trkpt lat="36.861629486084" lon="-5.13228797912598">
        <ele>757</ele>
        <time>2019-05-11T17:56:01Z</time>
      </trkpt>
      <trkpt lat="36.8616790771484" lon="-5.13228988647461">
        <ele>757</ele>
        <time>2019-05-11T17:56:03Z</time>
      </trkpt>
      <trkpt lat="36.8617095947266" lon="-5.13228988647461">
        <ele>757</ele>
        <time>2019-05-11T17:56:05Z</time>
      </trkpt>
      <trkpt lat="36.8617401123047" lon="-5.13229179382324">
        <ele>757</ele>
        <time>2019-05-11T17:56:07Z</time>
      </trkpt>
      <trkpt lat="36.8617668151856" lon="-5.13229703903198">
        <ele>757</ele>
        <time>2019-05-11T17:56:09Z</time>
      </trkpt>
      <trkpt lat="36.8617973327637" lon="-5.13230180740356">
        <ele>757</ele>
        <time>2019-05-11T17:56:11Z</time>
      </trkpt>
      <trkpt lat="36.8618278503418" lon="-5.13230323791504">
        <ele>757</ele>
        <time>2019-05-11T17:56:14Z</time>
      </trkpt>
      <trkpt lat="36.8618583679199" lon="-5.13230323791504">
        <ele>757</ele>
        <time>2019-05-11T17:56:16Z</time>
      </trkpt>
      <trkpt lat="36.8618927001953" lon="-5.13230323791504">
        <ele>757</ele>
        <time>2019-05-11T17:56:18Z</time>
      </trkpt>
      <trkpt lat="36.8619232177734" lon="-5.1323070526123">
        <ele>757</ele>
        <time>2019-05-11T17:56:20Z</time>
      </trkpt>
      <trkpt lat="36.8619537353516" lon="-5.1323127746582">
        <ele>757</ele>
        <time>2019-05-11T17:56:22Z</time>
      </trkpt>
      <trkpt lat="36.8619766235352" lon="-5.13232183456421">
        <ele>757</ele>
        <time>2019-05-11T17:56:24Z</time>
      </trkpt>
      <trkpt lat="36.8620109558106" lon="-5.13232803344727">
        <ele>757</ele>
        <time>2019-05-11T17:56:26Z</time>
      </trkpt>
      <trkpt lat="36.8620338439941" lon="-5.13233518600464">
        <ele>757</ele>
        <time>2019-05-11T17:56:28Z</time>
      </trkpt>
      <trkpt lat="36.8620529174805" lon="-5.13233804702759">
        <ele>757</ele>
        <time>2019-05-11T17:56:30Z</time>
      </trkpt>
      <trkpt lat="36.8620681762695" lon="-5.13234281539917">
        <ele>757</ele>
        <time>2019-05-11T17:56:32Z</time>
      </trkpt>
      <trkpt lat="36.8620872497559" lon="-5.13235187530518">
        <ele>757</ele>
        <time>2019-05-11T17:56:34Z</time>
      </trkpt>
      <trkpt lat="36.8621139526367" lon="-5.13235521316528">
        <ele>757</ele>
        <time>2019-05-11T17:56:36Z</time>
      </trkpt>
      <trkpt lat="36.8621444702148" lon="-5.13235807418823">
        <ele>757</ele>
        <time>2019-05-11T17:56:38Z</time>
      </trkpt>
      <trkpt lat="36.8621864318848" lon="-5.13236284255981">
        <ele>757</ele>
        <time>2019-05-11T17:56:40Z</time>
      </trkpt>
      <trkpt lat="36.8622169494629" lon="-5.13236999511719">
        <ele>757</ele>
        <time>2019-05-11T17:56:42Z</time>
      </trkpt>
      <trkpt lat="36.862247467041" lon="-5.13236713409424">
        <ele>757</ele>
        <time>2019-05-11T17:56:44Z</time>
      </trkpt>
      <trkpt lat="36.8622741699219" lon="-5.13237285614014">
        <ele>757</ele>
        <time>2019-05-11T17:56:46Z</time>
      </trkpt>
      <trkpt lat="36.8623008728027" lon="-5.13238286972046">
        <ele>757</ele>
        <time>2019-05-11T17:56:48Z</time>
      </trkpt>
      <trkpt lat="36.8623313903809" lon="-5.13239192962646">
        <ele>757</ele>
        <time>2019-05-11T17:56:51Z</time>
      </trkpt>
      <trkpt lat="36.8623580932617" lon="-5.13240194320679">
        <ele>757</ele>
        <time>2019-05-11T17:56:53Z</time>
      </trkpt>
      <trkpt lat="36.8623847961426" lon="-5.13240718841553">
        <ele>757</ele>
        <time>2019-05-11T17:56:55Z</time>
      </trkpt>
      <trkpt lat="36.8624153137207" lon="-5.13241720199585">
        <ele>757</ele>
        <time>2019-05-11T17:56:57Z</time>
      </trkpt>
      <trkpt lat="36.8624458312988" lon="-5.13242483139038">
        <ele>757</ele>
        <time>2019-05-11T17:56:59Z</time>
      </trkpt>
      <trkpt lat="36.862476348877" lon="-5.13243722915649">
        <ele>757</ele>
        <time>2019-05-11T17:57:01Z</time>
      </trkpt>
      <trkpt lat="36.8625068664551" lon="-5.13244485855103">
        <ele>757</ele>
        <time>2019-05-11T17:57:03Z</time>
      </trkpt>
      <trkpt lat="36.8625373840332" lon="-5.13246011734009">
        <ele>757</ele>
        <time>2019-05-11T17:57:05Z</time>
      </trkpt>
      <trkpt lat="36.8625717163086" lon="-5.13247013092041">
        <ele>757</ele>
        <time>2019-05-11T17:57:07Z</time>
      </trkpt>
      <trkpt lat="36.8625984191894" lon="-5.13248300552368">
        <ele>757</ele>
        <time>2019-05-11T17:57:09Z</time>
      </trkpt>
      <trkpt lat="36.862621307373" lon="-5.13249683380127">
        <ele>757</ele>
        <time>2019-05-11T17:57:11Z</time>
      </trkpt>
      <trkpt lat="36.8626518249512" lon="-5.1325101852417">
        <ele>757</ele>
        <time>2019-05-11T17:57:13Z</time>
      </trkpt>
      <trkpt lat="36.8626937866211" lon="-5.13253211975098">
        <ele>757</ele>
        <time>2019-05-11T17:57:15Z</time>
      </trkpt>
      <trkpt lat="36.862720489502" lon="-5.1325478553772">
        <ele>757</ele>
        <time>2019-05-11T17:57:17Z</time>
      </trkpt>
      <trkpt lat="36.8627510070801" lon="-5.13256311416626">
        <ele>757</ele>
        <time>2019-05-11T17:57:19Z</time>
      </trkpt>
      <trkpt lat="36.8627777099609" lon="-5.1325798034668">
        <ele>757</ele>
        <time>2019-05-11T17:57:21Z</time>
      </trkpt>
      <trkpt lat="36.8628044128418" lon="-5.13259792327881">
        <ele>757</ele>
        <time>2019-05-11T17:57:23Z</time>
      </trkpt>
      <trkpt lat="36.8628311157227" lon="-5.1326150894165">
        <ele>757</ele>
        <time>2019-05-11T17:57:26Z</time>
      </trkpt>
      <trkpt lat="36.8628578186035" lon="-5.13263320922852">
        <ele>757</ele>
        <time>2019-05-11T17:57:28Z</time>
      </trkpt>
      <trkpt lat="36.8628845214844" lon="-5.13264989852905">
        <ele>757</ele>
        <time>2019-05-11T17:57:30Z</time>
      </trkpt>
      <trkpt lat="36.8629112243652" lon="-5.1326699256897">
        <ele>757</ele>
        <time>2019-05-11T17:57:32Z</time>
      </trkpt>
      <trkpt lat="36.8629379272461" lon="-5.13268995285034">
        <ele>757</ele>
        <time>2019-05-11T17:57:34Z</time>
      </trkpt>
      <trkpt lat="36.862964630127" lon="-5.1327052116394">
        <ele>757</ele>
        <time>2019-05-11T17:57:36Z</time>
      </trkpt>
      <trkpt lat="36.8629913330078" lon="-5.13272190093994">
        <ele>757</ele>
        <time>2019-05-11T17:57:38Z</time>
      </trkpt>
      <trkpt lat="36.8630218505859" lon="-5.13274192810059">
        <ele>757</ele>
        <time>2019-05-11T17:57:40Z</time>
      </trkpt>
      <trkpt lat="36.8630523681641" lon="-5.13276290893555">
        <ele>757</ele>
        <time>2019-05-11T17:57:42Z</time>
      </trkpt>
      <trkpt lat="36.8630790710449" lon="-5.13278293609619">
        <ele>757</ele>
        <time>2019-05-11T17:57:44Z</time>
      </trkpt>
      <trkpt lat="36.863109588623" lon="-5.13280296325684">
        <ele>757</ele>
        <time>2019-05-11T17:57:46Z</time>
      </trkpt>
      <trkpt lat="36.8631362915039" lon="-5.13282299041748">
        <ele>757</ele>
        <time>2019-05-11T17:57:48Z</time>
      </trkpt>
      <trkpt lat="36.8631782531738" lon="-5.13285684585571">
        <ele>757</ele>
        <time>2019-05-11T17:57:50Z</time>
      </trkpt>
      <trkpt lat="36.8632011413574" lon="-5.13287687301636">
        <ele>757</ele>
        <time>2019-05-11T17:57:52Z</time>
      </trkpt>
      <trkpt lat="36.8632316589356" lon="-5.13289499282837">
        <ele>757</ele>
        <time>2019-05-11T17:57:54Z</time>
      </trkpt>
      <trkpt lat="36.8632583618164" lon="-5.13291501998901">
        <ele>757</ele>
        <time>2019-05-11T17:57:56Z</time>
      </trkpt>
      <trkpt lat="36.8632850646973" lon="-5.13292980194092">
        <ele>757</ele>
        <time>2019-05-11T17:57:58Z</time>
      </trkpt>
      <trkpt lat="36.8633117675781" lon="-5.13294315338135">
        <ele>757</ele>
        <time>2019-05-11T17:58:00Z</time>
      </trkpt>
      <trkpt lat="36.863338470459" lon="-5.13295698165894">
        <ele>757</ele>
        <time>2019-05-11T17:58:03Z</time>
      </trkpt>
      <trkpt lat="36.8633689880371" lon="-5.13296794891357">
        <ele>757</ele>
        <time>2019-05-11T17:58:05Z</time>
      </trkpt>
      <trkpt lat="36.8633995056152" lon="-5.13298320770264">
        <ele>757</ele>
        <time>2019-05-11T17:58:07Z</time>
      </trkpt>
      <trkpt lat="36.8634262084961" lon="-5.13300323486328">
        <ele>757</ele>
        <time>2019-05-11T17:58:09Z</time>
      </trkpt>
      <trkpt lat="36.863452911377" lon="-5.13302803039551">
        <ele>757</ele>
        <time>2019-05-11T17:58:11Z</time>
      </trkpt>
      <trkpt lat="36.8634757995606" lon="-5.13304996490478">
        <ele>756</ele>
        <time>2019-05-11T17:58:13Z</time>
      </trkpt>
      <trkpt lat="36.8635025024414" lon="-5.13305711746216">
        <ele>756</ele>
        <time>2019-05-11T17:58:15Z</time>
      </trkpt>
      <trkpt lat="36.8635330200195" lon="-5.13307285308838">
        <ele>756</ele>
        <time>2019-05-11T17:58:17Z</time>
      </trkpt>
      <trkpt lat="36.8635597229004" lon="-5.13309001922607">
        <ele>756</ele>
        <time>2019-05-11T17:58:19Z</time>
      </trkpt>
      <trkpt lat="36.8635902404785" lon="-5.13309812545776">
        <ele>756</ele>
        <time>2019-05-11T17:58:21Z</time>
      </trkpt>
      <trkpt lat="36.8636245727539" lon="-5.1331000328064">
        <ele>756</ele>
        <time>2019-05-11T17:58:23Z</time>
      </trkpt>
      <trkpt lat="36.8636589050293" lon="-5.13310718536377">
        <ele>756</ele>
        <time>2019-05-11T17:58:25Z</time>
      </trkpt>
      <trkpt lat="36.8637084960938" lon="-5.13311719894409">
        <ele>756</ele>
        <time>2019-05-11T17:58:27Z</time>
      </trkpt>
      <trkpt lat="36.8637390136719" lon="-5.13312721252441">
        <ele>755</ele>
        <time>2019-05-11T17:58:29Z</time>
      </trkpt>
      <trkpt lat="36.86376953125" lon="-5.13313722610474">
        <ele>755</ele>
        <time>2019-05-11T17:58:31Z</time>
      </trkpt>
      <trkpt lat="36.8638038635254" lon="-5.13314485549927">
        <ele>755</ele>
        <time>2019-05-11T17:58:33Z</time>
      </trkpt>
      <trkpt lat="36.8638343811035" lon="-5.13315486907959">
        <ele>755</ele>
        <time>2019-05-11T17:58:35Z</time>
      </trkpt>
      <trkpt lat="36.8638648986816" lon="-5.13316297531128">
        <ele>755</ele>
        <time>2019-05-11T17:58:38Z</time>
      </trkpt>
      <trkpt lat="36.8638954162598" lon="-5.13317203521728">
        <ele>755</ele>
        <time>2019-05-11T17:58:40Z</time>
      </trkpt>
      <trkpt lat="36.8639259338379" lon="-5.13317680358887">
        <ele>755</ele>
        <time>2019-05-11T17:58:42Z</time>
      </trkpt>
      <trkpt lat="36.8639602661133" lon="-5.13318204879761">
        <ele>755</ele>
        <time>2019-05-11T17:58:44Z</time>
      </trkpt>
      <trkpt lat="36.8639907836914" lon="-5.13318490982056">
        <ele>755</ele>
        <time>2019-05-11T17:58:46Z</time>
      </trkpt>
      <trkpt lat="36.8640213012695" lon="-5.13319683074951">
        <ele>755</ele>
        <time>2019-05-11T17:58:48Z</time>
      </trkpt>
      <trkpt lat="36.8640556335449" lon="-5.13320302963257">
        <ele>755</ele>
        <time>2019-05-11T17:58:50Z</time>
      </trkpt>
      <trkpt lat="36.8640899658203" lon="-5.13320779800415">
        <ele>755</ele>
        <time>2019-05-11T17:58:52Z</time>
      </trkpt>
      <trkpt lat="36.8641242980957" lon="-5.13321304321289">
        <ele>755</ele>
        <time>2019-05-11T17:58:54Z</time>
      </trkpt>
      <trkpt lat="36.8641548156738" lon="-5.13322305679321">
        <ele>755</ele>
        <time>2019-05-11T17:58:56Z</time>
      </trkpt>
      <trkpt lat="36.864185333252" lon="-5.1332368850708">
        <ele>755</ele>
        <time>2019-05-11T17:58:58Z</time>
      </trkpt>
      <trkpt lat="36.8642311096191" lon="-5.13325691223144">
        <ele>755</ele>
        <time>2019-05-11T17:59:00Z</time>
      </trkpt>
      <trkpt lat="36.8642616271973" lon="-5.13326787948608">
        <ele>755</ele>
        <time>2019-05-11T17:59:02Z</time>
      </trkpt>
      <trkpt lat="36.8642883300781" lon="-5.13328313827515">
        <ele>755</ele>
        <time>2019-05-11T17:59:04Z</time>
      </trkpt>
      <trkpt lat="36.8643188476562" lon="-5.13328504562378">
        <ele>755</ele>
        <time>2019-05-11T17:59:06Z</time>
      </trkpt>
      <trkpt lat="36.8643531799316" lon="-5.13329696655273">
        <ele>755</ele>
        <time>2019-05-11T17:59:08Z</time>
      </trkpt>
      <trkpt lat="36.8643798828125" lon="-5.13330698013306">
        <ele>755</ele>
        <time>2019-05-11T17:59:10Z</time>
      </trkpt>
      <trkpt lat="36.8644104003906" lon="-5.1333122253418">
        <ele>755</ele>
        <time>2019-05-11T17:59:13Z</time>
      </trkpt>
      <trkpt lat="36.8644409179688" lon="-5.13331317901611">
        <ele>755</ele>
        <time>2019-05-11T17:59:15Z</time>
      </trkpt>
      <trkpt lat="36.8644714355469" lon="-5.13331699371338">
        <ele>755</ele>
        <time>2019-05-11T17:59:17Z</time>
      </trkpt>
      <trkpt lat="36.8645057678223" lon="-5.13332176208496">
        <ele>755</ele>
        <time>2019-05-11T17:59:19Z</time>
      </trkpt>
      <trkpt lat="36.8645324707031" lon="-5.13333177566528">
        <ele>755</ele>
        <time>2019-05-11T17:59:21Z</time>
      </trkpt>
      <trkpt lat="36.8645629882812" lon="-5.13334178924561">
        <ele>755</ele>
        <time>2019-05-11T17:59:23Z</time>
      </trkpt>
      <trkpt lat="36.8645935058594" lon="-5.1333498954773">
        <ele>755</ele>
        <time>2019-05-11T17:59:25Z</time>
      </trkpt>
      <trkpt lat="36.8646240234375" lon="-5.13335800170898">
        <ele>755</ele>
        <time>2019-05-11T17:59:27Z</time>
      </trkpt>
      <trkpt lat="36.8646545410156" lon="-5.13336801528931">
        <ele>755</ele>
        <time>2019-05-11T17:59:29Z</time>
      </trkpt>
      <trkpt lat="36.8646812438965" lon="-5.13337802886963">
        <ele>755</ele>
        <time>2019-05-11T17:59:31Z</time>
      </trkpt>
      <trkpt lat="36.8647155761719" lon="-5.133385181427">
        <ele>755</ele>
        <time>2019-05-11T17:59:33Z</time>
      </trkpt>
      <trkpt lat="36.86474609375" lon="-5.13339281082153">
        <ele>755</ele>
        <time>2019-05-11T17:59:35Z</time>
      </trkpt>
      <trkpt lat="36.8647918701172" lon="-5.13340282440186">
        <ele>755</ele>
        <time>2019-05-11T17:59:37Z</time>
      </trkpt>
      <trkpt lat="36.8648223876953" lon="-5.13340711593628">
        <ele>755</ele>
        <time>2019-05-11T17:59:39Z</time>
      </trkpt>
      <trkpt lat="36.8648529052734" lon="-5.13340997695923">
        <ele>755</ele>
        <time>2019-05-11T17:59:41Z</time>
      </trkpt>
      <trkpt lat="36.8648834228516" lon="-5.13341522216797">
        <ele>755</ele>
        <time>2019-05-11T17:59:43Z</time>
      </trkpt>
      <trkpt lat="36.8649101257324" lon="-5.13341808319092">
        <ele>755</ele>
        <time>2019-05-11T17:59:45Z</time>
      </trkpt>
      <trkpt lat="36.8649444580078" lon="-5.1334228515625">
        <ele>755</ele>
        <time>2019-05-11T17:59:48Z</time>
      </trkpt>
      <trkpt lat="36.8649711608887" lon="-5.13342714309692">
        <ele>755</ele>
        <time>2019-05-11T17:59:50Z</time>
      </trkpt>
      <trkpt lat="36.8650016784668" lon="-5.13343000411987">
        <ele>755</ele>
        <time>2019-05-11T17:59:52Z</time>
      </trkpt>
      <trkpt lat="36.8650321960449" lon="-5.13343477249146">
        <ele>755</ele>
        <time>2019-05-11T17:59:54Z</time>
      </trkpt>
      <trkpt lat="36.865062713623" lon="-5.13343811035156">
        <ele>755</ele>
        <time>2019-05-11T17:59:56Z</time>
      </trkpt>
      <trkpt lat="36.8650932312012" lon="-5.1334400177002">
        <ele>755</ele>
        <time>2019-05-11T17:59:58Z</time>
      </trkpt>
      <trkpt lat="36.8651237487793" lon="-5.13343811035156">
        <ele>755</ele>
        <time>2019-05-11T18:00:00Z</time>
      </trkpt>
      <trkpt lat="36.8651542663574" lon="-5.1334400177002">
        <ele>755</ele>
        <time>2019-05-11T18:00:02Z</time>
      </trkpt>
      <trkpt lat="36.8651847839356" lon="-5.13344287872314">
        <ele>755</ele>
        <time>2019-05-11T18:00:04Z</time>
      </trkpt>
      <trkpt lat="36.8652153015137" lon="-5.13344478607178">
        <ele>755</ele>
        <time>2019-05-11T18:00:06Z</time>
      </trkpt>
      <trkpt lat="36.8652496337891" lon="-5.13344192504883">
        <ele>755</ele>
        <time>2019-05-11T18:00:08Z</time>
      </trkpt>
      <trkpt lat="36.8652954101562" lon="-5.13343715667725">
        <ele>755</ele>
        <time>2019-05-11T18:00:10Z</time>
      </trkpt>
      <trkpt lat="36.8653297424316" lon="-5.13343715667725">
        <ele>755</ele>
        <time>2019-05-11T18:00:12Z</time>
      </trkpt>
      <trkpt lat="36.8653564453125" lon="-5.13344192504883">
        <ele>755</ele>
        <time>2019-05-11T18:00:14Z</time>
      </trkpt>
      <trkpt lat="36.8653831481934" lon="-5.13344812393188">
        <ele>755</ele>
        <time>2019-05-11T18:00:16Z</time>
      </trkpt>
      <trkpt lat="36.8654136657715" lon="-5.1334547996521">
        <ele>755</ele>
        <time>2019-05-11T18:00:18Z</time>
      </trkpt>
      <trkpt lat="36.8654403686523" lon="-5.13345003128052">
        <ele>755</ele>
        <time>2019-05-11T18:00:20Z</time>
      </trkpt>
      <trkpt lat="36.8654670715332" lon="-5.13344812393188">
        <ele>755</ele>
        <time>2019-05-11T18:00:23Z</time>
      </trkpt>
      <trkpt lat="36.8654937744141" lon="-5.13344192504883">
        <ele>755</ele>
        <time>2019-05-11T18:00:25Z</time>
      </trkpt>
      <trkpt lat="36.8655204772949" lon="-5.13343191146851">
        <ele>755</ele>
        <time>2019-05-11T18:00:27Z</time>
      </trkpt>
      <trkpt lat="36.8655433654785" lon="-5.1334228515625">
        <ele>755</ele>
        <time>2019-05-11T18:00:29Z</time>
      </trkpt>
      <trkpt lat="36.8655662536621" lon="-5.1334171295166">
        <ele>755</ele>
        <time>2019-05-11T18:00:31Z</time>
      </trkpt>
      <trkpt lat="36.8655967712402" lon="-5.1334171295166">
        <ele>755</ele>
        <time>2019-05-11T18:00:33Z</time>
      </trkpt>
      <trkpt lat="36.8656311035156" lon="-5.13341999053955">
        <ele>755</ele>
        <time>2019-05-11T18:00:35Z</time>
      </trkpt>
      <trkpt lat="36.8656616210938" lon="-5.13341808319092">
        <ele>755</ele>
        <time>2019-05-11T18:00:37Z</time>
      </trkpt>
      <trkpt lat="36.8656883239746" lon="-5.13342189788818">
        <ele>755</ele>
        <time>2019-05-11T18:00:39Z</time>
      </trkpt>
      <trkpt lat="36.8657188415527" lon="-5.1334171295166">
        <ele>755</ele>
        <time>2019-05-11T18:00:41Z</time>
      </trkpt>
      <trkpt lat="36.8657493591309" lon="-5.13341188430786">
        <ele>755</ele>
        <time>2019-05-11T18:00:43Z</time>
      </trkpt>
      <trkpt lat="36.865779876709" lon="-5.1334080696106">
        <ele>755</ele>
        <time>2019-05-11T18:00:45Z</time>
      </trkpt>
      <trkpt lat="36.8658218383789" lon="-5.13339996337891">
        <ele>755</ele>
        <time>2019-05-11T18:00:47Z</time>
      </trkpt>
      <trkpt lat="36.865852355957" lon="-5.13339281082153">
        <ele>755</ele>
        <time>2019-05-11T18:00:49Z</time>
      </trkpt>
      <trkpt lat="36.8658790588379" lon="-5.13338708877564">
        <ele>755</ele>
        <time>2019-05-11T18:00:51Z</time>
      </trkpt>
      <trkpt lat="36.8659019470215" lon="-5.13338708877564">
        <ele>755</ele>
        <time>2019-05-11T18:00:53Z</time>
      </trkpt>
      <trkpt lat="36.8659286499023" lon="-5.13338708877564">
        <ele>755</ele>
        <time>2019-05-11T18:00:55Z</time>
      </trkpt>
      <trkpt lat="36.8659515380859" lon="-5.13339185714722">
        <ele>755</ele>
        <time>2019-05-11T18:00:57Z</time>
      </trkpt>
      <trkpt lat="36.8659782409668" lon="-5.13338994979858">
        <ele>755</ele>
        <time>2019-05-11T18:01:00Z</time>
      </trkpt>
      <trkpt lat="36.8660011291504" lon="-5.13339185714722">
        <ele>755</ele>
        <time>2019-05-11T18:01:02Z</time>
      </trkpt>
      <trkpt lat="36.8660316467285" lon="-5.13339185714722">
        <ele>755</ele>
        <time>2019-05-11T18:01:04Z</time>
      </trkpt>
      <trkpt lat="36.8660621643066" lon="-5.13339281082153">
        <ele>755</ele>
        <time>2019-05-11T18:01:06Z</time>
      </trkpt>
      <trkpt lat="36.8660888671875" lon="-5.13339710235596">
        <ele>755</ele>
        <time>2019-05-11T18:01:08Z</time>
      </trkpt>
      <trkpt lat="36.8661193847656" lon="-5.13339996337891">
        <ele>755</ele>
        <time>2019-05-11T18:01:10Z</time>
      </trkpt>
      <trkpt lat="36.8661499023438" lon="-5.13340187072754">
        <ele>755</ele>
        <time>2019-05-11T18:01:12Z</time>
      </trkpt>
      <trkpt lat="36.8661766052246" lon="-5.13340520858765">
        <ele>755</ele>
        <time>2019-05-11T18:01:14Z</time>
      </trkpt>
      <trkpt lat="36.8662033081055" lon="-5.13340520858765">
        <ele>755</ele>
        <time>2019-05-11T18:01:16Z</time>
      </trkpt>
      <trkpt lat="36.8662338256836" lon="-5.13340520858765">
        <ele>755</ele>
        <time>2019-05-11T18:01:18Z</time>
      </trkpt>
      <trkpt lat="36.8662605285644" lon="-5.13340711593628">
        <ele>755</ele>
        <time>2019-05-11T18:01:20Z</time>
      </trkpt>
      <trkpt lat="36.8662948608398" lon="-5.13340520858765">
        <ele>755</ele>
        <time>2019-05-11T18:01:22Z</time>
      </trkpt>
      <trkpt lat="36.866325378418" lon="-5.1334080696106">
        <ele>755</ele>
        <time>2019-05-11T18:01:24Z</time>
      </trkpt>
      <trkpt lat="36.8663558959961" lon="-5.13341188430786">
        <ele>755</ele>
        <time>2019-05-11T18:01:26Z</time>
      </trkpt>
      <trkpt lat="36.8664093017578" lon="-5.13340997695923">
        <ele>755</ele>
        <time>2019-05-11T18:01:28Z</time>
      </trkpt>
      <trkpt lat="36.8664398193359" lon="-5.13341188430786">
        <ele>755</ele>
        <time>2019-05-11T18:01:30Z</time>
      </trkpt>
      <trkpt lat="36.8664741516113" lon="-5.1334080696106">
        <ele>755</ele>
        <time>2019-05-11T18:01:32Z</time>
      </trkpt>
      <trkpt lat="36.8665084838867" lon="-5.13340997695923">
        <ele>755</ele>
        <time>2019-05-11T18:01:34Z</time>
      </trkpt>
      <trkpt lat="36.8665428161621" lon="-5.13340997695923">
        <ele>755</ele>
        <time>2019-05-11T18:01:36Z</time>
      </trkpt>
      <trkpt lat="36.8665733337402" lon="-5.13340711593628">
        <ele>755</ele>
        <time>2019-05-11T18:01:39Z</time>
      </trkpt>
      <trkpt lat="36.8666038513184" lon="-5.13340520858765">
        <ele>755</ele>
        <time>2019-05-11T18:01:41Z</time>
      </trkpt>
      <trkpt lat="36.8666305541992" lon="-5.13340520858765">
        <ele>755</ele>
        <time>2019-05-11T18:01:43Z</time>
      </trkpt>
      <trkpt lat="36.8666610717773" lon="-5.1334080696106">
        <ele>755</ele>
        <time>2019-05-11T18:01:45Z</time>
      </trkpt>
      <trkpt lat="36.8666877746582" lon="-5.13340711593628">
        <ele>755</ele>
        <time>2019-05-11T18:01:47Z</time>
      </trkpt>
      <trkpt lat="36.8667182922363" lon="-5.13340997695923">
        <ele>755</ele>
        <time>2019-05-11T18:01:49Z</time>
      </trkpt>
      <trkpt lat="36.8667488098144" lon="-5.13341283798218">
        <ele>755</ele>
        <time>2019-05-11T18:01:51Z</time>
      </trkpt>
      <trkpt lat="36.8667831420898" lon="-5.1334171295166">
        <ele>755</ele>
        <time>2019-05-11T18:01:53Z</time>
      </trkpt>
      <trkpt lat="36.8668098449707" lon="-5.1334171295166">
        <ele>755</ele>
        <time>2019-05-11T18:01:55Z</time>
      </trkpt>
      <trkpt lat="36.8668403625488" lon="-5.13341522216797">
        <ele>755</ele>
        <time>2019-05-11T18:01:57Z</time>
      </trkpt>
      <trkpt lat="36.8668670654297" lon="-5.1334171295166">
        <ele>755</ele>
        <time>2019-05-11T18:01:59Z</time>
      </trkpt>
      <trkpt lat="36.8668975830078" lon="-5.13341522216797">
        <ele>755</ele>
        <time>2019-05-11T18:02:01Z</time>
      </trkpt>
      <trkpt lat="36.8669281005859" lon="-5.13341522216797">
        <ele>755</ele>
        <time>2019-05-11T18:02:03Z</time>
      </trkpt>
      <trkpt lat="36.8669738769531" lon="-5.13341808319092">
        <ele>755</ele>
        <time>2019-05-11T18:02:05Z</time>
      </trkpt>
      <trkpt lat="36.8670043945312" lon="-5.13341999053955">
        <ele>755</ele>
        <time>2019-05-11T18:02:07Z</time>
      </trkpt>
      <trkpt lat="36.8670310974121" lon="-5.13342189788818">
        <ele>756</ele>
        <time>2019-05-11T18:02:09Z</time>
      </trkpt>
      <trkpt lat="36.8670616149902" lon="-5.13341999053955">
        <ele>756</ele>
        <time>2019-05-11T18:02:11Z</time>
      </trkpt>
      <trkpt lat="36.8670921325684" lon="-5.13341808319092">
        <ele>756</ele>
        <time>2019-05-11T18:02:13Z</time>
      </trkpt>
      <trkpt lat="36.8671226501465" lon="-5.1334228515625">
        <ele>756</ele>
        <time>2019-05-11T18:02:15Z</time>
      </trkpt>
      <trkpt lat="36.8671531677246" lon="-5.1334228515625">
        <ele>756</ele>
        <time>2019-05-11T18:02:18Z</time>
      </trkpt>
      <trkpt lat="36.8671836853027" lon="-5.13342523574829">
        <ele>756</ele>
        <time>2019-05-11T18:02:20Z</time>
      </trkpt>
      <trkpt lat="36.8672142028809" lon="-5.13342809677124">
        <ele>756</ele>
        <time>2019-05-11T18:02:22Z</time>
      </trkpt>
      <trkpt lat="36.867244720459" lon="-5.13343000411987">
        <ele>756</ele>
        <time>2019-05-11T18:02:24Z</time>
      </trkpt>
      <trkpt lat="36.8672752380371" lon="-5.13343191146851">
        <ele>757</ele>
        <time>2019-05-11T18:02:26Z</time>
      </trkpt>
      <trkpt lat="36.8673057556152" lon="-5.13343715667725">
        <ele>757</ele>
        <time>2019-05-11T18:02:28Z</time>
      </trkpt>
      <trkpt lat="36.8673324584961" lon="-5.1334400177002">
        <ele>757</ele>
        <time>2019-05-11T18:02:30Z</time>
      </trkpt>
      <trkpt lat="36.8673667907715" lon="-5.13344717025757">
        <ele>757</ele>
        <time>2019-05-11T18:02:32Z</time>
      </trkpt>
      <trkpt lat="36.8673934936523" lon="-5.13345003128052">
        <ele>757</ele>
        <time>2019-05-11T18:02:34Z</time>
      </trkpt>
      <trkpt lat="36.8674240112305" lon="-5.13345193862915">
        <ele>757</ele>
        <time>2019-05-11T18:02:36Z</time>
      </trkpt>
      <trkpt lat="36.8674583435059" lon="-5.1334547996521">
        <ele>757</ele>
        <time>2019-05-11T18:02:38Z</time>
      </trkpt>
      <trkpt lat="36.867488861084" lon="-5.1334547996521">
        <ele>757</ele>
        <time>2019-05-11T18:02:40Z</time>
      </trkpt>
      <trkpt lat="36.8675193786621" lon="-5.13345003128052">
        <ele>757</ele>
        <time>2019-05-11T18:02:42Z</time>
      </trkpt>
      <trkpt lat="36.8675651550293" lon="-5.1334547996521">
        <ele>757</ele>
        <time>2019-05-11T18:02:44Z</time>
      </trkpt>
      <trkpt lat="36.8675956726074" lon="-5.13345813751221">
        <ele>757</ele>
        <time>2019-05-11T18:02:46Z</time>
      </trkpt>
      <trkpt lat="36.8676261901856" lon="-5.13345813751221">
        <ele>757</ele>
        <time>2019-05-11T18:02:48Z</time>
      </trkpt>
      <trkpt lat="36.8676567077637" lon="-5.1334547996521">
        <ele>757</ele>
        <time>2019-05-11T18:02:50Z</time>
      </trkpt>
      <trkpt lat="36.8676910400391" lon="-5.1334547996521">
        <ele>757</ele>
        <time>2019-05-11T18:02:52Z</time>
      </trkpt>
      <trkpt lat="36.8677177429199" lon="-5.13345193862915">
        <ele>757</ele>
        <time>2019-05-11T18:02:54Z</time>
      </trkpt>
      <trkpt lat="36.867748260498" lon="-5.13344812393188">
        <ele>757</ele>
        <time>2019-05-11T18:02:57Z</time>
      </trkpt>
      <trkpt lat="36.8677787780762" lon="-5.13344287872314">
        <ele>757</ele>
        <time>2019-05-11T18:02:59Z</time>
      </trkpt>
      <trkpt lat="36.8678016662598" lon="-5.13344192504883">
        <ele>757</ele>
        <time>2019-05-11T18:03:01Z</time>
      </trkpt>
      <trkpt lat="36.8678321838379" lon="-5.13344478607178">
        <ele>757</ele>
        <time>2019-05-11T18:03:03Z</time>
      </trkpt>
      <trkpt lat="36.867862701416" lon="-5.13344287872314">
        <ele>757</ele>
        <time>2019-05-11T18:03:05Z</time>
      </trkpt>
      <trkpt lat="36.8678932189941" lon="-5.13344192504883">
        <ele>758</ele>
        <time>2019-05-11T18:03:07Z</time>
      </trkpt>
      <trkpt lat="36.8679237365723" lon="-5.13344478607178">
        <ele>758</ele>
        <time>2019-05-11T18:03:09Z</time>
      </trkpt>
      <trkpt lat="36.8679542541504" lon="-5.13344478607178">
        <ele>758</ele>
        <time>2019-05-11T18:03:11Z</time>
      </trkpt>
      <trkpt lat="36.8679847717285" lon="-5.13344717025757">
        <ele>759</ele>
        <time>2019-05-11T18:03:13Z</time>
      </trkpt>
      <trkpt lat="36.8680152893066" lon="-5.13344812393188">
        <ele>759</ele>
        <time>2019-05-11T18:03:15Z</time>
      </trkpt>
      <trkpt lat="36.8680458068848" lon="-5.13345003128052">
        <ele>759</ele>
        <time>2019-05-11T18:03:17Z</time>
      </trkpt>
      <trkpt lat="36.8680763244629" lon="-5.13345193862915">
        <ele>759</ele>
        <time>2019-05-11T18:03:19Z</time>
      </trkpt>
      <trkpt lat="36.8681221008301" lon="-5.1334547996521">
        <ele>759</ele>
        <time>2019-05-11T18:03:21Z</time>
      </trkpt>
      <trkpt lat="36.8681564331055" lon="-5.13346004486084">
        <ele>759</ele>
        <time>2019-05-11T18:03:23Z</time>
      </trkpt>
      <trkpt lat="36.8681831359863" lon="-5.13346195220947">
        <ele>759</ele>
        <time>2019-05-11T18:03:25Z</time>
      </trkpt>
      <trkpt lat="36.8682136535644" lon="-5.13346719741821">
        <ele>759</ele>
        <time>2019-05-11T18:03:27Z</time>
      </trkpt>
      <trkpt lat="36.8682403564453" lon="-5.13347005844116">
        <ele>759</ele>
        <time>2019-05-11T18:03:29Z</time>
      </trkpt>
      <trkpt lat="36.8682670593262" lon="-5.13346815109253">
        <ele>759</ele>
        <time>2019-05-11T18:03:32Z</time>
      </trkpt>
      <trkpt lat="36.8682975769043" lon="-5.13346481323242">
        <ele>759</ele>
        <time>2019-05-11T18:03:34Z</time>
      </trkpt>
      <trkpt lat="36.8683242797852" lon="-5.13346290588379">
        <ele>759</ele>
        <time>2019-05-11T18:03:36Z</time>
      </trkpt>
      <trkpt lat="36.8683547973633" lon="-5.1334547996521">
        <ele>759</ele>
        <time>2019-05-11T18:03:38Z</time>
      </trkpt>
      <trkpt lat="36.8683815002441" lon="-5.13344717025757">
        <ele>759</ele>
        <time>2019-05-11T18:03:40Z</time>
      </trkpt>
      <trkpt lat="36.868408203125" lon="-5.13344287872314">
        <ele>759</ele>
        <time>2019-05-11T18:03:42Z</time>
      </trkpt>
      <trkpt lat="36.8684387207031" lon="-5.13344287872314">
        <ele>759</ele>
        <time>2019-05-11T18:03:44Z</time>
      </trkpt>
      <trkpt lat="36.8684692382812" lon="-5.13344478607178">
        <ele>759</ele>
        <time>2019-05-11T18:03:46Z</time>
      </trkpt>
      <trkpt lat="36.8685035705566" lon="-5.13344478607178">
        <ele>759</ele>
        <time>2019-05-11T18:03:48Z</time>
      </trkpt>
      <trkpt lat="36.8685264587402" lon="-5.13344717025757">
        <ele>759</ele>
        <time>2019-05-11T18:03:50Z</time>
      </trkpt>
      <trkpt lat="36.8685607910156" lon="-5.13345193862915">
        <ele>759</ele>
        <time>2019-05-11T18:03:52Z</time>
      </trkpt>
      <trkpt lat="36.8685874938965" lon="-5.1334547996521">
        <ele>759</ele>
        <time>2019-05-11T18:03:54Z</time>
      </trkpt>
      <trkpt lat="36.8686218261719" lon="-5.13345718383789">
        <ele>759</ele>
        <time>2019-05-11T18:03:56Z</time>
      </trkpt>
      <trkpt lat="36.8686637878418" lon="-5.13346290588379">
        <ele>759</ele>
        <time>2019-05-11T18:03:58Z</time>
      </trkpt>
      <trkpt lat="36.8686904907227" lon="-5.1334719657898">
        <ele>759</ele>
        <time>2019-05-11T18:04:00Z</time>
      </trkpt>
      <trkpt lat="36.8687210083008" lon="-5.13347721099854">
        <ele>759</ele>
        <time>2019-05-11T18:04:02Z</time>
      </trkpt>
      <trkpt lat="36.868766784668" lon="-5.13348293304443">
        <ele>759</ele>
        <time>2019-05-11T18:04:04Z</time>
      </trkpt>
      <trkpt lat="36.8688087463379" lon="-5.13348722457886">
        <ele>759</ele>
        <time>2019-05-11T18:04:06Z</time>
      </trkpt>
      <trkpt lat="36.8688545227051" lon="-5.13349199295044">
        <ele>759</ele>
        <time>2019-05-11T18:04:09Z</time>
      </trkpt>
      <trkpt lat="36.8689041137695" lon="-5.13349485397339">
        <ele>759</ele>
        <time>2019-05-11T18:04:11Z</time>
      </trkpt>
      <trkpt lat="36.8689498901367" lon="-5.13349723815918">
        <ele>759</ele>
        <time>2019-05-11T18:04:13Z</time>
      </trkpt>
      <trkpt lat="36.8689956665039" lon="-5.13349723815918">
        <ele>759</ele>
        <time>2019-05-11T18:04:15Z</time>
      </trkpt>
      <trkpt lat="36.8690452575684" lon="-5.1334981918335">
        <ele>759</ele>
        <time>2019-05-11T18:04:17Z</time>
      </trkpt>
      <trkpt lat="36.8690872192383" lon="-5.13349485397339">
        <ele>759</ele>
        <time>2019-05-11T18:04:19Z</time>
      </trkpt>
      <trkpt lat="36.8691368103027" lon="-5.13349294662476">
        <ele>759</ele>
        <time>2019-05-11T18:04:21Z</time>
      </trkpt>
      <trkpt lat="36.8691825866699" lon="-5.13348817825317">
        <ele>759</ele>
        <time>2019-05-11T18:04:23Z</time>
      </trkpt>
      <trkpt lat="36.8692283630371" lon="-5.13348293304443">
        <ele>759</ele>
        <time>2019-05-11T18:04:25Z</time>
      </trkpt>
      <trkpt lat="36.869270324707" lon="-5.13347482681274">
        <ele>759</ele>
        <time>2019-05-11T18:04:27Z</time>
      </trkpt>
      <trkpt lat="36.8693161010742" lon="-5.13346719741821">
        <ele>759</ele>
        <time>2019-05-11T18:04:29Z</time>
      </trkpt>
      <trkpt lat="36.8693618774414" lon="-5.13346481323242">
        <ele>759</ele>
        <time>2019-05-11T18:04:31Z</time>
      </trkpt>
      <trkpt lat="36.8694114685059" lon="-5.13346481323242">
        <ele>759</ele>
        <time>2019-05-11T18:04:33Z</time>
      </trkpt>
      <trkpt lat="36.8694534301758" lon="-5.13346290588379">
        <ele>759</ele>
        <time>2019-05-11T18:04:35Z</time>
      </trkpt>
      <trkpt lat="36.8695182800293" lon="-5.13346815109253">
        <ele>759</ele>
        <time>2019-05-11T18:04:37Z</time>
      </trkpt>
      <trkpt lat="36.8695602416992" lon="-5.13345289230347">
        <ele>758</ele>
        <time>2019-05-11T18:04:39Z</time>
      </trkpt>
      <trkpt lat="36.8695983886719" lon="-5.1334400177002">
        <ele>758</ele>
        <time>2019-05-11T18:04:41Z</time>
      </trkpt>
      <trkpt lat="36.8696403503418" lon="-5.13343000411987">
        <ele>758</ele>
        <time>2019-05-11T18:04:43Z</time>
      </trkpt>
      <trkpt lat="36.869686126709" lon="-5.13342189788818">
        <ele>758</ele>
        <time>2019-05-11T18:04:45Z</time>
      </trkpt>
      <trkpt lat="36.8697395324707" lon="-5.13341188430786">
        <ele>758</ele>
        <time>2019-05-11T18:04:48Z</time>
      </trkpt>
      <trkpt lat="36.8697891235352" lon="-5.13340187072754">
        <ele>757</ele>
        <time>2019-05-11T18:04:50Z</time>
      </trkpt>
      <trkpt lat="36.8698387145996" lon="-5.13339710235596">
        <ele>756</ele>
        <time>2019-05-11T18:04:52Z</time>
      </trkpt>
      <trkpt lat="36.8698806762695" lon="-5.13339281082153">
        <ele>756</ele>
        <time>2019-05-11T18:04:54Z</time>
      </trkpt>
      <trkpt lat="36.869930267334" lon="-5.13339185714722">
        <ele>756</ele>
        <time>2019-05-11T18:04:56Z</time>
      </trkpt>
      <trkpt lat="36.8699722290039" lon="-5.13338804244995">
        <ele>756</ele>
        <time>2019-05-11T18:04:58Z</time>
      </trkpt>
      <trkpt lat="36.8700218200684" lon="-5.13338708877564">
        <ele>756</ele>
        <time>2019-05-11T18:05:00Z</time>
      </trkpt>
      <trkpt lat="36.8700675964356" lon="-5.133385181427">
        <ele>756</ele>
        <time>2019-05-11T18:05:02Z</time>
      </trkpt>
      <trkpt lat="36.8701133728027" lon="-5.13337802886963">
        <ele>756</ele>
        <time>2019-05-11T18:05:04Z</time>
      </trkpt>
      <trkpt lat="36.8701629638672" lon="-5.13335990905762">
        <ele>756</ele>
        <time>2019-05-11T18:05:06Z</time>
      </trkpt>
      <trkpt lat="36.8702049255371" lon="-5.13334798812866">
        <ele>756</ele>
        <time>2019-05-11T18:05:08Z</time>
      </trkpt>
      <trkpt lat="36.8702545166016" lon="-5.13332986831665">
        <ele>756</ele>
        <time>2019-05-11T18:05:10Z</time>
      </trkpt>
      <trkpt lat="36.8703231811523" lon="-5.13331317901611">
        <ele>756</ele>
        <time>2019-05-11T18:05:12Z</time>
      </trkpt>
      <trkpt lat="36.8703689575195" lon="-5.13330698013306">
        <ele>756</ele>
        <time>2019-05-11T18:05:14Z</time>
      </trkpt>
      <trkpt lat="36.870418548584" lon="-5.13329982757568">
        <ele>756</ele>
        <time>2019-05-11T18:05:16Z</time>
      </trkpt>
      <trkpt lat="36.8704681396484" lon="-5.1332950592041">
        <ele>756</ele>
        <time>2019-05-11T18:05:18Z</time>
      </trkpt>
      <trkpt lat="36.8705101013184" lon="-5.13328981399536">
        <ele>756</ele>
        <time>2019-05-11T18:05:20Z</time>
      </trkpt>
      <trkpt lat="36.8705596923828" lon="-5.13328313827515">
        <ele>756</ele>
        <time>2019-05-11T18:05:23Z</time>
      </trkpt>
      <trkpt lat="36.87060546875" lon="-5.13327503204346">
        <ele>756</ele>
        <time>2019-05-11T18:05:25Z</time>
      </trkpt>
      <trkpt lat="36.8706512451172" lon="-5.13326501846314">
        <ele>756</ele>
        <time>2019-05-11T18:05:27Z</time>
      </trkpt>
      <trkpt lat="36.8707008361816" lon="-5.13325786590576">
        <ele>756</ele>
        <time>2019-05-11T18:05:29Z</time>
      </trkpt>
      <trkpt lat="36.8707466125488" lon="-5.13325023651123">
        <ele>756</ele>
        <time>2019-05-11T18:05:31Z</time>
      </trkpt>
      <trkpt lat="36.8707885742188" lon="-5.1332368850708">
        <ele>756</ele>
        <time>2019-05-11T18:05:33Z</time>
      </trkpt>
      <trkpt lat="36.8708343505859" lon="-5.13322305679321">
        <ele>756</ele>
        <time>2019-05-11T18:05:35Z</time>
      </trkpt>
      <trkpt lat="36.8708763122559" lon="-5.13321781158447">
        <ele>756</ele>
        <time>2019-05-11T18:05:37Z</time>
      </trkpt>
      <trkpt lat="36.8709259033203" lon="-5.13321781158447">
        <ele>755</ele>
        <time>2019-05-11T18:05:39Z</time>
      </trkpt>
      <trkpt lat="36.8709716796875" lon="-5.13321685791016">
        <ele>755</ele>
        <time>2019-05-11T18:05:41Z</time>
      </trkpt>
      <trkpt lat="36.8710174560547" lon="-5.13321495056152">
        <ele>755</ele>
        <time>2019-05-11T18:05:43Z</time>
      </trkpt>
      <trkpt lat="36.8710632324219" lon="-5.13320779800415">
        <ele>755</ele>
        <time>2019-05-11T18:05:45Z</time>
      </trkpt>
      <trkpt lat="36.8711280822754" lon="-5.13319206237793">
        <ele>755</ele>
        <time>2019-05-11T18:05:47Z</time>
      </trkpt>
      <trkpt lat="36.8711738586426" lon="-5.13318490982056">
        <ele>755</ele>
        <time>2019-05-11T18:05:49Z</time>
      </trkpt>
      <trkpt lat="36.8712158203125" lon="-5.13317680358887">
        <ele>755</ele>
        <time>2019-05-11T18:05:51Z</time>
      </trkpt>
      <trkpt lat="36.8712577819824" lon="-5.1331729888916">
        <ele>755</ele>
        <time>2019-05-11T18:05:53Z</time>
      </trkpt>
      <trkpt lat="36.8713035583496" lon="-5.13316822052002">
        <ele>755</ele>
        <time>2019-05-11T18:05:55Z</time>
      </trkpt>
      <trkpt lat="36.8713455200195" lon="-5.13316202163696">
        <ele>755</ele>
        <time>2019-05-11T18:05:57Z</time>
      </trkpt>
      <trkpt lat="36.8713912963867" lon="-5.13315486907959">
        <ele>755</ele>
        <time>2019-05-11T18:06:00Z</time>
      </trkpt>
      <trkpt lat="36.8714408874512" lon="-5.1331467628479">
        <ele>755</ele>
        <time>2019-05-11T18:06:02Z</time>
      </trkpt>
      <trkpt lat="36.8714828491211" lon="-5.13314008712769">
        <ele>755</ele>
        <time>2019-05-11T18:06:04Z</time>
      </trkpt>
      <trkpt lat="36.8715286254883" lon="-5.13313484191894">
        <ele>755</ele>
        <time>2019-05-11T18:06:06Z</time>
      </trkpt>
      <trkpt lat="36.8715782165527" lon="-5.13312816619873">
        <ele>755</ele>
        <time>2019-05-11T18:06:08Z</time>
      </trkpt>
      <trkpt lat="36.8716239929199" lon="-5.13311815261841">
        <ele>755</ele>
        <time>2019-05-11T18:06:10Z</time>
      </trkpt>
      <trkpt lat="36.8716697692871" lon="-5.13310718536377">
        <ele>755</ele>
        <time>2019-05-11T18:06:12Z</time>
      </trkpt>
      <trkpt lat="36.871711730957" lon="-5.13309717178345">
        <ele>755</ele>
        <time>2019-05-11T18:06:14Z</time>
      </trkpt>
      <trkpt lat="36.8717575073242" lon="-5.13309001922607">
        <ele>754</ele>
        <time>2019-05-11T18:06:16Z</time>
      </trkpt>
      <trkpt lat="36.8718032836914" lon="-5.13308191299438">
        <ele>754</ele>
        <time>2019-05-11T18:06:18Z</time>
      </trkpt>
      <trkpt lat="36.8718490600586" lon="-5.13307189941406">
        <ele>754</ele>
        <time>2019-05-11T18:06:20Z</time>
      </trkpt>
      <trkpt lat="36.871898651123" lon="-5.13305807113647">
        <ele>753</ele>
        <time>2019-05-11T18:06:22Z</time>
      </trkpt>
      <trkpt lat="36.8719787597656" lon="-5.13304710388184">
        <ele>753</ele>
        <time>2019-05-11T18:06:24Z</time>
      </trkpt>
      <trkpt lat="36.8720245361328" lon="-5.13303995132446">
        <ele>753</ele>
        <time>2019-05-11T18:06:26Z</time>
      </trkpt>
      <trkpt lat="36.8720703125" lon="-5.13303184509277">
        <ele>753</ele>
        <time>2019-05-11T18:06:28Z</time>
      </trkpt>
      <trkpt lat="36.8721237182617" lon="-5.13302707672119">
        <ele>753</ele>
        <time>2019-05-11T18:06:30Z</time>
      </trkpt>
      <trkpt lat="36.8721733093262" lon="-5.13302183151245">
        <ele>753</ele>
        <time>2019-05-11T18:06:32Z</time>
      </trkpt>
      <trkpt lat="36.8722267150879" lon="-5.13301992416382">
        <ele>753</ele>
        <time>2019-05-11T18:06:35Z</time>
      </trkpt>
      <trkpt lat="36.8722763061523" lon="-5.13301277160644">
        <ele>753</ele>
        <time>2019-05-11T18:06:37Z</time>
      </trkpt>
      <trkpt lat="36.8723220825195" lon="-5.13300514221191">
        <ele>753</ele>
        <time>2019-05-11T18:06:39Z</time>
      </trkpt>
      <trkpt lat="36.872371673584" lon="-5.13300514221191">
        <ele>751</ele>
        <time>2019-05-11T18:06:41Z</time>
      </trkpt>
      <trkpt lat="36.8724174499512" lon="-5.13299798965454">
        <ele>751</ele>
        <time>2019-05-11T18:06:43Z</time>
      </trkpt>
      <trkpt lat="36.872444152832" lon="-5.13299322128296">
        <ele>751</ele>
        <time>2019-05-11T18:06:45Z</time>
      </trkpt>
      <trkpt lat="36.8724708557129" lon="-5.13298988342285">
        <ele>751</ele>
        <time>2019-05-11T18:06:47Z</time>
      </trkpt>
      <trkpt lat="36.8724975585938" lon="-5.13298511505127">
        <ele>751</ele>
        <time>2019-05-11T18:06:49Z</time>
      </trkpt>
      <trkpt lat="36.8725280761719" lon="-5.13297986984253">
        <ele>751</ele>
        <time>2019-05-11T18:06:51Z</time>
      </trkpt>
      <trkpt lat="36.87255859375" lon="-5.13297700881958">
        <ele>751</ele>
        <time>2019-05-11T18:06:53Z</time>
      </trkpt>
      <trkpt lat="36.8725852966309" lon="-5.13297319412231">
        <ele>751</ele>
        <time>2019-05-11T18:06:55Z</time>
      </trkpt>
      <trkpt lat="36.872615814209" lon="-5.13296794891357">
        <ele>751</ele>
        <time>2019-05-11T18:06:57Z</time>
      </trkpt>
      <trkpt lat="36.8726463317871" lon="-5.13296318054199">
        <ele>751</ele>
        <time>2019-05-11T18:06:59Z</time>
      </trkpt>
      <trkpt lat="36.8726921081543" lon="-5.13296222686768">
        <ele>751</ele>
        <time>2019-05-11T18:07:01Z</time>
      </trkpt>
      <trkpt lat="36.8727226257324" lon="-5.13295793533325">
        <ele>751</ele>
        <time>2019-05-11T18:07:03Z</time>
      </trkpt>
      <trkpt lat="36.8727531433106" lon="-5.1329550743103">
        <ele>751</ele>
        <time>2019-05-11T18:07:05Z</time>
      </trkpt>
      <trkpt lat="36.8727836608887" lon="-5.13295221328735">
        <ele>751</ele>
        <time>2019-05-11T18:07:07Z</time>
      </trkpt>
      <trkpt lat="36.8728103637695" lon="-5.13294792175293">
        <ele>751</ele>
        <time>2019-05-11T18:07:09Z</time>
      </trkpt>
      <trkpt lat="36.8728408813477" lon="-5.13294506072998">
        <ele>751</ele>
        <time>2019-05-11T18:07:11Z</time>
      </trkpt>
      <trkpt lat="36.8728713989258" lon="-5.13293981552124">
        <ele>751</ele>
        <time>2019-05-11T18:07:14Z</time>
      </trkpt>
      <trkpt lat="36.8728981018066" lon="-5.13293695449829">
        <ele>751</ele>
        <time>2019-05-11T18:07:16Z</time>
      </trkpt>
      <trkpt lat="36.8729286193848" lon="-5.13293218612671">
        <ele>751</ele>
        <time>2019-05-11T18:07:18Z</time>
      </trkpt>
      <trkpt lat="36.8729591369629" lon="-5.13292789459228">
        <ele>751</ele>
        <time>2019-05-11T18:07:20Z</time>
      </trkpt>
      <trkpt lat="36.872989654541" lon="-5.1329231262207">
        <ele>751</ele>
        <time>2019-05-11T18:07:22Z</time>
      </trkpt>
      <trkpt lat="36.8730201721191" lon="-5.13291692733765">
        <ele>751</ele>
        <time>2019-05-11T18:07:24Z</time>
      </trkpt>
      <trkpt lat="36.8730506896973" lon="-5.13291311264038">
        <ele>751</ele>
        <time>2019-05-11T18:07:26Z</time>
      </trkpt>
      <trkpt lat="36.8730812072754" lon="-5.13290786743164">
        <ele>751</ele>
        <time>2019-05-11T18:07:28Z</time>
      </trkpt>
      <trkpt lat="36.8731117248535" lon="-5.13290023803711">
        <ele>751</ele>
        <time>2019-05-11T18:07:30Z</time>
      </trkpt>
      <trkpt lat="36.8731384277344" lon="-5.13289308547974">
        <ele>750</ele>
        <time>2019-05-11T18:07:32Z</time>
      </trkpt>
      <trkpt lat="36.8731689453125" lon="-5.13288688659668">
        <ele>750</ele>
        <time>2019-05-11T18:07:34Z</time>
      </trkpt>
      <trkpt lat="36.8731994628906" lon="-5.13287782669067">
        <ele>750</ele>
        <time>2019-05-11T18:07:36Z</time>
      </trkpt>
      <trkpt lat="36.8732452392578" lon="-5.13286304473877">
        <ele>750</ele>
        <time>2019-05-11T18:07:38Z</time>
      </trkpt>
      <trkpt lat="36.8732719421387" lon="-5.13285493850708">
        <ele>750</ele>
        <time>2019-05-11T18:07:40Z</time>
      </trkpt>
      <trkpt lat="36.8732986450195" lon="-5.13284492492676">
        <ele>750</ele>
        <time>2019-05-11T18:07:42Z</time>
      </trkpt>
      <trkpt lat="36.8733291625977" lon="-5.13283491134644">
        <ele>750</ele>
        <time>2019-05-11T18:07:44Z</time>
      </trkpt>
      <trkpt lat="36.8733596801758" lon="-5.13282489776611">
        <ele>750</ele>
        <time>2019-05-11T18:07:46Z</time>
      </trkpt>
      <trkpt lat="36.8733863830566" lon="-5.13281679153442">
        <ele>750</ele>
        <time>2019-05-11T18:07:49Z</time>
      </trkpt>
      <trkpt lat="36.8734092712402" lon="-5.13280487060547">
        <ele>750</ele>
        <time>2019-05-11T18:07:51Z</time>
      </trkpt>
      <trkpt lat="36.8734321594238" lon="-5.13279485702515">
        <ele>750</ele>
        <time>2019-05-11T18:07:53Z</time>
      </trkpt>
      <trkpt lat="36.8734588623047" lon="-5.13278293609619">
        <ele>749</ele>
        <time>2019-05-11T18:07:55Z</time>
      </trkpt>
      <trkpt lat="36.8734855651856" lon="-5.13276815414429">
        <ele>749</ele>
        <time>2019-05-11T18:07:57Z</time>
      </trkpt>
      <trkpt lat="36.8735084533691" lon="-5.13275289535522">
        <ele>749</ele>
        <time>2019-05-11T18:07:59Z</time>
      </trkpt>
      <trkpt lat="36.87353515625" lon="-5.13273811340332">
        <ele>749</ele>
        <time>2019-05-11T18:08:01Z</time>
      </trkpt>
      <trkpt lat="36.8735618591309" lon="-5.13272190093994">
        <ele>748</ele>
        <time>2019-05-11T18:08:03Z</time>
      </trkpt>
      <trkpt lat="36.8735885620117" lon="-5.13270282745361">
        <ele>748</ele>
        <time>2019-05-11T18:08:05Z</time>
      </trkpt>
      <trkpt lat="36.8736152648926" lon="-5.13268518447876">
        <ele>748</ele>
        <time>2019-05-11T18:08:07Z</time>
      </trkpt>
      <trkpt lat="36.8736419677734" lon="-5.13266801834106">
        <ele>748</ele>
        <time>2019-05-11T18:08:09Z</time>
      </trkpt>
      <trkpt lat="36.8736724853516" lon="-5.13264989852905">
        <ele>748</ele>
        <time>2019-05-11T18:08:11Z</time>
      </trkpt>
      <trkpt lat="36.8737106323242" lon="-5.13262701034546">
        <ele>748</ele>
        <time>2019-05-11T18:08:13Z</time>
      </trkpt>
      <trkpt lat="36.8737373352051" lon="-5.13260984420776">
        <ele>748</ele>
        <time>2019-05-11T18:08:15Z</time>
      </trkpt>
      <trkpt lat="36.8737602233887" lon="-5.13259315490723">
        <ele>748</ele>
        <time>2019-05-11T18:08:17Z</time>
      </trkpt>
      <trkpt lat="36.8737869262695" lon="-5.13257789611816">
        <ele>748</ele>
        <time>2019-05-11T18:08:19Z</time>
      </trkpt>
      <trkpt lat="36.8738136291504" lon="-5.13256311416626">
        <ele>748</ele>
        <time>2019-05-11T18:08:21Z</time>
      </trkpt>
      <trkpt lat="36.8738403320312" lon="-5.13254499435425">
        <ele>748</ele>
        <time>2019-05-11T18:08:23Z</time>
      </trkpt>
      <trkpt lat="36.8738708496094" lon="-5.13253307342529">
        <ele>748</ele>
        <time>2019-05-11T18:08:26Z</time>
      </trkpt>
      <trkpt lat="36.8739013671875" lon="-5.1325249671936">
        <ele>748</ele>
        <time>2019-05-11T18:08:28Z</time>
      </trkpt>
      <trkpt lat="36.8739280700684" lon="-5.13251686096191">
        <ele>748</ele>
        <time>2019-05-11T18:08:30Z</time>
      </trkpt>
      <trkpt lat="36.8739585876465" lon="-5.13251209259033">
        <ele>748</ele>
        <time>2019-05-11T18:08:32Z</time>
      </trkpt>
      <trkpt lat="36.8739891052246" lon="-5.13250780105591">
        <ele>748</ele>
        <time>2019-05-11T18:08:34Z</time>
      </trkpt>
      <trkpt lat="36.8740196228027" lon="-5.1325101852417">
        <ele>748</ele>
        <time>2019-05-11T18:08:36Z</time>
      </trkpt>
      <trkpt lat="36.8740501403809" lon="-5.13250494003296">
        <ele>748</ele>
        <time>2019-05-11T18:08:38Z</time>
      </trkpt>
      <trkpt lat="36.874080657959" lon="-5.13250303268433">
        <ele>748</ele>
        <time>2019-05-11T18:08:40Z</time>
      </trkpt>
      <trkpt lat="36.8741111755371" lon="-5.13250303268433">
        <ele>748</ele>
        <time>2019-05-11T18:08:42Z</time>
      </trkpt>
      <trkpt lat="36.8741416931152" lon="-5.13250684738159">
        <ele>748</ele>
        <time>2019-05-11T18:08:44Z</time>
      </trkpt>
      <trkpt lat="36.8741683959961" lon="-5.1325101852417">
        <ele>748</ele>
        <time>2019-05-11T18:08:46Z</time>
      </trkpt>
      <trkpt lat="36.874195098877" lon="-5.13251495361328">
        <ele>748</ele>
        <time>2019-05-11T18:08:48Z</time>
      </trkpt>
      <trkpt lat="36.8742446899414" lon="-5.13252305984497">
        <ele>748</ele>
        <time>2019-05-11T18:08:50Z</time>
      </trkpt>
      <trkpt lat="36.8742713928223" lon="-5.13252687454224">
        <ele>748</ele>
        <time>2019-05-11T18:08:52Z</time>
      </trkpt>
      <trkpt lat="36.8743019104004" lon="-5.13253307342529">
        <ele>748</ele>
        <time>2019-05-11T18:08:54Z</time>
      </trkpt>
      <trkpt lat="36.8743324279785" lon="-5.13253784179688">
        <ele>748</ele>
        <time>2019-05-11T18:08:56Z</time>
      </trkpt>
      <trkpt lat="36.8743629455566" lon="-5.13254499435425">
        <ele>748</ele>
        <time>2019-05-11T18:08:58Z</time>
      </trkpt>
      <trkpt lat="36.8743934631348" lon="-5.13254976272583">
        <ele>748</ele>
        <time>2019-05-11T18:09:01Z</time>
      </trkpt>
      <trkpt lat="36.8744201660156" lon="-5.13255786895752">
        <ele>748</ele>
        <time>2019-05-11T18:09:03Z</time>
      </trkpt>
      <trkpt lat="36.8744468688965" lon="-5.13256692886353">
        <ele>748</ele>
        <time>2019-05-11T18:09:05Z</time>
      </trkpt>
      <trkpt lat="36.8744697570801" lon="-5.13256692886353">
        <ele>748</ele>
        <time>2019-05-11T18:09:07Z</time>
      </trkpt>
      <trkpt lat="36.8744964599609" lon="-5.13257503509522">
        <ele>748</ele>
        <time>2019-05-11T18:09:09Z</time>
      </trkpt>
      <trkpt lat="36.8745231628418" lon="-5.13258218765259">
        <ele>748</ele>
        <time>2019-05-11T18:09:11Z</time>
      </trkpt>
      <trkpt lat="36.8745460510254" lon="-5.1325831413269">
        <ele>748</ele>
        <time>2019-05-11T18:09:13Z</time>
      </trkpt>
      <trkpt lat="36.874568939209" lon="-5.13258504867554">
        <ele>748</ele>
        <time>2019-05-11T18:09:15Z</time>
      </trkpt>
      <trkpt lat="36.8745918273926" lon="-5.13259315490723">
        <ele>748</ele>
        <time>2019-05-11T18:09:17Z</time>
      </trkpt>
      <trkpt lat="36.8746147155762" lon="-5.13259506225586">
        <ele>748</ele>
        <time>2019-05-11T18:09:19Z</time>
      </trkpt>
      <trkpt lat="36.874641418457" lon="-5.13259792327881">
        <ele>748</ele>
        <time>2019-05-11T18:09:21Z</time>
      </trkpt>
      <trkpt lat="36.8746604919434" lon="-5.13260507583618">
        <ele>748</ele>
        <time>2019-05-11T18:09:23Z</time>
      </trkpt>
      <trkpt lat="36.874683380127" lon="-5.13261318206787">
        <ele>748</ele>
        <time>2019-05-11T18:09:25Z</time>
      </trkpt>
      <trkpt lat="36.8747177124023" lon="-5.13262796401978">
        <ele>748</ele>
        <time>2019-05-11T18:09:27Z</time>
      </trkpt>
      <trkpt lat="36.8747329711914" lon="-5.13264799118042">
        <ele>748</ele>
        <time>2019-05-11T18:09:29Z</time>
      </trkpt>
      <trkpt lat="36.8747444152832" lon="-5.13265514373779">
        <ele>748</ele>
        <time>2019-05-11T18:09:31Z</time>
      </trkpt>
      <trkpt lat="36.8747634887695" lon="-5.1326470375061">
        <ele>748</ele>
        <time>2019-05-11T18:09:33Z</time>
      </trkpt>
      <trkpt lat="36.8747863769531" lon="-5.13263702392578">
        <ele>748</ele>
        <time>2019-05-11T18:09:36Z</time>
      </trkpt>
      <trkpt lat="36.8748054504394" lon="-5.13263988494873">
        <ele>748</ele>
        <time>2019-05-11T18:09:38Z</time>
      </trkpt>
      <trkpt lat="36.8748092651367" lon="-5.1326470375061">
        <ele>748</ele>
        <time>2019-05-11T18:09:40Z</time>
      </trkpt>
      <trkpt lat="36.8748092651367" lon="-5.13264989852905">
        <ele>748</ele>
        <time>2019-05-11T18:09:42Z</time>
      </trkpt>
      <trkpt lat="36.8748092651367" lon="-5.13264989852905">
        <ele>748</ele>
        <time>2019-05-11T18:09:44Z</time>
      </trkpt>
      <trkpt lat="36.8748092651367" lon="-5.13264989852905">
        <ele>748</ele>
        <time>2019-05-11T18:09:46Z</time>
      </trkpt>
      <trkpt lat="36.8748054504394" lon="-5.13264989852905">
        <ele>748</ele>
        <time>2019-05-11T18:09:48Z</time>
      </trkpt>
      <trkpt lat="36.8748092651367" lon="-5.13264989852905">
        <ele>748</ele>
        <time>2019-05-11T18:09:50Z</time>
      </trkpt>
      <trkpt lat="36.874813079834" lon="-5.13264799118042">
        <ele>748</ele>
        <time>2019-05-11T18:09:52Z</time>
      </trkpt>
      <trkpt lat="36.8748092651367" lon="-5.13264799118042">
        <ele>748</ele>
        <time>2019-05-11T18:09:54Z</time>
      </trkpt>
      <trkpt lat="36.874813079834" lon="-5.13264989852905">
        <ele>748</ele>
        <time>2019-05-11T18:09:56Z</time>
      </trkpt>
      <trkpt lat="36.874813079834" lon="-5.13264989852905">
        <ele>748</ele>
        <time>2019-05-11T18:09:58Z</time>
      </trkpt>
      <trkpt lat="36.874813079834" lon="-5.13265180587769">
        <ele>748</ele>
        <time>2019-05-11T18:10:00Z</time>
      </trkpt>
      <trkpt lat="36.874813079834" lon="-5.13265180587769">
        <ele>748</ele>
        <time>2019-05-11T18:10:02Z</time>
      </trkpt>
      <trkpt lat="36.874813079834" lon="-5.13264989852905">
        <ele>748</ele>
        <time>2019-05-11T18:10:04Z</time>
      </trkpt>
      <trkpt lat="36.8748092651367" lon="-5.13264989852905">
        <ele>748</ele>
        <time>2019-05-11T18:10:06Z</time>
      </trkpt>
      <trkpt lat="36.874813079834" lon="-5.13265705108643">
        <ele>748</ele>
        <time>2019-05-11T18:10:08Z</time>
      </trkpt>
      <trkpt lat="36.874813079834" lon="-5.13265705108643">
        <ele>748</ele>
        <time>2019-05-11T18:10:10Z</time>
      </trkpt>
      <trkpt lat="36.874813079834" lon="-5.13265800476074">
        <ele>748</ele>
        <time>2019-05-11T18:10:12Z</time>
      </trkpt>
      <trkpt lat="36.874813079834" lon="-5.13265514373779">
        <ele>748</ele>
        <time>2019-05-11T18:10:14Z</time>
      </trkpt>
      <trkpt lat="36.874813079834" lon="-5.13265705108643">
        <ele>748</ele>
        <time>2019-05-11T18:10:16Z</time>
      </trkpt>
      <trkpt lat="36.8748168945312" lon="-5.13265514373779">
        <ele>748</ele>
        <time>2019-05-11T18:10:18Z</time>
      </trkpt>
      <trkpt lat="36.8748168945312" lon="-5.13265705108643">
        <ele>748</ele>
        <time>2019-05-11T18:10:20Z</time>
      </trkpt>
      <trkpt lat="36.8748168945312" lon="-5.13265514373779">
        <ele>748</ele>
        <time>2019-05-11T18:10:22Z</time>
      </trkpt>
      <trkpt lat="36.8748168945312" lon="-5.13265705108643">
        <ele>748</ele>
        <time>2019-05-11T18:10:24Z</time>
      </trkpt>
      <trkpt lat="36.8748168945312" lon="-5.13265800476074">
        <ele>748</ele>
        <time>2019-05-11T18:10:26Z</time>
      </trkpt>
      <trkpt lat="36.8748168945312" lon="-5.13266277313232">
        <ele>748</ele>
        <time>2019-05-11T18:10:28Z</time>
      </trkpt>
      <trkpt lat="36.8748168945312" lon="-5.13266181945801">
        <ele>748</ele>
        <time>2019-05-11T18:10:30Z</time>
      </trkpt>
      <trkpt lat="36.8748207092285" lon="-5.13266277313232">
        <ele>748</ele>
        <time>2019-05-11T18:10:32Z</time>
      </trkpt>
      <trkpt lat="36.8748168945312" lon="-5.13266277313232">
        <ele>748</ele>
        <time>2019-05-11T18:10:34Z</time>
      </trkpt>
      <trkpt lat="36.8748168945312" lon="-5.13266515731812">
        <ele>749</ele>
        <time>2019-05-11T18:10:36Z</time>
      </trkpt>
      <trkpt lat="36.8748207092285" lon="-5.13266515731812">
        <ele>749</ele>
        <time>2019-05-11T18:10:38Z</time>
      </trkpt>
      <trkpt lat="36.8748207092285" lon="-5.13266515731812">
        <ele>749</ele>
        <time>2019-05-11T18:10:41Z</time>
      </trkpt>
      <trkpt lat="36.8748168945312" lon="-5.13265323638916">
        <ele>750</ele>
        <time>2019-05-11T18:10:47Z</time>
      </trkpt>
      <trkpt lat="36.8748207092285" lon="-5.13265514373779">
        <ele>750</ele>
        <time>2019-05-11T18:10:49Z</time>
      </trkpt>
      <trkpt lat="36.8748207092285" lon="-5.13265800476074">
        <ele>750</ele>
        <time>2019-05-11T18:10:51Z</time>
      </trkpt>
      <trkpt lat="36.8748207092285" lon="-5.13266181945801">
        <ele>750</ele>
        <time>2019-05-11T18:10:55Z</time>
      </trkpt>
      <trkpt lat="36.874828338623" lon="-5.13265180587769">
        <ele>750</ele>
        <time>2019-05-11T18:10:59Z</time>
      </trkpt>
      <trkpt lat="36.8748474121094" lon="-5.1326379776001">
        <ele>750</ele>
        <time>2019-05-11T18:11:01Z</time>
      </trkpt>
      <trkpt lat="36.8748664855957" lon="-5.13263320922852">
        <ele>750</ele>
        <time>2019-05-11T18:11:03Z</time>
      </trkpt>
      <trkpt lat="36.874885559082" lon="-5.13262701034546">
        <ele>750</ele>
        <time>2019-05-11T18:11:05Z</time>
      </trkpt>
      <trkpt lat="36.8749122619629" lon="-5.13261795043945">
        <ele>750</ele>
        <time>2019-05-11T18:11:07Z</time>
      </trkpt>
      <trkpt lat="36.8749351501465" lon="-5.1326150894165">
        <ele>750</ele>
        <time>2019-05-11T18:11:09Z</time>
      </trkpt>
      <trkpt lat="36.8749618530273" lon="-5.13261222839356">
        <ele>750</ele>
        <time>2019-05-11T18:11:11Z</time>
      </trkpt>
      <trkpt lat="36.8749961853027" lon="-5.13261318206787">
        <ele>750</ele>
        <time>2019-05-11T18:11:13Z</time>
      </trkpt>
      <trkpt lat="36.8750190734863" lon="-5.13260793685913">
        <ele>750</ele>
        <time>2019-05-11T18:11:15Z</time>
      </trkpt>
      <trkpt lat="36.8750457763672" lon="-5.13259983062744">
        <ele>750</ele>
        <time>2019-05-11T18:11:17Z</time>
      </trkpt>
      <trkpt lat="36.875072479248" lon="-5.13259315490723">
        <ele>750</ele>
        <time>2019-05-11T18:11:19Z</time>
      </trkpt>
      <trkpt lat="36.8750991821289" lon="-5.13259315490723">
        <ele>750</ele>
        <time>2019-05-11T18:11:21Z</time>
      </trkpt>
      <trkpt lat="36.8751258850098" lon="-5.13259220123291">
        <ele>750</ele>
        <time>2019-05-11T18:11:23Z</time>
      </trkpt>
      <trkpt lat="36.8751487731934" lon="-5.13258695602417">
        <ele>750</ele>
        <time>2019-05-11T18:11:26Z</time>
      </trkpt>
      <trkpt lat="36.8751678466797" lon="-5.13258790969849">
        <ele>750</ele>
        <time>2019-05-11T18:11:28Z</time>
      </trkpt>
      <trkpt lat="36.8751678466797" lon="-5.13259220123291">
        <ele>750</ele>
        <time>2019-05-11T18:11:30Z</time>
      </trkpt>
      <trkpt lat="36.875171661377" lon="-5.13258504867554">
        <ele>750</ele>
        <time>2019-05-11T18:11:32Z</time>
      </trkpt>
      <trkpt lat="36.8751792907715" lon="-5.13258504867554">
        <ele>750</ele>
        <time>2019-05-11T18:11:34Z</time>
      </trkpt>
      <trkpt lat="36.8751831054688" lon="-5.13258981704712">
        <ele>750</ele>
        <time>2019-05-11T18:11:36Z</time>
      </trkpt>
      <trkpt lat="36.8751831054688" lon="-5.13258981704712">
        <ele>750</ele>
        <time>2019-05-11T18:11:38Z</time>
      </trkpt>
      <trkpt lat="36.875186920166" lon="-5.13259220123291">
        <ele>750</ele>
        <time>2019-05-11T18:11:40Z</time>
      </trkpt>
      <trkpt lat="36.875186920166" lon="-5.13259220123291">
        <ele>750</ele>
        <time>2019-05-11T18:11:42Z</time>
      </trkpt>
      <trkpt lat="36.8751907348633" lon="-5.13259315490723">
        <ele>750</ele>
        <time>2019-05-11T18:11:44Z</time>
      </trkpt>
      <trkpt lat="36.8751907348633" lon="-5.13259696960449">
        <ele>750</ele>
        <time>2019-05-11T18:11:46Z</time>
      </trkpt>
      <trkpt lat="36.8751945495606" lon="-5.13259983062744">
        <ele>750</ele>
        <time>2019-05-11T18:11:48Z</time>
      </trkpt>
      <trkpt lat="36.8751945495606" lon="-5.13259696960449">
        <ele>750</ele>
        <time>2019-05-11T18:11:50Z</time>
      </trkpt>
      <trkpt lat="36.8751945495606" lon="-5.13259315490723">
        <ele>750</ele>
        <time>2019-05-11T18:11:52Z</time>
      </trkpt>
      <trkpt lat="36.8751983642578" lon="-5.13258981704712">
        <ele>750</ele>
        <time>2019-05-11T18:11:54Z</time>
      </trkpt>
      <trkpt lat="36.8752136230469" lon="-5.13258695602417">
        <ele>750</ele>
        <time>2019-05-11T18:11:56Z</time>
      </trkpt>
      <trkpt lat="36.8752288818359" lon="-5.13258504867554">
        <ele>750</ele>
        <time>2019-05-11T18:11:58Z</time>
      </trkpt>
      <trkpt lat="36.8752479553223" lon="-5.1325831413269">
        <ele>750</ele>
        <time>2019-05-11T18:12:00Z</time>
      </trkpt>
      <trkpt lat="36.8752670288086" lon="-5.13258695602417">
        <ele>750</ele>
        <time>2019-05-11T18:12:02Z</time>
      </trkpt>
      <trkpt lat="36.8752746582031" lon="-5.13258695602417">
        <ele>750</ele>
        <time>2019-05-11T18:12:04Z</time>
      </trkpt>
      <trkpt lat="36.8752822875977" lon="-5.13258695602417">
        <ele>750</ele>
        <time>2019-05-11T18:12:06Z</time>
      </trkpt>
      <trkpt lat="36.8752975463867" lon="-5.13258981704712">
        <ele>750</ele>
        <time>2019-05-11T18:12:08Z</time>
      </trkpt>
      <trkpt lat="36.875301361084" lon="-5.13257789611816">
        <ele>750</ele>
        <time>2019-05-11T18:12:10Z</time>
      </trkpt>
      <trkpt lat="36.875301361084" lon="-5.1325798034668">
        <ele>750</ele>
        <time>2019-05-11T18:12:12Z</time>
      </trkpt>
      <trkpt lat="36.875301361084" lon="-5.1325798034668">
        <ele>750</ele>
        <time>2019-05-11T18:12:15Z</time>
      </trkpt>
      <trkpt lat="36.875301361084" lon="-5.13257694244385">
        <ele>750</ele>
        <time>2019-05-11T18:12:17Z</time>
      </trkpt>
      <trkpt lat="36.875301361084" lon="-5.13257789611816">
        <ele>750</ele>
        <time>2019-05-11T18:12:19Z</time>
      </trkpt>
      <trkpt lat="36.875301361084" lon="-5.13257789611816">
        <ele>750</ele>
        <time>2019-05-11T18:12:21Z</time>
      </trkpt>
      <trkpt lat="36.875301361084" lon="-5.1325798034668">
        <ele>750</ele>
        <time>2019-05-11T18:12:23Z</time>
      </trkpt>
      <trkpt lat="36.8753204345703" lon="-5.13258695602417">
        <ele>750</ele>
        <time>2019-05-11T18:12:25Z</time>
      </trkpt>
      <trkpt lat="36.8753356933594" lon="-5.13258790969849">
        <ele>750</ele>
        <time>2019-05-11T18:12:27Z</time>
      </trkpt>
      <trkpt lat="36.8753433227539" lon="-5.13259792327881">
        <ele>750</ele>
        <time>2019-05-11T18:12:29Z</time>
      </trkpt>
      <trkpt lat="36.8753433227539" lon="-5.13259506225586">
        <ele>750</ele>
        <time>2019-05-11T18:12:31Z</time>
      </trkpt>
      <trkpt lat="36.8753395080566" lon="-5.13259315490723">
        <ele>750</ele>
        <time>2019-05-11T18:12:33Z</time>
      </trkpt>
      <trkpt lat="36.8753433227539" lon="-5.13258981704712">
        <ele>750</ele>
        <time>2019-05-11T18:12:35Z</time>
      </trkpt>
      <trkpt lat="36.8753433227539" lon="-5.13258790969849">
        <ele>750</ele>
        <time>2019-05-11T18:12:37Z</time>
      </trkpt>
      <trkpt lat="36.8753509521484" lon="-5.13259315490723">
        <ele>750</ele>
        <time>2019-05-11T18:12:39Z</time>
      </trkpt>
      <trkpt lat="36.875358581543" lon="-5.13258981704712">
        <ele>750</ele>
        <time>2019-05-11T18:12:41Z</time>
      </trkpt>
      <trkpt lat="36.8753814697266" lon="-5.1325831413269">
        <ele>750</ele>
        <time>2019-05-11T18:12:43Z</time>
      </trkpt>
      <trkpt lat="36.8754081726074" lon="-5.13257503509522">
        <ele>750</ele>
        <time>2019-05-11T18:12:45Z</time>
      </trkpt>
      <trkpt lat="36.875431060791" lon="-5.13257789611816">
        <ele>750</ele>
        <time>2019-05-11T18:12:47Z</time>
      </trkpt>
      <trkpt lat="36.8754463195801" lon="-5.13258695602417">
        <ele>750</ele>
        <time>2019-05-11T18:12:49Z</time>
      </trkpt>
      <trkpt lat="36.8754615783691" lon="-5.13259983062744">
        <ele>750</ele>
        <time>2019-05-11T18:12:51Z</time>
      </trkpt>
      <trkpt lat="36.8754768371582" lon="-5.13261699676514">
        <ele>750</ele>
        <time>2019-05-11T18:12:53Z</time>
      </trkpt>
      <trkpt lat="36.8754768371582" lon="-5.13262987136841">
        <ele>750</ele>
        <time>2019-05-11T18:12:55Z</time>
      </trkpt>
      <trkpt lat="36.8754806518555" lon="-5.13263511657715">
        <ele>750</ele>
        <time>2019-05-11T18:12:58Z</time>
      </trkpt>
      <trkpt lat="36.8754806518555" lon="-5.1326379776001">
        <ele>750</ele>
        <time>2019-05-11T18:13:00Z</time>
      </trkpt>
      <trkpt lat="36.8754768371582" lon="-5.13263988494873">
        <ele>750</ele>
        <time>2019-05-11T18:13:02Z</time>
      </trkpt>
      <trkpt lat="36.8754768371582" lon="-5.13264179229736">
        <ele>750</ele>
        <time>2019-05-11T18:13:04Z</time>
      </trkpt>
      <trkpt lat="36.8754806518555" lon="-5.13264322280884">
        <ele>750</ele>
        <time>2019-05-11T18:13:06Z</time>
      </trkpt>
      <trkpt lat="36.8754806518555" lon="-5.1326470375061">
        <ele>751</ele>
        <time>2019-05-11T18:13:08Z</time>
      </trkpt>
      <trkpt lat="36.8754806518555" lon="-5.13264799118042">
        <ele>751</ele>
        <time>2019-05-11T18:13:10Z</time>
      </trkpt>
      <trkpt lat="36.8754844665527" lon="-5.13265180587769">
        <ele>751</ele>
        <time>2019-05-11T18:13:12Z</time>
      </trkpt>
      <trkpt lat="36.87548828125" lon="-5.13265323638916">
        <ele>751</ele>
        <time>2019-05-11T18:13:14Z</time>
      </trkpt>
      <trkpt lat="36.87548828125" lon="-5.13265514373779">
        <ele>751</ele>
        <time>2019-05-11T18:13:16Z</time>
      </trkpt>
      <trkpt lat="36.8754920959473" lon="-5.13265514373779">
        <ele>751</ele>
        <time>2019-05-11T18:13:18Z</time>
      </trkpt>
      <trkpt lat="36.8754959106445" lon="-5.13265705108643">
        <ele>751</ele>
        <time>2019-05-11T18:13:20Z</time>
      </trkpt>
      <trkpt lat="36.8755035400391" lon="-5.13265800476074">
        <ele>751</ele>
        <time>2019-05-11T18:13:22Z</time>
      </trkpt>
      <trkpt lat="36.8755035400391" lon="-5.13265800476074">
        <ele>751</ele>
        <time>2019-05-11T18:13:24Z</time>
      </trkpt>
      <trkpt lat="36.8755073547363" lon="-5.13265800476074">
        <ele>751</ele>
        <time>2019-05-11T18:13:26Z</time>
      </trkpt>
      <trkpt lat="36.8755111694336" lon="-5.13265800476074">
        <ele>751</ele>
        <time>2019-05-11T18:13:28Z</time>
      </trkpt>
      <trkpt lat="36.8755111694336" lon="-5.13265800476074">
        <ele>751</ele>
        <time>2019-05-11T18:13:30Z</time>
      </trkpt>
      <trkpt lat="36.8755187988281" lon="-5.13265514373779">
        <ele>751</ele>
        <time>2019-05-11T18:13:32Z</time>
      </trkpt>
      <trkpt lat="36.8755111694336" lon="-5.13265180587769">
        <ele>751</ele>
        <time>2019-05-11T18:13:34Z</time>
      </trkpt>
      <trkpt lat="36.8755035400391" lon="-5.1326379776001">
        <ele>751</ele>
        <time>2019-05-11T18:13:36Z</time>
      </trkpt>
      <trkpt lat="36.8754997253418" lon="-5.13262176513672">
        <ele>751</ele>
        <time>2019-05-11T18:13:38Z</time>
      </trkpt>
      <trkpt lat="36.8754997253418" lon="-5.13260221481323">
        <ele>751</ele>
        <time>2019-05-11T18:13:40Z</time>
      </trkpt>
      <trkpt lat="36.8755035400391" lon="-5.13260221481323">
        <ele>751</ele>
        <time>2019-05-11T18:13:42Z</time>
      </trkpt>
      <trkpt lat="36.8755035400391" lon="-5.13259983062744">
        <ele>751</ele>
        <time>2019-05-11T18:13:45Z</time>
      </trkpt>
      <trkpt lat="36.8755035400391" lon="-5.13260221481323">
        <ele>751</ele>
        <time>2019-05-11T18:13:47Z</time>
      </trkpt>
      <trkpt lat="36.8755111694336" lon="-5.13259506225586">
        <ele>751</ele>
        <time>2019-05-11T18:13:49Z</time>
      </trkpt>
      <trkpt lat="36.8755226135254" lon="-5.13258504867554">
        <ele>751</ele>
        <time>2019-05-11T18:13:51Z</time>
      </trkpt>
      <trkpt lat="36.8755378723144" lon="-5.13257694244385">
        <ele>751</ele>
        <time>2019-05-11T18:13:53Z</time>
      </trkpt>
      <trkpt lat="36.8755531311035" lon="-5.13257312774658">
        <ele>751</ele>
        <time>2019-05-11T18:13:55Z</time>
      </trkpt>
      <trkpt lat="36.8755722045898" lon="-5.13257312774658">
        <ele>751</ele>
        <time>2019-05-11T18:13:57Z</time>
      </trkpt>
      <trkpt lat="36.8755912780762" lon="-5.13257217407227">
        <ele>751</ele>
        <time>2019-05-11T18:13:59Z</time>
      </trkpt>
      <trkpt lat="36.8756141662598" lon="-5.13257217407227">
        <ele>751</ele>
        <time>2019-05-11T18:14:01Z</time>
      </trkpt>
      <trkpt lat="36.8756332397461" lon="-5.13257217407227">
        <ele>751</ele>
        <time>2019-05-11T18:14:03Z</time>
      </trkpt>
      <trkpt lat="36.8756561279297" lon="-5.13256978988647">
        <ele>751</ele>
        <time>2019-05-11T18:14:05Z</time>
      </trkpt>
      <trkpt lat="36.8756790161133" lon="-5.13257217407227">
        <ele>751</ele>
        <time>2019-05-11T18:14:07Z</time>
      </trkpt>
      <trkpt lat="36.8757019042969" lon="-5.13256978988647">
        <ele>751</ele>
        <time>2019-05-11T18:14:09Z</time>
      </trkpt>
      <trkpt lat="36.8757286071777" lon="-5.13256788253784">
        <ele>751</ele>
        <time>2019-05-11T18:14:11Z</time>
      </trkpt>
      <trkpt lat="36.8757591247559" lon="-5.13256788253784">
        <ele>751</ele>
        <time>2019-05-11T18:14:13Z</time>
      </trkpt>
      <trkpt lat="36.8757820129394" lon="-5.13256502151489">
        <ele>751</ele>
        <time>2019-05-11T18:14:15Z</time>
      </trkpt>
      <trkpt lat="36.8758087158203" lon="-5.13256502151489">
        <ele>751</ele>
        <time>2019-05-11T18:14:17Z</time>
      </trkpt>
      <trkpt lat="36.8758316040039" lon="-5.13256216049194">
        <ele>751</ele>
        <time>2019-05-11T18:14:19Z</time>
      </trkpt>
      <trkpt lat="36.8758544921875" lon="-5.13256311416626">
        <ele>751</ele>
        <time>2019-05-11T18:14:21Z</time>
      </trkpt>
      <trkpt lat="36.8758811950684" lon="-5.13256311416626">
        <ele>751</ele>
        <time>2019-05-11T18:14:23Z</time>
      </trkpt>
      <trkpt lat="36.875904083252" lon="-5.13255977630615">
        <ele>751</ele>
        <time>2019-05-11T18:14:25Z</time>
      </trkpt>
      <trkpt lat="36.8759307861328" lon="-5.13256216049194">
        <ele>751</ele>
        <time>2019-05-11T18:14:28Z</time>
      </trkpt>
      <trkpt lat="36.8759536743164" lon="-5.13256216049194">
        <ele>751</ele>
        <time>2019-05-11T18:14:30Z</time>
      </trkpt>
      <trkpt lat="36.8759765625" lon="-5.13256216049194">
        <ele>751</ele>
        <time>2019-05-11T18:14:32Z</time>
      </trkpt>
      <trkpt lat="36.8759994506836" lon="-5.13255786895752">
        <ele>752</ele>
        <time>2019-05-11T18:14:34Z</time>
      </trkpt>
      <trkpt lat="36.8760223388672" lon="-5.1325569152832">
        <ele>752</ele>
        <time>2019-05-11T18:14:36Z</time>
      </trkpt>
      <trkpt lat="36.8760452270508" lon="-5.1325569152832">
        <ele>752</ele>
        <time>2019-05-11T18:14:38Z</time>
      </trkpt>
      <trkpt lat="36.8760719299316" lon="-5.13255786895752">
        <ele>752</ele>
        <time>2019-05-11T18:14:40Z</time>
      </trkpt>
      <trkpt lat="36.8760986328125" lon="-5.13255786895752">
        <ele>752</ele>
        <time>2019-05-11T18:14:42Z</time>
      </trkpt>
      <trkpt lat="36.8761215209961" lon="-5.1325569152832">
        <ele>752</ele>
        <time>2019-05-11T18:14:44Z</time>
      </trkpt>
      <trkpt lat="36.8761444091797" lon="-5.1325569152832">
        <ele>752</ele>
        <time>2019-05-11T18:14:46Z</time>
      </trkpt>
      <trkpt lat="36.8761711120606" lon="-5.1325569152832">
        <ele>752</ele>
        <time>2019-05-11T18:14:48Z</time>
      </trkpt>
      <trkpt lat="36.8761940002441" lon="-5.13255977630615">
        <ele>752</ele>
        <time>2019-05-11T18:14:50Z</time>
      </trkpt>
      <trkpt lat="36.876220703125" lon="-5.13255786895752">
        <ele>752</ele>
        <time>2019-05-11T18:14:52Z</time>
      </trkpt>
      <trkpt lat="36.8762474060059" lon="-5.13255786895752">
        <ele>752</ele>
        <time>2019-05-11T18:14:54Z</time>
      </trkpt>
      <trkpt lat="36.8762741088867" lon="-5.13255977630615">
        <ele>752</ele>
        <time>2019-05-11T18:14:56Z</time>
      </trkpt>
      <trkpt lat="36.8763160705566" lon="-5.13255977630615">
        <ele>752</ele>
        <time>2019-05-11T18:14:58Z</time>
      </trkpt>
      <trkpt lat="36.8763427734375" lon="-5.13256216049194">
        <ele>752</ele>
        <time>2019-05-11T18:15:00Z</time>
      </trkpt>
      <trkpt lat="36.8763694763184" lon="-5.13256216049194">
        <ele>752</ele>
        <time>2019-05-11T18:15:02Z</time>
      </trkpt>
      <trkpt lat="36.8763961791992" lon="-5.13256216049194">
        <ele>752</ele>
        <time>2019-05-11T18:15:04Z</time>
      </trkpt>
      <trkpt lat="36.8764228820801" lon="-5.13256216049194">
        <ele>752</ele>
        <time>2019-05-11T18:15:06Z</time>
      </trkpt>
      <trkpt lat="36.8764533996582" lon="-5.13256216049194">
        <ele>752</ele>
        <time>2019-05-11T18:15:08Z</time>
      </trkpt>
      <trkpt lat="36.8764762878418" lon="-5.13255977630615">
        <ele>752</ele>
        <time>2019-05-11T18:15:10Z</time>
      </trkpt>
      <trkpt lat="36.8765068054199" lon="-5.13255977630615">
        <ele>753</ele>
        <time>2019-05-11T18:15:12Z</time>
      </trkpt>
      <trkpt lat="36.8765335083008" lon="-5.13256216049194">
        <ele>753</ele>
        <time>2019-05-11T18:15:14Z</time>
      </trkpt>
      <trkpt lat="36.8765563964844" lon="-5.13256216049194">
        <ele>753</ele>
        <time>2019-05-11T18:15:16Z</time>
      </trkpt>
      <trkpt lat="36.8765830993652" lon="-5.13256311416626">
        <ele>753</ele>
        <time>2019-05-11T18:15:18Z</time>
      </trkpt>
      <trkpt lat="36.8766136169434" lon="-5.13256502151489">
        <ele>753</ele>
        <time>2019-05-11T18:15:21Z</time>
      </trkpt>
      <trkpt lat="36.8766403198242" lon="-5.13256502151489">
        <ele>753</ele>
        <time>2019-05-11T18:15:23Z</time>
      </trkpt>
      <trkpt lat="36.8766708374023" lon="-5.13256692886353">
        <ele>753</ele>
        <time>2019-05-11T18:15:25Z</time>
      </trkpt>
      <trkpt lat="36.8767013549805" lon="-5.13256692886353">
        <ele>754</ele>
        <time>2019-05-11T18:15:27Z</time>
      </trkpt>
      <trkpt lat="36.8767318725586" lon="-5.13256788253784">
        <ele>754</ele>
        <time>2019-05-11T18:15:29Z</time>
      </trkpt>
      <trkpt lat="36.8767585754394" lon="-5.13256788253784">
        <ele>754</ele>
        <time>2019-05-11T18:15:31Z</time>
      </trkpt>
      <trkpt lat="36.8767890930176" lon="-5.13256978988647">
        <ele>754</ele>
        <time>2019-05-11T18:15:33Z</time>
      </trkpt>
      <trkpt lat="36.8768157958984" lon="-5.13257217407227">
        <ele>755</ele>
        <time>2019-05-11T18:15:35Z</time>
      </trkpt>
      <trkpt lat="36.8768424987793" lon="-5.13257312774658">
        <ele>755</ele>
        <time>2019-05-11T18:15:37Z</time>
      </trkpt>
      <trkpt lat="36.8768692016602" lon="-5.13257312774658">
        <ele>755</ele>
        <time>2019-05-11T18:15:39Z</time>
      </trkpt>
      <trkpt lat="36.8768997192383" lon="-5.13257503509522">
        <ele>755</ele>
        <time>2019-05-11T18:15:41Z</time>
      </trkpt>
      <trkpt lat="36.8769264221191" lon="-5.13257789611816">
        <ele>755</ele>
        <time>2019-05-11T18:15:43Z</time>
      </trkpt>
      <trkpt lat="36.8769569396973" lon="-5.1325798034668">
        <ele>755</ele>
        <time>2019-05-11T18:15:45Z</time>
      </trkpt>
      <trkpt lat="36.8769836425781" lon="-5.1325798034668">
        <ele>755</ele>
        <time>2019-05-11T18:15:47Z</time>
      </trkpt>
      <trkpt lat="36.8770141601562" lon="-5.1325798034668">
        <ele>755</ele>
        <time>2019-05-11T18:15:49Z</time>
      </trkpt>
      <trkpt lat="36.8770446777344" lon="-5.13257789611816">
        <ele>755</ele>
        <time>2019-05-11T18:15:51Z</time>
      </trkpt>
      <trkpt lat="36.8770713806152" lon="-5.13257694244385">
        <ele>755</ele>
        <time>2019-05-11T18:15:53Z</time>
      </trkpt>
      <trkpt lat="36.8771018981934" lon="-5.13257312774658">
        <ele>756</ele>
        <time>2019-05-11T18:15:55Z</time>
      </trkpt>
      <trkpt lat="36.877140045166" lon="-5.13257312774658">
        <ele>756</ele>
        <time>2019-05-11T18:15:57Z</time>
      </trkpt>
      <trkpt lat="36.8771667480469" lon="-5.13256978988647">
        <ele>756</ele>
        <time>2019-05-11T18:15:59Z</time>
      </trkpt>
      <trkpt lat="36.8771934509277" lon="-5.13256311416626">
        <ele>756</ele>
        <time>2019-05-11T18:16:01Z</time>
      </trkpt>
      <trkpt lat="36.8772239685059" lon="-5.13255500793457">
        <ele>756</ele>
        <time>2019-05-11T18:16:03Z</time>
      </trkpt>
      <trkpt lat="36.877254486084" lon="-5.13254690170288">
        <ele>756</ele>
        <time>2019-05-11T18:16:05Z</time>
      </trkpt>
      <trkpt lat="36.8772811889648" lon="-5.13254022598267">
        <ele>756</ele>
        <time>2019-05-11T18:16:08Z</time>
      </trkpt>
      <trkpt lat="36.877311706543" lon="-5.13253211975098">
        <ele>756</ele>
        <time>2019-05-11T18:16:10Z</time>
      </trkpt>
      <trkpt lat="36.8773422241211" lon="-5.1325249671936">
        <ele>756</ele>
        <time>2019-05-11T18:16:12Z</time>
      </trkpt>
      <trkpt lat="36.877368927002" lon="-5.13251304626465">
        <ele>756</ele>
        <time>2019-05-11T18:16:14Z</time>
      </trkpt>
      <trkpt lat="36.8773956298828" lon="-5.13250017166138">
        <ele>757</ele>
        <time>2019-05-11T18:16:16Z</time>
      </trkpt>
      <trkpt lat="36.8774261474609" lon="-5.132493019104">
        <ele>757</ele>
        <time>2019-05-11T18:16:18Z</time>
      </trkpt>
      <trkpt lat="36.8774566650391" lon="-5.13248491287231">
        <ele>757</ele>
        <time>2019-05-11T18:16:20Z</time>
      </trkpt>
      <trkpt lat="36.8774833679199" lon="-5.13247680664062">
        <ele>757</ele>
        <time>2019-05-11T18:16:22Z</time>
      </trkpt>
      <trkpt lat="36.877513885498" lon="-5.13246822357178">
        <ele>757</ele>
        <time>2019-05-11T18:16:24Z</time>
      </trkpt>
      <trkpt lat="36.8775444030762" lon="-5.13246202468872">
        <ele>757</ele>
        <time>2019-05-11T18:16:26Z</time>
      </trkpt>
      <trkpt lat="36.877571105957" lon="-5.13245487213135">
        <ele>757</ele>
        <time>2019-05-11T18:16:28Z</time>
      </trkpt>
      <trkpt lat="36.8776016235352" lon="-5.13245010375977">
        <ele>757</ele>
        <time>2019-05-11T18:16:30Z</time>
      </trkpt>
      <trkpt lat="36.8776473999023" lon="-5.13244295120239">
        <ele>757</ele>
        <time>2019-05-11T18:16:32Z</time>
      </trkpt>
      <trkpt lat="36.8776741027832" lon="-5.13244009017944">
        <ele>757</ele>
        <time>2019-05-11T18:16:34Z</time>
      </trkpt>
      <trkpt lat="36.8777046203613" lon="-5.13243722915649">
        <ele>757</ele>
        <time>2019-05-11T18:16:36Z</time>
      </trkpt>
      <trkpt lat="36.8777313232422" lon="-5.13243198394775">
        <ele>757</ele>
        <time>2019-05-11T18:16:38Z</time>
      </trkpt>
      <trkpt lat="36.8777618408203" lon="-5.13242721557617">
        <ele>757</ele>
        <time>2019-05-11T18:16:40Z</time>
      </trkpt>
      <trkpt lat="36.8777961730957" lon="-5.13242483139038">
        <ele>757</ele>
        <time>2019-05-11T18:16:43Z</time>
      </trkpt>
      <trkpt lat="36.8778266906738" lon="-5.1324200630188">
        <ele>757</ele>
        <time>2019-05-11T18:16:45Z</time>
      </trkpt>
      <trkpt lat="36.8778533935547" lon="-5.13241815567017">
        <ele>757</ele>
        <time>2019-05-11T18:16:47Z</time>
      </trkpt>
      <trkpt lat="36.8778839111328" lon="-5.13241481781006">
        <ele>757</ele>
        <time>2019-05-11T18:16:49Z</time>
      </trkpt>
      <trkpt lat="36.8779144287109" lon="-5.13241481781006">
        <ele>757</ele>
        <time>2019-05-11T18:16:51Z</time>
      </trkpt>
      <trkpt lat="36.8779411315918" lon="-5.13241481781006">
        <ele>757</ele>
        <time>2019-05-11T18:16:53Z</time>
      </trkpt>
      <trkpt lat="36.8779640197754" lon="-5.13241291046143">
        <ele>757</ele>
        <time>2019-05-11T18:16:55Z</time>
      </trkpt>
      <trkpt lat="36.8779907226562" lon="-5.13241195678711">
        <ele>757</ele>
        <time>2019-05-11T18:16:57Z</time>
      </trkpt>
      <trkpt lat="36.8780136108398" lon="-5.13241195678711">
        <ele>757</ele>
        <time>2019-05-11T18:16:59Z</time>
      </trkpt>
      <trkpt lat="36.8780403137207" lon="-5.13241291046143">
        <ele>757</ele>
        <time>2019-05-11T18:17:01Z</time>
      </trkpt>
      <trkpt lat="36.8780632019043" lon="-5.13241481781006">
        <ele>757</ele>
        <time>2019-05-11T18:17:03Z</time>
      </trkpt>
      <trkpt lat="36.8780937194824" lon="-5.13241481781006">
        <ele>757</ele>
        <time>2019-05-11T18:17:05Z</time>
      </trkpt>
      <trkpt lat="36.8781204223633" lon="-5.13241720199585">
        <ele>757</ele>
        <time>2019-05-11T18:17:07Z</time>
      </trkpt>
      <trkpt lat="36.8781471252441" lon="-5.13241291046143">
        <ele>757</ele>
        <time>2019-05-11T18:17:09Z</time>
      </trkpt>
      <trkpt lat="36.8781890869141" lon="-5.13241195678711">
        <ele>757</ele>
        <time>2019-05-11T18:17:11Z</time>
      </trkpt>
      <trkpt lat="36.8782157897949" lon="-5.13241481781006">
        <ele>757</ele>
        <time>2019-05-11T18:17:13Z</time>
      </trkpt>
      <trkpt lat="36.8782424926758" lon="-5.13241481781006">
        <ele>757</ele>
        <time>2019-05-11T18:17:15Z</time>
      </trkpt>
      <trkpt lat="36.8782691955566" lon="-5.13241481781006">
        <ele>757</ele>
        <time>2019-05-11T18:17:17Z</time>
      </trkpt>
      <trkpt lat="36.8782997131348" lon="-5.13241720199585">
        <ele>757</ele>
        <time>2019-05-11T18:17:20Z</time>
      </trkpt>
      <trkpt lat="36.8783302307129" lon="-5.13241815567017">
        <ele>757</ele>
        <time>2019-05-11T18:17:22Z</time>
      </trkpt>
      <trkpt lat="36.8783569335938" lon="-5.13241481781006">
        <ele>757</ele>
        <time>2019-05-11T18:17:24Z</time>
      </trkpt>
      <trkpt lat="36.8783874511719" lon="-5.13241720199585">
        <ele>758</ele>
        <time>2019-05-11T18:17:26Z</time>
      </trkpt>
      <trkpt lat="36.87841796875" lon="-5.1324200630188">
        <ele>758</ele>
        <time>2019-05-11T18:17:28Z</time>
      </trkpt>
      <trkpt lat="36.8784484863281" lon="-5.13242292404175">
        <ele>758</ele>
        <time>2019-05-11T18:17:30Z</time>
      </trkpt>
      <trkpt lat="36.8784790039062" lon="-5.13242483139038">
        <ele>758</ele>
        <time>2019-05-11T18:17:32Z</time>
      </trkpt>
      <trkpt lat="36.8785095214844" lon="-5.13242483139038">
        <ele>758</ele>
        <time>2019-05-11T18:17:34Z</time>
      </trkpt>
      <trkpt lat="36.8785438537598" lon="-5.13242721557617">
        <ele>759</ele>
        <time>2019-05-11T18:17:36Z</time>
      </trkpt>
      <trkpt lat="36.8785743713379" lon="-5.13242721557617">
        <ele>759</ele>
        <time>2019-05-11T18:17:38Z</time>
      </trkpt>
      <trkpt lat="36.878604888916" lon="-5.13243198394775">
        <ele>759</ele>
        <time>2019-05-11T18:17:40Z</time>
      </trkpt>
      <trkpt lat="36.8786315917969" lon="-5.13243722915649">
        <ele>759</ele>
        <time>2019-05-11T18:17:42Z</time>
      </trkpt>
      <trkpt lat="36.878662109375" lon="-5.13244009017944">
        <ele>759</ele>
        <time>2019-05-11T18:17:44Z</time>
      </trkpt>
      <trkpt lat="36.8786888122559" lon="-5.13244295120239">
        <ele>759</ele>
        <time>2019-05-11T18:17:46Z</time>
      </trkpt>
      <trkpt lat="36.878734588623" lon="-5.13244819641113">
        <ele>759</ele>
        <time>2019-05-11T18:17:48Z</time>
      </trkpt>
      <trkpt lat="36.8787612915039" lon="-5.1324520111084">
        <ele>759</ele>
        <time>2019-05-11T18:17:50Z</time>
      </trkpt>
      <trkpt lat="36.8788032531738" lon="-5.13246488571167">
        <ele>759</ele>
        <time>2019-05-11T18:17:52Z</time>
      </trkpt>
      <trkpt lat="36.8788452148438" lon="-5.13247013092041">
        <ele>759</ele>
        <time>2019-05-11T18:17:54Z</time>
      </trkpt>
      <trkpt lat="36.8788986206055" lon="-5.13248205184936">
        <ele>759</ele>
        <time>2019-05-11T18:17:56Z</time>
      </trkpt>
      <trkpt lat="36.8789482116699" lon="-5.13248682022095">
        <ele>759</ele>
        <time>2019-05-11T18:17:59Z</time>
      </trkpt>
      <trkpt lat="36.8789978027344" lon="-5.13249015808106">
        <ele>759</ele>
        <time>2019-05-11T18:18:01Z</time>
      </trkpt>
      <trkpt lat="36.8790473937988" lon="-5.13248777389526">
        <ele>759</ele>
        <time>2019-05-11T18:18:03Z</time>
      </trkpt>
      <trkpt lat="36.879093170166" lon="-5.13248682022095">
        <ele>759</ele>
        <time>2019-05-11T18:18:05Z</time>
      </trkpt>
      <trkpt lat="36.8791389465332" lon="-5.13248300552368">
        <ele>759</ele>
        <time>2019-05-11T18:18:07Z</time>
      </trkpt>
      <trkpt lat="36.8791923522949" lon="-5.13248491287231">
        <ele>759</ele>
        <time>2019-05-11T18:18:09Z</time>
      </trkpt>
      <trkpt lat="36.8792381286621" lon="-5.13248491287231">
        <ele>759</ele>
        <time>2019-05-11T18:18:11Z</time>
      </trkpt>
      <trkpt lat="36.8792839050293" lon="-5.13249015808106">
        <ele>759</ele>
        <time>2019-05-11T18:18:13Z</time>
      </trkpt>
      <trkpt lat="36.8793182373047" lon="-5.13248491287231">
        <ele>759</ele>
        <time>2019-05-11T18:18:15Z</time>
      </trkpt>
      <trkpt lat="36.8793716430664" lon="-5.13248205184936">
        <ele>759</ele>
        <time>2019-05-11T18:18:17Z</time>
      </trkpt>
      <trkpt lat="36.8794212341309" lon="-5.13247680664062">
        <ele>759</ele>
        <time>2019-05-11T18:18:19Z</time>
      </trkpt>
      <trkpt lat="36.879467010498" lon="-5.13247489929199">
        <ele>759</ele>
        <time>2019-05-11T18:18:21Z</time>
      </trkpt>
      <trkpt lat="36.8795166015625" lon="-5.13247013092041">
        <ele>759</ele>
        <time>2019-05-11T18:18:23Z</time>
      </trkpt>
      <trkpt lat="36.879566192627" lon="-5.13247203826904">
        <ele>759</ele>
        <time>2019-05-11T18:18:25Z</time>
      </trkpt>
      <trkpt lat="36.8796463012695" lon="-5.13248014450073">
        <ele>759</ele>
        <time>2019-05-11T18:18:27Z</time>
      </trkpt>
      <trkpt lat="36.8796997070312" lon="-5.13248777389526">
        <ele>758</ele>
        <time>2019-05-11T18:18:29Z</time>
      </trkpt>
      <trkpt lat="36.8797454833984" lon="-5.13249683380127">
        <ele>758</ele>
        <time>2019-05-11T18:18:31Z</time>
      </trkpt>
      <trkpt lat="36.8797912597656" lon="-5.13250303268433">
        <ele>758</ele>
        <time>2019-05-11T18:18:33Z</time>
      </trkpt>
      <trkpt lat="36.8798446655273" lon="-5.13251495361328">
        <ele>758</ele>
        <time>2019-05-11T18:18:36Z</time>
      </trkpt>
      <trkpt lat="36.8798866271973" lon="-5.1325249671936">
        <ele>758</ele>
        <time>2019-05-11T18:18:38Z</time>
      </trkpt>
      <trkpt lat="36.8799324035644" lon="-5.13253784179688">
        <ele>758</ele>
        <time>2019-05-11T18:18:40Z</time>
      </trkpt>
      <trkpt lat="36.8799781799316" lon="-5.13255310058594">
        <ele>758</ele>
        <time>2019-05-11T18:18:42Z</time>
      </trkpt>
      <trkpt lat="36.8800239562988" lon="-5.13256788253784">
        <ele>758</ele>
        <time>2019-05-11T18:18:44Z</time>
      </trkpt>
      <trkpt lat="36.8800735473633" lon="-5.13258504867554">
        <ele>758</ele>
        <time>2019-05-11T18:18:46Z</time>
      </trkpt>
      <trkpt lat="36.8801155090332" lon="-5.13260221481323">
        <ele>758</ele>
        <time>2019-05-11T18:18:48Z</time>
      </trkpt>
      <trkpt lat="36.8801612854004" lon="-5.13261985778809">
        <ele>758</ele>
        <time>2019-05-11T18:18:50Z</time>
      </trkpt>
      <trkpt lat="36.8802032470703" lon="-5.13263702392578">
        <ele>758</ele>
        <time>2019-05-11T18:18:52Z</time>
      </trkpt>
      <trkpt lat="36.8802452087402" lon="-5.13265800476074">
        <ele>758</ele>
        <time>2019-05-11T18:18:54Z</time>
      </trkpt>
      <trkpt lat="36.8802833557129" lon="-5.13267993927002">
        <ele>758</ele>
        <time>2019-05-11T18:18:56Z</time>
      </trkpt>
      <trkpt lat="36.8803253173828" lon="-5.13269805908203">
        <ele>758</ele>
        <time>2019-05-11T18:18:58Z</time>
      </trkpt>
      <trkpt lat="36.8803672790527" lon="-5.13271808624268">
        <ele>758</ele>
        <time>2019-05-11T18:19:00Z</time>
      </trkpt>
      <trkpt lat="36.8804092407227" lon="-5.13274717330933">
        <ele>758</ele>
        <time>2019-05-11T18:19:02Z</time>
      </trkpt>
      <trkpt lat="36.8804779052734" lon="-5.13278484344482">
        <ele>758</ele>
        <time>2019-05-11T18:19:04Z</time>
      </trkpt>
      <trkpt lat="36.8805198669434" lon="-5.13281202316284">
        <ele>758</ele>
        <time>2019-05-11T18:19:06Z</time>
      </trkpt>
      <trkpt lat="36.8805618286133" lon="-5.13283777236938">
        <ele>758</ele>
        <time>2019-05-11T18:19:08Z</time>
      </trkpt>
      <trkpt lat="36.8806114196777" lon="-5.13286018371582">
        <ele>758</ele>
        <time>2019-05-11T18:19:10Z</time>
      </trkpt>
      <trkpt lat="36.8806533813477" lon="-5.1328821182251">
        <ele>758</ele>
        <time>2019-05-11T18:19:12Z</time>
      </trkpt>
      <trkpt lat="36.8806953430176" lon="-5.13290786743164">
        <ele>758</ele>
        <time>2019-05-11T18:19:15Z</time>
      </trkpt>
      <trkpt lat="36.880729675293" lon="-5.13292980194092">
        <ele>758</ele>
        <time>2019-05-11T18:19:17Z</time>
      </trkpt>
      <trkpt lat="36.8807640075684" lon="-5.13295984268188">
        <ele>758</ele>
        <time>2019-05-11T18:19:19Z</time>
      </trkpt>
      <trkpt lat="36.8807983398438" lon="-5.13298511505127">
        <ele>758</ele>
        <time>2019-05-11T18:19:21Z</time>
      </trkpt>
      <trkpt lat="36.8808326721191" lon="-5.13300800323486">
        <ele>758</ele>
        <time>2019-05-11T18:19:23Z</time>
      </trkpt>
      <trkpt lat="36.8808631896973" lon="-5.13302993774414">
        <ele>758</ele>
        <time>2019-05-11T18:19:25Z</time>
      </trkpt>
      <trkpt lat="36.8809013366699" lon="-5.13304996490478">
        <ele>758</ele>
        <time>2019-05-11T18:19:27Z</time>
      </trkpt>
      <trkpt lat="36.8809356689453" lon="-5.13307285308838">
        <ele>758</ele>
        <time>2019-05-11T18:19:29Z</time>
      </trkpt>
      <trkpt lat="36.8809585571289" lon="-5.13308715820312">
        <ele>758</ele>
        <time>2019-05-11T18:19:31Z</time>
      </trkpt>
      <trkpt lat="36.8809852600098" lon="-5.13310813903809">
        <ele>758</ele>
        <time>2019-05-11T18:19:33Z</time>
      </trkpt>
      <trkpt lat="36.8810119628906" lon="-5.133131980896">
        <ele>758</ele>
        <time>2019-05-11T18:19:35Z</time>
      </trkpt>
      <trkpt lat="36.8810386657715" lon="-5.13315677642822">
        <ele>758</ele>
        <time>2019-05-11T18:19:37Z</time>
      </trkpt>
      <trkpt lat="36.8810615539551" lon="-5.13318204879761">
        <ele>758</ele>
        <time>2019-05-11T18:19:39Z</time>
      </trkpt>
      <trkpt lat="36.8810997009277" lon="-5.13322019577026">
        <ele>758</ele>
        <time>2019-05-11T18:19:41Z</time>
      </trkpt>
      <trkpt lat="36.8811264038086" lon="-5.13324785232544">
        <ele>757</ele>
        <time>2019-05-11T18:19:43Z</time>
      </trkpt>
      <trkpt lat="36.8811569213867" lon="-5.13328981399536">
        <ele>756</ele>
        <time>2019-05-11T18:19:45Z</time>
      </trkpt>
      <trkpt lat="36.8811836242676" lon="-5.13332796096802">
        <ele>756</ele>
        <time>2019-05-11T18:19:47Z</time>
      </trkpt>
      <trkpt lat="36.8812065124512" lon="-5.13337278366089">
        <ele>756</ele>
        <time>2019-05-11T18:19:50Z</time>
      </trkpt>
      <trkpt lat="36.8812217712402" lon="-5.1334171295166">
        <ele>756</ele>
        <time>2019-05-11T18:19:52Z</time>
      </trkpt>
      <trkpt lat="36.8812484741211" lon="-5.13346195220947">
        <ele>756</ele>
        <time>2019-05-11T18:19:54Z</time>
      </trkpt>
      <trkpt lat="36.8812675476074" lon="-5.13350677490234">
        <ele>756</ele>
        <time>2019-05-11T18:19:56Z</time>
      </trkpt>
      <trkpt lat="36.8812866210938" lon="-5.13355493545532">
        <ele>756</ele>
        <time>2019-05-11T18:19:58Z</time>
      </trkpt>
      <trkpt lat="36.8813095092773" lon="-5.13360500335693">
        <ele>756</ele>
        <time>2019-05-11T18:20:00Z</time>
      </trkpt>
      <trkpt lat="36.8813285827637" lon="-5.13365793228149">
        <ele>756</ele>
        <time>2019-05-11T18:20:02Z</time>
      </trkpt>
      <trkpt lat="36.8813514709473" lon="-5.13370800018311">
        <ele>756</ele>
        <time>2019-05-11T18:20:04Z</time>
      </trkpt>
      <trkpt lat="36.8813743591309" lon="-5.13376712799072">
        <ele>756</ele>
        <time>2019-05-11T18:20:06Z</time>
      </trkpt>
      <trkpt lat="36.8813934326172" lon="-5.13382196426392">
        <ele>756</ele>
        <time>2019-05-11T18:20:08Z</time>
      </trkpt>
      <trkpt lat="36.881404876709" lon="-5.13387298583984">
        <ele>756</ele>
        <time>2019-05-11T18:20:10Z</time>
      </trkpt>
      <trkpt lat="36.8814125061035" lon="-5.1339168548584">
        <ele>756</ele>
        <time>2019-05-11T18:20:12Z</time>
      </trkpt>
      <trkpt lat="36.8814277648926" lon="-5.13396501541138">
        <ele>755</ele>
        <time>2019-05-11T18:20:14Z</time>
      </trkpt>
      <trkpt lat="36.8814582824707" lon="-5.13403797149658">
        <ele>755</ele>
        <time>2019-05-11T18:20:16Z</time>
      </trkpt>
      <trkpt lat="36.8814811706543" lon="-5.13409185409546">
        <ele>754</ele>
        <time>2019-05-11T18:20:18Z</time>
      </trkpt>
      <trkpt lat="36.8815078735352" lon="-5.13414287567139">
        <ele>753</ele>
        <time>2019-05-11T18:20:20Z</time>
      </trkpt>
      <trkpt lat="36.8815307617188" lon="-5.13419008255005">
        <ele>752</ele>
        <time>2019-05-11T18:20:22Z</time>
      </trkpt>
      <trkpt lat="36.8815536499023" lon="-5.13424777984619">
        <ele>751</ele>
        <time>2019-05-11T18:20:25Z</time>
      </trkpt>
      <trkpt lat="36.8815765380859" lon="-5.13430309295654">
        <ele>751</ele>
        <time>2019-05-11T18:20:27Z</time>
      </trkpt>
      <trkpt lat="36.8815994262695" lon="-5.13435983657837">
        <ele>751</ele>
        <time>2019-05-11T18:20:29Z</time>
      </trkpt>
      <trkpt lat="36.8816223144531" lon="-5.13441514968872">
        <ele>750</ele>
        <time>2019-05-11T18:20:31Z</time>
      </trkpt>
      <trkpt lat="36.881649017334" lon="-5.13447189331055">
        <ele>750</ele>
        <time>2019-05-11T18:20:33Z</time>
      </trkpt>
      <trkpt lat="36.8816719055176" lon="-5.13452816009522">
        <ele>750</ele>
        <time>2019-05-11T18:20:35Z</time>
      </trkpt>
      <trkpt lat="36.8816909790039" lon="-5.13458299636841">
        <ele>750</ele>
        <time>2019-05-11T18:20:37Z</time>
      </trkpt>
      <trkpt lat="36.881706237793" lon="-5.13464307785034">
        <ele>749</ele>
        <time>2019-05-11T18:20:39Z</time>
      </trkpt>
      <trkpt lat="36.881721496582" lon="-5.13469791412354">
        <ele>749</ele>
        <time>2019-05-11T18:20:41Z</time>
      </trkpt>
      <trkpt lat="36.8817367553711" lon="-5.13474988937378">
        <ele>749</ele>
        <time>2019-05-11T18:20:43Z</time>
      </trkpt>
      <trkpt lat="36.8817558288574" lon="-5.13479280471802">
        <ele>749</ele>
        <time>2019-05-11T18:20:45Z</time>
      </trkpt>
      <trkpt lat="36.8817710876465" lon="-5.13485479354858">
        <ele>749</ele>
        <time>2019-05-11T18:20:47Z</time>
      </trkpt>
      <trkpt lat="36.8817825317383" lon="-5.1349081993103">
        <ele>749</ele>
        <time>2019-05-11T18:20:49Z</time>
      </trkpt>
      <trkpt lat="36.8818092346191" lon="-5.1349630355835">
        <ele>749</ele>
        <time>2019-05-11T18:20:51Z</time>
      </trkpt>
      <trkpt lat="36.8818435668945" lon="-5.13504314422607">
        <ele>749</ele>
        <time>2019-05-11T18:20:53Z</time>
      </trkpt>
      <trkpt lat="36.8818664550781" lon="-5.13509798049927">
        <ele>749</ele>
        <time>2019-05-11T18:20:55Z</time>
      </trkpt>
      <trkpt lat="36.8818893432617" lon="-5.13515186309814">
        <ele>748</ele>
        <time>2019-05-11T18:20:57Z</time>
      </trkpt>
      <trkpt lat="36.881908416748" lon="-5.13520193099976">
        <ele>748</ele>
        <time>2019-05-11T18:20:59Z</time>
      </trkpt>
      <trkpt lat="36.8819351196289" lon="-5.13525295257568">
        <ele>746</ele>
        <time>2019-05-11T18:21:02Z</time>
      </trkpt>
      <trkpt lat="36.8819694519043" lon="-5.13530683517456">
        <ele>746</ele>
        <time>2019-05-11T18:21:04Z</time>
      </trkpt>
      <trkpt lat="36.8819923400879" lon="-5.13536214828491">
        <ele>746</ele>
        <time>2019-05-11T18:21:06Z</time>
      </trkpt>
      <trkpt lat="36.8820190429688" lon="-5.13541698455811">
        <ele>746</ele>
        <time>2019-05-11T18:21:08Z</time>
      </trkpt>
      <trkpt lat="36.8820457458496" lon="-5.13546705245972">
        <ele>746</ele>
        <time>2019-05-11T18:21:10Z</time>
      </trkpt>
      <trkpt lat="36.8820686340332" lon="-5.13551807403564">
        <ele>745</ele>
        <time>2019-05-11T18:21:12Z</time>
      </trkpt>
      <trkpt lat="36.8820915222168" lon="-5.13557291030884">
        <ele>745</ele>
        <time>2019-05-11T18:21:14Z</time>
      </trkpt>
      <trkpt lat="36.8821105957031" lon="-5.13562488555908">
        <ele>745</ele>
        <time>2019-05-11T18:21:16Z</time>
      </trkpt>
      <trkpt lat="36.8821334838867" lon="-5.13567304611206">
        <ele>745</ele>
        <time>2019-05-11T18:21:18Z</time>
      </trkpt>
      <trkpt lat="36.8821601867676" lon="-5.13571500778198">
        <ele>745</ele>
        <time>2019-05-11T18:21:20Z</time>
      </trkpt>
      <trkpt lat="36.8821868896484" lon="-5.1357569694519">
        <ele>745</ele>
        <time>2019-05-11T18:21:22Z</time>
      </trkpt>
      <trkpt lat="36.8822174072266" lon="-5.13580322265625">
        <ele>744</ele>
        <time>2019-05-11T18:21:24Z</time>
      </trkpt>
      <trkpt lat="36.882251739502" lon="-5.13584518432617">
        <ele>744</ele>
        <time>2019-05-11T18:21:26Z</time>
      </trkpt>
      <trkpt lat="36.8822937011719" lon="-5.13591194152832">
        <ele>743</ele>
        <time>2019-05-11T18:21:28Z</time>
      </trkpt>
      <trkpt lat="36.88232421875" lon="-5.13595676422119">
        <ele>743</ele>
        <time>2019-05-11T18:21:30Z</time>
      </trkpt>
      <trkpt lat="36.8823547363281" lon="-5.13600015640259">
        <ele>743</ele>
        <time>2019-05-11T18:21:32Z</time>
      </trkpt>
      <trkpt lat="36.8823890686035" lon="-5.13604307174683">
        <ele>743</ele>
        <time>2019-05-11T18:21:34Z</time>
      </trkpt>
      <trkpt lat="36.8824195861816" lon="-5.13608312606812">
        <ele>741</ele>
        <time>2019-05-11T18:21:37Z</time>
      </trkpt>
      <trkpt lat="36.882453918457" lon="-5.13611793518066">
        <ele>741</ele>
        <time>2019-05-11T18:21:39Z</time>
      </trkpt>
      <trkpt lat="36.8824882507324" lon="-5.13615989685059">
        <ele>741</ele>
        <time>2019-05-11T18:21:41Z</time>
      </trkpt>
      <trkpt lat="36.8825187683106" lon="-5.13620805740356">
        <ele>741</ele>
        <time>2019-05-11T18:21:43Z</time>
      </trkpt>
      <trkpt lat="36.8825531005859" lon="-5.13625288009644">
        <ele>740</ele>
        <time>2019-05-11T18:21:45Z</time>
      </trkpt>
      <trkpt lat="36.8825874328613" lon="-5.13629722595215">
        <ele>739</ele>
        <time>2019-05-11T18:21:47Z</time>
      </trkpt>
      <trkpt lat="36.882625579834" lon="-5.13633823394775">
        <ele>739</ele>
        <time>2019-05-11T18:21:49Z</time>
      </trkpt>
      <trkpt lat="36.8826637268066" lon="-5.13638305664062">
        <ele>739</ele>
        <time>2019-05-11T18:21:51Z</time>
      </trkpt>
      <trkpt lat="36.8827018737793" lon="-5.13642692565918">
        <ele>739</ele>
        <time>2019-05-11T18:21:53Z</time>
      </trkpt>
      <trkpt lat="36.8827362060547" lon="-5.13647222518921">
        <ele>738</ele>
        <time>2019-05-11T18:21:55Z</time>
      </trkpt>
      <trkpt lat="36.8827705383301" lon="-5.13652181625366">
        <ele>738</ele>
        <time>2019-05-11T18:21:57Z</time>
      </trkpt>
      <trkpt lat="36.8828010559082" lon="-5.13656806945801">
        <ele>737</ele>
        <time>2019-05-11T18:21:59Z</time>
      </trkpt>
      <trkpt lat="36.8828277587891" lon="-5.13661813735962">
        <ele>736</ele>
        <time>2019-05-11T18:22:01Z</time>
      </trkpt>
      <trkpt lat="36.882869720459" lon="-5.13669300079346">
        <ele>736</ele>
        <time>2019-05-11T18:22:03Z</time>
      </trkpt>
      <trkpt lat="36.8828964233398" lon="-5.13674688339233">
        <ele>736</ele>
        <time>2019-05-11T18:22:05Z</time>
      </trkpt>
      <trkpt lat="36.8829154968262" lon="-5.13679695129394">
        <ele>735</ele>
        <time>2019-05-11T18:22:07Z</time>
      </trkpt>
      <trkpt lat="36.882942199707" lon="-5.13684797286987">
        <ele>734</ele>
        <time>2019-05-11T18:22:09Z</time>
      </trkpt>
      <trkpt lat="36.8829612731934" lon="-5.13690805435181">
        <ele>734</ele>
        <time>2019-05-11T18:22:12Z</time>
      </trkpt>
      <trkpt lat="36.8829803466797" lon="-5.136962890625">
        <ele>734</ele>
        <time>2019-05-11T18:22:14Z</time>
      </trkpt>
      <trkpt lat="36.882999420166" lon="-5.13702487945557">
        <ele>733</ele>
        <time>2019-05-11T18:22:16Z</time>
      </trkpt>
      <trkpt lat="36.8830184936523" lon="-5.13708782196045">
        <ele>733</ele>
        <time>2019-05-11T18:22:18Z</time>
      </trkpt>
      <trkpt lat="36.8830261230469" lon="-5.13714981079102">
        <ele>731</ele>
        <time>2019-05-11T18:22:20Z</time>
      </trkpt>
      <trkpt lat="36.8830299377441" lon="-5.13720989227295">
        <ele>731</ele>
        <time>2019-05-11T18:22:22Z</time>
      </trkpt>
      <trkpt lat="36.8830299377441" lon="-5.13725805282593">
        <ele>731</ele>
        <time>2019-05-11T18:22:24Z</time>
      </trkpt>
      <trkpt lat="36.8830337524414" lon="-5.13730001449585">
        <ele>731</ele>
        <time>2019-05-11T18:22:26Z</time>
      </trkpt>
      <trkpt lat="36.8830337524414" lon="-5.13735294342041">
        <ele>731</ele>
        <time>2019-05-11T18:22:28Z</time>
      </trkpt>
      <trkpt lat="36.8830261230469" lon="-5.13741207122803">
        <ele>731</ele>
        <time>2019-05-11T18:22:30Z</time>
      </trkpt>
      <trkpt lat="36.8830261230469" lon="-5.13746976852417">
        <ele>731</ele>
        <time>2019-05-11T18:22:32Z</time>
      </trkpt>
      <trkpt lat="36.8830184936523" lon="-5.13750982284546">
        <ele>731</ele>
        <time>2019-05-11T18:22:34Z</time>
      </trkpt>
      <trkpt lat="36.8830184936523" lon="-5.13754987716675">
        <ele>731</ele>
        <time>2019-05-11T18:22:36Z</time>
      </trkpt>
      <trkpt lat="36.8830146789551" lon="-5.13760805130005">
        <ele>731</ele>
        <time>2019-05-11T18:22:38Z</time>
      </trkpt>
      <trkpt lat="36.8830146789551" lon="-5.1376428604126">
        <ele>731</ele>
        <time>2019-05-11T18:22:40Z</time>
      </trkpt>
      <trkpt lat="36.8830070495606" lon="-5.13768196105957">
        <ele>731</ele>
        <time>2019-05-11T18:22:42Z</time>
      </trkpt>
      <trkpt lat="36.8830070495606" lon="-5.13771677017212">
        <ele>731</ele>
        <time>2019-05-11T18:22:44Z</time>
      </trkpt>
      <trkpt lat="36.8830032348633" lon="-5.13775014877319">
        <ele>731</ele>
        <time>2019-05-11T18:22:47Z</time>
      </trkpt>
      <trkpt lat="36.8830070495606" lon="-5.13778781890869">
        <ele>731</ele>
        <time>2019-05-11T18:22:49Z</time>
      </trkpt>
      <trkpt lat="36.8830032348633" lon="-5.1378231048584">
        <ele>731</ele>
        <time>2019-05-11T18:22:51Z</time>
      </trkpt>
      <trkpt lat="36.8830032348633" lon="-5.13785982131958">
        <ele>731</ele>
        <time>2019-05-11T18:22:53Z</time>
      </trkpt>
      <trkpt lat="36.8830070495606" lon="-5.13789510726929">
        <ele>731</ele>
        <time>2019-05-11T18:22:55Z</time>
      </trkpt>
      <trkpt lat="36.8830070495606" lon="-5.13792991638184">
        <ele>731</ele>
        <time>2019-05-11T18:22:57Z</time>
      </trkpt>
      <trkpt lat="36.8830108642578" lon="-5.13796710968018">
        <ele>731</ele>
        <time>2019-05-11T18:22:59Z</time>
      </trkpt>
      <trkpt lat="36.8830108642578" lon="-5.13799810409546">
        <ele>730</ele>
        <time>2019-05-11T18:23:01Z</time>
      </trkpt>
      <trkpt lat="36.8830108642578" lon="-5.13803720474243">
        <ele>730</ele>
        <time>2019-05-11T18:23:03Z</time>
      </trkpt>
      <trkpt lat="36.8830146789551" lon="-5.1380729675293">
        <ele>730</ele>
        <time>2019-05-11T18:23:05Z</time>
      </trkpt>
      <trkpt lat="36.8830108642578" lon="-5.13811016082764">
        <ele>729</ele>
        <time>2019-05-11T18:23:07Z</time>
      </trkpt>
      <trkpt lat="36.8830108642578" lon="-5.13814496994019">
        <ele>729</ele>
        <time>2019-05-11T18:23:09Z</time>
      </trkpt>
      <trkpt lat="36.8830070495606" lon="-5.13818502426147">
        <ele>729</ele>
        <time>2019-05-11T18:23:11Z</time>
      </trkpt>
      <trkpt lat="36.8830032348633" lon="-5.13822317123413">
        <ele>729</ele>
        <time>2019-05-11T18:23:13Z</time>
      </trkpt>
      <trkpt lat="36.8830032348633" lon="-5.13826322555542">
        <ele>729</ele>
        <time>2019-05-11T18:23:15Z</time>
      </trkpt>
      <trkpt lat="36.8830032348633" lon="-5.13832712173462">
        <ele>729</ele>
        <time>2019-05-11T18:23:17Z</time>
      </trkpt>
      <trkpt lat="36.882999420166" lon="-5.13836717605591">
        <ele>728</ele>
        <time>2019-05-11T18:23:19Z</time>
      </trkpt>
      <trkpt lat="36.8829956054688" lon="-5.13840293884277">
        <ele>728</ele>
        <time>2019-05-11T18:23:21Z</time>
      </trkpt>
      <trkpt lat="36.8829917907715" lon="-5.13843822479248">
        <ele>726</ele>
        <time>2019-05-11T18:23:23Z</time>
      </trkpt>
      <trkpt lat="36.8829803466797" lon="-5.13847303390503">
        <ele>726</ele>
        <time>2019-05-11T18:23:25Z</time>
      </trkpt>
      <trkpt lat="36.8829765319824" lon="-5.13851022720337">
        <ele>726</ele>
        <time>2019-05-11T18:23:28Z</time>
      </trkpt>
      <trkpt lat="36.8829689025879" lon="-5.13854694366455">
        <ele>726</ele>
        <time>2019-05-11T18:23:30Z</time>
      </trkpt>
      <trkpt lat="36.8829612731934" lon="-5.13858318328857">
        <ele>726</ele>
        <time>2019-05-11T18:23:32Z</time>
      </trkpt>
      <trkpt lat="36.8829536437988" lon="-5.13861799240112">
        <ele>726</ele>
        <time>2019-05-11T18:23:34Z</time>
      </trkpt>
      <trkpt lat="36.8829460144043" lon="-5.13865184783936">
        <ele>726</ele>
        <time>2019-05-11T18:23:36Z</time>
      </trkpt>
      <trkpt lat="36.8829383850098" lon="-5.13868284225464">
        <ele>726</ele>
        <time>2019-05-11T18:23:38Z</time>
      </trkpt>
      <trkpt lat="36.882926940918" lon="-5.13871479034424">
        <ele>726</ele>
        <time>2019-05-11T18:23:40Z</time>
      </trkpt>
      <trkpt lat="36.8829154968262" lon="-5.13874816894531">
        <ele>726</ele>
        <time>2019-05-11T18:23:42Z</time>
      </trkpt>
      <trkpt lat="36.8829078674316" lon="-5.13878011703491">
        <ele>726</ele>
        <time>2019-05-11T18:23:44Z</time>
      </trkpt>
      <trkpt lat="36.8828964233398" lon="-5.13881492614746">
        <ele>726</ele>
        <time>2019-05-11T18:23:46Z</time>
      </trkpt>
      <trkpt lat="36.8828887939453" lon="-5.13884782791138">
        <ele>726</ele>
        <time>2019-05-11T18:23:48Z</time>
      </trkpt>
      <trkpt lat="36.8828773498535" lon="-5.13888216018677">
        <ele>726</ele>
        <time>2019-05-11T18:23:50Z</time>
      </trkpt>
      <trkpt lat="36.882869720459" lon="-5.13891315460205">
        <ele>726</ele>
        <time>2019-05-11T18:23:52Z</time>
      </trkpt>
      <trkpt lat="36.8828582763672" lon="-5.13894510269165">
        <ele>726</ele>
        <time>2019-05-11T18:23:54Z</time>
      </trkpt>
      <trkpt lat="36.8828392028809" lon="-5.13899517059326">
        <ele>726</ele>
        <time>2019-05-11T18:23:56Z</time>
      </trkpt>
      <trkpt lat="36.8828277587891" lon="-5.13902711868286">
        <ele>726</ele>
        <time>2019-05-11T18:23:58Z</time>
      </trkpt>
      <trkpt lat="36.8828163146973" lon="-5.13906002044678">
        <ele>726</ele>
        <time>2019-05-11T18:24:00Z</time>
      </trkpt>
      <trkpt lat="36.8828048706055" lon="-5.13909292221069">
        <ele>726</ele>
        <time>2019-05-11T18:24:02Z</time>
      </trkpt>
      <trkpt lat="36.8827934265137" lon="-5.13912487030029">
        <ele>726</ele>
        <time>2019-05-11T18:24:05Z</time>
      </trkpt>
      <trkpt lat="36.8827819824219" lon="-5.13915777206421">
        <ele>726</ele>
        <time>2019-05-11T18:24:07Z</time>
      </trkpt>
      <trkpt lat="36.8827705383301" lon="-5.13918781280518">
        <ele>726</ele>
        <time>2019-05-11T18:24:09Z</time>
      </trkpt>
      <trkpt lat="36.8827590942383" lon="-5.13922023773193">
        <ele>725</ele>
        <time>2019-05-11T18:24:11Z</time>
      </trkpt>
      <trkpt lat="36.8827438354492" lon="-5.13925218582153">
        <ele>725</ele>
        <time>2019-05-11T18:24:13Z</time>
      </trkpt>
      <trkpt lat="36.8827323913574" lon="-5.1392822265625">
        <ele>725</ele>
        <time>2019-05-11T18:24:15Z</time>
      </trkpt>
      <trkpt lat="36.8827171325684" lon="-5.13931512832642">
        <ele>725</ele>
        <time>2019-05-11T18:24:17Z</time>
      </trkpt>
      <trkpt lat="36.8827056884766" lon="-5.13934803009033">
        <ele>724</ele>
        <time>2019-05-11T18:24:19Z</time>
      </trkpt>
      <trkpt lat="36.8826942443848" lon="-5.13938283920288">
        <ele>724</ele>
        <time>2019-05-11T18:24:21Z</time>
      </trkpt>
      <trkpt lat="36.8826866149902" lon="-5.13941478729248">
        <ele>723</ele>
        <time>2019-05-11T18:24:23Z</time>
      </trkpt>
      <trkpt lat="36.8826789855957" lon="-5.13944482803345">
        <ele>723</ele>
        <time>2019-05-11T18:24:25Z</time>
      </trkpt>
      <trkpt lat="36.8826637268066" lon="-5.13947296142578">
        <ele>723</ele>
        <time>2019-05-11T18:24:27Z</time>
      </trkpt>
      <trkpt lat="36.8826484680176" lon="-5.13950490951538">
        <ele>723</ele>
        <time>2019-05-11T18:24:29Z</time>
      </trkpt>
      <trkpt lat="36.8826293945312" lon="-5.13955307006836">
        <ele>721</ele>
        <time>2019-05-11T18:24:31Z</time>
      </trkpt>
      <trkpt lat="36.8826141357422" lon="-5.13958692550659">
        <ele>721</ele>
        <time>2019-05-11T18:24:33Z</time>
      </trkpt>
      <trkpt lat="36.8825988769531" lon="-5.13961982727051">
        <ele>721</ele>
        <time>2019-05-11T18:24:35Z</time>
      </trkpt>
      <trkpt lat="36.8825912475586" lon="-5.13965702056885">
        <ele>721</ele>
        <time>2019-05-11T18:24:37Z</time>
      </trkpt>
      <trkpt lat="36.8825836181641" lon="-5.1396951675415">
        <ele>721</ele>
        <time>2019-05-11T18:24:40Z</time>
      </trkpt>
      <trkpt lat="36.882568359375" lon="-5.13972806930542">
        <ele>721</ele>
        <time>2019-05-11T18:24:42Z</time>
      </trkpt>
      <trkpt lat="36.8825607299805" lon="-5.13976192474365">
        <ele>720</ele>
        <time>2019-05-11T18:24:44Z</time>
      </trkpt>
      <trkpt lat="36.8825492858887" lon="-5.13979482650757">
        <ele>720</ele>
        <time>2019-05-11T18:24:46Z</time>
      </trkpt>
      <trkpt lat="36.8825416564941" lon="-5.13982820510864">
        <ele>720</ele>
        <time>2019-05-11T18:24:48Z</time>
      </trkpt>
      <trkpt lat="36.8825340270996" lon="-5.13986301422119">
        <ele>720</ele>
        <time>2019-05-11T18:24:50Z</time>
      </trkpt>
      <trkpt lat="36.8825225830078" lon="-5.13989686965942">
        <ele>720</ele>
        <time>2019-05-11T18:24:52Z</time>
      </trkpt>
      <trkpt lat="36.8825149536133" lon="-5.13993501663208">
        <ele>720</ele>
        <time>2019-05-11T18:24:54Z</time>
      </trkpt>
      <trkpt lat="36.8825035095215" lon="-5.13997316360474">
        <ele>720</ele>
        <time>2019-05-11T18:24:56Z</time>
      </trkpt>
      <trkpt lat="36.8824996948242" lon="-5.14001798629761">
        <ele>720</ele>
        <time>2019-05-11T18:24:58Z</time>
      </trkpt>
      <trkpt lat="36.8824882507324" lon="-5.14005994796753">
        <ele>720</ele>
        <time>2019-05-11T18:25:00Z</time>
      </trkpt>
      <trkpt lat="36.8824768066406" lon="-5.14010000228882">
        <ele>720</ele>
        <time>2019-05-11T18:25:02Z</time>
      </trkpt>
      <trkpt lat="36.8824729919434" lon="-5.14015483856201">
        <ele>719</ele>
        <time>2019-05-11T18:25:04Z</time>
      </trkpt>
      <trkpt lat="36.8824615478516" lon="-5.14017486572266">
        <ele>719</ele>
        <time>2019-05-11T18:25:06Z</time>
      </trkpt>
      <trkpt lat="36.8824501037598" lon="-5.14019680023193">
        <ele>718</ele>
        <time>2019-05-11T18:25:08Z</time>
      </trkpt>
      <trkpt lat="36.8824424743652" lon="-5.14022493362427">
        <ele>716</ele>
        <time>2019-05-11T18:25:10Z</time>
      </trkpt>
      <trkpt lat="36.8824310302734" lon="-5.14025211334228">
        <ele>716</ele>
        <time>2019-05-11T18:25:13Z</time>
      </trkpt>
      <trkpt lat="36.8824195861816" lon="-5.14027976989746">
        <ele>716</ele>
        <time>2019-05-11T18:25:15Z</time>
      </trkpt>
      <trkpt lat="36.8824119567871" lon="-5.14031505584717">
        <ele>716</ele>
        <time>2019-05-11T18:25:17Z</time>
      </trkpt>
      <trkpt lat="36.882396697998" lon="-5.14034795761108">
        <ele>716</ele>
        <time>2019-05-11T18:25:19Z</time>
      </trkpt>
      <trkpt lat="36.8823852539062" lon="-5.14037799835205">
        <ele>716</ele>
        <time>2019-05-11T18:25:21Z</time>
      </trkpt>
      <trkpt lat="36.8823776245117" lon="-5.14040517807007">
        <ele>716</ele>
        <time>2019-05-11T18:25:23Z</time>
      </trkpt>
      <trkpt lat="36.8823661804199" lon="-5.14043521881104">
        <ele>716</ele>
        <time>2019-05-11T18:25:25Z</time>
      </trkpt>
      <trkpt lat="36.8823509216309" lon="-5.14046001434326">
        <ele>716</ele>
        <time>2019-05-11T18:25:27Z</time>
      </trkpt>
      <trkpt lat="36.8823318481445" lon="-5.14048719406128">
        <ele>716</ele>
        <time>2019-05-11T18:25:29Z</time>
      </trkpt>
      <trkpt lat="36.8823089599609" lon="-5.14050817489624">
        <ele>716</ele>
        <time>2019-05-11T18:25:31Z</time>
      </trkpt>
      <trkpt lat="36.8822937011719" lon="-5.14053297042847">
        <ele>716</ele>
        <time>2019-05-11T18:25:33Z</time>
      </trkpt>
      <trkpt lat="36.8822746276856" lon="-5.14055776596069">
        <ele>716</ele>
        <time>2019-05-11T18:25:35Z</time>
      </trkpt>
      <trkpt lat="36.882251739502" lon="-5.14058494567871">
        <ele>716</ele>
        <time>2019-05-11T18:25:37Z</time>
      </trkpt>
      <trkpt lat="36.8822212219238" lon="-5.14062309265137">
        <ele>716</ele>
        <time>2019-05-11T18:25:39Z</time>
      </trkpt>
      <trkpt lat="36.8822059631348" lon="-5.14064788818359">
        <ele>715</ele>
        <time>2019-05-11T18:25:41Z</time>
      </trkpt>
      <trkpt lat="36.8821868896484" lon="-5.14067220687866">
        <ele>714</ele>
        <time>2019-05-11T18:25:43Z</time>
      </trkpt>
      <trkpt lat="36.8821716308594" lon="-5.14069700241089">
        <ele>713</ele>
        <time>2019-05-11T18:25:45Z</time>
      </trkpt>
      <trkpt lat="36.8821487426758" lon="-5.14072513580322">
        <ele>713</ele>
        <time>2019-05-11T18:25:47Z</time>
      </trkpt>
      <trkpt lat="36.8821258544922" lon="-5.1407527923584">
        <ele>713</ele>
        <time>2019-05-11T18:25:50Z</time>
      </trkpt>
      <trkpt lat="36.8821067810059" lon="-5.14078187942505">
        <ele>713</ele>
        <time>2019-05-11T18:25:52Z</time>
      </trkpt>
      <trkpt lat="36.8820838928223" lon="-5.14080715179443">
        <ele>713</ele>
        <time>2019-05-11T18:25:54Z</time>
      </trkpt>
      <trkpt lat="36.8820571899414" lon="-5.14082813262939">
        <ele>711</ele>
        <time>2019-05-11T18:25:56Z</time>
      </trkpt>
      <trkpt lat="36.8820343017578" lon="-5.14085483551025">
        <ele>711</ele>
        <time>2019-05-11T18:25:58Z</time>
      </trkpt>
      <trkpt lat="36.8820114135742" lon="-5.14088296890259">
        <ele>711</ele>
        <time>2019-05-11T18:26:00Z</time>
      </trkpt>
      <trkpt lat="36.8819923400879" lon="-5.14090776443481">
        <ele>711</ele>
        <time>2019-05-11T18:26:02Z</time>
      </trkpt>
      <trkpt lat="36.8819732666016" lon="-5.1409330368042">
        <ele>711</ele>
        <time>2019-05-11T18:26:04Z</time>
      </trkpt>
      <trkpt lat="36.8819465637207" lon="-5.14095687866211">
        <ele>711</ele>
        <time>2019-05-11T18:26:06Z</time>
      </trkpt>
      <trkpt lat="36.8819274902344" lon="-5.14098310470581">
        <ele>711</ele>
        <time>2019-05-11T18:26:08Z</time>
      </trkpt>
      <trkpt lat="36.8819046020508" lon="-5.14100694656372">
        <ele>711</ele>
        <time>2019-05-11T18:26:10Z</time>
      </trkpt>
      <trkpt lat="36.8818817138672" lon="-5.14102792739868">
        <ele>711</ele>
        <time>2019-05-11T18:26:12Z</time>
      </trkpt>
      <trkpt lat="36.8818588256836" lon="-5.14104986190796">
        <ele>711</ele>
        <time>2019-05-11T18:26:14Z</time>
      </trkpt>
      <trkpt lat="36.8818283081055" lon="-5.14108514785767">
        <ele>711</ele>
        <time>2019-05-11T18:26:16Z</time>
      </trkpt>
      <trkpt lat="36.8818054199219" lon="-5.14111185073853">
        <ele>711</ele>
        <time>2019-05-11T18:26:18Z</time>
      </trkpt>
      <trkpt lat="36.8817863464356" lon="-5.14113998413086">
        <ele>711</ele>
        <time>2019-05-11T18:26:20Z</time>
      </trkpt>
      <trkpt lat="36.8817672729492" lon="-5.14116477966309">
        <ele>711</ele>
        <time>2019-05-11T18:26:22Z</time>
      </trkpt>
      <trkpt lat="36.8817481994629" lon="-5.1411919593811">
        <ele>711</ele>
        <time>2019-05-11T18:26:25Z</time>
      </trkpt>
      <trkpt lat="36.8817291259766" lon="-5.14121723175049">
        <ele>711</ele>
        <time>2019-05-11T18:26:27Z</time>
      </trkpt>
      <trkpt lat="36.8817138671875" lon="-5.14124488830566">
        <ele>711</ele>
        <time>2019-05-11T18:26:29Z</time>
      </trkpt>
      <trkpt lat="36.8816947937012" lon="-5.14127206802368">
        <ele>711</ele>
        <time>2019-05-11T18:26:31Z</time>
      </trkpt>
      <trkpt lat="36.8816795349121" lon="-5.14130020141602">
        <ele>711</ele>
        <time>2019-05-11T18:26:33Z</time>
      </trkpt>
      <trkpt lat="36.8816604614258" lon="-5.14132785797119">
        <ele>711</ele>
        <time>2019-05-11T18:26:35Z</time>
      </trkpt>
      <trkpt lat="36.8816452026367" lon="-5.14135694503784">
        <ele>711</ele>
        <time>2019-05-11T18:26:37Z</time>
      </trkpt>
      <trkpt lat="36.8816299438477" lon="-5.14138507843018">
        <ele>711</ele>
        <time>2019-05-11T18:26:39Z</time>
      </trkpt>
      <trkpt lat="36.8816184997559" lon="-5.14141702651978">
        <ele>711</ele>
        <time>2019-05-11T18:26:41Z</time>
      </trkpt>
      <trkpt lat="36.8816032409668" lon="-5.14144515991211">
        <ele>711</ele>
        <time>2019-05-11T18:26:43Z</time>
      </trkpt>
      <trkpt lat="36.8815879821777" lon="-5.14147281646728">
        <ele>711</ele>
        <time>2019-05-11T18:26:45Z</time>
      </trkpt>
      <trkpt lat="36.8815765380859" lon="-5.14150285720825">
        <ele>712</ele>
        <time>2019-05-11T18:26:47Z</time>
      </trkpt>
      <trkpt lat="36.8815612792969" lon="-5.14153289794922">
        <ele>712</ele>
        <time>2019-05-11T18:26:49Z</time>
      </trkpt>
      <trkpt lat="36.8815383911133" lon="-5.14157676696777">
        <ele>712</ele>
        <time>2019-05-11T18:26:51Z</time>
      </trkpt>
      <trkpt lat="36.8815269470215" lon="-5.14160013198853">
        <ele>713</ele>
        <time>2019-05-11T18:26:53Z</time>
      </trkpt>
      <trkpt lat="36.8815116882324" lon="-5.14162492752075">
        <ele>713</ele>
        <time>2019-05-11T18:26:55Z</time>
      </trkpt>
      <trkpt lat="36.8815002441406" lon="-5.14165306091309">
        <ele>714</ele>
        <time>2019-05-11T18:26:57Z</time>
      </trkpt>
      <trkpt lat="36.8814888000488" lon="-5.14168310165405">
        <ele>714</ele>
        <time>2019-05-11T18:27:00Z</time>
      </trkpt>
      <trkpt lat="36.881477355957" lon="-5.14171314239502">
        <ele>714</ele>
        <time>2019-05-11T18:27:02Z</time>
      </trkpt>
      <trkpt lat="36.8814659118652" lon="-5.14174318313599">
        <ele>714</ele>
        <time>2019-05-11T18:27:04Z</time>
      </trkpt>
      <trkpt lat="36.8814582824707" lon="-5.14177703857422">
        <ele>714</ele>
        <time>2019-05-11T18:27:06Z</time>
      </trkpt>
      <trkpt lat="36.8814468383789" lon="-5.14180707931519">
        <ele>714</ele>
        <time>2019-05-11T18:27:08Z</time>
      </trkpt>
      <trkpt lat="36.8814353942871" lon="-5.14183521270752">
        <ele>714</ele>
        <time>2019-05-11T18:27:10Z</time>
      </trkpt>
      <trkpt lat="36.881420135498" lon="-5.14186477661133">
        <ele>714</ele>
        <time>2019-05-11T18:27:12Z</time>
      </trkpt>
      <trkpt lat="36.8814086914062" lon="-5.14189291000366">
        <ele>714</ele>
        <time>2019-05-11T18:27:14Z</time>
      </trkpt>
      <trkpt lat="36.8813972473144" lon="-5.14192295074463">
        <ele>714</ele>
        <time>2019-05-11T18:27:16Z</time>
      </trkpt>
      <trkpt lat="36.8813819885254" lon="-5.14195203781128">
        <ele>714</ele>
        <time>2019-05-11T18:27:18Z</time>
      </trkpt>
      <trkpt lat="36.8813667297363" lon="-5.14198207855225">
        <ele>714</ele>
        <time>2019-05-11T18:27:20Z</time>
      </trkpt>
      <trkpt lat="36.8813552856445" lon="-5.14201211929321">
        <ele>714</ele>
        <time>2019-05-11T18:27:22Z</time>
      </trkpt>
      <trkpt lat="36.8813438415527" lon="-5.14204216003418">
        <ele>714</ele>
        <time>2019-05-11T18:27:24Z</time>
      </trkpt>
      <trkpt lat="36.8813171386719" lon="-5.14208507537842">
        <ele>714</ele>
        <time>2019-05-11T18:27:26Z</time>
      </trkpt>
      <trkpt lat="36.8813018798828" lon="-5.14211511611938">
        <ele>714</ele>
        <time>2019-05-11T18:27:28Z</time>
      </trkpt>
      <trkpt lat="36.8812866210938" lon="-5.14214515686035">
        <ele>714</ele>
        <time>2019-05-11T18:27:30Z</time>
      </trkpt>
      <trkpt lat="36.8812713623047" lon="-5.14217710494995">
        <ele>715</ele>
        <time>2019-05-11T18:27:32Z</time>
      </trkpt>
      <trkpt lat="36.8812561035156" lon="-5.14220714569092">
        <ele>715</ele>
        <time>2019-05-11T18:27:35Z</time>
      </trkpt>
      <trkpt lat="36.8812408447266" lon="-5.14223480224609">
        <ele>715</ele>
        <time>2019-05-11T18:27:37Z</time>
      </trkpt>
      <trkpt lat="36.8812255859375" lon="-5.14226293563843">
        <ele>715</ele>
        <time>2019-05-11T18:27:39Z</time>
      </trkpt>
      <trkpt lat="36.8812065124512" lon="-5.14229202270508">
        <ele>715</ele>
        <time>2019-05-11T18:27:41Z</time>
      </trkpt>
      <trkpt lat="36.8811912536621" lon="-5.14231777191162">
        <ele>715</ele>
        <time>2019-05-11T18:27:43Z</time>
      </trkpt>
      <trkpt lat="36.881175994873" lon="-5.14234495162964">
        <ele>715</ele>
        <time>2019-05-11T18:27:45Z</time>
      </trkpt>
      <trkpt lat="36.881160736084" lon="-5.14237213134766">
        <ele>715</ele>
        <time>2019-05-11T18:27:47Z</time>
      </trkpt>
      <trkpt lat="36.8811454772949" lon="-5.1423978805542">
        <ele>715</ele>
        <time>2019-05-11T18:27:49Z</time>
      </trkpt>
      <trkpt lat="36.8811302185059" lon="-5.14242506027222">
        <ele>715</ele>
        <time>2019-05-11T18:27:51Z</time>
      </trkpt>
      <trkpt lat="36.8811111450195" lon="-5.14245319366455">
        <ele>715</ele>
        <time>2019-05-11T18:27:53Z</time>
      </trkpt>
      <trkpt lat="36.8810958862305" lon="-5.14247989654541">
        <ele>715</ele>
        <time>2019-05-11T18:27:55Z</time>
      </trkpt>
      <trkpt lat="36.8810768127441" lon="-5.14250707626343">
        <ele>715</ele>
        <time>2019-05-11T18:27:57Z</time>
      </trkpt>
      <trkpt lat="36.8810615539551" lon="-5.14253282546997">
        <ele>715</ele>
        <time>2019-05-11T18:27:59Z</time>
      </trkpt>
      <trkpt lat="36.881031036377" lon="-5.14257192611694">
        <ele>715</ele>
        <time>2019-05-11T18:28:01Z</time>
      </trkpt>
      <trkpt lat="36.8810119628906" lon="-5.14259719848633">
        <ele>715</ele>
        <time>2019-05-11T18:28:03Z</time>
      </trkpt>
      <trkpt lat="36.8809928894043" lon="-5.14262008666992">
        <ele>715</ele>
        <time>2019-05-11T18:28:05Z</time>
      </trkpt>
      <trkpt lat="36.8809700012207" lon="-5.14264297485352">
        <ele>715</ele>
        <time>2019-05-11T18:28:07Z</time>
      </trkpt>
      <trkpt lat="36.8809547424316" lon="-5.14266300201416">
        <ele>715</ele>
        <time>2019-05-11T18:28:10Z</time>
      </trkpt>
      <trkpt lat="36.8809356689453" lon="-5.14268779754639">
        <ele>715</ele>
        <time>2019-05-11T18:28:12Z</time>
      </trkpt>
      <trkpt lat="36.8809204101562" lon="-5.14271211624146">
        <ele>715</ele>
        <time>2019-05-11T18:28:14Z</time>
      </trkpt>
      <trkpt lat="36.8809013366699" lon="-5.142737865448">
        <ele>715</ele>
        <time>2019-05-11T18:28:16Z</time>
      </trkpt>
      <trkpt lat="36.8808822631836" lon="-5.14275789260864">
        <ele>715</ele>
        <time>2019-05-11T18:28:18Z</time>
      </trkpt>
      <trkpt lat="36.8808631896973" lon="-5.14278221130371">
        <ele>715</ele>
        <time>2019-05-11T18:28:20Z</time>
      </trkpt>
      <trkpt lat="36.8808403015137" lon="-5.1428050994873">
        <ele>715</ele>
        <time>2019-05-11T18:28:22Z</time>
      </trkpt>
      <trkpt lat="36.8808212280273" lon="-5.14282512664795">
        <ele>715</ele>
        <time>2019-05-11T18:28:24Z</time>
      </trkpt>
      <trkpt lat="36.8807983398438" lon="-5.14284706115723">
        <ele>715</ele>
        <time>2019-05-11T18:28:26Z</time>
      </trkpt>
      <trkpt lat="36.8807792663574" lon="-5.14286804199219">
        <ele>715</ele>
        <time>2019-05-11T18:28:28Z</time>
      </trkpt>
      <trkpt lat="36.8807563781738" lon="-5.14288997650146">
        <ele>715</ele>
        <time>2019-05-11T18:28:30Z</time>
      </trkpt>
      <trkpt lat="36.8807334899902" lon="-5.14290523529053">
        <ele>715</ele>
        <time>2019-05-11T18:28:32Z</time>
      </trkpt>
      <trkpt lat="36.8807106018066" lon="-5.14291715621948">
        <ele>715</ele>
        <time>2019-05-11T18:28:34Z</time>
      </trkpt>
      <trkpt lat="36.8806915283203" lon="-5.14293003082275">
        <ele>714</ele>
        <time>2019-05-11T18:28:36Z</time>
      </trkpt>
      <trkpt lat="36.8806648254394" lon="-5.14295816421509">
        <ele>714</ele>
        <time>2019-05-11T18:28:38Z</time>
      </trkpt>
      <trkpt lat="36.8806419372559" lon="-5.14298009872436">
        <ele>712</ele>
        <time>2019-05-11T18:28:40Z</time>
      </trkpt>
      <trkpt lat="36.8806228637695" lon="-5.14300203323364">
        <ele>711</ele>
        <time>2019-05-11T18:28:42Z</time>
      </trkpt>
      <trkpt lat="36.8806037902832" lon="-5.14302206039429">
        <ele>711</ele>
        <time>2019-05-11T18:28:44Z</time>
      </trkpt>
      <trkpt lat="36.8805847167969" lon="-5.14304208755493">
        <ele>711</ele>
        <time>2019-05-11T18:28:47Z</time>
      </trkpt>
      <trkpt lat="36.8805694580078" lon="-5.14306211471558">
        <ele>711</ele>
        <time>2019-05-11T18:28:49Z</time>
      </trkpt>
      <trkpt lat="36.8805503845215" lon="-5.14308500289917">
        <ele>710</ele>
        <time>2019-05-11T18:28:51Z</time>
      </trkpt>
      <trkpt lat="36.8805313110352" lon="-5.14310789108276">
        <ele>710</ele>
        <time>2019-05-11T18:28:53Z</time>
      </trkpt>
      <trkpt lat="36.8805122375488" lon="-5.14313220977783">
        <ele>710</ele>
        <time>2019-05-11T18:28:55Z</time>
      </trkpt>
      <trkpt lat="36.8804931640625" lon="-5.14315700531006">
        <ele>710</ele>
        <time>2019-05-11T18:28:57Z</time>
      </trkpt>
      <trkpt lat="36.8804779052734" lon="-5.14318323135376">
        <ele>710</ele>
        <time>2019-05-11T18:28:59Z</time>
      </trkpt>
      <trkpt lat="36.8804626464844" lon="-5.14320707321167">
        <ele>710</ele>
        <time>2019-05-11T18:29:01Z</time>
      </trkpt>
      <trkpt lat="36.8804512023926" lon="-5.14320993423462">
        <ele>710</ele>
        <time>2019-05-11T18:29:03Z</time>
      </trkpt>
      <trkpt lat="36.8804512023926" lon="-5.14321279525757">
        <ele>710</ele>
        <time>2019-05-11T18:29:05Z</time>
      </trkpt>
      <trkpt lat="36.8804512023926" lon="-5.14321517944336">
        <ele>710</ele>
        <time>2019-05-11T18:29:07Z</time>
      </trkpt>
      <trkpt lat="36.8804512023926" lon="-5.14321184158325">
        <ele>710</ele>
        <time>2019-05-11T18:29:09Z</time>
      </trkpt>
      <trkpt lat="36.8804473876953" lon="-5.14321184158325">
        <ele>710</ele>
        <time>2019-05-11T18:29:11Z</time>
      </trkpt>
      <trkpt lat="36.8804473876953" lon="-5.14321279525757">
        <ele>710</ele>
        <time>2019-05-11T18:29:13Z</time>
      </trkpt>
      <trkpt lat="36.8804473876953" lon="-5.14321517944336">
        <ele>710</ele>
        <time>2019-05-11T18:29:15Z</time>
      </trkpt>
      <trkpt lat="36.8804473876953" lon="-5.14321517944336">
        <ele>710</ele>
        <time>2019-05-11T18:29:17Z</time>
      </trkpt>
      <trkpt lat="36.880443572998" lon="-5.14321517944336">
        <ele>710</ele>
        <time>2019-05-11T18:29:19Z</time>
      </trkpt>
      <trkpt lat="36.8804359436035" lon="-5.14322996139526">
        <ele>710</ele>
        <time>2019-05-11T18:29:21Z</time>
      </trkpt>
      <trkpt lat="36.8804244995117" lon="-5.14325189590454">
        <ele>710</ele>
        <time>2019-05-11T18:29:23Z</time>
      </trkpt>
      <trkpt lat="36.8804130554199" lon="-5.14327478408814">
        <ele>710</ele>
        <time>2019-05-11T18:29:26Z</time>
      </trkpt>
      <trkpt lat="36.8804016113281" lon="-5.14330291748047">
        <ele>710</ele>
        <time>2019-05-11T18:29:28Z</time>
      </trkpt>
      <trkpt lat="36.8803825378418" lon="-5.14332818984985">
        <ele>710</ele>
        <time>2019-05-11T18:29:30Z</time>
      </trkpt>
      <trkpt lat="36.8803672790527" lon="-5.14335489273071">
        <ele>710</ele>
        <time>2019-05-11T18:29:32Z</time>
      </trkpt>
      <trkpt lat="36.8803520202637" lon="-5.14337778091431">
        <ele>710</ele>
        <time>2019-05-11T18:29:34Z</time>
      </trkpt>
      <trkpt lat="36.8803367614746" lon="-5.14340686798096">
        <ele>710</ele>
        <time>2019-05-11T18:29:36Z</time>
      </trkpt>
      <trkpt lat="36.8803253173828" lon="-5.14343309402466">
        <ele>710</ele>
        <time>2019-05-11T18:29:38Z</time>
      </trkpt>
      <trkpt lat="36.880313873291" lon="-5.14345979690552">
        <ele>710</ele>
        <time>2019-05-11T18:29:40Z</time>
      </trkpt>
      <trkpt lat="36.8803024291992" lon="-5.1434850692749">
        <ele>710</ele>
        <time>2019-05-11T18:29:42Z</time>
      </trkpt>
      <trkpt lat="36.8802833557129" lon="-5.14350986480713">
        <ele>710</ele>
        <time>2019-05-11T18:29:44Z</time>
      </trkpt>
      <trkpt lat="36.8802680969238" lon="-5.14353704452515">
        <ele>710</ele>
        <time>2019-05-11T18:29:46Z</time>
      </trkpt>
      <trkpt lat="36.8802528381348" lon="-5.14356708526611">
        <ele>710</ele>
        <time>2019-05-11T18:29:48Z</time>
      </trkpt>
      <trkpt lat="36.880241394043" lon="-5.14359712600708">
        <ele>710</ele>
        <time>2019-05-11T18:29:50Z</time>
      </trkpt>
      <trkpt lat="36.8802261352539" lon="-5.14362478256226">
        <ele>710</ele>
        <time>2019-05-11T18:29:52Z</time>
      </trkpt>
      <trkpt lat="36.8802032470703" lon="-5.14367008209228">
        <ele>710</ele>
        <time>2019-05-11T18:29:54Z</time>
      </trkpt>
      <trkpt lat="36.8801879882812" lon="-5.14370012283325">
        <ele>709</ele>
        <time>2019-05-11T18:29:56Z</time>
      </trkpt>
      <trkpt lat="36.8801689147949" lon="-5.14373207092285">
        <ele>709</ele>
        <time>2019-05-11T18:29:58Z</time>
      </trkpt>
      <trkpt lat="36.8801536560059" lon="-5.14376211166382">
        <ele>709</ele>
        <time>2019-05-11T18:30:00Z</time>
      </trkpt>
      <trkpt lat="36.8801422119141" lon="-5.14379215240478">
        <ele>709</ele>
        <time>2019-05-11T18:30:03Z</time>
      </trkpt>
      <trkpt lat="36.8801231384277" lon="-5.1438250541687">
        <ele>708</ele>
        <time>2019-05-11T18:30:05Z</time>
      </trkpt>
      <trkpt lat="36.8801002502441" lon="-5.14386701583862">
        <ele>708</ele>
        <time>2019-05-11T18:30:07Z</time>
      </trkpt>
      <trkpt lat="36.8800773620606" lon="-5.14391279220581">
        <ele>708</ele>
        <time>2019-05-11T18:30:09Z</time>
      </trkpt>
      <trkpt lat="36.8800582885742" lon="-5.14395713806152">
        <ele>708</ele>
        <time>2019-05-11T18:30:11Z</time>
      </trkpt>
      <trkpt lat="36.8800392150879" lon="-5.14400196075439">
        <ele>707</ele>
        <time>2019-05-11T18:30:13Z</time>
      </trkpt>
      <trkpt lat="36.8800201416016" lon="-5.14405012130737">
        <ele>706</ele>
        <time>2019-05-11T18:30:15Z</time>
      </trkpt>
      <trkpt lat="36.8800010681152" lon="-5.14409685134888">
        <ele>706</ele>
        <time>2019-05-11T18:30:17Z</time>
      </trkpt>
      <trkpt lat="36.8799781799316" lon="-5.14414215087891">
        <ele>706</ele>
        <time>2019-05-11T18:30:19Z</time>
      </trkpt>
      <trkpt lat="36.8799591064453" lon="-5.14418792724609">
        <ele>705</ele>
        <time>2019-05-11T18:30:21Z</time>
      </trkpt>
      <trkpt lat="36.8799362182617" lon="-5.14423513412476">
        <ele>704</ele>
        <time>2019-05-11T18:30:23Z</time>
      </trkpt>
      <trkpt lat="36.8799133300781" lon="-5.14428281784058">
        <ele>703</ele>
        <time>2019-05-11T18:30:25Z</time>
      </trkpt>
      <trkpt lat="36.8798904418945" lon="-5.14433193206787">
        <ele>703</ele>
        <time>2019-05-11T18:30:27Z</time>
      </trkpt>
      <trkpt lat="36.8798675537109" lon="-5.14438009262085">
        <ele>703</ele>
        <time>2019-05-11T18:30:29Z</time>
      </trkpt>
      <trkpt lat="36.8798332214356" lon="-5.14445304870606">
        <ele>702</ele>
        <time>2019-05-11T18:30:31Z</time>
      </trkpt>
      <trkpt lat="36.8798179626465" lon="-5.14449787139893">
        <ele>701</ele>
        <time>2019-05-11T18:30:33Z</time>
      </trkpt>
      <trkpt lat="36.8797950744629" lon="-5.14455223083496">
        <ele>701</ele>
        <time>2019-05-11T18:30:35Z</time>
      </trkpt>
      <trkpt lat="36.879768371582" lon="-5.14459991455078">
        <ele>701</ele>
        <time>2019-05-11T18:30:38Z</time>
      </trkpt>
      <trkpt lat="36.8797454833984" lon="-5.14465713500977">
        <ele>701</ele>
        <time>2019-05-11T18:30:40Z</time>
      </trkpt>
      <trkpt lat="36.8797264099121" lon="-5.14470720291138">
        <ele>701</ele>
        <time>2019-05-11T18:30:42Z</time>
      </trkpt>
      <trkpt lat="36.879711151123" lon="-5.14476013183594">
        <ele>700</ele>
        <time>2019-05-11T18:30:44Z</time>
      </trkpt>
      <trkpt lat="36.8796844482422" lon="-5.14481019973755">
        <ele>700</ele>
        <time>2019-05-11T18:30:46Z</time>
      </trkpt>
      <trkpt lat="36.8796730041504" lon="-5.144859790802">
        <ele>700</ele>
        <time>2019-05-11T18:30:48Z</time>
      </trkpt>
      <trkpt lat="36.8796539306641" lon="-5.14490985870361">
        <ele>700</ele>
        <time>2019-05-11T18:30:50Z</time>
      </trkpt>
      <trkpt lat="36.879638671875" lon="-5.1449670791626">
        <ele>700</ele>
        <time>2019-05-11T18:30:52Z</time>
      </trkpt>
      <trkpt lat="36.8796157836914" lon="-5.14502000808716">
        <ele>699</ele>
        <time>2019-05-11T18:30:54Z</time>
      </trkpt>
      <trkpt lat="36.8795928955078" lon="-5.14508008956909">
        <ele>699</ele>
        <time>2019-05-11T18:30:56Z</time>
      </trkpt>
      <trkpt lat="36.879581451416" lon="-5.14513683319092">
        <ele>699</ele>
        <time>2019-05-11T18:30:58Z</time>
      </trkpt>
      <trkpt lat="36.879566192627" lon="-5.14519691467285">
        <ele>698</ele>
        <time>2019-05-11T18:31:00Z</time>
      </trkpt>
      <trkpt lat="36.8795547485352" lon="-5.14525699615478">
        <ele>697</ele>
        <time>2019-05-11T18:31:02Z</time>
      </trkpt>
      <trkpt lat="36.8795394897461" lon="-5.14531803131104">
        <ele>696</ele>
        <time>2019-05-11T18:31:04Z</time>
      </trkpt>
      <trkpt lat="36.8795166015625" lon="-5.14540481567383">
        <ele>695</ele>
        <time>2019-05-11T18:31:06Z</time>
      </trkpt>
      <trkpt lat="36.8795013427734" lon="-5.14546012878418">
        <ele>694</ele>
        <time>2019-05-11T18:31:08Z</time>
      </trkpt>
      <trkpt lat="36.8794860839844" lon="-5.14551210403442">
        <ele>694</ele>
        <time>2019-05-11T18:31:10Z</time>
      </trkpt>
      <trkpt lat="36.8794746398926" lon="-5.14556312561035">
        <ele>694</ele>
        <time>2019-05-11T18:31:13Z</time>
      </trkpt>
      <trkpt lat="36.8794555664062" lon="-5.14562177658081">
        <ele>694</ele>
        <time>2019-05-11T18:31:15Z</time>
      </trkpt>
      <trkpt lat="36.8794364929199" lon="-5.14567804336548">
        <ele>694</ele>
        <time>2019-05-11T18:31:17Z</time>
      </trkpt>
      <trkpt lat="36.8794250488281" lon="-5.14573192596436">
        <ele>693</ele>
        <time>2019-05-11T18:31:19Z</time>
      </trkpt>
      <trkpt lat="36.8794059753418" lon="-5.14578819274902">
        <ele>693</ele>
        <time>2019-05-11T18:31:21Z</time>
      </trkpt>
      <trkpt lat="36.8793907165527" lon="-5.1458420753479">
        <ele>691</ele>
        <time>2019-05-11T18:31:23Z</time>
      </trkpt>
      <trkpt lat="36.8793754577637" lon="-5.14589691162109">
        <ele>691</ele>
        <time>2019-05-11T18:31:25Z</time>
      </trkpt>
      <trkpt lat="36.8793601989746" lon="-5.14595222473144">
        <ele>691</ele>
        <time>2019-05-11T18:31:27Z</time>
      </trkpt>
      <trkpt lat="36.8793487548828" lon="-5.14600706100464">
        <ele>691</ele>
        <time>2019-05-11T18:31:29Z</time>
      </trkpt>
      <trkpt lat="36.8793296813965" lon="-5.14606189727783">
        <ele>690</ele>
        <time>2019-05-11T18:31:31Z</time>
      </trkpt>
      <trkpt lat="36.8793106079102" lon="-5.14611721038818">
        <ele>690</ele>
        <time>2019-05-11T18:31:33Z</time>
      </trkpt>
      <trkpt lat="36.8792953491211" lon="-5.14617204666138">
        <ele>690</ele>
        <time>2019-05-11T18:31:35Z</time>
      </trkpt>
      <trkpt lat="36.8792839050293" lon="-5.14623308181763">
        <ele>690</ele>
        <time>2019-05-11T18:31:37Z</time>
      </trkpt>
      <trkpt lat="36.8792724609375" lon="-5.14628982543945">
        <ele>689</ele>
        <time>2019-05-11T18:31:39Z</time>
      </trkpt>
      <trkpt lat="36.8792457580566" lon="-5.14637517929077">
        <ele>688</ele>
        <time>2019-05-11T18:31:41Z</time>
      </trkpt>
      <trkpt lat="36.8792266845703" lon="-5.14642715454102">
        <ele>688</ele>
        <time>2019-05-11T18:31:43Z</time>
      </trkpt>
      <trkpt lat="36.8792114257812" lon="-5.14647722244263">
        <ele>688</ele>
        <time>2019-05-11T18:31:45Z</time>
      </trkpt>
      <trkpt lat="36.8791961669922" lon="-5.14653205871582">
        <ele>688</ele>
        <time>2019-05-11T18:31:48Z</time>
      </trkpt>
      <trkpt lat="36.8791770935059" lon="-5.14658689498901">
        <ele>688</ele>
        <time>2019-05-11T18:31:50Z</time>
      </trkpt>
      <trkpt lat="36.8791580200195" lon="-5.14663696289062">
        <ele>686</ele>
        <time>2019-05-11T18:31:52Z</time>
      </trkpt>
      <trkpt lat="36.8791313171387" lon="-5.1466817855835">
        <ele>686</ele>
        <time>2019-05-11T18:31:54Z</time>
      </trkpt>
      <trkpt lat="36.8791122436523" lon="-5.1467170715332">
        <ele>686</ele>
        <time>2019-05-11T18:31:56Z</time>
      </trkpt>
      <trkpt lat="36.8791007995606" lon="-5.14674282073975">
        <ele>686</ele>
        <time>2019-05-11T18:31:58Z</time>
      </trkpt>
      <trkpt lat="36.8790893554688" lon="-5.14677000045776">
        <ele>686</ele>
        <time>2019-05-11T18:32:00Z</time>
      </trkpt>
      <trkpt lat="36.8790817260742" lon="-5.14680194854736">
        <ele>686</ele>
        <time>2019-05-11T18:32:02Z</time>
      </trkpt>
      <trkpt lat="36.8790702819824" lon="-5.14683723449707">
        <ele>686</ele>
        <time>2019-05-11T18:32:04Z</time>
      </trkpt>
      <trkpt lat="36.8790626525879" lon="-5.14686822891235">
        <ele>686</ele>
        <time>2019-05-11T18:32:06Z</time>
      </trkpt>
      <trkpt lat="36.8790512084961" lon="-5.14690685272217">
        <ele>686</ele>
        <time>2019-05-11T18:32:08Z</time>
      </trkpt>
      <trkpt lat="36.8790397644043" lon="-5.14693689346314">
        <ele>686</ele>
        <time>2019-05-11T18:32:10Z</time>
      </trkpt>
      <trkpt lat="36.8790283203125" lon="-5.14696788787842">
        <ele>686</ele>
        <time>2019-05-11T18:32:12Z</time>
      </trkpt>
      <trkpt lat="36.8790054321289" lon="-5.14701795578003">
        <ele>686</ele>
        <time>2019-05-11T18:32:14Z</time>
      </trkpt>
      <trkpt lat="36.8789939880371" lon="-5.14705276489258">
        <ele>686</ele>
        <time>2019-05-11T18:32:16Z</time>
      </trkpt>
      <trkpt lat="36.878978729248" lon="-5.14708709716797">
        <ele>686</ele>
        <time>2019-05-11T18:32:18Z</time>
      </trkpt>
      <trkpt lat="36.8789672851562" lon="-5.14712190628052">
        <ele>686</ele>
        <time>2019-05-11T18:32:20Z</time>
      </trkpt>
      <trkpt lat="36.8789558410644" lon="-5.14715814590454">
        <ele>686</ele>
        <time>2019-05-11T18:32:22Z</time>
      </trkpt>
      <trkpt lat="36.8789443969727" lon="-5.14719295501709">
        <ele>686</ele>
        <time>2019-05-11T18:32:25Z</time>
      </trkpt>
      <trkpt lat="36.8789329528809" lon="-5.14722776412964">
        <ele>686</ele>
        <time>2019-05-11T18:32:27Z</time>
      </trkpt>
      <trkpt lat="36.8789176940918" lon="-5.14726209640503">
        <ele>686</ele>
        <time>2019-05-11T18:32:29Z</time>
      </trkpt>
      <trkpt lat="36.87890625" lon="-5.14729690551758">
        <ele>686</ele>
        <time>2019-05-11T18:32:31Z</time>
      </trkpt>
      <trkpt lat="36.8788948059082" lon="-5.1473331451416">
        <ele>686</ele>
        <time>2019-05-11T18:32:33Z</time>
      </trkpt>
      <trkpt lat="36.8788833618164" lon="-5.14736986160278">
        <ele>686</ele>
        <time>2019-05-11T18:32:35Z</time>
      </trkpt>
      <trkpt lat="36.8788719177246" lon="-5.14740705490112">
        <ele>686</ele>
        <time>2019-05-11T18:32:37Z</time>
      </trkpt>
      <trkpt lat="36.8788566589356" lon="-5.14744186401367">
        <ele>686</ele>
        <time>2019-05-11T18:32:39Z</time>
      </trkpt>
      <trkpt lat="36.8788414001465" lon="-5.14747714996338">
        <ele>686</ele>
        <time>2019-05-11T18:32:41Z</time>
      </trkpt>
      <trkpt lat="36.8788299560547" lon="-5.14751291275024">
        <ele>686</ele>
        <time>2019-05-11T18:32:43Z</time>
      </trkpt>
      <trkpt lat="36.8788185119629" lon="-5.14755010604858">
        <ele>686</ele>
        <time>2019-05-11T18:32:45Z</time>
      </trkpt>
      <trkpt lat="36.8788032531738" lon="-5.14758682250977">
        <ele>686</ele>
        <time>2019-05-11T18:32:47Z</time>
      </trkpt>
      <trkpt lat="36.878791809082" lon="-5.14762210845947">
        <ele>686</ele>
        <time>2019-05-11T18:32:49Z</time>
      </trkpt>
      <trkpt lat="36.8787727355957" lon="-5.14767503738403">
        <ele>686</ele>
        <time>2019-05-11T18:32:51Z</time>
      </trkpt>
      <trkpt lat="36.8787612915039" lon="-5.14771223068237">
        <ele>686</ele>
        <time>2019-05-11T18:32:53Z</time>
      </trkpt>
      <trkpt lat="36.8787498474121" lon="-5.14774703979492">
        <ele>686</ele>
        <time>2019-05-11T18:32:55Z</time>
      </trkpt>
      <trkpt lat="36.8787384033203" lon="-5.14778184890747">
        <ele>686</ele>
        <time>2019-05-11T18:32:57Z</time>
      </trkpt>
      <trkpt lat="36.8787231445312" lon="-5.14781713485718">
        <ele>686</ele>
        <time>2019-05-11T18:33:00Z</time>
      </trkpt>
      <trkpt lat="36.8787117004394" lon="-5.14785194396973">
        <ele>686</ele>
        <time>2019-05-11T18:33:02Z</time>
      </trkpt>
      <trkpt lat="36.8786964416504" lon="-5.14788722991943">
        <ele>686</ele>
        <time>2019-05-11T18:33:04Z</time>
      </trkpt>
      <trkpt lat="36.8786849975586" lon="-5.14792203903198">
        <ele>686</ele>
        <time>2019-05-11T18:33:06Z</time>
      </trkpt>
      <trkpt lat="36.8786735534668" lon="-5.14795684814453">
        <ele>685</ele>
        <time>2019-05-11T18:33:08Z</time>
      </trkpt>
      <trkpt lat="36.878662109375" lon="-5.14799213409424">
        <ele>685</ele>
        <time>2019-05-11T18:33:10Z</time>
      </trkpt>
      <trkpt lat="36.8786582946777" lon="-5.1480278968811">
        <ele>685</ele>
        <time>2019-05-11T18:33:12Z</time>
      </trkpt>
      <trkpt lat="36.8786582946777" lon="-5.14807176589966">
        <ele>685</ele>
        <time>2019-05-11T18:33:14Z</time>
      </trkpt>
      <trkpt lat="36.8786544799805" lon="-5.14810800552368">
        <ele>685</ele>
        <time>2019-05-11T18:33:16Z</time>
      </trkpt>
      <trkpt lat="36.8786468505859" lon="-5.14814519882202">
        <ele>685</ele>
        <time>2019-05-11T18:33:18Z</time>
      </trkpt>
      <trkpt lat="36.8786392211914" lon="-5.14818286895752">
        <ele>685</ele>
        <time>2019-05-11T18:33:20Z</time>
      </trkpt>
      <trkpt lat="36.8786315917969" lon="-5.14822196960449">
        <ele>685</ele>
        <time>2019-05-11T18:33:22Z</time>
      </trkpt>
      <trkpt lat="36.8786239624023" lon="-5.14826202392578">
        <ele>685</ele>
        <time>2019-05-11T18:33:24Z</time>
      </trkpt>
      <trkpt lat="36.8786163330078" lon="-5.14832305908203">
        <ele>685</ele>
        <time>2019-05-11T18:33:26Z</time>
      </trkpt>
      <trkpt lat="36.8786125183106" lon="-5.14836311340332">
        <ele>685</ele>
        <time>2019-05-11T18:33:28Z</time>
      </trkpt>
      <trkpt lat="36.8786087036133" lon="-5.14840316772461">
        <ele>685</ele>
        <time>2019-05-11T18:33:30Z</time>
      </trkpt>
      <trkpt lat="36.8786087036133" lon="-5.1484432220459">
        <ele>685</ele>
        <time>2019-05-11T18:33:32Z</time>
      </trkpt>
      <trkpt lat="36.878604888916" lon="-5.14847993850708">
        <ele>685</ele>
        <time>2019-05-11T18:33:35Z</time>
      </trkpt>
      <trkpt lat="36.8786010742188" lon="-5.14851522445679">
        <ele>684</ele>
        <time>2019-05-11T18:33:37Z</time>
      </trkpt>
      <trkpt lat="36.8785972595215" lon="-5.14855003356934">
        <ele>684</ele>
        <time>2019-05-11T18:33:39Z</time>
      </trkpt>
      <trkpt lat="36.8785934448242" lon="-5.14858818054199">
        <ele>684</ele>
        <time>2019-05-11T18:33:41Z</time>
      </trkpt>
      <trkpt lat="36.8785858154297" lon="-5.14862489700317">
        <ele>684</ele>
        <time>2019-05-11T18:33:43Z</time>
      </trkpt>
      <trkpt lat="36.8785781860352" lon="-5.14866209030151">
        <ele>684</ele>
        <time>2019-05-11T18:33:45Z</time>
      </trkpt>
      <trkpt lat="36.8785743713379" lon="-5.14870023727417">
        <ele>683</ele>
        <time>2019-05-11T18:33:47Z</time>
      </trkpt>
      <trkpt lat="36.8785667419434" lon="-5.14873504638672">
        <ele>683</ele>
        <time>2019-05-11T18:33:49Z</time>
      </trkpt>
      <trkpt lat="36.8785591125488" lon="-5.1487717628479">
        <ele>683</ele>
        <time>2019-05-11T18:33:51Z</time>
      </trkpt>
      <trkpt lat="36.8785438537598" lon="-5.14880990982056">
        <ele>683</ele>
        <time>2019-05-11T18:33:53Z</time>
      </trkpt>
      <trkpt lat="36.878532409668" lon="-5.14884281158447">
        <ele>682</ele>
        <time>2019-05-11T18:33:55Z</time>
      </trkpt>
      <trkpt lat="36.8785209655762" lon="-5.14887523651123">
        <ele>681</ele>
        <time>2019-05-11T18:33:57Z</time>
      </trkpt>
      <trkpt lat="36.8785057067871" lon="-5.14890813827515">
        <ele>681</ele>
        <time>2019-05-11T18:33:59Z</time>
      </trkpt>
      <trkpt lat="36.878490447998" lon="-5.14894199371338">
        <ele>681</ele>
        <time>2019-05-11T18:34:01Z</time>
      </trkpt>
      <trkpt lat="36.8784675598144" lon="-5.14899015426636">
        <ele>681</ele>
        <time>2019-05-11T18:34:03Z</time>
      </trkpt>
      <trkpt lat="36.8784523010254" lon="-5.14902019500732">
        <ele>681</ele>
        <time>2019-05-11T18:34:05Z</time>
      </trkpt>
      <trkpt lat="36.8784332275391" lon="-5.14905214309692">
        <ele>681</ele>
        <time>2019-05-11T18:34:07Z</time>
      </trkpt>
      <trkpt lat="36.87841796875" lon="-5.14908218383789">
        <ele>681</ele>
        <time>2019-05-11T18:34:09Z</time>
      </trkpt>
      <trkpt lat="36.8783988952637" lon="-5.14910984039307">
        <ele>680</ele>
        <time>2019-05-11T18:34:11Z</time>
      </trkpt>
      <trkpt lat="36.8783836364746" lon="-5.1491379737854">
        <ele>680</ele>
        <time>2019-05-11T18:34:14Z</time>
      </trkpt>
      <trkpt lat="36.8783645629883" lon="-5.149169921875">
        <ele>680</ele>
        <time>2019-05-11T18:34:16Z</time>
      </trkpt>
      <trkpt lat="36.8783493041992" lon="-5.14919710159302">
        <ele>679</ele>
        <time>2019-05-11T18:34:18Z</time>
      </trkpt>
      <trkpt lat="36.8783302307129" lon="-5.14922523498535">
        <ele>679</ele>
        <time>2019-05-11T18:34:20Z</time>
      </trkpt>
      <trkpt lat="36.8783187866211" lon="-5.14925193786621">
        <ele>679</ele>
        <time>2019-05-11T18:34:22Z</time>
      </trkpt>
      <trkpt lat="36.878303527832" lon="-5.14927816390991">
        <ele>678</ele>
        <time>2019-05-11T18:34:24Z</time>
      </trkpt>
      <trkpt lat="36.8782844543457" lon="-5.14930820465088">
        <ele>678</ele>
        <time>2019-05-11T18:34:26Z</time>
      </trkpt>
      <trkpt lat="36.8782653808594" lon="-5.14933490753174">
        <ele>678</ele>
        <time>2019-05-11T18:34:28Z</time>
      </trkpt>
      <trkpt lat="36.878246307373" lon="-5.14936304092407">
        <ele>676</ele>
        <time>2019-05-11T18:34:30Z</time>
      </trkpt>
      <trkpt lat="36.878231048584" lon="-5.14939212799072">
        <ele>676</ele>
        <time>2019-05-11T18:34:32Z</time>
      </trkpt>
      <trkpt lat="36.8782119750977" lon="-5.14942216873169">
        <ele>676</ele>
        <time>2019-05-11T18:34:34Z</time>
      </trkpt>
      <trkpt lat="36.8781929016113" lon="-5.14944982528686">
        <ele>676</ele>
        <time>2019-05-11T18:34:36Z</time>
      </trkpt>
      <trkpt lat="36.878173828125" lon="-5.14947700500488">
        <ele>676</ele>
        <time>2019-05-11T18:34:38Z</time>
      </trkpt>
      <trkpt lat="36.8781433105469" lon="-5.14951801300049">
        <ele>676</ele>
        <time>2019-05-11T18:34:40Z</time>
      </trkpt>
      <trkpt lat="36.8781280517578" lon="-5.14954710006714">
        <ele>676</ele>
        <time>2019-05-11T18:34:42Z</time>
      </trkpt>
      <trkpt lat="36.8781089782715" lon="-5.14957523345947">
        <ele>676</ele>
        <time>2019-05-11T18:34:44Z</time>
      </trkpt>
      <trkpt lat="36.8780937194824" lon="-5.14960289001465">
        <ele>676</ele>
        <time>2019-05-11T18:34:46Z</time>
      </trkpt>
      <trkpt lat="36.8780784606934" lon="-5.14963293075562">
        <ele>675</ele>
        <time>2019-05-11T18:34:49Z</time>
      </trkpt>
      <trkpt lat="36.8780632019043" lon="-5.14966297149658">
        <ele>675</ele>
        <time>2019-05-11T18:34:51Z</time>
      </trkpt>
      <trkpt lat="36.878044128418" lon="-5.14969205856323">
        <ele>674</ele>
        <time>2019-05-11T18:34:53Z</time>
      </trkpt>
      <trkpt lat="36.8780288696289" lon="-5.14972305297852">
        <ele>674</ele>
        <time>2019-05-11T18:34:55Z</time>
      </trkpt>
      <trkpt lat="36.8780136108398" lon="-5.14975500106812">
        <ele>674</ele>
        <time>2019-05-11T18:34:57Z</time>
      </trkpt>
      <trkpt lat="36.8779983520508" lon="-5.14978694915772">
        <ele>674</ele>
        <time>2019-05-11T18:34:59Z</time>
      </trkpt>
      <trkpt lat="36.8779792785644" lon="-5.14981698989868">
        <ele>673</ele>
        <time>2019-05-11T18:35:01Z</time>
      </trkpt>
      <trkpt lat="36.8779640197754" lon="-5.14984703063965">
        <ele>673</ele>
        <time>2019-05-11T18:35:03Z</time>
      </trkpt>
      <trkpt lat="36.8779487609863" lon="-5.14987993240356">
        <ele>673</ele>
        <time>2019-05-11T18:35:05Z</time>
      </trkpt>
      <trkpt lat="36.8779335021973" lon="-5.14991283416748">
        <ele>673</ele>
        <time>2019-05-11T18:35:07Z</time>
      </trkpt>
      <trkpt lat="36.8779182434082" lon="-5.14994287490845">
        <ele>673</ele>
        <time>2019-05-11T18:35:09Z</time>
      </trkpt>
      <trkpt lat="36.8779067993164" lon="-5.14997720718384">
        <ele>672</ele>
        <time>2019-05-11T18:35:11Z</time>
      </trkpt>
      <trkpt lat="36.8778839111328" lon="-5.15002298355103">
        <ele>671</ele>
        <time>2019-05-11T18:35:13Z</time>
      </trkpt>
      <trkpt lat="36.8778648376465" lon="-5.15005302429199">
        <ele>671</ele>
        <time>2019-05-11T18:35:15Z</time>
      </trkpt>
      <trkpt lat="36.8778419494629" lon="-5.15008211135864">
        <ele>671</ele>
        <time>2019-05-11T18:35:17Z</time>
      </trkpt>
      <trkpt lat="36.8778266906738" lon="-5.15010976791382">
        <ele>671</ele>
        <time>2019-05-11T18:35:19Z</time>
      </trkpt>
      <trkpt lat="36.8778114318848" lon="-5.15014219284058">
        <ele>671</ele>
        <time>2019-05-11T18:35:21Z</time>
      </trkpt>
      <trkpt lat="36.8777923583984" lon="-5.15017318725586">
        <ele>671</ele>
        <time>2019-05-11T18:35:24Z</time>
      </trkpt>
      <trkpt lat="36.8777809143066" lon="-5.15020513534546">
        <ele>670</ele>
        <time>2019-05-11T18:35:26Z</time>
      </trkpt>
      <trkpt lat="36.8777656555176" lon="-5.15023708343506">
        <ele>670</ele>
        <time>2019-05-11T18:35:28Z</time>
      </trkpt>
      <trkpt lat="36.8777503967285" lon="-5.15026712417603">
        <ele>670</ele>
        <time>2019-05-11T18:35:30Z</time>
      </trkpt>
      <trkpt lat="36.8777313232422" lon="-5.1502947807312">
        <ele>669</ele>
        <time>2019-05-11T18:35:32Z</time>
      </trkpt>
      <trkpt lat="36.8777198791504" lon="-5.15032291412354">
        <ele>669</ele>
        <time>2019-05-11T18:35:34Z</time>
      </trkpt>
      <trkpt lat="36.8777046203613" lon="-5.15035486221314">
        <ele>669</ele>
        <time>2019-05-11T18:35:36Z</time>
      </trkpt>
      <trkpt lat="36.8776893615723" lon="-5.15038681030273">
        <ele>669</ele>
        <time>2019-05-11T18:35:38Z</time>
      </trkpt>
      <trkpt lat="36.8776741027832" lon="-5.15042304992676">
        <ele>668</ele>
        <time>2019-05-11T18:35:40Z</time>
      </trkpt>
      <trkpt lat="36.8776664733887" lon="-5.15046310424805">
        <ele>668</ele>
        <time>2019-05-11T18:35:42Z</time>
      </trkpt>
      <trkpt lat="36.8776550292969" lon="-5.15050220489502">
        <ele>667</ele>
        <time>2019-05-11T18:35:44Z</time>
      </trkpt>
      <trkpt lat="36.8776397705078" lon="-5.15053796768188">
        <ele>666</ele>
        <time>2019-05-11T18:35:46Z</time>
      </trkpt>
      <trkpt lat="36.877628326416" lon="-5.15057182312012">
        <ele>666</ele>
        <time>2019-05-11T18:35:48Z</time>
      </trkpt>
      <trkpt lat="36.8776092529297" lon="-5.15061807632446">
        <ele>666</ele>
        <time>2019-05-11T18:35:50Z</time>
      </trkpt>
      <trkpt lat="36.8776016235352" lon="-5.15064811706543">
        <ele>665</ele>
        <time>2019-05-11T18:35:52Z</time>
      </trkpt>
      <trkpt lat="36.8775901794434" lon="-5.15067481994629">
        <ele>665</ele>
        <time>2019-05-11T18:35:54Z</time>
      </trkpt>
      <trkpt lat="36.8775787353516" lon="-5.15069818496704">
        <ele>664</ele>
        <time>2019-05-11T18:35:56Z</time>
      </trkpt>
      <trkpt lat="36.8775634765625" lon="-5.15072822570801">
        <ele>664</ele>
        <time>2019-05-11T18:35:58Z</time>
      </trkpt>
      <trkpt lat="36.877555847168" lon="-5.15076017379761">
        <ele>664</ele>
        <time>2019-05-11T18:36:01Z</time>
      </trkpt>
      <trkpt lat="36.8775482177734" lon="-5.15079021453857">
        <ele>664</ele>
        <time>2019-05-11T18:36:03Z</time>
      </trkpt>
      <trkpt lat="36.8775367736816" lon="-5.15082502365112">
        <ele>664</ele>
        <time>2019-05-11T18:36:05Z</time>
      </trkpt>
      <trkpt lat="36.8775291442871" lon="-5.15085792541504">
        <ele>664</ele>
        <time>2019-05-11T18:36:07Z</time>
      </trkpt>
      <trkpt lat="36.877513885498" lon="-5.15088701248169">
        <ele>664</ele>
        <time>2019-05-11T18:36:09Z</time>
      </trkpt>
      <trkpt lat="36.8775024414062" lon="-5.15091800689697">
        <ele>664</ele>
        <time>2019-05-11T18:36:11Z</time>
      </trkpt>
      <trkpt lat="36.8774948120117" lon="-5.15095520019531">
        <ele>664</ele>
        <time>2019-05-11T18:36:13Z</time>
      </trkpt>
      <trkpt lat="36.8774833679199" lon="-5.15098714828491">
        <ele>664</ele>
        <time>2019-05-11T18:36:15Z</time>
      </trkpt>
      <trkpt lat="36.8774719238281" lon="-5.1510181427002">
        <ele>664</ele>
        <time>2019-05-11T18:36:17Z</time>
      </trkpt>
      <trkpt lat="36.8774642944336" lon="-5.15104722976685">
        <ele>664</ele>
        <time>2019-05-11T18:36:19Z</time>
      </trkpt>
      <trkpt lat="36.8774566650391" lon="-5.15108013153076">
        <ele>663</ele>
        <time>2019-05-11T18:36:21Z</time>
      </trkpt>
      <trkpt lat="36.87744140625" lon="-5.15111207962036">
        <ele>663</ele>
        <time>2019-05-11T18:36:23Z</time>
      </trkpt>
      <trkpt lat="36.8774299621582" lon="-5.15114688873291">
        <ele>663</ele>
        <time>2019-05-11T18:36:25Z</time>
      </trkpt>
      <trkpt lat="36.8774108886719" lon="-5.15119791030884">
        <ele>663</ele>
        <time>2019-05-11T18:36:27Z</time>
      </trkpt>
      <trkpt lat="36.8773994445801" lon="-5.15123176574707">
        <ele>663</ele>
        <time>2019-05-11T18:36:29Z</time>
      </trkpt>
      <trkpt lat="36.8773918151856" lon="-5.15126705169678">
        <ele>663</ele>
        <time>2019-05-11T18:36:31Z</time>
      </trkpt>
      <trkpt lat="36.8773765563965" lon="-5.15129804611206">
        <ele>663</ele>
        <time>2019-05-11T18:36:33Z</time>
      </trkpt>
      <trkpt lat="36.8773651123047" lon="-5.15132999420166">
        <ele>663</ele>
        <time>2019-05-11T18:36:36Z</time>
      </trkpt>
      <trkpt lat="36.8773536682129" lon="-5.15136194229126">
        <ele>663</ele>
        <time>2019-05-11T18:36:38Z</time>
      </trkpt>
      <trkpt lat="36.8773422241211" lon="-5.15139293670654">
        <ele>663</ele>
        <time>2019-05-11T18:36:40Z</time>
      </trkpt>
      <trkpt lat="36.8773345947266" lon="-5.15142679214478">
        <ele>663</ele>
        <time>2019-05-11T18:36:42Z</time>
      </trkpt>
      <trkpt lat="36.8773231506348" lon="-5.15145683288574">
        <ele>663</ele>
        <time>2019-05-11T18:36:44Z</time>
      </trkpt>
      <trkpt lat="36.877311706543" lon="-5.15148687362671">
        <ele>663</ele>
        <time>2019-05-11T18:36:46Z</time>
      </trkpt>
      <trkpt lat="36.8773002624512" lon="-5.15151500701904">
        <ele>663</ele>
        <time>2019-05-11T18:36:48Z</time>
      </trkpt>
      <trkpt lat="36.8772926330566" lon="-5.15154695510864">
        <ele>663</ele>
        <time>2019-05-11T18:36:50Z</time>
      </trkpt>
      <trkpt lat="36.8772811889648" lon="-5.15157794952393">
        <ele>663</ele>
        <time>2019-05-11T18:36:52Z</time>
      </trkpt>
      <trkpt lat="36.8772773742676" lon="-5.15161180496216">
        <ele>663</ele>
        <time>2019-05-11T18:36:54Z</time>
      </trkpt>
      <trkpt lat="36.8772659301758" lon="-5.15164184570312">
        <ele>663</ele>
        <time>2019-05-11T18:36:56Z</time>
      </trkpt>
      <trkpt lat="36.877254486084" lon="-5.15167188644409">
        <ele>661</ele>
        <time>2019-05-11T18:36:58Z</time>
      </trkpt>
      <trkpt lat="36.8772468566894" lon="-5.15170288085938">
        <ele>661</ele>
        <time>2019-05-11T18:37:00Z</time>
      </trkpt>
      <trkpt lat="36.8772354125977" lon="-5.15173816680908">
        <ele>661</ele>
        <time>2019-05-11T18:37:02Z</time>
      </trkpt>
      <trkpt lat="36.8772163391113" lon="-5.15178823471069">
        <ele>661</ele>
        <time>2019-05-11T18:37:04Z</time>
      </trkpt>
      <trkpt lat="36.8772048950195" lon="-5.15182685852051">
        <ele>661</ele>
        <time>2019-05-11T18:37:06Z</time>
      </trkpt>
      <trkpt lat="36.8771934509277" lon="-5.15186214447022">
        <ele>661</ele>
        <time>2019-05-11T18:37:08Z</time>
      </trkpt>
      <trkpt lat="36.8771820068359" lon="-5.15189504623413">
        <ele>661</ele>
        <time>2019-05-11T18:37:10Z</time>
      </trkpt>
      <trkpt lat="36.8771705627441" lon="-5.15192985534668">
        <ele>661</ele>
        <time>2019-05-11T18:37:12Z</time>
      </trkpt>
      <trkpt lat="36.8771591186523" lon="-5.15196180343628">
        <ele>661</ele>
        <time>2019-05-11T18:37:15Z</time>
      </trkpt>
      <trkpt lat="36.8771514892578" lon="-5.15199279785156">
        <ele>661</ele>
        <time>2019-05-11T18:37:17Z</time>
      </trkpt>
      <trkpt lat="36.877140045166" lon="-5.15202522277832">
        <ele>661</ele>
        <time>2019-05-11T18:37:19Z</time>
      </trkpt>
      <trkpt lat="36.8771286010742" lon="-5.15205478668213">
        <ele>661</ele>
        <time>2019-05-11T18:37:21Z</time>
      </trkpt>
      <trkpt lat="36.8771171569824" lon="-5.15208721160889">
        <ele>661</ele>
        <time>2019-05-11T18:37:23Z</time>
      </trkpt>
      <trkpt lat="36.8771133422852" lon="-5.15211820602417">
        <ele>661</ele>
        <time>2019-05-11T18:37:25Z</time>
      </trkpt>
      <trkpt lat="36.8771095275879" lon="-5.15215301513672">
        <ele>661</ele>
        <time>2019-05-11T18:37:27Z</time>
      </trkpt>
      <trkpt lat="36.8771018981934" lon="-5.15219020843506">
        <ele>661</ele>
        <time>2019-05-11T18:37:29Z</time>
      </trkpt>
      <trkpt lat="36.8771018981934" lon="-5.15222692489624">
        <ele>661</ele>
        <time>2019-05-11T18:37:31Z</time>
      </trkpt>
      <trkpt lat="36.8770942687988" lon="-5.15225982666016">
        <ele>661</ele>
        <time>2019-05-11T18:37:33Z</time>
      </trkpt>
      <trkpt lat="36.8770904541016" lon="-5.15229797363281">
        <ele>661</ele>
        <time>2019-05-11T18:37:35Z</time>
      </trkpt>
      <trkpt lat="36.877082824707" lon="-5.15233516693115">
        <ele>661</ele>
        <time>2019-05-11T18:37:37Z</time>
      </trkpt>
      <trkpt lat="36.8770751953125" lon="-5.15237283706665">
        <ele>661</ele>
        <time>2019-05-11T18:37:39Z</time>
      </trkpt>
      <trkpt lat="36.877067565918" lon="-5.15243005752564">
        <ele>660</ele>
        <time>2019-05-11T18:37:41Z</time>
      </trkpt>
      <trkpt lat="36.8770599365234" lon="-5.15246820449829">
        <ele>660</ele>
        <time>2019-05-11T18:37:43Z</time>
      </trkpt>
      <trkpt lat="36.8770523071289" lon="-5.15250778198242">
        <ele>660</ele>
        <time>2019-05-11T18:37:45Z</time>
      </trkpt>
      <trkpt lat="36.8770446777344" lon="-5.15254497528076">
        <ele>660</ele>
        <time>2019-05-11T18:37:47Z</time>
      </trkpt>
      <trkpt lat="36.8770370483398" lon="-5.15257978439331">
        <ele>660</ele>
        <time>2019-05-11T18:37:50Z</time>
      </trkpt>
      <trkpt lat="36.8770294189453" lon="-5.15261793136597">
        <ele>660</ele>
        <time>2019-05-11T18:37:52Z</time>
      </trkpt>
      <trkpt lat="36.8770217895508" lon="-5.15265512466431">
        <ele>660</ele>
        <time>2019-05-11T18:37:54Z</time>
      </trkpt>
      <trkpt lat="36.8770217895508" lon="-5.15268993377686">
        <ele>660</ele>
        <time>2019-05-11T18:37:56Z</time>
      </trkpt>
      <trkpt lat="36.877010345459" lon="-5.15272283554077">
        <ele>659</ele>
        <time>2019-05-11T18:37:58Z</time>
      </trkpt>
      <trkpt lat="36.8770065307617" lon="-5.15275716781616">
        <ele>659</ele>
        <time>2019-05-11T18:38:00Z</time>
      </trkpt>
      <trkpt lat="36.8769989013672" lon="-5.15279197692871">
        <ele>659</ele>
        <time>2019-05-11T18:38:02Z</time>
      </trkpt>
      <trkpt lat="36.8769912719727" lon="-5.15282201766968">
        <ele>659</ele>
        <time>2019-05-11T18:38:04Z</time>
      </trkpt>
      <trkpt lat="36.8769836425781" lon="-5.15285682678223">
        <ele>659</ele>
        <time>2019-05-11T18:38:06Z</time>
      </trkpt>
      <trkpt lat="36.8769721984863" lon="-5.1528902053833">
        <ele>659</ele>
        <time>2019-05-11T18:38:08Z</time>
      </trkpt>
      <trkpt lat="36.8769607543945" lon="-5.15292310714722">
        <ele>659</ele>
        <time>2019-05-11T18:38:10Z</time>
      </trkpt>
      <trkpt lat="36.876953125" lon="-5.15295696258545">
        <ele>658</ele>
        <time>2019-05-11T18:38:12Z</time>
      </trkpt>
      <trkpt lat="36.8769493103027" lon="-5.15299320220947">
        <ele>657</ele>
        <time>2019-05-11T18:38:14Z</time>
      </trkpt>
      <trkpt lat="36.8769378662109" lon="-5.15304708480835">
        <ele>656</ele>
        <time>2019-05-11T18:38:16Z</time>
      </trkpt>
      <trkpt lat="36.8769340515137" lon="-5.15306282043457">
        <ele>656</ele>
        <time>2019-05-11T18:38:18Z</time>
      </trkpt>
      <trkpt lat="36.8769264221191" lon="-5.15311288833618">
        <ele>656</ele>
        <time>2019-05-11T18:38:20Z</time>
      </trkpt>
      <trkpt lat="36.8769187927246" lon="-5.15314817428589">
        <ele>656</ele>
        <time>2019-05-11T18:38:22Z</time>
      </trkpt>
      <trkpt lat="36.8769111633301" lon="-5.15317821502686">
        <ele>655</ele>
        <time>2019-05-11T18:38:24Z</time>
      </trkpt>
      <trkpt lat="36.8769073486328" lon="-5.15321016311646">
        <ele>655</ele>
        <time>2019-05-11T18:38:27Z</time>
      </trkpt>
      <trkpt lat="36.8769035339356" lon="-5.15324020385742">
        <ele>655</ele>
        <time>2019-05-11T18:38:29Z</time>
      </trkpt>
      <trkpt lat="36.8768920898438" lon="-5.15327215194702">
        <ele>655</ele>
        <time>2019-05-11T18:38:31Z</time>
      </trkpt>
      <trkpt lat="36.8768882751465" lon="-5.15330505371094">
        <ele>655</ele>
        <time>2019-05-11T18:38:33Z</time>
      </trkpt>
      <trkpt lat="36.8768768310547" lon="-5.15333700180054">
        <ele>654</ele>
        <time>2019-05-11T18:38:35Z</time>
      </trkpt>
      <trkpt lat="36.8768692016602" lon="-5.15336990356445">
        <ele>654</ele>
        <time>2019-05-11T18:38:37Z</time>
      </trkpt>
      <trkpt lat="36.8768615722656" lon="-5.15340280532837">
        <ele>654</ele>
        <time>2019-05-11T18:38:39Z</time>
      </trkpt>
      <trkpt lat="36.8768577575684" lon="-5.15343523025513">
        <ele>653</ele>
        <time>2019-05-11T18:38:41Z</time>
      </trkpt>
      <trkpt lat="36.8768539428711" lon="-5.15347003936768">
        <ele>653</ele>
        <time>2019-05-11T18:38:43Z</time>
      </trkpt>
      <trkpt lat="36.8768501281738" lon="-5.15350294113159">
        <ele>651</ele>
        <time>2019-05-11T18:38:45Z</time>
      </trkpt>
      <trkpt lat="36.8768463134766" lon="-5.1535382270813">
        <ele>651</ele>
        <time>2019-05-11T18:38:47Z</time>
      </trkpt>
      <trkpt lat="36.876838684082" lon="-5.15357494354248">
        <ele>651</ele>
        <time>2019-05-11T18:38:49Z</time>
      </trkpt>
      <trkpt lat="36.8768272399902" lon="-5.1536078453064">
        <ele>651</ele>
        <time>2019-05-11T18:38:51Z</time>
      </trkpt>
      <trkpt lat="36.876823425293" lon="-5.15366220474243">
        <ele>651</ele>
        <time>2019-05-11T18:38:53Z</time>
      </trkpt>
      <trkpt lat="36.8768196105957" lon="-5.15370178222656">
        <ele>651</ele>
        <time>2019-05-11T18:38:55Z</time>
      </trkpt>
      <trkpt lat="36.8768119812012" lon="-5.15373706817627">
        <ele>651</ele>
        <time>2019-05-11T18:38:57Z</time>
      </trkpt>
      <trkpt lat="36.8768081665039" lon="-5.15377283096314">
        <ele>651</ele>
        <time>2019-05-11T18:38:59Z</time>
      </trkpt>
      <trkpt lat="36.8768005371094" lon="-5.15380716323853">
        <ele>651</ele>
        <time>2019-05-11T18:39:01Z</time>
      </trkpt>
      <trkpt lat="36.8767967224121" lon="-5.15384483337402">
        <ele>651</ele>
        <time>2019-05-11T18:39:04Z</time>
      </trkpt>
      <trkpt lat="36.8767890930176" lon="-5.1538782119751">
        <ele>651</ele>
        <time>2019-05-11T18:39:06Z</time>
      </trkpt>
      <trkpt lat="36.876781463623" lon="-5.15391492843628">
        <ele>651</ele>
        <time>2019-05-11T18:39:08Z</time>
      </trkpt>
      <trkpt lat="36.8767738342285" lon="-5.15395021438599">
        <ele>651</ele>
        <time>2019-05-11T18:39:10Z</time>
      </trkpt>
      <trkpt lat="36.876766204834" lon="-5.15398788452148">
        <ele>651</ele>
        <time>2019-05-11T18:39:12Z</time>
      </trkpt>
      <trkpt lat="36.8767585754394" lon="-5.15402317047119">
        <ele>651</ele>
        <time>2019-05-11T18:39:14Z</time>
      </trkpt>
      <trkpt lat="36.8767547607422" lon="-5.15405797958374">
        <ele>651</ele>
        <time>2019-05-11T18:39:16Z</time>
      </trkpt>
      <trkpt lat="36.8767471313477" lon="-5.15409517288208">
        <ele>651</ele>
        <time>2019-05-11T18:39:18Z</time>
      </trkpt>
      <trkpt lat="36.8767433166504" lon="-5.15413188934326">
        <ele>651</ele>
        <time>2019-05-11T18:39:20Z</time>
      </trkpt>
      <trkpt lat="36.8767356872559" lon="-5.15416812896728">
        <ele>650</ele>
        <time>2019-05-11T18:39:22Z</time>
      </trkpt>
      <trkpt lat="36.8767318725586" lon="-5.15420484542847">
        <ele>650</ele>
        <time>2019-05-11T18:39:24Z</time>
      </trkpt>
      <trkpt lat="36.8767280578613" lon="-5.15424203872681">
        <ele>650</ele>
        <time>2019-05-11T18:39:26Z</time>
      </trkpt>
      <trkpt lat="36.8767204284668" lon="-5.15427684783936">
        <ele>650</ele>
        <time>2019-05-11T18:39:28Z</time>
      </trkpt>
      <trkpt lat="36.8767166137695" lon="-5.15432691574097">
        <ele>650</ele>
        <time>2019-05-11T18:39:30Z</time>
      </trkpt>
      <trkpt lat="36.8767051696777" lon="-5.15436220169067">
        <ele>650</ele>
        <time>2019-05-11T18:39:32Z</time>
      </trkpt>
      <trkpt lat="36.8767013549805" lon="-5.15439796447754">
        <ele>650</ele>
        <time>2019-05-11T18:39:34Z</time>
      </trkpt>
      <trkpt lat="36.8766937255859" lon="-5.15443181991577">
        <ele>650</ele>
        <time>2019-05-11T18:39:36Z</time>
      </trkpt>
      <trkpt lat="36.8766860961914" lon="-5.15446710586548">
        <ele>650</ele>
        <time>2019-05-11T18:39:38Z</time>
      </trkpt>
      <trkpt lat="36.8766784667969" lon="-5.15450286865234">
        <ele>650</ele>
        <time>2019-05-11T18:39:41Z</time>
      </trkpt>
      <trkpt lat="36.8766708374023" lon="-5.15454006195068">
        <ele>650</ele>
        <time>2019-05-11T18:39:43Z</time>
      </trkpt>
      <trkpt lat="36.8766632080078" lon="-5.15457487106323">
        <ele>650</ele>
        <time>2019-05-11T18:39:45Z</time>
      </trkpt>
      <trkpt lat="36.8766593933106" lon="-5.15460681915283">
        <ele>650</ele>
        <time>2019-05-11T18:39:47Z</time>
      </trkpt>
      <trkpt lat="36.8766555786133" lon="-5.15463781356812">
        <ele>649</ele>
        <time>2019-05-11T18:39:49Z</time>
      </trkpt>
      <trkpt lat="36.876651763916" lon="-5.15467500686646">
        <ele>649</ele>
        <time>2019-05-11T18:39:51Z</time>
      </trkpt>
      <trkpt lat="36.8766479492188" lon="-5.15471315383911">
        <ele>649</ele>
        <time>2019-05-11T18:39:53Z</time>
      </trkpt>
      <trkpt lat="36.8766441345215" lon="-5.15474987030029">
        <ele>649</ele>
        <time>2019-05-11T18:39:55Z</time>
      </trkpt>
      <trkpt lat="36.8766403198242" lon="-5.15478515625">
        <ele>648</ele>
        <time>2019-05-11T18:39:57Z</time>
      </trkpt>
      <trkpt lat="36.876636505127" lon="-5.15481996536255">
        <ele>648</ele>
        <time>2019-05-11T18:39:59Z</time>
      </trkpt>
      <trkpt lat="36.8766326904297" lon="-5.15485191345215">
        <ele>646</ele>
        <time>2019-05-11T18:40:01Z</time>
      </trkpt>
      <trkpt lat="36.8766288757324" lon="-5.15488481521606">
        <ele>646</ele>
        <time>2019-05-11T18:40:03Z</time>
      </trkpt>
      <trkpt lat="36.8766174316406" lon="-5.15493202209473">
        <ele>646</ele>
        <time>2019-05-11T18:40:05Z</time>
      </trkpt>
      <trkpt lat="36.8766136169434" lon="-5.15496301651001">
        <ele>646</ele>
        <time>2019-05-11T18:40:07Z</time>
      </trkpt>
      <trkpt lat="36.8766059875488" lon="-5.15500020980835">
        <ele>646</ele>
        <time>2019-05-11T18:40:09Z</time>
      </trkpt>
      <trkpt lat="36.8766021728516" lon="-5.1550350189209">
        <ele>646</ele>
        <time>2019-05-11T18:40:11Z</time>
      </trkpt>
      <trkpt lat="36.8765983581543" lon="-5.1550669670105">
        <ele>646</ele>
        <time>2019-05-11T18:40:14Z</time>
      </trkpt>
      <trkpt lat="36.8765983581543" lon="-5.15509986877441">
        <ele>645</ele>
        <time>2019-05-11T18:40:16Z</time>
      </trkpt>
      <trkpt lat="36.8765907287598" lon="-5.15513277053833">
        <ele>645</ele>
        <time>2019-05-11T18:40:18Z</time>
      </trkpt>
      <trkpt lat="36.8765830993652" lon="-5.15516710281372">
        <ele>645</ele>
        <time>2019-05-11T18:40:20Z</time>
      </trkpt>
      <trkpt lat="36.8765830993652" lon="-5.15520000457764">
        <ele>645</ele>
        <time>2019-05-11T18:40:22Z</time>
      </trkpt>
      <trkpt lat="36.8765754699707" lon="-5.15523719787598">
        <ele>645</ele>
        <time>2019-05-11T18:40:24Z</time>
      </trkpt>
      <trkpt lat="36.8765716552734" lon="-5.15527009963989">
        <ele>645</ele>
        <time>2019-05-11T18:40:26Z</time>
      </trkpt>
      <trkpt lat="36.8765678405762" lon="-5.15530204772949">
        <ele>645</ele>
        <time>2019-05-11T18:40:28Z</time>
      </trkpt>
      <trkpt lat="36.8765602111816" lon="-5.15532684326172">
        <ele>645</ele>
        <time>2019-05-11T18:40:30Z</time>
      </trkpt>
      <trkpt lat="36.8765563964844" lon="-5.15535306930542">
        <ele>645</ele>
        <time>2019-05-11T18:40:32Z</time>
      </trkpt>
      <trkpt lat="36.8765525817871" lon="-5.15536785125732">
        <ele>645</ele>
        <time>2019-05-11T18:40:34Z</time>
      </trkpt>
      <trkpt lat="36.8765487670898" lon="-5.1553897857666">
        <ele>644</ele>
        <time>2019-05-11T18:40:36Z</time>
      </trkpt>
      <trkpt lat="36.8765411376953" lon="-5.15541982650757">
        <ele>644</ele>
        <time>2019-05-11T18:40:38Z</time>
      </trkpt>
      <trkpt lat="36.8765411376953" lon="-5.1554651260376">
        <ele>643</ele>
        <time>2019-05-11T18:40:40Z</time>
      </trkpt>
      <trkpt lat="36.8765411376953" lon="-5.15549278259277">
        <ele>643</ele>
        <time>2019-05-11T18:40:42Z</time>
      </trkpt>
      <trkpt lat="36.876537322998" lon="-5.15551996231079">
        <ele>641</ele>
        <time>2019-05-11T18:40:44Z</time>
      </trkpt>
      <trkpt lat="36.8765335083008" lon="-5.15554285049438">
        <ele>641</ele>
        <time>2019-05-11T18:40:46Z</time>
      </trkpt>
      <trkpt lat="36.8765335083008" lon="-5.15557193756104">
        <ele>641</ele>
        <time>2019-05-11T18:40:49Z</time>
      </trkpt>
      <trkpt lat="36.8765335083008" lon="-5.15557479858398">
        <ele>641</ele>
        <time>2019-05-11T18:40:51Z</time>
      </trkpt>
      <trkpt lat="36.8765182495117" lon="-5.15556716918945">
        <ele>641</ele>
        <time>2019-05-11T18:40:53Z</time>
      </trkpt>
      <trkpt lat="36.8765182495117" lon="-5.15556478500366">
        <ele>641</ele>
        <time>2019-05-11T18:40:55Z</time>
      </trkpt>
      <trkpt lat="36.8765144348144" lon="-5.15556812286377">
        <ele>641</ele>
        <time>2019-05-11T18:40:57Z</time>
      </trkpt>
      <trkpt lat="36.8765144348144" lon="-5.15556812286377">
        <ele>641</ele>
        <time>2019-05-11T18:40:59Z</time>
      </trkpt>
      <trkpt lat="36.8765144348144" lon="-5.1555700302124">
        <ele>641</ele>
        <time>2019-05-11T18:41:01Z</time>
      </trkpt>
      <trkpt lat="36.8765144348144" lon="-5.1555700302124">
        <ele>641</ele>
        <time>2019-05-11T18:41:03Z</time>
      </trkpt>
      <trkpt lat="36.8765144348144" lon="-5.1555700302124">
        <ele>641</ele>
        <time>2019-05-11T18:41:05Z</time>
      </trkpt>
      <trkpt lat="36.8765144348144" lon="-5.1555700302124">
        <ele>641</ele>
        <time>2019-05-11T18:41:07Z</time>
      </trkpt>
      <trkpt lat="36.8765258789062" lon="-5.15557289123535">
        <ele>641</ele>
        <time>2019-05-11T18:41:09Z</time>
      </trkpt>
      <trkpt lat="36.8765335083008" lon="-5.15559720993042">
        <ele>641</ele>
        <time>2019-05-11T18:41:11Z</time>
      </trkpt>
      <trkpt lat="36.8765335083008" lon="-5.15561199188232">
        <ele>641</ele>
        <time>2019-05-11T18:41:13Z</time>
      </trkpt>
      <trkpt lat="36.8765296936035" lon="-5.1556282043457">
        <ele>641</ele>
        <time>2019-05-11T18:41:15Z</time>
      </trkpt>
      <trkpt lat="36.8765258789062" lon="-5.15564298629761">
        <ele>641</ele>
        <time>2019-05-11T18:41:17Z</time>
      </trkpt>
      <trkpt lat="36.8765258789062" lon="-5.15566682815552">
        <ele>641</ele>
        <time>2019-05-11T18:41:19Z</time>
      </trkpt>
      <trkpt lat="36.8765182495117" lon="-5.15568780899048">
        <ele>641</ele>
        <time>2019-05-11T18:41:21Z</time>
      </trkpt>
      <trkpt lat="36.8765144348144" lon="-5.15571308135986">
        <ele>641</ele>
        <time>2019-05-11T18:41:23Z</time>
      </trkpt>
      <trkpt lat="36.8765068054199" lon="-5.15573692321777">
        <ele>641</ele>
        <time>2019-05-11T18:41:25Z</time>
      </trkpt>
      <trkpt lat="36.8765068054199" lon="-5.15577983856201">
        <ele>641</ele>
        <time>2019-05-11T18:41:27Z</time>
      </trkpt>
      <trkpt lat="36.8765029907227" lon="-5.15580797195435">
        <ele>641</ele>
        <time>2019-05-11T18:41:29Z</time>
      </trkpt>
      <trkpt lat="36.8765068054199" lon="-5.15583515167236">
        <ele>641</ele>
        <time>2019-05-11T18:41:31Z</time>
      </trkpt>
      <trkpt lat="36.8765068054199" lon="-5.15585803985596">
        <ele>641</ele>
        <time>2019-05-11T18:41:33Z</time>
      </trkpt>
      <trkpt lat="36.8765029907227" lon="-5.15588998794556">
        <ele>642</ele>
        <time>2019-05-11T18:41:36Z</time>
      </trkpt>
      <trkpt lat="36.8764915466309" lon="-5.15592288970947">
        <ele>642</ele>
        <time>2019-05-11T18:41:38Z</time>
      </trkpt>
      <trkpt lat="36.8764877319336" lon="-5.15595722198486">
        <ele>642</ele>
        <time>2019-05-11T18:41:40Z</time>
      </trkpt>
      <trkpt lat="36.8764762878418" lon="-5.15598297119141">
        <ele>642</ele>
        <time>2019-05-11T18:41:42Z</time>
      </trkpt>
      <trkpt lat="36.8764724731445" lon="-5.15601682662964">
        <ele>642</ele>
        <time>2019-05-11T18:41:44Z</time>
      </trkpt>
      <trkpt lat="36.8764686584473" lon="-5.15605306625366">
        <ele>642</ele>
        <time>2019-05-11T18:41:46Z</time>
      </trkpt>
      <trkpt lat="36.87646484375" lon="-5.15608501434326">
        <ele>642</ele>
        <time>2019-05-11T18:41:48Z</time>
      </trkpt>
      <trkpt lat="36.8764610290527" lon="-5.15611791610718">
        <ele>642</ele>
        <time>2019-05-11T18:41:50Z</time>
      </trkpt>
      <trkpt lat="36.8764533996582" lon="-5.15614795684814">
        <ele>642</ele>
        <time>2019-05-11T18:41:52Z</time>
      </trkpt>
      <trkpt lat="36.8764495849609" lon="-5.15618801116943">
        <ele>643</ele>
        <time>2019-05-11T18:41:54Z</time>
      </trkpt>
      <trkpt lat="36.8764457702637" lon="-5.15622711181641">
        <ele>643</ele>
        <time>2019-05-11T18:41:56Z</time>
      </trkpt>
      <trkpt lat="36.8764457702637" lon="-5.15626001358032">
        <ele>643</ele>
        <time>2019-05-11T18:41:58Z</time>
      </trkpt>
      <trkpt lat="36.8764419555664" lon="-5.15629816055298">
        <ele>643</ele>
        <time>2019-05-11T18:42:00Z</time>
      </trkpt>
      <trkpt lat="36.8764381408691" lon="-5.15635013580322">
        <ele>643</ele>
        <time>2019-05-11T18:42:02Z</time>
      </trkpt>
      <trkpt lat="36.8764381408691" lon="-5.15638780593872">
        <ele>643</ele>
        <time>2019-05-11T18:42:04Z</time>
      </trkpt>
      <trkpt lat="36.8764305114746" lon="-5.15642499923706">
        <ele>643</ele>
        <time>2019-05-11T18:42:06Z</time>
      </trkpt>
      <trkpt lat="36.8764305114746" lon="-5.15646314620972">
        <ele>643</ele>
        <time>2019-05-11T18:42:08Z</time>
      </trkpt>
      <trkpt lat="36.8764266967773" lon="-5.15650177001953">
        <ele>643</ele>
        <time>2019-05-11T18:42:11Z</time>
      </trkpt>
      <trkpt lat="36.8764190673828" lon="-5.15653276443481">
        <ele>643</ele>
        <time>2019-05-11T18:42:13Z</time>
      </trkpt>
      <trkpt lat="36.8764190673828" lon="-5.15656280517578">
        <ele>643</ele>
        <time>2019-05-11T18:42:15Z</time>
      </trkpt>
      <trkpt lat="36.8764228820801" lon="-5.15659189224243">
        <ele>643</ele>
        <time>2019-05-11T18:42:17Z</time>
      </trkpt>
      <trkpt lat="36.8764266967773" lon="-5.1566219329834">
        <ele>643</ele>
        <time>2019-05-11T18:42:19Z</time>
      </trkpt>
      <trkpt lat="36.8764343261719" lon="-5.15665483474731">
        <ele>643</ele>
        <time>2019-05-11T18:42:21Z</time>
      </trkpt>
      <trkpt lat="36.8764457702637" lon="-5.15669202804565">
        <ele>643</ele>
        <time>2019-05-11T18:42:23Z</time>
      </trkpt>
      <trkpt lat="36.8764610290527" lon="-5.15672016143799">
        <ele>643</ele>
        <time>2019-05-11T18:42:25Z</time>
      </trkpt>
      <trkpt lat="36.8764762878418" lon="-5.15674686431885">
        <ele>643</ele>
        <time>2019-05-11T18:42:27Z</time>
      </trkpt>
      <trkpt lat="36.8764915466309" lon="-5.15677213668823">
        <ele>641</ele>
        <time>2019-05-11T18:42:29Z</time>
      </trkpt>
      <trkpt lat="36.8765144348144" lon="-5.15679693222046">
        <ele>641</ele>
        <time>2019-05-11T18:42:31Z</time>
      </trkpt>
      <trkpt lat="36.8765335083008" lon="-5.15682506561279">
        <ele>641</ele>
        <time>2019-05-11T18:42:33Z</time>
      </trkpt>
      <trkpt lat="36.8765487670898" lon="-5.15685510635376">
        <ele>641</ele>
        <time>2019-05-11T18:42:35Z</time>
      </trkpt>
      <trkpt lat="36.8765563964844" lon="-5.15688514709473">
        <ele>641</ele>
        <time>2019-05-11T18:42:37Z</time>
      </trkpt>
      <trkpt lat="36.8765716552734" lon="-5.15693521499634">
        <ele>641</ele>
        <time>2019-05-11T18:42:39Z</time>
      </trkpt>
      <trkpt lat="36.876579284668" lon="-5.15696716308594">
        <ele>641</ele>
        <time>2019-05-11T18:42:41Z</time>
      </trkpt>
      <trkpt lat="36.8765830993652" lon="-5.15700197219849">
        <ele>640</ele>
        <time>2019-05-11T18:42:43Z</time>
      </trkpt>
      <trkpt lat="36.8765869140625" lon="-5.15703678131104">
        <ele>640</ele>
        <time>2019-05-11T18:42:46Z</time>
      </trkpt>
      <trkpt lat="36.8765869140625" lon="-5.15707302093506">
        <ele>639</ele>
        <time>2019-05-11T18:42:48Z</time>
      </trkpt>
      <trkpt lat="36.8765869140625" lon="-5.15710687637329">
        <ele>639</ele>
        <time>2019-05-11T18:42:50Z</time>
      </trkpt>
      <trkpt lat="36.876594543457" lon="-5.15713977813721">
        <ele>639</ele>
        <time>2019-05-11T18:42:52Z</time>
      </trkpt>
      <trkpt lat="36.8765983581543" lon="-5.15717506408691">
        <ele>639</ele>
        <time>2019-05-11T18:42:54Z</time>
      </trkpt>
      <trkpt lat="36.8765983581543" lon="-5.15721321105957">
        <ele>638</ele>
        <time>2019-05-11T18:42:56Z</time>
      </trkpt>
      <trkpt lat="36.8766059875488" lon="-5.15725183486938">
        <ele>638</ele>
        <time>2019-05-11T18:42:58Z</time>
      </trkpt>
      <trkpt lat="36.8766136169434" lon="-5.15728712081909">
        <ele>636</ele>
        <time>2019-05-11T18:43:00Z</time>
      </trkpt>
      <trkpt lat="36.8766250610352" lon="-5.15732288360596">
        <ele>636</ele>
        <time>2019-05-11T18:43:02Z</time>
      </trkpt>
      <trkpt lat="36.8766403198242" lon="-5.15735292434692">
        <ele>636</ele>
        <time>2019-05-11T18:43:04Z</time>
      </trkpt>
      <trkpt lat="36.876651763916" lon="-5.15738677978516">
        <ele>636</ele>
        <time>2019-05-11T18:43:06Z</time>
      </trkpt>
      <trkpt lat="36.8766670227051" lon="-5.15741777420044">
        <ele>636</ele>
        <time>2019-05-11T18:43:08Z</time>
      </trkpt>
      <trkpt lat="36.8766784667969" lon="-5.15744686126709">
        <ele>636</ele>
        <time>2019-05-11T18:43:10Z</time>
      </trkpt>
      <trkpt lat="36.8766860961914" lon="-5.15747690200806">
        <ele>636</ele>
        <time>2019-05-11T18:43:12Z</time>
      </trkpt>
      <trkpt lat="36.876708984375" lon="-5.15751791000366">
        <ele>636</ele>
        <time>2019-05-11T18:43:14Z</time>
      </trkpt>
      <trkpt lat="36.8767280578613" lon="-5.15754699707031">
        <ele>636</ele>
        <time>2019-05-11T18:43:16Z</time>
      </trkpt>
      <trkpt lat="36.8767471313477" lon="-5.15757513046265">
        <ele>636</ele>
        <time>2019-05-11T18:43:18Z</time>
      </trkpt>
      <trkpt lat="36.8767623901367" lon="-5.15760517120361">
        <ele>636</ele>
        <time>2019-05-11T18:43:20Z</time>
      </trkpt>
      <trkpt lat="36.876781463623" lon="-5.15763711929321">
        <ele>636</ele>
        <time>2019-05-11T18:43:23Z</time>
      </trkpt>
      <trkpt lat="36.8768005371094" lon="-5.15766477584839">
        <ele>636</ele>
        <time>2019-05-11T18:43:25Z</time>
      </trkpt>
      <trkpt lat="36.876823425293" lon="-5.15769290924072">
        <ele>636</ele>
        <time>2019-05-11T18:43:27Z</time>
      </trkpt>
      <trkpt lat="36.876838684082" lon="-5.15772008895874">
        <ele>636</ele>
        <time>2019-05-11T18:43:29Z</time>
      </trkpt>
      <trkpt lat="36.8768577575684" lon="-5.15775299072266">
        <ele>636</ele>
        <time>2019-05-11T18:43:31Z</time>
      </trkpt>
      <trkpt lat="36.8768768310547" lon="-5.15778017044067">
        <ele>636</ele>
        <time>2019-05-11T18:43:33Z</time>
      </trkpt>
      <trkpt lat="36.8768920898438" lon="-5.15780687332153">
        <ele>636</ele>
        <time>2019-05-11T18:43:35Z</time>
      </trkpt>
      <trkpt lat="36.8769111633301" lon="-5.15783309936523">
        <ele>636</ele>
        <time>2019-05-11T18:43:37Z</time>
      </trkpt>
      <trkpt lat="36.8769340515137" lon="-5.15786218643188">
        <ele>635</ele>
        <time>2019-05-11T18:43:39Z</time>
      </trkpt>
      <trkpt lat="36.876953125" lon="-5.15788698196411">
        <ele>635</ele>
        <time>2019-05-11T18:43:41Z</time>
      </trkpt>
      <trkpt lat="36.8769683837891" lon="-5.15791702270508">
        <ele>635</ele>
        <time>2019-05-11T18:43:43Z</time>
      </trkpt>
      <trkpt lat="36.8769874572754" lon="-5.15794277191162">
        <ele>635</ele>
        <time>2019-05-11T18:43:45Z</time>
      </trkpt>
      <trkpt lat="36.8770065307617" lon="-5.15797185897827">
        <ele>635</ele>
        <time>2019-05-11T18:43:47Z</time>
      </trkpt>
      <trkpt lat="36.8770294189453" lon="-5.15801286697388">
        <ele>634</ele>
        <time>2019-05-11T18:43:49Z</time>
      </trkpt>
      <trkpt lat="36.8770484924316" lon="-5.15804004669189">
        <ele>634</ele>
        <time>2019-05-11T18:43:51Z</time>
      </trkpt>
      <trkpt lat="36.877067565918" lon="-5.15806722640991">
        <ele>634</ele>
        <time>2019-05-11T18:43:53Z</time>
      </trkpt>
      <trkpt lat="36.877082824707" lon="-5.15809297561646">
        <ele>633</ele>
        <time>2019-05-11T18:43:56Z</time>
      </trkpt>
      <trkpt lat="36.8771018981934" lon="-5.15812206268311">
        <ele>633</ele>
        <time>2019-05-11T18:43:58Z</time>
      </trkpt>
      <trkpt lat="36.8771209716797" lon="-5.15814781188965">
        <ele>633</ele>
        <time>2019-05-11T18:44:00Z</time>
      </trkpt>
      <trkpt lat="36.8771362304688" lon="-5.15817499160767">
        <ele>633</ele>
        <time>2019-05-11T18:44:02Z</time>
      </trkpt>
      <trkpt lat="36.8771553039551" lon="-5.15820217132568">
        <ele>633</ele>
        <time>2019-05-11T18:44:04Z</time>
      </trkpt>
      <trkpt lat="36.8771705627441" lon="-5.15822792053223">
        <ele>631</ele>
        <time>2019-05-11T18:44:06Z</time>
      </trkpt>
      <trkpt lat="36.8771896362305" lon="-5.15825510025024">
        <ele>631</ele>
        <time>2019-05-11T18:44:08Z</time>
      </trkpt>
      <trkpt lat="36.8772048950195" lon="-5.1582818031311">
        <ele>631</ele>
        <time>2019-05-11T18:44:10Z</time>
      </trkpt>
      <trkpt lat="36.8772201538086" lon="-5.1583080291748">
        <ele>631</ele>
        <time>2019-05-11T18:44:12Z</time>
      </trkpt>
      <trkpt lat="36.8772392272949" lon="-5.15833711624146">
        <ele>631</ele>
        <time>2019-05-11T18:44:14Z</time>
      </trkpt>
      <trkpt lat="36.8772583007812" lon="-5.158362865448">
        <ele>631</ele>
        <time>2019-05-11T18:44:16Z</time>
      </trkpt>
      <trkpt lat="36.8772735595703" lon="-5.15838813781738">
        <ele>631</ele>
        <time>2019-05-11T18:44:18Z</time>
      </trkpt>
      <trkpt lat="36.8772926330566" lon="-5.15841293334961">
        <ele>631</ele>
        <time>2019-05-11T18:44:20Z</time>
      </trkpt>
      <trkpt lat="36.877311706543" lon="-5.15844202041626">
        <ele>631</ele>
        <time>2019-05-11T18:44:22Z</time>
      </trkpt>
      <trkpt lat="36.8773384094238" lon="-5.15848302841186">
        <ele>631</ele>
        <time>2019-05-11T18:44:24Z</time>
      </trkpt>
      <trkpt lat="36.8773574829102" lon="-5.15851020812988">
        <ele>631</ele>
        <time>2019-05-11T18:44:26Z</time>
      </trkpt>
      <trkpt lat="36.8773765563965" lon="-5.15853786468506">
        <ele>631</ele>
        <time>2019-05-11T18:44:28Z</time>
      </trkpt>
      <trkpt lat="36.8773918151856" lon="-5.15856313705444">
        <ele>631</ele>
        <time>2019-05-11T18:44:30Z</time>
      </trkpt>
      <trkpt lat="36.8774108886719" lon="-5.15859508514404">
        <ele>631</ele>
        <time>2019-05-11T18:44:33Z</time>
      </trkpt>
      <trkpt lat="36.8774261474609" lon="-5.15861988067627">
        <ele>630</ele>
        <time>2019-05-11T18:44:35Z</time>
      </trkpt>
      <trkpt lat="36.8774452209473" lon="-5.15864706039429">
        <ele>630</ele>
        <time>2019-05-11T18:44:37Z</time>
      </trkpt>
      <trkpt lat="36.8774604797363" lon="-5.15867280960083">
        <ele>630</ele>
        <time>2019-05-11T18:44:39Z</time>
      </trkpt>
      <trkpt lat="36.8774757385254" lon="-5.1586971282959">
        <ele>630</ele>
        <time>2019-05-11T18:44:41Z</time>
      </trkpt>
      <trkpt lat="36.8774948120117" lon="-5.15872478485107">
        <ele>630</ele>
        <time>2019-05-11T18:44:43Z</time>
      </trkpt>
      <trkpt lat="36.877513885498" lon="-5.15875291824341">
        <ele>630</ele>
        <time>2019-05-11T18:44:45Z</time>
      </trkpt>
      <trkpt lat="36.8775291442871" lon="-5.15878009796143">
        <ele>630</ele>
        <time>2019-05-11T18:44:47Z</time>
      </trkpt>
      <trkpt lat="36.8775482177734" lon="-5.15880680084228">
        <ele>630</ele>
        <time>2019-05-11T18:44:49Z</time>
      </trkpt>
      <trkpt lat="36.8775634765625" lon="-5.15883302688599">
        <ele>630</ele>
        <time>2019-05-11T18:44:51Z</time>
      </trkpt>
      <trkpt lat="36.8775825500488" lon="-5.15886306762695">
        <ele>630</ele>
        <time>2019-05-11T18:44:53Z</time>
      </trkpt>
      <trkpt lat="36.8776016235352" lon="-5.15888786315918">
        <ele>629</ele>
        <time>2019-05-11T18:44:55Z</time>
      </trkpt>
      <trkpt lat="36.8776245117188" lon="-5.1589298248291">
        <ele>629</ele>
        <time>2019-05-11T18:44:57Z</time>
      </trkpt>
      <trkpt lat="36.8776435852051" lon="-5.15895700454712">
        <ele>629</ele>
        <time>2019-05-11T18:44:59Z</time>
      </trkpt>
      <trkpt lat="36.8776550292969" lon="-5.15898513793945">
        <ele>628</ele>
        <time>2019-05-11T18:45:01Z</time>
      </trkpt>
      <trkpt lat="36.8776664733887" lon="-5.15901279449463">
        <ele>628</ele>
        <time>2019-05-11T18:45:03Z</time>
      </trkpt>
      <trkpt lat="36.8776893615723" lon="-5.15904188156128">
        <ele>628</ele>
        <time>2019-05-11T18:45:06Z</time>
      </trkpt>
      <trkpt lat="36.8777046203613" lon="-5.15907001495361">
        <ele>628</ele>
        <time>2019-05-11T18:45:08Z</time>
      </trkpt>
      <trkpt lat="36.8777198791504" lon="-5.15910005569458">
        <ele>628</ele>
        <time>2019-05-11T18:45:10Z</time>
      </trkpt>
      <trkpt lat="36.8777389526367" lon="-5.15912485122681">
        <ele>628</ele>
        <time>2019-05-11T18:45:12Z</time>
      </trkpt>
      <trkpt lat="36.877758026123" lon="-5.15915203094482">
        <ele>628</ele>
        <time>2019-05-11T18:45:14Z</time>
      </trkpt>
      <trkpt lat="36.8777732849121" lon="-5.15917778015137">
        <ele>628</ele>
        <time>2019-05-11T18:45:16Z</time>
      </trkpt>
      <trkpt lat="36.8777923583984" lon="-5.15920495986938">
        <ele>628</ele>
        <time>2019-05-11T18:45:18Z</time>
      </trkpt>
      <trkpt lat="36.8778114318848" lon="-5.1592321395874">
        <ele>628</ele>
        <time>2019-05-11T18:45:20Z</time>
      </trkpt>
      <trkpt lat="36.8778266906738" lon="-5.15925788879394">
        <ele>628</ele>
        <time>2019-05-11T18:45:22Z</time>
      </trkpt>
      <trkpt lat="36.8778457641602" lon="-5.1592869758606">
        <ele>628</ele>
        <time>2019-05-11T18:45:24Z</time>
      </trkpt>
      <trkpt lat="36.8778648376465" lon="-5.1593132019043">
        <ele>628</ele>
        <time>2019-05-11T18:45:26Z</time>
      </trkpt>
      <trkpt lat="36.8778800964356" lon="-5.15934181213379">
        <ele>628</ele>
        <time>2019-05-11T18:45:28Z</time>
      </trkpt>
      <trkpt lat="36.8778953552246" lon="-5.15936803817749">
        <ele>628</ele>
        <time>2019-05-11T18:45:30Z</time>
      </trkpt>
      <trkpt lat="36.8779258728027" lon="-5.15940999984741">
        <ele>628</ele>
        <time>2019-05-11T18:45:32Z</time>
      </trkpt>
      <trkpt lat="36.8779411315918" lon="-5.15943813323975">
        <ele>628</ele>
        <time>2019-05-11T18:45:34Z</time>
      </trkpt>
      <trkpt lat="36.8779602050781" lon="-5.15946483612061">
        <ele>628</ele>
        <time>2019-05-11T18:45:36Z</time>
      </trkpt>
      <trkpt lat="36.8779830932617" lon="-5.15949296951294">
        <ele>628</ele>
        <time>2019-05-11T18:45:39Z</time>
      </trkpt>
      <trkpt lat="36.8779983520508" lon="-5.15952014923096">
        <ele>628</ele>
        <time>2019-05-11T18:45:41Z</time>
      </trkpt>
      <trkpt lat="36.8780174255371" lon="-5.15954685211182">
        <ele>628</ele>
        <time>2019-05-11T18:45:43Z</time>
      </trkpt>
      <trkpt lat="36.8780364990234" lon="-5.15957498550415">
        <ele>628</ele>
        <time>2019-05-11T18:45:45Z</time>
      </trkpt>
      <trkpt lat="36.8780555725098" lon="-5.15960311889648">
        <ele>628</ele>
        <time>2019-05-11T18:45:47Z</time>
      </trkpt>
      <trkpt lat="36.8780746459961" lon="-5.15963220596314">
        <ele>628</ele>
        <time>2019-05-11T18:45:49Z</time>
      </trkpt>
      <trkpt lat="36.8780937194824" lon="-5.15965986251831">
        <ele>628</ele>
        <time>2019-05-11T18:45:51Z</time>
      </trkpt>
      <trkpt lat="36.8781089782715" lon="-5.15968704223633">
        <ele>628</ele>
        <time>2019-05-11T18:45:53Z</time>
      </trkpt>
      <trkpt lat="36.8781280517578" lon="-5.1597170829773">
        <ele>628</ele>
        <time>2019-05-11T18:45:55Z</time>
      </trkpt>
      <trkpt lat="36.8781471252441" lon="-5.15974283218384">
        <ele>628</ele>
        <time>2019-05-11T18:45:57Z</time>
      </trkpt>
      <trkpt lat="36.8781623840332" lon="-5.15977001190186">
        <ele>628</ele>
        <time>2019-05-11T18:45:59Z</time>
      </trkpt>
      <trkpt lat="36.8781814575195" lon="-5.15979719161987">
        <ele>628</ele>
        <time>2019-05-11T18:46:01Z</time>
      </trkpt>
      <trkpt lat="36.8781967163086" lon="-5.15982294082642">
        <ele>628</ele>
        <time>2019-05-11T18:46:03Z</time>
      </trkpt>
      <trkpt lat="36.8782234191894" lon="-5.15986680984497">
        <ele>628</ele>
        <time>2019-05-11T18:46:05Z</time>
      </trkpt>
      <trkpt lat="36.878246307373" lon="-5.1598949432373">
        <ele>628</ele>
        <time>2019-05-11T18:46:07Z</time>
      </trkpt>
      <trkpt lat="36.8782615661621" lon="-5.15992307662964">
        <ele>628</ele>
        <time>2019-05-11T18:46:09Z</time>
      </trkpt>
      <trkpt lat="36.8782844543457" lon="-5.15995216369629">
        <ele>628</ele>
        <time>2019-05-11T18:46:11Z</time>
      </trkpt>
      <trkpt lat="36.878303527832" lon="-5.15997982025146">
        <ele>627</ele>
        <time>2019-05-11T18:46:14Z</time>
      </trkpt>
      <trkpt lat="36.8783226013184" lon="-5.1600079536438">
        <ele>626</ele>
        <time>2019-05-11T18:46:16Z</time>
      </trkpt>
      <trkpt lat="36.8783416748047" lon="-5.16003704071045">
        <ele>626</ele>
        <time>2019-05-11T18:46:18Z</time>
      </trkpt>
      <trkpt lat="36.878360748291" lon="-5.16006517410278">
        <ele>626</ele>
        <time>2019-05-11T18:46:20Z</time>
      </trkpt>
      <trkpt lat="36.8783798217773" lon="-5.16009187698364">
        <ele>626</ele>
        <time>2019-05-11T18:46:22Z</time>
      </trkpt>
      <trkpt lat="36.8783988952637" lon="-5.16012001037598">
        <ele>626</ele>
        <time>2019-05-11T18:46:24Z</time>
      </trkpt>
      <trkpt lat="36.87841796875" lon="-5.16014814376831">
        <ele>626</ele>
        <time>2019-05-11T18:46:26Z</time>
      </trkpt>
      <trkpt lat="36.8784370422363" lon="-5.16017723083496">
        <ele>626</ele>
        <time>2019-05-11T18:46:28Z</time>
      </trkpt>
      <trkpt lat="36.8784523010254" lon="-5.1602029800415">
        <ele>626</ele>
        <time>2019-05-11T18:46:30Z</time>
      </trkpt>
      <trkpt lat="36.8784713745117" lon="-5.16023206710815">
        <ele>626</ele>
        <time>2019-05-11T18:46:32Z</time>
      </trkpt>
      <trkpt lat="36.878490447998" lon="-5.16026020050049">
        <ele>626</ele>
        <time>2019-05-11T18:46:34Z</time>
      </trkpt>
      <trkpt lat="36.8785095214844" lon="-5.16028785705566">
        <ele>626</ele>
        <time>2019-05-11T18:46:36Z</time>
      </trkpt>
      <trkpt lat="36.8785285949707" lon="-5.16031694412231">
        <ele>626</ele>
        <time>2019-05-11T18:46:38Z</time>
      </trkpt>
      <trkpt lat="36.8785552978516" lon="-5.16035985946655">
        <ele>626</ele>
        <time>2019-05-11T18:46:40Z</time>
      </trkpt>
      <trkpt lat="36.8785743713379" lon="-5.16038799285889">
        <ele>626</ele>
        <time>2019-05-11T18:46:42Z</time>
      </trkpt>
      <trkpt lat="36.8785934448242" lon="-5.16041994094849">
        <ele>626</ele>
        <time>2019-05-11T18:46:44Z</time>
      </trkpt>
      <trkpt lat="36.8786087036133" lon="-5.16044807434082">
        <ele>626</ele>
        <time>2019-05-11T18:46:46Z</time>
      </trkpt>
      <trkpt lat="36.8786277770996" lon="-5.16047811508179">
        <ele>625</ele>
        <time>2019-05-11T18:46:49Z</time>
      </trkpt>
      <trkpt lat="36.8786468505859" lon="-5.16050720214844">
        <ele>625</ele>
        <time>2019-05-11T18:46:51Z</time>
      </trkpt>
      <trkpt lat="36.878662109375" lon="-5.16053676605225">
        <ele>625</ele>
        <time>2019-05-11T18:46:53Z</time>
      </trkpt>
      <trkpt lat="36.8786811828613" lon="-5.16056489944458">
        <ele>625</ele>
        <time>2019-05-11T18:46:55Z</time>
      </trkpt>
      <trkpt lat="36.8786964416504" lon="-5.16059303283691">
        <ele>625</ele>
        <time>2019-05-11T18:46:57Z</time>
      </trkpt>
      <trkpt lat="36.8787117004394" lon="-5.16062211990356">
        <ele>625</ele>
        <time>2019-05-11T18:46:59Z</time>
      </trkpt>
      <trkpt lat="36.8787307739258" lon="-5.16064786911011">
        <ele>625</ele>
        <time>2019-05-11T18:47:01Z</time>
      </trkpt>
      <trkpt lat="36.8787536621094" lon="-5.16067695617676">
        <ele>625</ele>
        <time>2019-05-11T18:47:03Z</time>
      </trkpt>
      <trkpt lat="36.8787689208984" lon="-5.16070508956909">
        <ele>625</ele>
        <time>2019-05-11T18:47:05Z</time>
      </trkpt>
      <trkpt lat="36.8787879943848" lon="-5.16073179244995">
        <ele>625</ele>
        <time>2019-05-11T18:47:07Z</time>
      </trkpt>
      <trkpt lat="36.8788070678711" lon="-5.16075992584228">
        <ele>625</ele>
        <time>2019-05-11T18:47:09Z</time>
      </trkpt>
      <trkpt lat="36.8788261413574" lon="-5.16078805923462">
        <ele>625</ele>
        <time>2019-05-11T18:47:11Z</time>
      </trkpt>
      <trkpt lat="36.8788414001465" lon="-5.16081476211548">
        <ele>625</ele>
        <time>2019-05-11T18:47:13Z</time>
      </trkpt>
      <trkpt lat="36.8788681030273" lon="-5.16086006164551">
        <ele>625</ele>
        <time>2019-05-11T18:47:15Z</time>
      </trkpt>
      <trkpt lat="36.8788871765137" lon="-5.16089010238647">
        <ele>625</ele>
        <time>2019-05-11T18:47:17Z</time>
      </trkpt>
      <trkpt lat="36.87890625" lon="-5.16091680526733">
        <ele>625</ele>
        <time>2019-05-11T18:47:19Z</time>
      </trkpt>
      <trkpt lat="36.8789215087891" lon="-5.16094303131104">
        <ele>625</ele>
        <time>2019-05-11T18:47:21Z</time>
      </trkpt>
      <trkpt lat="36.8789405822754" lon="-5.16097021102905">
        <ele>625</ele>
        <time>2019-05-11T18:47:24Z</time>
      </trkpt>
      <trkpt lat="36.8789596557617" lon="-5.16099691390991">
        <ele>625</ele>
        <time>2019-05-11T18:47:26Z</time>
      </trkpt>
      <trkpt lat="36.878978729248" lon="-5.16102504730225">
        <ele>624</ele>
        <time>2019-05-11T18:47:28Z</time>
      </trkpt>
      <trkpt lat="36.8789939880371" lon="-5.16105318069458">
        <ele>624</ele>
        <time>2019-05-11T18:47:30Z</time>
      </trkpt>
      <trkpt lat="36.8790130615234" lon="-5.16108179092407">
        <ele>624</ele>
        <time>2019-05-11T18:47:32Z</time>
      </trkpt>
      <trkpt lat="36.8790283203125" lon="-5.16110992431641">
        <ele>624</ele>
        <time>2019-05-11T18:47:34Z</time>
      </trkpt>
      <trkpt lat="36.8790473937988" lon="-5.16113805770874">
        <ele>624</ele>
        <time>2019-05-11T18:47:36Z</time>
      </trkpt>
      <trkpt lat="36.8790664672852" lon="-5.16116285324097">
        <ele>624</ele>
        <time>2019-05-11T18:47:38Z</time>
      </trkpt>
      <trkpt lat="36.8790855407715" lon="-5.16119003295898">
        <ele>624</ele>
        <time>2019-05-11T18:47:40Z</time>
      </trkpt>
      <trkpt lat="36.8791046142578" lon="-5.161217212677">
        <ele>624</ele>
        <time>2019-05-11T18:47:42Z</time>
      </trkpt>
      <trkpt lat="36.8791236877441" lon="-5.16124296188354">
        <ele>624</ele>
        <time>2019-05-11T18:47:44Z</time>
      </trkpt>
      <trkpt lat="36.8791389465332" lon="-5.1612720489502">
        <ele>624</ele>
        <time>2019-05-11T18:47:46Z</time>
      </trkpt>
      <trkpt lat="36.8791542053223" lon="-5.16130018234253">
        <ele>624</ele>
        <time>2019-05-11T18:47:48Z</time>
      </trkpt>
      <trkpt lat="36.8791732788086" lon="-5.16132688522339">
        <ele>624</ele>
        <time>2019-05-11T18:47:50Z</time>
      </trkpt>
      <trkpt lat="36.8791961669922" lon="-5.16136693954468">
        <ele>624</ele>
        <time>2019-05-11T18:47:52Z</time>
      </trkpt>
      <trkpt lat="36.8792152404785" lon="-5.16139507293701">
        <ele>624</ele>
        <time>2019-05-11T18:47:54Z</time>
      </trkpt>
      <trkpt lat="36.8792381286621" lon="-5.16142320632935">
        <ele>624</ele>
        <time>2019-05-11T18:47:56Z</time>
      </trkpt>
      <trkpt lat="36.8792533874512" lon="-5.1614499092102">
        <ele>624</ele>
        <time>2019-05-11T18:47:58Z</time>
      </trkpt>
      <trkpt lat="36.8792724609375" lon="-5.16147804260254">
        <ele>624</ele>
        <time>2019-05-11T18:48:00Z</time>
      </trkpt>
      <trkpt lat="36.8792915344238" lon="-5.16150522232056">
        <ele>624</ele>
        <time>2019-05-11T18:48:03Z</time>
      </trkpt>
      <trkpt lat="36.8793067932129" lon="-5.16153192520142">
        <ele>624</ele>
        <time>2019-05-11T18:48:05Z</time>
      </trkpt>
      <trkpt lat="36.8793258666992" lon="-5.16156005859375">
        <ele>624</ele>
        <time>2019-05-11T18:48:07Z</time>
      </trkpt>
      <trkpt lat="36.8793411254883" lon="-5.16158819198608">
        <ele>624</ele>
        <time>2019-05-11T18:48:09Z</time>
      </trkpt>
      <trkpt lat="36.8793563842773" lon="-5.16161489486694">
        <ele>624</ele>
        <time>2019-05-11T18:48:11Z</time>
      </trkpt>
      <trkpt lat="36.8793754577637" lon="-5.16164493560791">
        <ele>624</ele>
        <time>2019-05-11T18:48:13Z</time>
      </trkpt>
      <trkpt lat="36.8793907165527" lon="-5.16167497634888">
        <ele>624</ele>
        <time>2019-05-11T18:48:15Z</time>
      </trkpt>
      <trkpt lat="36.8794059753418" lon="-5.16170501708984">
        <ele>624</ele>
        <time>2019-05-11T18:48:17Z</time>
      </trkpt>
      <trkpt lat="36.8794212341309" lon="-5.16173315048218">
        <ele>624</ele>
        <time>2019-05-11T18:48:19Z</time>
      </trkpt>
      <trkpt lat="36.8794403076172" lon="-5.16176223754883">
        <ele>624</ele>
        <time>2019-05-11T18:48:21Z</time>
      </trkpt>
      <trkpt lat="36.8794593811035" lon="-5.161789894104">
        <ele>624</ele>
        <time>2019-05-11T18:48:23Z</time>
      </trkpt>
      <trkpt lat="36.8794746398926" lon="-5.16181802749634">
        <ele>624</ele>
        <time>2019-05-11T18:48:25Z</time>
      </trkpt>
      <trkpt lat="36.8794937133789" lon="-5.16184711456299">
        <ele>624</ele>
        <time>2019-05-11T18:48:27Z</time>
      </trkpt>
      <trkpt lat="36.8795204162598" lon="-5.16189002990723">
        <ele>624</ele>
        <time>2019-05-11T18:48:29Z</time>
      </trkpt>
      <trkpt lat="36.8795394897461" lon="-5.16191816329956">
        <ele>624</ele>
        <time>2019-05-11T18:48:31Z</time>
      </trkpt>
      <trkpt lat="36.8795547485352" lon="-5.16194677352905">
        <ele>624</ele>
        <time>2019-05-11T18:48:33Z</time>
      </trkpt>
      <trkpt lat="36.8795738220215" lon="-5.16197490692139">
        <ele>624</ele>
        <time>2019-05-11T18:48:35Z</time>
      </trkpt>
      <trkpt lat="36.8795928955078" lon="-5.16200494766235">
        <ele>624</ele>
        <time>2019-05-11T18:48:38Z</time>
      </trkpt>
      <trkpt lat="36.8796119689941" lon="-5.16203308105469">
        <ele>624</ele>
        <time>2019-05-11T18:48:40Z</time>
      </trkpt>
      <trkpt lat="36.8796310424805" lon="-5.16206216812134">
        <ele>623</ele>
        <time>2019-05-11T18:48:42Z</time>
      </trkpt>
      <trkpt lat="36.8796463012695" lon="-5.1620922088623">
        <ele>623</ele>
        <time>2019-05-11T18:48:44Z</time>
      </trkpt>
      <trkpt lat="36.8796691894531" lon="-5.16212177276611">
        <ele>623</ele>
        <time>2019-05-11T18:48:46Z</time>
      </trkpt>
      <trkpt lat="36.8796882629394" lon="-5.16215181350708">
        <ele>623</ele>
        <time>2019-05-11T18:48:48Z</time>
      </trkpt>
      <trkpt lat="36.8797035217285" lon="-5.16218280792236">
        <ele>623</ele>
        <time>2019-05-11T18:48:50Z</time>
      </trkpt>
      <trkpt lat="36.8797264099121" lon="-5.16221189498901">
        <ele>623</ele>
        <time>2019-05-11T18:48:52Z</time>
      </trkpt>
      <trkpt lat="36.8797416687012" lon="-5.16224193572998">
        <ele>623</ele>
        <time>2019-05-11T18:48:54Z</time>
      </trkpt>
      <trkpt lat="36.8797607421875" lon="-5.16227006912231">
        <ele>623</ele>
        <time>2019-05-11T18:48:56Z</time>
      </trkpt>
      <trkpt lat="36.8797836303711" lon="-5.16229820251465">
        <ele>623</ele>
        <time>2019-05-11T18:48:58Z</time>
      </trkpt>
      <trkpt lat="36.8798027038574" lon="-5.16232681274414">
        <ele>623</ele>
        <time>2019-05-11T18:49:00Z</time>
      </trkpt>
      <trkpt lat="36.8798217773438" lon="-5.16235494613647">
        <ele>623</ele>
        <time>2019-05-11T18:49:02Z</time>
      </trkpt>
      <trkpt lat="36.8798370361328" lon="-5.16238307952881">
        <ele>623</ele>
        <time>2019-05-11T18:49:04Z</time>
      </trkpt>
      <trkpt lat="36.8798675537109" lon="-5.1624231338501">
        <ele>623</ele>
        <time>2019-05-11T18:49:06Z</time>
      </trkpt>
      <trkpt lat="36.8798866271973" lon="-5.16244792938232">
        <ele>623</ele>
        <time>2019-05-11T18:49:08Z</time>
      </trkpt>
      <trkpt lat="36.8799057006836" lon="-5.16247510910034">
        <ele>623</ele>
        <time>2019-05-11T18:49:10Z</time>
      </trkpt>
      <trkpt lat="36.8799209594727" lon="-5.16250514984131">
        <ele>623</ele>
        <time>2019-05-11T18:49:12Z</time>
      </trkpt>
      <trkpt lat="36.879940032959" lon="-5.16253519058228">
        <ele>623</ele>
        <time>2019-05-11T18:49:15Z</time>
      </trkpt>
      <trkpt lat="36.879955291748" lon="-5.16256189346314">
        <ele>623</ele>
        <time>2019-05-11T18:49:17Z</time>
      </trkpt>
      <trkpt lat="36.8799743652344" lon="-5.16259002685547">
        <ele>623</ele>
        <time>2019-05-11T18:49:19Z</time>
      </trkpt>
      <trkpt lat="36.8799934387207" lon="-5.1626181602478">
        <ele>623</ele>
        <time>2019-05-11T18:49:21Z</time>
      </trkpt>
      <trkpt lat="36.8800086975098" lon="-5.1626467704773">
        <ele>623</ele>
        <time>2019-05-11T18:49:23Z</time>
      </trkpt>
      <trkpt lat="36.8800277709961" lon="-5.16267490386963">
        <ele>623</ele>
        <time>2019-05-11T18:49:25Z</time>
      </trkpt>
      <trkpt lat="36.8800468444824" lon="-5.16270303726196">
        <ele>623</ele>
        <time>2019-05-11T18:49:27Z</time>
      </trkpt>
      <trkpt lat="36.8800621032715" lon="-5.16273212432861">
        <ele>623</ele>
        <time>2019-05-11T18:49:29Z</time>
      </trkpt>
      <trkpt lat="36.8800811767578" lon="-5.16275978088379">
        <ele>623</ele>
        <time>2019-05-11T18:49:31Z</time>
      </trkpt>
      <trkpt lat="36.8801040649414" lon="-5.16278791427612">
        <ele>623</ele>
        <time>2019-05-11T18:49:33Z</time>
      </trkpt>
      <trkpt lat="36.8801231384277" lon="-5.16281700134277">
        <ele>623</ele>
        <time>2019-05-11T18:49:35Z</time>
      </trkpt>
      <trkpt lat="36.8801422119141" lon="-5.16284513473511">
        <ele>623</ele>
        <time>2019-05-11T18:49:37Z</time>
      </trkpt>
      <trkpt lat="36.8801612854004" lon="-5.16287279129028">
        <ele>623</ele>
        <time>2019-05-11T18:49:39Z</time>
      </trkpt>
      <trkpt lat="36.8801765441894" lon="-5.16290283203125">
        <ele>623</ele>
        <time>2019-05-11T18:49:41Z</time>
      </trkpt>
      <trkpt lat="36.8802070617676" lon="-5.16294479370117">
        <ele>623</ele>
        <time>2019-05-11T18:49:43Z</time>
      </trkpt>
      <trkpt lat="36.8802261352539" lon="-5.16297483444214">
        <ele>623</ele>
        <time>2019-05-11T18:49:45Z</time>
      </trkpt>
      <trkpt lat="36.8802452087402" lon="-5.16300201416016">
        <ele>623</ele>
        <time>2019-05-11T18:49:47Z</time>
      </trkpt>
      <trkpt lat="36.8802680969238" lon="-5.16303205490112">
        <ele>623</ele>
        <time>2019-05-11T18:49:49Z</time>
      </trkpt>
      <trkpt lat="36.8802871704102" lon="-5.16306018829346">
        <ele>623</ele>
        <time>2019-05-11T18:49:52Z</time>
      </trkpt>
      <trkpt lat="36.8803024291992" lon="-5.16308784484863">
        <ele>623</ele>
        <time>2019-05-11T18:49:54Z</time>
      </trkpt>
      <trkpt lat="36.8803215026856" lon="-5.1631178855896">
        <ele>623</ele>
        <time>2019-05-11T18:49:56Z</time>
      </trkpt>
      <trkpt lat="36.8803405761719" lon="-5.16314792633057">
        <ele>623</ele>
        <time>2019-05-11T18:49:58Z</time>
      </trkpt>
      <trkpt lat="36.8803596496582" lon="-5.16317796707153">
        <ele>623</ele>
        <time>2019-05-11T18:50:00Z</time>
      </trkpt>
      <trkpt lat="36.8803787231445" lon="-5.16320705413818">
        <ele>622</ele>
        <time>2019-05-11T18:50:02Z</time>
      </trkpt>
      <trkpt lat="36.8803939819336" lon="-5.16323518753052">
        <ele>621</ele>
        <time>2019-05-11T18:50:04Z</time>
      </trkpt>
      <trkpt lat="36.8804130554199" lon="-5.16326284408569">
        <ele>621</ele>
        <time>2019-05-11T18:50:06Z</time>
      </trkpt>
      <trkpt lat="36.8804321289062" lon="-5.16329193115234">
        <ele>621</ele>
        <time>2019-05-11T18:50:08Z</time>
      </trkpt>
      <trkpt lat="36.8804473876953" lon="-5.16332006454468">
        <ele>621</ele>
        <time>2019-05-11T18:50:10Z</time>
      </trkpt>
      <trkpt lat="36.8804664611816" lon="-5.16334819793701">
        <ele>621</ele>
        <time>2019-05-11T18:50:12Z</time>
      </trkpt>
      <trkpt lat="36.880485534668" lon="-5.16337490081787">
        <ele>621</ele>
        <time>2019-05-11T18:50:14Z</time>
      </trkpt>
      <trkpt lat="36.8805046081543" lon="-5.16340208053589">
        <ele>621</ele>
        <time>2019-05-11T18:50:16Z</time>
      </trkpt>
      <trkpt lat="36.8805274963379" lon="-5.16344022750854">
        <ele>621</ele>
        <time>2019-05-11T18:50:18Z</time>
      </trkpt>
      <trkpt lat="36.8805465698242" lon="-5.16346788406372">
        <ele>621</ele>
        <time>2019-05-11T18:50:20Z</time>
      </trkpt>
      <trkpt lat="36.8805618286133" lon="-5.16349506378174">
        <ele>621</ele>
        <time>2019-05-11T18:50:22Z</time>
      </trkpt>
      <trkpt lat="36.8805809020996" lon="-5.16352319717407">
        <ele>621</ele>
        <time>2019-05-11T18:50:24Z</time>
      </trkpt>
      <trkpt lat="36.8805961608887" lon="-5.16354990005493">
        <ele>621</ele>
        <time>2019-05-11T18:50:27Z</time>
      </trkpt>
      <trkpt lat="36.880615234375" lon="-5.16357707977295">
        <ele>621</ele>
        <time>2019-05-11T18:50:29Z</time>
      </trkpt>
      <trkpt lat="36.8806304931641" lon="-5.16360282897949">
        <ele>621</ele>
        <time>2019-05-11T18:50:31Z</time>
      </trkpt>
      <trkpt lat="36.8806495666504" lon="-5.16363000869751">
        <ele>621</ele>
        <time>2019-05-11T18:50:33Z</time>
      </trkpt>
      <trkpt lat="36.8806648254394" lon="-5.16365814208984">
        <ele>621</ele>
        <time>2019-05-11T18:50:35Z</time>
      </trkpt>
      <trkpt lat="36.8806838989258" lon="-5.1636848449707">
        <ele>621</ele>
        <time>2019-05-11T18:50:37Z</time>
      </trkpt>
      <trkpt lat="36.8806991577148" lon="-5.16371297836304">
        <ele>621</ele>
        <time>2019-05-11T18:50:39Z</time>
      </trkpt>
      <trkpt lat="36.8807182312012" lon="-5.16374015808106">
        <ele>621</ele>
        <time>2019-05-11T18:50:41Z</time>
      </trkpt>
      <trkpt lat="36.8807334899902" lon="-5.16376686096191">
        <ele>621</ele>
        <time>2019-05-11T18:50:43Z</time>
      </trkpt>
      <trkpt lat="36.8807487487793" lon="-5.16378784179688">
        <ele>621</ele>
        <time>2019-05-11T18:50:45Z</time>
      </trkpt>
      <trkpt lat="36.8807525634766" lon="-5.16379690170288">
        <ele>621</ele>
        <time>2019-05-11T18:50:47Z</time>
      </trkpt>
      <trkpt lat="36.8807525634766" lon="-5.1637978553772">
        <ele>621</ele>
        <time>2019-05-11T18:50:49Z</time>
      </trkpt>
      <trkpt lat="36.8807525634766" lon="-5.16379690170288">
        <ele>621</ele>
        <time>2019-05-11T18:50:51Z</time>
      </trkpt>
      <trkpt lat="36.8807640075684" lon="-5.16381216049194">
        <ele>621</ele>
        <time>2019-05-11T18:50:53Z</time>
      </trkpt>
      <trkpt lat="36.8807754516602" lon="-5.1638331413269">
        <ele>621</ele>
        <time>2019-05-11T18:50:55Z</time>
      </trkpt>
      <trkpt lat="36.8807907104492" lon="-5.16385507583618">
        <ele>621</ele>
        <time>2019-05-11T18:50:57Z</time>
      </trkpt>
      <trkpt lat="36.8808059692383" lon="-5.16387987136841">
        <ele>621</ele>
        <time>2019-05-11T18:50:59Z</time>
      </trkpt>
      <trkpt lat="36.8808212280273" lon="-5.16390514373779">
        <ele>621</ele>
        <time>2019-05-11T18:51:02Z</time>
      </trkpt>
      <trkpt lat="36.8808403015137" lon="-5.16392993927002">
        <ele>621</ele>
        <time>2019-05-11T18:51:04Z</time>
      </trkpt>
      <trkpt lat="36.880859375" lon="-5.16395711898804">
        <ele>621</ele>
        <time>2019-05-11T18:51:06Z</time>
      </trkpt>
      <trkpt lat="36.8808784484863" lon="-5.16398286819458">
        <ele>621</ele>
        <time>2019-05-11T18:51:08Z</time>
      </trkpt>
      <trkpt lat="36.8808937072754" lon="-5.1640100479126">
        <ele>621</ele>
        <time>2019-05-11T18:51:10Z</time>
      </trkpt>
      <trkpt lat="36.8809127807617" lon="-5.16403722763062">
        <ele>621</ele>
        <time>2019-05-11T18:51:12Z</time>
      </trkpt>
      <trkpt lat="36.880931854248" lon="-5.16406297683716">
        <ele>621</ele>
        <time>2019-05-11T18:51:14Z</time>
      </trkpt>
      <trkpt lat="36.8809509277344" lon="-5.16409015655518">
        <ele>621</ele>
        <time>2019-05-11T18:51:16Z</time>
      </trkpt>
      <trkpt lat="36.8809661865234" lon="-5.16411781311035">
        <ele>621</ele>
        <time>2019-05-11T18:51:18Z</time>
      </trkpt>
      <trkpt lat="36.8809852600098" lon="-5.16414499282837">
        <ele>621</ele>
        <time>2019-05-11T18:51:20Z</time>
      </trkpt>
      <trkpt lat="36.8810043334961" lon="-5.1641731262207">
        <ele>621</ele>
        <time>2019-05-11T18:51:22Z</time>
      </trkpt>
      <trkpt lat="36.8810234069824" lon="-5.16420221328735">
        <ele>621</ele>
        <time>2019-05-11T18:51:24Z</time>
      </trkpt>
      <trkpt lat="36.8810424804688" lon="-5.16422986984253">
        <ele>621</ele>
        <time>2019-05-11T18:51:26Z</time>
      </trkpt>
      <trkpt lat="36.8810577392578" lon="-5.16425704956055">
        <ele>621</ele>
        <time>2019-05-11T18:51:28Z</time>
      </trkpt>
      <trkpt lat="36.8810844421387" lon="-5.16429710388184">
        <ele>621</ele>
        <time>2019-05-11T18:51:30Z</time>
      </trkpt>
      <trkpt lat="36.881103515625" lon="-5.16432285308838">
        <ele>621</ele>
        <time>2019-05-11T18:51:32Z</time>
      </trkpt>
      <trkpt lat="36.8811225891113" lon="-5.16435194015503">
        <ele>621</ele>
        <time>2019-05-11T18:51:34Z</time>
      </trkpt>
      <trkpt lat="36.8811416625977" lon="-5.16437816619873">
        <ele>621</ele>
        <time>2019-05-11T18:51:37Z</time>
      </trkpt>
      <trkpt lat="36.8811569213867" lon="-5.16440677642822">
        <ele>621</ele>
        <time>2019-05-11T18:51:39Z</time>
      </trkpt>
      <trkpt lat="36.881175994873" lon="-5.16443300247192">
        <ele>621</ele>
        <time>2019-05-11T18:51:41Z</time>
      </trkpt>
      <trkpt lat="36.8811950683594" lon="-5.16445779800415">
        <ele>621</ele>
        <time>2019-05-11T18:51:43Z</time>
      </trkpt>
      <trkpt lat="36.8812103271484" lon="-5.1644868850708">
        <ele>620</ele>
        <time>2019-05-11T18:51:45Z</time>
      </trkpt>
      <trkpt lat="36.8812294006348" lon="-5.16451692581177">
        <ele>620</ele>
        <time>2019-05-11T18:51:47Z</time>
      </trkpt>
      <trkpt lat="36.8812484741211" lon="-5.1645450592041">
        <ele>620</ele>
        <time>2019-05-11T18:51:49Z</time>
      </trkpt>
      <trkpt lat="36.8812637329102" lon="-5.16457176208496">
        <ele>620</ele>
        <time>2019-05-11T18:51:51Z</time>
      </trkpt>
      <trkpt lat="36.8812828063965" lon="-5.16459798812866">
        <ele>620</ele>
        <time>2019-05-11T18:51:53Z</time>
      </trkpt>
      <trkpt lat="36.8813018798828" lon="-5.16462278366089">
        <ele>620</ele>
        <time>2019-05-11T18:51:55Z</time>
      </trkpt>
      <trkpt lat="36.8813209533691" lon="-5.16464805603027">
        <ele>620</ele>
        <time>2019-05-11T18:51:57Z</time>
      </trkpt>
      <trkpt lat="36.8813400268555" lon="-5.16467523574829">
        <ele>620</ele>
        <time>2019-05-11T18:51:59Z</time>
      </trkpt>
      <trkpt lat="36.8813552856445" lon="-5.16470193862915">
        <ele>620</ele>
        <time>2019-05-11T18:52:01Z</time>
      </trkpt>
      <trkpt lat="36.8813743591309" lon="-5.16473007202148">
        <ele>619</ele>
        <time>2019-05-11T18:52:03Z</time>
      </trkpt>
      <trkpt lat="36.8814010620117" lon="-5.16477203369141">
        <ele>619</ele>
        <time>2019-05-11T18:52:05Z</time>
      </trkpt>
      <trkpt lat="36.8814163208008" lon="-5.16480016708374">
        <ele>619</ele>
        <time>2019-05-11T18:52:07Z</time>
      </trkpt>
      <trkpt lat="36.8814392089844" lon="-5.16482496261597">
        <ele>619</ele>
        <time>2019-05-11T18:52:09Z</time>
      </trkpt>
      <trkpt lat="36.8814582824707" lon="-5.1648530960083">
        <ele>619</ele>
        <time>2019-05-11T18:52:11Z</time>
      </trkpt>
      <trkpt lat="36.8814735412598" lon="-5.16487979888916">
        <ele>619</ele>
        <time>2019-05-11T18:52:14Z</time>
      </trkpt>
      <trkpt lat="36.8814888000488" lon="-5.16490793228149">
        <ele>619</ele>
        <time>2019-05-11T18:52:16Z</time>
      </trkpt>
      <trkpt lat="36.8815078735352" lon="-5.16493511199951">
        <ele>619</ele>
        <time>2019-05-11T18:52:18Z</time>
      </trkpt>
      <trkpt lat="36.8815269470215" lon="-5.16496181488037">
        <ele>619</ele>
        <time>2019-05-11T18:52:20Z</time>
      </trkpt>
      <trkpt lat="36.8815422058106" lon="-5.16498804092407">
        <ele>619</ele>
        <time>2019-05-11T18:52:22Z</time>
      </trkpt>
      <trkpt lat="36.8815612792969" lon="-5.16501522064209">
        <ele>618</ele>
        <time>2019-05-11T18:52:24Z</time>
      </trkpt>
      <trkpt lat="36.8815765380859" lon="-5.16504192352295">
        <ele>618</ele>
        <time>2019-05-11T18:52:26Z</time>
      </trkpt>
      <trkpt lat="36.8815956115723" lon="-5.16506814956665">
        <ele>618</ele>
        <time>2019-05-11T18:52:28Z</time>
      </trkpt>
      <trkpt lat="36.8816108703613" lon="-5.16509294509888">
        <ele>618</ele>
        <time>2019-05-11T18:52:30Z</time>
      </trkpt>
      <trkpt lat="36.8816337585449" lon="-5.16511678695679">
        <ele>618</ele>
        <time>2019-05-11T18:52:32Z</time>
      </trkpt>
      <trkpt lat="36.881649017334" lon="-5.16514015197754">
        <ele>618</ele>
        <time>2019-05-11T18:52:34Z</time>
      </trkpt>
      <trkpt lat="36.8816719055176" lon="-5.16516208648682">
        <ele>618</ele>
        <time>2019-05-11T18:52:36Z</time>
      </trkpt>
      <trkpt lat="36.8816909790039" lon="-5.16518306732178">
        <ele>618</ele>
        <time>2019-05-11T18:52:38Z</time>
      </trkpt>
      <trkpt lat="36.8817176818848" lon="-5.16521787643433">
        <ele>616</ele>
        <time>2019-05-11T18:52:40Z</time>
      </trkpt>
      <trkpt lat="36.8817367553711" lon="-5.16524314880371">
        <ele>616</ele>
        <time>2019-05-11T18:52:42Z</time>
      </trkpt>
      <trkpt lat="36.8817558288574" lon="-5.16526508331299">
        <ele>616</ele>
        <time>2019-05-11T18:52:44Z</time>
      </trkpt>
      <trkpt lat="36.881778717041" lon="-5.16528701782227">
        <ele>616</ele>
        <time>2019-05-11T18:52:46Z</time>
      </trkpt>
      <trkpt lat="36.8817977905273" lon="-5.16530990600586">
        <ele>616</ele>
        <time>2019-05-11T18:52:49Z</time>
      </trkpt>
      <trkpt lat="36.8818168640137" lon="-5.16533708572388">
        <ele>616</ele>
        <time>2019-05-11T18:52:51Z</time>
      </trkpt>
      <trkpt lat="36.8818283081055" lon="-5.16536712646484">
        <ele>616</ele>
        <time>2019-05-11T18:52:53Z</time>
      </trkpt>
      <trkpt lat="36.8818397521973" lon="-5.16539812088013">
        <ele>616</ele>
        <time>2019-05-11T18:52:55Z</time>
      </trkpt>
      <trkpt lat="36.8818435668945" lon="-5.16543292999268">
        <ele>616</ele>
        <time>2019-05-11T18:52:57Z</time>
      </trkpt>
      <trkpt lat="36.8818435668945" lon="-5.16547012329102">
        <ele>616</ele>
        <time>2019-05-11T18:52:59Z</time>
      </trkpt>
      <trkpt lat="36.8818359375" lon="-5.1655068397522">
        <ele>616</ele>
        <time>2019-05-11T18:53:01Z</time>
      </trkpt>
      <trkpt lat="36.8818283081055" lon="-5.1655421257019">
        <ele>616</ele>
        <time>2019-05-11T18:53:03Z</time>
      </trkpt>
      <trkpt lat="36.8818168640137" lon="-5.16557502746582">
        <ele>616</ele>
        <time>2019-05-11T18:53:05Z</time>
      </trkpt>
      <trkpt lat="36.8818092346191" lon="-5.16560697555542">
        <ele>616</ele>
        <time>2019-05-11T18:53:07Z</time>
      </trkpt>
      <trkpt lat="36.8817977905273" lon="-5.16563987731934">
        <ele>616</ele>
        <time>2019-05-11T18:53:09Z</time>
      </trkpt>
      <trkpt lat="36.8817863464356" lon="-5.1656699180603">
        <ele>615</ele>
        <time>2019-05-11T18:53:11Z</time>
      </trkpt>
      <trkpt lat="36.8817749023438" lon="-5.1657018661499">
        <ele>615</ele>
        <time>2019-05-11T18:53:13Z</time>
      </trkpt>
      <trkpt lat="36.8817596435547" lon="-5.16573476791382">
        <ele>615</ele>
        <time>2019-05-11T18:53:15Z</time>
      </trkpt>
      <trkpt lat="36.8817405700684" lon="-5.16578006744385">
        <ele>615</ele>
        <time>2019-05-11T18:53:17Z</time>
      </trkpt>
      <trkpt lat="36.8817253112793" lon="-5.16581296920776">
        <ele>615</ele>
        <time>2019-05-11T18:53:19Z</time>
      </trkpt>
      <trkpt lat="36.8817138671875" lon="-5.16584300994873">
        <ele>615</ele>
        <time>2019-05-11T18:53:21Z</time>
      </trkpt>
      <trkpt lat="36.8816986083984" lon="-5.16587686538696">
        <ele>614</ele>
        <time>2019-05-11T18:53:23Z</time>
      </trkpt>
      <trkpt lat="36.8816833496094" lon="-5.16591215133667">
        <ele>614</ele>
        <time>2019-05-11T18:53:26Z</time>
      </trkpt>
      <trkpt lat="36.8816719055176" lon="-5.16594314575195">
        <ele>614</ele>
        <time>2019-05-11T18:53:28Z</time>
      </trkpt>
      <trkpt lat="36.8816566467285" lon="-5.16597509384155">
        <ele>614</ele>
        <time>2019-05-11T18:53:30Z</time>
      </trkpt>
      <trkpt lat="36.8816452026367" lon="-5.16600799560547">
        <ele>614</ele>
        <time>2019-05-11T18:53:32Z</time>
      </trkpt>
      <trkpt lat="36.8816337585449" lon="-5.16603994369507">
        <ele>614</ele>
        <time>2019-05-11T18:53:34Z</time>
      </trkpt>
      <trkpt lat="36.8816184997559" lon="-5.16607284545898">
        <ele>614</ele>
        <time>2019-05-11T18:53:36Z</time>
      </trkpt>
      <trkpt lat="36.8816070556641" lon="-5.16610288619995">
        <ele>614</ele>
        <time>2019-05-11T18:53:38Z</time>
      </trkpt>
      <trkpt lat="36.881591796875" lon="-5.16613483428955">
        <ele>614</ele>
        <time>2019-05-11T18:53:40Z</time>
      </trkpt>
      <trkpt lat="36.8815765380859" lon="-5.16616296768188">
        <ele>613</ele>
        <time>2019-05-11T18:53:42Z</time>
      </trkpt>
      <trkpt lat="36.8815650939941" lon="-5.16619205474854">
        <ele>613</ele>
        <time>2019-05-11T18:53:44Z</time>
      </trkpt>
      <trkpt lat="36.8815536499023" lon="-5.16621780395508">
        <ele>612</ele>
        <time>2019-05-11T18:53:46Z</time>
      </trkpt>
      <trkpt lat="36.8815422058106" lon="-5.16625213623047">
        <ele>611</ele>
        <time>2019-05-11T18:53:48Z</time>
      </trkpt>
      <trkpt lat="36.8815269470215" lon="-5.16628503799438">
        <ele>611</ele>
        <time>2019-05-11T18:53:50Z</time>
      </trkpt>
      <trkpt lat="36.8815040588379" lon="-5.16632986068726">
        <ele>611</ele>
        <time>2019-05-11T18:53:52Z</time>
      </trkpt>
      <trkpt lat="36.8814888000488" lon="-5.16635990142822">
        <ele>611</ele>
        <time>2019-05-11T18:53:54Z</time>
      </trkpt>
      <trkpt lat="36.8814735412598" lon="-5.16639184951782">
        <ele>610</ele>
        <time>2019-05-11T18:53:56Z</time>
      </trkpt>
      <trkpt lat="36.8814582824707" lon="-5.16642189025879">
        <ele>610</ele>
        <time>2019-05-11T18:53:58Z</time>
      </trkpt>
      <trkpt lat="36.8814430236816" lon="-5.16645002365112">
        <ele>609</ele>
        <time>2019-05-11T18:54:01Z</time>
      </trkpt>
      <trkpt lat="36.8814239501953" lon="-5.16648006439209">
        <ele>609</ele>
        <time>2019-05-11T18:54:03Z</time>
      </trkpt>
      <trkpt lat="36.8814086914062" lon="-5.16650819778442">
        <ele>609</ele>
        <time>2019-05-11T18:54:05Z</time>
      </trkpt>
      <trkpt lat="36.8813896179199" lon="-5.16653680801392">
        <ele>609</ele>
        <time>2019-05-11T18:54:07Z</time>
      </trkpt>
      <trkpt lat="36.8813743591309" lon="-5.1665678024292">
        <ele>608</ele>
        <time>2019-05-11T18:54:09Z</time>
      </trkpt>
      <trkpt lat="36.8813552856445" lon="-5.16659498214722">
        <ele>608</ele>
        <time>2019-05-11T18:54:11Z</time>
      </trkpt>
      <trkpt lat="36.8813362121582" lon="-5.16662216186523">
        <ele>608</ele>
        <time>2019-05-11T18:54:13Z</time>
      </trkpt>
      <trkpt lat="36.8813133239746" lon="-5.16665983200073">
        <ele>608</ele>
        <time>2019-05-11T18:54:15Z</time>
      </trkpt>
      <trkpt lat="36.881290435791" lon="-5.16669988632202">
        <ele>608</ele>
        <time>2019-05-11T18:54:17Z</time>
      </trkpt>
      <trkpt lat="36.8812675476074" lon="-5.16673994064331">
        <ele>608</ele>
        <time>2019-05-11T18:54:19Z</time>
      </trkpt>
      <trkpt lat="36.8812370300293" lon="-5.16677522659302">
        <ele>608</ele>
        <time>2019-05-11T18:54:21Z</time>
      </trkpt>
      <trkpt lat="36.8812103271484" lon="-5.16680812835693">
        <ele>608</ele>
        <time>2019-05-11T18:54:23Z</time>
      </trkpt>
      <trkpt lat="36.8811798095703" lon="-5.16684722900391">
        <ele>608</ele>
        <time>2019-05-11T18:54:25Z</time>
      </trkpt>
      <trkpt lat="36.8811492919922" lon="-5.16688680648804">
        <ele>608</ele>
        <time>2019-05-11T18:54:27Z</time>
      </trkpt>
      <trkpt lat="36.8810997009277" lon="-5.16694688796997">
        <ele>608</ele>
        <time>2019-05-11T18:54:29Z</time>
      </trkpt>
      <trkpt lat="36.8810653686523" lon="-5.16698694229126">
        <ele>608</ele>
        <time>2019-05-11T18:54:31Z</time>
      </trkpt>
      <trkpt lat="36.8810348510742" lon="-5.16702508926392">
        <ele>608</ele>
        <time>2019-05-11T18:54:33Z</time>
      </trkpt>
      <trkpt lat="36.8810005187988" lon="-5.16707181930542">
        <ele>608</ele>
        <time>2019-05-11T18:54:36Z</time>
      </trkpt>
      <trkpt lat="36.8809661865234" lon="-5.16711282730103">
        <ele>608</ele>
        <time>2019-05-11T18:54:38Z</time>
      </trkpt>
      <trkpt lat="36.8809356689453" lon="-5.16714715957642">
        <ele>608</ele>
        <time>2019-05-11T18:54:40Z</time>
      </trkpt>
      <trkpt lat="36.8809051513672" lon="-5.16718292236328">
        <ele>608</ele>
        <time>2019-05-11T18:54:42Z</time>
      </trkpt>
      <trkpt lat="36.8808784484863" lon="-5.16722202301025">
        <ele>608</ele>
        <time>2019-05-11T18:54:44Z</time>
      </trkpt>
      <trkpt lat="36.8808479309082" lon="-5.16725778579712">
        <ele>608</ele>
        <time>2019-05-11T18:54:46Z</time>
      </trkpt>
      <trkpt lat="36.8808174133301" lon="-5.16729688644409">
        <ele>608</ele>
        <time>2019-05-11T18:54:48Z</time>
      </trkpt>
      <trkpt lat="36.8807907104492" lon="-5.1673321723938">
        <ele>608</ele>
        <time>2019-05-11T18:54:50Z</time>
      </trkpt>
      <trkpt lat="36.8807601928711" lon="-5.16737222671509">
        <ele>608</ele>
        <time>2019-05-11T18:54:52Z</time>
      </trkpt>
      <trkpt lat="36.8807334899902" lon="-5.16741323471069">
        <ele>608</ele>
        <time>2019-05-11T18:54:54Z</time>
      </trkpt>
      <trkpt lat="36.8807029724121" lon="-5.16744804382324">
        <ele>608</ele>
        <time>2019-05-11T18:54:56Z</time>
      </trkpt>
      <trkpt lat="36.880672454834" lon="-5.16749000549316">
        <ele>608</ele>
        <time>2019-05-11T18:54:58Z</time>
      </trkpt>
      <trkpt lat="36.8806457519531" lon="-5.16752815246582">
        <ele>606</ele>
        <time>2019-05-11T18:55:00Z</time>
      </trkpt>
      <trkpt lat="36.8805961608887" lon="-5.16758012771606">
        <ele>606</ele>
        <time>2019-05-11T18:55:02Z</time>
      </trkpt>
      <trkpt lat="36.8805656433106" lon="-5.16761779785156">
        <ele>606</ele>
        <time>2019-05-11T18:55:04Z</time>
      </trkpt>
      <trkpt lat="36.8805313110352" lon="-5.16765689849854">
        <ele>606</ele>
        <time>2019-05-11T18:55:06Z</time>
      </trkpt>
      <trkpt lat="36.8804969787598" lon="-5.16769504547119">
        <ele>606</ele>
        <time>2019-05-11T18:55:08Z</time>
      </trkpt>
      <trkpt lat="36.8804588317871" lon="-5.16773319244385">
        <ele>606</ele>
        <time>2019-05-11T18:55:11Z</time>
      </trkpt>
      <trkpt lat="36.8804244995117" lon="-5.1677770614624">
        <ele>606</ele>
        <time>2019-05-11T18:55:13Z</time>
      </trkpt>
      <trkpt lat="36.8803901672363" lon="-5.16781711578369">
        <ele>606</ele>
        <time>2019-05-11T18:55:15Z</time>
      </trkpt>
      <trkpt lat="36.8803634643555" lon="-5.16785717010498">
        <ele>606</ele>
        <time>2019-05-11T18:55:17Z</time>
      </trkpt>
      <trkpt lat="36.8803367614746" lon="-5.16789293289185">
        <ele>606</ele>
        <time>2019-05-11T18:55:19Z</time>
      </trkpt>
      <trkpt lat="36.8803215026856" lon="-5.16792297363281">
        <ele>606</ele>
        <time>2019-05-11T18:55:21Z</time>
      </trkpt>
      <trkpt lat="36.880298614502" lon="-5.16795301437378">
        <ele>606</ele>
        <time>2019-05-11T18:55:23Z</time>
      </trkpt>
      <trkpt lat="36.8802757263184" lon="-5.16798305511475">
        <ele>606</ele>
        <time>2019-05-11T18:55:25Z</time>
      </trkpt>
      <trkpt lat="36.8802490234375" lon="-5.16801023483276">
        <ele>606</ele>
        <time>2019-05-11T18:55:27Z</time>
      </trkpt>
      <trkpt lat="36.8802299499512" lon="-5.16802978515625">
        <ele>605</ele>
        <time>2019-05-11T18:55:29Z</time>
      </trkpt>
      <trkpt lat="36.8802146911621" lon="-5.16805505752564">
        <ele>605</ele>
        <time>2019-05-11T18:55:31Z</time>
      </trkpt>
      <trkpt lat="36.8801956176758" lon="-5.16808319091797">
        <ele>604</ele>
        <time>2019-05-11T18:55:33Z</time>
      </trkpt>
      <trkpt lat="36.8801803588867" lon="-5.16811180114746">
        <ele>604</ele>
        <time>2019-05-11T18:55:35Z</time>
      </trkpt>
      <trkpt lat="36.8801612854004" lon="-5.16815185546875">
        <ele>603</ele>
        <time>2019-05-11T18:55:37Z</time>
      </trkpt>
      <trkpt lat="36.8801460266113" lon="-5.16818189620972">
        <ele>603</ele>
        <time>2019-05-11T18:55:39Z</time>
      </trkpt>
      <trkpt lat="36.8801307678223" lon="-5.1682071685791">
        <ele>603</ele>
        <time>2019-05-11T18:55:41Z</time>
      </trkpt>
      <trkpt lat="36.8801116943359" lon="-5.16823482513428">
        <ele>603</ele>
        <time>2019-05-11T18:55:43Z</time>
      </trkpt>
      <trkpt lat="36.8800926208496" lon="-5.1682620048523">
        <ele>602</ele>
        <time>2019-05-11T18:55:46Z</time>
      </trkpt>
      <trkpt lat="36.8800735473633" lon="-5.16828489303589">
        <ele>602</ele>
        <time>2019-05-11T18:55:48Z</time>
      </trkpt>
      <trkpt lat="36.880054473877" lon="-5.16831207275391">
        <ele>602</ele>
        <time>2019-05-11T18:55:50Z</time>
      </trkpt>
      <trkpt lat="36.8800315856934" lon="-5.16833686828613">
        <ele>602</ele>
        <time>2019-05-11T18:55:52Z</time>
      </trkpt>
      <trkpt lat="36.8800086975098" lon="-5.16836500167847">
        <ele>602</ele>
        <time>2019-05-11T18:55:54Z</time>
      </trkpt>
      <trkpt lat="36.8799934387207" lon="-5.16838788986206">
        <ele>602</ele>
        <time>2019-05-11T18:55:56Z</time>
      </trkpt>
      <trkpt lat="36.8799705505371" lon="-5.16841697692871">
        <ele>602</ele>
        <time>2019-05-11T18:55:58Z</time>
      </trkpt>
      <trkpt lat="36.8799514770508" lon="-5.16844320297241">
        <ele>602</ele>
        <time>2019-05-11T18:56:00Z</time>
      </trkpt>
      <trkpt lat="36.8799285888672" lon="-5.16846990585327">
        <ele>602</ele>
        <time>2019-05-11T18:56:02Z</time>
      </trkpt>
      <trkpt lat="36.8799095153809" lon="-5.16849708557129">
        <ele>602</ele>
        <time>2019-05-11T18:56:04Z</time>
      </trkpt>
      <trkpt lat="36.8798866271973" lon="-5.16851997375488">
        <ele>602</ele>
        <time>2019-05-11T18:56:06Z</time>
      </trkpt>
      <trkpt lat="36.8798637390137" lon="-5.16854810714722">
        <ele>602</ele>
        <time>2019-05-11T18:56:08Z</time>
      </trkpt>
      <trkpt lat="36.8798408508301" lon="-5.16857481002808">
        <ele>602</ele>
        <time>2019-05-11T18:56:10Z</time>
      </trkpt>
      <trkpt lat="36.8798217773438" lon="-5.16860008239746">
        <ele>602</ele>
        <time>2019-05-11T18:56:12Z</time>
      </trkpt>
      <trkpt lat="36.8797912597656" lon="-5.16863298416138">
        <ele>602</ele>
        <time>2019-05-11T18:56:14Z</time>
      </trkpt>
      <trkpt lat="36.8797721862793" lon="-5.16866016387939">
        <ele>602</ele>
        <time>2019-05-11T18:56:16Z</time>
      </trkpt>
      <trkpt lat="36.879753112793" lon="-5.16868782043457">
        <ele>602</ele>
        <time>2019-05-11T18:56:18Z</time>
      </trkpt>
      <trkpt lat="36.8797302246094" lon="-5.16871309280396">
        <ele>602</ele>
        <time>2019-05-11T18:56:21Z</time>
      </trkpt>
      <trkpt lat="36.8797073364258" lon="-5.16873979568481">
        <ele>602</ele>
        <time>2019-05-11T18:56:23Z</time>
      </trkpt>
      <trkpt lat="36.8796882629394" lon="-5.16876697540283">
        <ele>602</ele>
        <time>2019-05-11T18:56:25Z</time>
      </trkpt>
      <trkpt lat="36.8796615600586" lon="-5.16879177093506">
        <ele>602</ele>
        <time>2019-05-11T18:56:27Z</time>
      </trkpt>
      <trkpt lat="36.879638671875" lon="-5.16881704330444">
        <ele>602</ele>
        <time>2019-05-11T18:56:29Z</time>
      </trkpt>
      <trkpt lat="36.8796119689941" lon="-5.1688380241394">
        <ele>602</ele>
        <time>2019-05-11T18:56:31Z</time>
      </trkpt>
      <trkpt lat="36.8795928955078" lon="-5.16886186599731">
        <ele>602</ele>
        <time>2019-05-11T18:56:33Z</time>
      </trkpt>
      <trkpt lat="36.879566192627" lon="-5.16888523101807">
        <ele>602</ele>
        <time>2019-05-11T18:56:35Z</time>
      </trkpt>
      <trkpt lat="36.8795433044434" lon="-5.16890716552734">
        <ele>602</ele>
        <time>2019-05-11T18:56:37Z</time>
      </trkpt>
      <trkpt lat="36.8795204162598" lon="-5.1689248085022">
        <ele>602</ele>
        <time>2019-05-11T18:56:39Z</time>
      </trkpt>
      <trkpt lat="36.8795013427734" lon="-5.16894006729126">
        <ele>602</ele>
        <time>2019-05-11T18:56:41Z</time>
      </trkpt>
      <trkpt lat="36.8794784545898" lon="-5.1689600944519">
        <ele>602</ele>
        <time>2019-05-11T18:56:43Z</time>
      </trkpt>
      <trkpt lat="36.879451751709" lon="-5.16897487640381">
        <ele>602</ele>
        <time>2019-05-11T18:56:45Z</time>
      </trkpt>
      <trkpt lat="36.8794288635254" lon="-5.16899299621582">
        <ele>602</ele>
        <time>2019-05-11T18:56:47Z</time>
      </trkpt>
      <trkpt lat="36.87939453125" lon="-5.16902017593384">
        <ele>602</ele>
        <time>2019-05-11T18:56:49Z</time>
      </trkpt>
      <trkpt lat="36.8793678283691" lon="-5.16903495788574">
        <ele>602</ele>
        <time>2019-05-11T18:56:51Z</time>
      </trkpt>
      <trkpt lat="36.8793411254883" lon="-5.16904783248901">
        <ele>602</ele>
        <time>2019-05-11T18:56:53Z</time>
      </trkpt>
      <trkpt lat="36.8793106079102" lon="-5.16906213760376">
        <ele>602</ele>
        <time>2019-05-11T18:56:56Z</time>
      </trkpt>
      <trkpt lat="36.879280090332" lon="-5.16907691955566">
        <ele>602</ele>
        <time>2019-05-11T18:56:58Z</time>
      </trkpt>
      <trkpt lat="36.8792533874512" lon="-5.16908979415894">
        <ele>602</ele>
        <time>2019-05-11T18:57:00Z</time>
      </trkpt>
      <trkpt lat="36.879222869873" lon="-5.16910219192505">
        <ele>602</ele>
        <time>2019-05-11T18:57:02Z</time>
      </trkpt>
      <trkpt lat="36.8791961669922" lon="-5.1691198348999">
        <ele>602</ele>
        <time>2019-05-11T18:57:04Z</time>
      </trkpt>
      <trkpt lat="36.8791694641113" lon="-5.1691370010376">
        <ele>602</ele>
        <time>2019-05-11T18:57:06Z</time>
      </trkpt>
      <trkpt lat="36.8791427612305" lon="-5.16914987564087">
        <ele>602</ele>
        <time>2019-05-11T18:57:08Z</time>
      </trkpt>
      <trkpt lat="36.8791160583496" lon="-5.16916513442993">
        <ele>602</ele>
        <time>2019-05-11T18:57:10Z</time>
      </trkpt>
      <trkpt lat="36.879093170166" lon="-5.16917991638184">
        <ele>602</ele>
        <time>2019-05-11T18:57:12Z</time>
      </trkpt>
      <trkpt lat="36.8790664672852" lon="-5.16919279098511">
        <ele>602</ele>
        <time>2019-05-11T18:57:14Z</time>
      </trkpt>
      <trkpt lat="36.8790435791016" lon="-5.16920804977417">
        <ele>602</ele>
        <time>2019-05-11T18:57:16Z</time>
      </trkpt>
      <trkpt lat="36.8790168762207" lon="-5.1692271232605">
        <ele>602</ele>
        <time>2019-05-11T18:57:18Z</time>
      </trkpt>
      <trkpt lat="36.8789863586426" lon="-5.16924285888672">
        <ele>602</ele>
        <time>2019-05-11T18:57:20Z</time>
      </trkpt>
      <trkpt lat="36.8789558410644" lon="-5.16926002502441">
        <ele>602</ele>
        <time>2019-05-11T18:57:22Z</time>
      </trkpt>
      <trkpt lat="36.8788986206055" lon="-5.16929292678833">
        <ele>602</ele>
        <time>2019-05-11T18:57:24Z</time>
      </trkpt>
      <trkpt lat="36.8788566589356" lon="-5.16931676864624">
        <ele>602</ele>
        <time>2019-05-11T18:57:26Z</time>
      </trkpt>
      <trkpt lat="36.8788185119629" lon="-5.16933488845825">
        <ele>602</ele>
        <time>2019-05-11T18:57:28Z</time>
      </trkpt>
      <trkpt lat="36.878776550293" lon="-5.1693549156189">
        <ele>602</ele>
        <time>2019-05-11T18:57:30Z</time>
      </trkpt>
      <trkpt lat="36.8787384033203" lon="-5.16937208175659">
        <ele>602</ele>
        <time>2019-05-11T18:57:33Z</time>
      </trkpt>
      <trkpt lat="36.8786964416504" lon="-5.16939210891724">
        <ele>602</ele>
        <time>2019-05-11T18:57:35Z</time>
      </trkpt>
      <trkpt lat="36.8786582946777" lon="-5.16941022872925">
        <ele>602</ele>
        <time>2019-05-11T18:57:37Z</time>
      </trkpt>
      <trkpt lat="36.8786163330078" lon="-5.16942977905273">
        <ele>602</ele>
        <time>2019-05-11T18:57:39Z</time>
      </trkpt>
      <trkpt lat="36.8785743713379" lon="-5.1694450378418">
        <ele>602</ele>
        <time>2019-05-11T18:57:41Z</time>
      </trkpt>
      <trkpt lat="36.878532409668" lon="-5.16946697235107">
        <ele>602</ele>
        <time>2019-05-11T18:57:43Z</time>
      </trkpt>
      <trkpt lat="36.8784942626953" lon="-5.16948986053467">
        <ele>602</ele>
        <time>2019-05-11T18:57:45Z</time>
      </trkpt>
      <trkpt lat="36.8784484863281" lon="-5.16951513290405">
        <ele>602</ele>
        <time>2019-05-11T18:57:47Z</time>
      </trkpt>
      <trkpt lat="36.8784065246582" lon="-5.16953706741333">
        <ele>602</ele>
        <time>2019-05-11T18:57:49Z</time>
      </trkpt>
      <trkpt lat="36.8783683776856" lon="-5.16956186294556">
        <ele>602</ele>
        <time>2019-05-11T18:57:51Z</time>
      </trkpt>
      <trkpt lat="36.8783264160156" lon="-5.16958284378052">
        <ele>602</ele>
        <time>2019-05-11T18:57:53Z</time>
      </trkpt>
      <trkpt lat="36.8782920837402" lon="-5.16960716247559">
        <ele>602</ele>
        <time>2019-05-11T18:57:55Z</time>
      </trkpt>
      <trkpt lat="36.8782577514648" lon="-5.16962814331055">
        <ele>602</ele>
        <time>2019-05-11T18:57:57Z</time>
      </trkpt>
      <trkpt lat="36.8782119750977" lon="-5.1696572303772">
        <ele>602</ele>
        <time>2019-05-11T18:57:59Z</time>
      </trkpt>
      <trkpt lat="36.8781509399414" lon="-5.16969299316406">
        <ele>602</ele>
        <time>2019-05-11T18:58:01Z</time>
      </trkpt>
      <trkpt lat="36.8781089782715" lon="-5.16972017288208">
        <ele>602</ele>
        <time>2019-05-11T18:58:03Z</time>
      </trkpt>
      <trkpt lat="36.8780632019043" lon="-5.16974496841431">
        <ele>602</ele>
        <time>2019-05-11T18:58:05Z</time>
      </trkpt>
      <trkpt lat="36.8780250549316" lon="-5.16977214813232">
        <ele>601</ele>
        <time>2019-05-11T18:58:08Z</time>
      </trkpt>
      <trkpt lat="36.8779830932617" lon="-5.16979694366455">
        <ele>601</ele>
        <time>2019-05-11T18:58:10Z</time>
      </trkpt>
      <trkpt lat="36.8779449462891" lon="-5.16981792449951">
        <ele>601</ele>
        <time>2019-05-11T18:58:12Z</time>
      </trkpt>
      <trkpt lat="36.8779029846191" lon="-5.16984176635742">
        <ele>600</ele>
        <time>2019-05-11T18:58:14Z</time>
      </trkpt>
      <trkpt lat="36.8778648376465" lon="-5.16986513137817">
        <ele>600</ele>
        <time>2019-05-11T18:58:16Z</time>
      </trkpt>
      <trkpt lat="36.8778190612793" lon="-5.16988801956177">
        <ele>599</ele>
        <time>2019-05-11T18:58:18Z</time>
      </trkpt>
      <trkpt lat="36.8777770996094" lon="-5.16990995407104">
        <ele>599</ele>
        <time>2019-05-11T18:58:20Z</time>
      </trkpt>
      <trkpt lat="36.8777389526367" lon="-5.16992998123169">
        <ele>598</ele>
        <time>2019-05-11T18:58:22Z</time>
      </trkpt>
      <trkpt lat="36.8776969909668" lon="-5.1699481010437">
        <ele>598</ele>
        <time>2019-05-11T18:58:24Z</time>
      </trkpt>
      <trkpt lat="36.8776626586914" lon="-5.16997003555298">
        <ele>597</ele>
        <time>2019-05-11T18:58:26Z</time>
      </trkpt>
      <trkpt lat="36.8776206970215" lon="-5.16998815536499">
        <ele>597</ele>
        <time>2019-05-11T18:58:28Z</time>
      </trkpt>
      <trkpt lat="36.8775787353516" lon="-5.17000722885132">
        <ele>596</ele>
        <time>2019-05-11T18:58:30Z</time>
      </trkpt>
      <trkpt lat="36.8775367736816" lon="-5.17002201080322">
        <ele>596</ele>
        <time>2019-05-11T18:58:32Z</time>
      </trkpt>
      <trkpt lat="36.877498626709" lon="-5.17004013061523">
        <ele>596</ele>
        <time>2019-05-11T18:58:34Z</time>
      </trkpt>
      <trkpt lat="36.87744140625" lon="-5.17007780075073">
        <ele>596</ele>
        <time>2019-05-11T18:58:36Z</time>
      </trkpt>
      <trkpt lat="36.8773994445801" lon="-5.1701021194458">
        <ele>596</ele>
        <time>2019-05-11T18:58:38Z</time>
      </trkpt>
      <trkpt lat="36.8773612976074" lon="-5.17012500762939">
        <ele>596</ele>
        <time>2019-05-11T18:58:40Z</time>
      </trkpt>
      <trkpt lat="36.8773231506348" lon="-5.17014503479004">
        <ele>596</ele>
        <time>2019-05-11T18:58:43Z</time>
      </trkpt>
      <trkpt lat="36.8772811889648" lon="-5.17016696929932">
        <ele>596</ele>
        <time>2019-05-11T18:58:45Z</time>
      </trkpt>
      <trkpt lat="36.8772354125977" lon="-5.17019176483154">
        <ele>596</ele>
        <time>2019-05-11T18:58:47Z</time>
      </trkpt>
      <trkpt lat="36.8771934509277" lon="-5.17021799087524">
        <ele>596</ele>
        <time>2019-05-11T18:58:49Z</time>
      </trkpt>
      <trkpt lat="36.8771553039551" lon="-5.17024517059326">
        <ele>596</ele>
        <time>2019-05-11T18:58:51Z</time>
      </trkpt>
      <trkpt lat="36.8771133422852" lon="-5.17027187347412">
        <ele>596</ele>
        <time>2019-05-11T18:58:53Z</time>
      </trkpt>
      <trkpt lat="36.8770713806152" lon="-5.17029714584351">
        <ele>596</ele>
        <time>2019-05-11T18:58:55Z</time>
      </trkpt>
      <trkpt lat="36.8770294189453" lon="-5.1703200340271">
        <ele>595</ele>
        <time>2019-05-11T18:58:57Z</time>
      </trkpt>
      <trkpt lat="36.8769874572754" lon="-5.17034816741943">
        <ele>595</ele>
        <time>2019-05-11T18:58:59Z</time>
      </trkpt>
      <trkpt lat="36.8769454956055" lon="-5.17037200927734">
        <ele>595</ele>
        <time>2019-05-11T18:59:01Z</time>
      </trkpt>
      <trkpt lat="36.8769035339356" lon="-5.17039680480957">
        <ele>595</ele>
        <time>2019-05-11T18:59:03Z</time>
      </trkpt>
      <trkpt lat="36.8768577575684" lon="-5.17042016983032">
        <ele>595</ele>
        <time>2019-05-11T18:59:05Z</time>
      </trkpt>
      <trkpt lat="36.8768157958984" lon="-5.17044496536255">
        <ele>595</ele>
        <time>2019-05-11T18:59:07Z</time>
      </trkpt>
      <trkpt lat="36.8767700195312" lon="-5.17046689987183">
        <ele>595</ele>
        <time>2019-05-11T18:59:09Z</time>
      </trkpt>
      <trkpt lat="36.8767051696777" lon="-5.17050313949585">
        <ele>595</ele>
        <time>2019-05-11T18:59:11Z</time>
      </trkpt>
      <trkpt lat="36.8766860961914" lon="-5.17051696777344">
        <ele>595</ele>
        <time>2019-05-11T18:59:13Z</time>
      </trkpt>
      <trkpt lat="36.8766174316406" lon="-5.17055320739746">
        <ele>595</ele>
        <time>2019-05-11T18:59:15Z</time>
      </trkpt>
      <trkpt lat="36.8765716552734" lon="-5.17057704925537">
        <ele>595</ele>
        <time>2019-05-11T18:59:17Z</time>
      </trkpt>
      <trkpt lat="36.8765296936035" lon="-5.17060279846191">
        <ele>595</ele>
        <time>2019-05-11T18:59:19Z</time>
      </trkpt>
      <trkpt lat="36.8764877319336" lon="-5.17062711715698">
        <ele>595</ele>
        <time>2019-05-11T18:59:22Z</time>
      </trkpt>
      <trkpt lat="36.8764419555664" lon="-5.17065477371216">
        <ele>594</ele>
        <time>2019-05-11T18:59:24Z</time>
      </trkpt>
      <trkpt lat="36.8763999938965" lon="-5.1706748008728">
        <ele>594</ele>
        <time>2019-05-11T18:59:26Z</time>
      </trkpt>
      <trkpt lat="36.8763580322266" lon="-5.17069721221924">
        <ele>594</ele>
        <time>2019-05-11T18:59:28Z</time>
      </trkpt>
      <trkpt lat="36.8763122558594" lon="-5.17071485519409">
        <ele>594</ele>
        <time>2019-05-11T18:59:30Z</time>
      </trkpt>
      <trkpt lat="36.8762664794922" lon="-5.17073678970337">
        <ele>594</ele>
        <time>2019-05-11T18:59:32Z</time>
      </trkpt>
      <trkpt lat="36.876220703125" lon="-5.17076015472412">
        <ele>594</ele>
        <time>2019-05-11T18:59:34Z</time>
      </trkpt>
      <trkpt lat="36.8761787414551" lon="-5.17078685760498">
        <ele>594</ele>
        <time>2019-05-11T18:59:36Z</time>
      </trkpt>
      <trkpt lat="36.8761367797852" lon="-5.17081212997436">
        <ele>594</ele>
        <time>2019-05-11T18:59:38Z</time>
      </trkpt>
      <trkpt lat="36.8760948181152" lon="-5.17083692550659">
        <ele>594</ele>
        <time>2019-05-11T18:59:40Z</time>
      </trkpt>
      <trkpt lat="36.8760528564453" lon="-5.17085695266724">
        <ele>594</ele>
        <time>2019-05-11T18:59:42Z</time>
      </trkpt>
      <trkpt lat="36.8760070800781" lon="-5.1708779335022">
        <ele>594</ele>
        <time>2019-05-11T18:59:44Z</time>
      </trkpt>
      <trkpt lat="36.8759613037109" lon="-5.17089986801147">
        <ele>594</ele>
        <time>2019-05-11T18:59:46Z</time>
      </trkpt>
      <trkpt lat="36.8759002685547" lon="-5.17092990875244">
        <ele>594</ele>
        <time>2019-05-11T18:59:48Z</time>
      </trkpt>
      <trkpt lat="36.8758544921875" lon="-5.17094993591309">
        <ele>594</ele>
        <time>2019-05-11T18:59:50Z</time>
      </trkpt>
      <trkpt lat="36.8758125305176" lon="-5.17097282409668">
        <ele>594</ele>
        <time>2019-05-11T18:59:52Z</time>
      </trkpt>
      <trkpt lat="36.8757705688477" lon="-5.17100286483765">
        <ele>594</ele>
        <time>2019-05-11T18:59:54Z</time>
      </trkpt>
      <trkpt lat="36.8757286071777" lon="-5.17102813720703">
        <ele>594</ele>
        <time>2019-05-11T18:59:57Z</time>
      </trkpt>
      <trkpt lat="36.8756866455078" lon="-5.17105197906494">
        <ele>594</ele>
        <time>2019-05-11T18:59:59Z</time>
      </trkpt>
      <trkpt lat="36.8756408691406" lon="-5.17107486724854">
        <ele>594</ele>
        <time>2019-05-11T19:00:01Z</time>
      </trkpt>
      <trkpt lat="36.8755989074707" lon="-5.17109680175781">
        <ele>593</ele>
        <time>2019-05-11T19:00:03Z</time>
      </trkpt>
      <trkpt lat="36.875560760498" lon="-5.17111778259277">
        <ele>593</ele>
        <time>2019-05-11T19:00:05Z</time>
      </trkpt>
      <trkpt lat="36.8755187988281" lon="-5.17113780975342">
        <ele>593</ele>
        <time>2019-05-11T19:00:07Z</time>
      </trkpt>
      <trkpt lat="36.8754730224609" lon="-5.17115783691406">
        <ele>593</ele>
        <time>2019-05-11T19:00:09Z</time>
      </trkpt>
      <trkpt lat="36.8754272460938" lon="-5.17118215560913">
        <ele>593</ele>
        <time>2019-05-11T19:00:11Z</time>
      </trkpt>
      <trkpt lat="36.8753814697266" lon="-5.17120504379272">
        <ele>593</ele>
        <time>2019-05-11T19:00:13Z</time>
      </trkpt>
      <trkpt lat="36.8753433227539" lon="-5.17122507095337">
        <ele>593</ele>
        <time>2019-05-11T19:00:15Z</time>
      </trkpt>
      <trkpt lat="36.8753089904785" lon="-5.17124223709106">
        <ele>593</ele>
        <time>2019-05-11T19:00:17Z</time>
      </trkpt>
      <trkpt lat="36.8752861022949" lon="-5.17125177383423">
        <ele>593</ele>
        <time>2019-05-11T19:00:19Z</time>
      </trkpt>
      <trkpt lat="36.8752632141113" lon="-5.17126178741455">
        <ele>593</ele>
        <time>2019-05-11T19:00:21Z</time>
      </trkpt>
      <trkpt lat="36.8752288818359" lon="-5.1712818145752">
        <ele>592</ele>
        <time>2019-05-11T19:00:23Z</time>
      </trkpt>
      <trkpt lat="36.8752059936523" lon="-5.17128705978394">
        <ele>592</ele>
        <time>2019-05-11T19:00:25Z</time>
      </trkpt>
      <trkpt lat="36.8751831054688" lon="-5.17129802703857">
        <ele>591</ele>
        <time>2019-05-11T19:00:27Z</time>
      </trkpt>
      <trkpt lat="36.8751564025879" lon="-5.17131185531616">
        <ele>591</ele>
        <time>2019-05-11T19:00:29Z</time>
      </trkpt>
      <trkpt lat="36.8751335144043" lon="-5.17132520675659">
        <ele>591</ele>
        <time>2019-05-11T19:00:32Z</time>
      </trkpt>
      <trkpt lat="36.8751068115234" lon="-5.17133808135986">
        <ele>590</ele>
        <time>2019-05-11T19:00:34Z</time>
      </trkpt>
      <trkpt lat="36.8750801086426" lon="-5.17135190963745">
        <ele>590</ele>
        <time>2019-05-11T19:00:36Z</time>
      </trkpt>
      <trkpt lat="36.875057220459" lon="-5.17136478424072">
        <ele>590</ele>
        <time>2019-05-11T19:00:38Z</time>
      </trkpt>
      <trkpt lat="36.8750305175781" lon="-5.17137479782104">
        <ele>590</ele>
        <time>2019-05-11T19:00:40Z</time>
      </trkpt>
      <trkpt lat="36.8750038146973" lon="-5.17138814926147">
        <ele>590</ele>
        <time>2019-05-11T19:00:42Z</time>
      </trkpt>
      <trkpt lat="36.8749771118164" lon="-5.17140293121338">
        <ele>590</ele>
        <time>2019-05-11T19:00:44Z</time>
      </trkpt>
      <trkpt lat="36.8749504089356" lon="-5.17141485214233">
        <ele>589</ele>
        <time>2019-05-11T19:00:46Z</time>
      </trkpt>
      <trkpt lat="36.8749237060547" lon="-5.1714301109314">
        <ele>589</ele>
        <time>2019-05-11T19:00:48Z</time>
      </trkpt>
      <trkpt lat="36.8749008178711" lon="-5.17144298553467">
        <ele>589</ele>
        <time>2019-05-11T19:00:50Z</time>
      </trkpt>
      <trkpt lat="36.8748741149902" lon="-5.17145776748657">
        <ele>589</ele>
        <time>2019-05-11T19:00:52Z</time>
      </trkpt>
      <trkpt lat="36.8748474121094" lon="-5.17147207260132">
        <ele>589</ele>
        <time>2019-05-11T19:00:54Z</time>
      </trkpt>
      <trkpt lat="36.8748207092285" lon="-5.17148303985596">
        <ele>589</ele>
        <time>2019-05-11T19:00:56Z</time>
      </trkpt>
      <trkpt lat="36.8747940063477" lon="-5.17149782180786">
        <ele>589</ele>
        <time>2019-05-11T19:00:58Z</time>
      </trkpt>
      <trkpt lat="36.874755859375" lon="-5.17151784896851">
        <ele>589</ele>
        <time>2019-05-11T19:01:00Z</time>
      </trkpt>
      <trkpt lat="36.8747291564941" lon="-5.17152976989746">
        <ele>589</ele>
        <time>2019-05-11T19:01:02Z</time>
      </trkpt>
      <trkpt lat="36.8747024536133" lon="-5.17154216766357">
        <ele>589</ele>
        <time>2019-05-11T19:01:04Z</time>
      </trkpt>
      <trkpt lat="36.8746757507324" lon="-5.17155504226685">
        <ele>589</ele>
        <time>2019-05-11T19:01:06Z</time>
      </trkpt>
      <trkpt lat="36.8746528625488" lon="-5.17156791687012">
        <ele>589</ele>
        <time>2019-05-11T19:01:09Z</time>
      </trkpt>
      <trkpt lat="36.874626159668" lon="-5.17157983779907">
        <ele>589</ele>
        <time>2019-05-11T19:01:11Z</time>
      </trkpt>
      <trkpt lat="36.8745994567871" lon="-5.1715931892395">
        <ele>589</ele>
        <time>2019-05-11T19:01:13Z</time>
      </trkpt>
      <trkpt lat="36.8745727539062" lon="-5.17160797119141">
        <ele>589</ele>
        <time>2019-05-11T19:01:15Z</time>
      </trkpt>
      <trkpt lat="36.8745460510254" lon="-5.17161989212036">
        <ele>589</ele>
        <time>2019-05-11T19:01:17Z</time>
      </trkpt>
      <trkpt lat="36.8745193481445" lon="-5.17163276672363">
        <ele>589</ele>
        <time>2019-05-11T19:01:19Z</time>
      </trkpt>
      <trkpt lat="36.8744926452637" lon="-5.1716480255127">
        <ele>589</ele>
        <time>2019-05-11T19:01:21Z</time>
      </trkpt>
      <trkpt lat="36.8744659423828" lon="-5.1716628074646">
        <ele>589</ele>
        <time>2019-05-11T19:01:23Z</time>
      </trkpt>
      <trkpt lat="36.8744430541992" lon="-5.17167520523071">
        <ele>589</ele>
        <time>2019-05-11T19:01:25Z</time>
      </trkpt>
      <trkpt lat="36.8744163513184" lon="-5.17168283462524">
        <ele>589</ele>
        <time>2019-05-11T19:01:27Z</time>
      </trkpt>
      <trkpt lat="36.8743934631348" lon="-5.17169523239136">
        <ele>589</ele>
        <time>2019-05-11T19:01:29Z</time>
      </trkpt>
      <trkpt lat="36.8743667602539" lon="-5.17170810699463">
        <ele>589</ele>
        <time>2019-05-11T19:01:31Z</time>
      </trkpt>
      <trkpt lat="36.8743438720703" lon="-5.17171716690064">
        <ele>589</ele>
        <time>2019-05-11T19:01:33Z</time>
      </trkpt>
      <trkpt lat="36.8743171691894" lon="-5.17173004150391">
        <ele>589</ele>
        <time>2019-05-11T19:01:35Z</time>
      </trkpt>
      <trkpt lat="36.8742828369141" lon="-5.17175006866455">
        <ele>589</ele>
        <time>2019-05-11T19:01:37Z</time>
      </trkpt>
      <trkpt lat="36.8742561340332" lon="-5.17176198959351">
        <ele>588</ele>
        <time>2019-05-11T19:01:39Z</time>
      </trkpt>
      <trkpt lat="36.8742332458496" lon="-5.17177486419678">
        <ele>588</ele>
        <time>2019-05-11T19:01:41Z</time>
      </trkpt>
      <trkpt lat="36.874210357666" lon="-5.17179012298584">
        <ele>588</ele>
        <time>2019-05-11T19:01:44Z</time>
      </trkpt>
      <trkpt lat="36.8741874694824" lon="-5.17180490493774">
        <ele>588</ele>
        <time>2019-05-11T19:01:46Z</time>
      </trkpt>
      <trkpt lat="36.8741645812988" lon="-5.17181777954102">
        <ele>588</ele>
        <time>2019-05-11T19:01:48Z</time>
      </trkpt>
      <trkpt lat="36.874137878418" lon="-5.17183303833008">
        <ele>588</ele>
        <time>2019-05-11T19:01:50Z</time>
      </trkpt>
      <trkpt lat="36.8741111755371" lon="-5.17184782028198">
        <ele>588</ele>
        <time>2019-05-11T19:01:52Z</time>
      </trkpt>
      <trkpt lat="36.8740882873535" lon="-5.1718602180481">
        <ele>588</ele>
        <time>2019-05-11T19:01:54Z</time>
      </trkpt>
      <trkpt lat="36.8740615844727" lon="-5.17187213897705">
        <ele>588</ele>
        <time>2019-05-11T19:01:56Z</time>
      </trkpt>
      <trkpt lat="36.8740348815918" lon="-5.17188692092896">
        <ele>588</ele>
        <time>2019-05-11T19:01:58Z</time>
      </trkpt>
      <trkpt lat="36.8740081787109" lon="-5.17189979553223">
        <ele>588</ele>
        <time>2019-05-11T19:02:00Z</time>
      </trkpt>
      <trkpt lat="36.8739814758301" lon="-5.17191219329834">
        <ele>588</ele>
        <time>2019-05-11T19:02:02Z</time>
      </trkpt>
      <trkpt lat="36.8739585876465" lon="-5.17192220687866">
        <ele>588</ele>
        <time>2019-05-11T19:02:04Z</time>
      </trkpt>
      <trkpt lat="36.8739318847656" lon="-5.1719331741333">
        <ele>588</ele>
        <time>2019-05-11T19:02:06Z</time>
      </trkpt>
      <trkpt lat="36.8739013671875" lon="-5.17194318771362">
        <ele>588</ele>
        <time>2019-05-11T19:02:08Z</time>
      </trkpt>
      <trkpt lat="36.8738784790039" lon="-5.17195510864258">
        <ele>587</ele>
        <time>2019-05-11T19:02:10Z</time>
      </trkpt>
      <trkpt lat="36.873836517334" lon="-5.17197513580322">
        <ele>587</ele>
        <time>2019-05-11T19:02:12Z</time>
      </trkpt>
      <trkpt lat="36.8738136291504" lon="-5.17198705673218">
        <ele>587</ele>
        <time>2019-05-11T19:02:14Z</time>
      </trkpt>
      <trkpt lat="36.8737869262695" lon="-5.17199993133545">
        <ele>587</ele>
        <time>2019-05-11T19:02:16Z</time>
      </trkpt>
      <trkpt lat="36.8737602233887" lon="-5.1720118522644">
        <ele>586</ele>
        <time>2019-05-11T19:02:19Z</time>
      </trkpt>
      <trkpt lat="36.8737335205078" lon="-5.17202281951904">
        <ele>586</ele>
        <time>2019-05-11T19:02:21Z</time>
      </trkpt>
      <trkpt lat="36.8737106323242" lon="-5.17203712463379">
        <ele>586</ele>
        <time>2019-05-11T19:02:23Z</time>
      </trkpt>
      <trkpt lat="36.8736839294434" lon="-5.17204809188843">
        <ele>586</ele>
        <time>2019-05-11T19:02:25Z</time>
      </trkpt>
      <trkpt lat="36.8736572265625" lon="-5.17206192016602">
        <ele>586</ele>
        <time>2019-05-11T19:02:27Z</time>
      </trkpt>
      <trkpt lat="36.8736305236816" lon="-5.17207717895508">
        <ele>586</ele>
        <time>2019-05-11T19:02:29Z</time>
      </trkpt>
      <trkpt lat="36.8736038208008" lon="-5.17209196090698">
        <ele>586</ele>
        <time>2019-05-11T19:02:31Z</time>
      </trkpt>
      <trkpt lat="36.8735771179199" lon="-5.17210292816162">
        <ele>586</ele>
        <time>2019-05-11T19:02:33Z</time>
      </trkpt>
      <trkpt lat="36.8735504150391" lon="-5.17211723327637">
        <ele>586</ele>
        <time>2019-05-11T19:02:35Z</time>
      </trkpt>
      <trkpt lat="36.8735237121582" lon="-5.17213201522827">
        <ele>586</ele>
        <time>2019-05-11T19:02:37Z</time>
      </trkpt>
      <trkpt lat="36.8734970092773" lon="-5.17214488983154">
        <ele>586</ele>
        <time>2019-05-11T19:02:39Z</time>
      </trkpt>
      <trkpt lat="36.8734703063965" lon="-5.17215776443481">
        <ele>586</ele>
        <time>2019-05-11T19:02:41Z</time>
      </trkpt>
      <trkpt lat="36.8734474182129" lon="-5.17217206954956">
        <ele>586</ele>
        <time>2019-05-11T19:02:43Z</time>
      </trkpt>
      <trkpt lat="36.8734169006348" lon="-5.17218780517578">
        <ele>586</ele>
        <time>2019-05-11T19:02:45Z</time>
      </trkpt>
      <trkpt lat="36.8733787536621" lon="-5.17221212387085">
        <ele>586</ele>
        <time>2019-05-11T19:02:47Z</time>
      </trkpt>
      <trkpt lat="36.873348236084" lon="-5.17222690582275">
        <ele>586</ele>
        <time>2019-05-11T19:02:49Z</time>
      </trkpt>
      <trkpt lat="36.8733215332031" lon="-5.17223978042603">
        <ele>586</ele>
        <time>2019-05-11T19:02:51Z</time>
      </trkpt>
      <trkpt lat="36.8732986450195" lon="-5.17225313186646">
        <ele>586</ele>
        <time>2019-05-11T19:02:53Z</time>
      </trkpt>
      <trkpt lat="36.8732681274414" lon="-5.17226696014404">
        <ele>586</ele>
        <time>2019-05-11T19:02:56Z</time>
      </trkpt>
      <trkpt lat="36.8732452392578" lon="-5.17228221893311">
        <ele>586</ele>
        <time>2019-05-11T19:02:58Z</time>
      </trkpt>
      <trkpt lat="36.873218536377" lon="-5.17229700088501">
        <ele>586</ele>
        <time>2019-05-11T19:03:00Z</time>
      </trkpt>
      <trkpt lat="36.8731880187988" lon="-5.17230796813965">
        <ele>586</ele>
        <time>2019-05-11T19:03:02Z</time>
      </trkpt>
      <trkpt lat="36.873161315918" lon="-5.17232179641724">
        <ele>586</ele>
        <time>2019-05-11T19:03:04Z</time>
      </trkpt>
      <trkpt lat="36.8731346130371" lon="-5.1723370552063">
        <ele>586</ele>
        <time>2019-05-11T19:03:06Z</time>
      </trkpt>
      <trkpt lat="36.8731079101562" lon="-5.17234992980957">
        <ele>585</ele>
        <time>2019-05-11T19:03:08Z</time>
      </trkpt>
      <trkpt lat="36.8730812072754" lon="-5.17235994338989">
        <ele>585</ele>
        <time>2019-05-11T19:03:10Z</time>
      </trkpt>
      <trkpt lat="36.8730506896973" lon="-5.17237186431885">
        <ele>585</ele>
        <time>2019-05-11T19:03:12Z</time>
      </trkpt>
      <trkpt lat="36.8730278015137" lon="-5.17238283157349">
        <ele>585</ele>
        <time>2019-05-11T19:03:14Z</time>
      </trkpt>
      <trkpt lat="36.8730010986328" lon="-5.17239809036255">
        <ele>585</ele>
        <time>2019-05-11T19:03:16Z</time>
      </trkpt>
      <trkpt lat="36.8729705810547" lon="-5.17241287231445">
        <ele>585</ele>
        <time>2019-05-11T19:03:18Z</time>
      </trkpt>
      <trkpt lat="36.8729438781738" lon="-5.17242479324341">
        <ele>585</ele>
        <time>2019-05-11T19:03:20Z</time>
      </trkpt>
      <trkpt lat="36.8728981018066" lon="-5.17244291305542">
        <ele>585</ele>
        <time>2019-05-11T19:03:22Z</time>
      </trkpt>
      <trkpt lat="36.8728713989258" lon="-5.17245721817017">
        <ele>585</ele>
        <time>2019-05-11T19:03:24Z</time>
      </trkpt>
      <trkpt lat="36.8728485107422" lon="-5.17247009277344">
        <ele>585</ele>
        <time>2019-05-11T19:03:26Z</time>
      </trkpt>
      <trkpt lat="36.8728179931641" lon="-5.17248487472534">
        <ele>585</ele>
        <time>2019-05-11T19:03:28Z</time>
      </trkpt>
      <trkpt lat="36.8727874755859" lon="-5.1725001335144">
        <ele>585</ele>
        <time>2019-05-11T19:03:31Z</time>
      </trkpt>
      <trkpt lat="36.8727607727051" lon="-5.17251682281494">
        <ele>585</ele>
        <time>2019-05-11T19:03:33Z</time>
      </trkpt>
      <trkpt lat="36.8727340698242" lon="-5.17252779006958">
        <ele>585</ele>
        <time>2019-05-11T19:03:35Z</time>
      </trkpt>
      <trkpt lat="36.8727035522461" lon="-5.1725378036499">
        <ele>585</ele>
        <time>2019-05-11T19:03:37Z</time>
      </trkpt>
      <trkpt lat="36.8726768493652" lon="-5.17255020141602">
        <ele>585</ele>
        <time>2019-05-11T19:03:39Z</time>
      </trkpt>
      <trkpt lat="36.8726501464844" lon="-5.17256307601929">
        <ele>585</ele>
        <time>2019-05-11T19:03:41Z</time>
      </trkpt>
      <trkpt lat="36.8726234436035" lon="-5.17257499694824">
        <ele>585</ele>
        <time>2019-05-11T19:03:43Z</time>
      </trkpt>
      <trkpt lat="36.8725929260254" lon="-5.1725869178772">
        <ele>585</ele>
        <time>2019-05-11T19:03:45Z</time>
      </trkpt>
      <trkpt lat="36.8725662231445" lon="-5.17259979248047">
        <ele>585</ele>
        <time>2019-05-11T19:03:47Z</time>
      </trkpt>
      <trkpt lat="36.8725395202637" lon="-5.1726131439209">
        <ele>585</ele>
        <time>2019-05-11T19:03:49Z</time>
      </trkpt>
      <trkpt lat="36.8725128173828" lon="-5.17262315750122">
        <ele>585</ele>
        <time>2019-05-11T19:03:51Z</time>
      </trkpt>
      <trkpt lat="36.872486114502" lon="-5.17263507843018">
        <ele>585</ele>
        <time>2019-05-11T19:03:53Z</time>
      </trkpt>
      <trkpt lat="36.8724594116211" lon="-5.17264699935913">
        <ele>585</ele>
        <time>2019-05-11T19:03:55Z</time>
      </trkpt>
      <trkpt lat="36.8724327087402" lon="-5.17265510559082">
        <ele>584</ele>
        <time>2019-05-11T19:03:57Z</time>
      </trkpt>
      <trkpt lat="36.8723907470703" lon="-5.17267322540283">
        <ele>584</ele>
        <time>2019-05-11T19:03:59Z</time>
      </trkpt>
      <trkpt lat="36.8723602294922" lon="-5.17268705368042">
        <ele>584</ele>
        <time>2019-05-11T19:04:01Z</time>
      </trkpt>
      <trkpt lat="36.8723373413086" lon="-5.17269706726074">
        <ele>584</ele>
        <time>2019-05-11T19:04:03Z</time>
      </trkpt>
      <trkpt lat="36.8723106384277" lon="-5.17270708084106">
        <ele>583</ele>
        <time>2019-05-11T19:04:05Z</time>
      </trkpt>
      <trkpt lat="36.8722801208496" lon="-5.17271995544434">
        <ele>583</ele>
        <time>2019-05-11T19:04:08Z</time>
      </trkpt>
      <trkpt lat="36.8722496032715" lon="-5.17273187637329">
        <ele>583</ele>
        <time>2019-05-11T19:04:10Z</time>
      </trkpt>
      <trkpt lat="36.8722152709961" lon="-5.17274284362793">
        <ele>583</ele>
        <time>2019-05-11T19:04:12Z</time>
      </trkpt>
      <trkpt lat="36.8721885681152" lon="-5.17275476455688">
        <ele>583</ele>
        <time>2019-05-11T19:04:14Z</time>
      </trkpt>
      <trkpt lat="36.8721618652344" lon="-5.172767162323">
        <ele>583</ele>
        <time>2019-05-11T19:04:16Z</time>
      </trkpt>
      <trkpt lat="36.8721351623535" lon="-5.17277717590332">
        <ele>583</ele>
        <time>2019-05-11T19:04:18Z</time>
      </trkpt>
      <trkpt lat="36.8721084594727" lon="-5.17278814315796">
        <ele>583</ele>
        <time>2019-05-11T19:04:20Z</time>
      </trkpt>
      <trkpt lat="36.8720817565918" lon="-5.17279815673828">
        <ele>583</ele>
        <time>2019-05-11T19:04:22Z</time>
      </trkpt>
      <trkpt lat="36.8720512390137" lon="-5.17280721664429">
        <ele>583</ele>
        <time>2019-05-11T19:04:24Z</time>
      </trkpt>
      <trkpt lat="36.8720169067383" lon="-5.17282009124756">
        <ele>583</ele>
        <time>2019-05-11T19:04:26Z</time>
      </trkpt>
      <trkpt lat="36.8719863891602" lon="-5.17283201217651">
        <ele>583</ele>
        <time>2019-05-11T19:04:28Z</time>
      </trkpt>
      <trkpt lat="36.8719635009766" lon="-5.17284202575684">
        <ele>583</ele>
        <time>2019-05-11T19:04:30Z</time>
      </trkpt>
      <trkpt lat="36.8719329833984" lon="-5.17285203933716">
        <ele>583</ele>
        <time>2019-05-11T19:04:32Z</time>
      </trkpt>
      <trkpt lat="36.8718910217285" lon="-5.17286777496338">
        <ele>583</ele>
        <time>2019-05-11T19:04:34Z</time>
      </trkpt>
      <trkpt lat="36.8718643188477" lon="-5.1728777885437">
        <ele>583</ele>
        <time>2019-05-11T19:04:36Z</time>
      </trkpt>
      <trkpt lat="36.8718376159668" lon="-5.17289018630981">
        <ele>583</ele>
        <time>2019-05-11T19:04:38Z</time>
      </trkpt>
      <trkpt lat="36.8718109130859" lon="-5.17290019989014">
        <ele>583</ele>
        <time>2019-05-11T19:04:40Z</time>
      </trkpt>
      <trkpt lat="36.8717842102051" lon="-5.17291021347046">
        <ele>583</ele>
        <time>2019-05-11T19:04:43Z</time>
      </trkpt>
      <trkpt lat="36.871753692627" lon="-5.17292213439941">
        <ele>583</ele>
        <time>2019-05-11T19:04:45Z</time>
      </trkpt>
      <trkpt lat="36.8717269897461" lon="-5.17293310165405">
        <ele>583</ele>
        <time>2019-05-11T19:04:47Z</time>
      </trkpt>
      <trkpt lat="36.871696472168" lon="-5.17294692993164">
        <ele>583</ele>
        <time>2019-05-11T19:04:49Z</time>
      </trkpt>
      <trkpt lat="36.8716697692871" lon="-5.17295789718628">
        <ele>583</ele>
        <time>2019-05-11T19:04:51Z</time>
      </trkpt>
      <trkpt lat="36.871639251709" lon="-5.1729679107666">
        <ele>583</ele>
        <time>2019-05-11T19:04:53Z</time>
      </trkpt>
      <trkpt lat="36.8716087341309" lon="-5.17297697067261">
        <ele>583</ele>
        <time>2019-05-11T19:04:55Z</time>
      </trkpt>
      <trkpt lat="36.87158203125" lon="-5.1729850769043">
        <ele>583</ele>
        <time>2019-05-11T19:04:57Z</time>
      </trkpt>
      <trkpt lat="36.8715515136719" lon="-5.17299509048462">
        <ele>583</ele>
        <time>2019-05-11T19:04:59Z</time>
      </trkpt>
      <trkpt lat="36.871524810791" lon="-5.17300510406494">
        <ele>583</ele>
        <time>2019-05-11T19:05:01Z</time>
      </trkpt>
      <trkpt lat="36.8714981079102" lon="-5.17301511764526">
        <ele>583</ele>
        <time>2019-05-11T19:05:03Z</time>
      </trkpt>
      <trkpt lat="36.871467590332" lon="-5.17302513122559">
        <ele>583</ele>
        <time>2019-05-11T19:05:05Z</time>
      </trkpt>
      <trkpt lat="36.8714408874512" lon="-5.1730318069458">
        <ele>583</ele>
        <time>2019-05-11T19:05:07Z</time>
      </trkpt>
      <trkpt lat="36.8714027404785" lon="-5.17304992675781">
        <ele>583</ele>
        <time>2019-05-11T19:05:09Z</time>
      </trkpt>
      <trkpt lat="36.8713722229004" lon="-5.17306184768677">
        <ele>583</ele>
        <time>2019-05-11T19:05:11Z</time>
      </trkpt>
      <trkpt lat="36.8713417053223" lon="-5.1730751991272">
        <ele>583</ele>
        <time>2019-05-11T19:05:13Z</time>
      </trkpt>
      <trkpt lat="36.8713073730469" lon="-5.17308807373047">
        <ele>583</ele>
        <time>2019-05-11T19:05:15Z</time>
      </trkpt>
      <trkpt lat="36.871280670166" lon="-5.17309999465942">
        <ele>583</ele>
        <time>2019-05-11T19:05:17Z</time>
      </trkpt>
      <trkpt lat="36.8712463378906" lon="-5.17311000823975">
        <ele>583</ele>
        <time>2019-05-11T19:05:20Z</time>
      </trkpt>
      <trkpt lat="36.8712196350098" lon="-5.17312002182007">
        <ele>583</ele>
        <time>2019-05-11T19:05:22Z</time>
      </trkpt>
      <trkpt lat="36.8711891174316" lon="-5.17313289642334">
        <ele>583</ele>
        <time>2019-05-11T19:05:24Z</time>
      </trkpt>
      <trkpt lat="36.8711585998535" lon="-5.17314291000366">
        <ele>583</ele>
        <time>2019-05-11T19:05:26Z</time>
      </trkpt>
      <trkpt lat="36.8711318969727" lon="-5.17315292358398">
        <ele>583</ele>
        <time>2019-05-11T19:05:28Z</time>
      </trkpt>
      <trkpt lat="36.8711013793945" lon="-5.17316293716431">
        <ele>583</ele>
        <time>2019-05-11T19:05:30Z</time>
      </trkpt>
      <trkpt lat="36.8710746765137" lon="-5.17317485809326">
        <ele>583</ele>
        <time>2019-05-11T19:05:32Z</time>
      </trkpt>
      <trkpt lat="36.8710441589356" lon="-5.17318487167358">
        <ele>583</ele>
        <time>2019-05-11T19:05:34Z</time>
      </trkpt>
      <trkpt lat="36.8710136413574" lon="-5.17319488525391">
        <ele>583</ele>
        <time>2019-05-11T19:05:36Z</time>
      </trkpt>
      <trkpt lat="36.8709869384766" lon="-5.17320680618286">
        <ele>583</ele>
        <time>2019-05-11T19:05:38Z</time>
      </trkpt>
      <trkpt lat="36.8709564208984" lon="-5.1732177734375">
        <ele>583</ele>
        <time>2019-05-11T19:05:40Z</time>
      </trkpt>
      <trkpt lat="36.8709297180176" lon="-5.17323017120361">
        <ele>583</ele>
        <time>2019-05-11T19:05:42Z</time>
      </trkpt>
      <trkpt lat="36.8709030151367" lon="-5.17324209213257">
        <ele>583</ele>
        <time>2019-05-11T19:05:44Z</time>
      </trkpt>
      <trkpt lat="36.8708610534668" lon="-5.17325687408447">
        <ele>583</ele>
        <time>2019-05-11T19:05:46Z</time>
      </trkpt>
      <trkpt lat="36.8708343505859" lon="-5.1732668876648">
        <ele>583</ele>
        <time>2019-05-11T19:05:48Z</time>
      </trkpt>
      <trkpt lat="36.8708038330078" lon="-5.17327690124512">
        <ele>583</ele>
        <time>2019-05-11T19:05:50Z</time>
      </trkpt>
      <trkpt lat="36.8707733154297" lon="-5.17328691482544">
        <ele>583</ele>
        <time>2019-05-11T19:05:52Z</time>
      </trkpt>
      <trkpt lat="36.8707427978516" lon="-5.17329788208008">
        <ele>583</ele>
        <time>2019-05-11T19:05:55Z</time>
      </trkpt>
      <trkpt lat="36.8707122802734" lon="-5.17330694198608">
        <ele>583</ele>
        <time>2019-05-11T19:05:57Z</time>
      </trkpt>
      <trkpt lat="36.8706817626953" lon="-5.17331504821777">
        <ele>583</ele>
        <time>2019-05-11T19:05:59Z</time>
      </trkpt>
      <trkpt lat="36.8706550598144" lon="-5.17332220077515">
        <ele>583</ele>
        <time>2019-05-11T19:06:01Z</time>
      </trkpt>
      <trkpt lat="36.8706245422363" lon="-5.17333221435547">
        <ele>583</ele>
        <time>2019-05-11T19:06:03Z</time>
      </trkpt>
      <trkpt lat="36.8705940246582" lon="-5.17334222793579">
        <ele>583</ele>
        <time>2019-05-11T19:06:05Z</time>
      </trkpt>
      <trkpt lat="36.8705673217773" lon="-5.17335176467896">
        <ele>583</ele>
        <time>2019-05-11T19:06:07Z</time>
      </trkpt>
      <trkpt lat="36.8705406188965" lon="-5.17335987091064">
        <ele>583</ele>
        <time>2019-05-11T19:06:09Z</time>
      </trkpt>
      <trkpt lat="36.8705139160156" lon="-5.17336988449097">
        <ele>583</ele>
        <time>2019-05-11T19:06:11Z</time>
      </trkpt>
      <trkpt lat="36.8704872131348" lon="-5.17337799072266">
        <ele>583</ele>
        <time>2019-05-11T19:06:13Z</time>
      </trkpt>
      <trkpt lat="36.8704605102539" lon="-5.17338800430298">
        <ele>583</ele>
        <time>2019-05-11T19:06:15Z</time>
      </trkpt>
      <trkpt lat="36.8704299926758" lon="-5.1733980178833">
        <ele>583</ele>
        <time>2019-05-11T19:06:17Z</time>
      </trkpt>
      <trkpt lat="36.8704032897949" lon="-5.17340707778931">
        <ele>583</ele>
        <time>2019-05-11T19:06:19Z</time>
      </trkpt>
      <trkpt lat="36.8703727722168" lon="-5.17340993881226">
        <ele>583</ele>
        <time>2019-05-11T19:06:21Z</time>
      </trkpt>
      <trkpt lat="36.8703308105469" lon="-5.17342185974121">
        <ele>583</ele>
        <time>2019-05-11T19:06:23Z</time>
      </trkpt>
      <trkpt lat="36.8703002929688" lon="-5.17343187332153">
        <ele>583</ele>
        <time>2019-05-11T19:06:25Z</time>
      </trkpt>
      <trkpt lat="36.8702735900879" lon="-5.17343997955322">
        <ele>583</ele>
        <time>2019-05-11T19:06:27Z</time>
      </trkpt>
      <trkpt lat="36.870246887207" lon="-5.1734471321106">
        <ele>583</ele>
        <time>2019-05-11T19:06:29Z</time>
      </trkpt>
      <trkpt lat="36.8702163696289" lon="-5.17345190048218">
        <ele>583</ele>
        <time>2019-05-11T19:06:32Z</time>
      </trkpt>
      <trkpt lat="36.870189666748" lon="-5.17345523834228">
        <ele>583</ele>
        <time>2019-05-11T19:06:34Z</time>
      </trkpt>
      <trkpt lat="36.8701591491699" lon="-5.17346286773682">
        <ele>583</ele>
        <time>2019-05-11T19:06:36Z</time>
      </trkpt>
      <trkpt lat="36.8701324462891" lon="-5.17347192764282">
        <ele>582</ele>
        <time>2019-05-11T19:06:38Z</time>
      </trkpt>
      <trkpt lat="36.8701095581055" lon="-5.17347812652588">
        <ele>582</ele>
        <time>2019-05-11T19:06:40Z</time>
      </trkpt>
      <trkpt lat="36.8700866699219" lon="-5.17348718643188">
        <ele>582</ele>
        <time>2019-05-11T19:06:42Z</time>
      </trkpt>
      <trkpt lat="36.8700637817383" lon="-5.17349290847778">
        <ele>582</ele>
        <time>2019-05-11T19:06:44Z</time>
      </trkpt>
      <trkpt lat="36.8700561523438" lon="-5.17349195480347">
        <ele>582</ele>
        <time>2019-05-11T19:06:46Z</time>
      </trkpt>
      <trkpt lat="36.8700561523438" lon="-5.17349720001221">
        <ele>582</ele>
        <time>2019-05-11T19:06:48Z</time>
      </trkpt>
      <trkpt lat="36.8700561523438" lon="-5.17349720001221">
        <ele>582</ele>
        <time>2019-05-11T19:06:50Z</time>
      </trkpt>
      <trkpt lat="36.870059967041" lon="-5.17349481582642">
        <ele>582</ele>
        <time>2019-05-11T19:06:52Z</time>
      </trkpt>
      <trkpt lat="36.8700637817383" lon="-5.17349481582642">
        <ele>582</ele>
        <time>2019-05-11T19:06:54Z</time>
      </trkpt>
      <trkpt lat="36.8700637817383" lon="-5.17349481582642">
        <ele>582</ele>
        <time>2019-05-11T19:06:56Z</time>
      </trkpt>
      <trkpt lat="36.8700637817383" lon="-5.17349481582642">
        <ele>582</ele>
        <time>2019-05-11T19:06:58Z</time>
      </trkpt>
      <trkpt lat="36.8700637817383" lon="-5.17349290847778">
        <ele>582</ele>
        <time>2019-05-11T19:07:00Z</time>
      </trkpt>
      <trkpt lat="36.8700675964356" lon="-5.17349290847778">
        <ele>582</ele>
        <time>2019-05-11T19:07:02Z</time>
      </trkpt>
      <trkpt lat="36.8700675964356" lon="-5.17349004745483">
        <ele>582</ele>
        <time>2019-05-11T19:07:04Z</time>
      </trkpt>
      <trkpt lat="36.8700675964356" lon="-5.17349004745483">
        <ele>582</ele>
        <time>2019-05-11T19:07:06Z</time>
      </trkpt>
      <trkpt lat="36.8700714111328" lon="-5.17349195480347">
        <ele>582</ele>
        <time>2019-05-11T19:07:08Z</time>
      </trkpt>
      <trkpt lat="36.8700714111328" lon="-5.17349481582642">
        <ele>582</ele>
        <time>2019-05-11T19:07:10Z</time>
      </trkpt>
      <trkpt lat="36.8700752258301" lon="-5.17349481582642">
        <ele>582</ele>
        <time>2019-05-11T19:07:12Z</time>
      </trkpt>
      <trkpt lat="36.8700752258301" lon="-5.17349290847778">
        <ele>582</ele>
        <time>2019-05-11T19:07:14Z</time>
      </trkpt>
      <trkpt lat="36.8700752258301" lon="-5.17349290847778">
        <ele>582</ele>
        <time>2019-05-11T19:07:16Z</time>
      </trkpt>
      <trkpt lat="36.8700752258301" lon="-5.17349195480347">
        <ele>582</ele>
        <time>2019-05-11T19:07:18Z</time>
      </trkpt>
      <trkpt lat="36.8700714111328" lon="-5.17349290847778">
        <ele>582</ele>
        <time>2019-05-11T19:07:20Z</time>
      </trkpt>
      <trkpt lat="36.8700714111328" lon="-5.17349195480347">
        <ele>582</ele>
        <time>2019-05-11T19:07:22Z</time>
      </trkpt>
      <trkpt lat="36.8700752258301" lon="-5.17348480224609">
        <ele>582</ele>
        <time>2019-05-11T19:07:25Z</time>
      </trkpt>
      <trkpt lat="36.8700752258301" lon="-5.17348480224609">
        <ele>582</ele>
        <time>2019-05-11T19:07:27Z</time>
      </trkpt>
      <trkpt lat="36.8700752258301" lon="-5.17348480224609">
        <ele>582</ele>
        <time>2019-05-11T19:07:29Z</time>
      </trkpt>
      <trkpt lat="36.8700752258301" lon="-5.17348480224609">
        <ele>582</ele>
        <time>2019-05-11T19:07:31Z</time>
      </trkpt>
      <trkpt lat="36.8700752258301" lon="-5.17348480224609">
        <ele>582</ele>
        <time>2019-05-11T19:07:33Z</time>
      </trkpt>
      <trkpt lat="36.8700752258301" lon="-5.17348480224609">
        <ele>582</ele>
        <time>2019-05-11T19:07:35Z</time>
      </trkpt>
      <trkpt lat="36.8700752258301" lon="-5.17348480224609">
        <ele>582</ele>
        <time>2019-05-11T19:07:37Z</time>
      </trkpt>
      <trkpt lat="36.8700752258301" lon="-5.17348289489746">
        <ele>582</ele>
        <time>2019-05-11T19:07:39Z</time>
      </trkpt>
      <trkpt lat="36.8700752258301" lon="-5.17348194122314">
        <ele>582</ele>
        <time>2019-05-11T19:07:41Z</time>
      </trkpt>
      <trkpt lat="36.8700752258301" lon="-5.17348194122314">
        <ele>582</ele>
        <time>2019-05-11T19:07:43Z</time>
      </trkpt>
      <trkpt lat="36.8700790405273" lon="-5.17348194122314">
        <ele>582</ele>
        <time>2019-05-11T19:07:45Z</time>
      </trkpt>
      <trkpt lat="36.8700752258301" lon="-5.17348194122314">
        <ele>582</ele>
        <time>2019-05-11T19:07:47Z</time>
      </trkpt>
      <trkpt lat="36.8700752258301" lon="-5.17348194122314">
        <ele>582</ele>
        <time>2019-05-11T19:07:49Z</time>
      </trkpt>
      <trkpt lat="36.8700752258301" lon="-5.17348194122314">
        <ele>582</ele>
        <time>2019-05-11T19:07:51Z</time>
      </trkpt>
      <trkpt lat="36.8700752258301" lon="-5.17348003387451">
        <ele>582</ele>
        <time>2019-05-11T19:07:53Z</time>
      </trkpt>
      <trkpt lat="36.8700714111328" lon="-5.17348480224609">
        <ele>582</ele>
        <time>2019-05-11T19:07:55Z</time>
      </trkpt>
      <trkpt lat="36.8700752258301" lon="-5.17349004745483">
        <ele>582</ele>
        <time>2019-05-11T19:07:57Z</time>
      </trkpt>
      <trkpt lat="36.8700675964356" lon="-5.17349195480347">
        <ele>582</ele>
        <time>2019-05-11T19:07:59Z</time>
      </trkpt>
      <trkpt lat="36.8700561523438" lon="-5.17349290847778">
        <ele>582</ele>
        <time>2019-05-11T19:08:01Z</time>
      </trkpt>
      <trkpt lat="36.8700370788574" lon="-5.17349720001221">
        <ele>582</ele>
        <time>2019-05-11T19:08:03Z</time>
      </trkpt>
      <trkpt lat="36.8700141906738" lon="-5.17350196838379">
        <ele>582</ele>
        <time>2019-05-11T19:08:05Z</time>
      </trkpt>
      <trkpt lat="36.8699913024902" lon="-5.17350482940674">
        <ele>582</ele>
        <time>2019-05-11T19:08:07Z</time>
      </trkpt>
      <trkpt lat="36.8699684143066" lon="-5.17350816726685">
        <ele>582</ele>
        <time>2019-05-11T19:08:09Z</time>
      </trkpt>
      <trkpt lat="36.8699264526367" lon="-5.17351198196411">
        <ele>582</ele>
        <time>2019-05-11T19:08:11Z</time>
      </trkpt>
      <trkpt lat="36.8699035644531" lon="-5.17351722717285">
        <ele>582</ele>
        <time>2019-05-11T19:08:13Z</time>
      </trkpt>
      <trkpt lat="36.8698768615723" lon="-5.1735200881958">
        <ele>582</ele>
        <time>2019-05-11T19:08:15Z</time>
      </trkpt>
      <trkpt lat="36.8698501586914" lon="-5.17352676391602">
        <ele>582</ele>
        <time>2019-05-11T19:08:17Z</time>
      </trkpt>
      <trkpt lat="36.8698272705078" lon="-5.17353200912476">
        <ele>582</ele>
        <time>2019-05-11T19:08:20Z</time>
      </trkpt>
      <trkpt lat="36.8698043823242" lon="-5.1735348701477">
        <ele>582</ele>
        <time>2019-05-11T19:08:22Z</time>
      </trkpt>
      <trkpt lat="36.8697814941406" lon="-5.17354202270508">
        <ele>582</ele>
        <time>2019-05-11T19:08:24Z</time>
      </trkpt>
      <trkpt lat="36.869758605957" lon="-5.17354679107666">
        <ele>582</ele>
        <time>2019-05-11T19:08:26Z</time>
      </trkpt>
      <trkpt lat="36.8697319030762" lon="-5.17355489730835">
        <ele>582</ele>
        <time>2019-05-11T19:08:28Z</time>
      </trkpt>
      <trkpt lat="36.8697052001953" lon="-5.17356204986572">
        <ele>582</ele>
        <time>2019-05-11T19:08:30Z</time>
      </trkpt>
      <trkpt lat="36.8696823120117" lon="-5.1735668182373">
        <ele>582</ele>
        <time>2019-05-11T19:08:32Z</time>
      </trkpt>
      <trkpt lat="36.8696556091309" lon="-5.17357492446899">
        <ele>582</ele>
        <time>2019-05-11T19:08:34Z</time>
      </trkpt>
      <trkpt lat="36.8696327209473" lon="-5.17358303070068">
        <ele>582</ele>
        <time>2019-05-11T19:08:36Z</time>
      </trkpt>
      <trkpt lat="36.8696060180664" lon="-5.17358779907227">
        <ele>582</ele>
        <time>2019-05-11T19:08:38Z</time>
      </trkpt>
      <trkpt lat="36.8695793151856" lon="-5.17359781265259">
        <ele>582</ele>
        <time>2019-05-11T19:08:40Z</time>
      </trkpt>
      <trkpt lat="36.8695487976074" lon="-5.17360496520996">
        <ele>582</ele>
        <time>2019-05-11T19:08:42Z</time>
      </trkpt>
      <trkpt lat="36.8695220947266" lon="-5.17360687255859">
        <ele>582</ele>
        <time>2019-05-11T19:08:44Z</time>
      </trkpt>
      <trkpt lat="36.869499206543" lon="-5.1736102104187">
        <ele>582</ele>
        <time>2019-05-11T19:08:46Z</time>
      </trkpt>
      <trkpt lat="36.8694648742676" lon="-5.17361688613892">
        <ele>582</ele>
        <time>2019-05-11T19:08:48Z</time>
      </trkpt>
      <trkpt lat="36.869441986084" lon="-5.17362308502197">
        <ele>582</ele>
        <time>2019-05-11T19:08:50Z</time>
      </trkpt>
      <trkpt lat="36.8694152832031" lon="-5.17363023757935">
        <ele>582</ele>
        <time>2019-05-11T19:08:52Z</time>
      </trkpt>
      <trkpt lat="36.8693923950195" lon="-5.17363786697388">
        <ele>582</ele>
        <time>2019-05-11T19:08:54Z</time>
      </trkpt>
      <trkpt lat="36.8693656921387" lon="-5.1736478805542">
        <ele>582</ele>
        <time>2019-05-11T19:08:57Z</time>
      </trkpt>
      <trkpt lat="36.8693428039551" lon="-5.17366313934326">
        <ele>582</ele>
        <time>2019-05-11T19:08:59Z</time>
      </trkpt>
      <trkpt lat="36.8693199157715" lon="-5.17366790771484">
        <ele>582</ele>
        <time>2019-05-11T19:09:01Z</time>
      </trkpt>
      <trkpt lat="36.8692932128906" lon="-5.17367315292358">
        <ele>582</ele>
        <time>2019-05-11T19:09:03Z</time>
      </trkpt>
      <trkpt lat="36.8692626953125" lon="-5.1736798286438">
        <ele>582</ele>
        <time>2019-05-11T19:09:05Z</time>
      </trkpt>
      <trkpt lat="36.8692321777344" lon="-5.17368793487549">
        <ele>582</ele>
        <time>2019-05-11T19:09:07Z</time>
      </trkpt>
      <trkpt lat="36.8692054748535" lon="-5.17369508743286">
        <ele>582</ele>
        <time>2019-05-11T19:09:09Z</time>
      </trkpt>
      <trkpt lat="36.8691787719727" lon="-5.17370510101318">
        <ele>582</ele>
        <time>2019-05-11T19:09:11Z</time>
      </trkpt>
      <trkpt lat="36.8691482543945" lon="-5.1737117767334">
        <ele>582</ele>
        <time>2019-05-11T19:09:13Z</time>
      </trkpt>
      <trkpt lat="36.8691177368164" lon="-5.17371702194214">
        <ele>582</ele>
        <time>2019-05-11T19:09:15Z</time>
      </trkpt>
      <trkpt lat="36.8690910339356" lon="-5.17372179031372">
        <ele>582</ele>
        <time>2019-05-11T19:09:17Z</time>
      </trkpt>
      <trkpt lat="36.8690605163574" lon="-5.17372703552246">
        <ele>582</ele>
        <time>2019-05-11T19:09:19Z</time>
      </trkpt>
      <trkpt lat="36.8690338134766" lon="-5.17373323440552">
        <ele>582</ele>
        <time>2019-05-11T19:09:21Z</time>
      </trkpt>
      <trkpt lat="36.8689956665039" lon="-5.17374515533447">
        <ele>582</ele>
        <time>2019-05-11T19:09:23Z</time>
      </trkpt>
      <trkpt lat="36.868968963623" lon="-5.17374992370606">
        <ele>582</ele>
        <time>2019-05-11T19:09:25Z</time>
      </trkpt>
      <trkpt lat="36.8689422607422" lon="-5.17375802993774">
        <ele>582</ele>
        <time>2019-05-11T19:09:27Z</time>
      </trkpt>
      <trkpt lat="36.8689155578613" lon="-5.17376279830933">
        <ele>582</ele>
        <time>2019-05-11T19:09:29Z</time>
      </trkpt>
      <trkpt lat="36.8688926696777" lon="-5.1737699508667">
        <ele>582</ele>
        <time>2019-05-11T19:09:32Z</time>
      </trkpt>
      <trkpt lat="36.8688659667969" lon="-5.17377710342407">
        <ele>582</ele>
        <time>2019-05-11T19:09:34Z</time>
      </trkpt>
      <trkpt lat="36.868839263916" lon="-5.17378520965576">
        <ele>582</ele>
        <time>2019-05-11T19:09:36Z</time>
      </trkpt>
      <trkpt lat="36.8688125610352" lon="-5.17378807067871">
        <ele>582</ele>
        <time>2019-05-11T19:09:38Z</time>
      </trkpt>
      <trkpt lat="36.8687896728516" lon="-5.17379188537598">
        <ele>581</ele>
        <time>2019-05-11T19:09:40Z</time>
      </trkpt>
      <trkpt lat="36.868766784668" lon="-5.1738018989563">
        <ele>581</ele>
        <time>2019-05-11T19:09:42Z</time>
      </trkpt>
      <trkpt lat="36.8687400817871" lon="-5.17380809783936">
        <ele>581</ele>
        <time>2019-05-11T19:09:44Z</time>
      </trkpt>
      <trkpt lat="36.8687171936035" lon="-5.17381286621094">
        <ele>581</ele>
        <time>2019-05-11T19:09:46Z</time>
      </trkpt>
      <trkpt lat="36.8686904907227" lon="-5.17381811141968">
        <ele>581</ele>
        <time>2019-05-11T19:09:48Z</time>
      </trkpt>
      <trkpt lat="36.8686637878418" lon="-5.17382717132568">
        <ele>581</ele>
        <time>2019-05-11T19:09:50Z</time>
      </trkpt>
      <trkpt lat="36.8686370849609" lon="-5.17383289337158">
        <ele>581</ele>
        <time>2019-05-11T19:09:52Z</time>
      </trkpt>
      <trkpt lat="36.8686103820801" lon="-5.17383718490601">
        <ele>581</ele>
        <time>2019-05-11T19:09:54Z</time>
      </trkpt>
      <trkpt lat="36.868579864502" lon="-5.17384004592896">
        <ele>581</ele>
        <time>2019-05-11T19:09:56Z</time>
      </trkpt>
      <trkpt lat="36.8685417175293" lon="-5.17385005950928">
        <ele>581</ele>
        <time>2019-05-11T19:09:58Z</time>
      </trkpt>
      <trkpt lat="36.8685073852539" lon="-5.17386198043823">
        <ele>581</ele>
        <time>2019-05-11T19:10:00Z</time>
      </trkpt>
      <trkpt lat="36.868480682373" lon="-5.17387008666992">
        <ele>581</ele>
        <time>2019-05-11T19:10:02Z</time>
      </trkpt>
      <trkpt lat="36.8684539794922" lon="-5.17387819290161">
        <ele>581</ele>
        <time>2019-05-11T19:10:04Z</time>
      </trkpt>
      <trkpt lat="36.8684310913086" lon="-5.17388296127319">
        <ele>581</ele>
        <time>2019-05-11T19:10:07Z</time>
      </trkpt>
      <trkpt lat="36.8684043884277" lon="-5.17388486862183">
        <ele>581</ele>
        <time>2019-05-11T19:10:09Z</time>
      </trkpt>
      <trkpt lat="36.8683776855469" lon="-5.17388677597046">
        <ele>581</ele>
        <time>2019-05-11T19:10:11Z</time>
      </trkpt>
      <trkpt lat="36.868350982666" lon="-5.17389011383057">
        <ele>581</ele>
        <time>2019-05-11T19:10:13Z</time>
      </trkpt>
      <trkpt lat="36.8683280944824" lon="-5.17389297485352">
        <ele>581</ele>
        <time>2019-05-11T19:10:15Z</time>
      </trkpt>
      <trkpt lat="36.8683013916016" lon="-5.17390298843384">
        <ele>581</ele>
        <time>2019-05-11T19:10:17Z</time>
      </trkpt>
      <trkpt lat="36.8682746887207" lon="-5.17391204833984">
        <ele>581</ele>
        <time>2019-05-11T19:10:19Z</time>
      </trkpt>
      <trkpt lat="36.8682518005371" lon="-5.17391777038574">
        <ele>581</ele>
        <time>2019-05-11T19:10:21Z</time>
      </trkpt>
      <trkpt lat="36.8682250976562" lon="-5.17392492294312">
        <ele>581</ele>
        <time>2019-05-11T19:10:23Z</time>
      </trkpt>
      <trkpt lat="36.8681983947754" lon="-5.17393207550049">
        <ele>581</ele>
        <time>2019-05-11T19:10:25Z</time>
      </trkpt>
      <trkpt lat="36.8681716918945" lon="-5.17394018173218">
        <ele>581</ele>
        <time>2019-05-11T19:10:27Z</time>
      </trkpt>
      <trkpt lat="36.8681449890137" lon="-5.17394304275513">
        <ele>581</ele>
        <time>2019-05-11T19:10:29Z</time>
      </trkpt>
      <trkpt lat="36.8681182861328" lon="-5.1739501953125">
        <ele>581</ele>
        <time>2019-05-11T19:10:31Z</time>
      </trkpt>
      <trkpt lat="36.8680953979492" lon="-5.17395687103272">
        <ele>581</ele>
        <time>2019-05-11T19:10:33Z</time>
      </trkpt>
      <trkpt lat="36.8680572509766" lon="-5.17396211624146">
        <ele>581</ele>
        <time>2019-05-11T19:10:35Z</time>
      </trkpt>
      <trkpt lat="36.8680305480957" lon="-5.17397022247314">
        <ele>581</ele>
        <time>2019-05-11T19:10:37Z</time>
      </trkpt>
      <trkpt lat="36.8680038452148" lon="-5.17397689819336">
        <ele>581</ele>
        <time>2019-05-11T19:10:39Z</time>
      </trkpt>
      <trkpt lat="36.8679733276367" lon="-5.17398309707642">
        <ele>581</ele>
        <time>2019-05-11T19:10:41Z</time>
      </trkpt>
      <trkpt lat="36.8679466247559" lon="-5.17398691177368">
        <ele>581</ele>
        <time>2019-05-11T19:10:44Z</time>
      </trkpt>
      <trkpt lat="36.8679161071777" lon="-5.17399311065674">
        <ele>581</ele>
        <time>2019-05-11T19:10:46Z</time>
      </trkpt>
      <trkpt lat="36.8678932189941" lon="-5.173996925354">
        <ele>581</ele>
        <time>2019-05-11T19:10:48Z</time>
      </trkpt>
      <trkpt lat="36.8678703308106" lon="-5.17399978637695">
        <ele>581</ele>
        <time>2019-05-11T19:10:50Z</time>
      </trkpt>
      <trkpt lat="36.8678436279297" lon="-5.17400312423706">
        <ele>581</ele>
        <time>2019-05-11T19:10:52Z</time>
      </trkpt>
      <trkpt lat="36.8678169250488" lon="-5.17400789260864">
        <ele>581</ele>
        <time>2019-05-11T19:10:54Z</time>
      </trkpt>
      <trkpt lat="36.8677864074707" lon="-5.17401504516602">
        <ele>581</ele>
        <time>2019-05-11T19:10:56Z</time>
      </trkpt>
      <trkpt lat="36.8677597045898" lon="-5.1740198135376">
        <ele>581</ele>
        <time>2019-05-11T19:10:58Z</time>
      </trkpt>
      <trkpt lat="36.8677368164062" lon="-5.17402505874634">
        <ele>581</ele>
        <time>2019-05-11T19:11:00Z</time>
      </trkpt>
      <trkpt lat="36.8677062988281" lon="-5.17402982711792">
        <ele>581</ele>
        <time>2019-05-11T19:11:02Z</time>
      </trkpt>
      <trkpt lat="36.8676795959473" lon="-5.17403507232666">
        <ele>581</ele>
        <time>2019-05-11T19:11:04Z</time>
      </trkpt>
      <trkpt lat="36.8676528930664" lon="-5.17404222488403">
        <ele>581</ele>
        <time>2019-05-11T19:11:06Z</time>
      </trkpt>
      <trkpt lat="36.8676223754883" lon="-5.17404699325562">
        <ele>581</ele>
        <time>2019-05-11T19:11:08Z</time>
      </trkpt>
      <trkpt lat="36.8675918579102" lon="-5.1740517616272">
        <ele>581</ele>
        <time>2019-05-11T19:11:10Z</time>
      </trkpt>
      <trkpt lat="36.8675537109375" lon="-5.17405796051025">
        <ele>581</ele>
        <time>2019-05-11T19:11:12Z</time>
      </trkpt>
      <trkpt lat="36.8675231933594" lon="-5.17406320571899">
        <ele>581</ele>
        <time>2019-05-11T19:11:14Z</time>
      </trkpt>
      <trkpt lat="36.8674926757812" lon="-5.17406797409058">
        <ele>581</ele>
        <time>2019-05-11T19:11:16Z</time>
      </trkpt>
      <trkpt lat="36.8674621582031" lon="-5.17407512664795">
        <ele>581</ele>
        <time>2019-05-11T19:11:18Z</time>
      </trkpt>
      <trkpt lat="36.867431640625" lon="-5.17408180236816">
        <ele>581</ele>
        <time>2019-05-11T19:11:21Z</time>
      </trkpt>
      <trkpt lat="36.8674011230469" lon="-5.1740870475769">
        <ele>581</ele>
        <time>2019-05-11T19:11:23Z</time>
      </trkpt>
      <trkpt lat="36.8673782348633" lon="-5.17409181594849">
        <ele>581</ele>
        <time>2019-05-11T19:11:25Z</time>
      </trkpt>
      <trkpt lat="36.8673477172852" lon="-5.17409801483154">
        <ele>581</ele>
        <time>2019-05-11T19:11:27Z</time>
      </trkpt>
      <trkpt lat="36.8673210144043" lon="-5.17410707473755">
        <ele>581</ele>
        <time>2019-05-11T19:11:29Z</time>
      </trkpt>
      <trkpt lat="36.8672904968262" lon="-5.17411279678345">
        <ele>581</ele>
        <time>2019-05-11T19:11:31Z</time>
      </trkpt>
      <trkpt lat="36.8672637939453" lon="-5.17411518096924">
        <ele>581</ele>
        <time>2019-05-11T19:11:33Z</time>
      </trkpt>
      <trkpt lat="36.8672370910644" lon="-5.17411708831787">
        <ele>581</ele>
        <time>2019-05-11T19:11:35Z</time>
      </trkpt>
      <trkpt lat="36.8672142028809" lon="-5.17412281036377">
        <ele>581</ele>
        <time>2019-05-11T19:11:37Z</time>
      </trkpt>
      <trkpt lat="36.8671913146973" lon="-5.17412805557251">
        <ele>581</ele>
        <time>2019-05-11T19:11:39Z</time>
      </trkpt>
      <trkpt lat="36.8671646118164" lon="-5.17413282394409">
        <ele>581</ele>
        <time>2019-05-11T19:11:41Z</time>
      </trkpt>
      <trkpt lat="36.8671379089356" lon="-5.17413997650146">
        <ele>581</ele>
        <time>2019-05-11T19:11:43Z</time>
      </trkpt>
      <trkpt lat="36.867115020752" lon="-5.1741452217102">
        <ele>581</ele>
        <time>2019-05-11T19:11:45Z</time>
      </trkpt>
      <trkpt lat="36.8670883178711" lon="-5.17415189743042">
        <ele>581</ele>
        <time>2019-05-11T19:11:47Z</time>
      </trkpt>
      <trkpt lat="36.8670463562012" lon="-5.17416000366211">
        <ele>581</ele>
        <time>2019-05-11T19:11:49Z</time>
      </trkpt>
      <trkpt lat="36.8670272827148" lon="-5.17416286468506">
        <ele>581</ele>
        <time>2019-05-11T19:11:51Z</time>
      </trkpt>
      <trkpt lat="36.8670234680176" lon="-5.17416000366211">
        <ele>581</ele>
        <time>2019-05-11T19:11:53Z</time>
      </trkpt>
      <trkpt lat="36.867015838623" lon="-5.17415809631348">
        <ele>581</ele>
        <time>2019-05-11T19:11:56Z</time>
      </trkpt>
      <trkpt lat="36.8669967651367" lon="-5.17416477203369">
        <ele>581</ele>
        <time>2019-05-11T19:11:58Z</time>
      </trkpt>
      <trkpt lat="36.8669738769531" lon="-5.17417001724243">
        <ele>581</ele>
        <time>2019-05-11T19:12:00Z</time>
      </trkpt>
      <trkpt lat="36.8669509887695" lon="-5.17417478561401">
        <ele>581</ele>
        <time>2019-05-11T19:12:02Z</time>
      </trkpt>
      <trkpt lat="36.8669281005859" lon="-5.17418193817139">
        <ele>581</ele>
        <time>2019-05-11T19:12:04Z</time>
      </trkpt>
      <trkpt lat="36.8669013977051" lon="-5.17418813705444">
        <ele>581</ele>
        <time>2019-05-11T19:12:06Z</time>
      </trkpt>
      <trkpt lat="36.8668746948242" lon="-5.17419481277466">
        <ele>581</ele>
        <time>2019-05-11T19:12:08Z</time>
      </trkpt>
      <trkpt lat="36.8668479919434" lon="-5.17420196533203">
        <ele>581</ele>
        <time>2019-05-11T19:12:10Z</time>
      </trkpt>
      <trkpt lat="36.8668212890625" lon="-5.17420816421509">
        <ele>581</ele>
        <time>2019-05-11T19:12:12Z</time>
      </trkpt>
      <trkpt lat="36.8667984008789" lon="-5.1742148399353">
        <ele>581</ele>
        <time>2019-05-11T19:12:14Z</time>
      </trkpt>
      <trkpt lat="36.8667678833008" lon="-5.17422294616699">
        <ele>581</ele>
        <time>2019-05-11T19:12:16Z</time>
      </trkpt>
      <trkpt lat="36.8667411804199" lon="-5.174232006073">
        <ele>581</ele>
        <time>2019-05-11T19:12:18Z</time>
      </trkpt>
      <trkpt lat="36.8667144775391" lon="-5.17424201965332">
        <ele>581</ele>
        <time>2019-05-11T19:12:20Z</time>
      </trkpt>
      <trkpt lat="36.8666877746582" lon="-5.17424821853638">
        <ele>581</ele>
        <time>2019-05-11T19:12:22Z</time>
      </trkpt>
      <trkpt lat="36.8666496276856" lon="-5.1742582321167">
        <ele>581</ele>
        <time>2019-05-11T19:12:24Z</time>
      </trkpt>
      <trkpt lat="36.8666229248047" lon="-5.17426490783691">
        <ele>581</ele>
        <time>2019-05-11T19:12:26Z</time>
      </trkpt>
      <trkpt lat="36.8665962219238" lon="-5.1742730140686">
        <ele>581</ele>
        <time>2019-05-11T19:12:28Z</time>
      </trkpt>
      <trkpt lat="36.866569519043" lon="-5.17428207397461">
        <ele>581</ele>
        <time>2019-05-11T19:12:30Z</time>
      </trkpt>
      <trkpt lat="36.8665428161621" lon="-5.1742901802063">
        <ele>581</ele>
        <time>2019-05-11T19:12:33Z</time>
      </trkpt>
      <trkpt lat="36.8665161132812" lon="-5.17429685592651">
        <ele>581</ele>
        <time>2019-05-11T19:12:35Z</time>
      </trkpt>
      <trkpt lat="36.8664932250977" lon="-5.1743049621582">
        <ele>581</ele>
        <time>2019-05-11T19:12:37Z</time>
      </trkpt>
      <trkpt lat="36.8664665222168" lon="-5.17431306838989">
        <ele>581</ele>
        <time>2019-05-11T19:12:39Z</time>
      </trkpt>
      <trkpt lat="36.8664436340332" lon="-5.17432022094727">
        <ele>581</ele>
        <time>2019-05-11T19:12:41Z</time>
      </trkpt>
      <trkpt lat="36.8664131164551" lon="-5.1743278503418">
        <ele>581</ele>
        <time>2019-05-11T19:12:43Z</time>
      </trkpt>
      <trkpt lat="36.8663864135742" lon="-5.17433977127075">
        <ele>581</ele>
        <time>2019-05-11T19:12:45Z</time>
      </trkpt>
      <trkpt lat="36.8663635253906" lon="-5.17434978485107">
        <ele>581</ele>
        <time>2019-05-11T19:12:47Z</time>
      </trkpt>
      <trkpt lat="36.8663368225098" lon="-5.17436218261719">
        <ele>581</ele>
        <time>2019-05-11T19:12:49Z</time>
      </trkpt>
      <trkpt lat="36.8663063049316" lon="-5.17437505722046">
        <ele>581</ele>
        <time>2019-05-11T19:12:51Z</time>
      </trkpt>
      <trkpt lat="36.866283416748" lon="-5.17438507080078">
        <ele>581</ele>
        <time>2019-05-11T19:12:53Z</time>
      </trkpt>
      <trkpt lat="36.8662567138672" lon="-5.17439317703247">
        <ele>581</ele>
        <time>2019-05-11T19:12:55Z</time>
      </trkpt>
      <trkpt lat="36.8662300109863" lon="-5.17440509796143">
        <ele>581</ele>
        <time>2019-05-11T19:12:57Z</time>
      </trkpt>
      <trkpt lat="36.8661880493164" lon="-5.17441701889038">
        <ele>581</ele>
        <time>2019-05-11T19:12:59Z</time>
      </trkpt>
      <trkpt lat="36.8661613464356" lon="-5.17442512512207">
        <ele>581</ele>
        <time>2019-05-11T19:13:01Z</time>
      </trkpt>
      <trkpt lat="36.866138458252" lon="-5.17443180084228">
        <ele>581</ele>
        <time>2019-05-11T19:13:03Z</time>
      </trkpt>
      <trkpt lat="36.8661155700684" lon="-5.17443323135376">
        <ele>581</ele>
        <time>2019-05-11T19:13:05Z</time>
      </trkpt>
      <trkpt lat="36.8660926818848" lon="-5.17443990707397">
        <ele>581</ele>
        <time>2019-05-11T19:13:07Z</time>
      </trkpt>
      <trkpt lat="36.8660697937012" lon="-5.17445182800293">
        <ele>581</ele>
        <time>2019-05-11T19:13:10Z</time>
      </trkpt>
      <trkpt lat="36.866039276123" lon="-5.17446184158325">
        <ele>581</ele>
        <time>2019-05-11T19:13:12Z</time>
      </trkpt>
      <trkpt lat="36.8660087585449" lon="-5.17446994781494">
        <ele>581</ele>
        <time>2019-05-11T19:13:14Z</time>
      </trkpt>
      <trkpt lat="36.8659820556641" lon="-5.17447805404663">
        <ele>581</ele>
        <time>2019-05-11T19:13:16Z</time>
      </trkpt>
      <trkpt lat="36.8659591674805" lon="-5.17448282241821">
        <ele>581</ele>
        <time>2019-05-11T19:13:18Z</time>
      </trkpt>
      <trkpt lat="36.8659362792969" lon="-5.17448997497559">
        <ele>581</ele>
        <time>2019-05-11T19:13:20Z</time>
      </trkpt>
      <trkpt lat="36.8659172058106" lon="-5.17449808120728">
        <ele>581</ele>
        <time>2019-05-11T19:13:22Z</time>
      </trkpt>
      <trkpt lat="36.865894317627" lon="-5.1745080947876">
        <ele>581</ele>
        <time>2019-05-11T19:13:24Z</time>
      </trkpt>
      <trkpt lat="36.8658714294434" lon="-5.17451810836792">
        <ele>581</ele>
        <time>2019-05-11T19:13:26Z</time>
      </trkpt>
      <trkpt lat="36.8658485412598" lon="-5.17452812194824">
        <ele>581</ele>
        <time>2019-05-11T19:13:28Z</time>
      </trkpt>
      <trkpt lat="36.8658256530762" lon="-5.17453813552856">
        <ele>581</ele>
        <time>2019-05-11T19:13:30Z</time>
      </trkpt>
      <trkpt lat="36.8658065795898" lon="-5.17454814910889">
        <ele>581</ele>
        <time>2019-05-11T19:13:32Z</time>
      </trkpt>
      <trkpt lat="36.8657836914062" lon="-5.17455720901489">
        <ele>581</ele>
        <time>2019-05-11T19:13:34Z</time>
      </trkpt>
      <trkpt lat="36.8657493591309" lon="-5.17456007003784">
        <ele>581</ele>
        <time>2019-05-11T19:13:36Z</time>
      </trkpt>
      <trkpt lat="36.8657341003418" lon="-5.17456293106079">
        <ele>581</ele>
        <time>2019-05-11T19:13:38Z</time>
      </trkpt>
      <trkpt lat="36.8657112121582" lon="-5.17456817626953">
        <ele>581</ele>
        <time>2019-05-11T19:13:40Z</time>
      </trkpt>
      <trkpt lat="36.8656921386719" lon="-5.17457723617554">
        <ele>581</ele>
        <time>2019-05-11T19:13:42Z</time>
      </trkpt>
      <trkpt lat="36.8656730651856" lon="-5.17458200454712">
        <ele>581</ele>
        <time>2019-05-11T19:13:45Z</time>
      </trkpt>
      <trkpt lat="36.8656539916992" lon="-5.17459201812744">
        <ele>581</ele>
        <time>2019-05-11T19:13:47Z</time>
      </trkpt>
      <trkpt lat="36.8656311035156" lon="-5.17460489273071">
        <ele>581</ele>
        <time>2019-05-11T19:13:49Z</time>
      </trkpt>
      <trkpt lat="36.865608215332" lon="-5.17461204528809">
        <ele>581</ele>
        <time>2019-05-11T19:13:51Z</time>
      </trkpt>
      <trkpt lat="36.8655891418457" lon="-5.17461776733398">
        <ele>581</ele>
        <time>2019-05-11T19:13:53Z</time>
      </trkpt>
      <trkpt lat="36.8655662536621" lon="-5.17462682723999">
        <ele>581</ele>
        <time>2019-05-11T19:13:55Z</time>
      </trkpt>
      <trkpt lat="36.8655433654785" lon="-5.17463684082031">
        <ele>581</ele>
        <time>2019-05-11T19:13:57Z</time>
      </trkpt>
      <trkpt lat="36.8655166625977" lon="-5.17463684082031">
        <ele>581</ele>
        <time>2019-05-11T19:13:59Z</time>
      </trkpt>
      <trkpt lat="36.8654975891113" lon="-5.17464303970337">
        <ele>581</ele>
        <time>2019-05-11T19:14:01Z</time>
      </trkpt>
      <trkpt lat="36.865478515625" lon="-5.17465305328369">
        <ele>581</ele>
        <time>2019-05-11T19:14:03Z</time>
      </trkpt>
      <trkpt lat="36.8654518127441" lon="-5.17466306686401">
        <ele>581</ele>
        <time>2019-05-11T19:14:05Z</time>
      </trkpt>
      <trkpt lat="36.8654251098633" lon="-5.17467212677002">
        <ele>581</ele>
        <time>2019-05-11T19:14:07Z</time>
      </trkpt>
      <trkpt lat="36.865406036377" lon="-5.17468023300171">
        <ele>581</ele>
        <time>2019-05-11T19:14:09Z</time>
      </trkpt>
      <trkpt lat="36.8653831481934" lon="-5.17468786239624">
        <ele>581</ele>
        <time>2019-05-11T19:14:11Z</time>
      </trkpt>
      <trkpt lat="36.865348815918" lon="-5.1747031211853">
        <ele>581</ele>
        <time>2019-05-11T19:14:13Z</time>
      </trkpt>
      <trkpt lat="36.8653221130371" lon="-5.17471313476562">
        <ele>581</ele>
        <time>2019-05-11T19:14:15Z</time>
      </trkpt>
      <trkpt lat="36.8652992248535" lon="-5.17471694946289">
        <ele>581</ele>
        <time>2019-05-11T19:14:17Z</time>
      </trkpt>
      <trkpt lat="36.8652801513672" lon="-5.17472314834595">
        <ele>581</ele>
        <time>2019-05-11T19:14:20Z</time>
      </trkpt>
      <trkpt lat="36.8652610778809" lon="-5.17472505569458">
        <ele>581</ele>
        <time>2019-05-11T19:14:22Z</time>
      </trkpt>
      <trkpt lat="36.8652420043945" lon="-5.17473697662354">
        <ele>581</ele>
        <time>2019-05-11T19:14:24Z</time>
      </trkpt>
      <trkpt lat="36.8652191162109" lon="-5.17474317550659">
        <ele>581</ele>
        <time>2019-05-11T19:14:26Z</time>
      </trkpt>
      <trkpt lat="36.8651962280273" lon="-5.1747522354126">
        <ele>581</ele>
        <time>2019-05-11T19:14:28Z</time>
      </trkpt>
      <trkpt lat="36.8651695251465" lon="-5.17475986480713">
        <ele>581</ele>
        <time>2019-05-11T19:14:30Z</time>
      </trkpt>
      <trkpt lat="36.8651466369629" lon="-5.17476987838745">
        <ele>581</ele>
        <time>2019-05-11T19:14:32Z</time>
      </trkpt>
      <trkpt lat="36.8651161193848" lon="-5.17477989196777">
        <ele>581</ele>
        <time>2019-05-11T19:14:34Z</time>
      </trkpt>
      <trkpt lat="36.8650932312012" lon="-5.17478799819946">
        <ele>581</ele>
        <time>2019-05-11T19:14:36Z</time>
      </trkpt>
      <trkpt lat="36.8650703430176" lon="-5.17479801177978">
        <ele>581</ele>
        <time>2019-05-11T19:14:38Z</time>
      </trkpt>
      <trkpt lat="36.8650436401367" lon="-5.17480802536011">
        <ele>581</ele>
        <time>2019-05-11T19:14:40Z</time>
      </trkpt>
      <trkpt lat="36.8650207519531" lon="-5.17481708526611">
        <ele>581</ele>
        <time>2019-05-11T19:14:42Z</time>
      </trkpt>
      <trkpt lat="36.8650016784668" lon="-5.17482805252075">
        <ele>581</ele>
        <time>2019-05-11T19:14:44Z</time>
      </trkpt>
      <trkpt lat="36.8649787902832" lon="-5.17483806610107">
        <ele>581</ele>
        <time>2019-05-11T19:14:46Z</time>
      </trkpt>
      <trkpt lat="36.8649559020996" lon="-5.17484712600708">
        <ele>581</ele>
        <time>2019-05-11T19:14:48Z</time>
      </trkpt>
      <trkpt lat="36.8649215698242" lon="-5.1748571395874">
        <ele>581</ele>
        <time>2019-05-11T19:14:50Z</time>
      </trkpt>
      <trkpt lat="36.8648986816406" lon="-5.17486000061035">
        <ele>582</ele>
        <time>2019-05-11T19:14:52Z</time>
      </trkpt>
      <trkpt lat="36.8648719787598" lon="-5.17486715316772">
        <ele>582</ele>
        <time>2019-05-11T19:14:54Z</time>
      </trkpt>
      <trkpt lat="36.8648490905762" lon="-5.17487287521362">
        <ele>582</ele>
        <time>2019-05-11T19:14:56Z</time>
      </trkpt>
      <trkpt lat="36.8648223876953" lon="-5.17488479614258">
        <ele>583</ele>
        <time>2019-05-11T19:14:59Z</time>
      </trkpt>
      <trkpt lat="36.8647994995117" lon="-5.17489290237427">
        <ele>583</ele>
        <time>2019-05-11T19:15:01Z</time>
      </trkpt>
      <trkpt lat="36.8647766113281" lon="-5.17490196228027">
        <ele>583</ele>
        <time>2019-05-11T19:15:03Z</time>
      </trkpt>
      <trkpt lat="36.8647537231445" lon="-5.17490720748901">
        <ele>583</ele>
        <time>2019-05-11T19:15:05Z</time>
      </trkpt>
      <trkpt lat="36.8647270202637" lon="-5.17491483688354">
        <ele>584</ele>
        <time>2019-05-11T19:15:07Z</time>
      </trkpt>
      <trkpt lat="36.8647003173828" lon="-5.17492723464966">
        <ele>584</ele>
        <time>2019-05-11T19:15:09Z</time>
      </trkpt>
      <trkpt lat="36.864673614502" lon="-5.17493677139282">
        <ele>584</ele>
        <time>2019-05-11T19:15:11Z</time>
      </trkpt>
      <trkpt lat="36.8646545410156" lon="-5.17494678497314">
        <ele>584</ele>
        <time>2019-05-11T19:15:13Z</time>
      </trkpt>
      <trkpt lat="36.864631652832" lon="-5.17495489120483">
        <ele>584</ele>
        <time>2019-05-11T19:15:15Z</time>
      </trkpt>
      <trkpt lat="36.8646087646484" lon="-5.17496299743652">
        <ele>584</ele>
        <time>2019-05-11T19:15:17Z</time>
      </trkpt>
      <trkpt lat="36.8645820617676" lon="-5.17496776580811">
        <ele>584</ele>
        <time>2019-05-11T19:15:19Z</time>
      </trkpt>
      <trkpt lat="36.8645553588867" lon="-5.17497777938843">
        <ele>584</ele>
        <time>2019-05-11T19:15:21Z</time>
      </trkpt>
      <trkpt lat="36.8645324707031" lon="-5.17498779296875">
        <ele>584</ele>
        <time>2019-05-11T19:15:23Z</time>
      </trkpt>
      <trkpt lat="36.8645133972168" lon="-5.17499685287476">
        <ele>584</ele>
        <time>2019-05-11T19:15:25Z</time>
      </trkpt>
      <trkpt lat="36.8644752502441" lon="-5.17500782012939">
        <ele>584</ele>
        <time>2019-05-11T19:15:27Z</time>
      </trkpt>
      <trkpt lat="36.8644485473633" lon="-5.1750168800354">
        <ele>584</ele>
        <time>2019-05-11T19:15:29Z</time>
      </trkpt>
      <trkpt lat="36.8644218444824" lon="-5.17502307891846">
        <ele>584</ele>
        <time>2019-05-11T19:15:31Z</time>
      </trkpt>
      <trkpt lat="36.8643989562988" lon="-5.17503499984741">
        <ele>584</ele>
        <time>2019-05-11T19:15:33Z</time>
      </trkpt>
      <trkpt lat="36.864372253418" lon="-5.1750431060791">
        <ele>584</ele>
        <time>2019-05-11T19:15:36Z</time>
      </trkpt>
      <trkpt lat="36.8643531799316" lon="-5.17505216598511">
        <ele>585</ele>
        <time>2019-05-11T19:15:38Z</time>
      </trkpt>
      <trkpt lat="36.8643264770508" lon="-5.17506313323975">
        <ele>585</ele>
        <time>2019-05-11T19:15:40Z</time>
      </trkpt>
      <trkpt lat="36.8643035888672" lon="-5.1750750541687">
        <ele>585</ele>
        <time>2019-05-11T19:15:42Z</time>
      </trkpt>
      <trkpt lat="36.8642768859863" lon="-5.17508316040039">
        <ele>585</ele>
        <time>2019-05-11T19:15:44Z</time>
      </trkpt>
      <trkpt lat="36.8642501831055" lon="-5.17508983612061">
        <ele>585</ele>
        <time>2019-05-11T19:15:46Z</time>
      </trkpt>
      <trkpt lat="36.8642272949219" lon="-5.17509508132935">
        <ele>585</ele>
        <time>2019-05-11T19:15:48Z</time>
      </trkpt>
      <trkpt lat="36.8642044067383" lon="-5.17509317398071">
        <ele>585</ele>
        <time>2019-05-11T19:15:50Z</time>
      </trkpt>
      <trkpt lat="36.8641777038574" lon="-5.17509317398071">
        <ele>585</ele>
        <time>2019-05-11T19:15:52Z</time>
      </trkpt>
      <trkpt lat="36.8641548156738" lon="-5.17508792877197">
        <ele>585</ele>
        <time>2019-05-11T19:15:54Z</time>
      </trkpt>
      <trkpt lat="36.8641319274902" lon="-5.17508697509766">
        <ele>585</ele>
        <time>2019-05-11T19:15:56Z</time>
      </trkpt>
      <trkpt lat="36.8641128540039" lon="-5.17508983612061">
        <ele>585</ele>
        <time>2019-05-11T19:15:58Z</time>
      </trkpt>
      <trkpt lat="36.8640937805176" lon="-5.1750979423523">
        <ele>585</ele>
        <time>2019-05-11T19:16:00Z</time>
      </trkpt>
      <trkpt lat="36.8640785217285" lon="-5.17511177062988">
        <ele>585</ele>
        <time>2019-05-11T19:16:02Z</time>
      </trkpt>
      <trkpt lat="36.8640594482422" lon="-5.17512798309326">
        <ele>585</ele>
        <time>2019-05-11T19:16:04Z</time>
      </trkpt>
      <trkpt lat="36.8640403747559" lon="-5.17514705657959">
        <ele>585</ele>
        <time>2019-05-11T19:16:06Z</time>
      </trkpt>
      <trkpt lat="36.8640251159668" lon="-5.1751651763916">
        <ele>585</ele>
        <time>2019-05-11T19:16:08Z</time>
      </trkpt>
      <trkpt lat="36.8640060424805" lon="-5.17520189285278">
        <ele>585</ele>
        <time>2019-05-11T19:16:10Z</time>
      </trkpt>
      <trkpt lat="36.8639984130859" lon="-5.17523002624512">
        <ele>585</ele>
        <time>2019-05-11T19:16:12Z</time>
      </trkpt>
      <trkpt lat="36.8639907836914" lon="-5.17526006698608">
        <ele>585</ele>
        <time>2019-05-11T19:16:14Z</time>
      </trkpt>
      <trkpt lat="36.8639831542969" lon="-5.17529296875">
        <ele>585</ele>
        <time>2019-05-11T19:16:16Z</time>
      </trkpt>
      <trkpt lat="36.8639793395996" lon="-5.17532300949097">
        <ele>585</ele>
        <time>2019-05-11T19:16:19Z</time>
      </trkpt>
      <trkpt lat="36.8639717102051" lon="-5.17535305023193">
        <ele>585</ele>
        <time>2019-05-11T19:16:21Z</time>
      </trkpt>
      <trkpt lat="36.8639678955078" lon="-5.17538213729858">
        <ele>585</ele>
        <time>2019-05-11T19:16:23Z</time>
      </trkpt>
      <trkpt lat="36.8639602661133" lon="-5.17540788650513">
        <ele>585</ele>
        <time>2019-05-11T19:16:25Z</time>
      </trkpt>
      <trkpt lat="36.863956451416" lon="-5.17543697357178">
        <ele>584</ele>
        <time>2019-05-11T19:16:27Z</time>
      </trkpt>
      <trkpt lat="36.8639488220215" lon="-5.17546510696411">
        <ele>584</ele>
        <time>2019-05-11T19:16:29Z</time>
      </trkpt>
      <trkpt lat="36.863941192627" lon="-5.17549514770508">
        <ele>583</ele>
        <time>2019-05-11T19:16:31Z</time>
      </trkpt>
      <trkpt lat="36.8639373779297" lon="-5.17552280426025">
        <ele>583</ele>
        <time>2019-05-11T19:16:33Z</time>
      </trkpt>
      <trkpt lat="36.8639297485352" lon="-5.1755428314209">
        <ele>583</ele>
        <time>2019-05-11T19:16:35Z</time>
      </trkpt>
      <trkpt lat="36.8639221191406" lon="-5.17555522918701">
        <ele>582</ele>
        <time>2019-05-11T19:16:37Z</time>
      </trkpt>
      <trkpt lat="36.8639144897461" lon="-5.17557716369629">
        <ele>582</ele>
        <time>2019-05-11T19:16:39Z</time>
      </trkpt>
      <trkpt lat="36.8639068603516" lon="-5.1756100654602">
        <ele>582</ele>
        <time>2019-05-11T19:16:41Z</time>
      </trkpt>
      <trkpt lat="36.8638916015625" lon="-5.1756420135498">
        <ele>581</ele>
        <time>2019-05-11T19:16:43Z</time>
      </trkpt>
      <trkpt lat="36.8638877868652" lon="-5.17566776275635">
        <ele>581</ele>
        <time>2019-05-11T19:16:45Z</time>
      </trkpt>
      <trkpt lat="36.8638763427734" lon="-5.17571210861206">
        <ele>581</ele>
        <time>2019-05-11T19:16:47Z</time>
      </trkpt>
      <trkpt lat="36.8638687133789" lon="-5.17573976516724">
        <ele>581</ele>
        <time>2019-05-11T19:16:49Z</time>
      </trkpt>
      <trkpt lat="36.8638534545898" lon="-5.17576503753662">
        <ele>581</ele>
        <time>2019-05-11T19:16:51Z</time>
      </trkpt>
      <trkpt lat="36.8638381958008" lon="-5.17578792572022">
        <ele>580</ele>
        <time>2019-05-11T19:16:53Z</time>
      </trkpt>
      <trkpt lat="36.8638191223144" lon="-5.17580986022949">
        <ele>580</ele>
        <time>2019-05-11T19:16:56Z</time>
      </trkpt>
      <trkpt lat="36.8638038635254" lon="-5.17583179473877">
        <ele>579</ele>
        <time>2019-05-11T19:16:58Z</time>
      </trkpt>
      <trkpt lat="36.8637847900391" lon="-5.17585182189941">
        <ele>579</ele>
        <time>2019-05-11T19:17:00Z</time>
      </trkpt>
      <trkpt lat="36.86376953125" lon="-5.17587184906006">
        <ele>579</ele>
        <time>2019-05-11T19:17:02Z</time>
      </trkpt>
      <trkpt lat="36.8637504577637" lon="-5.17588996887207">
        <ele>578</ele>
        <time>2019-05-11T19:17:04Z</time>
      </trkpt>
      <trkpt lat="36.8637313842773" lon="-5.17590808868408">
        <ele>578</ele>
        <time>2019-05-11T19:17:06Z</time>
      </trkpt>
      <trkpt lat="36.863712310791" lon="-5.17592716217041">
        <ele>578</ele>
        <time>2019-05-11T19:17:08Z</time>
      </trkpt>
      <trkpt lat="36.8636932373047" lon="-5.17594718933106">
        <ele>578</ele>
        <time>2019-05-11T19:17:10Z</time>
      </trkpt>
      <trkpt lat="36.8636741638184" lon="-5.17597007751465">
        <ele>578</ele>
        <time>2019-05-11T19:17:12Z</time>
      </trkpt>
      <trkpt lat="36.8636512756348" lon="-5.17598819732666">
        <ele>578</ele>
        <time>2019-05-11T19:17:14Z</time>
      </trkpt>
      <trkpt lat="36.8636322021484" lon="-5.17601203918457">
        <ele>577</ele>
        <time>2019-05-11T19:17:16Z</time>
      </trkpt>
      <trkpt lat="36.8636169433594" lon="-5.17604207992554">
        <ele>577</ele>
        <time>2019-05-11T19:17:18Z</time>
      </trkpt>
      <trkpt lat="36.8636093139648" lon="-5.17607307434082">
        <ele>577</ele>
        <time>2019-05-11T19:17:20Z</time>
      </trkpt>
      <trkpt lat="36.8636016845703" lon="-5.17610692977905">
        <ele>577</ele>
        <time>2019-05-11T19:17:22Z</time>
      </trkpt>
      <trkpt lat="36.8635940551758" lon="-5.1761269569397">
        <ele>577</ele>
        <time>2019-05-11T19:17:24Z</time>
      </trkpt>
      <trkpt lat="36.8635940551758" lon="-5.17613983154297">
        <ele>577</ele>
        <time>2019-05-11T19:17:26Z</time>
      </trkpt>
      <trkpt lat="36.8635864257812" lon="-5.17614316940308">
        <ele>577</ele>
        <time>2019-05-11T19:17:28Z</time>
      </trkpt>
      <trkpt lat="36.8635864257812" lon="-5.17614316940308">
        <ele>577</ele>
        <time>2019-05-11T19:17:30Z</time>
      </trkpt>
      <trkpt lat="36.8635864257812" lon="-5.17614793777466">
        <ele>577</ele>
        <time>2019-05-11T19:17:32Z</time>
      </trkpt>
      <trkpt lat="36.8635749816894" lon="-5.17615985870361">
        <ele>577</ele>
        <time>2019-05-11T19:17:35Z</time>
      </trkpt>
      <trkpt lat="36.8635673522949" lon="-5.17618322372436">
        <ele>577</ele>
        <time>2019-05-11T19:17:37Z</time>
      </trkpt>
      <trkpt lat="36.8635635375977" lon="-5.17621183395386">
        <ele>577</ele>
        <time>2019-05-11T19:17:39Z</time>
      </trkpt>
      <trkpt lat="36.8635635375977" lon="-5.17623805999756">
        <ele>577</ele>
        <time>2019-05-11T19:17:41Z</time>
      </trkpt>
      <trkpt lat="36.8635559082031" lon="-5.17626714706421">
        <ele>577</ele>
        <time>2019-05-11T19:17:43Z</time>
      </trkpt>
      <trkpt lat="36.8635444641113" lon="-5.1762900352478">
        <ele>577</ele>
        <time>2019-05-11T19:17:45Z</time>
      </trkpt>
      <trkpt lat="36.8635330200195" lon="-5.17631006240845">
        <ele>577</ele>
        <time>2019-05-11T19:17:47Z</time>
      </trkpt>
      <trkpt lat="36.8635177612305" lon="-5.17633199691772">
        <ele>577</ele>
        <time>2019-05-11T19:17:49Z</time>
      </trkpt>
      <trkpt lat="36.8635025024414" lon="-5.17635011672974">
        <ele>577</ele>
        <time>2019-05-11T19:17:51Z</time>
      </trkpt>
      <trkpt lat="36.8634872436523" lon="-5.17636823654175">
        <ele>577</ele>
        <time>2019-05-11T19:17:53Z</time>
      </trkpt>
      <trkpt lat="36.8634719848633" lon="-5.17638492584228">
        <ele>577</ele>
        <time>2019-05-11T19:17:55Z</time>
      </trkpt>
      <trkpt lat="36.8634567260742" lon="-5.17640209197998">
        <ele>577</ele>
        <time>2019-05-11T19:17:57Z</time>
      </trkpt>
      <trkpt lat="36.8634376525879" lon="-5.1764178276062">
        <ele>577</ele>
        <time>2019-05-11T19:17:59Z</time>
      </trkpt>
      <trkpt lat="36.8634223937988" lon="-5.17643308639526">
        <ele>576</ele>
        <time>2019-05-11T19:18:01Z</time>
      </trkpt>
      <trkpt lat="36.8633995056152" lon="-5.17645978927612">
        <ele>576</ele>
        <time>2019-05-11T19:18:03Z</time>
      </trkpt>
      <trkpt lat="36.8633918762207" lon="-5.17646789550781">
        <ele>575</ele>
        <time>2019-05-11T19:18:05Z</time>
      </trkpt>
      <trkpt lat="36.8633613586426" lon="-5.17649507522583">
        <ele>574</ele>
        <time>2019-05-11T19:18:07Z</time>
      </trkpt>
      <trkpt lat="36.8633460998535" lon="-5.17651176452637">
        <ele>574</ele>
        <time>2019-05-11T19:18:09Z</time>
      </trkpt>
      <trkpt lat="36.8633270263672" lon="-5.17652988433838">
        <ele>573</ele>
        <time>2019-05-11T19:18:11Z</time>
      </trkpt>
      <trkpt lat="36.8633079528809" lon="-5.17654991149902">
        <ele>573</ele>
        <time>2019-05-11T19:18:13Z</time>
      </trkpt>
      <trkpt lat="36.8632926940918" lon="-5.17656517028809">
        <ele>572</ele>
        <time>2019-05-11T19:18:15Z</time>
      </trkpt>
      <trkpt lat="36.8632774353027" lon="-5.17658519744873">
        <ele>572</ele>
        <time>2019-05-11T19:18:18Z</time>
      </trkpt>
      <trkpt lat="36.8632583618164" lon="-5.17660522460938">
        <ele>571</ele>
        <time>2019-05-11T19:18:20Z</time>
      </trkpt>
      <trkpt lat="36.8632392883301" lon="-5.17662477493286">
        <ele>571</ele>
        <time>2019-05-11T19:18:22Z</time>
      </trkpt>
      <trkpt lat="36.8632202148438" lon="-5.17664194107056">
        <ele>571</ele>
        <time>2019-05-11T19:18:24Z</time>
      </trkpt>
      <trkpt lat="36.8632011413574" lon="-5.1766619682312">
        <ele>571</ele>
        <time>2019-05-11T19:18:26Z</time>
      </trkpt>
      <trkpt lat="36.8631782531738" lon="-5.17668199539185">
        <ele>571</ele>
        <time>2019-05-11T19:18:28Z</time>
      </trkpt>
      <trkpt lat="36.8631591796875" lon="-5.17670011520386">
        <ele>571</ele>
        <time>2019-05-11T19:18:30Z</time>
      </trkpt>
      <trkpt lat="36.8631401062012" lon="-5.17671823501587">
        <ele>571</ele>
        <time>2019-05-11T19:18:32Z</time>
      </trkpt>
      <trkpt lat="36.8631248474121" lon="-5.17673683166504">
        <ele>571</ele>
        <time>2019-05-11T19:18:34Z</time>
      </trkpt>
      <trkpt lat="36.863109588623" lon="-5.17675685882568">
        <ele>571</ele>
        <time>2019-05-11T19:18:36Z</time>
      </trkpt>
      <trkpt lat="36.863094329834" lon="-5.17677688598633">
        <ele>570</ele>
        <time>2019-05-11T19:18:38Z</time>
      </trkpt>
      <trkpt lat="36.8630828857422" lon="-5.17679977416992">
        <ele>570</ele>
        <time>2019-05-11T19:18:40Z</time>
      </trkpt>
      <trkpt lat="36.8630676269531" lon="-5.17682218551636">
        <ele>569</ele>
        <time>2019-05-11T19:18:42Z</time>
      </trkpt>
      <trkpt lat="36.8630561828613" lon="-5.17686319351196">
        <ele>569</ele>
        <time>2019-05-11T19:18:44Z</time>
      </trkpt>
      <trkpt lat="36.8630485534668" lon="-5.17688322067261">
        <ele>568</ele>
        <time>2019-05-11T19:18:46Z</time>
      </trkpt>
      <trkpt lat="36.863037109375" lon="-5.17690801620483">
        <ele>567</ele>
        <time>2019-05-11T19:18:48Z</time>
      </trkpt>
      <trkpt lat="36.8630256652832" lon="-5.17693185806274">
        <ele>567</ele>
        <time>2019-05-11T19:18:50Z</time>
      </trkpt>
      <trkpt lat="36.8630180358887" lon="-5.17696189880371">
        <ele>567</ele>
        <time>2019-05-11T19:18:53Z</time>
      </trkpt>
      <trkpt lat="36.8630104064941" lon="-5.1769871711731">
        <ele>567</ele>
        <time>2019-05-11T19:18:55Z</time>
      </trkpt>
      <trkpt lat="36.8630065917969" lon="-5.17701482772827">
        <ele>567</ele>
        <time>2019-05-11T19:18:57Z</time>
      </trkpt>
      <trkpt lat="36.8630027770996" lon="-5.17704486846924">
        <ele>567</ele>
        <time>2019-05-11T19:18:59Z</time>
      </trkpt>
      <trkpt lat="36.8629951477051" lon="-5.17706823348999">
        <ele>567</ele>
        <time>2019-05-11T19:19:01Z</time>
      </trkpt>
      <trkpt lat="36.8629837036133" lon="-5.1770920753479">
        <ele>567</ele>
        <time>2019-05-11T19:19:03Z</time>
      </trkpt>
      <trkpt lat="36.8629760742188" lon="-5.17711782455444">
        <ele>567</ele>
        <time>2019-05-11T19:19:05Z</time>
      </trkpt>
      <trkpt lat="36.862964630127" lon="-5.17714500427246">
        <ele>567</ele>
        <time>2019-05-11T19:19:07Z</time>
      </trkpt>
      <trkpt lat="36.8629531860352" lon="-5.17717218399048">
        <ele>567</ele>
        <time>2019-05-11T19:19:09Z</time>
      </trkpt>
      <trkpt lat="36.8629455566406" lon="-5.17719984054565">
        <ele>567</ele>
        <time>2019-05-11T19:19:11Z</time>
      </trkpt>
      <trkpt lat="36.8629341125488" lon="-5.17722702026367">
        <ele>568</ele>
        <time>2019-05-11T19:19:13Z</time>
      </trkpt>
      <trkpt lat="36.862922668457" lon="-5.17725276947022">
        <ele>568</ele>
        <time>2019-05-11T19:19:15Z</time>
      </trkpt>
      <trkpt lat="36.8629112243652" lon="-5.17727994918823">
        <ele>568</ele>
        <time>2019-05-11T19:19:17Z</time>
      </trkpt>
      <trkpt lat="36.8629035949707" lon="-5.17730522155762">
        <ele>568</ele>
        <time>2019-05-11T19:19:19Z</time>
      </trkpt>
      <trkpt lat="36.8628921508789" lon="-5.17733192443848">
        <ele>569</ele>
        <time>2019-05-11T19:19:21Z</time>
      </trkpt>
      <trkpt lat="36.8628845214844" lon="-5.17736005783081">
        <ele>569</ele>
        <time>2019-05-11T19:19:23Z</time>
      </trkpt>
      <trkpt lat="36.8628730773926" lon="-5.17740488052368">
        <ele>569</ele>
        <time>2019-05-11T19:19:25Z</time>
      </trkpt>
      <trkpt lat="36.862865447998" lon="-5.17743492126465">
        <ele>569</ele>
        <time>2019-05-11T19:19:27Z</time>
      </trkpt>
      <trkpt lat="36.8628616333008" lon="-5.17746019363403">
        <ele>569</ele>
        <time>2019-05-11T19:19:29Z</time>
      </trkpt>
      <trkpt lat="36.8628616333008" lon="-5.17748689651489">
        <ele>569</ele>
        <time>2019-05-11T19:19:32Z</time>
      </trkpt>
      <trkpt lat="36.8628616333008" lon="-5.17751693725586">
        <ele>569</ele>
        <time>2019-05-11T19:19:34Z</time>
      </trkpt>
      <trkpt lat="36.8628692626953" lon="-5.17754316329956">
        <ele>569</ele>
        <time>2019-05-11T19:19:36Z</time>
      </trkpt>
      <trkpt lat="36.8628730773926" lon="-5.17756986618042">
        <ele>569</ele>
        <time>2019-05-11T19:19:38Z</time>
      </trkpt>
      <trkpt lat="36.8628730773926" lon="-5.17760515213013">
        <ele>569</ele>
        <time>2019-05-11T19:19:40Z</time>
      </trkpt>
      <trkpt lat="36.8628768920898" lon="-5.17763710021973">
        <ele>569</ele>
        <time>2019-05-11T19:19:42Z</time>
      </trkpt>
      <trkpt lat="36.8628807067871" lon="-5.17766809463501">
        <ele>569</ele>
        <time>2019-05-11T19:19:44Z</time>
      </trkpt>
      <trkpt lat="36.8628807067871" lon="-5.17770290374756">
        <ele>569</ele>
        <time>2019-05-11T19:19:46Z</time>
      </trkpt>
      <trkpt lat="36.8628883361816" lon="-5.17773294448853">
        <ele>569</ele>
        <time>2019-05-11T19:19:48Z</time>
      </trkpt>
      <trkpt lat="36.8628883361816" lon="-5.17776489257812">
        <ele>569</ele>
        <time>2019-05-11T19:19:50Z</time>
      </trkpt>
      <trkpt lat="36.8628921508789" lon="-5.17779684066772">
        <ele>569</ele>
        <time>2019-05-11T19:19:52Z</time>
      </trkpt>
      <trkpt lat="36.8628921508789" lon="-5.17782688140869">
        <ele>569</ele>
        <time>2019-05-11T19:19:54Z</time>
      </trkpt>
      <trkpt lat="36.8628959655762" lon="-5.17785787582397">
        <ele>570</ele>
        <time>2019-05-11T19:19:56Z</time>
      </trkpt>
      <trkpt lat="36.8628959655762" lon="-5.17788791656494">
        <ele>570</ele>
        <time>2019-05-11T19:19:58Z</time>
      </trkpt>
      <trkpt lat="36.8628959655762" lon="-5.17793798446655">
        <ele>570</ele>
        <time>2019-05-11T19:20:00Z</time>
      </trkpt>
      <trkpt lat="36.8628921508789" lon="-5.17795276641846">
        <ele>570</ele>
        <time>2019-05-11T19:20:02Z</time>
      </trkpt>
      <trkpt lat="36.8628921508789" lon="-5.17799997329712">
        <ele>570</ele>
        <time>2019-05-11T19:20:04Z</time>
      </trkpt>
      <trkpt lat="36.8628883361816" lon="-5.17803192138672">
        <ele>570</ele>
        <time>2019-05-11T19:20:06Z</time>
      </trkpt>
      <trkpt lat="36.8628883361816" lon="-5.178062915802">
        <ele>570</ele>
        <time>2019-05-11T19:20:08Z</time>
      </trkpt>
      <trkpt lat="36.8628883361816" lon="-5.17808818817139">
        <ele>570</ele>
        <time>2019-05-11T19:20:10Z</time>
      </trkpt>
      <trkpt lat="36.8628883361816" lon="-5.17812013626099">
        <ele>570</ele>
        <time>2019-05-11T19:20:13Z</time>
      </trkpt>
      <trkpt lat="36.8628845214844" lon="-5.17814779281616">
        <ele>570</ele>
        <time>2019-05-11T19:20:15Z</time>
      </trkpt>
      <trkpt lat="36.8628845214844" lon="-5.17817783355713">
        <ele>570</ele>
        <time>2019-05-11T19:20:17Z</time>
      </trkpt>
      <trkpt lat="36.8628807067871" lon="-5.17820978164673">
        <ele>570</ele>
        <time>2019-05-11T19:20:19Z</time>
      </trkpt>
      <trkpt lat="36.8628807067871" lon="-5.17824220657349">
        <ele>570</ele>
        <time>2019-05-11T19:20:21Z</time>
      </trkpt>
      <trkpt lat="36.8628768920898" lon="-5.17826986312866">
        <ele>571</ele>
        <time>2019-05-11T19:20:23Z</time>
      </trkpt>
      <trkpt lat="36.8628730773926" lon="-5.17829704284668">
        <ele>571</ele>
        <time>2019-05-11T19:20:25Z</time>
      </trkpt>
      <trkpt lat="36.8628692626953" lon="-5.17832708358765">
        <ele>571</ele>
        <time>2019-05-11T19:20:27Z</time>
      </trkpt>
      <trkpt lat="36.8628692626953" lon="-5.17835712432861">
        <ele>571</ele>
        <time>2019-05-11T19:20:29Z</time>
      </trkpt>
      <trkpt lat="36.8628692626953" lon="-5.17838191986084">
        <ele>571</ele>
        <time>2019-05-11T19:20:31Z</time>
      </trkpt>
      <trkpt lat="36.8628692626953" lon="-5.17840194702148">
        <ele>571</ele>
        <time>2019-05-11T19:20:33Z</time>
      </trkpt>
      <trkpt lat="36.8628730773926" lon="-5.17842817306519">
        <ele>571</ele>
        <time>2019-05-11T19:20:35Z</time>
      </trkpt>
      <trkpt lat="36.8628768920898" lon="-5.17844820022583">
        <ele>572</ele>
        <time>2019-05-11T19:20:37Z</time>
      </trkpt>
      <trkpt lat="36.8628845214844" lon="-5.17847013473511">
        <ele>572</ele>
        <time>2019-05-11T19:20:39Z</time>
      </trkpt>
      <trkpt lat="36.8628959655762" lon="-5.17849206924438">
        <ele>572</ele>
        <time>2019-05-11T19:20:41Z</time>
      </trkpt>
      <trkpt lat="36.8629112243652" lon="-5.1785101890564">
        <ele>572</ele>
        <time>2019-05-11T19:20:43Z</time>
      </trkpt>
      <trkpt lat="36.862922668457" lon="-5.17853021621704">
        <ele>572</ele>
        <time>2019-05-11T19:20:45Z</time>
      </trkpt>
      <trkpt lat="36.8629379272461" lon="-5.17854785919189">
        <ele>572</ele>
        <time>2019-05-11T19:20:47Z</time>
      </trkpt>
      <trkpt lat="36.8629570007324" lon="-5.17858219146728">
        <ele>572</ele>
        <time>2019-05-11T19:20:49Z</time>
      </trkpt>
      <trkpt lat="36.862964630127" lon="-5.17860317230225">
        <ele>572</ele>
        <time>2019-05-11T19:20:51Z</time>
      </trkpt>
      <trkpt lat="36.8629760742188" lon="-5.1786150932312">
        <ele>572</ele>
        <time>2019-05-11T19:20:53Z</time>
      </trkpt>
      <trkpt lat="36.8629760742188" lon="-5.17862319946289">
        <ele>572</ele>
        <time>2019-05-11T19:20:55Z</time>
      </trkpt>
      <trkpt lat="36.862979888916" lon="-5.1786379814148">
        <ele>572</ele>
        <time>2019-05-11T19:20:58Z</time>
      </trkpt>
      <trkpt lat="36.8629837036133" lon="-5.1786527633667">
        <ele>572</ele>
        <time>2019-05-11T19:21:00Z</time>
      </trkpt>
      <trkpt lat="36.8629875183106" lon="-5.17866992950439">
        <ele>572</ele>
        <time>2019-05-11T19:21:02Z</time>
      </trkpt>
      <trkpt lat="36.8629913330078" lon="-5.17868804931641">
        <ele>572</ele>
        <time>2019-05-11T19:21:04Z</time>
      </trkpt>
      <trkpt lat="36.8629913330078" lon="-5.17870712280273">
        <ele>572</ele>
        <time>2019-05-11T19:21:06Z</time>
      </trkpt>
      <trkpt lat="36.8629913330078" lon="-5.17872476577759">
        <ele>572</ele>
        <time>2019-05-11T19:21:08Z</time>
      </trkpt>
      <trkpt lat="36.8629989624023" lon="-5.17874002456665">
        <ele>572</ele>
        <time>2019-05-11T19:21:10Z</time>
      </trkpt>
      <trkpt lat="36.8630065917969" lon="-5.17875814437866">
        <ele>572</ele>
        <time>2019-05-11T19:21:12Z</time>
      </trkpt>
      <trkpt lat="36.8630065917969" lon="-5.1787748336792">
        <ele>572</ele>
        <time>2019-05-11T19:21:14Z</time>
      </trkpt>
      <trkpt lat="36.8630142211914" lon="-5.17879295349121">
        <ele>572</ele>
        <time>2019-05-11T19:21:16Z</time>
      </trkpt>
      <trkpt lat="36.8630256652832" lon="-5.17881298065186">
        <ele>572</ele>
        <time>2019-05-11T19:21:18Z</time>
      </trkpt>
      <trkpt lat="36.8630409240723" lon="-5.17884016036987">
        <ele>572</ele>
        <time>2019-05-11T19:21:20Z</time>
      </trkpt>
      <trkpt lat="36.8630485534668" lon="-5.17886209487915">
        <ele>572</ele>
        <time>2019-05-11T19:21:22Z</time>
      </trkpt>
      <trkpt lat="36.8630676269531" lon="-5.17887783050537">
        <ele>572</ele>
        <time>2019-05-11T19:21:24Z</time>
      </trkpt>
      <trkpt lat="36.8630828857422" lon="-5.17887783050537">
        <ele>572</ele>
        <time>2019-05-11T19:21:26Z</time>
      </trkpt>
      <trkpt lat="36.863094329834" lon="-5.1788821220398">
        <ele>572</ele>
        <time>2019-05-11T19:21:28Z</time>
      </trkpt>
      <trkpt lat="36.863109588623" lon="-5.17888689041138">
        <ele>572</ele>
        <time>2019-05-11T19:21:30Z</time>
      </trkpt>
      <trkpt lat="36.8631286621094" lon="-5.17888498306274">
        <ele>572</ele>
        <time>2019-05-11T19:21:32Z</time>
      </trkpt>
      <trkpt lat="36.8631401062012" lon="-5.17888021469116">
        <ele>572</ele>
        <time>2019-05-11T19:21:35Z</time>
      </trkpt>
      <trkpt lat="36.8631553649902" lon="-5.17888021469116">
        <ele>572</ele>
        <time>2019-05-11T19:21:37Z</time>
      </trkpt>
      <trkpt lat="36.8631744384766" lon="-5.1788821220398">
        <ele>572</ele>
        <time>2019-05-11T19:21:39Z</time>
      </trkpt>
      <trkpt lat="36.8631896972656" lon="-5.17888021469116">
        <ele>572</ele>
        <time>2019-05-11T19:21:41Z</time>
      </trkpt>
      <trkpt lat="36.8632011413574" lon="-5.17887496948242">
        <ele>572</ele>
        <time>2019-05-11T19:21:43Z</time>
      </trkpt>
      <trkpt lat="36.8632164001465" lon="-5.17887306213379">
        <ele>572</ele>
        <time>2019-05-11T19:21:45Z</time>
      </trkpt>
      <trkpt lat="36.8632316589356" lon="-5.17887496948242">
        <ele>572</ele>
        <time>2019-05-11T19:21:47Z</time>
      </trkpt>
      <trkpt lat="36.8632469177246" lon="-5.17887306213379">
        <ele>572</ele>
        <time>2019-05-11T19:21:49Z</time>
      </trkpt>
      <trkpt lat="36.8632621765137" lon="-5.17887687683106">
        <ele>572</ele>
        <time>2019-05-11T19:21:51Z</time>
      </trkpt>
      <trkpt lat="36.8632774353027" lon="-5.17888021469116">
        <ele>572</ele>
        <time>2019-05-11T19:21:53Z</time>
      </trkpt>
      <trkpt lat="36.8632888793945" lon="-5.17888307571411">
        <ele>572</ele>
        <time>2019-05-11T19:21:55Z</time>
      </trkpt>
      <trkpt lat="36.8633079528809" lon="-5.17888784408569">
        <ele>572</ele>
        <time>2019-05-11T19:21:57Z</time>
      </trkpt>
      <trkpt lat="36.8633193969727" lon="-5.17889785766602">
        <ele>572</ele>
        <time>2019-05-11T19:21:59Z</time>
      </trkpt>
      <trkpt lat="36.8633460998535" lon="-5.17890787124634">
        <ele>572</ele>
        <time>2019-05-11T19:22:01Z</time>
      </trkpt>
      <trkpt lat="36.8633613586426" lon="-5.17891502380371">
        <ele>572</ele>
        <time>2019-05-11T19:22:03Z</time>
      </trkpt>
      <trkpt lat="36.8633766174316" lon="-5.17892217636108">
        <ele>572</ele>
        <time>2019-05-11T19:22:05Z</time>
      </trkpt>
      <trkpt lat="36.8633918762207" lon="-5.1789231300354">
        <ele>572</ele>
        <time>2019-05-11T19:22:07Z</time>
      </trkpt>
      <trkpt lat="36.863410949707" lon="-5.17892694473267">
        <ele>572</ele>
        <time>2019-05-11T19:22:09Z</time>
      </trkpt>
      <trkpt lat="36.8634262084961" lon="-5.17892980575562">
        <ele>572</ele>
        <time>2019-05-11T19:22:12Z</time>
      </trkpt>
      <trkpt lat="36.8634452819824" lon="-5.17893505096436">
        <ele>572</ele>
        <time>2019-05-11T19:22:14Z</time>
      </trkpt>
      <trkpt lat="36.8634643554688" lon="-5.17894220352173">
        <ele>572</ele>
        <time>2019-05-11T19:22:16Z</time>
      </trkpt>
      <trkpt lat="36.8634834289551" lon="-5.17894506454468">
        <ele>572</ele>
        <time>2019-05-11T19:22:18Z</time>
      </trkpt>
      <trkpt lat="36.8635025024414" lon="-5.17895317077637">
        <ele>572</ele>
        <time>2019-05-11T19:22:20Z</time>
      </trkpt>
      <trkpt lat="36.863525390625" lon="-5.17895793914795">
        <ele>571</ele>
        <time>2019-05-11T19:22:22Z</time>
      </trkpt>
      <trkpt lat="36.8635444641113" lon="-5.17896223068237">
        <ele>570</ele>
        <time>2019-05-11T19:22:24Z</time>
      </trkpt>
      <trkpt lat="36.8635635375977" lon="-5.17896699905396">
        <ele>569</ele>
        <time>2019-05-11T19:22:26Z</time>
      </trkpt>
      <trkpt lat="36.863582611084" lon="-5.17897796630859">
        <ele>569</ele>
        <time>2019-05-11T19:22:28Z</time>
      </trkpt>
      <trkpt lat="36.8636016845703" lon="-5.17898797988892">
        <ele>568</ele>
        <time>2019-05-11T19:22:30Z</time>
      </trkpt>
      <trkpt lat="36.8636207580566" lon="-5.1790018081665">
        <ele>567</ele>
        <time>2019-05-11T19:22:32Z</time>
      </trkpt>
      <trkpt lat="36.863639831543" lon="-5.17901277542114">
        <ele>567</ele>
        <time>2019-05-11T19:22:34Z</time>
      </trkpt>
      <trkpt lat="36.8636627197266" lon="-5.17902278900146">
        <ele>566</ele>
        <time>2019-05-11T19:22:36Z</time>
      </trkpt>
      <trkpt lat="36.863697052002" lon="-5.17902994155884">
        <ele>566</ele>
        <time>2019-05-11T19:22:38Z</time>
      </trkpt>
      <trkpt lat="36.8637161254883" lon="-5.17903709411621">
        <ele>565</ele>
        <time>2019-05-11T19:22:40Z</time>
      </trkpt>
      <trkpt lat="36.8637351989746" lon="-5.1790452003479">
        <ele>565</ele>
        <time>2019-05-11T19:22:42Z</time>
      </trkpt>
      <trkpt lat="36.8637580871582" lon="-5.17905187606812">
        <ele>565</ele>
        <time>2019-05-11T19:22:44Z</time>
      </trkpt>
      <trkpt lat="36.8637809753418" lon="-5.17905521392822">
        <ele>564</ele>
        <time>2019-05-11T19:22:46Z</time>
      </trkpt>
      <trkpt lat="36.8638038635254" lon="-5.17906188964844">
        <ele>564</ele>
        <time>2019-05-11T19:22:49Z</time>
      </trkpt>
      <trkpt lat="36.863826751709" lon="-5.17906713485718">
        <ele>564</ele>
        <time>2019-05-11T19:22:51Z</time>
      </trkpt>
      <trkpt lat="36.8638496398926" lon="-5.17907190322876">
        <ele>563</ele>
        <time>2019-05-11T19:22:53Z</time>
      </trkpt>
      <trkpt lat="36.8638725280762" lon="-5.17907810211182">
        <ele>563</ele>
        <time>2019-05-11T19:22:55Z</time>
      </trkpt>
      <trkpt lat="36.8638954162598" lon="-5.17908716201782">
        <ele>563</ele>
        <time>2019-05-11T19:22:57Z</time>
      </trkpt>
      <trkpt lat="36.8639183044434" lon="-5.17909479141235">
        <ele>563</ele>
        <time>2019-05-11T19:22:59Z</time>
      </trkpt>
      <trkpt lat="36.863941192627" lon="-5.17910289764404">
        <ele>562</ele>
        <time>2019-05-11T19:23:01Z</time>
      </trkpt>
      <trkpt lat="36.8639640808106" lon="-5.17911005020142">
        <ele>562</ele>
        <time>2019-05-11T19:23:03Z</time>
      </trkpt>
      <trkpt lat="36.8639869689941" lon="-5.17911720275879">
        <ele>562</ele>
        <time>2019-05-11T19:23:05Z</time>
      </trkpt>
      <trkpt lat="36.864013671875" lon="-5.17912292480469">
        <ele>561</ele>
        <time>2019-05-11T19:23:07Z</time>
      </trkpt>
      <trkpt lat="36.8640365600586" lon="-5.17913198471069">
        <ele>561</ele>
        <time>2019-05-11T19:23:09Z</time>
      </trkpt>
      <trkpt lat="36.8640594482422" lon="-5.17913818359375">
        <ele>561</ele>
        <time>2019-05-11T19:23:11Z</time>
      </trkpt>
      <trkpt lat="36.864086151123" lon="-5.17914485931396">
        <ele>561</ele>
        <time>2019-05-11T19:23:13Z</time>
      </trkpt>
      <trkpt lat="36.8641242980957" lon="-5.17915487289429">
        <ele>561</ele>
        <time>2019-05-11T19:23:15Z</time>
      </trkpt>
      <trkpt lat="36.8641471862793" lon="-5.17916488647461">
        <ele>561</ele>
        <time>2019-05-11T19:23:17Z</time>
      </trkpt>
      <trkpt lat="36.8641624450684" lon="-5.1791820526123">
        <ele>560</ele>
        <time>2019-05-11T19:23:19Z</time>
      </trkpt>
      <trkpt lat="36.8641777038574" lon="-5.17919301986694">
        <ele>560</ele>
        <time>2019-05-11T19:23:21Z</time>
      </trkpt>
      <trkpt lat="36.8641967773438" lon="-5.17920017242432">
        <ele>560</ele>
        <time>2019-05-11T19:23:24Z</time>
      </trkpt>
      <trkpt lat="36.8642158508301" lon="-5.17920684814453">
        <ele>559</ele>
        <time>2019-05-11T19:23:26Z</time>
      </trkpt>
      <trkpt lat="36.8642311096191" lon="-5.17921209335327">
        <ele>559</ele>
        <time>2019-05-11T19:23:28Z</time>
      </trkpt>
      <trkpt lat="36.8642539978027" lon="-5.17921781539917">
        <ele>559</ele>
        <time>2019-05-11T19:23:30Z</time>
      </trkpt>
      <trkpt lat="36.8642730712891" lon="-5.17922687530518">
        <ele>558</ele>
        <time>2019-05-11T19:23:32Z</time>
      </trkpt>
      <trkpt lat="36.8642921447754" lon="-5.17923212051392">
        <ele>558</ele>
        <time>2019-05-11T19:23:34Z</time>
      </trkpt>
      <trkpt lat="36.8643112182617" lon="-5.17923784255981">
        <ele>558</ele>
        <time>2019-05-11T19:23:36Z</time>
      </trkpt>
      <trkpt lat="36.864330291748" lon="-5.17924499511719">
        <ele>558</ele>
        <time>2019-05-11T19:23:38Z</time>
      </trkpt>
      <trkpt lat="36.8643531799316" lon="-5.17925214767456">
        <ele>557</ele>
        <time>2019-05-11T19:23:40Z</time>
      </trkpt>
      <trkpt lat="36.864372253418" lon="-5.17925691604614">
        <ele>557</ele>
        <time>2019-05-11T19:23:42Z</time>
      </trkpt>
      <trkpt lat="36.8643951416016" lon="-5.17925977706909">
        <ele>557</ele>
        <time>2019-05-11T19:23:44Z</time>
      </trkpt>
      <trkpt lat="36.8644180297852" lon="-5.1792631149292">
        <ele>556</ele>
        <time>2019-05-11T19:23:46Z</time>
      </trkpt>
      <trkpt lat="36.8644371032715" lon="-5.17926979064941">
        <ele>556</ele>
        <time>2019-05-11T19:23:48Z</time>
      </trkpt>
      <trkpt lat="36.8644676208496" lon="-5.1792778968811">
        <ele>555</ele>
        <time>2019-05-11T19:23:50Z</time>
      </trkpt>
      <trkpt lat="36.8644866943359" lon="-5.17928218841553">
        <ele>555</ele>
        <time>2019-05-11T19:23:52Z</time>
      </trkpt>
      <trkpt lat="36.8645095825195" lon="-5.17928791046143">
        <ele>555</ele>
        <time>2019-05-11T19:23:54Z</time>
      </trkpt>
      <trkpt lat="36.8645286560059" lon="-5.17929315567017">
        <ele>554</ele>
        <time>2019-05-11T19:23:56Z</time>
      </trkpt>
      <trkpt lat="36.8645515441894" lon="-5.17929792404175">
        <ele>554</ele>
        <time>2019-05-11T19:23:59Z</time>
      </trkpt>
      <trkpt lat="36.8645706176758" lon="-5.17930316925049">
        <ele>554</ele>
        <time>2019-05-11T19:24:01Z</time>
      </trkpt>
      <trkpt lat="36.8645935058594" lon="-5.17930793762207">
        <ele>553</ele>
        <time>2019-05-11T19:24:03Z</time>
      </trkpt>
      <trkpt lat="36.8646125793457" lon="-5.17931318283081">
        <ele>553</ele>
        <time>2019-05-11T19:24:05Z</time>
      </trkpt>
      <trkpt lat="36.864631652832" lon="-5.17932319641113">
        <ele>553</ele>
        <time>2019-05-11T19:24:07Z</time>
      </trkpt>
      <trkpt lat="36.8646507263184" lon="-5.17933177947998">
        <ele>552</ele>
        <time>2019-05-11T19:24:09Z</time>
      </trkpt>
      <trkpt lat="36.864673614502" lon="-5.17933702468872">
        <ele>552</ele>
        <time>2019-05-11T19:24:11Z</time>
      </trkpt>
      <trkpt lat="36.8646926879883" lon="-5.1793417930603">
        <ele>552</ele>
        <time>2019-05-11T19:24:13Z</time>
      </trkpt>
      <trkpt lat="36.8647155761719" lon="-5.17934703826904">
        <ele>551</ele>
        <time>2019-05-11T19:24:15Z</time>
      </trkpt>
      <trkpt lat="36.8647384643555" lon="-5.1793532371521">
        <ele>551</ele>
        <time>2019-05-11T19:24:17Z</time>
      </trkpt>
      <trkpt lat="36.8647537231445" lon="-5.17935800552368">
        <ele>551</ele>
        <time>2019-05-11T19:24:19Z</time>
      </trkpt>
      <trkpt lat="36.8647766113281" lon="-5.17936706542969">
        <ele>550</ele>
        <time>2019-05-11T19:24:21Z</time>
      </trkpt>
      <trkpt lat="36.8647956848144" lon="-5.17937517166138">
        <ele>550</ele>
        <time>2019-05-11T19:24:23Z</time>
      </trkpt>
      <trkpt lat="36.8648262023926" lon="-5.17938804626465">
        <ele>550</ele>
        <time>2019-05-11T19:24:25Z</time>
      </trkpt>
      <trkpt lat="36.8648452758789" lon="-5.17939710617065">
        <ele>549</ele>
        <time>2019-05-11T19:24:27Z</time>
      </trkpt>
      <trkpt lat="36.8648643493652" lon="-5.17940282821655">
        <ele>549</ele>
        <time>2019-05-11T19:24:29Z</time>
      </trkpt>
      <trkpt lat="36.8648834228516" lon="-5.17941284179688">
        <ele>548</ele>
        <time>2019-05-11T19:24:31Z</time>
      </trkpt>
      <trkpt lat="36.8648986816406" lon="-5.17941999435425">
        <ele>548</ele>
        <time>2019-05-11T19:24:34Z</time>
      </trkpt>
      <trkpt lat="36.864917755127" lon="-5.17942810058594">
        <ele>548</ele>
        <time>2019-05-11T19:24:36Z</time>
      </trkpt>
      <trkpt lat="36.8649368286133" lon="-5.17943286895752">
        <ele>548</ele>
        <time>2019-05-11T19:24:38Z</time>
      </trkpt>
      <trkpt lat="36.8649520874023" lon="-5.17944002151489">
        <ele>547</ele>
        <time>2019-05-11T19:24:40Z</time>
      </trkpt>
      <trkpt lat="36.8649711608887" lon="-5.17944192886353">
        <ele>547</ele>
        <time>2019-05-11T19:24:42Z</time>
      </trkpt>
      <trkpt lat="36.8649864196777" lon="-5.17945003509522">
        <ele>547</ele>
        <time>2019-05-11T19:24:44Z</time>
      </trkpt>
      <trkpt lat="36.8650054931641" lon="-5.1794581413269">
        <ele>546</ele>
        <time>2019-05-11T19:24:46Z</time>
      </trkpt>
      <trkpt lat="36.8650245666504" lon="-5.17946720123291">
        <ele>546</ele>
        <time>2019-05-11T19:24:48Z</time>
      </trkpt>
      <trkpt lat="36.8650398254394" lon="-5.17947196960449">
        <ele>545</ele>
        <time>2019-05-11T19:24:50Z</time>
      </trkpt>
      <trkpt lat="36.8650588989258" lon="-5.17948007583618">
        <ele>545</ele>
        <time>2019-05-11T19:24:52Z</time>
      </trkpt>
      <trkpt lat="36.8650741577148" lon="-5.17948722839356">
        <ele>545</ele>
        <time>2019-05-11T19:24:54Z</time>
      </trkpt>
      <trkpt lat="36.8650894165039" lon="-5.17949199676514">
        <ele>545</ele>
        <time>2019-05-11T19:24:56Z</time>
      </trkpt>
      <trkpt lat="36.8651161193848" lon="-5.17950010299683">
        <ele>544</ele>
        <time>2019-05-11T19:24:58Z</time>
      </trkpt>
      <trkpt lat="36.8651313781738" lon="-5.17950677871704">
        <ele>544</ele>
        <time>2019-05-11T19:25:00Z</time>
      </trkpt>
      <trkpt lat="36.8651466369629" lon="-5.17951488494873">
        <ele>544</ele>
        <time>2019-05-11T19:25:02Z</time>
      </trkpt>
      <trkpt lat="36.8651657104492" lon="-5.1795220375061">
        <ele>544</ele>
        <time>2019-05-11T19:25:04Z</time>
      </trkpt>
      <trkpt lat="36.8651847839356" lon="-5.17953014373779">
        <ele>543</ele>
        <time>2019-05-11T19:25:06Z</time>
      </trkpt>
      <trkpt lat="36.8652038574219" lon="-5.17954015731812">
        <ele>543</ele>
        <time>2019-05-11T19:25:09Z</time>
      </trkpt>
      <trkpt lat="36.8652229309082" lon="-5.17955207824707">
        <ele>543</ele>
        <time>2019-05-11T19:25:11Z</time>
      </trkpt>
      <trkpt lat="36.8652420043945" lon="-5.17956018447876">
        <ele>543</ele>
        <time>2019-05-11T19:25:13Z</time>
      </trkpt>
      <trkpt lat="36.8652610778809" lon="-5.17956781387329">
        <ele>542</ele>
        <time>2019-05-11T19:25:15Z</time>
      </trkpt>
      <trkpt lat="36.8652839660644" lon="-5.17957496643066">
        <ele>542</ele>
        <time>2019-05-11T19:25:17Z</time>
      </trkpt>
      <trkpt lat="36.8653030395508" lon="-5.17958498001099">
        <ele>541</ele>
        <time>2019-05-11T19:25:19Z</time>
      </trkpt>
      <trkpt lat="36.8653221130371" lon="-5.17959213256836">
        <ele>541</ele>
        <time>2019-05-11T19:25:21Z</time>
      </trkpt>
      <trkpt lat="36.8653411865234" lon="-5.17959976196289">
        <ele>540</ele>
        <time>2019-05-11T19:25:23Z</time>
      </trkpt>
      <trkpt lat="36.865364074707" lon="-5.179612159729">
        <ele>540</ele>
        <time>2019-05-11T19:25:25Z</time>
      </trkpt>
      <trkpt lat="36.8653831481934" lon="-5.17961978912354">
        <ele>539</ele>
        <time>2019-05-11T19:25:27Z</time>
      </trkpt>
      <trkpt lat="36.8654022216797" lon="-5.17962789535522">
        <ele>539</ele>
        <time>2019-05-11T19:25:29Z</time>
      </trkpt>
      <trkpt lat="36.8654136657715" lon="-5.17964315414429">
        <ele>538</ele>
        <time>2019-05-11T19:25:31Z</time>
      </trkpt>
      <trkpt lat="36.8653945922852" lon="-5.17966508865356">
        <ele>538</ele>
        <time>2019-05-11T19:25:33Z</time>
      </trkpt>
      <trkpt lat="36.8653717041016" lon="-5.1796669960022">
        <ele>538</ele>
        <time>2019-05-11T19:25:35Z</time>
      </trkpt>
      <trkpt lat="36.865348815918" lon="-5.17966222763062">
        <ele>538</ele>
        <time>2019-05-11T19:25:37Z</time>
      </trkpt>
      <trkpt lat="36.8653259277344" lon="-5.17965316772461">
        <ele>538</ele>
        <time>2019-05-11T19:25:39Z</time>
      </trkpt>
      <trkpt lat="36.8652992248535" lon="-5.17964315414429">
        <ele>538</ele>
        <time>2019-05-11T19:25:41Z</time>
      </trkpt>
      <trkpt lat="36.8652763366699" lon="-5.17963314056396">
        <ele>538</ele>
        <time>2019-05-11T19:25:44Z</time>
      </trkpt>
      <trkpt lat="36.8652496337891" lon="-5.17962503433228">
        <ele>538</ele>
        <time>2019-05-11T19:25:46Z</time>
      </trkpt>
      <trkpt lat="36.8652267456055" lon="-5.17961692810059">
        <ele>538</ele>
        <time>2019-05-11T19:25:48Z</time>
      </trkpt>
      <trkpt lat="36.8652000427246" lon="-5.17960977554321">
        <ele>538</ele>
        <time>2019-05-11T19:25:50Z</time>
      </trkpt>
      <trkpt lat="36.8651733398438" lon="-5.17960500717163">
        <ele>538</ele>
        <time>2019-05-11T19:25:52Z</time>
      </trkpt>
      <trkpt lat="36.8651466369629" lon="-5.17960214614868">
        <ele>538</ele>
        <time>2019-05-11T19:25:54Z</time>
      </trkpt>
      <trkpt lat="36.865119934082" lon="-5.17959785461426">
        <ele>538</ele>
        <time>2019-05-11T19:25:56Z</time>
      </trkpt>
      <trkpt lat="36.8650932312012" lon="-5.17959499359131">
        <ele>538</ele>
        <time>2019-05-11T19:25:58Z</time>
      </trkpt>
      <trkpt lat="36.8650665283203" lon="-5.17959213256836">
        <ele>538</ele>
        <time>2019-05-11T19:26:00Z</time>
      </trkpt>
      <trkpt lat="36.8650398254394" lon="-5.17958784103394">
        <ele>538</ele>
        <time>2019-05-11T19:26:02Z</time>
      </trkpt>
      <trkpt lat="36.8650131225586" lon="-5.17958498001099">
        <ele>538</ele>
        <time>2019-05-11T19:26:04Z</time>
      </trkpt>
      <trkpt lat="36.8649864196777" lon="-5.17958211898804">
        <ele>538</ele>
        <time>2019-05-11T19:26:06Z</time>
      </trkpt>
      <trkpt lat="36.8649597167969" lon="-5.17957782745361">
        <ele>538</ele>
        <time>2019-05-11T19:26:08Z</time>
      </trkpt>
      <trkpt lat="36.8649215698242" lon="-5.17957210540772">
        <ele>538</ele>
        <time>2019-05-11T19:26:10Z</time>
      </trkpt>
      <trkpt lat="36.8648948669434" lon="-5.17956781387329">
        <ele>538</ele>
        <time>2019-05-11T19:26:12Z</time>
      </trkpt>
      <trkpt lat="36.8648681640625" lon="-5.17956686019897">
        <ele>538</ele>
        <time>2019-05-11T19:26:14Z</time>
      </trkpt>
      <trkpt lat="36.8648414611816" lon="-5.17957019805908">
        <ele>538</ele>
        <time>2019-05-11T19:26:16Z</time>
      </trkpt>
      <trkpt lat="36.8648109436035" lon="-5.1795768737793">
        <ele>538</ele>
        <time>2019-05-11T19:26:19Z</time>
      </trkpt>
      <trkpt lat="36.8647842407227" lon="-5.17958211898804">
        <ele>538</ele>
        <time>2019-05-11T19:26:21Z</time>
      </trkpt>
      <trkpt lat="36.8647575378418" lon="-5.17958498001099">
        <ele>538</ele>
        <time>2019-05-11T19:26:23Z</time>
      </trkpt>
      <trkpt lat="36.8647308349609" lon="-5.17959022521973">
        <ele>539</ele>
        <time>2019-05-11T19:26:25Z</time>
      </trkpt>
      <trkpt lat="36.8647041320801" lon="-5.17959690093994">
        <ele>540</ele>
        <time>2019-05-11T19:26:27Z</time>
      </trkpt>
      <trkpt lat="36.8646774291992" lon="-5.17960500717163">
        <ele>540</ele>
        <time>2019-05-11T19:26:29Z</time>
      </trkpt>
      <trkpt lat="36.8646507263184" lon="-5.17961311340332">
        <ele>541</ele>
        <time>2019-05-11T19:26:31Z</time>
      </trkpt>
      <trkpt lat="36.8646240234375" lon="-5.17961978912354">
        <ele>542</ele>
        <time>2019-05-11T19:26:33Z</time>
      </trkpt>
      <trkpt lat="36.8645935058594" lon="-5.17962980270386">
        <ele>543</ele>
        <time>2019-05-11T19:26:35Z</time>
      </trkpt>
      <trkpt lat="36.8645668029785" lon="-5.17963981628418">
        <ele>544</ele>
        <time>2019-05-11T19:26:37Z</time>
      </trkpt>
      <trkpt lat="36.8645401000977" lon="-5.17965221405029">
        <ele>545</ele>
        <time>2019-05-11T19:26:39Z</time>
      </trkpt>
      <trkpt lat="36.8645133972168" lon="-5.17965984344482">
        <ele>546</ele>
        <time>2019-05-11T19:26:41Z</time>
      </trkpt>
      <trkpt lat="36.8644828796387" lon="-5.1796669960022">
        <ele>547</ele>
        <time>2019-05-11T19:26:43Z</time>
      </trkpt>
      <trkpt lat="36.8644409179688" lon="-5.17968320846558">
        <ele>548</ele>
        <time>2019-05-11T19:26:45Z</time>
      </trkpt>
      <trkpt lat="36.8644142150879" lon="-5.17969179153442">
        <ele>549</ele>
        <time>2019-05-11T19:26:47Z</time>
      </trkpt>
      <trkpt lat="36.8643836975098" lon="-5.17970705032349">
        <ele>550</ele>
        <time>2019-05-11T19:26:49Z</time>
      </trkpt>
      <trkpt lat="36.8643569946289" lon="-5.17971706390381">
        <ele>550</ele>
        <time>2019-05-11T19:26:51Z</time>
      </trkpt>
      <trkpt lat="36.864330291748" lon="-5.17971801757812">
        <ele>551</ele>
        <time>2019-05-11T19:26:53Z</time>
      </trkpt>
      <trkpt lat="36.8643035888672" lon="-5.17973184585571">
        <ele>551</ele>
        <time>2019-05-11T19:26:56Z</time>
      </trkpt>
      <trkpt lat="36.8642768859863" lon="-5.17974519729614">
        <ele>552</ele>
        <time>2019-05-11T19:26:58Z</time>
      </trkpt>
      <trkpt lat="36.8642501831055" lon="-5.17974996566772">
        <ele>552</ele>
        <time>2019-05-11T19:27:00Z</time>
      </trkpt>
      <trkpt lat="36.8642234802246" lon="-5.17975282669067">
        <ele>553</ele>
        <time>2019-05-11T19:27:02Z</time>
      </trkpt>
      <trkpt lat="36.8641929626465" lon="-5.17975521087646">
        <ele>553</ele>
        <time>2019-05-11T19:27:04Z</time>
      </trkpt>
      <trkpt lat="36.8641662597656" lon="-5.17975187301636">
        <ele>553</ele>
        <time>2019-05-11T19:27:06Z</time>
      </trkpt>
      <trkpt lat="36.864143371582" lon="-5.17974710464478">
        <ele>553</ele>
        <time>2019-05-11T19:27:08Z</time>
      </trkpt>
      <trkpt lat="36.8641166687012" lon="-5.17973518371582">
        <ele>553</ele>
        <time>2019-05-11T19:27:10Z</time>
      </trkpt>
      <trkpt lat="36.8640937805176" lon="-5.1797251701355">
        <ele>553</ele>
        <time>2019-05-11T19:27:12Z</time>
      </trkpt>
      <trkpt lat="36.8640670776367" lon="-5.17971181869507">
        <ele>553</ele>
        <time>2019-05-11T19:27:14Z</time>
      </trkpt>
      <trkpt lat="36.8640403747559" lon="-5.17969799041748">
        <ele>553</ele>
        <time>2019-05-11T19:27:16Z</time>
      </trkpt>
      <trkpt lat="36.8640174865723" lon="-5.17968511581421">
        <ele>551</ele>
        <time>2019-05-11T19:27:18Z</time>
      </trkpt>
      <trkpt lat="36.8639793395996" lon="-5.17965984344482">
        <ele>549</ele>
        <time>2019-05-11T19:27:20Z</time>
      </trkpt>
      <trkpt lat="36.8639526367188" lon="-5.17965221405029">
        <ele>547</ele>
        <time>2019-05-11T19:27:22Z</time>
      </trkpt>
      <trkpt lat="36.8639297485352" lon="-5.17964506149292">
        <ele>545</ele>
        <time>2019-05-11T19:27:24Z</time>
      </trkpt>
      <trkpt lat="36.8639030456543" lon="-5.17963790893555">
        <ele>543</ele>
        <time>2019-05-11T19:27:26Z</time>
      </trkpt>
      <trkpt lat="36.8638763427734" lon="-5.17962980270386">
        <ele>541</ele>
        <time>2019-05-11T19:27:28Z</time>
      </trkpt>
      <trkpt lat="36.8638496398926" lon="-5.1796178817749">
        <ele>540</ele>
        <time>2019-05-11T19:27:31Z</time>
      </trkpt>
      <trkpt lat="36.8638229370117" lon="-5.17960691452026">
        <ele>540</ele>
        <time>2019-05-11T19:27:33Z</time>
      </trkpt>
      <trkpt lat="36.8637962341309" lon="-5.17959785461426">
        <ele>540</ele>
        <time>2019-05-11T19:27:35Z</time>
      </trkpt>
      <trkpt lat="36.86376953125" lon="-5.17959022521973">
        <ele>540</ele>
        <time>2019-05-11T19:27:37Z</time>
      </trkpt>
      <trkpt lat="36.8637390136719" lon="-5.17958211898804">
        <ele>540</ele>
        <time>2019-05-11T19:27:39Z</time>
      </trkpt>
      <trkpt lat="36.8637084960938" lon="-5.17957496643066">
        <ele>540</ele>
        <time>2019-05-11T19:27:41Z</time>
      </trkpt>
      <trkpt lat="36.8636817932129" lon="-5.17956781387329">
        <ele>540</ele>
        <time>2019-05-11T19:27:43Z</time>
      </trkpt>
      <trkpt lat="36.8636512756348" lon="-5.17955780029297">
        <ele>541</ele>
        <time>2019-05-11T19:27:45Z</time>
      </trkpt>
      <trkpt lat="36.8636283874512" lon="-5.17954778671265">
        <ele>543</ele>
        <time>2019-05-11T19:27:47Z</time>
      </trkpt>
      <trkpt lat="36.8636016845703" lon="-5.17953491210938">
        <ele>545</ele>
        <time>2019-05-11T19:27:49Z</time>
      </trkpt>
      <trkpt lat="36.8635711669922" lon="-5.17952299118042">
        <ele>547</ele>
        <time>2019-05-11T19:27:51Z</time>
      </trkpt>
      <trkpt lat="36.8635444641113" lon="-5.1795129776001">
        <ele>549</ele>
        <time>2019-05-11T19:27:53Z</time>
      </trkpt>
      <trkpt lat="36.8635177612305" lon="-5.17950296401978">
        <ele>550</ele>
        <time>2019-05-11T19:27:55Z</time>
      </trkpt>
      <trkpt lat="36.8634719848633" lon="-5.17949676513672">
        <ele>552</ele>
        <time>2019-05-11T19:27:57Z</time>
      </trkpt>
      <trkpt lat="36.8634414672852" lon="-5.17949485778809">
        <ele>554</ele>
        <time>2019-05-11T19:27:59Z</time>
      </trkpt>
      <trkpt lat="36.8634147644043" lon="-5.17949199676514">
        <ele>555</ele>
        <time>2019-05-11T19:28:01Z</time>
      </trkpt>
      <trkpt lat="36.8633880615234" lon="-5.17949485778809">
        <ele>555</ele>
        <time>2019-05-11T19:28:03Z</time>
      </trkpt>
      <trkpt lat="36.8633613586426" lon="-5.17950296401978">
        <ele>555</ele>
        <time>2019-05-11T19:28:05Z</time>
      </trkpt>
      <trkpt lat="36.8633308410644" lon="-5.17951011657715">
        <ele>555</ele>
        <time>2019-05-11T19:28:08Z</time>
      </trkpt>
      <trkpt lat="36.8633041381836" lon="-5.1795220375061">
        <ele>555</ele>
        <time>2019-05-11T19:28:10Z</time>
      </trkpt>
      <trkpt lat="36.8632774353027" lon="-5.17953681945801">
        <ele>555</ele>
        <time>2019-05-11T19:28:12Z</time>
      </trkpt>
      <trkpt lat="36.8632583618164" lon="-5.17955493927002">
        <ele>555</ele>
        <time>2019-05-11T19:28:14Z</time>
      </trkpt>
      <trkpt lat="36.8632316589356" lon="-5.17957305908203">
        <ele>555</ele>
        <time>2019-05-11T19:28:16Z</time>
      </trkpt>
      <trkpt lat="36.863208770752" lon="-5.17959308624268">
        <ele>556</ele>
        <time>2019-05-11T19:28:18Z</time>
      </trkpt>
      <trkpt lat="36.8631935119629" lon="-5.17962217330933">
        <ele>556</ele>
        <time>2019-05-11T19:28:20Z</time>
      </trkpt>
      <trkpt lat="36.8631744384766" lon="-5.17964220046997">
        <ele>556</ele>
        <time>2019-05-11T19:28:22Z</time>
      </trkpt>
      <trkpt lat="36.8631591796875" lon="-5.1796669960022">
        <ele>556</ele>
        <time>2019-05-11T19:28:24Z</time>
      </trkpt>
      <trkpt lat="36.863151550293" lon="-5.17969512939453">
        <ele>556</ele>
        <time>2019-05-11T19:28:26Z</time>
      </trkpt>
      <trkpt lat="36.8631362915039" lon="-5.1797251701355">
        <ele>556</ele>
        <time>2019-05-11T19:28:28Z</time>
      </trkpt>
      <trkpt lat="36.8631362915039" lon="-5.17975521087646">
        <ele>556</ele>
        <time>2019-05-11T19:28:30Z</time>
      </trkpt>
      <trkpt lat="36.8631286621094" lon="-5.17978715896606">
        <ele>556</ele>
        <time>2019-05-11T19:28:32Z</time>
      </trkpt>
      <trkpt lat="36.8631172180176" lon="-5.17983818054199">
        <ele>557</ele>
        <time>2019-05-11T19:28:34Z</time>
      </trkpt>
      <trkpt lat="36.8631057739258" lon="-5.17987012863159">
        <ele>557</ele>
        <time>2019-05-11T19:28:36Z</time>
      </trkpt>
      <trkpt lat="36.863094329834" lon="-5.17990016937256">
        <ele>558</ele>
        <time>2019-05-11T19:28:38Z</time>
      </trkpt>
      <trkpt lat="36.8630867004394" lon="-5.17993021011353">
        <ele>558</ele>
        <time>2019-05-11T19:28:40Z</time>
      </trkpt>
      <trkpt lat="36.8630828857422" lon="-5.17995977401733">
        <ele>558</ele>
        <time>2019-05-11T19:28:42Z</time>
      </trkpt>
      <trkpt lat="36.8630752563477" lon="-5.1799898147583">
        <ele>558</ele>
        <time>2019-05-11T19:28:45Z</time>
      </trkpt>
      <trkpt lat="36.8630714416504" lon="-5.18001985549927">
        <ele>558</ele>
        <time>2019-05-11T19:28:47Z</time>
      </trkpt>
      <trkpt lat="36.8630714416504" lon="-5.18005180358887">
        <ele>558</ele>
        <time>2019-05-11T19:28:49Z</time>
      </trkpt>
      <trkpt lat="36.8630714416504" lon="-5.1800799369812">
        <ele>558</ele>
        <time>2019-05-11T19:28:51Z</time>
      </trkpt>
      <trkpt lat="36.8630752563477" lon="-5.18010520935059">
        <ele>558</ele>
        <time>2019-05-11T19:28:53Z</time>
      </trkpt>
      <trkpt lat="36.8630752563477" lon="-5.18012523651123">
        <ele>558</ele>
        <time>2019-05-11T19:28:55Z</time>
      </trkpt>
      <trkpt lat="36.8630790710449" lon="-5.18013286590576">
        <ele>558</ele>
        <time>2019-05-11T19:28:57Z</time>
      </trkpt>
      <trkpt lat="36.8630828857422" lon="-5.18013000488281">
        <ele>558</ele>
        <time>2019-05-11T19:28:59Z</time>
      </trkpt>
      <trkpt lat="36.8630867004394" lon="-5.18012523651123">
        <ele>558</ele>
        <time>2019-05-11T19:29:01Z</time>
      </trkpt>
      <trkpt lat="36.8630867004394" lon="-5.18011808395386">
        <ele>557</ele>
        <time>2019-05-11T19:29:03Z</time>
      </trkpt>
      <trkpt lat="36.8630867004394" lon="-5.18010997772217">
        <ele>556</ele>
        <time>2019-05-11T19:29:05Z</time>
      </trkpt>
      <trkpt lat="36.8630905151367" lon="-5.1801028251648">
        <ele>555</ele>
        <time>2019-05-11T19:29:07Z</time>
      </trkpt>
      <trkpt lat="36.8630981445312" lon="-5.18009996414185">
        <ele>554</ele>
        <time>2019-05-11T19:29:09Z</time>
      </trkpt>
      <trkpt lat="36.8630981445312" lon="-5.18009519577026">
        <ele>554</ele>
        <time>2019-05-11T19:29:11Z</time>
      </trkpt>
      <trkpt lat="36.8630981445312" lon="-5.18008995056152">
        <ele>553</ele>
        <time>2019-05-11T19:29:13Z</time>
      </trkpt>
      <trkpt lat="36.8631134033203" lon="-5.18010520935059">
        <ele>553</ele>
        <time>2019-05-11T19:29:15Z</time>
      </trkpt>
      <trkpt lat="36.8631210327148" lon="-5.18011999130249">
        <ele>552</ele>
        <time>2019-05-11T19:29:17Z</time>
      </trkpt>
      <trkpt lat="36.8631286621094" lon="-5.1801381111145">
        <ele>552</ele>
        <time>2019-05-11T19:29:19Z</time>
      </trkpt>
      <trkpt lat="36.8631362915039" lon="-5.18015813827515">
        <ele>552</ele>
        <time>2019-05-11T19:29:21Z</time>
      </trkpt>
      <trkpt lat="36.8631401062012" lon="-5.18017816543579">
        <ele>551</ele>
        <time>2019-05-11T19:29:24Z</time>
      </trkpt>
      <trkpt lat="36.8631477355957" lon="-5.18019819259644">
        <ele>551</ele>
        <time>2019-05-11T19:29:26Z</time>
      </trkpt>
      <trkpt lat="36.863151550293" lon="-5.18022298812866">
        <ele>551</ele>
        <time>2019-05-11T19:29:28Z</time>
      </trkpt>
      <trkpt lat="36.8631591796875" lon="-5.18024682998657">
        <ele>550</ele>
        <time>2019-05-11T19:29:30Z</time>
      </trkpt>
      <trkpt lat="36.8631629943848" lon="-5.18027019500732">
        <ele>550</ele>
        <time>2019-05-11T19:29:32Z</time>
      </trkpt>
      <trkpt lat="36.8631591796875" lon="-5.18028497695923">
        <ele>549</ele>
        <time>2019-05-11T19:29:34Z</time>
      </trkpt>
      <trkpt lat="36.8631591796875" lon="-5.18029689788818">
        <ele>549</ele>
        <time>2019-05-11T19:29:36Z</time>
      </trkpt>
      <trkpt lat="36.8631553649902" lon="-5.18030786514282">
        <ele>548</ele>
        <time>2019-05-11T19:29:38Z</time>
      </trkpt>
      <trkpt lat="36.863151550293" lon="-5.18032312393188">
        <ele>548</ele>
        <time>2019-05-11T19:29:40Z</time>
      </trkpt>
      <trkpt lat="36.863151550293" lon="-5.18032312393188">
        <ele>548</ele>
        <time>2019-05-11T19:29:42Z</time>
      </trkpt>
      <trkpt lat="36.863151550293" lon="-5.1803297996521">
        <ele>547</ele>
        <time>2019-05-11T19:29:44Z</time>
      </trkpt>
      <trkpt lat="36.8631477355957" lon="-5.18033313751221">
        <ele>547</ele>
        <time>2019-05-11T19:29:46Z</time>
      </trkpt>
      <trkpt lat="36.8631439208984" lon="-5.18033504486084">
        <ele>547</ele>
        <time>2019-05-11T19:29:48Z</time>
      </trkpt>
      <trkpt lat="36.8631401062012" lon="-5.18033695220947">
        <ele>546</ele>
        <time>2019-05-11T19:29:50Z</time>
      </trkpt>
      <trkpt lat="36.8631401062012" lon="-5.18033695220947">
        <ele>546</ele>
        <time>2019-05-11T19:29:52Z</time>
      </trkpt>
      <trkpt lat="36.8631362915039" lon="-5.18033504486084">
        <ele>545</ele>
        <time>2019-05-11T19:29:54Z</time>
      </trkpt>
      <trkpt lat="36.8631362915039" lon="-5.18033695220947">
        <ele>545</ele>
        <time>2019-05-11T19:29:56Z</time>
      </trkpt>
      <trkpt lat="36.8631248474121" lon="-5.18035316467285">
        <ele>544</ele>
        <time>2019-05-11T19:29:59Z</time>
      </trkpt>
      <trkpt lat="36.8631134033203" lon="-5.1803731918335">
        <ele>544</ele>
        <time>2019-05-11T19:30:01Z</time>
      </trkpt>
      <trkpt lat="36.863109588623" lon="-5.18038988113403">
        <ele>543</ele>
        <time>2019-05-11T19:30:03Z</time>
      </trkpt>
      <trkpt lat="36.8630981445312" lon="-5.18040800094604">
        <ele>543</ele>
        <time>2019-05-11T19:30:05Z</time>
      </trkpt>
      <trkpt lat="36.8630828857422" lon="-5.18042182922363">
        <ele>543</ele>
        <time>2019-05-11T19:30:07Z</time>
      </trkpt>
      <trkpt lat="36.8630638122559" lon="-5.18043184280396">
        <ele>543</ele>
        <time>2019-05-11T19:30:09Z</time>
      </trkpt>
      <trkpt lat="36.8630409240723" lon="-5.18043994903564">
        <ele>543</ele>
        <time>2019-05-11T19:30:11Z</time>
      </trkpt>
      <trkpt lat="36.8630180358887" lon="-5.18043804168701">
        <ele>543</ele>
        <time>2019-05-11T19:30:13Z</time>
      </trkpt>
      <trkpt lat="36.8629913330078" lon="-5.1804370880127">
        <ele>542</ele>
        <time>2019-05-11T19:30:15Z</time>
      </trkpt>
      <trkpt lat="36.8629684448242" lon="-5.18043518066406">
        <ele>542</ele>
        <time>2019-05-11T19:30:17Z</time>
      </trkpt>
      <trkpt lat="36.8629417419434" lon="-5.18043518066406">
        <ele>541</ele>
        <time>2019-05-11T19:30:19Z</time>
      </trkpt>
      <trkpt lat="36.8629188537598" lon="-5.18043518066406">
        <ele>541</ele>
        <time>2019-05-11T19:30:21Z</time>
      </trkpt>
      <trkpt lat="36.8628883361816" lon="-5.18043518066406">
        <ele>541</ele>
        <time>2019-05-11T19:30:23Z</time>
      </trkpt>
      <trkpt lat="36.862865447998" lon="-5.18042516708374">
        <ele>541</ele>
        <time>2019-05-11T19:30:25Z</time>
      </trkpt>
      <trkpt lat="36.8628387451172" lon="-5.18041276931763">
        <ele>541</ele>
        <time>2019-05-11T19:30:27Z</time>
      </trkpt>
      <trkpt lat="36.8628120422363" lon="-5.18040990829468">
        <ele>541</ele>
        <time>2019-05-11T19:30:29Z</time>
      </trkpt>
      <trkpt lat="36.8628005981445" lon="-5.18040800094604">
        <ele>541</ele>
        <time>2019-05-11T19:30:31Z</time>
      </trkpt>
      <trkpt lat="36.8627891540527" lon="-5.18040990829468">
        <ele>541</ele>
        <time>2019-05-11T19:30:33Z</time>
      </trkpt>
      <trkpt lat="36.8627700805664" lon="-5.18040180206299">
        <ele>543</ele>
        <time>2019-05-11T19:30:35Z</time>
      </trkpt>
      <trkpt lat="36.8627471923828" lon="-5.1803879737854">
        <ele>544</ele>
        <time>2019-05-11T19:30:38Z</time>
      </trkpt>
      <trkpt lat="36.8627281188965" lon="-5.18036985397339">
        <ele>544</ele>
        <time>2019-05-11T19:30:40Z</time>
      </trkpt>
      <trkpt lat="36.8627090454102" lon="-5.18035221099854">
        <ele>545</ele>
        <time>2019-05-11T19:30:42Z</time>
      </trkpt>
      <trkpt lat="36.8626937866211" lon="-5.1803297996521">
        <ele>545</ele>
        <time>2019-05-11T19:30:44Z</time>
      </trkpt>
      <trkpt lat="36.862678527832" lon="-5.1803150177002">
        <ele>545</ele>
        <time>2019-05-11T19:30:46Z</time>
      </trkpt>
      <trkpt lat="36.8626594543457" lon="-5.18029689788818">
        <ele>545</ele>
        <time>2019-05-11T19:30:48Z</time>
      </trkpt>
      <trkpt lat="36.8626441955566" lon="-5.18027496337891">
        <ele>545</ele>
        <time>2019-05-11T19:30:50Z</time>
      </trkpt>
      <trkpt lat="36.862621307373" lon="-5.180260181427">
        <ele>545</ele>
        <time>2019-05-11T19:30:52Z</time>
      </trkpt>
      <trkpt lat="36.8626022338867" lon="-5.18024015426636">
        <ele>545</ele>
        <time>2019-05-11T19:30:54Z</time>
      </trkpt>
      <trkpt lat="36.8625793457031" lon="-5.18022680282593">
        <ele>545</ele>
        <time>2019-05-11T19:30:56Z</time>
      </trkpt>
      <trkpt lat="36.8625602722168" lon="-5.18020820617676">
        <ele>545</ele>
        <time>2019-05-11T19:30:58Z</time>
      </trkpt>
      <trkpt lat="36.8625411987305" lon="-5.18019008636475">
        <ele>545</ele>
        <time>2019-05-11T19:31:00Z</time>
      </trkpt>
      <trkpt lat="36.8625144958496" lon="-5.18015813827515">
        <ele>545</ele>
        <time>2019-05-11T19:31:02Z</time>
      </trkpt>
      <trkpt lat="36.8624992370606" lon="-5.18013477325439">
        <ele>545</ele>
        <time>2019-05-11T19:31:04Z</time>
      </trkpt>
      <trkpt lat="36.862476348877" lon="-5.18011808395386">
        <ele>545</ele>
        <time>2019-05-11T19:31:06Z</time>
      </trkpt>
      <trkpt lat="36.8624572753906" lon="-5.18009805679321">
        <ele>545</ele>
        <time>2019-05-11T19:31:08Z</time>
      </trkpt>
      <trkpt lat="36.8624420166016" lon="-5.18007516860962">
        <ele>545</ele>
        <time>2019-05-11T19:31:10Z</time>
      </trkpt>
      <trkpt lat="36.862434387207" lon="-5.18004703521728">
        <ele>545</ele>
        <time>2019-05-11T19:31:13Z</time>
      </trkpt>
      <trkpt lat="36.8624267578125" lon="-5.18001985549927">
        <ele>545</ele>
        <time>2019-05-11T19:31:15Z</time>
      </trkpt>
      <trkpt lat="36.862419128418" lon="-5.1799898147583">
        <ele>544</ele>
        <time>2019-05-11T19:31:17Z</time>
      </trkpt>
      <trkpt lat="36.8624038696289" lon="-5.17996788024902">
        <ele>544</ele>
        <time>2019-05-11T19:31:19Z</time>
      </trkpt>
      <trkpt lat="36.8623924255371" lon="-5.1799430847168">
        <ele>544</ele>
        <time>2019-05-11T19:31:21Z</time>
      </trkpt>
      <trkpt lat="36.8623809814453" lon="-5.17991304397583">
        <ele>544</ele>
        <time>2019-05-11T19:31:23Z</time>
      </trkpt>
      <trkpt lat="36.8623733520508" lon="-5.17988681793213">
        <ele>544</ele>
        <time>2019-05-11T19:31:25Z</time>
      </trkpt>
      <trkpt lat="36.8623580932617" lon="-5.17986297607422">
        <ele>544</ele>
        <time>2019-05-11T19:31:27Z</time>
      </trkpt>
      <trkpt lat="36.8623428344727" lon="-5.17983818054199">
        <ele>544</ele>
        <time>2019-05-11T19:31:29Z</time>
      </trkpt>
      <trkpt lat="36.8623352050781" lon="-5.17981195449829">
        <ele>544</ele>
        <time>2019-05-11T19:31:31Z</time>
      </trkpt>
      <trkpt lat="36.8623237609863" lon="-5.17978477478027">
        <ele>544</ele>
        <time>2019-05-11T19:31:33Z</time>
      </trkpt>
      <trkpt lat="36.8623085021973" lon="-5.17975997924805">
        <ele>544</ele>
        <time>2019-05-11T19:31:35Z</time>
      </trkpt>
      <trkpt lat="36.8622894287109" lon="-5.17971801757812">
        <ele>544</ele>
        <time>2019-05-11T19:31:37Z</time>
      </trkpt>
      <trkpt lat="36.8622741699219" lon="-5.17968988418579">
        <ele>544</ele>
        <time>2019-05-11T19:31:39Z</time>
      </trkpt>
      <trkpt lat="36.8622627258301" lon="-5.17966318130493">
        <ele>544</ele>
        <time>2019-05-11T19:31:41Z</time>
      </trkpt>
      <trkpt lat="36.8622550964356" lon="-5.17963314056396">
        <ele>544</ele>
        <time>2019-05-11T19:31:43Z</time>
      </trkpt>
      <trkpt lat="36.8622512817383" lon="-5.17960214614868">
        <ele>544</ele>
        <time>2019-05-11T19:31:45Z</time>
      </trkpt>
      <trkpt lat="36.862247467041" lon="-5.17957019805908">
        <ele>544</ele>
        <time>2019-05-11T19:31:48Z</time>
      </trkpt>
      <trkpt lat="36.8622436523438" lon="-5.17954015731812">
        <ele>544</ele>
        <time>2019-05-11T19:31:50Z</time>
      </trkpt>
      <trkpt lat="36.862232208252" lon="-5.17950820922852">
        <ele>544</ele>
        <time>2019-05-11T19:31:52Z</time>
      </trkpt>
      <trkpt lat="36.8622245788574" lon="-5.17947721481323">
        <ele>544</ele>
        <time>2019-05-11T19:31:54Z</time>
      </trkpt>
      <trkpt lat="36.8622169494629" lon="-5.17944478988647">
        <ele>544</ele>
        <time>2019-05-11T19:31:56Z</time>
      </trkpt>
      <trkpt lat="36.8622131347656" lon="-5.17941522598267">
        <ele>545</ele>
        <time>2019-05-11T19:31:58Z</time>
      </trkpt>
      <trkpt lat="36.8622016906738" lon="-5.17938280105591">
        <ele>546</ele>
        <time>2019-05-11T19:32:00Z</time>
      </trkpt>
      <trkpt lat="36.862190246582" lon="-5.17935705184936">
        <ele>547</ele>
        <time>2019-05-11T19:32:02Z</time>
      </trkpt>
      <trkpt lat="36.8621864318848" lon="-5.17932987213135">
        <ele>547</ele>
        <time>2019-05-11T19:32:04Z</time>
      </trkpt>
      <trkpt lat="36.862174987793" lon="-5.17929983139038">
        <ele>548</ele>
        <time>2019-05-11T19:32:06Z</time>
      </trkpt>
      <trkpt lat="36.8621635437012" lon="-5.17926979064941">
        <ele>548</ele>
        <time>2019-05-11T19:32:08Z</time>
      </trkpt>
      <trkpt lat="36.8621520996094" lon="-5.17924213409424">
        <ele>549</ele>
        <time>2019-05-11T19:32:10Z</time>
      </trkpt>
      <trkpt lat="36.8621482849121" lon="-5.17921018600464">
        <ele>549</ele>
        <time>2019-05-11T19:32:12Z</time>
      </trkpt>
      <trkpt lat="36.8621406555176" lon="-5.17916202545166">
        <ele>550</ele>
        <time>2019-05-11T19:32:14Z</time>
      </trkpt>
      <trkpt lat="36.8621292114258" lon="-5.17912721633911">
        <ele>550</ele>
        <time>2019-05-11T19:32:16Z</time>
      </trkpt>
      <trkpt lat="36.862117767334" lon="-5.17909002304077">
        <ele>550</ele>
        <time>2019-05-11T19:32:18Z</time>
      </trkpt>
      <trkpt lat="36.8621101379394" lon="-5.17904806137085">
        <ele>550</ele>
        <time>2019-05-11T19:32:20Z</time>
      </trkpt>
      <trkpt lat="36.8621101379394" lon="-5.17900800704956">
        <ele>550</ele>
        <time>2019-05-11T19:32:23Z</time>
      </trkpt>
      <trkpt lat="36.8621101379394" lon="-5.1789698600769">
        <ele>550</ele>
        <time>2019-05-11T19:32:25Z</time>
      </trkpt>
      <trkpt lat="36.8621101379394" lon="-5.17893695831299">
        <ele>550</ele>
        <time>2019-05-11T19:32:27Z</time>
      </trkpt>
      <trkpt lat="36.8621101379394" lon="-5.17889976501465">
        <ele>550</ele>
        <time>2019-05-11T19:32:29Z</time>
      </trkpt>
      <trkpt lat="36.8621101379394" lon="-5.17886304855347">
        <ele>550</ele>
        <time>2019-05-11T19:32:31Z</time>
      </trkpt>
      <trkpt lat="36.8621139526367" lon="-5.1788330078125">
        <ele>550</ele>
        <time>2019-05-11T19:32:33Z</time>
      </trkpt>
      <trkpt lat="36.8621101379394" lon="-5.17881488800049">
        <ele>550</ele>
        <time>2019-05-11T19:32:35Z</time>
      </trkpt>
      <trkpt lat="36.8621101379394" lon="-5.17880296707153">
        <ele>550</ele>
        <time>2019-05-11T19:32:37Z</time>
      </trkpt>
      <trkpt lat="36.8620986938477" lon="-5.17879295349121">
        <ele>550</ele>
        <time>2019-05-11T19:32:39Z</time>
      </trkpt>
      <trkpt lat="36.8620796203613" lon="-5.17878484725952">
        <ele>550</ele>
        <time>2019-05-11T19:32:41Z</time>
      </trkpt>
      <trkpt lat="36.8620758056641" lon="-5.17878007888794">
        <ele>550</ele>
        <time>2019-05-11T19:32:43Z</time>
      </trkpt>
      <trkpt lat="36.8620681762695" lon="-5.17877817153931">
        <ele>550</ele>
        <time>2019-05-11T19:32:45Z</time>
      </trkpt>
      <trkpt lat="36.8620643615723" lon="-5.17877721786499">
        <ele>550</ele>
        <time>2019-05-11T19:32:47Z</time>
      </trkpt>
      <trkpt lat="36.862060546875" lon="-5.17877292633057">
        <ele>550</ele>
        <time>2019-05-11T19:32:49Z</time>
      </trkpt>
      <trkpt lat="36.8620491027832" lon="-5.17877006530762">
        <ele>550</ele>
        <time>2019-05-11T19:32:51Z</time>
      </trkpt>
      <trkpt lat="36.8620491027832" lon="-5.17877006530762">
        <ele>550</ele>
        <time>2019-05-11T19:32:53Z</time>
      </trkpt>
      <trkpt lat="36.8620567321777" lon="-5.17877292633057">
        <ele>550</ele>
        <time>2019-05-11T19:32:55Z</time>
      </trkpt>
      <trkpt lat="36.8620643615723" lon="-5.17877292633057">
        <ele>550</ele>
        <time>2019-05-11T19:32:57Z</time>
      </trkpt>
      <trkpt lat="36.8620719909668" lon="-5.17877721786499">
        <ele>550</ele>
        <time>2019-05-11T19:32:59Z</time>
      </trkpt>
      <trkpt lat="36.8620758056641" lon="-5.17878007888794">
        <ele>550</ele>
        <time>2019-05-11T19:33:01Z</time>
      </trkpt>
      <trkpt lat="36.8620834350586" lon="-5.17878198623657">
        <ele>549</ele>
        <time>2019-05-11T19:33:04Z</time>
      </trkpt>
      <trkpt lat="36.8620910644531" lon="-5.17878293991089">
        <ele>548</ele>
        <time>2019-05-11T19:33:06Z</time>
      </trkpt>
      <trkpt lat="36.8620986938477" lon="-5.17878723144531">
        <ele>548</ele>
        <time>2019-05-11T19:33:08Z</time>
      </trkpt>
      <trkpt lat="36.8621025085449" lon="-5.17879009246826">
        <ele>547</ele>
        <time>2019-05-11T19:33:10Z</time>
      </trkpt>
      <trkpt lat="36.8621101379394" lon="-5.17879295349121">
        <ele>546</ele>
        <time>2019-05-11T19:33:12Z</time>
      </trkpt>
      <trkpt lat="36.8621139526367" lon="-5.17879819869995">
        <ele>546</ele>
        <time>2019-05-11T19:33:14Z</time>
      </trkpt>
      <trkpt lat="36.8621215820312" lon="-5.17880201339722">
        <ele>545</ele>
        <time>2019-05-11T19:33:16Z</time>
      </trkpt>
      <trkpt lat="36.8621253967285" lon="-5.17880487442017">
        <ele>545</ele>
        <time>2019-05-11T19:33:18Z</time>
      </trkpt>
      <trkpt lat="36.8621253967285" lon="-5.17880487442017">
        <ele>545</ele>
        <time>2019-05-11T19:33:20Z</time>
      </trkpt>
      <trkpt lat="36.8621292114258" lon="-5.17880487442017">
        <ele>545</ele>
        <time>2019-05-11T19:33:22Z</time>
      </trkpt>
      <trkpt lat="36.8621292114258" lon="-5.17880296707153">
        <ele>545</ele>
        <time>2019-05-11T19:33:24Z</time>
      </trkpt>
      <trkpt lat="36.8621253967285" lon="-5.17880201339722">
        <ele>545</ele>
        <time>2019-05-11T19:33:26Z</time>
      </trkpt>
      <trkpt lat="36.8621253967285" lon="-5.17879486083984">
        <ele>545</ele>
        <time>2019-05-11T19:33:28Z</time>
      </trkpt>
      <trkpt lat="36.8621292114258" lon="-5.17878293991089">
        <ele>545</ele>
        <time>2019-05-11T19:33:30Z</time>
      </trkpt>
      <trkpt lat="36.8621253967285" lon="-5.17876195907593">
        <ele>545</ele>
        <time>2019-05-11T19:33:32Z</time>
      </trkpt>
      <trkpt lat="36.8621215820312" lon="-5.17875003814697">
        <ele>545</ele>
        <time>2019-05-11T19:33:34Z</time>
      </trkpt>
      <trkpt lat="36.8621063232422" lon="-5.1787428855896">
        <ele>545</ele>
        <time>2019-05-11T19:33:36Z</time>
      </trkpt>
      <trkpt lat="36.8620834350586" lon="-5.17873477935791">
        <ele>545</ele>
        <time>2019-05-11T19:33:38Z</time>
      </trkpt>
      <trkpt lat="36.8620834350586" lon="-5.17873287200928">
        <ele>545</ele>
        <time>2019-05-11T19:33:41Z</time>
      </trkpt>
      <trkpt lat="36.8620872497559" lon="-5.17873477935791">
        <ele>545</ele>
        <time>2019-05-11T19:33:43Z</time>
      </trkpt>
      <trkpt lat="36.8620910644531" lon="-5.17873477935791">
        <ele>546</ele>
        <time>2019-05-11T19:33:45Z</time>
      </trkpt>
      <trkpt lat="36.8620834350586" lon="-5.17873191833496">
        <ele>546</ele>
        <time>2019-05-11T19:33:47Z</time>
      </trkpt>
      <trkpt lat="36.8620719909668" lon="-5.17872476577759">
        <ele>546</ele>
        <time>2019-05-11T19:33:49Z</time>
      </trkpt>
      <trkpt lat="36.8620681762695" lon="-5.17871999740601">
        <ele>547</ele>
        <time>2019-05-11T19:33:51Z</time>
      </trkpt>
      <trkpt lat="36.8620681762695" lon="-5.17871809005737">
        <ele>548</ele>
        <time>2019-05-11T19:33:53Z</time>
      </trkpt>
      <trkpt lat="36.862060546875" lon="-5.17871713638306">
        <ele>549</ele>
        <time>2019-05-11T19:33:55Z</time>
      </trkpt>
      <trkpt lat="36.8620567321777" lon="-5.17871284484863">
        <ele>549</ele>
        <time>2019-05-11T19:33:57Z</time>
      </trkpt>
      <trkpt lat="36.8620414733887" lon="-5.17870712280273">
        <ele>550</ele>
        <time>2019-05-11T19:33:59Z</time>
      </trkpt>
      <trkpt lat="36.8620262145996" lon="-5.17869997024536">
        <ele>550</ele>
        <time>2019-05-11T19:34:01Z</time>
      </trkpt>
      <trkpt lat="36.8620147705078" lon="-5.17869710922241">
        <ele>551</ele>
        <time>2019-05-11T19:34:03Z</time>
      </trkpt>
      <trkpt lat="36.862003326416" lon="-5.17869186401367">
        <ele>552</ele>
        <time>2019-05-11T19:34:05Z</time>
      </trkpt>
      <trkpt lat="36.8619995117188" lon="-5.17868804931641">
        <ele>552</ele>
        <time>2019-05-11T19:34:07Z</time>
      </trkpt>
      <trkpt lat="36.8619842529297" lon="-5.17867994308472">
        <ele>554</ele>
        <time>2019-05-11T19:34:09Z</time>
      </trkpt>
      <trkpt lat="36.8619766235352" lon="-5.17867279052734">
        <ele>555</ele>
        <time>2019-05-11T19:34:11Z</time>
      </trkpt>
      <trkpt lat="36.8619613647461" lon="-5.17867183685303">
        <ele>556</ele>
        <time>2019-05-11T19:34:13Z</time>
      </trkpt>
      <trkpt lat="36.8619613647461" lon="-5.17866992950439">
        <ele>557</ele>
        <time>2019-05-11T19:34:15Z</time>
      </trkpt>
      <trkpt lat="36.8619651794434" lon="-5.17866992950439">
        <ele>558</ele>
        <time>2019-05-11T19:34:20Z</time>
      </trkpt>
      <trkpt lat="36.8619689941406" lon="-5.17867183685303">
        <ele>558</ele>
        <time>2019-05-11T19:34:22Z</time>
      </trkpt>
      <trkpt lat="36.8619766235352" lon="-5.17867183685303">
        <ele>558</ele>
        <time>2019-05-11T19:34:26Z</time>
      </trkpt>
      <trkpt lat="36.8619766235352" lon="-5.17867183685303">
        <ele>558</ele>
        <time>2019-05-11T19:34:28Z</time>
      </trkpt>
      <trkpt lat="36.8619766235352" lon="-5.17867183685303">
        <ele>558</ele>
        <time>2019-05-11T19:34:30Z</time>
      </trkpt>
      <trkpt lat="36.8619728088379" lon="-5.17867517471314">
        <ele>558</ele>
        <time>2019-05-11T19:34:32Z</time>
      </trkpt>
      <trkpt lat="36.8619804382324" lon="-5.17867183685303">
        <ele>558</ele>
        <time>2019-05-11T19:34:34Z</time>
      </trkpt>
      <trkpt lat="36.861988067627" lon="-5.17866992950439">
        <ele>558</ele>
        <time>2019-05-11T19:34:36Z</time>
      </trkpt>
      <trkpt lat="36.8619918823242" lon="-5.17867708206177">
        <ele>558</ele>
        <time>2019-05-11T19:34:38Z</time>
      </trkpt>
      <trkpt lat="36.8619956970215" lon="-5.17868709564209">
        <ele>558</ele>
        <time>2019-05-11T19:34:40Z</time>
      </trkpt>
      <trkpt lat="36.8620071411133" lon="-5.17868804931641">
        <ele>558</ele>
        <time>2019-05-11T19:34:42Z</time>
      </trkpt>
      <trkpt lat="36.8620147705078" lon="-5.17869186401367">
        <ele>558</ele>
        <time>2019-05-11T19:34:44Z</time>
      </trkpt>
      <trkpt lat="36.8620185852051" lon="-5.17869710922241">
        <ele>558</ele>
        <time>2019-05-11T19:34:46Z</time>
      </trkpt>
      <trkpt lat="36.8620109558106" lon="-5.17869520187378">
        <ele>558</ele>
        <time>2019-05-11T19:34:48Z</time>
      </trkpt>
      <trkpt lat="36.8620071411133" lon="-5.17869186401367">
        <ele>558</ele>
        <time>2019-05-11T19:34:50Z</time>
      </trkpt>
      <trkpt lat="36.862003326416" lon="-5.17868709564209">
        <ele>558</ele>
        <time>2019-05-11T19:34:52Z</time>
      </trkpt>
      <trkpt lat="36.8619995117188" lon="-5.17868709564209">
        <ele>558</ele>
        <time>2019-05-11T19:34:54Z</time>
      </trkpt>
      <trkpt lat="36.8619918823242" lon="-5.17868185043335">
        <ele>558</ele>
        <time>2019-05-11T19:34:56Z</time>
      </trkpt>
      <trkpt lat="36.8619804382324" lon="-5.17867994308472">
        <ele>558</ele>
        <time>2019-05-11T19:35:00Z</time>
      </trkpt>
      <trkpt lat="36.8619804382324" lon="-5.17868280410767">
        <ele>558</ele>
        <time>2019-05-11T19:35:03Z</time>
      </trkpt>
      <trkpt lat="36.8619766235352" lon="-5.17868280410767">
        <ele>559</ele>
        <time>2019-05-11T19:35:05Z</time>
      </trkpt>
      <trkpt lat="36.8619728088379" lon="-5.17868518829346">
        <ele>559</ele>
        <time>2019-05-11T19:35:07Z</time>
      </trkpt>
      <trkpt lat="36.8619728088379" lon="-5.17868709564209">
        <ele>559</ele>
        <time>2019-05-11T19:35:09Z</time>
      </trkpt>
      <trkpt lat="36.8619766235352" lon="-5.17868995666504">
        <ele>559</ele>
        <time>2019-05-11T19:35:11Z</time>
      </trkpt>
      <trkpt lat="36.8619728088379" lon="-5.17869186401367">
        <ele>559</ele>
        <time>2019-05-11T19:35:13Z</time>
      </trkpt>
      <trkpt lat="36.8619728088379" lon="-5.17869281768799">
        <ele>559</ele>
        <time>2019-05-11T19:35:15Z</time>
      </trkpt>
      <trkpt lat="36.8619766235352" lon="-5.17869710922241">
        <ele>559</ele>
        <time>2019-05-11T19:35:17Z</time>
      </trkpt>
      <trkpt lat="36.8619842529297" lon="-5.17869997024536">
        <ele>559</ele>
        <time>2019-05-11T19:35:19Z</time>
      </trkpt>
      <trkpt lat="36.861988067627" lon="-5.17870283126831">
        <ele>559</ele>
        <time>2019-05-11T19:35:21Z</time>
      </trkpt>
      <trkpt lat="36.8619918823242" lon="-5.17870712280273">
        <ele>559</ele>
        <time>2019-05-11T19:35:23Z</time>
      </trkpt>
      <trkpt lat="36.861988067627" lon="-5.17870712280273">
        <ele>559</ele>
        <time>2019-05-11T19:35:25Z</time>
      </trkpt>
      <trkpt lat="36.8619956970215" lon="-5.17870807647705">
        <ele>559</ele>
        <time>2019-05-11T19:35:27Z</time>
      </trkpt>
      <trkpt lat="36.8619956970215" lon="-5.17870807647705">
        <ele>559</ele>
        <time>2019-05-11T19:35:29Z</time>
      </trkpt>
      <trkpt lat="36.8619995117188" lon="-5.17870998382568">
        <ele>559</ele>
        <time>2019-05-11T19:35:31Z</time>
      </trkpt>
      <trkpt lat="36.862003326416" lon="-5.17870807647705">
        <ele>558</ele>
        <time>2019-05-11T19:35:33Z</time>
      </trkpt>
      <trkpt lat="36.8619995117188" lon="-5.17870807647705">
        <ele>558</ele>
        <time>2019-05-11T19:35:35Z</time>
      </trkpt>
      <trkpt lat="36.8620109558106" lon="-5.1787052154541">
        <ele>558</ele>
        <time>2019-05-11T19:35:37Z</time>
      </trkpt>
      <trkpt lat="36.8620185852051" lon="-5.17870283126831">
        <ele>558</ele>
        <time>2019-05-11T19:35:39Z</time>
      </trkpt>
      <trkpt lat="36.8620262145996" lon="-5.17870283126831">
        <ele>558</ele>
        <time>2019-05-11T19:35:41Z</time>
      </trkpt>
      <trkpt lat="36.8620223999023" lon="-5.17870187759399">
        <ele>558</ele>
        <time>2019-05-11T19:35:43Z</time>
      </trkpt>
      <trkpt lat="36.8620223999023" lon="-5.17869806289673">
        <ele>558</ele>
        <time>2019-05-11T19:35:47Z</time>
      </trkpt>
      <trkpt lat="36.8620185852051" lon="-5.17869710922241">
        <ele>558</ele>
        <time>2019-05-11T19:35:49Z</time>
      </trkpt>
      <trkpt lat="36.8620185852051" lon="-5.17869710922241">
        <ele>558</ele>
        <time>2019-05-11T19:35:51Z</time>
      </trkpt>
      <trkpt lat="36.8620185852051" lon="-5.17869710922241">
        <ele>558</ele>
        <time>2019-05-11T19:35:53Z</time>
      </trkpt>
      <trkpt lat="36.8620185852051" lon="-5.17869806289673">
        <ele>558</ele>
        <time>2019-05-11T19:35:55Z</time>
      </trkpt>
      <trkpt lat="36.8620185852051" lon="-5.17870187759399">
        <ele>558</ele>
        <time>2019-05-11T19:35:57Z</time>
      </trkpt>
      <trkpt lat="36.8620223999023" lon="-5.17870283126831">
        <ele>558</ele>
        <time>2019-05-11T19:36:00Z</time>
      </trkpt>
      <trkpt lat="36.8620223999023" lon="-5.17870283126831">
        <ele>558</ele>
        <time>2019-05-11T19:36:02Z</time>
      </trkpt>
      <trkpt lat="36.8620185852051" lon="-5.17870187759399">
        <ele>558</ele>
        <time>2019-05-11T19:36:04Z</time>
      </trkpt>
      <trkpt lat="36.8620147705078" lon="-5.17870187759399">
        <ele>558</ele>
        <time>2019-05-11T19:36:06Z</time>
      </trkpt>
      <trkpt lat="36.8620109558106" lon="-5.17870187759399">
        <ele>558</ele>
        <time>2019-05-11T19:36:08Z</time>
      </trkpt>
      <trkpt lat="36.8620147705078" lon="-5.17870712280273">
        <ele>558</ele>
        <time>2019-05-11T19:36:10Z</time>
      </trkpt>
      <trkpt lat="36.8620185852051" lon="-5.17870998382568">
        <ele>558</ele>
        <time>2019-05-11T19:36:12Z</time>
      </trkpt>
      <trkpt lat="36.8620223999023" lon="-5.17871189117432">
        <ele>558</ele>
        <time>2019-05-11T19:36:14Z</time>
      </trkpt>
      <trkpt lat="36.8620223999023" lon="-5.17871284484863">
        <ele>557</ele>
        <time>2019-05-11T19:36:16Z</time>
      </trkpt>
      <trkpt lat="36.8620071411133" lon="-5.17870283126831">
        <ele>557</ele>
        <time>2019-05-11T19:36:24Z</time>
      </trkpt>
      <trkpt lat="36.8619995117188" lon="-5.17869997024536">
        <ele>557</ele>
        <time>2019-05-11T19:36:26Z</time>
      </trkpt>
      <trkpt lat="36.8619918823242" lon="-5.17869710922241">
        <ele>557</ele>
        <time>2019-05-11T19:36:28Z</time>
      </trkpt>
      <trkpt lat="36.8619918823242" lon="-5.17869710922241">
        <ele>557</ele>
        <time>2019-05-11T19:36:30Z</time>
      </trkpt>
      <trkpt lat="36.8619995117188" lon="-5.17869710922241">
        <ele>557</ele>
        <time>2019-05-11T19:36:32Z</time>
      </trkpt>
      <trkpt lat="36.862003326416" lon="-5.17869710922241">
        <ele>557</ele>
        <time>2019-05-11T19:36:34Z</time>
      </trkpt>
      <trkpt lat="36.8620109558106" lon="-5.17869186401367">
        <ele>557</ele>
        <time>2019-05-11T19:36:38Z</time>
      </trkpt>
      <trkpt lat="36.8620147705078" lon="-5.17868804931641">
        <ele>557</ele>
        <time>2019-05-11T19:36:40Z</time>
      </trkpt>
      <trkpt lat="36.8620185852051" lon="-5.17868804931641">
        <ele>557</ele>
        <time>2019-05-11T19:36:42Z</time>
      </trkpt>
      <trkpt lat="36.8620223999023" lon="-5.17868804931641">
        <ele>556</ele>
        <time>2019-05-11T19:36:44Z</time>
      </trkpt>
      <trkpt lat="36.8620185852051" lon="-5.17866516113281">
        <ele>556</ele>
        <time>2019-05-11T19:36:46Z</time>
      </trkpt>
      <trkpt lat="36.8620262145996" lon="-5.17866706848144">
        <ele>555</ele>
        <time>2019-05-11T19:36:49Z</time>
      </trkpt>
      <trkpt lat="36.8620376586914" lon="-5.17866802215576">
        <ele>554</ele>
        <time>2019-05-11T19:36:51Z</time>
      </trkpt>
      <trkpt lat="36.8620338439941" lon="-5.17866516113281">
        <ele>554</ele>
        <time>2019-05-11T19:36:53Z</time>
      </trkpt>
      <trkpt lat="36.8620262145996" lon="-5.17866516113281">
        <ele>554</ele>
        <time>2019-05-11T19:36:55Z</time>
      </trkpt>
      <trkpt lat="36.8620338439941" lon="-5.17867183685303">
        <ele>554</ele>
        <time>2019-05-11T19:36:57Z</time>
      </trkpt>
      <trkpt lat="36.8620338439941" lon="-5.17867803573608">
        <ele>554</ele>
        <time>2019-05-11T19:36:59Z</time>
      </trkpt>
      <trkpt lat="36.8620262145996" lon="-5.17867279052734">
        <ele>554</ele>
        <time>2019-05-11T19:37:01Z</time>
      </trkpt>
      <trkpt lat="36.8620262145996" lon="-5.17866516113281">
        <ele>554</ele>
        <time>2019-05-11T19:37:03Z</time>
      </trkpt>
      <trkpt lat="36.8620262145996" lon="-5.17865180969238">
        <ele>554</ele>
        <time>2019-05-11T19:37:05Z</time>
      </trkpt>
      <trkpt lat="36.8620300292969" lon="-5.17863321304321">
        <ele>554</ele>
        <time>2019-05-11T19:37:07Z</time>
      </trkpt>
      <trkpt lat="36.8620338439941" lon="-5.1786150932312">
        <ele>554</ele>
        <time>2019-05-11T19:37:09Z</time>
      </trkpt>
      <trkpt lat="36.8620338439941" lon="-5.17860507965088">
        <ele>554</ele>
        <time>2019-05-11T19:37:11Z</time>
      </trkpt>
      <trkpt lat="36.8620376586914" lon="-5.17858791351318">
        <ele>554</ele>
        <time>2019-05-11T19:37:13Z</time>
      </trkpt>
      <trkpt lat="36.8620452880859" lon="-5.17857789993286">
        <ele>554</ele>
        <time>2019-05-11T19:37:15Z</time>
      </trkpt>
      <trkpt lat="36.8620529174805" lon="-5.17857694625854">
        <ele>554</ele>
        <time>2019-05-11T19:37:17Z</time>
      </trkpt>
      <trkpt lat="36.862060546875" lon="-5.17855215072632">
        <ele>554</ele>
        <time>2019-05-11T19:37:19Z</time>
      </trkpt>
      <trkpt lat="36.8620567321777" lon="-5.17853498458862">
        <ele>554</ele>
        <time>2019-05-11T19:37:21Z</time>
      </trkpt>
      <trkpt lat="36.8620643615723" lon="-5.1785101890564">
        <ele>554</ele>
        <time>2019-05-11T19:37:23Z</time>
      </trkpt>
      <trkpt lat="36.8620758056641" lon="-5.17849016189575">
        <ele>554</ele>
        <time>2019-05-11T19:37:25Z</time>
      </trkpt>
      <trkpt lat="36.8620758056641" lon="-5.178466796875">
        <ele>554</ele>
        <time>2019-05-11T19:37:27Z</time>
      </trkpt>
      <trkpt lat="36.8620643615723" lon="-5.17845296859741">
        <ele>554</ele>
        <time>2019-05-11T19:37:30Z</time>
      </trkpt>
      <trkpt lat="36.8620491027832" lon="-5.17844676971436">
        <ele>554</ele>
        <time>2019-05-11T19:37:32Z</time>
      </trkpt>
      <trkpt lat="36.862060546875" lon="-5.17843008041382">
        <ele>552</ele>
        <time>2019-05-11T19:37:34Z</time>
      </trkpt>
      <trkpt lat="36.8620872497559" lon="-5.17841005325317">
        <ele>551</ele>
        <time>2019-05-11T19:37:36Z</time>
      </trkpt>
      <trkpt lat="36.862117767334" lon="-5.17839479446411">
        <ele>549</ele>
        <time>2019-05-11T19:37:38Z</time>
      </trkpt>
      <trkpt lat="36.8621368408203" lon="-5.17838478088379">
        <ele>547</ele>
        <time>2019-05-11T19:37:40Z</time>
      </trkpt>
      <trkpt lat="36.8621482849121" lon="-5.17838001251221">
        <ele>545</ele>
        <time>2019-05-11T19:37:42Z</time>
      </trkpt>
      <trkpt lat="36.8621635437012" lon="-5.17837190628052">
        <ele>541</ele>
        <time>2019-05-11T19:37:44Z</time>
      </trkpt>
      <trkpt lat="36.8621788024902" lon="-5.1783652305603">
        <ele>539</ele>
        <time>2019-05-11T19:37:46Z</time>
      </trkpt>
      <trkpt lat="36.8621826171875" lon="-5.17835187911987">
        <ele>536</ele>
        <time>2019-05-11T19:37:48Z</time>
      </trkpt>
      <trkpt lat="36.8621940612793" lon="-5.1783299446106">
        <ele>534</ele>
        <time>2019-05-11T19:37:50Z</time>
      </trkpt>
      <trkpt lat="36.8621978759766" lon="-5.17831182479858">
        <ele>532</ele>
        <time>2019-05-11T19:37:52Z</time>
      </trkpt>
      <trkpt lat="36.8621978759766" lon="-5.17828321456909">
        <ele>530</ele>
        <time>2019-05-11T19:37:54Z</time>
      </trkpt>
      <trkpt lat="36.862190246582" lon="-5.17826223373413">
        <ele>528</ele>
        <time>2019-05-11T19:37:56Z</time>
      </trkpt>
      <trkpt lat="36.8621864318848" lon="-5.17824506759644">
        <ele>526</ele>
        <time>2019-05-11T19:37:58Z</time>
      </trkpt>
      <trkpt lat="36.8621788024902" lon="-5.17823791503906">
        <ele>524</ele>
        <time>2019-05-11T19:38:00Z</time>
      </trkpt>
      <trkpt lat="36.8621635437012" lon="-5.17822313308716">
        <ele>522</ele>
        <time>2019-05-11T19:38:02Z</time>
      </trkpt>
      <trkpt lat="36.8621559143066" lon="-5.1782078742981">
        <ele>522</ele>
        <time>2019-05-11T19:38:05Z</time>
      </trkpt>
      <trkpt lat="36.8621368408203" lon="-5.17819499969482">
        <ele>522</ele>
        <time>2019-05-11T19:38:07Z</time>
      </trkpt>
      <trkpt lat="36.862117767334" lon="-5.17817687988281">
        <ele>522</ele>
        <time>2019-05-11T19:38:09Z</time>
      </trkpt>
      <trkpt lat="36.8620948791504" lon="-5.17815780639648">
        <ele>522</ele>
        <time>2019-05-11T19:38:11Z</time>
      </trkpt>
      <trkpt lat="36.8620681762695" lon="-5.17813777923584">
        <ele>522</ele>
        <time>2019-05-11T19:38:13Z</time>
      </trkpt>
      <trkpt lat="36.8620452880859" lon="-5.17811679840088">
        <ele>522</ele>
        <time>2019-05-11T19:38:15Z</time>
      </trkpt>
      <trkpt lat="36.8620262145996" lon="-5.17809677124023">
        <ele>522</ele>
        <time>2019-05-11T19:38:17Z</time>
      </trkpt>
      <trkpt lat="36.862003326416" lon="-5.1780800819397">
        <ele>522</ele>
        <time>2019-05-11T19:38:19Z</time>
      </trkpt>
      <trkpt lat="36.8619804382324" lon="-5.17806482315064">
        <ele>522</ele>
        <time>2019-05-11T19:38:21Z</time>
      </trkpt>
      <trkpt lat="36.8619613647461" lon="-5.17804718017578">
        <ele>522</ele>
        <time>2019-05-11T19:38:23Z</time>
      </trkpt>
      <trkpt lat="36.8619384765625" lon="-5.17803192138672">
        <ele>523</ele>
        <time>2019-05-11T19:38:25Z</time>
      </trkpt>
      <trkpt lat="36.8619155883789" lon="-5.17801713943481">
        <ele>523</ele>
        <time>2019-05-11T19:38:27Z</time>
      </trkpt>
      <trkpt lat="36.8618927001953" lon="-5.1779899597168">
        <ele>524</ele>
        <time>2019-05-11T19:38:29Z</time>
      </trkpt>
      <trkpt lat="36.8618698120117" lon="-5.17797708511353">
        <ele>524</ele>
        <time>2019-05-11T19:38:31Z</time>
      </trkpt>
      <trkpt lat="36.8618469238281" lon="-5.17795515060425">
        <ele>525</ele>
        <time>2019-05-11T19:38:33Z</time>
      </trkpt>
      <trkpt lat="36.8618240356445" lon="-5.17793321609497">
        <ele>525</ele>
        <time>2019-05-11T19:38:35Z</time>
      </trkpt>
      <trkpt lat="36.8618049621582" lon="-5.17790794372559">
        <ele>526</ele>
        <time>2019-05-11T19:38:38Z</time>
      </trkpt>
      <trkpt lat="36.8617820739746" lon="-5.17788505554199">
        <ele>527</ele>
        <time>2019-05-11T19:38:40Z</time>
      </trkpt>
      <trkpt lat="36.861759185791" lon="-5.1778621673584">
        <ele>528</ele>
        <time>2019-05-11T19:38:42Z</time>
      </trkpt>
      <trkpt lat="36.8617362976074" lon="-5.17783784866333">
        <ele>529</ele>
        <time>2019-05-11T19:38:44Z</time>
      </trkpt>
      <trkpt lat="36.8617210388184" lon="-5.17781019210815">
        <ele>530</ele>
        <time>2019-05-11T19:38:46Z</time>
      </trkpt>
      <trkpt lat="36.8617057800293" lon="-5.17778015136719">
        <ele>531</ele>
        <time>2019-05-11T19:38:48Z</time>
      </trkpt>
      <trkpt lat="36.8616943359375" lon="-5.17774820327759">
        <ele>532</ele>
        <time>2019-05-11T19:38:50Z</time>
      </trkpt>
      <trkpt lat="36.861686706543" lon="-5.17771482467651">
        <ele>532</ele>
        <time>2019-05-11T19:38:52Z</time>
      </trkpt>
      <trkpt lat="36.8616828918457" lon="-5.17767810821533">
        <ele>533</ele>
        <time>2019-05-11T19:38:54Z</time>
      </trkpt>
      <trkpt lat="36.861686706543" lon="-5.17764282226562">
        <ele>534</ele>
        <time>2019-05-11T19:38:56Z</time>
      </trkpt>
      <trkpt lat="36.8616943359375" lon="-5.17761182785034">
        <ele>535</ele>
        <time>2019-05-11T19:38:58Z</time>
      </trkpt>
      <trkpt lat="36.8617057800293" lon="-5.17758178710938">
        <ele>536</ele>
        <time>2019-05-11T19:39:00Z</time>
      </trkpt>
      <trkpt lat="36.8617248535156" lon="-5.17755699157715">
        <ele>537</ele>
        <time>2019-05-11T19:39:02Z</time>
      </trkpt>
      <trkpt lat="36.8617362976074" lon="-5.17752981185913">
        <ele>537</ele>
        <time>2019-05-11T19:39:04Z</time>
      </trkpt>
      <trkpt lat="36.8617630004883" lon="-5.17749500274658">
        <ele>539</ele>
        <time>2019-05-11T19:39:06Z</time>
      </trkpt>
      <trkpt lat="36.8617782592773" lon="-5.17747688293457">
        <ele>540</ele>
        <time>2019-05-11T19:39:08Z</time>
      </trkpt>
      <trkpt lat="36.8617935180664" lon="-5.17745304107666">
        <ele>541</ele>
        <time>2019-05-11T19:39:10Z</time>
      </trkpt>
      <trkpt lat="36.8618087768555" lon="-5.1774320602417">
        <ele>543</ele>
        <time>2019-05-11T19:39:12Z</time>
      </trkpt>
      <trkpt lat="36.8618240356445" lon="-5.17741203308106">
        <ele>544</ele>
        <time>2019-05-11T19:39:15Z</time>
      </trkpt>
      <trkpt lat="36.8618469238281" lon="-5.17739295959473">
        <ele>545</ele>
        <time>2019-05-11T19:39:17Z</time>
      </trkpt>
      <trkpt lat="36.8618698120117" lon="-5.17737197875977">
        <ele>546</ele>
        <time>2019-05-11T19:39:19Z</time>
      </trkpt>
      <trkpt lat="36.861888885498" lon="-5.17735195159912">
        <ele>546</ele>
        <time>2019-05-11T19:39:21Z</time>
      </trkpt>
      <trkpt lat="36.8619117736816" lon="-5.17733001708984">
        <ele>547</ele>
        <time>2019-05-11T19:39:23Z</time>
      </trkpt>
      <trkpt lat="36.8619270324707" lon="-5.17730522155762">
        <ele>547</ele>
        <time>2019-05-11T19:39:25Z</time>
      </trkpt>
      <trkpt lat="36.861946105957" lon="-5.17727994918823">
        <ele>547</ele>
        <time>2019-05-11T19:39:27Z</time>
      </trkpt>
      <trkpt lat="36.8619651794434" lon="-5.17725706100464">
        <ele>547</ele>
        <time>2019-05-11T19:39:29Z</time>
      </trkpt>
      <trkpt lat="36.8619842529297" lon="-5.17723178863525">
        <ele>547</ele>
        <time>2019-05-11T19:39:31Z</time>
      </trkpt>
      <trkpt lat="36.8619995117188" lon="-5.17720985412598">
        <ele>547</ele>
        <time>2019-05-11T19:39:33Z</time>
      </trkpt>
      <trkpt lat="36.8620185852051" lon="-5.17718505859375">
        <ele>548</ele>
        <time>2019-05-11T19:39:35Z</time>
      </trkpt>
      <trkpt lat="36.8620376586914" lon="-5.17716312408447">
        <ele>548</ele>
        <time>2019-05-11T19:39:37Z</time>
      </trkpt>
      <trkpt lat="36.8620567321777" lon="-5.17714023590088">
        <ele>548</ele>
        <time>2019-05-11T19:39:39Z</time>
      </trkpt>
      <trkpt lat="36.8620872497559" lon="-5.17710304260254">
        <ele>549</ele>
        <time>2019-05-11T19:39:41Z</time>
      </trkpt>
      <trkpt lat="36.8621063232422" lon="-5.17707777023315">
        <ele>549</ele>
        <time>2019-05-11T19:39:43Z</time>
      </trkpt>
      <trkpt lat="36.8621253967285" lon="-5.17705297470093">
        <ele>549</ele>
        <time>2019-05-11T19:39:45Z</time>
      </trkpt>
      <trkpt lat="36.8621444702148" lon="-5.17702722549438">
        <ele>549</ele>
        <time>2019-05-11T19:39:47Z</time>
      </trkpt>
      <trkpt lat="36.8621635437012" lon="-5.17699813842773">
        <ele>549</ele>
        <time>2019-05-11T19:39:50Z</time>
      </trkpt>
      <trkpt lat="36.8621826171875" lon="-5.1769700050354">
        <ele>549</ele>
        <time>2019-05-11T19:39:52Z</time>
      </trkpt>
      <trkpt lat="36.8622016906738" lon="-5.17694187164307">
        <ele>549</ele>
        <time>2019-05-11T19:39:54Z</time>
      </trkpt>
      <trkpt lat="36.8622131347656" lon="-5.1769118309021">
        <ele>549</ele>
        <time>2019-05-11T19:39:56Z</time>
      </trkpt>
      <trkpt lat="36.8622283935547" lon="-5.17688179016113">
        <ele>549</ele>
        <time>2019-05-11T19:39:58Z</time>
      </trkpt>
      <trkpt lat="36.8622436523438" lon="-5.17685317993164">
        <ele>549</ele>
        <time>2019-05-11T19:40:00Z</time>
      </trkpt>
      <trkpt lat="36.8622589111328" lon="-5.17682695388794">
        <ele>549</ele>
        <time>2019-05-11T19:40:02Z</time>
      </trkpt>
      <trkpt lat="36.8622703552246" lon="-5.17679977416992">
        <ele>549</ele>
        <time>2019-05-11T19:40:04Z</time>
      </trkpt>
      <trkpt lat="36.8622856140137" lon="-5.17677307128906">
        <ele>549</ele>
        <time>2019-05-11T19:40:06Z</time>
      </trkpt>
      <trkpt lat="36.8623008728027" lon="-5.17674493789673">
        <ele>549</ele>
        <time>2019-05-11T19:40:08Z</time>
      </trkpt>
      <trkpt lat="36.8623123168945" lon="-5.17671489715576">
        <ele>549</ele>
        <time>2019-05-11T19:40:10Z</time>
      </trkpt>
      <trkpt lat="36.8623237609863" lon="-5.17668294906616">
        <ele>549</ele>
        <time>2019-05-11T19:40:12Z</time>
      </trkpt>
      <trkpt lat="36.8623428344727" lon="-5.17663717269897">
        <ele>549</ele>
        <time>2019-05-11T19:40:14Z</time>
      </trkpt>
      <trkpt lat="36.8623504638672" lon="-5.17660284042358">
        <ele>549</ele>
        <time>2019-05-11T19:40:16Z</time>
      </trkpt>
      <trkpt lat="36.862361907959" lon="-5.17657279968262">
        <ele>549</ele>
        <time>2019-05-11T19:40:18Z</time>
      </trkpt>
      <trkpt lat="36.8623695373535" lon="-5.17654705047607">
        <ele>549</ele>
        <time>2019-05-11T19:40:20Z</time>
      </trkpt>
      <trkpt lat="36.8623733520508" lon="-5.17652320861816">
        <ele>549</ele>
        <time>2019-05-11T19:40:23Z</time>
      </trkpt>
      <trkpt lat="36.8623809814453" lon="-5.1765022277832">
        <ele>549</ele>
        <time>2019-05-11T19:40:25Z</time>
      </trkpt>
      <trkpt lat="36.8623924255371" lon="-5.17647695541382">
        <ele>549</ele>
        <time>2019-05-11T19:40:27Z</time>
      </trkpt>
      <trkpt lat="36.8624038696289" lon="-5.17644786834717">
        <ele>549</ele>
        <time>2019-05-11T19:40:29Z</time>
      </trkpt>
      <trkpt lat="36.8624114990234" lon="-5.17642021179199">
        <ele>549</ele>
        <time>2019-05-11T19:40:31Z</time>
      </trkpt>
      <trkpt lat="36.862419128418" lon="-5.17639303207397">
        <ele>549</ele>
        <time>2019-05-11T19:40:33Z</time>
      </trkpt>
      <trkpt lat="36.8624267578125" lon="-5.17636299133301">
        <ele>549</ele>
        <time>2019-05-11T19:40:35Z</time>
      </trkpt>
      <trkpt lat="36.862434387207" lon="-5.17633295059204">
        <ele>549</ele>
        <time>2019-05-11T19:40:37Z</time>
      </trkpt>
      <trkpt lat="36.8624420166016" lon="-5.17630195617676">
        <ele>549</ele>
        <time>2019-05-11T19:40:39Z</time>
      </trkpt>
      <trkpt lat="36.8624534606934" lon="-5.17627191543579">
        <ele>549</ele>
        <time>2019-05-11T19:40:41Z</time>
      </trkpt>
      <trkpt lat="36.8624610900879" lon="-5.17624187469482">
        <ele>549</ele>
        <time>2019-05-11T19:40:43Z</time>
      </trkpt>
      <trkpt lat="36.8624725341797" lon="-5.17621183395386">
        <ele>549</ele>
        <time>2019-05-11T19:40:45Z</time>
      </trkpt>
      <trkpt lat="36.8624801635742" lon="-5.17618179321289">
        <ele>549</ele>
        <time>2019-05-11T19:40:47Z</time>
      </trkpt>
      <trkpt lat="36.862491607666" lon="-5.17615222930908">
        <ele>549</ele>
        <time>2019-05-11T19:40:49Z</time>
      </trkpt>
      <trkpt lat="36.8625106811523" lon="-5.17610788345337">
        <ele>549</ele>
        <time>2019-05-11T19:40:51Z</time>
      </trkpt>
      <trkpt lat="36.8625183105469" lon="-5.17608022689819">
        <ele>549</ele>
        <time>2019-05-11T19:40:53Z</time>
      </trkpt>
      <trkpt lat="36.8625335693359" lon="-5.17604780197144">
        <ele>549</ele>
        <time>2019-05-11T19:40:55Z</time>
      </trkpt>
      <trkpt lat="36.8625411987305" lon="-5.17601823806763">
        <ele>549</ele>
        <time>2019-05-11T19:40:57Z</time>
      </trkpt>
      <trkpt lat="36.8625526428223" lon="-5.17598819732666">
        <ele>549</ele>
        <time>2019-05-11T19:41:00Z</time>
      </trkpt>
      <trkpt lat="36.8625679016113" lon="-5.17596006393433">
        <ele>549</ele>
        <time>2019-05-11T19:41:02Z</time>
      </trkpt>
      <trkpt lat="36.8625831604004" lon="-5.17593193054199">
        <ele>549</ele>
        <time>2019-05-11T19:41:04Z</time>
      </trkpt>
      <trkpt lat="36.8625946044922" lon="-5.17589998245239">
        <ele>549</ele>
        <time>2019-05-11T19:41:06Z</time>
      </trkpt>
      <trkpt lat="36.8626098632812" lon="-5.17586708068848">
        <ele>549</ele>
        <time>2019-05-11T19:41:08Z</time>
      </trkpt>
      <trkpt lat="36.8626174926758" lon="-5.17583513259888">
        <ele>549</ele>
        <time>2019-05-11T19:41:10Z</time>
      </trkpt>
      <trkpt lat="36.8626289367676" lon="-5.17580509185791">
        <ele>549</ele>
        <time>2019-05-11T19:41:12Z</time>
      </trkpt>
      <trkpt lat="36.8626403808594" lon="-5.17577695846558">
        <ele>549</ele>
        <time>2019-05-11T19:41:14Z</time>
      </trkpt>
      <trkpt lat="36.8626518249512" lon="-5.17574691772461">
        <ele>549</ele>
        <time>2019-05-11T19:41:16Z</time>
      </trkpt>
      <trkpt lat="36.8626594543457" lon="-5.17571496963501">
        <ele>549</ele>
        <time>2019-05-11T19:41:18Z</time>
      </trkpt>
      <trkpt lat="36.8626747131348" lon="-5.17568492889404">
        <ele>549</ele>
        <time>2019-05-11T19:41:20Z</time>
      </trkpt>
      <trkpt lat="36.862678527832" lon="-5.17565202713013">
        <ele>549</ele>
        <time>2019-05-11T19:41:22Z</time>
      </trkpt>
      <trkpt lat="36.8626861572266" lon="-5.17562007904053">
        <ele>549</ele>
        <time>2019-05-11T19:41:24Z</time>
      </trkpt>
      <trkpt lat="36.8626976013184" lon="-5.17557191848755">
        <ele>549</ele>
        <time>2019-05-11T19:41:26Z</time>
      </trkpt>
      <trkpt lat="36.8627014160156" lon="-5.175537109375">
        <ele>549</ele>
        <time>2019-05-11T19:41:28Z</time>
      </trkpt>
      <trkpt lat="36.8627052307129" lon="-5.17550277709961">
        <ele>549</ele>
        <time>2019-05-11T19:41:30Z</time>
      </trkpt>
      <trkpt lat="36.8627090454102" lon="-5.17546987533569">
        <ele>549</ele>
        <time>2019-05-11T19:41:32Z</time>
      </trkpt>
      <trkpt lat="36.8627128601074" lon="-5.17543506622314">
        <ele>549</ele>
        <time>2019-05-11T19:41:35Z</time>
      </trkpt>
      <trkpt lat="36.8627128601074" lon="-5.17539978027344">
        <ele>549</ele>
        <time>2019-05-11T19:41:37Z</time>
      </trkpt>
      <trkpt lat="36.8627128601074" lon="-5.17536497116089">
        <ele>549</ele>
        <time>2019-05-11T19:41:39Z</time>
      </trkpt>
      <trkpt lat="36.8627128601074" lon="-5.17533016204834">
        <ele>549</ele>
        <time>2019-05-11T19:41:41Z</time>
      </trkpt>
      <trkpt lat="36.8627090454102" lon="-5.17529678344727">
        <ele>549</ele>
        <time>2019-05-11T19:41:43Z</time>
      </trkpt>
      <trkpt lat="36.8627052307129" lon="-5.17526483535767">
        <ele>549</ele>
        <time>2019-05-11T19:41:45Z</time>
      </trkpt>
      <trkpt lat="36.8627014160156" lon="-5.17523193359375">
        <ele>549</ele>
        <time>2019-05-11T19:41:47Z</time>
      </trkpt>
      <trkpt lat="36.8626976013184" lon="-5.17519807815552">
        <ele>549</ele>
        <time>2019-05-11T19:41:49Z</time>
      </trkpt>
      <trkpt lat="36.8626899719238" lon="-5.17516708374023">
        <ele>549</ele>
        <time>2019-05-11T19:41:51Z</time>
      </trkpt>
      <trkpt lat="36.8626823425293" lon="-5.175133228302">
        <ele>549</ele>
        <time>2019-05-11T19:41:53Z</time>
      </trkpt>
      <trkpt lat="36.8626747131348" lon="-5.17510223388672">
        <ele>549</ele>
        <time>2019-05-11T19:41:55Z</time>
      </trkpt>
      <trkpt lat="36.8626670837402" lon="-5.17507219314575">
        <ele>549</ele>
        <time>2019-05-11T19:41:57Z</time>
      </trkpt>
      <trkpt lat="36.8626594543457" lon="-5.17504215240478">
        <ele>549</ele>
        <time>2019-05-11T19:41:59Z</time>
      </trkpt>
      <trkpt lat="36.8626441955566" lon="-5.17499780654907">
        <ele>549</ele>
        <time>2019-05-11T19:42:01Z</time>
      </trkpt>
      <trkpt lat="36.8626365661621" lon="-5.1749701499939">
        <ele>549</ele>
        <time>2019-05-11T19:42:03Z</time>
      </trkpt>
      <trkpt lat="36.8626327514648" lon="-5.17494821548462">
        <ele>549</ele>
        <time>2019-05-11T19:42:05Z</time>
      </trkpt>
      <trkpt lat="36.8626327514648" lon="-5.17494487762451">
        <ele>549</ele>
        <time>2019-05-11T19:42:07Z</time>
      </trkpt>
      <trkpt lat="36.8626327514648" lon="-5.17494010925293">
        <ele>549</ele>
        <time>2019-05-11T19:42:09Z</time>
      </trkpt>
      <trkpt lat="36.8626327514648" lon="-5.1749382019043">
        <ele>549</ele>
        <time>2019-05-11T19:42:12Z</time>
      </trkpt>
      <trkpt lat="36.8626289367676" lon="-5.17493486404419">
        <ele>549</ele>
        <time>2019-05-11T19:42:14Z</time>
      </trkpt>
      <trkpt lat="36.8626174926758" lon="-5.17491483688354">
        <ele>549</ele>
        <time>2019-05-11T19:42:16Z</time>
      </trkpt>
      <trkpt lat="36.8626136779785" lon="-5.17490196228027">
        <ele>549</ele>
        <time>2019-05-11T19:42:18Z</time>
      </trkpt>
      <trkpt lat="36.8626136779785" lon="-5.1748948097229">
        <ele>549</ele>
        <time>2019-05-11T19:42:20Z</time>
      </trkpt>
      <trkpt lat="36.8626022338867" lon="-5.17487478256226">
        <ele>549</ele>
        <time>2019-05-11T19:42:22Z</time>
      </trkpt>
      <trkpt lat="36.8625946044922" lon="-5.17484998703003">
        <ele>549</ele>
        <time>2019-05-11T19:42:24Z</time>
      </trkpt>
      <trkpt lat="36.8625793457031" lon="-5.17482280731201">
        <ele>549</ele>
        <time>2019-05-11T19:42:26Z</time>
      </trkpt>
      <trkpt lat="36.8625679016113" lon="-5.17479801177978">
        <ele>549</ele>
        <time>2019-05-11T19:42:28Z</time>
      </trkpt>
      <trkpt lat="36.862548828125" lon="-5.17477178573608">
        <ele>549</ele>
        <time>2019-05-11T19:42:30Z</time>
      </trkpt>
      <trkpt lat="36.8625335693359" lon="-5.17474699020386">
        <ele>549</ele>
        <time>2019-05-11T19:42:32Z</time>
      </trkpt>
      <trkpt lat="36.8625183105469" lon="-5.17471981048584">
        <ele>549</ele>
        <time>2019-05-11T19:42:34Z</time>
      </trkpt>
      <trkpt lat="36.8625030517578" lon="-5.17469310760498">
        <ele>549</ele>
        <time>2019-05-11T19:42:36Z</time>
      </trkpt>
      <trkpt lat="36.8624877929688" lon="-5.17466688156128">
        <ele>549</ele>
        <time>2019-05-11T19:42:38Z</time>
      </trkpt>
      <trkpt lat="36.8624687194824" lon="-5.17462491989136">
        <ele>549</ele>
        <time>2019-05-11T19:42:40Z</time>
      </trkpt>
      <trkpt lat="36.8624534606934" lon="-5.1745982170105">
        <ele>549</ele>
        <time>2019-05-11T19:42:42Z</time>
      </trkpt>
      <trkpt lat="36.8624382019043" lon="-5.1745719909668">
        <ele>549</ele>
        <time>2019-05-11T19:42:44Z</time>
      </trkpt>
      <trkpt lat="36.8624229431152" lon="-5.17454719543457">
        <ele>549</ele>
        <time>2019-05-11T19:42:46Z</time>
      </trkpt>
      <trkpt lat="36.8624038696289" lon="-5.17452478408814">
        <ele>549</ele>
        <time>2019-05-11T19:42:49Z</time>
      </trkpt>
      <trkpt lat="36.8623847961426" lon="-5.17450284957886">
        <ele>549</ele>
        <time>2019-05-11T19:42:51Z</time>
      </trkpt>
      <trkpt lat="36.8623657226562" lon="-5.1744818687439">
        <ele>549</ele>
        <time>2019-05-11T19:42:53Z</time>
      </trkpt>
      <trkpt lat="36.8623466491699" lon="-5.17445802688599">
        <ele>549</ele>
        <time>2019-05-11T19:42:55Z</time>
      </trkpt>
      <trkpt lat="36.8623237609863" lon="-5.17443513870239">
        <ele>549</ele>
        <time>2019-05-11T19:42:57Z</time>
      </trkpt>
      <trkpt lat="36.8623046875" lon="-5.17441320419312">
        <ele>549</ele>
        <time>2019-05-11T19:42:59Z</time>
      </trkpt>
      <trkpt lat="36.8622856140137" lon="-5.17439317703247">
        <ele>549</ele>
        <time>2019-05-11T19:43:01Z</time>
      </trkpt>
      <trkpt lat="36.8622627258301" lon="-5.17436981201172">
        <ele>549</ele>
        <time>2019-05-11T19:43:03Z</time>
      </trkpt>
      <trkpt lat="36.8622436523438" lon="-5.17434787750244">
        <ele>549</ele>
        <time>2019-05-11T19:43:05Z</time>
      </trkpt>
      <trkpt lat="36.8622207641602" lon="-5.1743278503418">
        <ele>549</ele>
        <time>2019-05-11T19:43:07Z</time>
      </trkpt>
      <trkpt lat="36.8622016906738" lon="-5.17430686950684">
        <ele>549</ele>
        <time>2019-05-11T19:43:09Z</time>
      </trkpt>
      <trkpt lat="36.8621788024902" lon="-5.17428684234619">
        <ele>549</ele>
        <time>2019-05-11T19:43:11Z</time>
      </trkpt>
      <trkpt lat="36.8621597290039" lon="-5.17426776885986">
        <ele>549</ele>
        <time>2019-05-11T19:43:13Z</time>
      </trkpt>
      <trkpt lat="36.862133026123" lon="-5.17425298690796">
        <ele>549</ele>
        <time>2019-05-11T19:43:15Z</time>
      </trkpt>
      <trkpt lat="36.8620986938477" lon="-5.17422819137573">
        <ele>549</ele>
        <time>2019-05-11T19:43:17Z</time>
      </trkpt>
      <trkpt lat="36.8620719909668" lon="-5.17421293258667">
        <ele>549</ele>
        <time>2019-05-11T19:43:19Z</time>
      </trkpt>
      <trkpt lat="36.8620491027832" lon="-5.17419719696045">
        <ele>549</ele>
        <time>2019-05-11T19:43:21Z</time>
      </trkpt>
      <trkpt lat="36.8620262145996" lon="-5.17418193817139">
        <ele>549</ele>
        <time>2019-05-11T19:43:23Z</time>
      </trkpt>
      <trkpt lat="36.8619995117188" lon="-5.17416286468506">
        <ele>549</ele>
        <time>2019-05-11T19:43:26Z</time>
      </trkpt>
      <trkpt lat="36.8619766235352" lon="-5.1741452217102">
        <ele>549</ele>
        <time>2019-05-11T19:43:28Z</time>
      </trkpt>
      <trkpt lat="36.8619537353516" lon="-5.17412519454956">
        <ele>549</ele>
        <time>2019-05-11T19:43:30Z</time>
      </trkpt>
      <trkpt lat="36.861930847168" lon="-5.17410516738892">
        <ele>549</ele>
        <time>2019-05-11T19:43:32Z</time>
      </trkpt>
      <trkpt lat="36.8619117736816" lon="-5.17408514022827">
        <ele>549</ele>
        <time>2019-05-11T19:43:34Z</time>
      </trkpt>
      <trkpt lat="36.861888885498" lon="-5.17406320571899">
        <ele>549</ele>
        <time>2019-05-11T19:43:36Z</time>
      </trkpt>
      <trkpt lat="36.8618698120117" lon="-5.17404222488403">
        <ele>549</ele>
        <time>2019-05-11T19:43:38Z</time>
      </trkpt>
      <trkpt lat="36.8618469238281" lon="-5.17402505874634">
        <ele>549</ele>
        <time>2019-05-11T19:43:40Z</time>
      </trkpt>
      <trkpt lat="36.8618240356445" lon="-5.17401313781738">
        <ele>549</ele>
        <time>2019-05-11T19:43:42Z</time>
      </trkpt>
      <trkpt lat="36.8618087768555" lon="-5.17399978637695">
        <ele>549</ele>
        <time>2019-05-11T19:43:44Z</time>
      </trkpt>
      <trkpt lat="36.8617973327637" lon="-5.17399215698242">
        <ele>549</ele>
        <time>2019-05-11T19:43:46Z</time>
      </trkpt>
      <trkpt lat="36.8617820739746" lon="-5.17397499084473">
        <ele>549</ele>
        <time>2019-05-11T19:43:48Z</time>
      </trkpt>
      <trkpt lat="36.8617630004883" lon="-5.17395782470703">
        <ele>550</ele>
        <time>2019-05-11T19:43:50Z</time>
      </trkpt>
      <trkpt lat="36.8617324829102" lon="-5.17393493652344">
        <ele>550</ele>
        <time>2019-05-11T19:43:52Z</time>
      </trkpt>
      <trkpt lat="36.8617172241211" lon="-5.17391300201416">
        <ele>550</ele>
        <time>2019-05-11T19:43:54Z</time>
      </trkpt>
      <trkpt lat="36.8616981506348" lon="-5.17389488220215">
        <ele>550</ele>
        <time>2019-05-11T19:43:56Z</time>
      </trkpt>
      <trkpt lat="36.861686706543" lon="-5.17387294769287">
        <ele>550</ele>
        <time>2019-05-11T19:43:58Z</time>
      </trkpt>
      <trkpt lat="36.8616714477539" lon="-5.17384815216064">
        <ele>550</ele>
        <time>2019-05-11T19:44:01Z</time>
      </trkpt>
      <trkpt lat="36.8616638183594" lon="-5.17382287979126">
        <ele>550</ele>
        <time>2019-05-11T19:44:03Z</time>
      </trkpt>
      <trkpt lat="36.8616485595703" lon="-5.17379713058472">
        <ele>550</ele>
        <time>2019-05-11T19:44:05Z</time>
      </trkpt>
      <trkpt lat="36.8616409301758" lon="-5.17377185821533">
        <ele>550</ele>
        <time>2019-05-11T19:44:07Z</time>
      </trkpt>
      <trkpt lat="36.8616333007812" lon="-5.17374277114868">
        <ele>550</ele>
        <time>2019-05-11T19:44:09Z</time>
      </trkpt>
      <trkpt lat="36.861629486084" lon="-5.17371320724487">
        <ele>550</ele>
        <time>2019-05-11T19:44:11Z</time>
      </trkpt>
      <trkpt lat="36.861629486084" lon="-5.17368316650391">
        <ele>550</ele>
        <time>2019-05-11T19:44:13Z</time>
      </trkpt>
      <trkpt lat="36.8616256713867" lon="-5.17365503311157">
        <ele>550</ele>
        <time>2019-05-11T19:44:15Z</time>
      </trkpt>
      <trkpt lat="36.8616256713867" lon="-5.17363500595093">
        <ele>550</ele>
        <time>2019-05-11T19:44:17Z</time>
      </trkpt>
      <trkpt lat="36.8616256713867" lon="-5.17363214492798">
        <ele>550</ele>
        <time>2019-05-11T19:44:19Z</time>
      </trkpt>
      <trkpt lat="36.861629486084" lon="-5.17363023757935">
        <ele>550</ele>
        <time>2019-05-11T19:44:21Z</time>
      </trkpt>
      <trkpt lat="36.861629486084" lon="-5.17361307144165">
        <ele>550</ele>
        <time>2019-05-11T19:44:23Z</time>
      </trkpt>
      <trkpt lat="36.8616333007812" lon="-5.17359209060669">
        <ele>550</ele>
        <time>2019-05-11T19:44:25Z</time>
      </trkpt>
      <trkpt lat="36.8616485595703" lon="-5.17355489730835">
        <ele>550</ele>
        <time>2019-05-11T19:44:27Z</time>
      </trkpt>
      <trkpt lat="36.8616638183594" lon="-5.17353200912476">
        <ele>550</ele>
        <time>2019-05-11T19:44:29Z</time>
      </trkpt>
      <trkpt lat="36.8616790771484" lon="-5.17351484298706">
        <ele>550</ele>
        <time>2019-05-11T19:44:31Z</time>
      </trkpt>
      <trkpt lat="36.8616943359375" lon="-5.17349720001221">
        <ele>551</ele>
        <time>2019-05-11T19:44:33Z</time>
      </trkpt>
      <trkpt lat="36.8617134094238" lon="-5.17348003387451">
        <ele>551</ele>
        <time>2019-05-11T19:44:36Z</time>
      </trkpt>
      <trkpt lat="36.8617286682129" lon="-5.17345809936523">
        <ele>551</ele>
        <time>2019-05-11T19:44:38Z</time>
      </trkpt>
      <trkpt lat="36.8617477416992" lon="-5.17343521118164">
        <ele>551</ele>
        <time>2019-05-11T19:44:40Z</time>
      </trkpt>
      <trkpt lat="36.8617668151856" lon="-5.17341709136963">
        <ele>551</ele>
        <time>2019-05-11T19:44:42Z</time>
      </trkpt>
      <trkpt lat="36.8617820739746" lon="-5.17339706420898">
        <ele>551</ele>
        <time>2019-05-11T19:44:44Z</time>
      </trkpt>
      <trkpt lat="36.8618011474609" lon="-5.17337703704834">
        <ele>551</ele>
        <time>2019-05-11T19:44:46Z</time>
      </trkpt>
      <trkpt lat="36.8618202209473" lon="-5.17335796356201">
        <ele>551</ele>
        <time>2019-05-11T19:44:48Z</time>
      </trkpt>
      <trkpt lat="36.8618354797363" lon="-5.17333793640137">
        <ele>552</ele>
        <time>2019-05-11T19:44:50Z</time>
      </trkpt>
      <trkpt lat="36.8618507385254" lon="-5.17331790924072">
        <ele>552</ele>
        <time>2019-05-11T19:44:52Z</time>
      </trkpt>
      <trkpt lat="36.8618698120117" lon="-5.17329502105713">
        <ele>553</ele>
        <time>2019-05-11T19:44:54Z</time>
      </trkpt>
      <trkpt lat="36.8618850708008" lon="-5.17327213287354">
        <ele>553</ele>
        <time>2019-05-11T19:44:56Z</time>
      </trkpt>
      <trkpt lat="36.8619041442871" lon="-5.17325210571289">
        <ele>554</ele>
        <time>2019-05-11T19:44:58Z</time>
      </trkpt>
      <trkpt lat="36.8619232177734" lon="-5.17323303222656">
        <ele>554</ele>
        <time>2019-05-11T19:45:00Z</time>
      </trkpt>
      <trkpt lat="36.861946105957" lon="-5.17320013046265">
        <ele>554</ele>
        <time>2019-05-11T19:45:02Z</time>
      </trkpt>
      <trkpt lat="36.8619651794434" lon="-5.173180103302">
        <ele>554</ele>
        <time>2019-05-11T19:45:04Z</time>
      </trkpt>
      <trkpt lat="36.8619842529297" lon="-5.17316007614136">
        <ele>555</ele>
        <time>2019-05-11T19:45:06Z</time>
      </trkpt>
      <trkpt lat="36.8619995117188" lon="-5.17313718795776">
        <ele>555</ele>
        <time>2019-05-11T19:45:08Z</time>
      </trkpt>
      <trkpt lat="36.8620185852051" lon="-5.17311477661133">
        <ele>555</ele>
        <time>2019-05-11T19:45:11Z</time>
      </trkpt>
      <trkpt lat="36.8620376586914" lon="-5.17309522628784">
        <ele>556</ele>
        <time>2019-05-11T19:45:13Z</time>
      </trkpt>
      <trkpt lat="36.8620567321777" lon="-5.1730751991272">
        <ele>556</ele>
        <time>2019-05-11T19:45:15Z</time>
      </trkpt>
      <trkpt lat="36.8620758056641" lon="-5.17305278778076">
        <ele>556</ele>
        <time>2019-05-11T19:45:17Z</time>
      </trkpt>
      <trkpt lat="36.8620948791504" lon="-5.17303323745728">
        <ele>557</ele>
        <time>2019-05-11T19:45:19Z</time>
      </trkpt>
      <trkpt lat="36.8621101379394" lon="-5.17301177978516">
        <ele>557</ele>
        <time>2019-05-11T19:45:21Z</time>
      </trkpt>
      <trkpt lat="36.8621253967285" lon="-5.17298698425293">
        <ele>557</ele>
        <time>2019-05-11T19:45:23Z</time>
      </trkpt>
      <trkpt lat="36.8621444702148" lon="-5.1729621887207">
        <ele>557</ele>
        <time>2019-05-11T19:45:25Z</time>
      </trkpt>
      <trkpt lat="36.8621635437012" lon="-5.17293691635132">
        <ele>557</ele>
        <time>2019-05-11T19:45:27Z</time>
      </trkpt>
      <trkpt lat="36.8621788024902" lon="-5.17291021347046">
        <ele>557</ele>
        <time>2019-05-11T19:45:29Z</time>
      </trkpt>
      <trkpt lat="36.8621978759766" lon="-5.17288684844971">
        <ele>557</ele>
        <time>2019-05-11T19:45:31Z</time>
      </trkpt>
      <trkpt lat="36.8622169494629" lon="-5.17286491394043">
        <ele>557</ele>
        <time>2019-05-11T19:45:33Z</time>
      </trkpt>
      <trkpt lat="36.862232208252" lon="-5.17284202575684">
        <ele>557</ele>
        <time>2019-05-11T19:45:35Z</time>
      </trkpt>
      <trkpt lat="36.8622398376465" lon="-5.1728048324585">
        <ele>557</ele>
        <time>2019-05-11T19:45:37Z</time>
      </trkpt>
      <trkpt lat="36.8622512817383" lon="-5.17278003692627">
        <ele>557</ele>
        <time>2019-05-11T19:45:39Z</time>
      </trkpt>
      <trkpt lat="36.8622627258301" lon="-5.17275714874268">
        <ele>558</ele>
        <time>2019-05-11T19:45:41Z</time>
      </trkpt>
      <trkpt lat="36.8622665405273" lon="-5.17272806167603">
        <ele>558</ele>
        <time>2019-05-11T19:45:43Z</time>
      </trkpt>
      <trkpt lat="36.8622817993164" lon="-5.17270517349243">
        <ele>558</ele>
        <time>2019-05-11T19:45:46Z</time>
      </trkpt>
      <trkpt lat="36.8622970581055" lon="-5.17268180847168">
        <ele>558</ele>
        <time>2019-05-11T19:45:48Z</time>
      </trkpt>
      <trkpt lat="36.8623085021973" lon="-5.17265701293945">
        <ele>558</ele>
        <time>2019-05-11T19:45:50Z</time>
      </trkpt>
      <trkpt lat="36.8623237609863" lon="-5.17263221740723">
        <ele>558</ele>
        <time>2019-05-11T19:45:52Z</time>
      </trkpt>
      <trkpt lat="36.8623352050781" lon="-5.17261219024658">
        <ele>558</ele>
        <time>2019-05-11T19:45:54Z</time>
      </trkpt>
      <trkpt lat="36.8623275756836" lon="-5.17259311676025">
        <ele>558</ele>
        <time>2019-05-11T19:45:56Z</time>
      </trkpt>
      <trkpt lat="36.8623085021973" lon="-5.17257499694824">
        <ele>558</ele>
        <time>2019-05-11T19:45:58Z</time>
      </trkpt>
      <trkpt lat="36.8622894287109" lon="-5.17256021499634">
        <ele>558</ele>
        <time>2019-05-11T19:46:00Z</time>
      </trkpt>
      <trkpt lat="36.8622703552246" lon="-5.17254686355591">
        <ele>558</ele>
        <time>2019-05-11T19:46:02Z</time>
      </trkpt>
      <trkpt lat="36.8622550964356" lon="-5.172532081604">
        <ele>558</ele>
        <time>2019-05-11T19:46:04Z</time>
      </trkpt>
      <trkpt lat="36.8622398376465" lon="-5.17251777648926">
        <ele>558</ele>
        <time>2019-05-11T19:46:06Z</time>
      </trkpt>
      <trkpt lat="36.8622245788574" lon="-5.17250490188599">
        <ele>558</ele>
        <time>2019-05-11T19:46:08Z</time>
      </trkpt>
      <trkpt lat="36.8622131347656" lon="-5.17248821258545">
        <ele>558</ele>
        <time>2019-05-11T19:46:10Z</time>
      </trkpt>
      <trkpt lat="36.8621940612793" lon="-5.17247676849365">
        <ele>558</ele>
        <time>2019-05-11T19:46:12Z</time>
      </trkpt>
      <trkpt lat="36.8621711730957" lon="-5.17245817184448">
        <ele>558</ele>
        <time>2019-05-11T19:46:14Z</time>
      </trkpt>
      <trkpt lat="36.8621597290039" lon="-5.17244720458984">
        <ele>558</ele>
        <time>2019-05-11T19:46:16Z</time>
      </trkpt>
      <trkpt lat="36.8621444702148" lon="-5.17243719100952">
        <ele>558</ele>
        <time>2019-05-11T19:46:18Z</time>
      </trkpt>
      <trkpt lat="36.862133026123" lon="-5.17242288589478">
        <ele>558</ele>
        <time>2019-05-11T19:46:20Z</time>
      </trkpt>
      <trkpt lat="36.862117767334" lon="-5.17241191864014">
        <ele>558</ele>
        <time>2019-05-11T19:46:23Z</time>
      </trkpt>
      <trkpt lat="36.8621101379394" lon="-5.17239999771118">
        <ele>558</ele>
        <time>2019-05-11T19:46:25Z</time>
      </trkpt>
      <trkpt lat="36.8620986938477" lon="-5.1724100112915">
        <ele>558</ele>
        <time>2019-05-11T19:46:27Z</time>
      </trkpt>
      <trkpt lat="36.8620872497559" lon="-5.17242813110352">
        <ele>558</ele>
        <time>2019-05-11T19:46:29Z</time>
      </trkpt>
      <trkpt lat="36.8620719909668" lon="-5.17244720458984">
        <ele>558</ele>
        <time>2019-05-11T19:46:31Z</time>
      </trkpt>
      <trkpt lat="36.8620643615723" lon="-5.17246198654175">
        <ele>558</ele>
        <time>2019-05-11T19:46:33Z</time>
      </trkpt>
      <trkpt lat="36.8620529174805" lon="-5.17247295379639">
        <ele>558</ele>
        <time>2019-05-11T19:46:35Z</time>
      </trkpt>
      <trkpt lat="36.8620414733887" lon="-5.17247295379639">
        <ele>558</ele>
        <time>2019-05-11T19:46:37Z</time>
      </trkpt>
      <trkpt lat="36.8620414733887" lon="-5.17246198654175">
        <ele>558</ele>
        <time>2019-05-11T19:46:39Z</time>
      </trkpt>
      <trkpt lat="36.8620414733887" lon="-5.17245292663574">
        <ele>558</ele>
        <time>2019-05-11T19:46:41Z</time>
      </trkpt>
      <trkpt lat="36.8620414733887" lon="-5.17243814468384">
        <ele>558</ele>
        <time>2019-05-11T19:46:43Z</time>
      </trkpt>
      <trkpt lat="36.8620452880859" lon="-5.17242479324341">
        <ele>558</ele>
        <time>2019-05-11T19:46:45Z</time>
      </trkpt>
      <trkpt lat="36.8620452880859" lon="-5.17241811752319">
        <ele>558</ele>
        <time>2019-05-11T19:46:47Z</time>
      </trkpt>
      <trkpt lat="36.8620414733887" lon="-5.17239809036255">
        <ele>558</ele>
        <time>2019-05-11T19:46:49Z</time>
      </trkpt>
      <trkpt lat="36.8620452880859" lon="-5.17238998413086">
        <ele>558</ele>
        <time>2019-05-11T19:46:51Z</time>
      </trkpt>
      <trkpt lat="36.8620452880859" lon="-5.17238187789917">
        <ele>558</ele>
        <time>2019-05-11T19:46:53Z</time>
      </trkpt>
      <trkpt lat="36.8620491027832" lon="-5.17236518859863">
        <ele>558</ele>
        <time>2019-05-11T19:46:55Z</time>
      </trkpt>
      <trkpt lat="36.8620567321777" lon="-5.1723427772522">
        <ele>558</ele>
        <time>2019-05-11T19:46:58Z</time>
      </trkpt>
      <trkpt lat="36.8620681762695" lon="-5.17232179641724">
        <ele>558</ele>
        <time>2019-05-11T19:47:00Z</time>
      </trkpt>
      <trkpt lat="36.8620796203613" lon="-5.17229795455933">
        <ele>558</ele>
        <time>2019-05-11T19:47:02Z</time>
      </trkpt>
      <trkpt lat="36.8620872497559" lon="-5.17227697372436">
        <ele>558</ele>
        <time>2019-05-11T19:47:04Z</time>
      </trkpt>
      <trkpt lat="36.8621025085449" lon="-5.17224979400635">
        <ele>558</ele>
        <time>2019-05-11T19:47:06Z</time>
      </trkpt>
      <trkpt lat="36.8621101379394" lon="-5.17222785949707">
        <ele>558</ele>
        <time>2019-05-11T19:47:08Z</time>
      </trkpt>
      <trkpt lat="36.8621253967285" lon="-5.1722149848938">
        <ele>558</ele>
        <time>2019-05-11T19:47:10Z</time>
      </trkpt>
      <trkpt lat="36.8621444702148" lon="-5.17219305038452">
        <ele>558</ele>
        <time>2019-05-11T19:47:12Z</time>
      </trkpt>
      <trkpt lat="36.8621559143066" lon="-5.17217302322388">
        <ele>557</ele>
        <time>2019-05-11T19:47:14Z</time>
      </trkpt>
      <trkpt lat="36.8621673583984" lon="-5.17215776443481">
        <ele>557</ele>
        <time>2019-05-11T19:47:16Z</time>
      </trkpt>
      <trkpt lat="36.8621788024902" lon="-5.17213678359985">
        <ele>556</ele>
        <time>2019-05-11T19:47:18Z</time>
      </trkpt>
      <trkpt lat="36.8621978759766" lon="-5.17211294174194">
        <ele>556</ele>
        <time>2019-05-11T19:47:20Z</time>
      </trkpt>
      <trkpt lat="36.8622093200684" lon="-5.17209005355835">
        <ele>556</ele>
        <time>2019-05-11T19:47:22Z</time>
      </trkpt>
      <trkpt lat="36.862232208252" lon="-5.17205190658569">
        <ele>555</ele>
        <time>2019-05-11T19:47:24Z</time>
      </trkpt>
      <trkpt lat="36.862247467041" lon="-5.17202281951904">
        <ele>555</ele>
        <time>2019-05-11T19:47:26Z</time>
      </trkpt>
      <trkpt lat="36.8622627258301" lon="-5.1719970703125">
        <ele>555</ele>
        <time>2019-05-11T19:47:28Z</time>
      </trkpt>
      <trkpt lat="36.8622779846191" lon="-5.17196702957153">
        <ele>555</ele>
        <time>2019-05-11T19:47:30Z</time>
      </trkpt>
      <trkpt lat="36.8622932434082" lon="-5.17193794250488">
        <ele>555</ele>
        <time>2019-05-11T19:47:33Z</time>
      </trkpt>
      <trkpt lat="36.8623085021973" lon="-5.17191219329834">
        <ele>555</ele>
        <time>2019-05-11T19:47:35Z</time>
      </trkpt>
      <trkpt lat="36.8623237609863" lon="-5.17188215255737">
        <ele>555</ele>
        <time>2019-05-11T19:47:37Z</time>
      </trkpt>
      <trkpt lat="36.8623390197754" lon="-5.17185497283936">
        <ele>555</ele>
        <time>2019-05-11T19:47:39Z</time>
      </trkpt>
      <trkpt lat="36.8623542785644" lon="-5.17182779312134">
        <ele>555</ele>
        <time>2019-05-11T19:47:41Z</time>
      </trkpt>
      <trkpt lat="36.8623695373535" lon="-5.1718020439148">
        <ele>555</ele>
        <time>2019-05-11T19:47:43Z</time>
      </trkpt>
      <trkpt lat="36.8623847961426" lon="-5.17177677154541">
        <ele>555</ele>
        <time>2019-05-11T19:47:45Z</time>
      </trkpt>
      <trkpt lat="36.8623962402344" lon="-5.17175006866455">
        <ele>555</ele>
        <time>2019-05-11T19:47:47Z</time>
      </trkpt>
      <trkpt lat="36.8624114990234" lon="-5.17172002792358">
        <ele>555</ele>
        <time>2019-05-11T19:47:49Z</time>
      </trkpt>
      <trkpt lat="36.8624305725098" lon="-5.17168998718262">
        <ele>555</ele>
        <time>2019-05-11T19:47:51Z</time>
      </trkpt>
      <trkpt lat="36.8624458312988" lon="-5.1716628074646">
        <ele>555</ele>
        <time>2019-05-11T19:47:53Z</time>
      </trkpt>
      <trkpt lat="36.8624649047852" lon="-5.17163705825806">
        <ele>555</ele>
        <time>2019-05-11T19:47:55Z</time>
      </trkpt>
      <trkpt lat="36.8624801635742" lon="-5.17161178588867">
        <ele>555</ele>
        <time>2019-05-11T19:47:57Z</time>
      </trkpt>
      <trkpt lat="36.8625030517578" lon="-5.17157506942749">
        <ele>555</ele>
        <time>2019-05-11T19:47:59Z</time>
      </trkpt>
      <trkpt lat="36.8625183105469" lon="-5.1715521812439">
        <ele>555</ele>
        <time>2019-05-11T19:48:01Z</time>
      </trkpt>
      <trkpt lat="36.8625335693359" lon="-5.17152690887451">
        <ele>555</ele>
        <time>2019-05-11T19:48:03Z</time>
      </trkpt>
      <trkpt lat="36.8625411987305" lon="-5.17150211334228">
        <ele>555</ele>
        <time>2019-05-11T19:48:05Z</time>
      </trkpt>
      <trkpt lat="36.8625564575195" lon="-5.17148017883301">
        <ele>555</ele>
        <time>2019-05-11T19:48:08Z</time>
      </trkpt>
      <trkpt lat="36.8625602722168" lon="-5.17145776748657">
        <ele>555</ele>
        <time>2019-05-11T19:48:10Z</time>
      </trkpt>
      <trkpt lat="36.8625679016113" lon="-5.17144298553467">
        <ele>555</ele>
        <time>2019-05-11T19:48:12Z</time>
      </trkpt>
      <trkpt lat="36.8625679016113" lon="-5.17144203186035">
        <ele>555</ele>
        <time>2019-05-11T19:48:14Z</time>
      </trkpt>
      <trkpt lat="36.8625679016113" lon="-5.17144012451172">
        <ele>555</ele>
        <time>2019-05-11T19:48:16Z</time>
      </trkpt>
      <trkpt lat="36.8625679016113" lon="-5.17143821716309">
        <ele>555</ele>
        <time>2019-05-11T19:48:18Z</time>
      </trkpt>
      <trkpt lat="36.8625679016113" lon="-5.17143678665161">
        <ele>555</ele>
        <time>2019-05-11T19:48:20Z</time>
      </trkpt>
      <trkpt lat="36.8625679016113" lon="-5.17143487930298">
        <ele>555</ele>
        <time>2019-05-11T19:48:22Z</time>
      </trkpt>
      <trkpt lat="36.8625679016113" lon="-5.17143487930298">
        <ele>555</ele>
        <time>2019-05-11T19:48:24Z</time>
      </trkpt>
      <trkpt lat="36.8625717163086" lon="-5.17143297195435">
        <ele>555</ele>
        <time>2019-05-11T19:48:26Z</time>
      </trkpt>
      <trkpt lat="36.8625717163086" lon="-5.17143297195435">
        <ele>555</ele>
        <time>2019-05-11T19:48:28Z</time>
      </trkpt>
      <trkpt lat="36.8625717163086" lon="-5.17143201828003">
        <ele>555</ele>
        <time>2019-05-11T19:48:30Z</time>
      </trkpt>
      <trkpt lat="36.8625717163086" lon="-5.17143201828003">
        <ele>555</ele>
        <time>2019-05-11T19:48:32Z</time>
      </trkpt>
      <trkpt lat="36.8625717163086" lon="-5.17143201828003">
        <ele>555</ele>
        <time>2019-05-11T19:48:34Z</time>
      </trkpt>
      <trkpt lat="36.8625717163086" lon="-5.1714301109314">
        <ele>555</ele>
        <time>2019-05-11T19:48:36Z</time>
      </trkpt>
      <trkpt lat="36.8625717163086" lon="-5.1714301109314">
        <ele>555</ele>
        <time>2019-05-11T19:48:38Z</time>
      </trkpt>
      <trkpt lat="36.8625717163086" lon="-5.17142820358276">
        <ele>555</ele>
        <time>2019-05-11T19:48:40Z</time>
      </trkpt>
      <trkpt lat="36.8625755310059" lon="-5.17142820358276">
        <ele>555</ele>
        <time>2019-05-11T19:48:42Z</time>
      </trkpt>
      <trkpt lat="36.8625755310059" lon="-5.17142820358276">
        <ele>555</ele>
        <time>2019-05-11T19:48:44Z</time>
      </trkpt>
      <trkpt lat="36.8625755310059" lon="-5.1714301109314">
        <ele>555</ele>
        <time>2019-05-11T19:48:46Z</time>
      </trkpt>
      <trkpt lat="36.8625755310059" lon="-5.17142295837402">
        <ele>555</ele>
        <time>2019-05-11T19:48:48Z</time>
      </trkpt>
      <trkpt lat="36.8625793457031" lon="-5.17142200469971">
        <ele>555</ele>
        <time>2019-05-11T19:48:50Z</time>
      </trkpt>
      <trkpt lat="36.8625793457031" lon="-5.17142486572266">
        <ele>555</ele>
        <time>2019-05-11T19:48:52Z</time>
      </trkpt>
      <trkpt lat="36.8625793457031" lon="-5.17143678665161">
        <ele>555</ele>
        <time>2019-05-11T19:48:54Z</time>
      </trkpt>
      <trkpt lat="36.8625793457031" lon="-5.17143821716309">
        <ele>556</ele>
        <time>2019-05-11T19:48:56Z</time>
      </trkpt>
      <trkpt lat="36.8625793457031" lon="-5.17143821716309">
        <ele>556</ele>
        <time>2019-05-11T19:48:58Z</time>
      </trkpt>
      <trkpt lat="36.8625793457031" lon="-5.17144012451172">
        <ele>556</ele>
        <time>2019-05-11T19:49:01Z</time>
      </trkpt>
      <trkpt lat="36.8625793457031" lon="-5.17144203186035">
        <ele>556</ele>
        <time>2019-05-11T19:49:03Z</time>
      </trkpt>
      <trkpt lat="36.8625755310059" lon="-5.17144203186035">
        <ele>556</ele>
        <time>2019-05-11T19:49:05Z</time>
      </trkpt>
      <trkpt lat="36.8625793457031" lon="-5.17143821716309">
        <ele>556</ele>
        <time>2019-05-11T19:49:07Z</time>
      </trkpt>
      <trkpt lat="36.8625907897949" lon="-5.17142486572266">
        <ele>556</ele>
        <time>2019-05-11T19:49:09Z</time>
      </trkpt>
      <trkpt lat="36.8625984191894" lon="-5.17140293121338">
        <ele>556</ele>
        <time>2019-05-11T19:49:11Z</time>
      </trkpt>
      <trkpt lat="36.862606048584" lon="-5.17137718200684">
        <ele>556</ele>
        <time>2019-05-11T19:49:13Z</time>
      </trkpt>
      <trkpt lat="36.8626098632812" lon="-5.17135000228882">
        <ele>556</ele>
        <time>2019-05-11T19:49:15Z</time>
      </trkpt>
      <trkpt lat="36.862606048584" lon="-5.17131519317627">
        <ele>556</ele>
        <time>2019-05-11T19:49:17Z</time>
      </trkpt>
      <trkpt lat="36.862606048584" lon="-5.1712818145752">
        <ele>556</ele>
        <time>2019-05-11T19:49:19Z</time>
      </trkpt>
      <trkpt lat="36.8625907897949" lon="-5.17125988006592">
        <ele>556</ele>
        <time>2019-05-11T19:49:21Z</time>
      </trkpt>
      <trkpt lat="36.8625831604004" lon="-5.17122793197632">
        <ele>556</ele>
        <time>2019-05-11T19:49:23Z</time>
      </trkpt>
      <trkpt lat="36.8625717163086" lon="-5.17120218276978">
        <ele>556</ele>
        <time>2019-05-11T19:49:25Z</time>
      </trkpt>
      <trkpt lat="36.8625602722168" lon="-5.17117500305176">
        <ele>556</ele>
        <time>2019-05-11T19:49:27Z</time>
      </trkpt>
      <trkpt lat="36.8625411987305" lon="-5.17114782333374">
        <ele>556</ele>
        <time>2019-05-11T19:49:29Z</time>
      </trkpt>
      <trkpt lat="36.8625144958496" lon="-5.1711220741272">
        <ele>556</ele>
        <time>2019-05-11T19:49:31Z</time>
      </trkpt>
      <trkpt lat="36.862491607666" lon="-5.1711049079895">
        <ele>556</ele>
        <time>2019-05-11T19:49:33Z</time>
      </trkpt>
      <trkpt lat="36.8624687194824" lon="-5.17109489440918">
        <ele>556</ele>
        <time>2019-05-11T19:49:35Z</time>
      </trkpt>
      <trkpt lat="36.8624572753906" lon="-5.17109680175781">
        <ele>556</ele>
        <time>2019-05-11T19:49:37Z</time>
      </trkpt>
      <trkpt lat="36.8624382019043" lon="-5.17111778259277">
        <ele>556</ele>
        <time>2019-05-11T19:49:40Z</time>
      </trkpt>
      <trkpt lat="36.862419128418" lon="-5.1711277961731">
        <ele>556</ele>
        <time>2019-05-11T19:49:42Z</time>
      </trkpt>
      <trkpt lat="36.8623962402344" lon="-5.1711220741272">
        <ele>556</ele>
        <time>2019-05-11T19:49:44Z</time>
      </trkpt>
      <trkpt lat="36.862377166748" lon="-5.1711049079895">
        <ele>556</ele>
        <time>2019-05-11T19:49:46Z</time>
      </trkpt>
      <trkpt lat="36.8623657226562" lon="-5.17108488082886">
        <ele>556</ele>
        <time>2019-05-11T19:49:48Z</time>
      </trkpt>
      <trkpt lat="36.8623428344727" lon="-5.17106008529663">
        <ele>556</ele>
        <time>2019-05-11T19:49:50Z</time>
      </trkpt>
      <trkpt lat="36.8623199462891" lon="-5.17104196548462">
        <ele>556</ele>
        <time>2019-05-11T19:49:52Z</time>
      </trkpt>
      <trkpt lat="36.8623046875" lon="-5.17103290557861">
        <ele>556</ele>
        <time>2019-05-11T19:49:54Z</time>
      </trkpt>
      <trkpt lat="36.8622817993164" lon="-5.17102718353272">
        <ele>556</ele>
        <time>2019-05-11T19:49:56Z</time>
      </trkpt>
      <trkpt lat="36.8622665405273" lon="-5.17102003097534">
        <ele>556</ele>
        <time>2019-05-11T19:49:58Z</time>
      </trkpt>
      <trkpt lat="36.862247467041" lon="-5.17101001739502">
        <ele>556</ele>
        <time>2019-05-11T19:50:00Z</time>
      </trkpt>
      <trkpt lat="36.8622245788574" lon="-5.17100286483765">
        <ele>556</ele>
        <time>2019-05-11T19:50:02Z</time>
      </trkpt>
      <trkpt lat="36.8621978759766" lon="-5.17101001739502">
        <ele>556</ele>
        <time>2019-05-11T19:50:04Z</time>
      </trkpt>
      <trkpt lat="36.8621788024902" lon="-5.17101716995239">
        <ele>556</ele>
        <time>2019-05-11T19:50:06Z</time>
      </trkpt>
      <trkpt lat="36.8621635437012" lon="-5.1710319519043">
        <ele>556</ele>
        <time>2019-05-11T19:50:08Z</time>
      </trkpt>
      <trkpt lat="36.8621597290039" lon="-5.17105197906494">
        <ele>556</ele>
        <time>2019-05-11T19:50:10Z</time>
      </trkpt>
      <trkpt lat="36.8621559143066" lon="-5.17106485366821">
        <ele>556</ele>
        <time>2019-05-11T19:50:13Z</time>
      </trkpt>
      <trkpt lat="36.8621559143066" lon="-5.17108011245728">
        <ele>556</ele>
        <time>2019-05-11T19:50:15Z</time>
      </trkpt>
      <trkpt lat="36.8621635437012" lon="-5.1710901260376">
        <ele>556</ele>
        <time>2019-05-11T19:50:17Z</time>
      </trkpt>
      <trkpt lat="36.8621711730957" lon="-5.17109823226929">
        <ele>556</ele>
        <time>2019-05-11T19:50:19Z</time>
      </trkpt>
      <trkpt lat="36.8621788024902" lon="-5.17110776901245">
        <ele>556</ele>
        <time>2019-05-11T19:50:21Z</time>
      </trkpt>
      <trkpt lat="36.8621864318848" lon="-5.17111206054688">
        <ele>556</ele>
        <time>2019-05-11T19:50:23Z</time>
      </trkpt>
      <trkpt lat="36.862190246582" lon="-5.17111492156982">
        <ele>556</ele>
        <time>2019-05-11T19:50:25Z</time>
      </trkpt>
      <trkpt lat="36.8621940612793" lon="-5.17111682891846">
        <ele>556</ele>
        <time>2019-05-11T19:50:27Z</time>
      </trkpt>
      <trkpt lat="36.8621940612793" lon="-5.17111492156982">
        <ele>556</ele>
        <time>2019-05-11T19:50:29Z</time>
      </trkpt>
      <trkpt lat="36.8622016906738" lon="-5.17111682891846">
        <ele>556</ele>
        <time>2019-05-11T19:50:31Z</time>
      </trkpt>
      <trkpt lat="36.8622016906738" lon="-5.1711220741272">
        <ele>556</ele>
        <time>2019-05-11T19:50:33Z</time>
      </trkpt>
      <trkpt lat="36.8621978759766" lon="-5.1711220741272">
        <ele>556</ele>
        <time>2019-05-11T19:50:35Z</time>
      </trkpt>
      <trkpt lat="36.862190246582" lon="-5.17112302780151">
        <ele>556</ele>
        <time>2019-05-11T19:50:37Z</time>
      </trkpt>
      <trkpt lat="36.862190246582" lon="-5.17112493515015">
        <ele>556</ele>
        <time>2019-05-11T19:50:39Z</time>
      </trkpt>
      <trkpt lat="36.862190246582" lon="-5.1711277961731">
        <ele>556</ele>
        <time>2019-05-11T19:50:41Z</time>
      </trkpt>
      <trkpt lat="36.8621940612793" lon="-5.17114210128784">
        <ele>556</ele>
        <time>2019-05-11T19:50:43Z</time>
      </trkpt>
      <trkpt lat="36.8621978759766" lon="-5.17115020751953">
        <ele>556</ele>
        <time>2019-05-11T19:50:45Z</time>
      </trkpt>
      <trkpt lat="36.8622055053711" lon="-5.17115783691406">
        <ele>556</ele>
        <time>2019-05-11T19:50:47Z</time>
      </trkpt>
      <trkpt lat="36.8622055053711" lon="-5.17117500305176">
        <ele>556</ele>
        <time>2019-05-11T19:50:49Z</time>
      </trkpt>
      <trkpt lat="36.8622055053711" lon="-5.17118215560913">
        <ele>556</ele>
        <time>2019-05-11T19:50:51Z</time>
      </trkpt>
      <trkpt lat="36.8622016906738" lon="-5.17117786407471">
        <ele>556</ele>
        <time>2019-05-11T19:50:54Z</time>
      </trkpt>
      <trkpt lat="36.8622093200684" lon="-5.17118215560913">
        <ele>556</ele>
        <time>2019-05-11T19:50:56Z</time>
      </trkpt>
      <trkpt lat="36.8622131347656" lon="-5.17118692398071">
        <ele>556</ele>
        <time>2019-05-11T19:50:58Z</time>
      </trkpt>
      <trkpt lat="36.8622131347656" lon="-5.17118787765503">
        <ele>556</ele>
        <time>2019-05-11T19:51:00Z</time>
      </trkpt>
      <trkpt lat="36.8622131347656" lon="-5.17118787765503">
        <ele>556</ele>
        <time>2019-05-11T19:51:02Z</time>
      </trkpt>
      <trkpt lat="36.8622093200684" lon="-5.17118978500366">
        <ele>556</ele>
        <time>2019-05-11T19:51:04Z</time>
      </trkpt>
      <trkpt lat="36.8622093200684" lon="-5.17119312286377">
        <ele>556</ele>
        <time>2019-05-11T19:51:06Z</time>
      </trkpt>
      <trkpt lat="36.8622093200684" lon="-5.17119693756104">
        <ele>556</ele>
        <time>2019-05-11T19:51:08Z</time>
      </trkpt>
      <trkpt lat="36.8622016906738" lon="-5.17120504379272">
        <ele>556</ele>
        <time>2019-05-11T19:51:10Z</time>
      </trkpt>
      <trkpt lat="36.8622016906738" lon="-5.17121696472168">
        <ele>556</ele>
        <time>2019-05-11T19:51:12Z</time>
      </trkpt>
      <trkpt lat="36.8621864318848" lon="-5.17122220993042">
        <ele>556</ele>
        <time>2019-05-11T19:51:14Z</time>
      </trkpt>
      <trkpt lat="36.8621711730957" lon="-5.17122220993042">
        <ele>556</ele>
        <time>2019-05-11T19:51:16Z</time>
      </trkpt>
      <trkpt lat="36.8621711730957" lon="-5.17123222351074">
        <ele>557</ele>
        <time>2019-05-11T19:51:18Z</time>
      </trkpt>
      <trkpt lat="36.8621711730957" lon="-5.1712532043457">
        <ele>557</ele>
        <time>2019-05-11T19:51:20Z</time>
      </trkpt>
      <trkpt lat="36.8621788024902" lon="-5.17126989364624">
        <ele>557</ele>
        <time>2019-05-11T19:51:22Z</time>
      </trkpt>
      <trkpt lat="36.8621711730957" lon="-5.17129516601562">
        <ele>557</ele>
        <time>2019-05-11T19:51:24Z</time>
      </trkpt>
      <trkpt lat="36.8621711730957" lon="-5.17129802703857">
        <ele>558</ele>
        <time>2019-05-11T19:51:26Z</time>
      </trkpt>
      <trkpt lat="36.8621711730957" lon="-5.17130184173584">
        <ele>558</ele>
        <time>2019-05-11T19:51:28Z</time>
      </trkpt>
      <trkpt lat="36.8621711730957" lon="-5.17130279541016">
        <ele>558</ele>
        <time>2019-05-11T19:51:30Z</time>
      </trkpt>
      <trkpt lat="36.8621711730957" lon="-5.17130517959595">
        <ele>559</ele>
        <time>2019-05-11T19:51:35Z</time>
      </trkpt>
      <trkpt lat="36.862174987793" lon="-5.17130517959595">
        <ele>559</ele>
        <time>2019-05-11T19:51:37Z</time>
      </trkpt>
      <trkpt lat="36.8621788024902" lon="-5.17130279541016">
        <ele>559</ele>
        <time>2019-05-11T19:51:39Z</time>
      </trkpt>
      <trkpt lat="36.8621788024902" lon="-5.17130279541016">
        <ele>559</ele>
        <time>2019-05-11T19:51:41Z</time>
      </trkpt>
      <trkpt lat="36.8621826171875" lon="-5.17130279541016">
        <ele>559</ele>
        <time>2019-05-11T19:51:43Z</time>
      </trkpt>
      <trkpt lat="36.8621826171875" lon="-5.17130184173584">
        <ele>560</ele>
        <time>2019-05-11T19:51:45Z</time>
      </trkpt>
      <trkpt lat="36.8621864318848" lon="-5.17130279541016">
        <ele>561</ele>
        <time>2019-05-11T19:51:47Z</time>
      </trkpt>
      <trkpt lat="36.862190246582" lon="-5.17130184173584">
        <ele>564</ele>
        <time>2019-05-11T19:51:53Z</time>
      </trkpt>
      <trkpt lat="36.862190246582" lon="-5.17129993438721">
        <ele>564</ele>
        <time>2019-05-11T19:51:55Z</time>
      </trkpt>
      <trkpt lat="36.862190246582" lon="-5.17129802703857">
        <ele>564</ele>
        <time>2019-05-11T19:51:57Z</time>
      </trkpt>
      <trkpt lat="36.862190246582" lon="-5.17129993438721">
        <ele>564</ele>
        <time>2019-05-11T19:51:59Z</time>
      </trkpt>
      <trkpt lat="36.8621940612793" lon="-5.17129993438721">
        <ele>564</ele>
        <time>2019-05-11T19:52:01Z</time>
      </trkpt>
      <trkpt lat="36.8621940612793" lon="-5.17129802703857">
        <ele>565</ele>
        <time>2019-05-11T19:52:03Z</time>
      </trkpt>
      <trkpt lat="36.8621940612793" lon="-5.17129802703857">
        <ele>565</ele>
        <time>2019-05-11T19:52:05Z</time>
      </trkpt>
      <trkpt lat="36.8621940612793" lon="-5.17129516601562">
        <ele>565</ele>
        <time>2019-05-11T19:52:07Z</time>
      </trkpt>
      <trkpt lat="36.8621940612793" lon="-5.17129278182983">
        <ele>565</ele>
        <time>2019-05-11T19:52:09Z</time>
      </trkpt>
      <trkpt lat="36.8621940612793" lon="-5.17129182815552">
        <ele>565</ele>
        <time>2019-05-11T19:52:11Z</time>
      </trkpt>
      <trkpt lat="36.8621940612793" lon="-5.17129278182983">
        <ele>565</ele>
        <time>2019-05-11T19:52:13Z</time>
      </trkpt>
      <trkpt lat="36.8621940612793" lon="-5.17129182815552">
        <ele>565</ele>
        <time>2019-05-11T19:52:15Z</time>
      </trkpt>
      <trkpt lat="36.8621940612793" lon="-5.17128992080688">
        <ele>565</ele>
        <time>2019-05-11T19:52:17Z</time>
      </trkpt>
      <trkpt lat="36.8621940612793" lon="-5.17128992080688">
        <ele>565</ele>
        <time>2019-05-11T19:52:19Z</time>
      </trkpt>
      <trkpt lat="36.8621940612793" lon="-5.17129182815552">
        <ele>565</ele>
        <time>2019-05-11T19:52:21Z</time>
      </trkpt>
      <trkpt lat="36.8621978759766" lon="-5.17129278182983">
        <ele>565</ele>
        <time>2019-05-11T19:52:23Z</time>
      </trkpt>
      <trkpt lat="36.8621978759766" lon="-5.17129707336426">
        <ele>565</ele>
        <time>2019-05-11T19:52:25Z</time>
      </trkpt>
      <trkpt lat="36.8621978759766" lon="-5.17129516601562">
        <ele>565</ele>
        <time>2019-05-11T19:52:27Z</time>
      </trkpt>
      <trkpt lat="36.8622016906738" lon="-5.17130279541016">
        <ele>565</ele>
        <time>2019-05-11T19:52:29Z</time>
      </trkpt>
      <trkpt lat="36.8622016906738" lon="-5.17130279541016">
        <ele>565</ele>
        <time>2019-05-11T19:52:31Z</time>
      </trkpt>
      <trkpt lat="36.8621978759766" lon="-5.17130184173584">
        <ele>565</ele>
        <time>2019-05-11T19:52:33Z</time>
      </trkpt>
      <trkpt lat="36.8621978759766" lon="-5.17130184173584">
        <ele>565</ele>
        <time>2019-05-11T19:52:35Z</time>
      </trkpt>
      <trkpt lat="36.8621978759766" lon="-5.17130184173584">
        <ele>565</ele>
        <time>2019-05-11T19:52:37Z</time>
      </trkpt>
      <trkpt lat="36.8621978759766" lon="-5.17130279541016">
        <ele>565</ele>
        <time>2019-05-11T19:52:39Z</time>
      </trkpt>
      <trkpt lat="36.8621978759766" lon="-5.17130708694458">
        <ele>565</ele>
        <time>2019-05-11T19:52:41Z</time>
      </trkpt>
      <trkpt lat="36.8621978759766" lon="-5.17130994796753">
        <ele>565</ele>
        <time>2019-05-11T19:52:43Z</time>
      </trkpt>
      <trkpt lat="36.8621978759766" lon="-5.17131280899048">
        <ele>565</ele>
        <time>2019-05-11T19:52:45Z</time>
      </trkpt>
      <trkpt lat="36.8621940612793" lon="-5.1713171005249">
        <ele>565</ele>
        <time>2019-05-11T19:52:48Z</time>
      </trkpt>
      <trkpt lat="36.8621940612793" lon="-5.17131996154785">
        <ele>565</ele>
        <time>2019-05-11T19:52:50Z</time>
      </trkpt>
      <trkpt lat="36.8621940612793" lon="-5.17132186889648">
        <ele>565</ele>
        <time>2019-05-11T19:52:52Z</time>
      </trkpt>
      <trkpt lat="36.862190246582" lon="-5.17132520675659">
        <ele>565</ele>
        <time>2019-05-11T19:52:54Z</time>
      </trkpt>
      <trkpt lat="36.862190246582" lon="-5.17132711410522">
        <ele>565</ele>
        <time>2019-05-11T19:52:56Z</time>
      </trkpt>
      <trkpt lat="36.862190246582" lon="-5.17132806777954">
        <ele>565</ele>
        <time>2019-05-11T19:52:58Z</time>
      </trkpt>
      <trkpt lat="36.862190246582" lon="-5.17132806777954">
        <ele>565</ele>
        <time>2019-05-11T19:53:00Z</time>
      </trkpt>
      <trkpt lat="36.862190246582" lon="-5.17132806777954">
        <ele>565</ele>
        <time>2019-05-11T19:53:02Z</time>
      </trkpt>
      <trkpt lat="36.862190246582" lon="-5.17132997512817">
        <ele>565</ele>
        <time>2019-05-11T19:53:04Z</time>
      </trkpt>
      <trkpt lat="36.862190246582" lon="-5.17133188247681">
        <ele>565</ele>
        <time>2019-05-11T19:53:06Z</time>
      </trkpt>
      <trkpt lat="36.862190246582" lon="-5.17133188247681">
        <ele>565</ele>
        <time>2019-05-11T19:53:08Z</time>
      </trkpt>
      <trkpt lat="36.862190246582" lon="-5.17133188247681">
        <ele>565</ele>
        <time>2019-05-11T19:53:10Z</time>
      </trkpt>
      <trkpt lat="36.862190246582" lon="-5.17133188247681">
        <ele>565</ele>
        <time>2019-05-11T19:53:12Z</time>
      </trkpt>
      <trkpt lat="36.8621940612793" lon="-5.17133283615112">
        <ele>565</ele>
        <time>2019-05-11T19:53:14Z</time>
      </trkpt>
      <trkpt lat="36.8621940612793" lon="-5.17133283615112">
        <ele>565</ele>
        <time>2019-05-11T19:53:16Z</time>
      </trkpt>
      <trkpt lat="36.8621940612793" lon="-5.17133283615112">
        <ele>565</ele>
        <time>2019-05-11T19:53:18Z</time>
      </trkpt>
      <trkpt lat="36.8621940612793" lon="-5.17133188247681">
        <ele>564</ele>
        <time>2019-05-11T19:53:34Z</time>
      </trkpt>
      <trkpt lat="36.8621978759766" lon="-5.17133808135986">
        <ele>564</ele>
        <time>2019-05-11T19:53:36Z</time>
      </trkpt>
      <trkpt lat="36.8621978759766" lon="-5.17134189605713">
        <ele>563</ele>
        <time>2019-05-11T19:53:38Z</time>
      </trkpt>
      <trkpt lat="36.8621978759766" lon="-5.17134523391724">
        <ele>563</ele>
        <time>2019-05-11T19:53:40Z</time>
      </trkpt>
      <trkpt lat="36.8621978759766" lon="-5.17134523391724">
        <ele>563</ele>
        <time>2019-05-11T19:53:42Z</time>
      </trkpt>
      <trkpt lat="36.8622016906738" lon="-5.17134523391724">
        <ele>563</ele>
        <time>2019-05-11T19:53:44Z</time>
      </trkpt>
      <trkpt lat="36.8622016906738" lon="-5.17134523391724">
        <ele>563</ele>
        <time>2019-05-11T19:53:46Z</time>
      </trkpt>
      <trkpt lat="36.8622016906738" lon="-5.17134523391724">
        <ele>563</ele>
        <time>2019-05-11T19:53:48Z</time>
      </trkpt>
      <trkpt lat="36.8622055053711" lon="-5.17134523391724">
        <ele>563</ele>
        <time>2019-05-11T19:53:50Z</time>
      </trkpt>
      <trkpt lat="36.8622055053711" lon="-5.17134714126587">
        <ele>563</ele>
        <time>2019-05-11T19:53:52Z</time>
      </trkpt>
      <trkpt lat="36.8622093200684" lon="-5.17134523391724">
        <ele>563</ele>
        <time>2019-05-11T19:53:54Z</time>
      </trkpt>
      <trkpt lat="36.8622055053711" lon="-5.17134714126587">
        <ele>563</ele>
        <time>2019-05-11T19:53:56Z</time>
      </trkpt>
      <trkpt lat="36.8622055053711" lon="-5.17134714126587">
        <ele>563</ele>
        <time>2019-05-11T19:53:58Z</time>
      </trkpt>
      <trkpt lat="36.8622055053711" lon="-5.17134523391724">
        <ele>563</ele>
        <time>2019-05-11T19:54:00Z</time>
      </trkpt>
      <trkpt lat="36.8622016906738" lon="-5.17134523391724">
        <ele>563</ele>
        <time>2019-05-11T19:54:02Z</time>
      </trkpt>
      <trkpt lat="36.8622016906738" lon="-5.17134714126587">
        <ele>563</ele>
        <time>2019-05-11T19:54:04Z</time>
      </trkpt>
      <trkpt lat="36.8622016906738" lon="-5.17135000228882">
        <ele>563</ele>
        <time>2019-05-11T19:54:06Z</time>
      </trkpt>
      <trkpt lat="36.8622055053711" lon="-5.17135286331177">
        <ele>563</ele>
        <time>2019-05-11T19:54:08Z</time>
      </trkpt>
      <trkpt lat="36.8622055053711" lon="-5.17135715484619">
        <ele>563</ele>
        <time>2019-05-11T19:54:11Z</time>
      </trkpt>
      <trkpt lat="36.8622055053711" lon="-5.17135715484619">
        <ele>563</ele>
        <time>2019-05-11T19:54:13Z</time>
      </trkpt>
      <trkpt lat="36.8622055053711" lon="-5.17135810852051">
        <ele>563</ele>
        <time>2019-05-11T19:54:15Z</time>
      </trkpt>
      <trkpt lat="36.8622055053711" lon="-5.17136192321777">
        <ele>563</ele>
        <time>2019-05-11T19:54:17Z</time>
      </trkpt>
      <trkpt lat="36.8622055053711" lon="-5.17136478424072">
        <ele>563</ele>
        <time>2019-05-11T19:54:19Z</time>
      </trkpt>
      <trkpt lat="36.8622055053711" lon="-5.17136716842651">
        <ele>563</ele>
        <time>2019-05-11T19:54:21Z</time>
      </trkpt>
      <trkpt lat="36.8622055053711" lon="-5.17136716842651">
        <ele>563</ele>
        <time>2019-05-11T19:54:23Z</time>
      </trkpt>
      <trkpt lat="36.8622055053711" lon="-5.17136478424072">
        <ele>563</ele>
        <time>2019-05-11T19:54:25Z</time>
      </trkpt>
      <trkpt lat="36.8622055053711" lon="-5.17136478424072">
        <ele>563</ele>
        <time>2019-05-11T19:54:27Z</time>
      </trkpt>
      <trkpt lat="36.8622055053711" lon="-5.17136478424072">
        <ele>563</ele>
        <time>2019-05-11T19:54:29Z</time>
      </trkpt>
      <trkpt lat="36.8622055053711" lon="-5.17136478424072">
        <ele>563</ele>
        <time>2019-05-11T19:54:31Z</time>
      </trkpt>
      <trkpt lat="36.8622055053711" lon="-5.17136716842651">
        <ele>563</ele>
        <time>2019-05-11T19:54:33Z</time>
      </trkpt>
      <trkpt lat="36.8622055053711" lon="-5.17136716842651">
        <ele>563</ele>
        <time>2019-05-11T19:54:35Z</time>
      </trkpt>
      <trkpt lat="36.8622055053711" lon="-5.17136716842651">
        <ele>563</ele>
        <time>2019-05-11T19:54:37Z</time>
      </trkpt>
      <trkpt lat="36.8622055053711" lon="-5.17136812210083">
        <ele>563</ele>
        <time>2019-05-11T19:54:39Z</time>
      </trkpt>
      <trkpt lat="36.8622055053711" lon="-5.17136812210083">
        <ele>563</ele>
        <time>2019-05-11T19:54:41Z</time>
      </trkpt>
      <trkpt lat="36.8622055053711" lon="-5.17137002944946">
        <ele>563</ele>
        <time>2019-05-11T19:54:43Z</time>
      </trkpt>
      <trkpt lat="36.8622055053711" lon="-5.17136812210083">
        <ele>563</ele>
        <time>2019-05-11T19:54:45Z</time>
      </trkpt>
      <trkpt lat="36.8622055053711" lon="-5.17137002944946">
        <ele>563</ele>
        <time>2019-05-11T19:54:47Z</time>
      </trkpt>
      <trkpt lat="36.8622055053711" lon="-5.17137002944946">
        <ele>563</ele>
        <time>2019-05-11T19:54:49Z</time>
      </trkpt>
      <trkpt lat="36.8622055053711" lon="-5.17137002944946">
        <ele>563</ele>
        <time>2019-05-11T19:54:51Z</time>
      </trkpt>
      <trkpt lat="36.8622055053711" lon="-5.17137002944946">
        <ele>563</ele>
        <time>2019-05-11T19:54:53Z</time>
      </trkpt>
      <trkpt lat="36.8622055053711" lon="-5.1713719367981">
        <ele>563</ele>
        <time>2019-05-11T19:54:55Z</time>
      </trkpt>
      <trkpt lat="36.8622055053711" lon="-5.1713719367981">
        <ele>563</ele>
        <time>2019-05-11T19:54:57Z</time>
      </trkpt>
      <trkpt lat="36.8622055053711" lon="-5.1713719367981">
        <ele>563</ele>
        <time>2019-05-11T19:54:59Z</time>
      </trkpt>
      <trkpt lat="36.8622055053711" lon="-5.17137289047241">
        <ele>564</ele>
        <time>2019-05-11T19:55:03Z</time>
      </trkpt>
      <trkpt lat="36.8622093200684" lon="-5.1713719367981">
        <ele>564</ele>
        <time>2019-05-11T19:55:05Z</time>
      </trkpt>
      <trkpt lat="36.8622093200684" lon="-5.17137002944946">
        <ele>564</ele>
        <time>2019-05-11T19:55:07Z</time>
      </trkpt>
      <trkpt lat="36.8622016906738" lon="-5.17137289047241">
        <ele>564</ele>
        <time>2019-05-11T19:55:23Z</time>
      </trkpt>
      <trkpt lat="36.8622016906738" lon="-5.17137479782104">
        <ele>564</ele>
        <time>2019-05-11T19:55:25Z</time>
      </trkpt>
      <trkpt lat="36.8622016906738" lon="-5.17137718200684">
        <ele>564</ele>
        <time>2019-05-11T19:55:27Z</time>
      </trkpt>
      <trkpt lat="36.8622016906738" lon="-5.17137813568115">
        <ele>564</ele>
        <time>2019-05-11T19:55:29Z</time>
      </trkpt>
      <trkpt lat="36.8622016906738" lon="-5.17138004302978">
        <ele>564</ele>
        <time>2019-05-11T19:55:31Z</time>
      </trkpt>
      <trkpt lat="36.8621978759766" lon="-5.17138195037842">
        <ele>564</ele>
        <time>2019-05-11T19:55:33Z</time>
      </trkpt>
      <trkpt lat="36.8621978759766" lon="-5.17138290405273">
        <ele>564</ele>
        <time>2019-05-11T19:55:35Z</time>
      </trkpt>
      <trkpt lat="36.8621978759766" lon="-5.17138290405273">
        <ele>564</ele>
        <time>2019-05-11T19:55:37Z</time>
      </trkpt>
      <trkpt lat="36.8621940612793" lon="-5.17138290405273">
        <ele>564</ele>
        <time>2019-05-11T19:55:39Z</time>
      </trkpt>
      <trkpt lat="36.8621940612793" lon="-5.17138719558716">
        <ele>565</ele>
        <time>2019-05-11T19:55:42Z</time>
      </trkpt>
      <trkpt lat="36.8621940612793" lon="-5.17138814926147">
        <ele>565</ele>
        <time>2019-05-11T19:55:44Z</time>
      </trkpt>
      <trkpt lat="36.862190246582" lon="-5.17139196395874">
        <ele>565</ele>
        <time>2019-05-11T19:55:46Z</time>
      </trkpt>
      <trkpt lat="36.862190246582" lon="-5.17139291763306">
        <ele>566</ele>
        <time>2019-05-11T19:55:48Z</time>
      </trkpt>
      <trkpt lat="36.862190246582" lon="-5.17139720916748">
        <ele>567</ele>
        <time>2019-05-11T19:56:02Z</time>
      </trkpt>
      <trkpt lat="36.862190246582" lon="-5.1713981628418">
        <ele>567</ele>
        <time>2019-05-11T19:56:04Z</time>
      </trkpt>
      <trkpt lat="36.862190246582" lon="-5.1713981628418">
        <ele>567</ele>
        <time>2019-05-11T19:56:06Z</time>
      </trkpt>
      <trkpt lat="36.862190246582" lon="-5.17140293121338">
        <ele>567</ele>
        <time>2019-05-11T19:56:08Z</time>
      </trkpt>
      <trkpt lat="36.862190246582" lon="-5.17140293121338">
        <ele>567</ele>
        <time>2019-05-11T19:56:10Z</time>
      </trkpt>
      <trkpt lat="36.862190246582" lon="-5.17140293121338">
        <ele>567</ele>
        <time>2019-05-11T19:56:12Z</time>
      </trkpt>
      <trkpt lat="36.862190246582" lon="-5.17140197753906">
        <ele>567</ele>
        <time>2019-05-11T19:56:14Z</time>
      </trkpt>
      <trkpt lat="36.862190246582" lon="-5.17140197753906">
        <ele>567</ele>
        <time>2019-05-11T19:56:16Z</time>
      </trkpt>
      <trkpt lat="36.862190246582" lon="-5.17140197753906">
        <ele>567</ele>
        <time>2019-05-11T19:56:18Z</time>
      </trkpt>
      <trkpt lat="36.862190246582" lon="-5.17140197753906">
        <ele>567</ele>
        <time>2019-05-11T19:56:20Z</time>
      </trkpt>
      <trkpt lat="36.8621940612793" lon="-5.17140197753906">
        <ele>567</ele>
        <time>2019-05-11T19:56:22Z</time>
      </trkpt>
      <trkpt lat="36.8621940612793" lon="-5.17140197753906">
        <ele>567</ele>
        <time>2019-05-11T19:56:24Z</time>
      </trkpt>
      <trkpt lat="36.862190246582" lon="-5.17140483856201">
        <ele>567</ele>
        <time>2019-05-11T19:56:26Z</time>
      </trkpt>
      <trkpt lat="36.8621940612793" lon="-5.1714072227478">
        <ele>567</ele>
        <time>2019-05-11T19:56:28Z</time>
      </trkpt>
      <trkpt lat="36.8621940612793" lon="-5.1714072227478">
        <ele>567</ele>
        <time>2019-05-11T19:56:30Z</time>
      </trkpt>
      <trkpt lat="36.8621978759766" lon="-5.1714072227478">
        <ele>567</ele>
        <time>2019-05-11T19:56:32Z</time>
      </trkpt>
      <trkpt lat="36.8621978759766" lon="-5.17140483856201">
        <ele>567</ele>
        <time>2019-05-11T19:56:34Z</time>
      </trkpt>
      <trkpt lat="36.8621978759766" lon="-5.17140293121338">
        <ele>567</ele>
        <time>2019-05-11T19:56:36Z</time>
      </trkpt>
      <trkpt lat="36.8621978759766" lon="-5.17140293121338">
        <ele>567</ele>
        <time>2019-05-11T19:56:38Z</time>
      </trkpt>
      <trkpt lat="36.8622016906738" lon="-5.17140293121338">
        <ele>567</ele>
        <time>2019-05-11T19:56:40Z</time>
      </trkpt>
      <trkpt lat="36.8622016906738" lon="-5.17140293121338">
        <ele>567</ele>
        <time>2019-05-11T19:56:42Z</time>
      </trkpt>
      <trkpt lat="36.8622016906738" lon="-5.17140197753906">
        <ele>567</ele>
        <time>2019-05-11T19:56:44Z</time>
      </trkpt>
      <trkpt lat="36.8622016906738" lon="-5.17140197753906">
        <ele>567</ele>
        <time>2019-05-11T19:56:46Z</time>
      </trkpt>
      <trkpt lat="36.8622055053711" lon="-5.17140007019043">
        <ele>567</ele>
        <time>2019-05-11T19:56:48Z</time>
      </trkpt>
      <trkpt lat="36.8622055053711" lon="-5.1713981628418">
        <ele>567</ele>
        <time>2019-05-11T19:56:50Z</time>
      </trkpt>
      <trkpt lat="36.8622055053711" lon="-5.17139720916748">
        <ele>567</ele>
        <time>2019-05-11T19:56:52Z</time>
      </trkpt>
      <trkpt lat="36.8622055053711" lon="-5.17139482498169">
        <ele>567</ele>
        <time>2019-05-11T19:56:54Z</time>
      </trkpt>
      <trkpt lat="36.8622055053711" lon="-5.17139482498169">
        <ele>567</ele>
        <time>2019-05-11T19:56:56Z</time>
      </trkpt>
      <trkpt lat="36.8622055053711" lon="-5.17139482498169">
        <ele>567</ele>
        <time>2019-05-11T19:56:58Z</time>
      </trkpt>
      <trkpt lat="36.8622055053711" lon="-5.17139291763306">
        <ele>567</ele>
        <time>2019-05-11T19:57:00Z</time>
      </trkpt>
      <trkpt lat="36.8622055053711" lon="-5.17139291763306">
        <ele>567</ele>
        <time>2019-05-11T19:57:02Z</time>
      </trkpt>
      <trkpt lat="36.8622055053711" lon="-5.17139291763306">
        <ele>567</ele>
        <time>2019-05-11T19:57:04Z</time>
      </trkpt>
      <trkpt lat="36.8622055053711" lon="-5.17139196395874">
        <ele>567</ele>
        <time>2019-05-11T19:57:06Z</time>
      </trkpt>
      <trkpt lat="36.8622055053711" lon="-5.17139005661011">
        <ele>567</ele>
        <time>2019-05-11T19:57:08Z</time>
      </trkpt>
      <trkpt lat="36.8622016906738" lon="-5.17139196395874">
        <ele>567</ele>
        <time>2019-05-11T19:57:10Z</time>
      </trkpt>
      <trkpt lat="36.8622016906738" lon="-5.17139196395874">
        <ele>567</ele>
        <time>2019-05-11T19:57:12Z</time>
      </trkpt>
      <trkpt lat="36.8622016906738" lon="-5.17139005661011">
        <ele>567</ele>
        <time>2019-05-11T19:57:14Z</time>
      </trkpt>
      <trkpt lat="36.8622016906738" lon="-5.17139005661011">
        <ele>567</ele>
        <time>2019-05-11T19:57:16Z</time>
      </trkpt>
      <trkpt lat="36.8622055053711" lon="-5.17139196395874">
        <ele>567</ele>
        <time>2019-05-11T19:57:18Z</time>
      </trkpt>
      <trkpt lat="36.8622055053711" lon="-5.17139196395874">
        <ele>567</ele>
        <time>2019-05-11T19:57:20Z</time>
      </trkpt>
      <trkpt lat="36.8622055053711" lon="-5.17139196395874">
        <ele>567</ele>
        <time>2019-05-11T19:57:22Z</time>
      </trkpt>
      <trkpt lat="36.8622055053711" lon="-5.17139005661011">
        <ele>567</ele>
        <time>2019-05-11T19:57:24Z</time>
      </trkpt>
      <trkpt lat="36.8622055053711" lon="-5.17139005661011">
        <ele>567</ele>
        <time>2019-05-11T19:57:26Z</time>
      </trkpt>
      <trkpt lat="36.8622093200684" lon="-5.17139005661011">
        <ele>567</ele>
        <time>2019-05-11T19:57:28Z</time>
      </trkpt>
      <trkpt lat="36.8622093200684" lon="-5.17139291763306">
        <ele>567</ele>
        <time>2019-05-11T19:57:30Z</time>
      </trkpt>
      <trkpt lat="36.8622093200684" lon="-5.17140007019043">
        <ele>567</ele>
        <time>2019-05-11T19:57:32Z</time>
      </trkpt>
      <trkpt lat="36.8622093200684" lon="-5.17140293121338">
        <ele>567</ele>
        <time>2019-05-11T19:57:35Z</time>
      </trkpt>
      <trkpt lat="36.8622093200684" lon="-5.17140483856201">
        <ele>567</ele>
        <time>2019-05-11T19:57:37Z</time>
      </trkpt>
      <trkpt lat="36.8622093200684" lon="-5.17140483856201">
        <ele>567</ele>
        <time>2019-05-11T19:57:39Z</time>
      </trkpt>
      <trkpt lat="36.8622093200684" lon="-5.17140817642212">
        <ele>567</ele>
        <time>2019-05-11T19:57:41Z</time>
      </trkpt>
      <trkpt lat="36.8622055053711" lon="-5.17141485214233">
        <ele>567</ele>
        <time>2019-05-11T19:57:43Z</time>
      </trkpt>
      <trkpt lat="36.8622055053711" lon="-5.17142009735107">
        <ele>567</ele>
        <time>2019-05-11T19:57:45Z</time>
      </trkpt>
      <trkpt lat="36.8622055053711" lon="-5.17142295837402">
        <ele>567</ele>
        <time>2019-05-11T19:57:47Z</time>
      </trkpt>
      <trkpt lat="36.8622093200684" lon="-5.17142486572266">
        <ele>567</ele>
        <time>2019-05-11T19:57:49Z</time>
      </trkpt>
      <trkpt lat="36.8622093200684" lon="-5.17142677307129">
        <ele>567</ele>
        <time>2019-05-11T19:57:51Z</time>
      </trkpt>
      <trkpt lat="36.8622093200684" lon="-5.17142820358276">
        <ele>567</ele>
        <time>2019-05-11T19:57:53Z</time>
      </trkpt>
      <trkpt lat="36.8622131347656" lon="-5.1714301109314">
        <ele>567</ele>
        <time>2019-05-11T19:57:55Z</time>
      </trkpt>
      <trkpt lat="36.8622093200684" lon="-5.17143297195435">
        <ele>567</ele>
        <time>2019-05-11T19:57:57Z</time>
      </trkpt>
      <trkpt lat="36.8622093200684" lon="-5.17143487930298">
        <ele>567</ele>
        <time>2019-05-11T19:57:59Z</time>
      </trkpt>
      <trkpt lat="36.8622093200684" lon="-5.17143821716309">
        <ele>567</ele>
        <time>2019-05-11T19:58:01Z</time>
      </trkpt>
      <trkpt lat="36.8622131347656" lon="-5.17143821716309">
        <ele>567</ele>
        <time>2019-05-11T19:58:03Z</time>
      </trkpt>
      <trkpt lat="36.8622131347656" lon="-5.17143821716309">
        <ele>567</ele>
        <time>2019-05-11T19:58:05Z</time>
      </trkpt>
      <trkpt lat="36.8622131347656" lon="-5.17143821716309">
        <ele>567</ele>
        <time>2019-05-11T19:58:07Z</time>
      </trkpt>
      <trkpt lat="36.8622131347656" lon="-5.17143821716309">
        <ele>567</ele>
        <time>2019-05-11T19:58:09Z</time>
      </trkpt>
      <trkpt lat="36.8622131347656" lon="-5.17144298553467">
        <ele>567</ele>
        <time>2019-05-11T19:58:11Z</time>
      </trkpt>
      <trkpt lat="36.8622131347656" lon="-5.17144298553467">
        <ele>567</ele>
        <time>2019-05-11T19:58:13Z</time>
      </trkpt>
      <trkpt lat="36.8622131347656" lon="-5.17144203186035">
        <ele>567</ele>
        <time>2019-05-11T19:58:15Z</time>
      </trkpt>
      <trkpt lat="36.8622131347656" lon="-5.17144203186035">
        <ele>567</ele>
        <time>2019-05-11T19:58:17Z</time>
      </trkpt>
      <trkpt lat="36.8622131347656" lon="-5.17144012451172">
        <ele>567</ele>
        <time>2019-05-11T19:58:19Z</time>
      </trkpt>
      <trkpt lat="36.8622131347656" lon="-5.17143821716309">
        <ele>567</ele>
        <time>2019-05-11T19:58:21Z</time>
      </trkpt>
      <trkpt lat="36.8622131347656" lon="-5.17143678665161">
        <ele>567</ele>
        <time>2019-05-11T19:58:23Z</time>
      </trkpt>
      <trkpt lat="36.8622131347656" lon="-5.17143487930298">
        <ele>567</ele>
        <time>2019-05-11T19:58:25Z</time>
      </trkpt>
      <trkpt lat="36.8622131347656" lon="-5.17143297195435">
        <ele>567</ele>
        <time>2019-05-11T19:58:27Z</time>
      </trkpt>
      <trkpt lat="36.8622131347656" lon="-5.17143297195435">
        <ele>567</ele>
        <time>2019-05-11T19:58:29Z</time>
      </trkpt>
      <trkpt lat="36.8622131347656" lon="-5.1714301109314">
        <ele>567</ele>
        <time>2019-05-11T19:58:31Z</time>
      </trkpt>
      <trkpt lat="36.8622093200684" lon="-5.1714301109314">
        <ele>567</ele>
        <time>2019-05-11T19:58:33Z</time>
      </trkpt>
      <trkpt lat="36.8622093200684" lon="-5.17142677307129">
        <ele>567</ele>
        <time>2019-05-11T19:58:35Z</time>
      </trkpt>
      <trkpt lat="36.8622093200684" lon="-5.17142677307129">
        <ele>567</ele>
        <time>2019-05-11T19:58:37Z</time>
      </trkpt>
      <trkpt lat="36.8622093200684" lon="-5.17142295837402">
        <ele>567</ele>
        <time>2019-05-11T19:58:39Z</time>
      </trkpt>
      <trkpt lat="36.8622055053711" lon="-5.17142200469971">
        <ele>567</ele>
        <time>2019-05-11T19:58:41Z</time>
      </trkpt>
      <trkpt lat="36.8622055053711" lon="-5.17142200469971">
        <ele>567</ele>
        <time>2019-05-11T19:58:44Z</time>
      </trkpt>
      <trkpt lat="36.8622016906738" lon="-5.17142009735107">
        <ele>567</ele>
        <time>2019-05-11T19:58:46Z</time>
      </trkpt>
      <trkpt lat="36.8622016906738" lon="-5.17142009735107">
        <ele>567</ele>
        <time>2019-05-11T19:58:48Z</time>
      </trkpt>
      <trkpt lat="36.8622016906738" lon="-5.17142009735107">
        <ele>567</ele>
        <time>2019-05-11T19:58:50Z</time>
      </trkpt>
      <trkpt lat="36.8622016906738" lon="-5.17142200469971">
        <ele>567</ele>
        <time>2019-05-11T19:58:52Z</time>
      </trkpt>
      <trkpt lat="36.8622016906738" lon="-5.17142200469971">
        <ele>567</ele>
        <time>2019-05-11T19:58:54Z</time>
      </trkpt>
      <trkpt lat="36.8622016906738" lon="-5.17142200469971">
        <ele>567</ele>
        <time>2019-05-11T19:58:56Z</time>
      </trkpt>
      <trkpt lat="36.8622016906738" lon="-5.17142200469971">
        <ele>567</ele>
        <time>2019-05-11T19:58:58Z</time>
      </trkpt>
      <trkpt lat="36.8621978759766" lon="-5.17142200469971">
        <ele>567</ele>
        <time>2019-05-11T19:59:00Z</time>
      </trkpt>
      <trkpt lat="36.8621978759766" lon="-5.17142200469971">
        <ele>567</ele>
        <time>2019-05-11T19:59:02Z</time>
      </trkpt>
      <trkpt lat="36.8621978759766" lon="-5.17142200469971">
        <ele>567</ele>
        <time>2019-05-11T19:59:04Z</time>
      </trkpt>
      <trkpt lat="36.8621978759766" lon="-5.17142200469971">
        <ele>567</ele>
        <time>2019-05-11T19:59:06Z</time>
      </trkpt>
      <trkpt lat="36.8621978759766" lon="-5.17142200469971">
        <ele>567</ele>
        <time>2019-05-11T19:59:08Z</time>
      </trkpt>
      <trkpt lat="36.8621940612793" lon="-5.17142295837402">
        <ele>567</ele>
        <time>2019-05-11T19:59:10Z</time>
      </trkpt>
      <trkpt lat="36.8621940612793" lon="-5.17142295837402">
        <ele>567</ele>
        <time>2019-05-11T19:59:12Z</time>
      </trkpt>
      <trkpt lat="36.8621940612793" lon="-5.17142486572266">
        <ele>567</ele>
        <time>2019-05-11T19:59:14Z</time>
      </trkpt>
      <trkpt lat="36.8621940612793" lon="-5.17142295837402">
        <ele>567</ele>
        <time>2019-05-11T19:59:16Z</time>
      </trkpt>
      <trkpt lat="36.862190246582" lon="-5.17142677307129">
        <ele>567</ele>
        <time>2019-05-11T19:59:18Z</time>
      </trkpt>
      <trkpt lat="36.862190246582" lon="-5.17142677307129">
        <ele>567</ele>
        <time>2019-05-11T19:59:20Z</time>
      </trkpt>
      <trkpt lat="36.862190246582" lon="-5.17142677307129">
        <ele>567</ele>
        <time>2019-05-11T19:59:22Z</time>
      </trkpt>
      <trkpt lat="36.8621864318848" lon="-5.17142486572266">
        <ele>567</ele>
        <time>2019-05-11T19:59:24Z</time>
      </trkpt>
      <trkpt lat="36.8621864318848" lon="-5.17142295837402">
        <ele>567</ele>
        <time>2019-05-11T19:59:26Z</time>
      </trkpt>
      <trkpt lat="36.8621864318848" lon="-5.17142295837402">
        <ele>567</ele>
        <time>2019-05-11T19:59:28Z</time>
      </trkpt>
      <trkpt lat="36.8621864318848" lon="-5.17142677307129">
        <ele>567</ele>
        <time>2019-05-11T19:59:30Z</time>
      </trkpt>
      <trkpt lat="36.8621864318848" lon="-5.1714301109314">
        <ele>567</ele>
        <time>2019-05-11T19:59:32Z</time>
      </trkpt>
      <trkpt lat="36.8621864318848" lon="-5.1714301109314">
        <ele>567</ele>
        <time>2019-05-11T19:59:34Z</time>
      </trkpt>
      <trkpt lat="36.8621864318848" lon="-5.17143201828003">
        <ele>567</ele>
        <time>2019-05-11T19:59:36Z</time>
      </trkpt>
      <trkpt lat="36.8621864318848" lon="-5.17143201828003">
        <ele>567</ele>
        <time>2019-05-11T19:59:38Z</time>
      </trkpt>
      <trkpt lat="36.8621864318848" lon="-5.1714301109314">
        <ele>567</ele>
        <time>2019-05-11T19:59:40Z</time>
      </trkpt>
      <trkpt lat="36.8621864318848" lon="-5.17142820358276">
        <ele>567</ele>
        <time>2019-05-11T19:59:42Z</time>
      </trkpt>
      <trkpt lat="36.8621864318848" lon="-5.17142820358276">
        <ele>567</ele>
        <time>2019-05-11T19:59:44Z</time>
      </trkpt>
      <trkpt lat="36.8621864318848" lon="-5.17143201828003">
        <ele>567</ele>
        <time>2019-05-11T19:59:46Z</time>
      </trkpt>
      <trkpt lat="36.8621864318848" lon="-5.17143487930298">
        <ele>567</ele>
        <time>2019-05-11T19:59:48Z</time>
      </trkpt>
      <trkpt lat="36.8621864318848" lon="-5.17143678665161">
        <ele>567</ele>
        <time>2019-05-11T19:59:51Z</time>
      </trkpt>
      <trkpt lat="36.8621864318848" lon="-5.17144012451172">
        <ele>567</ele>
        <time>2019-05-11T19:59:53Z</time>
      </trkpt>
      <trkpt lat="36.8621864318848" lon="-5.17144012451172">
        <ele>567</ele>
        <time>2019-05-11T19:59:55Z</time>
      </trkpt>
      <trkpt lat="36.8621864318848" lon="-5.17144012451172">
        <ele>567</ele>
        <time>2019-05-11T19:59:57Z</time>
      </trkpt>
      <trkpt lat="36.862190246582" lon="-5.17144203186035">
        <ele>567</ele>
        <time>2019-05-11T19:59:59Z</time>
      </trkpt>
      <trkpt lat="36.862190246582" lon="-5.1714448928833">
        <ele>567</ele>
        <time>2019-05-11T20:00:01Z</time>
      </trkpt>
      <trkpt lat="36.862190246582" lon="-5.1714448928833">
        <ele>567</ele>
        <time>2019-05-11T20:00:03Z</time>
      </trkpt>
      <trkpt lat="36.862190246582" lon="-5.17144298553467">
        <ele>567</ele>
        <time>2019-05-11T20:00:05Z</time>
      </trkpt>
      <trkpt lat="36.862190246582" lon="-5.17144298553467">
        <ele>567</ele>
        <time>2019-05-11T20:00:07Z</time>
      </trkpt>
      <trkpt lat="36.862190246582" lon="-5.17144298553467">
        <ele>567</ele>
        <time>2019-05-11T20:00:09Z</time>
      </trkpt>
      <trkpt lat="36.862190246582" lon="-5.1714448928833">
        <ele>567</ele>
        <time>2019-05-11T20:00:11Z</time>
      </trkpt>
      <trkpt lat="36.8621940612793" lon="-5.17144823074341">
        <ele>567</ele>
        <time>2019-05-11T20:00:13Z</time>
      </trkpt>
      <trkpt lat="36.862190246582" lon="-5.17145013809204">
        <ele>567</ele>
        <time>2019-05-11T20:00:15Z</time>
      </trkpt>
      <trkpt lat="36.8621940612793" lon="-5.17145204544067">
        <ele>567</ele>
        <time>2019-05-11T20:00:17Z</time>
      </trkpt>
      <trkpt lat="36.8621940612793" lon="-5.17145490646362">
        <ele>567</ele>
        <time>2019-05-11T20:00:19Z</time>
      </trkpt>
      <trkpt lat="36.8621940612793" lon="-5.17145490646362">
        <ele>567</ele>
        <time>2019-05-11T20:00:21Z</time>
      </trkpt>
      <trkpt lat="36.8621940612793" lon="-5.17145490646362">
        <ele>567</ele>
        <time>2019-05-11T20:00:23Z</time>
      </trkpt>
      <trkpt lat="36.8621978759766" lon="-5.17145490646362">
        <ele>567</ele>
        <time>2019-05-11T20:00:25Z</time>
      </trkpt>
      <trkpt lat="36.8621940612793" lon="-5.17145681381226">
        <ele>567</ele>
        <time>2019-05-11T20:00:27Z</time>
      </trkpt>
      <trkpt lat="36.8621978759766" lon="-5.17145776748657">
        <ele>567</ele>
        <time>2019-05-11T20:00:29Z</time>
      </trkpt>
      <trkpt lat="36.8621940612793" lon="-5.17145681381226">
        <ele>567</ele>
        <time>2019-05-11T20:00:31Z</time>
      </trkpt>
      <trkpt lat="36.8621940612793" lon="-5.17145681381226">
        <ele>567</ele>
        <time>2019-05-11T20:00:33Z</time>
      </trkpt>
      <trkpt lat="36.8621940612793" lon="-5.17145776748657">
        <ele>567</ele>
        <time>2019-05-11T20:00:35Z</time>
      </trkpt>
      <trkpt lat="36.862190246582" lon="-5.17145776748657">
        <ele>567</ele>
        <time>2019-05-11T20:00:37Z</time>
      </trkpt>
      <trkpt lat="36.862190246582" lon="-5.17145776748657">
        <ele>567</ele>
        <time>2019-05-11T20:00:39Z</time>
      </trkpt>
      <trkpt lat="36.862190246582" lon="-5.17145776748657">
        <ele>567</ele>
        <time>2019-05-11T20:00:41Z</time>
      </trkpt>
      <trkpt lat="36.862190246582" lon="-5.17145776748657">
        <ele>567</ele>
        <time>2019-05-11T20:00:43Z</time>
      </trkpt>
      <trkpt lat="36.8621864318848" lon="-5.17145776748657">
        <ele>567</ele>
        <time>2019-05-11T20:00:45Z</time>
      </trkpt>
      <trkpt lat="36.8621864318848" lon="-5.17145776748657">
        <ele>567</ele>
        <time>2019-05-11T20:00:47Z</time>
      </trkpt>
      <trkpt lat="36.8621864318848" lon="-5.17145776748657">
        <ele>567</ele>
        <time>2019-05-11T20:00:49Z</time>
      </trkpt>
      <trkpt lat="36.8621864318848" lon="-5.171462059021">
        <ele>567</ele>
        <time>2019-05-11T20:00:51Z</time>
      </trkpt>
      <trkpt lat="36.8621826171875" lon="-5.17146301269531">
        <ele>567</ele>
        <time>2019-05-11T20:00:53Z</time>
      </trkpt>
      <trkpt lat="36.8621826171875" lon="-5.171462059021">
        <ele>567</ele>
        <time>2019-05-11T20:00:55Z</time>
      </trkpt>
      <trkpt lat="36.8621826171875" lon="-5.17146301269531">
        <ele>567</ele>
        <time>2019-05-11T20:00:57Z</time>
      </trkpt>
      <trkpt lat="36.8621826171875" lon="-5.171462059021">
        <ele>567</ele>
        <time>2019-05-11T20:00:59Z</time>
      </trkpt>
      <trkpt lat="36.8621864318848" lon="-5.17146301269531">
        <ele>567</ele>
        <time>2019-05-11T20:01:01Z</time>
      </trkpt>
      <trkpt lat="36.8621864318848" lon="-5.17146682739258">
        <ele>567</ele>
        <time>2019-05-11T20:01:03Z</time>
      </trkpt>
      <trkpt lat="36.8621864318848" lon="-5.17146682739258">
        <ele>567</ele>
        <time>2019-05-11T20:01:05Z</time>
      </trkpt>
      <trkpt lat="36.8621864318848" lon="-5.17146682739258">
        <ele>567</ele>
        <time>2019-05-11T20:01:07Z</time>
      </trkpt>
      <trkpt lat="36.8621864318848" lon="-5.17146492004394">
        <ele>567</ele>
        <time>2019-05-11T20:01:09Z</time>
      </trkpt>
      <trkpt lat="36.8621864318848" lon="-5.17146492004394">
        <ele>567</ele>
        <time>2019-05-11T20:01:11Z</time>
      </trkpt>
      <trkpt lat="36.862190246582" lon="-5.17146682739258">
        <ele>567</ele>
        <time>2019-05-11T20:01:14Z</time>
      </trkpt>
      <trkpt lat="36.8621864318848" lon="-5.17146682739258">
        <ele>567</ele>
        <time>2019-05-11T20:01:16Z</time>
      </trkpt>
      <trkpt lat="36.8621864318848" lon="-5.17146778106689">
        <ele>567</ele>
        <time>2019-05-11T20:01:18Z</time>
      </trkpt>
      <trkpt lat="36.8621864318848" lon="-5.17147016525269">
        <ele>567</ele>
        <time>2019-05-11T20:01:20Z</time>
      </trkpt>
      <trkpt lat="36.8621864318848" lon="-5.17146778106689">
        <ele>567</ele>
        <time>2019-05-11T20:01:22Z</time>
      </trkpt>
      <trkpt lat="36.862190246582" lon="-5.17146682739258">
        <ele>567</ele>
        <time>2019-05-11T20:01:24Z</time>
      </trkpt>
      <trkpt lat="36.862190246582" lon="-5.17147207260132">
        <ele>567</ele>
        <time>2019-05-11T20:01:26Z</time>
      </trkpt>
      <trkpt lat="36.8621864318848" lon="-5.17147493362427">
        <ele>567</ele>
        <time>2019-05-11T20:01:28Z</time>
      </trkpt>
      <trkpt lat="36.8621864318848" lon="-5.17147779464722">
        <ele>567</ele>
        <time>2019-05-11T20:01:30Z</time>
      </trkpt>
      <trkpt lat="36.8621864318848" lon="-5.17148017883301">
        <ele>567</ele>
        <time>2019-05-11T20:01:32Z</time>
      </trkpt>
      <trkpt lat="36.8621826171875" lon="-5.17148208618164">
        <ele>567</ele>
        <time>2019-05-11T20:01:34Z</time>
      </trkpt>
      <trkpt lat="36.8621826171875" lon="-5.17148494720459">
        <ele>567</ele>
        <time>2019-05-11T20:01:36Z</time>
      </trkpt>
      <trkpt lat="36.8621826171875" lon="-5.17148494720459">
        <ele>567</ele>
        <time>2019-05-11T20:01:38Z</time>
      </trkpt>
      <trkpt lat="36.8621826171875" lon="-5.17148780822754">
        <ele>567</ele>
        <time>2019-05-11T20:01:40Z</time>
      </trkpt>
      <trkpt lat="36.8621826171875" lon="-5.17149019241333">
        <ele>567</ele>
        <time>2019-05-11T20:01:42Z</time>
      </trkpt>
      <trkpt lat="36.8621826171875" lon="-5.17149209976196">
        <ele>567</ele>
        <time>2019-05-11T20:01:44Z</time>
      </trkpt>
      <trkpt lat="36.8621826171875" lon="-5.17149496078491">
        <ele>567</ele>
        <time>2019-05-11T20:01:46Z</time>
      </trkpt>
      <trkpt lat="36.8621788024902" lon="-5.17149496078491">
        <ele>567</ele>
        <time>2019-05-11T20:01:48Z</time>
      </trkpt>
      <trkpt lat="36.8621826171875" lon="-5.17149782180786">
        <ele>567</ele>
        <time>2019-05-11T20:01:50Z</time>
      </trkpt>
      <trkpt lat="36.8621826171875" lon="-5.17149782180786">
        <ele>567</ele>
        <time>2019-05-11T20:01:52Z</time>
      </trkpt>
      <trkpt lat="36.8621826171875" lon="-5.17149782180786">
        <ele>567</ele>
        <time>2019-05-11T20:01:54Z</time>
      </trkpt>
      <trkpt lat="36.8621826171875" lon="-5.17149782180786">
        <ele>567</ele>
        <time>2019-05-11T20:01:56Z</time>
      </trkpt>
      <trkpt lat="36.8621826171875" lon="-5.17149686813354">
        <ele>567</ele>
        <time>2019-05-11T20:01:58Z</time>
      </trkpt>
      <trkpt lat="36.8621864318848" lon="-5.17149686813354">
        <ele>567</ele>
        <time>2019-05-11T20:02:00Z</time>
      </trkpt>
      <trkpt lat="36.8621864318848" lon="-5.17149496078491">
        <ele>567</ele>
        <time>2019-05-11T20:02:02Z</time>
      </trkpt>
      <trkpt lat="36.8621864318848" lon="-5.17149496078491">
        <ele>567</ele>
        <time>2019-05-11T20:02:04Z</time>
      </trkpt>
      <trkpt lat="36.8621864318848" lon="-5.17150020599365">
        <ele>567</ele>
        <time>2019-05-11T20:02:06Z</time>
      </trkpt>
      <trkpt lat="36.8621864318848" lon="-5.1715030670166">
        <ele>567</ele>
        <time>2019-05-11T20:02:08Z</time>
      </trkpt>
      <trkpt lat="36.8621864318848" lon="-5.17150211334228">
        <ele>567</ele>
        <time>2019-05-11T20:02:10Z</time>
      </trkpt>
      <trkpt lat="36.8621826171875" lon="-5.1715030670166">
        <ele>567</ele>
        <time>2019-05-11T20:02:12Z</time>
      </trkpt>
      <trkpt lat="36.8621826171875" lon="-5.1715030670166">
        <ele>567</ele>
        <time>2019-05-11T20:02:15Z</time>
      </trkpt>
      <trkpt lat="36.8621826171875" lon="-5.1715030670166">
        <ele>567</ele>
        <time>2019-05-11T20:02:17Z</time>
      </trkpt>
      <trkpt lat="36.8621826171875" lon="-5.17150211334228">
        <ele>567</ele>
        <time>2019-05-11T20:02:19Z</time>
      </trkpt>
      <trkpt lat="36.8621826171875" lon="-5.17149782180786">
        <ele>567</ele>
        <time>2019-05-11T20:02:21Z</time>
      </trkpt>
      <trkpt lat="36.8621864318848" lon="-5.17149782180786">
        <ele>567</ele>
        <time>2019-05-11T20:02:23Z</time>
      </trkpt>
      <trkpt lat="36.8621864318848" lon="-5.17149782180786">
        <ele>567</ele>
        <time>2019-05-11T20:02:25Z</time>
      </trkpt>
      <trkpt lat="36.8621864318848" lon="-5.17149782180786">
        <ele>567</ele>
        <time>2019-05-11T20:02:27Z</time>
      </trkpt>
      <trkpt lat="36.8621864318848" lon="-5.17149782180786">
        <ele>567</ele>
        <time>2019-05-11T20:02:29Z</time>
      </trkpt>
      <trkpt lat="36.8621864318848" lon="-5.17149782180786">
        <ele>567</ele>
        <time>2019-05-11T20:02:31Z</time>
      </trkpt>
      <trkpt lat="36.8621864318848" lon="-5.17149782180786">
        <ele>567</ele>
        <time>2019-05-11T20:02:33Z</time>
      </trkpt>
      <trkpt lat="36.8621864318848" lon="-5.17149782180786">
        <ele>567</ele>
        <time>2019-05-11T20:02:35Z</time>
      </trkpt>
      <trkpt lat="36.8621864318848" lon="-5.17149782180786">
        <ele>567</ele>
        <time>2019-05-11T20:02:37Z</time>
      </trkpt>
      <trkpt lat="36.8621826171875" lon="-5.17150020599365">
        <ele>567</ele>
        <time>2019-05-11T20:02:39Z</time>
      </trkpt>
      <trkpt lat="36.8621826171875" lon="-5.17150211334228">
        <ele>567</ele>
        <time>2019-05-11T20:02:41Z</time>
      </trkpt>
      <trkpt lat="36.8621826171875" lon="-5.17150211334228">
        <ele>567</ele>
        <time>2019-05-11T20:02:43Z</time>
      </trkpt>
      <trkpt lat="36.8621826171875" lon="-5.17150211334228">
        <ele>567</ele>
        <time>2019-05-11T20:02:45Z</time>
      </trkpt>
      <trkpt lat="36.8621826171875" lon="-5.1715030670166">
        <ele>567</ele>
        <time>2019-05-11T20:02:47Z</time>
      </trkpt>
      <trkpt lat="36.8621826171875" lon="-5.17150688171387">
        <ele>567</ele>
        <time>2019-05-11T20:02:49Z</time>
      </trkpt>
      <trkpt lat="36.8621826171875" lon="-5.17150783538818">
        <ele>567</ele>
        <time>2019-05-11T20:02:51Z</time>
      </trkpt>
      <trkpt lat="36.8621826171875" lon="-5.17151021957397">
        <ele>567</ele>
        <time>2019-05-11T20:02:53Z</time>
      </trkpt>
      <trkpt lat="36.8621826171875" lon="-5.17151021957397">
        <ele>567</ele>
        <time>2019-05-11T20:02:55Z</time>
      </trkpt>
      <trkpt lat="36.8621864318848" lon="-5.17151021957397">
        <ele>567</ele>
        <time>2019-05-11T20:02:57Z</time>
      </trkpt>
      <trkpt lat="36.8621864318848" lon="-5.17150783538818">
        <ele>567</ele>
        <time>2019-05-11T20:02:59Z</time>
      </trkpt>
      <trkpt lat="36.8621864318848" lon="-5.17150497436523">
        <ele>567</ele>
        <time>2019-05-11T20:03:01Z</time>
      </trkpt>
      <trkpt lat="36.8621864318848" lon="-5.17150497436523">
        <ele>567</ele>
        <time>2019-05-11T20:03:03Z</time>
      </trkpt>
      <trkpt lat="36.8621864318848" lon="-5.1715030670166">
        <ele>567</ele>
        <time>2019-05-11T20:03:05Z</time>
      </trkpt>
      <trkpt lat="36.8621864318848" lon="-5.1715030670166">
        <ele>567</ele>
        <time>2019-05-11T20:03:07Z</time>
      </trkpt>
      <trkpt lat="36.8621864318848" lon="-5.1715030670166">
        <ele>567</ele>
        <time>2019-05-11T20:03:09Z</time>
      </trkpt>
      <trkpt lat="36.8621864318848" lon="-5.1715030670166">
        <ele>567</ele>
        <time>2019-05-11T20:03:11Z</time>
      </trkpt>
      <trkpt lat="36.8621864318848" lon="-5.17150497436523">
        <ele>567</ele>
        <time>2019-05-11T20:03:13Z</time>
      </trkpt>
      <trkpt lat="36.8621864318848" lon="-5.17150688171387">
        <ele>567</ele>
        <time>2019-05-11T20:03:15Z</time>
      </trkpt>
      <trkpt lat="36.8621864318848" lon="-5.17150688171387">
        <ele>567</ele>
        <time>2019-05-11T20:03:17Z</time>
      </trkpt>
      <trkpt lat="36.8621864318848" lon="-5.17150688171387">
        <ele>567</ele>
        <time>2019-05-11T20:03:19Z</time>
      </trkpt>
      <trkpt lat="36.8621826171875" lon="-5.17150688171387">
        <ele>567</ele>
        <time>2019-05-11T20:03:21Z</time>
      </trkpt>
      <trkpt lat="36.8621826171875" lon="-5.17150783538818">
        <ele>567</ele>
        <time>2019-05-11T20:03:23Z</time>
      </trkpt>
      <trkpt lat="36.8621826171875" lon="-5.17150783538818">
        <ele>567</ele>
        <time>2019-05-11T20:03:25Z</time>
      </trkpt>
      <trkpt lat="36.8621826171875" lon="-5.17151021957397">
        <ele>567</ele>
        <time>2019-05-11T20:03:27Z</time>
      </trkpt>
      <trkpt lat="36.8621826171875" lon="-5.17151021957397">
        <ele>567</ele>
        <time>2019-05-11T20:03:29Z</time>
      </trkpt>
      <trkpt lat="36.8621788024902" lon="-5.17151212692261">
        <ele>567</ele>
        <time>2019-05-11T20:03:31Z</time>
      </trkpt>
      <trkpt lat="36.8621788024902" lon="-5.17151308059692">
        <ele>567</ele>
        <time>2019-05-11T20:03:33Z</time>
      </trkpt>
      <trkpt lat="36.8621788024902" lon="-5.17151308059692">
        <ele>567</ele>
        <time>2019-05-11T20:03:35Z</time>
      </trkpt>
      <trkpt lat="36.8621788024902" lon="-5.17151498794556">
        <ele>567</ele>
        <time>2019-05-11T20:03:37Z</time>
      </trkpt>
      <trkpt lat="36.8621788024902" lon="-5.17151689529419">
        <ele>567</ele>
        <time>2019-05-11T20:03:39Z</time>
      </trkpt>
      <trkpt lat="36.8621788024902" lon="-5.17151689529419">
        <ele>567</ele>
        <time>2019-05-11T20:03:41Z</time>
      </trkpt>
      <trkpt lat="36.8621788024902" lon="-5.17151689529419">
        <ele>567</ele>
        <time>2019-05-11T20:03:43Z</time>
      </trkpt>
      <trkpt lat="36.8621788024902" lon="-5.17151689529419">
        <ele>567</ele>
        <time>2019-05-11T20:03:45Z</time>
      </trkpt>
      <trkpt lat="36.8621788024902" lon="-5.17151689529419">
        <ele>567</ele>
        <time>2019-05-11T20:03:47Z</time>
      </trkpt>
      <trkpt lat="36.8621788024902" lon="-5.17151498794556">
        <ele>567</ele>
        <time>2019-05-11T20:03:49Z</time>
      </trkpt>
      <trkpt lat="36.8621788024902" lon="-5.17151689529419">
        <ele>567</ele>
        <time>2019-05-11T20:03:51Z</time>
      </trkpt>
      <trkpt lat="36.8621788024902" lon="-5.17151689529419">
        <ele>567</ele>
        <time>2019-05-11T20:03:53Z</time>
      </trkpt>
      <trkpt lat="36.8621788024902" lon="-5.17151308059692">
        <ele>567</ele>
        <time>2019-05-11T20:03:55Z</time>
      </trkpt>
      <trkpt lat="36.8621788024902" lon="-5.17151212692261">
        <ele>567</ele>
        <time>2019-05-11T20:03:57Z</time>
      </trkpt>
      <trkpt lat="36.8621788024902" lon="-5.17151212692261">
        <ele>567</ele>
        <time>2019-05-11T20:04:00Z</time>
      </trkpt>
      <trkpt lat="36.8621788024902" lon="-5.17151212692261">
        <ele>567</ele>
        <time>2019-05-11T20:04:02Z</time>
      </trkpt>
      <trkpt lat="36.8621826171875" lon="-5.17151212692261">
        <ele>567</ele>
        <time>2019-05-11T20:04:04Z</time>
      </trkpt>
      <trkpt lat="36.8621826171875" lon="-5.17151308059692">
        <ele>567</ele>
        <time>2019-05-11T20:04:06Z</time>
      </trkpt>
      <trkpt lat="36.8621826171875" lon="-5.17151498794556">
        <ele>567</ele>
        <time>2019-05-11T20:04:08Z</time>
      </trkpt>
      <trkpt lat="36.8621826171875" lon="-5.17151689529419">
        <ele>567</ele>
        <time>2019-05-11T20:04:10Z</time>
      </trkpt>
      <trkpt lat="36.8621826171875" lon="-5.17151784896851">
        <ele>567</ele>
        <time>2019-05-11T20:04:12Z</time>
      </trkpt>
      <trkpt lat="36.8621826171875" lon="-5.17151784896851">
        <ele>567</ele>
        <time>2019-05-11T20:04:14Z</time>
      </trkpt>
      <trkpt lat="36.8621826171875" lon="-5.17151784896851">
        <ele>567</ele>
        <time>2019-05-11T20:04:16Z</time>
      </trkpt>
      <trkpt lat="36.8621864318848" lon="-5.17151784896851">
        <ele>567</ele>
        <time>2019-05-11T20:04:18Z</time>
      </trkpt>
      <trkpt lat="36.8621826171875" lon="-5.17151689529419">
        <ele>567</ele>
        <time>2019-05-11T20:04:20Z</time>
      </trkpt>
      <trkpt lat="36.8621826171875" lon="-5.17151689529419">
        <ele>567</ele>
        <time>2019-05-11T20:04:22Z</time>
      </trkpt>
      <trkpt lat="36.8621826171875" lon="-5.17151498794556">
        <ele>567</ele>
        <time>2019-05-11T20:04:24Z</time>
      </trkpt>
      <trkpt lat="36.8621826171875" lon="-5.17151689529419">
        <ele>567</ele>
        <time>2019-05-11T20:04:26Z</time>
      </trkpt>
      <trkpt lat="36.8621826171875" lon="-5.17151498794556">
        <ele>567</ele>
        <time>2019-05-11T20:04:28Z</time>
      </trkpt>
      <trkpt lat="36.8621826171875" lon="-5.17151498794556">
        <ele>567</ele>
        <time>2019-05-11T20:04:30Z</time>
      </trkpt>
      <trkpt lat="36.8621788024902" lon="-5.17151021957397">
        <ele>567</ele>
        <time>2019-05-11T20:04:32Z</time>
      </trkpt>
      <trkpt lat="36.8621788024902" lon="-5.17150783538818">
        <ele>567</ele>
        <time>2019-05-11T20:04:34Z</time>
      </trkpt>
      <trkpt lat="36.8621788024902" lon="-5.17151021957397">
        <ele>567</ele>
        <time>2019-05-11T20:04:36Z</time>
      </trkpt>
      <trkpt lat="36.8621788024902" lon="-5.17151021957397">
        <ele>567</ele>
        <time>2019-05-11T20:04:38Z</time>
      </trkpt>
      <trkpt lat="36.8621788024902" lon="-5.17151212692261">
        <ele>567</ele>
        <time>2019-05-11T20:04:40Z</time>
      </trkpt>
      <trkpt lat="36.8621788024902" lon="-5.17151308059692">
        <ele>567</ele>
        <time>2019-05-11T20:04:42Z</time>
      </trkpt>
      <trkpt lat="36.8621788024902" lon="-5.17151689529419">
        <ele>567</ele>
        <time>2019-05-11T20:04:44Z</time>
      </trkpt>
      <trkpt lat="36.8621788024902" lon="-5.17151784896851">
        <ele>567</ele>
        <time>2019-05-11T20:04:46Z</time>
      </trkpt>
      <trkpt lat="36.8621788024902" lon="-5.17151689529419">
        <ele>567</ele>
        <time>2019-05-11T20:04:48Z</time>
      </trkpt>
      <trkpt lat="36.8621788024902" lon="-5.17151498794556">
        <ele>567</ele>
        <time>2019-05-11T20:04:50Z</time>
      </trkpt>
      <trkpt lat="36.862174987793" lon="-5.17151498794556">
        <ele>567</ele>
        <time>2019-05-11T20:04:52Z</time>
      </trkpt>
      <trkpt lat="36.8621788024902" lon="-5.17151689529419">
        <ele>567</ele>
        <time>2019-05-11T20:04:54Z</time>
      </trkpt>
      <trkpt lat="36.8621788024902" lon="-5.17151689529419">
        <ele>567</ele>
        <time>2019-05-11T20:04:56Z</time>
      </trkpt>
      <trkpt lat="36.8621788024902" lon="-5.17151689529419">
        <ele>567</ele>
        <time>2019-05-11T20:04:58Z</time>
      </trkpt>
      <trkpt lat="36.862174987793" lon="-5.17151689529419">
        <ele>567</ele>
        <time>2019-05-11T20:05:00Z</time>
      </trkpt>
      <trkpt lat="36.8621711730957" lon="-5.17151784896851">
        <ele>567</ele>
        <time>2019-05-11T20:05:02Z</time>
      </trkpt>
      <trkpt lat="36.8621711730957" lon="-5.17151689529419">
        <ele>567</ele>
        <time>2019-05-11T20:05:04Z</time>
      </trkpt>
      <trkpt lat="36.8621711730957" lon="-5.17151689529419">
        <ele>567</ele>
        <time>2019-05-11T20:05:06Z</time>
      </trkpt>
      <trkpt lat="36.8621711730957" lon="-5.17151498794556">
        <ele>567</ele>
        <time>2019-05-11T20:05:08Z</time>
      </trkpt>
      <trkpt lat="36.8621711730957" lon="-5.17151308059692">
        <ele>567</ele>
        <time>2019-05-11T20:05:10Z</time>
      </trkpt>
      <trkpt lat="36.8621711730957" lon="-5.17151212692261">
        <ele>567</ele>
        <time>2019-05-11T20:05:12Z</time>
      </trkpt>
      <trkpt lat="36.8621711730957" lon="-5.17151021957397">
        <ele>567</ele>
        <time>2019-05-11T20:05:14Z</time>
      </trkpt>
      <trkpt lat="36.8621711730957" lon="-5.17151212692261">
        <ele>567</ele>
        <time>2019-05-11T20:05:16Z</time>
      </trkpt>
      <trkpt lat="36.8621711730957" lon="-5.17150783538818">
        <ele>567</ele>
        <time>2019-05-11T20:05:18Z</time>
      </trkpt>
      <trkpt lat="36.8621673583984" lon="-5.17150783538818">
        <ele>567</ele>
        <time>2019-05-11T20:05:20Z</time>
      </trkpt>
      <trkpt lat="36.8621673583984" lon="-5.17151212692261">
        <ele>567</ele>
        <time>2019-05-11T20:05:23Z</time>
      </trkpt>
      <trkpt lat="36.8621635437012" lon="-5.17151308059692">
        <ele>567</ele>
        <time>2019-05-11T20:05:25Z</time>
      </trkpt>
      <trkpt lat="36.8621635437012" lon="-5.17151308059692">
        <ele>567</ele>
        <time>2019-05-11T20:05:27Z</time>
      </trkpt>
      <trkpt lat="36.8621673583984" lon="-5.17151212692261">
        <ele>567</ele>
        <time>2019-05-11T20:05:29Z</time>
      </trkpt>
      <trkpt lat="36.8621711730957" lon="-5.17151021957397">
        <ele>567</ele>
        <time>2019-05-11T20:05:31Z</time>
      </trkpt>
      <trkpt lat="36.8621711730957" lon="-5.17151021957397">
        <ele>567</ele>
        <time>2019-05-11T20:05:33Z</time>
      </trkpt>
      <trkpt lat="36.8621711730957" lon="-5.17151021957397">
        <ele>567</ele>
        <time>2019-05-11T20:05:35Z</time>
      </trkpt>
      <trkpt lat="36.8621711730957" lon="-5.17151212692261">
        <ele>567</ele>
        <time>2019-05-11T20:05:37Z</time>
      </trkpt>
      <trkpt lat="36.8621711730957" lon="-5.17151212692261">
        <ele>567</ele>
        <time>2019-05-11T20:05:39Z</time>
      </trkpt>
      <trkpt lat="36.862174987793" lon="-5.17151308059692">
        <ele>567</ele>
        <time>2019-05-11T20:05:41Z</time>
      </trkpt>
      <trkpt lat="36.8621826171875" lon="-5.17151784896851">
        <ele>567</ele>
        <time>2019-05-11T20:05:43Z</time>
      </trkpt>
      <trkpt lat="36.8621788024902" lon="-5.17152690887451">
        <ele>567</ele>
        <time>2019-05-11T20:05:45Z</time>
      </trkpt>
      <trkpt lat="36.8621788024902" lon="-5.17152976989746">
        <ele>567</ele>
        <time>2019-05-11T20:05:47Z</time>
      </trkpt>
      <trkpt lat="36.8621711730957" lon="-5.17153215408325">
        <ele>567</ele>
        <time>2019-05-11T20:05:49Z</time>
      </trkpt>
      <trkpt lat="36.8621673583984" lon="-5.17153692245483">
        <ele>567</ele>
        <time>2019-05-11T20:05:51Z</time>
      </trkpt>
      <trkpt lat="36.8621673583984" lon="-5.17153978347778">
        <ele>567</ele>
        <time>2019-05-11T20:05:53Z</time>
      </trkpt>
      <trkpt lat="36.8621673583984" lon="-5.17153978347778">
        <ele>567</ele>
        <time>2019-05-11T20:05:55Z</time>
      </trkpt>
      <trkpt lat="36.8621673583984" lon="-5.17153787612915">
        <ele>567</ele>
        <time>2019-05-11T20:05:57Z</time>
      </trkpt>
      <trkpt lat="36.8621711730957" lon="-5.17153787612915">
        <ele>567</ele>
        <time>2019-05-11T20:05:59Z</time>
      </trkpt>
      <trkpt lat="36.8621711730957" lon="-5.1715350151062">
        <ele>567</ele>
        <time>2019-05-11T20:06:01Z</time>
      </trkpt>
      <trkpt lat="36.8621711730957" lon="-5.17153310775757">
        <ele>567</ele>
        <time>2019-05-11T20:06:03Z</time>
      </trkpt>
      <trkpt lat="36.8621711730957" lon="-5.17153310775757">
        <ele>567</ele>
        <time>2019-05-11T20:06:05Z</time>
      </trkpt>
      <trkpt lat="36.8621711730957" lon="-5.17153310775757">
        <ele>567</ele>
        <time>2019-05-11T20:06:07Z</time>
      </trkpt>
      <trkpt lat="36.8621711730957" lon="-5.17152976989746">
        <ele>567</ele>
        <time>2019-05-11T20:06:10Z</time>
      </trkpt>
      <trkpt lat="36.8621711730957" lon="-5.17152786254883">
        <ele>567</ele>
        <time>2019-05-11T20:06:12Z</time>
      </trkpt>
      <trkpt lat="36.8621711730957" lon="-5.17152786254883">
        <ele>567</ele>
        <time>2019-05-11T20:06:14Z</time>
      </trkpt>
      <trkpt lat="36.8621711730957" lon="-5.17152690887451">
        <ele>567</ele>
        <time>2019-05-11T20:06:16Z</time>
      </trkpt>
      <trkpt lat="36.8621711730957" lon="-5.17152500152588">
        <ele>567</ele>
        <time>2019-05-11T20:06:18Z</time>
      </trkpt>
      <trkpt lat="36.8621711730957" lon="-5.17152309417725">
        <ele>567</ele>
        <time>2019-05-11T20:06:20Z</time>
      </trkpt>
      <trkpt lat="36.862174987793" lon="-5.1715202331543">
        <ele>567</ele>
        <time>2019-05-11T20:06:22Z</time>
      </trkpt>
      <trkpt lat="36.862174987793" lon="-5.17151784896851">
        <ele>567</ele>
        <time>2019-05-11T20:06:24Z</time>
      </trkpt>
      <trkpt lat="36.862174987793" lon="-5.17151689529419">
        <ele>567</ele>
        <time>2019-05-11T20:06:26Z</time>
      </trkpt>
      <trkpt lat="36.8621788024902" lon="-5.17151689529419">
        <ele>567</ele>
        <time>2019-05-11T20:06:28Z</time>
      </trkpt>
      <trkpt lat="36.8621788024902" lon="-5.17151308059692">
        <ele>567</ele>
        <time>2019-05-11T20:06:30Z</time>
      </trkpt>
      <trkpt lat="36.8621788024902" lon="-5.17151021957397">
        <ele>567</ele>
        <time>2019-05-11T20:06:32Z</time>
      </trkpt>
      <trkpt lat="36.8621788024902" lon="-5.17150497436523">
        <ele>567</ele>
        <time>2019-05-11T20:06:34Z</time>
      </trkpt>
      <trkpt lat="36.8621788024902" lon="-5.17150020599365">
        <ele>567</ele>
        <time>2019-05-11T20:06:36Z</time>
      </trkpt>
      <trkpt lat="36.8621788024902" lon="-5.17149782180786">
        <ele>567</ele>
        <time>2019-05-11T20:06:38Z</time>
      </trkpt>
      <trkpt lat="36.8621788024902" lon="-5.17149686813354">
        <ele>567</ele>
        <time>2019-05-11T20:06:40Z</time>
      </trkpt>
      <trkpt lat="36.8621788024902" lon="-5.17149496078491">
        <ele>567</ele>
        <time>2019-05-11T20:06:42Z</time>
      </trkpt>
      <trkpt lat="36.8621788024902" lon="-5.17149496078491">
        <ele>567</ele>
        <time>2019-05-11T20:06:44Z</time>
      </trkpt>
      <trkpt lat="36.8621788024902" lon="-5.17149305343628">
        <ele>567</ele>
        <time>2019-05-11T20:06:46Z</time>
      </trkpt>
      <trkpt lat="36.8621788024902" lon="-5.17149496078491">
        <ele>567</ele>
        <time>2019-05-11T20:06:48Z</time>
      </trkpt>
      <trkpt lat="36.8621788024902" lon="-5.17149305343628">
        <ele>567</ele>
        <time>2019-05-11T20:06:50Z</time>
      </trkpt>
      <trkpt lat="36.8621788024902" lon="-5.17149496078491">
        <ele>567</ele>
        <time>2019-05-11T20:06:52Z</time>
      </trkpt>
      <trkpt lat="36.8621788024902" lon="-5.17149496078491">
        <ele>567</ele>
        <time>2019-05-11T20:06:54Z</time>
      </trkpt>
      <trkpt lat="36.862174987793" lon="-5.17149686813354">
        <ele>567</ele>
        <time>2019-05-11T20:06:56Z</time>
      </trkpt>
      <trkpt lat="36.862174987793" lon="-5.17149686813354">
        <ele>567</ele>
        <time>2019-05-11T20:06:58Z</time>
      </trkpt>
      <trkpt lat="36.862174987793" lon="-5.17149496078491">
        <ele>567</ele>
        <time>2019-05-11T20:07:00Z</time>
      </trkpt>
      <trkpt lat="36.8621711730957" lon="-5.17149496078491">
        <ele>567</ele>
        <time>2019-05-11T20:07:02Z</time>
      </trkpt>
      <trkpt lat="36.8621711730957" lon="-5.17149305343628">
        <ele>567</ele>
        <time>2019-05-11T20:07:04Z</time>
      </trkpt>
      <trkpt lat="36.8621711730957" lon="-5.17149496078491">
        <ele>567</ele>
        <time>2019-05-11T20:07:06Z</time>
      </trkpt>
      <trkpt lat="36.8621711730957" lon="-5.17149496078491">
        <ele>567</ele>
        <time>2019-05-11T20:07:08Z</time>
      </trkpt>
      <trkpt lat="36.8621711730957" lon="-5.17149496078491">
        <ele>567</ele>
        <time>2019-05-11T20:07:10Z</time>
      </trkpt>
      <trkpt lat="36.8621711730957" lon="-5.17149496078491">
        <ele>567</ele>
        <time>2019-05-11T20:07:12Z</time>
      </trkpt>
      <trkpt lat="36.8621711730957" lon="-5.17149305343628">
        <ele>567</ele>
        <time>2019-05-11T20:07:14Z</time>
      </trkpt>
      <trkpt lat="36.8621711730957" lon="-5.17149305343628">
        <ele>567</ele>
        <time>2019-05-11T20:07:16Z</time>
      </trkpt>
      <trkpt lat="36.8621711730957" lon="-5.17149209976196">
        <ele>567</ele>
        <time>2019-05-11T20:07:18Z</time>
      </trkpt>
      <trkpt lat="36.8621711730957" lon="-5.17149019241333">
        <ele>567</ele>
        <time>2019-05-11T20:07:20Z</time>
      </trkpt>
      <trkpt lat="36.8621711730957" lon="-5.17148780822754">
        <ele>567</ele>
        <time>2019-05-11T20:07:22Z</time>
      </trkpt>
      <trkpt lat="36.8621711730957" lon="-5.17148685455322">
        <ele>567</ele>
        <time>2019-05-11T20:07:24Z</time>
      </trkpt>
      <trkpt lat="36.862174987793" lon="-5.17148303985596">
        <ele>567</ele>
        <time>2019-05-11T20:07:26Z</time>
      </trkpt>
      <trkpt lat="36.862174987793" lon="-5.17148017883301">
        <ele>567</ele>
        <time>2019-05-11T20:07:28Z</time>
      </trkpt>
      <trkpt lat="36.8621788024902" lon="-5.1714768409729">
        <ele>567</ele>
        <time>2019-05-11T20:07:30Z</time>
      </trkpt>
      <trkpt lat="36.8621788024902" lon="-5.17147207260132">
        <ele>568</ele>
        <time>2019-05-11T20:07:33Z</time>
      </trkpt>
      <trkpt lat="36.8621788024902" lon="-5.17146778106689">
        <ele>568</ele>
        <time>2019-05-11T20:07:35Z</time>
      </trkpt>
      <trkpt lat="36.8621826171875" lon="-5.17146492004394">
        <ele>569</ele>
        <time>2019-05-11T20:07:37Z</time>
      </trkpt>
      <trkpt lat="36.8621826171875" lon="-5.17146015167236">
        <ele>570</ele>
        <time>2019-05-11T20:07:41Z</time>
      </trkpt>
      <trkpt lat="36.8621826171875" lon="-5.17145776748657">
        <ele>570</ele>
        <time>2019-05-11T20:07:43Z</time>
      </trkpt>
      <trkpt lat="36.8621826171875" lon="-5.17145681381226">
        <ele>570</ele>
        <time>2019-05-11T20:07:45Z</time>
      </trkpt>
      <trkpt lat="36.8621864318848" lon="-5.17145490646362">
        <ele>571</ele>
        <time>2019-05-11T20:07:47Z</time>
      </trkpt>
      <trkpt lat="36.8621826171875" lon="-5.17145490646362">
        <ele>571</ele>
        <time>2019-05-11T20:07:49Z</time>
      </trkpt>
      <trkpt lat="36.8621826171875" lon="-5.17145490646362">
        <ele>571</ele>
        <time>2019-05-11T20:07:51Z</time>
      </trkpt>
      <trkpt lat="36.8621864318848" lon="-5.17145299911499">
        <ele>571</ele>
        <time>2019-05-11T20:07:53Z</time>
      </trkpt>
      <trkpt lat="36.8621864318848" lon="-5.17145299911499">
        <ele>571</ele>
        <time>2019-05-11T20:07:55Z</time>
      </trkpt>
      <trkpt lat="36.8621864318848" lon="-5.17145299911499">
        <ele>571</ele>
        <time>2019-05-11T20:07:57Z</time>
      </trkpt>
      <trkpt lat="36.8621864318848" lon="-5.17145490646362">
        <ele>571</ele>
        <time>2019-05-11T20:07:59Z</time>
      </trkpt>
      <trkpt lat="36.8621864318848" lon="-5.17146015167236">
        <ele>571</ele>
        <time>2019-05-11T20:08:03Z</time>
      </trkpt>
      <trkpt lat="36.8621788024902" lon="-5.17145776748657">
        <ele>571</ele>
        <time>2019-05-11T20:08:13Z</time>
      </trkpt>
      <trkpt lat="36.8621788024902" lon="-5.17145776748657">
        <ele>571</ele>
        <time>2019-05-11T20:08:15Z</time>
      </trkpt>
      <trkpt lat="36.8621788024902" lon="-5.17145776748657">
        <ele>571</ele>
        <time>2019-05-11T20:08:17Z</time>
      </trkpt>
      <trkpt lat="36.8621788024902" lon="-5.17145681381226">
        <ele>571</ele>
        <time>2019-05-11T20:08:19Z</time>
      </trkpt>
      <trkpt lat="36.8621788024902" lon="-5.17145681381226">
        <ele>571</ele>
        <time>2019-05-11T20:08:21Z</time>
      </trkpt>
      <trkpt lat="36.8621788024902" lon="-5.17145490646362">
        <ele>571</ele>
        <time>2019-05-11T20:08:23Z</time>
      </trkpt>
      <trkpt lat="36.8621788024902" lon="-5.17145299911499">
        <ele>571</ele>
        <time>2019-05-11T20:08:25Z</time>
      </trkpt>
      <trkpt lat="36.8621788024902" lon="-5.17145299911499">
        <ele>571</ele>
        <time>2019-05-11T20:08:27Z</time>
      </trkpt>
      <trkpt lat="36.8621788024902" lon="-5.17145299911499">
        <ele>571</ele>
        <time>2019-05-11T20:08:29Z</time>
      </trkpt>
      <trkpt lat="36.8621788024902" lon="-5.17145299911499">
        <ele>571</ele>
        <time>2019-05-11T20:08:31Z</time>
      </trkpt>
      <trkpt lat="36.8621788024902" lon="-5.17145681381226">
        <ele>571</ele>
        <time>2019-05-11T20:08:33Z</time>
      </trkpt>
      <trkpt lat="36.8621788024902" lon="-5.17145490646362">
        <ele>571</ele>
        <time>2019-05-11T20:08:35Z</time>
      </trkpt>
      <trkpt lat="36.8621788024902" lon="-5.17145681381226">
        <ele>571</ele>
        <time>2019-05-11T20:08:37Z</time>
      </trkpt>
      <trkpt lat="36.8621788024902" lon="-5.17145776748657">
        <ele>571</ele>
        <time>2019-05-11T20:08:39Z</time>
      </trkpt>
      <trkpt lat="36.8621788024902" lon="-5.17145776748657">
        <ele>571</ele>
        <time>2019-05-11T20:08:41Z</time>
      </trkpt>
      <trkpt lat="36.8621788024902" lon="-5.17145681381226">
        <ele>571</ele>
        <time>2019-05-11T20:08:44Z</time>
      </trkpt>
      <trkpt lat="36.862174987793" lon="-5.17145490646362">
        <ele>571</ele>
        <time>2019-05-11T20:08:46Z</time>
      </trkpt>
      <trkpt lat="36.8621711730957" lon="-5.17145299911499">
        <ele>571</ele>
        <time>2019-05-11T20:08:48Z</time>
      </trkpt>
      <trkpt lat="36.8621711730957" lon="-5.17145013809204">
        <ele>571</ele>
        <time>2019-05-11T20:08:50Z</time>
      </trkpt>
      <trkpt lat="36.8621711730957" lon="-5.17144680023193">
        <ele>571</ele>
        <time>2019-05-11T20:08:52Z</time>
      </trkpt>
      <trkpt lat="36.8621711730957" lon="-5.1714448928833">
        <ele>572</ele>
        <time>2019-05-11T20:08:54Z</time>
      </trkpt>
      <trkpt lat="36.8621673583984" lon="-5.1714448928833">
        <ele>572</ele>
        <time>2019-05-11T20:08:58Z</time>
      </trkpt>
      <trkpt lat="36.8621711730957" lon="-5.17144298553467">
        <ele>572</ele>
        <time>2019-05-11T20:09:00Z</time>
      </trkpt>
      <trkpt lat="36.8621711730957" lon="-5.17144203186035">
        <ele>572</ele>
        <time>2019-05-11T20:09:02Z</time>
      </trkpt>
      <trkpt lat="36.8621711730957" lon="-5.17144012451172">
        <ele>572</ele>
        <time>2019-05-11T20:09:04Z</time>
      </trkpt>
      <trkpt lat="36.8621711730957" lon="-5.17144298553467">
        <ele>572</ele>
        <time>2019-05-11T20:09:06Z</time>
      </trkpt>
      <trkpt lat="36.8621711730957" lon="-5.17144012451172">
        <ele>572</ele>
        <time>2019-05-11T20:09:08Z</time>
      </trkpt>
      <trkpt lat="36.8621711730957" lon="-5.17143821716309">
        <ele>572</ele>
        <time>2019-05-11T20:09:10Z</time>
      </trkpt>
      <trkpt lat="36.8621711730957" lon="-5.17143821716309">
        <ele>572</ele>
        <time>2019-05-11T20:09:12Z</time>
      </trkpt>
      <trkpt lat="36.862174987793" lon="-5.17143678665161">
        <ele>572</ele>
        <time>2019-05-11T20:09:14Z</time>
      </trkpt>
      <trkpt lat="36.8621788024902" lon="-5.17143678665161">
        <ele>572</ele>
        <time>2019-05-11T20:09:16Z</time>
      </trkpt>
      <trkpt lat="36.862174987793" lon="-5.17143487930298">
        <ele>572</ele>
        <time>2019-05-11T20:09:18Z</time>
      </trkpt>
      <trkpt lat="36.862174987793" lon="-5.17143678665161">
        <ele>572</ele>
        <time>2019-05-11T20:09:20Z</time>
      </trkpt>
      <trkpt lat="36.862174987793" lon="-5.17143678665161">
        <ele>572</ele>
        <time>2019-05-11T20:09:22Z</time>
      </trkpt>
      <trkpt lat="36.862174987793" lon="-5.17143487930298">
        <ele>572</ele>
        <time>2019-05-11T20:09:24Z</time>
      </trkpt>
      <trkpt lat="36.8621788024902" lon="-5.17143201828003">
        <ele>572</ele>
        <time>2019-05-11T20:09:26Z</time>
      </trkpt>
      <trkpt lat="36.8621788024902" lon="-5.1714301109314">
        <ele>572</ele>
        <time>2019-05-11T20:09:28Z</time>
      </trkpt>
      <trkpt lat="36.8621788024902" lon="-5.17142820358276">
        <ele>573</ele>
        <time>2019-05-11T20:09:30Z</time>
      </trkpt>
      <trkpt lat="36.8621788024902" lon="-5.17142677307129">
        <ele>574</ele>
        <time>2019-05-11T20:09:32Z</time>
      </trkpt>
      <trkpt lat="36.8621788024902" lon="-5.17142295837402">
        <ele>574</ele>
        <time>2019-05-11T20:09:34Z</time>
      </trkpt>
      <trkpt lat="36.8621788024902" lon="-5.17142486572266">
        <ele>575</ele>
        <time>2019-05-11T20:09:38Z</time>
      </trkpt>
      <trkpt lat="36.8621788024902" lon="-5.17142200469971">
        <ele>576</ele>
        <time>2019-05-11T20:09:42Z</time>
      </trkpt>
      <trkpt lat="36.8621788024902" lon="-5.17141819000244">
        <ele>576</ele>
        <time>2019-05-11T20:09:44Z</time>
      </trkpt>
      <trkpt lat="36.862174987793" lon="-5.17142200469971">
        <ele>577</ele>
        <time>2019-05-11T20:09:52Z</time>
      </trkpt>
      <trkpt lat="36.862174987793" lon="-5.17142009735107">
        <ele>578</ele>
        <time>2019-05-11T20:09:55Z</time>
      </trkpt>
      <trkpt lat="36.8621711730957" lon="-5.17142009735107">
        <ele>578</ele>
        <time>2019-05-11T20:09:57Z</time>
      </trkpt>
      <trkpt lat="36.8621711730957" lon="-5.17142200469971">
        <ele>578</ele>
        <time>2019-05-11T20:09:59Z</time>
      </trkpt>
      <trkpt lat="36.8621788024902" lon="-5.17142009735107">
        <ele>578</ele>
        <time>2019-05-11T20:10:01Z</time>
      </trkpt>
      <trkpt lat="36.862174987793" lon="-5.17142295837402">
        <ele>578</ele>
        <time>2019-05-11T20:10:03Z</time>
      </trkpt>
      <trkpt lat="36.862174987793" lon="-5.1714301109314">
        <ele>578</ele>
        <time>2019-05-11T20:10:05Z</time>
      </trkpt>
      <trkpt lat="36.862174987793" lon="-5.17143821716309">
        <ele>578</ele>
        <time>2019-05-11T20:10:09Z</time>
      </trkpt>
      <trkpt lat="36.862174987793" lon="-5.17144012451172">
        <ele>578</ele>
        <time>2019-05-11T20:10:11Z</time>
      </trkpt>
      <trkpt lat="36.8621788024902" lon="-5.17144203186035">
        <ele>578</ele>
        <time>2019-05-11T20:10:13Z</time>
      </trkpt>
      <trkpt lat="36.8621788024902" lon="-5.17144203186035">
        <ele>578</ele>
        <time>2019-05-11T20:10:15Z</time>
      </trkpt>
      <trkpt lat="36.8621788024902" lon="-5.17144012451172">
        <ele>578</ele>
        <time>2019-05-11T20:10:17Z</time>
      </trkpt>
      <trkpt lat="36.8621788024902" lon="-5.17144203186035">
        <ele>578</ele>
        <time>2019-05-11T20:10:19Z</time>
      </trkpt>
      <trkpt lat="36.8621788024902" lon="-5.17144203186035">
        <ele>578</ele>
        <time>2019-05-11T20:10:21Z</time>
      </trkpt>
      <trkpt lat="36.8621826171875" lon="-5.17143821716309">
        <ele>578</ele>
        <time>2019-05-11T20:10:23Z</time>
      </trkpt>
      <trkpt lat="36.8621864318848" lon="-5.17143821716309">
        <ele>578</ele>
        <time>2019-05-11T20:10:25Z</time>
      </trkpt>
      <trkpt lat="36.862190246582" lon="-5.17144012451172">
        <ele>578</ele>
        <time>2019-05-11T20:10:31Z</time>
      </trkpt>
      <trkpt lat="36.862190246582" lon="-5.17145204544067">
        <ele>578</ele>
        <time>2019-05-11T20:10:37Z</time>
      </trkpt>
      <trkpt lat="36.862190246582" lon="-5.17145204544067">
        <ele>578</ele>
        <time>2019-05-11T20:10:39Z</time>
      </trkpt>
      <trkpt lat="36.862190246582" lon="-5.17145299911499">
        <ele>578</ele>
        <time>2019-05-11T20:10:41Z</time>
      </trkpt>
      <trkpt lat="36.862190246582" lon="-5.17145681381226">
        <ele>578</ele>
        <time>2019-05-11T20:10:43Z</time>
      </trkpt>
      <trkpt lat="36.862190246582" lon="-5.17145681381226">
        <ele>578</ele>
        <time>2019-05-11T20:10:45Z</time>
      </trkpt>
      <trkpt lat="36.862190246582" lon="-5.17146015167236">
        <ele>577</ele>
        <time>2019-05-11T20:10:49Z</time>
      </trkpt>
      <trkpt lat="36.862190246582" lon="-5.17146015167236">
        <ele>577</ele>
        <time>2019-05-11T20:10:51Z</time>
      </trkpt>
      <trkpt lat="36.862190246582" lon="-5.17146015167236">
        <ele>577</ele>
        <time>2019-05-11T20:10:53Z</time>
      </trkpt>
      <trkpt lat="36.862190246582" lon="-5.17146015167236">
        <ele>577</ele>
        <time>2019-05-11T20:10:55Z</time>
      </trkpt>
      <trkpt lat="36.862190246582" lon="-5.17145490646362">
        <ele>577</ele>
        <time>2019-05-11T20:11:05Z</time>
      </trkpt>
      <trkpt lat="36.862190246582" lon="-5.17145490646362">
        <ele>577</ele>
        <time>2019-05-11T20:11:09Z</time>
      </trkpt>
      <trkpt lat="36.8621864318848" lon="-5.17145204544067">
        <ele>576</ele>
        <time>2019-05-11T20:11:20Z</time>
      </trkpt>
      <trkpt lat="36.8621864318848" lon="-5.17144823074341">
        <ele>576</ele>
        <time>2019-05-11T20:11:22Z</time>
      </trkpt>
      <trkpt lat="36.8621864318848" lon="-5.1714448928833">
        <ele>576</ele>
        <time>2019-05-11T20:11:24Z</time>
      </trkpt>
      <trkpt lat="36.8621864318848" lon="-5.17144298553467">
        <ele>576</ele>
        <time>2019-05-11T20:11:26Z</time>
      </trkpt>
      <trkpt lat="36.8621864318848" lon="-5.17144298553467">
        <ele>576</ele>
        <time>2019-05-11T20:11:28Z</time>
      </trkpt>
      <trkpt lat="36.8621864318848" lon="-5.1714448928833">
        <ele>576</ele>
        <time>2019-05-11T20:11:30Z</time>
      </trkpt>
      <trkpt lat="36.8621864318848" lon="-5.17144823074341">
        <ele>576</ele>
        <time>2019-05-11T20:11:32Z</time>
      </trkpt>
      <trkpt lat="36.8621864318848" lon="-5.17145204544067">
        <ele>576</ele>
        <time>2019-05-11T20:11:34Z</time>
      </trkpt>
      <trkpt lat="36.8621864318848" lon="-5.17145013809204">
        <ele>576</ele>
        <time>2019-05-11T20:11:36Z</time>
      </trkpt>
      <trkpt lat="36.8621864318848" lon="-5.17147207260132">
        <ele>574</ele>
        <time>2019-05-11T20:11:56Z</time>
      </trkpt>
      <trkpt lat="36.8621864318848" lon="-5.17148208618164">
        <ele>572</ele>
        <time>2019-05-11T20:12:02Z</time>
      </trkpt>
      <trkpt lat="36.8621864318848" lon="-5.17148303985596">
        <ele>572</ele>
        <time>2019-05-11T20:12:04Z</time>
      </trkpt>
      <trkpt lat="36.8621864318848" lon="-5.17148303985596">
        <ele>572</ele>
        <time>2019-05-11T20:12:06Z</time>
      </trkpt>
      <trkpt lat="36.8621864318848" lon="-5.17148494720459">
        <ele>572</ele>
        <time>2019-05-11T20:12:08Z</time>
      </trkpt>
      <trkpt lat="36.8621864318848" lon="-5.17148685455322">
        <ele>572</ele>
        <time>2019-05-11T20:12:10Z</time>
      </trkpt>
      <trkpt lat="36.8621864318848" lon="-5.17148780822754">
        <ele>572</ele>
        <time>2019-05-11T20:12:12Z</time>
      </trkpt>
      <trkpt lat="36.8621864318848" lon="-5.17149019241333">
        <ele>572</ele>
        <time>2019-05-11T20:12:14Z</time>
      </trkpt>
      <trkpt lat="36.8621864318848" lon="-5.17149019241333">
        <ele>572</ele>
        <time>2019-05-11T20:12:16Z</time>
      </trkpt>
      <trkpt lat="36.8621864318848" lon="-5.17149019241333">
        <ele>572</ele>
        <time>2019-05-11T20:12:18Z</time>
      </trkpt>
      <trkpt lat="36.8621864318848" lon="-5.17149019241333">
        <ele>572</ele>
        <time>2019-05-11T20:12:20Z</time>
      </trkpt>
      <trkpt lat="36.8621864318848" lon="-5.17149209976196">
        <ele>572</ele>
        <time>2019-05-11T20:12:22Z</time>
      </trkpt>
      <trkpt lat="36.8621864318848" lon="-5.17149209976196">
        <ele>572</ele>
        <time>2019-05-11T20:12:25Z</time>
      </trkpt>
      <trkpt lat="36.8621864318848" lon="-5.17149305343628">
        <ele>572</ele>
        <time>2019-05-11T20:12:27Z</time>
      </trkpt>
      <trkpt lat="36.8621864318848" lon="-5.17149305343628">
        <ele>572</ele>
        <time>2019-05-11T20:12:29Z</time>
      </trkpt>
      <trkpt lat="36.8621864318848" lon="-5.17149209976196">
        <ele>572</ele>
        <time>2019-05-11T20:12:31Z</time>
      </trkpt>
      <trkpt lat="36.8621864318848" lon="-5.17149019241333">
        <ele>572</ele>
        <time>2019-05-11T20:12:33Z</time>
      </trkpt>
      <trkpt lat="36.8621864318848" lon="-5.17148685455322">
        <ele>572</ele>
        <time>2019-05-11T20:12:35Z</time>
      </trkpt>
      <trkpt lat="36.8621864318848" lon="-5.17148494720459">
        <ele>572</ele>
        <time>2019-05-11T20:12:37Z</time>
      </trkpt>
      <trkpt lat="36.8621864318848" lon="-5.17148303985596">
        <ele>572</ele>
        <time>2019-05-11T20:12:39Z</time>
      </trkpt>
      <trkpt lat="36.8621864318848" lon="-5.17148208618164">
        <ele>572</ele>
        <time>2019-05-11T20:12:41Z</time>
      </trkpt>
      <trkpt lat="36.8621864318848" lon="-5.1714768409729">
        <ele>572</ele>
        <time>2019-05-11T20:12:49Z</time>
      </trkpt>
      <trkpt lat="36.8621864318848" lon="-5.1714768409729">
        <ele>572</ele>
        <time>2019-05-11T20:12:51Z</time>
      </trkpt>
      <trkpt lat="36.8621826171875" lon="-5.17147493362427">
        <ele>572</ele>
        <time>2019-05-11T20:12:55Z</time>
      </trkpt>
      <trkpt lat="36.8621826171875" lon="-5.17147493362427">
        <ele>572</ele>
        <time>2019-05-11T20:12:57Z</time>
      </trkpt>
      <trkpt lat="36.8621826171875" lon="-5.1714768409729">
        <ele>572</ele>
        <time>2019-05-11T20:12:59Z</time>
      </trkpt>
      <trkpt lat="36.8621826171875" lon="-5.17147779464722">
        <ele>572</ele>
        <time>2019-05-11T20:13:01Z</time>
      </trkpt>
      <trkpt lat="36.8621826171875" lon="-5.17147493362427">
        <ele>572</ele>
        <time>2019-05-11T20:13:03Z</time>
      </trkpt>
      <trkpt lat="36.8621826171875" lon="-5.17147016525269">
        <ele>572</ele>
        <time>2019-05-11T20:13:05Z</time>
      </trkpt>
      <trkpt lat="36.8621826171875" lon="-5.17146682739258">
        <ele>572</ele>
        <time>2019-05-11T20:13:07Z</time>
      </trkpt>
      <trkpt lat="36.8621826171875" lon="-5.17145204544067">
        <ele>574</ele>
        <time>2019-05-11T20:13:15Z</time>
      </trkpt>
      <trkpt lat="36.8621826171875" lon="-5.17144680023193">
        <ele>575</ele>
        <time>2019-05-11T20:13:17Z</time>
      </trkpt>
      <trkpt lat="36.8621826171875" lon="-5.17145013809204">
        <ele>576</ele>
        <time>2019-05-11T20:13:21Z</time>
      </trkpt>
      <trkpt lat="36.8621788024902" lon="-5.17145204544067">
        <ele>576</ele>
        <time>2019-05-11T20:13:23Z</time>
      </trkpt>
      <trkpt lat="36.8621788024902" lon="-5.17146301269531">
        <ele>576</ele>
        <time>2019-05-11T20:13:29Z</time>
      </trkpt>
      <trkpt lat="36.8621788024902" lon="-5.17146301269531">
        <ele>576</ele>
        <time>2019-05-11T20:13:31Z</time>
      </trkpt>
      <trkpt lat="36.8621788024902" lon="-5.17146682739258">
        <ele>576</ele>
        <time>2019-05-11T20:13:33Z</time>
      </trkpt>
      <trkpt lat="36.8621788024902" lon="-5.17146682739258">
        <ele>576</ele>
        <time>2019-05-11T20:13:41Z</time>
      </trkpt>
      <trkpt lat="36.8621788024902" lon="-5.17146492004394">
        <ele>576</ele>
        <time>2019-05-11T20:13:43Z</time>
      </trkpt>
      <trkpt lat="36.8621788024902" lon="-5.17146301269531">
        <ele>576</ele>
        <time>2019-05-11T20:13:45Z</time>
      </trkpt>
      <trkpt lat="36.8621788024902" lon="-5.17145013809204">
        <ele>576</ele>
        <time>2019-05-11T20:13:51Z</time>
      </trkpt>
      <trkpt lat="36.8621826171875" lon="-5.17144823074341">
        <ele>576</ele>
        <time>2019-05-11T20:13:53Z</time>
      </trkpt>
      <trkpt lat="36.8621826171875" lon="-5.17144823074341">
        <ele>576</ele>
        <time>2019-05-11T20:13:55Z</time>
      </trkpt>
      <trkpt lat="36.8621826171875" lon="-5.17144823074341">
        <ele>576</ele>
        <time>2019-05-11T20:13:57Z</time>
      </trkpt>
      <trkpt lat="36.862190246582" lon="-5.17147493362427">
        <ele>575</ele>
        <time>2019-05-11T20:14:08Z</time>
      </trkpt>
      <trkpt lat="36.862190246582" lon="-5.1714768409729">
        <ele>574</ele>
        <time>2019-05-11T20:14:10Z</time>
      </trkpt>
      <trkpt lat="36.862190246582" lon="-5.17147779464722">
        <ele>574</ele>
        <time>2019-05-11T20:14:12Z</time>
      </trkpt>
      <trkpt lat="36.8621940612793" lon="-5.17148303985596">
        <ele>573</ele>
        <time>2019-05-11T20:14:14Z</time>
      </trkpt>
      <trkpt lat="36.8621940612793" lon="-5.17148780822754">
        <ele>572</ele>
        <time>2019-05-11T20:14:16Z</time>
      </trkpt>
      <trkpt lat="36.8621940612793" lon="-5.17148780822754">
        <ele>572</ele>
        <time>2019-05-11T20:14:18Z</time>
      </trkpt>
      <trkpt lat="36.8621940612793" lon="-5.17149019241333">
        <ele>571</ele>
        <time>2019-05-11T20:14:20Z</time>
      </trkpt>
      <trkpt lat="36.8621940612793" lon="-5.17149686813354">
        <ele>571</ele>
        <time>2019-05-11T20:14:22Z</time>
      </trkpt>
      <trkpt lat="36.862190246582" lon="-5.17150497436523">
        <ele>570</ele>
        <time>2019-05-11T20:14:24Z</time>
      </trkpt>
      <trkpt lat="36.8621940612793" lon="-5.17151308059692">
        <ele>569</ele>
        <time>2019-05-11T20:14:26Z</time>
      </trkpt>
      <trkpt lat="36.8621940612793" lon="-5.17151784896851">
        <ele>568</ele>
        <time>2019-05-11T20:14:28Z</time>
      </trkpt>
      <trkpt lat="36.8621940612793" lon="-5.17152500152588">
        <ele>567</ele>
        <time>2019-05-11T20:14:30Z</time>
      </trkpt>
      <trkpt lat="36.8621940612793" lon="-5.17152690887451">
        <ele>566</ele>
        <time>2019-05-11T20:14:36Z</time>
      </trkpt>
      <trkpt lat="36.8621940612793" lon="-5.17152690887451">
        <ele>566</ele>
        <time>2019-05-11T20:14:38Z</time>
      </trkpt>
      <trkpt lat="36.862190246582" lon="-5.17152309417725">
        <ele>566</ele>
        <time>2019-05-11T20:14:40Z</time>
      </trkpt>
      <trkpt lat="36.8621940612793" lon="-5.17152976989746">
        <ele>566</ele>
        <time>2019-05-11T20:14:42Z</time>
      </trkpt>
      <trkpt lat="36.8621940612793" lon="-5.17153310775757">
        <ele>566</ele>
        <time>2019-05-11T20:14:45Z</time>
      </trkpt>
      <trkpt lat="36.8621940612793" lon="-5.17152976989746">
        <ele>566</ele>
        <time>2019-05-11T20:14:47Z</time>
      </trkpt>
      <trkpt lat="36.8621940612793" lon="-5.17153310775757">
        <ele>566</ele>
        <time>2019-05-11T20:14:49Z</time>
      </trkpt>
      <trkpt lat="36.8621940612793" lon="-5.17153692245483">
        <ele>566</ele>
        <time>2019-05-11T20:14:51Z</time>
      </trkpt>
      <trkpt lat="36.8621940612793" lon="-5.17153692245483">
        <ele>566</ele>
        <time>2019-05-11T20:14:53Z</time>
      </trkpt>
      <trkpt lat="36.862190246582" lon="-5.17153787612915">
        <ele>566</ele>
        <time>2019-05-11T20:14:55Z</time>
      </trkpt>
      <trkpt lat="36.8621940612793" lon="-5.17154312133789">
        <ele>566</ele>
        <time>2019-05-11T20:14:57Z</time>
      </trkpt>
      <trkpt lat="36.8621940612793" lon="-5.17154693603516">
        <ele>566</ele>
        <time>2019-05-11T20:14:59Z</time>
      </trkpt>
      <trkpt lat="36.8621940612793" lon="-5.17154788970947">
        <ele>566</ele>
        <time>2019-05-11T20:15:01Z</time>
      </trkpt>
      <trkpt lat="36.8621978759766" lon="-5.17154693603516">
        <ele>566</ele>
        <time>2019-05-11T20:15:03Z</time>
      </trkpt>
      <trkpt lat="36.8621978759766" lon="-5.17154693603516">
        <ele>566</ele>
        <time>2019-05-11T20:15:05Z</time>
      </trkpt>
      <trkpt lat="36.8621978759766" lon="-5.17154502868652">
        <ele>566</ele>
        <time>2019-05-11T20:15:07Z</time>
      </trkpt>
      <trkpt lat="36.8621978759766" lon="-5.17154216766357">
        <ele>566</ele>
        <time>2019-05-11T20:15:09Z</time>
      </trkpt>
      <trkpt lat="36.8621940612793" lon="-5.17153692245483">
        <ele>566</ele>
        <time>2019-05-11T20:15:11Z</time>
      </trkpt>
      <trkpt lat="36.8621978759766" lon="-5.1715350151062">
        <ele>566</ele>
        <time>2019-05-11T20:15:13Z</time>
      </trkpt>
      <trkpt lat="36.8622016906738" lon="-5.17153787612915">
        <ele>566</ele>
        <time>2019-05-11T20:15:15Z</time>
      </trkpt>
      <trkpt lat="36.8622016906738" lon="-5.17153692245483">
        <ele>566</ele>
        <time>2019-05-11T20:15:17Z</time>
      </trkpt>
      <trkpt lat="36.8622016906738" lon="-5.17153692245483">
        <ele>566</ele>
        <time>2019-05-11T20:15:19Z</time>
      </trkpt>
      <trkpt lat="36.8622055053711" lon="-5.1715350151062">
        <ele>566</ele>
        <time>2019-05-11T20:15:21Z</time>
      </trkpt>
      <trkpt lat="36.8622055053711" lon="-5.17152976989746">
        <ele>566</ele>
        <time>2019-05-11T20:15:23Z</time>
      </trkpt>
      <trkpt lat="36.8622016906738" lon="-5.17152690887451">
        <ele>566</ele>
        <time>2019-05-11T20:15:25Z</time>
      </trkpt>
      <trkpt lat="36.8622016906738" lon="-5.17152690887451">
        <ele>566</ele>
        <time>2019-05-11T20:15:27Z</time>
      </trkpt>
      <trkpt lat="36.8622016906738" lon="-5.17152309417725">
        <ele>566</ele>
        <time>2019-05-11T20:15:29Z</time>
      </trkpt>
      <trkpt lat="36.8621978759766" lon="-5.17152309417725">
        <ele>566</ele>
        <time>2019-05-11T20:15:31Z</time>
      </trkpt>
      <trkpt lat="36.8621978759766" lon="-5.17152500152588">
        <ele>566</ele>
        <time>2019-05-11T20:15:33Z</time>
      </trkpt>
      <trkpt lat="36.8621940612793" lon="-5.17152786254883">
        <ele>566</ele>
        <time>2019-05-11T20:15:35Z</time>
      </trkpt>
      <trkpt lat="36.8621978759766" lon="-5.17152976989746">
        <ele>566</ele>
        <time>2019-05-11T20:15:37Z</time>
      </trkpt>
      <trkpt lat="36.8621978759766" lon="-5.17152786254883">
        <ele>566</ele>
        <time>2019-05-11T20:15:40Z</time>
      </trkpt>
      <trkpt lat="36.8621978759766" lon="-5.17152309417725">
        <ele>566</ele>
        <time>2019-05-11T20:15:42Z</time>
      </trkpt>
      <trkpt lat="36.8622016906738" lon="-5.17152309417725">
        <ele>566</ele>
        <time>2019-05-11T20:15:44Z</time>
      </trkpt>
      <trkpt lat="36.8622055053711" lon="-5.17152500152588">
        <ele>566</ele>
        <time>2019-05-11T20:15:46Z</time>
      </trkpt>
      <trkpt lat="36.8622055053711" lon="-5.17152500152588">
        <ele>566</ele>
        <time>2019-05-11T20:15:48Z</time>
      </trkpt>
      <trkpt lat="36.8622016906738" lon="-5.17151784896851">
        <ele>566</ele>
        <time>2019-05-11T20:15:50Z</time>
      </trkpt>
      <trkpt lat="36.8621940612793" lon="-5.17151212692261">
        <ele>566</ele>
        <time>2019-05-11T20:15:52Z</time>
      </trkpt>
      <trkpt lat="36.862190246582" lon="-5.17151212692261">
        <ele>566</ele>
        <time>2019-05-11T20:15:54Z</time>
      </trkpt>
      <trkpt lat="36.8621864318848" lon="-5.17151212692261">
        <ele>566</ele>
        <time>2019-05-11T20:15:56Z</time>
      </trkpt>
      <trkpt lat="36.8621788024902" lon="-5.1715030670166">
        <ele>566</ele>
        <time>2019-05-11T20:16:02Z</time>
      </trkpt>
      <trkpt lat="36.8621711730957" lon="-5.17150211334228">
        <ele>566</ele>
        <time>2019-05-11T20:16:06Z</time>
      </trkpt>
      <trkpt lat="36.8621711730957" lon="-5.17150211334228">
        <ele>566</ele>
        <time>2019-05-11T20:16:08Z</time>
      </trkpt>
      <trkpt lat="36.8621711730957" lon="-5.17150211334228">
        <ele>566</ele>
        <time>2019-05-11T20:16:10Z</time>
      </trkpt>
      <trkpt lat="36.8621711730957" lon="-5.17150020599365">
        <ele>566</ele>
        <time>2019-05-11T20:16:12Z</time>
      </trkpt>
      <trkpt lat="36.8621673583984" lon="-5.17149686813354">
        <ele>566</ele>
        <time>2019-05-11T20:16:16Z</time>
      </trkpt>
      <trkpt lat="36.8621673583984" lon="-5.17149782180786">
        <ele>566</ele>
        <time>2019-05-11T20:16:18Z</time>
      </trkpt>
      <trkpt lat="36.8621673583984" lon="-5.17150020599365">
        <ele>566</ele>
        <time>2019-05-11T20:16:21Z</time>
      </trkpt>
      <trkpt lat="36.8621711730957" lon="-5.17150497436523">
        <ele>566</ele>
        <time>2019-05-11T20:16:23Z</time>
      </trkpt>
      <trkpt lat="36.8621673583984" lon="-5.17151021957397">
        <ele>566</ele>
        <time>2019-05-11T20:16:25Z</time>
      </trkpt>
      <trkpt lat="36.8621635437012" lon="-5.17151021957397">
        <ele>566</ele>
        <time>2019-05-11T20:16:27Z</time>
      </trkpt>
      <trkpt lat="36.8621635437012" lon="-5.17151021957397">
        <ele>566</ele>
        <time>2019-05-11T20:16:29Z</time>
      </trkpt>
      <trkpt lat="36.8621673583984" lon="-5.17151308059692">
        <ele>566</ele>
        <time>2019-05-11T20:16:31Z</time>
      </trkpt>
      <trkpt lat="36.8621673583984" lon="-5.1715202331543">
        <ele>566</ele>
        <time>2019-05-11T20:16:33Z</time>
      </trkpt>
      <trkpt lat="36.8621673583984" lon="-5.17152976989746">
        <ele>565</ele>
        <time>2019-05-11T20:16:35Z</time>
      </trkpt>
      <trkpt lat="36.8621711730957" lon="-5.17154216766357">
        <ele>563</ele>
        <time>2019-05-11T20:16:39Z</time>
      </trkpt>
      <trkpt lat="36.8621711730957" lon="-5.17154502868652">
        <ele>561</ele>
        <time>2019-05-11T20:16:41Z</time>
      </trkpt>
      <trkpt lat="36.8621711730957" lon="-5.17154693603516">
        <ele>561</ele>
        <time>2019-05-11T20:16:43Z</time>
      </trkpt>
      <trkpt lat="36.8621711730957" lon="-5.17155694961548">
        <ele>560</ele>
        <time>2019-05-11T20:16:45Z</time>
      </trkpt>
      <trkpt lat="36.8621711730957" lon="-5.17156219482422">
        <ele>559</ele>
        <time>2019-05-11T20:16:47Z</time>
      </trkpt>
      <trkpt lat="36.8621711730957" lon="-5.17156982421875">
        <ele>558</ele>
        <time>2019-05-11T20:16:49Z</time>
      </trkpt>
      <trkpt lat="36.8621711730957" lon="-5.17156791687012">
        <ele>557</ele>
        <time>2019-05-11T20:16:51Z</time>
      </trkpt>
      <trkpt lat="36.8621673583984" lon="-5.1715669631958">
        <ele>557</ele>
        <time>2019-05-11T20:16:53Z</time>
      </trkpt>
      <trkpt lat="36.8621635437012" lon="-5.17156505584717">
        <ele>556</ele>
        <time>2019-05-11T20:16:55Z</time>
      </trkpt>
      <trkpt lat="36.8621635437012" lon="-5.17156314849854">
        <ele>556</ele>
        <time>2019-05-11T20:16:57Z</time>
      </trkpt>
      <trkpt lat="36.8621597290039" lon="-5.17156314849854">
        <ele>556</ele>
        <time>2019-05-11T20:16:59Z</time>
      </trkpt>
      <trkpt lat="36.8621635437012" lon="-5.17156505584717">
        <ele>556</ele>
        <time>2019-05-11T20:17:01Z</time>
      </trkpt>
      <trkpt lat="36.8621673583984" lon="-5.17155981063843">
        <ele>556</ele>
        <time>2019-05-11T20:17:03Z</time>
      </trkpt>
      <trkpt lat="36.8621673583984" lon="-5.17155313491821">
        <ele>556</ele>
        <time>2019-05-11T20:17:05Z</time>
      </trkpt>
      <trkpt lat="36.8621673583984" lon="-5.17154788970947">
        <ele>556</ele>
        <time>2019-05-11T20:17:07Z</time>
      </trkpt>
      <trkpt lat="36.8621711730957" lon="-5.17154312133789">
        <ele>556</ele>
        <time>2019-05-11T20:17:11Z</time>
      </trkpt>
      <trkpt lat="36.8621864318848" lon="-5.17151308059692">
        <ele>556</ele>
        <time>2019-05-11T20:17:22Z</time>
      </trkpt>
      <trkpt lat="36.8621788024902" lon="-5.17150688171387">
        <ele>558</ele>
        <time>2019-05-11T20:17:36Z</time>
      </trkpt>
      <trkpt lat="36.8621864318848" lon="-5.17152214050293">
        <ele>560</ele>
        <time>2019-05-11T20:17:44Z</time>
      </trkpt>
      <trkpt lat="36.8621788024902" lon="-5.17152214050293">
        <ele>564</ele>
        <time>2019-05-11T20:17:52Z</time>
      </trkpt>
      <trkpt lat="36.8621788024902" lon="-5.17152309417725">
        <ele>564</ele>
        <time>2019-05-11T20:17:54Z</time>
      </trkpt>
      <trkpt lat="36.8621826171875" lon="-5.1715202331543">
        <ele>566</ele>
        <time>2019-05-11T20:18:01Z</time>
      </trkpt>
      <trkpt lat="36.8621826171875" lon="-5.1715202331543">
        <ele>566</ele>
        <time>2019-05-11T20:18:03Z</time>
      </trkpt>
      <trkpt lat="36.8621826171875" lon="-5.17152690887451">
        <ele>566</ele>
        <time>2019-05-11T20:18:05Z</time>
      </trkpt>
      <trkpt lat="36.8621826171875" lon="-5.17153215408325">
        <ele>566</ele>
        <time>2019-05-11T20:18:07Z</time>
      </trkpt>
      <trkpt lat="36.8621864318848" lon="-5.17153978347778">
        <ele>566</ele>
        <time>2019-05-11T20:18:09Z</time>
      </trkpt>
      <trkpt lat="36.8621864318848" lon="-5.17154312133789">
        <ele>566</ele>
        <time>2019-05-11T20:18:11Z</time>
      </trkpt>
      <trkpt lat="36.8621826171875" lon="-5.17154216766357">
        <ele>566</ele>
        <time>2019-05-11T20:18:13Z</time>
      </trkpt>
      <trkpt lat="36.8621826171875" lon="-5.17153978347778">
        <ele>566</ele>
        <time>2019-05-11T20:18:15Z</time>
      </trkpt>
      <trkpt lat="36.8621826171875" lon="-5.17154216766357">
        <ele>566</ele>
        <time>2019-05-11T20:18:17Z</time>
      </trkpt>
      <trkpt lat="36.8621826171875" lon="-5.17154693603516">
        <ele>566</ele>
        <time>2019-05-11T20:18:19Z</time>
      </trkpt>
      <trkpt lat="36.8621864318848" lon="-5.17154693603516">
        <ele>566</ele>
        <time>2019-05-11T20:18:21Z</time>
      </trkpt>
      <trkpt lat="36.8621864318848" lon="-5.17154216766357">
        <ele>566</ele>
        <time>2019-05-11T20:18:23Z</time>
      </trkpt>
      <trkpt lat="36.862190246582" lon="-5.17154216766357">
        <ele>566</ele>
        <time>2019-05-11T20:18:25Z</time>
      </trkpt>
      <trkpt lat="36.862190246582" lon="-5.17153310775757">
        <ele>566</ele>
        <time>2019-05-11T20:18:27Z</time>
      </trkpt>
      <trkpt lat="36.862190246582" lon="-5.17152976989746">
        <ele>566</ele>
        <time>2019-05-11T20:18:29Z</time>
      </trkpt>
      <trkpt lat="36.8621940612793" lon="-5.17152690887451">
        <ele>566</ele>
        <time>2019-05-11T20:18:31Z</time>
      </trkpt>
      <trkpt lat="36.8621940612793" lon="-5.17151689529419">
        <ele>566</ele>
        <time>2019-05-11T20:18:33Z</time>
      </trkpt>
      <trkpt lat="36.862190246582" lon="-5.17150688171387">
        <ele>566</ele>
        <time>2019-05-11T20:18:35Z</time>
      </trkpt>
      <trkpt lat="36.8621826171875" lon="-5.17146778106689">
        <ele>566</ele>
        <time>2019-05-11T20:18:56Z</time>
      </trkpt>
      <trkpt lat="36.8621864318848" lon="-5.17145681381226">
        <ele>569</ele>
        <time>2019-05-11T20:19:10Z</time>
      </trkpt>
      <trkpt lat="36.8621864318848" lon="-5.17147302627564">
        <ele>569</ele>
        <time>2019-05-11T20:19:18Z</time>
      </trkpt>
      <trkpt lat="36.8621826171875" lon="-5.17148017883301">
        <ele>569</ele>
        <time>2019-05-11T20:19:22Z</time>
      </trkpt>
      <trkpt lat="36.8621826171875" lon="-5.17150497436523">
        <ele>569</ele>
        <time>2019-05-11T20:19:33Z</time>
      </trkpt>
      <trkpt lat="36.8621788024902" lon="-5.17150211334228">
        <ele>567</ele>
        <time>2019-05-11T20:19:43Z</time>
      </trkpt>
      <trkpt lat="36.8621788024902" lon="-5.17149496078491">
        <ele>567</ele>
        <time>2019-05-11T20:19:45Z</time>
      </trkpt>
      <trkpt lat="36.8621788024902" lon="-5.17148303985596">
        <ele>567</ele>
        <time>2019-05-11T20:19:47Z</time>
      </trkpt>
      <trkpt lat="36.8621788024902" lon="-5.17147016525269">
        <ele>567</ele>
        <time>2019-05-11T20:19:49Z</time>
      </trkpt>
      <trkpt lat="36.8621864318848" lon="-5.17144012451172">
        <ele>567</ele>
        <time>2019-05-11T20:19:53Z</time>
      </trkpt>
      <trkpt lat="36.8621864318848" lon="-5.17142486572266">
        <ele>567</ele>
        <time>2019-05-11T20:19:55Z</time>
      </trkpt>
      <trkpt lat="36.8621864318848" lon="-5.17141199111938">
        <ele>567</ele>
        <time>2019-05-11T20:19:57Z</time>
      </trkpt>
      <trkpt lat="36.8621864318848" lon="-5.1713981628418">
        <ele>567</ele>
        <time>2019-05-11T20:19:59Z</time>
      </trkpt>
      <trkpt lat="36.8621864318848" lon="-5.17138481140137">
        <ele>567</ele>
        <time>2019-05-11T20:20:01Z</time>
      </trkpt>
      <trkpt lat="36.862190246582" lon="-5.1713719367981">
        <ele>567</ele>
        <time>2019-05-11T20:20:03Z</time>
      </trkpt>
      <trkpt lat="36.862190246582" lon="-5.17135810852051">
        <ele>567</ele>
        <time>2019-05-11T20:20:05Z</time>
      </trkpt>
      <trkpt lat="36.8621826171875" lon="-5.17133712768555">
        <ele>567</ele>
        <time>2019-05-11T20:20:07Z</time>
      </trkpt>
      <trkpt lat="36.8621711730957" lon="-5.17132711410522">
        <ele>567</ele>
        <time>2019-05-11T20:20:09Z</time>
      </trkpt>
      <trkpt lat="36.8621673583984" lon="-5.17131519317627">
        <ele>567</ele>
        <time>2019-05-11T20:20:11Z</time>
      </trkpt>
      <trkpt lat="36.8621635437012" lon="-5.17129993438721">
        <ele>567</ele>
        <time>2019-05-11T20:20:13Z</time>
      </trkpt>
      <trkpt lat="36.8621597290039" lon="-5.1712851524353">
        <ele>567</ele>
        <time>2019-05-11T20:20:16Z</time>
      </trkpt>
      <trkpt lat="36.8621520996094" lon="-5.17127180099487">
        <ele>567</ele>
        <time>2019-05-11T20:20:18Z</time>
      </trkpt>
      <trkpt lat="36.8621406555176" lon="-5.17126178741455">
        <ele>567</ele>
        <time>2019-05-11T20:20:20Z</time>
      </trkpt>
      <trkpt lat="36.8621292114258" lon="-5.1712532043457">
        <ele>567</ele>
        <time>2019-05-11T20:20:22Z</time>
      </trkpt>
      <trkpt lat="36.862117767334" lon="-5.17124509811401">
        <ele>567</ele>
        <time>2019-05-11T20:20:24Z</time>
      </trkpt>
      <trkpt lat="36.8621101379394" lon="-5.17123699188232">
        <ele>567</ele>
        <time>2019-05-11T20:20:26Z</time>
      </trkpt>
      <trkpt lat="36.8621063232422" lon="-5.17122507095337">
        <ele>567</ele>
        <time>2019-05-11T20:20:28Z</time>
      </trkpt>
      <trkpt lat="36.8621025085449" lon="-5.1712121963501">
        <ele>567</ele>
        <time>2019-05-11T20:20:30Z</time>
      </trkpt>
      <trkpt lat="36.8621063232422" lon="-5.17119789123535">
        <ele>567</ele>
        <time>2019-05-11T20:20:32Z</time>
      </trkpt>
      <trkpt lat="36.8621025085449" lon="-5.17118501663208">
        <ele>567</ele>
        <time>2019-05-11T20:20:34Z</time>
      </trkpt>
      <trkpt lat="36.8621063232422" lon="-5.17117023468018">
        <ele>566</ele>
        <time>2019-05-11T20:20:36Z</time>
      </trkpt>
      <trkpt lat="36.8621101379394" lon="-5.17115688323975">
        <ele>566</ele>
        <time>2019-05-11T20:20:38Z</time>
      </trkpt>
      <trkpt lat="36.8621139526367" lon="-5.17114305496216">
        <ele>566</ele>
        <time>2019-05-11T20:20:40Z</time>
      </trkpt>
      <trkpt lat="36.8621139526367" lon="-5.17113304138184">
        <ele>566</ele>
        <time>2019-05-11T20:20:42Z</time>
      </trkpt>
      <trkpt lat="36.8621063232422" lon="-5.17113018035889">
        <ele>566</ele>
        <time>2019-05-11T20:20:44Z</time>
      </trkpt>
      <trkpt lat="36.8621025085449" lon="-5.17113304138184">
        <ele>566</ele>
        <time>2019-05-11T20:20:46Z</time>
      </trkpt>
      <trkpt lat="36.8620986938477" lon="-5.17113208770752">
        <ele>566</ele>
        <time>2019-05-11T20:20:48Z</time>
      </trkpt>
      <trkpt lat="36.8620948791504" lon="-5.17113208770752">
        <ele>566</ele>
        <time>2019-05-11T20:20:51Z</time>
      </trkpt>
      <trkpt lat="36.8620948791504" lon="-5.17113304138184">
        <ele>565</ele>
        <time>2019-05-11T20:20:53Z</time>
      </trkpt>
      <trkpt lat="36.8620986938477" lon="-5.17113304138184">
        <ele>565</ele>
        <time>2019-05-11T20:20:57Z</time>
      </trkpt>
      <trkpt lat="36.8621025085449" lon="-5.1711368560791">
        <ele>564</ele>
        <time>2019-05-11T20:20:59Z</time>
      </trkpt>
      <trkpt lat="36.8621101379394" lon="-5.17114210128784">
        <ele>564</ele>
        <time>2019-05-11T20:21:01Z</time>
      </trkpt>
      <trkpt lat="36.8621101379394" lon="-5.17114686965942">
        <ele>564</ele>
        <time>2019-05-11T20:21:03Z</time>
      </trkpt>
      <trkpt lat="36.8621139526367" lon="-5.17115497589111">
        <ele>564</ele>
        <time>2019-05-11T20:21:05Z</time>
      </trkpt>
      <trkpt lat="36.8621215820312" lon="-5.17115688323975">
        <ele>564</ele>
        <time>2019-05-11T20:21:07Z</time>
      </trkpt>
      <trkpt lat="36.8621215820312" lon="-5.17116498947144">
        <ele>564</ele>
        <time>2019-05-11T20:21:09Z</time>
      </trkpt>
      <trkpt lat="36.8621253967285" lon="-5.17116689682007">
        <ele>564</ele>
        <time>2019-05-11T20:21:11Z</time>
      </trkpt>
      <trkpt lat="36.8621292114258" lon="-5.17116689682007">
        <ele>564</ele>
        <time>2019-05-11T20:21:13Z</time>
      </trkpt>
      <trkpt lat="36.8621368408203" lon="-5.17116689682007">
        <ele>564</ele>
        <time>2019-05-11T20:21:15Z</time>
      </trkpt>
      <trkpt lat="36.8621406555176" lon="-5.17116785049438">
        <ele>564</ele>
        <time>2019-05-11T20:21:17Z</time>
      </trkpt>
      <trkpt lat="36.8621444702148" lon="-5.17117023468018">
        <ele>564</ele>
        <time>2019-05-11T20:21:19Z</time>
      </trkpt>
      <trkpt lat="36.8621482849121" lon="-5.17117023468018">
        <ele>564</ele>
        <time>2019-05-11T20:21:21Z</time>
      </trkpt>
      <trkpt lat="36.8621482849121" lon="-5.17117023468018">
        <ele>564</ele>
        <time>2019-05-11T20:21:23Z</time>
      </trkpt>
      <trkpt lat="36.8621482849121" lon="-5.17117214202881">
        <ele>564</ele>
        <time>2019-05-11T20:21:25Z</time>
      </trkpt>
      <trkpt lat="36.8621559143066" lon="-5.17117500305176">
        <ele>564</ele>
        <time>2019-05-11T20:21:27Z</time>
      </trkpt>
      <trkpt lat="36.8621597290039" lon="-5.17117500305176">
        <ele>564</ele>
        <time>2019-05-11T20:21:29Z</time>
      </trkpt>
      <trkpt lat="36.8621673583984" lon="-5.17117023468018">
        <ele>564</ele>
        <time>2019-05-11T20:21:31Z</time>
      </trkpt>
      <trkpt lat="36.8621673583984" lon="-5.17117214202881">
        <ele>564</ele>
        <time>2019-05-11T20:21:33Z</time>
      </trkpt>
      <trkpt lat="36.8621711730957" lon="-5.17117023468018">
        <ele>564</ele>
        <time>2019-05-11T20:21:35Z</time>
      </trkpt>
      <trkpt lat="36.8621711730957" lon="-5.17117500305176">
        <ele>564</ele>
        <time>2019-05-11T20:21:38Z</time>
      </trkpt>
      <trkpt lat="36.8621788024902" lon="-5.17117786407471">
        <ele>564</ele>
        <time>2019-05-11T20:21:40Z</time>
      </trkpt>
      <trkpt lat="36.8621788024902" lon="-5.17118215560913">
        <ele>564</ele>
        <time>2019-05-11T20:21:42Z</time>
      </trkpt>
      <trkpt lat="36.8621826171875" lon="-5.17117977142334">
        <ele>564</ele>
        <time>2019-05-11T20:21:44Z</time>
      </trkpt>
      <trkpt lat="36.8621826171875" lon="-5.17118215560913">
        <ele>564</ele>
        <time>2019-05-11T20:21:46Z</time>
      </trkpt>
      <trkpt lat="36.8621864318848" lon="-5.17118215560913">
        <ele>564</ele>
        <time>2019-05-11T20:21:48Z</time>
      </trkpt>
      <trkpt lat="36.8621826171875" lon="-5.17117977142334">
        <ele>564</ele>
        <time>2019-05-11T20:21:50Z</time>
      </trkpt>
      <trkpt lat="36.8621826171875" lon="-5.17117786407471">
        <ele>564</ele>
        <time>2019-05-11T20:21:52Z</time>
      </trkpt>
      <trkpt lat="36.8621826171875" lon="-5.17117786407471">
        <ele>564</ele>
        <time>2019-05-11T20:21:54Z</time>
      </trkpt>
      <trkpt lat="36.8621826171875" lon="-5.17117786407471">
        <ele>564</ele>
        <time>2019-05-11T20:21:56Z</time>
      </trkpt>
      <trkpt lat="36.8621826171875" lon="-5.17117977142334">
        <ele>564</ele>
        <time>2019-05-11T20:21:58Z</time>
      </trkpt>
      <trkpt lat="36.8621826171875" lon="-5.17117977142334">
        <ele>564</ele>
        <time>2019-05-11T20:22:00Z</time>
      </trkpt>
      <trkpt lat="36.8621826171875" lon="-5.17117977142334">
        <ele>564</ele>
        <time>2019-05-11T20:22:02Z</time>
      </trkpt>
      <trkpt lat="36.8621864318848" lon="-5.17117691040039">
        <ele>564</ele>
        <time>2019-05-11T20:22:04Z</time>
      </trkpt>
      <trkpt lat="36.862190246582" lon="-5.17117977142334">
        <ele>564</ele>
        <time>2019-05-11T20:22:06Z</time>
      </trkpt>
      <trkpt lat="36.862190246582" lon="-5.17118215560913">
        <ele>564</ele>
        <time>2019-05-11T20:22:08Z</time>
      </trkpt>
      <trkpt lat="36.8621940612793" lon="-5.17118215560913">
        <ele>564</ele>
        <time>2019-05-11T20:22:10Z</time>
      </trkpt>
      <trkpt lat="36.8621940612793" lon="-5.17118501663208">
        <ele>564</ele>
        <time>2019-05-11T20:22:12Z</time>
      </trkpt>
      <trkpt lat="36.8621864318848" lon="-5.17117786407471">
        <ele>563</ele>
        <time>2019-05-11T20:22:18Z</time>
      </trkpt>
      <trkpt lat="36.8621826171875" lon="-5.17117691040039">
        <ele>563</ele>
        <time>2019-05-11T20:22:20Z</time>
      </trkpt>
      <trkpt lat="36.862190246582" lon="-5.17117691040039">
        <ele>563</ele>
        <time>2019-05-11T20:22:22Z</time>
      </trkpt>
      <trkpt lat="36.8621940612793" lon="-5.17117977142334">
        <ele>563</ele>
        <time>2019-05-11T20:22:25Z</time>
      </trkpt>
      <trkpt lat="36.8621940612793" lon="-5.17117977142334">
        <ele>563</ele>
        <time>2019-05-11T20:22:27Z</time>
      </trkpt>
      <trkpt lat="36.8621978759766" lon="-5.17117786407471">
        <ele>563</ele>
        <time>2019-05-11T20:22:29Z</time>
      </trkpt>
      <trkpt lat="36.8621940612793" lon="-5.17117786407471">
        <ele>563</ele>
        <time>2019-05-11T20:22:31Z</time>
      </trkpt>
      <trkpt lat="36.8621940612793" lon="-5.17117786407471">
        <ele>563</ele>
        <time>2019-05-11T20:22:33Z</time>
      </trkpt>
      <trkpt lat="36.8621940612793" lon="-5.17117786407471">
        <ele>563</ele>
        <time>2019-05-11T20:22:35Z</time>
      </trkpt>
      <trkpt lat="36.8621940612793" lon="-5.17117786407471">
        <ele>563</ele>
        <time>2019-05-11T20:22:37Z</time>
      </trkpt>
      <trkpt lat="36.862190246582" lon="-5.17117691040039">
        <ele>563</ele>
        <time>2019-05-11T20:22:39Z</time>
      </trkpt>
      <trkpt lat="36.862190246582" lon="-5.17117786407471">
        <ele>563</ele>
        <time>2019-05-11T20:22:41Z</time>
      </trkpt>
      <trkpt lat="36.8621864318848" lon="-5.17117786407471">
        <ele>563</ele>
        <time>2019-05-11T20:22:43Z</time>
      </trkpt>
      <trkpt lat="36.8621788024902" lon="-5.17117691040039">
        <ele>563</ele>
        <time>2019-05-11T20:22:47Z</time>
      </trkpt>
      <trkpt lat="36.862174987793" lon="-5.17117500305176">
        <ele>563</ele>
        <time>2019-05-11T20:22:49Z</time>
      </trkpt>
      <trkpt lat="36.862174987793" lon="-5.17117500305176">
        <ele>563</ele>
        <time>2019-05-11T20:22:51Z</time>
      </trkpt>
      <trkpt lat="36.862174987793" lon="-5.17117309570312">
        <ele>563</ele>
        <time>2019-05-11T20:22:53Z</time>
      </trkpt>
      <trkpt lat="36.8621788024902" lon="-5.17117214202881">
        <ele>563</ele>
        <time>2019-05-11T20:22:55Z</time>
      </trkpt>
      <trkpt lat="36.8621788024902" lon="-5.17116785049438">
        <ele>563</ele>
        <time>2019-05-11T20:22:57Z</time>
      </trkpt>
      <trkpt lat="36.8621788024902" lon="-5.17116689682007">
        <ele>563</ele>
        <time>2019-05-11T20:22:59Z</time>
      </trkpt>
      <trkpt lat="36.8621864318848" lon="-5.17116498947144">
        <ele>563</ele>
        <time>2019-05-11T20:23:01Z</time>
      </trkpt>
      <trkpt lat="36.8621864318848" lon="-5.1711630821228">
        <ele>563</ele>
        <time>2019-05-11T20:23:03Z</time>
      </trkpt>
      <trkpt lat="36.8621864318848" lon="-5.17116212844849">
        <ele>563</ele>
        <time>2019-05-11T20:23:05Z</time>
      </trkpt>
      <trkpt lat="36.8621864318848" lon="-5.17116022109985">
        <ele>563</ele>
        <time>2019-05-11T20:23:07Z</time>
      </trkpt>
      <trkpt lat="36.862190246582" lon="-5.17115783691406">
        <ele>563</ele>
        <time>2019-05-11T20:23:09Z</time>
      </trkpt>
      <trkpt lat="36.862190246582" lon="-5.17115688323975">
        <ele>563</ele>
        <time>2019-05-11T20:23:11Z</time>
      </trkpt>
      <trkpt lat="36.862190246582" lon="-5.17115783691406">
        <ele>563</ele>
        <time>2019-05-11T20:23:13Z</time>
      </trkpt>
      <trkpt lat="36.8621864318848" lon="-5.17115306854248">
        <ele>563</ele>
        <time>2019-05-11T20:23:15Z</time>
      </trkpt>
      <trkpt lat="36.8621864318848" lon="-5.17115306854248">
        <ele>563</ele>
        <time>2019-05-11T20:23:17Z</time>
      </trkpt>
      <trkpt lat="36.8621826171875" lon="-5.17115497589111">
        <ele>563</ele>
        <time>2019-05-11T20:23:19Z</time>
      </trkpt>
      <trkpt lat="36.8621788024902" lon="-5.17115497589111">
        <ele>563</ele>
        <time>2019-05-11T20:23:22Z</time>
      </trkpt>
      <trkpt lat="36.8621711730957" lon="-5.17115688323975">
        <ele>563</ele>
        <time>2019-05-11T20:23:24Z</time>
      </trkpt>
      <trkpt lat="36.8621673583984" lon="-5.17115497589111">
        <ele>563</ele>
        <time>2019-05-11T20:23:26Z</time>
      </trkpt>
      <trkpt lat="36.8621673583984" lon="-5.17115688323975">
        <ele>563</ele>
        <time>2019-05-11T20:23:28Z</time>
      </trkpt>
      <trkpt lat="36.8621673583984" lon="-5.17115783691406">
        <ele>563</ele>
        <time>2019-05-11T20:23:30Z</time>
      </trkpt>
      <trkpt lat="36.8621635437012" lon="-5.17115688323975">
        <ele>563</ele>
        <time>2019-05-11T20:23:32Z</time>
      </trkpt>
      <trkpt lat="36.8621635437012" lon="-5.17115688323975">
        <ele>563</ele>
        <time>2019-05-11T20:23:34Z</time>
      </trkpt>
      <trkpt lat="36.8621673583984" lon="-5.17115497589111">
        <ele>563</ele>
        <time>2019-05-11T20:23:36Z</time>
      </trkpt>
      <trkpt lat="36.8621711730957" lon="-5.17115306854248">
        <ele>563</ele>
        <time>2019-05-11T20:23:38Z</time>
      </trkpt>
      <trkpt lat="36.862174987793" lon="-5.17115211486816">
        <ele>563</ele>
        <time>2019-05-11T20:23:40Z</time>
      </trkpt>
      <trkpt lat="36.8621788024902" lon="-5.17115497589111">
        <ele>563</ele>
        <time>2019-05-11T20:23:42Z</time>
      </trkpt>
      <trkpt lat="36.8621788024902" lon="-5.17115211486816">
        <ele>563</ele>
        <time>2019-05-11T20:23:44Z</time>
      </trkpt>
      <trkpt lat="36.8621788024902" lon="-5.17115306854248">
        <ele>563</ele>
        <time>2019-05-11T20:23:46Z</time>
      </trkpt>
      <trkpt lat="36.8621788024902" lon="-5.17115306854248">
        <ele>563</ele>
        <time>2019-05-11T20:23:48Z</time>
      </trkpt>
      <trkpt lat="36.8621788024902" lon="-5.17115306854248">
        <ele>563</ele>
        <time>2019-05-11T20:23:50Z</time>
      </trkpt>
      <trkpt lat="36.862174987793" lon="-5.17115306854248">
        <ele>563</ele>
        <time>2019-05-11T20:23:52Z</time>
      </trkpt>
      <trkpt lat="36.862174987793" lon="-5.17115497589111">
        <ele>563</ele>
        <time>2019-05-11T20:23:54Z</time>
      </trkpt>
      <trkpt lat="36.8621711730957" lon="-5.17115497589111">
        <ele>563</ele>
        <time>2019-05-11T20:23:56Z</time>
      </trkpt>
      <trkpt lat="36.8621711730957" lon="-5.17115497589111">
        <ele>563</ele>
        <time>2019-05-11T20:23:58Z</time>
      </trkpt>
      <trkpt lat="36.8621711730957" lon="-5.17115497589111">
        <ele>563</ele>
        <time>2019-05-11T20:24:00Z</time>
      </trkpt>
      <trkpt lat="36.8621711730957" lon="-5.17115497589111">
        <ele>563</ele>
        <time>2019-05-11T20:24:02Z</time>
      </trkpt>
      <trkpt lat="36.8621711730957" lon="-5.17115211486816">
        <ele>563</ele>
        <time>2019-05-11T20:24:04Z</time>
      </trkpt>
      <trkpt lat="36.8621711730957" lon="-5.17115306854248">
        <ele>563</ele>
        <time>2019-05-11T20:24:06Z</time>
      </trkpt>
      <trkpt lat="36.8621711730957" lon="-5.17115306854248">
        <ele>563</ele>
        <time>2019-05-11T20:24:08Z</time>
      </trkpt>
      <trkpt lat="36.8621788024902" lon="-5.17115497589111">
        <ele>563</ele>
        <time>2019-05-11T20:24:10Z</time>
      </trkpt>
      <trkpt lat="36.8621826171875" lon="-5.17115688323975">
        <ele>563</ele>
        <time>2019-05-11T20:24:12Z</time>
      </trkpt>
      <trkpt lat="36.8621826171875" lon="-5.17115688323975">
        <ele>563</ele>
        <time>2019-05-11T20:24:14Z</time>
      </trkpt>
      <trkpt lat="36.8621826171875" lon="-5.17115688323975">
        <ele>563</ele>
        <time>2019-05-11T20:24:16Z</time>
      </trkpt>
      <trkpt lat="36.8621826171875" lon="-5.17115688323975">
        <ele>563</ele>
        <time>2019-05-11T20:24:19Z</time>
      </trkpt>
      <trkpt lat="36.8621864318848" lon="-5.17115783691406">
        <ele>563</ele>
        <time>2019-05-11T20:24:21Z</time>
      </trkpt>
      <trkpt lat="36.862190246582" lon="-5.17115783691406">
        <ele>563</ele>
        <time>2019-05-11T20:24:23Z</time>
      </trkpt>
      <trkpt lat="36.8621978759766" lon="-5.17116022109985">
        <ele>563</ele>
        <time>2019-05-11T20:24:25Z</time>
      </trkpt>
      <trkpt lat="36.8622055053711" lon="-5.17116212844849">
        <ele>564</ele>
        <time>2019-05-11T20:24:27Z</time>
      </trkpt>
      <trkpt lat="36.8622131347656" lon="-5.17116212844849">
        <ele>564</ele>
        <time>2019-05-11T20:24:29Z</time>
      </trkpt>
      <trkpt lat="36.8622169494629" lon="-5.17116498947144">
        <ele>565</ele>
        <time>2019-05-11T20:24:31Z</time>
      </trkpt>
      <trkpt lat="36.8622207641602" lon="-5.1711630821228">
        <ele>565</ele>
        <time>2019-05-11T20:24:33Z</time>
      </trkpt>
      <trkpt lat="36.8622207641602" lon="-5.1711630821228">
        <ele>565</ele>
        <time>2019-05-11T20:24:35Z</time>
      </trkpt>
      <trkpt lat="36.8622207641602" lon="-5.1711630821228">
        <ele>565</ele>
        <time>2019-05-11T20:24:37Z</time>
      </trkpt>
      <trkpt lat="36.8622169494629" lon="-5.17116498947144">
        <ele>565</ele>
        <time>2019-05-11T20:24:39Z</time>
      </trkpt>
      <trkpt lat="36.8622131347656" lon="-5.17116498947144">
        <ele>565</ele>
        <time>2019-05-11T20:24:41Z</time>
      </trkpt>
      <trkpt lat="36.8622131347656" lon="-5.17116498947144">
        <ele>565</ele>
        <time>2019-05-11T20:24:43Z</time>
      </trkpt>
      <trkpt lat="36.8622131347656" lon="-5.17116498947144">
        <ele>565</ele>
        <time>2019-05-11T20:24:45Z</time>
      </trkpt>
      <trkpt lat="36.8622093200684" lon="-5.17116689682007">
        <ele>565</ele>
        <time>2019-05-11T20:24:47Z</time>
      </trkpt>
      <trkpt lat="36.8622093200684" lon="-5.17116689682007">
        <ele>565</ele>
        <time>2019-05-11T20:24:49Z</time>
      </trkpt>
      <trkpt lat="36.8622016906738" lon="-5.17117214202881">
        <ele>565</ele>
        <time>2019-05-11T20:24:51Z</time>
      </trkpt>
      <trkpt lat="36.8622016906738" lon="-5.17117214202881">
        <ele>565</ele>
        <time>2019-05-11T20:24:53Z</time>
      </trkpt>
      <trkpt lat="36.8622055053711" lon="-5.17117214202881">
        <ele>565</ele>
        <time>2019-05-11T20:24:55Z</time>
      </trkpt>
      <trkpt lat="36.8622131347656" lon="-5.17117023468018">
        <ele>565</ele>
        <time>2019-05-11T20:24:57Z</time>
      </trkpt>
      <trkpt lat="36.8622131347656" lon="-5.17117023468018">
        <ele>565</ele>
        <time>2019-05-11T20:24:59Z</time>
      </trkpt>
      <trkpt lat="36.8622131347656" lon="-5.17116689682007">
        <ele>565</ele>
        <time>2019-05-11T20:25:01Z</time>
      </trkpt>
      <trkpt lat="36.8622207641602" lon="-5.17116785049438">
        <ele>565</ele>
        <time>2019-05-11T20:25:03Z</time>
      </trkpt>
      <trkpt lat="36.8622207641602" lon="-5.17116785049438">
        <ele>565</ele>
        <time>2019-05-11T20:25:05Z</time>
      </trkpt>
      <trkpt lat="36.8622245788574" lon="-5.17117214202881">
        <ele>565</ele>
        <time>2019-05-11T20:25:07Z</time>
      </trkpt>
      <trkpt lat="36.8622245788574" lon="-5.17116785049438">
        <ele>565</ele>
        <time>2019-05-11T20:25:09Z</time>
      </trkpt>
      <trkpt lat="36.8622283935547" lon="-5.17116689682007">
        <ele>565</ele>
        <time>2019-05-11T20:25:12Z</time>
      </trkpt>
      <trkpt lat="36.8622283935547" lon="-5.17116785049438">
        <ele>565</ele>
        <time>2019-05-11T20:25:14Z</time>
      </trkpt>
      <trkpt lat="36.862232208252" lon="-5.17116785049438">
        <ele>565</ele>
        <time>2019-05-11T20:25:16Z</time>
      </trkpt>
      <trkpt lat="36.8622283935547" lon="-5.17116785049438">
        <ele>565</ele>
        <time>2019-05-11T20:25:18Z</time>
      </trkpt>
      <trkpt lat="36.8622283935547" lon="-5.17116785049438">
        <ele>565</ele>
        <time>2019-05-11T20:25:20Z</time>
      </trkpt>
      <trkpt lat="36.8622283935547" lon="-5.17116785049438">
        <ele>565</ele>
        <time>2019-05-11T20:25:22Z</time>
      </trkpt>
      <trkpt lat="36.8622283935547" lon="-5.17116785049438">
        <ele>565</ele>
        <time>2019-05-11T20:25:24Z</time>
      </trkpt>
      <trkpt lat="36.8622245788574" lon="-5.17117023468018">
        <ele>565</ele>
        <time>2019-05-11T20:25:26Z</time>
      </trkpt>
      <trkpt lat="36.8622207641602" lon="-5.17117023468018">
        <ele>565</ele>
        <time>2019-05-11T20:25:28Z</time>
      </trkpt>
      <trkpt lat="36.8622169494629" lon="-5.17116785049438">
        <ele>565</ele>
        <time>2019-05-11T20:25:30Z</time>
      </trkpt>
      <trkpt lat="36.8622093200684" lon="-5.17116785049438">
        <ele>565</ele>
        <time>2019-05-11T20:25:32Z</time>
      </trkpt>
      <trkpt lat="36.8622016906738" lon="-5.17116498947144">
        <ele>565</ele>
        <time>2019-05-11T20:25:34Z</time>
      </trkpt>
      <trkpt lat="36.8621978759766" lon="-5.17116498947144">
        <ele>565</ele>
        <time>2019-05-11T20:25:36Z</time>
      </trkpt>
      <trkpt lat="36.862190246582" lon="-5.17116689682007">
        <ele>565</ele>
        <time>2019-05-11T20:25:38Z</time>
      </trkpt>
      <trkpt lat="36.8621864318848" lon="-5.17116689682007">
        <ele>565</ele>
        <time>2019-05-11T20:25:40Z</time>
      </trkpt>
      <trkpt lat="36.8621864318848" lon="-5.17116689682007">
        <ele>565</ele>
        <time>2019-05-11T20:25:42Z</time>
      </trkpt>
      <trkpt lat="36.862190246582" lon="-5.17116212844849">
        <ele>565</ele>
        <time>2019-05-11T20:25:46Z</time>
      </trkpt>
      <trkpt lat="36.8622016906738" lon="-5.17116022109985">
        <ele>565</ele>
        <time>2019-05-11T20:25:50Z</time>
      </trkpt>
      <trkpt lat="36.8622055053711" lon="-5.17116022109985">
        <ele>565</ele>
        <time>2019-05-11T20:25:52Z</time>
      </trkpt>
      <trkpt lat="36.8622093200684" lon="-5.17115783691406">
        <ele>565</ele>
        <time>2019-05-11T20:25:54Z</time>
      </trkpt>
      <trkpt lat="36.8622169494629" lon="-5.17115497589111">
        <ele>565</ele>
        <time>2019-05-11T20:25:56Z</time>
      </trkpt>
      <trkpt lat="36.8622245788574" lon="-5.17116498947144">
        <ele>565</ele>
        <time>2019-05-11T20:25:58Z</time>
      </trkpt>
      <trkpt lat="36.8622283935547" lon="-5.1711630821228">
        <ele>565</ele>
        <time>2019-05-11T20:26:00Z</time>
      </trkpt>
      <trkpt lat="36.862232208252" lon="-5.17116498947144">
        <ele>565</ele>
        <time>2019-05-11T20:26:02Z</time>
      </trkpt>
      <trkpt lat="36.8622398376465" lon="-5.17116498947144">
        <ele>565</ele>
        <time>2019-05-11T20:26:04Z</time>
      </trkpt>
      <trkpt lat="36.8622436523438" lon="-5.17116689682007">
        <ele>565</ele>
        <time>2019-05-11T20:26:06Z</time>
      </trkpt>
      <trkpt lat="36.8622436523438" lon="-5.17116689682007">
        <ele>565</ele>
        <time>2019-05-11T20:26:08Z</time>
      </trkpt>
      <trkpt lat="36.862247467041" lon="-5.17117023468018">
        <ele>565</ele>
        <time>2019-05-11T20:26:11Z</time>
      </trkpt>
      <trkpt lat="36.8622512817383" lon="-5.17116785049438">
        <ele>566</ele>
        <time>2019-05-11T20:26:13Z</time>
      </trkpt>
      <trkpt lat="36.8622512817383" lon="-5.17117023468018">
        <ele>566</ele>
        <time>2019-05-11T20:26:15Z</time>
      </trkpt>
      <trkpt lat="36.8622550964356" lon="-5.17117023468018">
        <ele>566</ele>
        <time>2019-05-11T20:26:17Z</time>
      </trkpt>
      <trkpt lat="36.8622550964356" lon="-5.17117023468018">
        <ele>566</ele>
        <time>2019-05-11T20:26:19Z</time>
      </trkpt>
      <trkpt lat="36.8622512817383" lon="-5.17117023468018">
        <ele>566</ele>
        <time>2019-05-11T20:26:21Z</time>
      </trkpt>
      <trkpt lat="36.8622512817383" lon="-5.17117023468018">
        <ele>566</ele>
        <time>2019-05-11T20:26:23Z</time>
      </trkpt>
      <trkpt lat="36.8622436523438" lon="-5.17117023468018">
        <ele>566</ele>
        <time>2019-05-11T20:26:27Z</time>
      </trkpt>
      <trkpt lat="36.8622398376465" lon="-5.17116785049438">
        <ele>566</ele>
        <time>2019-05-11T20:26:29Z</time>
      </trkpt>
      <trkpt lat="36.8622436523438" lon="-5.17116785049438">
        <ele>566</ele>
        <time>2019-05-11T20:26:31Z</time>
      </trkpt>
      <trkpt lat="36.8622398376465" lon="-5.17116785049438">
        <ele>566</ele>
        <time>2019-05-11T20:26:33Z</time>
      </trkpt>
      <trkpt lat="36.8622360229492" lon="-5.17116785049438">
        <ele>566</ele>
        <time>2019-05-11T20:26:35Z</time>
      </trkpt>
      <trkpt lat="36.862232208252" lon="-5.17116689682007">
        <ele>566</ele>
        <time>2019-05-11T20:26:37Z</time>
      </trkpt>
      <trkpt lat="36.8622169494629" lon="-5.17117023468018">
        <ele>566</ele>
        <time>2019-05-11T20:26:51Z</time>
      </trkpt>
      <trkpt lat="36.8622131347656" lon="-5.17117214202881">
        <ele>566</ele>
        <time>2019-05-11T20:26:55Z</time>
      </trkpt>
      <trkpt lat="36.8622093200684" lon="-5.17117214202881">
        <ele>566</ele>
        <time>2019-05-11T20:26:57Z</time>
      </trkpt>
      <trkpt lat="36.8622055053711" lon="-5.17117691040039">
        <ele>566</ele>
        <time>2019-05-11T20:27:01Z</time>
      </trkpt>
      <trkpt lat="36.8622055053711" lon="-5.17117786407471">
        <ele>566</ele>
        <time>2019-05-11T20:27:03Z</time>
      </trkpt>
      <trkpt lat="36.8622131347656" lon="-5.17117786407471">
        <ele>566</ele>
        <time>2019-05-11T20:27:05Z</time>
      </trkpt>
      <trkpt lat="36.8622169494629" lon="-5.17117786407471">
        <ele>566</ele>
        <time>2019-05-11T20:27:07Z</time>
      </trkpt>
      <trkpt lat="36.8622245788574" lon="-5.17117977142334">
        <ele>566</ele>
        <time>2019-05-11T20:27:09Z</time>
      </trkpt>
      <trkpt lat="36.862232208252" lon="-5.17117977142334">
        <ele>566</ele>
        <time>2019-05-11T20:27:11Z</time>
      </trkpt>
      <trkpt lat="36.8622360229492" lon="-5.17117977142334">
        <ele>566</ele>
        <time>2019-05-11T20:27:13Z</time>
      </trkpt>
      <trkpt lat="36.8622360229492" lon="-5.17117786407471">
        <ele>566</ele>
        <time>2019-05-11T20:27:15Z</time>
      </trkpt>
      <trkpt lat="36.862232208252" lon="-5.17117691040039">
        <ele>566</ele>
        <time>2019-05-11T20:27:17Z</time>
      </trkpt>
      <trkpt lat="36.8622283935547" lon="-5.17117500305176">
        <ele>566</ele>
        <time>2019-05-11T20:27:19Z</time>
      </trkpt>
      <trkpt lat="36.862232208252" lon="-5.17117214202881">
        <ele>566</ele>
        <time>2019-05-11T20:27:21Z</time>
      </trkpt>
      <trkpt lat="36.8622283935547" lon="-5.17117309570312">
        <ele>566</ele>
        <time>2019-05-11T20:27:23Z</time>
      </trkpt>
      <trkpt lat="36.8622283935547" lon="-5.17117786407471">
        <ele>566</ele>
        <time>2019-05-11T20:27:25Z</time>
      </trkpt>
      <trkpt lat="36.8622283935547" lon="-5.17117786407471">
        <ele>566</ele>
        <time>2019-05-11T20:27:27Z</time>
      </trkpt>
      <trkpt lat="36.8622207641602" lon="-5.17117786407471">
        <ele>566</ele>
        <time>2019-05-11T20:27:29Z</time>
      </trkpt>
      <trkpt lat="36.8622169494629" lon="-5.17117786407471">
        <ele>566</ele>
        <time>2019-05-11T20:27:32Z</time>
      </trkpt>
      <trkpt lat="36.8622131347656" lon="-5.17117309570312">
        <ele>566</ele>
        <time>2019-05-11T20:27:34Z</time>
      </trkpt>
      <trkpt lat="36.8622207641602" lon="-5.17117691040039">
        <ele>566</ele>
        <time>2019-05-11T20:27:36Z</time>
      </trkpt>
      <trkpt lat="36.8622131347656" lon="-5.17117977142334">
        <ele>566</ele>
        <time>2019-05-11T20:27:38Z</time>
      </trkpt>
      <trkpt lat="36.8622131347656" lon="-5.17118215560913">
        <ele>566</ele>
        <time>2019-05-11T20:27:40Z</time>
      </trkpt>
      <trkpt lat="36.8622131347656" lon="-5.17117977142334">
        <ele>566</ele>
        <time>2019-05-11T20:27:42Z</time>
      </trkpt>
      <trkpt lat="36.8622131347656" lon="-5.17118310928345">
        <ele>566</ele>
        <time>2019-05-11T20:27:44Z</time>
      </trkpt>
      <trkpt lat="36.8622207641602" lon="-5.17118787765503">
        <ele>566</ele>
        <time>2019-05-11T20:27:46Z</time>
      </trkpt>
      <trkpt lat="36.8622245788574" lon="-5.17118692398071">
        <ele>566</ele>
        <time>2019-05-11T20:27:48Z</time>
      </trkpt>
      <trkpt lat="36.8622245788574" lon="-5.17118310928345">
        <ele>566</ele>
        <time>2019-05-11T20:27:50Z</time>
      </trkpt>
      <trkpt lat="36.8622207641602" lon="-5.17118692398071">
        <ele>566</ele>
        <time>2019-05-11T20:27:52Z</time>
      </trkpt>
      <trkpt lat="36.8622169494629" lon="-5.17118501663208">
        <ele>566</ele>
        <time>2019-05-11T20:27:54Z</time>
      </trkpt>
      <trkpt lat="36.8622169494629" lon="-5.17118501663208">
        <ele>566</ele>
        <time>2019-05-11T20:27:56Z</time>
      </trkpt>
      <trkpt lat="36.8622169494629" lon="-5.17117786407471">
        <ele>566</ele>
        <time>2019-05-11T20:27:58Z</time>
      </trkpt>
      <trkpt lat="36.8622131347656" lon="-5.17118501663208">
        <ele>566</ele>
        <time>2019-05-11T20:28:00Z</time>
      </trkpt>
      <trkpt lat="36.8622093200684" lon="-5.17118501663208">
        <ele>566</ele>
        <time>2019-05-11T20:28:02Z</time>
      </trkpt>
      <trkpt lat="36.8622093200684" lon="-5.17118501663208">
        <ele>566</ele>
        <time>2019-05-11T20:28:04Z</time>
      </trkpt>
      <trkpt lat="36.8622016906738" lon="-5.17118787765503">
        <ele>566</ele>
        <time>2019-05-11T20:28:08Z</time>
      </trkpt>
      <trkpt lat="36.8622016906738" lon="-5.17118978500366">
        <ele>566</ele>
        <time>2019-05-11T20:28:10Z</time>
      </trkpt>
      <trkpt lat="36.8621978759766" lon="-5.17118978500366">
        <ele>566</ele>
        <time>2019-05-11T20:28:12Z</time>
      </trkpt>
      <trkpt lat="36.8621940612793" lon="-5.17118978500366">
        <ele>566</ele>
        <time>2019-05-11T20:28:14Z</time>
      </trkpt>
      <trkpt lat="36.862190246582" lon="-5.17118978500366">
        <ele>566</ele>
        <time>2019-05-11T20:28:16Z</time>
      </trkpt>
      <trkpt lat="36.862190246582" lon="-5.17118692398071">
        <ele>566</ele>
        <time>2019-05-11T20:28:19Z</time>
      </trkpt>
      <trkpt lat="36.862190246582" lon="-5.17118501663208">
        <ele>566</ele>
        <time>2019-05-11T20:28:21Z</time>
      </trkpt>
      <trkpt lat="36.8621864318848" lon="-5.17118501663208">
        <ele>566</ele>
        <time>2019-05-11T20:28:23Z</time>
      </trkpt>
      <trkpt lat="36.862190246582" lon="-5.17119216918945">
        <ele>566</ele>
        <time>2019-05-11T20:28:25Z</time>
      </trkpt>
      <trkpt lat="36.8621864318848" lon="-5.17119312286377">
        <ele>566</ele>
        <time>2019-05-11T20:28:27Z</time>
      </trkpt>
      <trkpt lat="36.8621864318848" lon="-5.17119216918945">
        <ele>566</ele>
        <time>2019-05-11T20:28:29Z</time>
      </trkpt>
      <trkpt lat="36.8621864318848" lon="-5.17118978500366">
        <ele>566</ele>
        <time>2019-05-11T20:28:31Z</time>
      </trkpt>
      <trkpt lat="36.8621826171875" lon="-5.17118978500366">
        <ele>566</ele>
        <time>2019-05-11T20:28:33Z</time>
      </trkpt>
      <trkpt lat="36.8621788024902" lon="-5.17118978500366">
        <ele>566</ele>
        <time>2019-05-11T20:28:35Z</time>
      </trkpt>
      <trkpt lat="36.8621788024902" lon="-5.17118787765503">
        <ele>566</ele>
        <time>2019-05-11T20:28:37Z</time>
      </trkpt>
      <trkpt lat="36.8621788024902" lon="-5.17118787765503">
        <ele>566</ele>
        <time>2019-05-11T20:28:39Z</time>
      </trkpt>
      <trkpt lat="36.8621711730957" lon="-5.17118692398071">
        <ele>566</ele>
        <time>2019-05-11T20:28:41Z</time>
      </trkpt>
      <trkpt lat="36.8621711730957" lon="-5.17118692398071">
        <ele>566</ele>
        <time>2019-05-11T20:28:43Z</time>
      </trkpt>
      <trkpt lat="36.8621711730957" lon="-5.17118501663208">
        <ele>565</ele>
        <time>2019-05-11T20:28:45Z</time>
      </trkpt>
      <trkpt lat="36.8621711730957" lon="-5.17117977142334">
        <ele>565</ele>
        <time>2019-05-11T20:28:47Z</time>
      </trkpt>
      <trkpt lat="36.8621711730957" lon="-5.17117786407471">
        <ele>565</ele>
        <time>2019-05-11T20:28:49Z</time>
      </trkpt>
      <trkpt lat="36.8621673583984" lon="-5.17117977142334">
        <ele>564</ele>
        <time>2019-05-11T20:28:51Z</time>
      </trkpt>
      <trkpt lat="36.8621673583984" lon="-5.17117977142334">
        <ele>564</ele>
        <time>2019-05-11T20:28:53Z</time>
      </trkpt>
      <trkpt lat="36.8621826171875" lon="-5.17118310928345">
        <ele>564</ele>
        <time>2019-05-11T20:28:57Z</time>
      </trkpt>
      <trkpt lat="36.8621978759766" lon="-5.17118692398071">
        <ele>564</ele>
        <time>2019-05-11T20:29:01Z</time>
      </trkpt>
      <trkpt lat="36.8621978759766" lon="-5.17118692398071">
        <ele>564</ele>
        <time>2019-05-11T20:29:03Z</time>
      </trkpt>
      <trkpt lat="36.8622016906738" lon="-5.17118501663208">
        <ele>564</ele>
        <time>2019-05-11T20:29:05Z</time>
      </trkpt>
      <trkpt lat="36.8622016906738" lon="-5.17118501663208">
        <ele>564</ele>
        <time>2019-05-11T20:29:07Z</time>
      </trkpt>
      <trkpt lat="36.8622016906738" lon="-5.17118215560913">
        <ele>564</ele>
        <time>2019-05-11T20:29:09Z</time>
      </trkpt>
      <trkpt lat="36.8622055053711" lon="-5.17118501663208">
        <ele>564</ele>
        <time>2019-05-11T20:29:11Z</time>
      </trkpt>
      <trkpt lat="36.8622093200684" lon="-5.17118692398071">
        <ele>564</ele>
        <time>2019-05-11T20:29:13Z</time>
      </trkpt>
      <trkpt lat="36.8622093200684" lon="-5.17118692398071">
        <ele>564</ele>
        <time>2019-05-11T20:29:16Z</time>
      </trkpt>
      <trkpt lat="36.8622207641602" lon="-5.17118310928345">
        <ele>564</ele>
        <time>2019-05-11T20:29:22Z</time>
      </trkpt>
      <trkpt lat="36.8622207641602" lon="-5.17118310928345">
        <ele>564</ele>
        <time>2019-05-11T20:29:24Z</time>
      </trkpt>
      <trkpt lat="36.8622283935547" lon="-5.17118692398071">
        <ele>564</ele>
        <time>2019-05-11T20:29:26Z</time>
      </trkpt>
      <trkpt lat="36.862232208252" lon="-5.17118692398071">
        <ele>564</ele>
        <time>2019-05-11T20:29:28Z</time>
      </trkpt>
      <trkpt lat="36.8622398376465" lon="-5.17118692398071">
        <ele>564</ele>
        <time>2019-05-11T20:29:30Z</time>
      </trkpt>
      <trkpt lat="36.8622398376465" lon="-5.17118501663208">
        <ele>565</ele>
        <time>2019-05-11T20:29:34Z</time>
      </trkpt>
      <trkpt lat="36.8622436523438" lon="-5.17118692398071">
        <ele>565</ele>
        <time>2019-05-11T20:29:36Z</time>
      </trkpt>
      <trkpt lat="36.8622436523438" lon="-5.17118692398071">
        <ele>565</ele>
        <time>2019-05-11T20:29:38Z</time>
      </trkpt>
      <trkpt lat="36.8622398376465" lon="-5.17118501663208">
        <ele>565</ele>
        <time>2019-05-11T20:29:42Z</time>
      </trkpt>
      <trkpt lat="36.8622398376465" lon="-5.17118787765503">
        <ele>565</ele>
        <time>2019-05-11T20:29:44Z</time>
      </trkpt>
      <trkpt lat="36.8622360229492" lon="-5.17118787765503">
        <ele>565</ele>
        <time>2019-05-11T20:29:46Z</time>
      </trkpt>
      <trkpt lat="36.8622436523438" lon="-5.17118692398071">
        <ele>565</ele>
        <time>2019-05-11T20:29:50Z</time>
      </trkpt>
      <trkpt lat="36.8622436523438" lon="-5.17118501663208">
        <ele>565</ele>
        <time>2019-05-11T20:29:52Z</time>
      </trkpt>
      <trkpt lat="36.8622436523438" lon="-5.17118787765503">
        <ele>566</ele>
        <time>2019-05-11T20:29:54Z</time>
      </trkpt>
      <trkpt lat="36.862247467041" lon="-5.17118692398071">
        <ele>566</ele>
        <time>2019-05-11T20:29:56Z</time>
      </trkpt>
      <trkpt lat="36.8622512817383" lon="-5.17118692398071">
        <ele>567</ele>
        <time>2019-05-11T20:30:07Z</time>
      </trkpt>
      <trkpt lat="36.8622512817383" lon="-5.17118692398071">
        <ele>567</ele>
        <time>2019-05-11T20:30:09Z</time>
      </trkpt>
      <trkpt lat="36.8622512817383" lon="-5.17118501663208">
        <ele>567</ele>
        <time>2019-05-11T20:30:11Z</time>
      </trkpt>
      <trkpt lat="36.8622512817383" lon="-5.17118501663208">
        <ele>567</ele>
        <time>2019-05-11T20:30:13Z</time>
      </trkpt>
      <trkpt lat="36.8622512817383" lon="-5.17118501663208">
        <ele>567</ele>
        <time>2019-05-11T20:30:15Z</time>
      </trkpt>
      <trkpt lat="36.8622512817383" lon="-5.17118501663208">
        <ele>567</ele>
        <time>2019-05-11T20:30:17Z</time>
      </trkpt>
      <trkpt lat="36.8622512817383" lon="-5.17118501663208">
        <ele>567</ele>
        <time>2019-05-11T20:30:19Z</time>
      </trkpt>
      <trkpt lat="36.8622512817383" lon="-5.17118501663208">
        <ele>567</ele>
        <time>2019-05-11T20:30:21Z</time>
      </trkpt>
      <trkpt lat="36.8622512817383" lon="-5.17118501663208">
        <ele>567</ele>
        <time>2019-05-11T20:30:23Z</time>
      </trkpt>
      <trkpt lat="36.8622512817383" lon="-5.17118310928345">
        <ele>567</ele>
        <time>2019-05-11T20:30:25Z</time>
      </trkpt>
      <trkpt lat="36.8622550964356" lon="-5.17118310928345">
        <ele>567</ele>
        <time>2019-05-11T20:30:27Z</time>
      </trkpt>
      <trkpt lat="36.8622550964356" lon="-5.17118310928345">
        <ele>567</ele>
        <time>2019-05-11T20:30:29Z</time>
      </trkpt>
      <trkpt lat="36.8622589111328" lon="-5.17118310928345">
        <ele>567</ele>
        <time>2019-05-11T20:30:31Z</time>
      </trkpt>
      <trkpt lat="36.8622627258301" lon="-5.17118310928345">
        <ele>567</ele>
        <time>2019-05-11T20:30:33Z</time>
      </trkpt>
      <trkpt lat="36.8622665405273" lon="-5.17118310928345">
        <ele>567</ele>
        <time>2019-05-11T20:30:35Z</time>
      </trkpt>
      <trkpt lat="36.8622703552246" lon="-5.17118310928345">
        <ele>568</ele>
        <time>2019-05-11T20:30:37Z</time>
      </trkpt>
      <trkpt lat="36.8622741699219" lon="-5.17118310928345">
        <ele>568</ele>
        <time>2019-05-11T20:30:39Z</time>
      </trkpt>
      <trkpt lat="36.8622817993164" lon="-5.17118501663208">
        <ele>568</ele>
        <time>2019-05-11T20:30:41Z</time>
      </trkpt>
      <trkpt lat="36.8622856140137" lon="-5.17118501663208">
        <ele>568</ele>
        <time>2019-05-11T20:30:43Z</time>
      </trkpt>
      <trkpt lat="36.8622894287109" lon="-5.17118501663208">
        <ele>569</ele>
        <time>2019-05-11T20:30:45Z</time>
      </trkpt>
      <trkpt lat="36.8622970581055" lon="-5.17118501663208">
        <ele>569</ele>
        <time>2019-05-11T20:30:47Z</time>
      </trkpt>
      <trkpt lat="36.8622970581055" lon="-5.17118501663208">
        <ele>569</ele>
        <time>2019-05-11T20:30:49Z</time>
      </trkpt>
      <trkpt lat="36.8622970581055" lon="-5.17118310928345">
        <ele>569</ele>
        <time>2019-05-11T20:30:51Z</time>
      </trkpt>
      <trkpt lat="36.8623008728027" lon="-5.17118501663208">
        <ele>570</ele>
        <time>2019-05-11T20:30:53Z</time>
      </trkpt>
      <trkpt lat="36.8623046875" lon="-5.17118501663208">
        <ele>570</ele>
        <time>2019-05-11T20:30:55Z</time>
      </trkpt>
      <trkpt lat="36.8623046875" lon="-5.17118692398071">
        <ele>570</ele>
        <time>2019-05-11T20:30:57Z</time>
      </trkpt>
      <trkpt lat="36.8623046875" lon="-5.17118692398071">
        <ele>570</ele>
        <time>2019-05-11T20:30:59Z</time>
      </trkpt>
      <trkpt lat="36.8623008728027" lon="-5.17118787765503">
        <ele>570</ele>
        <time>2019-05-11T20:31:01Z</time>
      </trkpt>
      <trkpt lat="36.8622970581055" lon="-5.17118978500366">
        <ele>570</ele>
        <time>2019-05-11T20:31:03Z</time>
      </trkpt>
      <trkpt lat="36.8622970581055" lon="-5.17118787765503">
        <ele>570</ele>
        <time>2019-05-11T20:31:05Z</time>
      </trkpt>
      <trkpt lat="36.8622932434082" lon="-5.17118692398071">
        <ele>570</ele>
        <time>2019-05-11T20:31:07Z</time>
      </trkpt>
      <trkpt lat="36.8622894287109" lon="-5.17118692398071">
        <ele>570</ele>
        <time>2019-05-11T20:31:09Z</time>
      </trkpt>
      <trkpt lat="36.8622894287109" lon="-5.17118787765503">
        <ele>570</ele>
        <time>2019-05-11T20:31:11Z</time>
      </trkpt>
      <trkpt lat="36.8622894287109" lon="-5.17118787765503">
        <ele>570</ele>
        <time>2019-05-11T20:31:14Z</time>
      </trkpt>
      <trkpt lat="36.8622894287109" lon="-5.17118978500366">
        <ele>570</ele>
        <time>2019-05-11T20:31:16Z</time>
      </trkpt>
      <trkpt lat="36.8622894287109" lon="-5.17118978500366">
        <ele>570</ele>
        <time>2019-05-11T20:31:18Z</time>
      </trkpt>
      <trkpt lat="36.8622856140137" lon="-5.17118978500366">
        <ele>570</ele>
        <time>2019-05-11T20:31:20Z</time>
      </trkpt>
      <trkpt lat="36.8622856140137" lon="-5.17118978500366">
        <ele>570</ele>
        <time>2019-05-11T20:31:22Z</time>
      </trkpt>
      <trkpt lat="36.8622817993164" lon="-5.17118978500366">
        <ele>570</ele>
        <time>2019-05-11T20:31:24Z</time>
      </trkpt>
      <trkpt lat="36.8622817993164" lon="-5.17118978500366">
        <ele>570</ele>
        <time>2019-05-11T20:31:26Z</time>
      </trkpt>
      <trkpt lat="36.8622779846191" lon="-5.17118978500366">
        <ele>570</ele>
        <time>2019-05-11T20:31:28Z</time>
      </trkpt>
      <trkpt lat="36.8622779846191" lon="-5.17118978500366">
        <ele>570</ele>
        <time>2019-05-11T20:31:30Z</time>
      </trkpt>
      <trkpt lat="36.8622779846191" lon="-5.17118978500366">
        <ele>570</ele>
        <time>2019-05-11T20:31:32Z</time>
      </trkpt>
      <trkpt lat="36.8622817993164" lon="-5.17118978500366">
        <ele>570</ele>
        <time>2019-05-11T20:31:34Z</time>
      </trkpt>
      <trkpt lat="36.8622779846191" lon="-5.17119312286377">
        <ele>570</ele>
        <time>2019-05-11T20:31:36Z</time>
      </trkpt>
      <trkpt lat="36.8622817993164" lon="-5.17118978500366">
        <ele>570</ele>
        <time>2019-05-11T20:31:38Z</time>
      </trkpt>
      <trkpt lat="36.8622817993164" lon="-5.17119312286377">
        <ele>570</ele>
        <time>2019-05-11T20:31:40Z</time>
      </trkpt>
      <trkpt lat="36.8622817993164" lon="-5.1711950302124">
        <ele>570</ele>
        <time>2019-05-11T20:31:42Z</time>
      </trkpt>
      <trkpt lat="36.8622817993164" lon="-5.17119789123535">
        <ele>570</ele>
        <time>2019-05-11T20:31:44Z</time>
      </trkpt>
      <trkpt lat="36.8622856140137" lon="-5.17119693756104">
        <ele>570</ele>
        <time>2019-05-11T20:31:46Z</time>
      </trkpt>
      <trkpt lat="36.8622817993164" lon="-5.17119693756104">
        <ele>570</ele>
        <time>2019-05-11T20:31:48Z</time>
      </trkpt>
      <trkpt lat="36.8622817993164" lon="-5.17118692398071">
        <ele>570</ele>
        <time>2019-05-11T20:31:50Z</time>
      </trkpt>
      <trkpt lat="36.8622817993164" lon="-5.17118787765503">
        <ele>570</ele>
        <time>2019-05-11T20:31:52Z</time>
      </trkpt>
      <trkpt lat="36.8622817993164" lon="-5.17118692398071">
        <ele>570</ele>
        <time>2019-05-11T20:31:54Z</time>
      </trkpt>
      <trkpt lat="36.8622779846191" lon="-5.17118692398071">
        <ele>570</ele>
        <time>2019-05-11T20:31:56Z</time>
      </trkpt>
      <trkpt lat="36.8622741699219" lon="-5.17118692398071">
        <ele>570</ele>
        <time>2019-05-11T20:31:58Z</time>
      </trkpt>
      <trkpt lat="36.8622741699219" lon="-5.17118978500366">
        <ele>570</ele>
        <time>2019-05-11T20:32:00Z</time>
      </trkpt>
      <trkpt lat="36.8622741699219" lon="-5.17118978500366">
        <ele>570</ele>
        <time>2019-05-11T20:32:02Z</time>
      </trkpt>
      <trkpt lat="36.8622741699219" lon="-5.17118692398071">
        <ele>570</ele>
        <time>2019-05-11T20:32:04Z</time>
      </trkpt>
      <trkpt lat="36.8622703552246" lon="-5.17118692398071">
        <ele>570</ele>
        <time>2019-05-11T20:32:06Z</time>
      </trkpt>
      <trkpt lat="36.8622703552246" lon="-5.17118501663208">
        <ele>570</ele>
        <time>2019-05-11T20:32:08Z</time>
      </trkpt>
      <trkpt lat="36.8622703552246" lon="-5.17118501663208">
        <ele>570</ele>
        <time>2019-05-11T20:32:10Z</time>
      </trkpt>
      <trkpt lat="36.8622665405273" lon="-5.17118501663208">
        <ele>570</ele>
        <time>2019-05-11T20:32:12Z</time>
      </trkpt>
      <trkpt lat="36.8622665405273" lon="-5.17118501663208">
        <ele>570</ele>
        <time>2019-05-11T20:32:14Z</time>
      </trkpt>
      <trkpt lat="36.8622627258301" lon="-5.17118692398071">
        <ele>570</ele>
        <time>2019-05-11T20:32:16Z</time>
      </trkpt>
      <trkpt lat="36.8622589111328" lon="-5.17118501663208">
        <ele>570</ele>
        <time>2019-05-11T20:32:18Z</time>
      </trkpt>
      <trkpt lat="36.8622436523438" lon="-5.17117977142334">
        <ele>570</ele>
        <time>2019-05-11T20:32:23Z</time>
      </trkpt>
      <trkpt lat="36.8622436523438" lon="-5.17117977142334">
        <ele>570</ele>
        <time>2019-05-11T20:32:25Z</time>
      </trkpt>
      <trkpt lat="36.8622360229492" lon="-5.17117691040039">
        <ele>570</ele>
        <time>2019-05-11T20:32:27Z</time>
      </trkpt>
      <trkpt lat="36.8622245788574" lon="-5.17117309570312">
        <ele>569</ele>
        <time>2019-05-11T20:32:31Z</time>
      </trkpt>
      <trkpt lat="36.8622207641602" lon="-5.17117500305176">
        <ele>568</ele>
        <time>2019-05-11T20:32:33Z</time>
      </trkpt>
      <trkpt lat="36.8622093200684" lon="-5.17117309570312">
        <ele>568</ele>
        <time>2019-05-11T20:32:37Z</time>
      </trkpt>
      <trkpt lat="36.8622055053711" lon="-5.17117309570312">
        <ele>568</ele>
        <time>2019-05-11T20:32:39Z</time>
      </trkpt>
      <trkpt lat="36.8622016906738" lon="-5.17117309570312">
        <ele>567</ele>
        <time>2019-05-11T20:32:41Z</time>
      </trkpt>
      <trkpt lat="36.8621978759766" lon="-5.17117214202881">
        <ele>567</ele>
        <time>2019-05-11T20:32:43Z</time>
      </trkpt>
      <trkpt lat="36.862190246582" lon="-5.17117023468018">
        <ele>566</ele>
        <time>2019-05-11T20:32:45Z</time>
      </trkpt>
      <trkpt lat="36.8621864318848" lon="-5.17116785049438">
        <ele>566</ele>
        <time>2019-05-11T20:32:47Z</time>
      </trkpt>
      <trkpt lat="36.8621826171875" lon="-5.17116689682007">
        <ele>566</ele>
        <time>2019-05-11T20:32:49Z</time>
      </trkpt>
      <trkpt lat="36.8621788024902" lon="-5.17116498947144">
        <ele>566</ele>
        <time>2019-05-11T20:32:51Z</time>
      </trkpt>
      <trkpt lat="36.8621711730957" lon="-5.17116498947144">
        <ele>566</ele>
        <time>2019-05-11T20:32:53Z</time>
      </trkpt>
      <trkpt lat="36.8621711730957" lon="-5.17116689682007">
        <ele>565</ele>
        <time>2019-05-11T20:32:55Z</time>
      </trkpt>
      <trkpt lat="36.8621711730957" lon="-5.17116689682007">
        <ele>565</ele>
        <time>2019-05-11T20:32:57Z</time>
      </trkpt>
      <trkpt lat="36.8621635437012" lon="-5.1711630821228">
        <ele>565</ele>
        <time>2019-05-11T20:32:59Z</time>
      </trkpt>
      <trkpt lat="36.8621635437012" lon="-5.17116212844849">
        <ele>565</ele>
        <time>2019-05-11T20:33:01Z</time>
      </trkpt>
      <trkpt lat="36.8621635437012" lon="-5.17116022109985">
        <ele>565</ele>
        <time>2019-05-11T20:33:03Z</time>
      </trkpt>
      <trkpt lat="36.8621635437012" lon="-5.17116022109985">
        <ele>565</ele>
        <time>2019-05-11T20:33:05Z</time>
      </trkpt>
      <trkpt lat="36.8621597290039" lon="-5.17115783691406">
        <ele>565</ele>
        <time>2019-05-11T20:33:07Z</time>
      </trkpt>
      <trkpt lat="36.8621597290039" lon="-5.17115783691406">
        <ele>565</ele>
        <time>2019-05-11T20:33:10Z</time>
      </trkpt>
      <trkpt lat="36.8621559143066" lon="-5.17115688323975">
        <ele>565</ele>
        <time>2019-05-11T20:33:12Z</time>
      </trkpt>
      <trkpt lat="36.8621520996094" lon="-5.17116022109985">
        <ele>565</ele>
        <time>2019-05-11T20:33:14Z</time>
      </trkpt>
      <trkpt lat="36.8621520996094" lon="-5.17116022109985">
        <ele>565</ele>
        <time>2019-05-11T20:33:16Z</time>
      </trkpt>
      <trkpt lat="36.8621482849121" lon="-5.17115783691406">
        <ele>565</ele>
        <time>2019-05-11T20:33:18Z</time>
      </trkpt>
      <trkpt lat="36.8621444702148" lon="-5.17115783691406">
        <ele>565</ele>
        <time>2019-05-11T20:33:20Z</time>
      </trkpt>
      <trkpt lat="36.8621406555176" lon="-5.17115688323975">
        <ele>565</ele>
        <time>2019-05-11T20:33:22Z</time>
      </trkpt>
      <trkpt lat="36.8621368408203" lon="-5.17115497589111">
        <ele>564</ele>
        <time>2019-05-11T20:33:24Z</time>
      </trkpt>
      <trkpt lat="36.8621368408203" lon="-5.17115306854248">
        <ele>564</ele>
        <time>2019-05-11T20:33:26Z</time>
      </trkpt>
      <trkpt lat="36.862133026123" lon="-5.17115306854248">
        <ele>564</ele>
        <time>2019-05-11T20:33:28Z</time>
      </trkpt>
      <trkpt lat="36.8621215820312" lon="-5.17115497589111">
        <ele>563</ele>
        <time>2019-05-11T20:33:30Z</time>
      </trkpt>
      <trkpt lat="36.8621215820312" lon="-5.17115211486816">
        <ele>563</ele>
        <time>2019-05-11T20:33:32Z</time>
      </trkpt>
      <trkpt lat="36.862117767334" lon="-5.17115211486816">
        <ele>563</ele>
        <time>2019-05-11T20:33:34Z</time>
      </trkpt>
      <trkpt lat="36.8621139526367" lon="-5.17115211486816">
        <ele>563</ele>
        <time>2019-05-11T20:33:36Z</time>
      </trkpt>
      <trkpt lat="36.8621139526367" lon="-5.17115020751953">
        <ele>563</ele>
        <time>2019-05-11T20:33:38Z</time>
      </trkpt>
      <trkpt lat="36.8621139526367" lon="-5.17115020751953">
        <ele>563</ele>
        <time>2019-05-11T20:33:40Z</time>
      </trkpt>
      <trkpt lat="36.8621139526367" lon="-5.17114782333374">
        <ele>563</ele>
        <time>2019-05-11T20:33:42Z</time>
      </trkpt>
      <trkpt lat="36.862117767334" lon="-5.17114782333374">
        <ele>563</ele>
        <time>2019-05-11T20:33:44Z</time>
      </trkpt>
      <trkpt lat="36.862117767334" lon="-5.17115211486816">
        <ele>563</ele>
        <time>2019-05-11T20:33:46Z</time>
      </trkpt>
      <trkpt lat="36.862117767334" lon="-5.17115020751953">
        <ele>563</ele>
        <time>2019-05-11T20:33:48Z</time>
      </trkpt>
      <trkpt lat="36.8621215820312" lon="-5.17115020751953">
        <ele>563</ele>
        <time>2019-05-11T20:33:50Z</time>
      </trkpt>
      <trkpt lat="36.862117767334" lon="-5.17115020751953">
        <ele>563</ele>
        <time>2019-05-11T20:33:52Z</time>
      </trkpt>
      <trkpt lat="36.8621215820312" lon="-5.17115020751953">
        <ele>563</ele>
        <time>2019-05-11T20:33:54Z</time>
      </trkpt>
      <trkpt lat="36.862117767334" lon="-5.17115020751953">
        <ele>563</ele>
        <time>2019-05-11T20:33:56Z</time>
      </trkpt>
      <trkpt lat="36.8621139526367" lon="-5.17114782333374">
        <ele>563</ele>
        <time>2019-05-11T20:33:58Z</time>
      </trkpt>
      <trkpt lat="36.8621139526367" lon="-5.17114782333374">
        <ele>563</ele>
        <time>2019-05-11T20:34:00Z</time>
      </trkpt>
      <trkpt lat="36.8621063232422" lon="-5.17114496231079">
        <ele>563</ele>
        <time>2019-05-11T20:34:02Z</time>
      </trkpt>
      <trkpt lat="36.8621101379394" lon="-5.17114496231079">
        <ele>563</ele>
        <time>2019-05-11T20:34:04Z</time>
      </trkpt>
      <trkpt lat="36.8621139526367" lon="-5.17114686965942">
        <ele>563</ele>
        <time>2019-05-11T20:34:06Z</time>
      </trkpt>
      <trkpt lat="36.8621063232422" lon="-5.17115306854248">
        <ele>563</ele>
        <time>2019-05-11T20:34:10Z</time>
      </trkpt>
      <trkpt lat="36.8621063232422" lon="-5.17114782333374">
        <ele>563</ele>
        <time>2019-05-11T20:34:12Z</time>
      </trkpt>
      <trkpt lat="36.8621063232422" lon="-5.17114782333374">
        <ele>563</ele>
        <time>2019-05-11T20:34:15Z</time>
      </trkpt>
      <trkpt lat="36.8621139526367" lon="-5.17115783691406">
        <ele>563</ele>
        <time>2019-05-11T20:34:17Z</time>
      </trkpt>
      <trkpt lat="36.8621139526367" lon="-5.17115783691406">
        <ele>563</ele>
        <time>2019-05-11T20:34:19Z</time>
      </trkpt>
      <trkpt lat="36.8621139526367" lon="-5.17115688323975">
        <ele>563</ele>
        <time>2019-05-11T20:34:21Z</time>
      </trkpt>
      <trkpt lat="36.8621139526367" lon="-5.17115783691406">
        <ele>563</ele>
        <time>2019-05-11T20:34:23Z</time>
      </trkpt>
      <trkpt lat="36.8621139526367" lon="-5.17115688323975">
        <ele>563</ele>
        <time>2019-05-11T20:34:25Z</time>
      </trkpt>
      <trkpt lat="36.8621139526367" lon="-5.17115783691406">
        <ele>563</ele>
        <time>2019-05-11T20:34:27Z</time>
      </trkpt>
      <trkpt lat="36.8621139526367" lon="-5.17115783691406">
        <ele>563</ele>
        <time>2019-05-11T20:34:29Z</time>
      </trkpt>
      <trkpt lat="36.8621139526367" lon="-5.17115688323975">
        <ele>563</ele>
        <time>2019-05-11T20:34:31Z</time>
      </trkpt>
      <trkpt lat="36.862117767334" lon="-5.17115783691406">
        <ele>563</ele>
        <time>2019-05-11T20:34:33Z</time>
      </trkpt>
      <trkpt lat="36.862117767334" lon="-5.17115783691406">
        <ele>563</ele>
        <time>2019-05-11T20:34:35Z</time>
      </trkpt>
      <trkpt lat="36.8621215820312" lon="-5.17115783691406">
        <ele>563</ele>
        <time>2019-05-11T20:34:37Z</time>
      </trkpt>
      <trkpt lat="36.8621215820312" lon="-5.17115783691406">
        <ele>563</ele>
        <time>2019-05-11T20:34:39Z</time>
      </trkpt>
      <trkpt lat="36.8621215820312" lon="-5.17115783691406">
        <ele>563</ele>
        <time>2019-05-11T20:34:41Z</time>
      </trkpt>
      <trkpt lat="36.8621215820312" lon="-5.17116212844849">
        <ele>563</ele>
        <time>2019-05-11T20:34:43Z</time>
      </trkpt>
      <trkpt lat="36.8621215820312" lon="-5.17116212844849">
        <ele>563</ele>
        <time>2019-05-11T20:34:45Z</time>
      </trkpt>
      <trkpt lat="36.8621215820312" lon="-5.17116022109985">
        <ele>563</ele>
        <time>2019-05-11T20:34:47Z</time>
      </trkpt>
      <trkpt lat="36.862117767334" lon="-5.17116022109985">
        <ele>563</ele>
        <time>2019-05-11T20:34:49Z</time>
      </trkpt>
      <trkpt lat="36.8621139526367" lon="-5.17115783691406">
        <ele>563</ele>
        <time>2019-05-11T20:34:51Z</time>
      </trkpt>
      <trkpt lat="36.8621139526367" lon="-5.17115688323975">
        <ele>563</ele>
        <time>2019-05-11T20:34:53Z</time>
      </trkpt>
      <trkpt lat="36.8621101379394" lon="-5.17115497589111">
        <ele>563</ele>
        <time>2019-05-11T20:34:55Z</time>
      </trkpt>
      <trkpt lat="36.8621063232422" lon="-5.17115211486816">
        <ele>563</ele>
        <time>2019-05-11T20:34:57Z</time>
      </trkpt>
      <trkpt lat="36.8621063232422" lon="-5.17115020751953">
        <ele>563</ele>
        <time>2019-05-11T20:34:59Z</time>
      </trkpt>
      <trkpt lat="36.8621063232422" lon="-5.17114782333374">
        <ele>563</ele>
        <time>2019-05-11T20:35:01Z</time>
      </trkpt>
      <trkpt lat="36.8621063232422" lon="-5.17114686965942">
        <ele>563</ele>
        <time>2019-05-11T20:35:04Z</time>
      </trkpt>
      <trkpt lat="36.8621063232422" lon="-5.17114686965942">
        <ele>563</ele>
        <time>2019-05-11T20:35:06Z</time>
      </trkpt>
      <trkpt lat="36.8621063232422" lon="-5.17114686965942">
        <ele>563</ele>
        <time>2019-05-11T20:35:08Z</time>
      </trkpt>
      <trkpt lat="36.8621215820312" lon="-5.17115211486816">
        <ele>563</ele>
        <time>2019-05-11T20:35:10Z</time>
      </trkpt>
      <trkpt lat="36.8621292114258" lon="-5.17115211486816">
        <ele>563</ele>
        <time>2019-05-11T20:35:12Z</time>
      </trkpt>
      <trkpt lat="36.8621368408203" lon="-5.17115211486816">
        <ele>563</ele>
        <time>2019-05-11T20:35:14Z</time>
      </trkpt>
      <trkpt lat="36.8621444702148" lon="-5.17115497589111">
        <ele>563</ele>
        <time>2019-05-11T20:35:16Z</time>
      </trkpt>
      <trkpt lat="36.8621482849121" lon="-5.17115497589111">
        <ele>563</ele>
        <time>2019-05-11T20:35:18Z</time>
      </trkpt>
      <trkpt lat="36.8621482849121" lon="-5.17115497589111">
        <ele>563</ele>
        <time>2019-05-11T20:35:20Z</time>
      </trkpt>
      <trkpt lat="36.8621520996094" lon="-5.17115688323975">
        <ele>563</ele>
        <time>2019-05-11T20:35:22Z</time>
      </trkpt>
      <trkpt lat="36.8621597290039" lon="-5.17115688323975">
        <ele>563</ele>
        <time>2019-05-11T20:35:24Z</time>
      </trkpt>
      <trkpt lat="36.8621635437012" lon="-5.17115688323975">
        <ele>563</ele>
        <time>2019-05-11T20:35:26Z</time>
      </trkpt>
      <trkpt lat="36.8621673583984" lon="-5.17115688323975">
        <ele>563</ele>
        <time>2019-05-11T20:35:28Z</time>
      </trkpt>
      <trkpt lat="36.862174987793" lon="-5.17116212844849">
        <ele>563</ele>
        <time>2019-05-11T20:35:30Z</time>
      </trkpt>
      <trkpt lat="36.8621826171875" lon="-5.17116498947144">
        <ele>563</ele>
        <time>2019-05-11T20:35:32Z</time>
      </trkpt>
      <trkpt lat="36.8622016906738" lon="-5.17116689682007">
        <ele>563</ele>
        <time>2019-05-11T20:35:38Z</time>
      </trkpt>
      <trkpt lat="36.8622055053711" lon="-5.17116689682007">
        <ele>563</ele>
        <time>2019-05-11T20:35:40Z</time>
      </trkpt>
      <trkpt lat="36.8622169494629" lon="-5.17116689682007">
        <ele>564</ele>
        <time>2019-05-11T20:36:09Z</time>
      </trkpt>
      <trkpt lat="36.8622169494629" lon="-5.17117214202881">
        <ele>564</ele>
        <time>2019-05-11T20:36:13Z</time>
      </trkpt>
      <trkpt lat="36.8622131347656" lon="-5.17117500305176">
        <ele>564</ele>
        <time>2019-05-11T20:36:17Z</time>
      </trkpt>
      <trkpt lat="36.8622169494629" lon="-5.17118978500366">
        <ele>565</ele>
        <time>2019-05-11T20:36:25Z</time>
      </trkpt>
      <trkpt lat="36.8622169494629" lon="-5.17119312286377">
        <ele>565</ele>
        <time>2019-05-11T20:36:27Z</time>
      </trkpt>
      <trkpt lat="36.8622245788574" lon="-5.17119216918945">
        <ele>565</ele>
        <time>2019-05-11T20:36:29Z</time>
      </trkpt>
      <trkpt lat="36.8622245788574" lon="-5.17119312286377">
        <ele>566</ele>
        <time>2019-05-11T20:36:31Z</time>
      </trkpt>
      <trkpt lat="36.8622283935547" lon="-5.17119312286377">
        <ele>566</ele>
        <time>2019-05-11T20:36:33Z</time>
      </trkpt>
      <trkpt lat="36.862232208252" lon="-5.17119693756104">
        <ele>567</ele>
        <time>2019-05-11T20:36:35Z</time>
      </trkpt>
      <trkpt lat="36.862232208252" lon="-5.1711950302124">
        <ele>567</ele>
        <time>2019-05-11T20:36:37Z</time>
      </trkpt>
      <trkpt lat="36.862232208252" lon="-5.1711950302124">
        <ele>567</ele>
        <time>2019-05-11T20:36:39Z</time>
      </trkpt>
      <trkpt lat="36.862232208252" lon="-5.17119312286377">
        <ele>568</ele>
        <time>2019-05-11T20:36:42Z</time>
      </trkpt>
      <trkpt lat="36.862232208252" lon="-5.17119216918945">
        <ele>568</ele>
        <time>2019-05-11T20:36:44Z</time>
      </trkpt>
      <trkpt lat="36.8622360229492" lon="-5.17119312286377">
        <ele>568</ele>
        <time>2019-05-11T20:36:46Z</time>
      </trkpt>
      <trkpt lat="36.8622360229492" lon="-5.17119216918945">
        <ele>568</ele>
        <time>2019-05-11T20:36:48Z</time>
      </trkpt>
      <trkpt lat="36.862232208252" lon="-5.17119216918945">
        <ele>568</ele>
        <time>2019-05-11T20:36:50Z</time>
      </trkpt>
      <trkpt lat="36.8622283935547" lon="-5.17119216918945">
        <ele>568</ele>
        <time>2019-05-11T20:36:52Z</time>
      </trkpt>
      <trkpt lat="36.8622283935547" lon="-5.17119216918945">
        <ele>568</ele>
        <time>2019-05-11T20:36:54Z</time>
      </trkpt>
      <trkpt lat="36.8622245788574" lon="-5.17118978500366">
        <ele>568</ele>
        <time>2019-05-11T20:36:56Z</time>
      </trkpt>
      <trkpt lat="36.8622207641602" lon="-5.17118978500366">
        <ele>568</ele>
        <time>2019-05-11T20:36:58Z</time>
      </trkpt>
      <trkpt lat="36.8622207641602" lon="-5.17118978500366">
        <ele>568</ele>
        <time>2019-05-11T20:37:00Z</time>
      </trkpt>
      <trkpt lat="36.8622207641602" lon="-5.17118978500366">
        <ele>568</ele>
        <time>2019-05-11T20:37:02Z</time>
      </trkpt>
      <trkpt lat="36.8622169494629" lon="-5.17118787765503">
        <ele>568</ele>
        <time>2019-05-11T20:37:06Z</time>
      </trkpt>
      <trkpt lat="36.8622169494629" lon="-5.17118787765503">
        <ele>568</ele>
        <time>2019-05-11T20:37:08Z</time>
      </trkpt>
      <trkpt lat="36.8622169494629" lon="-5.17118692398071">
        <ele>568</ele>
        <time>2019-05-11T20:37:10Z</time>
      </trkpt>
      <trkpt lat="36.8622169494629" lon="-5.17118787765503">
        <ele>568</ele>
        <time>2019-05-11T20:37:12Z</time>
      </trkpt>
      <trkpt lat="36.8622169494629" lon="-5.17118787765503">
        <ele>568</ele>
        <time>2019-05-11T20:37:14Z</time>
      </trkpt>
      <trkpt lat="36.8622169494629" lon="-5.17118692398071">
        <ele>568</ele>
        <time>2019-05-11T20:37:16Z</time>
      </trkpt>
      <trkpt lat="36.8622169494629" lon="-5.17117977142334">
        <ele>568</ele>
        <time>2019-05-11T20:37:30Z</time>
      </trkpt>
      <trkpt lat="36.8622245788574" lon="-5.17117786407471">
        <ele>568</ele>
        <time>2019-05-11T20:37:34Z</time>
      </trkpt>
      <trkpt lat="36.8622283935547" lon="-5.17117977142334">
        <ele>568</ele>
        <time>2019-05-11T20:37:36Z</time>
      </trkpt>
      <trkpt lat="36.8622283935547" lon="-5.17117977142334">
        <ele>568</ele>
        <time>2019-05-11T20:37:38Z</time>
      </trkpt>
      <trkpt lat="36.8622245788574" lon="-5.17117786407471">
        <ele>568</ele>
        <time>2019-05-11T20:37:40Z</time>
      </trkpt>
      <trkpt lat="36.8622283935547" lon="-5.17117977142334">
        <ele>568</ele>
        <time>2019-05-11T20:37:42Z</time>
      </trkpt>
      <trkpt lat="36.8622283935547" lon="-5.17117691040039">
        <ele>569</ele>
        <time>2019-05-11T20:38:01Z</time>
      </trkpt>
      <trkpt lat="36.8622245788574" lon="-5.17117309570312">
        <ele>569</ele>
        <time>2019-05-11T20:38:03Z</time>
      </trkpt>
      <trkpt lat="36.8622283935547" lon="-5.17117691040039">
        <ele>569</ele>
        <time>2019-05-11T20:38:05Z</time>
      </trkpt>
      <trkpt lat="36.8622436523438" lon="-5.17117786407471">
        <ele>570</ele>
        <time>2019-05-11T20:38:09Z</time>
      </trkpt>
      <trkpt lat="36.8622360229492" lon="-5.17117691040039">
        <ele>570</ele>
        <time>2019-05-11T20:38:11Z</time>
      </trkpt>
      <trkpt lat="36.8622360229492" lon="-5.17117500305176">
        <ele>570</ele>
        <time>2019-05-11T20:38:13Z</time>
      </trkpt>
      <trkpt lat="36.8622360229492" lon="-5.17117500305176">
        <ele>570</ele>
        <time>2019-05-11T20:38:15Z</time>
      </trkpt>
      <trkpt lat="36.8622360229492" lon="-5.17117500305176">
        <ele>570</ele>
        <time>2019-05-11T20:38:17Z</time>
      </trkpt>
      <trkpt lat="36.8622360229492" lon="-5.17117691040039">
        <ele>570</ele>
        <time>2019-05-11T20:38:19Z</time>
      </trkpt>
      <trkpt lat="36.8622360229492" lon="-5.17117500305176">
        <ele>570</ele>
        <time>2019-05-11T20:38:21Z</time>
      </trkpt>
      <trkpt lat="36.8622360229492" lon="-5.17117500305176">
        <ele>570</ele>
        <time>2019-05-11T20:38:23Z</time>
      </trkpt>
      <trkpt lat="36.8622360229492" lon="-5.17117500305176">
        <ele>570</ele>
        <time>2019-05-11T20:38:25Z</time>
      </trkpt>
      <trkpt lat="36.8622398376465" lon="-5.17117691040039">
        <ele>570</ele>
        <time>2019-05-11T20:38:27Z</time>
      </trkpt>
      <trkpt lat="36.8622398376465" lon="-5.17117786407471">
        <ele>570</ele>
        <time>2019-05-11T20:38:29Z</time>
      </trkpt>
      <trkpt lat="36.8622398376465" lon="-5.17117786407471">
        <ele>570</ele>
        <time>2019-05-11T20:38:31Z</time>
      </trkpt>
      <trkpt lat="36.8622398376465" lon="-5.17117977142334">
        <ele>570</ele>
        <time>2019-05-11T20:38:37Z</time>
      </trkpt>
      <trkpt lat="36.8622131347656" lon="-5.17116785049438">
        <ele>570</ele>
        <time>2019-05-11T20:39:00Z</time>
      </trkpt>
      <trkpt lat="36.8622131347656" lon="-5.17116785049438">
        <ele>570</ele>
        <time>2019-05-11T20:39:02Z</time>
      </trkpt>
      <trkpt lat="36.8622093200684" lon="-5.17117500305176">
        <ele>570</ele>
        <time>2019-05-11T20:39:06Z</time>
      </trkpt>
      <trkpt lat="36.8621978759766" lon="-5.17117023468018">
        <ele>570</ele>
        <time>2019-05-11T20:39:18Z</time>
      </trkpt>
      <trkpt lat="36.8621978759766" lon="-5.17117023468018">
        <ele>570</ele>
        <time>2019-05-11T20:39:20Z</time>
      </trkpt>
      <trkpt lat="36.8621940612793" lon="-5.1711630821228">
        <ele>570</ele>
        <time>2019-05-11T20:39:22Z</time>
      </trkpt>
      <trkpt lat="36.8621978759766" lon="-5.17116689682007">
        <ele>570</ele>
        <time>2019-05-11T20:39:24Z</time>
      </trkpt>
      <trkpt lat="36.8622055053711" lon="-5.17116785049438">
        <ele>570</ele>
        <time>2019-05-11T20:39:32Z</time>
      </trkpt>
      <trkpt lat="36.8622055053711" lon="-5.17117023468018">
        <ele>570</ele>
        <time>2019-05-11T20:39:46Z</time>
      </trkpt>
      <trkpt lat="36.8622055053711" lon="-5.17117023468018">
        <ele>570</ele>
        <time>2019-05-11T20:39:48Z</time>
      </trkpt>
      <trkpt lat="36.8622055053711" lon="-5.17116785049438">
        <ele>570</ele>
        <time>2019-05-11T20:39:50Z</time>
      </trkpt>
      <trkpt lat="36.8622055053711" lon="-5.17116498947144">
        <ele>570</ele>
        <time>2019-05-11T20:39:55Z</time>
      </trkpt>
      <trkpt lat="36.8622093200684" lon="-5.1711630821228">
        <ele>570</ele>
        <time>2019-05-11T20:39:57Z</time>
      </trkpt>
      <trkpt lat="36.8622131347656" lon="-5.17116022109985">
        <ele>570</ele>
        <time>2019-05-11T20:40:01Z</time>
      </trkpt>
      <trkpt lat="36.8622169494629" lon="-5.17116022109985">
        <ele>570</ele>
        <time>2019-05-11T20:40:03Z</time>
      </trkpt>
      <trkpt lat="36.8622207641602" lon="-5.17115783691406">
        <ele>570</ele>
        <time>2019-05-11T20:40:05Z</time>
      </trkpt>
      <trkpt lat="36.8622245788574" lon="-5.17115783691406">
        <ele>570</ele>
        <time>2019-05-11T20:40:07Z</time>
      </trkpt>
      <trkpt lat="36.8622207641602" lon="-5.17115783691406">
        <ele>570</ele>
        <time>2019-05-11T20:40:09Z</time>
      </trkpt>
      <trkpt lat="36.8622169494629" lon="-5.17115688323975">
        <ele>570</ele>
        <time>2019-05-11T20:40:11Z</time>
      </trkpt>
      <trkpt lat="36.8622169494629" lon="-5.17115783691406">
        <ele>570</ele>
        <time>2019-05-11T20:40:13Z</time>
      </trkpt>
      <trkpt lat="36.8622207641602" lon="-5.17115783691406">
        <ele>570</ele>
        <time>2019-05-11T20:40:15Z</time>
      </trkpt>
      <trkpt lat="36.8622245788574" lon="-5.17115783691406">
        <ele>570</ele>
        <time>2019-05-11T20:40:17Z</time>
      </trkpt>
      <trkpt lat="36.8622283935547" lon="-5.17115783691406">
        <ele>570</ele>
        <time>2019-05-11T20:40:19Z</time>
      </trkpt>
      <trkpt lat="36.8622283935547" lon="-5.17115783691406">
        <ele>570</ele>
        <time>2019-05-11T20:40:21Z</time>
      </trkpt>
      <trkpt lat="36.8622283935547" lon="-5.17115783691406">
        <ele>570</ele>
        <time>2019-05-11T20:40:23Z</time>
      </trkpt>
      <trkpt lat="36.8622283935547" lon="-5.17115783691406">
        <ele>570</ele>
        <time>2019-05-11T20:40:25Z</time>
      </trkpt>
      <trkpt lat="36.8622283935547" lon="-5.17116022109985">
        <ele>570</ele>
        <time>2019-05-11T20:40:27Z</time>
      </trkpt>
      <trkpt lat="36.862232208252" lon="-5.1711630821228">
        <ele>570</ele>
        <time>2019-05-11T20:40:29Z</time>
      </trkpt>
      <trkpt lat="36.8622360229492" lon="-5.17117214202881">
        <ele>570</ele>
        <time>2019-05-11T20:40:33Z</time>
      </trkpt>
      <trkpt lat="36.8622398376465" lon="-5.17117214202881">
        <ele>570</ele>
        <time>2019-05-11T20:40:41Z</time>
      </trkpt>
      <trkpt lat="36.8622436523438" lon="-5.17117214202881">
        <ele>570</ele>
        <time>2019-05-11T20:40:43Z</time>
      </trkpt>
      <trkpt lat="36.8622512817383" lon="-5.17117214202881">
        <ele>570</ele>
        <time>2019-05-11T20:40:45Z</time>
      </trkpt>
      <trkpt lat="36.8622550964356" lon="-5.17117214202881">
        <ele>570</ele>
        <time>2019-05-11T20:40:47Z</time>
      </trkpt>
      <trkpt lat="36.8622627258301" lon="-5.17117214202881">
        <ele>570</ele>
        <time>2019-05-11T20:40:50Z</time>
      </trkpt>
      <trkpt lat="36.8622627258301" lon="-5.17117309570312">
        <ele>570</ele>
        <time>2019-05-11T20:40:52Z</time>
      </trkpt>
      <trkpt lat="36.8622665405273" lon="-5.17117214202881">
        <ele>570</ele>
        <time>2019-05-11T20:40:54Z</time>
      </trkpt>
      <trkpt lat="36.8622703552246" lon="-5.17117023468018">
        <ele>570</ele>
        <time>2019-05-11T20:40:56Z</time>
      </trkpt>
      <trkpt lat="36.8622665405273" lon="-5.17116689682007">
        <ele>570</ele>
        <time>2019-05-11T20:40:58Z</time>
      </trkpt>
      <trkpt lat="36.8622665405273" lon="-5.17116498947144">
        <ele>570</ele>
        <time>2019-05-11T20:41:00Z</time>
      </trkpt>
      <trkpt lat="36.8622665405273" lon="-5.17116498947144">
        <ele>570</ele>
        <time>2019-05-11T20:41:02Z</time>
      </trkpt>
      <trkpt lat="36.8622627258301" lon="-5.17116498947144">
        <ele>570</ele>
        <time>2019-05-11T20:41:04Z</time>
      </trkpt>
      <trkpt lat="36.8622665405273" lon="-5.17116689682007">
        <ele>570</ele>
        <time>2019-05-11T20:41:06Z</time>
      </trkpt>
      <trkpt lat="36.8622627258301" lon="-5.17116689682007">
        <ele>570</ele>
        <time>2019-05-11T20:41:08Z</time>
      </trkpt>
      <trkpt lat="36.8622589111328" lon="-5.17116689682007">
        <ele>570</ele>
        <time>2019-05-11T20:41:10Z</time>
      </trkpt>
      <trkpt lat="36.8622589111328" lon="-5.17117023468018">
        <ele>570</ele>
        <time>2019-05-11T20:41:12Z</time>
      </trkpt>
      <trkpt lat="36.8622398376465" lon="-5.17117023468018">
        <ele>570</ele>
        <time>2019-05-11T20:41:24Z</time>
      </trkpt>
      <trkpt lat="36.8622169494629" lon="-5.17117309570312">
        <ele>570</ele>
        <time>2019-05-11T20:41:30Z</time>
      </trkpt>
      <trkpt lat="36.8622093200684" lon="-5.17117023468018">
        <ele>570</ele>
        <time>2019-05-11T20:41:35Z</time>
      </trkpt>
      <trkpt lat="36.8622055053711" lon="-5.17117023468018">
        <ele>570</ele>
        <time>2019-05-11T20:41:37Z</time>
      </trkpt>
      <trkpt lat="36.8622016906738" lon="-5.17116785049438">
        <ele>570</ele>
        <time>2019-05-11T20:41:39Z</time>
      </trkpt>
      <trkpt lat="36.8622016906738" lon="-5.17116785049438">
        <ele>570</ele>
        <time>2019-05-11T20:41:41Z</time>
      </trkpt>
      <trkpt lat="36.8622016906738" lon="-5.17116785049438">
        <ele>570</ele>
        <time>2019-05-11T20:41:43Z</time>
      </trkpt>
      <trkpt lat="36.8622016906738" lon="-5.17116785049438">
        <ele>570</ele>
        <time>2019-05-11T20:41:45Z</time>
      </trkpt>
      <trkpt lat="36.8622093200684" lon="-5.17116498947144">
        <ele>570</ele>
        <time>2019-05-11T20:41:51Z</time>
      </trkpt>
      <trkpt lat="36.8622093200684" lon="-5.17116498947144">
        <ele>570</ele>
        <time>2019-05-11T20:42:05Z</time>
      </trkpt>
      <trkpt lat="36.8622016906738" lon="-5.1711630821228">
        <ele>570</ele>
        <time>2019-05-11T20:42:07Z</time>
      </trkpt>
      <trkpt lat="36.8622016906738" lon="-5.1711630821228">
        <ele>570</ele>
        <time>2019-05-11T20:42:11Z</time>
      </trkpt>
      <trkpt lat="36.8621978759766" lon="-5.1711630821228">
        <ele>570</ele>
        <time>2019-05-11T20:42:13Z</time>
      </trkpt>
      <trkpt lat="36.8621940612793" lon="-5.17116212844849">
        <ele>569</ele>
        <time>2019-05-11T20:42:17Z</time>
      </trkpt>
      <trkpt lat="36.8621635437012" lon="-5.17115306854248">
        <ele>567</ele>
        <time>2019-05-11T20:42:27Z</time>
      </trkpt>
      <trkpt lat="36.8621635437012" lon="-5.17115211486816">
        <ele>567</ele>
        <time>2019-05-11T20:42:29Z</time>
      </trkpt>
      <trkpt lat="36.8621597290039" lon="-5.17115211486816">
        <ele>567</ele>
        <time>2019-05-11T20:42:31Z</time>
      </trkpt>
      <trkpt lat="36.8621559143066" lon="-5.17115211486816">
        <ele>566</ele>
        <time>2019-05-11T20:42:34Z</time>
      </trkpt>
      <trkpt lat="36.8621520996094" lon="-5.17115211486816">
        <ele>566</ele>
        <time>2019-05-11T20:42:36Z</time>
      </trkpt>
      <trkpt lat="36.8621520996094" lon="-5.17115020751953">
        <ele>566</ele>
        <time>2019-05-11T20:42:38Z</time>
      </trkpt>
      <trkpt lat="36.8621482849121" lon="-5.17115020751953">
        <ele>566</ele>
        <time>2019-05-11T20:42:40Z</time>
      </trkpt>
      <trkpt lat="36.8621482849121" lon="-5.17115020751953">
        <ele>566</ele>
        <time>2019-05-11T20:42:42Z</time>
      </trkpt>
      <trkpt lat="36.8621482849121" lon="-5.17115020751953">
        <ele>566</ele>
        <time>2019-05-11T20:42:44Z</time>
      </trkpt>
      <trkpt lat="36.8621559143066" lon="-5.17114782333374">
        <ele>566</ele>
        <time>2019-05-11T20:42:46Z</time>
      </trkpt>
      <trkpt lat="36.8621559143066" lon="-5.17115020751953">
        <ele>566</ele>
        <time>2019-05-11T20:42:48Z</time>
      </trkpt>
      <trkpt lat="36.8621559143066" lon="-5.17115211486816">
        <ele>566</ele>
        <time>2019-05-11T20:42:50Z</time>
      </trkpt>
      <trkpt lat="36.8621559143066" lon="-5.17115211486816">
        <ele>566</ele>
        <time>2019-05-11T20:42:52Z</time>
      </trkpt>
      <trkpt lat="36.8621559143066" lon="-5.17115211486816">
        <ele>566</ele>
        <time>2019-05-11T20:42:54Z</time>
      </trkpt>
      <trkpt lat="36.8621559143066" lon="-5.17115211486816">
        <ele>566</ele>
        <time>2019-05-11T20:42:56Z</time>
      </trkpt>
      <trkpt lat="36.8621559143066" lon="-5.17115211486816">
        <ele>566</ele>
        <time>2019-05-11T20:42:58Z</time>
      </trkpt>
      <trkpt lat="36.8621559143066" lon="-5.17115211486816">
        <ele>566</ele>
        <time>2019-05-11T20:43:00Z</time>
      </trkpt>
      <trkpt lat="36.8621559143066" lon="-5.17115306854248">
        <ele>566</ele>
        <time>2019-05-11T20:43:02Z</time>
      </trkpt>
      <trkpt lat="36.8621559143066" lon="-5.17115211486816">
        <ele>566</ele>
        <time>2019-05-11T20:43:04Z</time>
      </trkpt>
      <trkpt lat="36.8621559143066" lon="-5.17115211486816">
        <ele>566</ele>
        <time>2019-05-11T20:43:06Z</time>
      </trkpt>
      <trkpt lat="36.8621673583984" lon="-5.17115020751953">
        <ele>566</ele>
        <time>2019-05-11T20:43:12Z</time>
      </trkpt>
      <trkpt lat="36.8621711730957" lon="-5.17115020751953">
        <ele>566</ele>
        <time>2019-05-11T20:43:14Z</time>
      </trkpt>
      <trkpt lat="36.8621788024902" lon="-5.17115688323975">
        <ele>566</ele>
        <time>2019-05-11T20:43:18Z</time>
      </trkpt>
      <trkpt lat="36.862190246582" lon="-5.17116022109985">
        <ele>566</ele>
        <time>2019-05-11T20:43:22Z</time>
      </trkpt>
      <trkpt lat="36.8621978759766" lon="-5.17116212844849">
        <ele>566</ele>
        <time>2019-05-11T20:43:24Z</time>
      </trkpt>
      <trkpt lat="36.8622398376465" lon="-5.17117500305176">
        <ele>566</ele>
        <time>2019-05-11T20:43:37Z</time>
      </trkpt>
      <trkpt lat="36.8622512817383" lon="-5.17117691040039">
        <ele>567</ele>
        <time>2019-05-11T20:43:39Z</time>
      </trkpt>
      <trkpt lat="36.8622627258301" lon="-5.17117786407471">
        <ele>568</ele>
        <time>2019-05-11T20:43:41Z</time>
      </trkpt>
      <trkpt lat="36.8622741699219" lon="-5.17118215560913">
        <ele>569</ele>
        <time>2019-05-11T20:43:43Z</time>
      </trkpt>
      <trkpt lat="36.8622817993164" lon="-5.17117786407471">
        <ele>570</ele>
        <time>2019-05-11T20:43:45Z</time>
      </trkpt>
      <trkpt lat="36.8622856140137" lon="-5.17118215560913">
        <ele>571</ele>
        <time>2019-05-11T20:43:47Z</time>
      </trkpt>
      <trkpt lat="36.8622932434082" lon="-5.17118310928345">
        <ele>572</ele>
        <time>2019-05-11T20:43:49Z</time>
      </trkpt>
      <trkpt lat="36.8622856140137" lon="-5.17118310928345">
        <ele>573</ele>
        <time>2019-05-11T20:43:57Z</time>
      </trkpt>
      <trkpt lat="36.8622779846191" lon="-5.17118787765503">
        <ele>573</ele>
        <time>2019-05-11T20:44:03Z</time>
      </trkpt>
      <trkpt lat="36.8622703552246" lon="-5.17118787765503">
        <ele>573</ele>
        <time>2019-05-11T20:44:05Z</time>
      </trkpt>
      <trkpt lat="36.8622703552246" lon="-5.17119216918945">
        <ele>573</ele>
        <time>2019-05-11T20:44:07Z</time>
      </trkpt>
      <trkpt lat="36.8622665405273" lon="-5.17118978500366">
        <ele>573</ele>
        <time>2019-05-11T20:44:09Z</time>
      </trkpt>
      <trkpt lat="36.8622665405273" lon="-5.17119216918945">
        <ele>573</ele>
        <time>2019-05-11T20:44:11Z</time>
      </trkpt>
      <trkpt lat="36.8622627258301" lon="-5.1711950302124">
        <ele>573</ele>
        <time>2019-05-11T20:44:13Z</time>
      </trkpt>
      <trkpt lat="36.8622550964356" lon="-5.1711950302124">
        <ele>573</ele>
        <time>2019-05-11T20:44:15Z</time>
      </trkpt>
      <trkpt lat="36.8622512817383" lon="-5.1711950302124">
        <ele>573</ele>
        <time>2019-05-11T20:44:17Z</time>
      </trkpt>
      <trkpt lat="36.8622512817383" lon="-5.17119312286377">
        <ele>573</ele>
        <time>2019-05-11T20:44:20Z</time>
      </trkpt>
      <trkpt lat="36.862247467041" lon="-5.17119312286377">
        <ele>573</ele>
        <time>2019-05-11T20:44:22Z</time>
      </trkpt>
      <trkpt lat="36.862247467041" lon="-5.1711950302124">
        <ele>573</ele>
        <time>2019-05-11T20:44:24Z</time>
      </trkpt>
      <trkpt lat="36.8622398376465" lon="-5.17119312286377">
        <ele>573</ele>
        <time>2019-05-11T20:44:26Z</time>
      </trkpt>
      <trkpt lat="36.8621978759766" lon="-5.17118215560913">
        <ele>571</ele>
        <time>2019-05-11T20:44:36Z</time>
      </trkpt>
      <trkpt lat="36.8621788024902" lon="-5.17117500305176">
        <ele>570</ele>
        <time>2019-05-11T20:44:42Z</time>
      </trkpt>
      <trkpt lat="36.8621635437012" lon="-5.17117309570312">
        <ele>568</ele>
        <time>2019-05-11T20:44:50Z</time>
      </trkpt>
      <trkpt lat="36.8621635437012" lon="-5.17117309570312">
        <ele>568</ele>
        <time>2019-05-11T20:44:52Z</time>
      </trkpt>
      <trkpt lat="36.8621788024902" lon="-5.17117977142334">
        <ele>568</ele>
        <time>2019-05-11T20:44:59Z</time>
      </trkpt>
      <trkpt lat="36.8621788024902" lon="-5.17117023468018">
        <ele>568</ele>
        <time>2019-05-11T20:45:13Z</time>
      </trkpt>
      <trkpt lat="36.862174987793" lon="-5.17116785049438">
        <ele>568</ele>
        <time>2019-05-11T20:45:15Z</time>
      </trkpt>
      <trkpt lat="36.8621673583984" lon="-5.17117309570312">
        <ele>568</ele>
        <time>2019-05-11T20:45:19Z</time>
      </trkpt>
      <trkpt lat="36.8621673583984" lon="-5.17117309570312">
        <ele>568</ele>
        <time>2019-05-11T20:45:25Z</time>
      </trkpt>
      <trkpt lat="36.8621635437012" lon="-5.17117691040039">
        <ele>568</ele>
        <time>2019-05-11T20:45:27Z</time>
      </trkpt>
      <trkpt lat="36.8621597290039" lon="-5.17117691040039">
        <ele>568</ele>
        <time>2019-05-11T20:45:29Z</time>
      </trkpt>
      <trkpt lat="36.8621520996094" lon="-5.17117500305176">
        <ele>568</ele>
        <time>2019-05-11T20:45:31Z</time>
      </trkpt>
      <trkpt lat="36.8621559143066" lon="-5.17117691040039">
        <ele>568</ele>
        <time>2019-05-11T20:45:33Z</time>
      </trkpt>
      <trkpt lat="36.8621635437012" lon="-5.17117977142334">
        <ele>568</ele>
        <time>2019-05-11T20:45:35Z</time>
      </trkpt>
      <trkpt lat="36.8621673583984" lon="-5.17118215560913">
        <ele>568</ele>
        <time>2019-05-11T20:45:37Z</time>
      </trkpt>
      <trkpt lat="36.8621711730957" lon="-5.17118215560913">
        <ele>568</ele>
        <time>2019-05-11T20:45:39Z</time>
      </trkpt>
      <trkpt lat="36.8621788024902" lon="-5.17118692398071">
        <ele>568</ele>
        <time>2019-05-11T20:45:41Z</time>
      </trkpt>
      <trkpt lat="36.8621826171875" lon="-5.17118787765503">
        <ele>568</ele>
        <time>2019-05-11T20:45:43Z</time>
      </trkpt>
      <trkpt lat="36.8621864318848" lon="-5.17118692398071">
        <ele>568</ele>
        <time>2019-05-11T20:45:45Z</time>
      </trkpt>
      <trkpt lat="36.8621864318848" lon="-5.17118692398071">
        <ele>568</ele>
        <time>2019-05-11T20:45:48Z</time>
      </trkpt>
      <trkpt lat="36.8621864318848" lon="-5.17118787765503">
        <ele>568</ele>
        <time>2019-05-11T20:45:50Z</time>
      </trkpt>
      <trkpt lat="36.8621864318848" lon="-5.17118692398071">
        <ele>568</ele>
        <time>2019-05-11T20:45:52Z</time>
      </trkpt>
      <trkpt lat="36.8621864318848" lon="-5.17118692398071">
        <ele>568</ele>
        <time>2019-05-11T20:45:54Z</time>
      </trkpt>
      <trkpt lat="36.8621978759766" lon="-5.17118501663208">
        <ele>568</ele>
        <time>2019-05-11T20:46:00Z</time>
      </trkpt>
      <trkpt lat="36.8622016906738" lon="-5.17118692398071">
        <ele>568</ele>
        <time>2019-05-11T20:46:04Z</time>
      </trkpt>
      <trkpt lat="36.8622055053711" lon="-5.17118787765503">
        <ele>568</ele>
        <time>2019-05-11T20:46:06Z</time>
      </trkpt>
      <trkpt lat="36.8622131347656" lon="-5.17119216918945">
        <ele>568</ele>
        <time>2019-05-11T20:46:08Z</time>
      </trkpt>
      <trkpt lat="36.8622169494629" lon="-5.1711950302124">
        <ele>568</ele>
        <time>2019-05-11T20:46:10Z</time>
      </trkpt>
      <trkpt lat="36.8622283935547" lon="-5.17119693756104">
        <ele>568</ele>
        <time>2019-05-11T20:46:12Z</time>
      </trkpt>
      <trkpt lat="36.8622245788574" lon="-5.17119693756104">
        <ele>568</ele>
        <time>2019-05-11T20:46:14Z</time>
      </trkpt>
      <trkpt lat="36.8622207641602" lon="-5.17119789123535">
        <ele>568</ele>
        <time>2019-05-11T20:46:16Z</time>
      </trkpt>
      <trkpt lat="36.8622207641602" lon="-5.17119979858398">
        <ele>568</ele>
        <time>2019-05-11T20:46:18Z</time>
      </trkpt>
      <trkpt lat="36.8622245788574" lon="-5.17120218276978">
        <ele>568</ele>
        <time>2019-05-11T20:46:20Z</time>
      </trkpt>
      <trkpt lat="36.8622283935547" lon="-5.17120313644409">
        <ele>568</ele>
        <time>2019-05-11T20:46:22Z</time>
      </trkpt>
      <trkpt lat="36.8622245788574" lon="-5.17120313644409">
        <ele>568</ele>
        <time>2019-05-11T20:46:24Z</time>
      </trkpt>
      <trkpt lat="36.8622169494629" lon="-5.17120313644409">
        <ele>568</ele>
        <time>2019-05-11T20:46:26Z</time>
      </trkpt>
      <trkpt lat="36.8622055053711" lon="-5.17120218276978">
        <ele>568</ele>
        <time>2019-05-11T20:46:28Z</time>
      </trkpt>
      <trkpt lat="36.8621978759766" lon="-5.17119979858398">
        <ele>568</ele>
        <time>2019-05-11T20:46:30Z</time>
      </trkpt>
      <trkpt lat="36.8621788024902" lon="-5.17119693756104">
        <ele>568</ele>
        <time>2019-05-11T20:46:32Z</time>
      </trkpt>
      <trkpt lat="36.8621635437012" lon="-5.17118978500366">
        <ele>567</ele>
        <time>2019-05-11T20:46:34Z</time>
      </trkpt>
      <trkpt lat="36.8621635437012" lon="-5.1711950302124">
        <ele>567</ele>
        <time>2019-05-11T20:46:36Z</time>
      </trkpt>
      <trkpt lat="36.8621635437012" lon="-5.1711950302124">
        <ele>567</ele>
        <time>2019-05-11T20:46:39Z</time>
      </trkpt>
      <trkpt lat="36.8621635437012" lon="-5.1711950302124">
        <ele>567</ele>
        <time>2019-05-11T20:46:41Z</time>
      </trkpt>
      <trkpt lat="36.8621597290039" lon="-5.17119312286377">
        <ele>567</ele>
        <time>2019-05-11T20:46:43Z</time>
      </trkpt>
      <trkpt lat="36.8621635437012" lon="-5.17119312286377">
        <ele>567</ele>
        <time>2019-05-11T20:46:45Z</time>
      </trkpt>
      <trkpt lat="36.8621635437012" lon="-5.17119216918945">
        <ele>567</ele>
        <time>2019-05-11T20:46:47Z</time>
      </trkpt>
      <trkpt lat="36.8621635437012" lon="-5.17118787765503">
        <ele>567</ele>
        <time>2019-05-11T20:46:49Z</time>
      </trkpt>
      <trkpt lat="36.8621635437012" lon="-5.17118692398071">
        <ele>567</ele>
        <time>2019-05-11T20:46:51Z</time>
      </trkpt>
      <trkpt lat="36.8621635437012" lon="-5.17118501663208">
        <ele>567</ele>
        <time>2019-05-11T20:46:53Z</time>
      </trkpt>
      <trkpt lat="36.8621635437012" lon="-5.17118501663208">
        <ele>567</ele>
        <time>2019-05-11T20:46:55Z</time>
      </trkpt>
      <trkpt lat="36.8621635437012" lon="-5.17118787765503">
        <ele>567</ele>
        <time>2019-05-11T20:46:57Z</time>
      </trkpt>
      <trkpt lat="36.8621597290039" lon="-5.17118692398071">
        <ele>567</ele>
        <time>2019-05-11T20:46:59Z</time>
      </trkpt>
      <trkpt lat="36.8621597290039" lon="-5.17118501663208">
        <ele>567</ele>
        <time>2019-05-11T20:47:01Z</time>
      </trkpt>
      <trkpt lat="36.8621597290039" lon="-5.17118787765503">
        <ele>567</ele>
        <time>2019-05-11T20:47:03Z</time>
      </trkpt>
      <trkpt lat="36.8621635437012" lon="-5.17118692398071">
        <ele>567</ele>
        <time>2019-05-11T20:47:05Z</time>
      </trkpt>
      <trkpt lat="36.8621635437012" lon="-5.17118215560913">
        <ele>567</ele>
        <time>2019-05-11T20:47:07Z</time>
      </trkpt>
      <trkpt lat="36.8621673583984" lon="-5.17118310928345">
        <ele>567</ele>
        <time>2019-05-11T20:47:09Z</time>
      </trkpt>
      <trkpt lat="36.8621635437012" lon="-5.17118215560913">
        <ele>567</ele>
        <time>2019-05-11T20:47:11Z</time>
      </trkpt>
      <trkpt lat="36.8621597290039" lon="-5.17117786407471">
        <ele>567</ele>
        <time>2019-05-11T20:47:15Z</time>
      </trkpt>
      <trkpt lat="36.8621520996094" lon="-5.17117691040039">
        <ele>566</ele>
        <time>2019-05-11T20:47:17Z</time>
      </trkpt>
      <trkpt lat="36.8621482849121" lon="-5.17117309570312">
        <ele>566</ele>
        <time>2019-05-11T20:47:19Z</time>
      </trkpt>
      <trkpt lat="36.8621406555176" lon="-5.17117214202881">
        <ele>565</ele>
        <time>2019-05-11T20:47:21Z</time>
      </trkpt>
      <trkpt lat="36.8621368408203" lon="-5.17117023468018">
        <ele>565</ele>
        <time>2019-05-11T20:47:23Z</time>
      </trkpt>
      <trkpt lat="36.8621292114258" lon="-5.17116785049438">
        <ele>564</ele>
        <time>2019-05-11T20:47:25Z</time>
      </trkpt>
      <trkpt lat="36.8621253967285" lon="-5.1711630821228">
        <ele>564</ele>
        <time>2019-05-11T20:47:27Z</time>
      </trkpt>
      <trkpt lat="36.8621215820312" lon="-5.1711630821228">
        <ele>564</ele>
        <time>2019-05-11T20:47:29Z</time>
      </trkpt>
      <trkpt lat="36.8621292114258" lon="-5.17116689682007">
        <ele>564</ele>
        <time>2019-05-11T20:47:32Z</time>
      </trkpt>
      <trkpt lat="36.8621406555176" lon="-5.17116689682007">
        <ele>564</ele>
        <time>2019-05-11T20:47:34Z</time>
      </trkpt>
      <trkpt lat="36.8621406555176" lon="-5.17116785049438">
        <ele>564</ele>
        <time>2019-05-11T20:47:36Z</time>
      </trkpt>
      <trkpt lat="36.8621444702148" lon="-5.17117023468018">
        <ele>564</ele>
        <time>2019-05-11T20:47:38Z</time>
      </trkpt>
      <trkpt lat="36.8621444702148" lon="-5.17117023468018">
        <ele>564</ele>
        <time>2019-05-11T20:47:40Z</time>
      </trkpt>
      <trkpt lat="36.8621444702148" lon="-5.17117023468018">
        <ele>564</ele>
        <time>2019-05-11T20:47:42Z</time>
      </trkpt>
      <trkpt lat="36.8621406555176" lon="-5.17116785049438">
        <ele>564</ele>
        <time>2019-05-11T20:47:44Z</time>
      </trkpt>
      <trkpt lat="36.8621406555176" lon="-5.17117023468018">
        <ele>564</ele>
        <time>2019-05-11T20:47:46Z</time>
      </trkpt>
      <trkpt lat="36.8621406555176" lon="-5.17116689682007">
        <ele>564</ele>
        <time>2019-05-11T20:47:48Z</time>
      </trkpt>
      <trkpt lat="36.8621406555176" lon="-5.17116689682007">
        <ele>564</ele>
        <time>2019-05-11T20:47:50Z</time>
      </trkpt>
      <trkpt lat="36.8621406555176" lon="-5.17116498947144">
        <ele>564</ele>
        <time>2019-05-11T20:47:52Z</time>
      </trkpt>
      <trkpt lat="36.8621444702148" lon="-5.1711630821228">
        <ele>564</ele>
        <time>2019-05-11T20:47:54Z</time>
      </trkpt>
      <trkpt lat="36.8621444702148" lon="-5.17116022109985">
        <ele>564</ele>
        <time>2019-05-11T20:47:56Z</time>
      </trkpt>
      <trkpt lat="36.8621444702148" lon="-5.17116022109985">
        <ele>564</ele>
        <time>2019-05-11T20:47:58Z</time>
      </trkpt>
      <trkpt lat="36.8621444702148" lon="-5.1711630821228">
        <ele>564</ele>
        <time>2019-05-11T20:48:00Z</time>
      </trkpt>
      <trkpt lat="36.8621406555176" lon="-5.17116212844849">
        <ele>564</ele>
        <time>2019-05-11T20:48:02Z</time>
      </trkpt>
      <trkpt lat="36.8621368408203" lon="-5.17116212844849">
        <ele>564</ele>
        <time>2019-05-11T20:48:04Z</time>
      </trkpt>
      <trkpt lat="36.8621368408203" lon="-5.17116212844849">
        <ele>564</ele>
        <time>2019-05-11T20:48:06Z</time>
      </trkpt>
      <trkpt lat="36.862133026123" lon="-5.17116212844849">
        <ele>564</ele>
        <time>2019-05-11T20:48:08Z</time>
      </trkpt>
      <trkpt lat="36.862133026123" lon="-5.17116212844849">
        <ele>564</ele>
        <time>2019-05-11T20:48:10Z</time>
      </trkpt>
      <trkpt lat="36.862133026123" lon="-5.17116498947144">
        <ele>564</ele>
        <time>2019-05-11T20:48:12Z</time>
      </trkpt>
      <trkpt lat="36.8621292114258" lon="-5.1711630821228">
        <ele>564</ele>
        <time>2019-05-11T20:48:14Z</time>
      </trkpt>
      <trkpt lat="36.862133026123" lon="-5.17116212844849">
        <ele>564</ele>
        <time>2019-05-11T20:48:16Z</time>
      </trkpt>
      <trkpt lat="36.8621368408203" lon="-5.17115497589111">
        <ele>564</ele>
        <time>2019-05-11T20:48:18Z</time>
      </trkpt>
      <trkpt lat="36.8621520996094" lon="-5.17114305496216">
        <ele>564</ele>
        <time>2019-05-11T20:48:20Z</time>
      </trkpt>
      <trkpt lat="36.8621635437012" lon="-5.1711368560791">
        <ele>563</ele>
        <time>2019-05-11T20:48:22Z</time>
      </trkpt>
      <trkpt lat="36.862174987793" lon="-5.17112302780151">
        <ele>563</ele>
        <time>2019-05-11T20:48:24Z</time>
      </trkpt>
      <trkpt lat="36.8621788024902" lon="-5.17111301422119">
        <ele>563</ele>
        <time>2019-05-11T20:48:26Z</time>
      </trkpt>
      <trkpt lat="36.8621864318848" lon="-5.17110300064087">
        <ele>563</ele>
        <time>2019-05-11T20:48:29Z</time>
      </trkpt>
      <trkpt lat="36.8621940612793" lon="-5.17109298706055">
        <ele>563</ele>
        <time>2019-05-11T20:48:31Z</time>
      </trkpt>
      <trkpt lat="36.8621978759766" lon="-5.17108297348022">
        <ele>563</ele>
        <time>2019-05-11T20:48:33Z</time>
      </trkpt>
      <trkpt lat="36.8621940612793" lon="-5.17107200622559">
        <ele>563</ele>
        <time>2019-05-11T20:48:35Z</time>
      </trkpt>
      <trkpt lat="36.8621940612793" lon="-5.17106294631958">
        <ele>562</ele>
        <time>2019-05-11T20:48:37Z</time>
      </trkpt>
      <trkpt lat="36.8622016906738" lon="-5.17105484008789">
        <ele>562</ele>
        <time>2019-05-11T20:48:39Z</time>
      </trkpt>
      <trkpt lat="36.8622055053711" lon="-5.17105197906494">
        <ele>562</ele>
        <time>2019-05-11T20:48:41Z</time>
      </trkpt>
      <trkpt lat="36.8622093200684" lon="-5.17104482650757">
        <ele>562</ele>
        <time>2019-05-11T20:48:43Z</time>
      </trkpt>
      <trkpt lat="36.8622093200684" lon="-5.17103815078735">
        <ele>562</ele>
        <time>2019-05-11T20:48:45Z</time>
      </trkpt>
      <trkpt lat="36.8622055053711" lon="-5.17102289199829">
        <ele>562</ele>
        <time>2019-05-11T20:48:47Z</time>
      </trkpt>
      <trkpt lat="36.8622131347656" lon="-5.1710147857666">
        <ele>562</ele>
        <time>2019-05-11T20:48:49Z</time>
      </trkpt>
      <trkpt lat="36.8622131347656" lon="-5.17099523544312">
        <ele>562</ele>
        <time>2019-05-11T20:48:51Z</time>
      </trkpt>
      <trkpt lat="36.8622169494629" lon="-5.17097806930542">
        <ele>562</ele>
        <time>2019-05-11T20:48:53Z</time>
      </trkpt>
      <trkpt lat="36.8622131347656" lon="-5.17095804214478">
        <ele>562</ele>
        <time>2019-05-11T20:48:55Z</time>
      </trkpt>
      <trkpt lat="36.8622093200684" lon="-5.17093801498413">
        <ele>562</ele>
        <time>2019-05-11T20:48:57Z</time>
      </trkpt>
      <trkpt lat="36.8621940612793" lon="-5.17093706130981">
        <ele>562</ele>
        <time>2019-05-11T20:48:59Z</time>
      </trkpt>
      <trkpt lat="36.8621864318848" lon="-5.17095184326172">
        <ele>562</ele>
        <time>2019-05-11T20:49:01Z</time>
      </trkpt>
      <trkpt lat="36.8621826171875" lon="-5.17096281051636">
        <ele>562</ele>
        <time>2019-05-11T20:49:03Z</time>
      </trkpt>
      <trkpt lat="36.8621673583984" lon="-5.170982837677">
        <ele>562</ele>
        <time>2019-05-11T20:49:06Z</time>
      </trkpt>
      <trkpt lat="36.8621559143066" lon="-5.17099523544312">
        <ele>562</ele>
        <time>2019-05-11T20:49:08Z</time>
      </trkpt>
      <trkpt lat="36.8621368408203" lon="-5.17099809646606">
        <ele>562</ele>
        <time>2019-05-11T20:49:10Z</time>
      </trkpt>
      <trkpt lat="36.862133026123" lon="-5.17100191116333">
        <ele>562</ele>
        <time>2019-05-11T20:49:12Z</time>
      </trkpt>
      <trkpt lat="36.8621253967285" lon="-5.17100477218628">
        <ele>562</ele>
        <time>2019-05-11T20:49:14Z</time>
      </trkpt>
      <trkpt lat="36.8621215820312" lon="-5.17101192474365">
        <ele>562</ele>
        <time>2019-05-11T20:49:16Z</time>
      </trkpt>
      <trkpt lat="36.8621063232422" lon="-5.17102193832397">
        <ele>562</ele>
        <time>2019-05-11T20:49:18Z</time>
      </trkpt>
      <trkpt lat="36.8620986938477" lon="-5.17102813720703">
        <ele>562</ele>
        <time>2019-05-11T20:49:20Z</time>
      </trkpt>
      <trkpt lat="36.8620834350586" lon="-5.17102003097534">
        <ele>562</ele>
        <time>2019-05-11T20:49:22Z</time>
      </trkpt>
      <trkpt lat="36.8620834350586" lon="-5.17101812362671">
        <ele>562</ele>
        <time>2019-05-11T20:49:24Z</time>
      </trkpt>
      <trkpt lat="36.8620796203613" lon="-5.1710147857666">
        <ele>562</ele>
        <time>2019-05-11T20:49:26Z</time>
      </trkpt>
      <trkpt lat="36.8620758056641" lon="-5.17102003097534">
        <ele>562</ele>
        <time>2019-05-11T20:49:28Z</time>
      </trkpt>
      <trkpt lat="36.8620758056641" lon="-5.17102813720703">
        <ele>562</ele>
        <time>2019-05-11T20:49:30Z</time>
      </trkpt>
      <trkpt lat="36.8620834350586" lon="-5.1710147857666">
        <ele>561</ele>
        <time>2019-05-11T20:49:32Z</time>
      </trkpt>
      <trkpt lat="36.8620719909668" lon="-5.17100811004639">
        <ele>561</ele>
        <time>2019-05-11T20:49:34Z</time>
      </trkpt>
      <trkpt lat="36.8620681762695" lon="-5.17100811004639">
        <ele>561</ele>
        <time>2019-05-11T20:49:36Z</time>
      </trkpt>
      <trkpt lat="36.8620681762695" lon="-5.17100286483765">
        <ele>561</ele>
        <time>2019-05-11T20:49:39Z</time>
      </trkpt>
      <trkpt lat="36.8620681762695" lon="-5.17099285125732">
        <ele>561</ele>
        <time>2019-05-11T20:49:41Z</time>
      </trkpt>
      <trkpt lat="36.8620681762695" lon="-5.17098522186279">
        <ele>561</ele>
        <time>2019-05-11T20:49:43Z</time>
      </trkpt>
      <trkpt lat="36.862060546875" lon="-5.17099809646606">
        <ele>561</ele>
        <time>2019-05-11T20:49:45Z</time>
      </trkpt>
      <trkpt lat="36.8620567321777" lon="-5.1710000038147">
        <ele>561</ele>
        <time>2019-05-11T20:49:47Z</time>
      </trkpt>
      <trkpt lat="36.862060546875" lon="-5.17100477218628">
        <ele>561</ele>
        <time>2019-05-11T20:49:49Z</time>
      </trkpt>
      <trkpt lat="36.8620643615723" lon="-5.17100715637207">
        <ele>561</ele>
        <time>2019-05-11T20:49:51Z</time>
      </trkpt>
      <trkpt lat="36.8620643615723" lon="-5.17101192474365">
        <ele>561</ele>
        <time>2019-05-11T20:49:53Z</time>
      </trkpt>
      <trkpt lat="36.862060546875" lon="-5.17101812362671">
        <ele>561</ele>
        <time>2019-05-11T20:49:55Z</time>
      </trkpt>
      <trkpt lat="36.862060546875" lon="-5.17102289199829">
        <ele>561</ele>
        <time>2019-05-11T20:49:57Z</time>
      </trkpt>
      <trkpt lat="36.862060546875" lon="-5.17103004455566">
        <ele>561</ele>
        <time>2019-05-11T20:49:59Z</time>
      </trkpt>
      <trkpt lat="36.8620681762695" lon="-5.17104005813599">
        <ele>561</ele>
        <time>2019-05-11T20:50:01Z</time>
      </trkpt>
      <trkpt lat="36.8620796203613" lon="-5.17103481292725">
        <ele>561</ele>
        <time>2019-05-11T20:50:03Z</time>
      </trkpt>
      <trkpt lat="36.8620796203613" lon="-5.17102718353272">
        <ele>562</ele>
        <time>2019-05-11T20:50:05Z</time>
      </trkpt>
      <trkpt lat="36.8620872497559" lon="-5.17102289199829">
        <ele>563</ele>
        <time>2019-05-11T20:50:07Z</time>
      </trkpt>
      <trkpt lat="36.8620986938477" lon="-5.17102718353272">
        <ele>564</ele>
        <time>2019-05-11T20:50:09Z</time>
      </trkpt>
      <trkpt lat="36.8621063232422" lon="-5.17103481292725">
        <ele>566</ele>
        <time>2019-05-11T20:50:11Z</time>
      </trkpt>
      <trkpt lat="36.8621025085449" lon="-5.17103815078735">
        <ele>567</ele>
        <time>2019-05-11T20:50:13Z</time>
      </trkpt>
      <trkpt lat="36.8621101379394" lon="-5.17103719711304">
        <ele>568</ele>
        <time>2019-05-11T20:50:16Z</time>
      </trkpt>
      <trkpt lat="36.862117767334" lon="-5.17104196548462">
        <ele>568</ele>
        <time>2019-05-11T20:50:18Z</time>
      </trkpt>
      <trkpt lat="36.862117767334" lon="-5.17104721069336">
        <ele>568</ele>
        <time>2019-05-11T20:50:20Z</time>
      </trkpt>
      <trkpt lat="36.8621139526367" lon="-5.171058177948">
        <ele>568</ele>
        <time>2019-05-11T20:50:22Z</time>
      </trkpt>
      <trkpt lat="36.8621063232422" lon="-5.17107009887695">
        <ele>568</ele>
        <time>2019-05-11T20:50:24Z</time>
      </trkpt>
      <trkpt lat="36.8621063232422" lon="-5.17106819152832">
        <ele>568</ele>
        <time>2019-05-11T20:50:26Z</time>
      </trkpt>
      <trkpt lat="36.8621139526367" lon="-5.17107820510864">
        <ele>568</ele>
        <time>2019-05-11T20:50:28Z</time>
      </trkpt>
      <trkpt lat="36.8621292114258" lon="-5.17109203338623">
        <ele>568</ele>
        <time>2019-05-11T20:50:30Z</time>
      </trkpt>
      <trkpt lat="36.8621444702148" lon="-5.17109298706055">
        <ele>568</ele>
        <time>2019-05-11T20:50:32Z</time>
      </trkpt>
      <trkpt lat="36.8621406555176" lon="-5.17109203338623">
        <ele>568</ele>
        <time>2019-05-11T20:50:34Z</time>
      </trkpt>
      <trkpt lat="36.8621292114258" lon="-5.17108297348022">
        <ele>568</ele>
        <time>2019-05-11T20:50:36Z</time>
      </trkpt>
      <trkpt lat="36.8621368408203" lon="-5.17108678817749">
        <ele>568</ele>
        <time>2019-05-11T20:50:38Z</time>
      </trkpt>
      <trkpt lat="36.862133026123" lon="-5.17108821868896">
        <ele>568</ele>
        <time>2019-05-11T20:50:40Z</time>
      </trkpt>
      <trkpt lat="36.8621292114258" lon="-5.17108297348022">
        <ele>568</ele>
        <time>2019-05-11T20:50:42Z</time>
      </trkpt>
      <trkpt lat="36.8621215820312" lon="-5.17108011245728">
        <ele>568</ele>
        <time>2019-05-11T20:50:44Z</time>
      </trkpt>
      <trkpt lat="36.8621101379394" lon="-5.17107486724854">
        <ele>568</ele>
        <time>2019-05-11T20:50:46Z</time>
      </trkpt>
      <trkpt lat="36.8621139526367" lon="-5.17108297348022">
        <ele>568</ele>
        <time>2019-05-11T20:50:48Z</time>
      </trkpt>
      <trkpt lat="36.8621292114258" lon="-5.1710901260376">
        <ele>568</ele>
        <time>2019-05-11T20:50:50Z</time>
      </trkpt>
      <trkpt lat="36.8621444702148" lon="-5.17108821868896">
        <ele>568</ele>
        <time>2019-05-11T20:50:52Z</time>
      </trkpt>
      <trkpt lat="36.8621635437012" lon="-5.17109298706055">
        <ele>568</ele>
        <time>2019-05-11T20:50:55Z</time>
      </trkpt>
      <trkpt lat="36.8621864318848" lon="-5.17109823226929">
        <ele>568</ele>
        <time>2019-05-11T20:50:57Z</time>
      </trkpt>
      <trkpt lat="36.8622016906738" lon="-5.17109823226929">
        <ele>568</ele>
        <time>2019-05-11T20:50:59Z</time>
      </trkpt>
      <trkpt lat="36.8622245788574" lon="-5.17110013961792">
        <ele>568</ele>
        <time>2019-05-11T20:51:01Z</time>
      </trkpt>
      <trkpt lat="36.8622436523438" lon="-5.17110300064087">
        <ele>568</ele>
        <time>2019-05-11T20:51:03Z</time>
      </trkpt>
      <trkpt lat="36.8622665405273" lon="-5.17110681533814">
        <ele>568</ele>
        <time>2019-05-11T20:51:05Z</time>
      </trkpt>
      <trkpt lat="36.8622856140137" lon="-5.17111301422119">
        <ele>569</ele>
        <time>2019-05-11T20:51:07Z</time>
      </trkpt>
      <trkpt lat="36.8622970581055" lon="-5.17111682891846">
        <ele>571</ele>
        <time>2019-05-11T20:51:09Z</time>
      </trkpt>
      <trkpt lat="36.8623085021973" lon="-5.17111206054688">
        <ele>573</ele>
        <time>2019-05-11T20:51:11Z</time>
      </trkpt>
      <trkpt lat="36.8623161315918" lon="-5.17111778259277">
        <ele>575</ele>
        <time>2019-05-11T20:51:13Z</time>
      </trkpt>
      <trkpt lat="36.8623085021973" lon="-5.17110204696655">
        <ele>576</ele>
        <time>2019-05-11T20:51:15Z</time>
      </trkpt>
      <trkpt lat="36.8623085021973" lon="-5.17109823226929">
        <ele>576</ele>
        <time>2019-05-11T20:51:17Z</time>
      </trkpt>
      <trkpt lat="36.8622970581055" lon="-5.17109823226929">
        <ele>576</ele>
        <time>2019-05-11T20:51:19Z</time>
      </trkpt>
      <trkpt lat="36.8622779846191" lon="-5.17109489440918">
        <ele>576</ele>
        <time>2019-05-11T20:51:21Z</time>
      </trkpt>
      <trkpt lat="36.8622627258301" lon="-5.17109203338623">
        <ele>576</ele>
        <time>2019-05-11T20:51:23Z</time>
      </trkpt>
      <trkpt lat="36.8622512817383" lon="-5.17109203338623">
        <ele>576</ele>
        <time>2019-05-11T20:51:25Z</time>
      </trkpt>
      <trkpt lat="36.8622550964356" lon="-5.17109203338623">
        <ele>576</ele>
        <time>2019-05-11T20:51:27Z</time>
      </trkpt>
      <trkpt lat="36.8622627258301" lon="-5.17109203338623">
        <ele>576</ele>
        <time>2019-05-11T20:51:29Z</time>
      </trkpt>
      <trkpt lat="36.8622550964356" lon="-5.17108678817749">
        <ele>576</ele>
        <time>2019-05-11T20:51:31Z</time>
      </trkpt>
      <trkpt lat="36.8622436523438" lon="-5.17107820510864">
        <ele>576</ele>
        <time>2019-05-11T20:51:33Z</time>
      </trkpt>
      <trkpt lat="36.8622245788574" lon="-5.17107486724854">
        <ele>576</ele>
        <time>2019-05-11T20:51:36Z</time>
      </trkpt>
      <trkpt lat="36.8622131347656" lon="-5.17106485366821">
        <ele>576</ele>
        <time>2019-05-11T20:51:38Z</time>
      </trkpt>
      <trkpt lat="36.8622055053711" lon="-5.17106008529663">
        <ele>576</ele>
        <time>2019-05-11T20:51:40Z</time>
      </trkpt>
      <trkpt lat="36.8622016906738" lon="-5.17105722427368">
        <ele>576</ele>
        <time>2019-05-11T20:51:42Z</time>
      </trkpt>
      <trkpt lat="36.8621978759766" lon="-5.17105484008789">
        <ele>576</ele>
        <time>2019-05-11T20:51:44Z</time>
      </trkpt>
      <trkpt lat="36.8621864318848" lon="-5.17105722427368">
        <ele>576</ele>
        <time>2019-05-11T20:51:46Z</time>
      </trkpt>
      <trkpt lat="36.862174987793" lon="-5.17104196548462">
        <ele>576</ele>
        <time>2019-05-11T20:51:48Z</time>
      </trkpt>
      <trkpt lat="36.8621673583984" lon="-5.17103719711304">
        <ele>576</ele>
        <time>2019-05-11T20:51:50Z</time>
      </trkpt>
      <trkpt lat="36.8621597290039" lon="-5.17103719711304">
        <ele>576</ele>
        <time>2019-05-11T20:51:52Z</time>
      </trkpt>
      <trkpt lat="36.8621520996094" lon="-5.17103719711304">
        <ele>576</ele>
        <time>2019-05-11T20:51:54Z</time>
      </trkpt>
      <trkpt lat="36.8621520996094" lon="-5.17103719711304">
        <ele>576</ele>
        <time>2019-05-11T20:51:56Z</time>
      </trkpt>
      <trkpt lat="36.8621520996094" lon="-5.17104482650757">
        <ele>576</ele>
        <time>2019-05-11T20:51:58Z</time>
      </trkpt>
      <trkpt lat="36.8621559143066" lon="-5.17104816436768">
        <ele>576</ele>
        <time>2019-05-11T20:52:00Z</time>
      </trkpt>
      <trkpt lat="36.8621520996094" lon="-5.17103815078735">
        <ele>576</ele>
        <time>2019-05-11T20:52:02Z</time>
      </trkpt>
      <trkpt lat="36.8621444702148" lon="-5.17102718353272">
        <ele>576</ele>
        <time>2019-05-11T20:52:04Z</time>
      </trkpt>
      <trkpt lat="36.862133026123" lon="-5.17102718353272">
        <ele>576</ele>
        <time>2019-05-11T20:52:06Z</time>
      </trkpt>
      <trkpt lat="36.8621253967285" lon="-5.17103481292725">
        <ele>576</ele>
        <time>2019-05-11T20:52:08Z</time>
      </trkpt>
      <trkpt lat="36.8621215820312" lon="-5.17104721069336">
        <ele>577</ele>
        <time>2019-05-11T20:52:10Z</time>
      </trkpt>
      <trkpt lat="36.862133026123" lon="-5.171058177948">
        <ele>578</ele>
        <time>2019-05-11T20:52:13Z</time>
      </trkpt>
      <trkpt lat="36.8621482849121" lon="-5.171067237854">
        <ele>579</ele>
        <time>2019-05-11T20:52:15Z</time>
      </trkpt>
      <trkpt lat="36.8621635437012" lon="-5.17107486724854">
        <ele>580</ele>
        <time>2019-05-11T20:52:17Z</time>
      </trkpt>
      <trkpt lat="36.8621673583984" lon="-5.17108011245728">
        <ele>580</ele>
        <time>2019-05-11T20:52:19Z</time>
      </trkpt>
      <trkpt lat="36.8621711730957" lon="-5.17108297348022">
        <ele>580</ele>
        <time>2019-05-11T20:52:21Z</time>
      </trkpt>
      <trkpt lat="36.8621673583984" lon="-5.17107677459717">
        <ele>580</ele>
        <time>2019-05-11T20:52:23Z</time>
      </trkpt>
      <trkpt lat="36.8621482849121" lon="-5.17105484008789">
        <ele>580</ele>
        <time>2019-05-11T20:52:27Z</time>
      </trkpt>
      <trkpt lat="36.8621292114258" lon="-5.17106008529663">
        <ele>580</ele>
        <time>2019-05-11T20:52:29Z</time>
      </trkpt>
      <trkpt lat="36.8621253967285" lon="-5.17106485366821">
        <ele>580</ele>
        <time>2019-05-11T20:52:31Z</time>
      </trkpt>
      <trkpt lat="36.8621292114258" lon="-5.17107200622559">
        <ele>579</ele>
        <time>2019-05-11T20:52:33Z</time>
      </trkpt>
      <trkpt lat="36.8621368408203" lon="-5.17107677459717">
        <ele>579</ele>
        <time>2019-05-11T20:52:35Z</time>
      </trkpt>
      <trkpt lat="36.8621368408203" lon="-5.17108201980591">
        <ele>579</ele>
        <time>2019-05-11T20:52:37Z</time>
      </trkpt>
      <trkpt lat="36.8621406555176" lon="-5.17108678817749">
        <ele>579</ele>
        <time>2019-05-11T20:52:39Z</time>
      </trkpt>
      <trkpt lat="36.862133026123" lon="-5.17108488082886">
        <ele>579</ele>
        <time>2019-05-11T20:52:41Z</time>
      </trkpt>
      <trkpt lat="36.8621253967285" lon="-5.17108678817749">
        <ele>579</ele>
        <time>2019-05-11T20:52:43Z</time>
      </trkpt>
      <trkpt lat="36.8621253967285" lon="-5.1710901260376">
        <ele>579</ele>
        <time>2019-05-11T20:52:45Z</time>
      </trkpt>
      <trkpt lat="36.8621215820312" lon="-5.17109298706055">
        <ele>578</ele>
        <time>2019-05-11T20:52:47Z</time>
      </trkpt>
      <trkpt lat="36.8621215820312" lon="-5.17109203338623">
        <ele>577</ele>
        <time>2019-05-11T20:52:49Z</time>
      </trkpt>
      <trkpt lat="36.8621063232422" lon="-5.17108821868896">
        <ele>574</ele>
        <time>2019-05-11T20:52:53Z</time>
      </trkpt>
      <trkpt lat="36.8620948791504" lon="-5.17108297348022">
        <ele>573</ele>
        <time>2019-05-11T20:52:55Z</time>
      </trkpt>
      <trkpt lat="36.8620834350586" lon="-5.17108488082886">
        <ele>571</ele>
        <time>2019-05-11T20:52:57Z</time>
      </trkpt>
      <trkpt lat="36.8620834350586" lon="-5.17109489440918">
        <ele>570</ele>
        <time>2019-05-11T20:53:00Z</time>
      </trkpt>
      <trkpt lat="36.8620910644531" lon="-5.17110300064087">
        <ele>570</ele>
        <time>2019-05-11T20:53:02Z</time>
      </trkpt>
      <trkpt lat="36.8620948791504" lon="-5.17110013961792">
        <ele>570</ele>
        <time>2019-05-11T20:53:04Z</time>
      </trkpt>
      <trkpt lat="36.8620910644531" lon="-5.17109298706055">
        <ele>570</ele>
        <time>2019-05-11T20:53:06Z</time>
      </trkpt>
      <trkpt lat="36.8620834350586" lon="-5.17108297348022">
        <ele>570</ele>
        <time>2019-05-11T20:53:08Z</time>
      </trkpt>
      <trkpt lat="36.8620834350586" lon="-5.17107486724854">
        <ele>570</ele>
        <time>2019-05-11T20:53:10Z</time>
      </trkpt>
      <trkpt lat="36.8620796203613" lon="-5.17106819152832">
        <ele>570</ele>
        <time>2019-05-11T20:53:12Z</time>
      </trkpt>
      <trkpt lat="36.8620719909668" lon="-5.17106819152832">
        <ele>569</ele>
        <time>2019-05-11T20:53:14Z</time>
      </trkpt>
      <trkpt lat="36.8620681762695" lon="-5.17107200622559">
        <ele>569</ele>
        <time>2019-05-11T20:53:16Z</time>
      </trkpt>
      <trkpt lat="36.8620643615723" lon="-5.17107200622559">
        <ele>569</ele>
        <time>2019-05-11T20:53:18Z</time>
      </trkpt>
      <trkpt lat="36.8620643615723" lon="-5.17107677459717">
        <ele>569</ele>
        <time>2019-05-11T20:53:20Z</time>
      </trkpt>
      <trkpt lat="36.8620567321777" lon="-5.17108297348022">
        <ele>569</ele>
        <time>2019-05-11T20:53:22Z</time>
      </trkpt>
      <trkpt lat="36.8620452880859" lon="-5.17108488082886">
        <ele>568</ele>
        <time>2019-05-11T20:53:24Z</time>
      </trkpt>
      <trkpt lat="36.8620338439941" lon="-5.17108297348022">
        <ele>568</ele>
        <time>2019-05-11T20:53:26Z</time>
      </trkpt>
      <trkpt lat="36.8620376586914" lon="-5.17107820510864">
        <ele>567</ele>
        <time>2019-05-11T20:53:28Z</time>
      </trkpt>
      <trkpt lat="36.8620414733887" lon="-5.17107200622559">
        <ele>566</ele>
        <time>2019-05-11T20:53:30Z</time>
      </trkpt>
      <trkpt lat="36.8620338439941" lon="-5.17108011245728">
        <ele>566</ele>
        <time>2019-05-11T20:53:32Z</time>
      </trkpt>
      <trkpt lat="36.8620262145996" lon="-5.17109203338623">
        <ele>566</ele>
        <time>2019-05-11T20:53:35Z</time>
      </trkpt>
      <trkpt lat="36.8620338439941" lon="-5.17109298706055">
        <ele>566</ele>
        <time>2019-05-11T20:53:37Z</time>
      </trkpt>
      <trkpt lat="36.8620414733887" lon="-5.1710901260376">
        <ele>566</ele>
        <time>2019-05-11T20:53:39Z</time>
      </trkpt>
      <trkpt lat="36.8620452880859" lon="-5.17108821868896">
        <ele>566</ele>
        <time>2019-05-11T20:53:41Z</time>
      </trkpt>
      <trkpt lat="36.8620529174805" lon="-5.17108821868896">
        <ele>566</ele>
        <time>2019-05-11T20:53:43Z</time>
      </trkpt>
      <trkpt lat="36.862060546875" lon="-5.17108821868896">
        <ele>566</ele>
        <time>2019-05-11T20:53:45Z</time>
      </trkpt>
      <trkpt lat="36.8620643615723" lon="-5.17109298706055">
        <ele>566</ele>
        <time>2019-05-11T20:53:47Z</time>
      </trkpt>
      <trkpt lat="36.8620681762695" lon="-5.17109489440918">
        <ele>566</ele>
        <time>2019-05-11T20:53:49Z</time>
      </trkpt>
      <trkpt lat="36.8620834350586" lon="-5.17109203338623">
        <ele>568</ele>
        <time>2019-05-11T20:53:51Z</time>
      </trkpt>
      <trkpt lat="36.8620986938477" lon="-5.17108297348022">
        <ele>569</ele>
        <time>2019-05-11T20:53:53Z</time>
      </trkpt>
      <trkpt lat="36.8621215820312" lon="-5.17107009887695">
        <ele>571</ele>
        <time>2019-05-11T20:53:55Z</time>
      </trkpt>
      <trkpt lat="36.8621406555176" lon="-5.17106294631958">
        <ele>573</ele>
        <time>2019-05-11T20:53:57Z</time>
      </trkpt>
      <trkpt lat="36.8621520996094" lon="-5.17105722427368">
        <ele>574</ele>
        <time>2019-05-11T20:53:59Z</time>
      </trkpt>
      <trkpt lat="36.8621597290039" lon="-5.17105293273926">
        <ele>576</ele>
        <time>2019-05-11T20:54:01Z</time>
      </trkpt>
      <trkpt lat="36.8621559143066" lon="-5.17106008529663">
        <ele>577</ele>
        <time>2019-05-11T20:54:03Z</time>
      </trkpt>
      <trkpt lat="36.8621559143066" lon="-5.171058177948">
        <ele>578</ele>
        <time>2019-05-11T20:54:05Z</time>
      </trkpt>
      <trkpt lat="36.8621635437012" lon="-5.17105197906494">
        <ele>579</ele>
        <time>2019-05-11T20:54:07Z</time>
      </trkpt>
      <trkpt lat="36.8621788024902" lon="-5.17105007171631">
        <ele>580</ele>
        <time>2019-05-11T20:54:09Z</time>
      </trkpt>
      <trkpt lat="36.8621788024902" lon="-5.17106199264526">
        <ele>581</ele>
        <time>2019-05-11T20:54:14Z</time>
      </trkpt>
      <trkpt lat="36.8621635437012" lon="-5.17106485366821">
        <ele>581</ele>
        <time>2019-05-11T20:54:16Z</time>
      </trkpt>
      <trkpt lat="36.8621559143066" lon="-5.171067237854">
        <ele>581</ele>
        <time>2019-05-11T20:54:18Z</time>
      </trkpt>
      <trkpt lat="36.8621444702148" lon="-5.17107009887695">
        <ele>581</ele>
        <time>2019-05-11T20:54:20Z</time>
      </trkpt>
      <trkpt lat="36.8621406555176" lon="-5.17107486724854">
        <ele>581</ele>
        <time>2019-05-11T20:54:22Z</time>
      </trkpt>
      <trkpt lat="36.8621368408203" lon="-5.1710729598999">
        <ele>581</ele>
        <time>2019-05-11T20:54:24Z</time>
      </trkpt>
      <trkpt lat="36.8621253967285" lon="-5.17107820510864">
        <ele>580</ele>
        <time>2019-05-11T20:54:28Z</time>
      </trkpt>
      <trkpt lat="36.8621215820312" lon="-5.17108201980591">
        <ele>580</ele>
        <time>2019-05-11T20:54:30Z</time>
      </trkpt>
      <trkpt lat="36.8621253967285" lon="-5.17108011245728">
        <ele>580</ele>
        <time>2019-05-11T20:54:32Z</time>
      </trkpt>
      <trkpt lat="36.8621215820312" lon="-5.17108297348022">
        <ele>580</ele>
        <time>2019-05-11T20:54:36Z</time>
      </trkpt>
      <trkpt lat="36.8621139526367" lon="-5.17108821868896">
        <ele>580</ele>
        <time>2019-05-11T20:54:38Z</time>
      </trkpt>
      <trkpt lat="36.8621139526367" lon="-5.17109489440918">
        <ele>580</ele>
        <time>2019-05-11T20:54:40Z</time>
      </trkpt>
      <trkpt lat="36.862117767334" lon="-5.17109680175781">
        <ele>580</ele>
        <time>2019-05-11T20:54:42Z</time>
      </trkpt>
      <trkpt lat="36.8621215820312" lon="-5.1710901260376">
        <ele>580</ele>
        <time>2019-05-11T20:54:46Z</time>
      </trkpt>
      <trkpt lat="36.8621063232422" lon="-5.17109680175781">
        <ele>578</ele>
        <time>2019-05-11T20:54:50Z</time>
      </trkpt>
      <trkpt lat="36.8621063232422" lon="-5.17109489440918">
        <ele>577</ele>
        <time>2019-05-11T20:54:53Z</time>
      </trkpt>
      <trkpt lat="36.8621063232422" lon="-5.17109823226929">
        <ele>577</ele>
        <time>2019-05-11T20:54:55Z</time>
      </trkpt>
      <trkpt lat="36.8620986938477" lon="-5.17110300064087">
        <ele>577</ele>
        <time>2019-05-11T20:54:57Z</time>
      </trkpt>
      <trkpt lat="36.8620986938477" lon="-5.17110013961792">
        <ele>576</ele>
        <time>2019-05-11T20:54:59Z</time>
      </trkpt>
      <trkpt lat="36.8620986938477" lon="-5.17109680175781">
        <ele>576</ele>
        <time>2019-05-11T20:55:01Z</time>
      </trkpt>
      <trkpt lat="36.8620948791504" lon="-5.17109680175781">
        <ele>576</ele>
        <time>2019-05-11T20:55:03Z</time>
      </trkpt>
      <trkpt lat="36.8620872497559" lon="-5.17109489440918">
        <ele>576</ele>
        <time>2019-05-11T20:55:05Z</time>
      </trkpt>
      <trkpt lat="36.8620834350586" lon="-5.17109298706055">
        <ele>575</ele>
        <time>2019-05-11T20:55:07Z</time>
      </trkpt>
      <trkpt lat="36.8620758056641" lon="-5.1710901260376">
        <ele>575</ele>
        <time>2019-05-11T20:55:09Z</time>
      </trkpt>
      <trkpt lat="36.8620643615723" lon="-5.17109680175781">
        <ele>574</ele>
        <time>2019-05-11T20:55:11Z</time>
      </trkpt>
      <trkpt lat="36.8620681762695" lon="-5.17109823226929">
        <ele>574</ele>
        <time>2019-05-11T20:55:15Z</time>
      </trkpt>
      <trkpt lat="36.8620681762695" lon="-5.17109680175781">
        <ele>574</ele>
        <time>2019-05-11T20:55:17Z</time>
      </trkpt>
      <trkpt lat="36.8620567321777" lon="-5.17109680175781">
        <ele>573</ele>
        <time>2019-05-11T20:55:19Z</time>
      </trkpt>
      <trkpt lat="36.8620452880859" lon="-5.17110013961792">
        <ele>573</ele>
        <time>2019-05-11T20:55:21Z</time>
      </trkpt>
      <trkpt lat="36.8620414733887" lon="-5.17110013961792">
        <ele>572</ele>
        <time>2019-05-11T20:55:23Z</time>
      </trkpt>
      <trkpt lat="36.8620338439941" lon="-5.17110681533814">
        <ele>571</ele>
        <time>2019-05-11T20:55:25Z</time>
      </trkpt>
      <trkpt lat="36.8620262145996" lon="-5.1711049079895">
        <ele>570</ele>
        <time>2019-05-11T20:55:27Z</time>
      </trkpt>
      <trkpt lat="36.8620262145996" lon="-5.17110204696655">
        <ele>568</ele>
        <time>2019-05-11T20:55:29Z</time>
      </trkpt>
      <trkpt lat="36.8620223999023" lon="-5.1711049079895">
        <ele>567</ele>
        <time>2019-05-11T20:55:32Z</time>
      </trkpt>
      <trkpt lat="36.8620147705078" lon="-5.17109680175781">
        <ele>566</ele>
        <time>2019-05-11T20:55:34Z</time>
      </trkpt>
      <trkpt lat="36.862003326416" lon="-5.17109203338623">
        <ele>565</ele>
        <time>2019-05-11T20:55:36Z</time>
      </trkpt>
      <trkpt lat="36.862003326416" lon="-5.17109489440918">
        <ele>564</ele>
        <time>2019-05-11T20:55:38Z</time>
      </trkpt>
      <trkpt lat="36.8620147705078" lon="-5.17109489440918">
        <ele>563</ele>
        <time>2019-05-11T20:55:40Z</time>
      </trkpt>
      <trkpt lat="36.8620185852051" lon="-5.17110013961792">
        <ele>563</ele>
        <time>2019-05-11T20:55:42Z</time>
      </trkpt>
      <trkpt lat="36.8620262145996" lon="-5.17110300064087">
        <ele>563</ele>
        <time>2019-05-11T20:55:44Z</time>
      </trkpt>
      <trkpt lat="36.8620338439941" lon="-5.17110204696655">
        <ele>563</ele>
        <time>2019-05-11T20:55:46Z</time>
      </trkpt>
      <trkpt lat="36.8620414733887" lon="-5.17110300064087">
        <ele>563</ele>
        <time>2019-05-11T20:55:48Z</time>
      </trkpt>
      <trkpt lat="36.8620262145996" lon="-5.17110013961792">
        <ele>563</ele>
        <time>2019-05-11T20:55:52Z</time>
      </trkpt>
      <trkpt lat="36.8620223999023" lon="-5.17109823226929">
        <ele>563</ele>
        <time>2019-05-11T20:55:54Z</time>
      </trkpt>
      <trkpt lat="36.8620185852051" lon="-5.17110013961792">
        <ele>563</ele>
        <time>2019-05-11T20:55:56Z</time>
      </trkpt>
      <trkpt lat="36.8620185852051" lon="-5.17110300064087">
        <ele>563</ele>
        <time>2019-05-11T20:55:58Z</time>
      </trkpt>
      <trkpt lat="36.8620147705078" lon="-5.1711049079895">
        <ele>563</ele>
        <time>2019-05-11T20:56:00Z</time>
      </trkpt>
      <trkpt lat="36.8620071411133" lon="-5.1711049079895">
        <ele>563</ele>
        <time>2019-05-11T20:56:02Z</time>
      </trkpt>
      <trkpt lat="36.862003326416" lon="-5.17110300064087">
        <ele>563</ele>
        <time>2019-05-11T20:56:04Z</time>
      </trkpt>
      <trkpt lat="36.8620109558106" lon="-5.1711049079895">
        <ele>563</ele>
        <time>2019-05-11T20:56:06Z</time>
      </trkpt>
      <trkpt lat="36.8620147705078" lon="-5.17110681533814">
        <ele>563</ele>
        <time>2019-05-11T20:56:08Z</time>
      </trkpt>
      <trkpt lat="36.8620185852051" lon="-5.17110681533814">
        <ele>563</ele>
        <time>2019-05-11T20:56:10Z</time>
      </trkpt>
      <trkpt lat="36.8620223999023" lon="-5.17110776901245">
        <ele>563</ele>
        <time>2019-05-11T20:56:13Z</time>
      </trkpt>
      <trkpt lat="36.8620300292969" lon="-5.17111778259277">
        <ele>563</ele>
        <time>2019-05-11T20:56:15Z</time>
      </trkpt>
      <trkpt lat="36.8620262145996" lon="-5.17112016677856">
        <ele>563</ele>
        <time>2019-05-11T20:56:17Z</time>
      </trkpt>
      <trkpt lat="36.8620147705078" lon="-5.1711220741272">
        <ele>563</ele>
        <time>2019-05-11T20:56:19Z</time>
      </trkpt>
      <trkpt lat="36.8620071411133" lon="-5.17112016677856">
        <ele>563</ele>
        <time>2019-05-11T20:56:21Z</time>
      </trkpt>
      <trkpt lat="36.8619995117188" lon="-5.17112016677856">
        <ele>563</ele>
        <time>2019-05-11T20:56:23Z</time>
      </trkpt>
      <trkpt lat="36.8619956970215" lon="-5.17113208770752">
        <ele>563</ele>
        <time>2019-05-11T20:56:25Z</time>
      </trkpt>
      <trkpt lat="36.8619918823242" lon="-5.17113780975342">
        <ele>563</ele>
        <time>2019-05-11T20:56:27Z</time>
      </trkpt>
      <trkpt lat="36.861988067627" lon="-5.17114019393921">
        <ele>562</ele>
        <time>2019-05-11T20:56:29Z</time>
      </trkpt>
      <trkpt lat="36.8619766235352" lon="-5.17114019393921">
        <ele>561</ele>
        <time>2019-05-11T20:56:31Z</time>
      </trkpt>
      <trkpt lat="36.8619651794434" lon="-5.1711368560791">
        <ele>560</ele>
        <time>2019-05-11T20:56:33Z</time>
      </trkpt>
      <trkpt lat="36.8619537353516" lon="-5.17114019393921">
        <ele>559</ele>
        <time>2019-05-11T20:56:35Z</time>
      </trkpt>
      <trkpt lat="36.861946105957" lon="-5.17113780975342">
        <ele>558</ele>
        <time>2019-05-11T20:56:37Z</time>
      </trkpt>
      <trkpt lat="36.8619499206543" lon="-5.17114019393921">
        <ele>558</ele>
        <time>2019-05-11T20:56:39Z</time>
      </trkpt>
      <trkpt lat="36.861946105957" lon="-5.17114305496216">
        <ele>558</ele>
        <time>2019-05-11T20:56:41Z</time>
      </trkpt>
      <trkpt lat="36.861946105957" lon="-5.17114686965942">
        <ele>558</ele>
        <time>2019-05-11T20:56:43Z</time>
      </trkpt>
      <trkpt lat="36.8619499206543" lon="-5.17114782333374">
        <ele>558</ele>
        <time>2019-05-11T20:56:45Z</time>
      </trkpt>
      <trkpt lat="36.8619384765625" lon="-5.17114496231079">
        <ele>558</ele>
        <time>2019-05-11T20:56:47Z</time>
      </trkpt>
      <trkpt lat="36.8619270324707" lon="-5.17114686965942">
        <ele>558</ele>
        <time>2019-05-11T20:56:49Z</time>
      </trkpt>
      <trkpt lat="36.8619384765625" lon="-5.17116022109985">
        <ele>558</ele>
        <time>2019-05-11T20:56:51Z</time>
      </trkpt>
      <trkpt lat="36.8619384765625" lon="-5.17115783691406">
        <ele>557</ele>
        <time>2019-05-11T20:56:53Z</time>
      </trkpt>
      <trkpt lat="36.8619270324707" lon="-5.17115497589111">
        <ele>556</ele>
        <time>2019-05-11T20:56:55Z</time>
      </trkpt>
      <trkpt lat="36.8619155883789" lon="-5.17114686965942">
        <ele>555</ele>
        <time>2019-05-11T20:56:57Z</time>
      </trkpt>
      <trkpt lat="36.8619155883789" lon="-5.17114019393921">
        <ele>555</ele>
        <time>2019-05-11T20:57:00Z</time>
      </trkpt>
      <trkpt lat="36.8619079589844" lon="-5.17113494873047">
        <ele>555</ele>
        <time>2019-05-11T20:57:02Z</time>
      </trkpt>
      <trkpt lat="36.8619041442871" lon="-5.17112493515015">
        <ele>555</ele>
        <time>2019-05-11T20:57:04Z</time>
      </trkpt>
      <trkpt lat="36.8619003295898" lon="-5.17112016677856">
        <ele>555</ele>
        <time>2019-05-11T20:57:06Z</time>
      </trkpt>
      <trkpt lat="36.8619003295898" lon="-5.17111206054688">
        <ele>555</ele>
        <time>2019-05-11T20:57:08Z</time>
      </trkpt>
      <trkpt lat="36.8619041442871" lon="-5.17111206054688">
        <ele>555</ele>
        <time>2019-05-11T20:57:10Z</time>
      </trkpt>
      <trkpt lat="36.8619232177734" lon="-5.17111015319824">
        <ele>555</ele>
        <time>2019-05-11T20:57:12Z</time>
      </trkpt>
      <trkpt lat="36.8619384765625" lon="-5.17111206054688">
        <ele>555</ele>
        <time>2019-05-11T20:57:14Z</time>
      </trkpt>
      <trkpt lat="36.8619499206543" lon="-5.17110776901245">
        <ele>555</ele>
        <time>2019-05-11T20:57:16Z</time>
      </trkpt>
      <trkpt lat="36.8619613647461" lon="-5.17110300064087">
        <ele>555</ele>
        <time>2019-05-11T20:57:18Z</time>
      </trkpt>
      <trkpt lat="36.8619613647461" lon="-5.17109680175781">
        <ele>555</ele>
        <time>2019-05-11T20:57:20Z</time>
      </trkpt>
      <trkpt lat="36.8619575500488" lon="-5.17109203338623">
        <ele>555</ele>
        <time>2019-05-11T20:57:22Z</time>
      </trkpt>
      <trkpt lat="36.8619537353516" lon="-5.17108678817749">
        <ele>555</ele>
        <time>2019-05-11T20:57:24Z</time>
      </trkpt>
      <trkpt lat="36.8619613647461" lon="-5.17108488082886">
        <ele>555</ele>
        <time>2019-05-11T20:57:26Z</time>
      </trkpt>
      <trkpt lat="36.8619766235352" lon="-5.17108201980591">
        <ele>555</ele>
        <time>2019-05-11T20:57:28Z</time>
      </trkpt>
      <trkpt lat="36.8619956970215" lon="-5.17107677459717">
        <ele>555</ele>
        <time>2019-05-11T20:57:30Z</time>
      </trkpt>
      <trkpt lat="36.8620109558106" lon="-5.17107486724854">
        <ele>556</ele>
        <time>2019-05-11T20:57:32Z</time>
      </trkpt>
      <trkpt lat="36.8620185852051" lon="-5.17107009887695">
        <ele>557</ele>
        <time>2019-05-11T20:57:35Z</time>
      </trkpt>
      <trkpt lat="36.8620262145996" lon="-5.17107009887695">
        <ele>558</ele>
        <time>2019-05-11T20:57:37Z</time>
      </trkpt>
      <trkpt lat="36.8620262145996" lon="-5.171067237854">
        <ele>559</ele>
        <time>2019-05-11T20:57:39Z</time>
      </trkpt>
      <trkpt lat="36.8620414733887" lon="-5.171067237854">
        <ele>559</ele>
        <time>2019-05-11T20:57:41Z</time>
      </trkpt>
      <trkpt lat="36.8620529174805" lon="-5.17106819152832">
        <ele>561</ele>
        <time>2019-05-11T20:57:43Z</time>
      </trkpt>
      <trkpt lat="36.862060546875" lon="-5.17106819152832">
        <ele>562</ele>
        <time>2019-05-11T20:57:45Z</time>
      </trkpt>
      <trkpt lat="36.8620681762695" lon="-5.17106485366821">
        <ele>563</ele>
        <time>2019-05-11T20:57:47Z</time>
      </trkpt>
      <trkpt lat="36.8620872497559" lon="-5.17107486724854">
        <ele>565</ele>
        <time>2019-05-11T20:57:49Z</time>
      </trkpt>
      <trkpt lat="36.8621025085449" lon="-5.17108201980591">
        <ele>566</ele>
        <time>2019-05-11T20:57:51Z</time>
      </trkpt>
      <trkpt lat="36.8621101379394" lon="-5.17108201980591">
        <ele>568</ele>
        <time>2019-05-11T20:57:53Z</time>
      </trkpt>
      <trkpt lat="36.862117767334" lon="-5.17108297348022">
        <ele>569</ele>
        <time>2019-05-11T20:57:55Z</time>
      </trkpt>
      <trkpt lat="36.8621215820312" lon="-5.17107820510864">
        <ele>570</ele>
        <time>2019-05-11T20:57:57Z</time>
      </trkpt>
      <trkpt lat="36.8621253967285" lon="-5.17108201980591">
        <ele>570</ele>
        <time>2019-05-11T20:57:59Z</time>
      </trkpt>
      <trkpt lat="36.8621368408203" lon="-5.17107486724854">
        <ele>571</ele>
        <time>2019-05-11T20:58:01Z</time>
      </trkpt>
      <trkpt lat="36.8621368408203" lon="-5.17107009887695">
        <ele>572</ele>
        <time>2019-05-11T20:58:03Z</time>
      </trkpt>
      <trkpt lat="36.8621368408203" lon="-5.171058177948">
        <ele>573</ele>
        <time>2019-05-11T20:58:05Z</time>
      </trkpt>
      <trkpt lat="36.8621444702148" lon="-5.171058177948">
        <ele>573</ele>
        <time>2019-05-11T20:58:07Z</time>
      </trkpt>
      <trkpt lat="36.8621406555176" lon="-5.17106294631958">
        <ele>573</ele>
        <time>2019-05-11T20:58:11Z</time>
      </trkpt>
      <trkpt lat="36.8621025085449" lon="-5.1710729598999">
        <ele>573</ele>
        <time>2019-05-11T20:58:15Z</time>
      </trkpt>
      <trkpt lat="36.8620796203613" lon="-5.17107486724854">
        <ele>572</ele>
        <time>2019-05-11T20:58:18Z</time>
      </trkpt>
      <trkpt lat="36.8620491027832" lon="-5.17107820510864">
        <ele>570</ele>
        <time>2019-05-11T20:58:20Z</time>
      </trkpt>
      <trkpt lat="36.8620185852051" lon="-5.17108297348022">
        <ele>568</ele>
        <time>2019-05-11T20:58:22Z</time>
      </trkpt>
      <trkpt lat="36.8619804382324" lon="-5.17108488082886">
        <ele>566</ele>
        <time>2019-05-11T20:58:24Z</time>
      </trkpt>
      <trkpt lat="36.8619346618652" lon="-5.17109298706055">
        <ele>559</ele>
        <time>2019-05-11T20:58:28Z</time>
      </trkpt>
      <trkpt lat="36.8619194030762" lon="-5.17109823226929">
        <ele>556</ele>
        <time>2019-05-11T20:58:30Z</time>
      </trkpt>
      <trkpt lat="36.8619155883789" lon="-5.17110013961792">
        <ele>554</ele>
        <time>2019-05-11T20:58:32Z</time>
      </trkpt>
      <trkpt lat="36.8619117736816" lon="-5.17110300064087">
        <ele>552</ele>
        <time>2019-05-11T20:58:34Z</time>
      </trkpt>
      <trkpt lat="36.8619117736816" lon="-5.17110681533814">
        <ele>550</ele>
        <time>2019-05-11T20:58:36Z</time>
      </trkpt>
      <trkpt lat="36.8619155883789" lon="-5.17110681533814">
        <ele>548</ele>
        <time>2019-05-11T20:58:38Z</time>
      </trkpt>
      <trkpt lat="36.8619232177734" lon="-5.17110681533814">
        <ele>547</ele>
        <time>2019-05-11T20:58:40Z</time>
      </trkpt>
      <trkpt lat="36.8619346618652" lon="-5.17110776901245">
        <ele>547</ele>
        <time>2019-05-11T20:58:42Z</time>
      </trkpt>
      <trkpt lat="36.8619384765625" lon="-5.17111015319824">
        <ele>547</ele>
        <time>2019-05-11T20:58:44Z</time>
      </trkpt>
      <trkpt lat="36.8619422912598" lon="-5.17111015319824">
        <ele>547</ele>
        <time>2019-05-11T20:58:46Z</time>
      </trkpt>
      <trkpt lat="36.8619575500488" lon="-5.17111015319824">
        <ele>547</ele>
        <time>2019-05-11T20:58:48Z</time>
      </trkpt>
      <trkpt lat="36.8619766235352" lon="-5.17111015319824">
        <ele>547</ele>
        <time>2019-05-11T20:58:50Z</time>
      </trkpt>
      <trkpt lat="36.861988067627" lon="-5.17110681533814">
        <ele>547</ele>
        <time>2019-05-11T20:58:52Z</time>
      </trkpt>
      <trkpt lat="36.8620147705078" lon="-5.17110013961792">
        <ele>547</ele>
        <time>2019-05-11T20:58:54Z</time>
      </trkpt>
      <trkpt lat="36.8620376586914" lon="-5.17109203338623">
        <ele>547</ele>
        <time>2019-05-11T20:58:56Z</time>
      </trkpt>
      <trkpt lat="36.8620529174805" lon="-5.1710901260376">
        <ele>548</ele>
        <time>2019-05-11T20:58:59Z</time>
      </trkpt>
      <trkpt lat="36.8620567321777" lon="-5.17108678817749">
        <ele>549</ele>
        <time>2019-05-11T20:59:01Z</time>
      </trkpt>
      <trkpt lat="36.8620643615723" lon="-5.17108297348022">
        <ele>551</ele>
        <time>2019-05-11T20:59:03Z</time>
      </trkpt>
      <trkpt lat="36.862060546875" lon="-5.17107677459717">
        <ele>552</ele>
        <time>2019-05-11T20:59:05Z</time>
      </trkpt>
      <trkpt lat="36.8620643615723" lon="-5.1710729598999">
        <ele>552</ele>
        <time>2019-05-11T20:59:07Z</time>
      </trkpt>
      <trkpt lat="36.8620719909668" lon="-5.17107200622559">
        <ele>553</ele>
        <time>2019-05-11T20:59:09Z</time>
      </trkpt>
      <trkpt lat="36.8620834350586" lon="-5.17107009887695">
        <ele>554</ele>
        <time>2019-05-11T20:59:11Z</time>
      </trkpt>
      <trkpt lat="36.8620834350586" lon="-5.17106294631958">
        <ele>554</ele>
        <time>2019-05-11T20:59:13Z</time>
      </trkpt>
      <trkpt lat="36.8620834350586" lon="-5.171058177948">
        <ele>554</ele>
        <time>2019-05-11T20:59:15Z</time>
      </trkpt>
      <trkpt lat="36.8620834350586" lon="-5.17105293273926">
        <ele>555</ele>
        <time>2019-05-11T20:59:17Z</time>
      </trkpt>
      <trkpt lat="36.8620796203613" lon="-5.17104816436768">
        <ele>555</ele>
        <time>2019-05-11T20:59:19Z</time>
      </trkpt>
      <trkpt lat="36.8620681762695" lon="-5.17104721069336">
        <ele>555</ele>
        <time>2019-05-11T20:59:21Z</time>
      </trkpt>
      <trkpt lat="36.8620491027832" lon="-5.17104721069336">
        <ele>555</ele>
        <time>2019-05-11T20:59:23Z</time>
      </trkpt>
      <trkpt lat="36.8620338439941" lon="-5.17104816436768">
        <ele>555</ele>
        <time>2019-05-11T20:59:25Z</time>
      </trkpt>
      <trkpt lat="36.8620147705078" lon="-5.17105197906494">
        <ele>555</ele>
        <time>2019-05-11T20:59:27Z</time>
      </trkpt>
      <trkpt lat="36.8619956970215" lon="-5.17105484008789">
        <ele>554</ele>
        <time>2019-05-11T20:59:29Z</time>
      </trkpt>
      <trkpt lat="36.8619956970215" lon="-5.17105293273926">
        <ele>552</ele>
        <time>2019-05-11T20:59:31Z</time>
      </trkpt>
      <trkpt lat="36.862003326416" lon="-5.17105197906494">
        <ele>551</ele>
        <time>2019-05-11T20:59:33Z</time>
      </trkpt>
      <trkpt lat="36.8620262145996" lon="-5.17105007171631">
        <ele>551</ele>
        <time>2019-05-11T20:59:35Z</time>
      </trkpt>
      <trkpt lat="36.8620529174805" lon="-5.17104482650757">
        <ele>551</ele>
        <time>2019-05-11T20:59:37Z</time>
      </trkpt>
      <trkpt lat="36.8620872497559" lon="-5.17104196548462">
        <ele>551</ele>
        <time>2019-05-11T20:59:39Z</time>
      </trkpt>
      <trkpt lat="36.862117767334" lon="-5.17104482650757">
        <ele>551</ele>
        <time>2019-05-11T20:59:41Z</time>
      </trkpt>
      <trkpt lat="36.862133026123" lon="-5.17104196548462">
        <ele>553</ele>
        <time>2019-05-11T20:59:44Z</time>
      </trkpt>
      <trkpt lat="36.862133026123" lon="-5.17103719711304">
        <ele>555</ele>
        <time>2019-05-11T20:59:46Z</time>
      </trkpt>
      <trkpt lat="36.8621292114258" lon="-5.1710319519043">
        <ele>557</ele>
        <time>2019-05-11T20:59:48Z</time>
      </trkpt>
      <trkpt lat="36.862133026123" lon="-5.17103004455566">
        <ele>557</ele>
        <time>2019-05-11T20:59:50Z</time>
      </trkpt>
      <trkpt lat="36.8621368408203" lon="-5.1710319519043">
        <ele>557</ele>
        <time>2019-05-11T20:59:52Z</time>
      </trkpt>
      <trkpt lat="36.8621253967285" lon="-5.1710319519043">
        <ele>557</ele>
        <time>2019-05-11T20:59:54Z</time>
      </trkpt>
      <trkpt lat="36.8620872497559" lon="-5.17103481292725">
        <ele>557</ele>
        <time>2019-05-11T20:59:56Z</time>
      </trkpt>
      <trkpt lat="36.8620452880859" lon="-5.1710319519043">
        <ele>557</ele>
        <time>2019-05-11T20:59:58Z</time>
      </trkpt>
      <trkpt lat="36.8620109558106" lon="-5.17103481292725">
        <ele>557</ele>
        <time>2019-05-11T21:00:00Z</time>
      </trkpt>
      <trkpt lat="36.8619842529297" lon="-5.17103815078735">
        <ele>557</ele>
        <time>2019-05-11T21:00:02Z</time>
      </trkpt>
      <trkpt lat="36.8619689941406" lon="-5.17104482650757">
        <ele>557</ele>
        <time>2019-05-11T21:00:04Z</time>
      </trkpt>
      <trkpt lat="36.8619422912598" lon="-5.17104721069336">
        <ele>555</ele>
        <time>2019-05-11T21:00:06Z</time>
      </trkpt>
      <trkpt lat="36.8619117736816" lon="-5.17105197906494">
        <ele>553</ele>
        <time>2019-05-11T21:00:08Z</time>
      </trkpt>
      <trkpt lat="36.8618812561035" lon="-5.171058177948">
        <ele>551</ele>
        <time>2019-05-11T21:00:10Z</time>
      </trkpt>
      <trkpt lat="36.8618469238281" lon="-5.17106485366821">
        <ele>549</ele>
        <time>2019-05-11T21:00:12Z</time>
      </trkpt>
      <trkpt lat="36.8618240356445" lon="-5.17107200622559">
        <ele>547</ele>
        <time>2019-05-11T21:00:14Z</time>
      </trkpt>
      <trkpt lat="36.8617935180664" lon="-5.17107486724854">
        <ele>545</ele>
        <time>2019-05-11T21:00:16Z</time>
      </trkpt>
      <trkpt lat="36.8617782592773" lon="-5.17108011245728">
        <ele>543</ele>
        <time>2019-05-11T21:00:18Z</time>
      </trkpt>
      <trkpt lat="36.8617668151856" lon="-5.17108678817749">
        <ele>541</ele>
        <time>2019-05-11T21:00:21Z</time>
      </trkpt>
      <trkpt lat="36.8617553710938" lon="-5.17108821868896">
        <ele>539</ele>
        <time>2019-05-11T21:00:23Z</time>
      </trkpt>
      <trkpt lat="36.8617362976074" lon="-5.17109298706055">
        <ele>537</ele>
        <time>2019-05-11T21:00:25Z</time>
      </trkpt>
      <trkpt lat="36.8617172241211" lon="-5.17109823226929">
        <ele>536</ele>
        <time>2019-05-11T21:00:27Z</time>
      </trkpt>
      <trkpt lat="36.8617172241211" lon="-5.1711049079895">
        <ele>534</ele>
        <time>2019-05-11T21:00:29Z</time>
      </trkpt>
      <trkpt lat="36.8617362976074" lon="-5.17110776901245">
        <ele>534</ele>
        <time>2019-05-11T21:00:31Z</time>
      </trkpt>
      <trkpt lat="36.861759185791" lon="-5.17110776901245">
        <ele>534</ele>
        <time>2019-05-11T21:00:33Z</time>
      </trkpt>
      <trkpt lat="36.8617782592773" lon="-5.17110776901245">
        <ele>534</ele>
        <time>2019-05-11T21:00:35Z</time>
      </trkpt>
      <trkpt lat="36.8617973327637" lon="-5.17110776901245">
        <ele>534</ele>
        <time>2019-05-11T21:00:37Z</time>
      </trkpt>
      <trkpt lat="36.8618202209473" lon="-5.17111206054688">
        <ele>536</ele>
        <time>2019-05-11T21:00:39Z</time>
      </trkpt>
      <trkpt lat="36.8618392944336" lon="-5.17111206054688">
        <ele>538</ele>
        <time>2019-05-11T21:00:41Z</time>
      </trkpt>
      <trkpt lat="36.8618545532227" lon="-5.17111015319824">
        <ele>540</ele>
        <time>2019-05-11T21:00:43Z</time>
      </trkpt>
      <trkpt lat="36.861873626709" lon="-5.17111015319824">
        <ele>542</ele>
        <time>2019-05-11T21:00:45Z</time>
      </trkpt>
      <trkpt lat="36.8618927001953" lon="-5.17111206054688">
        <ele>544</ele>
        <time>2019-05-11T21:00:47Z</time>
      </trkpt>
      <trkpt lat="36.8619117736816" lon="-5.17112016677856">
        <ele>546</ele>
        <time>2019-05-11T21:00:49Z</time>
      </trkpt>
      <trkpt lat="36.861930847168" lon="-5.17112493515015">
        <ele>548</ele>
        <time>2019-05-11T21:00:51Z</time>
      </trkpt>
      <trkpt lat="36.8619537353516" lon="-5.17113018035889">
        <ele>550</ele>
        <time>2019-05-11T21:00:53Z</time>
      </trkpt>
      <trkpt lat="36.8619689941406" lon="-5.1711368560791">
        <ele>552</ele>
        <time>2019-05-11T21:00:55Z</time>
      </trkpt>
      <trkpt lat="36.8619918823242" lon="-5.17115306854248">
        <ele>554</ele>
        <time>2019-05-11T21:00:57Z</time>
      </trkpt>
      <trkpt lat="36.862003326416" lon="-5.17115497589111">
        <ele>555</ele>
        <time>2019-05-11T21:00:59Z</time>
      </trkpt>
      <trkpt lat="36.8620185852051" lon="-5.17115688323975">
        <ele>557</ele>
        <time>2019-05-11T21:01:02Z</time>
      </trkpt>
      <trkpt lat="36.8620223999023" lon="-5.17116212844849">
        <ele>558</ele>
        <time>2019-05-11T21:01:04Z</time>
      </trkpt>
      <trkpt lat="36.8620262145996" lon="-5.17116689682007">
        <ele>559</ele>
        <time>2019-05-11T21:01:06Z</time>
      </trkpt>
      <trkpt lat="36.8620338439941" lon="-5.17116785049438">
        <ele>559</ele>
        <time>2019-05-11T21:01:08Z</time>
      </trkpt>
      <trkpt lat="36.8620376586914" lon="-5.17117500305176">
        <ele>559</ele>
        <time>2019-05-11T21:01:10Z</time>
      </trkpt>
      <trkpt lat="36.8620452880859" lon="-5.17118310928345">
        <ele>559</ele>
        <time>2019-05-11T21:01:12Z</time>
      </trkpt>
      <trkpt lat="36.8620567321777" lon="-5.17118692398071">
        <ele>559</ele>
        <time>2019-05-11T21:01:14Z</time>
      </trkpt>
      <trkpt lat="36.862060546875" lon="-5.17118692398071">
        <ele>559</ele>
        <time>2019-05-11T21:01:16Z</time>
      </trkpt>
      <trkpt lat="36.8620567321777" lon="-5.17118310928345">
        <ele>559</ele>
        <time>2019-05-11T21:01:18Z</time>
      </trkpt>
      <trkpt lat="36.8620529174805" lon="-5.17118215560913">
        <ele>559</ele>
        <time>2019-05-11T21:01:20Z</time>
      </trkpt>
      <trkpt lat="36.8620567321777" lon="-5.17117977142334">
        <ele>559</ele>
        <time>2019-05-11T21:01:22Z</time>
      </trkpt>
      <trkpt lat="36.862060546875" lon="-5.17117309570312">
        <ele>559</ele>
        <time>2019-05-11T21:01:24Z</time>
      </trkpt>
      <trkpt lat="36.8620643615723" lon="-5.17117023468018">
        <ele>559</ele>
        <time>2019-05-11T21:01:26Z</time>
      </trkpt>
      <trkpt lat="36.8620643615723" lon="-5.17116212844849">
        <ele>559</ele>
        <time>2019-05-11T21:01:28Z</time>
      </trkpt>
      <trkpt lat="36.8620567321777" lon="-5.17115497589111">
        <ele>559</ele>
        <time>2019-05-11T21:01:30Z</time>
      </trkpt>
      <trkpt lat="36.8620567321777" lon="-5.17114782333374">
        <ele>559</ele>
        <time>2019-05-11T21:01:32Z</time>
      </trkpt>
      <trkpt lat="36.8620529174805" lon="-5.17114496231079">
        <ele>559</ele>
        <time>2019-05-11T21:01:34Z</time>
      </trkpt>
      <trkpt lat="36.8620529174805" lon="-5.17113494873047">
        <ele>560</ele>
        <time>2019-05-11T21:01:36Z</time>
      </trkpt>
      <trkpt lat="36.8620529174805" lon="-5.1711277961731">
        <ele>561</ele>
        <time>2019-05-11T21:01:38Z</time>
      </trkpt>
      <trkpt lat="36.8620452880859" lon="-5.17111778259277">
        <ele>562</ele>
        <time>2019-05-11T21:01:40Z</time>
      </trkpt>
      <trkpt lat="36.8620491027832" lon="-5.17110776901245">
        <ele>564</ele>
        <time>2019-05-11T21:01:43Z</time>
      </trkpt>
      <trkpt lat="36.8620452880859" lon="-5.17110300064087">
        <ele>564</ele>
        <time>2019-05-11T21:01:45Z</time>
      </trkpt>
      <trkpt lat="36.8620452880859" lon="-5.17109489440918">
        <ele>565</ele>
        <time>2019-05-11T21:01:49Z</time>
      </trkpt>
      <trkpt lat="36.8620452880859" lon="-5.17109203338623">
        <ele>565</ele>
        <time>2019-05-11T21:01:51Z</time>
      </trkpt>
      <trkpt lat="36.8620414733887" lon="-5.17109203338623">
        <ele>566</ele>
        <time>2019-05-11T21:01:53Z</time>
      </trkpt>
      <trkpt lat="36.8620376586914" lon="-5.17109823226929">
        <ele>566</ele>
        <time>2019-05-11T21:01:55Z</time>
      </trkpt>
      <trkpt lat="36.8620185852051" lon="-5.1711049079895">
        <ele>566</ele>
        <time>2019-05-11T21:01:59Z</time>
      </trkpt>
      <trkpt lat="36.8620185852051" lon="-5.17110776901245">
        <ele>566</ele>
        <time>2019-05-11T21:02:01Z</time>
      </trkpt>
      <trkpt lat="36.8620109558106" lon="-5.17110776901245">
        <ele>566</ele>
        <time>2019-05-11T21:02:03Z</time>
      </trkpt>
      <trkpt lat="36.862003326416" lon="-5.17110681533814">
        <ele>566</ele>
        <time>2019-05-11T21:02:05Z</time>
      </trkpt>
      <trkpt lat="36.8619995117188" lon="-5.1711049079895">
        <ele>566</ele>
        <time>2019-05-11T21:02:07Z</time>
      </trkpt>
      <trkpt lat="36.8619956970215" lon="-5.17110776901245">
        <ele>566</ele>
        <time>2019-05-11T21:02:09Z</time>
      </trkpt>
      <trkpt lat="36.861988067627" lon="-5.17110776901245">
        <ele>566</ele>
        <time>2019-05-11T21:02:11Z</time>
      </trkpt>
      <trkpt lat="36.8619766235352" lon="-5.17110776901245">
        <ele>566</ele>
        <time>2019-05-11T21:02:13Z</time>
      </trkpt>
      <trkpt lat="36.8619651794434" lon="-5.17111206054688">
        <ele>566</ele>
        <time>2019-05-11T21:02:15Z</time>
      </trkpt>
      <trkpt lat="36.8619651794434" lon="-5.17111492156982">
        <ele>565</ele>
        <time>2019-05-11T21:02:17Z</time>
      </trkpt>
      <trkpt lat="36.8619766235352" lon="-5.17111301422119">
        <ele>565</ele>
        <time>2019-05-11T21:02:19Z</time>
      </trkpt>
      <trkpt lat="36.8619842529297" lon="-5.17111206054688">
        <ele>565</ele>
        <time>2019-05-11T21:02:22Z</time>
      </trkpt>
      <trkpt lat="36.8619918823242" lon="-5.17111301422119">
        <ele>565</ele>
        <time>2019-05-11T21:02:24Z</time>
      </trkpt>
      <trkpt lat="36.8619918823242" lon="-5.1711277961731">
        <ele>565</ele>
        <time>2019-05-11T21:02:26Z</time>
      </trkpt>
      <trkpt lat="36.8619918823242" lon="-5.1711368560791">
        <ele>565</ele>
        <time>2019-05-11T21:02:28Z</time>
      </trkpt>
      <trkpt lat="36.862003326416" lon="-5.17114305496216">
        <ele>565</ele>
        <time>2019-05-11T21:02:30Z</time>
      </trkpt>
      <trkpt lat="36.8620185852051" lon="-5.17114305496216">
        <ele>565</ele>
        <time>2019-05-11T21:02:32Z</time>
      </trkpt>
      <trkpt lat="36.8620262145996" lon="-5.17114782333374">
        <ele>565</ele>
        <time>2019-05-11T21:02:34Z</time>
      </trkpt>
      <trkpt lat="36.8620414733887" lon="-5.17114496231079">
        <ele>565</ele>
        <time>2019-05-11T21:02:36Z</time>
      </trkpt>
      <trkpt lat="36.8620643615723" lon="-5.17114782333374">
        <ele>565</ele>
        <time>2019-05-11T21:02:38Z</time>
      </trkpt>
      <trkpt lat="36.8620796203613" lon="-5.17114686965942">
        <ele>566</ele>
        <time>2019-05-11T21:02:40Z</time>
      </trkpt>
      <trkpt lat="36.8620910644531" lon="-5.17114496231079">
        <ele>568</ele>
        <time>2019-05-11T21:02:42Z</time>
      </trkpt>
      <trkpt lat="36.8620986938477" lon="-5.17114496231079">
        <ele>569</ele>
        <time>2019-05-11T21:02:44Z</time>
      </trkpt>
      <trkpt lat="36.8621063232422" lon="-5.17114305496216">
        <ele>570</ele>
        <time>2019-05-11T21:02:48Z</time>
      </trkpt>
      <trkpt lat="36.8621063232422" lon="-5.17114210128784">
        <ele>571</ele>
        <time>2019-05-11T21:02:50Z</time>
      </trkpt>
      <trkpt lat="36.8621025085449" lon="-5.17114019393921">
        <ele>571</ele>
        <time>2019-05-11T21:02:52Z</time>
      </trkpt>
      <trkpt lat="36.8620910644531" lon="-5.17114210128784">
        <ele>571</ele>
        <time>2019-05-11T21:02:54Z</time>
      </trkpt>
      <trkpt lat="36.8620834350586" lon="-5.17114019393921">
        <ele>571</ele>
        <time>2019-05-11T21:02:56Z</time>
      </trkpt>
      <trkpt lat="36.8620834350586" lon="-5.17114210128784">
        <ele>571</ele>
        <time>2019-05-11T21:02:58Z</time>
      </trkpt>
      <trkpt lat="36.8620872497559" lon="-5.17114210128784">
        <ele>571</ele>
        <time>2019-05-11T21:03:00Z</time>
      </trkpt>
      <trkpt lat="36.8620910644531" lon="-5.17114305496216">
        <ele>571</ele>
        <time>2019-05-11T21:03:02Z</time>
      </trkpt>
      <trkpt lat="36.8620872497559" lon="-5.17114496231079">
        <ele>571</ele>
        <time>2019-05-11T21:03:05Z</time>
      </trkpt>
      <trkpt lat="36.8620834350586" lon="-5.17114210128784">
        <ele>571</ele>
        <time>2019-05-11T21:03:07Z</time>
      </trkpt>
      <trkpt lat="36.8620834350586" lon="-5.17113780975342">
        <ele>571</ele>
        <time>2019-05-11T21:03:09Z</time>
      </trkpt>
      <trkpt lat="36.8620834350586" lon="-5.17113494873047">
        <ele>571</ele>
        <time>2019-05-11T21:03:11Z</time>
      </trkpt>
      <trkpt lat="36.8620872497559" lon="-5.17113304138184">
        <ele>571</ele>
        <time>2019-05-11T21:03:13Z</time>
      </trkpt>
      <trkpt lat="36.8620910644531" lon="-5.17113018035889">
        <ele>571</ele>
        <time>2019-05-11T21:03:15Z</time>
      </trkpt>
      <trkpt lat="36.862117767334" lon="-5.17114305496216">
        <ele>573</ele>
        <time>2019-05-11T21:03:19Z</time>
      </trkpt>
      <trkpt lat="36.8621292114258" lon="-5.17114686965942">
        <ele>573</ele>
        <time>2019-05-11T21:03:21Z</time>
      </trkpt>
      <trkpt lat="36.8621368408203" lon="-5.17114305496216">
        <ele>574</ele>
        <time>2019-05-11T21:03:23Z</time>
      </trkpt>
      <trkpt lat="36.8621406555176" lon="-5.17113780975342">
        <ele>574</ele>
        <time>2019-05-11T21:03:25Z</time>
      </trkpt>
      <trkpt lat="36.8621406555176" lon="-5.17113494873047">
        <ele>574</ele>
        <time>2019-05-11T21:03:27Z</time>
      </trkpt>
      <trkpt lat="36.8621482849121" lon="-5.17113208770752">
        <ele>575</ele>
        <time>2019-05-11T21:03:29Z</time>
      </trkpt>
      <trkpt lat="36.8621597290039" lon="-5.1711220741272">
        <ele>576</ele>
        <time>2019-05-11T21:03:31Z</time>
      </trkpt>
      <trkpt lat="36.8621597290039" lon="-5.17111778259277">
        <ele>576</ele>
        <time>2019-05-11T21:03:33Z</time>
      </trkpt>
      <trkpt lat="36.8621635437012" lon="-5.17111682891846">
        <ele>577</ele>
        <time>2019-05-11T21:03:35Z</time>
      </trkpt>
      <trkpt lat="36.8621597290039" lon="-5.17111492156982">
        <ele>577</ele>
        <time>2019-05-11T21:03:37Z</time>
      </trkpt>
      <trkpt lat="36.8621635437012" lon="-5.17111015319824">
        <ele>577</ele>
        <time>2019-05-11T21:03:39Z</time>
      </trkpt>
      <trkpt lat="36.8621673583984" lon="-5.17110776901245">
        <ele>577</ele>
        <time>2019-05-11T21:03:41Z</time>
      </trkpt>
      <trkpt lat="36.8621597290039" lon="-5.17111015319824">
        <ele>577</ele>
        <time>2019-05-11T21:03:43Z</time>
      </trkpt>
      <trkpt lat="36.8621520996094" lon="-5.17111015319824">
        <ele>577</ele>
        <time>2019-05-11T21:03:45Z</time>
      </trkpt>
      <trkpt lat="36.8621368408203" lon="-5.1711049079895">
        <ele>577</ele>
        <time>2019-05-11T21:03:48Z</time>
      </trkpt>
      <trkpt lat="36.8621101379394" lon="-5.17109489440918">
        <ele>577</ele>
        <time>2019-05-11T21:03:50Z</time>
      </trkpt>
      <trkpt lat="36.8620948791504" lon="-5.17109203338623">
        <ele>577</ele>
        <time>2019-05-11T21:03:52Z</time>
      </trkpt>
      <trkpt lat="36.8620719909668" lon="-5.1710901260376">
        <ele>575</ele>
        <time>2019-05-11T21:03:54Z</time>
      </trkpt>
      <trkpt lat="36.8620262145996" lon="-5.17109298706055">
        <ele>569</ele>
        <time>2019-05-11T21:04:00Z</time>
      </trkpt>
      <trkpt lat="36.8620147705078" lon="-5.17109823226929">
        <ele>567</ele>
        <time>2019-05-11T21:04:02Z</time>
      </trkpt>
      <trkpt lat="36.8620109558106" lon="-5.17110013961792">
        <ele>565</ele>
        <time>2019-05-11T21:04:04Z</time>
      </trkpt>
      <trkpt lat="36.8619995117188" lon="-5.17111492156982">
        <ele>561</ele>
        <time>2019-05-11T21:04:08Z</time>
      </trkpt>
      <trkpt lat="36.862003326416" lon="-5.17111778259277">
        <ele>559</ele>
        <time>2019-05-11T21:04:10Z</time>
      </trkpt>
      <trkpt lat="36.862003326416" lon="-5.17112016677856">
        <ele>558</ele>
        <time>2019-05-11T21:04:12Z</time>
      </trkpt>
      <trkpt lat="36.8620109558106" lon="-5.17112302780151">
        <ele>557</ele>
        <time>2019-05-11T21:04:14Z</time>
      </trkpt>
      <trkpt lat="36.8620147705078" lon="-5.17112684249878">
        <ele>557</ele>
        <time>2019-05-11T21:04:16Z</time>
      </trkpt>
      <trkpt lat="36.8620185852051" lon="-5.17112684249878">
        <ele>557</ele>
        <time>2019-05-11T21:04:18Z</time>
      </trkpt>
      <trkpt lat="36.8620185852051" lon="-5.1711220741272">
        <ele>557</ele>
        <time>2019-05-11T21:04:20Z</time>
      </trkpt>
      <trkpt lat="36.8620223999023" lon="-5.17111778259277">
        <ele>557</ele>
        <time>2019-05-11T21:04:22Z</time>
      </trkpt>
      <trkpt lat="36.8620223999023" lon="-5.17111492156982">
        <ele>557</ele>
        <time>2019-05-11T21:04:24Z</time>
      </trkpt>
      <trkpt lat="36.8620262145996" lon="-5.17111206054688">
        <ele>557</ele>
        <time>2019-05-11T21:04:27Z</time>
      </trkpt>
      <trkpt lat="36.8620338439941" lon="-5.17111301422119">
        <ele>557</ele>
        <time>2019-05-11T21:04:29Z</time>
      </trkpt>
      <trkpt lat="36.8620376586914" lon="-5.17110776901245">
        <ele>557</ele>
        <time>2019-05-11T21:04:31Z</time>
      </trkpt>
      <trkpt lat="36.8620376586914" lon="-5.17109489440918">
        <ele>558</ele>
        <time>2019-05-11T21:04:33Z</time>
      </trkpt>
      <trkpt lat="36.8620452880859" lon="-5.17108201980591">
        <ele>559</ele>
        <time>2019-05-11T21:04:35Z</time>
      </trkpt>
      <trkpt lat="36.862060546875" lon="-5.17107200622559">
        <ele>560</ele>
        <time>2019-05-11T21:04:37Z</time>
      </trkpt>
      <trkpt lat="36.8620719909668" lon="-5.17106199264526">
        <ele>561</ele>
        <time>2019-05-11T21:04:39Z</time>
      </trkpt>
      <trkpt lat="36.8620796203613" lon="-5.171058177948">
        <ele>563</ele>
        <time>2019-05-11T21:04:41Z</time>
      </trkpt>
      <trkpt lat="36.8620872497559" lon="-5.171058177948">
        <ele>564</ele>
        <time>2019-05-11T21:04:43Z</time>
      </trkpt>
      <trkpt lat="36.8620834350586" lon="-5.17105722427368">
        <ele>564</ele>
        <time>2019-05-11T21:04:45Z</time>
      </trkpt>
      <trkpt lat="36.8620872497559" lon="-5.17105197906494">
        <ele>565</ele>
        <time>2019-05-11T21:04:53Z</time>
      </trkpt>
      <trkpt lat="36.8621063232422" lon="-5.17105722427368">
        <ele>566</ele>
        <time>2019-05-11T21:04:55Z</time>
      </trkpt>
      <trkpt lat="36.8621292114258" lon="-5.17105722427368">
        <ele>568</ele>
        <time>2019-05-11T21:04:57Z</time>
      </trkpt>
      <trkpt lat="36.8621520996094" lon="-5.17105293273926">
        <ele>570</ele>
        <time>2019-05-11T21:04:59Z</time>
      </trkpt>
      <trkpt lat="36.8621826171875" lon="-5.17104291915894">
        <ele>572</ele>
        <time>2019-05-11T21:05:01Z</time>
      </trkpt>
      <trkpt lat="36.862190246582" lon="-5.17103815078735">
        <ele>574</ele>
        <time>2019-05-11T21:05:03Z</time>
      </trkpt>
      <trkpt lat="36.8622016906738" lon="-5.17103290557861">
        <ele>576</ele>
        <time>2019-05-11T21:05:06Z</time>
      </trkpt>
      <trkpt lat="36.8622055053711" lon="-5.17102718353272">
        <ele>578</ele>
        <time>2019-05-11T21:05:08Z</time>
      </trkpt>
      <trkpt lat="36.8622169494629" lon="-5.17102718353272">
        <ele>579</ele>
        <time>2019-05-11T21:05:10Z</time>
      </trkpt>
      <trkpt lat="36.8622207641602" lon="-5.17103004455566">
        <ele>580</ele>
        <time>2019-05-11T21:05:12Z</time>
      </trkpt>
      <trkpt lat="36.8622283935547" lon="-5.17103719711304">
        <ele>581</ele>
        <time>2019-05-11T21:05:14Z</time>
      </trkpt>
      <trkpt lat="36.8622360229492" lon="-5.17104196548462">
        <ele>581</ele>
        <time>2019-05-11T21:05:16Z</time>
      </trkpt>
      <trkpt lat="36.862232208252" lon="-5.17104196548462">
        <ele>582</ele>
        <time>2019-05-11T21:05:18Z</time>
      </trkpt>
      <trkpt lat="36.8622245788574" lon="-5.17104721069336">
        <ele>582</ele>
        <time>2019-05-11T21:05:20Z</time>
      </trkpt>
      <trkpt lat="36.8622131347656" lon="-5.17105197906494">
        <ele>582</ele>
        <time>2019-05-11T21:05:22Z</time>
      </trkpt>
      <trkpt lat="36.8621940612793" lon="-5.171058177948">
        <ele>582</ele>
        <time>2019-05-11T21:05:26Z</time>
      </trkpt>
      <trkpt lat="36.8621940612793" lon="-5.17105722427368">
        <ele>582</ele>
        <time>2019-05-11T21:05:28Z</time>
      </trkpt>
      <trkpt lat="36.8621864318848" lon="-5.17105293273926">
        <ele>582</ele>
        <time>2019-05-11T21:05:30Z</time>
      </trkpt>
      <trkpt lat="36.8621711730957" lon="-5.17104816436768">
        <ele>582</ele>
        <time>2019-05-11T21:05:32Z</time>
      </trkpt>
      <trkpt lat="36.8621635437012" lon="-5.17104816436768">
        <ele>582</ele>
        <time>2019-05-11T21:05:34Z</time>
      </trkpt>
      <trkpt lat="36.8621520996094" lon="-5.17104721069336">
        <ele>582</ele>
        <time>2019-05-11T21:05:36Z</time>
      </trkpt>
      <trkpt lat="36.8621368408203" lon="-5.17104196548462">
        <ele>582</ele>
        <time>2019-05-11T21:05:38Z</time>
      </trkpt>
      <trkpt lat="36.8621292114258" lon="-5.17103815078735">
        <ele>582</ele>
        <time>2019-05-11T21:05:40Z</time>
      </trkpt>
      <trkpt lat="36.8621253967285" lon="-5.17103719711304">
        <ele>582</ele>
        <time>2019-05-11T21:05:42Z</time>
      </trkpt>
      <trkpt lat="36.8621215820312" lon="-5.17104005813599">
        <ele>581</ele>
        <time>2019-05-11T21:05:45Z</time>
      </trkpt>
      <trkpt lat="36.8621139526367" lon="-5.17103815078735">
        <ele>581</ele>
        <time>2019-05-11T21:05:47Z</time>
      </trkpt>
      <trkpt lat="36.8621063232422" lon="-5.17104721069336">
        <ele>580</ele>
        <time>2019-05-11T21:05:49Z</time>
      </trkpt>
      <trkpt lat="36.8621025085449" lon="-5.17106008529663">
        <ele>579</ele>
        <time>2019-05-11T21:05:51Z</time>
      </trkpt>
      <trkpt lat="36.8621139526367" lon="-5.17107486724854">
        <ele>578</ele>
        <time>2019-05-11T21:05:53Z</time>
      </trkpt>
      <trkpt lat="36.862117767334" lon="-5.17108201980591">
        <ele>577</ele>
        <time>2019-05-11T21:05:55Z</time>
      </trkpt>
      <trkpt lat="36.8621025085449" lon="-5.17107677459717">
        <ele>576</ele>
        <time>2019-05-11T21:05:59Z</time>
      </trkpt>
      <trkpt lat="36.8620834350586" lon="-5.171067237854">
        <ele>575</ele>
        <time>2019-05-11T21:06:01Z</time>
      </trkpt>
      <trkpt lat="36.8620681762695" lon="-5.17105293273926">
        <ele>575</ele>
        <time>2019-05-11T21:06:03Z</time>
      </trkpt>
      <trkpt lat="36.8620452880859" lon="-5.17103719711304">
        <ele>575</ele>
        <time>2019-05-11T21:06:05Z</time>
      </trkpt>
      <trkpt lat="36.8620262145996" lon="-5.17102479934692">
        <ele>575</ele>
        <time>2019-05-11T21:06:07Z</time>
      </trkpt>
      <trkpt lat="36.8620109558106" lon="-5.17102193832397">
        <ele>574</ele>
        <time>2019-05-11T21:06:09Z</time>
      </trkpt>
      <trkpt lat="36.8619995117188" lon="-5.17102718353272">
        <ele>574</ele>
        <time>2019-05-11T21:06:11Z</time>
      </trkpt>
      <trkpt lat="36.8619918823242" lon="-5.17102718353272">
        <ele>573</ele>
        <time>2019-05-11T21:06:13Z</time>
      </trkpt>
      <trkpt lat="36.8619804382324" lon="-5.17103004455566">
        <ele>572</ele>
        <time>2019-05-11T21:06:15Z</time>
      </trkpt>
      <trkpt lat="36.8619689941406" lon="-5.17103481292725">
        <ele>570</ele>
        <time>2019-05-11T21:06:17Z</time>
      </trkpt>
      <trkpt lat="36.8619613647461" lon="-5.17103481292725">
        <ele>569</ele>
        <time>2019-05-11T21:06:19Z</time>
      </trkpt>
      <trkpt lat="36.8619651794434" lon="-5.17103004455566">
        <ele>567</ele>
        <time>2019-05-11T21:06:23Z</time>
      </trkpt>
      <trkpt lat="36.8619613647461" lon="-5.17103004455566">
        <ele>567</ele>
        <time>2019-05-11T21:06:25Z</time>
      </trkpt>
      <trkpt lat="36.8619575500488" lon="-5.17102193832397">
        <ele>567</ele>
        <time>2019-05-11T21:06:28Z</time>
      </trkpt>
      <trkpt lat="36.8619575500488" lon="-5.17101812362671">
        <ele>567</ele>
        <time>2019-05-11T21:06:30Z</time>
      </trkpt>
      <trkpt lat="36.8619689941406" lon="-5.17101287841797">
        <ele>567</ele>
        <time>2019-05-11T21:06:32Z</time>
      </trkpt>
      <trkpt lat="36.8619918823242" lon="-5.17102193832397">
        <ele>567</ele>
        <time>2019-05-11T21:06:34Z</time>
      </trkpt>
      <trkpt lat="36.8620147705078" lon="-5.17102003097534">
        <ele>567</ele>
        <time>2019-05-11T21:06:36Z</time>
      </trkpt>
      <trkpt lat="36.8620338439941" lon="-5.17102003097534">
        <ele>567</ele>
        <time>2019-05-11T21:06:38Z</time>
      </trkpt>
      <trkpt lat="36.8620452880859" lon="-5.17102193832397">
        <ele>567</ele>
        <time>2019-05-11T21:06:40Z</time>
      </trkpt>
      <trkpt lat="36.8620758056641" lon="-5.17101287841797">
        <ele>568</ele>
        <time>2019-05-11T21:06:42Z</time>
      </trkpt>
      <trkpt lat="36.8620948791504" lon="-5.17101192474365">
        <ele>569</ele>
        <time>2019-05-11T21:06:44Z</time>
      </trkpt>
      <trkpt lat="36.8620948791504" lon="-5.17101192474365">
        <ele>569</ele>
        <time>2019-05-11T21:06:46Z</time>
      </trkpt>
      <trkpt lat="36.8620872497559" lon="-5.1710147857666">
        <ele>569</ele>
        <time>2019-05-11T21:06:48Z</time>
      </trkpt>
      <trkpt lat="36.8620872497559" lon="-5.17101812362671">
        <ele>569</ele>
        <time>2019-05-11T21:06:50Z</time>
      </trkpt>
      <trkpt lat="36.8620796203613" lon="-5.17102289199829">
        <ele>569</ele>
        <time>2019-05-11T21:06:52Z</time>
      </trkpt>
      <trkpt lat="36.8620681762695" lon="-5.17102813720703">
        <ele>569</ele>
        <time>2019-05-11T21:06:54Z</time>
      </trkpt>
      <trkpt lat="36.8620567321777" lon="-5.17102813720703">
        <ele>569</ele>
        <time>2019-05-11T21:06:56Z</time>
      </trkpt>
      <trkpt lat="36.8620491027832" lon="-5.17102718353272">
        <ele>569</ele>
        <time>2019-05-11T21:06:58Z</time>
      </trkpt>
      <trkpt lat="36.8620681762695" lon="-5.17102479934692">
        <ele>569</ele>
        <time>2019-05-11T21:07:02Z</time>
      </trkpt>
      <trkpt lat="36.8620719909668" lon="-5.17102289199829">
        <ele>569</ele>
        <time>2019-05-11T21:07:04Z</time>
      </trkpt>
      <trkpt lat="36.8620719909668" lon="-5.1710147857666">
        <ele>569</ele>
        <time>2019-05-11T21:07:07Z</time>
      </trkpt>
      <trkpt lat="36.8620758056641" lon="-5.17100811004639">
        <ele>568</ele>
        <time>2019-05-11T21:07:11Z</time>
      </trkpt>
      <trkpt lat="36.8620758056641" lon="-5.17100477218628">
        <ele>566</ele>
        <time>2019-05-11T21:07:13Z</time>
      </trkpt>
      <trkpt lat="36.8620834350586" lon="-5.1710000038147">
        <ele>566</ele>
        <time>2019-05-11T21:07:15Z</time>
      </trkpt>
      <trkpt lat="36.8620872497559" lon="-5.17099809646606">
        <ele>566</ele>
        <time>2019-05-11T21:07:17Z</time>
      </trkpt>
      <trkpt lat="36.8620910644531" lon="-5.1710000038147">
        <ele>565</ele>
        <time>2019-05-11T21:07:19Z</time>
      </trkpt>
      <trkpt lat="36.8620948791504" lon="-5.17100191116333">
        <ele>565</ele>
        <time>2019-05-11T21:07:21Z</time>
      </trkpt>
      <trkpt lat="36.8621025085449" lon="-5.17100811004639">
        <ele>564</ele>
        <time>2019-05-11T21:07:23Z</time>
      </trkpt>
      <trkpt lat="36.8621139526367" lon="-5.17101287841797">
        <ele>563</ele>
        <time>2019-05-11T21:07:25Z</time>
      </trkpt>
      <trkpt lat="36.8621215820312" lon="-5.17101287841797">
        <ele>563</ele>
        <time>2019-05-11T21:07:27Z</time>
      </trkpt>
      <trkpt lat="36.862133026123" lon="-5.17100715637207">
        <ele>563</ele>
        <time>2019-05-11T21:07:29Z</time>
      </trkpt>
      <trkpt lat="36.862133026123" lon="-5.17100477218628">
        <ele>563</ele>
        <time>2019-05-11T21:07:31Z</time>
      </trkpt>
      <trkpt lat="36.862133026123" lon="-5.1710147857666">
        <ele>563</ele>
        <time>2019-05-11T21:07:33Z</time>
      </trkpt>
      <trkpt lat="36.8621253967285" lon="-5.17102003097534">
        <ele>563</ele>
        <time>2019-05-11T21:07:35Z</time>
      </trkpt>
      <trkpt lat="36.8621215820312" lon="-5.17102289199829">
        <ele>563</ele>
        <time>2019-05-11T21:07:37Z</time>
      </trkpt>
      <trkpt lat="36.8621253967285" lon="-5.17104196548462">
        <ele>563</ele>
        <time>2019-05-11T21:07:39Z</time>
      </trkpt>
      <trkpt lat="36.8621253967285" lon="-5.17104005813599">
        <ele>563</ele>
        <time>2019-05-11T21:07:41Z</time>
      </trkpt>
      <trkpt lat="36.8621215820312" lon="-5.17103290557861">
        <ele>563</ele>
        <time>2019-05-11T21:07:43Z</time>
      </trkpt>
      <trkpt lat="36.8621215820312" lon="-5.17102813720703">
        <ele>562</ele>
        <time>2019-05-11T21:07:46Z</time>
      </trkpt>
      <trkpt lat="36.862117767334" lon="-5.17102479934692">
        <ele>562</ele>
        <time>2019-05-11T21:07:48Z</time>
      </trkpt>
      <trkpt lat="36.862117767334" lon="-5.17102718353272">
        <ele>561</ele>
        <time>2019-05-11T21:07:50Z</time>
      </trkpt>
      <trkpt lat="36.8621139526367" lon="-5.17103481292725">
        <ele>559</ele>
        <time>2019-05-11T21:07:52Z</time>
      </trkpt>
      <trkpt lat="36.8621063232422" lon="-5.17104005813599">
        <ele>557</ele>
        <time>2019-05-11T21:07:54Z</time>
      </trkpt>
      <trkpt lat="36.8620986938477" lon="-5.17103815078735">
        <ele>554</ele>
        <time>2019-05-11T21:07:58Z</time>
      </trkpt>
      <trkpt lat="36.8620948791504" lon="-5.17103290557861">
        <ele>553</ele>
        <time>2019-05-11T21:08:00Z</time>
      </trkpt>
      <trkpt lat="36.8620948791504" lon="-5.17103290557861">
        <ele>553</ele>
        <time>2019-05-11T21:08:02Z</time>
      </trkpt>
      <trkpt lat="36.8620948791504" lon="-5.17103815078735">
        <ele>553</ele>
        <time>2019-05-11T21:08:04Z</time>
      </trkpt>
      <trkpt lat="36.8620910644531" lon="-5.17103815078735">
        <ele>553</ele>
        <time>2019-05-11T21:08:06Z</time>
      </trkpt>
      <trkpt lat="36.8620872497559" lon="-5.17103815078735">
        <ele>553</ele>
        <time>2019-05-11T21:08:08Z</time>
      </trkpt>
      <trkpt lat="36.8620834350586" lon="-5.17103815078735">
        <ele>553</ele>
        <time>2019-05-11T21:08:10Z</time>
      </trkpt>
      <trkpt lat="36.8620719909668" lon="-5.17102479934692">
        <ele>553</ele>
        <time>2019-05-11T21:08:14Z</time>
      </trkpt>
      <trkpt lat="36.8620719909668" lon="-5.17102479934692">
        <ele>553</ele>
        <time>2019-05-11T21:08:16Z</time>
      </trkpt>
      <trkpt lat="36.8620719909668" lon="-5.17102813720703">
        <ele>553</ele>
        <time>2019-05-11T21:08:18Z</time>
      </trkpt>
      <trkpt lat="36.8620681762695" lon="-5.17103004455566">
        <ele>553</ele>
        <time>2019-05-11T21:08:20Z</time>
      </trkpt>
      <trkpt lat="36.8620643615723" lon="-5.17102003097534">
        <ele>553</ele>
        <time>2019-05-11T21:08:22Z</time>
      </trkpt>
      <trkpt lat="36.8620643615723" lon="-5.17101287841797">
        <ele>553</ele>
        <time>2019-05-11T21:08:24Z</time>
      </trkpt>
      <trkpt lat="36.862060546875" lon="-5.17101001739502">
        <ele>553</ele>
        <time>2019-05-11T21:08:27Z</time>
      </trkpt>
      <trkpt lat="36.8620567321777" lon="-5.1710147857666">
        <ele>553</ele>
        <time>2019-05-11T21:08:29Z</time>
      </trkpt>
      <trkpt lat="36.8620529174805" lon="-5.17102003097534">
        <ele>553</ele>
        <time>2019-05-11T21:08:31Z</time>
      </trkpt>
      <trkpt lat="36.8620452880859" lon="-5.17101716995239">
        <ele>553</ele>
        <time>2019-05-11T21:08:33Z</time>
      </trkpt>
      <trkpt lat="36.8620414733887" lon="-5.17101287841797">
        <ele>553</ele>
        <time>2019-05-11T21:08:35Z</time>
      </trkpt>
      <trkpt lat="36.8620376586914" lon="-5.17101192474365">
        <ele>553</ele>
        <time>2019-05-11T21:08:37Z</time>
      </trkpt>
      <trkpt lat="36.8620338439941" lon="-5.1710147857666">
        <ele>553</ele>
        <time>2019-05-11T21:08:39Z</time>
      </trkpt>
      <trkpt lat="36.8620414733887" lon="-5.17101716995239">
        <ele>553</ele>
        <time>2019-05-11T21:08:41Z</time>
      </trkpt>
      <trkpt lat="36.8620491027832" lon="-5.17101192474365">
        <ele>553</ele>
        <time>2019-05-11T21:08:43Z</time>
      </trkpt>
      <trkpt lat="36.8620414733887" lon="-5.17101001739502">
        <ele>553</ele>
        <time>2019-05-11T21:08:45Z</time>
      </trkpt>
      <trkpt lat="36.8620376586914" lon="-5.17100715637207">
        <ele>553</ele>
        <time>2019-05-11T21:08:47Z</time>
      </trkpt>
      <trkpt lat="36.8620452880859" lon="-5.17099809646606">
        <ele>553</ele>
        <time>2019-05-11T21:08:49Z</time>
      </trkpt>
      <trkpt lat="36.8620414733887" lon="-5.17099523544312">
        <ele>553</ele>
        <time>2019-05-11T21:08:51Z</time>
      </trkpt>
      <trkpt lat="36.8620338439941" lon="-5.17098712921143">
        <ele>553</ele>
        <time>2019-05-11T21:08:53Z</time>
      </trkpt>
      <trkpt lat="36.8620262145996" lon="-5.17098808288574">
        <ele>553</ele>
        <time>2019-05-11T21:08:55Z</time>
      </trkpt>
      <trkpt lat="36.8620338439941" lon="-5.17098808288574">
        <ele>553</ele>
        <time>2019-05-11T21:08:57Z</time>
      </trkpt>
      <trkpt lat="36.8620414733887" lon="-5.17098808288574">
        <ele>553</ele>
        <time>2019-05-11T21:08:59Z</time>
      </trkpt>
      <trkpt lat="36.8620414733887" lon="-5.17098808288574">
        <ele>553</ele>
        <time>2019-05-11T21:09:01Z</time>
      </trkpt>
      <trkpt lat="36.8620452880859" lon="-5.17098522186279">
        <ele>553</ele>
        <time>2019-05-11T21:09:03Z</time>
      </trkpt>
      <trkpt lat="36.862060546875" lon="-5.170982837677">
        <ele>553</ele>
        <time>2019-05-11T21:09:05Z</time>
      </trkpt>
      <trkpt lat="36.8620681762695" lon="-5.17098188400269">
        <ele>554</ele>
        <time>2019-05-11T21:09:08Z</time>
      </trkpt>
      <trkpt lat="36.8620834350586" lon="-5.17097997665405">
        <ele>556</ele>
        <time>2019-05-11T21:09:10Z</time>
      </trkpt>
      <trkpt lat="36.8621063232422" lon="-5.17097806930542">
        <ele>557</ele>
        <time>2019-05-11T21:09:12Z</time>
      </trkpt>
      <trkpt lat="36.862117767334" lon="-5.17095994949341">
        <ele>558</ele>
        <time>2019-05-11T21:09:14Z</time>
      </trkpt>
      <trkpt lat="36.8621139526367" lon="-5.1709451675415">
        <ele>560</ele>
        <time>2019-05-11T21:09:16Z</time>
      </trkpt>
      <trkpt lat="36.8621139526367" lon="-5.17093706130981">
        <ele>561</ele>
        <time>2019-05-11T21:09:18Z</time>
      </trkpt>
      <trkpt lat="36.8621139526367" lon="-5.17093276977539">
        <ele>562</ele>
        <time>2019-05-11T21:09:20Z</time>
      </trkpt>
      <trkpt lat="36.8621101379394" lon="-5.17093706130981">
        <ele>562</ele>
        <time>2019-05-11T21:09:22Z</time>
      </trkpt>
      <trkpt lat="36.8620948791504" lon="-5.17093706130981">
        <ele>563</ele>
        <time>2019-05-11T21:09:24Z</time>
      </trkpt>
      <trkpt lat="36.8620758056641" lon="-5.17092990875244">
        <ele>563</ele>
        <time>2019-05-11T21:09:26Z</time>
      </trkpt>
      <trkpt lat="36.8620719909668" lon="-5.17092990875244">
        <ele>563</ele>
        <time>2019-05-11T21:09:28Z</time>
      </trkpt>
      <trkpt lat="36.8620643615723" lon="-5.17093276977539">
        <ele>563</ele>
        <time>2019-05-11T21:09:30Z</time>
      </trkpt>
      <trkpt lat="36.8620758056641" lon="-5.17093515396118">
        <ele>563</ele>
        <time>2019-05-11T21:09:32Z</time>
      </trkpt>
      <trkpt lat="36.8620796203613" lon="-5.17093706130981">
        <ele>563</ele>
        <time>2019-05-11T21:09:34Z</time>
      </trkpt>
      <trkpt lat="36.8620796203613" lon="-5.17093801498413">
        <ele>563</ele>
        <time>2019-05-11T21:09:36Z</time>
      </trkpt>
      <trkpt lat="36.8620796203613" lon="-5.17093801498413">
        <ele>563</ele>
        <time>2019-05-11T21:09:38Z</time>
      </trkpt>
      <trkpt lat="36.8620681762695" lon="-5.17094707489014">
        <ele>563</ele>
        <time>2019-05-11T21:09:40Z</time>
      </trkpt>
      <trkpt lat="36.8620567321777" lon="-5.17094802856445">
        <ele>563</ele>
        <time>2019-05-11T21:09:42Z</time>
      </trkpt>
      <trkpt lat="36.8620529174805" lon="-5.17095804214478">
        <ele>562</ele>
        <time>2019-05-11T21:09:44Z</time>
      </trkpt>
      <trkpt lat="36.8620567321777" lon="-5.17096996307373">
        <ele>561</ele>
        <time>2019-05-11T21:09:47Z</time>
      </trkpt>
      <trkpt lat="36.8620643615723" lon="-5.17098188400269">
        <ele>560</ele>
        <time>2019-05-11T21:09:49Z</time>
      </trkpt>
      <trkpt lat="36.8620643615723" lon="-5.17098522186279">
        <ele>559</ele>
        <time>2019-05-11T21:09:51Z</time>
      </trkpt>
      <trkpt lat="36.862060546875" lon="-5.17098808288574">
        <ele>558</ele>
        <time>2019-05-11T21:09:53Z</time>
      </trkpt>
      <trkpt lat="36.8620567321777" lon="-5.17099809646606">
        <ele>557</ele>
        <time>2019-05-11T21:09:55Z</time>
      </trkpt>
      <trkpt lat="36.8620567321777" lon="-5.17101001739502">
        <ele>557</ele>
        <time>2019-05-11T21:09:57Z</time>
      </trkpt>
      <trkpt lat="36.8620834350586" lon="-5.17101287841797">
        <ele>557</ele>
        <time>2019-05-11T21:10:03Z</time>
      </trkpt>
      <trkpt lat="36.862060546875" lon="-5.17104196548462">
        <ele>557</ele>
        <time>2019-05-11T21:10:09Z</time>
      </trkpt>
      <trkpt lat="36.8620567321777" lon="-5.17105293273926">
        <ele>557</ele>
        <time>2019-05-11T21:10:11Z</time>
      </trkpt>
      <trkpt lat="36.8620643615723" lon="-5.17106819152832">
        <ele>557</ele>
        <time>2019-05-11T21:10:13Z</time>
      </trkpt>
      <trkpt lat="36.8620758056641" lon="-5.17107486724854">
        <ele>557</ele>
        <time>2019-05-11T21:10:15Z</time>
      </trkpt>
      <trkpt lat="36.8620910644531" lon="-5.1710901260376">
        <ele>558</ele>
        <time>2019-05-11T21:10:17Z</time>
      </trkpt>
      <trkpt lat="36.8621139526367" lon="-5.17110681533814">
        <ele>559</ele>
        <time>2019-05-11T21:10:19Z</time>
      </trkpt>
      <trkpt lat="36.8621368408203" lon="-5.17111206054688">
        <ele>560</ele>
        <time>2019-05-11T21:10:21Z</time>
      </trkpt>
      <trkpt lat="36.8621482849121" lon="-5.17111492156982">
        <ele>560</ele>
        <time>2019-05-11T21:10:24Z</time>
      </trkpt>
      <trkpt lat="36.8621597290039" lon="-5.17112493515015">
        <ele>560</ele>
        <time>2019-05-11T21:10:26Z</time>
      </trkpt>
      <trkpt lat="36.8621635437012" lon="-5.17113780975342">
        <ele>560</ele>
        <time>2019-05-11T21:10:28Z</time>
      </trkpt>
      <trkpt lat="36.8621673583984" lon="-5.17113494873047">
        <ele>560</ele>
        <time>2019-05-11T21:10:30Z</time>
      </trkpt>
      <trkpt lat="36.8621711730957" lon="-5.1711277961731">
        <ele>561</ele>
        <time>2019-05-11T21:10:32Z</time>
      </trkpt>
      <trkpt lat="36.8621711730957" lon="-5.17111682891846">
        <ele>563</ele>
        <time>2019-05-11T21:10:34Z</time>
      </trkpt>
      <trkpt lat="36.8621826171875" lon="-5.1711630821228">
        <ele>565</ele>
        <time>2019-05-11T21:10:40Z</time>
      </trkpt>
      <trkpt lat="36.8621978759766" lon="-5.17117309570312">
        <ele>566</ele>
        <time>2019-05-11T21:10:42Z</time>
      </trkpt>
      <trkpt lat="36.8622131347656" lon="-5.17119312286377">
        <ele>566</ele>
        <time>2019-05-11T21:10:44Z</time>
      </trkpt>
      <trkpt lat="36.8622207641602" lon="-5.17120790481567">
        <ele>566</ele>
        <time>2019-05-11T21:10:46Z</time>
      </trkpt>
      <trkpt lat="36.8622283935547" lon="-5.17120790481567">
        <ele>566</ele>
        <time>2019-05-11T21:10:48Z</time>
      </trkpt>
      <trkpt lat="36.862232208252" lon="-5.1712121963501">
        <ele>566</ele>
        <time>2019-05-11T21:10:50Z</time>
      </trkpt>
      <trkpt lat="36.8622398376465" lon="-5.17120790481567">
        <ele>566</ele>
        <time>2019-05-11T21:10:52Z</time>
      </trkpt>
      <trkpt lat="36.862247467041" lon="-5.17120504379272">
        <ele>566</ele>
        <time>2019-05-11T21:10:54Z</time>
      </trkpt>
      <trkpt lat="36.8622665405273" lon="-5.17119693756104">
        <ele>566</ele>
        <time>2019-05-11T21:10:56Z</time>
      </trkpt>
      <trkpt lat="36.8622932434082" lon="-5.17118501663208">
        <ele>567</ele>
        <time>2019-05-11T21:10:58Z</time>
      </trkpt>
      <trkpt lat="36.8623237609863" lon="-5.17118310928345">
        <ele>568</ele>
        <time>2019-05-11T21:11:01Z</time>
      </trkpt>
      <trkpt lat="36.862361907959" lon="-5.17117786407471">
        <ele>570</ele>
        <time>2019-05-11T21:11:03Z</time>
      </trkpt>
      <trkpt lat="36.8624000549316" lon="-5.17117691040039">
        <ele>572</ele>
        <time>2019-05-11T21:11:05Z</time>
      </trkpt>
      <trkpt lat="36.8624305725098" lon="-5.17117214202881">
        <ele>574</ele>
        <time>2019-05-11T21:11:07Z</time>
      </trkpt>
      <trkpt lat="36.8624687194824" lon="-5.17116212844849">
        <ele>576</ele>
        <time>2019-05-11T21:11:09Z</time>
      </trkpt>
      <trkpt lat="36.8625221252441" lon="-5.17115020751953">
        <ele>578</ele>
        <time>2019-05-11T21:11:11Z</time>
      </trkpt>
      <trkpt lat="36.8625755310059" lon="-5.17113780975342">
        <ele>580</ele>
        <time>2019-05-11T21:11:13Z</time>
      </trkpt>
      <trkpt lat="36.8626136779785" lon="-5.17114305496216">
        <ele>582</ele>
        <time>2019-05-11T21:11:15Z</time>
      </trkpt>
      <trkpt lat="36.8626251220703" lon="-5.17115211486816">
        <ele>584</ele>
        <time>2019-05-11T21:11:17Z</time>
      </trkpt>
      <trkpt lat="36.8626136779785" lon="-5.17117786407471">
        <ele>586</ele>
        <time>2019-05-11T21:11:19Z</time>
      </trkpt>
      <trkpt lat="36.8625793457031" lon="-5.17119312286377">
        <ele>588</ele>
        <time>2019-05-11T21:11:21Z</time>
      </trkpt>
      <trkpt lat="36.8625373840332" lon="-5.17119789123535">
        <ele>588</ele>
        <time>2019-05-11T21:11:23Z</time>
      </trkpt>
      <trkpt lat="36.8624992370606" lon="-5.17119216918945">
        <ele>588</ele>
        <time>2019-05-11T21:11:25Z</time>
      </trkpt>
      <trkpt lat="36.8624572753906" lon="-5.17118310928345">
        <ele>587</ele>
        <time>2019-05-11T21:11:27Z</time>
      </trkpt>
      <trkpt lat="36.8624229431152" lon="-5.17117500305176">
        <ele>585</ele>
        <time>2019-05-11T21:11:29Z</time>
      </trkpt>
      <trkpt lat="36.8623924255371" lon="-5.17116022109985">
        <ele>583</ele>
        <time>2019-05-11T21:11:31Z</time>
      </trkpt>
      <trkpt lat="36.8623504638672" lon="-5.17113304138184">
        <ele>581</ele>
        <time>2019-05-11T21:11:33Z</time>
      </trkpt>
      <trkpt lat="36.8623275756836" lon="-5.17111015319824">
        <ele>579</ele>
        <time>2019-05-11T21:11:35Z</time>
      </trkpt>
      <trkpt lat="36.8623123168945" lon="-5.17108821868896">
        <ele>577</ele>
        <time>2019-05-11T21:11:38Z</time>
      </trkpt>
      <trkpt lat="36.8622970581055" lon="-5.17107009887695">
        <ele>575</ele>
        <time>2019-05-11T21:11:40Z</time>
      </trkpt>
      <trkpt lat="36.8622817993164" lon="-5.17104482650757">
        <ele>573</ele>
        <time>2019-05-11T21:11:42Z</time>
      </trkpt>
      <trkpt lat="36.8622703552246" lon="-5.17101716995239">
        <ele>571</ele>
        <time>2019-05-11T21:11:44Z</time>
      </trkpt>
      <trkpt lat="36.8622589111328" lon="-5.17098999023438">
        <ele>570</ele>
        <time>2019-05-11T21:11:46Z</time>
      </trkpt>
      <trkpt lat="36.862247467041" lon="-5.17096281051636">
        <ele>569</ele>
        <time>2019-05-11T21:11:48Z</time>
      </trkpt>
      <trkpt lat="36.8622436523438" lon="-5.17093801498413">
        <ele>567</ele>
        <time>2019-05-11T21:11:50Z</time>
      </trkpt>
      <trkpt lat="36.8622360229492" lon="-5.1709132194519">
        <ele>566</ele>
        <time>2019-05-11T21:11:52Z</time>
      </trkpt>
      <trkpt lat="36.8622398376465" lon="-5.17090177536011">
        <ele>565</ele>
        <time>2019-05-11T21:11:54Z</time>
      </trkpt>
      <trkpt lat="36.8622360229492" lon="-5.17091989517212">
        <ele>565</ele>
        <time>2019-05-11T21:11:56Z</time>
      </trkpt>
      <trkpt lat="36.8622245788574" lon="-5.17093801498413">
        <ele>564</ele>
        <time>2019-05-11T21:11:58Z</time>
      </trkpt>
      <trkpt lat="36.8622093200684" lon="-5.17095184326172">
        <ele>563</ele>
        <time>2019-05-11T21:12:00Z</time>
      </trkpt>
      <trkpt lat="36.8621978759766" lon="-5.17096996307373">
        <ele>562</ele>
        <time>2019-05-11T21:12:02Z</time>
      </trkpt>
      <trkpt lat="36.8621940612793" lon="-5.17098999023438">
        <ele>561</ele>
        <time>2019-05-11T21:12:04Z</time>
      </trkpt>
      <trkpt lat="36.8621978759766" lon="-5.1710147857666">
        <ele>560</ele>
        <time>2019-05-11T21:12:06Z</time>
      </trkpt>
      <trkpt lat="36.8621978759766" lon="-5.17104196548462">
        <ele>559</ele>
        <time>2019-05-11T21:12:08Z</time>
      </trkpt>
      <trkpt lat="36.8621864318848" lon="-5.17106294631958">
        <ele>559</ele>
        <time>2019-05-11T21:12:10Z</time>
      </trkpt>
      <trkpt lat="36.8621788024902" lon="-5.17108678817749">
        <ele>559</ele>
        <time>2019-05-11T21:12:12Z</time>
      </trkpt>
      <trkpt lat="36.8621788024902" lon="-5.17114019393921">
        <ele>559</ele>
        <time>2019-05-11T21:12:16Z</time>
      </trkpt>
      <trkpt lat="36.862174987793" lon="-5.17120790481567">
        <ele>558</ele>
        <time>2019-05-11T21:12:22Z</time>
      </trkpt>
      <trkpt lat="36.862174987793" lon="-5.17123317718506">
        <ele>558</ele>
        <time>2019-05-11T21:12:24Z</time>
      </trkpt>
      <trkpt lat="36.8621711730957" lon="-5.17126178741455">
        <ele>558</ele>
        <time>2019-05-11T21:12:26Z</time>
      </trkpt>
      <trkpt lat="36.8621711730957" lon="-5.1712851524353">
        <ele>558</ele>
        <time>2019-05-11T21:12:28Z</time>
      </trkpt>
      <trkpt lat="36.8621673583984" lon="-5.1713080406189">
        <ele>558</ele>
        <time>2019-05-11T21:12:30Z</time>
      </trkpt>
      <trkpt lat="36.8621597290039" lon="-5.17132997512817">
        <ele>558</ele>
        <time>2019-05-11T21:12:32Z</time>
      </trkpt>
      <trkpt lat="36.8621635437012" lon="-5.17134189605713">
        <ele>558</ele>
        <time>2019-05-11T21:12:34Z</time>
      </trkpt>
      <trkpt lat="36.8621635437012" lon="-5.17136192321777">
        <ele>558</ele>
        <time>2019-05-11T21:12:36Z</time>
      </trkpt>
      <trkpt lat="36.8621597290039" lon="-5.17138004302978">
        <ele>558</ele>
        <time>2019-05-11T21:12:38Z</time>
      </trkpt>
      <trkpt lat="36.8621597290039" lon="-5.17140483856201">
        <ele>558</ele>
        <time>2019-05-11T21:12:40Z</time>
      </trkpt>
      <trkpt lat="36.8621635437012" lon="-5.17142009735107">
        <ele>558</ele>
        <time>2019-05-11T21:12:42Z</time>
      </trkpt>
      <trkpt lat="36.8621597290039" lon="-5.17142820358276">
        <ele>558</ele>
        <time>2019-05-11T21:12:44Z</time>
      </trkpt>
      <trkpt lat="36.8621635437012" lon="-5.17143487930298">
        <ele>558</ele>
        <time>2019-05-11T21:12:46Z</time>
      </trkpt>
      <trkpt lat="36.8621673583984" lon="-5.17143821716309">
        <ele>558</ele>
        <time>2019-05-11T21:12:48Z</time>
      </trkpt>
      <trkpt lat="36.8621788024902" lon="-5.17144680023193">
        <ele>558</ele>
        <time>2019-05-11T21:12:54Z</time>
      </trkpt>
      <trkpt lat="36.862174987793" lon="-5.17145776748657">
        <ele>563</ele>
        <time>2019-05-11T21:13:08Z</time>
      </trkpt>
      <trkpt lat="36.8621711730957" lon="-5.17145776748657">
        <ele>563</ele>
        <time>2019-05-11T21:13:10Z</time>
      </trkpt>
      <trkpt lat="36.8621673583984" lon="-5.17146015167236">
        <ele>564</ele>
        <time>2019-05-11T21:13:12Z</time>
      </trkpt>
      <trkpt lat="36.8621635437012" lon="-5.17146015167236">
        <ele>564</ele>
        <time>2019-05-11T21:13:14Z</time>
      </trkpt>
      <trkpt lat="36.8621635437012" lon="-5.17146015167236">
        <ele>564</ele>
        <time>2019-05-11T21:13:16Z</time>
      </trkpt>
      <trkpt lat="36.8621635437012" lon="-5.17145776748657">
        <ele>565</ele>
        <time>2019-05-11T21:13:18Z</time>
      </trkpt>
      <trkpt lat="36.8621597290039" lon="-5.17145490646362">
        <ele>565</ele>
        <time>2019-05-11T21:13:20Z</time>
      </trkpt>
      <trkpt lat="36.8621635437012" lon="-5.17145013809204">
        <ele>565</ele>
        <time>2019-05-11T21:13:22Z</time>
      </trkpt>
      <trkpt lat="36.8621635437012" lon="-5.1714448928833">
        <ele>566</ele>
        <time>2019-05-11T21:13:24Z</time>
      </trkpt>
      <trkpt lat="36.8621635437012" lon="-5.17144012451172">
        <ele>567</ele>
        <time>2019-05-11T21:13:26Z</time>
      </trkpt>
      <trkpt lat="36.8621673583984" lon="-5.17144203186035">
        <ele>568</ele>
        <time>2019-05-11T21:13:32Z</time>
      </trkpt>
      <trkpt lat="36.8621635437012" lon="-5.17143821716309">
        <ele>570</ele>
        <time>2019-05-11T21:13:40Z</time>
      </trkpt>
      <trkpt lat="36.8621635437012" lon="-5.17143297195435">
        <ele>570</ele>
        <time>2019-05-11T21:13:42Z</time>
      </trkpt>
      <trkpt lat="36.8621673583984" lon="-5.17143201828003">
        <ele>571</ele>
        <time>2019-05-11T21:13:44Z</time>
      </trkpt>
      <trkpt lat="36.8621673583984" lon="-5.1714301109314">
        <ele>571</ele>
        <time>2019-05-11T21:13:46Z</time>
      </trkpt>
      <trkpt lat="36.8621673583984" lon="-5.17142820358276">
        <ele>571</ele>
        <time>2019-05-11T21:13:48Z</time>
      </trkpt>
      <trkpt lat="36.8621711730957" lon="-5.17142677307129">
        <ele>572</ele>
        <time>2019-05-11T21:13:50Z</time>
      </trkpt>
      <trkpt lat="36.8621711730957" lon="-5.17142820358276">
        <ele>572</ele>
        <time>2019-05-11T21:13:52Z</time>
      </trkpt>
      <trkpt lat="36.8621559143066" lon="-5.17143201828003">
        <ele>572</ele>
        <time>2019-05-11T21:13:56Z</time>
      </trkpt>
      <trkpt lat="36.8621520996094" lon="-5.17143487930298">
        <ele>572</ele>
        <time>2019-05-11T21:13:58Z</time>
      </trkpt>
      <trkpt lat="36.8621482849121" lon="-5.17143821716309">
        <ele>572</ele>
        <time>2019-05-11T21:14:00Z</time>
      </trkpt>
      <trkpt lat="36.8621482849121" lon="-5.17143201828003">
        <ele>572</ele>
        <time>2019-05-11T21:14:02Z</time>
      </trkpt>
      <trkpt lat="36.8621444702148" lon="-5.17141008377075">
        <ele>572</ele>
        <time>2019-05-11T21:14:04Z</time>
      </trkpt>
      <trkpt lat="36.8621444702148" lon="-5.17138719558716">
        <ele>572</ele>
        <time>2019-05-11T21:14:06Z</time>
      </trkpt>
      <trkpt lat="36.8621368408203" lon="-5.17136192321777">
        <ele>572</ele>
        <time>2019-05-11T21:14:08Z</time>
      </trkpt>
      <trkpt lat="36.8621215820312" lon="-5.17133522033691">
        <ele>572</ele>
        <time>2019-05-11T21:14:10Z</time>
      </trkpt>
      <trkpt lat="36.8621215820312" lon="-5.17130708694458">
        <ele>571</ele>
        <time>2019-05-11T21:14:12Z</time>
      </trkpt>
      <trkpt lat="36.8621292114258" lon="-5.1712851524353">
        <ele>569</ele>
        <time>2019-05-11T21:14:14Z</time>
      </trkpt>
      <trkpt lat="36.8621406555176" lon="-5.17126321792603">
        <ele>567</ele>
        <time>2019-05-11T21:14:17Z</time>
      </trkpt>
      <trkpt lat="36.8621444702148" lon="-5.17124223709106">
        <ele>567</ele>
        <time>2019-05-11T21:14:19Z</time>
      </trkpt>
      <trkpt lat="36.8621482849121" lon="-5.1712121963501">
        <ele>567</ele>
        <time>2019-05-11T21:14:21Z</time>
      </trkpt>
      <trkpt lat="36.8621520996094" lon="-5.17119312286377">
        <ele>566</ele>
        <time>2019-05-11T21:14:23Z</time>
      </trkpt>
      <trkpt lat="36.8621673583984" lon="-5.17117691040039">
        <ele>565</ele>
        <time>2019-05-11T21:14:27Z</time>
      </trkpt>
      <trkpt lat="36.8621711730957" lon="-5.17116689682007">
        <ele>565</ele>
        <time>2019-05-11T21:14:31Z</time>
      </trkpt>
      <trkpt lat="36.8621711730957" lon="-5.1711630821228">
        <ele>565</ele>
        <time>2019-05-11T21:14:33Z</time>
      </trkpt>
      <trkpt lat="36.862174987793" lon="-5.17115783691406">
        <ele>565</ele>
        <time>2019-05-11T21:14:35Z</time>
      </trkpt>
      <trkpt lat="36.8621826171875" lon="-5.17115211486816">
        <ele>565</ele>
        <time>2019-05-11T21:14:41Z</time>
      </trkpt>
      <trkpt lat="36.8621864318848" lon="-5.17114782333374">
        <ele>565</ele>
        <time>2019-05-11T21:14:43Z</time>
      </trkpt>
      <trkpt lat="36.862190246582" lon="-5.17115020751953">
        <ele>565</ele>
        <time>2019-05-11T21:14:45Z</time>
      </trkpt>
      <trkpt lat="36.8621940612793" lon="-5.17115020751953">
        <ele>565</ele>
        <time>2019-05-11T21:14:47Z</time>
      </trkpt>
      <trkpt lat="36.8621978759766" lon="-5.17114686965942">
        <ele>565</ele>
        <time>2019-05-11T21:14:49Z</time>
      </trkpt>
      <trkpt lat="36.8622016906738" lon="-5.17115211486816">
        <ele>565</ele>
        <time>2019-05-11T21:14:51Z</time>
      </trkpt>
      <trkpt lat="36.8622283935547" lon="-5.17118310928345">
        <ele>565</ele>
        <time>2019-05-11T21:15:07Z</time>
      </trkpt>
      <trkpt lat="36.8622398376465" lon="-5.17118978500366">
        <ele>565</ele>
        <time>2019-05-11T21:15:11Z</time>
      </trkpt>
      <trkpt lat="36.8622398376465" lon="-5.17119216918945">
        <ele>565</ele>
        <time>2019-05-11T21:15:13Z</time>
      </trkpt>
      <trkpt lat="36.862247467041" lon="-5.17118978500366">
        <ele>565</ele>
        <time>2019-05-11T21:15:15Z</time>
      </trkpt>
      <trkpt lat="36.8622512817383" lon="-5.17118215560913">
        <ele>565</ele>
        <time>2019-05-11T21:15:21Z</time>
      </trkpt>
      <trkpt lat="36.8622550964356" lon="-5.17116498947144">
        <ele>565</ele>
        <time>2019-05-11T21:15:25Z</time>
      </trkpt>
      <trkpt lat="36.8622550964356" lon="-5.17115783691406">
        <ele>565</ele>
        <time>2019-05-11T21:15:27Z</time>
      </trkpt>
      <trkpt lat="36.8622512817383" lon="-5.17115688323975">
        <ele>565</ele>
        <time>2019-05-11T21:15:29Z</time>
      </trkpt>
      <trkpt lat="36.8622550964356" lon="-5.17115688323975">
        <ele>565</ele>
        <time>2019-05-11T21:15:31Z</time>
      </trkpt>
      <trkpt lat="36.8622550964356" lon="-5.17115688323975">
        <ele>565</ele>
        <time>2019-05-11T21:15:33Z</time>
      </trkpt>
      <trkpt lat="36.8622550964356" lon="-5.17115688323975">
        <ele>565</ele>
        <time>2019-05-11T21:15:35Z</time>
      </trkpt>
      <trkpt lat="36.8622512817383" lon="-5.17115688323975">
        <ele>565</ele>
        <time>2019-05-11T21:15:37Z</time>
      </trkpt>
      <trkpt lat="36.8622512817383" lon="-5.17115783691406">
        <ele>565</ele>
        <time>2019-05-11T21:15:39Z</time>
      </trkpt>
      <trkpt lat="36.8622512817383" lon="-5.17115211486816">
        <ele>565</ele>
        <time>2019-05-11T21:15:41Z</time>
      </trkpt>
      <trkpt lat="36.8622512817383" lon="-5.17115020751953">
        <ele>565</ele>
        <time>2019-05-11T21:15:43Z</time>
      </trkpt>
      <trkpt lat="36.8622550964356" lon="-5.17115688323975">
        <ele>565</ele>
        <time>2019-05-11T21:15:45Z</time>
      </trkpt>
      <trkpt lat="36.8622550964356" lon="-5.17115688323975">
        <ele>565</ele>
        <time>2019-05-11T21:15:47Z</time>
      </trkpt>
      <trkpt lat="36.8622589111328" lon="-5.17116212844849">
        <ele>565</ele>
        <time>2019-05-11T21:15:49Z</time>
      </trkpt>
      <trkpt lat="36.8622589111328" lon="-5.17116212844849">
        <ele>565</ele>
        <time>2019-05-11T21:15:51Z</time>
      </trkpt>
      <trkpt lat="36.8622589111328" lon="-5.17116212844849">
        <ele>565</ele>
        <time>2019-05-11T21:15:53Z</time>
      </trkpt>
      <trkpt lat="36.8622550964356" lon="-5.17117500305176">
        <ele>565</ele>
        <time>2019-05-11T21:15:59Z</time>
      </trkpt>
      <trkpt lat="36.8622512817383" lon="-5.17117977142334">
        <ele>565</ele>
        <time>2019-05-11T21:16:01Z</time>
      </trkpt>
      <trkpt lat="36.8622512817383" lon="-5.17118787765503">
        <ele>566</ele>
        <time>2019-05-11T21:16:05Z</time>
      </trkpt>
      <trkpt lat="36.8622436523438" lon="-5.17118787765503">
        <ele>566</ele>
        <time>2019-05-11T21:16:07Z</time>
      </trkpt>
      <trkpt lat="36.8622436523438" lon="-5.17118978500366">
        <ele>566</ele>
        <time>2019-05-11T21:16:09Z</time>
      </trkpt>
      <trkpt lat="36.8622398376465" lon="-5.1711950302124">
        <ele>567</ele>
        <time>2019-05-11T21:16:11Z</time>
      </trkpt>
      <trkpt lat="36.862232208252" lon="-5.1711950302124">
        <ele>567</ele>
        <time>2019-05-11T21:16:13Z</time>
      </trkpt>
      <trkpt lat="36.8622283935547" lon="-5.1711950302124">
        <ele>567</ele>
        <time>2019-05-11T21:16:17Z</time>
      </trkpt>
      <trkpt lat="36.8622245788574" lon="-5.1711950302124">
        <ele>567</ele>
        <time>2019-05-11T21:16:19Z</time>
      </trkpt>
      <trkpt lat="36.8622245788574" lon="-5.1711950302124">
        <ele>567</ele>
        <time>2019-05-11T21:16:21Z</time>
      </trkpt>
      <trkpt lat="36.8622207641602" lon="-5.1711950302124">
        <ele>567</ele>
        <time>2019-05-11T21:16:23Z</time>
      </trkpt>
      <trkpt lat="36.8622207641602" lon="-5.1711950302124">
        <ele>567</ele>
        <time>2019-05-11T21:16:25Z</time>
      </trkpt>
      <trkpt lat="36.8622207641602" lon="-5.17120504379272">
        <ele>567</ele>
        <time>2019-05-11T21:16:27Z</time>
      </trkpt>
      <trkpt lat="36.8622245788574" lon="-5.17122316360474">
        <ele>567</ele>
        <time>2019-05-11T21:16:29Z</time>
      </trkpt>
      <trkpt lat="36.8622245788574" lon="-5.171226978302">
        <ele>567</ele>
        <time>2019-05-11T21:16:31Z</time>
      </trkpt>
      <trkpt lat="36.8622245788574" lon="-5.17122507095337">
        <ele>567</ele>
        <time>2019-05-11T21:16:33Z</time>
      </trkpt>
      <trkpt lat="36.8622245788574" lon="-5.17122316360474">
        <ele>567</ele>
        <time>2019-05-11T21:16:35Z</time>
      </trkpt>
      <trkpt lat="36.8622245788574" lon="-5.17122220993042">
        <ele>567</ele>
        <time>2019-05-11T21:16:37Z</time>
      </trkpt>
      <trkpt lat="36.8622207641602" lon="-5.17122220993042">
        <ele>567</ele>
        <time>2019-05-11T21:16:39Z</time>
      </trkpt>
      <trkpt lat="36.8622169494629" lon="-5.171217918396">
        <ele>567</ele>
        <time>2019-05-11T21:16:41Z</time>
      </trkpt>
      <trkpt lat="36.8622131347656" lon="-5.17121315002441">
        <ele>567</ele>
        <time>2019-05-11T21:16:43Z</time>
      </trkpt>
      <trkpt lat="36.8622131347656" lon="-5.17120981216431">
        <ele>567</ele>
        <time>2019-05-11T21:16:45Z</time>
      </trkpt>
      <trkpt lat="36.8622131347656" lon="-5.17120313644409">
        <ele>567</ele>
        <time>2019-05-11T21:16:47Z</time>
      </trkpt>
      <trkpt lat="36.8622093200684" lon="-5.1711950302124">
        <ele>567</ele>
        <time>2019-05-11T21:16:49Z</time>
      </trkpt>
      <trkpt lat="36.8622055053711" lon="-5.17118310928345">
        <ele>567</ele>
        <time>2019-05-11T21:16:55Z</time>
      </trkpt>
      <trkpt lat="36.8622055053711" lon="-5.17118978500366">
        <ele>567</ele>
        <time>2019-05-11T21:16:57Z</time>
      </trkpt>
      <trkpt lat="36.8621940612793" lon="-5.17117500305176">
        <ele>567</ele>
        <time>2019-05-11T21:16:59Z</time>
      </trkpt>
      <trkpt lat="36.862174987793" lon="-5.17114782333374">
        <ele>567</ele>
        <time>2019-05-11T21:17:04Z</time>
      </trkpt>
      <trkpt lat="36.8621673583984" lon="-5.1711277961731">
        <ele>567</ele>
        <time>2019-05-11T21:17:06Z</time>
      </trkpt>
      <trkpt lat="36.8621597290039" lon="-5.17109489440918">
        <ele>567</ele>
        <time>2019-05-11T21:17:10Z</time>
      </trkpt>
      <trkpt lat="36.8621597290039" lon="-5.17107009887695">
        <ele>566</ele>
        <time>2019-05-11T21:17:12Z</time>
      </trkpt>
      <trkpt lat="36.8621635437012" lon="-5.17104482650757">
        <ele>566</ele>
        <time>2019-05-11T21:17:14Z</time>
      </trkpt>
      <trkpt lat="36.8621673583984" lon="-5.17101716995239">
        <ele>566</ele>
        <time>2019-05-11T21:17:16Z</time>
      </trkpt>
      <trkpt lat="36.8621788024902" lon="-5.17099523544312">
        <ele>566</ele>
        <time>2019-05-11T21:17:18Z</time>
      </trkpt>
      <trkpt lat="36.8621978759766" lon="-5.17098712921143">
        <ele>566</ele>
        <time>2019-05-11T21:17:20Z</time>
      </trkpt>
      <trkpt lat="36.8622169494629" lon="-5.17098808288574">
        <ele>566</ele>
        <time>2019-05-11T21:17:22Z</time>
      </trkpt>
      <trkpt lat="36.8622398376465" lon="-5.17098808288574">
        <ele>566</ele>
        <time>2019-05-11T21:17:24Z</time>
      </trkpt>
      <trkpt lat="36.8622550964356" lon="-5.17098999023438">
        <ele>566</ele>
        <time>2019-05-11T21:17:26Z</time>
      </trkpt>
      <trkpt lat="36.8622779846191" lon="-5.17099714279175">
        <ele>566</ele>
        <time>2019-05-11T21:17:28Z</time>
      </trkpt>
      <trkpt lat="36.8622932434082" lon="-5.17100811004639">
        <ele>566</ele>
        <time>2019-05-11T21:17:30Z</time>
      </trkpt>
      <trkpt lat="36.8623085021973" lon="-5.17101812362671">
        <ele>565</ele>
        <time>2019-05-11T21:17:32Z</time>
      </trkpt>
      <trkpt lat="36.8623237609863" lon="-5.17103004455566">
        <ele>565</ele>
        <time>2019-05-11T21:17:34Z</time>
      </trkpt>
      <trkpt lat="36.8623428344727" lon="-5.17104291915894">
        <ele>565</ele>
        <time>2019-05-11T21:17:36Z</time>
      </trkpt>
      <trkpt lat="36.862361907959" lon="-5.17105484008789">
        <ele>565</ele>
        <time>2019-05-11T21:17:38Z</time>
      </trkpt>
      <trkpt lat="36.8623809814453" lon="-5.17107486724854">
        <ele>565</ele>
        <time>2019-05-11T21:17:40Z</time>
      </trkpt>
      <trkpt lat="36.8623924255371" lon="-5.17109489440918">
        <ele>565</ele>
        <time>2019-05-11T21:17:42Z</time>
      </trkpt>
      <trkpt lat="36.8624114990234" lon="-5.17110681533814">
        <ele>565</ele>
        <time>2019-05-11T21:17:44Z</time>
      </trkpt>
      <trkpt lat="36.8624153137207" lon="-5.1711220741272">
        <ele>565</ele>
        <time>2019-05-11T21:17:46Z</time>
      </trkpt>
      <trkpt lat="36.8624114990234" lon="-5.17115020751953">
        <ele>565</ele>
        <time>2019-05-11T21:17:48Z</time>
      </trkpt>
      <trkpt lat="36.8624076843262" lon="-5.17118501663208">
        <ele>565</ele>
        <time>2019-05-11T21:17:50Z</time>
      </trkpt>
      <trkpt lat="36.8624038696289" lon="-5.17121982574463">
        <ele>564</ele>
        <time>2019-05-11T21:17:52Z</time>
      </trkpt>
      <trkpt lat="36.8624000549316" lon="-5.1712532043457">
        <ele>564</ele>
        <time>2019-05-11T21:17:54Z</time>
      </trkpt>
      <trkpt lat="36.8623886108398" lon="-5.1712851524353">
        <ele>564</ele>
        <time>2019-05-11T21:17:56Z</time>
      </trkpt>
      <trkpt lat="36.8623809814453" lon="-5.1713171005249">
        <ele>564</ele>
        <time>2019-05-11T21:17:58Z</time>
      </trkpt>
      <trkpt lat="36.8623733520508" lon="-5.17134809494019">
        <ele>564</ele>
        <time>2019-05-11T21:18:00Z</time>
      </trkpt>
      <trkpt lat="36.8623580932617" lon="-5.17137813568115">
        <ele>564</ele>
        <time>2019-05-11T21:18:02Z</time>
      </trkpt>
      <trkpt lat="36.8623466491699" lon="-5.17141008377075">
        <ele>564</ele>
        <time>2019-05-11T21:18:04Z</time>
      </trkpt>
      <trkpt lat="36.8623275756836" lon="-5.17143821716309">
        <ele>564</ele>
        <time>2019-05-11T21:18:06Z</time>
      </trkpt>
      <trkpt lat="36.8623123168945" lon="-5.17146778106689">
        <ele>564</ele>
        <time>2019-05-11T21:18:08Z</time>
      </trkpt>
      <trkpt lat="36.8622932434082" lon="-5.17149305343628">
        <ele>564</ele>
        <time>2019-05-11T21:18:10Z</time>
      </trkpt>
      <trkpt lat="36.8622703552246" lon="-5.17151498794556">
        <ele>564</ele>
        <time>2019-05-11T21:18:12Z</time>
      </trkpt>
      <trkpt lat="36.8622589111328" lon="-5.17154216766357">
        <ele>564</ele>
        <time>2019-05-11T21:18:14Z</time>
      </trkpt>
      <trkpt lat="36.8622512817383" lon="-5.17157316207886">
        <ele>564</ele>
        <time>2019-05-11T21:18:16Z</time>
      </trkpt>
      <trkpt lat="36.8622512817383" lon="-5.17159986495972">
        <ele>564</ele>
        <time>2019-05-11T21:18:18Z</time>
      </trkpt>
      <trkpt lat="36.8622512817383" lon="-5.17160320281982">
        <ele>564</ele>
        <time>2019-05-11T21:18:20Z</time>
      </trkpt>
      <trkpt lat="36.8622512817383" lon="-5.17158317565918">
        <ele>564</ele>
        <time>2019-05-11T21:18:22Z</time>
      </trkpt>
      <trkpt lat="36.8622589111328" lon="-5.1715669631958">
        <ele>564</ele>
        <time>2019-05-11T21:18:24Z</time>
      </trkpt>
      <trkpt lat="36.8622589111328" lon="-5.1715521812439">
        <ele>563</ele>
        <time>2019-05-11T21:18:26Z</time>
      </trkpt>
      <trkpt lat="36.8622627258301" lon="-5.17153978347778">
        <ele>563</ele>
        <time>2019-05-11T21:18:28Z</time>
      </trkpt>
      <trkpt lat="36.8622665405273" lon="-5.17154216766357">
        <ele>563</ele>
        <time>2019-05-11T21:18:30Z</time>
      </trkpt>
      <trkpt lat="36.8622665405273" lon="-5.17153215408325">
        <ele>563</ele>
        <time>2019-05-11T21:18:32Z</time>
      </trkpt>
      <trkpt lat="36.8622741699219" lon="-5.17150688171387">
        <ele>563</ele>
        <time>2019-05-11T21:18:34Z</time>
      </trkpt>
      <trkpt lat="36.8622817993164" lon="-5.1714768409729">
        <ele>563</ele>
        <time>2019-05-11T21:18:37Z</time>
      </trkpt>
      <trkpt lat="36.8622932434082" lon="-5.1714448928833">
        <ele>563</ele>
        <time>2019-05-11T21:18:39Z</time>
      </trkpt>
      <trkpt lat="36.8623008728027" lon="-5.17141199111938">
        <ele>563</ele>
        <time>2019-05-11T21:18:41Z</time>
      </trkpt>
      <trkpt lat="36.8623085021973" lon="-5.17138004302978">
        <ele>562</ele>
        <time>2019-05-11T21:18:43Z</time>
      </trkpt>
      <trkpt lat="36.8623237609863" lon="-5.1713547706604">
        <ele>562</ele>
        <time>2019-05-11T21:18:45Z</time>
      </trkpt>
      <trkpt lat="36.8623275756836" lon="-5.17133283615112">
        <ele>562</ele>
        <time>2019-05-11T21:18:47Z</time>
      </trkpt>
      <trkpt lat="36.8623237609863" lon="-5.17131280899048">
        <ele>562</ele>
        <time>2019-05-11T21:18:49Z</time>
      </trkpt>
      <trkpt lat="36.8623161315918" lon="-5.17130184173584">
        <ele>561</ele>
        <time>2019-05-11T21:18:51Z</time>
      </trkpt>
      <trkpt lat="36.8623085021973" lon="-5.17128801345825">
        <ele>561</ele>
        <time>2019-05-11T21:18:53Z</time>
      </trkpt>
      <trkpt lat="36.8623008728027" lon="-5.17129802703857">
        <ele>560</ele>
        <time>2019-05-11T21:18:55Z</time>
      </trkpt>
      <trkpt lat="36.8622932434082" lon="-5.1713171005249">
        <ele>559</ele>
        <time>2019-05-11T21:18:57Z</time>
      </trkpt>
      <trkpt lat="36.8622894287109" lon="-5.17133712768555">
        <ele>559</ele>
        <time>2019-05-11T21:18:59Z</time>
      </trkpt>
      <trkpt lat="36.8622856140137" lon="-5.17135715484619">
        <ele>559</ele>
        <time>2019-05-11T21:19:01Z</time>
      </trkpt>
      <trkpt lat="36.8622817993164" lon="-5.17138004302978">
        <ele>559</ele>
        <time>2019-05-11T21:19:03Z</time>
      </trkpt>
      <trkpt lat="36.8622741699219" lon="-5.17140483856201">
        <ele>559</ele>
        <time>2019-05-11T21:19:05Z</time>
      </trkpt>
      <trkpt lat="36.8622703552246" lon="-5.17142486572266">
        <ele>559</ele>
        <time>2019-05-11T21:19:07Z</time>
      </trkpt>
      <trkpt lat="36.8622665405273" lon="-5.17144298553467">
        <ele>559</ele>
        <time>2019-05-11T21:19:09Z</time>
      </trkpt>
      <trkpt lat="36.8622589111328" lon="-5.17146778106689">
        <ele>559</ele>
        <time>2019-05-11T21:19:12Z</time>
      </trkpt>
      <trkpt lat="36.8622512817383" lon="-5.17149686813354">
        <ele>559</ele>
        <time>2019-05-11T21:19:14Z</time>
      </trkpt>
      <trkpt lat="36.8622436523438" lon="-5.17152690887451">
        <ele>559</ele>
        <time>2019-05-11T21:19:16Z</time>
      </trkpt>
      <trkpt lat="36.8622398376465" lon="-5.17154979705811">
        <ele>558</ele>
        <time>2019-05-11T21:19:18Z</time>
      </trkpt>
      <trkpt lat="36.862232208252" lon="-5.17157793045044">
        <ele>558</ele>
        <time>2019-05-11T21:19:20Z</time>
      </trkpt>
      <trkpt lat="36.8622245788574" lon="-5.17160701751709">
        <ele>558</ele>
        <time>2019-05-11T21:19:22Z</time>
      </trkpt>
      <trkpt lat="36.8622131347656" lon="-5.17163181304932">
        <ele>558</ele>
        <time>2019-05-11T21:19:24Z</time>
      </trkpt>
      <trkpt lat="36.8622055053711" lon="-5.1716570854187">
        <ele>558</ele>
        <time>2019-05-11T21:19:26Z</time>
      </trkpt>
      <trkpt lat="36.8622016906738" lon="-5.17167806625366">
        <ele>557</ele>
        <time>2019-05-11T21:19:28Z</time>
      </trkpt>
      <trkpt lat="36.8621940612793" lon="-5.17170190811157">
        <ele>557</ele>
        <time>2019-05-11T21:19:30Z</time>
      </trkpt>
      <trkpt lat="36.8621864318848" lon="-5.17173004150391">
        <ele>557</ele>
        <time>2019-05-11T21:19:32Z</time>
      </trkpt>
      <trkpt lat="36.8621826171875" lon="-5.17175817489624">
        <ele>557</ele>
        <time>2019-05-11T21:19:34Z</time>
      </trkpt>
      <trkpt lat="36.862174987793" lon="-5.17178010940552">
        <ele>556</ele>
        <time>2019-05-11T21:19:36Z</time>
      </trkpt>
      <trkpt lat="36.8621673583984" lon="-5.17180299758911">
        <ele>556</ele>
        <time>2019-05-11T21:19:38Z</time>
      </trkpt>
      <trkpt lat="36.8621635437012" lon="-5.17182779312134">
        <ele>556</ele>
        <time>2019-05-11T21:19:40Z</time>
      </trkpt>
      <trkpt lat="36.8621482849121" lon="-5.17186689376831">
        <ele>555</ele>
        <time>2019-05-11T21:19:42Z</time>
      </trkpt>
      <trkpt lat="36.8621368408203" lon="-5.17189311981201">
        <ele>555</ele>
        <time>2019-05-11T21:19:44Z</time>
      </trkpt>
      <trkpt lat="36.8621292114258" lon="-5.17191791534424">
        <ele>554</ele>
        <time>2019-05-11T21:19:47Z</time>
      </trkpt>
      <trkpt lat="36.8621292114258" lon="-5.17193984985352">
        <ele>554</ele>
        <time>2019-05-11T21:19:49Z</time>
      </trkpt>
      <trkpt lat="36.862117767334" lon="-5.17195177078247">
        <ele>553</ele>
        <time>2019-05-11T21:19:51Z</time>
      </trkpt>
      <trkpt lat="36.8621025085449" lon="-5.17195177078247">
        <ele>553</ele>
        <time>2019-05-11T21:19:53Z</time>
      </trkpt>
      <trkpt lat="36.8620834350586" lon="-5.17194700241089">
        <ele>553</ele>
        <time>2019-05-11T21:19:55Z</time>
      </trkpt>
      <trkpt lat="36.8620681762695" lon="-5.17195177078247">
        <ele>552</ele>
        <time>2019-05-11T21:19:57Z</time>
      </trkpt>
      <trkpt lat="36.8620491027832" lon="-5.1719479560852">
        <ele>552</ele>
        <time>2019-05-11T21:19:59Z</time>
      </trkpt>
      <trkpt lat="36.8620338439941" lon="-5.17195177078247">
        <ele>551</ele>
        <time>2019-05-11T21:20:01Z</time>
      </trkpt>
      <trkpt lat="36.8620185852051" lon="-5.17195320129394">
        <ele>551</ele>
        <time>2019-05-11T21:20:03Z</time>
      </trkpt>
      <trkpt lat="36.8620071411133" lon="-5.17195987701416">
        <ele>550</ele>
        <time>2019-05-11T21:20:05Z</time>
      </trkpt>
      <trkpt lat="36.862003326416" lon="-5.1719799041748">
        <ele>550</ele>
        <time>2019-05-11T21:20:07Z</time>
      </trkpt>
      <trkpt lat="36.8619918823242" lon="-5.17199993133545">
        <ele>550</ele>
        <time>2019-05-11T21:20:09Z</time>
      </trkpt>
      <trkpt lat="36.8619689941406" lon="-5.1720118522644">
        <ele>550</ele>
        <time>2019-05-11T21:20:11Z</time>
      </trkpt>
      <trkpt lat="36.861946105957" lon="-5.17201709747314">
        <ele>550</ele>
        <time>2019-05-11T21:20:13Z</time>
      </trkpt>
      <trkpt lat="36.8619384765625" lon="-5.17202711105347">
        <ele>550</ele>
        <time>2019-05-11T21:20:15Z</time>
      </trkpt>
      <trkpt lat="36.861930847168" lon="-5.17203521728516">
        <ele>550</ele>
        <time>2019-05-11T21:20:17Z</time>
      </trkpt>
      <trkpt lat="36.8619232177734" lon="-5.17204809188843">
        <ele>550</ele>
        <time>2019-05-11T21:20:19Z</time>
      </trkpt>
      <trkpt lat="36.8619079589844" lon="-5.17207288742065">
        <ele>550</ele>
        <time>2019-05-11T21:20:21Z</time>
      </trkpt>
      <trkpt lat="36.8618927001953" lon="-5.17208814620972">
        <ele>550</ele>
        <time>2019-05-11T21:20:23Z</time>
      </trkpt>
      <trkpt lat="36.8618812561035" lon="-5.17210721969604">
        <ele>550</ele>
        <time>2019-05-11T21:20:25Z</time>
      </trkpt>
      <trkpt lat="36.8618774414062" lon="-5.17212677001953">
        <ele>550</ele>
        <time>2019-05-11T21:20:27Z</time>
      </trkpt>
      <trkpt lat="36.8618812561035" lon="-5.17215204238892">
        <ele>550</ele>
        <time>2019-05-11T21:20:29Z</time>
      </trkpt>
      <trkpt lat="36.8618965148926" lon="-5.17217493057251">
        <ele>550</ele>
        <time>2019-05-11T21:20:31Z</time>
      </trkpt>
      <trkpt lat="36.8619194030762" lon="-5.17220020294189">
        <ele>550</ele>
        <time>2019-05-11T21:20:33Z</time>
      </trkpt>
      <trkpt lat="36.861930847168" lon="-5.17222023010254">
        <ele>550</ele>
        <time>2019-05-11T21:20:35Z</time>
      </trkpt>
      <trkpt lat="36.861946105957" lon="-5.17223787307739">
        <ele>550</ele>
        <time>2019-05-11T21:20:37Z</time>
      </trkpt>
      <trkpt lat="36.8619575500488" lon="-5.17225790023804">
        <ele>550</ele>
        <time>2019-05-11T21:20:39Z</time>
      </trkpt>
      <trkpt lat="36.8619728088379" lon="-5.17227792739868">
        <ele>550</ele>
        <time>2019-05-11T21:20:41Z</time>
      </trkpt>
      <trkpt lat="36.8619842529297" lon="-5.17229795455933">
        <ele>550</ele>
        <time>2019-05-11T21:20:43Z</time>
      </trkpt>
      <trkpt lat="36.862003326416" lon="-5.17231702804565">
        <ele>550</ele>
        <time>2019-05-11T21:20:45Z</time>
      </trkpt>
      <trkpt lat="36.8620185852051" lon="-5.17233514785767">
        <ele>550</ele>
        <time>2019-05-11T21:20:47Z</time>
      </trkpt>
      <trkpt lat="36.8620338439941" lon="-5.1723518371582">
        <ele>550</ele>
        <time>2019-05-11T21:20:49Z</time>
      </trkpt>
      <trkpt lat="36.8620414733887" lon="-5.17237710952759">
        <ele>550</ele>
        <time>2019-05-11T21:20:51Z</time>
      </trkpt>
      <trkpt lat="36.8620414733887" lon="-5.17240190505981">
        <ele>550</ele>
        <time>2019-05-11T21:20:53Z</time>
      </trkpt>
      <trkpt lat="36.8620338439941" lon="-5.17242193222046">
        <ele>550</ele>
        <time>2019-05-11T21:20:55Z</time>
      </trkpt>
      <trkpt lat="36.8620223999023" lon="-5.17244815826416">
        <ele>550</ele>
        <time>2019-05-11T21:20:57Z</time>
      </trkpt>
      <trkpt lat="36.8620071411133" lon="-5.17247676849365">
        <ele>550</ele>
        <time>2019-05-11T21:20:59Z</time>
      </trkpt>
      <trkpt lat="36.8619918823242" lon="-5.17250299453735">
        <ele>550</ele>
        <time>2019-05-11T21:21:01Z</time>
      </trkpt>
      <trkpt lat="36.8619766235352" lon="-5.17252779006958">
        <ele>550</ele>
        <time>2019-05-11T21:21:03Z</time>
      </trkpt>
      <trkpt lat="36.8619689941406" lon="-5.17255020141602">
        <ele>550</ele>
        <time>2019-05-11T21:21:05Z</time>
      </trkpt>
      <trkpt lat="36.8619651794434" lon="-5.17257499694824">
        <ele>550</ele>
        <time>2019-05-11T21:21:07Z</time>
      </trkpt>
      <trkpt lat="36.861946105957" lon="-5.17260694503784">
        <ele>550</ele>
        <time>2019-05-11T21:21:09Z</time>
      </trkpt>
      <trkpt lat="36.8619384765625" lon="-5.17261219024658">
        <ele>550</ele>
        <time>2019-05-11T21:21:11Z</time>
      </trkpt>
      <trkpt lat="36.8619422912598" lon="-5.17261981964111">
        <ele>550</ele>
        <time>2019-05-11T21:21:13Z</time>
      </trkpt>
      <trkpt lat="36.861930847168" lon="-5.17263793945312">
        <ele>550</ele>
        <time>2019-05-11T21:21:16Z</time>
      </trkpt>
      <trkpt lat="36.8619155883789" lon="-5.17266178131104">
        <ele>550</ele>
        <time>2019-05-11T21:21:18Z</time>
      </trkpt>
      <trkpt lat="36.8618965148926" lon="-5.17268514633179">
        <ele>550</ele>
        <time>2019-05-11T21:21:20Z</time>
      </trkpt>
      <trkpt lat="36.8618812561035" lon="-5.17270803451538">
        <ele>550</ele>
        <time>2019-05-11T21:21:22Z</time>
      </trkpt>
      <trkpt lat="36.861873626709" lon="-5.17273283004761">
        <ele>550</ele>
        <time>2019-05-11T21:21:24Z</time>
      </trkpt>
      <trkpt lat="36.8618583679199" lon="-5.17275476455688">
        <ele>550</ele>
        <time>2019-05-11T21:21:26Z</time>
      </trkpt>
      <trkpt lat="36.8618431091309" lon="-5.17277717590332">
        <ele>550</ele>
        <time>2019-05-11T21:21:28Z</time>
      </trkpt>
      <trkpt lat="36.8618278503418" lon="-5.17280006408691">
        <ele>550</ele>
        <time>2019-05-11T21:21:30Z</time>
      </trkpt>
      <trkpt lat="36.8618087768555" lon="-5.17282199859619">
        <ele>550</ele>
        <time>2019-05-11T21:21:32Z</time>
      </trkpt>
      <trkpt lat="36.8617935180664" lon="-5.17284488677978">
        <ele>550</ele>
        <time>2019-05-11T21:21:34Z</time>
      </trkpt>
      <trkpt lat="36.8617782592773" lon="-5.17286777496338">
        <ele>550</ele>
        <time>2019-05-11T21:21:36Z</time>
      </trkpt>
      <trkpt lat="36.8617630004883" lon="-5.17289018630981">
        <ele>550</ele>
        <time>2019-05-11T21:21:38Z</time>
      </trkpt>
      <trkpt lat="36.8617477416992" lon="-5.17291307449341">
        <ele>550</ele>
        <time>2019-05-11T21:21:40Z</time>
      </trkpt>
      <trkpt lat="36.8617324829102" lon="-5.17293691635132">
        <ele>550</ele>
        <time>2019-05-11T21:21:42Z</time>
      </trkpt>
      <trkpt lat="36.8617172241211" lon="-5.17295789718628">
        <ele>550</ele>
        <time>2019-05-11T21:21:44Z</time>
      </trkpt>
      <trkpt lat="36.8616981506348" lon="-5.17297983169556">
        <ele>550</ele>
        <time>2019-05-11T21:21:46Z</time>
      </trkpt>
      <trkpt lat="36.861686706543" lon="-5.1729998588562">
        <ele>550</ele>
        <time>2019-05-11T21:21:48Z</time>
      </trkpt>
      <trkpt lat="36.8616676330566" lon="-5.17301988601685">
        <ele>550</ele>
        <time>2019-05-11T21:21:50Z</time>
      </trkpt>
      <trkpt lat="36.8616485595703" lon="-5.17304277420044">
        <ele>550</ele>
        <time>2019-05-11T21:21:52Z</time>
      </trkpt>
      <trkpt lat="36.861629486084" lon="-5.17306518554688">
        <ele>550</ele>
        <time>2019-05-11T21:21:54Z</time>
      </trkpt>
      <trkpt lat="36.8616104125977" lon="-5.17308712005615">
        <ele>550</ele>
        <time>2019-05-11T21:21:56Z</time>
      </trkpt>
      <trkpt lat="36.8615951538086" lon="-5.1731128692627">
        <ele>550</ele>
        <time>2019-05-11T21:21:58Z</time>
      </trkpt>
      <trkpt lat="36.8615798950195" lon="-5.17313718795776">
        <ele>550</ele>
        <time>2019-05-11T21:22:00Z</time>
      </trkpt>
      <trkpt lat="36.8615570068359" lon="-5.17315483093262">
        <ele>549</ele>
        <time>2019-05-11T21:22:02Z</time>
      </trkpt>
      <trkpt lat="36.8615417480469" lon="-5.17317295074463">
        <ele>549</ele>
        <time>2019-05-11T21:22:04Z</time>
      </trkpt>
      <trkpt lat="36.8615188598633" lon="-5.17318677902222">
        <ele>548</ele>
        <time>2019-05-11T21:22:06Z</time>
      </trkpt>
      <trkpt lat="36.8614921569824" lon="-5.17319822311401">
        <ele>547</ele>
        <time>2019-05-11T21:22:08Z</time>
      </trkpt>
      <trkpt lat="36.8614654541016" lon="-5.17320823669434">
        <ele>547</ele>
        <time>2019-05-11T21:22:10Z</time>
      </trkpt>
      <trkpt lat="36.8614387512207" lon="-5.17321014404297">
        <ele>546</ele>
        <time>2019-05-11T21:22:12Z</time>
      </trkpt>
      <trkpt lat="36.8614082336426" lon="-5.17321014404297">
        <ele>546</ele>
        <time>2019-05-11T21:22:14Z</time>
      </trkpt>
      <trkpt lat="36.8613815307617" lon="-5.1732029914856">
        <ele>545</ele>
        <time>2019-05-11T21:22:16Z</time>
      </trkpt>
      <trkpt lat="36.8613510131836" lon="-5.17320013046265">
        <ele>545</ele>
        <time>2019-05-11T21:22:18Z</time>
      </trkpt>
      <trkpt lat="36.861328125" lon="-5.17319202423096">
        <ele>545</ele>
        <time>2019-05-11T21:22:20Z</time>
      </trkpt>
      <trkpt lat="36.8613014221191" lon="-5.17318677902222">
        <ele>545</ele>
        <time>2019-05-11T21:22:22Z</time>
      </trkpt>
      <trkpt lat="36.8612785339356" lon="-5.17317819595337">
        <ele>545</ele>
        <time>2019-05-11T21:22:24Z</time>
      </trkpt>
      <trkpt lat="36.8612518310547" lon="-5.17316722869873">
        <ele>545</ele>
        <time>2019-05-11T21:22:26Z</time>
      </trkpt>
      <trkpt lat="36.8612289428711" lon="-5.17315816879272">
        <ele>545</ele>
        <time>2019-05-11T21:22:28Z</time>
      </trkpt>
      <trkpt lat="36.8612060546875" lon="-5.1731481552124">
        <ele>545</ele>
        <time>2019-05-11T21:22:30Z</time>
      </trkpt>
      <trkpt lat="36.8611831665039" lon="-5.17314004898071">
        <ele>545</ele>
        <time>2019-05-11T21:22:32Z</time>
      </trkpt>
      <trkpt lat="36.861156463623" lon="-5.17313194274902">
        <ele>545</ele>
        <time>2019-05-11T21:22:34Z</time>
      </trkpt>
      <trkpt lat="36.8611335754394" lon="-5.17312479019165">
        <ele>545</ele>
        <time>2019-05-11T21:22:36Z</time>
      </trkpt>
      <trkpt lat="36.8611068725586" lon="-5.17311716079712">
        <ele>545</ele>
        <time>2019-05-11T21:22:38Z</time>
      </trkpt>
      <trkpt lat="36.861083984375" lon="-5.17310810089111">
        <ele>545</ele>
        <time>2019-05-11T21:22:40Z</time>
      </trkpt>
      <trkpt lat="36.8610610961914" lon="-5.17309808731079">
        <ele>545</ele>
        <time>2019-05-11T21:22:42Z</time>
      </trkpt>
      <trkpt lat="36.861026763916" lon="-5.17308282852173">
        <ele>545</ele>
        <time>2019-05-11T21:22:44Z</time>
      </trkpt>
      <trkpt lat="36.8610076904297" lon="-5.17306518554688">
        <ele>545</ele>
        <time>2019-05-11T21:22:46Z</time>
      </trkpt>
      <trkpt lat="36.8609886169434" lon="-5.17304515838623">
        <ele>545</ele>
        <time>2019-05-11T21:22:48Z</time>
      </trkpt>
      <trkpt lat="36.860969543457" lon="-5.17302703857422">
        <ele>545</ele>
        <time>2019-05-11T21:22:51Z</time>
      </trkpt>
      <trkpt lat="36.8609504699707" lon="-5.17300701141357">
        <ele>545</ele>
        <time>2019-05-11T21:22:53Z</time>
      </trkpt>
      <trkpt lat="36.8609352111816" lon="-5.1729850769043">
        <ele>545</ele>
        <time>2019-05-11T21:22:55Z</time>
      </trkpt>
      <trkpt lat="36.8609199523926" lon="-5.17296695709228">
        <ele>545</ele>
        <time>2019-05-11T21:22:57Z</time>
      </trkpt>
      <trkpt lat="36.8609085083008" lon="-5.17294311523438">
        <ele>546</ele>
        <time>2019-05-11T21:22:59Z</time>
      </trkpt>
      <trkpt lat="36.8608932495117" lon="-5.17292213439941">
        <ele>546</ele>
        <time>2019-05-11T21:23:01Z</time>
      </trkpt>
      <trkpt lat="36.8608741760254" lon="-5.17289686203003">
        <ele>546</ele>
        <time>2019-05-11T21:23:03Z</time>
      </trkpt>
      <trkpt lat="36.8608589172363" lon="-5.17287015914917">
        <ele>546</ele>
        <time>2019-05-11T21:23:05Z</time>
      </trkpt>
      <trkpt lat="36.8608436584473" lon="-5.17284679412842">
        <ele>546</ele>
        <time>2019-05-11T21:23:07Z</time>
      </trkpt>
      <trkpt lat="36.8608207702637" lon="-5.17282676696777">
        <ele>547</ele>
        <time>2019-05-11T21:23:09Z</time>
      </trkpt>
      <trkpt lat="36.8608016967773" lon="-5.17281293869019">
        <ele>547</ele>
        <time>2019-05-11T21:23:11Z</time>
      </trkpt>
      <trkpt lat="36.8607788085938" lon="-5.17281293869019">
        <ele>548</ele>
        <time>2019-05-11T21:23:13Z</time>
      </trkpt>
      <trkpt lat="36.8607635498047" lon="-5.17283201217651">
        <ele>548</ele>
        <time>2019-05-11T21:23:15Z</time>
      </trkpt>
      <trkpt lat="36.8607597351074" lon="-5.17285299301147">
        <ele>549</ele>
        <time>2019-05-11T21:23:17Z</time>
      </trkpt>
      <trkpt lat="36.8607559204102" lon="-5.17288017272949">
        <ele>549</ele>
        <time>2019-05-11T21:23:19Z</time>
      </trkpt>
      <trkpt lat="36.8607597351074" lon="-5.17290687561035">
        <ele>550</ele>
        <time>2019-05-11T21:23:21Z</time>
      </trkpt>
      <trkpt lat="36.860767364502" lon="-5.17293500900269">
        <ele>550</ele>
        <time>2019-05-11T21:23:23Z</time>
      </trkpt>
      <trkpt lat="36.8607711791992" lon="-5.1729621887207">
        <ele>550</ele>
        <time>2019-05-11T21:23:25Z</time>
      </trkpt>
      <trkpt lat="36.8607788085938" lon="-5.17298793792725">
        <ele>550</ele>
        <time>2019-05-11T21:23:27Z</time>
      </trkpt>
      <trkpt lat="36.8607902526856" lon="-5.17301511764526">
        <ele>551</ele>
        <time>2019-05-11T21:23:29Z</time>
      </trkpt>
      <trkpt lat="36.8607978820801" lon="-5.17304182052612">
        <ele>551</ele>
        <time>2019-05-11T21:23:31Z</time>
      </trkpt>
      <trkpt lat="36.8608093261719" lon="-5.17306995391846">
        <ele>551</ele>
        <time>2019-05-11T21:23:33Z</time>
      </trkpt>
      <trkpt lat="36.8608207702637" lon="-5.17309713363647">
        <ele>551</ele>
        <time>2019-05-11T21:23:35Z</time>
      </trkpt>
      <trkpt lat="36.86083984375" lon="-5.1731219291687">
        <ele>551</ele>
        <time>2019-05-11T21:23:37Z</time>
      </trkpt>
      <trkpt lat="36.8608551025391" lon="-5.1731481552124">
        <ele>551</ele>
        <time>2019-05-11T21:23:39Z</time>
      </trkpt>
      <trkpt lat="36.8608703613281" lon="-5.17317295074463">
        <ele>551</ele>
        <time>2019-05-11T21:23:41Z</time>
      </trkpt>
      <trkpt lat="36.8608894348144" lon="-5.17319822311401">
        <ele>551</ele>
        <time>2019-05-11T21:23:43Z</time>
      </trkpt>
      <trkpt lat="36.8609085083008" lon="-5.17322206497192">
        <ele>552</ele>
        <time>2019-05-11T21:23:45Z</time>
      </trkpt>
      <trkpt lat="36.8609275817871" lon="-5.17324686050415">
        <ele>552</ele>
        <time>2019-05-11T21:23:47Z</time>
      </trkpt>
      <trkpt lat="36.8609466552734" lon="-5.17327213287354">
        <ele>552</ele>
        <time>2019-05-11T21:23:49Z</time>
      </trkpt>
      <trkpt lat="36.8609657287598" lon="-5.17329502105713">
        <ele>552</ele>
        <time>2019-05-11T21:23:51Z</time>
      </trkpt>
      <trkpt lat="36.8609848022461" lon="-5.17331981658936">
        <ele>552</ele>
        <time>2019-05-11T21:23:53Z</time>
      </trkpt>
      <trkpt lat="36.8610038757324" lon="-5.17334508895874">
        <ele>552</ele>
        <time>2019-05-11T21:23:55Z</time>
      </trkpt>
      <trkpt lat="36.8610229492188" lon="-5.1733717918396">
        <ele>552</ele>
        <time>2019-05-11T21:23:57Z</time>
      </trkpt>
      <trkpt lat="36.8610382080078" lon="-5.17339992523193">
        <ele>552</ele>
        <time>2019-05-11T21:23:59Z</time>
      </trkpt>
      <trkpt lat="36.8610534667969" lon="-5.17342710494995">
        <ele>552</ele>
        <time>2019-05-11T21:24:01Z</time>
      </trkpt>
      <trkpt lat="36.8610687255859" lon="-5.17345523834228">
        <ele>552</ele>
        <time>2019-05-11T21:24:03Z</time>
      </trkpt>
      <trkpt lat="36.8610801696777" lon="-5.17348480224609">
        <ele>552</ele>
        <time>2019-05-11T21:24:05Z</time>
      </trkpt>
      <trkpt lat="36.8610916137695" lon="-5.17351818084717">
        <ele>552</ele>
        <time>2019-05-11T21:24:07Z</time>
      </trkpt>
      <trkpt lat="36.8610954284668" lon="-5.17355012893677">
        <ele>552</ele>
        <time>2019-05-11T21:24:09Z</time>
      </trkpt>
      <trkpt lat="36.8610954284668" lon="-5.17355823516846">
        <ele>552</ele>
        <time>2019-05-11T21:24:11Z</time>
      </trkpt>
      <trkpt lat="36.8610992431641" lon="-5.17356204986572">
        <ele>552</ele>
        <time>2019-05-11T21:24:13Z</time>
      </trkpt>
      <trkpt lat="36.8611030578613" lon="-5.17358207702637">
        <ele>552</ele>
        <time>2019-05-11T21:24:15Z</time>
      </trkpt>
      <trkpt lat="36.8611068725586" lon="-5.17361497879028">
        <ele>552</ele>
        <time>2019-05-11T21:24:17Z</time>
      </trkpt>
      <trkpt lat="36.8611030578613" lon="-5.1736478805542">
        <ele>552</ele>
        <time>2019-05-11T21:24:19Z</time>
      </trkpt>
      <trkpt lat="36.8610916137695" lon="-5.1736798286438">
        <ele>552</ele>
        <time>2019-05-11T21:24:22Z</time>
      </trkpt>
      <trkpt lat="36.8610801696777" lon="-5.1737117767334">
        <ele>552</ele>
        <time>2019-05-11T21:24:24Z</time>
      </trkpt>
      <trkpt lat="36.8610649108887" lon="-5.17374277114868">
        <ele>552</ele>
        <time>2019-05-11T21:24:26Z</time>
      </trkpt>
      <trkpt lat="36.8610458374023" lon="-5.1737699508667">
        <ele>552</ele>
        <time>2019-05-11T21:24:28Z</time>
      </trkpt>
      <trkpt lat="36.8610191345215" lon="-5.17378997802734">
        <ele>552</ele>
        <time>2019-05-11T21:24:30Z</time>
      </trkpt>
      <trkpt lat="36.8609924316406" lon="-5.17380523681641">
        <ele>552</ele>
        <time>2019-05-11T21:24:32Z</time>
      </trkpt>
      <trkpt lat="36.8609657287598" lon="-5.17381715774536">
        <ele>552</ele>
        <time>2019-05-11T21:24:34Z</time>
      </trkpt>
      <trkpt lat="36.8609352111816" lon="-5.17382717132568">
        <ele>552</ele>
        <time>2019-05-11T21:24:36Z</time>
      </trkpt>
      <trkpt lat="36.8609085083008" lon="-5.17382717132568">
        <ele>552</ele>
        <time>2019-05-11T21:24:38Z</time>
      </trkpt>
      <trkpt lat="36.8608818054199" lon="-5.173828125">
        <ele>553</ele>
        <time>2019-05-11T21:24:40Z</time>
      </trkpt>
      <trkpt lat="36.8608512878418" lon="-5.17383003234863">
        <ele>553</ele>
        <time>2019-05-11T21:24:42Z</time>
      </trkpt>
      <trkpt lat="36.8608245849609" lon="-5.17383289337158">
        <ele>553</ele>
        <time>2019-05-11T21:24:44Z</time>
      </trkpt>
      <trkpt lat="36.8607978820801" lon="-5.17383480072022">
        <ele>553</ele>
        <time>2019-05-11T21:24:46Z</time>
      </trkpt>
      <trkpt lat="36.8607711791992" lon="-5.17383813858032">
        <ele>553</ele>
        <time>2019-05-11T21:24:48Z</time>
      </trkpt>
      <trkpt lat="36.8607444763184" lon="-5.17384195327759">
        <ele>553</ele>
        <time>2019-05-11T21:24:50Z</time>
      </trkpt>
      <trkpt lat="36.8607139587402" lon="-5.17384719848633">
        <ele>553</ele>
        <time>2019-05-11T21:24:52Z</time>
      </trkpt>
      <trkpt lat="36.8606872558594" lon="-5.17385482788086">
        <ele>553</ele>
        <time>2019-05-11T21:24:54Z</time>
      </trkpt>
      <trkpt lat="36.8606643676758" lon="-5.17386722564697">
        <ele>553</ele>
        <time>2019-05-11T21:24:56Z</time>
      </trkpt>
      <trkpt lat="36.8606376647949" lon="-5.17387819290161">
        <ele>553</ele>
        <time>2019-05-11T21:24:58Z</time>
      </trkpt>
      <trkpt lat="36.8606109619141" lon="-5.17388820648193">
        <ele>553</ele>
        <time>2019-05-11T21:25:00Z</time>
      </trkpt>
      <trkpt lat="36.8605880737305" lon="-5.17389822006226">
        <ele>553</ele>
        <time>2019-05-11T21:25:02Z</time>
      </trkpt>
      <trkpt lat="36.8605613708496" lon="-5.17391014099121">
        <ele>553</ele>
        <time>2019-05-11T21:25:04Z</time>
      </trkpt>
      <trkpt lat="36.860538482666" lon="-5.17392301559448">
        <ele>553</ele>
        <time>2019-05-11T21:25:06Z</time>
      </trkpt>
      <trkpt lat="36.8605117797852" lon="-5.17393493652344">
        <ele>553</ele>
        <time>2019-05-11T21:25:08Z</time>
      </trkpt>
      <trkpt lat="36.8604888916016" lon="-5.17394781112671">
        <ele>553</ele>
        <time>2019-05-11T21:25:10Z</time>
      </trkpt>
      <trkpt lat="36.8604621887207" lon="-5.17396020889282">
        <ele>553</ele>
        <time>2019-05-11T21:25:12Z</time>
      </trkpt>
      <trkpt lat="36.8604354858398" lon="-5.17397022247314">
        <ele>553</ele>
        <time>2019-05-11T21:25:14Z</time>
      </trkpt>
      <trkpt lat="36.8604125976562" lon="-5.17398023605347">
        <ele>554</ele>
        <time>2019-05-11T21:25:16Z</time>
      </trkpt>
      <trkpt lat="36.8603858947754" lon="-5.17398977279663">
        <ele>554</ele>
        <time>2019-05-11T21:25:18Z</time>
      </trkpt>
      <trkpt lat="36.8603630065918" lon="-5.17399787902832">
        <ele>554</ele>
        <time>2019-05-11T21:25:20Z</time>
      </trkpt>
      <trkpt lat="36.8603363037109" lon="-5.17400312423706">
        <ele>555</ele>
        <time>2019-05-11T21:25:22Z</time>
      </trkpt>
      <trkpt lat="36.8603134155273" lon="-5.17400789260864">
        <ele>555</ele>
        <time>2019-05-11T21:25:24Z</time>
      </trkpt>
      <trkpt lat="36.8602905273438" lon="-5.17401313781738">
        <ele>555</ele>
        <time>2019-05-11T21:25:26Z</time>
      </trkpt>
      <trkpt lat="36.8602638244629" lon="-5.1740198135376">
        <ele>555</ele>
        <time>2019-05-11T21:25:28Z</time>
      </trkpt>
      <trkpt lat="36.8602409362793" lon="-5.17402696609497">
        <ele>556</ele>
        <time>2019-05-11T21:25:30Z</time>
      </trkpt>
      <trkpt lat="36.8602180480957" lon="-5.17403221130371">
        <ele>556</ele>
        <time>2019-05-11T21:25:32Z</time>
      </trkpt>
      <trkpt lat="36.8601913452148" lon="-5.17403697967529">
        <ele>556</ele>
        <time>2019-05-11T21:25:34Z</time>
      </trkpt>
      <trkpt lat="36.8601684570312" lon="-5.17403984069824">
        <ele>557</ele>
        <time>2019-05-11T21:25:36Z</time>
      </trkpt>
      <trkpt lat="36.8601455688477" lon="-5.17404508590698">
        <ele>557</ele>
        <time>2019-05-11T21:25:38Z</time>
      </trkpt>
      <trkpt lat="36.8601226806641" lon="-5.17404699325562">
        <ele>557</ele>
        <time>2019-05-11T21:25:40Z</time>
      </trkpt>
      <trkpt lat="36.8600997924805" lon="-5.17404985427856">
        <ele>557</ele>
        <time>2019-05-11T21:25:42Z</time>
      </trkpt>
      <trkpt lat="36.8600769042969" lon="-5.17405319213867">
        <ele>558</ele>
        <time>2019-05-11T21:25:44Z</time>
      </trkpt>
      <trkpt lat="36.8600387573242" lon="-5.17405986785889">
        <ele>558</ele>
        <time>2019-05-11T21:25:46Z</time>
      </trkpt>
      <trkpt lat="36.8600158691406" lon="-5.17406511306763">
        <ele>558</ele>
        <time>2019-05-11T21:25:48Z</time>
      </trkpt>
      <trkpt lat="36.859992980957" lon="-5.17406702041626">
        <ele>559</ele>
        <time>2019-05-11T21:25:50Z</time>
      </trkpt>
      <trkpt lat="36.8599662780762" lon="-5.17407321929932">
        <ele>559</ele>
        <time>2019-05-11T21:25:52Z</time>
      </trkpt>
      <trkpt lat="36.8599433898926" lon="-5.1740779876709">
        <ele>560</ele>
        <time>2019-05-11T21:25:55Z</time>
      </trkpt>
      <trkpt lat="36.859920501709" lon="-5.17408514022827">
        <ele>560</ele>
        <time>2019-05-11T21:25:57Z</time>
      </trkpt>
      <trkpt lat="36.8598976135254" lon="-5.17409515380859">
        <ele>560</ele>
        <time>2019-05-11T21:25:59Z</time>
      </trkpt>
      <trkpt lat="36.8598747253418" lon="-5.17410278320312">
        <ele>561</ele>
        <time>2019-05-11T21:26:01Z</time>
      </trkpt>
      <trkpt lat="36.8598518371582" lon="-5.17411184310913">
        <ele>561</ele>
        <time>2019-05-11T21:26:03Z</time>
      </trkpt>
      <trkpt lat="36.8598289489746" lon="-5.17411708831787">
        <ele>561</ele>
        <time>2019-05-11T21:26:05Z</time>
      </trkpt>
      <trkpt lat="36.859806060791" lon="-5.17412519454956">
        <ele>562</ele>
        <time>2019-05-11T21:26:07Z</time>
      </trkpt>
      <trkpt lat="36.8597831726074" lon="-5.17413520812988">
        <ele>562</ele>
        <time>2019-05-11T21:26:09Z</time>
      </trkpt>
      <trkpt lat="36.8597564697266" lon="-5.1741452217102">
        <ele>562</ele>
        <time>2019-05-11T21:26:11Z</time>
      </trkpt>
      <trkpt lat="36.859733581543" lon="-5.17415523529053">
        <ele>562</ele>
        <time>2019-05-11T21:26:13Z</time>
      </trkpt>
      <trkpt lat="36.8597068786621" lon="-5.17416477203369">
        <ele>563</ele>
        <time>2019-05-11T21:26:15Z</time>
      </trkpt>
      <trkpt lat="36.8596839904785" lon="-5.1741771697998">
        <ele>563</ele>
        <time>2019-05-11T21:26:17Z</time>
      </trkpt>
      <trkpt lat="36.8596572875977" lon="-5.17418813705444">
        <ele>563</ele>
        <time>2019-05-11T21:26:19Z</time>
      </trkpt>
      <trkpt lat="36.8596343994141" lon="-5.17419815063477">
        <ele>564</ele>
        <time>2019-05-11T21:26:21Z</time>
      </trkpt>
      <trkpt lat="36.8596115112305" lon="-5.17420816421509">
        <ele>564</ele>
        <time>2019-05-11T21:26:23Z</time>
      </trkpt>
      <trkpt lat="36.8595886230469" lon="-5.17421817779541">
        <ele>564</ele>
        <time>2019-05-11T21:26:25Z</time>
      </trkpt>
      <trkpt lat="36.859561920166" lon="-5.17423009872436">
        <ele>564</ele>
        <time>2019-05-11T21:26:27Z</time>
      </trkpt>
      <trkpt lat="36.8595390319824" lon="-5.17423820495606">
        <ele>565</ele>
        <time>2019-05-11T21:26:29Z</time>
      </trkpt>
      <trkpt lat="36.8595123291016" lon="-5.17425012588501">
        <ele>565</ele>
        <time>2019-05-11T21:26:31Z</time>
      </trkpt>
      <trkpt lat="36.8594932556152" lon="-5.17426681518555">
        <ele>565</ele>
        <time>2019-05-11T21:26:33Z</time>
      </trkpt>
      <trkpt lat="36.8594703674316" lon="-5.17428493499756">
        <ele>565</ele>
        <time>2019-05-11T21:26:35Z</time>
      </trkpt>
      <trkpt lat="36.859447479248" lon="-5.17430305480957">
        <ele>566</ele>
        <time>2019-05-11T21:26:37Z</time>
      </trkpt>
      <trkpt lat="36.8594245910644" lon="-5.17432022094727">
        <ele>566</ele>
        <time>2019-05-11T21:26:39Z</time>
      </trkpt>
      <trkpt lat="36.8594017028809" lon="-5.17433500289917">
        <ele>566</ele>
        <time>2019-05-11T21:26:41Z</time>
      </trkpt>
      <trkpt lat="36.8593788146973" lon="-5.17435216903686">
        <ele>566</ele>
        <time>2019-05-11T21:26:43Z</time>
      </trkpt>
      <trkpt lat="36.8593521118164" lon="-5.17436790466309">
        <ele>566</ele>
        <time>2019-05-11T21:26:45Z</time>
      </trkpt>
      <trkpt lat="36.8593292236328" lon="-5.17438220977783">
        <ele>566</ele>
        <time>2019-05-11T21:26:47Z</time>
      </trkpt>
      <trkpt lat="36.8593101501465" lon="-5.1743950843811">
        <ele>567</ele>
        <time>2019-05-11T21:26:49Z</time>
      </trkpt>
      <trkpt lat="36.8592872619629" lon="-5.17440509796143">
        <ele>567</ele>
        <time>2019-05-11T21:26:51Z</time>
      </trkpt>
      <trkpt lat="36.8592643737793" lon="-5.17441701889038">
        <ele>567</ele>
        <time>2019-05-11T21:26:53Z</time>
      </trkpt>
      <trkpt lat="36.8592414855957" lon="-5.17442989349365">
        <ele>567</ele>
        <time>2019-05-11T21:26:55Z</time>
      </trkpt>
      <trkpt lat="36.8592185974121" lon="-5.17444515228272">
        <ele>567</ele>
        <time>2019-05-11T21:26:57Z</time>
      </trkpt>
      <trkpt lat="36.8591918945312" lon="-5.17445707321167">
        <ele>567</ele>
        <time>2019-05-11T21:26:59Z</time>
      </trkpt>
      <trkpt lat="36.8591690063477" lon="-5.17446517944336">
        <ele>567</ele>
        <time>2019-05-11T21:27:01Z</time>
      </trkpt>
      <trkpt lat="36.8591461181641" lon="-5.17447280883789">
        <ele>567</ele>
        <time>2019-05-11T21:27:03Z</time>
      </trkpt>
      <trkpt lat="36.8591270446777" lon="-5.17448282241821">
        <ele>567</ele>
        <time>2019-05-11T21:27:05Z</time>
      </trkpt>
      <trkpt lat="36.8591041564941" lon="-5.17449522018433">
        <ele>567</ele>
        <time>2019-05-11T21:27:07Z</time>
      </trkpt>
      <trkpt lat="36.8590812683106" lon="-5.1745080947876">
        <ele>567</ele>
        <time>2019-05-11T21:27:09Z</time>
      </trkpt>
      <trkpt lat="36.8590621948242" lon="-5.1745228767395">
        <ele>567</ele>
        <time>2019-05-11T21:27:11Z</time>
      </trkpt>
      <trkpt lat="36.8590393066406" lon="-5.17453479766846">
        <ele>567</ele>
        <time>2019-05-11T21:27:13Z</time>
      </trkpt>
      <trkpt lat="36.859016418457" lon="-5.17454719543457">
        <ele>567</ele>
        <time>2019-05-11T21:27:15Z</time>
      </trkpt>
      <trkpt lat="36.859001159668" lon="-5.17456483840942">
        <ele>567</ele>
        <time>2019-05-11T21:27:17Z</time>
      </trkpt>
      <trkpt lat="36.8589820861816" lon="-5.17457818984985">
        <ele>567</ele>
        <time>2019-05-11T21:27:19Z</time>
      </trkpt>
      <trkpt lat="36.8589630126953" lon="-5.17459201812744">
        <ele>568</ele>
        <time>2019-05-11T21:27:21Z</time>
      </trkpt>
      <trkpt lat="36.8589363098144" lon="-5.17461204528809">
        <ele>569</ele>
        <time>2019-05-11T21:27:23Z</time>
      </trkpt>
      <trkpt lat="36.8589172363281" lon="-5.17462682723999">
        <ele>569</ele>
        <time>2019-05-11T21:27:25Z</time>
      </trkpt>
      <trkpt lat="36.8588981628418" lon="-5.17464303970337">
        <ele>570</ele>
        <time>2019-05-11T21:27:27Z</time>
      </trkpt>
      <trkpt lat="36.8588752746582" lon="-5.17466020584106">
        <ele>570</ele>
        <time>2019-05-11T21:27:30Z</time>
      </trkpt>
      <trkpt lat="36.8588562011719" lon="-5.17468023300171">
        <ele>571</ele>
        <time>2019-05-11T21:27:32Z</time>
      </trkpt>
      <trkpt lat="36.8588409423828" lon="-5.17469215393066">
        <ele>571</ele>
        <time>2019-05-11T21:27:34Z</time>
      </trkpt>
      <trkpt lat="36.8588218688965" lon="-5.17470979690552">
        <ele>572</ele>
        <time>2019-05-11T21:27:36Z</time>
      </trkpt>
      <trkpt lat="36.8588027954102" lon="-5.17472219467163">
        <ele>572</ele>
        <time>2019-05-11T21:27:38Z</time>
      </trkpt>
      <trkpt lat="36.8587875366211" lon="-5.17473983764648">
        <ele>573</ele>
        <time>2019-05-11T21:27:40Z</time>
      </trkpt>
      <trkpt lat="36.8587684631348" lon="-5.17475986480713">
        <ele>573</ele>
        <time>2019-05-11T21:27:42Z</time>
      </trkpt>
      <trkpt lat="36.8587493896484" lon="-5.17477703094482">
        <ele>574</ele>
        <time>2019-05-11T21:27:44Z</time>
      </trkpt>
      <trkpt lat="36.8587303161621" lon="-5.17479705810547">
        <ele>574</ele>
        <time>2019-05-11T21:27:46Z</time>
      </trkpt>
      <trkpt lat="36.858715057373" lon="-5.17481517791748">
        <ele>575</ele>
        <time>2019-05-11T21:27:48Z</time>
      </trkpt>
      <trkpt lat="36.858699798584" lon="-5.17483186721802">
        <ele>575</ele>
        <time>2019-05-11T21:27:50Z</time>
      </trkpt>
      <trkpt lat="36.8586769104004" lon="-5.17484521865845">
        <ele>575</ele>
        <time>2019-05-11T21:27:52Z</time>
      </trkpt>
      <trkpt lat="36.8586616516113" lon="-5.17486000061035">
        <ele>575</ele>
        <time>2019-05-11T21:27:54Z</time>
      </trkpt>
      <trkpt lat="36.8586463928223" lon="-5.17487287521362">
        <ele>575</ele>
        <time>2019-05-11T21:27:56Z</time>
      </trkpt>
      <trkpt lat="36.8586235046387" lon="-5.17489004135132">
        <ele>575</ele>
        <time>2019-05-11T21:27:58Z</time>
      </trkpt>
      <trkpt lat="36.8586082458496" lon="-5.17490005493164">
        <ele>576</ele>
        <time>2019-05-11T21:28:00Z</time>
      </trkpt>
      <trkpt lat="36.8585891723633" lon="-5.17491292953491">
        <ele>576</ele>
        <time>2019-05-11T21:28:02Z</time>
      </trkpt>
      <trkpt lat="36.8585662841797" lon="-5.17492818832397">
        <ele>577</ele>
        <time>2019-05-11T21:28:04Z</time>
      </trkpt>
      <trkpt lat="36.8585472106934" lon="-5.17494010925293">
        <ele>577</ele>
        <time>2019-05-11T21:28:06Z</time>
      </trkpt>
      <trkpt lat="36.858528137207" lon="-5.17495489120483">
        <ele>577</ele>
        <time>2019-05-11T21:28:08Z</time>
      </trkpt>
      <trkpt lat="36.8585052490234" lon="-5.17497205734253">
        <ele>578</ele>
        <time>2019-05-11T21:28:10Z</time>
      </trkpt>
      <trkpt lat="36.8584861755371" lon="-5.17498779296875">
        <ele>578</ele>
        <time>2019-05-11T21:28:12Z</time>
      </trkpt>
      <trkpt lat="36.8584671020508" lon="-5.17501020431519">
        <ele>578</ele>
        <time>2019-05-11T21:28:14Z</time>
      </trkpt>
      <trkpt lat="36.8584442138672" lon="-5.17503023147583">
        <ele>578</ele>
        <time>2019-05-11T21:28:16Z</time>
      </trkpt>
      <trkpt lat="36.8584251403809" lon="-5.17504692077637">
        <ele>579</ele>
        <time>2019-05-11T21:28:18Z</time>
      </trkpt>
      <trkpt lat="36.8584060668945" lon="-5.17506504058838">
        <ele>579</ele>
        <time>2019-05-11T21:28:20Z</time>
      </trkpt>
      <trkpt lat="36.8583869934082" lon="-5.17508316040039">
        <ele>579</ele>
        <time>2019-05-11T21:28:22Z</time>
      </trkpt>
      <trkpt lat="36.8583679199219" lon="-5.17510509490967">
        <ele>580</ele>
        <time>2019-05-11T21:28:24Z</time>
      </trkpt>
      <trkpt lat="36.8583450317383" lon="-5.17512512207031">
        <ele>580</ele>
        <time>2019-05-11T21:28:26Z</time>
      </trkpt>
      <trkpt lat="36.858325958252" lon="-5.17513990402222">
        <ele>580</ele>
        <time>2019-05-11T21:28:28Z</time>
      </trkpt>
      <trkpt lat="36.8583068847656" lon="-5.17515802383423">
        <ele>580</ele>
        <time>2019-05-11T21:28:30Z</time>
      </trkpt>
      <trkpt lat="36.858283996582" lon="-5.17517805099487">
        <ele>580</ele>
        <time>2019-05-11T21:28:32Z</time>
      </trkpt>
      <trkpt lat="36.8582649230957" lon="-5.17519998550415">
        <ele>580</ele>
        <time>2019-05-11T21:28:34Z</time>
      </trkpt>
      <trkpt lat="36.8582458496094" lon="-5.17521810531616">
        <ele>580</ele>
        <time>2019-05-11T21:28:36Z</time>
      </trkpt>
      <trkpt lat="36.858226776123" lon="-5.17523813247681">
        <ele>580</ele>
        <time>2019-05-11T21:28:38Z</time>
      </trkpt>
      <trkpt lat="36.8582077026367" lon="-5.17526006698608">
        <ele>580</ele>
        <time>2019-05-11T21:28:40Z</time>
      </trkpt>
      <trkpt lat="36.8581886291504" lon="-5.17528009414673">
        <ele>580</ele>
        <time>2019-05-11T21:28:42Z</time>
      </trkpt>
      <trkpt lat="36.8581733703613" lon="-5.17529821395874">
        <ele>581</ele>
        <time>2019-05-11T21:28:44Z</time>
      </trkpt>
      <trkpt lat="36.858154296875" lon="-5.17531681060791">
        <ele>581</ele>
        <time>2019-05-11T21:28:46Z</time>
      </trkpt>
      <trkpt lat="36.8581352233887" lon="-5.17533206939697">
        <ele>581</ele>
        <time>2019-05-11T21:28:48Z</time>
      </trkpt>
      <trkpt lat="36.8581161499023" lon="-5.17534780502319">
        <ele>582</ele>
        <time>2019-05-11T21:28:50Z</time>
      </trkpt>
      <trkpt lat="36.858097076416" lon="-5.17536497116089">
        <ele>582</ele>
        <time>2019-05-11T21:28:52Z</time>
      </trkpt>
      <trkpt lat="36.8580780029297" lon="-5.17537689208984">
        <ele>582</ele>
        <time>2019-05-11T21:28:54Z</time>
      </trkpt>
      <trkpt lat="36.8580513000488" lon="-5.17540216445923">
        <ele>582</ele>
        <time>2019-05-11T21:28:56Z</time>
      </trkpt>
      <trkpt lat="36.8580322265625" lon="-5.17542314529419">
        <ele>582</ele>
        <time>2019-05-11T21:28:58Z</time>
      </trkpt>
      <trkpt lat="36.8580131530762" lon="-5.1754469871521">
        <ele>583</ele>
        <time>2019-05-11T21:29:00Z</time>
      </trkpt>
      <trkpt lat="36.8579940795898" lon="-5.17546701431274">
        <ele>584</ele>
        <time>2019-05-11T21:29:03Z</time>
      </trkpt>
      <trkpt lat="36.8579711914062" lon="-5.17548322677612">
        <ele>584</ele>
        <time>2019-05-11T21:29:05Z</time>
      </trkpt>
      <trkpt lat="36.8579559326172" lon="-5.17549991607666">
        <ele>585</ele>
        <time>2019-05-11T21:29:07Z</time>
      </trkpt>
      <trkpt lat="36.8579368591309" lon="-5.17551517486572">
        <ele>585</ele>
        <time>2019-05-11T21:29:09Z</time>
      </trkpt>
      <trkpt lat="36.8579216003418" lon="-5.17553520202637">
        <ele>586</ele>
        <time>2019-05-11T21:29:11Z</time>
      </trkpt>
      <trkpt lat="36.8579025268555" lon="-5.17555522918701">
        <ele>586</ele>
        <time>2019-05-11T21:29:13Z</time>
      </trkpt>
      <trkpt lat="36.8578834533691" lon="-5.1755747795105">
        <ele>586</ele>
        <time>2019-05-11T21:29:15Z</time>
      </trkpt>
      <trkpt lat="36.8578643798828" lon="-5.17559814453125">
        <ele>587</ele>
        <time>2019-05-11T21:29:17Z</time>
      </trkpt>
      <trkpt lat="36.8578491210938" lon="-5.17562007904053">
        <ele>588</ele>
        <time>2019-05-11T21:29:19Z</time>
      </trkpt>
      <trkpt lat="36.8578300476074" lon="-5.1756420135498">
        <ele>588</ele>
        <time>2019-05-11T21:29:21Z</time>
      </trkpt>
      <trkpt lat="36.8578147888184" lon="-5.17566299438477">
        <ele>589</ele>
        <time>2019-05-11T21:29:23Z</time>
      </trkpt>
      <trkpt lat="36.8577995300293" lon="-5.17568206787109">
        <ele>589</ele>
        <time>2019-05-11T21:29:25Z</time>
      </trkpt>
      <trkpt lat="36.8577842712402" lon="-5.17570304870606">
        <ele>590</ele>
        <time>2019-05-11T21:29:27Z</time>
      </trkpt>
      <trkpt lat="36.8577651977539" lon="-5.17572498321533">
        <ele>590</ele>
        <time>2019-05-11T21:29:29Z</time>
      </trkpt>
      <trkpt lat="36.8577499389648" lon="-5.17574691772461">
        <ele>590</ele>
        <time>2019-05-11T21:29:31Z</time>
      </trkpt>
      <trkpt lat="36.8577346801758" lon="-5.17576503753662">
        <ele>591</ele>
        <time>2019-05-11T21:29:33Z</time>
      </trkpt>
      <trkpt lat="36.8577156066894" lon="-5.17578792572022">
        <ele>591</ele>
        <time>2019-05-11T21:29:35Z</time>
      </trkpt>
      <trkpt lat="36.8577003479004" lon="-5.17580795288086">
        <ele>591</ele>
        <time>2019-05-11T21:29:37Z</time>
      </trkpt>
      <trkpt lat="36.8576850891113" lon="-5.17582702636719">
        <ele>592</ele>
        <time>2019-05-11T21:29:39Z</time>
      </trkpt>
      <trkpt lat="36.857666015625" lon="-5.1758451461792">
        <ele>592</ele>
        <time>2019-05-11T21:29:41Z</time>
      </trkpt>
      <trkpt lat="36.8576469421387" lon="-5.17586183547974">
        <ele>593</ele>
        <time>2019-05-11T21:29:43Z</time>
      </trkpt>
      <trkpt lat="36.8576316833496" lon="-5.17588186264038">
        <ele>593</ele>
        <time>2019-05-11T21:29:45Z</time>
      </trkpt>
      <trkpt lat="36.857608795166" lon="-5.17589807510376">
        <ele>593</ele>
        <time>2019-05-11T21:29:47Z</time>
      </trkpt>
      <trkpt lat="36.8575897216797" lon="-5.1759147644043">
        <ele>594</ele>
        <time>2019-05-11T21:29:49Z</time>
      </trkpt>
      <trkpt lat="36.8575668334961" lon="-5.17593193054199">
        <ele>594</ele>
        <time>2019-05-11T21:29:51Z</time>
      </trkpt>
      <trkpt lat="36.8575477600098" lon="-5.17594814300537">
        <ele>594</ele>
        <time>2019-05-11T21:29:53Z</time>
      </trkpt>
      <trkpt lat="36.8575286865234" lon="-5.17596292495728">
        <ele>594</ele>
        <time>2019-05-11T21:29:55Z</time>
      </trkpt>
      <trkpt lat="36.8575096130371" lon="-5.17597723007202">
        <ele>595</ele>
        <time>2019-05-11T21:29:57Z</time>
      </trkpt>
      <trkpt lat="36.857494354248" lon="-5.17599201202393">
        <ele>595</ele>
        <time>2019-05-11T21:29:59Z</time>
      </trkpt>
      <trkpt lat="36.8574752807617" lon="-5.1760048866272">
        <ele>596</ele>
        <time>2019-05-11T21:30:01Z</time>
      </trkpt>
      <trkpt lat="36.8574562072754" lon="-5.17602014541626">
        <ele>596</ele>
        <time>2019-05-11T21:30:03Z</time>
      </trkpt>
      <trkpt lat="36.8574333190918" lon="-5.17603492736816">
        <ele>596</ele>
        <time>2019-05-11T21:30:05Z</time>
      </trkpt>
      <trkpt lat="36.857421875" lon="-5.17604684829712">
        <ele>596</ele>
        <time>2019-05-11T21:30:07Z</time>
      </trkpt>
      <trkpt lat="36.8573989868164" lon="-5.17606210708618">
        <ele>597</ele>
        <time>2019-05-11T21:30:09Z</time>
      </trkpt>
      <trkpt lat="36.8573760986328" lon="-5.1760721206665">
        <ele>597</ele>
        <time>2019-05-11T21:30:11Z</time>
      </trkpt>
      <trkpt lat="36.8573570251465" lon="-5.17607688903809">
        <ele>597</ele>
        <time>2019-05-11T21:30:13Z</time>
      </trkpt>
      <trkpt lat="36.8573341369629" lon="-5.17608690261841">
        <ele>597</ele>
        <time>2019-05-11T21:30:15Z</time>
      </trkpt>
      <trkpt lat="36.8573112487793" lon="-5.17609786987305">
        <ele>597</ele>
        <time>2019-05-11T21:30:17Z</time>
      </trkpt>
      <trkpt lat="36.8572883605957" lon="-5.17610692977905">
        <ele>597</ele>
        <time>2019-05-11T21:30:19Z</time>
      </trkpt>
      <trkpt lat="36.8572616577148" lon="-5.17611694335938">
        <ele>597</ele>
        <time>2019-05-11T21:30:21Z</time>
      </trkpt>
      <trkpt lat="36.8572273254394" lon="-5.1761269569397">
        <ele>597</ele>
        <time>2019-05-11T21:30:23Z</time>
      </trkpt>
      <trkpt lat="36.8572082519531" lon="-5.17613697052002">
        <ele>597</ele>
        <time>2019-05-11T21:30:25Z</time>
      </trkpt>
      <trkpt lat="36.8571853637695" lon="-5.17614221572876">
        <ele>597</ele>
        <time>2019-05-11T21:30:27Z</time>
      </trkpt>
      <trkpt lat="36.8571624755859" lon="-5.17614698410034">
        <ele>598</ele>
        <time>2019-05-11T21:30:29Z</time>
      </trkpt>
      <trkpt lat="36.8571395874023" lon="-5.17615222930908">
        <ele>598</ele>
        <time>2019-05-11T21:30:32Z</time>
      </trkpt>
      <trkpt lat="36.8571166992188" lon="-5.17615795135498">
        <ele>598</ele>
        <time>2019-05-11T21:30:34Z</time>
      </trkpt>
      <trkpt lat="36.8570938110352" lon="-5.17616319656372">
        <ele>598</ele>
        <time>2019-05-11T21:30:36Z</time>
      </trkpt>
      <trkpt lat="36.8570709228516" lon="-5.17616987228394">
        <ele>598</ele>
        <time>2019-05-11T21:30:38Z</time>
      </trkpt>
      <trkpt lat="36.857048034668" lon="-5.17617511749268">
        <ele>598</ele>
        <time>2019-05-11T21:30:40Z</time>
      </trkpt>
      <trkpt lat="36.8570251464844" lon="-5.17617797851562">
        <ele>598</ele>
        <time>2019-05-11T21:30:42Z</time>
      </trkpt>
      <trkpt lat="36.8570022583008" lon="-5.176185131073">
        <ele>598</ele>
        <time>2019-05-11T21:30:44Z</time>
      </trkpt>
      <trkpt lat="36.8569831848144" lon="-5.17618989944458">
        <ele>598</ele>
        <time>2019-05-11T21:30:46Z</time>
      </trkpt>
      <trkpt lat="36.8569564819336" lon="-5.17619323730469">
        <ele>598</ele>
        <time>2019-05-11T21:30:48Z</time>
      </trkpt>
      <trkpt lat="36.8569374084473" lon="-5.17619705200195">
        <ele>598</ele>
        <time>2019-05-11T21:30:50Z</time>
      </trkpt>
      <trkpt lat="36.8569145202637" lon="-5.1761999130249">
        <ele>599</ele>
        <time>2019-05-11T21:30:52Z</time>
      </trkpt>
      <trkpt lat="36.8568916320801" lon="-5.17620277404785">
        <ele>599</ele>
        <time>2019-05-11T21:30:54Z</time>
      </trkpt>
      <trkpt lat="36.8568687438965" lon="-5.17620992660522">
        <ele>600</ele>
        <time>2019-05-11T21:30:56Z</time>
      </trkpt>
      <trkpt lat="36.8568420410156" lon="-5.17621183395386">
        <ele>601</ele>
        <time>2019-05-11T21:30:58Z</time>
      </trkpt>
      <trkpt lat="36.8568153381348" lon="-5.17621517181396">
        <ele>601</ele>
        <time>2019-05-11T21:31:00Z</time>
      </trkpt>
      <trkpt lat="36.8567924499512" lon="-5.17621803283691">
        <ele>602</ele>
        <time>2019-05-11T21:31:02Z</time>
      </trkpt>
      <trkpt lat="36.8567657470703" lon="-5.17622184753418">
        <ele>602</ele>
        <time>2019-05-11T21:31:04Z</time>
      </trkpt>
      <trkpt lat="36.8567390441894" lon="-5.1762228012085">
        <ele>602</ele>
        <time>2019-05-11T21:31:06Z</time>
      </trkpt>
      <trkpt lat="36.8567123413086" lon="-5.17622709274292">
        <ele>602</ele>
        <time>2019-05-11T21:31:08Z</time>
      </trkpt>
      <trkpt lat="36.856689453125" lon="-5.17622518539429">
        <ele>603</ele>
        <time>2019-05-11T21:31:10Z</time>
      </trkpt>
      <trkpt lat="36.8566665649414" lon="-5.17622709274292">
        <ele>603</ele>
        <time>2019-05-11T21:31:12Z</time>
      </trkpt>
      <trkpt lat="36.8566436767578" lon="-5.17622995376587">
        <ele>603</ele>
        <time>2019-05-11T21:31:14Z</time>
      </trkpt>
      <trkpt lat="36.8566207885742" lon="-5.17623710632324">
        <ele>603</ele>
        <time>2019-05-11T21:31:16Z</time>
      </trkpt>
      <trkpt lat="36.8565940856934" lon="-5.17624187469482">
        <ele>603</ele>
        <time>2019-05-11T21:31:18Z</time>
      </trkpt>
      <trkpt lat="36.8565711975098" lon="-5.17624187469482">
        <ele>603</ele>
        <time>2019-05-11T21:31:20Z</time>
      </trkpt>
      <trkpt lat="36.8565444946289" lon="-5.17623805999756">
        <ele>603</ele>
        <time>2019-05-11T21:31:22Z</time>
      </trkpt>
      <trkpt lat="36.856517791748" lon="-5.17623996734619">
        <ele>603</ele>
        <time>2019-05-11T21:31:24Z</time>
      </trkpt>
      <trkpt lat="36.8564910888672" lon="-5.17624711990356">
        <ele>603</ele>
        <time>2019-05-11T21:31:26Z</time>
      </trkpt>
      <trkpt lat="36.8564682006836" lon="-5.17624711990356">
        <ele>603</ele>
        <time>2019-05-11T21:31:28Z</time>
      </trkpt>
      <trkpt lat="36.8564414978027" lon="-5.17624998092651">
        <ele>603</ele>
        <time>2019-05-11T21:31:30Z</time>
      </trkpt>
      <trkpt lat="36.8564186096191" lon="-5.17625713348389">
        <ele>603</ele>
        <time>2019-05-11T21:31:32Z</time>
      </trkpt>
      <trkpt lat="36.8563919067383" lon="-5.17626190185547">
        <ele>603</ele>
        <time>2019-05-11T21:31:34Z</time>
      </trkpt>
      <trkpt lat="36.8563652038574" lon="-5.17626714706421">
        <ele>603</ele>
        <time>2019-05-11T21:31:36Z</time>
      </trkpt>
      <trkpt lat="36.8563385009766" lon="-5.17627000808716">
        <ele>603</ele>
        <time>2019-05-11T21:31:38Z</time>
      </trkpt>
      <trkpt lat="36.8563117980957" lon="-5.17627191543579">
        <ele>603</ele>
        <time>2019-05-11T21:31:40Z</time>
      </trkpt>
      <trkpt lat="36.8562850952148" lon="-5.17627477645874">
        <ele>603</ele>
        <time>2019-05-11T21:31:42Z</time>
      </trkpt>
      <trkpt lat="36.856258392334" lon="-5.17627286911011">
        <ele>603</ele>
        <time>2019-05-11T21:31:44Z</time>
      </trkpt>
      <trkpt lat="36.8562316894531" lon="-5.17627811431885">
        <ele>603</ele>
        <time>2019-05-11T21:31:46Z</time>
      </trkpt>
      <trkpt lat="36.8562088012695" lon="-5.17628479003906">
        <ele>603</ele>
        <time>2019-05-11T21:31:48Z</time>
      </trkpt>
      <trkpt lat="36.8561782836914" lon="-5.17628288269043">
        <ele>603</ele>
        <time>2019-05-11T21:31:50Z</time>
      </trkpt>
      <trkpt lat="36.8561515808106" lon="-5.17628479003906">
        <ele>603</ele>
        <time>2019-05-11T21:31:52Z</time>
      </trkpt>
      <trkpt lat="36.856128692627" lon="-5.17629289627075">
        <ele>603</ele>
        <time>2019-05-11T21:31:54Z</time>
      </trkpt>
      <trkpt lat="36.8560981750488" lon="-5.17629814147949">
        <ele>603</ele>
        <time>2019-05-11T21:31:56Z</time>
      </trkpt>
      <trkpt lat="36.856071472168" lon="-5.17630195617676">
        <ele>603</ele>
        <time>2019-05-11T21:31:58Z</time>
      </trkpt>
      <trkpt lat="36.8560333251953" lon="-5.17630815505981">
        <ele>603</ele>
        <time>2019-05-11T21:32:00Z</time>
      </trkpt>
      <trkpt lat="36.8560066223144" lon="-5.17631006240845">
        <ele>603</ele>
        <time>2019-05-11T21:32:02Z</time>
      </trkpt>
      <trkpt lat="36.8559761047363" lon="-5.1763129234314">
        <ele>603</ele>
        <time>2019-05-11T21:32:04Z</time>
      </trkpt>
      <trkpt lat="36.8559532165527" lon="-5.17631721496582">
        <ele>604</ele>
        <time>2019-05-11T21:32:06Z</time>
      </trkpt>
      <trkpt lat="36.8559265136719" lon="-5.1763219833374">
        <ele>604</ele>
        <time>2019-05-11T21:32:09Z</time>
      </trkpt>
      <trkpt lat="36.855899810791" lon="-5.17632722854614">
        <ele>604</ele>
        <time>2019-05-11T21:32:11Z</time>
      </trkpt>
      <trkpt lat="36.8558731079102" lon="-5.17633008956909">
        <ele>604</ele>
        <time>2019-05-11T21:32:13Z</time>
      </trkpt>
      <trkpt lat="36.8558464050293" lon="-5.17633295059204">
        <ele>605</ele>
        <time>2019-05-11T21:32:15Z</time>
      </trkpt>
      <trkpt lat="36.8558235168457" lon="-5.17633199691772">
        <ele>605</ele>
        <time>2019-05-11T21:32:17Z</time>
      </trkpt>
      <trkpt lat="36.8557968139648" lon="-5.17633295059204">
        <ele>605</ele>
        <time>2019-05-11T21:32:19Z</time>
      </trkpt>
      <trkpt lat="36.855770111084" lon="-5.17633819580078">
        <ele>605</ele>
        <time>2019-05-11T21:32:21Z</time>
      </trkpt>
      <trkpt lat="36.8557472229004" lon="-5.17634201049805">
        <ele>605</ele>
        <time>2019-05-11T21:32:23Z</time>
      </trkpt>
      <trkpt lat="36.8557205200195" lon="-5.17634677886963">
        <ele>606</ele>
        <time>2019-05-11T21:32:25Z</time>
      </trkpt>
      <trkpt lat="36.8556938171387" lon="-5.17634677886963">
        <ele>606</ele>
        <time>2019-05-11T21:32:27Z</time>
      </trkpt>
      <trkpt lat="36.8556671142578" lon="-5.17634677886963">
        <ele>606</ele>
        <time>2019-05-11T21:32:29Z</time>
      </trkpt>
      <trkpt lat="36.855640411377" lon="-5.17634677886963">
        <ele>606</ele>
        <time>2019-05-11T21:32:31Z</time>
      </trkpt>
      <trkpt lat="36.8556175231934" lon="-5.17634677886963">
        <ele>606</ele>
        <time>2019-05-11T21:32:33Z</time>
      </trkpt>
      <trkpt lat="36.8555908203125" lon="-5.17635202407837">
        <ele>607</ele>
        <time>2019-05-11T21:32:35Z</time>
      </trkpt>
      <trkpt lat="36.8555641174316" lon="-5.17635488510132">
        <ele>607</ele>
        <time>2019-05-11T21:32:37Z</time>
      </trkpt>
      <trkpt lat="36.855541229248" lon="-5.17635488510132">
        <ele>607</ele>
        <time>2019-05-11T21:32:39Z</time>
      </trkpt>
      <trkpt lat="36.8555183410644" lon="-5.17636203765869">
        <ele>607</ele>
        <time>2019-05-11T21:32:41Z</time>
      </trkpt>
      <trkpt lat="36.8554878234863" lon="-5.17636489868164">
        <ele>607</ele>
        <time>2019-05-11T21:32:43Z</time>
      </trkpt>
      <trkpt lat="36.8554611206055" lon="-5.17636823654175">
        <ele>608</ele>
        <time>2019-05-11T21:32:45Z</time>
      </trkpt>
      <trkpt lat="36.8554344177246" lon="-5.17637491226196">
        <ele>608</ele>
        <time>2019-05-11T21:32:47Z</time>
      </trkpt>
      <trkpt lat="36.8554039001465" lon="-5.17637300491333">
        <ele>608</ele>
        <time>2019-05-11T21:32:49Z</time>
      </trkpt>
      <trkpt lat="36.8553771972656" lon="-5.17637491226196">
        <ele>608</ele>
        <time>2019-05-11T21:32:51Z</time>
      </trkpt>
      <trkpt lat="36.855354309082" lon="-5.1763768196106">
        <ele>608</ele>
        <time>2019-05-11T21:32:53Z</time>
      </trkpt>
      <trkpt lat="36.8553276062012" lon="-5.17638492584228">
        <ele>608</ele>
        <time>2019-05-11T21:32:55Z</time>
      </trkpt>
      <trkpt lat="36.8553009033203" lon="-5.17639017105103">
        <ele>609</ele>
        <time>2019-05-11T21:32:57Z</time>
      </trkpt>
      <trkpt lat="36.8552780151367" lon="-5.17639207839966">
        <ele>609</ele>
        <time>2019-05-11T21:32:59Z</time>
      </trkpt>
      <trkpt lat="36.8552513122559" lon="-5.17639493942261">
        <ele>609</ele>
        <time>2019-05-11T21:33:01Z</time>
      </trkpt>
      <trkpt lat="36.855224609375" lon="-5.17639684677124">
        <ele>609</ele>
        <time>2019-05-11T21:33:03Z</time>
      </trkpt>
      <trkpt lat="36.8551979064941" lon="-5.17640209197998">
        <ele>609</ele>
        <time>2019-05-11T21:33:05Z</time>
      </trkpt>
      <trkpt lat="36.8551712036133" lon="-5.1764121055603">
        <ele>609</ele>
        <time>2019-05-11T21:33:07Z</time>
      </trkpt>
      <trkpt lat="36.8551483154297" lon="-5.1764178276062">
        <ele>609</ele>
        <time>2019-05-11T21:33:09Z</time>
      </trkpt>
      <trkpt lat="36.8551216125488" lon="-5.17642498016357">
        <ele>610</ele>
        <time>2019-05-11T21:33:11Z</time>
      </trkpt>
      <trkpt lat="36.8550987243652" lon="-5.17643022537231">
        <ele>610</ele>
        <time>2019-05-11T21:33:13Z</time>
      </trkpt>
      <trkpt lat="36.8550720214844" lon="-5.17643690109253">
        <ele>610</ele>
        <time>2019-05-11T21:33:15Z</time>
      </trkpt>
      <trkpt lat="36.8550491333008" lon="-5.17644309997559">
        <ele>610</ele>
        <time>2019-05-11T21:33:17Z</time>
      </trkpt>
      <trkpt lat="36.8550224304199" lon="-5.17644691467285">
        <ele>610</ele>
        <time>2019-05-11T21:33:19Z</time>
      </trkpt>
      <trkpt lat="36.8549995422363" lon="-5.17645215988159">
        <ele>610</ele>
        <time>2019-05-11T21:33:21Z</time>
      </trkpt>
      <trkpt lat="36.8549766540527" lon="-5.17645311355591">
        <ele>610</ele>
        <time>2019-05-11T21:33:23Z</time>
      </trkpt>
      <trkpt lat="36.8549537658691" lon="-5.17645692825317">
        <ele>610</ele>
        <time>2019-05-11T21:33:25Z</time>
      </trkpt>
      <trkpt lat="36.8549270629883" lon="-5.17646312713623">
        <ele>610</ele>
        <time>2019-05-11T21:33:27Z</time>
      </trkpt>
      <trkpt lat="36.8549041748047" lon="-5.17646503448486">
        <ele>610</ele>
        <time>2019-05-11T21:33:29Z</time>
      </trkpt>
      <trkpt lat="36.8548736572266" lon="-5.17647218704224">
        <ele>610</ele>
        <time>2019-05-11T21:33:31Z</time>
      </trkpt>
      <trkpt lat="36.8548469543457" lon="-5.17647314071655">
        <ele>610</ele>
        <time>2019-05-11T21:33:33Z</time>
      </trkpt>
      <trkpt lat="36.8548202514648" lon="-5.17647790908814">
        <ele>610</ele>
        <time>2019-05-11T21:33:35Z</time>
      </trkpt>
      <trkpt lat="36.854793548584" lon="-5.17647981643677">
        <ele>610</ele>
        <time>2019-05-11T21:33:37Z</time>
      </trkpt>
      <trkpt lat="36.8547554016113" lon="-5.17648792266846">
        <ele>610</ele>
        <time>2019-05-11T21:33:39Z</time>
      </trkpt>
      <trkpt lat="36.8547325134277" lon="-5.17648506164551">
        <ele>611</ele>
        <time>2019-05-11T21:33:41Z</time>
      </trkpt>
      <trkpt lat="36.8547058105469" lon="-5.17648983001709">
        <ele>611</ele>
        <time>2019-05-11T21:33:43Z</time>
      </trkpt>
      <trkpt lat="36.854679107666" lon="-5.17649221420288">
        <ele>611</ele>
        <time>2019-05-11T21:33:45Z</time>
      </trkpt>
      <trkpt lat="36.8546524047852" lon="-5.17648792266846">
        <ele>611</ele>
        <time>2019-05-11T21:33:48Z</time>
      </trkpt>
      <trkpt lat="36.8546257019043" lon="-5.17648792266846">
        <ele>611</ele>
        <time>2019-05-11T21:33:50Z</time>
      </trkpt>
      <trkpt lat="36.8545989990234" lon="-5.17648696899414">
        <ele>611</ele>
        <time>2019-05-11T21:33:52Z</time>
      </trkpt>
      <trkpt lat="36.8545722961426" lon="-5.17648792266846">
        <ele>612</ele>
        <time>2019-05-11T21:33:54Z</time>
      </trkpt>
      <trkpt lat="36.8545455932617" lon="-5.17648506164551">
        <ele>612</ele>
        <time>2019-05-11T21:33:56Z</time>
      </trkpt>
      <trkpt lat="36.8545227050781" lon="-5.17648220062256">
        <ele>612</ele>
        <time>2019-05-11T21:33:58Z</time>
      </trkpt>
      <trkpt lat="36.8544960021973" lon="-5.17648696899414">
        <ele>612</ele>
        <time>2019-05-11T21:34:00Z</time>
      </trkpt>
      <trkpt lat="36.8544692993164" lon="-5.17649221420288">
        <ele>613</ele>
        <time>2019-05-11T21:34:02Z</time>
      </trkpt>
      <trkpt lat="36.8544425964356" lon="-5.17649221420288">
        <ele>613</ele>
        <time>2019-05-11T21:34:04Z</time>
      </trkpt>
      <trkpt lat="36.854419708252" lon="-5.17649507522583">
        <ele>613</ele>
        <time>2019-05-11T21:34:06Z</time>
      </trkpt>
      <trkpt lat="36.8543930053711" lon="-5.17649793624878">
        <ele>613</ele>
        <time>2019-05-11T21:34:08Z</time>
      </trkpt>
      <trkpt lat="36.8543663024902" lon="-5.17649984359741">
        <ele>613</ele>
        <time>2019-05-11T21:34:10Z</time>
      </trkpt>
      <trkpt lat="36.8543434143066" lon="-5.17649984359741">
        <ele>613</ele>
        <time>2019-05-11T21:34:12Z</time>
      </trkpt>
      <trkpt lat="36.8543167114258" lon="-5.1765022277832">
        <ele>614</ele>
        <time>2019-05-11T21:34:14Z</time>
      </trkpt>
      <trkpt lat="36.8542900085449" lon="-5.17649984359741">
        <ele>614</ele>
        <time>2019-05-11T21:34:16Z</time>
      </trkpt>
      <trkpt lat="36.8542633056641" lon="-5.17650508880615">
        <ele>614</ele>
        <time>2019-05-11T21:34:18Z</time>
      </trkpt>
      <trkpt lat="36.8542327880859" lon="-5.17650699615478">
        <ele>614</ele>
        <time>2019-05-11T21:34:20Z</time>
      </trkpt>
      <trkpt lat="36.8542098999023" lon="-5.17650985717773">
        <ele>614</ele>
        <time>2019-05-11T21:34:22Z</time>
      </trkpt>
      <trkpt lat="36.8541793823242" lon="-5.17651319503784">
        <ele>615</ele>
        <time>2019-05-11T21:34:24Z</time>
      </trkpt>
      <trkpt lat="36.8541526794434" lon="-5.17651700973511">
        <ele>615</ele>
        <time>2019-05-11T21:34:26Z</time>
      </trkpt>
      <trkpt lat="36.8541259765625" lon="-5.17651700973511">
        <ele>615</ele>
        <time>2019-05-11T21:34:28Z</time>
      </trkpt>
      <trkpt lat="36.8540954589844" lon="-5.17651319503784">
        <ele>615</ele>
        <time>2019-05-11T21:34:30Z</time>
      </trkpt>
      <trkpt lat="36.8540687561035" lon="-5.17651700973511">
        <ele>616</ele>
        <time>2019-05-11T21:34:32Z</time>
      </trkpt>
      <trkpt lat="36.8540420532227" lon="-5.17651700973511">
        <ele>616</ele>
        <time>2019-05-11T21:34:34Z</time>
      </trkpt>
      <trkpt lat="36.8540153503418" lon="-5.17651796340942">
        <ele>617</ele>
        <time>2019-05-11T21:34:36Z</time>
      </trkpt>
      <trkpt lat="36.8539924621582" lon="-5.17652320861816">
        <ele>617</ele>
        <time>2019-05-11T21:34:38Z</time>
      </trkpt>
      <trkpt lat="36.8539657592773" lon="-5.17652320861816">
        <ele>617</ele>
        <time>2019-05-11T21:34:40Z</time>
      </trkpt>
      <trkpt lat="36.8539428710938" lon="-5.1765251159668">
        <ele>618</ele>
        <time>2019-05-11T21:34:42Z</time>
      </trkpt>
      <trkpt lat="36.8539161682129" lon="-5.17652702331543">
        <ele>618</ele>
        <time>2019-05-11T21:34:44Z</time>
      </trkpt>
      <trkpt lat="36.853889465332" lon="-5.17652988433838">
        <ele>618</ele>
        <time>2019-05-11T21:34:46Z</time>
      </trkpt>
      <trkpt lat="36.8538627624512" lon="-5.17653322219849">
        <ele>618</ele>
        <time>2019-05-11T21:34:48Z</time>
      </trkpt>
      <trkpt lat="36.8538360595703" lon="-5.17654180526733">
        <ele>618</ele>
        <time>2019-05-11T21:34:50Z</time>
      </trkpt>
      <trkpt lat="36.8538055419922" lon="-5.17654323577881">
        <ele>618</ele>
        <time>2019-05-11T21:34:52Z</time>
      </trkpt>
      <trkpt lat="36.8537788391113" lon="-5.17654800415039">
        <ele>618</ele>
        <time>2019-05-11T21:34:54Z</time>
      </trkpt>
      <trkpt lat="36.8537559509277" lon="-5.17655277252197">
        <ele>618</ele>
        <time>2019-05-11T21:34:56Z</time>
      </trkpt>
      <trkpt lat="36.8537292480469" lon="-5.17656183242798">
        <ele>618</ele>
        <time>2019-05-11T21:34:58Z</time>
      </trkpt>
      <trkpt lat="36.853702545166" lon="-5.17656993865967">
        <ele>618</ele>
        <time>2019-05-11T21:35:00Z</time>
      </trkpt>
      <trkpt lat="36.8536796569824" lon="-5.17657995223999">
        <ele>619</ele>
        <time>2019-05-11T21:35:02Z</time>
      </trkpt>
      <trkpt lat="36.8536529541016" lon="-5.17659282684326">
        <ele>619</ele>
        <time>2019-05-11T21:35:04Z</time>
      </trkpt>
      <trkpt lat="36.853630065918" lon="-5.17660284042358">
        <ele>619</ele>
        <time>2019-05-11T21:35:06Z</time>
      </trkpt>
      <trkpt lat="36.8536033630371" lon="-5.1766152381897">
        <ele>620</ele>
        <time>2019-05-11T21:35:08Z</time>
      </trkpt>
      <trkpt lat="36.8535842895508" lon="-5.17663192749023">
        <ele>620</ele>
        <time>2019-05-11T21:35:10Z</time>
      </trkpt>
      <trkpt lat="36.8535614013672" lon="-5.17664194107056">
        <ele>620</ele>
        <time>2019-05-11T21:35:12Z</time>
      </trkpt>
      <trkpt lat="36.8535385131836" lon="-5.17665481567383">
        <ele>620</ele>
        <time>2019-05-11T21:35:14Z</time>
      </trkpt>
      <trkpt lat="36.8535194396973" lon="-5.17666816711426">
        <ele>620</ele>
        <time>2019-05-11T21:35:16Z</time>
      </trkpt>
      <trkpt lat="36.8534965515137" lon="-5.17668199539185">
        <ele>620</ele>
        <time>2019-05-11T21:35:18Z</time>
      </trkpt>
      <trkpt lat="36.8534736633301" lon="-5.17669677734375">
        <ele>621</ele>
        <time>2019-05-11T21:35:20Z</time>
      </trkpt>
      <trkpt lat="36.8534507751465" lon="-5.17671203613281">
        <ele>621</ele>
        <time>2019-05-11T21:35:22Z</time>
      </trkpt>
      <trkpt lat="36.8534317016602" lon="-5.17672681808472">
        <ele>621</ele>
        <time>2019-05-11T21:35:24Z</time>
      </trkpt>
      <trkpt lat="36.8534164428711" lon="-5.17674493789673">
        <ele>622</ele>
        <time>2019-05-11T21:35:26Z</time>
      </trkpt>
      <trkpt lat="36.8533935546875" lon="-5.17676305770874">
        <ele>622</ele>
        <time>2019-05-11T21:35:28Z</time>
      </trkpt>
      <trkpt lat="36.8533744812012" lon="-5.17678213119507">
        <ele>622</ele>
        <time>2019-05-11T21:35:30Z</time>
      </trkpt>
      <trkpt lat="36.8533592224121" lon="-5.17679691314697">
        <ele>622</ele>
        <time>2019-05-11T21:35:32Z</time>
      </trkpt>
      <trkpt lat="36.8533363342285" lon="-5.17681217193604">
        <ele>622</ele>
        <time>2019-05-11T21:35:34Z</time>
      </trkpt>
      <trkpt lat="36.8533058166504" lon="-5.17683792114258">
        <ele>622</ele>
        <time>2019-05-11T21:35:36Z</time>
      </trkpt>
      <trkpt lat="36.8532867431641" lon="-5.17685508728027">
        <ele>622</ele>
        <time>2019-05-11T21:35:38Z</time>
      </trkpt>
      <trkpt lat="36.8532676696777" lon="-5.17687797546387">
        <ele>623</ele>
        <time>2019-05-11T21:35:40Z</time>
      </trkpt>
      <trkpt lat="36.8532485961914" lon="-5.17689990997314">
        <ele>623</ele>
        <time>2019-05-11T21:35:43Z</time>
      </trkpt>
      <trkpt lat="36.8532257080078" lon="-5.17692279815674">
        <ele>623</ele>
        <time>2019-05-11T21:35:45Z</time>
      </trkpt>
      <trkpt lat="36.8532066345215" lon="-5.17694711685181">
        <ele>623</ele>
        <time>2019-05-11T21:35:47Z</time>
      </trkpt>
      <trkpt lat="36.8531875610352" lon="-5.17696714401245">
        <ele>623</ele>
        <time>2019-05-11T21:35:49Z</time>
      </trkpt>
      <trkpt lat="36.8531684875488" lon="-5.17698812484741">
        <ele>624</ele>
        <time>2019-05-11T21:35:51Z</time>
      </trkpt>
      <trkpt lat="36.8531494140625" lon="-5.17700719833374">
        <ele>624</ele>
        <time>2019-05-11T21:35:53Z</time>
      </trkpt>
      <trkpt lat="36.8531303405762" lon="-5.17702722549438">
        <ele>624</ele>
        <time>2019-05-11T21:35:55Z</time>
      </trkpt>
      <trkpt lat="36.8531112670898" lon="-5.17704820632935">
        <ele>624</ele>
        <time>2019-05-11T21:35:57Z</time>
      </trkpt>
      <trkpt lat="36.8530883789062" lon="-5.17707014083862">
        <ele>624</ele>
        <time>2019-05-11T21:35:59Z</time>
      </trkpt>
      <trkpt lat="36.8530693054199" lon="-5.17708778381348">
        <ele>624</ele>
        <time>2019-05-11T21:36:01Z</time>
      </trkpt>
      <trkpt lat="36.8530540466309" lon="-5.17711210250854">
        <ele>624</ele>
        <time>2019-05-11T21:36:03Z</time>
      </trkpt>
      <trkpt lat="36.8530387878418" lon="-5.17713689804077">
        <ele>624</ele>
        <time>2019-05-11T21:36:05Z</time>
      </trkpt>
      <trkpt lat="36.8530235290527" lon="-5.17715692520142">
        <ele>624</ele>
        <time>2019-05-11T21:36:07Z</time>
      </trkpt>
      <trkpt lat="36.8530082702637" lon="-5.1771821975708">
        <ele>625</ele>
        <time>2019-05-11T21:36:09Z</time>
      </trkpt>
      <trkpt lat="36.8529891967773" lon="-5.17720508575439">
        <ele>625</ele>
        <time>2019-05-11T21:36:11Z</time>
      </trkpt>
      <trkpt lat="36.852970123291" lon="-5.17723512649536">
        <ele>625</ele>
        <time>2019-05-11T21:36:13Z</time>
      </trkpt>
      <trkpt lat="36.852954864502" lon="-5.17726278305054">
        <ele>625</ele>
        <time>2019-05-11T21:36:15Z</time>
      </trkpt>
      <trkpt lat="36.8529357910156" lon="-5.17728805541992">
        <ele>625</ele>
        <time>2019-05-11T21:36:17Z</time>
      </trkpt>
      <trkpt lat="36.8529205322266" lon="-5.17731189727783">
        <ele>626</ele>
        <time>2019-05-11T21:36:19Z</time>
      </trkpt>
      <trkpt lat="36.8529014587402" lon="-5.17733287811279">
        <ele>626</ele>
        <time>2019-05-11T21:36:21Z</time>
      </trkpt>
      <trkpt lat="36.8528861999512" lon="-5.17735719680786">
        <ele>627</ele>
        <time>2019-05-11T21:36:23Z</time>
      </trkpt>
      <trkpt lat="36.8528671264648" lon="-5.17738008499146">
        <ele>627</ele>
        <time>2019-05-11T21:36:25Z</time>
      </trkpt>
      <trkpt lat="36.8528518676758" lon="-5.17740488052368">
        <ele>627</ele>
        <time>2019-05-11T21:36:27Z</time>
      </trkpt>
      <trkpt lat="36.8528327941894" lon="-5.17742681503296">
        <ele>627</ele>
        <time>2019-05-11T21:36:29Z</time>
      </trkpt>
      <trkpt lat="36.8528213500977" lon="-5.17745304107666">
        <ele>627</ele>
        <time>2019-05-11T21:36:31Z</time>
      </trkpt>
      <trkpt lat="36.8528099060059" lon="-5.17748212814331">
        <ele>628</ele>
        <time>2019-05-11T21:36:33Z</time>
      </trkpt>
      <trkpt lat="36.8527908325195" lon="-5.1775050163269">
        <ele>628</ele>
        <time>2019-05-11T21:36:35Z</time>
      </trkpt>
      <trkpt lat="36.8527755737305" lon="-5.1775279045105">
        <ele>628</ele>
        <time>2019-05-11T21:36:37Z</time>
      </trkpt>
      <trkpt lat="36.8527565002441" lon="-5.17755222320557">
        <ele>629</ele>
        <time>2019-05-11T21:36:39Z</time>
      </trkpt>
      <trkpt lat="36.8527412414551" lon="-5.17757797241211">
        <ele>629</ele>
        <time>2019-05-11T21:36:41Z</time>
      </trkpt>
      <trkpt lat="36.852725982666" lon="-5.17760276794434">
        <ele>629</ele>
        <time>2019-05-11T21:36:43Z</time>
      </trkpt>
      <trkpt lat="36.852710723877" lon="-5.1776270866394">
        <ele>630</ele>
        <time>2019-05-11T21:36:45Z</time>
      </trkpt>
      <trkpt lat="36.8526916503906" lon="-5.17765188217163">
        <ele>630</ele>
        <time>2019-05-11T21:36:47Z</time>
      </trkpt>
      <trkpt lat="36.8526802062988" lon="-5.17767477035522">
        <ele>631</ele>
        <time>2019-05-11T21:36:49Z</time>
      </trkpt>
      <trkpt lat="36.8526611328125" lon="-5.17770195007324">
        <ele>631</ele>
        <time>2019-05-11T21:36:51Z</time>
      </trkpt>
      <trkpt lat="36.8526458740234" lon="-5.17772483825684">
        <ele>632</ele>
        <time>2019-05-11T21:36:53Z</time>
      </trkpt>
      <trkpt lat="36.8526268005371" lon="-5.17774820327759">
        <ele>632</ele>
        <time>2019-05-11T21:36:55Z</time>
      </trkpt>
      <trkpt lat="36.852611541748" lon="-5.17777013778686">
        <ele>633</ele>
        <time>2019-05-11T21:36:57Z</time>
      </trkpt>
      <trkpt lat="36.852596282959" lon="-5.17779207229614">
        <ele>634</ele>
        <time>2019-05-11T21:36:59Z</time>
      </trkpt>
      <trkpt lat="36.8525810241699" lon="-5.17781686782837">
        <ele>634</ele>
        <time>2019-05-11T21:37:01Z</time>
      </trkpt>
      <trkpt lat="36.8525695800781" lon="-5.17784690856934">
        <ele>635</ele>
        <time>2019-05-11T21:37:03Z</time>
      </trkpt>
      <trkpt lat="36.8525505065918" lon="-5.17786979675293">
        <ele>635</ele>
        <time>2019-05-11T21:37:05Z</time>
      </trkpt>
      <trkpt lat="36.8525352478027" lon="-5.17789506912231">
        <ele>636</ele>
        <time>2019-05-11T21:37:07Z</time>
      </trkpt>
      <trkpt lat="36.8525123596191" lon="-5.1779351234436">
        <ele>636</ele>
        <time>2019-05-11T21:37:09Z</time>
      </trkpt>
      <trkpt lat="36.8524932861328" lon="-5.17795705795288">
        <ele>636</ele>
        <time>2019-05-11T21:37:11Z</time>
      </trkpt>
      <trkpt lat="36.8524780273438" lon="-5.17797803878784">
        <ele>637</ele>
        <time>2019-05-11T21:37:13Z</time>
      </trkpt>
      <trkpt lat="36.8524589538574" lon="-5.17799997329712">
        <ele>638</ele>
        <time>2019-05-11T21:37:16Z</time>
      </trkpt>
      <trkpt lat="36.8524436950684" lon="-5.17802715301514">
        <ele>638</ele>
        <time>2019-05-11T21:37:18Z</time>
      </trkpt>
      <trkpt lat="36.8524284362793" lon="-5.17805290222168">
        <ele>639</ele>
        <time>2019-05-11T21:37:20Z</time>
      </trkpt>
      <trkpt lat="36.8524131774902" lon="-5.17807817459106">
        <ele>639</ele>
        <time>2019-05-11T21:37:22Z</time>
      </trkpt>
      <trkpt lat="36.8523979187012" lon="-5.17810487747192">
        <ele>640</ele>
        <time>2019-05-11T21:37:24Z</time>
      </trkpt>
      <trkpt lat="36.8523864746094" lon="-5.17813014984131">
        <ele>640</ele>
        <time>2019-05-11T21:37:26Z</time>
      </trkpt>
      <trkpt lat="36.8523712158203" lon="-5.1781530380249">
        <ele>640</ele>
        <time>2019-05-11T21:37:28Z</time>
      </trkpt>
      <trkpt lat="36.8523597717285" lon="-5.17817306518555">
        <ele>640</ele>
        <time>2019-05-11T21:37:30Z</time>
      </trkpt>
      <trkpt lat="36.8523445129394" lon="-5.17819499969482">
        <ele>640</ele>
        <time>2019-05-11T21:37:32Z</time>
      </trkpt>
      <trkpt lat="36.8523254394531" lon="-5.17821788787842">
        <ele>640</ele>
        <time>2019-05-11T21:37:34Z</time>
      </trkpt>
      <trkpt lat="36.8523101806641" lon="-5.1782431602478">
        <ele>640</ele>
        <time>2019-05-11T21:37:36Z</time>
      </trkpt>
      <trkpt lat="36.852294921875" lon="-5.17826700210571">
        <ele>640</ele>
        <time>2019-05-11T21:37:38Z</time>
      </trkpt>
      <trkpt lat="36.8522796630859" lon="-5.17828989028931">
        <ele>640</ele>
        <time>2019-05-11T21:37:40Z</time>
      </trkpt>
      <trkpt lat="36.8522682189941" lon="-5.17831516265869">
        <ele>640</ele>
        <time>2019-05-11T21:37:42Z</time>
      </trkpt>
      <trkpt lat="36.8522529602051" lon="-5.17834281921387">
        <ele>640</ele>
        <time>2019-05-11T21:37:44Z</time>
      </trkpt>
      <trkpt lat="36.8522338867188" lon="-5.17836999893188">
        <ele>640</ele>
        <time>2019-05-11T21:37:46Z</time>
      </trkpt>
      <trkpt lat="36.8522186279297" lon="-5.17839193344116">
        <ele>640</ele>
        <time>2019-05-11T21:37:48Z</time>
      </trkpt>
      <trkpt lat="36.8522033691406" lon="-5.17841720581055">
        <ele>640</ele>
        <time>2019-05-11T21:37:50Z</time>
      </trkpt>
      <trkpt lat="36.8521842956543" lon="-5.17844295501709">
        <ele>640</ele>
        <time>2019-05-11T21:37:52Z</time>
      </trkpt>
      <trkpt lat="36.852165222168" lon="-5.17847299575806">
        <ele>640</ele>
        <time>2019-05-11T21:37:54Z</time>
      </trkpt>
      <trkpt lat="36.8521461486816" lon="-5.17850303649902">
        <ele>640</ele>
        <time>2019-05-11T21:37:56Z</time>
      </trkpt>
      <trkpt lat="36.8521308898926" lon="-5.17853307723999">
        <ele>640</ele>
        <time>2019-05-11T21:37:58Z</time>
      </trkpt>
      <trkpt lat="36.8521118164062" lon="-5.17856311798096">
        <ele>640</ele>
        <time>2019-05-11T21:38:00Z</time>
      </trkpt>
      <trkpt lat="36.8520965576172" lon="-5.17858791351318">
        <ele>640</ele>
        <time>2019-05-11T21:38:02Z</time>
      </trkpt>
      <trkpt lat="36.8520812988281" lon="-5.17861795425415">
        <ele>640</ele>
        <time>2019-05-11T21:38:04Z</time>
      </trkpt>
      <trkpt lat="36.8520660400391" lon="-5.1786470413208">
        <ele>640</ele>
        <time>2019-05-11T21:38:06Z</time>
      </trkpt>
      <trkpt lat="36.85205078125" lon="-5.17867279052734">
        <ele>641</ele>
        <time>2019-05-11T21:38:08Z</time>
      </trkpt>
      <trkpt lat="36.8520355224609" lon="-5.17869997024536">
        <ele>641</ele>
        <time>2019-05-11T21:38:10Z</time>
      </trkpt>
      <trkpt lat="36.8520164489746" lon="-5.17873001098633">
        <ele>642</ele>
        <time>2019-05-11T21:38:12Z</time>
      </trkpt>
      <trkpt lat="36.8520050048828" lon="-5.1787600517273">
        <ele>642</ele>
        <time>2019-05-11T21:38:14Z</time>
      </trkpt>
      <trkpt lat="36.8519897460938" lon="-5.17878723144531">
        <ele>642</ele>
        <time>2019-05-11T21:38:16Z</time>
      </trkpt>
      <trkpt lat="36.8519706726074" lon="-5.1788182258606">
        <ele>642</ele>
        <time>2019-05-11T21:38:18Z</time>
      </trkpt>
      <trkpt lat="36.8519554138184" lon="-5.1788477897644">
        <ele>642</ele>
        <time>2019-05-11T21:38:20Z</time>
      </trkpt>
      <trkpt lat="36.8519401550293" lon="-5.1788821220398">
        <ele>642</ele>
        <time>2019-05-11T21:38:22Z</time>
      </trkpt>
      <trkpt lat="36.8519248962402" lon="-5.17891311645508">
        <ele>643</ele>
        <time>2019-05-11T21:38:24Z</time>
      </trkpt>
      <trkpt lat="36.8519058227539" lon="-5.17894220352173">
        <ele>643</ele>
        <time>2019-05-11T21:38:26Z</time>
      </trkpt>
      <trkpt lat="36.8518943786621" lon="-5.1789698600769">
        <ele>643</ele>
        <time>2019-05-11T21:38:28Z</time>
      </trkpt>
      <trkpt lat="36.851879119873" lon="-5.17899990081787">
        <ele>644</ele>
        <time>2019-05-11T21:38:30Z</time>
      </trkpt>
      <trkpt lat="36.851863861084" lon="-5.17902708053589">
        <ele>644</ele>
        <time>2019-05-11T21:38:32Z</time>
      </trkpt>
      <trkpt lat="36.8518524169922" lon="-5.17905187606812">
        <ele>644</ele>
        <time>2019-05-11T21:38:34Z</time>
      </trkpt>
      <trkpt lat="36.8518371582031" lon="-5.1790771484375">
        <ele>644</ele>
        <time>2019-05-11T21:38:36Z</time>
      </trkpt>
      <trkpt lat="36.8518180847168" lon="-5.17910480499268">
        <ele>644</ele>
        <time>2019-05-11T21:38:38Z</time>
      </trkpt>
      <trkpt lat="36.8517913818359" lon="-5.17912292480469">
        <ele>644</ele>
        <time>2019-05-11T21:38:40Z</time>
      </trkpt>
      <trkpt lat="36.8517761230469" lon="-5.17914295196533">
        <ele>644</ele>
        <time>2019-05-11T21:38:42Z</time>
      </trkpt>
      <trkpt lat="36.8517456054688" lon="-5.17917203903198">
        <ele>644</ele>
        <time>2019-05-11T21:38:44Z</time>
      </trkpt>
      <trkpt lat="36.8517265319824" lon="-5.17918682098389">
        <ele>644</ele>
        <time>2019-05-11T21:38:46Z</time>
      </trkpt>
      <trkpt lat="36.8517036437988" lon="-5.17920017242432">
        <ele>644</ele>
        <time>2019-05-11T21:38:48Z</time>
      </trkpt>
      <trkpt lat="36.8516845703125" lon="-5.17922019958496">
        <ele>644</ele>
        <time>2019-05-11T21:38:51Z</time>
      </trkpt>
      <trkpt lat="36.8516616821289" lon="-5.17923498153686">
        <ele>644</ele>
        <time>2019-05-11T21:38:53Z</time>
      </trkpt>
      <trkpt lat="36.8516464233398" lon="-5.17924785614014">
        <ele>644</ele>
        <time>2019-05-11T21:38:55Z</time>
      </trkpt>
      <trkpt lat="36.8516273498535" lon="-5.17926788330078">
        <ele>644</ele>
        <time>2019-05-11T21:38:57Z</time>
      </trkpt>
      <trkpt lat="36.8516006469727" lon="-5.17928504943848">
        <ele>644</ele>
        <time>2019-05-11T21:38:59Z</time>
      </trkpt>
      <trkpt lat="36.8515777587891" lon="-5.17929792404175">
        <ele>644</ele>
        <time>2019-05-11T21:39:01Z</time>
      </trkpt>
      <trkpt lat="36.8515586853027" lon="-5.17930793762207">
        <ele>644</ele>
        <time>2019-05-11T21:39:03Z</time>
      </trkpt>
      <trkpt lat="36.8515357971191" lon="-5.17931985855103">
        <ele>644</ele>
        <time>2019-05-11T21:39:05Z</time>
      </trkpt>
      <trkpt lat="36.8515129089356" lon="-5.17933702468872">
        <ele>644</ele>
        <time>2019-05-11T21:39:07Z</time>
      </trkpt>
      <trkpt lat="36.8514862060547" lon="-5.17935800552368">
        <ele>644</ele>
        <time>2019-05-11T21:39:09Z</time>
      </trkpt>
      <trkpt lat="36.8514633178711" lon="-5.17937517166138">
        <ele>644</ele>
        <time>2019-05-11T21:39:11Z</time>
      </trkpt>
      <trkpt lat="36.8514442443848" lon="-5.17939519882202">
        <ele>644</ele>
        <time>2019-05-11T21:39:13Z</time>
      </trkpt>
      <trkpt lat="36.8514213562012" lon="-5.17941522598267">
        <ele>644</ele>
        <time>2019-05-11T21:39:15Z</time>
      </trkpt>
      <trkpt lat="36.851390838623" lon="-5.1794319152832">
        <ele>644</ele>
        <time>2019-05-11T21:39:17Z</time>
      </trkpt>
      <trkpt lat="36.8513603210449" lon="-5.17945003509522">
        <ele>644</ele>
        <time>2019-05-11T21:39:19Z</time>
      </trkpt>
      <trkpt lat="36.8513336181641" lon="-5.17947196960449">
        <ele>644</ele>
        <time>2019-05-11T21:39:21Z</time>
      </trkpt>
      <trkpt lat="36.8513069152832" lon="-5.17949295043945">
        <ele>644</ele>
        <time>2019-05-11T21:39:23Z</time>
      </trkpt>
      <trkpt lat="36.8512840270996" lon="-5.17951202392578">
        <ele>643</ele>
        <time>2019-05-11T21:39:25Z</time>
      </trkpt>
      <trkpt lat="36.851261138916" lon="-5.17953014373779">
        <ele>641</ele>
        <time>2019-05-11T21:39:27Z</time>
      </trkpt>
      <trkpt lat="36.8512382507324" lon="-5.17955493927002">
        <ele>641</ele>
        <time>2019-05-11T21:39:29Z</time>
      </trkpt>
      <trkpt lat="36.8512153625488" lon="-5.17958307266235">
        <ele>641</ele>
        <time>2019-05-11T21:39:31Z</time>
      </trkpt>
      <trkpt lat="36.8511962890625" lon="-5.17961311340332">
        <ele>641</ele>
        <time>2019-05-11T21:39:33Z</time>
      </trkpt>
      <trkpt lat="36.8511734008789" lon="-5.17964506149292">
        <ele>641</ele>
        <time>2019-05-11T21:39:35Z</time>
      </trkpt>
      <trkpt lat="36.8511581420898" lon="-5.17967796325684">
        <ele>641</ele>
        <time>2019-05-11T21:39:37Z</time>
      </trkpt>
      <trkpt lat="36.8511428833008" lon="-5.17970705032349">
        <ele>641</ele>
        <time>2019-05-11T21:39:39Z</time>
      </trkpt>
      <trkpt lat="36.851131439209" lon="-5.17974185943604">
        <ele>641</ele>
        <time>2019-05-11T21:39:41Z</time>
      </trkpt>
      <trkpt lat="36.8511238098144" lon="-5.17978000640869">
        <ele>641</ele>
        <time>2019-05-11T21:39:43Z</time>
      </trkpt>
      <trkpt lat="36.8511161804199" lon="-5.17981815338135">
        <ele>641</ele>
        <time>2019-05-11T21:39:45Z</time>
      </trkpt>
      <trkpt lat="36.8511085510254" lon="-5.17985677719116">
        <ele>641</ele>
        <time>2019-05-11T21:39:47Z</time>
      </trkpt>
      <trkpt lat="36.8511085510254" lon="-5.17989206314087">
        <ele>641</ele>
        <time>2019-05-11T21:39:49Z</time>
      </trkpt>
      <trkpt lat="36.8511047363281" lon="-5.17992782592773">
        <ele>641</ele>
        <time>2019-05-11T21:39:51Z</time>
      </trkpt>
      <trkpt lat="36.8511047363281" lon="-5.17996692657471">
        <ele>641</ele>
        <time>2019-05-11T21:39:53Z</time>
      </trkpt>
      <trkpt lat="36.8511085510254" lon="-5.18000507354736">
        <ele>641</ele>
        <time>2019-05-11T21:39:55Z</time>
      </trkpt>
      <trkpt lat="36.8511047363281" lon="-5.18004322052002">
        <ele>641</ele>
        <time>2019-05-11T21:39:57Z</time>
      </trkpt>
      <trkpt lat="36.8511009216309" lon="-5.18007802963257">
        <ele>641</ele>
        <time>2019-05-11T21:39:59Z</time>
      </trkpt>
      <trkpt lat="36.8510971069336" lon="-5.18011713027954">
        <ele>641</ele>
        <time>2019-05-11T21:40:01Z</time>
      </trkpt>
      <trkpt lat="36.8510932922363" lon="-5.18015718460083">
        <ele>641</ele>
        <time>2019-05-11T21:40:03Z</time>
      </trkpt>
      <trkpt lat="36.8510894775391" lon="-5.18019008636475">
        <ele>641</ele>
        <time>2019-05-11T21:40:05Z</time>
      </trkpt>
      <trkpt lat="36.8510780334473" lon="-5.18022203445435">
        <ele>641</ele>
        <time>2019-05-11T21:40:07Z</time>
      </trkpt>
      <trkpt lat="36.8510627746582" lon="-5.18025493621826">
        <ele>640</ele>
        <time>2019-05-11T21:40:09Z</time>
      </trkpt>
      <trkpt lat="36.8510437011719" lon="-5.18028783798218">
        <ele>640</ele>
        <time>2019-05-11T21:40:11Z</time>
      </trkpt>
      <trkpt lat="36.8510284423828" lon="-5.18031978607178">
        <ele>640</ele>
        <time>2019-05-11T21:40:13Z</time>
      </trkpt>
      <trkpt lat="36.8510055541992" lon="-5.18034982681274">
        <ele>639</ele>
        <time>2019-05-11T21:40:15Z</time>
      </trkpt>
      <trkpt lat="36.8509788513184" lon="-5.18039512634277">
        <ele>639</ele>
        <time>2019-05-11T21:40:17Z</time>
      </trkpt>
      <trkpt lat="36.850959777832" lon="-5.18042182922363">
        <ele>639</ele>
        <time>2019-05-11T21:40:19Z</time>
      </trkpt>
      <trkpt lat="36.8509407043457" lon="-5.18044519424438">
        <ele>638</ele>
        <time>2019-05-11T21:40:21Z</time>
      </trkpt>
      <trkpt lat="36.8509216308594" lon="-5.18047189712524">
        <ele>637</ele>
        <time>2019-05-11T21:40:24Z</time>
      </trkpt>
      <trkpt lat="36.8508987426758" lon="-5.18049716949463">
        <ele>636</ele>
        <time>2019-05-11T21:40:26Z</time>
      </trkpt>
      <trkpt lat="36.8508834838867" lon="-5.1805248260498">
        <ele>636</ele>
        <time>2019-05-11T21:40:28Z</time>
      </trkpt>
      <trkpt lat="36.8508682250977" lon="-5.18055486679077">
        <ele>636</ele>
        <time>2019-05-11T21:40:30Z</time>
      </trkpt>
      <trkpt lat="36.8508491516113" lon="-5.18058300018311">
        <ele>636</ele>
        <time>2019-05-11T21:40:32Z</time>
      </trkpt>
      <trkpt lat="36.8508262634277" lon="-5.1806149482727">
        <ele>636</ele>
        <time>2019-05-11T21:40:34Z</time>
      </trkpt>
      <trkpt lat="36.8508148193359" lon="-5.18064498901367">
        <ele>636</ele>
        <time>2019-05-11T21:40:36Z</time>
      </trkpt>
      <trkpt lat="36.8507995605469" lon="-5.18067693710327">
        <ele>636</ele>
        <time>2019-05-11T21:40:38Z</time>
      </trkpt>
      <trkpt lat="36.8507881164551" lon="-5.18070507049561">
        <ele>636</ele>
        <time>2019-05-11T21:40:40Z</time>
      </trkpt>
      <trkpt lat="36.850772857666" lon="-5.18073320388794">
        <ele>636</ele>
        <time>2019-05-11T21:40:42Z</time>
      </trkpt>
      <trkpt lat="36.850757598877" lon="-5.18076181411743">
        <ele>636</ele>
        <time>2019-05-11T21:40:44Z</time>
      </trkpt>
      <trkpt lat="36.8507423400879" lon="-5.18078994750977">
        <ele>636</ele>
        <time>2019-05-11T21:40:46Z</time>
      </trkpt>
      <trkpt lat="36.8507232666016" lon="-5.18081998825073">
        <ele>636</ele>
        <time>2019-05-11T21:40:48Z</time>
      </trkpt>
      <trkpt lat="36.8507118225098" lon="-5.18085193634033">
        <ele>636</ele>
        <time>2019-05-11T21:40:50Z</time>
      </trkpt>
      <trkpt lat="36.8506965637207" lon="-5.1808819770813">
        <ele>636</ele>
        <time>2019-05-11T21:40:52Z</time>
      </trkpt>
      <trkpt lat="36.8506813049316" lon="-5.18091201782227">
        <ele>636</ele>
        <time>2019-05-11T21:40:54Z</time>
      </trkpt>
      <trkpt lat="36.8506660461426" lon="-5.18094491958618">
        <ele>636</ele>
        <time>2019-05-11T21:40:56Z</time>
      </trkpt>
      <trkpt lat="36.8506546020508" lon="-5.18097496032715">
        <ele>636</ele>
        <time>2019-05-11T21:40:58Z</time>
      </trkpt>
      <trkpt lat="36.8506393432617" lon="-5.18100309371948">
        <ele>636</ele>
        <time>2019-05-11T21:41:00Z</time>
      </trkpt>
      <trkpt lat="36.8506317138672" lon="-5.18103218078613">
        <ele>636</ele>
        <time>2019-05-11T21:41:02Z</time>
      </trkpt>
      <trkpt lat="36.8506240844727" lon="-5.18105697631836">
        <ele>636</ele>
        <time>2019-05-11T21:41:04Z</time>
      </trkpt>
      <trkpt lat="36.8506164550781" lon="-5.18108177185059">
        <ele>636</ele>
        <time>2019-05-11T21:41:06Z</time>
      </trkpt>
      <trkpt lat="36.8506126403809" lon="-5.18110799789429">
        <ele>636</ele>
        <time>2019-05-11T21:41:08Z</time>
      </trkpt>
      <trkpt lat="36.8506088256836" lon="-5.18113803863525">
        <ele>635</ele>
        <time>2019-05-11T21:41:10Z</time>
      </trkpt>
      <trkpt lat="36.8506011962891" lon="-5.18116807937622">
        <ele>635</ele>
        <time>2019-05-11T21:41:12Z</time>
      </trkpt>
      <trkpt lat="36.8506011962891" lon="-5.18119812011719">
        <ele>635</ele>
        <time>2019-05-11T21:41:14Z</time>
      </trkpt>
      <trkpt lat="36.8506011962891" lon="-5.18122720718384">
        <ele>635</ele>
        <time>2019-05-11T21:41:16Z</time>
      </trkpt>
      <trkpt lat="36.8506011962891" lon="-5.18125677108765">
        <ele>635</ele>
        <time>2019-05-11T21:41:18Z</time>
      </trkpt>
      <trkpt lat="36.8505973815918" lon="-5.18129014968872">
        <ele>635</ele>
        <time>2019-05-11T21:41:20Z</time>
      </trkpt>
      <trkpt lat="36.8506011962891" lon="-5.18132209777832">
        <ele>635</ele>
        <time>2019-05-11T21:41:22Z</time>
      </trkpt>
      <trkpt lat="36.8506011962891" lon="-5.18135213851929">
        <ele>635</ele>
        <time>2019-05-11T21:41:24Z</time>
      </trkpt>
      <trkpt lat="36.8506011962891" lon="-5.18138313293457">
        <ele>635</ele>
        <time>2019-05-11T21:41:26Z</time>
      </trkpt>
      <trkpt lat="36.8506088256836" lon="-5.18141508102417">
        <ele>635</ele>
        <time>2019-05-11T21:41:28Z</time>
      </trkpt>
      <trkpt lat="36.8506050109863" lon="-5.18145179748535">
        <ele>635</ele>
        <time>2019-05-11T21:41:30Z</time>
      </trkpt>
      <trkpt lat="36.8506050109863" lon="-5.18148803710938">
        <ele>635</ele>
        <time>2019-05-11T21:41:32Z</time>
      </trkpt>
      <trkpt lat="36.8506050109863" lon="-5.18152713775635">
        <ele>635</ele>
        <time>2019-05-11T21:41:34Z</time>
      </trkpt>
      <trkpt lat="36.8506050109863" lon="-5.18156480789185">
        <ele>635</ele>
        <time>2019-05-11T21:41:36Z</time>
      </trkpt>
      <trkpt lat="36.8506011962891" lon="-5.1816029548645">
        <ele>635</ele>
        <time>2019-05-11T21:41:38Z</time>
      </trkpt>
      <trkpt lat="36.8506011962891" lon="-5.18163681030273">
        <ele>635</ele>
        <time>2019-05-11T21:41:40Z</time>
      </trkpt>
      <trkpt lat="36.8506011962891" lon="-5.18167304992676">
        <ele>635</ele>
        <time>2019-05-11T21:41:42Z</time>
      </trkpt>
      <trkpt lat="36.8505973815918" lon="-5.18171310424805">
        <ele>635</ele>
        <time>2019-05-11T21:41:44Z</time>
      </trkpt>
      <trkpt lat="36.8505935668945" lon="-5.18175506591797">
        <ele>635</ele>
        <time>2019-05-11T21:41:46Z</time>
      </trkpt>
      <trkpt lat="36.8505859375" lon="-5.18179321289062">
        <ele>635</ele>
        <time>2019-05-11T21:41:48Z</time>
      </trkpt>
      <trkpt lat="36.8505783081055" lon="-5.18182516098022">
        <ele>635</ele>
        <time>2019-05-11T21:41:50Z</time>
      </trkpt>
      <trkpt lat="36.8505706787109" lon="-5.18184995651245">
        <ele>636</ele>
        <time>2019-05-11T21:41:52Z</time>
      </trkpt>
      <trkpt lat="36.8505630493164" lon="-5.18186807632446">
        <ele>636</ele>
        <time>2019-05-11T21:41:54Z</time>
      </trkpt>
      <trkpt lat="36.8505592346191" lon="-5.18188285827637">
        <ele>637</ele>
        <time>2019-05-11T21:41:56Z</time>
      </trkpt>
      <trkpt lat="36.8505516052246" lon="-5.18189716339111">
        <ele>637</ele>
        <time>2019-05-11T21:41:58Z</time>
      </trkpt>
      <trkpt lat="36.8505363464356" lon="-5.18192195892334">
        <ele>638</ele>
        <time>2019-05-11T21:42:00Z</time>
      </trkpt>
      <trkpt lat="36.8505249023438" lon="-5.18195295333862">
        <ele>638</ele>
        <time>2019-05-11T21:42:02Z</time>
      </trkpt>
      <trkpt lat="36.8505172729492" lon="-5.18198013305664">
        <ele>638</ele>
        <time>2019-05-11T21:42:04Z</time>
      </trkpt>
      <trkpt lat="36.8505058288574" lon="-5.18202495574951">
        <ele>638</ele>
        <time>2019-05-11T21:42:06Z</time>
      </trkpt>
      <trkpt lat="36.8504981994629" lon="-5.1820502281189">
        <ele>638</ele>
        <time>2019-05-11T21:42:08Z</time>
      </trkpt>
      <trkpt lat="36.8504943847656" lon="-5.18207693099976">
        <ele>638</ele>
        <time>2019-05-11T21:42:10Z</time>
      </trkpt>
      <trkpt lat="36.8504867553711" lon="-5.18209791183472">
        <ele>638</ele>
        <time>2019-05-11T21:42:13Z</time>
      </trkpt>
      <trkpt lat="36.8504791259766" lon="-5.18212699890137">
        <ele>638</ele>
        <time>2019-05-11T21:42:15Z</time>
      </trkpt>
      <trkpt lat="36.850471496582" lon="-5.1821551322937">
        <ele>638</ele>
        <time>2019-05-11T21:42:17Z</time>
      </trkpt>
      <trkpt lat="36.850456237793" lon="-5.18218278884888">
        <ele>638</ele>
        <time>2019-05-11T21:42:19Z</time>
      </trkpt>
      <trkpt lat="36.8504447937012" lon="-5.18220710754394">
        <ele>638</ele>
        <time>2019-05-11T21:42:21Z</time>
      </trkpt>
      <trkpt lat="36.8504295349121" lon="-5.18223190307617">
        <ele>638</ele>
        <time>2019-05-11T21:42:23Z</time>
      </trkpt>
      <trkpt lat="36.8504104614258" lon="-5.18225717544556">
        <ele>638</ele>
        <time>2019-05-11T21:42:25Z</time>
      </trkpt>
      <trkpt lat="36.8503952026367" lon="-5.18228197097778">
        <ele>638</ele>
        <time>2019-05-11T21:42:27Z</time>
      </trkpt>
      <trkpt lat="36.8503837585449" lon="-5.18231010437012">
        <ele>638</ele>
        <time>2019-05-11T21:42:29Z</time>
      </trkpt>
      <trkpt lat="36.8503684997559" lon="-5.18234014511108">
        <ele>638</ele>
        <time>2019-05-11T21:42:31Z</time>
      </trkpt>
      <trkpt lat="36.8503570556641" lon="-5.18237209320068">
        <ele>638</ele>
        <time>2019-05-11T21:42:33Z</time>
      </trkpt>
      <trkpt lat="36.8503456115723" lon="-5.18240022659302">
        <ele>638</ele>
        <time>2019-05-11T21:42:35Z</time>
      </trkpt>
      <trkpt lat="36.8503303527832" lon="-5.18243217468262">
        <ele>638</ele>
        <time>2019-05-11T21:42:37Z</time>
      </trkpt>
      <trkpt lat="36.8503112792969" lon="-5.18246507644653">
        <ele>638</ele>
        <time>2019-05-11T21:42:39Z</time>
      </trkpt>
      <trkpt lat="36.8502922058106" lon="-5.18250179290772">
        <ele>638</ele>
        <time>2019-05-11T21:42:41Z</time>
      </trkpt>
      <trkpt lat="36.850269317627" lon="-5.18253707885742">
        <ele>638</ele>
        <time>2019-05-11T21:42:43Z</time>
      </trkpt>
      <trkpt lat="36.8502540588379" lon="-5.18256521224976">
        <ele>638</ele>
        <time>2019-05-11T21:42:45Z</time>
      </trkpt>
      <trkpt lat="36.8502388000488" lon="-5.18259477615356">
        <ele>638</ele>
        <time>2019-05-11T21:42:47Z</time>
      </trkpt>
      <trkpt lat="36.8502197265625" lon="-5.18262481689453">
        <ele>638</ele>
        <time>2019-05-11T21:42:49Z</time>
      </trkpt>
      <trkpt lat="36.8501968383789" lon="-5.18265676498413">
        <ele>638</ele>
        <time>2019-05-11T21:42:51Z</time>
      </trkpt>
      <trkpt lat="36.8501777648926" lon="-5.18268823623657">
        <ele>638</ele>
        <time>2019-05-11T21:42:53Z</time>
      </trkpt>
      <trkpt lat="36.8501586914062" lon="-5.18271780014038">
        <ele>638</ele>
        <time>2019-05-11T21:42:55Z</time>
      </trkpt>
      <trkpt lat="36.8501358032227" lon="-5.1827449798584">
        <ele>638</ele>
        <time>2019-05-11T21:42:57Z</time>
      </trkpt>
      <trkpt lat="36.8501167297363" lon="-5.18277502059936">
        <ele>638</ele>
        <time>2019-05-11T21:42:59Z</time>
      </trkpt>
      <trkpt lat="36.8500938415527" lon="-5.1828031539917">
        <ele>638</ele>
        <time>2019-05-11T21:43:01Z</time>
      </trkpt>
      <trkpt lat="36.8500747680664" lon="-5.18283176422119">
        <ele>639</ele>
        <time>2019-05-11T21:43:03Z</time>
      </trkpt>
      <trkpt lat="36.8500518798828" lon="-5.18286323547363">
        <ele>639</ele>
        <time>2019-05-11T21:43:05Z</time>
      </trkpt>
      <trkpt lat="36.8500366210938" lon="-5.18289184570312">
        <ele>639</ele>
        <time>2019-05-11T21:43:07Z</time>
      </trkpt>
      <trkpt lat="36.8500213623047" lon="-5.18291997909546">
        <ele>639</ele>
        <time>2019-05-11T21:43:09Z</time>
      </trkpt>
      <trkpt lat="36.8500061035156" lon="-5.18294477462769">
        <ele>639</ele>
        <time>2019-05-11T21:43:11Z</time>
      </trkpt>
      <trkpt lat="36.8499908447266" lon="-5.18297004699707">
        <ele>639</ele>
        <time>2019-05-11T21:43:13Z</time>
      </trkpt>
      <trkpt lat="36.8499755859375" lon="-5.1829981803894">
        <ele>639</ele>
        <time>2019-05-11T21:43:15Z</time>
      </trkpt>
      <trkpt lat="36.8499603271484" lon="-5.18302488327026">
        <ele>639</ele>
        <time>2019-05-11T21:43:17Z</time>
      </trkpt>
      <trkpt lat="36.8499412536621" lon="-5.18305015563965">
        <ele>639</ele>
        <time>2019-05-11T21:43:19Z</time>
      </trkpt>
      <trkpt lat="36.849925994873" lon="-5.18307781219482">
        <ele>639</ele>
        <time>2019-05-11T21:43:21Z</time>
      </trkpt>
      <trkpt lat="36.849910736084" lon="-5.18310499191284">
        <ele>639</ele>
        <time>2019-05-11T21:43:23Z</time>
      </trkpt>
      <trkpt lat="36.8498916625977" lon="-5.18313694000244">
        <ele>639</ele>
        <time>2019-05-11T21:43:25Z</time>
      </trkpt>
      <trkpt lat="36.8498687744141" lon="-5.18315982818604">
        <ele>639</ele>
        <time>2019-05-11T21:43:27Z</time>
      </trkpt>
      <trkpt lat="36.8498497009277" lon="-5.18318796157837">
        <ele>639</ele>
        <time>2019-05-11T21:43:29Z</time>
      </trkpt>
      <trkpt lat="36.8498306274414" lon="-5.18321800231934">
        <ele>639</ele>
        <time>2019-05-11T21:43:31Z</time>
      </trkpt>
      <trkpt lat="36.8498115539551" lon="-5.18324518203735">
        <ele>639</ele>
        <time>2019-05-11T21:43:33Z</time>
      </trkpt>
      <trkpt lat="36.849796295166" lon="-5.1832799911499">
        <ele>640</ele>
        <time>2019-05-11T21:43:35Z</time>
      </trkpt>
      <trkpt lat="36.8497772216797" lon="-5.18331480026245">
        <ele>640</ele>
        <time>2019-05-11T21:43:37Z</time>
      </trkpt>
      <trkpt lat="36.8497581481934" lon="-5.18335008621216">
        <ele>640</ele>
        <time>2019-05-11T21:43:39Z</time>
      </trkpt>
      <trkpt lat="36.8497352600098" lon="-5.18338012695312">
        <ele>641</ele>
        <time>2019-05-11T21:43:41Z</time>
      </trkpt>
      <trkpt lat="36.8497085571289" lon="-5.18342304229736">
        <ele>641</ele>
        <time>2019-05-11T21:43:43Z</time>
      </trkpt>
      <trkpt lat="36.8496894836426" lon="-5.18345499038696">
        <ele>641</ele>
        <time>2019-05-11T21:43:45Z</time>
      </trkpt>
      <trkpt lat="36.8496704101562" lon="-5.18348503112793">
        <ele>641</ele>
        <time>2019-05-11T21:43:48Z</time>
      </trkpt>
      <trkpt lat="36.8496513366699" lon="-5.18350791931152">
        <ele>641</ele>
        <time>2019-05-11T21:43:50Z</time>
      </trkpt>
      <trkpt lat="36.8496284484863" lon="-5.18353319168091">
        <ele>641</ele>
        <time>2019-05-11T21:43:52Z</time>
      </trkpt>
      <trkpt lat="36.849609375" lon="-5.18355989456177">
        <ele>641</ele>
        <time>2019-05-11T21:43:54Z</time>
      </trkpt>
      <trkpt lat="36.8495864868164" lon="-5.18358278274536">
        <ele>641</ele>
        <time>2019-05-11T21:43:56Z</time>
      </trkpt>
      <trkpt lat="36.8495674133301" lon="-5.18361186981201">
        <ele>641</ele>
        <time>2019-05-11T21:43:58Z</time>
      </trkpt>
      <trkpt lat="36.8495445251465" lon="-5.18363523483276">
        <ele>641</ele>
        <time>2019-05-11T21:44:00Z</time>
      </trkpt>
      <trkpt lat="36.8495216369629" lon="-5.18365812301636">
        <ele>641</ele>
        <time>2019-05-11T21:44:02Z</time>
      </trkpt>
      <trkpt lat="36.8495025634766" lon="-5.18368291854858">
        <ele>641</ele>
        <time>2019-05-11T21:44:04Z</time>
      </trkpt>
      <trkpt lat="36.849479675293" lon="-5.18370819091797">
        <ele>641</ele>
        <time>2019-05-11T21:44:06Z</time>
      </trkpt>
      <trkpt lat="36.8494567871094" lon="-5.18373489379883">
        <ele>641</ele>
        <time>2019-05-11T21:44:08Z</time>
      </trkpt>
      <trkpt lat="36.8494338989258" lon="-5.18376207351685">
        <ele>641</ele>
        <time>2019-05-11T21:44:10Z</time>
      </trkpt>
      <trkpt lat="36.8494110107422" lon="-5.18378782272339">
        <ele>641</ele>
        <time>2019-05-11T21:44:12Z</time>
      </trkpt>
      <trkpt lat="36.8493881225586" lon="-5.18381500244141">
        <ele>641</ele>
        <time>2019-05-11T21:44:14Z</time>
      </trkpt>
      <trkpt lat="36.849365234375" lon="-5.18384218215942">
        <ele>641</ele>
        <time>2019-05-11T21:44:16Z</time>
      </trkpt>
      <trkpt lat="36.8493461608887" lon="-5.18386507034302">
        <ele>641</ele>
        <time>2019-05-11T21:44:18Z</time>
      </trkpt>
      <trkpt lat="36.8493232727051" lon="-5.18389320373535">
        <ele>641</ele>
        <time>2019-05-11T21:44:20Z</time>
      </trkpt>
      <trkpt lat="36.8493003845215" lon="-5.18392515182495">
        <ele>641</ele>
        <time>2019-05-11T21:44:22Z</time>
      </trkpt>
      <trkpt lat="36.8492813110352" lon="-5.18395805358887">
        <ele>641</ele>
        <time>2019-05-11T21:44:24Z</time>
      </trkpt>
      <trkpt lat="36.8492584228516" lon="-5.18398809432983">
        <ele>641</ele>
        <time>2019-05-11T21:44:26Z</time>
      </trkpt>
      <trkpt lat="36.8492393493652" lon="-5.18401718139648">
        <ele>641</ele>
        <time>2019-05-11T21:44:28Z</time>
      </trkpt>
      <trkpt lat="36.8492279052734" lon="-5.18404817581177">
        <ele>641</ele>
        <time>2019-05-11T21:44:30Z</time>
      </trkpt>
      <trkpt lat="36.8492164611816" lon="-5.18408298492432">
        <ele>642</ele>
        <time>2019-05-11T21:44:32Z</time>
      </trkpt>
      <trkpt lat="36.8491973876953" lon="-5.18411684036255">
        <ele>642</ele>
        <time>2019-05-11T21:44:34Z</time>
      </trkpt>
      <trkpt lat="36.8491859436035" lon="-5.18414688110352">
        <ele>642</ele>
        <time>2019-05-11T21:44:36Z</time>
      </trkpt>
      <trkpt lat="36.8491668701172" lon="-5.18417692184448">
        <ele>642</ele>
        <time>2019-05-11T21:44:38Z</time>
      </trkpt>
      <trkpt lat="36.8491477966309" lon="-5.18420696258545">
        <ele>642</ele>
        <time>2019-05-11T21:44:40Z</time>
      </trkpt>
      <trkpt lat="36.8491363525391" lon="-5.18423795700073">
        <ele>642</ele>
        <time>2019-05-11T21:44:42Z</time>
      </trkpt>
      <trkpt lat="36.84912109375" lon="-5.18427181243896">
        <ele>642</ele>
        <time>2019-05-11T21:44:44Z</time>
      </trkpt>
      <trkpt lat="36.8491058349609" lon="-5.1842999458313">
        <ele>642</ele>
        <time>2019-05-11T21:44:46Z</time>
      </trkpt>
      <trkpt lat="36.8490905761719" lon="-5.1843318939209">
        <ele>642</ele>
        <time>2019-05-11T21:44:48Z</time>
      </trkpt>
      <trkpt lat="36.8490753173828" lon="-5.18436193466186">
        <ele>642</ele>
        <time>2019-05-11T21:44:50Z</time>
      </trkpt>
      <trkpt lat="36.849063873291" lon="-5.18439483642578">
        <ele>642</ele>
        <time>2019-05-11T21:44:52Z</time>
      </trkpt>
      <trkpt lat="36.849048614502" lon="-5.18443012237549">
        <ele>642</ele>
        <time>2019-05-11T21:44:54Z</time>
      </trkpt>
      <trkpt lat="36.8490333557129" lon="-5.18446493148804">
        <ele>642</ele>
        <time>2019-05-11T21:44:56Z</time>
      </trkpt>
      <trkpt lat="36.8490180969238" lon="-5.18450212478638">
        <ele>642</ele>
        <time>2019-05-11T21:44:58Z</time>
      </trkpt>
      <trkpt lat="36.849006652832" lon="-5.18453693389893">
        <ele>642</ele>
        <time>2019-05-11T21:45:00Z</time>
      </trkpt>
      <trkpt lat="36.848991394043" lon="-5.18457221984863">
        <ele>642</ele>
        <time>2019-05-11T21:45:02Z</time>
      </trkpt>
      <trkpt lat="36.8489723205566" lon="-5.18460702896118">
        <ele>642</ele>
        <time>2019-05-11T21:45:04Z</time>
      </trkpt>
      <trkpt lat="36.8489608764648" lon="-5.18463802337646">
        <ele>642</ele>
        <time>2019-05-11T21:45:06Z</time>
      </trkpt>
      <trkpt lat="36.848949432373" lon="-5.18467283248901">
        <ele>642</ele>
        <time>2019-05-11T21:45:08Z</time>
      </trkpt>
      <trkpt lat="36.8489303588867" lon="-5.18470811843872">
        <ele>642</ele>
        <time>2019-05-11T21:45:10Z</time>
      </trkpt>
      <trkpt lat="36.8489112854004" lon="-5.18475484848022">
        <ele>642</ele>
        <time>2019-05-11T21:45:12Z</time>
      </trkpt>
      <trkpt lat="36.8488960266113" lon="-5.18478679656982">
        <ele>642</ele>
        <time>2019-05-11T21:45:14Z</time>
      </trkpt>
      <trkpt lat="36.8488807678223" lon="-5.18481683731079">
        <ele>642</ele>
        <time>2019-05-11T21:45:16Z</time>
      </trkpt>
      <trkpt lat="36.8488655090332" lon="-5.18485021591186">
        <ele>642</ele>
        <time>2019-05-11T21:45:18Z</time>
      </trkpt>
      <trkpt lat="36.8488540649414" lon="-5.18488216400146">
        <ele>642</ele>
        <time>2019-05-11T21:45:20Z</time>
      </trkpt>
      <trkpt lat="36.8488388061523" lon="-5.18491506576538">
        <ele>642</ele>
        <time>2019-05-11T21:45:22Z</time>
      </trkpt>
      <trkpt lat="36.8488235473633" lon="-5.18494176864624">
        <ele>642</ele>
        <time>2019-05-11T21:45:25Z</time>
      </trkpt>
      <trkpt lat="36.8488121032715" lon="-5.18497180938721">
        <ele>642</ele>
        <time>2019-05-11T21:45:27Z</time>
      </trkpt>
      <trkpt lat="36.8488006591797" lon="-5.18499803543091">
        <ele>642</ele>
        <time>2019-05-11T21:45:29Z</time>
      </trkpt>
      <trkpt lat="36.8487854003906" lon="-5.18502712249756">
        <ele>642</ele>
        <time>2019-05-11T21:45:31Z</time>
      </trkpt>
      <trkpt lat="36.8487739562988" lon="-5.18505811691284">
        <ele>642</ele>
        <time>2019-05-11T21:45:33Z</time>
      </trkpt>
      <trkpt lat="36.8487586975098" lon="-5.1850848197937">
        <ele>642</ele>
        <time>2019-05-11T21:45:35Z</time>
      </trkpt>
      <trkpt lat="36.8487434387207" lon="-5.1851167678833">
        <ele>642</ele>
        <time>2019-05-11T21:45:37Z</time>
      </trkpt>
      <trkpt lat="36.8487281799316" lon="-5.18514490127564">
        <ele>642</ele>
        <time>2019-05-11T21:45:39Z</time>
      </trkpt>
      <trkpt lat="36.8487129211426" lon="-5.1851749420166">
        <ele>642</ele>
        <time>2019-05-11T21:45:41Z</time>
      </trkpt>
      <trkpt lat="36.8486938476562" lon="-5.18520307540894">
        <ele>642</ele>
        <time>2019-05-11T21:45:43Z</time>
      </trkpt>
      <trkpt lat="36.8486785888672" lon="-5.1852297782898">
        <ele>642</ele>
        <time>2019-05-11T21:45:45Z</time>
      </trkpt>
      <trkpt lat="36.8486633300781" lon="-5.18525791168213">
        <ele>642</ele>
        <time>2019-05-11T21:45:47Z</time>
      </trkpt>
      <trkpt lat="36.8486442565918" lon="-5.18528699874878">
        <ele>642</ele>
        <time>2019-05-11T21:45:49Z</time>
      </trkpt>
      <trkpt lat="36.8486289978027" lon="-5.18531703948975">
        <ele>642</ele>
        <time>2019-05-11T21:45:51Z</time>
      </trkpt>
      <trkpt lat="36.8486061096191" lon="-5.18534803390503">
        <ele>642</ele>
        <time>2019-05-11T21:45:53Z</time>
      </trkpt>
      <trkpt lat="36.8485908508301" lon="-5.185378074646">
        <ele>642</ele>
        <time>2019-05-11T21:45:55Z</time>
      </trkpt>
      <trkpt lat="36.8485717773438" lon="-5.1854100227356">
        <ele>642</ele>
        <time>2019-05-11T21:45:57Z</time>
      </trkpt>
      <trkpt lat="36.8485565185547" lon="-5.18544006347656">
        <ele>642</ele>
        <time>2019-05-11T21:45:59Z</time>
      </trkpt>
      <trkpt lat="36.8485412597656" lon="-5.18547201156616">
        <ele>642</ele>
        <time>2019-05-11T21:46:01Z</time>
      </trkpt>
      <trkpt lat="36.8485221862793" lon="-5.1855001449585">
        <ele>642</ele>
        <time>2019-05-11T21:46:03Z</time>
      </trkpt>
      <trkpt lat="36.8485069274902" lon="-5.18552780151367">
        <ele>642</ele>
        <time>2019-05-11T21:46:05Z</time>
      </trkpt>
      <trkpt lat="36.8484878540039" lon="-5.18555688858032">
        <ele>642</ele>
        <time>2019-05-11T21:46:07Z</time>
      </trkpt>
      <trkpt lat="36.8484725952148" lon="-5.18558216094971">
        <ele>642</ele>
        <time>2019-05-11T21:46:09Z</time>
      </trkpt>
      <trkpt lat="36.8484573364258" lon="-5.18561220169067">
        <ele>642</ele>
        <time>2019-05-11T21:46:11Z</time>
      </trkpt>
      <trkpt lat="36.848445892334" lon="-5.18564176559448">
        <ele>642</ele>
        <time>2019-05-11T21:46:13Z</time>
      </trkpt>
      <trkpt lat="36.8484306335449" lon="-5.18567180633545">
        <ele>642</ele>
        <time>2019-05-11T21:46:15Z</time>
      </trkpt>
      <trkpt lat="36.8484153747559" lon="-5.18569993972778">
        <ele>642</ele>
        <time>2019-05-11T21:46:17Z</time>
      </trkpt>
      <trkpt lat="36.8483963012695" lon="-5.18572521209717">
        <ele>642</ele>
        <time>2019-05-11T21:46:19Z</time>
      </trkpt>
      <trkpt lat="36.8483772277832" lon="-5.18575286865234">
        <ele>642</ele>
        <time>2019-05-11T21:46:21Z</time>
      </trkpt>
      <trkpt lat="36.8483619689941" lon="-5.18578290939331">
        <ele>642</ele>
        <time>2019-05-11T21:46:23Z</time>
      </trkpt>
      <trkpt lat="36.8483390808106" lon="-5.18581199645996">
        <ele>642</ele>
        <time>2019-05-11T21:46:25Z</time>
      </trkpt>
      <trkpt lat="36.8483200073242" lon="-5.18583822250366">
        <ele>642</ele>
        <time>2019-05-11T21:46:27Z</time>
      </trkpt>
      <trkpt lat="36.8483047485352" lon="-5.18586683273315">
        <ele>642</ele>
        <time>2019-05-11T21:46:29Z</time>
      </trkpt>
      <trkpt lat="36.8482856750488" lon="-5.18589782714844">
        <ele>642</ele>
        <time>2019-05-11T21:46:31Z</time>
      </trkpt>
      <trkpt lat="36.8482704162598" lon="-5.18592691421509">
        <ele>642</ele>
        <time>2019-05-11T21:46:33Z</time>
      </trkpt>
      <trkpt lat="36.8482513427734" lon="-5.18595504760742">
        <ele>642</ele>
        <time>2019-05-11T21:46:35Z</time>
      </trkpt>
      <trkpt lat="36.8482322692871" lon="-5.18598699569702">
        <ele>642</ele>
        <time>2019-05-11T21:46:37Z</time>
      </trkpt>
      <trkpt lat="36.848217010498" lon="-5.18601322174072">
        <ele>642</ele>
        <time>2019-05-11T21:46:39Z</time>
      </trkpt>
      <trkpt lat="36.848201751709" lon="-5.18604516983032">
        <ele>642</ele>
        <time>2019-05-11T21:46:41Z</time>
      </trkpt>
      <trkpt lat="36.8481788635254" lon="-5.18608999252319">
        <ele>642</ele>
        <time>2019-05-11T21:46:43Z</time>
      </trkpt>
      <trkpt lat="36.8481636047363" lon="-5.18611812591553">
        <ele>642</ele>
        <time>2019-05-11T21:46:45Z</time>
      </trkpt>
      <trkpt lat="36.8481521606445" lon="-5.18614292144775">
        <ele>642</ele>
        <time>2019-05-11T21:46:47Z</time>
      </trkpt>
      <trkpt lat="36.8481407165527" lon="-5.18617296218872">
        <ele>642</ele>
        <time>2019-05-11T21:46:49Z</time>
      </trkpt>
      <trkpt lat="36.8481254577637" lon="-5.18619823455811">
        <ele>642</ele>
        <time>2019-05-11T21:46:51Z</time>
      </trkpt>
      <trkpt lat="36.8481063842773" lon="-5.18622493743896">
        <ele>642</ele>
        <time>2019-05-11T21:46:53Z</time>
      </trkpt>
      <trkpt lat="36.8480949401856" lon="-5.1862530708313">
        <ele>642</ele>
        <time>2019-05-11T21:46:55Z</time>
      </trkpt>
      <trkpt lat="36.8480834960938" lon="-5.18627786636353">
        <ele>642</ele>
        <time>2019-05-11T21:46:58Z</time>
      </trkpt>
      <trkpt lat="36.8480682373047" lon="-5.1862998008728">
        <ele>642</ele>
        <time>2019-05-11T21:47:00Z</time>
      </trkpt>
      <trkpt lat="36.8480529785156" lon="-5.18631982803345">
        <ele>642</ele>
        <time>2019-05-11T21:47:02Z</time>
      </trkpt>
      <trkpt lat="36.8480339050293" lon="-5.18634510040283">
        <ele>642</ele>
        <time>2019-05-11T21:47:04Z</time>
      </trkpt>
      <trkpt lat="36.8480186462402" lon="-5.18636703491211">
        <ele>642</ele>
        <time>2019-05-11T21:47:06Z</time>
      </trkpt>
      <trkpt lat="36.8480033874512" lon="-5.18639278411865">
        <ele>642</ele>
        <time>2019-05-11T21:47:08Z</time>
      </trkpt>
      <trkpt lat="36.8479804992676" lon="-5.1864218711853">
        <ele>642</ele>
        <time>2019-05-11T21:47:10Z</time>
      </trkpt>
      <trkpt lat="36.8479614257812" lon="-5.186448097229">
        <ele>642</ele>
        <time>2019-05-11T21:47:12Z</time>
      </trkpt>
      <trkpt lat="36.8479423522949" lon="-5.18647718429565">
        <ele>642</ele>
        <time>2019-05-11T21:47:14Z</time>
      </trkpt>
      <trkpt lat="36.8479232788086" lon="-5.18650722503662">
        <ele>642</ele>
        <time>2019-05-11T21:47:16Z</time>
      </trkpt>
      <trkpt lat="36.8479042053223" lon="-5.1865382194519">
        <ele>642</ele>
        <time>2019-05-11T21:47:18Z</time>
      </trkpt>
      <trkpt lat="36.8478889465332" lon="-5.18656778335571">
        <ele>642</ele>
        <time>2019-05-11T21:47:20Z</time>
      </trkpt>
      <trkpt lat="36.8478736877441" lon="-5.18659782409668">
        <ele>643</ele>
        <time>2019-05-11T21:47:22Z</time>
      </trkpt>
      <trkpt lat="36.8478584289551" lon="-5.18662691116333">
        <ele>643</ele>
        <time>2019-05-11T21:47:24Z</time>
      </trkpt>
      <trkpt lat="36.847843170166" lon="-5.18665790557861">
        <ele>643</ele>
        <time>2019-05-11T21:47:26Z</time>
      </trkpt>
      <trkpt lat="36.8478240966797" lon="-5.18668508529663">
        <ele>643</ele>
        <time>2019-05-11T21:47:28Z</time>
      </trkpt>
      <trkpt lat="36.8478088378906" lon="-5.18670797348022">
        <ele>643</ele>
        <time>2019-05-11T21:47:30Z</time>
      </trkpt>
      <trkpt lat="36.847785949707" lon="-5.18673706054688">
        <ele>643</ele>
        <time>2019-05-11T21:47:32Z</time>
      </trkpt>
      <trkpt lat="36.8477668762207" lon="-5.1867618560791">
        <ele>643</ele>
        <time>2019-05-11T21:47:34Z</time>
      </trkpt>
      <trkpt lat="36.8477439880371" lon="-5.18678998947144">
        <ele>643</ele>
        <time>2019-05-11T21:47:36Z</time>
      </trkpt>
      <trkpt lat="36.8477210998535" lon="-5.18681716918945">
        <ele>643</ele>
        <time>2019-05-11T21:47:38Z</time>
      </trkpt>
      <trkpt lat="36.8476982116699" lon="-5.18685007095337">
        <ele>643</ele>
        <time>2019-05-11T21:47:40Z</time>
      </trkpt>
      <trkpt lat="36.8476829528809" lon="-5.18689012527466">
        <ele>644</ele>
        <time>2019-05-11T21:47:42Z</time>
      </trkpt>
      <trkpt lat="36.8476638793945" lon="-5.18692207336426">
        <ele>644</ele>
        <time>2019-05-11T21:47:44Z</time>
      </trkpt>
      <trkpt lat="36.8476486206055" lon="-5.1869478225708">
        <ele>645</ele>
        <time>2019-05-11T21:47:46Z</time>
      </trkpt>
      <trkpt lat="36.8476295471191" lon="-5.18697309494019">
        <ele>645</ele>
        <time>2019-05-11T21:47:48Z</time>
      </trkpt>
      <trkpt lat="36.8476104736328" lon="-5.18699789047241">
        <ele>646</ele>
        <time>2019-05-11T21:47:50Z</time>
      </trkpt>
      <trkpt lat="36.8475952148438" lon="-5.18702793121338">
        <ele>646</ele>
        <time>2019-05-11T21:47:52Z</time>
      </trkpt>
      <trkpt lat="36.847583770752" lon="-5.18705797195435">
        <ele>646</ele>
        <time>2019-05-11T21:47:54Z</time>
      </trkpt>
      <trkpt lat="36.8475608825684" lon="-5.18709182739258">
        <ele>646</ele>
        <time>2019-05-11T21:47:56Z</time>
      </trkpt>
      <trkpt lat="36.847541809082" lon="-5.18711996078491">
        <ele>646</ele>
        <time>2019-05-11T21:47:58Z</time>
      </trkpt>
      <trkpt lat="36.847526550293" lon="-5.18715286254883">
        <ele>646</ele>
        <time>2019-05-11T21:48:00Z</time>
      </trkpt>
      <trkpt lat="36.8475112915039" lon="-5.18718719482422">
        <ele>646</ele>
        <time>2019-05-11T21:48:02Z</time>
      </trkpt>
      <trkpt lat="36.8474960327148" lon="-5.18722009658814">
        <ele>646</ele>
        <time>2019-05-11T21:48:04Z</time>
      </trkpt>
      <trkpt lat="36.8474769592285" lon="-5.18725299835205">
        <ele>646</ele>
        <time>2019-05-11T21:48:06Z</time>
      </trkpt>
      <trkpt lat="36.8474617004394" lon="-5.18729209899902">
        <ele>646</ele>
        <time>2019-05-11T21:48:08Z</time>
      </trkpt>
      <trkpt lat="36.8474464416504" lon="-5.18732690811157">
        <ele>646</ele>
        <time>2019-05-11T21:48:10Z</time>
      </trkpt>
      <trkpt lat="36.8474311828613" lon="-5.18735980987549">
        <ele>646</ele>
        <time>2019-05-11T21:48:12Z</time>
      </trkpt>
      <trkpt lat="36.8474159240723" lon="-5.18739318847656">
        <ele>646</ele>
        <time>2019-05-11T21:48:14Z</time>
      </trkpt>
      <trkpt lat="36.8474006652832" lon="-5.18742990493774">
        <ele>646</ele>
        <time>2019-05-11T21:48:16Z</time>
      </trkpt>
      <trkpt lat="36.8473815917969" lon="-5.18747997283936">
        <ele>646</ele>
        <time>2019-05-11T21:48:18Z</time>
      </trkpt>
      <trkpt lat="36.8473701477051" lon="-5.18751192092896">
        <ele>646</ele>
        <time>2019-05-11T21:48:20Z</time>
      </trkpt>
      <trkpt lat="36.8473587036133" lon="-5.18754196166992">
        <ele>646</ele>
        <time>2019-05-11T21:48:22Z</time>
      </trkpt>
      <trkpt lat="36.8473434448242" lon="-5.18757200241089">
        <ele>646</ele>
        <time>2019-05-11T21:48:24Z</time>
      </trkpt>
      <trkpt lat="36.8473281860352" lon="-5.18760299682617">
        <ele>646</ele>
        <time>2019-05-11T21:48:26Z</time>
      </trkpt>
      <trkpt lat="36.8473129272461" lon="-5.18763017654419">
        <ele>646</ele>
        <time>2019-05-11T21:48:28Z</time>
      </trkpt>
      <trkpt lat="36.8472938537598" lon="-5.18766021728516">
        <ele>646</ele>
        <time>2019-05-11T21:48:30Z</time>
      </trkpt>
      <trkpt lat="36.8472747802734" lon="-5.18769216537476">
        <ele>646</ele>
        <time>2019-05-11T21:48:32Z</time>
      </trkpt>
      <trkpt lat="36.8472595214844" lon="-5.1877269744873">
        <ele>646</ele>
        <time>2019-05-11T21:48:35Z</time>
      </trkpt>
      <trkpt lat="36.847240447998" lon="-5.18775987625122">
        <ele>646</ele>
        <time>2019-05-11T21:48:37Z</time>
      </trkpt>
      <trkpt lat="36.8472213745117" lon="-5.18779277801514">
        <ele>646</ele>
        <time>2019-05-11T21:48:39Z</time>
      </trkpt>
      <trkpt lat="36.8472061157227" lon="-5.18782711029053">
        <ele>646</ele>
        <time>2019-05-11T21:48:41Z</time>
      </trkpt>
      <trkpt lat="36.8471870422363" lon="-5.18785810470581">
        <ele>646</ele>
        <time>2019-05-11T21:48:43Z</time>
      </trkpt>
      <trkpt lat="36.8471641540527" lon="-5.18788719177246">
        <ele>646</ele>
        <time>2019-05-11T21:48:45Z</time>
      </trkpt>
      <trkpt lat="36.8471412658691" lon="-5.18792009353638">
        <ele>646</ele>
        <time>2019-05-11T21:48:47Z</time>
      </trkpt>
      <trkpt lat="36.8471221923828" lon="-5.18795013427734">
        <ele>646</ele>
        <time>2019-05-11T21:48:49Z</time>
      </trkpt>
      <trkpt lat="36.8471031188965" lon="-5.18798017501831">
        <ele>647</ele>
        <time>2019-05-11T21:48:51Z</time>
      </trkpt>
      <trkpt lat="36.8470840454102" lon="-5.18800783157349">
        <ele>647</ele>
        <time>2019-05-11T21:48:53Z</time>
      </trkpt>
      <trkpt lat="36.8470649719238" lon="-5.18803787231445">
        <ele>647</ele>
        <time>2019-05-11T21:48:55Z</time>
      </trkpt>
      <trkpt lat="36.8470458984375" lon="-5.18806982040405">
        <ele>648</ele>
        <time>2019-05-11T21:48:57Z</time>
      </trkpt>
      <trkpt lat="36.8470268249512" lon="-5.18809700012207">
        <ele>648</ele>
        <time>2019-05-11T21:48:59Z</time>
      </trkpt>
      <trkpt lat="36.8470039367676" lon="-5.1881251335144">
        <ele>648</ele>
        <time>2019-05-11T21:49:01Z</time>
      </trkpt>
      <trkpt lat="36.846981048584" lon="-5.188148021698">
        <ele>648</ele>
        <time>2019-05-11T21:49:03Z</time>
      </trkpt>
      <trkpt lat="36.8469581604004" lon="-5.18817520141602">
        <ele>648</ele>
        <time>2019-05-11T21:49:05Z</time>
      </trkpt>
      <trkpt lat="36.8469390869141" lon="-5.18820285797119">
        <ele>648</ele>
        <time>2019-05-11T21:49:07Z</time>
      </trkpt>
      <trkpt lat="36.8469161987305" lon="-5.18823480606079">
        <ele>648</ele>
        <time>2019-05-11T21:49:09Z</time>
      </trkpt>
      <trkpt lat="36.8468933105469" lon="-5.18826818466186">
        <ele>648</ele>
        <time>2019-05-11T21:49:11Z</time>
      </trkpt>
      <trkpt lat="36.8468704223633" lon="-5.18829822540283">
        <ele>648</ele>
        <time>2019-05-11T21:49:13Z</time>
      </trkpt>
      <trkpt lat="36.846851348877" lon="-5.18832683563232">
        <ele>648</ele>
        <time>2019-05-11T21:49:15Z</time>
      </trkpt>
      <trkpt lat="36.8468322753906" lon="-5.18835496902466">
        <ele>648</ele>
        <time>2019-05-11T21:49:17Z</time>
      </trkpt>
      <trkpt lat="36.8468170166016" lon="-5.18838691711426">
        <ele>648</ele>
        <time>2019-05-11T21:49:19Z</time>
      </trkpt>
      <trkpt lat="36.8468017578125" lon="-5.18841791152954">
        <ele>648</ele>
        <time>2019-05-11T21:49:21Z</time>
      </trkpt>
      <trkpt lat="36.8467826843262" lon="-5.18844795227051">
        <ele>648</ele>
        <time>2019-05-11T21:49:23Z</time>
      </trkpt>
      <trkpt lat="36.8467712402344" lon="-5.18847799301147">
        <ele>648</ele>
        <time>2019-05-11T21:49:25Z</time>
      </trkpt>
      <trkpt lat="36.8467597961426" lon="-5.18850708007812">
        <ele>648</ele>
        <time>2019-05-11T21:49:27Z</time>
      </trkpt>
      <trkpt lat="36.8467445373535" lon="-5.18853712081909">
        <ele>648</ele>
        <time>2019-05-11T21:49:29Z</time>
      </trkpt>
      <trkpt lat="36.8467330932617" lon="-5.18856811523438">
        <ele>648</ele>
        <time>2019-05-11T21:49:31Z</time>
      </trkpt>
      <trkpt lat="36.8467140197754" lon="-5.18860006332397">
        <ele>648</ele>
        <time>2019-05-11T21:49:33Z</time>
      </trkpt>
      <trkpt lat="36.8466987609863" lon="-5.18863010406494">
        <ele>648</ele>
        <time>2019-05-11T21:49:35Z</time>
      </trkpt>
      <trkpt lat="36.8466911315918" lon="-5.1886568069458">
        <ele>648</ele>
        <time>2019-05-11T21:49:37Z</time>
      </trkpt>
      <trkpt lat="36.8466796875" lon="-5.18868494033814">
        <ele>648</ele>
        <time>2019-05-11T21:49:39Z</time>
      </trkpt>
      <trkpt lat="36.8466644287109" lon="-5.1887149810791">
        <ele>646</ele>
        <time>2019-05-11T21:49:41Z</time>
      </trkpt>
      <trkpt lat="36.8466491699219" lon="-5.18874311447144">
        <ele>646</ele>
        <time>2019-05-11T21:49:43Z</time>
      </trkpt>
      <trkpt lat="36.8466262817383" lon="-5.1887698173523">
        <ele>646</ele>
        <time>2019-05-11T21:49:45Z</time>
      </trkpt>
      <trkpt lat="36.846607208252" lon="-5.18879699707031">
        <ele>646</ele>
        <time>2019-05-11T21:49:47Z</time>
      </trkpt>
      <trkpt lat="36.8465766906738" lon="-5.1888370513916">
        <ele>646</ele>
        <time>2019-05-11T21:49:49Z</time>
      </trkpt>
      <trkpt lat="36.8465576171875" lon="-5.18886280059814">
        <ele>646</ele>
        <time>2019-05-11T21:49:51Z</time>
      </trkpt>
      <trkpt lat="36.8465347290039" lon="-5.18888807296753">
        <ele>646</ele>
        <time>2019-05-11T21:49:53Z</time>
      </trkpt>
      <trkpt lat="36.8465118408203" lon="-5.18891191482544">
        <ele>646</ele>
        <time>2019-05-11T21:49:55Z</time>
      </trkpt>
      <trkpt lat="36.8464889526367" lon="-5.18894195556641">
        <ele>646</ele>
        <time>2019-05-11T21:49:57Z</time>
      </trkpt>
      <trkpt lat="36.8464660644531" lon="-5.18896484375">
        <ele>646</ele>
        <time>2019-05-11T21:49:59Z</time>
      </trkpt>
      <trkpt lat="36.8464393615723" lon="-5.18898820877075">
        <ele>646</ele>
        <time>2019-05-11T21:50:02Z</time>
      </trkpt>
      <trkpt lat="36.8464164733887" lon="-5.18901014328003">
        <ele>646</ele>
        <time>2019-05-11T21:50:04Z</time>
      </trkpt>
      <trkpt lat="36.8463935852051" lon="-5.18903207778931">
        <ele>646</ele>
        <time>2019-05-11T21:50:06Z</time>
      </trkpt>
      <trkpt lat="36.8463668823242" lon="-5.18905305862427">
        <ele>646</ele>
        <time>2019-05-11T21:50:08Z</time>
      </trkpt>
      <trkpt lat="36.8463478088379" lon="-5.1890721321106">
        <ele>646</ele>
        <time>2019-05-11T21:50:10Z</time>
      </trkpt>
      <trkpt lat="36.846321105957" lon="-5.18909502029419">
        <ele>646</ele>
        <time>2019-05-11T21:50:12Z</time>
      </trkpt>
      <trkpt lat="36.8462944030762" lon="-5.18911790847778">
        <ele>646</ele>
        <time>2019-05-11T21:50:14Z</time>
      </trkpt>
      <trkpt lat="36.8462715148926" lon="-5.18913984298706">
        <ele>646</ele>
        <time>2019-05-11T21:50:16Z</time>
      </trkpt>
      <trkpt lat="36.8462448120117" lon="-5.1891598701477">
        <ele>646</ele>
        <time>2019-05-11T21:50:18Z</time>
      </trkpt>
      <trkpt lat="36.8462219238281" lon="-5.18917989730835">
        <ele>646</ele>
        <time>2019-05-11T21:50:20Z</time>
      </trkpt>
      <trkpt lat="36.8461990356445" lon="-5.18920278549194">
        <ele>646</ele>
        <time>2019-05-11T21:50:22Z</time>
      </trkpt>
      <trkpt lat="36.8461761474609" lon="-5.18922519683838">
        <ele>646</ele>
        <time>2019-05-11T21:50:24Z</time>
      </trkpt>
      <trkpt lat="36.8461532592773" lon="-5.18924713134766">
        <ele>646</ele>
        <time>2019-05-11T21:50:26Z</time>
      </trkpt>
      <trkpt lat="36.8461265563965" lon="-5.18927192687988">
        <ele>646</ele>
        <time>2019-05-11T21:50:28Z</time>
      </trkpt>
      <trkpt lat="36.8461036682129" lon="-5.18929815292358">
        <ele>646</ele>
        <time>2019-05-11T21:50:30Z</time>
      </trkpt>
      <trkpt lat="36.8460845947266" lon="-5.18932676315308">
        <ele>646</ele>
        <time>2019-05-11T21:50:32Z</time>
      </trkpt>
      <trkpt lat="36.846061706543" lon="-5.18935489654541">
        <ele>646</ele>
        <time>2019-05-11T21:50:34Z</time>
      </trkpt>
      <trkpt lat="36.8460388183594" lon="-5.18938207626343">
        <ele>646</ele>
        <time>2019-05-11T21:50:36Z</time>
      </trkpt>
      <trkpt lat="36.8460121154785" lon="-5.18940496444702">
        <ele>646</ele>
        <time>2019-05-11T21:50:38Z</time>
      </trkpt>
      <trkpt lat="36.8459854125977" lon="-5.18943023681641">
        <ele>646</ele>
        <time>2019-05-11T21:50:40Z</time>
      </trkpt>
      <trkpt lat="36.8459625244141" lon="-5.18945980072022">
        <ele>646</ele>
        <time>2019-05-11T21:50:42Z</time>
      </trkpt>
      <trkpt lat="36.8459396362305" lon="-5.18948793411255">
        <ele>646</ele>
        <time>2019-05-11T21:50:44Z</time>
      </trkpt>
      <trkpt lat="36.8459129333496" lon="-5.18950986862183">
        <ele>646</ele>
        <time>2019-05-11T21:50:46Z</time>
      </trkpt>
      <trkpt lat="36.845890045166" lon="-5.18953323364258">
        <ele>646</ele>
        <time>2019-05-11T21:50:48Z</time>
      </trkpt>
      <trkpt lat="36.8458709716797" lon="-5.18956184387207">
        <ele>646</ele>
        <time>2019-05-11T21:50:50Z</time>
      </trkpt>
      <trkpt lat="36.8458480834961" lon="-5.18958806991577">
        <ele>646</ele>
        <time>2019-05-11T21:50:52Z</time>
      </trkpt>
      <trkpt lat="36.8458213806152" lon="-5.18961000442505">
        <ele>646</ele>
        <time>2019-05-11T21:50:54Z</time>
      </trkpt>
      <trkpt lat="36.8457984924316" lon="-5.18963479995728">
        <ele>646</ele>
        <time>2019-05-11T21:50:56Z</time>
      </trkpt>
      <trkpt lat="36.845775604248" lon="-5.18966197967529">
        <ele>646</ele>
        <time>2019-05-11T21:50:58Z</time>
      </trkpt>
      <trkpt lat="36.8457565307617" lon="-5.18968486785889">
        <ele>646</ele>
        <time>2019-05-11T21:51:00Z</time>
      </trkpt>
      <trkpt lat="36.8457374572754" lon="-5.18971014022827">
        <ele>646</ele>
        <time>2019-05-11T21:51:02Z</time>
      </trkpt>
      <trkpt lat="36.8457183837891" lon="-5.18973779678345">
        <ele>646</ele>
        <time>2019-05-11T21:51:04Z</time>
      </trkpt>
      <trkpt lat="36.8456954956055" lon="-5.18976211547852">
        <ele>646</ele>
        <time>2019-05-11T21:51:06Z</time>
      </trkpt>
      <trkpt lat="36.8456764221191" lon="-5.18978500366211">
        <ele>646</ele>
        <time>2019-05-11T21:51:08Z</time>
      </trkpt>
      <trkpt lat="36.8456573486328" lon="-5.18980979919434">
        <ele>646</ele>
        <time>2019-05-11T21:51:10Z</time>
      </trkpt>
      <trkpt lat="36.845645904541" lon="-5.1898398399353">
        <ele>646</ele>
        <time>2019-05-11T21:51:12Z</time>
      </trkpt>
      <trkpt lat="36.8456268310547" lon="-5.18986701965332">
        <ele>646</ele>
        <time>2019-05-11T21:51:14Z</time>
      </trkpt>
      <trkpt lat="36.8456077575684" lon="-5.18989706039429">
        <ele>646</ele>
        <time>2019-05-11T21:51:16Z</time>
      </trkpt>
      <trkpt lat="36.845588684082" lon="-5.18992805480957">
        <ele>646</ele>
        <time>2019-05-11T21:51:18Z</time>
      </trkpt>
      <trkpt lat="36.8455505371094" lon="-5.18996810913086">
        <ele>646</ele>
        <time>2019-05-11T21:51:20Z</time>
      </trkpt>
      <trkpt lat="36.845531463623" lon="-5.18999290466309">
        <ele>646</ele>
        <time>2019-05-11T21:51:22Z</time>
      </trkpt>
      <trkpt lat="36.8455123901367" lon="-5.19002294540405">
        <ele>646</ele>
        <time>2019-05-11T21:51:24Z</time>
      </trkpt>
      <trkpt lat="36.8454895019531" lon="-5.19005298614502">
        <ele>646</ele>
        <time>2019-05-11T21:51:26Z</time>
      </trkpt>
      <trkpt lat="36.8454666137695" lon="-5.19008016586304">
        <ele>647</ele>
        <time>2019-05-11T21:51:28Z</time>
      </trkpt>
      <trkpt lat="36.8454475402832" lon="-5.19011211395264">
        <ele>647</ele>
        <time>2019-05-11T21:51:30Z</time>
      </trkpt>
      <trkpt lat="36.8454284667969" lon="-5.19013786315918">
        <ele>647</ele>
        <time>2019-05-11T21:51:32Z</time>
      </trkpt>
      <trkpt lat="36.8454093933106" lon="-5.1901650428772">
        <ele>647</ele>
        <time>2019-05-11T21:51:34Z</time>
      </trkpt>
      <trkpt lat="36.845386505127" lon="-5.19018983840942">
        <ele>647</ele>
        <time>2019-05-11T21:51:37Z</time>
      </trkpt>
      <trkpt lat="36.8453636169434" lon="-5.19020986557007">
        <ele>647</ele>
        <time>2019-05-11T21:51:39Z</time>
      </trkpt>
      <trkpt lat="36.8453483581543" lon="-5.19022989273071">
        <ele>647</ele>
        <time>2019-05-11T21:51:41Z</time>
      </trkpt>
      <trkpt lat="36.8453330993652" lon="-5.19024991989136">
        <ele>647</ele>
        <time>2019-05-11T21:51:43Z</time>
      </trkpt>
      <trkpt lat="36.8453140258789" lon="-5.19027709960938">
        <ele>647</ele>
        <time>2019-05-11T21:51:45Z</time>
      </trkpt>
      <trkpt lat="36.8452911376953" lon="-5.19030284881592">
        <ele>647</ele>
        <time>2019-05-11T21:51:47Z</time>
      </trkpt>
      <trkpt lat="36.845272064209" lon="-5.19032716751099">
        <ele>647</ele>
        <time>2019-05-11T21:51:49Z</time>
      </trkpt>
      <trkpt lat="36.8452529907227" lon="-5.19035196304321">
        <ele>647</ele>
        <time>2019-05-11T21:51:51Z</time>
      </trkpt>
      <trkpt lat="36.8452301025391" lon="-5.1903772354126">
        <ele>647</ele>
        <time>2019-05-11T21:51:53Z</time>
      </trkpt>
      <trkpt lat="36.8452110290527" lon="-5.19040203094482">
        <ele>647</ele>
        <time>2019-05-11T21:51:55Z</time>
      </trkpt>
      <trkpt lat="36.8451881408691" lon="-5.19043016433716">
        <ele>647</ele>
        <time>2019-05-11T21:51:57Z</time>
      </trkpt>
      <trkpt lat="36.8451690673828" lon="-5.19045209884644">
        <ele>647</ele>
        <time>2019-05-11T21:51:59Z</time>
      </trkpt>
      <trkpt lat="36.8451538085938" lon="-5.19047689437866">
        <ele>647</ele>
        <time>2019-05-11T21:52:01Z</time>
      </trkpt>
      <trkpt lat="36.8451347351074" lon="-5.19049692153931">
        <ele>647</ele>
        <time>2019-05-11T21:52:03Z</time>
      </trkpt>
      <trkpt lat="36.8451118469238" lon="-5.1905198097229">
        <ele>647</ele>
        <time>2019-05-11T21:52:05Z</time>
      </trkpt>
      <trkpt lat="36.8450889587402" lon="-5.19054222106934">
        <ele>647</ele>
        <time>2019-05-11T21:52:07Z</time>
      </trkpt>
      <trkpt lat="36.8450736999512" lon="-5.1905632019043">
        <ele>647</ele>
        <time>2019-05-11T21:52:09Z</time>
      </trkpt>
      <trkpt lat="36.8450546264648" lon="-5.19058704376221">
        <ele>646</ele>
        <time>2019-05-11T21:52:11Z</time>
      </trkpt>
      <trkpt lat="36.8450355529785" lon="-5.19061183929443">
        <ele>646</ele>
        <time>2019-05-11T21:52:13Z</time>
      </trkpt>
      <trkpt lat="36.8450164794922" lon="-5.19063282012939">
        <ele>646</ele>
        <time>2019-05-11T21:52:15Z</time>
      </trkpt>
      <trkpt lat="36.8449974060059" lon="-5.19065523147583">
        <ele>646</ele>
        <time>2019-05-11T21:52:17Z</time>
      </trkpt>
      <trkpt lat="36.8449783325195" lon="-5.19067811965942">
        <ele>646</ele>
        <time>2019-05-11T21:52:19Z</time>
      </trkpt>
      <trkpt lat="36.8449554443359" lon="-5.19070720672607">
        <ele>646</ele>
        <time>2019-05-11T21:52:21Z</time>
      </trkpt>
      <trkpt lat="36.8449363708496" lon="-5.1907320022583">
        <ele>646</ele>
        <time>2019-05-11T21:52:23Z</time>
      </trkpt>
      <trkpt lat="36.844913482666" lon="-5.19076013565064">
        <ele>646</ele>
        <time>2019-05-11T21:52:25Z</time>
      </trkpt>
      <trkpt lat="36.8448944091797" lon="-5.19078493118286">
        <ele>646</ele>
        <time>2019-05-11T21:52:27Z</time>
      </trkpt>
      <trkpt lat="36.8448753356934" lon="-5.19081497192383">
        <ele>646</ele>
        <time>2019-05-11T21:52:29Z</time>
      </trkpt>
      <trkpt lat="36.844856262207" lon="-5.19083786010742">
        <ele>646</ele>
        <time>2019-05-11T21:52:31Z</time>
      </trkpt>
      <trkpt lat="36.8448448181152" lon="-5.19086217880249">
        <ele>646</ele>
        <time>2019-05-11T21:52:33Z</time>
      </trkpt>
      <trkpt lat="36.8448257446289" lon="-5.19088315963745">
        <ele>646</ele>
        <time>2019-05-11T21:52:35Z</time>
      </trkpt>
      <trkpt lat="36.8448066711426" lon="-5.19091176986694">
        <ele>645</ele>
        <time>2019-05-11T21:52:37Z</time>
      </trkpt>
      <trkpt lat="36.8447875976562" lon="-5.19093990325928">
        <ele>644</ele>
        <time>2019-05-11T21:52:39Z</time>
      </trkpt>
      <trkpt lat="36.8447685241699" lon="-5.1909670829773">
        <ele>644</ele>
        <time>2019-05-11T21:52:41Z</time>
      </trkpt>
      <trkpt lat="36.8447456359863" lon="-5.19099283218384">
        <ele>644</ele>
        <time>2019-05-11T21:52:43Z</time>
      </trkpt>
      <trkpt lat="36.8447303771973" lon="-5.19102191925049">
        <ele>644</ele>
        <time>2019-05-11T21:52:45Z</time>
      </trkpt>
      <trkpt lat="36.8447151184082" lon="-5.19105195999146">
        <ele>643</ele>
        <time>2019-05-11T21:52:47Z</time>
      </trkpt>
      <trkpt lat="36.8446922302246" lon="-5.19107818603516">
        <ele>643</ele>
        <time>2019-05-11T21:52:49Z</time>
      </trkpt>
      <trkpt lat="36.8446769714356" lon="-5.19110202789307">
        <ele>642</ele>
        <time>2019-05-11T21:52:51Z</time>
      </trkpt>
      <trkpt lat="36.8446617126465" lon="-5.19113492965698">
        <ele>641</ele>
        <time>2019-05-11T21:52:53Z</time>
      </trkpt>
      <trkpt lat="36.8446273803711" lon="-5.19117784500122">
        <ele>641</ele>
        <time>2019-05-11T21:52:55Z</time>
      </trkpt>
      <trkpt lat="36.8446044921875" lon="-5.19120788574219">
        <ele>641</ele>
        <time>2019-05-11T21:52:57Z</time>
      </trkpt>
      <trkpt lat="36.8445816040039" lon="-5.19124317169189">
        <ele>641</ele>
        <time>2019-05-11T21:52:59Z</time>
      </trkpt>
      <trkpt lat="36.8445625305176" lon="-5.19127511978149">
        <ele>641</ele>
        <time>2019-05-11T21:53:01Z</time>
      </trkpt>
      <trkpt lat="36.8445434570312" lon="-5.19130706787109">
        <ele>641</ele>
        <time>2019-05-11T21:53:03Z</time>
      </trkpt>
      <trkpt lat="36.8445167541504" lon="-5.19133710861206">
        <ele>641</ele>
        <time>2019-05-11T21:53:05Z</time>
      </trkpt>
      <trkpt lat="36.8445014953613" lon="-5.19136810302734">
        <ele>641</ele>
        <time>2019-05-11T21:53:07Z</time>
      </trkpt>
      <trkpt lat="36.844482421875" lon="-5.19139814376831">
        <ele>641</ele>
        <time>2019-05-11T21:53:10Z</time>
      </trkpt>
      <trkpt lat="36.8444633483887" lon="-5.19142484664917">
        <ele>641</ele>
        <time>2019-05-11T21:53:12Z</time>
      </trkpt>
      <trkpt lat="36.8444404602051" lon="-5.19145202636719">
        <ele>640</ele>
        <time>2019-05-11T21:53:14Z</time>
      </trkpt>
      <trkpt lat="36.8444213867188" lon="-5.19147777557373">
        <ele>640</ele>
        <time>2019-05-11T21:53:16Z</time>
      </trkpt>
      <trkpt lat="36.8444023132324" lon="-5.19150304794312">
        <ele>640</ele>
        <time>2019-05-11T21:53:18Z</time>
      </trkpt>
      <trkpt lat="36.8443794250488" lon="-5.19152784347534">
        <ele>640</ele>
        <time>2019-05-11T21:53:20Z</time>
      </trkpt>
      <trkpt lat="36.8443565368652" lon="-5.19155216217041">
        <ele>640</ele>
        <time>2019-05-11T21:53:22Z</time>
      </trkpt>
      <trkpt lat="36.8443336486816" lon="-5.19157695770264">
        <ele>640</ele>
        <time>2019-05-11T21:53:24Z</time>
      </trkpt>
      <trkpt lat="36.8443145751953" lon="-5.19160318374634">
        <ele>639</ele>
        <time>2019-05-11T21:53:26Z</time>
      </trkpt>
      <trkpt lat="36.844295501709" lon="-5.19162797927856">
        <ele>639</ele>
        <time>2019-05-11T21:53:28Z</time>
      </trkpt>
      <trkpt lat="36.8442764282227" lon="-5.19165277481079">
        <ele>639</ele>
        <time>2019-05-11T21:53:30Z</time>
      </trkpt>
      <trkpt lat="36.8442535400391" lon="-5.19167804718018">
        <ele>638</ele>
        <time>2019-05-11T21:53:32Z</time>
      </trkpt>
      <trkpt lat="36.8442344665527" lon="-5.19170808792114">
        <ele>638</ele>
        <time>2019-05-11T21:53:34Z</time>
      </trkpt>
      <trkpt lat="36.8442153930664" lon="-5.19174194335938">
        <ele>638</ele>
        <time>2019-05-11T21:53:36Z</time>
      </trkpt>
      <trkpt lat="36.8441963195801" lon="-5.19177484512329">
        <ele>638</ele>
        <time>2019-05-11T21:53:38Z</time>
      </trkpt>
      <trkpt lat="36.8441848754883" lon="-5.191810131073">
        <ele>638</ele>
        <time>2019-05-11T21:53:40Z</time>
      </trkpt>
      <trkpt lat="36.8441619873047" lon="-5.19184017181396">
        <ele>638</ele>
        <time>2019-05-11T21:53:42Z</time>
      </trkpt>
      <trkpt lat="36.8441429138184" lon="-5.19187307357788">
        <ele>638</ele>
        <time>2019-05-11T21:53:44Z</time>
      </trkpt>
      <trkpt lat="36.844123840332" lon="-5.19190502166748">
        <ele>638</ele>
        <time>2019-05-11T21:53:46Z</time>
      </trkpt>
      <trkpt lat="36.8441047668457" lon="-5.19193506240845">
        <ele>638</ele>
        <time>2019-05-11T21:53:48Z</time>
      </trkpt>
      <trkpt lat="36.8440818786621" lon="-5.19196176528931">
        <ele>638</ele>
        <time>2019-05-11T21:53:50Z</time>
      </trkpt>
      <trkpt lat="36.8440628051758" lon="-5.19199180603027">
        <ele>637</ele>
        <time>2019-05-11T21:53:52Z</time>
      </trkpt>
      <trkpt lat="36.8440399169922" lon="-5.19201993942261">
        <ele>636</ele>
        <time>2019-05-11T21:53:54Z</time>
      </trkpt>
      <trkpt lat="36.8440170288086" lon="-5.19204711914062">
        <ele>636</ele>
        <time>2019-05-11T21:53:56Z</time>
      </trkpt>
      <trkpt lat="36.843994140625" lon="-5.1920747756958">
        <ele>636</ele>
        <time>2019-05-11T21:53:58Z</time>
      </trkpt>
      <trkpt lat="36.8439712524414" lon="-5.19209718704224">
        <ele>636</ele>
        <time>2019-05-11T21:54:00Z</time>
      </trkpt>
      <trkpt lat="36.8439559936523" lon="-5.19212007522583">
        <ele>636</ele>
        <time>2019-05-11T21:54:02Z</time>
      </trkpt>
      <trkpt lat="36.8439331054688" lon="-5.19214296340942">
        <ele>636</ele>
        <time>2019-05-11T21:54:04Z</time>
      </trkpt>
      <trkpt lat="36.8439140319824" lon="-5.19216680526733">
        <ele>635</ele>
        <time>2019-05-11T21:54:06Z</time>
      </trkpt>
      <trkpt lat="36.8438911437988" lon="-5.19219017028809">
        <ele>635</ele>
        <time>2019-05-11T21:54:08Z</time>
      </trkpt>
      <trkpt lat="36.8438682556152" lon="-5.19221496582031">
        <ele>635</ele>
        <time>2019-05-11T21:54:10Z</time>
      </trkpt>
      <trkpt lat="36.8438453674316" lon="-5.19223785400391">
        <ele>635</ele>
        <time>2019-05-11T21:54:12Z</time>
      </trkpt>
      <trkpt lat="36.843822479248" lon="-5.19225978851318">
        <ele>634</ele>
        <time>2019-05-11T21:54:14Z</time>
      </trkpt>
      <trkpt lat="36.8437995910644" lon="-5.1922779083252">
        <ele>634</ele>
        <time>2019-05-11T21:54:16Z</time>
      </trkpt>
      <trkpt lat="36.8437767028809" lon="-5.19229698181152">
        <ele>634</ele>
        <time>2019-05-11T21:54:18Z</time>
      </trkpt>
      <trkpt lat="36.84375" lon="-5.19231796264648">
        <ele>634</ele>
        <time>2019-05-11T21:54:20Z</time>
      </trkpt>
      <trkpt lat="36.8437271118164" lon="-5.19233989715576">
        <ele>633</ele>
        <time>2019-05-11T21:54:22Z</time>
      </trkpt>
      <trkpt lat="36.8437042236328" lon="-5.19236278533936">
        <ele>633</ele>
        <time>2019-05-11T21:54:24Z</time>
      </trkpt>
      <trkpt lat="36.8436737060547" lon="-5.1923999786377">
        <ele>632</ele>
        <time>2019-05-11T21:54:26Z</time>
      </trkpt>
      <trkpt lat="36.8436508178711" lon="-5.19242286682129">
        <ele>631</ele>
        <time>2019-05-11T21:54:28Z</time>
      </trkpt>
      <trkpt lat="36.8436279296875" lon="-5.19244194030762">
        <ele>631</ele>
        <time>2019-05-11T21:54:30Z</time>
      </trkpt>
      <trkpt lat="36.8436088562012" lon="-5.19246482849121">
        <ele>631</ele>
        <time>2019-05-11T21:54:32Z</time>
      </trkpt>
      <trkpt lat="36.8435897827148" lon="-5.19248294830322">
        <ele>631</ele>
        <time>2019-05-11T21:54:34Z</time>
      </trkpt>
      <trkpt lat="36.8435668945312" lon="-5.19250202178955">
        <ele>631</ele>
        <time>2019-05-11T21:54:36Z</time>
      </trkpt>
      <trkpt lat="36.8435478210449" lon="-5.19252300262451">
        <ele>631</ele>
        <time>2019-05-11T21:54:38Z</time>
      </trkpt>
      <trkpt lat="36.8435249328613" lon="-5.19254207611084">
        <ele>631</ele>
        <time>2019-05-11T21:54:41Z</time>
      </trkpt>
      <trkpt lat="36.8435020446777" lon="-5.19256496429443">
        <ele>631</ele>
        <time>2019-05-11T21:54:43Z</time>
      </trkpt>
      <trkpt lat="36.8434829711914" lon="-5.19258785247803">
        <ele>631</ele>
        <time>2019-05-11T21:54:45Z</time>
      </trkpt>
      <trkpt lat="36.8434562683106" lon="-5.1926097869873">
        <ele>631</ele>
        <time>2019-05-11T21:54:47Z</time>
      </trkpt>
      <trkpt lat="36.843433380127" lon="-5.19262981414795">
        <ele>631</ele>
        <time>2019-05-11T21:54:49Z</time>
      </trkpt>
      <trkpt lat="36.8434066772461" lon="-5.19264984130859">
        <ele>631</ele>
        <time>2019-05-11T21:54:51Z</time>
      </trkpt>
      <trkpt lat="36.8433837890625" lon="-5.19267511367798">
        <ele>631</ele>
        <time>2019-05-11T21:54:53Z</time>
      </trkpt>
      <trkpt lat="36.8433570861816" lon="-5.19269704818726">
        <ele>631</ele>
        <time>2019-05-11T21:54:55Z</time>
      </trkpt>
      <trkpt lat="36.8433303833008" lon="-5.19271516799927">
        <ele>631</ele>
        <time>2019-05-11T21:54:57Z</time>
      </trkpt>
      <trkpt lat="36.8433113098144" lon="-5.19273710250854">
        <ele>631</ele>
        <time>2019-05-11T21:54:59Z</time>
      </trkpt>
      <trkpt lat="36.8432846069336" lon="-5.19275712966919">
        <ele>631</ele>
        <time>2019-05-11T21:55:01Z</time>
      </trkpt>
      <trkpt lat="36.8432579040527" lon="-5.19277477264404">
        <ele>631</ele>
        <time>2019-05-11T21:55:03Z</time>
      </trkpt>
      <trkpt lat="36.8432312011719" lon="-5.19279289245606">
        <ele>631</ele>
        <time>2019-05-11T21:55:05Z</time>
      </trkpt>
      <trkpt lat="36.8432083129883" lon="-5.1928071975708">
        <ele>631</ele>
        <time>2019-05-11T21:55:07Z</time>
      </trkpt>
      <trkpt lat="36.8431816101074" lon="-5.1928219795227">
        <ele>631</ele>
        <time>2019-05-11T21:55:09Z</time>
      </trkpt>
      <trkpt lat="36.8431663513184" lon="-5.19283723831177">
        <ele>631</ele>
        <time>2019-05-11T21:55:11Z</time>
      </trkpt>
      <trkpt lat="36.8431434631348" lon="-5.19285297393799">
        <ele>631</ele>
        <time>2019-05-11T21:55:13Z</time>
      </trkpt>
      <trkpt lat="36.8431205749512" lon="-5.19286489486694">
        <ele>631</ele>
        <time>2019-05-11T21:55:15Z</time>
      </trkpt>
      <trkpt lat="36.8430938720703" lon="-5.19288206100464">
        <ele>631</ele>
        <time>2019-05-11T21:55:17Z</time>
      </trkpt>
      <trkpt lat="36.8430633544922" lon="-5.19289207458496">
        <ele>631</ele>
        <time>2019-05-11T21:55:19Z</time>
      </trkpt>
      <trkpt lat="36.8430366516113" lon="-5.19290781021118">
        <ele>631</ele>
        <time>2019-05-11T21:55:21Z</time>
      </trkpt>
      <trkpt lat="36.8430137634277" lon="-5.19292783737183">
        <ele>631</ele>
        <time>2019-05-11T21:55:23Z</time>
      </trkpt>
      <trkpt lat="36.8429908752441" lon="-5.19294214248657">
        <ele>631</ele>
        <time>2019-05-11T21:55:25Z</time>
      </trkpt>
      <trkpt lat="36.8429679870606" lon="-5.19295501708984">
        <ele>631</ele>
        <time>2019-05-11T21:55:27Z</time>
      </trkpt>
      <trkpt lat="36.8429412841797" lon="-5.19297218322754">
        <ele>631</ele>
        <time>2019-05-11T21:55:29Z</time>
      </trkpt>
      <trkpt lat="36.8429183959961" lon="-5.19298982620239">
        <ele>631</ele>
        <time>2019-05-11T21:55:31Z</time>
      </trkpt>
      <trkpt lat="36.8428916931152" lon="-5.1930079460144">
        <ele>631</ele>
        <time>2019-05-11T21:55:33Z</time>
      </trkpt>
      <trkpt lat="36.8428611755371" lon="-5.19302701950073">
        <ele>631</ele>
        <time>2019-05-11T21:55:35Z</time>
      </trkpt>
      <trkpt lat="36.8428382873535" lon="-5.19304513931274">
        <ele>631</ele>
        <time>2019-05-11T21:55:37Z</time>
      </trkpt>
      <trkpt lat="36.8428115844727" lon="-5.19305801391602">
        <ele>631</ele>
        <time>2019-05-11T21:55:39Z</time>
      </trkpt>
      <trkpt lat="36.8427886962891" lon="-5.19307994842529">
        <ele>632</ele>
        <time>2019-05-11T21:55:41Z</time>
      </trkpt>
      <trkpt lat="36.8427619934082" lon="-5.19309186935425">
        <ele>633</ele>
        <time>2019-05-11T21:55:43Z</time>
      </trkpt>
      <trkpt lat="36.8427391052246" lon="-5.19310283660889">
        <ele>633</ele>
        <time>2019-05-11T21:55:45Z</time>
      </trkpt>
      <trkpt lat="36.8427085876465" lon="-5.19310522079468">
        <ele>633</ele>
        <time>2019-05-11T21:55:47Z</time>
      </trkpt>
      <trkpt lat="36.8426856994629" lon="-5.19310712814331">
        <ele>633</ele>
        <time>2019-05-11T21:55:49Z</time>
      </trkpt>
      <trkpt lat="36.8426551818848" lon="-5.19311189651489">
        <ele>633</ele>
        <time>2019-05-11T21:55:51Z</time>
      </trkpt>
      <trkpt lat="36.8426284790039" lon="-5.19311285018921">
        <ele>633</ele>
        <time>2019-05-11T21:55:53Z</time>
      </trkpt>
      <trkpt lat="36.8425979614258" lon="-5.19311189651489">
        <ele>633</ele>
        <time>2019-05-11T21:55:55Z</time>
      </trkpt>
      <trkpt lat="36.8425712585449" lon="-5.19311285018921">
        <ele>633</ele>
        <time>2019-05-11T21:55:57Z</time>
      </trkpt>
      <trkpt lat="36.8425369262695" lon="-5.19311285018921">
        <ele>633</ele>
        <time>2019-05-11T21:55:59Z</time>
      </trkpt>
      <trkpt lat="36.8425102233887" lon="-5.193115234375">
        <ele>633</ele>
        <time>2019-05-11T21:56:01Z</time>
      </trkpt>
      <trkpt lat="36.8424835205078" lon="-5.19311285018921">
        <ele>633</ele>
        <time>2019-05-11T21:56:03Z</time>
      </trkpt>
      <trkpt lat="36.8424530029297" lon="-5.19311285018921">
        <ele>633</ele>
        <time>2019-05-11T21:56:05Z</time>
      </trkpt>
      <trkpt lat="36.8424186706543" lon="-5.19311285018921">
        <ele>633</ele>
        <time>2019-05-11T21:56:07Z</time>
      </trkpt>
      <trkpt lat="36.8423881530762" lon="-5.193115234375">
        <ele>633</ele>
        <time>2019-05-11T21:56:09Z</time>
      </trkpt>
      <trkpt lat="36.8423614501953" lon="-5.19312000274658">
        <ele>634</ele>
        <time>2019-05-11T21:56:11Z</time>
      </trkpt>
      <trkpt lat="36.8423194885254" lon="-5.19311189651489">
        <ele>634</ele>
        <time>2019-05-11T21:56:13Z</time>
      </trkpt>
      <trkpt lat="36.8422927856445" lon="-5.19311189651489">
        <ele>634</ele>
        <time>2019-05-11T21:56:15Z</time>
      </trkpt>
      <trkpt lat="36.8422584533691" lon="-5.19311189651489">
        <ele>635</ele>
        <time>2019-05-11T21:56:17Z</time>
      </trkpt>
      <trkpt lat="36.842227935791" lon="-5.19311714172363">
        <ele>635</ele>
        <time>2019-05-11T21:56:19Z</time>
      </trkpt>
      <trkpt lat="36.8421974182129" lon="-5.19312715530396">
        <ele>636</ele>
        <time>2019-05-11T21:56:21Z</time>
      </trkpt>
      <trkpt lat="36.842170715332" lon="-5.19314002990723">
        <ele>636</ele>
        <time>2019-05-11T21:56:23Z</time>
      </trkpt>
      <trkpt lat="36.8421401977539" lon="-5.19315481185913">
        <ele>637</ele>
        <time>2019-05-11T21:56:25Z</time>
      </trkpt>
      <trkpt lat="36.8421096801758" lon="-5.1931619644165">
        <ele>637</ele>
        <time>2019-05-11T21:56:28Z</time>
      </trkpt>
      <trkpt lat="36.8420791625977" lon="-5.19317197799683">
        <ele>637</ele>
        <time>2019-05-11T21:56:30Z</time>
      </trkpt>
      <trkpt lat="36.8420486450195" lon="-5.19317722320557">
        <ele>637</ele>
        <time>2019-05-11T21:56:32Z</time>
      </trkpt>
      <trkpt lat="36.8420181274414" lon="-5.19318294525146">
        <ele>637</ele>
        <time>2019-05-11T21:56:34Z</time>
      </trkpt>
      <trkpt lat="36.8419952392578" lon="-5.19320011138916">
        <ele>637</ele>
        <time>2019-05-11T21:56:36Z</time>
      </trkpt>
      <trkpt lat="36.8419723510742" lon="-5.1932201385498">
        <ele>637</ele>
        <time>2019-05-11T21:56:38Z</time>
      </trkpt>
      <trkpt lat="36.841968536377" lon="-5.1932520866394">
        <ele>637</ele>
        <time>2019-05-11T21:56:40Z</time>
      </trkpt>
      <trkpt lat="36.8419723510742" lon="-5.19329023361206">
        <ele>637</ele>
        <time>2019-05-11T21:56:42Z</time>
      </trkpt>
      <trkpt lat="36.8419876098633" lon="-5.19332504272461">
        <ele>637</ele>
        <time>2019-05-11T21:56:44Z</time>
      </trkpt>
      <trkpt lat="36.8420066833496" lon="-5.19335317611694">
        <ele>637</ele>
        <time>2019-05-11T21:56:46Z</time>
      </trkpt>
      <trkpt lat="36.8420219421387" lon="-5.19338178634644">
        <ele>637</ele>
        <time>2019-05-11T21:56:48Z</time>
      </trkpt>
      <trkpt lat="36.842041015625" lon="-5.19340705871582">
        <ele>637</ele>
        <time>2019-05-11T21:56:50Z</time>
      </trkpt>
      <trkpt lat="36.8420639038086" lon="-5.19343709945679">
        <ele>637</ele>
        <time>2019-05-11T21:56:52Z</time>
      </trkpt>
      <trkpt lat="36.8420867919922" lon="-5.19346189498901">
        <ele>637</ele>
        <time>2019-05-11T21:56:54Z</time>
      </trkpt>
      <trkpt lat="36.8421058654785" lon="-5.1934871673584">
        <ele>637</ele>
        <time>2019-05-11T21:56:56Z</time>
      </trkpt>
      <trkpt lat="36.8421211242676" lon="-5.19351291656494">
        <ele>637</ele>
        <time>2019-05-11T21:56:58Z</time>
      </trkpt>
      <trkpt lat="36.8421440124512" lon="-5.19353818893433">
        <ele>637</ele>
        <time>2019-05-11T21:57:00Z</time>
      </trkpt>
      <trkpt lat="36.8421669006348" lon="-5.19356203079224">
        <ele>637</ele>
        <time>2019-05-11T21:57:02Z</time>
      </trkpt>
      <trkpt lat="36.8421859741211" lon="-5.19358205795288">
        <ele>637</ele>
        <time>2019-05-11T21:57:04Z</time>
      </trkpt>
      <trkpt lat="36.8422088623047" lon="-5.19360685348511">
        <ele>637</ele>
        <time>2019-05-11T21:57:06Z</time>
      </trkpt>
      <trkpt lat="36.842227935791" lon="-5.19363212585449">
        <ele>637</ele>
        <time>2019-05-11T21:57:08Z</time>
      </trkpt>
      <trkpt lat="36.8422508239746" lon="-5.19365501403809">
        <ele>637</ele>
        <time>2019-05-11T21:57:10Z</time>
      </trkpt>
      <trkpt lat="36.8422737121582" lon="-5.19367790222168">
        <ele>637</ele>
        <time>2019-05-11T21:57:12Z</time>
      </trkpt>
      <trkpt lat="36.8422966003418" lon="-5.19370317459106">
        <ele>637</ele>
        <time>2019-05-11T21:57:14Z</time>
      </trkpt>
      <trkpt lat="36.8423156738281" lon="-5.19372701644897">
        <ele>637</ele>
        <time>2019-05-11T21:57:16Z</time>
      </trkpt>
      <trkpt lat="36.8423385620117" lon="-5.19374704360962">
        <ele>637</ele>
        <time>2019-05-11T21:57:18Z</time>
      </trkpt>
      <trkpt lat="36.842357635498" lon="-5.19376516342163">
        <ele>637</ele>
        <time>2019-05-11T21:57:20Z</time>
      </trkpt>
      <trkpt lat="36.8423805236816" lon="-5.19378805160522">
        <ele>637</ele>
        <time>2019-05-11T21:57:22Z</time>
      </trkpt>
      <trkpt lat="36.8424034118652" lon="-5.19381523132324">
        <ele>637</ele>
        <time>2019-05-11T21:57:24Z</time>
      </trkpt>
      <trkpt lat="36.8424263000488" lon="-5.1938419342041">
        <ele>637</ele>
        <time>2019-05-11T21:57:26Z</time>
      </trkpt>
      <trkpt lat="36.8424415588379" lon="-5.19386720657349">
        <ele>637</ele>
        <time>2019-05-11T21:57:28Z</time>
      </trkpt>
      <trkpt lat="36.8424644470215" lon="-5.19389820098877">
        <ele>637</ele>
        <time>2019-05-11T21:57:30Z</time>
      </trkpt>
      <trkpt lat="36.8424835205078" lon="-5.19392776489258">
        <ele>637</ele>
        <time>2019-05-11T21:57:32Z</time>
      </trkpt>
      <trkpt lat="36.8425064086914" lon="-5.19395780563354">
        <ele>637</ele>
        <time>2019-05-11T21:57:34Z</time>
      </trkpt>
      <trkpt lat="36.8425254821777" lon="-5.19398307800293">
        <ele>637</ele>
        <time>2019-05-11T21:57:36Z</time>
      </trkpt>
      <trkpt lat="36.8425407409668" lon="-5.19401216506958">
        <ele>637</ele>
        <time>2019-05-11T21:57:38Z</time>
      </trkpt>
      <trkpt lat="36.8425598144531" lon="-5.19403982162476">
        <ele>637</ele>
        <time>2019-05-11T21:57:40Z</time>
      </trkpt>
      <trkpt lat="36.8425788879394" lon="-5.19406795501709">
        <ele>638</ele>
        <time>2019-05-11T21:57:42Z</time>
      </trkpt>
      <trkpt lat="36.8425979614258" lon="-5.19409513473511">
        <ele>638</ele>
        <time>2019-05-11T21:57:44Z</time>
      </trkpt>
      <trkpt lat="36.8426208496094" lon="-5.19412183761597">
        <ele>639</ele>
        <time>2019-05-11T21:57:46Z</time>
      </trkpt>
      <trkpt lat="36.8426513671875" lon="-5.19415521621704">
        <ele>639</ele>
        <time>2019-05-11T21:57:48Z</time>
      </trkpt>
      <trkpt lat="36.8426742553711" lon="-5.19417190551758">
        <ele>639</ele>
        <time>2019-05-11T21:57:50Z</time>
      </trkpt>
      <trkpt lat="36.8426971435547" lon="-5.19419288635254">
        <ele>639</ele>
        <time>2019-05-11T21:57:52Z</time>
      </trkpt>
      <trkpt lat="36.842716217041" lon="-5.19421291351318">
        <ele>639</ele>
        <time>2019-05-11T21:57:54Z</time>
      </trkpt>
      <trkpt lat="36.8427391052246" lon="-5.1942400932312">
        <ele>639</ele>
        <time>2019-05-11T21:57:56Z</time>
      </trkpt>
      <trkpt lat="36.8427619934082" lon="-5.19426679611206">
        <ele>639</ele>
        <time>2019-05-11T21:57:58Z</time>
      </trkpt>
      <trkpt lat="36.8427848815918" lon="-5.19429206848144">
        <ele>639</ele>
        <time>2019-05-11T21:58:01Z</time>
      </trkpt>
      <trkpt lat="36.8428077697754" lon="-5.19432210922241">
        <ele>639</ele>
        <time>2019-05-11T21:58:03Z</time>
      </trkpt>
      <trkpt lat="36.842830657959" lon="-5.19434976577759">
        <ele>639</ele>
        <time>2019-05-11T21:58:05Z</time>
      </trkpt>
      <trkpt lat="36.8428535461426" lon="-5.19437980651856">
        <ele>639</ele>
        <time>2019-05-11T21:58:07Z</time>
      </trkpt>
      <trkpt lat="36.8428764343262" lon="-5.19440698623657">
        <ele>640</ele>
        <time>2019-05-11T21:58:09Z</time>
      </trkpt>
      <trkpt lat="36.8428955078125" lon="-5.19443321228027">
        <ele>640</ele>
        <time>2019-05-11T21:58:11Z</time>
      </trkpt>
      <trkpt lat="36.8429145812988" lon="-5.19446182250977">
        <ele>641</ele>
        <time>2019-05-11T21:58:13Z</time>
      </trkpt>
      <trkpt lat="36.8429336547852" lon="-5.19448804855347">
        <ele>641</ele>
        <time>2019-05-11T21:58:15Z</time>
      </trkpt>
      <trkpt lat="36.8429565429688" lon="-5.19451284408569">
        <ele>642</ele>
        <time>2019-05-11T21:58:17Z</time>
      </trkpt>
      <trkpt lat="36.8429718017578" lon="-5.19454193115234">
        <ele>642</ele>
        <time>2019-05-11T21:58:19Z</time>
      </trkpt>
      <trkpt lat="36.8429946899414" lon="-5.19457197189331">
        <ele>643</ele>
        <time>2019-05-11T21:58:21Z</time>
      </trkpt>
      <trkpt lat="36.8430137634277" lon="-5.19460010528564">
        <ele>643</ele>
        <time>2019-05-11T21:58:23Z</time>
      </trkpt>
      <trkpt lat="36.8430366516113" lon="-5.1946268081665">
        <ele>644</ele>
        <time>2019-05-11T21:58:25Z</time>
      </trkpt>
      <trkpt lat="36.8430519104004" lon="-5.19464778900146">
        <ele>644</ele>
        <time>2019-05-11T21:58:27Z</time>
      </trkpt>
      <trkpt lat="36.843074798584" lon="-5.19467210769653">
        <ele>644</ele>
        <time>2019-05-11T21:58:29Z</time>
      </trkpt>
      <trkpt lat="36.8430938720703" lon="-5.19469785690308">
        <ele>644</ele>
        <time>2019-05-11T21:58:31Z</time>
      </trkpt>
      <trkpt lat="36.8431129455566" lon="-5.19472789764404">
        <ele>644</ele>
        <time>2019-05-11T21:58:33Z</time>
      </trkpt>
      <trkpt lat="36.843132019043" lon="-5.19475793838501">
        <ele>644</ele>
        <time>2019-05-11T21:58:35Z</time>
      </trkpt>
      <trkpt lat="36.8431510925293" lon="-5.19478988647461">
        <ele>644</ele>
        <time>2019-05-11T21:58:37Z</time>
      </trkpt>
      <trkpt lat="36.8431663513184" lon="-5.19482183456421">
        <ele>644</ele>
        <time>2019-05-11T21:58:39Z</time>
      </trkpt>
      <trkpt lat="36.8431777954102" lon="-5.19485282897949">
        <ele>644</ele>
        <time>2019-05-11T21:58:41Z</time>
      </trkpt>
      <trkpt lat="36.843189239502" lon="-5.19489002227783">
        <ele>644</ele>
        <time>2019-05-11T21:58:43Z</time>
      </trkpt>
      <trkpt lat="36.8431968688965" lon="-5.19492292404175">
        <ele>644</ele>
        <time>2019-05-11T21:58:45Z</time>
      </trkpt>
      <trkpt lat="36.8431968688965" lon="-5.19495820999146">
        <ele>644</ele>
        <time>2019-05-11T21:58:47Z</time>
      </trkpt>
      <trkpt lat="36.8431968688965" lon="-5.19499683380127">
        <ele>644</ele>
        <time>2019-05-11T21:58:49Z</time>
      </trkpt>
      <trkpt lat="36.8431930541992" lon="-5.19502687454224">
        <ele>644</ele>
        <time>2019-05-11T21:58:51Z</time>
      </trkpt>
      <trkpt lat="36.8431968688965" lon="-5.19506216049194">
        <ele>644</ele>
        <time>2019-05-11T21:58:53Z</time>
      </trkpt>
      <trkpt lat="36.8431968688965" lon="-5.19509792327881">
        <ele>644</ele>
        <time>2019-05-11T21:58:55Z</time>
      </trkpt>
      <trkpt lat="36.8431968688965" lon="-5.19513320922852">
        <ele>644</ele>
        <time>2019-05-11T21:58:57Z</time>
      </trkpt>
      <trkpt lat="36.8431968688965" lon="-5.19516801834106">
        <ele>644</ele>
        <time>2019-05-11T21:58:59Z</time>
      </trkpt>
      <trkpt lat="36.8431968688965" lon="-5.1952018737793">
        <ele>644</ele>
        <time>2019-05-11T21:59:01Z</time>
      </trkpt>
      <trkpt lat="36.8431968688965" lon="-5.19523286819458">
        <ele>643</ele>
        <time>2019-05-11T21:59:03Z</time>
      </trkpt>
      <trkpt lat="36.8432006835938" lon="-5.19526481628418">
        <ele>643</ele>
        <time>2019-05-11T21:59:05Z</time>
      </trkpt>
      <trkpt lat="36.8432006835938" lon="-5.19530010223389">
        <ele>641</ele>
        <time>2019-05-11T21:59:07Z</time>
      </trkpt>
      <trkpt lat="36.843204498291" lon="-5.19533205032349">
        <ele>641</ele>
        <time>2019-05-11T21:59:09Z</time>
      </trkpt>
      <trkpt lat="36.843204498291" lon="-5.19536304473877">
        <ele>640</ele>
        <time>2019-05-11T21:59:11Z</time>
      </trkpt>
      <trkpt lat="36.8432006835938" lon="-5.19539499282837">
        <ele>639</ele>
        <time>2019-05-11T21:59:13Z</time>
      </trkpt>
      <trkpt lat="36.8432006835938" lon="-5.19542980194092">
        <ele>638</ele>
        <time>2019-05-11T21:59:15Z</time>
      </trkpt>
      <trkpt lat="36.8432006835938" lon="-5.19545984268188">
        <ele>638</ele>
        <time>2019-05-11T21:59:17Z</time>
      </trkpt>
      <trkpt lat="36.8432006835938" lon="-5.19549512863159">
        <ele>636</ele>
        <time>2019-05-11T21:59:19Z</time>
      </trkpt>
      <trkpt lat="36.8431968688965" lon="-5.19553184509277">
        <ele>636</ele>
        <time>2019-05-11T21:59:21Z</time>
      </trkpt>
      <trkpt lat="36.8431968688965" lon="-5.19556713104248">
        <ele>636</ele>
        <time>2019-05-11T21:59:23Z</time>
      </trkpt>
      <trkpt lat="36.8431968688965" lon="-5.19559717178345">
        <ele>636</ele>
        <time>2019-05-11T21:59:25Z</time>
      </trkpt>
      <trkpt lat="36.8431930541992" lon="-5.19562816619873">
        <ele>636</ele>
        <time>2019-05-11T21:59:27Z</time>
      </trkpt>
      <trkpt lat="36.8431968688965" lon="-5.1956582069397">
        <ele>635</ele>
        <time>2019-05-11T21:59:29Z</time>
      </trkpt>
      <trkpt lat="36.8431968688965" lon="-5.1956901550293">
        <ele>634</ele>
        <time>2019-05-11T21:59:31Z</time>
      </trkpt>
      <trkpt lat="36.8431968688965" lon="-5.19572305679321">
        <ele>634</ele>
        <time>2019-05-11T21:59:33Z</time>
      </trkpt>
      <trkpt lat="36.8431968688965" lon="-5.19575691223144">
        <ele>634</ele>
        <time>2019-05-11T21:59:35Z</time>
      </trkpt>
      <trkpt lat="36.8431968688965" lon="-5.19579219818115">
        <ele>633</ele>
        <time>2019-05-11T21:59:37Z</time>
      </trkpt>
      <trkpt lat="36.8431968688965" lon="-5.19583177566528">
        <ele>633</ele>
        <time>2019-05-11T21:59:39Z</time>
      </trkpt>
      <trkpt lat="36.8431930541992" lon="-5.19586992263794">
        <ele>633</ele>
        <time>2019-05-11T21:59:41Z</time>
      </trkpt>
      <trkpt lat="36.843189239502" lon="-5.19590520858765">
        <ele>633</ele>
        <time>2019-05-11T21:59:43Z</time>
      </trkpt>
      <trkpt lat="36.843189239502" lon="-5.19593811035156">
        <ele>633</ele>
        <time>2019-05-11T21:59:45Z</time>
      </trkpt>
      <trkpt lat="36.843189239502" lon="-5.19597816467285">
        <ele>633</ele>
        <time>2019-05-11T21:59:47Z</time>
      </trkpt>
      <trkpt lat="36.8431854248047" lon="-5.1960129737854">
        <ele>633</ele>
        <time>2019-05-11T21:59:49Z</time>
      </trkpt>
      <trkpt lat="36.8431854248047" lon="-5.19605016708374">
        <ele>633</ele>
        <time>2019-05-11T21:59:51Z</time>
      </trkpt>
      <trkpt lat="36.8431816101074" lon="-5.19608306884766">
        <ele>633</ele>
        <time>2019-05-11T21:59:53Z</time>
      </trkpt>
      <trkpt lat="36.8431816101074" lon="-5.19612312316894">
        <ele>633</ele>
        <time>2019-05-11T21:59:55Z</time>
      </trkpt>
      <trkpt lat="36.8431777954102" lon="-5.19616222381592">
        <ele>633</ele>
        <time>2019-05-11T21:59:57Z</time>
      </trkpt>
      <trkpt lat="36.8431777954102" lon="-5.19621276855469">
        <ele>633</ele>
        <time>2019-05-11T21:59:59Z</time>
      </trkpt>
      <trkpt lat="36.8431739807129" lon="-5.19624805450439">
        <ele>633</ele>
        <time>2019-05-11T22:00:01Z</time>
      </trkpt>
      <trkpt lat="36.8431739807129" lon="-5.19628000259399">
        <ele>633</ele>
        <time>2019-05-11T22:00:03Z</time>
      </trkpt>
      <trkpt lat="36.8431701660156" lon="-5.19631719589233">
        <ele>633</ele>
        <time>2019-05-11T22:00:05Z</time>
      </trkpt>
      <trkpt lat="36.8431701660156" lon="-5.1963529586792">
        <ele>633</ele>
        <time>2019-05-11T22:00:07Z</time>
      </trkpt>
      <trkpt lat="36.8431663513184" lon="-5.19639205932617">
        <ele>633</ele>
        <time>2019-05-11T22:00:09Z</time>
      </trkpt>
      <trkpt lat="36.8431625366211" lon="-5.19643020629883">
        <ele>633</ele>
        <time>2019-05-11T22:00:11Z</time>
      </trkpt>
      <trkpt lat="36.8431625366211" lon="-5.19646978378296">
        <ele>633</ele>
        <time>2019-05-11T22:00:14Z</time>
      </trkpt>
      <trkpt lat="36.8431587219238" lon="-5.19650506973267">
        <ele>633</ele>
        <time>2019-05-11T22:00:16Z</time>
      </trkpt>
      <trkpt lat="36.8431587219238" lon="-5.19654178619385">
        <ele>633</ele>
        <time>2019-05-11T22:00:18Z</time>
      </trkpt>
      <trkpt lat="36.8431587219238" lon="-5.19657707214356">
        <ele>633</ele>
        <time>2019-05-11T22:00:20Z</time>
      </trkpt>
      <trkpt lat="36.8431587219238" lon="-5.19661283493042">
        <ele>633</ele>
        <time>2019-05-11T22:00:22Z</time>
      </trkpt>
      <trkpt lat="36.8431587219238" lon="-5.19665002822876">
        <ele>633</ele>
        <time>2019-05-11T22:00:24Z</time>
      </trkpt>
      <trkpt lat="36.8431587219238" lon="-5.19668817520142">
        <ele>633</ele>
        <time>2019-05-11T22:00:26Z</time>
      </trkpt>
      <trkpt lat="36.8431549072266" lon="-5.19672679901123">
        <ele>633</ele>
        <time>2019-05-11T22:00:28Z</time>
      </trkpt>
      <trkpt lat="36.8431510925293" lon="-5.19676780700684">
        <ele>633</ele>
        <time>2019-05-11T22:00:30Z</time>
      </trkpt>
      <trkpt lat="36.843147277832" lon="-5.19680786132812">
        <ele>633</ele>
        <time>2019-05-11T22:00:32Z</time>
      </trkpt>
      <trkpt lat="36.843147277832" lon="-5.1968469619751">
        <ele>633</ele>
        <time>2019-05-11T22:00:34Z</time>
      </trkpt>
      <trkpt lat="36.843147277832" lon="-5.19688320159912">
        <ele>633</ele>
        <time>2019-05-11T22:00:36Z</time>
      </trkpt>
      <trkpt lat="36.8431434631348" lon="-5.19691705703735">
        <ele>633</ele>
        <time>2019-05-11T22:00:38Z</time>
      </trkpt>
      <trkpt lat="36.8431396484375" lon="-5.19694805145264">
        <ele>633</ele>
        <time>2019-05-11T22:00:40Z</time>
      </trkpt>
      <trkpt lat="36.8431396484375" lon="-5.1969780921936">
        <ele>633</ele>
        <time>2019-05-11T22:00:42Z</time>
      </trkpt>
      <trkpt lat="36.8431358337402" lon="-5.19701194763184">
        <ele>633</ele>
        <time>2019-05-11T22:00:44Z</time>
      </trkpt>
      <trkpt lat="36.843132019043" lon="-5.19704484939575">
        <ele>633</ele>
        <time>2019-05-11T22:00:46Z</time>
      </trkpt>
      <trkpt lat="36.8431282043457" lon="-5.19707822799683">
        <ele>633</ele>
        <time>2019-05-11T22:00:48Z</time>
      </trkpt>
      <trkpt lat="36.8431282043457" lon="-5.19711303710938">
        <ele>633</ele>
        <time>2019-05-11T22:00:50Z</time>
      </trkpt>
      <trkpt lat="36.8431243896484" lon="-5.19715023040772">
        <ele>633</ele>
        <time>2019-05-11T22:00:52Z</time>
      </trkpt>
      <trkpt lat="36.8431243896484" lon="-5.19718313217163">
        <ele>633</ele>
        <time>2019-05-11T22:00:54Z</time>
      </trkpt>
      <trkpt lat="36.8431205749512" lon="-5.1972131729126">
        <ele>633</ele>
        <time>2019-05-11T22:00:56Z</time>
      </trkpt>
      <trkpt lat="36.8431167602539" lon="-5.19724178314209">
        <ele>633</ele>
        <time>2019-05-11T22:00:58Z</time>
      </trkpt>
      <trkpt lat="36.8431167602539" lon="-5.19727516174316">
        <ele>633</ele>
        <time>2019-05-11T22:01:00Z</time>
      </trkpt>
      <trkpt lat="36.8431129455566" lon="-5.19730806350708">
        <ele>633</ele>
        <time>2019-05-11T22:01:02Z</time>
      </trkpt>
      <trkpt lat="36.8431053161621" lon="-5.19734191894531">
        <ele>632</ele>
        <time>2019-05-11T22:01:04Z</time>
      </trkpt>
      <trkpt lat="36.8431015014648" lon="-5.19737482070923">
        <ele>631</ele>
        <time>2019-05-11T22:01:06Z</time>
      </trkpt>
      <trkpt lat="36.8430976867676" lon="-5.19741010665894">
        <ele>631</ele>
        <time>2019-05-11T22:01:08Z</time>
      </trkpt>
      <trkpt lat="36.843090057373" lon="-5.19744682312012">
        <ele>631</ele>
        <time>2019-05-11T22:01:10Z</time>
      </trkpt>
      <trkpt lat="36.8430824279785" lon="-5.19748020172119">
        <ele>631</ele>
        <time>2019-05-11T22:01:12Z</time>
      </trkpt>
      <trkpt lat="36.8430709838867" lon="-5.19751310348511">
        <ele>631</ele>
        <time>2019-05-11T22:01:14Z</time>
      </trkpt>
      <trkpt lat="36.8430595397949" lon="-5.19754791259766">
        <ele>630</ele>
        <time>2019-05-11T22:01:16Z</time>
      </trkpt>
      <trkpt lat="36.8430442810059" lon="-5.197585105896">
        <ele>630</ele>
        <time>2019-05-11T22:01:18Z</time>
      </trkpt>
      <trkpt lat="36.8430252075195" lon="-5.1976170539856">
        <ele>630</ele>
        <time>2019-05-11T22:01:20Z</time>
      </trkpt>
      <trkpt lat="36.8430099487305" lon="-5.19764804840088">
        <ele>630</ele>
        <time>2019-05-11T22:01:22Z</time>
      </trkpt>
      <trkpt lat="36.8429908752441" lon="-5.1976752281189">
        <ele>630</ele>
        <time>2019-05-11T22:01:24Z</time>
      </trkpt>
      <trkpt lat="36.8429718017578" lon="-5.19770193099976">
        <ele>630</ele>
        <time>2019-05-11T22:01:26Z</time>
      </trkpt>
      <trkpt lat="36.8429565429688" lon="-5.19773006439209">
        <ele>630</ele>
        <time>2019-05-11T22:01:28Z</time>
      </trkpt>
      <trkpt lat="36.842945098877" lon="-5.19775676727295">
        <ele>630</ele>
        <time>2019-05-11T22:01:30Z</time>
      </trkpt>
      <trkpt lat="36.8429260253906" lon="-5.1977801322937">
        <ele>630</ele>
        <time>2019-05-11T22:01:32Z</time>
      </trkpt>
      <trkpt lat="36.8429069519043" lon="-5.19780492782593">
        <ele>630</ele>
        <time>2019-05-11T22:01:34Z</time>
      </trkpt>
      <trkpt lat="36.842887878418" lon="-5.19782781600952">
        <ele>630</ele>
        <time>2019-05-11T22:01:36Z</time>
      </trkpt>
      <trkpt lat="36.8428688049316" lon="-5.19785213470459">
        <ele>630</ele>
        <time>2019-05-11T22:01:38Z</time>
      </trkpt>
      <trkpt lat="36.8428497314453" lon="-5.19787502288818">
        <ele>630</ele>
        <time>2019-05-11T22:01:40Z</time>
      </trkpt>
      <trkpt lat="36.8428344726562" lon="-5.19789695739746">
        <ele>630</ele>
        <time>2019-05-11T22:01:42Z</time>
      </trkpt>
      <trkpt lat="36.8428153991699" lon="-5.19792222976685">
        <ele>630</ele>
        <time>2019-05-11T22:01:44Z</time>
      </trkpt>
      <trkpt lat="36.8427963256836" lon="-5.19794321060181">
        <ele>630</ele>
        <time>2019-05-11T22:01:46Z</time>
      </trkpt>
      <trkpt lat="36.8427772521973" lon="-5.19796323776245">
        <ele>630</ele>
        <time>2019-05-11T22:01:48Z</time>
      </trkpt>
      <trkpt lat="36.8427505493164" lon="-5.197998046875">
        <ele>630</ele>
        <time>2019-05-11T22:01:50Z</time>
      </trkpt>
      <trkpt lat="36.8427314758301" lon="-5.19801712036133">
        <ele>630</ele>
        <time>2019-05-11T22:01:52Z</time>
      </trkpt>
      <trkpt lat="36.842716217041" lon="-5.19803810119629">
        <ele>630</ele>
        <time>2019-05-11T22:01:54Z</time>
      </trkpt>
      <trkpt lat="36.8426971435547" lon="-5.19805288314819">
        <ele>630</ele>
        <time>2019-05-11T22:01:56Z</time>
      </trkpt>
      <trkpt lat="36.8426818847656" lon="-5.19807004928589">
        <ele>630</ele>
        <time>2019-05-11T22:01:58Z</time>
      </trkpt>
      <trkpt lat="36.8426628112793" lon="-5.19808292388916">
        <ele>630</ele>
        <time>2019-05-11T22:02:00Z</time>
      </trkpt>
      <trkpt lat="36.842643737793" lon="-5.1981029510498">
        <ele>630</ele>
        <time>2019-05-11T22:02:03Z</time>
      </trkpt>
      <trkpt lat="36.8426246643066" lon="-5.19812679290772">
        <ele>629</ele>
        <time>2019-05-11T22:02:05Z</time>
      </trkpt>
      <trkpt lat="36.842601776123" lon="-5.19815015792847">
        <ele>629</ele>
        <time>2019-05-11T22:02:07Z</time>
      </trkpt>
      <trkpt lat="36.842586517334" lon="-5.19817781448364">
        <ele>628</ele>
        <time>2019-05-11T22:02:09Z</time>
      </trkpt>
      <trkpt lat="36.8425674438477" lon="-5.19820022583008">
        <ele>628</ele>
        <time>2019-05-11T22:02:11Z</time>
      </trkpt>
      <trkpt lat="36.8425483703613" lon="-5.19821691513062">
        <ele>627</ele>
        <time>2019-05-11T22:02:13Z</time>
      </trkpt>
      <trkpt lat="36.8425331115723" lon="-5.19823217391968">
        <ele>626</ele>
        <time>2019-05-11T22:02:15Z</time>
      </trkpt>
      <trkpt lat="36.8425178527832" lon="-5.19824314117432">
        <ele>626</ele>
        <time>2019-05-11T22:02:17Z</time>
      </trkpt>
      <trkpt lat="36.8424911499023" lon="-5.1982569694519">
        <ele>626</ele>
        <time>2019-05-11T22:02:19Z</time>
      </trkpt>
      <trkpt lat="36.8424682617188" lon="-5.19827508926392">
        <ele>626</ele>
        <time>2019-05-11T22:02:21Z</time>
      </trkpt>
      <trkpt lat="36.8424415588379" lon="-5.19828987121582">
        <ele>626</ele>
        <time>2019-05-11T22:02:23Z</time>
      </trkpt>
      <trkpt lat="36.8424186706543" lon="-5.19830513000488">
        <ele>626</ele>
        <time>2019-05-11T22:02:25Z</time>
      </trkpt>
      <trkpt lat="36.8423881530762" lon="-5.1983151435852">
        <ele>626</ele>
        <time>2019-05-11T22:02:27Z</time>
      </trkpt>
      <trkpt lat="36.8423614501953" lon="-5.19832801818848">
        <ele>626</ele>
        <time>2019-05-11T22:02:29Z</time>
      </trkpt>
      <trkpt lat="36.8423347473144" lon="-5.19833707809448">
        <ele>626</ele>
        <time>2019-05-11T22:02:31Z</time>
      </trkpt>
      <trkpt lat="36.8423080444336" lon="-5.1983470916748">
        <ele>626</ele>
        <time>2019-05-11T22:02:33Z</time>
      </trkpt>
      <trkpt lat="36.8422775268555" lon="-5.19835186004639">
        <ele>626</ele>
        <time>2019-05-11T22:02:35Z</time>
      </trkpt>
      <trkpt lat="36.8422584533691" lon="-5.19835710525513">
        <ele>626</ele>
        <time>2019-05-11T22:02:37Z</time>
      </trkpt>
      <trkpt lat="36.8422317504883" lon="-5.19836711883545">
        <ele>626</ele>
        <time>2019-05-11T22:02:39Z</time>
      </trkpt>
      <trkpt lat="36.8422012329102" lon="-5.19837999343872">
        <ele>626</ele>
        <time>2019-05-11T22:02:41Z</time>
      </trkpt>
      <trkpt lat="36.8421745300293" lon="-5.19838285446167">
        <ele>626</ele>
        <time>2019-05-11T22:02:43Z</time>
      </trkpt>
      <trkpt lat="36.8421516418457" lon="-5.19838714599609">
        <ele>626</ele>
        <time>2019-05-11T22:02:45Z</time>
      </trkpt>
      <trkpt lat="36.8421211242676" lon="-5.19839191436768">
        <ele>626</ele>
        <time>2019-05-11T22:02:47Z</time>
      </trkpt>
      <trkpt lat="36.842098236084" lon="-5.19839286804199">
        <ele>627</ele>
        <time>2019-05-11T22:02:49Z</time>
      </trkpt>
      <trkpt lat="36.8420639038086" lon="-5.19839191436768">
        <ele>627</ele>
        <time>2019-05-11T22:02:51Z</time>
      </trkpt>
      <trkpt lat="36.8420333862305" lon="-5.19839191436768">
        <ele>627</ele>
        <time>2019-05-11T22:02:53Z</time>
      </trkpt>
      <trkpt lat="36.8420028686523" lon="-5.19839191436768">
        <ele>627</ele>
        <time>2019-05-11T22:02:55Z</time>
      </trkpt>
      <trkpt lat="36.8419761657715" lon="-5.19838809967041">
        <ele>627</ele>
        <time>2019-05-11T22:02:57Z</time>
      </trkpt>
      <trkpt lat="36.8419456481934" lon="-5.1983847618103">
        <ele>627</ele>
        <time>2019-05-11T22:02:59Z</time>
      </trkpt>
      <trkpt lat="36.8419189453125" lon="-5.1983847618103">
        <ele>627</ele>
        <time>2019-05-11T22:03:01Z</time>
      </trkpt>
      <trkpt lat="36.8418884277344" lon="-5.19839000701904">
        <ele>627</ele>
        <time>2019-05-11T22:03:03Z</time>
      </trkpt>
      <trkpt lat="36.8418617248535" lon="-5.19839477539062">
        <ele>628</ele>
        <time>2019-05-11T22:03:05Z</time>
      </trkpt>
      <trkpt lat="36.8418312072754" lon="-5.19840288162231">
        <ele>628</ele>
        <time>2019-05-11T22:03:07Z</time>
      </trkpt>
      <trkpt lat="36.8418045043945" lon="-5.19840812683106">
        <ele>628</ele>
        <time>2019-05-11T22:03:09Z</time>
      </trkpt>
      <trkpt lat="36.8417739868164" lon="-5.19841194152832">
        <ele>628</ele>
        <time>2019-05-11T22:03:11Z</time>
      </trkpt>
      <trkpt lat="36.8417434692383" lon="-5.19841480255127">
        <ele>628</ele>
        <time>2019-05-11T22:03:13Z</time>
      </trkpt>
      <trkpt lat="36.8417167663574" lon="-5.1984281539917">
        <ele>628</ele>
        <time>2019-05-11T22:03:15Z</time>
      </trkpt>
      <trkpt lat="36.8416938781738" lon="-5.19843292236328">
        <ele>628</ele>
        <time>2019-05-11T22:03:17Z</time>
      </trkpt>
      <trkpt lat="36.8416633605957" lon="-5.1984372138977">
        <ele>628</ele>
        <time>2019-05-11T22:03:19Z</time>
      </trkpt>
      <trkpt lat="36.841625213623" lon="-5.19844484329224">
        <ele>628</ele>
        <time>2019-05-11T22:03:21Z</time>
      </trkpt>
      <trkpt lat="36.8415946960449" lon="-5.19844818115234">
        <ele>628</ele>
        <time>2019-05-11T22:03:23Z</time>
      </trkpt>
      <trkpt lat="36.8415641784668" lon="-5.19845676422119">
        <ele>628</ele>
        <time>2019-05-11T22:03:25Z</time>
      </trkpt>
      <trkpt lat="36.8415145874023" lon="-5.1984601020813">
        <ele>628</ele>
        <time>2019-05-11T22:03:27Z</time>
      </trkpt>
      <trkpt lat="36.841480255127" lon="-5.19846677780151">
        <ele>628</ele>
        <time>2019-05-11T22:03:29Z</time>
      </trkpt>
      <trkpt lat="36.8414535522461" lon="-5.1984748840332">
        <ele>628</ele>
        <time>2019-05-11T22:03:31Z</time>
      </trkpt>
      <trkpt lat="36.841423034668" lon="-5.19848203659058">
        <ele>628</ele>
        <time>2019-05-11T22:03:33Z</time>
      </trkpt>
      <trkpt lat="36.8413963317871" lon="-5.19848489761353">
        <ele>628</ele>
        <time>2019-05-11T22:03:35Z</time>
      </trkpt>
      <trkpt lat="36.841365814209" lon="-5.19848203659058">
        <ele>628</ele>
        <time>2019-05-11T22:03:38Z</time>
      </trkpt>
      <trkpt lat="36.8413314819336" lon="-5.19848489761353">
        <ele>628</ele>
        <time>2019-05-11T22:03:40Z</time>
      </trkpt>
      <trkpt lat="36.8412971496582" lon="-5.19849491119385">
        <ele>628</ele>
        <time>2019-05-11T22:03:42Z</time>
      </trkpt>
      <trkpt lat="36.8412666320801" lon="-5.19850778579712">
        <ele>628</ele>
        <time>2019-05-11T22:03:44Z</time>
      </trkpt>
      <trkpt lat="36.8412437438965" lon="-5.19852209091186">
        <ele>628</ele>
        <time>2019-05-11T22:03:46Z</time>
      </trkpt>
      <trkpt lat="36.8412132263184" lon="-5.19853496551514">
        <ele>628</ele>
        <time>2019-05-11T22:03:48Z</time>
      </trkpt>
      <trkpt lat="36.8411865234375" lon="-5.1985502243042">
        <ele>628</ele>
        <time>2019-05-11T22:03:50Z</time>
      </trkpt>
      <trkpt lat="36.8411598205566" lon="-5.19856691360474">
        <ele>628</ele>
        <time>2019-05-11T22:03:52Z</time>
      </trkpt>
      <trkpt lat="36.8411331176758" lon="-5.19858312606812">
        <ele>628</ele>
        <time>2019-05-11T22:03:54Z</time>
      </trkpt>
      <trkpt lat="36.8411102294922" lon="-5.19859790802002">
        <ele>628</ele>
        <time>2019-05-11T22:03:56Z</time>
      </trkpt>
      <trkpt lat="36.8410873413086" lon="-5.19861507415772">
        <ele>628</ele>
        <time>2019-05-11T22:03:58Z</time>
      </trkpt>
      <trkpt lat="36.8410682678223" lon="-5.19863176345825">
        <ele>628</ele>
        <time>2019-05-11T22:04:00Z</time>
      </trkpt>
      <trkpt lat="36.8410530090332" lon="-5.19865703582764">
        <ele>628</ele>
        <time>2019-05-11T22:04:02Z</time>
      </trkpt>
      <trkpt lat="36.8410377502441" lon="-5.19868183135986">
        <ele>627</ele>
        <time>2019-05-11T22:04:04Z</time>
      </trkpt>
      <trkpt lat="36.8410224914551" lon="-5.1987099647522">
        <ele>626</ele>
        <time>2019-05-11T22:04:06Z</time>
      </trkpt>
      <trkpt lat="36.8410034179688" lon="-5.19874286651611">
        <ele>626</ele>
        <time>2019-05-11T22:04:08Z</time>
      </trkpt>
      <trkpt lat="36.8409843444824" lon="-5.19878005981445">
        <ele>626</ele>
        <time>2019-05-11T22:04:10Z</time>
      </trkpt>
      <trkpt lat="36.8409652709961" lon="-5.198814868927">
        <ele>626</ele>
        <time>2019-05-11T22:04:12Z</time>
      </trkpt>
      <trkpt lat="36.8409538269043" lon="-5.19885206222534">
        <ele>626</ele>
        <time>2019-05-11T22:04:14Z</time>
      </trkpt>
      <trkpt lat="36.8409309387207" lon="-5.19888496398926">
        <ele>626</ele>
        <time>2019-05-11T22:04:16Z</time>
      </trkpt>
      <trkpt lat="36.8409156799316" lon="-5.19891977310181">
        <ele>626</ele>
        <time>2019-05-11T22:04:18Z</time>
      </trkpt>
      <trkpt lat="36.8408966064453" lon="-5.19895696640015">
        <ele>626</ele>
        <time>2019-05-11T22:04:20Z</time>
      </trkpt>
      <trkpt lat="36.840877532959" lon="-5.19898509979248">
        <ele>626</ele>
        <time>2019-05-11T22:04:22Z</time>
      </trkpt>
      <trkpt lat="36.8408584594727" lon="-5.19901323318481">
        <ele>626</ele>
        <time>2019-05-11T22:04:24Z</time>
      </trkpt>
      <trkpt lat="36.8408393859863" lon="-5.19903993606567">
        <ele>626</ele>
        <time>2019-05-11T22:04:26Z</time>
      </trkpt>
      <trkpt lat="36.8408203125" lon="-5.19906806945801">
        <ele>626</ele>
        <time>2019-05-11T22:04:28Z</time>
      </trkpt>
      <trkpt lat="36.8408012390137" lon="-5.19909715652466">
        <ele>626</ele>
        <time>2019-05-11T22:04:30Z</time>
      </trkpt>
      <trkpt lat="36.8407821655273" lon="-5.1991229057312">
        <ele>626</ele>
        <time>2019-05-11T22:04:32Z</time>
      </trkpt>
      <trkpt lat="36.8407669067383" lon="-5.19914722442627">
        <ele>626</ele>
        <time>2019-05-11T22:04:34Z</time>
      </trkpt>
      <trkpt lat="36.840747833252" lon="-5.1991720199585">
        <ele>626</ele>
        <time>2019-05-11T22:04:36Z</time>
      </trkpt>
      <trkpt lat="36.8407325744629" lon="-5.19919490814209">
        <ele>626</ele>
        <time>2019-05-11T22:04:38Z</time>
      </trkpt>
      <trkpt lat="36.8407173156738" lon="-5.19922304153442">
        <ele>626</ele>
        <time>2019-05-11T22:04:40Z</time>
      </trkpt>
      <trkpt lat="36.840705871582" lon="-5.19925212860107">
        <ele>626</ele>
        <time>2019-05-11T22:04:42Z</time>
      </trkpt>
      <trkpt lat="36.8406944274902" lon="-5.19927215576172">
        <ele>626</ele>
        <time>2019-05-11T22:04:44Z</time>
      </trkpt>
      <trkpt lat="36.8406753540039" lon="-5.19929504394531">
        <ele>626</ele>
        <time>2019-05-11T22:04:46Z</time>
      </trkpt>
      <trkpt lat="36.8406600952148" lon="-5.19932508468628">
        <ele>625</ele>
        <time>2019-05-11T22:04:48Z</time>
      </trkpt>
      <trkpt lat="36.8406448364258" lon="-5.19935321807861">
        <ele>624</ele>
        <time>2019-05-11T22:04:50Z</time>
      </trkpt>
      <trkpt lat="36.840633392334" lon="-5.19937992095947">
        <ele>623</ele>
        <time>2019-05-11T22:04:52Z</time>
      </trkpt>
      <trkpt lat="36.8406219482422" lon="-5.19940996170044">
        <ele>622</ele>
        <time>2019-05-11T22:04:54Z</time>
      </trkpt>
      <trkpt lat="36.8406066894531" lon="-5.19943714141846">
        <ele>621</ele>
        <time>2019-05-11T22:04:56Z</time>
      </trkpt>
      <trkpt lat="36.8405876159668" lon="-5.19947290420532">
        <ele>621</ele>
        <time>2019-05-11T22:04:58Z</time>
      </trkpt>
      <trkpt lat="36.8405723571777" lon="-5.19950294494629">
        <ele>620</ele>
        <time>2019-05-11T22:05:00Z</time>
      </trkpt>
      <trkpt lat="36.8405570983887" lon="-5.19953203201294">
        <ele>620</ele>
        <time>2019-05-11T22:05:02Z</time>
      </trkpt>
      <trkpt lat="36.8405418395996" lon="-5.19956016540527">
        <ele>619</ele>
        <time>2019-05-11T22:05:04Z</time>
      </trkpt>
      <trkpt lat="36.8405265808106" lon="-5.19959020614624">
        <ele>619</ele>
        <time>2019-05-11T22:05:06Z</time>
      </trkpt>
      <trkpt lat="36.8405075073242" lon="-5.19961977005005">
        <ele>619</ele>
        <time>2019-05-11T22:05:08Z</time>
      </trkpt>
      <trkpt lat="36.8404922485352" lon="-5.19964981079102">
        <ele>618</ele>
        <time>2019-05-11T22:05:11Z</time>
      </trkpt>
      <trkpt lat="36.8404808044434" lon="-5.19968223571777">
        <ele>618</ele>
        <time>2019-05-11T22:05:13Z</time>
      </trkpt>
      <trkpt lat="36.8404693603516" lon="-5.19971799850464">
        <ele>618</ele>
        <time>2019-05-11T22:05:15Z</time>
      </trkpt>
      <trkpt lat="36.8404502868652" lon="-5.19975185394287">
        <ele>616</ele>
        <time>2019-05-11T22:05:17Z</time>
      </trkpt>
      <trkpt lat="36.8404312133789" lon="-5.19978523254394">
        <ele>616</ele>
        <time>2019-05-11T22:05:19Z</time>
      </trkpt>
      <trkpt lat="36.8404159545898" lon="-5.19981813430786">
        <ele>616</ele>
        <time>2019-05-11T22:05:21Z</time>
      </trkpt>
      <trkpt lat="36.8403968811035" lon="-5.19985294342041">
        <ele>616</ele>
        <time>2019-05-11T22:05:23Z</time>
      </trkpt>
      <trkpt lat="36.8403816223144" lon="-5.19988489151001">
        <ele>616</ele>
        <time>2019-05-11T22:05:25Z</time>
      </trkpt>
      <trkpt lat="36.8403663635254" lon="-5.19991302490234">
        <ele>616</ele>
        <time>2019-05-11T22:05:27Z</time>
      </trkpt>
      <trkpt lat="36.8403511047363" lon="-5.19994306564331">
        <ele>615</ele>
        <time>2019-05-11T22:05:29Z</time>
      </trkpt>
      <trkpt lat="36.8403396606445" lon="-5.19997501373291">
        <ele>613</ele>
        <time>2019-05-11T22:05:31Z</time>
      </trkpt>
      <trkpt lat="36.8403244018555" lon="-5.20001220703125">
        <ele>612</ele>
        <time>2019-05-11T22:05:33Z</time>
      </trkpt>
      <trkpt lat="36.8403053283691" lon="-5.20004320144653">
        <ele>611</ele>
        <time>2019-05-11T22:05:35Z</time>
      </trkpt>
      <trkpt lat="36.8402862548828" lon="-5.20007801055908">
        <ele>611</ele>
        <time>2019-05-11T22:05:37Z</time>
      </trkpt>
      <trkpt lat="36.840274810791" lon="-5.20011281967163">
        <ele>611</ele>
        <time>2019-05-11T22:05:39Z</time>
      </trkpt>
      <trkpt lat="36.8402557373047" lon="-5.20014715194702">
        <ele>611</ele>
        <time>2019-05-11T22:05:41Z</time>
      </trkpt>
      <trkpt lat="36.8402404785156" lon="-5.20018196105957">
        <ele>611</ele>
        <time>2019-05-11T22:05:43Z</time>
      </trkpt>
      <trkpt lat="36.8402252197266" lon="-5.20021677017212">
        <ele>611</ele>
        <time>2019-05-11T22:05:45Z</time>
      </trkpt>
      <trkpt lat="36.8402099609375" lon="-5.20024681091309">
        <ele>611</ele>
        <time>2019-05-11T22:05:47Z</time>
      </trkpt>
      <trkpt lat="36.8401947021484" lon="-5.20027685165405">
        <ele>610</ele>
        <time>2019-05-11T22:05:49Z</time>
      </trkpt>
      <trkpt lat="36.8401832580566" lon="-5.20030689239502">
        <ele>610</ele>
        <time>2019-05-11T22:05:51Z</time>
      </trkpt>
      <trkpt lat="36.8401718139648" lon="-5.2003321647644">
        <ele>609</ele>
        <time>2019-05-11T22:05:53Z</time>
      </trkpt>
      <trkpt lat="36.8401565551758" lon="-5.20035314559936">
        <ele>609</ele>
        <time>2019-05-11T22:05:55Z</time>
      </trkpt>
      <trkpt lat="36.8401374816894" lon="-5.20037984848022">
        <ele>608</ele>
        <time>2019-05-11T22:05:57Z</time>
      </trkpt>
      <trkpt lat="36.8401222229004" lon="-5.20040798187256">
        <ele>608</ele>
        <time>2019-05-11T22:05:59Z</time>
      </trkpt>
      <trkpt lat="36.8401069641113" lon="-5.20043516159058">
        <ele>608</ele>
        <time>2019-05-11T22:06:01Z</time>
      </trkpt>
      <trkpt lat="36.8400917053223" lon="-5.20045804977417">
        <ele>608</ele>
        <time>2019-05-11T22:06:03Z</time>
      </trkpt>
      <trkpt lat="36.8400726318359" lon="-5.20047998428345">
        <ele>608</ele>
        <time>2019-05-11T22:06:05Z</time>
      </trkpt>
      <trkpt lat="36.8400535583496" lon="-5.20050716400146">
        <ele>608</ele>
        <time>2019-05-11T22:06:07Z</time>
      </trkpt>
      <trkpt lat="36.840030670166" lon="-5.20052814483643">
        <ele>608</ele>
        <time>2019-05-11T22:06:09Z</time>
      </trkpt>
      <trkpt lat="36.8400115966797" lon="-5.2005500793457">
        <ele>608</ele>
        <time>2019-05-11T22:06:11Z</time>
      </trkpt>
      <trkpt lat="36.8399887084961" lon="-5.20057201385498">
        <ele>608</ele>
        <time>2019-05-11T22:06:13Z</time>
      </trkpt>
      <trkpt lat="36.8399696350098" lon="-5.20059013366699">
        <ele>608</ele>
        <time>2019-05-11T22:06:15Z</time>
      </trkpt>
      <trkpt lat="36.8399467468262" lon="-5.2006049156189">
        <ele>608</ele>
        <time>2019-05-11T22:06:17Z</time>
      </trkpt>
      <trkpt lat="36.839916229248" lon="-5.20061492919922">
        <ele>608</ele>
        <time>2019-05-11T22:06:19Z</time>
      </trkpt>
      <trkpt lat="36.8398971557617" lon="-5.20062208175659">
        <ele>608</ele>
        <time>2019-05-11T22:06:21Z</time>
      </trkpt>
      <trkpt lat="36.8398704528809" lon="-5.20062780380249">
        <ele>608</ele>
        <time>2019-05-11T22:06:23Z</time>
      </trkpt>
      <trkpt lat="36.83984375" lon="-5.20063304901123">
        <ele>608</ele>
        <time>2019-05-11T22:06:25Z</time>
      </trkpt>
      <trkpt lat="36.8398170471191" lon="-5.20063209533691">
        <ele>608</ele>
        <time>2019-05-11T22:06:27Z</time>
      </trkpt>
      <trkpt lat="36.8397903442383" lon="-5.20062780380249">
        <ele>608</ele>
        <time>2019-05-11T22:06:29Z</time>
      </trkpt>
      <trkpt lat="36.8397598266602" lon="-5.20063018798828">
        <ele>608</ele>
        <time>2019-05-11T22:06:31Z</time>
      </trkpt>
      <trkpt lat="36.8397216796875" lon="-5.20063209533691">
        <ele>608</ele>
        <time>2019-05-11T22:06:33Z</time>
      </trkpt>
      <trkpt lat="36.8396873474121" lon="-5.20063495635986">
        <ele>608</ele>
        <time>2019-05-11T22:06:35Z</time>
      </trkpt>
      <trkpt lat="36.839656829834" lon="-5.2006402015686">
        <ele>608</ele>
        <time>2019-05-11T22:06:37Z</time>
      </trkpt>
      <trkpt lat="36.8396263122559" lon="-5.20064496994019">
        <ele>608</ele>
        <time>2019-05-11T22:06:39Z</time>
      </trkpt>
      <trkpt lat="36.8395919799805" lon="-5.20064783096314">
        <ele>608</ele>
        <time>2019-05-11T22:06:41Z</time>
      </trkpt>
      <trkpt lat="36.8395652770996" lon="-5.20065307617188">
        <ele>608</ele>
        <time>2019-05-11T22:06:43Z</time>
      </trkpt>
      <trkpt lat="36.839542388916" lon="-5.20066785812378">
        <ele>608</ele>
        <time>2019-05-11T22:06:46Z</time>
      </trkpt>
      <trkpt lat="36.8395156860352" lon="-5.20069313049316">
        <ele>608</ele>
        <time>2019-05-11T22:06:48Z</time>
      </trkpt>
      <trkpt lat="36.8394966125488" lon="-5.20071315765381">
        <ele>608</ele>
        <time>2019-05-11T22:06:50Z</time>
      </trkpt>
      <trkpt lat="36.8394737243652" lon="-5.20073223114014">
        <ele>608</ele>
        <time>2019-05-11T22:06:52Z</time>
      </trkpt>
      <trkpt lat="36.8394584655762" lon="-5.20075178146362">
        <ele>608</ele>
        <time>2019-05-11T22:06:54Z</time>
      </trkpt>
      <trkpt lat="36.8394393920898" lon="-5.20077514648438">
        <ele>608</ele>
        <time>2019-05-11T22:06:56Z</time>
      </trkpt>
      <trkpt lat="36.8394203186035" lon="-5.20079803466797">
        <ele>608</ele>
        <time>2019-05-11T22:06:58Z</time>
      </trkpt>
      <trkpt lat="36.8394012451172" lon="-5.20082712173462">
        <ele>608</ele>
        <time>2019-05-11T22:07:00Z</time>
      </trkpt>
      <trkpt lat="36.8393821716309" lon="-5.20085191726685">
        <ele>608</ele>
        <time>2019-05-11T22:07:02Z</time>
      </trkpt>
      <trkpt lat="36.8393630981445" lon="-5.20087718963623">
        <ele>608</ele>
        <time>2019-05-11T22:07:04Z</time>
      </trkpt>
      <trkpt lat="36.8393363952637" lon="-5.20090198516846">
        <ele>608</ele>
        <time>2019-05-11T22:07:06Z</time>
      </trkpt>
      <trkpt lat="36.8393211364746" lon="-5.20092678070068">
        <ele>608</ele>
        <time>2019-05-11T22:07:08Z</time>
      </trkpt>
      <trkpt lat="36.8393020629883" lon="-5.20095205307007">
        <ele>608</ele>
        <time>2019-05-11T22:07:10Z</time>
      </trkpt>
      <trkpt lat="36.8392791748047" lon="-5.2009801864624">
        <ele>608</ele>
        <time>2019-05-11T22:07:12Z</time>
      </trkpt>
      <trkpt lat="36.8392601013184" lon="-5.201012134552">
        <ele>608</ele>
        <time>2019-05-11T22:07:14Z</time>
      </trkpt>
      <trkpt lat="36.839241027832" lon="-5.20104217529297">
        <ele>608</ele>
        <time>2019-05-11T22:07:16Z</time>
      </trkpt>
      <trkpt lat="36.8392219543457" lon="-5.20107507705688">
        <ele>608</ele>
        <time>2019-05-11T22:07:18Z</time>
      </trkpt>
      <trkpt lat="36.8392066955566" lon="-5.20110321044922">
        <ele>608</ele>
        <time>2019-05-11T22:07:20Z</time>
      </trkpt>
      <trkpt lat="36.8391914367676" lon="-5.20113515853882">
        <ele>608</ele>
        <time>2019-05-11T22:07:22Z</time>
      </trkpt>
      <trkpt lat="36.8391723632812" lon="-5.20116710662842">
        <ele>608</ele>
        <time>2019-05-11T22:07:24Z</time>
      </trkpt>
      <trkpt lat="36.8391532897949" lon="-5.2011981010437">
        <ele>608</ele>
        <time>2019-05-11T22:07:26Z</time>
      </trkpt>
      <trkpt lat="36.8391342163086" lon="-5.20122814178467">
        <ele>608</ele>
        <time>2019-05-11T22:07:28Z</time>
      </trkpt>
      <trkpt lat="36.8391189575195" lon="-5.20126008987427">
        <ele>608</ele>
        <time>2019-05-11T22:07:30Z</time>
      </trkpt>
      <trkpt lat="36.8390998840332" lon="-5.2012882232666">
        <ele>608</ele>
        <time>2019-05-11T22:07:32Z</time>
      </trkpt>
      <trkpt lat="36.8390808105469" lon="-5.20131683349609">
        <ele>608</ele>
        <time>2019-05-11T22:07:34Z</time>
      </trkpt>
      <trkpt lat="36.8390579223633" lon="-5.20134496688843">
        <ele>608</ele>
        <time>2019-05-11T22:07:36Z</time>
      </trkpt>
      <trkpt lat="36.839038848877" lon="-5.20137214660644">
        <ele>608</ele>
        <time>2019-05-11T22:07:38Z</time>
      </trkpt>
      <trkpt lat="36.8390159606934" lon="-5.20139789581299">
        <ele>608</ele>
        <time>2019-05-11T22:07:40Z</time>
      </trkpt>
      <trkpt lat="36.8389892578125" lon="-5.20142316818237">
        <ele>608</ele>
        <time>2019-05-11T22:07:42Z</time>
      </trkpt>
      <trkpt lat="36.8389663696289" lon="-5.20144987106323">
        <ele>608</ele>
        <time>2019-05-11T22:07:44Z</time>
      </trkpt>
      <trkpt lat="36.838939666748" lon="-5.20147323608398">
        <ele>608</ele>
        <time>2019-05-11T22:07:46Z</time>
      </trkpt>
      <trkpt lat="36.8389167785644" lon="-5.20149517059326">
        <ele>608</ele>
        <time>2019-05-11T22:07:48Z</time>
      </trkpt>
      <trkpt lat="36.8388938903809" lon="-5.20151710510254">
        <ele>608</ele>
        <time>2019-05-11T22:07:50Z</time>
      </trkpt>
      <trkpt lat="36.8388671875" lon="-5.20153999328613">
        <ele>608</ele>
        <time>2019-05-11T22:07:52Z</time>
      </trkpt>
      <trkpt lat="36.8388404846191" lon="-5.20156002044678">
        <ele>608</ele>
        <time>2019-05-11T22:07:54Z</time>
      </trkpt>
      <trkpt lat="36.8388175964356" lon="-5.20158195495606">
        <ele>608</ele>
        <time>2019-05-11T22:07:56Z</time>
      </trkpt>
      <trkpt lat="36.8387908935547" lon="-5.20160007476807">
        <ele>608</ele>
        <time>2019-05-11T22:07:58Z</time>
      </trkpt>
      <trkpt lat="36.8387641906738" lon="-5.20162010192871">
        <ele>608</ele>
        <time>2019-05-11T22:08:00Z</time>
      </trkpt>
      <trkpt lat="36.8387413024902" lon="-5.20164203643799">
        <ele>608</ele>
        <time>2019-05-11T22:08:02Z</time>
      </trkpt>
      <trkpt lat="36.8387184143066" lon="-5.20165300369263">
        <ele>608</ele>
        <time>2019-05-11T22:08:04Z</time>
      </trkpt>
      <trkpt lat="36.838695526123" lon="-5.20167207717896">
        <ele>608</ele>
        <time>2019-05-11T22:08:06Z</time>
      </trkpt>
      <trkpt lat="36.8386497497559" lon="-5.2016921043396">
        <ele>608</ele>
        <time>2019-05-11T22:08:08Z</time>
      </trkpt>
      <trkpt lat="36.838623046875" lon="-5.20170497894287">
        <ele>608</ele>
        <time>2019-05-11T22:08:10Z</time>
      </trkpt>
      <trkpt lat="36.8386001586914" lon="-5.20171308517456">
        <ele>608</ele>
        <time>2019-05-11T22:08:12Z</time>
      </trkpt>
      <trkpt lat="36.8385772705078" lon="-5.20172309875488">
        <ele>608</ele>
        <time>2019-05-11T22:08:14Z</time>
      </trkpt>
      <trkpt lat="36.8385543823242" lon="-5.20172214508057">
        <ele>608</ele>
        <time>2019-05-11T22:08:16Z</time>
      </trkpt>
      <trkpt lat="36.8385276794434" lon="-5.20172214508057">
        <ele>608</ele>
        <time>2019-05-11T22:08:19Z</time>
      </trkpt>
      <trkpt lat="36.8384971618652" lon="-5.20172214508057">
        <ele>608</ele>
        <time>2019-05-11T22:08:21Z</time>
      </trkpt>
      <trkpt lat="36.8384704589844" lon="-5.20171689987183">
        <ele>607</ele>
        <time>2019-05-11T22:08:23Z</time>
      </trkpt>
      <trkpt lat="36.8384475708008" lon="-5.2017068862915">
        <ele>606</ele>
        <time>2019-05-11T22:08:25Z</time>
      </trkpt>
      <trkpt lat="36.8384170532227" lon="-5.2016978263855">
        <ele>606</ele>
        <time>2019-05-11T22:08:27Z</time>
      </trkpt>
      <trkpt lat="36.8383903503418" lon="-5.20168495178223">
        <ele>606</ele>
        <time>2019-05-11T22:08:29Z</time>
      </trkpt>
      <trkpt lat="36.8383636474609" lon="-5.20167207717896">
        <ele>606</ele>
        <time>2019-05-11T22:08:31Z</time>
      </trkpt>
      <trkpt lat="36.8383331298828" lon="-5.20165205001831">
        <ele>606</ele>
        <time>2019-05-11T22:08:33Z</time>
      </trkpt>
      <trkpt lat="36.838306427002" lon="-5.20163011550903">
        <ele>606</ele>
        <time>2019-05-11T22:08:35Z</time>
      </trkpt>
      <trkpt lat="36.8382797241211" lon="-5.20160484313965">
        <ele>606</ele>
        <time>2019-05-11T22:08:37Z</time>
      </trkpt>
      <trkpt lat="36.8382568359375" lon="-5.20158195495606">
        <ele>605</ele>
        <time>2019-05-11T22:08:39Z</time>
      </trkpt>
      <trkpt lat="36.8382415771484" lon="-5.20155811309814">
        <ele>604</ele>
        <time>2019-05-11T22:08:41Z</time>
      </trkpt>
      <trkpt lat="36.8382225036621" lon="-5.20153284072876">
        <ele>603</ele>
        <time>2019-05-11T22:08:43Z</time>
      </trkpt>
      <trkpt lat="36.8381996154785" lon="-5.20150518417358">
        <ele>602</ele>
        <time>2019-05-11T22:08:45Z</time>
      </trkpt>
      <trkpt lat="36.8381767272949" lon="-5.20147514343262">
        <ele>602</ele>
        <time>2019-05-11T22:08:47Z</time>
      </trkpt>
      <trkpt lat="36.8381614685059" lon="-5.2014479637146">
        <ele>601</ele>
        <time>2019-05-11T22:08:49Z</time>
      </trkpt>
      <trkpt lat="36.8381423950195" lon="-5.20141696929932">
        <ele>600</ele>
        <time>2019-05-11T22:08:51Z</time>
      </trkpt>
      <trkpt lat="36.8381233215332" lon="-5.2013897895813">
        <ele>599</ele>
        <time>2019-05-11T22:08:53Z</time>
      </trkpt>
      <trkpt lat="36.8381080627441" lon="-5.2013669013977">
        <ele>598</ele>
        <time>2019-05-11T22:08:55Z</time>
      </trkpt>
      <trkpt lat="36.8380813598633" lon="-5.20134019851685">
        <ele>597</ele>
        <time>2019-05-11T22:08:57Z</time>
      </trkpt>
      <trkpt lat="36.8380584716797" lon="-5.20131492614746">
        <ele>597</ele>
        <time>2019-05-11T22:08:59Z</time>
      </trkpt>
      <trkpt lat="36.8380317687988" lon="-5.20129013061523">
        <ele>596</ele>
        <time>2019-05-11T22:09:01Z</time>
      </trkpt>
      <trkpt lat="36.8380012512207" lon="-5.20127201080322">
        <ele>596</ele>
        <time>2019-05-11T22:09:03Z</time>
      </trkpt>
      <trkpt lat="36.8379707336426" lon="-5.20125198364258">
        <ele>596</ele>
        <time>2019-05-11T22:09:05Z</time>
      </trkpt>
      <trkpt lat="36.8379516601562" lon="-5.20123481750488">
        <ele>596</ele>
        <time>2019-05-11T22:09:07Z</time>
      </trkpt>
      <trkpt lat="36.8379325866699" lon="-5.20121717453003">
        <ele>596</ele>
        <time>2019-05-11T22:09:09Z</time>
      </trkpt>
      <trkpt lat="36.8379135131836" lon="-5.20118808746338">
        <ele>596</ele>
        <time>2019-05-11T22:09:11Z</time>
      </trkpt>
      <trkpt lat="36.8378944396973" lon="-5.20116281509399">
        <ele>596</ele>
        <time>2019-05-11T22:09:13Z</time>
      </trkpt>
      <trkpt lat="36.8378677368164" lon="-5.20114707946777">
        <ele>596</ele>
        <time>2019-05-11T22:09:15Z</time>
      </trkpt>
      <trkpt lat="36.8378410339356" lon="-5.20112991333008">
        <ele>596</ele>
        <time>2019-05-11T22:09:17Z</time>
      </trkpt>
      <trkpt lat="36.837818145752" lon="-5.2011079788208">
        <ele>596</ele>
        <time>2019-05-11T22:09:19Z</time>
      </trkpt>
      <trkpt lat="36.8377990722656" lon="-5.20108509063721">
        <ele>596</ele>
        <time>2019-05-11T22:09:21Z</time>
      </trkpt>
      <trkpt lat="36.837776184082" lon="-5.20105695724487">
        <ele>596</ele>
        <time>2019-05-11T22:09:23Z</time>
      </trkpt>
      <trkpt lat="36.8377494812012" lon="-5.20102787017822">
        <ele>596</ele>
        <time>2019-05-11T22:09:25Z</time>
      </trkpt>
      <trkpt lat="36.837718963623" lon="-5.20100784301758">
        <ele>596</ele>
        <time>2019-05-11T22:09:27Z</time>
      </trkpt>
      <trkpt lat="36.8376884460449" lon="-5.20099020004272">
        <ele>597</ele>
        <time>2019-05-11T22:09:29Z</time>
      </trkpt>
      <trkpt lat="36.8376617431641" lon="-5.2009768486023">
        <ele>598</ele>
        <time>2019-05-11T22:09:31Z</time>
      </trkpt>
      <trkpt lat="36.8376312255859" lon="-5.20096015930176">
        <ele>600</ele>
        <time>2019-05-11T22:09:33Z</time>
      </trkpt>
      <trkpt lat="36.8376083374023" lon="-5.20094203948975">
        <ele>601</ele>
        <time>2019-05-11T22:09:35Z</time>
      </trkpt>
      <trkpt lat="36.8375816345215" lon="-5.20091676712036">
        <ele>602</ele>
        <time>2019-05-11T22:09:37Z</time>
      </trkpt>
      <trkpt lat="36.8375701904297" lon="-5.20090484619141">
        <ele>602</ele>
        <time>2019-05-11T22:09:39Z</time>
      </trkpt>
      <trkpt lat="36.8375587463379" lon="-5.20088815689087">
        <ele>602</ele>
        <time>2019-05-11T22:09:41Z</time>
      </trkpt>
      <trkpt lat="36.8375473022461" lon="-5.20087003707886">
        <ele>602</ele>
        <time>2019-05-11T22:09:43Z</time>
      </trkpt>
      <trkpt lat="36.8375396728516" lon="-5.20084476470947">
        <ele>602</ele>
        <time>2019-05-11T22:09:45Z</time>
      </trkpt>
      <trkpt lat="36.8375396728516" lon="-5.20081996917725">
        <ele>602</ele>
        <time>2019-05-11T22:09:48Z</time>
      </trkpt>
      <trkpt lat="36.8375358581543" lon="-5.20079803466797">
        <ele>602</ele>
        <time>2019-05-11T22:09:50Z</time>
      </trkpt>
      <trkpt lat="36.837532043457" lon="-5.20077705383301">
        <ele>602</ele>
        <time>2019-05-11T22:09:52Z</time>
      </trkpt>
      <trkpt lat="36.8375358581543" lon="-5.20075702667236">
        <ele>602</ele>
        <time>2019-05-11T22:09:54Z</time>
      </trkpt>
      <trkpt lat="36.8375358581543" lon="-5.20073699951172">
        <ele>602</ele>
        <time>2019-05-11T22:09:56Z</time>
      </trkpt>
      <trkpt lat="36.8375396728516" lon="-5.20071506500244">
        <ele>602</ele>
        <time>2019-05-11T22:09:58Z</time>
      </trkpt>
      <trkpt lat="36.8375396728516" lon="-5.20068693161011">
        <ele>602</ele>
        <time>2019-05-11T22:10:00Z</time>
      </trkpt>
      <trkpt lat="36.837532043457" lon="-5.20066022872925">
        <ele>602</ele>
        <time>2019-05-11T22:10:02Z</time>
      </trkpt>
      <trkpt lat="36.8375282287598" lon="-5.20062494277954">
        <ele>602</ele>
        <time>2019-05-11T22:10:04Z</time>
      </trkpt>
      <trkpt lat="36.837516784668" lon="-5.20059776306152">
        <ele>602</ele>
        <time>2019-05-11T22:10:06Z</time>
      </trkpt>
      <trkpt lat="36.8375129699707" lon="-5.2005729675293">
        <ele>602</ele>
        <time>2019-05-11T22:10:08Z</time>
      </trkpt>
      <trkpt lat="36.8375015258789" lon="-5.20054721832275">
        <ele>602</ele>
        <time>2019-05-11T22:10:10Z</time>
      </trkpt>
      <trkpt lat="36.8374862670898" lon="-5.20052194595337">
        <ele>602</ele>
        <time>2019-05-11T22:10:12Z</time>
      </trkpt>
      <trkpt lat="36.8374710083008" lon="-5.20049476623535">
        <ele>602</ele>
        <time>2019-05-11T22:10:14Z</time>
      </trkpt>
      <trkpt lat="36.8374557495117" lon="-5.20047187805176">
        <ele>602</ele>
        <time>2019-05-11T22:10:16Z</time>
      </trkpt>
      <trkpt lat="36.8374366760254" lon="-5.20045185089111">
        <ele>602</ele>
        <time>2019-05-11T22:10:18Z</time>
      </trkpt>
      <trkpt lat="36.8374061584473" lon="-5.20043182373047">
        <ele>602</ele>
        <time>2019-05-11T22:10:20Z</time>
      </trkpt>
      <trkpt lat="36.8373794555664" lon="-5.20042181015015">
        <ele>602</ele>
        <time>2019-05-11T22:10:22Z</time>
      </trkpt>
      <trkpt lat="36.8373565673828" lon="-5.20042276382446">
        <ele>602</ele>
        <time>2019-05-11T22:10:24Z</time>
      </trkpt>
      <trkpt lat="36.8373336791992" lon="-5.2004280090332">
        <ele>602</ele>
        <time>2019-05-11T22:10:26Z</time>
      </trkpt>
      <trkpt lat="36.8373031616211" lon="-5.20043277740478">
        <ele>603</ele>
        <time>2019-05-11T22:10:28Z</time>
      </trkpt>
      <trkpt lat="36.8372764587402" lon="-5.20043992996216">
        <ele>603</ele>
        <time>2019-05-11T22:10:30Z</time>
      </trkpt>
      <trkpt lat="36.8372573852539" lon="-5.20044803619385">
        <ele>604</ele>
        <time>2019-05-11T22:10:32Z</time>
      </trkpt>
      <trkpt lat="36.837230682373" lon="-5.20046186447144">
        <ele>604</ele>
        <time>2019-05-11T22:10:34Z</time>
      </trkpt>
      <trkpt lat="36.8372116088867" lon="-5.20047521591186">
        <ele>605</ele>
        <time>2019-05-11T22:10:36Z</time>
      </trkpt>
      <trkpt lat="36.8371887207031" lon="-5.20048999786377">
        <ele>605</ele>
        <time>2019-05-11T22:10:38Z</time>
      </trkpt>
      <trkpt lat="36.8371620178223" lon="-5.20050477981567">
        <ele>605</ele>
        <time>2019-05-11T22:10:40Z</time>
      </trkpt>
      <trkpt lat="36.8371391296387" lon="-5.20052003860474">
        <ele>605</ele>
        <time>2019-05-11T22:10:42Z</time>
      </trkpt>
      <trkpt lat="36.8371162414551" lon="-5.20054292678833">
        <ele>605</ele>
        <time>2019-05-11T22:10:44Z</time>
      </trkpt>
      <trkpt lat="36.8370933532715" lon="-5.20055723190308">
        <ele>605</ele>
        <time>2019-05-11T22:10:46Z</time>
      </trkpt>
      <trkpt lat="36.8370666503906" lon="-5.20056676864624">
        <ele>605</ele>
        <time>2019-05-11T22:10:48Z</time>
      </trkpt>
      <trkpt lat="36.8370361328125" lon="-5.20058012008667">
        <ele>606</ele>
        <time>2019-05-11T22:10:50Z</time>
      </trkpt>
      <trkpt lat="36.8370094299316" lon="-5.20059680938721">
        <ele>606</ele>
        <time>2019-05-11T22:10:52Z</time>
      </trkpt>
      <trkpt lat="36.8369750976562" lon="-5.20061302185059">
        <ele>606</ele>
        <time>2019-05-11T22:10:54Z</time>
      </trkpt>
      <trkpt lat="36.8369445800781" lon="-5.20062303543091">
        <ele>607</ele>
        <time>2019-05-11T22:10:56Z</time>
      </trkpt>
      <trkpt lat="36.8369140625" lon="-5.20063304901123">
        <ele>607</ele>
        <time>2019-05-11T22:10:58Z</time>
      </trkpt>
      <trkpt lat="36.8368873596191" lon="-5.20064783096314">
        <ele>608</ele>
        <time>2019-05-11T22:11:00Z</time>
      </trkpt>
      <trkpt lat="36.8368606567383" lon="-5.20066690444946">
        <ele>608</ele>
        <time>2019-05-11T22:11:02Z</time>
      </trkpt>
      <trkpt lat="36.8368263244629" lon="-5.20068502426147">
        <ele>608</ele>
        <time>2019-05-11T22:11:04Z</time>
      </trkpt>
      <trkpt lat="36.8367919921875" lon="-5.20069980621338">
        <ele>608</ele>
        <time>2019-05-11T22:11:06Z</time>
      </trkpt>
      <trkpt lat="36.8367614746094" lon="-5.20071315765381">
        <ele>609</ele>
        <time>2019-05-11T22:11:08Z</time>
      </trkpt>
      <trkpt lat="36.8367309570312" lon="-5.2007269859314">
        <ele>610</ele>
        <time>2019-05-11T22:11:10Z</time>
      </trkpt>
      <trkpt lat="36.8366813659668" lon="-5.20075178146362">
        <ele>611</ele>
        <time>2019-05-11T22:11:12Z</time>
      </trkpt>
      <trkpt lat="36.8366584777832" lon="-5.20076990127564">
        <ele>611</ele>
        <time>2019-05-11T22:11:14Z</time>
      </trkpt>
      <trkpt lat="36.8366355895996" lon="-5.20077705383301">
        <ele>612</ele>
        <time>2019-05-11T22:11:16Z</time>
      </trkpt>
      <trkpt lat="36.836612701416" lon="-5.20078277587891">
        <ele>612</ele>
        <time>2019-05-11T22:11:18Z</time>
      </trkpt>
      <trkpt lat="36.8365859985352" lon="-5.20079803466797">
        <ele>613</ele>
        <time>2019-05-11T22:11:20Z</time>
      </trkpt>
      <trkpt lat="36.836555480957" lon="-5.20082187652588">
        <ele>613</ele>
        <time>2019-05-11T22:11:23Z</time>
      </trkpt>
      <trkpt lat="36.8365287780762" lon="-5.20084714889526">
        <ele>613</ele>
        <time>2019-05-11T22:11:25Z</time>
      </trkpt>
      <trkpt lat="36.8365058898926" lon="-5.20086812973022">
        <ele>614</ele>
        <time>2019-05-11T22:11:27Z</time>
      </trkpt>
      <trkpt lat="36.8364868164062" lon="-5.20088720321655">
        <ele>614</ele>
        <time>2019-05-11T22:11:29Z</time>
      </trkpt>
      <trkpt lat="36.8364639282227" lon="-5.20091009140015">
        <ele>614</ele>
        <time>2019-05-11T22:11:31Z</time>
      </trkpt>
      <trkpt lat="36.8364486694336" lon="-5.20093822479248">
        <ele>614</ele>
        <time>2019-05-11T22:11:33Z</time>
      </trkpt>
      <trkpt lat="36.83642578125" lon="-5.20096302032471">
        <ele>614</ele>
        <time>2019-05-11T22:11:35Z</time>
      </trkpt>
      <trkpt lat="36.8364067077637" lon="-5.20098209381104">
        <ele>614</ele>
        <time>2019-05-11T22:11:37Z</time>
      </trkpt>
      <trkpt lat="36.8363876342773" lon="-5.20100688934326">
        <ele>614</ele>
        <time>2019-05-11T22:11:39Z</time>
      </trkpt>
      <trkpt lat="36.8363723754883" lon="-5.20103216171265">
        <ele>614</ele>
        <time>2019-05-11T22:11:41Z</time>
      </trkpt>
      <trkpt lat="36.8363494873047" lon="-5.20106220245361">
        <ele>614</ele>
        <time>2019-05-11T22:11:43Z</time>
      </trkpt>
      <trkpt lat="36.8363304138184" lon="-5.20108985900879">
        <ele>614</ele>
        <time>2019-05-11T22:11:45Z</time>
      </trkpt>
      <trkpt lat="36.8363151550293" lon="-5.20111799240112">
        <ele>614</ele>
        <time>2019-05-11T22:11:47Z</time>
      </trkpt>
      <trkpt lat="36.8362998962402" lon="-5.20114994049072">
        <ele>614</ele>
        <time>2019-05-11T22:11:49Z</time>
      </trkpt>
      <trkpt lat="36.8362846374512" lon="-5.20117712020874">
        <ele>614</ele>
        <time>2019-05-11T22:11:51Z</time>
      </trkpt>
      <trkpt lat="36.8362731933594" lon="-5.20120000839233">
        <ele>614</ele>
        <time>2019-05-11T22:11:53Z</time>
      </trkpt>
      <trkpt lat="36.8362655639648" lon="-5.20122814178467">
        <ele>614</ele>
        <time>2019-05-11T22:11:55Z</time>
      </trkpt>
      <trkpt lat="36.8362579345703" lon="-5.201247215271">
        <ele>614</ele>
        <time>2019-05-11T22:11:57Z</time>
      </trkpt>
      <trkpt lat="36.8362426757812" lon="-5.20127820968628">
        <ele>614</ele>
        <time>2019-05-11T22:11:59Z</time>
      </trkpt>
      <trkpt lat="36.8362312316894" lon="-5.20131015777588">
        <ele>614</ele>
        <time>2019-05-11T22:12:01Z</time>
      </trkpt>
      <trkpt lat="36.8362236022949" lon="-5.20134687423706">
        <ele>614</ele>
        <time>2019-05-11T22:12:03Z</time>
      </trkpt>
      <trkpt lat="36.8362159729004" lon="-5.20137977600098">
        <ele>614</ele>
        <time>2019-05-11T22:12:05Z</time>
      </trkpt>
      <trkpt lat="36.8362045288086" lon="-5.20141506195068">
        <ele>614</ele>
        <time>2019-05-11T22:12:07Z</time>
      </trkpt>
      <trkpt lat="36.8361968994141" lon="-5.20144176483154">
        <ele>614</ele>
        <time>2019-05-11T22:12:09Z</time>
      </trkpt>
      <trkpt lat="36.8361930847168" lon="-5.20147180557251">
        <ele>613</ele>
        <time>2019-05-11T22:12:11Z</time>
      </trkpt>
      <trkpt lat="36.836181640625" lon="-5.20149993896484">
        <ele>612</ele>
        <time>2019-05-11T22:12:13Z</time>
      </trkpt>
      <trkpt lat="36.8361663818359" lon="-5.20152997970581">
        <ele>611</ele>
        <time>2019-05-11T22:12:15Z</time>
      </trkpt>
      <trkpt lat="36.8361473083496" lon="-5.20156478881836">
        <ele>610</ele>
        <time>2019-05-11T22:12:17Z</time>
      </trkpt>
      <trkpt lat="36.8361434936523" lon="-5.20159816741943">
        <ele>610</ele>
        <time>2019-05-11T22:12:19Z</time>
      </trkpt>
      <trkpt lat="36.8361282348633" lon="-5.20163822174072">
        <ele>609</ele>
        <time>2019-05-11T22:12:21Z</time>
      </trkpt>
      <trkpt lat="36.8361206054688" lon="-5.2016749382019">
        <ele>609</ele>
        <time>2019-05-11T22:12:23Z</time>
      </trkpt>
      <trkpt lat="36.8361053466797" lon="-5.20171308517456">
        <ele>609</ele>
        <time>2019-05-11T22:12:25Z</time>
      </trkpt>
      <trkpt lat="36.8360862731934" lon="-5.20174694061279">
        <ele>608</ele>
        <time>2019-05-11T22:12:27Z</time>
      </trkpt>
      <trkpt lat="36.8360595703125" lon="-5.20177221298218">
        <ele>608</ele>
        <time>2019-05-11T22:12:29Z</time>
      </trkpt>
      <trkpt lat="36.8360366821289" lon="-5.20179510116577">
        <ele>608</ele>
        <time>2019-05-11T22:12:31Z</time>
      </trkpt>
      <trkpt lat="36.8360061645508" lon="-5.20181512832642">
        <ele>608</ele>
        <time>2019-05-11T22:12:33Z</time>
      </trkpt>
      <trkpt lat="36.8359756469727" lon="-5.20182704925537">
        <ele>608</ele>
        <time>2019-05-11T22:12:35Z</time>
      </trkpt>
      <trkpt lat="36.8359489440918" lon="-5.20184278488159">
        <ele>608</ele>
        <time>2019-05-11T22:12:37Z</time>
      </trkpt>
      <trkpt lat="36.8359260559082" lon="-5.20186281204224">
        <ele>607</ele>
        <time>2019-05-11T22:12:39Z</time>
      </trkpt>
      <trkpt lat="36.8358955383301" lon="-5.2018780708313">
        <ele>606</ele>
        <time>2019-05-11T22:12:41Z</time>
      </trkpt>
      <trkpt lat="36.8358573913574" lon="-5.20189809799194">
        <ele>606</ele>
        <time>2019-05-11T22:12:43Z</time>
      </trkpt>
      <trkpt lat="36.8358306884766" lon="-5.20190715789795">
        <ele>606</ele>
        <time>2019-05-11T22:12:45Z</time>
      </trkpt>
      <trkpt lat="36.8358039855957" lon="-5.20191287994385">
        <ele>606</ele>
        <time>2019-05-11T22:12:47Z</time>
      </trkpt>
      <trkpt lat="36.8357810974121" lon="-5.20191717147827">
        <ele>606</ele>
        <time>2019-05-11T22:12:49Z</time>
      </trkpt>
      <trkpt lat="36.8357543945312" lon="-5.20192003250122">
        <ele>606</ele>
        <time>2019-05-11T22:12:51Z</time>
      </trkpt>
      <trkpt lat="36.8357315063477" lon="-5.20191717147827">
        <ele>606</ele>
        <time>2019-05-11T22:12:54Z</time>
      </trkpt>
      <trkpt lat="36.8357009887695" lon="-5.20191717147827">
        <ele>606</ele>
        <time>2019-05-11T22:12:56Z</time>
      </trkpt>
      <trkpt lat="36.8356781005859" lon="-5.20191812515259">
        <ele>606</ele>
        <time>2019-05-11T22:12:58Z</time>
      </trkpt>
      <trkpt lat="36.8356590270996" lon="-5.20191287994385">
        <ele>606</ele>
        <time>2019-05-11T22:13:00Z</time>
      </trkpt>
      <trkpt lat="36.835636138916" lon="-5.20191478729248">
        <ele>607</ele>
        <time>2019-05-11T22:13:02Z</time>
      </trkpt>
      <trkpt lat="36.8356056213379" lon="-5.20191192626953">
        <ele>607</ele>
        <time>2019-05-11T22:13:04Z</time>
      </trkpt>
      <trkpt lat="36.835578918457" lon="-5.20190811157227">
        <ele>608</ele>
        <time>2019-05-11T22:13:06Z</time>
      </trkpt>
      <trkpt lat="36.8355522155762" lon="-5.20190191268921">
        <ele>609</ele>
        <time>2019-05-11T22:13:08Z</time>
      </trkpt>
      <trkpt lat="36.8355255126953" lon="-5.20189523696899">
        <ele>609</ele>
        <time>2019-05-11T22:13:10Z</time>
      </trkpt>
      <trkpt lat="36.8354988098144" lon="-5.20188999176025">
        <ele>609</ele>
        <time>2019-05-11T22:13:12Z</time>
      </trkpt>
      <trkpt lat="36.8354644775391" lon="-5.2018871307373">
        <ele>609</ele>
        <time>2019-05-11T22:13:14Z</time>
      </trkpt>
      <trkpt lat="36.8354377746582" lon="-5.20187711715698">
        <ele>609</ele>
        <time>2019-05-11T22:13:16Z</time>
      </trkpt>
      <trkpt lat="36.8354110717773" lon="-5.20186710357666">
        <ele>609</ele>
        <time>2019-05-11T22:13:18Z</time>
      </trkpt>
      <trkpt lat="36.8353881835938" lon="-5.20185708999634">
        <ele>609</ele>
        <time>2019-05-11T22:13:20Z</time>
      </trkpt>
      <trkpt lat="36.8353652954102" lon="-5.2018551826477">
        <ele>609</ele>
        <time>2019-05-11T22:13:22Z</time>
      </trkpt>
      <trkpt lat="36.8353462219238" lon="-5.20184993743896">
        <ele>609</ele>
        <time>2019-05-11T22:13:24Z</time>
      </trkpt>
      <trkpt lat="36.835319519043" lon="-5.20183706283569">
        <ele>609</ele>
        <time>2019-05-11T22:13:26Z</time>
      </trkpt>
      <trkpt lat="36.8352928161621" lon="-5.20182800292969">
        <ele>609</ele>
        <time>2019-05-11T22:13:28Z</time>
      </trkpt>
      <trkpt lat="36.8352661132812" lon="-5.20180797576904">
        <ele>609</ele>
        <time>2019-05-11T22:13:30Z</time>
      </trkpt>
      <trkpt lat="36.8352394104004" lon="-5.20179796218872">
        <ele>609</ele>
        <time>2019-05-11T22:13:32Z</time>
      </trkpt>
      <trkpt lat="36.8352127075195" lon="-5.20178318023682">
        <ele>609</ele>
        <time>2019-05-11T22:13:34Z</time>
      </trkpt>
      <trkpt lat="36.8351821899414" lon="-5.20176982879639">
        <ele>609</ele>
        <time>2019-05-11T22:13:36Z</time>
      </trkpt>
      <trkpt lat="36.8351631164551" lon="-5.20175504684448">
        <ele>607</ele>
        <time>2019-05-11T22:13:38Z</time>
      </trkpt>
      <trkpt lat="36.8351364135742" lon="-5.2017297744751">
        <ele>606</ele>
        <time>2019-05-11T22:13:40Z</time>
      </trkpt>
      <trkpt lat="36.8351097106934" lon="-5.20171785354614">
        <ele>605</ele>
        <time>2019-05-11T22:13:42Z</time>
      </trkpt>
      <trkpt lat="36.835075378418" lon="-5.20169687271118">
        <ele>604</ele>
        <time>2019-05-11T22:13:44Z</time>
      </trkpt>
      <trkpt lat="36.8350486755371" lon="-5.20168685913086">
        <ele>603</ele>
        <time>2019-05-11T22:13:46Z</time>
      </trkpt>
      <trkpt lat="36.835018157959" lon="-5.20167207717896">
        <ele>601</ele>
        <time>2019-05-11T22:13:48Z</time>
      </trkpt>
      <trkpt lat="36.8349876403809" lon="-5.20165777206421">
        <ele>600</ele>
        <time>2019-05-11T22:13:50Z</time>
      </trkpt>
      <trkpt lat="36.8349647521973" lon="-5.20164680480957">
        <ele>598</ele>
        <time>2019-05-11T22:13:52Z</time>
      </trkpt>
      <trkpt lat="36.8349418640137" lon="-5.20162487030029">
        <ele>597</ele>
        <time>2019-05-11T22:13:54Z</time>
      </trkpt>
      <trkpt lat="36.8349189758301" lon="-5.20161008834839">
        <ele>596</ele>
        <time>2019-05-11T22:13:56Z</time>
      </trkpt>
      <trkpt lat="36.8348999023438" lon="-5.20159196853638">
        <ele>595</ele>
        <time>2019-05-11T22:13:58Z</time>
      </trkpt>
      <trkpt lat="36.8348770141602" lon="-5.20157480239868">
        <ele>595</ele>
        <time>2019-05-11T22:14:00Z</time>
      </trkpt>
      <trkpt lat="36.8348503112793" lon="-5.20155715942383">
        <ele>595</ele>
        <time>2019-05-11T22:14:02Z</time>
      </trkpt>
      <trkpt lat="36.8348236083984" lon="-5.20154285430908">
        <ele>595</ele>
        <time>2019-05-11T22:14:04Z</time>
      </trkpt>
      <trkpt lat="36.8348007202148" lon="-5.20153284072876">
        <ele>595</ele>
        <time>2019-05-11T22:14:06Z</time>
      </trkpt>
      <trkpt lat="36.8347778320312" lon="-5.20153284072876">
        <ele>595</ele>
        <time>2019-05-11T22:14:08Z</time>
      </trkpt>
      <trkpt lat="36.8347587585449" lon="-5.20152807235718">
        <ele>595</ele>
        <time>2019-05-11T22:14:10Z</time>
      </trkpt>
      <trkpt lat="36.8347358703613" lon="-5.20151710510254">
        <ele>595</ele>
        <time>2019-05-11T22:14:12Z</time>
      </trkpt>
      <trkpt lat="36.8346939086914" lon="-5.20149707794189">
        <ele>595</ele>
        <time>2019-05-11T22:14:14Z</time>
      </trkpt>
      <trkpt lat="36.8346710205078" lon="-5.20147514343262">
        <ele>595</ele>
        <time>2019-05-11T22:14:16Z</time>
      </trkpt>
      <trkpt lat="36.834644317627" lon="-5.20146179199219">
        <ele>596</ele>
        <time>2019-05-11T22:14:18Z</time>
      </trkpt>
      <trkpt lat="36.8346214294434" lon="-5.20145511627197">
        <ele>597</ele>
        <time>2019-05-11T22:14:20Z</time>
      </trkpt>
      <trkpt lat="36.834587097168" lon="-5.20145797729492">
        <ele>597</ele>
        <time>2019-05-11T22:14:22Z</time>
      </trkpt>
      <trkpt lat="36.8345642089844" lon="-5.20146179199219">
        <ele>599</ele>
        <time>2019-05-11T22:14:25Z</time>
      </trkpt>
      <trkpt lat="36.8345375061035" lon="-5.20146799087524">
        <ele>600</ele>
        <time>2019-05-11T22:14:27Z</time>
      </trkpt>
      <trkpt lat="36.8345069885254" lon="-5.2014799118042">
        <ele>601</ele>
        <time>2019-05-11T22:14:29Z</time>
      </trkpt>
      <trkpt lat="36.8344688415527" lon="-5.20148992538452">
        <ele>603</ele>
        <time>2019-05-11T22:14:31Z</time>
      </trkpt>
      <trkpt lat="36.8344345092773" lon="-5.20149993896484">
        <ele>604</ele>
        <time>2019-05-11T22:14:33Z</time>
      </trkpt>
      <trkpt lat="36.8343963623047" lon="-5.20150804519653">
        <ele>605</ele>
        <time>2019-05-11T22:14:35Z</time>
      </trkpt>
      <trkpt lat="36.8343811035156" lon="-5.20152282714844">
        <ele>607</ele>
        <time>2019-05-11T22:14:37Z</time>
      </trkpt>
      <trkpt lat="36.8343696594238" lon="-5.20153188705444">
        <ele>608</ele>
        <time>2019-05-11T22:14:39Z</time>
      </trkpt>
      <trkpt lat="36.8343505859375" lon="-5.20155000686646">
        <ele>609</ele>
        <time>2019-05-11T22:14:41Z</time>
      </trkpt>
      <trkpt lat="36.8343353271484" lon="-5.20157194137573">
        <ele>610</ele>
        <time>2019-05-11T22:14:43Z</time>
      </trkpt>
      <trkpt lat="36.8343200683594" lon="-5.20159482955933">
        <ele>610</ele>
        <time>2019-05-11T22:14:45Z</time>
      </trkpt>
      <trkpt lat="36.8343124389648" lon="-5.20161485671997">
        <ele>610</ele>
        <time>2019-05-11T22:14:47Z</time>
      </trkpt>
      <trkpt lat="36.834300994873" lon="-5.20163488388062">
        <ele>610</ele>
        <time>2019-05-11T22:14:49Z</time>
      </trkpt>
      <trkpt lat="36.8342933654785" lon="-5.20166206359863">
        <ele>610</ele>
        <time>2019-05-11T22:14:51Z</time>
      </trkpt>
      <trkpt lat="36.834285736084" lon="-5.20168781280518">
        <ele>610</ele>
        <time>2019-05-11T22:14:53Z</time>
      </trkpt>
      <trkpt lat="36.8342704772949" lon="-5.20171213150024">
        <ele>609</ele>
        <time>2019-05-11T22:14:55Z</time>
      </trkpt>
      <trkpt lat="36.8342590332031" lon="-5.20174694061279">
        <ele>608</ele>
        <time>2019-05-11T22:14:57Z</time>
      </trkpt>
      <trkpt lat="36.8342514038086" lon="-5.20177507400513">
        <ele>606</ele>
        <time>2019-05-11T22:14:59Z</time>
      </trkpt>
      <trkpt lat="36.8342437744141" lon="-5.20180702209473">
        <ele>606</ele>
        <time>2019-05-11T22:15:01Z</time>
      </trkpt>
      <trkpt lat="36.8342399597168" lon="-5.20183801651001">
        <ele>606</ele>
        <time>2019-05-11T22:15:03Z</time>
      </trkpt>
      <trkpt lat="36.8342361450195" lon="-5.20187282562256">
        <ele>606</ele>
        <time>2019-05-11T22:15:05Z</time>
      </trkpt>
      <trkpt lat="36.834228515625" lon="-5.20190715789795">
        <ele>606</ele>
        <time>2019-05-11T22:15:07Z</time>
      </trkpt>
      <trkpt lat="36.8342170715332" lon="-5.20195007324219">
        <ele>606</ele>
        <time>2019-05-11T22:15:09Z</time>
      </trkpt>
      <trkpt lat="36.8342132568359" lon="-5.20198488235474">
        <ele>606</ele>
        <time>2019-05-11T22:15:11Z</time>
      </trkpt>
      <trkpt lat="36.8341979980469" lon="-5.20202016830444">
        <ele>606</ele>
        <time>2019-05-11T22:15:13Z</time>
      </trkpt>
      <trkpt lat="36.8341865539551" lon="-5.20205307006836">
        <ele>606</ele>
        <time>2019-05-11T22:15:15Z</time>
      </trkpt>
      <trkpt lat="36.8341789245606" lon="-5.20208501815796">
        <ele>607</ele>
        <time>2019-05-11T22:15:17Z</time>
      </trkpt>
      <trkpt lat="36.8341674804688" lon="-5.2021222114563">
        <ele>608</ele>
        <time>2019-05-11T22:15:19Z</time>
      </trkpt>
      <trkpt lat="36.8341484069824" lon="-5.20215797424316">
        <ele>608</ele>
        <time>2019-05-11T22:15:21Z</time>
      </trkpt>
      <trkpt lat="36.8341217041016" lon="-5.2021951675415">
        <ele>610</ele>
        <time>2019-05-11T22:15:23Z</time>
      </trkpt>
      <trkpt lat="36.8341102600098" lon="-5.20222806930542">
        <ele>611</ele>
        <time>2019-05-11T22:15:25Z</time>
      </trkpt>
      <trkpt lat="36.8340911865234" lon="-5.20225477218628">
        <ele>612</ele>
        <time>2019-05-11T22:15:27Z</time>
      </trkpt>
      <trkpt lat="36.8340721130371" lon="-5.20228719711304">
        <ele>613</ele>
        <time>2019-05-11T22:15:29Z</time>
      </trkpt>
      <trkpt lat="36.8340492248535" lon="-5.20232200622559">
        <ele>614</ele>
        <time>2019-05-11T22:15:31Z</time>
      </trkpt>
      <trkpt lat="36.8340225219727" lon="-5.20235681533814">
        <ele>614</ele>
        <time>2019-05-11T22:15:33Z</time>
      </trkpt>
      <trkpt lat="36.8340034484863" lon="-5.20239019393921">
        <ele>615</ele>
        <time>2019-05-11T22:15:35Z</time>
      </trkpt>
      <trkpt lat="36.8339881896973" lon="-5.20242023468018">
        <ele>615</ele>
        <time>2019-05-11T22:15:37Z</time>
      </trkpt>
      <trkpt lat="36.8339729309082" lon="-5.20244312286377">
        <ele>615</ele>
        <time>2019-05-11T22:15:39Z</time>
      </trkpt>
      <trkpt lat="36.8339576721191" lon="-5.20246505737305">
        <ele>615</ele>
        <time>2019-05-11T22:15:41Z</time>
      </trkpt>
      <trkpt lat="36.8339385986328" lon="-5.20248794555664">
        <ele>616</ele>
        <time>2019-05-11T22:15:43Z</time>
      </trkpt>
      <trkpt lat="36.8339233398438" lon="-5.2025318145752">
        <ele>617</ele>
        <time>2019-05-11T22:15:45Z</time>
      </trkpt>
      <trkpt lat="36.8339157104492" lon="-5.20256519317627">
        <ele>618</ele>
        <time>2019-05-11T22:15:47Z</time>
      </trkpt>
      <trkpt lat="36.8339080810547" lon="-5.20259809494019">
        <ele>619</ele>
        <time>2019-05-11T22:15:49Z</time>
      </trkpt>
      <trkpt lat="36.8339042663574" lon="-5.20263719558716">
        <ele>619</ele>
        <time>2019-05-11T22:15:51Z</time>
      </trkpt>
      <trkpt lat="36.8339080810547" lon="-5.20267295837402">
        <ele>619</ele>
        <time>2019-05-11T22:15:53Z</time>
      </trkpt>
      <trkpt lat="36.8339042663574" lon="-5.20271015167236">
        <ele>619</ele>
        <time>2019-05-11T22:15:55Z</time>
      </trkpt>
      <trkpt lat="36.8339042663574" lon="-5.20274686813354">
        <ele>619</ele>
        <time>2019-05-11T22:15:58Z</time>
      </trkpt>
      <trkpt lat="36.8339042663574" lon="-5.20278787612915">
        <ele>619</ele>
        <time>2019-05-11T22:16:00Z</time>
      </trkpt>
      <trkpt lat="36.8338966369629" lon="-5.20282983779907">
        <ele>619</ele>
        <time>2019-05-11T22:16:02Z</time>
      </trkpt>
      <trkpt lat="36.8338928222656" lon="-5.20286989212036">
        <ele>619</ele>
        <time>2019-05-11T22:16:04Z</time>
      </trkpt>
      <trkpt lat="36.8338851928711" lon="-5.2029070854187">
        <ele>617</ele>
        <time>2019-05-11T22:16:06Z</time>
      </trkpt>
      <trkpt lat="36.8338851928711" lon="-5.20293998718262">
        <ele>615</ele>
        <time>2019-05-11T22:16:08Z</time>
      </trkpt>
      <trkpt lat="36.8338775634766" lon="-5.20297193527222">
        <ele>614</ele>
        <time>2019-05-11T22:16:10Z</time>
      </trkpt>
      <trkpt lat="36.8338737487793" lon="-5.2030029296875">
        <ele>612</ele>
        <time>2019-05-11T22:16:12Z</time>
      </trkpt>
      <trkpt lat="36.8338737487793" lon="-5.20303201675415">
        <ele>611</ele>
        <time>2019-05-11T22:16:14Z</time>
      </trkpt>
      <trkpt lat="36.8338661193848" lon="-5.20306301116943">
        <ele>610</ele>
        <time>2019-05-11T22:16:16Z</time>
      </trkpt>
      <trkpt lat="36.8338661193848" lon="-5.20309495925903">
        <ele>608</ele>
        <time>2019-05-11T22:16:18Z</time>
      </trkpt>
      <trkpt lat="36.8338584899902" lon="-5.20313215255737">
        <ele>608</ele>
        <time>2019-05-11T22:16:20Z</time>
      </trkpt>
      <trkpt lat="36.8338508605957" lon="-5.20316505432129">
        <ele>608</ele>
        <time>2019-05-11T22:16:22Z</time>
      </trkpt>
      <trkpt lat="36.8338470458984" lon="-5.20320796966553">
        <ele>608</ele>
        <time>2019-05-11T22:16:24Z</time>
      </trkpt>
      <trkpt lat="36.8338470458984" lon="-5.20324277877808">
        <ele>608</ele>
        <time>2019-05-11T22:16:26Z</time>
      </trkpt>
      <trkpt lat="36.8338432312012" lon="-5.20327806472778">
        <ele>608</ele>
        <time>2019-05-11T22:16:28Z</time>
      </trkpt>
      <trkpt lat="36.8338432312012" lon="-5.20331478118896">
        <ele>608</ele>
        <time>2019-05-11T22:16:30Z</time>
      </trkpt>
      <trkpt lat="36.8338432312012" lon="-5.20335721969604">
        <ele>608</ele>
        <time>2019-05-11T22:16:32Z</time>
      </trkpt>
      <trkpt lat="36.8338432312012" lon="-5.20339488983154">
        <ele>608</ele>
        <time>2019-05-11T22:16:34Z</time>
      </trkpt>
      <trkpt lat="36.8338394165039" lon="-5.20343017578125">
        <ele>608</ele>
        <time>2019-05-11T22:16:36Z</time>
      </trkpt>
      <trkpt lat="36.8338432312012" lon="-5.2034649848938">
        <ele>608</ele>
        <time>2019-05-11T22:16:38Z</time>
      </trkpt>
      <trkpt lat="36.8338470458984" lon="-5.20349979400635">
        <ele>608</ele>
        <time>2019-05-11T22:16:40Z</time>
      </trkpt>
      <trkpt lat="36.8338470458984" lon="-5.20354509353638">
        <ele>608</ele>
        <time>2019-05-11T22:16:42Z</time>
      </trkpt>
      <trkpt lat="36.8338470458984" lon="-5.20358514785767">
        <ele>608</ele>
        <time>2019-05-11T22:16:44Z</time>
      </trkpt>
      <trkpt lat="36.8338432312012" lon="-5.20362281799316">
        <ele>608</ele>
        <time>2019-05-11T22:16:46Z</time>
      </trkpt>
      <trkpt lat="36.8338394165039" lon="-5.20365285873413">
        <ele>608</ele>
        <time>2019-05-11T22:16:48Z</time>
      </trkpt>
      <trkpt lat="36.8338279724121" lon="-5.20368719100952">
        <ele>609</ele>
        <time>2019-05-11T22:16:50Z</time>
      </trkpt>
      <trkpt lat="36.833812713623" lon="-5.20370483398438">
        <ele>611</ele>
        <time>2019-05-11T22:16:52Z</time>
      </trkpt>
      <trkpt lat="36.833797454834" lon="-5.20372200012207">
        <ele>613</ele>
        <time>2019-05-11T22:16:54Z</time>
      </trkpt>
      <trkpt lat="36.8337783813477" lon="-5.20373487472534">
        <ele>614</ele>
        <time>2019-05-11T22:16:56Z</time>
      </trkpt>
      <trkpt lat="36.8337554931641" lon="-5.20374822616577">
        <ele>615</ele>
        <time>2019-05-11T22:16:58Z</time>
      </trkpt>
      <trkpt lat="36.8337478637695" lon="-5.20376682281494">
        <ele>615</ele>
        <time>2019-05-11T22:17:00Z</time>
      </trkpt>
      <trkpt lat="36.8337516784668" lon="-5.20378684997559">
        <ele>616</ele>
        <time>2019-05-11T22:17:02Z</time>
      </trkpt>
      <trkpt lat="36.8337593078613" lon="-5.2038049697876">
        <ele>616</ele>
        <time>2019-05-11T22:17:04Z</time>
      </trkpt>
      <trkpt lat="36.8337669372559" lon="-5.20382785797119">
        <ele>616</ele>
        <time>2019-05-11T22:17:06Z</time>
      </trkpt>
      <trkpt lat="36.8337707519531" lon="-5.20385217666626">
        <ele>616</ele>
        <time>2019-05-11T22:17:08Z</time>
      </trkpt>
      <trkpt lat="36.8337745666504" lon="-5.2038779258728">
        <ele>616</ele>
        <time>2019-05-11T22:17:10Z</time>
      </trkpt>
      <trkpt lat="36.8337745666504" lon="-5.20391178131104">
        <ele>615</ele>
        <time>2019-05-11T22:17:12Z</time>
      </trkpt>
      <trkpt lat="36.8337783813477" lon="-5.20395517349243">
        <ele>614</ele>
        <time>2019-05-11T22:17:14Z</time>
      </trkpt>
      <trkpt lat="36.8337707519531" lon="-5.20398807525635">
        <ele>612</ele>
        <time>2019-05-11T22:17:16Z</time>
      </trkpt>
      <trkpt lat="36.8337631225586" lon="-5.20401811599731">
        <ele>611</ele>
        <time>2019-05-11T22:17:18Z</time>
      </trkpt>
      <trkpt lat="36.8337554931641" lon="-5.20405197143555">
        <ele>610</ele>
        <time>2019-05-11T22:17:20Z</time>
      </trkpt>
      <trkpt lat="36.8337478637695" lon="-5.20408821105957">
        <ele>609</ele>
        <time>2019-05-11T22:17:22Z</time>
      </trkpt>
      <trkpt lat="36.8337135314941" lon="-5.20414018630981">
        <ele>607</ele>
        <time>2019-05-11T22:17:24Z</time>
      </trkpt>
      <trkpt lat="36.8336944580078" lon="-5.20416021347046">
        <ele>606</ele>
        <time>2019-05-11T22:17:26Z</time>
      </trkpt>
      <trkpt lat="36.8336715698242" lon="-5.20417976379394">
        <ele>606</ele>
        <time>2019-05-11T22:17:28Z</time>
      </trkpt>
      <trkpt lat="36.8336486816406" lon="-5.20419216156006">
        <ele>606</ele>
        <time>2019-05-11T22:17:30Z</time>
      </trkpt>
      <trkpt lat="36.833625793457" lon="-5.20419311523438">
        <ele>606</ele>
        <time>2019-05-11T22:17:32Z</time>
      </trkpt>
      <trkpt lat="36.8335990905762" lon="-5.20419692993164">
        <ele>606</ele>
        <time>2019-05-11T22:17:34Z</time>
      </trkpt>
      <trkpt lat="36.8335723876953" lon="-5.20419788360596">
        <ele>606</ele>
        <time>2019-05-11T22:17:37Z</time>
      </trkpt>
      <trkpt lat="36.8335418701172" lon="-5.20419502258301">
        <ele>606</ele>
        <time>2019-05-11T22:17:39Z</time>
      </trkpt>
      <trkpt lat="36.8335151672363" lon="-5.20419692993164">
        <ele>606</ele>
        <time>2019-05-11T22:17:41Z</time>
      </trkpt>
      <trkpt lat="36.8334922790527" lon="-5.20419788360596">
        <ele>606</ele>
        <time>2019-05-11T22:17:43Z</time>
      </trkpt>
      <trkpt lat="36.8334655761719" lon="-5.20419788360596">
        <ele>607</ele>
        <time>2019-05-11T22:17:45Z</time>
      </trkpt>
      <trkpt lat="36.833438873291" lon="-5.20419788360596">
        <ele>609</ele>
        <time>2019-05-11T22:17:47Z</time>
      </trkpt>
      <trkpt lat="36.8334121704102" lon="-5.20418787002564">
        <ele>610</ele>
        <time>2019-05-11T22:17:49Z</time>
      </trkpt>
      <trkpt lat="36.8333854675293" lon="-5.20418214797974">
        <ele>611</ele>
        <time>2019-05-11T22:17:51Z</time>
      </trkpt>
      <trkpt lat="36.8333587646484" lon="-5.20417785644531">
        <ele>612</ele>
        <time>2019-05-11T22:17:53Z</time>
      </trkpt>
      <trkpt lat="36.8333358764648" lon="-5.20417213439941">
        <ele>612</ele>
        <time>2019-05-11T22:17:55Z</time>
      </trkpt>
      <trkpt lat="36.8333168029785" lon="-5.20415496826172">
        <ele>613</ele>
        <time>2019-05-11T22:17:57Z</time>
      </trkpt>
      <trkpt lat="36.8332939147949" lon="-5.20414209365845">
        <ele>613</ele>
        <time>2019-05-11T22:17:59Z</time>
      </trkpt>
      <trkpt lat="36.8332710266113" lon="-5.20412492752075">
        <ele>613</ele>
        <time>2019-05-11T22:18:01Z</time>
      </trkpt>
      <trkpt lat="36.8332481384277" lon="-5.20409679412842">
        <ele>613</ele>
        <time>2019-05-11T22:18:03Z</time>
      </trkpt>
      <trkpt lat="36.8332252502441" lon="-5.20407295227051">
        <ele>613</ele>
        <time>2019-05-11T22:18:05Z</time>
      </trkpt>
      <trkpt lat="36.8332023620606" lon="-5.20405292510986">
        <ele>613</ele>
        <time>2019-05-11T22:18:07Z</time>
      </trkpt>
      <trkpt lat="36.833179473877" lon="-5.20403289794922">
        <ele>613</ele>
        <time>2019-05-11T22:18:09Z</time>
      </trkpt>
      <trkpt lat="36.8331565856934" lon="-5.20401477813721">
        <ele>613</ele>
        <time>2019-05-11T22:18:11Z</time>
      </trkpt>
      <trkpt lat="36.8331298828125" lon="-5.20399284362793">
        <ele>613</ele>
        <time>2019-05-11T22:18:13Z</time>
      </trkpt>
      <trkpt lat="36.8331108093262" lon="-5.20397186279297">
        <ele>613</ele>
        <time>2019-05-11T22:18:15Z</time>
      </trkpt>
      <trkpt lat="36.8330879211426" lon="-5.20394706726074">
        <ele>614</ele>
        <time>2019-05-11T22:18:17Z</time>
      </trkpt>
      <trkpt lat="36.8330688476562" lon="-5.20392322540283">
        <ele>614</ele>
        <time>2019-05-11T22:18:19Z</time>
      </trkpt>
      <trkpt lat="36.8330459594727" lon="-5.20389795303345">
        <ele>614</ele>
        <time>2019-05-11T22:18:21Z</time>
      </trkpt>
      <trkpt lat="36.8330230712891" lon="-5.20386791229248">
        <ele>614</ele>
        <time>2019-05-11T22:18:23Z</time>
      </trkpt>
      <trkpt lat="36.8330116271973" lon="-5.20384693145752">
        <ele>614</ele>
        <time>2019-05-11T22:18:25Z</time>
      </trkpt>
      <trkpt lat="36.8329925537109" lon="-5.20382785797119">
        <ele>614</ele>
        <time>2019-05-11T22:18:27Z</time>
      </trkpt>
      <trkpt lat="36.8329811096191" lon="-5.20381021499634">
        <ele>614</ele>
        <time>2019-05-11T22:18:29Z</time>
      </trkpt>
      <trkpt lat="36.8329696655273" lon="-5.20378684997559">
        <ele>614</ele>
        <time>2019-05-11T22:18:31Z</time>
      </trkpt>
      <trkpt lat="36.832950592041" lon="-5.20375299453735">
        <ele>614</ele>
        <time>2019-05-11T22:18:33Z</time>
      </trkpt>
      <trkpt lat="36.8329429626465" lon="-5.20372486114502">
        <ele>614</ele>
        <time>2019-05-11T22:18:35Z</time>
      </trkpt>
      <trkpt lat="36.8329277038574" lon="-5.20369291305542">
        <ele>614</ele>
        <time>2019-05-11T22:18:37Z</time>
      </trkpt>
      <trkpt lat="36.8329086303711" lon="-5.20366287231445">
        <ele>614</ele>
        <time>2019-05-11T22:18:39Z</time>
      </trkpt>
      <trkpt lat="36.832893371582" lon="-5.2036280632019">
        <ele>614</ele>
        <time>2019-05-11T22:18:41Z</time>
      </trkpt>
      <trkpt lat="36.8328742980957" lon="-5.2035927772522">
        <ele>614</ele>
        <time>2019-05-11T22:18:43Z</time>
      </trkpt>
      <trkpt lat="36.8328552246094" lon="-5.20356321334839">
        <ele>615</ele>
        <time>2019-05-11T22:18:45Z</time>
      </trkpt>
      <trkpt lat="36.8328437805176" lon="-5.20353221893311">
        <ele>616</ele>
        <time>2019-05-11T22:18:47Z</time>
      </trkpt>
      <trkpt lat="36.8328285217285" lon="-5.20350217819214">
        <ele>617</ele>
        <time>2019-05-11T22:18:49Z</time>
      </trkpt>
      <trkpt lat="36.8328056335449" lon="-5.20346689224243">
        <ele>618</ele>
        <time>2019-05-11T22:18:51Z</time>
      </trkpt>
      <trkpt lat="36.8327865600586" lon="-5.20343780517578">
        <ele>618</ele>
        <time>2019-05-11T22:18:53Z</time>
      </trkpt>
      <trkpt lat="36.8327560424805" lon="-5.20339822769165">
        <ele>619</ele>
        <time>2019-05-11T22:18:55Z</time>
      </trkpt>
      <trkpt lat="36.8327331542969" lon="-5.20337295532227">
        <ele>620</ele>
        <time>2019-05-11T22:18:57Z</time>
      </trkpt>
      <trkpt lat="36.832706451416" lon="-5.20334815979004">
        <ele>620</ele>
        <time>2019-05-11T22:18:59Z</time>
      </trkpt>
      <trkpt lat="36.8326835632324" lon="-5.20332288742065">
        <ele>621</ele>
        <time>2019-05-11T22:19:01Z</time>
      </trkpt>
      <trkpt lat="36.8326606750488" lon="-5.20329809188843">
        <ele>621</ele>
        <time>2019-05-11T22:19:03Z</time>
      </trkpt>
      <trkpt lat="36.8326377868652" lon="-5.20327520370483">
        <ele>622</ele>
        <time>2019-05-11T22:19:06Z</time>
      </trkpt>
      <trkpt lat="36.8326187133789" lon="-5.20325517654419">
        <ele>622</ele>
        <time>2019-05-11T22:19:08Z</time>
      </trkpt>
      <trkpt lat="36.8325958251953" lon="-5.20323801040649">
        <ele>623</ele>
        <time>2019-05-11T22:19:10Z</time>
      </trkpt>
      <trkpt lat="36.832576751709" lon="-5.20322179794312">
        <ele>623</ele>
        <time>2019-05-11T22:19:12Z</time>
      </trkpt>
      <trkpt lat="36.8325538635254" lon="-5.20320177078247">
        <ele>623</ele>
        <time>2019-05-11T22:19:14Z</time>
      </trkpt>
      <trkpt lat="36.8325271606445" lon="-5.20318794250488">
        <ele>624</ele>
        <time>2019-05-11T22:19:16Z</time>
      </trkpt>
      <trkpt lat="36.8325042724609" lon="-5.20317506790161">
        <ele>624</ele>
        <time>2019-05-11T22:19:18Z</time>
      </trkpt>
      <trkpt lat="36.8324813842773" lon="-5.20316219329834">
        <ele>624</ele>
        <time>2019-05-11T22:19:20Z</time>
      </trkpt>
      <trkpt lat="36.8324584960938" lon="-5.20314788818359">
        <ele>625</ele>
        <time>2019-05-11T22:19:22Z</time>
      </trkpt>
      <trkpt lat="36.8324356079102" lon="-5.20312786102295">
        <ele>625</ele>
        <time>2019-05-11T22:19:24Z</time>
      </trkpt>
      <trkpt lat="36.8324089050293" lon="-5.2031102180481">
        <ele>625</ele>
        <time>2019-05-11T22:19:26Z</time>
      </trkpt>
      <trkpt lat="36.8323860168457" lon="-5.20309495925903">
        <ele>625</ele>
        <time>2019-05-11T22:19:28Z</time>
      </trkpt>
      <trkpt lat="36.8323593139648" lon="-5.20307779312134">
        <ele>625</ele>
        <time>2019-05-11T22:19:30Z</time>
      </trkpt>
      <trkpt lat="36.8323364257812" lon="-5.20306205749512">
        <ele>626</ele>
        <time>2019-05-11T22:19:32Z</time>
      </trkpt>
      <trkpt lat="36.8323135375977" lon="-5.20304489135742">
        <ele>626</ele>
        <time>2019-05-11T22:19:34Z</time>
      </trkpt>
      <trkpt lat="36.8322944641113" lon="-5.20302677154541">
        <ele>627</ele>
        <time>2019-05-11T22:19:36Z</time>
      </trkpt>
      <trkpt lat="36.8322677612305" lon="-5.20301198959351">
        <ele>627</ele>
        <time>2019-05-11T22:19:38Z</time>
      </trkpt>
      <trkpt lat="36.8322448730469" lon="-5.20299482345581">
        <ele>627</ele>
        <time>2019-05-11T22:19:40Z</time>
      </trkpt>
      <trkpt lat="36.8322219848633" lon="-5.20297288894653">
        <ele>628</ele>
        <time>2019-05-11T22:19:42Z</time>
      </trkpt>
      <trkpt lat="36.8321952819824" lon="-5.20295476913452">
        <ele>628</ele>
        <time>2019-05-11T22:19:44Z</time>
      </trkpt>
      <trkpt lat="36.8321723937988" lon="-5.20293521881104">
        <ele>629</ele>
        <time>2019-05-11T22:19:46Z</time>
      </trkpt>
      <trkpt lat="36.8321495056152" lon="-5.20292282104492">
        <ele>631</ele>
        <time>2019-05-11T22:19:48Z</time>
      </trkpt>
      <trkpt lat="36.8321228027344" lon="-5.20291709899902">
        <ele>632</ele>
        <time>2019-05-11T22:19:50Z</time>
      </trkpt>
      <trkpt lat="36.8320960998535" lon="-5.2029070854187">
        <ele>632</ele>
        <time>2019-05-11T22:19:52Z</time>
      </trkpt>
      <trkpt lat="36.8320732116699" lon="-5.20289707183838">
        <ele>633</ele>
        <time>2019-05-11T22:19:54Z</time>
      </trkpt>
      <trkpt lat="36.8320465087891" lon="-5.20288276672363">
        <ele>633</ele>
        <time>2019-05-11T22:19:56Z</time>
      </trkpt>
      <trkpt lat="36.8320198059082" lon="-5.20286321640015">
        <ele>634</ele>
        <time>2019-05-11T22:19:58Z</time>
      </trkpt>
      <trkpt lat="36.8319892883301" lon="-5.20284509658814">
        <ele>634</ele>
        <time>2019-05-11T22:20:00Z</time>
      </trkpt>
      <trkpt lat="36.8319625854492" lon="-5.20282983779907">
        <ele>635</ele>
        <time>2019-05-11T22:20:02Z</time>
      </trkpt>
      <trkpt lat="36.8319358825684" lon="-5.20281791687012">
        <ele>635</ele>
        <time>2019-05-11T22:20:04Z</time>
      </trkpt>
      <trkpt lat="36.831901550293" lon="-5.20280504226685">
        <ele>636</ele>
        <time>2019-05-11T22:20:06Z</time>
      </trkpt>
      <trkpt lat="36.8318786621094" lon="-5.20279693603516">
        <ele>636</ele>
        <time>2019-05-11T22:20:08Z</time>
      </trkpt>
      <trkpt lat="36.8318519592285" lon="-5.20278310775757">
        <ele>637</ele>
        <time>2019-05-11T22:20:10Z</time>
      </trkpt>
      <trkpt lat="36.8318290710449" lon="-5.20276784896851">
        <ele>637</ele>
        <time>2019-05-11T22:20:12Z</time>
      </trkpt>
      <trkpt lat="36.8318023681641" lon="-5.20275497436523">
        <ele>638</ele>
        <time>2019-05-11T22:20:14Z</time>
      </trkpt>
      <trkpt lat="36.8317756652832" lon="-5.20274496078491">
        <ele>638</ele>
        <time>2019-05-11T22:20:16Z</time>
      </trkpt>
      <trkpt lat="36.8317527770996" lon="-5.20272779464722">
        <ele>638</ele>
        <time>2019-05-11T22:20:18Z</time>
      </trkpt>
      <trkpt lat="36.831729888916" lon="-5.202712059021">
        <ele>639</ele>
        <time>2019-05-11T22:20:20Z</time>
      </trkpt>
      <trkpt lat="36.8317070007324" lon="-5.2026948928833">
        <ele>639</ele>
        <time>2019-05-11T22:20:22Z</time>
      </trkpt>
      <trkpt lat="36.8316879272461" lon="-5.20267677307129">
        <ele>639</ele>
        <time>2019-05-11T22:20:24Z</time>
      </trkpt>
      <trkpt lat="36.8316688537598" lon="-5.20265483856201">
        <ele>639</ele>
        <time>2019-05-11T22:20:26Z</time>
      </trkpt>
      <trkpt lat="36.8316497802734" lon="-5.20263290405273">
        <ele>639</ele>
        <time>2019-05-11T22:20:28Z</time>
      </trkpt>
      <trkpt lat="36.8316192626953" lon="-5.20261287689209">
        <ele>639</ele>
        <time>2019-05-11T22:20:30Z</time>
      </trkpt>
      <trkpt lat="36.831600189209" lon="-5.20259714126587">
        <ele>639</ele>
        <time>2019-05-11T22:20:32Z</time>
      </trkpt>
      <trkpt lat="36.8315811157227" lon="-5.20258283615112">
        <ele>639</ele>
        <time>2019-05-11T22:20:34Z</time>
      </trkpt>
      <trkpt lat="36.8315620422363" lon="-5.20256805419922">
        <ele>639</ele>
        <time>2019-05-11T22:20:36Z</time>
      </trkpt>
      <trkpt lat="36.8315467834473" lon="-5.20255517959595">
        <ele>639</ele>
        <time>2019-05-11T22:20:38Z</time>
      </trkpt>
      <trkpt lat="36.8315391540527" lon="-5.20254278182983">
        <ele>639</ele>
        <time>2019-05-11T22:20:41Z</time>
      </trkpt>
      <trkpt lat="36.8315353393555" lon="-5.2025351524353">
        <ele>639</ele>
        <time>2019-05-11T22:20:43Z</time>
      </trkpt>
      <trkpt lat="36.8315315246582" lon="-5.20252799987793">
        <ele>639</ele>
        <time>2019-05-11T22:20:45Z</time>
      </trkpt>
      <trkpt lat="36.8315277099609" lon="-5.20252323150635">
        <ele>639</ele>
        <time>2019-05-11T22:20:47Z</time>
      </trkpt>
      <trkpt lat="36.8315238952637" lon="-5.20251321792603">
        <ele>639</ele>
        <time>2019-05-11T22:20:49Z</time>
      </trkpt>
      <trkpt lat="36.8315238952637" lon="-5.20251512527466">
        <ele>639</ele>
        <time>2019-05-11T22:20:51Z</time>
      </trkpt>
      <trkpt lat="36.8315238952637" lon="-5.20251703262329">
        <ele>639</ele>
        <time>2019-05-11T22:20:53Z</time>
      </trkpt>
      <trkpt lat="36.8315162658691" lon="-5.20251989364624">
        <ele>639</ele>
        <time>2019-05-11T22:20:55Z</time>
      </trkpt>
      <trkpt lat="36.8315124511719" lon="-5.20251989364624">
        <ele>639</ele>
        <time>2019-05-11T22:20:57Z</time>
      </trkpt>
      <trkpt lat="36.8315048217773" lon="-5.20251798629761">
        <ele>639</ele>
        <time>2019-05-11T22:20:59Z</time>
      </trkpt>
      <trkpt lat="36.8314933776856" lon="-5.20251989364624">
        <ele>639</ele>
        <time>2019-05-11T22:21:01Z</time>
      </trkpt>
      <trkpt lat="36.8314781188965" lon="-5.20251512527466">
        <ele>639</ele>
        <time>2019-05-11T22:21:03Z</time>
      </trkpt>
      <trkpt lat="36.8314666748047" lon="-5.20250988006592">
        <ele>639</ele>
        <time>2019-05-11T22:21:05Z</time>
      </trkpt>
      <trkpt lat="36.8314552307129" lon="-5.20250701904297">
        <ele>639</ele>
        <time>2019-05-11T22:21:07Z</time>
      </trkpt>
      <trkpt lat="36.8314361572266" lon="-5.20250177383423">
        <ele>639</ele>
        <time>2019-05-11T22:21:09Z</time>
      </trkpt>
      <trkpt lat="36.8314247131348" lon="-5.2024998664856">
        <ele>639</ele>
        <time>2019-05-11T22:21:11Z</time>
      </trkpt>
      <trkpt lat="36.831413269043" lon="-5.20249700546265">
        <ele>639</ele>
        <time>2019-05-11T22:21:13Z</time>
      </trkpt>
      <trkpt lat="36.8314056396484" lon="-5.20249223709106">
        <ele>639</ele>
        <time>2019-05-11T22:21:15Z</time>
      </trkpt>
      <trkpt lat="36.8313980102539" lon="-5.20249319076538">
        <ele>639</ele>
        <time>2019-05-11T22:21:17Z</time>
      </trkpt>
      <trkpt lat="36.8313865661621" lon="-5.20248794555664">
        <ele>639</ele>
        <time>2019-05-11T22:21:19Z</time>
      </trkpt>
      <trkpt lat="36.8313865661621" lon="-5.20248699188232">
        <ele>639</ele>
        <time>2019-05-11T22:21:21Z</time>
      </trkpt>
      <trkpt lat="36.8313865661621" lon="-5.20248508453369">
        <ele>639</ele>
        <time>2019-05-11T22:21:23Z</time>
      </trkpt>
      <trkpt lat="36.8313865661621" lon="-5.20248317718506">
        <ele>639</ele>
        <time>2019-05-11T22:21:25Z</time>
      </trkpt>
      <trkpt lat="36.8313827514648" lon="-5.20247793197632">
        <ele>639</ele>
        <time>2019-05-11T22:21:27Z</time>
      </trkpt>
      <trkpt lat="36.8313827514648" lon="-5.202476978302">
        <ele>639</ele>
        <time>2019-05-11T22:21:29Z</time>
      </trkpt>
      <trkpt lat="36.8313827514648" lon="-5.20247507095337">
        <ele>640</ele>
        <time>2019-05-11T22:21:31Z</time>
      </trkpt>
      <trkpt lat="36.8313789367676" lon="-5.20247507095337">
        <ele>640</ele>
        <time>2019-05-11T22:21:33Z</time>
      </trkpt>
      <trkpt lat="36.8313751220703" lon="-5.20246315002441">
        <ele>641</ele>
        <time>2019-05-11T22:21:35Z</time>
      </trkpt>
      <trkpt lat="36.8313751220703" lon="-5.2024450302124">
        <ele>642</ele>
        <time>2019-05-11T22:21:37Z</time>
      </trkpt>
      <trkpt lat="36.8313827514648" lon="-5.20243787765503">
        <ele>642</ele>
        <time>2019-05-11T22:21:39Z</time>
      </trkpt>
      <trkpt lat="36.8313903808594" lon="-5.20243501663208">
        <ele>642</ele>
        <time>2019-05-11T22:21:41Z</time>
      </trkpt>
      <trkpt lat="36.8313980102539" lon="-5.20243310928345">
        <ele>643</ele>
        <time>2019-05-11T22:21:44Z</time>
      </trkpt>
      <trkpt lat="36.8313980102539" lon="-5.20243501663208">
        <ele>643</ele>
        <time>2019-05-11T22:21:46Z</time>
      </trkpt>
      <trkpt lat="36.8313903808594" lon="-5.20243978500366">
        <ele>643</ele>
        <time>2019-05-11T22:21:48Z</time>
      </trkpt>
      <trkpt lat="36.8313903808594" lon="-5.20243978500366">
        <ele>643</ele>
        <time>2019-05-11T22:21:50Z</time>
      </trkpt>
      <trkpt lat="36.8313865661621" lon="-5.20243787765503">
        <ele>643</ele>
        <time>2019-05-11T22:21:52Z</time>
      </trkpt>
      <trkpt lat="36.8313865661621" lon="-5.20243978500366">
        <ele>643</ele>
        <time>2019-05-11T22:21:54Z</time>
      </trkpt>
      <trkpt lat="36.8313865661621" lon="-5.20244312286377">
        <ele>643</ele>
        <time>2019-05-11T22:21:56Z</time>
      </trkpt>
      <trkpt lat="36.8313865661621" lon="-5.20244216918945">
        <ele>643</ele>
        <time>2019-05-11T22:21:58Z</time>
      </trkpt>
      <trkpt lat="36.8313865661621" lon="-5.20244216918945">
        <ele>643</ele>
        <time>2019-05-11T22:22:00Z</time>
      </trkpt>
      <trkpt lat="36.8313903808594" lon="-5.20243692398071">
        <ele>643</ele>
        <time>2019-05-11T22:22:02Z</time>
      </trkpt>
      <trkpt lat="36.8313903808594" lon="-5.20243310928345">
        <ele>643</ele>
        <time>2019-05-11T22:22:04Z</time>
      </trkpt>
      <trkpt lat="36.8313903808594" lon="-5.20242977142334">
        <ele>643</ele>
        <time>2019-05-11T22:22:06Z</time>
      </trkpt>
      <trkpt lat="36.8313865661621" lon="-5.20242786407471">
        <ele>643</ele>
        <time>2019-05-11T22:22:08Z</time>
      </trkpt>
      <trkpt lat="36.8313865661621" lon="-5.20242977142334">
        <ele>643</ele>
        <time>2019-05-11T22:22:10Z</time>
      </trkpt>
      <trkpt lat="36.8313865661621" lon="-5.20242977142334">
        <ele>643</ele>
        <time>2019-05-11T22:22:12Z</time>
      </trkpt>
      <trkpt lat="36.8313865661621" lon="-5.20242786407471">
        <ele>643</ele>
        <time>2019-05-11T22:22:14Z</time>
      </trkpt>
      <trkpt lat="36.8313827514648" lon="-5.20243692398071">
        <ele>643</ele>
        <time>2019-05-11T22:22:16Z</time>
      </trkpt>
      <trkpt lat="36.8313789367676" lon="-5.20244693756104">
        <ele>643</ele>
        <time>2019-05-11T22:22:18Z</time>
      </trkpt>
      <trkpt lat="36.8313751220703" lon="-5.20245218276978">
        <ele>643</ele>
        <time>2019-05-11T22:22:21Z</time>
      </trkpt>
      <trkpt lat="36.8313674926758" lon="-5.20245504379272">
        <ele>643</ele>
        <time>2019-05-11T22:22:23Z</time>
      </trkpt>
      <trkpt lat="36.8313636779785" lon="-5.20245790481567">
        <ele>643</ele>
        <time>2019-05-11T22:22:25Z</time>
      </trkpt>
      <trkpt lat="36.8313598632812" lon="-5.20246982574463">
        <ele>643</ele>
        <time>2019-05-11T22:22:27Z</time>
      </trkpt>
      <trkpt lat="36.8313484191894" lon="-5.20247507095337">
        <ele>643</ele>
        <time>2019-05-11T22:22:29Z</time>
      </trkpt>
      <trkpt lat="36.8313293457031" lon="-5.20247316360474">
        <ele>643</ele>
        <time>2019-05-11T22:22:31Z</time>
      </trkpt>
      <trkpt lat="36.8313179016113" lon="-5.202476978302">
        <ele>643</ele>
        <time>2019-05-11T22:22:33Z</time>
      </trkpt>
      <trkpt lat="36.8313026428223" lon="-5.20247316360474">
        <ele>643</ele>
        <time>2019-05-11T22:22:35Z</time>
      </trkpt>
      <trkpt lat="36.8312835693359" lon="-5.20246982574463">
        <ele>643</ele>
        <time>2019-05-11T22:22:37Z</time>
      </trkpt>
      <trkpt lat="36.8312644958496" lon="-5.20246982574463">
        <ele>643</ele>
        <time>2019-05-11T22:22:39Z</time>
      </trkpt>
      <trkpt lat="36.8312454223633" lon="-5.20247220993042">
        <ele>643</ele>
        <time>2019-05-11T22:22:41Z</time>
      </trkpt>
      <trkpt lat="36.831226348877" lon="-5.20247793197632">
        <ele>643</ele>
        <time>2019-05-11T22:22:43Z</time>
      </trkpt>
      <trkpt lat="36.8312072753906" lon="-5.20247983932495">
        <ele>643</ele>
        <time>2019-05-11T22:22:45Z</time>
      </trkpt>
      <trkpt lat="36.8311882019043" lon="-5.20248699188232">
        <ele>643</ele>
        <time>2019-05-11T22:22:47Z</time>
      </trkpt>
      <trkpt lat="36.8311614990234" lon="-5.20249319076538">
        <ele>643</ele>
        <time>2019-05-11T22:22:49Z</time>
      </trkpt>
      <trkpt lat="36.8311080932617" lon="-5.20248794555664">
        <ele>643</ele>
        <time>2019-05-11T22:22:51Z</time>
      </trkpt>
      <trkpt lat="36.8310737609863" lon="-5.20248222351074">
        <ele>643</ele>
        <time>2019-05-11T22:22:53Z</time>
      </trkpt>
      <trkpt lat="36.8310470581055" lon="-5.20247983932495">
        <ele>643</ele>
        <time>2019-05-11T22:22:55Z</time>
      </trkpt>
      <trkpt lat="36.8310165405273" lon="-5.20248508453369">
        <ele>643</ele>
        <time>2019-05-11T22:22:57Z</time>
      </trkpt>
      <trkpt lat="36.8309936523438" lon="-5.20248508453369">
        <ele>643</ele>
        <time>2019-05-11T22:23:00Z</time>
      </trkpt>
      <trkpt lat="36.8309669494629" lon="-5.20249700546265">
        <ele>643</ele>
        <time>2019-05-11T22:23:02Z</time>
      </trkpt>
      <trkpt lat="36.8309440612793" lon="-5.20250701904297">
        <ele>643</ele>
        <time>2019-05-11T22:23:04Z</time>
      </trkpt>
      <trkpt lat="36.8309211730957" lon="-5.20251512527466">
        <ele>643</ele>
        <time>2019-05-11T22:23:06Z</time>
      </trkpt>
      <trkpt lat="36.8308944702148" lon="-5.20252513885498">
        <ele>643</ele>
        <time>2019-05-11T22:23:08Z</time>
      </trkpt>
      <trkpt lat="36.8308715820312" lon="-5.2025351524353">
        <ele>643</ele>
        <time>2019-05-11T22:23:10Z</time>
      </trkpt>
      <trkpt lat="36.8308486938477" lon="-5.20254802703857">
        <ele>643</ele>
        <time>2019-05-11T22:23:12Z</time>
      </trkpt>
      <trkpt lat="36.8308181762695" lon="-5.20255517959595">
        <ele>643</ele>
        <time>2019-05-11T22:23:14Z</time>
      </trkpt>
      <trkpt lat="36.8308029174805" lon="-5.20256805419922">
        <ele>643</ele>
        <time>2019-05-11T22:23:16Z</time>
      </trkpt>
      <trkpt lat="36.8307838439941" lon="-5.20257806777954">
        <ele>643</ele>
        <time>2019-05-11T22:23:18Z</time>
      </trkpt>
      <trkpt lat="36.8307609558106" lon="-5.2025899887085">
        <ele>643</ele>
        <time>2019-05-11T22:23:20Z</time>
      </trkpt>
      <trkpt lat="36.8307418823242" lon="-5.20260000228882">
        <ele>643</ele>
        <time>2019-05-11T22:23:22Z</time>
      </trkpt>
      <trkpt lat="36.8307189941406" lon="-5.20261192321777">
        <ele>643</ele>
        <time>2019-05-11T22:23:24Z</time>
      </trkpt>
      <trkpt lat="36.8306846618652" lon="-5.20262289047241">
        <ele>643</ele>
        <time>2019-05-11T22:23:26Z</time>
      </trkpt>
      <trkpt lat="36.8306655883789" lon="-5.20263290405273">
        <ele>643</ele>
        <time>2019-05-11T22:23:28Z</time>
      </trkpt>
      <trkpt lat="36.8306465148926" lon="-5.20264196395874">
        <ele>643</ele>
        <time>2019-05-11T22:23:31Z</time>
      </trkpt>
      <trkpt lat="36.8306312561035" lon="-5.20264482498169">
        <ele>643</ele>
        <time>2019-05-11T22:23:33Z</time>
      </trkpt>
      <trkpt lat="36.8306159973144" lon="-5.20264720916748">
        <ele>643</ele>
        <time>2019-05-11T22:23:35Z</time>
      </trkpt>
      <trkpt lat="36.8305969238281" lon="-5.20265007019043">
        <ele>643</ele>
        <time>2019-05-11T22:23:37Z</time>
      </trkpt>
      <trkpt lat="36.8305778503418" lon="-5.2026572227478">
        <ele>643</ele>
        <time>2019-05-11T22:23:39Z</time>
      </trkpt>
      <trkpt lat="36.8305549621582" lon="-5.20266199111938">
        <ele>643</ele>
        <time>2019-05-11T22:23:41Z</time>
      </trkpt>
      <trkpt lat="36.8305435180664" lon="-5.20266723632812">
        <ele>643</ele>
        <time>2019-05-11T22:23:43Z</time>
      </trkpt>
      <trkpt lat="36.8305435180664" lon="-5.20267200469971">
        <ele>643</ele>
        <time>2019-05-11T22:23:45Z</time>
      </trkpt>
      <trkpt lat="36.8305435180664" lon="-5.20267486572266">
        <ele>643</ele>
        <time>2019-05-11T22:23:47Z</time>
      </trkpt>
      <trkpt lat="36.8305435180664" lon="-5.20267677307129">
        <ele>643</ele>
        <time>2019-05-11T22:23:49Z</time>
      </trkpt>
      <trkpt lat="36.8305435180664" lon="-5.20268201828003">
        <ele>643</ele>
        <time>2019-05-11T22:23:51Z</time>
      </trkpt>
      <trkpt lat="36.8305435180664" lon="-5.20268297195435">
        <ele>643</ele>
        <time>2019-05-11T22:23:53Z</time>
      </trkpt>
      <trkpt lat="36.8305435180664" lon="-5.20268297195435">
        <ele>643</ele>
        <time>2019-05-11T22:23:55Z</time>
      </trkpt>
      <trkpt lat="36.8305473327637" lon="-5.20268487930298">
        <ele>643</ele>
        <time>2019-05-11T22:23:57Z</time>
      </trkpt>
      <trkpt lat="36.8305473327637" lon="-5.20268487930298">
        <ele>643</ele>
        <time>2019-05-11T22:23:59Z</time>
      </trkpt>
      <trkpt lat="36.8305473327637" lon="-5.20268487930298">
        <ele>643</ele>
        <time>2019-05-11T22:24:01Z</time>
      </trkpt>
      <trkpt lat="36.8305511474609" lon="-5.20268487930298">
        <ele>643</ele>
        <time>2019-05-11T22:24:03Z</time>
      </trkpt>
      <trkpt lat="36.8305473327637" lon="-5.20268678665161">
        <ele>643</ele>
        <time>2019-05-11T22:24:05Z</time>
      </trkpt>
      <trkpt lat="36.8305511474609" lon="-5.20269012451172">
        <ele>643</ele>
        <time>2019-05-11T22:24:07Z</time>
      </trkpt>
      <trkpt lat="36.8305511474609" lon="-5.20269012451172">
        <ele>643</ele>
        <time>2019-05-11T22:24:09Z</time>
      </trkpt>
      <trkpt lat="36.8305511474609" lon="-5.20268487930298">
        <ele>643</ele>
        <time>2019-05-11T22:24:11Z</time>
      </trkpt>
      <trkpt lat="36.8305473327637" lon="-5.2026801109314">
        <ele>643</ele>
        <time>2019-05-11T22:24:13Z</time>
      </trkpt>
      <trkpt lat="36.8305358886719" lon="-5.20267486572266">
        <ele>643</ele>
        <time>2019-05-11T22:24:16Z</time>
      </trkpt>
      <trkpt lat="36.8305168151856" lon="-5.20266819000244">
        <ele>643</ele>
        <time>2019-05-11T22:24:18Z</time>
      </trkpt>
      <trkpt lat="36.830493927002" lon="-5.20267295837402">
        <ele>643</ele>
        <time>2019-05-11T22:24:20Z</time>
      </trkpt>
      <trkpt lat="36.8304710388184" lon="-5.2026801109314">
        <ele>643</ele>
        <time>2019-05-11T22:24:22Z</time>
      </trkpt>
      <trkpt lat="36.8304481506348" lon="-5.20268678665161">
        <ele>643</ele>
        <time>2019-05-11T22:24:24Z</time>
      </trkpt>
      <trkpt lat="36.8304214477539" lon="-5.20269203186035">
        <ele>643</ele>
        <time>2019-05-11T22:24:26Z</time>
      </trkpt>
      <trkpt lat="36.8303871154785" lon="-5.20270204544067">
        <ele>643</ele>
        <time>2019-05-11T22:24:28Z</time>
      </trkpt>
      <trkpt lat="36.8303565979004" lon="-5.20270776748657">
        <ele>643</ele>
        <time>2019-05-11T22:24:30Z</time>
      </trkpt>
      <trkpt lat="36.8303298950195" lon="-5.20271301269531">
        <ele>643</ele>
        <time>2019-05-11T22:24:32Z</time>
      </trkpt>
      <trkpt lat="36.8303031921387" lon="-5.20271492004394">
        <ele>643</ele>
        <time>2019-05-11T22:24:34Z</time>
      </trkpt>
      <trkpt lat="36.8302764892578" lon="-5.20271778106689">
        <ele>643</ele>
        <time>2019-05-11T22:24:36Z</time>
      </trkpt>
      <trkpt lat="36.8302536010742" lon="-5.20272016525269">
        <ele>643</ele>
        <time>2019-05-11T22:24:38Z</time>
      </trkpt>
      <trkpt lat="36.8302268981934" lon="-5.20272016525269">
        <ele>643</ele>
        <time>2019-05-11T22:24:40Z</time>
      </trkpt>
      <trkpt lat="36.8302040100098" lon="-5.20272302627564">
        <ele>643</ele>
        <time>2019-05-11T22:24:42Z</time>
      </trkpt>
      <trkpt lat="36.8301811218262" lon="-5.20273208618164">
        <ele>643</ele>
        <time>2019-05-11T22:24:44Z</time>
      </trkpt>
      <trkpt lat="36.8301429748535" lon="-5.2027268409729">
        <ele>643</ele>
        <time>2019-05-11T22:24:46Z</time>
      </trkpt>
      <trkpt lat="36.8301200866699" lon="-5.20273017883301">
        <ele>643</ele>
        <time>2019-05-11T22:24:48Z</time>
      </trkpt>
      <trkpt lat="36.8300971984863" lon="-5.20272779464722">
        <ele>643</ele>
        <time>2019-05-11T22:24:50Z</time>
      </trkpt>
      <trkpt lat="36.8300666809082" lon="-5.20272302627564">
        <ele>643</ele>
        <time>2019-05-11T22:24:53Z</time>
      </trkpt>
      <trkpt lat="36.8300437927246" lon="-5.20272493362427">
        <ele>643</ele>
        <time>2019-05-11T22:24:55Z</time>
      </trkpt>
      <trkpt lat="36.8300094604492" lon="-5.20271682739258">
        <ele>643</ele>
        <time>2019-05-11T22:24:57Z</time>
      </trkpt>
      <trkpt lat="36.8299827575684" lon="-5.20271015167236">
        <ele>643</ele>
        <time>2019-05-11T22:24:59Z</time>
      </trkpt>
      <trkpt lat="36.8299560546875" lon="-5.20270681381226">
        <ele>643</ele>
        <time>2019-05-11T22:25:01Z</time>
      </trkpt>
      <trkpt lat="36.8299255371094" lon="-5.20270490646362">
        <ele>643</ele>
        <time>2019-05-11T22:25:03Z</time>
      </trkpt>
      <trkpt lat="36.8299026489258" lon="-5.20270013809204">
        <ele>643</ele>
        <time>2019-05-11T22:25:05Z</time>
      </trkpt>
      <trkpt lat="36.8298835754394" lon="-5.20269823074341">
        <ele>643</ele>
        <time>2019-05-11T22:25:07Z</time>
      </trkpt>
      <trkpt lat="36.8298568725586" lon="-5.20269680023193">
        <ele>643</ele>
        <time>2019-05-11T22:25:09Z</time>
      </trkpt>
      <trkpt lat="36.8298301696777" lon="-5.20269203186035">
        <ele>643</ele>
        <time>2019-05-11T22:25:11Z</time>
      </trkpt>
      <trkpt lat="36.8298034667969" lon="-5.20268678665161">
        <ele>643</ele>
        <time>2019-05-11T22:25:13Z</time>
      </trkpt>
      <trkpt lat="36.829776763916" lon="-5.2026801109314">
        <ele>643</ele>
        <time>2019-05-11T22:25:15Z</time>
      </trkpt>
      <trkpt lat="36.8297462463379" lon="-5.20267677307129">
        <ele>643</ele>
        <time>2019-05-11T22:25:17Z</time>
      </trkpt>
      <trkpt lat="36.829719543457" lon="-5.20267009735107">
        <ele>643</ele>
        <time>2019-05-11T22:25:19Z</time>
      </trkpt>
      <trkpt lat="36.8296890258789" lon="-5.2026629447937">
        <ele>643</ele>
        <time>2019-05-11T22:25:21Z</time>
      </trkpt>
      <trkpt lat="36.8296546936035" lon="-5.20265483856201">
        <ele>643</ele>
        <time>2019-05-11T22:25:23Z</time>
      </trkpt>
      <trkpt lat="36.8296318054199" lon="-5.20265483856201">
        <ele>643</ele>
        <time>2019-05-11T22:25:25Z</time>
      </trkpt>
      <trkpt lat="36.8296051025391" lon="-5.20265293121338">
        <ele>643</ele>
        <time>2019-05-11T22:25:28Z</time>
      </trkpt>
      <trkpt lat="36.8295783996582" lon="-5.20265007019043">
        <ele>643</ele>
        <time>2019-05-11T22:25:30Z</time>
      </trkpt>
      <trkpt lat="36.8295516967773" lon="-5.20264720916748">
        <ele>643</ele>
        <time>2019-05-11T22:25:32Z</time>
      </trkpt>
      <trkpt lat="36.8295288085938" lon="-5.20264196395874">
        <ele>643</ele>
        <time>2019-05-11T22:25:34Z</time>
      </trkpt>
      <trkpt lat="36.8295021057129" lon="-5.20263814926147">
        <ele>643</ele>
        <time>2019-05-11T22:25:36Z</time>
      </trkpt>
      <trkpt lat="36.829475402832" lon="-5.20262813568115">
        <ele>643</ele>
        <time>2019-05-11T22:25:38Z</time>
      </trkpt>
      <trkpt lat="36.8294486999512" lon="-5.20262289047241">
        <ele>643</ele>
        <time>2019-05-11T22:25:40Z</time>
      </trkpt>
      <trkpt lat="36.829418182373" lon="-5.20260810852051">
        <ele>643</ele>
        <time>2019-05-11T22:25:42Z</time>
      </trkpt>
      <trkpt lat="36.8293952941894" lon="-5.20259523391724">
        <ele>643</ele>
        <time>2019-05-11T22:25:44Z</time>
      </trkpt>
      <trkpt lat="36.8293685913086" lon="-5.20258188247681">
        <ele>643</ele>
        <time>2019-05-11T22:25:46Z</time>
      </trkpt>
      <trkpt lat="36.829345703125" lon="-5.2025671005249">
        <ele>643</ele>
        <time>2019-05-11T22:25:48Z</time>
      </trkpt>
      <trkpt lat="36.8293190002441" lon="-5.20254278182983">
        <ele>643</ele>
        <time>2019-05-11T22:25:50Z</time>
      </trkpt>
      <trkpt lat="36.8292961120606" lon="-5.20252323150635">
        <ele>643</ele>
        <time>2019-05-11T22:25:52Z</time>
      </trkpt>
      <trkpt lat="36.829273223877" lon="-5.2024998664856">
        <ele>643</ele>
        <time>2019-05-11T22:25:54Z</time>
      </trkpt>
      <trkpt lat="36.8292465209961" lon="-5.20247983932495">
        <ele>643</ele>
        <time>2019-05-11T22:25:56Z</time>
      </trkpt>
      <trkpt lat="36.829216003418" lon="-5.20244312286377">
        <ele>643</ele>
        <time>2019-05-11T22:25:58Z</time>
      </trkpt>
      <trkpt lat="36.8291969299316" lon="-5.20242023468018">
        <ele>643</ele>
        <time>2019-05-11T22:26:00Z</time>
      </trkpt>
      <trkpt lat="36.829174041748" lon="-5.20239686965942">
        <ele>643</ele>
        <time>2019-05-11T22:26:03Z</time>
      </trkpt>
      <trkpt lat="36.8291511535644" lon="-5.20237302780151">
        <ele>643</ele>
        <time>2019-05-11T22:26:05Z</time>
      </trkpt>
      <trkpt lat="36.8291320800781" lon="-5.20235013961792">
        <ele>643</ele>
        <time>2019-05-11T22:26:07Z</time>
      </trkpt>
      <trkpt lat="36.8291091918945" lon="-5.2023229598999">
        <ele>643</ele>
        <time>2019-05-11T22:26:09Z</time>
      </trkpt>
      <trkpt lat="36.8290901184082" lon="-5.20230007171631">
        <ele>643</ele>
        <time>2019-05-11T22:26:11Z</time>
      </trkpt>
      <trkpt lat="36.8290748596191" lon="-5.20227718353272">
        <ele>643</ele>
        <time>2019-05-11T22:26:13Z</time>
      </trkpt>
      <trkpt lat="36.8290519714356" lon="-5.2022500038147">
        <ele>643</ele>
        <time>2019-05-11T22:26:15Z</time>
      </trkpt>
      <trkpt lat="36.8290367126465" lon="-5.2022271156311">
        <ele>643</ele>
        <time>2019-05-11T22:26:17Z</time>
      </trkpt>
      <trkpt lat="36.8290176391602" lon="-5.20221185684204">
        <ele>643</ele>
        <time>2019-05-11T22:26:19Z</time>
      </trkpt>
      <trkpt lat="36.8289947509766" lon="-5.20219707489014">
        <ele>643</ele>
        <time>2019-05-11T22:26:21Z</time>
      </trkpt>
      <trkpt lat="36.828971862793" lon="-5.20217990875244">
        <ele>643</ele>
        <time>2019-05-11T22:26:23Z</time>
      </trkpt>
      <trkpt lat="36.8289527893066" lon="-5.20216178894043">
        <ele>643</ele>
        <time>2019-05-11T22:26:25Z</time>
      </trkpt>
      <trkpt lat="36.828929901123" lon="-5.20214700698853">
        <ele>643</ele>
        <time>2019-05-11T22:26:27Z</time>
      </trkpt>
      <trkpt lat="36.8289070129394" lon="-5.2021369934082">
        <ele>642</ele>
        <time>2019-05-11T22:26:29Z</time>
      </trkpt>
      <trkpt lat="36.8288917541504" lon="-5.2021369934082">
        <ele>641</ele>
        <time>2019-05-11T22:26:31Z</time>
      </trkpt>
      <trkpt lat="36.8288612365723" lon="-5.2021369934082">
        <ele>641</ele>
        <time>2019-05-11T22:26:33Z</time>
      </trkpt>
      <trkpt lat="36.8288345336914" lon="-5.20213794708252">
        <ele>641</ele>
        <time>2019-05-11T22:26:35Z</time>
      </trkpt>
      <trkpt lat="36.8288116455078" lon="-5.20214176177978">
        <ele>641</ele>
        <time>2019-05-11T22:26:37Z</time>
      </trkpt>
      <trkpt lat="36.8287925720215" lon="-5.20214700698853">
        <ele>641</ele>
        <time>2019-05-11T22:26:40Z</time>
      </trkpt>
      <trkpt lat="36.8287696838379" lon="-5.20215320587158">
        <ele>641</ele>
        <time>2019-05-11T22:26:42Z</time>
      </trkpt>
      <trkpt lat="36.8287467956543" lon="-5.2021632194519">
        <ele>641</ele>
        <time>2019-05-11T22:26:44Z</time>
      </trkpt>
      <trkpt lat="36.8287353515625" lon="-5.20217180252075">
        <ele>641</ele>
        <time>2019-05-11T22:26:46Z</time>
      </trkpt>
      <trkpt lat="36.8287162780762" lon="-5.20217800140381">
        <ele>641</ele>
        <time>2019-05-11T22:26:48Z</time>
      </trkpt>
      <trkpt lat="36.8286933898926" lon="-5.20218276977539">
        <ele>641</ele>
        <time>2019-05-11T22:26:50Z</time>
      </trkpt>
      <trkpt lat="36.828670501709" lon="-5.20218706130981">
        <ele>641</ele>
        <time>2019-05-11T22:26:52Z</time>
      </trkpt>
      <trkpt lat="36.8286514282227" lon="-5.20220518112183">
        <ele>641</ele>
        <time>2019-05-11T22:26:54Z</time>
      </trkpt>
      <trkpt lat="36.8286323547363" lon="-5.20222282409668">
        <ele>641</ele>
        <time>2019-05-11T22:26:56Z</time>
      </trkpt>
      <trkpt lat="36.82861328125" lon="-5.20224285125732">
        <ele>641</ele>
        <time>2019-05-11T22:26:58Z</time>
      </trkpt>
      <trkpt lat="36.8286018371582" lon="-5.20226716995239">
        <ele>641</ele>
        <time>2019-05-11T22:27:00Z</time>
      </trkpt>
      <trkpt lat="36.8285942077637" lon="-5.20229005813599">
        <ele>641</ele>
        <time>2019-05-11T22:27:02Z</time>
      </trkpt>
      <trkpt lat="36.8285789489746" lon="-5.20231199264526">
        <ele>641</ele>
        <time>2019-05-11T22:27:04Z</time>
      </trkpt>
      <trkpt lat="36.8285636901856" lon="-5.20233297348022">
        <ele>641</ele>
        <time>2019-05-11T22:27:06Z</time>
      </trkpt>
      <trkpt lat="36.8285484313965" lon="-5.20235776901245">
        <ele>641</ele>
        <time>2019-05-11T22:27:08Z</time>
      </trkpt>
      <trkpt lat="36.8285293579102" lon="-5.20240306854248">
        <ele>641</ele>
        <time>2019-05-11T22:27:10Z</time>
      </trkpt>
      <trkpt lat="36.8285179138184" lon="-5.20242691040039">
        <ele>641</ele>
        <time>2019-05-11T22:27:12Z</time>
      </trkpt>
      <trkpt lat="36.8285026550293" lon="-5.20245313644409">
        <ele>641</ele>
        <time>2019-05-11T22:27:15Z</time>
      </trkpt>
      <trkpt lat="36.8284873962402" lon="-5.20247983932495">
        <ele>641</ele>
        <time>2019-05-11T22:27:17Z</time>
      </trkpt>
      <trkpt lat="36.8284683227539" lon="-5.20250511169434">
        <ele>641</ele>
        <time>2019-05-11T22:27:19Z</time>
      </trkpt>
      <trkpt lat="36.8284530639648" lon="-5.20252799987793">
        <ele>641</ele>
        <time>2019-05-11T22:27:21Z</time>
      </trkpt>
      <trkpt lat="36.8284378051758" lon="-5.20254993438721">
        <ele>641</ele>
        <time>2019-05-11T22:27:23Z</time>
      </trkpt>
      <trkpt lat="36.8284225463867" lon="-5.2025728225708">
        <ele>641</ele>
        <time>2019-05-11T22:27:25Z</time>
      </trkpt>
      <trkpt lat="36.8284072875977" lon="-5.20259523391724">
        <ele>641</ele>
        <time>2019-05-11T22:27:27Z</time>
      </trkpt>
      <trkpt lat="36.8283882141113" lon="-5.20261812210083">
        <ele>641</ele>
        <time>2019-05-11T22:27:29Z</time>
      </trkpt>
      <trkpt lat="36.828369140625" lon="-5.20264196395874">
        <ele>641</ele>
        <time>2019-05-11T22:27:31Z</time>
      </trkpt>
      <trkpt lat="36.8283462524414" lon="-5.20266008377075">
        <ele>641</ele>
        <time>2019-05-11T22:27:33Z</time>
      </trkpt>
      <trkpt lat="36.8283233642578" lon="-5.20268201828003">
        <ele>641</ele>
        <time>2019-05-11T22:27:35Z</time>
      </trkpt>
      <trkpt lat="36.8283004760742" lon="-5.20270013809204">
        <ele>641</ele>
        <time>2019-05-11T22:27:37Z</time>
      </trkpt>
      <trkpt lat="36.8282737731934" lon="-5.20271492004394">
        <ele>641</ele>
        <time>2019-05-11T22:27:39Z</time>
      </trkpt>
      <trkpt lat="36.828254699707" lon="-5.20273017883301">
        <ele>641</ele>
        <time>2019-05-11T22:27:41Z</time>
      </trkpt>
      <trkpt lat="36.8282356262207" lon="-5.20274305343628">
        <ele>641</ele>
        <time>2019-05-11T22:27:43Z</time>
      </trkpt>
      <trkpt lat="36.8282279968262" lon="-5.2027530670166">
        <ele>641</ele>
        <time>2019-05-11T22:27:45Z</time>
      </trkpt>
      <trkpt lat="36.8282279968262" lon="-5.20275783538818">
        <ele>641</ele>
        <time>2019-05-11T22:27:47Z</time>
      </trkpt>
      <trkpt lat="36.8282165527344" lon="-5.20275783538818">
        <ele>641</ele>
        <time>2019-05-11T22:27:49Z</time>
      </trkpt>
      <trkpt lat="36.8282012939453" lon="-5.20276308059692">
        <ele>641</ele>
        <time>2019-05-11T22:27:52Z</time>
      </trkpt>
      <trkpt lat="36.8281784057617" lon="-5.20276021957397">
        <ele>641</ele>
        <time>2019-05-11T22:27:54Z</time>
      </trkpt>
      <trkpt lat="36.8281555175781" lon="-5.20275497436523">
        <ele>640</ele>
        <time>2019-05-11T22:27:56Z</time>
      </trkpt>
      <trkpt lat="36.8281326293945" lon="-5.20275211334228">
        <ele>639</ele>
        <time>2019-05-11T22:27:58Z</time>
      </trkpt>
      <trkpt lat="36.8281097412109" lon="-5.20274782180786">
        <ele>639</ele>
        <time>2019-05-11T22:28:00Z</time>
      </trkpt>
      <trkpt lat="36.8280830383301" lon="-5.20274019241333">
        <ele>639</ele>
        <time>2019-05-11T22:28:02Z</time>
      </trkpt>
      <trkpt lat="36.8280639648438" lon="-5.20273017883301">
        <ele>638</ele>
        <time>2019-05-11T22:28:04Z</time>
      </trkpt>
      <trkpt lat="36.8280487060547" lon="-5.20271682739258">
        <ele>638</ele>
        <time>2019-05-11T22:28:06Z</time>
      </trkpt>
      <trkpt lat="36.8280296325684" lon="-5.20270681381226">
        <ele>638</ele>
        <time>2019-05-11T22:28:08Z</time>
      </trkpt>
      <trkpt lat="36.8280067443848" lon="-5.20269680023193">
        <ele>638</ele>
        <time>2019-05-11T22:28:10Z</time>
      </trkpt>
      <trkpt lat="36.8279838562012" lon="-5.20268297195435">
        <ele>638</ele>
        <time>2019-05-11T22:28:12Z</time>
      </trkpt>
      <trkpt lat="36.8279647827148" lon="-5.20267295837402">
        <ele>637</ele>
        <time>2019-05-11T22:28:14Z</time>
      </trkpt>
      <trkpt lat="36.8279418945312" lon="-5.20266819000244">
        <ele>636</ele>
        <time>2019-05-11T22:28:16Z</time>
      </trkpt>
      <trkpt lat="36.8279151916504" lon="-5.2026629447937">
        <ele>636</ele>
        <time>2019-05-11T22:28:18Z</time>
      </trkpt>
      <trkpt lat="36.8278770446777" lon="-5.2026572227478">
        <ele>636</ele>
        <time>2019-05-11T22:28:20Z</time>
      </trkpt>
      <trkpt lat="36.8278579711914" lon="-5.20266008377075">
        <ele>635</ele>
        <time>2019-05-11T22:28:22Z</time>
      </trkpt>
      <trkpt lat="36.8278274536133" lon="-5.2026629447937">
        <ele>635</ele>
        <time>2019-05-11T22:28:25Z</time>
      </trkpt>
      <trkpt lat="36.8278007507324" lon="-5.20267295837402">
        <ele>635</ele>
        <time>2019-05-11T22:28:27Z</time>
      </trkpt>
      <trkpt lat="36.8277778625488" lon="-5.20268487930298">
        <ele>635</ele>
        <time>2019-05-11T22:28:29Z</time>
      </trkpt>
      <trkpt lat="36.827751159668" lon="-5.20270490646362">
        <ele>635</ele>
        <time>2019-05-11T22:28:31Z</time>
      </trkpt>
      <trkpt lat="36.8277282714844" lon="-5.20271778106689">
        <ele>635</ele>
        <time>2019-05-11T22:28:33Z</time>
      </trkpt>
      <trkpt lat="36.8277015686035" lon="-5.20273685455322">
        <ele>635</ele>
        <time>2019-05-11T22:28:35Z</time>
      </trkpt>
      <trkpt lat="36.8276786804199" lon="-5.20275497436523">
        <ele>635</ele>
        <time>2019-05-11T22:28:37Z</time>
      </trkpt>
      <trkpt lat="36.8276557922363" lon="-5.20277309417725">
        <ele>635</ele>
        <time>2019-05-11T22:28:39Z</time>
      </trkpt>
      <trkpt lat="36.8276405334473" lon="-5.20279216766357">
        <ele>635</ele>
        <time>2019-05-11T22:28:41Z</time>
      </trkpt>
      <trkpt lat="36.8276214599609" lon="-5.20281314849854">
        <ele>635</ele>
        <time>2019-05-11T22:28:43Z</time>
      </trkpt>
      <trkpt lat="36.8275985717773" lon="-5.20283317565918">
        <ele>635</ele>
        <time>2019-05-11T22:28:45Z</time>
      </trkpt>
      <trkpt lat="36.827579498291" lon="-5.20286321640015">
        <ele>635</ele>
        <time>2019-05-11T22:28:47Z</time>
      </trkpt>
      <trkpt lat="36.827564239502" lon="-5.20289182662964">
        <ele>635</ele>
        <time>2019-05-11T22:28:49Z</time>
      </trkpt>
      <trkpt lat="36.8275527954102" lon="-5.20291519165039">
        <ele>635</ele>
        <time>2019-05-11T22:28:51Z</time>
      </trkpt>
      <trkpt lat="36.8275451660156" lon="-5.20294523239136">
        <ele>635</ele>
        <time>2019-05-11T22:28:53Z</time>
      </trkpt>
      <trkpt lat="36.8275413513184" lon="-5.20299291610718">
        <ele>635</ele>
        <time>2019-05-11T22:28:55Z</time>
      </trkpt>
      <trkpt lat="36.8275413513184" lon="-5.2030200958252">
        <ele>635</ele>
        <time>2019-05-11T22:28:57Z</time>
      </trkpt>
      <trkpt lat="36.8275413513184" lon="-5.20305490493774">
        <ele>635</ele>
        <time>2019-05-11T22:28:59Z</time>
      </trkpt>
      <trkpt lat="36.8275413513184" lon="-5.20308685302734">
        <ele>635</ele>
        <time>2019-05-11T22:29:02Z</time>
      </trkpt>
      <trkpt lat="36.8275413513184" lon="-5.20312213897705">
        <ele>635</ele>
        <time>2019-05-11T22:29:04Z</time>
      </trkpt>
      <trkpt lat="36.8275451660156" lon="-5.20314979553223">
        <ele>635</ele>
        <time>2019-05-11T22:29:06Z</time>
      </trkpt>
      <trkpt lat="36.8275489807129" lon="-5.20317697525024">
        <ele>635</ele>
        <time>2019-05-11T22:29:08Z</time>
      </trkpt>
      <trkpt lat="36.8275527954102" lon="-5.20320510864258">
        <ele>635</ele>
        <time>2019-05-11T22:29:10Z</time>
      </trkpt>
      <trkpt lat="36.8275566101074" lon="-5.20323514938354">
        <ele>635</ele>
        <time>2019-05-11T22:29:12Z</time>
      </trkpt>
      <trkpt lat="36.827564239502" lon="-5.20326519012451">
        <ele>635</ele>
        <time>2019-05-11T22:29:14Z</time>
      </trkpt>
      <trkpt lat="36.8275718688965" lon="-5.20329713821411">
        <ele>635</ele>
        <time>2019-05-11T22:29:16Z</time>
      </trkpt>
      <trkpt lat="36.8275718688965" lon="-5.20332717895508">
        <ele>634</ele>
        <time>2019-05-11T22:29:18Z</time>
      </trkpt>
      <trkpt lat="36.8275756835938" lon="-5.20334720611572">
        <ele>634</ele>
        <time>2019-05-11T22:29:20Z</time>
      </trkpt>
      <trkpt lat="36.8275756835938" lon="-5.20337009429932">
        <ele>634</ele>
        <time>2019-05-11T22:29:22Z</time>
      </trkpt>
      <trkpt lat="36.827579498291" lon="-5.20339822769165">
        <ele>634</ele>
        <time>2019-05-11T22:29:24Z</time>
      </trkpt>
      <trkpt lat="36.8275756835938" lon="-5.20342683792114">
        <ele>634</ele>
        <time>2019-05-11T22:29:26Z</time>
      </trkpt>
      <trkpt lat="36.827579498291" lon="-5.20345497131348">
        <ele>634</ele>
        <time>2019-05-11T22:29:28Z</time>
      </trkpt>
      <trkpt lat="36.8275833129883" lon="-5.20347785949707">
        <ele>634</ele>
        <time>2019-05-11T22:29:30Z</time>
      </trkpt>
      <trkpt lat="36.8275871276856" lon="-5.20351696014404">
        <ele>634</ele>
        <time>2019-05-11T22:29:32Z</time>
      </trkpt>
      <trkpt lat="36.8275909423828" lon="-5.203537940979">
        <ele>634</ele>
        <time>2019-05-11T22:29:34Z</time>
      </trkpt>
      <trkpt lat="36.8275947570801" lon="-5.20355796813965">
        <ele>634</ele>
        <time>2019-05-11T22:29:37Z</time>
      </trkpt>
      <trkpt lat="36.8276062011719" lon="-5.20357513427734">
        <ele>634</ele>
        <time>2019-05-11T22:29:39Z</time>
      </trkpt>
      <trkpt lat="36.8276100158691" lon="-5.2035927772522">
        <ele>634</ele>
        <time>2019-05-11T22:29:41Z</time>
      </trkpt>
      <trkpt lat="36.8276138305664" lon="-5.20361280441284">
        <ele>634</ele>
        <time>2019-05-11T22:29:43Z</time>
      </trkpt>
      <trkpt lat="36.8276138305664" lon="-5.20363521575928">
        <ele>634</ele>
        <time>2019-05-11T22:29:45Z</time>
      </trkpt>
      <trkpt lat="36.8276138305664" lon="-5.20365476608276">
        <ele>634</ele>
        <time>2019-05-11T22:29:47Z</time>
      </trkpt>
      <trkpt lat="36.8276176452637" lon="-5.20367288589478">
        <ele>634</ele>
        <time>2019-05-11T22:29:49Z</time>
      </trkpt>
      <trkpt lat="36.8276176452637" lon="-5.20369482040405">
        <ele>634</ele>
        <time>2019-05-11T22:29:51Z</time>
      </trkpt>
      <trkpt lat="36.8276176452637" lon="-5.20372200012207">
        <ele>634</ele>
        <time>2019-05-11T22:29:53Z</time>
      </trkpt>
      <trkpt lat="36.8276214599609" lon="-5.2037467956543">
        <ele>634</ele>
        <time>2019-05-11T22:29:55Z</time>
      </trkpt>
      <trkpt lat="36.8276290893555" lon="-5.20376682281494">
        <ele>634</ele>
        <time>2019-05-11T22:29:57Z</time>
      </trkpt>
      <trkpt lat="36.8276329040527" lon="-5.20379209518433">
        <ele>634</ele>
        <time>2019-05-11T22:29:59Z</time>
      </trkpt>
      <trkpt lat="36.8276329040527" lon="-5.20382022857666">
        <ele>634</ele>
        <time>2019-05-11T22:30:01Z</time>
      </trkpt>
      <trkpt lat="36.8276290893555" lon="-5.20385313034058">
        <ele>635</ele>
        <time>2019-05-11T22:30:03Z</time>
      </trkpt>
      <trkpt lat="36.8276214599609" lon="-5.20387983322144">
        <ele>635</ele>
        <time>2019-05-11T22:30:05Z</time>
      </trkpt>
      <trkpt lat="36.8276100158691" lon="-5.20392513275146">
        <ele>636</ele>
        <time>2019-05-11T22:30:07Z</time>
      </trkpt>
      <trkpt lat="36.8276023864746" lon="-5.20394992828369">
        <ele>636</ele>
        <time>2019-05-11T22:30:09Z</time>
      </trkpt>
      <trkpt lat="36.8275909423828" lon="-5.20397281646728">
        <ele>637</ele>
        <time>2019-05-11T22:30:12Z</time>
      </trkpt>
      <trkpt lat="36.8275833129883" lon="-5.20399713516235">
        <ele>637</ele>
        <time>2019-05-11T22:30:14Z</time>
      </trkpt>
      <trkpt lat="36.8275756835938" lon="-5.2040228843689">
        <ele>638</ele>
        <time>2019-05-11T22:30:16Z</time>
      </trkpt>
      <trkpt lat="36.827564239502" lon="-5.20404481887817">
        <ele>638</ele>
        <time>2019-05-11T22:30:18Z</time>
      </trkpt>
      <trkpt lat="36.8275527954102" lon="-5.2040581703186">
        <ele>639</ele>
        <time>2019-05-11T22:30:20Z</time>
      </trkpt>
      <trkpt lat="36.8275375366211" lon="-5.20406818389893">
        <ele>639</ele>
        <time>2019-05-11T22:30:22Z</time>
      </trkpt>
      <trkpt lat="36.8275260925293" lon="-5.20408296585083">
        <ele>640</ele>
        <time>2019-05-11T22:30:24Z</time>
      </trkpt>
      <trkpt lat="36.8275146484375" lon="-5.20410013198853">
        <ele>641</ele>
        <time>2019-05-11T22:30:26Z</time>
      </trkpt>
      <trkpt lat="36.8275032043457" lon="-5.2041220664978">
        <ele>642</ele>
        <time>2019-05-11T22:30:28Z</time>
      </trkpt>
      <trkpt lat="36.8274841308594" lon="-5.20414686203003">
        <ele>642</ele>
        <time>2019-05-11T22:30:30Z</time>
      </trkpt>
      <trkpt lat="36.8274688720703" lon="-5.20416784286499">
        <ele>643</ele>
        <time>2019-05-11T22:30:32Z</time>
      </trkpt>
      <trkpt lat="36.8274536132812" lon="-5.20418787002564">
        <ele>643</ele>
        <time>2019-05-11T22:30:34Z</time>
      </trkpt>
      <trkpt lat="36.8274421691894" lon="-5.20420789718628">
        <ele>643</ele>
        <time>2019-05-11T22:30:36Z</time>
      </trkpt>
      <trkpt lat="36.8274307250977" lon="-5.20422792434692">
        <ele>643</ele>
        <time>2019-05-11T22:30:38Z</time>
      </trkpt>
      <trkpt lat="36.8274230957031" lon="-5.20424699783325">
        <ele>643</ele>
        <time>2019-05-11T22:30:40Z</time>
      </trkpt>
      <trkpt lat="36.8274002075195" lon="-5.2042818069458">
        <ele>643</ele>
        <time>2019-05-11T22:30:42Z</time>
      </trkpt>
      <trkpt lat="36.8273887634277" lon="-5.20430707931519">
        <ele>644</ele>
        <time>2019-05-11T22:30:44Z</time>
      </trkpt>
      <trkpt lat="36.8273773193359" lon="-5.20433187484741">
        <ele>644</ele>
        <time>2019-05-11T22:30:46Z</time>
      </trkpt>
      <trkpt lat="36.8273658752441" lon="-5.20435476303101">
        <ele>644</ele>
        <time>2019-05-11T22:30:49Z</time>
      </trkpt>
      <trkpt lat="36.8273544311523" lon="-5.20438194274902">
        <ele>645</ele>
        <time>2019-05-11T22:30:51Z</time>
      </trkpt>
      <trkpt lat="36.8273468017578" lon="-5.20440816879272">
        <ele>645</ele>
        <time>2019-05-11T22:30:53Z</time>
      </trkpt>
      <trkpt lat="36.827335357666" lon="-5.20443201065064">
        <ele>645</ele>
        <time>2019-05-11T22:30:55Z</time>
      </trkpt>
      <trkpt lat="36.827320098877" lon="-5.20445203781128">
        <ele>646</ele>
        <time>2019-05-11T22:30:57Z</time>
      </trkpt>
      <trkpt lat="36.8273162841797" lon="-5.20447206497192">
        <ele>646</ele>
        <time>2019-05-11T22:30:59Z</time>
      </trkpt>
      <trkpt lat="36.8273124694824" lon="-5.20449209213257">
        <ele>646</ele>
        <time>2019-05-11T22:31:01Z</time>
      </trkpt>
      <trkpt lat="36.8273086547852" lon="-5.20451307296753">
        <ele>646</ele>
        <time>2019-05-11T22:31:03Z</time>
      </trkpt>
      <trkpt lat="36.8273010253906" lon="-5.20453310012817">
        <ele>646</ele>
        <time>2019-05-11T22:31:05Z</time>
      </trkpt>
      <trkpt lat="36.8272933959961" lon="-5.20455503463745">
        <ele>647</ele>
        <time>2019-05-11T22:31:07Z</time>
      </trkpt>
      <trkpt lat="36.8272819519043" lon="-5.20457696914673">
        <ele>647</ele>
        <time>2019-05-11T22:31:09Z</time>
      </trkpt>
      <trkpt lat="36.8272743225098" lon="-5.20459699630737">
        <ele>647</ele>
        <time>2019-05-11T22:31:11Z</time>
      </trkpt>
      <trkpt lat="36.8272666931152" lon="-5.20461702346802">
        <ele>647</ele>
        <time>2019-05-11T22:31:13Z</time>
      </trkpt>
      <trkpt lat="36.8272552490234" lon="-5.20463705062866">
        <ele>647</ele>
        <time>2019-05-11T22:31:15Z</time>
      </trkpt>
      <trkpt lat="36.8272438049316" lon="-5.20465278625488">
        <ele>647</ele>
        <time>2019-05-11T22:31:17Z</time>
      </trkpt>
      <trkpt lat="36.8272247314453" lon="-5.20467805862427">
        <ele>647</ele>
        <time>2019-05-11T22:31:19Z</time>
      </trkpt>
      <trkpt lat="36.8272094726562" lon="-5.20469522476196">
        <ele>647</ele>
        <time>2019-05-11T22:31:21Z</time>
      </trkpt>
      <trkpt lat="36.8271942138672" lon="-5.20470809936523">
        <ele>647</ele>
        <time>2019-05-11T22:31:24Z</time>
      </trkpt>
      <trkpt lat="36.8271789550781" lon="-5.20472002029419">
        <ele>648</ele>
        <time>2019-05-11T22:31:26Z</time>
      </trkpt>
      <trkpt lat="36.8271598815918" lon="-5.20473289489746">
        <ele>649</ele>
        <time>2019-05-11T22:31:28Z</time>
      </trkpt>
      <trkpt lat="36.8271408081055" lon="-5.20474290847778">
        <ele>649</ele>
        <time>2019-05-11T22:31:30Z</time>
      </trkpt>
      <trkpt lat="36.8271217346191" lon="-5.20475006103516">
        <ele>650</ele>
        <time>2019-05-11T22:31:32Z</time>
      </trkpt>
      <trkpt lat="36.8271026611328" lon="-5.20475482940674">
        <ele>651</ele>
        <time>2019-05-11T22:31:34Z</time>
      </trkpt>
      <trkpt lat="36.8270797729492" lon="-5.20475196838379">
        <ele>651</ele>
        <time>2019-05-11T22:31:36Z</time>
      </trkpt>
      <trkpt lat="36.8270568847656" lon="-5.20475006103516">
        <ele>652</ele>
        <time>2019-05-11T22:31:38Z</time>
      </trkpt>
      <trkpt lat="36.8270301818848" lon="-5.20474481582642">
        <ele>652</ele>
        <time>2019-05-11T22:31:40Z</time>
      </trkpt>
      <trkpt lat="36.8270072937012" lon="-5.20474195480347">
        <ele>652</ele>
        <time>2019-05-11T22:31:42Z</time>
      </trkpt>
      <trkpt lat="36.8269844055176" lon="-5.2047381401062">
        <ele>652</ele>
        <time>2019-05-11T22:31:44Z</time>
      </trkpt>
      <trkpt lat="36.8269577026367" lon="-5.20473194122314">
        <ele>652</ele>
        <time>2019-05-11T22:31:46Z</time>
      </trkpt>
      <trkpt lat="36.8269348144531" lon="-5.20472717285156">
        <ele>652</ele>
        <time>2019-05-11T22:31:48Z</time>
      </trkpt>
      <trkpt lat="36.8269081115723" lon="-5.20472192764282">
        <ele>652</ele>
        <time>2019-05-11T22:31:50Z</time>
      </trkpt>
      <trkpt lat="36.8268852233887" lon="-5.20471715927124">
        <ele>652</ele>
        <time>2019-05-11T22:31:52Z</time>
      </trkpt>
      <trkpt lat="36.8268508911133" lon="-5.20470809936523">
        <ele>652</ele>
        <time>2019-05-11T22:31:54Z</time>
      </trkpt>
      <trkpt lat="36.8268280029297" lon="-5.2046971321106">
        <ele>652</ele>
        <time>2019-05-11T22:31:56Z</time>
      </trkpt>
      <trkpt lat="36.8268051147461" lon="-5.20468997955322">
        <ele>652</ele>
        <time>2019-05-11T22:31:59Z</time>
      </trkpt>
      <trkpt lat="36.8267822265625" lon="-5.20467519760132">
        <ele>652</ele>
        <time>2019-05-11T22:32:01Z</time>
      </trkpt>
      <trkpt lat="36.8267555236816" lon="-5.20466184616089">
        <ele>652</ele>
        <time>2019-05-11T22:32:03Z</time>
      </trkpt>
      <trkpt lat="36.826732635498" lon="-5.20465183258057">
        <ele>652</ele>
        <time>2019-05-11T22:32:05Z</time>
      </trkpt>
      <trkpt lat="36.8267097473144" lon="-5.20464277267456">
        <ele>652</ele>
        <time>2019-05-11T22:32:07Z</time>
      </trkpt>
      <trkpt lat="36.8266868591309" lon="-5.20463705062866">
        <ele>652</ele>
        <time>2019-05-11T22:32:09Z</time>
      </trkpt>
      <trkpt lat="36.82666015625" lon="-5.20462512969971">
        <ele>652</ele>
        <time>2019-05-11T22:32:11Z</time>
      </trkpt>
      <trkpt lat="36.8266372680664" lon="-5.20461702346802">
        <ele>652</ele>
        <time>2019-05-11T22:32:13Z</time>
      </trkpt>
      <trkpt lat="36.8266143798828" lon="-5.2046070098877">
        <ele>652</ele>
        <time>2019-05-11T22:32:15Z</time>
      </trkpt>
      <trkpt lat="36.8265914916992" lon="-5.20460319519043">
        <ele>652</ele>
        <time>2019-05-11T22:32:17Z</time>
      </trkpt>
      <trkpt lat="36.8265686035156" lon="-5.20459318161011">
        <ele>652</ele>
        <time>2019-05-11T22:32:19Z</time>
      </trkpt>
      <trkpt lat="36.8265495300293" lon="-5.20458793640137">
        <ele>652</ele>
        <time>2019-05-11T22:32:21Z</time>
      </trkpt>
      <trkpt lat="36.8265266418457" lon="-5.20457983016968">
        <ele>652</ele>
        <time>2019-05-11T22:32:23Z</time>
      </trkpt>
      <trkpt lat="36.8265037536621" lon="-5.20456790924072">
        <ele>652</ele>
        <time>2019-05-11T22:32:25Z</time>
      </trkpt>
      <trkpt lat="36.8264846801758" lon="-5.20455503463745">
        <ele>652</ele>
        <time>2019-05-11T22:32:27Z</time>
      </trkpt>
      <trkpt lat="36.8264541625977" lon="-5.20453977584839">
        <ele>653</ele>
        <time>2019-05-11T22:32:29Z</time>
      </trkpt>
      <trkpt lat="36.8264350891113" lon="-5.20452976226807">
        <ele>653</ele>
        <time>2019-05-11T22:32:31Z</time>
      </trkpt>
      <trkpt lat="36.826416015625" lon="-5.20452308654785">
        <ele>654</ele>
        <time>2019-05-11T22:32:33Z</time>
      </trkpt>
      <trkpt lat="36.8263931274414" lon="-5.20451307296753">
        <ele>654</ele>
        <time>2019-05-11T22:32:36Z</time>
      </trkpt>
      <trkpt lat="36.8263702392578" lon="-5.20450496673584">
        <ele>654</ele>
        <time>2019-05-11T22:32:38Z</time>
      </trkpt>
      <trkpt lat="36.8263511657715" lon="-5.20449209213257">
        <ele>654</ele>
        <time>2019-05-11T22:32:40Z</time>
      </trkpt>
      <trkpt lat="36.8263282775879" lon="-5.20448017120361">
        <ele>654</ele>
        <time>2019-05-11T22:32:42Z</time>
      </trkpt>
      <trkpt lat="36.8263130187988" lon="-5.20446681976318">
        <ele>655</ele>
        <time>2019-05-11T22:32:44Z</time>
      </trkpt>
      <trkpt lat="36.8262939453125" lon="-5.20445203781128">
        <ele>655</ele>
        <time>2019-05-11T22:32:46Z</time>
      </trkpt>
      <trkpt lat="36.8262786865234" lon="-5.20444202423096">
        <ele>655</ele>
        <time>2019-05-11T22:32:48Z</time>
      </trkpt>
      <trkpt lat="36.8262596130371" lon="-5.20443296432495">
        <ele>655</ele>
        <time>2019-05-11T22:32:50Z</time>
      </trkpt>
      <trkpt lat="36.8262405395508" lon="-5.20442485809326">
        <ele>655</ele>
        <time>2019-05-11T22:32:52Z</time>
      </trkpt>
      <trkpt lat="36.8262214660644" lon="-5.20441198348999">
        <ele>656</ele>
        <time>2019-05-11T22:32:54Z</time>
      </trkpt>
      <trkpt lat="36.8262062072754" lon="-5.20440483093262">
        <ele>656</ele>
        <time>2019-05-11T22:32:56Z</time>
      </trkpt>
      <trkpt lat="36.8261871337891" lon="-5.2043948173523">
        <ele>657</ele>
        <time>2019-05-11T22:32:58Z</time>
      </trkpt>
      <trkpt lat="36.826171875" lon="-5.20438194274902">
        <ele>657</ele>
        <time>2019-05-11T22:33:00Z</time>
      </trkpt>
      <trkpt lat="36.8261566162109" lon="-5.20436716079712">
        <ele>657</ele>
        <time>2019-05-11T22:33:02Z</time>
      </trkpt>
      <trkpt lat="36.8261451721191" lon="-5.20434808731079">
        <ele>657</ele>
        <time>2019-05-11T22:33:04Z</time>
      </trkpt>
      <trkpt lat="36.8261222839356" lon="-5.20432806015015">
        <ele>658</ele>
        <time>2019-05-11T22:33:06Z</time>
      </trkpt>
      <trkpt lat="36.8261032104492" lon="-5.20431280136108">
        <ele>658</ele>
        <time>2019-05-11T22:33:08Z</time>
      </trkpt>
      <trkpt lat="36.8260917663574" lon="-5.20429706573486">
        <ele>659</ele>
        <time>2019-05-11T22:33:11Z</time>
      </trkpt>
      <trkpt lat="36.8260765075684" lon="-5.2042818069458">
        <ele>659</ele>
        <time>2019-05-11T22:33:13Z</time>
      </trkpt>
      <trkpt lat="36.8260612487793" lon="-5.2042670249939">
        <ele>660</ele>
        <time>2019-05-11T22:33:15Z</time>
      </trkpt>
      <trkpt lat="36.8260459899902" lon="-5.20425176620483">
        <ele>660</ele>
        <time>2019-05-11T22:33:17Z</time>
      </trkpt>
      <trkpt lat="36.8260307312012" lon="-5.20423698425293">
        <ele>661</ele>
        <time>2019-05-11T22:33:19Z</time>
      </trkpt>
      <trkpt lat="36.8260116577148" lon="-5.20422220230103">
        <ele>661</ele>
        <time>2019-05-11T22:33:21Z</time>
      </trkpt>
      <trkpt lat="36.8259963989258" lon="-5.20420694351196">
        <ele>661</ele>
        <time>2019-05-11T22:33:23Z</time>
      </trkpt>
      <trkpt lat="36.8259811401367" lon="-5.20419502258301">
        <ele>661</ele>
        <time>2019-05-11T22:33:25Z</time>
      </trkpt>
      <trkpt lat="36.8259658813477" lon="-5.20417976379394">
        <ele>661</ele>
        <time>2019-05-11T22:33:27Z</time>
      </trkpt>
      <trkpt lat="36.8259506225586" lon="-5.20416688919067">
        <ele>661</ele>
        <time>2019-05-11T22:33:29Z</time>
      </trkpt>
      <trkpt lat="36.8259353637695" lon="-5.20414781570435">
        <ele>662</ele>
        <time>2019-05-11T22:33:31Z</time>
      </trkpt>
      <trkpt lat="36.8259162902832" lon="-5.20413303375244">
        <ele>662</ele>
        <time>2019-05-11T22:33:33Z</time>
      </trkpt>
      <trkpt lat="36.8259010314941" lon="-5.20411777496338">
        <ele>662</ele>
        <time>2019-05-11T22:33:35Z</time>
      </trkpt>
      <trkpt lat="36.8258857727051" lon="-5.20411014556885">
        <ele>663</ele>
        <time>2019-05-11T22:33:37Z</time>
      </trkpt>
      <trkpt lat="36.8258666992188" lon="-5.20409822463989">
        <ele>663</ele>
        <time>2019-05-11T22:33:39Z</time>
      </trkpt>
      <trkpt lat="36.8258438110352" lon="-5.20407485961914">
        <ele>664</ele>
        <time>2019-05-11T22:33:41Z</time>
      </trkpt>
      <trkpt lat="36.8258285522461" lon="-5.20406293869019">
        <ele>664</ele>
        <time>2019-05-11T22:33:43Z</time>
      </trkpt>
      <trkpt lat="36.825813293457" lon="-5.20405006408691">
        <ele>665</ele>
        <time>2019-05-11T22:33:46Z</time>
      </trkpt>
      <trkpt lat="36.825798034668" lon="-5.20403814315796">
        <ele>665</ele>
        <time>2019-05-11T22:33:48Z</time>
      </trkpt>
      <trkpt lat="36.8257827758789" lon="-5.20402479171753">
        <ele>666</ele>
        <time>2019-05-11T22:33:50Z</time>
      </trkpt>
      <trkpt lat="36.8257637023926" lon="-5.20400810241699">
        <ele>666</ele>
        <time>2019-05-11T22:33:52Z</time>
      </trkpt>
      <trkpt lat="36.8257484436035" lon="-5.20399522781372">
        <ele>666</ele>
        <time>2019-05-11T22:33:54Z</time>
      </trkpt>
      <trkpt lat="36.8257293701172" lon="-5.2039852142334">
        <ele>666</ele>
        <time>2019-05-11T22:33:56Z</time>
      </trkpt>
      <trkpt lat="36.8257102966309" lon="-5.20397281646728">
        <ele>666</ele>
        <time>2019-05-11T22:33:58Z</time>
      </trkpt>
      <trkpt lat="36.8256950378418" lon="-5.20395994186401">
        <ele>666</ele>
        <time>2019-05-11T22:34:00Z</time>
      </trkpt>
      <trkpt lat="36.8256797790527" lon="-5.20394802093506">
        <ele>667</ele>
        <time>2019-05-11T22:34:02Z</time>
      </trkpt>
      <trkpt lat="36.8256645202637" lon="-5.20393705368042">
        <ele>667</ele>
        <time>2019-05-11T22:34:04Z</time>
      </trkpt>
      <trkpt lat="36.8256530761719" lon="-5.20392322540283">
        <ele>667</ele>
        <time>2019-05-11T22:34:06Z</time>
      </trkpt>
      <trkpt lat="36.8256378173828" lon="-5.20390701293945">
        <ele>667</ele>
        <time>2019-05-11T22:34:08Z</time>
      </trkpt>
      <trkpt lat="36.8256225585938" lon="-5.2038950920105">
        <ele>667</ele>
        <time>2019-05-11T22:34:10Z</time>
      </trkpt>
      <trkpt lat="36.8256072998047" lon="-5.20388221740723">
        <ele>667</ele>
        <time>2019-05-11T22:34:12Z</time>
      </trkpt>
      <trkpt lat="36.8255920410156" lon="-5.20386981964111">
        <ele>667</ele>
        <time>2019-05-11T22:34:14Z</time>
      </trkpt>
      <trkpt lat="36.8255729675293" lon="-5.20384979248047">
        <ele>667</ele>
        <time>2019-05-11T22:34:16Z</time>
      </trkpt>
      <trkpt lat="36.8255577087402" lon="-5.20383501052856">
        <ele>668</ele>
        <time>2019-05-11T22:34:18Z</time>
      </trkpt>
      <trkpt lat="36.8255462646484" lon="-5.20381307601929">
        <ele>668</ele>
        <time>2019-05-11T22:34:21Z</time>
      </trkpt>
      <trkpt lat="36.8255310058594" lon="-5.20380020141602">
        <ele>668</ele>
        <time>2019-05-11T22:34:23Z</time>
      </trkpt>
      <trkpt lat="36.8255157470703" lon="-5.20378684997559">
        <ele>669</ele>
        <time>2019-05-11T22:34:25Z</time>
      </trkpt>
      <trkpt lat="36.8255004882812" lon="-5.20376682281494">
        <ele>669</ele>
        <time>2019-05-11T22:34:27Z</time>
      </trkpt>
      <trkpt lat="36.8254814147949" lon="-5.20374488830566">
        <ele>669</ele>
        <time>2019-05-11T22:34:29Z</time>
      </trkpt>
      <trkpt lat="36.8254661560059" lon="-5.20372819900513">
        <ele>669</ele>
        <time>2019-05-11T22:34:31Z</time>
      </trkpt>
      <trkpt lat="36.8254547119141" lon="-5.20370721817017">
        <ele>669</ele>
        <time>2019-05-11T22:34:33Z</time>
      </trkpt>
      <trkpt lat="36.8254432678223" lon="-5.20368814468384">
        <ele>669</ele>
        <time>2019-05-11T22:34:35Z</time>
      </trkpt>
      <trkpt lat="36.8254318237305" lon="-5.20366716384888">
        <ele>670</ele>
        <time>2019-05-11T22:34:37Z</time>
      </trkpt>
      <trkpt lat="36.8254165649414" lon="-5.20364809036255">
        <ele>670</ele>
        <time>2019-05-11T22:34:39Z</time>
      </trkpt>
      <trkpt lat="36.8254013061523" lon="-5.20362997055054">
        <ele>670</ele>
        <time>2019-05-11T22:34:41Z</time>
      </trkpt>
      <trkpt lat="36.825382232666" lon="-5.20360803604126">
        <ele>670</ele>
        <time>2019-05-11T22:34:43Z</time>
      </trkpt>
      <trkpt lat="36.8253707885742" lon="-5.20358514785767">
        <ele>670</ele>
        <time>2019-05-11T22:34:45Z</time>
      </trkpt>
      <trkpt lat="36.8253517150879" lon="-5.20356321334839">
        <ele>670</ele>
        <time>2019-05-11T22:34:47Z</time>
      </trkpt>
      <trkpt lat="36.8253364562988" lon="-5.20354509353638">
        <ele>670</ele>
        <time>2019-05-11T22:34:49Z</time>
      </trkpt>
      <trkpt lat="36.8253135681152" lon="-5.2035231590271">
        <ele>670</ele>
        <time>2019-05-11T22:34:51Z</time>
      </trkpt>
      <trkpt lat="36.8252983093262" lon="-5.20350217819214">
        <ele>670</ele>
        <time>2019-05-11T22:34:53Z</time>
      </trkpt>
      <trkpt lat="36.8252868652344" lon="-5.20347785949707">
        <ele>670</ele>
        <time>2019-05-11T22:34:56Z</time>
      </trkpt>
      <trkpt lat="36.825267791748" lon="-5.20345783233643">
        <ele>671</ele>
        <time>2019-05-11T22:34:58Z</time>
      </trkpt>
      <trkpt lat="36.8252563476562" lon="-5.20343494415283">
        <ele>671</ele>
        <time>2019-05-11T22:35:00Z</time>
      </trkpt>
      <trkpt lat="36.8252410888672" lon="-5.20341300964356">
        <ele>671</ele>
        <time>2019-05-11T22:35:02Z</time>
      </trkpt>
      <trkpt lat="36.8252258300781" lon="-5.20339202880859">
        <ele>671</ele>
        <time>2019-05-11T22:35:04Z</time>
      </trkpt>
      <trkpt lat="36.8252067565918" lon="-5.20337009429932">
        <ele>672</ele>
        <time>2019-05-11T22:35:06Z</time>
      </trkpt>
      <trkpt lat="36.8251876831055" lon="-5.2033519744873">
        <ele>672</ele>
        <time>2019-05-11T22:35:08Z</time>
      </trkpt>
      <trkpt lat="36.8251724243164" lon="-5.20332813262939">
        <ele>673</ele>
        <time>2019-05-11T22:35:10Z</time>
      </trkpt>
      <trkpt lat="36.8251533508301" lon="-5.20330810546875">
        <ele>673</ele>
        <time>2019-05-11T22:35:12Z</time>
      </trkpt>
      <trkpt lat="36.8251419067383" lon="-5.20328712463379">
        <ele>673</ele>
        <time>2019-05-11T22:35:14Z</time>
      </trkpt>
      <trkpt lat="36.8251266479492" lon="-5.2032618522644">
        <ele>673</ele>
        <time>2019-05-11T22:35:16Z</time>
      </trkpt>
      <trkpt lat="36.8251075744629" lon="-5.20323801040649">
        <ele>673</ele>
        <time>2019-05-11T22:35:18Z</time>
      </trkpt>
      <trkpt lat="36.8250885009766" lon="-5.20321321487427">
        <ele>673</ele>
        <time>2019-05-11T22:35:20Z</time>
      </trkpt>
      <trkpt lat="36.8250694274902" lon="-5.20319223403931">
        <ele>673</ele>
        <time>2019-05-11T22:35:22Z</time>
      </trkpt>
      <trkpt lat="36.8250503540039" lon="-5.20316314697266">
        <ele>673</ele>
        <time>2019-05-11T22:35:24Z</time>
      </trkpt>
      <trkpt lat="36.8250274658203" lon="-5.203125">
        <ele>674</ele>
        <time>2019-05-11T22:35:26Z</time>
      </trkpt>
      <trkpt lat="36.8250122070312" lon="-5.20310306549072">
        <ele>674</ele>
        <time>2019-05-11T22:35:28Z</time>
      </trkpt>
      <trkpt lat="36.8249969482422" lon="-5.20308208465576">
        <ele>675</ele>
        <time>2019-05-11T22:35:31Z</time>
      </trkpt>
      <trkpt lat="36.8249816894531" lon="-5.2030520439148">
        <ele>675</ele>
        <time>2019-05-11T22:35:33Z</time>
      </trkpt>
      <trkpt lat="36.8249664306641" lon="-5.20302820205688">
        <ele>675</ele>
        <time>2019-05-11T22:35:35Z</time>
      </trkpt>
      <trkpt lat="36.824951171875" lon="-5.20300817489624">
        <ele>676</ele>
        <time>2019-05-11T22:35:37Z</time>
      </trkpt>
      <trkpt lat="36.8249359130859" lon="-5.20298719406128">
        <ele>676</ele>
        <time>2019-05-11T22:35:39Z</time>
      </trkpt>
      <trkpt lat="36.8249168395996" lon="-5.20296812057495">
        <ele>676</ele>
        <time>2019-05-11T22:35:41Z</time>
      </trkpt>
      <trkpt lat="36.8249015808106" lon="-5.20295190811157">
        <ele>676</ele>
        <time>2019-05-11T22:35:43Z</time>
      </trkpt>
      <trkpt lat="36.8248825073242" lon="-5.2029299736023">
        <ele>676</ele>
        <time>2019-05-11T22:35:45Z</time>
      </trkpt>
      <trkpt lat="36.8248672485352" lon="-5.20290803909302">
        <ele>676</ele>
        <time>2019-05-11T22:35:47Z</time>
      </trkpt>
      <trkpt lat="36.8248481750488" lon="-5.20288991928101">
        <ele>676</ele>
        <time>2019-05-11T22:35:49Z</time>
      </trkpt>
      <trkpt lat="36.8248329162598" lon="-5.20286798477173">
        <ele>676</ele>
        <time>2019-05-11T22:35:51Z</time>
      </trkpt>
      <trkpt lat="36.8248138427734" lon="-5.20284986495972">
        <ele>676</ele>
        <time>2019-05-11T22:35:53Z</time>
      </trkpt>
      <trkpt lat="36.8247985839844" lon="-5.20283317565918">
        <ele>676</ele>
        <time>2019-05-11T22:35:55Z</time>
      </trkpt>
      <trkpt lat="36.824779510498" lon="-5.20281314849854">
        <ele>676</ele>
        <time>2019-05-11T22:35:57Z</time>
      </trkpt>
      <trkpt lat="36.8247566223144" lon="-5.20279502868652">
        <ele>676</ele>
        <time>2019-05-11T22:35:59Z</time>
      </trkpt>
      <trkpt lat="36.8247261047363" lon="-5.20276689529419">
        <ele>676</ele>
        <time>2019-05-11T22:36:01Z</time>
      </trkpt>
      <trkpt lat="36.82470703125" lon="-5.20274305343628">
        <ele>676</ele>
        <time>2019-05-11T22:36:03Z</time>
      </trkpt>
      <trkpt lat="36.8246841430664" lon="-5.20272302627564">
        <ele>676</ele>
        <time>2019-05-11T22:36:06Z</time>
      </trkpt>
      <trkpt lat="36.8246612548828" lon="-5.20270013809204">
        <ele>676</ele>
        <time>2019-05-11T22:36:08Z</time>
      </trkpt>
      <trkpt lat="36.8246421813965" lon="-5.20268297195435">
        <ele>676</ele>
        <time>2019-05-11T22:36:10Z</time>
      </trkpt>
      <trkpt lat="36.8246231079102" lon="-5.20266819000244">
        <ele>676</ele>
        <time>2019-05-11T22:36:12Z</time>
      </trkpt>
      <trkpt lat="36.8246040344238" lon="-5.2026481628418">
        <ele>676</ele>
        <time>2019-05-11T22:36:14Z</time>
      </trkpt>
      <trkpt lat="36.8245811462402" lon="-5.20262718200684">
        <ele>676</ele>
        <time>2019-05-11T22:36:16Z</time>
      </trkpt>
      <trkpt lat="36.8245658874512" lon="-5.20261001586914">
        <ele>677</ele>
        <time>2019-05-11T22:36:18Z</time>
      </trkpt>
      <trkpt lat="36.8245468139648" lon="-5.20258808135986">
        <ele>677</ele>
        <time>2019-05-11T22:36:20Z</time>
      </trkpt>
      <trkpt lat="36.8245315551758" lon="-5.20256519317627">
        <ele>677</ele>
        <time>2019-05-11T22:36:22Z</time>
      </trkpt>
      <trkpt lat="36.8245086669922" lon="-5.20254278182983">
        <ele>678</ele>
        <time>2019-05-11T22:36:24Z</time>
      </trkpt>
      <trkpt lat="36.8244895935059" lon="-5.20251798629761">
        <ele>678</ele>
        <time>2019-05-11T22:36:26Z</time>
      </trkpt>
      <trkpt lat="36.8244705200195" lon="-5.20249319076538">
        <ele>679</ele>
        <time>2019-05-11T22:36:28Z</time>
      </trkpt>
      <trkpt lat="36.8244514465332" lon="-5.202467918396">
        <ele>679</ele>
        <time>2019-05-11T22:36:30Z</time>
      </trkpt>
      <trkpt lat="36.8244361877441" lon="-5.20244693756104">
        <ele>679</ele>
        <time>2019-05-11T22:36:32Z</time>
      </trkpt>
      <trkpt lat="36.8244209289551" lon="-5.20242309570312">
        <ele>680</ele>
        <time>2019-05-11T22:36:34Z</time>
      </trkpt>
      <trkpt lat="36.824390411377" lon="-5.2023868560791">
        <ele>680</ele>
        <time>2019-05-11T22:36:36Z</time>
      </trkpt>
      <trkpt lat="36.8243713378906" lon="-5.20236492156982">
        <ele>680</ele>
        <time>2019-05-11T22:36:38Z</time>
      </trkpt>
      <trkpt lat="36.8243560791016" lon="-5.20234203338623">
        <ele>680</ele>
        <time>2019-05-11T22:36:40Z</time>
      </trkpt>
      <trkpt lat="36.8243408203125" lon="-5.2023229598999">
        <ele>680</ele>
        <time>2019-05-11T22:36:43Z</time>
      </trkpt>
      <trkpt lat="36.8243217468262" lon="-5.20229816436768">
        <ele>680</ele>
        <time>2019-05-11T22:36:45Z</time>
      </trkpt>
      <trkpt lat="36.8243026733398" lon="-5.20227479934692">
        <ele>680</ele>
        <time>2019-05-11T22:36:47Z</time>
      </trkpt>
      <trkpt lat="36.8242797851562" lon="-5.20225191116333">
        <ele>680</ele>
        <time>2019-05-11T22:36:49Z</time>
      </trkpt>
      <trkpt lat="36.8242645263672" lon="-5.20222997665405">
        <ele>680</ele>
        <time>2019-05-11T22:36:51Z</time>
      </trkpt>
      <trkpt lat="36.8242454528809" lon="-5.20220708847046">
        <ele>680</ele>
        <time>2019-05-11T22:36:53Z</time>
      </trkpt>
      <trkpt lat="36.8242263793945" lon="-5.20218276977539">
        <ele>680</ele>
        <time>2019-05-11T22:36:55Z</time>
      </trkpt>
      <trkpt lat="36.8242073059082" lon="-5.20215702056885">
        <ele>680</ele>
        <time>2019-05-11T22:36:57Z</time>
      </trkpt>
      <trkpt lat="36.8241882324219" lon="-5.20213794708252">
        <ele>680</ele>
        <time>2019-05-11T22:36:59Z</time>
      </trkpt>
      <trkpt lat="36.8241691589356" lon="-5.20211791992188">
        <ele>680</ele>
        <time>2019-05-11T22:37:01Z</time>
      </trkpt>
      <trkpt lat="36.8241539001465" lon="-5.20209980010986">
        <ele>680</ele>
        <time>2019-05-11T22:37:03Z</time>
      </trkpt>
      <trkpt lat="36.8241348266602" lon="-5.20207786560059">
        <ele>680</ele>
        <time>2019-05-11T22:37:05Z</time>
      </trkpt>
      <trkpt lat="36.8241157531738" lon="-5.20205783843994">
        <ele>680</ele>
        <time>2019-05-11T22:37:07Z</time>
      </trkpt>
      <trkpt lat="36.8241004943848" lon="-5.20204019546509">
        <ele>680</ele>
        <time>2019-05-11T22:37:09Z</time>
      </trkpt>
      <trkpt lat="36.8240814208984" lon="-5.20201683044434">
        <ele>680</ele>
        <time>2019-05-11T22:37:11Z</time>
      </trkpt>
      <trkpt lat="36.8240509033203" lon="-5.20197820663452">
        <ele>680</ele>
        <time>2019-05-11T22:37:13Z</time>
      </trkpt>
      <trkpt lat="36.8240356445312" lon="-5.20195484161377">
        <ele>681</ele>
        <time>2019-05-11T22:37:15Z</time>
      </trkpt>
      <trkpt lat="36.8240165710449" lon="-5.20192813873291">
        <ele>682</ele>
        <time>2019-05-11T22:37:18Z</time>
      </trkpt>
      <trkpt lat="36.8239974975586" lon="-5.20190715789795">
        <ele>682</ele>
        <time>2019-05-11T22:37:20Z</time>
      </trkpt>
      <trkpt lat="36.8239784240723" lon="-5.20188808441162">
        <ele>683</ele>
        <time>2019-05-11T22:37:22Z</time>
      </trkpt>
      <trkpt lat="36.8239631652832" lon="-5.20186996459961">
        <ele>683</ele>
        <time>2019-05-11T22:37:24Z</time>
      </trkpt>
      <trkpt lat="36.8239440917969" lon="-5.20184707641602">
        <ele>684</ele>
        <time>2019-05-11T22:37:26Z</time>
      </trkpt>
      <trkpt lat="36.8239250183106" lon="-5.20182991027832">
        <ele>684</ele>
        <time>2019-05-11T22:37:28Z</time>
      </trkpt>
      <trkpt lat="36.8239059448242" lon="-5.20181179046631">
        <ele>685</ele>
        <time>2019-05-11T22:37:30Z</time>
      </trkpt>
      <trkpt lat="36.8238868713379" lon="-5.2017970085144">
        <ele>685</ele>
        <time>2019-05-11T22:37:32Z</time>
      </trkpt>
      <trkpt lat="36.8238677978516" lon="-5.20178318023682">
        <ele>685</ele>
        <time>2019-05-11T22:37:34Z</time>
      </trkpt>
      <trkpt lat="36.8238487243652" lon="-5.20176792144775">
        <ele>685</ele>
        <time>2019-05-11T22:37:36Z</time>
      </trkpt>
      <trkpt lat="36.8238258361816" lon="-5.20175313949585">
        <ele>685</ele>
        <time>2019-05-11T22:37:38Z</time>
      </trkpt>
      <trkpt lat="36.8238067626953" lon="-5.20173788070679">
        <ele>685</ele>
        <time>2019-05-11T22:37:40Z</time>
      </trkpt>
      <trkpt lat="36.8237838745117" lon="-5.20172309875488">
        <ele>685</ele>
        <time>2019-05-11T22:37:42Z</time>
      </trkpt>
      <trkpt lat="36.8237648010254" lon="-5.20171213150024">
        <ele>685</ele>
        <time>2019-05-11T22:37:44Z</time>
      </trkpt>
      <trkpt lat="36.8237419128418" lon="-5.20169496536255">
        <ele>685</ele>
        <time>2019-05-11T22:37:46Z</time>
      </trkpt>
      <trkpt lat="36.8237113952637" lon="-5.20166492462158">
        <ele>685</ele>
        <time>2019-05-11T22:37:48Z</time>
      </trkpt>
      <trkpt lat="36.8236885070801" lon="-5.20164823532104">
        <ele>686</ele>
        <time>2019-05-11T22:37:50Z</time>
      </trkpt>
      <trkpt lat="36.8236694335938" lon="-5.20163011550903">
        <ele>686</ele>
        <time>2019-05-11T22:37:53Z</time>
      </trkpt>
      <trkpt lat="36.8236465454102" lon="-5.20161294937134">
        <ele>686</ele>
        <time>2019-05-11T22:37:55Z</time>
      </trkpt>
      <trkpt lat="36.8236274719238" lon="-5.20159721374512">
        <ele>687</ele>
        <time>2019-05-11T22:37:57Z</time>
      </trkpt>
      <trkpt lat="36.8236083984375" lon="-5.20158004760742">
        <ele>687</ele>
        <time>2019-05-11T22:37:59Z</time>
      </trkpt>
      <trkpt lat="36.8235893249512" lon="-5.20156192779541">
        <ele>687</ele>
        <time>2019-05-11T22:38:01Z</time>
      </trkpt>
      <trkpt lat="36.8235664367676" lon="-5.20154190063477">
        <ele>687</ele>
        <time>2019-05-11T22:38:03Z</time>
      </trkpt>
      <trkpt lat="36.8235473632812" lon="-5.20152282714844">
        <ele>687</ele>
        <time>2019-05-11T22:38:05Z</time>
      </trkpt>
      <trkpt lat="36.8235244750977" lon="-5.20150709152222">
        <ele>687</ele>
        <time>2019-05-11T22:38:07Z</time>
      </trkpt>
      <trkpt lat="36.8235054016113" lon="-5.20148992538452">
        <ele>687</ele>
        <time>2019-05-11T22:38:09Z</time>
      </trkpt>
      <trkpt lat="36.8234901428223" lon="-5.20147800445557">
        <ele>688</ele>
        <time>2019-05-11T22:38:11Z</time>
      </trkpt>
      <trkpt lat="36.8234710693359" lon="-5.20146322250366">
        <ele>688</ele>
        <time>2019-05-11T22:38:13Z</time>
      </trkpt>
      <trkpt lat="36.8234519958496" lon="-5.20144701004028">
        <ele>688</ele>
        <time>2019-05-11T22:38:15Z</time>
      </trkpt>
      <trkpt lat="36.823429107666" lon="-5.20142793655396">
        <ele>689</ele>
        <time>2019-05-11T22:38:17Z</time>
      </trkpt>
      <trkpt lat="36.8234100341797" lon="-5.20140981674194">
        <ele>689</ele>
        <time>2019-05-11T22:38:19Z</time>
      </trkpt>
      <trkpt lat="36.8233871459961" lon="-5.20138692855835">
        <ele>689</ele>
        <time>2019-05-11T22:38:21Z</time>
      </trkpt>
      <trkpt lat="36.823356628418" lon="-5.20135498046875">
        <ele>689</ele>
        <time>2019-05-11T22:38:23Z</time>
      </trkpt>
      <trkpt lat="36.8233375549316" lon="-5.20133304595947">
        <ele>690</ele>
        <time>2019-05-11T22:38:25Z</time>
      </trkpt>
      <trkpt lat="36.823314666748" lon="-5.20131206512451">
        <ele>690</ele>
        <time>2019-05-11T22:38:28Z</time>
      </trkpt>
      <trkpt lat="36.8232955932617" lon="-5.20129489898682">
        <ele>691</ele>
        <time>2019-05-11T22:38:30Z</time>
      </trkpt>
      <trkpt lat="36.8232765197754" lon="-5.20127820968628">
        <ele>691</ele>
        <time>2019-05-11T22:38:32Z</time>
      </trkpt>
      <trkpt lat="36.8232574462891" lon="-5.20126008987427">
        <ele>691</ele>
        <time>2019-05-11T22:38:34Z</time>
      </trkpt>
      <trkpt lat="36.8232383728027" lon="-5.20124006271362">
        <ele>691</ele>
        <time>2019-05-11T22:38:36Z</time>
      </trkpt>
      <trkpt lat="36.8232192993164" lon="-5.20121812820435">
        <ele>691</ele>
        <time>2019-05-11T22:38:38Z</time>
      </trkpt>
      <trkpt lat="36.8231964111328" lon="-5.2011981010437">
        <ele>691</ele>
        <time>2019-05-11T22:38:40Z</time>
      </trkpt>
      <trkpt lat="36.8231811523438" lon="-5.20117998123169">
        <ele>691</ele>
        <time>2019-05-11T22:38:42Z</time>
      </trkpt>
      <trkpt lat="36.8231582641602" lon="-5.20115995407104">
        <ele>691</ele>
        <time>2019-05-11T22:38:44Z</time>
      </trkpt>
      <trkpt lat="36.8231391906738" lon="-5.20113706588745">
        <ele>691</ele>
        <time>2019-05-11T22:38:46Z</time>
      </trkpt>
      <trkpt lat="36.8231163024902" lon="-5.20111989974976">
        <ele>691</ele>
        <time>2019-05-11T22:38:48Z</time>
      </trkpt>
      <trkpt lat="36.8231010437012" lon="-5.20110321044922">
        <ele>691</ele>
        <time>2019-05-11T22:38:50Z</time>
      </trkpt>
      <trkpt lat="36.8230781555176" lon="-5.20108318328857">
        <ele>691</ele>
        <time>2019-05-11T22:38:52Z</time>
      </trkpt>
      <trkpt lat="36.8230628967285" lon="-5.20106983184814">
        <ele>691</ele>
        <time>2019-05-11T22:38:54Z</time>
      </trkpt>
      <trkpt lat="36.8230438232422" lon="-5.20105314254761">
        <ele>691</ele>
        <time>2019-05-11T22:38:56Z</time>
      </trkpt>
      <trkpt lat="36.8230171203613" lon="-5.20102310180664">
        <ele>691</ele>
        <time>2019-05-11T22:38:58Z</time>
      </trkpt>
      <trkpt lat="36.8230018615723" lon="-5.201003074646">
        <ele>691</ele>
        <time>2019-05-11T22:39:00Z</time>
      </trkpt>
      <trkpt lat="36.8229827880859" lon="-5.20098209381104">
        <ele>691</ele>
        <time>2019-05-11T22:39:02Z</time>
      </trkpt>
      <trkpt lat="36.8229637145996" lon="-5.20096302032471">
        <ele>691</ele>
        <time>2019-05-11T22:39:05Z</time>
      </trkpt>
      <trkpt lat="36.8229484558106" lon="-5.20094013214111">
        <ele>691</ele>
        <time>2019-05-11T22:39:07Z</time>
      </trkpt>
      <trkpt lat="36.8229331970215" lon="-5.20091009140015">
        <ele>691</ele>
        <time>2019-05-11T22:39:09Z</time>
      </trkpt>
      <trkpt lat="36.8229141235352" lon="-5.20087480545044">
        <ele>691</ele>
        <time>2019-05-11T22:39:11Z</time>
      </trkpt>
      <trkpt lat="36.8229026794434" lon="-5.20084476470947">
        <ele>691</ele>
        <time>2019-05-11T22:39:13Z</time>
      </trkpt>
      <trkpt lat="36.8228912353516" lon="-5.20081520080566">
        <ele>691</ele>
        <time>2019-05-11T22:39:15Z</time>
      </trkpt>
      <trkpt lat="36.822883605957" lon="-5.20078182220459">
        <ele>691</ele>
        <time>2019-05-11T22:39:17Z</time>
      </trkpt>
      <trkpt lat="36.8228797912598" lon="-5.20074987411499">
        <ele>691</ele>
        <time>2019-05-11T22:39:19Z</time>
      </trkpt>
      <trkpt lat="36.8228721618652" lon="-5.20071697235107">
        <ele>691</ele>
        <time>2019-05-11T22:39:21Z</time>
      </trkpt>
      <trkpt lat="36.8228645324707" lon="-5.20068979263306">
        <ele>692</ele>
        <time>2019-05-11T22:39:23Z</time>
      </trkpt>
      <trkpt lat="36.8228569030762" lon="-5.20066213607788">
        <ele>692</ele>
        <time>2019-05-11T22:39:25Z</time>
      </trkpt>
      <trkpt lat="36.8228530883789" lon="-5.20063209533691">
        <ele>692</ele>
        <time>2019-05-11T22:39:27Z</time>
      </trkpt>
      <trkpt lat="36.8228492736816" lon="-5.20060300827026">
        <ele>693</ele>
        <time>2019-05-11T22:39:29Z</time>
      </trkpt>
      <trkpt lat="36.8228416442871" lon="-5.2005729675293">
        <ele>693</ele>
        <time>2019-05-11T22:39:31Z</time>
      </trkpt>
      <trkpt lat="36.8228416442871" lon="-5.20054197311401">
        <ele>693</ele>
        <time>2019-05-11T22:39:33Z</time>
      </trkpt>
      <trkpt lat="36.8228340148926" lon="-5.20049285888672">
        <ele>693</ele>
        <time>2019-05-11T22:39:35Z</time>
      </trkpt>
      <trkpt lat="36.8228378295898" lon="-5.2004599571228">
        <ele>694</ele>
        <time>2019-05-11T22:39:37Z</time>
      </trkpt>
      <trkpt lat="36.8228340148926" lon="-5.20042991638184">
        <ele>694</ele>
        <time>2019-05-11T22:39:40Z</time>
      </trkpt>
      <trkpt lat="36.8228302001953" lon="-5.20039796829224">
        <ele>695</ele>
        <time>2019-05-11T22:39:42Z</time>
      </trkpt>
      <trkpt lat="36.8228302001953" lon="-5.20036697387695">
        <ele>695</ele>
        <time>2019-05-11T22:39:44Z</time>
      </trkpt>
      <trkpt lat="36.822826385498" lon="-5.20033502578735">
        <ele>696</ele>
        <time>2019-05-11T22:39:46Z</time>
      </trkpt>
      <trkpt lat="36.822826385498" lon="-5.20030307769775">
        <ele>696</ele>
        <time>2019-05-11T22:39:48Z</time>
      </trkpt>
      <trkpt lat="36.822826385498" lon="-5.20027208328247">
        <ele>696</ele>
        <time>2019-05-11T22:39:50Z</time>
      </trkpt>
      <trkpt lat="36.8228225708008" lon="-5.20023822784424">
        <ele>696</ele>
        <time>2019-05-11T22:39:52Z</time>
      </trkpt>
      <trkpt lat="36.8228225708008" lon="-5.20020294189453">
        <ele>696</ele>
        <time>2019-05-11T22:39:54Z</time>
      </trkpt>
      <trkpt lat="36.822826385498" lon="-5.20017194747925">
        <ele>696</ele>
        <time>2019-05-11T22:39:56Z</time>
      </trkpt>
      <trkpt lat="36.8228225708008" lon="-5.2001371383667">
        <ele>696</ele>
        <time>2019-05-11T22:39:58Z</time>
      </trkpt>
      <trkpt lat="36.8228225708008" lon="-5.20010805130005">
        <ele>696</ele>
        <time>2019-05-11T22:40:00Z</time>
      </trkpt>
      <trkpt lat="36.8228225708008" lon="-5.20007514953613">
        <ele>696</ele>
        <time>2019-05-11T22:40:02Z</time>
      </trkpt>
      <trkpt lat="36.8228225708008" lon="-5.20004510879517">
        <ele>696</ele>
        <time>2019-05-11T22:40:04Z</time>
      </trkpt>
      <trkpt lat="36.8228149414062" lon="-5.20002508163452">
        <ele>696</ele>
        <time>2019-05-11T22:40:06Z</time>
      </trkpt>
      <trkpt lat="36.822811126709" lon="-5.20000696182251">
        <ele>696</ele>
        <time>2019-05-11T22:40:08Z</time>
      </trkpt>
      <trkpt lat="36.822811126709" lon="-5.20000791549683">
        <ele>697</ele>
        <time>2019-05-11T22:40:10Z</time>
      </trkpt>
      <trkpt lat="36.822811126709" lon="-5.20000505447388">
        <ele>698</ele>
        <time>2019-05-11T22:40:14Z</time>
      </trkpt>
      <trkpt lat="36.8228073120117" lon="-5.20000791549683">
        <ele>698</ele>
        <time>2019-05-11T22:40:16Z</time>
      </trkpt>
      <trkpt lat="36.8228187561035" lon="-5.19997310638428">
        <ele>698</ele>
        <time>2019-05-11T22:40:18Z</time>
      </trkpt>
      <trkpt lat="36.8228187561035" lon="-5.19994497299194">
        <ele>698</ele>
        <time>2019-05-11T22:40:20Z</time>
      </trkpt>
      <trkpt lat="36.822811126709" lon="-5.19991493225098">
        <ele>698</ele>
        <time>2019-05-11T22:40:22Z</time>
      </trkpt>
      <trkpt lat="36.8228034973144" lon="-5.19988822937012">
        <ele>698</ele>
        <time>2019-05-11T22:40:25Z</time>
      </trkpt>
      <trkpt lat="36.8228034973144" lon="-5.19986295700073">
        <ele>698</ele>
        <time>2019-05-11T22:40:27Z</time>
      </trkpt>
      <trkpt lat="36.8227996826172" lon="-5.1998348236084">
        <ele>699</ele>
        <time>2019-05-11T22:40:29Z</time>
      </trkpt>
      <trkpt lat="36.8227996826172" lon="-5.19981002807617">
        <ele>699</ele>
        <time>2019-05-11T22:40:31Z</time>
      </trkpt>
      <trkpt lat="36.8227958679199" lon="-5.19978713989258">
        <ele>699</ele>
        <time>2019-05-11T22:40:33Z</time>
      </trkpt>
      <trkpt lat="36.8227920532227" lon="-5.19976186752319">
        <ele>699</ele>
        <time>2019-05-11T22:40:35Z</time>
      </trkpt>
      <trkpt lat="36.8227882385254" lon="-5.19973707199097">
        <ele>700</ele>
        <time>2019-05-11T22:40:37Z</time>
      </trkpt>
      <trkpt lat="36.8227844238281" lon="-5.19971704483032">
        <ele>700</ele>
        <time>2019-05-11T22:40:39Z</time>
      </trkpt>
      <trkpt lat="36.8227806091309" lon="-5.19969320297241">
        <ele>701</ele>
        <time>2019-05-11T22:40:41Z</time>
      </trkpt>
      <trkpt lat="36.8227767944336" lon="-5.19966793060303">
        <ele>701</ele>
        <time>2019-05-11T22:40:43Z</time>
      </trkpt>
      <trkpt lat="36.8227767944336" lon="-5.19964218139648">
        <ele>701</ele>
        <time>2019-05-11T22:40:45Z</time>
      </trkpt>
      <trkpt lat="36.8227729797363" lon="-5.19961500167847">
        <ele>701</ele>
        <time>2019-05-11T22:40:47Z</time>
      </trkpt>
      <trkpt lat="36.8227691650391" lon="-5.19959306716919">
        <ele>701</ele>
        <time>2019-05-11T22:40:49Z</time>
      </trkpt>
      <trkpt lat="36.8227615356445" lon="-5.19957304000854">
        <ele>701</ele>
        <time>2019-05-11T22:40:51Z</time>
      </trkpt>
      <trkpt lat="36.8227615356445" lon="-5.1995530128479">
        <ele>701</ele>
        <time>2019-05-11T22:40:53Z</time>
      </trkpt>
      <trkpt lat="36.82275390625" lon="-5.19951486587524">
        <ele>701</ele>
        <time>2019-05-11T22:40:55Z</time>
      </trkpt>
      <trkpt lat="36.82275390625" lon="-5.19948816299438">
        <ele>701</ele>
        <time>2019-05-11T22:40:57Z</time>
      </trkpt>
      <trkpt lat="36.8227462768555" lon="-5.19946813583374">
        <ele>702</ele>
        <time>2019-05-11T22:40:59Z</time>
      </trkpt>
      <trkpt lat="36.8227386474609" lon="-5.19944715499878">
        <ele>702</ele>
        <time>2019-05-11T22:41:02Z</time>
      </trkpt>
      <trkpt lat="36.8227348327637" lon="-5.19942283630371">
        <ele>703</ele>
        <time>2019-05-11T22:41:04Z</time>
      </trkpt>
      <trkpt lat="36.8227310180664" lon="-5.19940185546875">
        <ele>703</ele>
        <time>2019-05-11T22:41:06Z</time>
      </trkpt>
      <trkpt lat="36.8227272033691" lon="-5.19937801361084">
        <ele>703</ele>
        <time>2019-05-11T22:41:08Z</time>
      </trkpt>
      <trkpt lat="36.8227272033691" lon="-5.19935703277588">
        <ele>704</ele>
        <time>2019-05-11T22:41:10Z</time>
      </trkpt>
      <trkpt lat="36.8227233886719" lon="-5.1993350982666">
        <ele>704</ele>
        <time>2019-05-11T22:41:12Z</time>
      </trkpt>
      <trkpt lat="36.8227195739746" lon="-5.19931697845459">
        <ele>704</ele>
        <time>2019-05-11T22:41:14Z</time>
      </trkpt>
      <trkpt lat="36.8227119445801" lon="-5.19929218292236">
        <ele>704</ele>
        <time>2019-05-11T22:41:16Z</time>
      </trkpt>
      <trkpt lat="36.8227081298828" lon="-5.19926500320435">
        <ele>704</ele>
        <time>2019-05-11T22:41:18Z</time>
      </trkpt>
      <trkpt lat="36.822696685791" lon="-5.19924020767212">
        <ele>705</ele>
        <time>2019-05-11T22:41:20Z</time>
      </trkpt>
      <trkpt lat="36.822696685791" lon="-5.19921493530273">
        <ele>705</ele>
        <time>2019-05-11T22:41:22Z</time>
      </trkpt>
      <trkpt lat="36.822696685791" lon="-5.19918823242188">
        <ele>706</ele>
        <time>2019-05-11T22:41:24Z</time>
      </trkpt>
      <trkpt lat="36.8226928710938" lon="-5.19916296005249">
        <ele>706</ele>
        <time>2019-05-11T22:41:26Z</time>
      </trkpt>
      <trkpt lat="36.8226852416992" lon="-5.1991400718689">
        <ele>707</ele>
        <time>2019-05-11T22:41:28Z</time>
      </trkpt>
      <trkpt lat="36.822681427002" lon="-5.1991171836853">
        <ele>707</ele>
        <time>2019-05-11T22:41:30Z</time>
      </trkpt>
      <trkpt lat="36.8226737976074" lon="-5.19907999038696">
        <ele>708</ele>
        <time>2019-05-11T22:41:32Z</time>
      </trkpt>
      <trkpt lat="36.8226737976074" lon="-5.19905519485474">
        <ele>708</ele>
        <time>2019-05-11T22:41:34Z</time>
      </trkpt>
      <trkpt lat="36.8226737976074" lon="-5.19902801513672">
        <ele>709</ele>
        <time>2019-05-11T22:41:36Z</time>
      </trkpt>
      <trkpt lat="36.8226661682129" lon="-5.19900321960449">
        <ele>709</ele>
        <time>2019-05-11T22:41:39Z</time>
      </trkpt>
      <trkpt lat="36.8226661682129" lon="-5.19898176193237">
        <ele>710</ele>
        <time>2019-05-11T22:41:41Z</time>
      </trkpt>
      <trkpt lat="36.8226623535156" lon="-5.19895696640015">
        <ele>710</ele>
        <time>2019-05-11T22:41:43Z</time>
      </trkpt>
      <trkpt lat="36.8226585388184" lon="-5.19893217086792">
        <ele>711</ele>
        <time>2019-05-11T22:41:45Z</time>
      </trkpt>
      <trkpt lat="36.8226547241211" lon="-5.19890689849854">
        <ele>711</ele>
        <time>2019-05-11T22:41:47Z</time>
      </trkpt>
      <trkpt lat="36.822639465332" lon="-5.19888687133789">
        <ele>711</ele>
        <time>2019-05-11T22:41:49Z</time>
      </trkpt>
      <trkpt lat="36.8226203918457" lon="-5.19887495040894">
        <ele>711</ele>
        <time>2019-05-11T22:41:51Z</time>
      </trkpt>
      <trkpt lat="36.8226013183594" lon="-5.19887018203735">
        <ele>712</ele>
        <time>2019-05-11T22:41:53Z</time>
      </trkpt>
      <trkpt lat="36.8225860595703" lon="-5.19886779785156">
        <ele>712</ele>
        <time>2019-05-11T22:41:55Z</time>
      </trkpt>
      <trkpt lat="36.8225708007812" lon="-5.1988730430603">
        <ele>712</ele>
        <time>2019-05-11T22:41:57Z</time>
      </trkpt>
      <trkpt lat="36.8225517272949" lon="-5.19888210296631">
        <ele>712</ele>
        <time>2019-05-11T22:41:59Z</time>
      </trkpt>
      <trkpt lat="36.8225326538086" lon="-5.19888305664062">
        <ele>713</ele>
        <time>2019-05-11T22:42:01Z</time>
      </trkpt>
      <trkpt lat="36.8225135803223" lon="-5.19889307022095">
        <ele>713</ele>
        <time>2019-05-11T22:42:03Z</time>
      </trkpt>
      <trkpt lat="36.8224983215332" lon="-5.19891023635864">
        <ele>713</ele>
        <time>2019-05-11T22:42:05Z</time>
      </trkpt>
      <trkpt lat="36.8224830627441" lon="-5.19891786575317">
        <ele>714</ele>
        <time>2019-05-11T22:42:07Z</time>
      </trkpt>
      <trkpt lat="36.822452545166" lon="-5.19893503189087">
        <ele>714</ele>
        <time>2019-05-11T22:42:09Z</time>
      </trkpt>
      <trkpt lat="36.8224334716797" lon="-5.19894695281982">
        <ele>714</ele>
        <time>2019-05-11T22:42:11Z</time>
      </trkpt>
      <trkpt lat="36.8224143981934" lon="-5.19895792007446">
        <ele>714</ele>
        <time>2019-05-11T22:42:14Z</time>
      </trkpt>
      <trkpt lat="36.822395324707" lon="-5.19896793365478">
        <ele>714</ele>
        <time>2019-05-11T22:42:16Z</time>
      </trkpt>
      <trkpt lat="36.822380065918" lon="-5.19897794723511">
        <ele>714</ele>
        <time>2019-05-11T22:42:18Z</time>
      </trkpt>
      <trkpt lat="36.8223609924316" lon="-5.19898796081543">
        <ele>714</ele>
        <time>2019-05-11T22:42:20Z</time>
      </trkpt>
      <trkpt lat="36.8223419189453" lon="-5.19900178909302">
        <ele>714</ele>
        <time>2019-05-11T22:42:22Z</time>
      </trkpt>
      <trkpt lat="36.822322845459" lon="-5.19901323318481">
        <ele>714</ele>
        <time>2019-05-11T22:42:24Z</time>
      </trkpt>
      <trkpt lat="36.8223037719727" lon="-5.1990270614624">
        <ele>714</ele>
        <time>2019-05-11T22:42:26Z</time>
      </trkpt>
      <trkpt lat="36.8222808837891" lon="-5.19904184341431">
        <ele>714</ele>
        <time>2019-05-11T22:42:28Z</time>
      </trkpt>
      <trkpt lat="36.8222579956055" lon="-5.19905519485474">
        <ele>714</ele>
        <time>2019-05-11T22:42:30Z</time>
      </trkpt>
      <trkpt lat="36.8222351074219" lon="-5.19905996322632">
        <ele>714</ele>
        <time>2019-05-11T22:42:32Z</time>
      </trkpt>
      <trkpt lat="36.8222198486328" lon="-5.19906806945801">
        <ele>714</ele>
        <time>2019-05-11T22:42:34Z</time>
      </trkpt>
      <trkpt lat="36.8222007751465" lon="-5.1990818977356">
        <ele>714</ele>
        <time>2019-05-11T22:42:36Z</time>
      </trkpt>
      <trkpt lat="36.8221778869629" lon="-5.19909477233887">
        <ele>714</ele>
        <time>2019-05-11T22:42:38Z</time>
      </trkpt>
      <trkpt lat="36.8221588134766" lon="-5.19910478591919">
        <ele>714</ele>
        <time>2019-05-11T22:42:40Z</time>
      </trkpt>
      <trkpt lat="36.822135925293" lon="-5.19911479949951">
        <ele>714</ele>
        <time>2019-05-11T22:42:42Z</time>
      </trkpt>
      <trkpt lat="36.8221015930176" lon="-5.19911813735962">
        <ele>714</ele>
        <time>2019-05-11T22:42:44Z</time>
      </trkpt>
      <trkpt lat="36.822078704834" lon="-5.1991229057312">
        <ele>714</ele>
        <time>2019-05-11T22:42:46Z</time>
      </trkpt>
      <trkpt lat="36.8220634460449" lon="-5.19913005828857">
        <ele>714</ele>
        <time>2019-05-11T22:42:49Z</time>
      </trkpt>
      <trkpt lat="36.8220443725586" lon="-5.19913721084595">
        <ele>714</ele>
        <time>2019-05-11T22:42:51Z</time>
      </trkpt>
      <trkpt lat="36.8220252990723" lon="-5.19913482666016">
        <ele>714</ele>
        <time>2019-05-11T22:42:53Z</time>
      </trkpt>
      <trkpt lat="36.8220062255859" lon="-5.19913196563721">
        <ele>714</ele>
        <time>2019-05-11T22:42:55Z</time>
      </trkpt>
      <trkpt lat="36.8219871520996" lon="-5.19913482666016">
        <ele>714</ele>
        <time>2019-05-11T22:42:57Z</time>
      </trkpt>
      <trkpt lat="36.8219718933106" lon="-5.19913482666016">
        <ele>714</ele>
        <time>2019-05-11T22:42:59Z</time>
      </trkpt>
      <trkpt lat="36.8219566345215" lon="-5.1991400718689">
        <ele>714</ele>
        <time>2019-05-11T22:43:01Z</time>
      </trkpt>
      <trkpt lat="36.8219299316406" lon="-5.19913816452026">
        <ele>714</ele>
        <time>2019-05-11T22:43:03Z</time>
      </trkpt>
      <trkpt lat="36.821907043457" lon="-5.19913291931152">
        <ele>714</ele>
        <time>2019-05-11T22:43:05Z</time>
      </trkpt>
      <trkpt lat="36.8218841552734" lon="-5.19912481307983">
        <ele>714</ele>
        <time>2019-05-11T22:43:07Z</time>
      </trkpt>
      <trkpt lat="36.8218650817871" lon="-5.19912004470825">
        <ele>714</ele>
        <time>2019-05-11T22:43:09Z</time>
      </trkpt>
      <trkpt lat="36.8218421936035" lon="-5.19911289215088">
        <ele>714</ele>
        <time>2019-05-11T22:43:11Z</time>
      </trkpt>
      <trkpt lat="36.8218231201172" lon="-5.19910478591919">
        <ele>714</ele>
        <time>2019-05-11T22:43:13Z</time>
      </trkpt>
      <trkpt lat="36.8218002319336" lon="-5.19909477233887">
        <ele>714</ele>
        <time>2019-05-11T22:43:15Z</time>
      </trkpt>
      <trkpt lat="36.8217735290527" lon="-5.19907522201538">
        <ele>714</ele>
        <time>2019-05-11T22:43:17Z</time>
      </trkpt>
      <trkpt lat="36.8217544555664" lon="-5.19905710220337">
        <ele>714</ele>
        <time>2019-05-11T22:43:19Z</time>
      </trkpt>
      <trkpt lat="36.8217391967773" lon="-5.19903516769409">
        <ele>714</ele>
        <time>2019-05-11T22:43:21Z</time>
      </trkpt>
      <trkpt lat="36.8217163085938" lon="-5.19901323318481">
        <ele>714</ele>
        <time>2019-05-11T22:43:24Z</time>
      </trkpt>
      <trkpt lat="36.821704864502" lon="-5.1989917755127">
        <ele>714</ele>
        <time>2019-05-11T22:43:26Z</time>
      </trkpt>
      <trkpt lat="36.8216896057129" lon="-5.19896793365478">
        <ele>714</ele>
        <time>2019-05-11T22:43:28Z</time>
      </trkpt>
      <trkpt lat="36.8216743469238" lon="-5.19894504547119">
        <ele>714</ele>
        <time>2019-05-11T22:43:30Z</time>
      </trkpt>
      <trkpt lat="36.8216590881348" lon="-5.1989278793335">
        <ele>714</ele>
        <time>2019-05-11T22:43:32Z</time>
      </trkpt>
      <trkpt lat="36.8216438293457" lon="-5.1989049911499">
        <ele>714</ele>
        <time>2019-05-11T22:43:34Z</time>
      </trkpt>
      <trkpt lat="36.8216285705566" lon="-5.19888210296631">
        <ele>714</ele>
        <time>2019-05-11T22:43:36Z</time>
      </trkpt>
      <trkpt lat="36.8216209411621" lon="-5.19885778427124">
        <ele>714</ele>
        <time>2019-05-11T22:43:38Z</time>
      </trkpt>
      <trkpt lat="36.8216094970703" lon="-5.19883489608765">
        <ele>714</ele>
        <time>2019-05-11T22:43:40Z</time>
      </trkpt>
      <trkpt lat="36.8216018676758" lon="-5.19881200790405">
        <ele>715</ele>
        <time>2019-05-11T22:43:42Z</time>
      </trkpt>
      <trkpt lat="36.8215866088867" lon="-5.19879722595215">
        <ele>716</ele>
        <time>2019-05-11T22:43:44Z</time>
      </trkpt>
      <trkpt lat="36.8215751647949" lon="-5.1987771987915">
        <ele>717</ele>
        <time>2019-05-11T22:43:46Z</time>
      </trkpt>
      <trkpt lat="36.8215713500977" lon="-5.19875812530518">
        <ele>718</ele>
        <time>2019-05-11T22:43:48Z</time>
      </trkpt>
      <trkpt lat="36.8215675354004" lon="-5.19872999191284">
        <ele>719</ele>
        <time>2019-05-11T22:43:50Z</time>
      </trkpt>
      <trkpt lat="36.8215637207031" lon="-5.19870710372925">
        <ele>720</ele>
        <time>2019-05-11T22:43:52Z</time>
      </trkpt>
      <trkpt lat="36.8215560913086" lon="-5.19866800308228">
        <ele>721</ele>
        <time>2019-05-11T22:43:54Z</time>
      </trkpt>
      <trkpt lat="36.8215522766113" lon="-5.19864511489868">
        <ele>721</ele>
        <time>2019-05-11T22:43:56Z</time>
      </trkpt>
      <trkpt lat="36.8215484619141" lon="-5.1986198425293">
        <ele>722</ele>
        <time>2019-05-11T22:43:59Z</time>
      </trkpt>
      <trkpt lat="36.8215484619141" lon="-5.1985969543457">
        <ele>722</ele>
        <time>2019-05-11T22:44:01Z</time>
      </trkpt>
      <trkpt lat="36.8215446472168" lon="-5.19857501983643">
        <ele>722</ele>
        <time>2019-05-11T22:44:03Z</time>
      </trkpt>
      <trkpt lat="36.8215370178223" lon="-5.1985502243042">
        <ele>722</ele>
        <time>2019-05-11T22:44:05Z</time>
      </trkpt>
      <trkpt lat="36.8215370178223" lon="-5.19852304458618">
        <ele>722</ele>
        <time>2019-05-11T22:44:07Z</time>
      </trkpt>
      <trkpt lat="36.8215370178223" lon="-5.19849491119385">
        <ele>722</ele>
        <time>2019-05-11T22:44:09Z</time>
      </trkpt>
      <trkpt lat="36.8215370178223" lon="-5.19846677780151">
        <ele>723</ele>
        <time>2019-05-11T22:44:11Z</time>
      </trkpt>
      <trkpt lat="36.821533203125" lon="-5.19844484329224">
        <ele>723</ele>
        <time>2019-05-11T22:44:13Z</time>
      </trkpt>
      <trkpt lat="36.8215293884277" lon="-5.19841814041138">
        <ele>724</ele>
        <time>2019-05-11T22:44:15Z</time>
      </trkpt>
      <trkpt lat="36.8215217590332" lon="-5.19839286804199">
        <ele>725</ele>
        <time>2019-05-11T22:44:17Z</time>
      </trkpt>
      <trkpt lat="36.8215217590332" lon="-5.1983699798584">
        <ele>725</ele>
        <time>2019-05-11T22:44:19Z</time>
      </trkpt>
      <trkpt lat="36.8215179443359" lon="-5.19834518432617">
        <ele>726</ele>
        <time>2019-05-11T22:44:21Z</time>
      </trkpt>
      <trkpt lat="36.8215141296387" lon="-5.19832181930542">
        <ele>726</ele>
        <time>2019-05-11T22:44:23Z</time>
      </trkpt>
      <trkpt lat="36.8215065002441" lon="-5.19829702377319">
        <ele>726</ele>
        <time>2019-05-11T22:44:25Z</time>
      </trkpt>
      <trkpt lat="36.8215026855469" lon="-5.19827318191528">
        <ele>727</ele>
        <time>2019-05-11T22:44:27Z</time>
      </trkpt>
      <trkpt lat="36.8214950561523" lon="-5.19823694229126">
        <ele>727</ele>
        <time>2019-05-11T22:44:29Z</time>
      </trkpt>
      <trkpt lat="36.8214912414551" lon="-5.19821500778198">
        <ele>728</ele>
        <time>2019-05-11T22:44:31Z</time>
      </trkpt>
      <trkpt lat="36.8214874267578" lon="-5.19819498062134">
        <ele>729</ele>
        <time>2019-05-11T22:44:33Z</time>
      </trkpt>
      <trkpt lat="36.8214988708496" lon="-5.19817304611206">
        <ele>729</ele>
        <time>2019-05-11T22:44:36Z</time>
      </trkpt>
      <trkpt lat="36.8214988708496" lon="-5.19814777374268">
        <ele>730</ele>
        <time>2019-05-11T22:44:38Z</time>
      </trkpt>
      <trkpt lat="36.8214988708496" lon="-5.19812822341919">
        <ele>730</ele>
        <time>2019-05-11T22:44:40Z</time>
      </trkpt>
      <trkpt lat="36.8214988708496" lon="-5.19810676574707">
        <ele>730</ele>
        <time>2019-05-11T22:44:42Z</time>
      </trkpt>
      <trkpt lat="36.8214988708496" lon="-5.19808483123779">
        <ele>730</ele>
        <time>2019-05-11T22:44:44Z</time>
      </trkpt>
      <trkpt lat="36.8214988708496" lon="-5.1980619430542">
        <ele>730</ele>
        <time>2019-05-11T22:44:46Z</time>
      </trkpt>
      <trkpt lat="36.8214950561523" lon="-5.19804286956787">
        <ele>730</ele>
        <time>2019-05-11T22:44:48Z</time>
      </trkpt>
      <trkpt lat="36.8214912414551" lon="-5.19802713394165">
        <ele>730</ele>
        <time>2019-05-11T22:44:50Z</time>
      </trkpt>
      <trkpt lat="36.8214874267578" lon="-5.19800519943237">
        <ele>730</ele>
        <time>2019-05-11T22:44:52Z</time>
      </trkpt>
      <trkpt lat="36.8214836120606" lon="-5.19798994064331">
        <ele>730</ele>
        <time>2019-05-11T22:44:54Z</time>
      </trkpt>
      <trkpt lat="36.8214797973633" lon="-5.19796800613403">
        <ele>730</ele>
        <time>2019-05-11T22:44:56Z</time>
      </trkpt>
      <trkpt lat="36.821475982666" lon="-5.19794321060181">
        <ele>730</ele>
        <time>2019-05-11T22:44:58Z</time>
      </trkpt>
      <trkpt lat="36.8214721679688" lon="-5.19792318344116">
        <ele>730</ele>
        <time>2019-05-11T22:45:00Z</time>
      </trkpt>
      <trkpt lat="36.8214683532715" lon="-5.1979022026062">
        <ele>730</ele>
        <time>2019-05-11T22:45:02Z</time>
      </trkpt>
      <trkpt lat="36.821460723877" lon="-5.19788217544556">
        <ele>730</ele>
        <time>2019-05-11T22:45:04Z</time>
      </trkpt>
      <trkpt lat="36.8214492797852" lon="-5.19784307479858">
        <ele>730</ele>
        <time>2019-05-11T22:45:06Z</time>
      </trkpt>
      <trkpt lat="36.8214378356934" lon="-5.19782209396362">
        <ele>731</ele>
        <time>2019-05-11T22:45:08Z</time>
      </trkpt>
      <trkpt lat="36.8214302062988" lon="-5.19779682159424">
        <ele>731</ele>
        <time>2019-05-11T22:45:11Z</time>
      </trkpt>
      <trkpt lat="36.821418762207" lon="-5.19777822494507">
        <ele>732</ele>
        <time>2019-05-11T22:45:13Z</time>
      </trkpt>
      <trkpt lat="36.821403503418" lon="-5.19776010513306">
        <ele>732</ele>
        <time>2019-05-11T22:45:15Z</time>
      </trkpt>
      <trkpt lat="36.8213920593262" lon="-5.19774484634399">
        <ele>733</ele>
        <time>2019-05-11T22:45:17Z</time>
      </trkpt>
      <trkpt lat="36.8213768005371" lon="-5.19772815704346">
        <ele>733</ele>
        <time>2019-05-11T22:45:19Z</time>
      </trkpt>
      <trkpt lat="36.8213653564453" lon="-5.19772005081177">
        <ele>734</ele>
        <time>2019-05-11T22:45:21Z</time>
      </trkpt>
      <trkpt lat="36.821361541748" lon="-5.1977219581604">
        <ele>734</ele>
        <time>2019-05-11T22:45:23Z</time>
      </trkpt>
      <trkpt lat="36.821361541748" lon="-5.19771718978882">
        <ele>734</ele>
        <time>2019-05-11T22:45:25Z</time>
      </trkpt>
      <trkpt lat="36.8213500976562" lon="-5.19771003723144">
        <ele>734</ele>
        <time>2019-05-11T22:45:27Z</time>
      </trkpt>
      <trkpt lat="36.8213424682617" lon="-5.1977071762085">
        <ele>734</ele>
        <time>2019-05-11T22:45:29Z</time>
      </trkpt>
      <trkpt lat="36.8213424682617" lon="-5.19769477844238">
        <ele>734</ele>
        <time>2019-05-11T22:45:31Z</time>
      </trkpt>
      <trkpt lat="36.8213310241699" lon="-5.19767999649048">
        <ele>734</ele>
        <time>2019-05-11T22:45:33Z</time>
      </trkpt>
      <trkpt lat="36.8213195800781" lon="-5.19766807556152">
        <ele>735</ele>
        <time>2019-05-11T22:45:35Z</time>
      </trkpt>
      <trkpt lat="36.8213081359863" lon="-5.19765710830688">
        <ele>735</ele>
        <time>2019-05-11T22:45:37Z</time>
      </trkpt>
      <trkpt lat="36.8213081359863" lon="-5.19763994216919">
        <ele>736</ele>
        <time>2019-05-11T22:45:39Z</time>
      </trkpt>
      <trkpt lat="36.8213081359863" lon="-5.19761180877686">
        <ele>736</ele>
        <time>2019-05-11T22:45:41Z</time>
      </trkpt>
      <trkpt lat="36.8213157653809" lon="-5.19757509231567">
        <ele>737</ele>
        <time>2019-05-11T22:45:43Z</time>
      </trkpt>
      <trkpt lat="36.8213043212891" lon="-5.19755220413208">
        <ele>737</ele>
        <time>2019-05-11T22:45:45Z</time>
      </trkpt>
      <trkpt lat="36.8212852478027" lon="-5.19753503799438">
        <ele>738</ele>
        <time>2019-05-11T22:45:48Z</time>
      </trkpt>
      <trkpt lat="36.8212738037109" lon="-5.19752502441406">
        <ele>738</ele>
        <time>2019-05-11T22:45:50Z</time>
      </trkpt>
      <trkpt lat="36.8212585449219" lon="-5.19751214981079">
        <ele>738</ele>
        <time>2019-05-11T22:45:52Z</time>
      </trkpt>
      <trkpt lat="36.8212394714356" lon="-5.1974949836731">
        <ele>738</ele>
        <time>2019-05-11T22:45:54Z</time>
      </trkpt>
      <trkpt lat="36.8212280273438" lon="-5.19748306274414">
        <ele>738</ele>
        <time>2019-05-11T22:45:56Z</time>
      </trkpt>
      <trkpt lat="36.8212127685547" lon="-5.19747018814087">
        <ele>738</ele>
        <time>2019-05-11T22:45:58Z</time>
      </trkpt>
      <trkpt lat="36.8211936950684" lon="-5.19746017456055">
        <ele>738</ele>
        <time>2019-05-11T22:46:00Z</time>
      </trkpt>
      <trkpt lat="36.8211822509766" lon="-5.19744777679443">
        <ele>738</ele>
        <time>2019-05-11T22:46:02Z</time>
      </trkpt>
      <trkpt lat="36.8211631774902" lon="-5.19743490219116">
        <ele>739</ele>
        <time>2019-05-11T22:46:04Z</time>
      </trkpt>
      <trkpt lat="36.8211479187012" lon="-5.19742298126221">
        <ele>739</ele>
        <time>2019-05-11T22:46:06Z</time>
      </trkpt>
      <trkpt lat="36.8211364746094" lon="-5.19741010665894">
        <ele>739</ele>
        <time>2019-05-11T22:46:08Z</time>
      </trkpt>
      <trkpt lat="36.8211212158203" lon="-5.19739818572998">
        <ele>739</ele>
        <time>2019-05-11T22:46:10Z</time>
      </trkpt>
      <trkpt lat="36.8211097717285" lon="-5.19738292694092">
        <ele>739</ele>
        <time>2019-05-11T22:46:12Z</time>
      </trkpt>
      <trkpt lat="36.8210983276367" lon="-5.1973671913147">
        <ele>740</ele>
        <time>2019-05-11T22:46:14Z</time>
      </trkpt>
      <trkpt lat="36.8210830688477" lon="-5.19735193252564">
        <ele>740</ele>
        <time>2019-05-11T22:46:16Z</time>
      </trkpt>
      <trkpt lat="36.8210601806641" lon="-5.19732809066772">
        <ele>740</ele>
        <time>2019-05-11T22:46:18Z</time>
      </trkpt>
      <trkpt lat="36.8210487365723" lon="-5.19731187820435">
        <ele>741</ele>
        <time>2019-05-11T22:46:20Z</time>
      </trkpt>
      <trkpt lat="36.8210372924805" lon="-5.19729518890381">
        <ele>741</ele>
        <time>2019-05-11T22:46:23Z</time>
      </trkpt>
      <trkpt lat="36.8210296630859" lon="-5.1972770690918">
        <ele>742</ele>
        <time>2019-05-11T22:46:25Z</time>
      </trkpt>
      <trkpt lat="36.8210182189941" lon="-5.19725799560547">
        <ele>742</ele>
        <time>2019-05-11T22:46:27Z</time>
      </trkpt>
      <trkpt lat="36.8210067749023" lon="-5.19723796844482">
        <ele>743</ele>
        <time>2019-05-11T22:46:29Z</time>
      </trkpt>
      <trkpt lat="36.8209991455078" lon="-5.19721984863281">
        <ele>743</ele>
        <time>2019-05-11T22:46:31Z</time>
      </trkpt>
      <trkpt lat="36.8209838867188" lon="-5.19720315933228">
        <ele>743</ele>
        <time>2019-05-11T22:46:33Z</time>
      </trkpt>
      <trkpt lat="36.820972442627" lon="-5.19718503952026">
        <ele>743</ele>
        <time>2019-05-11T22:46:35Z</time>
      </trkpt>
      <trkpt lat="36.8209648132324" lon="-5.19716215133667">
        <ele>743</ele>
        <time>2019-05-11T22:46:37Z</time>
      </trkpt>
      <trkpt lat="36.8209533691406" lon="-5.19714307785034">
        <ele>744</ele>
        <time>2019-05-11T22:46:39Z</time>
      </trkpt>
      <trkpt lat="36.8209419250488" lon="-5.19712209701538">
        <ele>744</ele>
        <time>2019-05-11T22:46:41Z</time>
      </trkpt>
      <trkpt lat="36.820930480957" lon="-5.19710493087769">
        <ele>744</ele>
        <time>2019-05-11T22:46:43Z</time>
      </trkpt>
      <trkpt lat="36.8209190368652" lon="-5.19708681106567">
        <ele>744</ele>
        <time>2019-05-11T22:46:45Z</time>
      </trkpt>
      <trkpt lat="36.8209114074707" lon="-5.19706678390503">
        <ele>745</ele>
        <time>2019-05-11T22:46:47Z</time>
      </trkpt>
      <trkpt lat="36.8208999633789" lon="-5.19704723358154">
        <ele>745</ele>
        <time>2019-05-11T22:46:49Z</time>
      </trkpt>
      <trkpt lat="36.8208885192871" lon="-5.19702291488647">
        <ele>745</ele>
        <time>2019-05-11T22:46:51Z</time>
      </trkpt>
      <trkpt lat="36.820873260498" lon="-5.19700002670288">
        <ele>746</ele>
        <time>2019-05-11T22:46:53Z</time>
      </trkpt>
      <trkpt lat="36.8208618164062" lon="-5.19696998596191">
        <ele>747</ele>
        <time>2019-05-11T22:46:55Z</time>
      </trkpt>
      <trkpt lat="36.8208465576172" lon="-5.19694709777832">
        <ele>747</ele>
        <time>2019-05-11T22:46:57Z</time>
      </trkpt>
      <trkpt lat="36.8208351135254" lon="-5.19692993164062">
        <ele>748</ele>
        <time>2019-05-11T22:47:00Z</time>
      </trkpt>
      <trkpt lat="36.8208236694336" lon="-5.19691276550293">
        <ele>748</ele>
        <time>2019-05-11T22:47:02Z</time>
      </trkpt>
      <trkpt lat="36.8208160400391" lon="-5.19689702987671">
        <ele>748</ele>
        <time>2019-05-11T22:47:04Z</time>
      </trkpt>
      <trkpt lat="36.8208084106445" lon="-5.19687795639038">
        <ele>748</ele>
        <time>2019-05-11T22:47:06Z</time>
      </trkpt>
      <trkpt lat="36.8207931518555" lon="-5.19686222076416">
        <ele>748</ele>
        <time>2019-05-11T22:47:08Z</time>
      </trkpt>
      <trkpt lat="36.8207817077637" lon="-5.19684314727783">
        <ele>748</ele>
        <time>2019-05-11T22:47:10Z</time>
      </trkpt>
      <trkpt lat="36.8207702636719" lon="-5.19682502746582">
        <ele>748</ele>
        <time>2019-05-11T22:47:12Z</time>
      </trkpt>
      <trkpt lat="36.8207626342773" lon="-5.19680309295654">
        <ele>748</ele>
        <time>2019-05-11T22:47:14Z</time>
      </trkpt>
      <trkpt lat="36.8207550048828" lon="-5.19678020477295">
        <ele>748</ele>
        <time>2019-05-11T22:47:16Z</time>
      </trkpt>
      <trkpt lat="36.820743560791" lon="-5.1967568397522">
        <ele>748</ele>
        <time>2019-05-11T22:47:18Z</time>
      </trkpt>
      <trkpt lat="36.8207321166992" lon="-5.19673681259155">
        <ele>748</ele>
        <time>2019-05-11T22:47:20Z</time>
      </trkpt>
      <trkpt lat="36.8207206726074" lon="-5.19671678543091">
        <ele>748</ele>
        <time>2019-05-11T22:47:22Z</time>
      </trkpt>
      <trkpt lat="36.8207092285156" lon="-5.196702003479">
        <ele>748</ele>
        <time>2019-05-11T22:47:24Z</time>
      </trkpt>
      <trkpt lat="36.8207015991211" lon="-5.19668197631836">
        <ele>748</ele>
        <time>2019-05-11T22:47:26Z</time>
      </trkpt>
      <trkpt lat="36.8206901550293" lon="-5.19666194915772">
        <ele>748</ele>
        <time>2019-05-11T22:47:28Z</time>
      </trkpt>
      <trkpt lat="36.820671081543" lon="-5.19663190841675">
        <ele>748</ele>
        <time>2019-05-11T22:47:30Z</time>
      </trkpt>
      <trkpt lat="36.8206596374512" lon="-5.19660806655884">
        <ele>748</ele>
        <time>2019-05-11T22:47:32Z</time>
      </trkpt>
      <trkpt lat="36.8206443786621" lon="-5.19658517837524">
        <ele>748</ele>
        <time>2019-05-11T22:47:35Z</time>
      </trkpt>
      <trkpt lat="36.8206367492676" lon="-5.1965651512146">
        <ele>749</ele>
        <time>2019-05-11T22:47:37Z</time>
      </trkpt>
      <trkpt lat="36.8206253051758" lon="-5.19654178619385">
        <ele>749</ele>
        <time>2019-05-11T22:47:39Z</time>
      </trkpt>
      <trkpt lat="36.8206214904785" lon="-5.19651985168457">
        <ele>749</ele>
        <time>2019-05-11T22:47:41Z</time>
      </trkpt>
      <trkpt lat="36.8206062316894" lon="-5.19649982452393">
        <ele>749</ele>
        <time>2019-05-11T22:47:43Z</time>
      </trkpt>
      <trkpt lat="36.8205986022949" lon="-5.19648313522339">
        <ele>749</ele>
        <time>2019-05-11T22:47:45Z</time>
      </trkpt>
      <trkpt lat="36.8205833435059" lon="-5.19646310806274">
        <ele>749</ele>
        <time>2019-05-11T22:47:47Z</time>
      </trkpt>
      <trkpt lat="36.8205718994141" lon="-5.19644021987915">
        <ele>749</ele>
        <time>2019-05-11T22:47:49Z</time>
      </trkpt>
      <trkpt lat="36.8205604553223" lon="-5.19642496109009">
        <ele>750</ele>
        <time>2019-05-11T22:47:51Z</time>
      </trkpt>
      <trkpt lat="36.8205490112305" lon="-5.19640684127808">
        <ele>750</ele>
        <time>2019-05-11T22:47:53Z</time>
      </trkpt>
      <trkpt lat="36.8205337524414" lon="-5.1963849067688">
        <ele>751</ele>
        <time>2019-05-11T22:47:55Z</time>
      </trkpt>
      <trkpt lat="36.8205184936523" lon="-5.19636487960815">
        <ele>752</ele>
        <time>2019-05-11T22:47:57Z</time>
      </trkpt>
      <trkpt lat="36.8205108642578" lon="-5.19635200500488">
        <ele>753</ele>
        <time>2019-05-11T22:47:59Z</time>
      </trkpt>
      <trkpt lat="36.820499420166" lon="-5.19633483886719">
        <ele>754</ele>
        <time>2019-05-11T22:48:01Z</time>
      </trkpt>
      <trkpt lat="36.8204879760742" lon="-5.19632005691528">
        <ele>754</ele>
        <time>2019-05-11T22:48:03Z</time>
      </trkpt>
      <trkpt lat="36.8204689025879" lon="-5.19628810882568">
        <ele>755</ele>
        <time>2019-05-11T22:48:05Z</time>
      </trkpt>
      <trkpt lat="36.8204574584961" lon="-5.1962718963623">
        <ele>755</ele>
        <time>2019-05-11T22:48:07Z</time>
      </trkpt>
      <trkpt lat="36.8204498291016" lon="-5.19624996185303">
        <ele>756</ele>
        <time>2019-05-11T22:48:10Z</time>
      </trkpt>
      <trkpt lat="36.8204383850098" lon="-5.19623184204102">
        <ele>756</ele>
        <time>2019-05-11T22:48:12Z</time>
      </trkpt>
      <trkpt lat="36.8204307556152" lon="-5.19621181488037">
        <ele>757</ele>
        <time>2019-05-11T22:48:14Z</time>
      </trkpt>
      <trkpt lat="36.8204193115234" lon="-5.19619989395142">
        <ele>757</ele>
        <time>2019-05-11T22:48:16Z</time>
      </trkpt>
      <trkpt lat="36.8204116821289" lon="-5.19618701934814">
        <ele>757</ele>
        <time>2019-05-11T22:48:18Z</time>
      </trkpt>
      <trkpt lat="36.8204002380371" lon="-5.19617319107056">
        <ele>757</ele>
        <time>2019-05-11T22:48:20Z</time>
      </trkpt>
      <trkpt lat="36.8203887939453" lon="-5.19615697860718">
        <ele>757</ele>
        <time>2019-05-11T22:48:22Z</time>
      </trkpt>
      <trkpt lat="36.8203811645508" lon="-5.19614219665527">
        <ele>758</ele>
        <time>2019-05-11T22:48:24Z</time>
      </trkpt>
      <trkpt lat="36.8203735351562" lon="-5.19612312316894">
        <ele>758</ele>
        <time>2019-05-11T22:48:26Z</time>
      </trkpt>
      <trkpt lat="36.8203620910644" lon="-5.19610691070557">
        <ele>759</ele>
        <time>2019-05-11T22:48:28Z</time>
      </trkpt>
      <trkpt lat="36.8203506469727" lon="-5.19609308242798">
        <ele>759</ele>
        <time>2019-05-11T22:48:30Z</time>
      </trkpt>
      <trkpt lat="36.8203468322754" lon="-5.1960768699646">
        <ele>759</ele>
        <time>2019-05-11T22:48:32Z</time>
      </trkpt>
      <trkpt lat="36.8203392028809" lon="-5.19606018066406">
        <ele>759</ele>
        <time>2019-05-11T22:48:34Z</time>
      </trkpt>
      <trkpt lat="36.8203315734863" lon="-5.196044921875">
        <ele>759</ele>
        <time>2019-05-11T22:48:36Z</time>
      </trkpt>
      <trkpt lat="36.8203163146973" lon="-5.19602012634277">
        <ele>759</ele>
        <time>2019-05-11T22:48:38Z</time>
      </trkpt>
      <trkpt lat="36.8203086853027" lon="-5.19600200653076">
        <ele>759</ele>
        <time>2019-05-11T22:48:40Z</time>
      </trkpt>
      <trkpt lat="36.8202972412109" lon="-5.19598293304443">
        <ele>759</ele>
        <time>2019-05-11T22:48:43Z</time>
      </trkpt>
      <trkpt lat="36.8202934265137" lon="-5.19596481323242">
        <ele>759</ele>
        <time>2019-05-11T22:48:45Z</time>
      </trkpt>
      <trkpt lat="36.8202857971191" lon="-5.19594717025757">
        <ele>760</ele>
        <time>2019-05-11T22:48:47Z</time>
      </trkpt>
      <trkpt lat="36.8202743530273" lon="-5.19593000411987">
        <ele>760</ele>
        <time>2019-05-11T22:48:49Z</time>
      </trkpt>
      <trkpt lat="36.8202629089356" lon="-5.19590997695923">
        <ele>761</ele>
        <time>2019-05-11T22:48:51Z</time>
      </trkpt>
      <trkpt lat="36.8202514648438" lon="-5.19589519500732">
        <ele>761</ele>
        <time>2019-05-11T22:48:53Z</time>
      </trkpt>
      <trkpt lat="36.8202438354492" lon="-5.19587802886963">
        <ele>762</ele>
        <time>2019-05-11T22:48:55Z</time>
      </trkpt>
      <trkpt lat="36.8202323913574" lon="-5.19586706161499">
        <ele>763</ele>
        <time>2019-05-11T22:48:57Z</time>
      </trkpt>
      <trkpt lat="36.8202247619629" lon="-5.19584512710571">
        <ele>764</ele>
        <time>2019-05-11T22:48:59Z</time>
      </trkpt>
      <trkpt lat="36.8202133178711" lon="-5.19582796096802">
        <ele>765</ele>
        <time>2019-05-11T22:49:01Z</time>
      </trkpt>
      <trkpt lat="36.8202018737793" lon="-5.1958122253418">
        <ele>765</ele>
        <time>2019-05-11T22:49:03Z</time>
      </trkpt>
      <trkpt lat="36.8201942443848" lon="-5.19579219818115">
        <ele>766</ele>
        <time>2019-05-11T22:49:05Z</time>
      </trkpt>
      <trkpt lat="36.8201866149902" lon="-5.19576978683472">
        <ele>766</ele>
        <time>2019-05-11T22:49:07Z</time>
      </trkpt>
      <trkpt lat="36.8201789855957" lon="-5.19575214385986">
        <ele>767</ele>
        <time>2019-05-11T22:49:09Z</time>
      </trkpt>
      <trkpt lat="36.8201713562012" lon="-5.1957278251648">
        <ele>767</ele>
        <time>2019-05-11T22:49:11Z</time>
      </trkpt>
      <trkpt lat="36.8201599121094" lon="-5.19569778442383">
        <ele>768</ele>
        <time>2019-05-11T22:49:13Z</time>
      </trkpt>
      <trkpt lat="36.8201522827148" lon="-5.1956729888916">
        <ele>768</ele>
        <time>2019-05-11T22:49:15Z</time>
      </trkpt>
      <trkpt lat="36.8201484680176" lon="-5.19565010070801">
        <ele>769</ele>
        <time>2019-05-11T22:49:18Z</time>
      </trkpt>
      <trkpt lat="36.820140838623" lon="-5.19562816619873">
        <ele>769</ele>
        <time>2019-05-11T22:49:20Z</time>
      </trkpt>
      <trkpt lat="36.8201332092285" lon="-5.19560718536377">
        <ele>770</ele>
        <time>2019-05-11T22:49:22Z</time>
      </trkpt>
      <trkpt lat="36.8201293945312" lon="-5.1955828666687">
        <ele>770</ele>
        <time>2019-05-11T22:49:24Z</time>
      </trkpt>
      <trkpt lat="36.8201217651367" lon="-5.19556188583374">
        <ele>770</ele>
        <time>2019-05-11T22:49:26Z</time>
      </trkpt>
      <trkpt lat="36.8201141357422" lon="-5.19554281234741">
        <ele>770</ele>
        <time>2019-05-11T22:49:28Z</time>
      </trkpt>
      <trkpt lat="36.8201065063477" lon="-5.19551992416382">
        <ele>770</ele>
        <time>2019-05-11T22:49:30Z</time>
      </trkpt>
      <trkpt lat="36.8201026916504" lon="-5.19549512863159">
        <ele>770</ele>
        <time>2019-05-11T22:49:32Z</time>
      </trkpt>
      <trkpt lat="36.8200988769531" lon="-5.19546985626221">
        <ele>770</ele>
        <time>2019-05-11T22:49:34Z</time>
      </trkpt>
      <trkpt lat="36.8200912475586" lon="-5.19544506072998">
        <ele>770</ele>
        <time>2019-05-11T22:49:36Z</time>
      </trkpt>
      <trkpt lat="36.8200836181641" lon="-5.19542217254639">
        <ele>770</ele>
        <time>2019-05-11T22:49:38Z</time>
      </trkpt>
      <trkpt lat="36.8200759887695" lon="-5.19540214538574">
        <ele>770</ele>
        <time>2019-05-11T22:49:40Z</time>
      </trkpt>
      <trkpt lat="36.8200759887695" lon="-5.19537496566772">
        <ele>770</ele>
        <time>2019-05-11T22:49:42Z</time>
      </trkpt>
      <trkpt lat="36.820068359375" lon="-5.1953501701355">
        <ele>770</ele>
        <time>2019-05-11T22:49:44Z</time>
      </trkpt>
      <trkpt lat="36.820068359375" lon="-5.19532680511475">
        <ele>770</ele>
        <time>2019-05-11T22:49:46Z</time>
      </trkpt>
      <trkpt lat="36.8200531005859" lon="-5.19529485702515">
        <ele>770</ele>
        <time>2019-05-11T22:49:48Z</time>
      </trkpt>
      <trkpt lat="36.8200492858887" lon="-5.19527006149292">
        <ele>770</ele>
        <time>2019-05-11T22:49:50Z</time>
      </trkpt>
      <trkpt lat="36.8200416564941" lon="-5.19524812698364">
        <ele>770</ele>
        <time>2019-05-11T22:49:53Z</time>
      </trkpt>
      <trkpt lat="36.8200302124023" lon="-5.19522714614868">
        <ele>770</ele>
        <time>2019-05-11T22:49:55Z</time>
      </trkpt>
      <trkpt lat="36.8200263977051" lon="-5.1952052116394">
        <ele>771</ele>
        <time>2019-05-11T22:49:57Z</time>
      </trkpt>
      <trkpt lat="36.8200225830078" lon="-5.19518280029297">
        <ele>771</ele>
        <time>2019-05-11T22:49:59Z</time>
      </trkpt>
      <trkpt lat="36.8200187683106" lon="-5.19515991210938">
        <ele>772</ele>
        <time>2019-05-11T22:50:01Z</time>
      </trkpt>
      <trkpt lat="36.820011138916" lon="-5.19513511657715">
        <ele>772</ele>
        <time>2019-05-11T22:50:03Z</time>
      </trkpt>
      <trkpt lat="36.8200073242188" lon="-5.19510984420776">
        <ele>773</ele>
        <time>2019-05-11T22:50:05Z</time>
      </trkpt>
      <trkpt lat="36.8199996948242" lon="-5.1950831413269">
        <ele>773</ele>
        <time>2019-05-11T22:50:07Z</time>
      </trkpt>
      <trkpt lat="36.819995880127" lon="-5.19505786895752">
        <ele>774</ele>
        <time>2019-05-11T22:50:09Z</time>
      </trkpt>
      <trkpt lat="36.8199882507324" lon="-5.19503307342529">
        <ele>774</ele>
        <time>2019-05-11T22:50:11Z</time>
      </trkpt>
      <trkpt lat="36.8199844360352" lon="-5.1950101852417">
        <ele>775</ele>
        <time>2019-05-11T22:50:13Z</time>
      </trkpt>
      <trkpt lat="36.8199806213379" lon="-5.19498777389526">
        <ele>775</ele>
        <time>2019-05-11T22:50:15Z</time>
      </trkpt>
      <trkpt lat="36.8199768066406" lon="-5.1949667930603">
        <ele>775</ele>
        <time>2019-05-11T22:50:17Z</time>
      </trkpt>
      <trkpt lat="36.8199653625488" lon="-5.19494485855103">
        <ele>775</ele>
        <time>2019-05-11T22:50:19Z</time>
      </trkpt>
      <trkpt lat="36.8199615478516" lon="-5.19492197036743">
        <ele>775</ele>
        <time>2019-05-11T22:50:21Z</time>
      </trkpt>
      <trkpt lat="36.8199501037598" lon="-5.1948881149292">
        <ele>775</ele>
        <time>2019-05-11T22:50:23Z</time>
      </trkpt>
      <trkpt lat="36.8199424743652" lon="-5.1948618888855">
        <ele>775</ele>
        <time>2019-05-11T22:50:25Z</time>
      </trkpt>
      <trkpt lat="36.8199348449707" lon="-5.19483804702759">
        <ele>775</ele>
        <time>2019-05-11T22:50:28Z</time>
      </trkpt>
      <trkpt lat="36.8199272155762" lon="-5.19481515884399">
        <ele>775</ele>
        <time>2019-05-11T22:50:30Z</time>
      </trkpt>
      <trkpt lat="36.8199234008789" lon="-5.19478988647461">
        <ele>775</ele>
        <time>2019-05-11T22:50:32Z</time>
      </trkpt>
      <trkpt lat="36.8199195861816" lon="-5.19476985931396">
        <ele>775</ele>
        <time>2019-05-11T22:50:34Z</time>
      </trkpt>
      <trkpt lat="36.8199119567871" lon="-5.19474792480469">
        <ele>775</ele>
        <time>2019-05-11T22:50:36Z</time>
      </trkpt>
      <trkpt lat="36.8199043273926" lon="-5.19472503662109">
        <ele>775</ele>
        <time>2019-05-11T22:50:38Z</time>
      </trkpt>
      <trkpt lat="36.819896697998" lon="-5.1947021484375">
        <ele>775</ele>
        <time>2019-05-11T22:50:40Z</time>
      </trkpt>
      <trkpt lat="36.8198890686035" lon="-5.19467496871948">
        <ele>775</ele>
        <time>2019-05-11T22:50:42Z</time>
      </trkpt>
      <trkpt lat="36.819881439209" lon="-5.19465017318726">
        <ele>775</ele>
        <time>2019-05-11T22:50:44Z</time>
      </trkpt>
      <trkpt lat="36.8198738098144" lon="-5.19462490081787">
        <ele>775</ele>
        <time>2019-05-11T22:50:46Z</time>
      </trkpt>
      <trkpt lat="36.8198661804199" lon="-5.19460010528564">
        <ele>775</ele>
        <time>2019-05-11T22:50:48Z</time>
      </trkpt>
      <trkpt lat="36.8198585510254" lon="-5.19457721710205">
        <ele>775</ele>
        <time>2019-05-11T22:50:50Z</time>
      </trkpt>
      <trkpt lat="36.8198585510254" lon="-5.19455289840698">
        <ele>775</ele>
        <time>2019-05-11T22:50:52Z</time>
      </trkpt>
      <trkpt lat="36.8198547363281" lon="-5.19453716278076">
        <ele>776</ele>
        <time>2019-05-11T22:50:54Z</time>
      </trkpt>
      <trkpt lat="36.8198471069336" lon="-5.19451713562012">
        <ele>777</ele>
        <time>2019-05-11T22:50:56Z</time>
      </trkpt>
      <trkpt lat="36.8198394775391" lon="-5.19448709487915">
        <ele>777</ele>
        <time>2019-05-11T22:50:58Z</time>
      </trkpt>
      <trkpt lat="36.8198318481445" lon="-5.19446277618408">
        <ele>778</ele>
        <time>2019-05-11T22:51:00Z</time>
      </trkpt>
      <trkpt lat="36.81982421875" lon="-5.19443988800049">
        <ele>779</ele>
        <time>2019-05-11T22:51:03Z</time>
      </trkpt>
      <trkpt lat="36.8198204040527" lon="-5.19441699981689">
        <ele>779</ele>
        <time>2019-05-11T22:51:05Z</time>
      </trkpt>
      <trkpt lat="36.8198204040527" lon="-5.19439792633057">
        <ele>779</ele>
        <time>2019-05-11T22:51:07Z</time>
      </trkpt>
      <trkpt lat="36.8198165893555" lon="-5.19437503814697">
        <ele>779</ele>
        <time>2019-05-11T22:51:09Z</time>
      </trkpt>
      <trkpt lat="36.8198089599609" lon="-5.19435214996338">
        <ele>779</ele>
        <time>2019-05-11T22:51:11Z</time>
      </trkpt>
      <trkpt lat="36.8198089599609" lon="-5.1943302154541">
        <ele>779</ele>
        <time>2019-05-11T22:51:13Z</time>
      </trkpt>
      <trkpt lat="36.8198051452637" lon="-5.19430494308472">
        <ele>779</ele>
        <time>2019-05-11T22:51:15Z</time>
      </trkpt>
      <trkpt lat="36.8197975158691" lon="-5.19428491592407">
        <ele>779</ele>
        <time>2019-05-11T22:51:17Z</time>
      </trkpt>
      <trkpt lat="36.8197975158691" lon="-5.1942629814148">
        <ele>779</ele>
        <time>2019-05-11T22:51:19Z</time>
      </trkpt>
      <trkpt lat="36.8197937011719" lon="-5.19423818588257">
        <ele>779</ele>
        <time>2019-05-11T22:51:21Z</time>
      </trkpt>
      <trkpt lat="36.8197898864746" lon="-5.19421291351318">
        <ele>780</ele>
        <time>2019-05-11T22:51:23Z</time>
      </trkpt>
      <trkpt lat="36.8197822570801" lon="-5.19419193267822">
        <ele>781</ele>
        <time>2019-05-11T22:51:25Z</time>
      </trkpt>
      <trkpt lat="36.8197784423828" lon="-5.19416809082031">
        <ele>782</ele>
        <time>2019-05-11T22:51:27Z</time>
      </trkpt>
      <trkpt lat="36.8197708129883" lon="-5.19414710998535">
        <ele>782</ele>
        <time>2019-05-11T22:51:29Z</time>
      </trkpt>
      <trkpt lat="36.819766998291" lon="-5.19411993026733">
        <ele>782</ele>
        <time>2019-05-11T22:51:31Z</time>
      </trkpt>
      <trkpt lat="36.8197555541992" lon="-5.19408512115478">
        <ele>782</ele>
        <time>2019-05-11T22:51:33Z</time>
      </trkpt>
      <trkpt lat="36.819751739502" lon="-5.19406318664551">
        <ele>782</ele>
        <time>2019-05-11T22:51:35Z</time>
      </trkpt>
      <trkpt lat="36.8197441101074" lon="-5.19404220581055">
        <ele>782</ele>
        <time>2019-05-11T22:51:38Z</time>
      </trkpt>
      <trkpt lat="36.8197364807129" lon="-5.19401693344116">
        <ele>782</ele>
        <time>2019-05-11T22:51:40Z</time>
      </trkpt>
      <trkpt lat="36.8197326660156" lon="-5.19399309158325">
        <ele>782</ele>
        <time>2019-05-11T22:51:42Z</time>
      </trkpt>
      <trkpt lat="36.8197212219238" lon="-5.19396781921387">
        <ele>782</ele>
        <time>2019-05-11T22:51:44Z</time>
      </trkpt>
      <trkpt lat="36.8197135925293" lon="-5.19394493103027">
        <ele>782</ele>
        <time>2019-05-11T22:51:46Z</time>
      </trkpt>
      <trkpt lat="36.8197021484375" lon="-5.19392013549805">
        <ele>783</ele>
        <time>2019-05-11T22:51:48Z</time>
      </trkpt>
      <trkpt lat="36.8196983337402" lon="-5.19389486312866">
        <ele>783</ele>
        <time>2019-05-11T22:51:50Z</time>
      </trkpt>
      <trkpt lat="36.8196907043457" lon="-5.19387722015381">
        <ele>784</ele>
        <time>2019-05-11T22:51:52Z</time>
      </trkpt>
      <trkpt lat="36.8196830749512" lon="-5.19385480880737">
        <ele>784</ele>
        <time>2019-05-11T22:51:54Z</time>
      </trkpt>
      <trkpt lat="36.8196792602539" lon="-5.19383192062378">
        <ele>784</ele>
        <time>2019-05-11T22:51:56Z</time>
      </trkpt>
      <trkpt lat="36.8196716308594" lon="-5.1938099861145">
        <ele>784</ele>
        <time>2019-05-11T22:51:58Z</time>
      </trkpt>
      <trkpt lat="36.8196640014648" lon="-5.19379186630249">
        <ele>784</ele>
        <time>2019-05-11T22:52:00Z</time>
      </trkpt>
      <trkpt lat="36.8196601867676" lon="-5.19377279281616">
        <ele>784</ele>
        <time>2019-05-11T22:52:02Z</time>
      </trkpt>
      <trkpt lat="36.8196563720703" lon="-5.19375276565552">
        <ele>784</ele>
        <time>2019-05-11T22:52:04Z</time>
      </trkpt>
      <trkpt lat="36.8196487426758" lon="-5.19372797012329">
        <ele>784</ele>
        <time>2019-05-11T22:52:06Z</time>
      </trkpt>
      <trkpt lat="36.8196411132812" lon="-5.19370317459106">
        <ele>784</ele>
        <time>2019-05-11T22:52:08Z</time>
      </trkpt>
      <trkpt lat="36.8196334838867" lon="-5.19366312026978">
        <ele>784</ele>
        <time>2019-05-11T22:52:10Z</time>
      </trkpt>
      <trkpt lat="36.8196220397949" lon="-5.19364023208618">
        <ele>784</ele>
        <time>2019-05-11T22:52:12Z</time>
      </trkpt>
      <trkpt lat="36.8196182250977" lon="-5.1936149597168">
        <ele>784</ele>
        <time>2019-05-11T22:52:15Z</time>
      </trkpt>
      <trkpt lat="36.8196105957031" lon="-5.19359016418457">
        <ele>784</ele>
        <time>2019-05-11T22:52:17Z</time>
      </trkpt>
      <trkpt lat="36.8196067810059" lon="-5.19356489181519">
        <ele>784</ele>
        <time>2019-05-11T22:52:19Z</time>
      </trkpt>
      <trkpt lat="36.8195991516113" lon="-5.19353723526001">
        <ele>784</ele>
        <time>2019-05-11T22:52:21Z</time>
      </trkpt>
      <trkpt lat="36.8195915222168" lon="-5.19351196289062">
        <ele>784</ele>
        <time>2019-05-11T22:52:23Z</time>
      </trkpt>
      <trkpt lat="36.8195877075195" lon="-5.19348287582397">
        <ele>784</ele>
        <time>2019-05-11T22:52:25Z</time>
      </trkpt>
      <trkpt lat="36.8195762634277" lon="-5.19345808029175">
        <ele>784</ele>
        <time>2019-05-11T22:52:27Z</time>
      </trkpt>
      <trkpt lat="36.8195686340332" lon="-5.19343185424805">
        <ele>785</ele>
        <time>2019-05-11T22:52:29Z</time>
      </trkpt>
      <trkpt lat="36.8195610046387" lon="-5.19340801239014">
        <ele>785</ele>
        <time>2019-05-11T22:52:31Z</time>
      </trkpt>
      <trkpt lat="36.8195533752441" lon="-5.19338321685791">
        <ele>786</ele>
        <time>2019-05-11T22:52:33Z</time>
      </trkpt>
      <trkpt lat="36.8195495605469" lon="-5.19335985183716">
        <ele>786</ele>
        <time>2019-05-11T22:52:35Z</time>
      </trkpt>
      <trkpt lat="36.8195419311523" lon="-5.19333505630493">
        <ele>787</ele>
        <time>2019-05-11T22:52:37Z</time>
      </trkpt>
      <trkpt lat="36.8195381164551" lon="-5.19331216812134">
        <ele>787</ele>
        <time>2019-05-11T22:52:39Z</time>
      </trkpt>
      <trkpt lat="36.8195304870606" lon="-5.19328689575195">
        <ele>787</ele>
        <time>2019-05-11T22:52:41Z</time>
      </trkpt>
      <trkpt lat="36.8195304870606" lon="-5.19326496124268">
        <ele>787</ele>
        <time>2019-05-11T22:52:43Z</time>
      </trkpt>
      <trkpt lat="36.8195304870606" lon="-5.19321823120117">
        <ele>787</ele>
        <time>2019-05-11T22:52:45Z</time>
      </trkpt>
      <trkpt lat="36.8195266723633" lon="-5.19319295883179">
        <ele>787</ele>
        <time>2019-05-11T22:52:47Z</time>
      </trkpt>
      <trkpt lat="36.8195190429688" lon="-5.19317197799683">
        <ele>787</ele>
        <time>2019-05-11T22:52:50Z</time>
      </trkpt>
      <trkpt lat="36.8195152282715" lon="-5.19314813613892">
        <ele>787</ele>
        <time>2019-05-11T22:52:52Z</time>
      </trkpt>
      <trkpt lat="36.8195152282715" lon="-5.19312286376953">
        <ele>788</ele>
        <time>2019-05-11T22:52:54Z</time>
      </trkpt>
      <trkpt lat="36.8195152282715" lon="-5.19310188293457">
        <ele>788</ele>
        <time>2019-05-11T22:52:56Z</time>
      </trkpt>
      <trkpt lat="36.819507598877" lon="-5.19307994842529">
        <ele>788</ele>
        <time>2019-05-11T22:52:58Z</time>
      </trkpt>
      <trkpt lat="36.8194961547852" lon="-5.19305992126465">
        <ele>788</ele>
        <time>2019-05-11T22:53:00Z</time>
      </trkpt>
      <trkpt lat="36.8194923400879" lon="-5.19303798675537">
        <ele>789</ele>
        <time>2019-05-11T22:53:02Z</time>
      </trkpt>
      <trkpt lat="36.8194847106934" lon="-5.19301795959473">
        <ele>789</ele>
        <time>2019-05-11T22:53:04Z</time>
      </trkpt>
      <trkpt lat="36.8194808959961" lon="-5.19299697875977">
        <ele>789</ele>
        <time>2019-05-11T22:53:06Z</time>
      </trkpt>
      <trkpt lat="36.8194732666016" lon="-5.19297504425049">
        <ele>789</ele>
        <time>2019-05-11T22:53:08Z</time>
      </trkpt>
      <trkpt lat="36.8194694519043" lon="-5.19294786453247">
        <ele>789</ele>
        <time>2019-05-11T22:53:10Z</time>
      </trkpt>
      <trkpt lat="36.819465637207" lon="-5.19292688369751">
        <ele>789</ele>
        <time>2019-05-11T22:53:12Z</time>
      </trkpt>
      <trkpt lat="36.8194618225098" lon="-5.19290494918823">
        <ele>790</ele>
        <time>2019-05-11T22:53:14Z</time>
      </trkpt>
      <trkpt lat="36.8194541931152" lon="-5.19287776947022">
        <ele>790</ele>
        <time>2019-05-11T22:53:16Z</time>
      </trkpt>
      <trkpt lat="36.8194465637207" lon="-5.19285202026367">
        <ele>790</ele>
        <time>2019-05-11T22:53:18Z</time>
      </trkpt>
      <trkpt lat="36.8194351196289" lon="-5.19281816482544">
        <ele>791</ele>
        <time>2019-05-11T22:53:20Z</time>
      </trkpt>
      <trkpt lat="36.8194274902344" lon="-5.19279718399048">
        <ele>792</ele>
        <time>2019-05-11T22:53:23Z</time>
      </trkpt>
      <trkpt lat="36.8194236755371" lon="-5.19277286529541">
        <ele>792</ele>
        <time>2019-05-11T22:53:25Z</time>
      </trkpt>
      <trkpt lat="36.8194122314453" lon="-5.19275283813477">
        <ele>793</ele>
        <time>2019-05-11T22:53:27Z</time>
      </trkpt>
      <trkpt lat="36.819408416748" lon="-5.1927318572998">
        <ele>793</ele>
        <time>2019-05-11T22:53:29Z</time>
      </trkpt>
      <trkpt lat="36.8194007873535" lon="-5.19270801544189">
        <ele>793</ele>
        <time>2019-05-11T22:53:31Z</time>
      </trkpt>
      <trkpt lat="36.8193969726562" lon="-5.19268178939819">
        <ele>793</ele>
        <time>2019-05-11T22:53:33Z</time>
      </trkpt>
      <trkpt lat="36.8193893432617" lon="-5.19265794754028">
        <ele>794</ele>
        <time>2019-05-11T22:53:35Z</time>
      </trkpt>
      <trkpt lat="36.8193817138672" lon="-5.19263505935669">
        <ele>794</ele>
        <time>2019-05-11T22:53:37Z</time>
      </trkpt>
      <trkpt lat="36.8193778991699" lon="-5.1926121711731">
        <ele>794</ele>
        <time>2019-05-11T22:53:39Z</time>
      </trkpt>
      <trkpt lat="36.8193664550781" lon="-5.19258785247803">
        <ele>795</ele>
        <time>2019-05-11T22:53:41Z</time>
      </trkpt>
      <trkpt lat="36.8193626403809" lon="-5.19256496429443">
        <ele>796</ele>
        <time>2019-05-11T22:53:43Z</time>
      </trkpt>
      <trkpt lat="36.8193588256836" lon="-5.19254016876221">
        <ele>797</ele>
        <time>2019-05-11T22:53:45Z</time>
      </trkpt>
      <trkpt lat="36.8193588256836" lon="-5.19252300262451">
        <ele>798</ele>
        <time>2019-05-11T22:53:47Z</time>
      </trkpt>
      <trkpt lat="36.8193588256836" lon="-5.19250297546387">
        <ele>798</ele>
        <time>2019-05-11T22:53:49Z</time>
      </trkpt>
      <trkpt lat="36.8193588256836" lon="-5.19248294830322">
        <ele>798</ele>
        <time>2019-05-11T22:53:51Z</time>
      </trkpt>
      <trkpt lat="36.8193550109863" lon="-5.19246482849121">
        <ele>798</ele>
        <time>2019-05-11T22:53:53Z</time>
      </trkpt>
      <trkpt lat="36.8193435668945" lon="-5.1924319267273">
        <ele>798</ele>
        <time>2019-05-11T22:53:55Z</time>
      </trkpt>
      <trkpt lat="36.8193397521973" lon="-5.19240522384644">
        <ele>798</ele>
        <time>2019-05-11T22:53:57Z</time>
      </trkpt>
      <trkpt lat="36.8193359375" lon="-5.19238519668579">
        <ele>798</ele>
        <time>2019-05-11T22:54:00Z</time>
      </trkpt>
      <trkpt lat="36.8193321228027" lon="-5.19235992431641">
        <ele>799</ele>
        <time>2019-05-11T22:54:02Z</time>
      </trkpt>
      <trkpt lat="36.8193244934082" lon="-5.19233512878418">
        <ele>799</ele>
        <time>2019-05-11T22:54:04Z</time>
      </trkpt>
      <trkpt lat="36.8193168640137" lon="-5.19231176376343">
        <ele>799</ele>
        <time>2019-05-11T22:54:06Z</time>
      </trkpt>
      <trkpt lat="36.8193130493164" lon="-5.19228315353394">
        <ele>799</ele>
        <time>2019-05-11T22:54:08Z</time>
      </trkpt>
      <trkpt lat="36.8193092346191" lon="-5.19225788116455">
        <ele>799</ele>
        <time>2019-05-11T22:54:10Z</time>
      </trkpt>
      <trkpt lat="36.8193092346191" lon="-5.19223499298096">
        <ele>800</ele>
        <time>2019-05-11T22:54:12Z</time>
      </trkpt>
      <trkpt lat="36.8193054199219" lon="-5.19221019744873">
        <ele>800</ele>
        <time>2019-05-11T22:54:14Z</time>
      </trkpt>
      <trkpt lat="36.8193054199219" lon="-5.1921877861023">
        <ele>801</ele>
        <time>2019-05-11T22:54:16Z</time>
      </trkpt>
      <trkpt lat="36.8193016052246" lon="-5.19216680526733">
        <ele>801</ele>
        <time>2019-05-11T22:54:18Z</time>
      </trkpt>
      <trkpt lat="36.8192939758301" lon="-5.19214296340942">
        <ele>802</ele>
        <time>2019-05-11T22:54:20Z</time>
      </trkpt>
      <trkpt lat="36.8192939758301" lon="-5.19212484359741">
        <ele>802</ele>
        <time>2019-05-11T22:54:22Z</time>
      </trkpt>
      <trkpt lat="36.8192901611328" lon="-5.19209718704224">
        <ele>802</ele>
        <time>2019-05-11T22:54:24Z</time>
      </trkpt>
      <trkpt lat="36.8192863464356" lon="-5.19206476211548">
        <ele>802</ele>
        <time>2019-05-11T22:54:26Z</time>
      </trkpt>
      <trkpt lat="36.819278717041" lon="-5.1920371055603">
        <ele>802</ele>
        <time>2019-05-11T22:54:28Z</time>
      </trkpt>
      <trkpt lat="36.8192710876465" lon="-5.19200992584228">
        <ele>802</ele>
        <time>2019-05-11T22:54:30Z</time>
      </trkpt>
      <trkpt lat="36.8192558288574" lon="-5.191969871521">
        <ele>802</ele>
        <time>2019-05-11T22:54:32Z</time>
      </trkpt>
      <trkpt lat="36.8192481994629" lon="-5.19194793701172">
        <ele>802</ele>
        <time>2019-05-11T22:54:34Z</time>
      </trkpt>
      <trkpt lat="36.8192367553711" lon="-5.19192314147949">
        <ele>803</ele>
        <time>2019-05-11T22:54:37Z</time>
      </trkpt>
      <trkpt lat="36.8192253112793" lon="-5.19190216064453">
        <ele>803</ele>
        <time>2019-05-11T22:54:39Z</time>
      </trkpt>
      <trkpt lat="36.8192176818848" lon="-5.19187498092651">
        <ele>804</ele>
        <time>2019-05-11T22:54:41Z</time>
      </trkpt>
      <trkpt lat="36.8192100524902" lon="-5.19185304641724">
        <ele>804</ele>
        <time>2019-05-11T22:54:43Z</time>
      </trkpt>
      <trkpt lat="36.8192024230957" lon="-5.19182682037354">
        <ele>805</ele>
        <time>2019-05-11T22:54:45Z</time>
      </trkpt>
      <trkpt lat="36.8191986083984" lon="-5.19180297851562">
        <ele>805</ele>
        <time>2019-05-11T22:54:47Z</time>
      </trkpt>
      <trkpt lat="36.8191947937012" lon="-5.19177722930908">
        <ele>806</ele>
        <time>2019-05-11T22:54:49Z</time>
      </trkpt>
      <trkpt lat="36.8191909790039" lon="-5.1917519569397">
        <ele>806</ele>
        <time>2019-05-11T22:54:51Z</time>
      </trkpt>
      <trkpt lat="36.8191833496094" lon="-5.19172716140747">
        <ele>807</ele>
        <time>2019-05-11T22:54:53Z</time>
      </trkpt>
      <trkpt lat="36.8191795349121" lon="-5.19170188903809">
        <ele>807</ele>
        <time>2019-05-11T22:54:55Z</time>
      </trkpt>
      <trkpt lat="36.8191757202148" lon="-5.19167518615723">
        <ele>807</ele>
        <time>2019-05-11T22:54:57Z</time>
      </trkpt>
      <trkpt lat="36.8191719055176" lon="-5.19165277481079">
        <ele>807</ele>
        <time>2019-05-11T22:54:59Z</time>
      </trkpt>
      <trkpt lat="36.819164276123" lon="-5.1916332244873">
        <ele>807</ele>
        <time>2019-05-11T22:55:01Z</time>
      </trkpt>
      <trkpt lat="36.8191566467285" lon="-5.19161701202393">
        <ele>807</ele>
        <time>2019-05-11T22:55:03Z</time>
      </trkpt>
      <trkpt lat="36.8191528320312" lon="-5.19160318374634">
        <ele>807</ele>
        <time>2019-05-11T22:55:05Z</time>
      </trkpt>
      <trkpt lat="36.8191413879394" lon="-5.19158792495728">
        <ele>807</ele>
        <time>2019-05-11T22:55:07Z</time>
      </trkpt>
      <trkpt lat="36.8191337585449" lon="-5.19155979156494">
        <ele>809</ele>
        <time>2019-05-11T22:55:09Z</time>
      </trkpt>
      <trkpt lat="36.8191261291504" lon="-5.19153690338135">
        <ele>810</ele>
        <time>2019-05-11T22:55:12Z</time>
      </trkpt>
      <trkpt lat="36.8191184997559" lon="-5.19151306152344">
        <ele>811</ele>
        <time>2019-05-11T22:55:14Z</time>
      </trkpt>
      <trkpt lat="36.8191108703613" lon="-5.19149208068848">
        <ele>812</ele>
        <time>2019-05-11T22:55:16Z</time>
      </trkpt>
      <trkpt lat="36.8191032409668" lon="-5.19147205352783">
        <ele>812</ele>
        <time>2019-05-11T22:55:18Z</time>
      </trkpt>
      <trkpt lat="36.8190994262695" lon="-5.19145202636719">
        <ele>813</ele>
        <time>2019-05-11T22:55:20Z</time>
      </trkpt>
      <trkpt lat="36.819091796875" lon="-5.19142723083496">
        <ele>813</ele>
        <time>2019-05-11T22:55:22Z</time>
      </trkpt>
      <trkpt lat="36.8190879821777" lon="-5.19140481948853">
        <ele>813</ele>
        <time>2019-05-11T22:55:24Z</time>
      </trkpt>
      <trkpt lat="36.819091796875" lon="-5.19138288497925">
        <ele>813</ele>
        <time>2019-05-11T22:55:26Z</time>
      </trkpt>
      <trkpt lat="36.819091796875" lon="-5.19135522842407">
        <ele>813</ele>
        <time>2019-05-11T22:55:28Z</time>
      </trkpt>
      <trkpt lat="36.8190841674805" lon="-5.19132804870606">
        <ele>813</ele>
        <time>2019-05-11T22:55:30Z</time>
      </trkpt>
      <trkpt lat="36.8190765380859" lon="-5.19130182266235">
        <ele>813</ele>
        <time>2019-05-11T22:55:32Z</time>
      </trkpt>
      <trkpt lat="36.8190689086914" lon="-5.19127702713013">
        <ele>813</ele>
        <time>2019-05-11T22:55:34Z</time>
      </trkpt>
      <trkpt lat="36.8190650939941" lon="-5.19125509262085">
        <ele>813</ele>
        <time>2019-05-11T22:55:36Z</time>
      </trkpt>
      <trkpt lat="36.8190612792969" lon="-5.19122791290283">
        <ele>813</ele>
        <time>2019-05-11T22:55:38Z</time>
      </trkpt>
      <trkpt lat="36.8190574645996" lon="-5.19120311737061">
        <ele>813</ele>
        <time>2019-05-11T22:55:40Z</time>
      </trkpt>
      <trkpt lat="36.8190536499023" lon="-5.19118022918701">
        <ele>814</ele>
        <time>2019-05-11T22:55:42Z</time>
      </trkpt>
      <trkpt lat="36.8190460205078" lon="-5.19114017486572">
        <ele>814</ele>
        <time>2019-05-11T22:55:44Z</time>
      </trkpt>
      <trkpt lat="36.8190383911133" lon="-5.19111490249634">
        <ele>814</ele>
        <time>2019-05-11T22:55:47Z</time>
      </trkpt>
      <trkpt lat="36.8190307617188" lon="-5.19109010696411">
        <ele>814</ele>
        <time>2019-05-11T22:55:49Z</time>
      </trkpt>
      <trkpt lat="36.8190231323242" lon="-5.19106483459473">
        <ele>814</ele>
        <time>2019-05-11T22:55:51Z</time>
      </trkpt>
      <trkpt lat="36.819019317627" lon="-5.1910400390625">
        <ele>814</ele>
        <time>2019-05-11T22:55:53Z</time>
      </trkpt>
      <trkpt lat="36.8190116882324" lon="-5.19101715087891">
        <ele>814</ele>
        <time>2019-05-11T22:55:55Z</time>
      </trkpt>
      <trkpt lat="36.8190116882324" lon="-5.19099521636963">
        <ele>814</ele>
        <time>2019-05-11T22:55:57Z</time>
      </trkpt>
      <trkpt lat="36.8190116882324" lon="-5.19097518920898">
        <ele>814</ele>
        <time>2019-05-11T22:55:59Z</time>
      </trkpt>
      <trkpt lat="36.8190116882324" lon="-5.19095706939697">
        <ele>814</ele>
        <time>2019-05-11T22:56:01Z</time>
      </trkpt>
      <trkpt lat="36.8190078735352" lon="-5.19093322753906">
        <ele>814</ele>
        <time>2019-05-11T22:56:03Z</time>
      </trkpt>
      <trkpt lat="36.8190040588379" lon="-5.19090795516968">
        <ele>814</ele>
        <time>2019-05-11T22:56:05Z</time>
      </trkpt>
      <trkpt lat="36.8189964294434" lon="-5.19088315963745">
        <ele>814</ele>
        <time>2019-05-11T22:56:07Z</time>
      </trkpt>
      <trkpt lat="36.8189926147461" lon="-5.19085788726807">
        <ele>814</ele>
        <time>2019-05-11T22:56:09Z</time>
      </trkpt>
      <trkpt lat="36.8189888000488" lon="-5.19083309173584">
        <ele>814</ele>
        <time>2019-05-11T22:56:11Z</time>
      </trkpt>
      <trkpt lat="36.8189888000488" lon="-5.19080781936646">
        <ele>814</ele>
        <time>2019-05-11T22:56:13Z</time>
      </trkpt>
      <trkpt lat="36.8189811706543" lon="-5.19078207015991">
        <ele>814</ele>
        <time>2019-05-11T22:56:15Z</time>
      </trkpt>
      <trkpt lat="36.818977355957" lon="-5.19075679779053">
        <ele>814</ele>
        <time>2019-05-11T22:56:17Z</time>
      </trkpt>
      <trkpt lat="36.8189697265625" lon="-5.19072008132935">
        <ele>814</ele>
        <time>2019-05-11T22:56:19Z</time>
      </trkpt>
      <trkpt lat="36.8189582824707" lon="-5.19069719314575">
        <ele>814</ele>
        <time>2019-05-11T22:56:21Z</time>
      </trkpt>
      <trkpt lat="36.8189506530762" lon="-5.19067001342773">
        <ele>814</ele>
        <time>2019-05-11T22:56:24Z</time>
      </trkpt>
      <trkpt lat="36.8189468383789" lon="-5.1906418800354">
        <ele>814</ele>
        <time>2019-05-11T22:56:26Z</time>
      </trkpt>
      <trkpt lat="36.8189392089844" lon="-5.19061279296875">
        <ele>814</ele>
        <time>2019-05-11T22:56:28Z</time>
      </trkpt>
      <trkpt lat="36.8189315795898" lon="-5.19058799743652">
        <ele>814</ele>
        <time>2019-05-11T22:56:30Z</time>
      </trkpt>
      <trkpt lat="36.8189277648926" lon="-5.1905632019043">
        <ele>814</ele>
        <time>2019-05-11T22:56:32Z</time>
      </trkpt>
      <trkpt lat="36.8189239501953" lon="-5.19053983688354">
        <ele>814</ele>
        <time>2019-05-11T22:56:34Z</time>
      </trkpt>
      <trkpt lat="36.818920135498" lon="-5.19051218032837">
        <ele>814</ele>
        <time>2019-05-11T22:56:36Z</time>
      </trkpt>
      <trkpt lat="36.8189163208008" lon="-5.19048500061035">
        <ele>814</ele>
        <time>2019-05-11T22:56:38Z</time>
      </trkpt>
      <trkpt lat="36.8189125061035" lon="-5.19046211242676">
        <ele>814</ele>
        <time>2019-05-11T22:56:40Z</time>
      </trkpt>
      <trkpt lat="36.8189086914062" lon="-5.19043493270874">
        <ele>814</ele>
        <time>2019-05-11T22:56:42Z</time>
      </trkpt>
      <trkpt lat="36.8189086914062" lon="-5.19040822982788">
        <ele>814</ele>
        <time>2019-05-11T22:56:44Z</time>
      </trkpt>
      <trkpt lat="36.8189086914062" lon="-5.19038009643555">
        <ele>814</ele>
        <time>2019-05-11T22:56:46Z</time>
      </trkpt>
      <trkpt lat="36.8189086914062" lon="-5.19035291671753">
        <ele>814</ele>
        <time>2019-05-11T22:56:48Z</time>
      </trkpt>
      <trkpt lat="36.8189086914062" lon="-5.1903281211853">
        <ele>814</ele>
        <time>2019-05-11T22:56:50Z</time>
      </trkpt>
      <trkpt lat="36.818904876709" lon="-5.19030284881592">
        <ele>814</ele>
        <time>2019-05-11T22:56:52Z</time>
      </trkpt>
      <trkpt lat="36.818904876709" lon="-5.19027996063232">
        <ele>814</ele>
        <time>2019-05-11T22:56:54Z</time>
      </trkpt>
      <trkpt lat="36.8189010620117" lon="-5.19025182723999">
        <ele>814</ele>
        <time>2019-05-11T22:56:56Z</time>
      </trkpt>
      <trkpt lat="36.8188934326172" lon="-5.1902117729187">
        <ele>814</ele>
        <time>2019-05-11T22:56:58Z</time>
      </trkpt>
      <trkpt lat="36.8188896179199" lon="-5.19018316268921">
        <ele>814</ele>
        <time>2019-05-11T22:57:00Z</time>
      </trkpt>
      <trkpt lat="36.8188819885254" lon="-5.19015502929688">
        <ele>814</ele>
        <time>2019-05-11T22:57:03Z</time>
      </trkpt>
      <trkpt lat="36.8188781738281" lon="-5.19012689590454">
        <ele>814</ele>
        <time>2019-05-11T22:57:05Z</time>
      </trkpt>
      <trkpt lat="36.8188743591309" lon="-5.19009685516357">
        <ele>814</ele>
        <time>2019-05-11T22:57:07Z</time>
      </trkpt>
      <trkpt lat="36.8188705444336" lon="-5.19006681442261">
        <ele>814</ele>
        <time>2019-05-11T22:57:09Z</time>
      </trkpt>
      <trkpt lat="36.8188629150391" lon="-5.1900429725647">
        <ele>814</ele>
        <time>2019-05-11T22:57:11Z</time>
      </trkpt>
      <trkpt lat="36.8188552856445" lon="-5.19001293182373">
        <ele>814</ele>
        <time>2019-05-11T22:57:13Z</time>
      </trkpt>
      <trkpt lat="36.81884765625" lon="-5.18998718261719">
        <ele>814</ele>
        <time>2019-05-11T22:57:15Z</time>
      </trkpt>
      <trkpt lat="36.81884765625" lon="-5.1899619102478">
        <ele>814</ele>
        <time>2019-05-11T22:57:17Z</time>
      </trkpt>
      <trkpt lat="36.8188438415527" lon="-5.18993520736694">
        <ele>814</ele>
        <time>2019-05-11T22:57:19Z</time>
      </trkpt>
      <trkpt lat="36.8188438415527" lon="-5.18990516662598">
        <ele>814</ele>
        <time>2019-05-11T22:57:21Z</time>
      </trkpt>
      <trkpt lat="36.8188438415527" lon="-5.18987798690796">
        <ele>814</ele>
        <time>2019-05-11T22:57:23Z</time>
      </trkpt>
      <trkpt lat="36.8188362121582" lon="-5.18985223770142">
        <ele>815</ele>
        <time>2019-05-11T22:57:25Z</time>
      </trkpt>
      <trkpt lat="36.8188285827637" lon="-5.18982315063477">
        <ele>815</ele>
        <time>2019-05-11T22:57:27Z</time>
      </trkpt>
      <trkpt lat="36.8188247680664" lon="-5.18979692459106">
        <ele>815</ele>
        <time>2019-05-11T22:57:29Z</time>
      </trkpt>
      <trkpt lat="36.8188209533691" lon="-5.1897702217102">
        <ele>815</ele>
        <time>2019-05-11T22:57:31Z</time>
      </trkpt>
      <trkpt lat="36.8188133239746" lon="-5.18974208831787">
        <ele>815</ele>
        <time>2019-05-11T22:57:33Z</time>
      </trkpt>
      <trkpt lat="36.8188056945801" lon="-5.18970012664795">
        <ele>815</ele>
        <time>2019-05-11T22:57:35Z</time>
      </trkpt>
      <trkpt lat="36.8188018798828" lon="-5.18967199325562">
        <ele>815</ele>
        <time>2019-05-11T22:57:37Z</time>
      </trkpt>
      <trkpt lat="36.8187980651856" lon="-5.18964195251465">
        <ele>815</ele>
        <time>2019-05-11T22:57:40Z</time>
      </trkpt>
      <trkpt lat="36.8187942504883" lon="-5.18961000442505">
        <ele>815</ele>
        <time>2019-05-11T22:57:42Z</time>
      </trkpt>
      <trkpt lat="36.818790435791" lon="-5.18957996368408">
        <ele>815</ele>
        <time>2019-05-11T22:57:44Z</time>
      </trkpt>
      <trkpt lat="36.818790435791" lon="-5.18955183029175">
        <ele>815</ele>
        <time>2019-05-11T22:57:46Z</time>
      </trkpt>
      <trkpt lat="36.818790435791" lon="-5.18952798843384">
        <ele>815</ele>
        <time>2019-05-11T22:57:48Z</time>
      </trkpt>
      <trkpt lat="36.818790435791" lon="-5.18950986862183">
        <ele>815</ele>
        <time>2019-05-11T22:57:50Z</time>
      </trkpt>
      <trkpt lat="36.8187866210938" lon="-5.18948984146118">
        <ele>815</ele>
        <time>2019-05-11T22:57:52Z</time>
      </trkpt>
      <trkpt lat="36.8187866210938" lon="-5.18946313858032">
        <ele>815</ele>
        <time>2019-05-11T22:57:54Z</time>
      </trkpt>
      <trkpt lat="36.8187866210938" lon="-5.18943691253662">
        <ele>815</ele>
        <time>2019-05-11T22:57:56Z</time>
      </trkpt>
      <trkpt lat="36.8187866210938" lon="-5.18941020965576">
        <ele>816</ele>
        <time>2019-05-11T22:57:58Z</time>
      </trkpt>
      <trkpt lat="36.8187828063965" lon="-5.18938779830933">
        <ele>817</ele>
        <time>2019-05-11T22:58:00Z</time>
      </trkpt>
      <trkpt lat="36.8187866210938" lon="-5.1893630027771">
        <ele>818</ele>
        <time>2019-05-11T22:58:02Z</time>
      </trkpt>
      <trkpt lat="36.8187866210938" lon="-5.1893367767334">
        <ele>820</ele>
        <time>2019-05-11T22:58:04Z</time>
      </trkpt>
      <trkpt lat="36.8187866210938" lon="-5.18931198120117">
        <ele>821</ele>
        <time>2019-05-11T22:58:06Z</time>
      </trkpt>
      <trkpt lat="36.8187866210938" lon="-5.18928003311157">
        <ele>822</ele>
        <time>2019-05-11T22:58:08Z</time>
      </trkpt>
      <trkpt lat="36.818790435791" lon="-5.18924808502197">
        <ele>823</ele>
        <time>2019-05-11T22:58:10Z</time>
      </trkpt>
      <trkpt lat="36.8187942504883" lon="-5.18920803070068">
        <ele>823</ele>
        <time>2019-05-11T22:58:12Z</time>
      </trkpt>
      <trkpt lat="36.8187980651856" lon="-5.18917989730835">
        <ele>823</ele>
        <time>2019-05-11T22:58:15Z</time>
      </trkpt>
      <trkpt lat="36.8188018798828" lon="-5.18914985656738">
        <ele>823</ele>
        <time>2019-05-11T22:58:17Z</time>
      </trkpt>
      <trkpt lat="36.8188018798828" lon="-5.18912506103516">
        <ele>823</ele>
        <time>2019-05-11T22:58:19Z</time>
      </trkpt>
      <trkpt lat="36.8188018798828" lon="-5.18910503387451">
        <ele>823</ele>
        <time>2019-05-11T22:58:21Z</time>
      </trkpt>
      <trkpt lat="36.8188056945801" lon="-5.18908023834228">
        <ele>823</ele>
        <time>2019-05-11T22:58:23Z</time>
      </trkpt>
      <trkpt lat="36.8188056945801" lon="-5.18905305862427">
        <ele>823</ele>
        <time>2019-05-11T22:58:25Z</time>
      </trkpt>
      <trkpt lat="36.8188133239746" lon="-5.18903017044067">
        <ele>823</ele>
        <time>2019-05-11T22:58:27Z</time>
      </trkpt>
      <trkpt lat="36.8188171386719" lon="-5.18900489807129">
        <ele>823</ele>
        <time>2019-05-11T22:58:29Z</time>
      </trkpt>
      <trkpt lat="36.8188209533691" lon="-5.18897676467896">
        <ele>823</ele>
        <time>2019-05-11T22:58:31Z</time>
      </trkpt>
      <trkpt lat="36.8188171386719" lon="-5.18894815444946">
        <ele>823</ele>
        <time>2019-05-11T22:58:33Z</time>
      </trkpt>
      <trkpt lat="36.8188209533691" lon="-5.1889271736145">
        <ele>823</ele>
        <time>2019-05-11T22:58:35Z</time>
      </trkpt>
      <trkpt lat="36.8188171386719" lon="-5.18890285491943">
        <ele>823</ele>
        <time>2019-05-11T22:58:37Z</time>
      </trkpt>
      <trkpt lat="36.8188133239746" lon="-5.18887805938721">
        <ele>823</ele>
        <time>2019-05-11T22:58:39Z</time>
      </trkpt>
      <trkpt lat="36.8188171386719" lon="-5.18884801864624">
        <ele>823</ele>
        <time>2019-05-11T22:58:41Z</time>
      </trkpt>
      <trkpt lat="36.8188209533691" lon="-5.18882179260254">
        <ele>823</ele>
        <time>2019-05-11T22:58:43Z</time>
      </trkpt>
      <trkpt lat="36.8188209533691" lon="-5.18879222869873">
        <ele>823</ele>
        <time>2019-05-11T22:58:45Z</time>
      </trkpt>
      <trkpt lat="36.8188209533691" lon="-5.18874311447144">
        <ele>823</ele>
        <time>2019-05-11T22:58:47Z</time>
      </trkpt>
      <trkpt lat="36.8188247680664" lon="-5.18871307373047">
        <ele>823</ele>
        <time>2019-05-11T22:58:49Z</time>
      </trkpt>
      <trkpt lat="36.8188285827637" lon="-5.18868207931519">
        <ele>823</ele>
        <time>2019-05-11T22:58:52Z</time>
      </trkpt>
      <trkpt lat="36.8188285827637" lon="-5.18865299224854">
        <ele>823</ele>
        <time>2019-05-11T22:58:54Z</time>
      </trkpt>
      <trkpt lat="36.8188323974609" lon="-5.1886248588562">
        <ele>823</ele>
        <time>2019-05-11T22:58:56Z</time>
      </trkpt>
      <trkpt lat="36.8188362121582" lon="-5.18859195709228">
        <ele>823</ele>
        <time>2019-05-11T22:58:58Z</time>
      </trkpt>
      <trkpt lat="36.8188400268555" lon="-5.18856191635132">
        <ele>823</ele>
        <time>2019-05-11T22:59:00Z</time>
      </trkpt>
      <trkpt lat="36.8188438415527" lon="-5.18852996826172">
        <ele>823</ele>
        <time>2019-05-11T22:59:02Z</time>
      </trkpt>
      <trkpt lat="36.8188438415527" lon="-5.18849802017212">
        <ele>823</ele>
        <time>2019-05-11T22:59:04Z</time>
      </trkpt>
      <trkpt lat="36.8188438415527" lon="-5.18846702575684">
        <ele>823</ele>
        <time>2019-05-11T22:59:06Z</time>
      </trkpt>
      <trkpt lat="36.8188438415527" lon="-5.18843793869019">
        <ele>823</ele>
        <time>2019-05-11T22:59:08Z</time>
      </trkpt>
      <trkpt lat="36.8188438415527" lon="-5.18841314315796">
        <ele>823</ele>
        <time>2019-05-11T22:59:10Z</time>
      </trkpt>
      <trkpt lat="36.8188438415527" lon="-5.18838310241699">
        <ele>823</ele>
        <time>2019-05-11T22:59:12Z</time>
      </trkpt>
      <trkpt lat="36.8188362121582" lon="-5.18835306167603">
        <ele>823</ele>
        <time>2019-05-11T22:59:14Z</time>
      </trkpt>
      <trkpt lat="36.8188400268555" lon="-5.18832206726074">
        <ele>823</ele>
        <time>2019-05-11T22:59:16Z</time>
      </trkpt>
      <trkpt lat="36.8188438415527" lon="-5.18829202651978">
        <ele>823</ele>
        <time>2019-05-11T22:59:18Z</time>
      </trkpt>
      <trkpt lat="36.8188438415527" lon="-5.18825817108154">
        <ele>823</ele>
        <time>2019-05-11T22:59:20Z</time>
      </trkpt>
      <trkpt lat="36.8188438415527" lon="-5.18822717666626">
        <ele>823</ele>
        <time>2019-05-11T22:59:22Z</time>
      </trkpt>
      <trkpt lat="36.8188400268555" lon="-5.18819522857666">
        <ele>823</ele>
        <time>2019-05-11T22:59:24Z</time>
      </trkpt>
      <trkpt lat="36.8188438415527" lon="-5.18814706802368">
        <ele>823</ele>
        <time>2019-05-11T22:59:26Z</time>
      </trkpt>
      <trkpt lat="36.8188438415527" lon="-5.18811321258545">
        <ele>823</ele>
        <time>2019-05-11T22:59:29Z</time>
      </trkpt>
      <trkpt lat="36.8188438415527" lon="-5.18808221817017">
        <ele>823</ele>
        <time>2019-05-11T22:59:31Z</time>
      </trkpt>
      <trkpt lat="36.8188438415527" lon="-5.1880521774292">
        <ele>823</ele>
        <time>2019-05-11T22:59:33Z</time>
      </trkpt>
      <trkpt lat="36.8188438415527" lon="-5.18802213668823">
        <ele>823</ele>
        <time>2019-05-11T22:59:35Z</time>
      </trkpt>
      <trkpt lat="36.81884765625" lon="-5.18799209594727">
        <ele>823</ele>
        <time>2019-05-11T22:59:37Z</time>
      </trkpt>
      <trkpt lat="36.8188514709473" lon="-5.1879620552063">
        <ele>823</ele>
        <time>2019-05-11T22:59:39Z</time>
      </trkpt>
      <trkpt lat="36.8188514709473" lon="-5.18793201446533">
        <ele>823</ele>
        <time>2019-05-11T22:59:41Z</time>
      </trkpt>
      <trkpt lat="36.8188552856445" lon="-5.1878981590271">
        <ele>823</ele>
        <time>2019-05-11T22:59:43Z</time>
      </trkpt>
      <trkpt lat="36.8188552856445" lon="-5.18786716461182">
        <ele>823</ele>
        <time>2019-05-11T22:59:45Z</time>
      </trkpt>
      <trkpt lat="36.8188514709473" lon="-5.18783712387085">
        <ele>823</ele>
        <time>2019-05-11T22:59:47Z</time>
      </trkpt>
      <trkpt lat="36.8188552856445" lon="-5.18780517578125">
        <ele>823</ele>
        <time>2019-05-11T22:59:49Z</time>
      </trkpt>
      <trkpt lat="36.8188552856445" lon="-5.18777513504028">
        <ele>823</ele>
        <time>2019-05-11T22:59:51Z</time>
      </trkpt>
      <trkpt lat="36.8188552856445" lon="-5.18774700164795">
        <ele>823</ele>
        <time>2019-05-11T22:59:53Z</time>
      </trkpt>
      <trkpt lat="36.8188552856445" lon="-5.18771982192993">
        <ele>823</ele>
        <time>2019-05-11T22:59:55Z</time>
      </trkpt>
      <trkpt lat="36.8188591003418" lon="-5.18769216537476">
        <ele>823</ele>
        <time>2019-05-11T22:59:57Z</time>
      </trkpt>
      <trkpt lat="36.8188591003418" lon="-5.18766307830811">
        <ele>823</ele>
        <time>2019-05-11T22:59:59Z</time>
      </trkpt>
      <trkpt lat="36.8188591003418" lon="-5.1876368522644">
        <ele>823</ele>
        <time>2019-05-11T23:00:01Z</time>
      </trkpt>
      <trkpt lat="36.8188552856445" lon="-5.18761205673218">
        <ele>823</ele>
        <time>2019-05-11T23:00:03Z</time>
      </trkpt>
      <trkpt lat="36.8188591003418" lon="-5.18757486343384">
        <ele>823</ele>
        <time>2019-05-11T23:00:05Z</time>
      </trkpt>
      <trkpt lat="36.8188552856445" lon="-5.18755006790161">
        <ele>823</ele>
        <time>2019-05-11T23:00:07Z</time>
      </trkpt>
      <trkpt lat="36.8188552856445" lon="-5.18752479553223">
        <ele>823</ele>
        <time>2019-05-11T23:00:09Z</time>
      </trkpt>
      <trkpt lat="36.8188552856445" lon="-5.18749809265137">
        <ele>823</ele>
        <time>2019-05-11T23:00:12Z</time>
      </trkpt>
      <trkpt lat="36.8188591003418" lon="-5.18747282028198">
        <ele>823</ele>
        <time>2019-05-11T23:00:14Z</time>
      </trkpt>
      <trkpt lat="36.8188591003418" lon="-5.18744802474976">
        <ele>823</ele>
        <time>2019-05-11T23:00:16Z</time>
      </trkpt>
      <trkpt lat="36.8188629150391" lon="-5.18741798400879">
        <ele>823</ele>
        <time>2019-05-11T23:00:18Z</time>
      </trkpt>
      <trkpt lat="36.8188667297363" lon="-5.18738985061646">
        <ele>823</ele>
        <time>2019-05-11T23:00:20Z</time>
      </trkpt>
      <trkpt lat="36.8188705444336" lon="-5.1873631477356">
        <ele>823</ele>
        <time>2019-05-11T23:00:22Z</time>
      </trkpt>
      <trkpt lat="36.8188781738281" lon="-5.18733501434326">
        <ele>822</ele>
        <time>2019-05-11T23:00:24Z</time>
      </trkpt>
      <trkpt lat="36.8188781738281" lon="-5.18730783462524">
        <ele>821</ele>
        <time>2019-05-11T23:00:26Z</time>
      </trkpt>
      <trkpt lat="36.8188819885254" lon="-5.1872820854187">
        <ele>821</ele>
        <time>2019-05-11T23:00:28Z</time>
      </trkpt>
      <trkpt lat="36.8188819885254" lon="-5.18725490570068">
        <ele>821</ele>
        <time>2019-05-11T23:00:30Z</time>
      </trkpt>
      <trkpt lat="36.8188819885254" lon="-5.18722295761108">
        <ele>821</ele>
        <time>2019-05-11T23:00:32Z</time>
      </trkpt>
      <trkpt lat="36.8188781738281" lon="-5.18719291687012">
        <ele>821</ele>
        <time>2019-05-11T23:00:34Z</time>
      </trkpt>
      <trkpt lat="36.8188781738281" lon="-5.18716478347778">
        <ele>821</ele>
        <time>2019-05-11T23:00:36Z</time>
      </trkpt>
      <trkpt lat="36.8188743591309" lon="-5.18713998794556">
        <ele>821</ele>
        <time>2019-05-11T23:00:38Z</time>
      </trkpt>
      <trkpt lat="36.8188705444336" lon="-5.18711709976196">
        <ele>821</ele>
        <time>2019-05-11T23:00:40Z</time>
      </trkpt>
      <trkpt lat="36.8188667297363" lon="-5.18708801269531">
        <ele>821</ele>
        <time>2019-05-11T23:00:42Z</time>
      </trkpt>
      <trkpt lat="36.8188629150391" lon="-5.18704986572266">
        <ele>821</ele>
        <time>2019-05-11T23:00:44Z</time>
      </trkpt>
      <trkpt lat="36.8188552856445" lon="-5.18701791763306">
        <ele>821</ele>
        <time>2019-05-11T23:00:46Z</time>
      </trkpt>
      <trkpt lat="36.8188514709473" lon="-5.18698978424072">
        <ele>821</ele>
        <time>2019-05-11T23:00:49Z</time>
      </trkpt>
      <trkpt lat="36.8188514709473" lon="-5.18696212768555">
        <ele>821</ele>
        <time>2019-05-11T23:00:51Z</time>
      </trkpt>
      <trkpt lat="36.8188438415527" lon="-5.18693685531616">
        <ele>821</ele>
        <time>2019-05-11T23:00:53Z</time>
      </trkpt>
      <trkpt lat="36.8188438415527" lon="-5.18691205978394">
        <ele>821</ele>
        <time>2019-05-11T23:00:55Z</time>
      </trkpt>
      <trkpt lat="36.8188362121582" lon="-5.18688821792603">
        <ele>821</ele>
        <time>2019-05-11T23:00:57Z</time>
      </trkpt>
      <trkpt lat="36.8188285827637" lon="-5.18686294555664">
        <ele>821</ele>
        <time>2019-05-11T23:00:59Z</time>
      </trkpt>
      <trkpt lat="36.8188171386719" lon="-5.1868371963501">
        <ele>821</ele>
        <time>2019-05-11T23:01:01Z</time>
      </trkpt>
      <trkpt lat="36.8188056945801" lon="-5.18681192398071">
        <ele>821</ele>
        <time>2019-05-11T23:01:03Z</time>
      </trkpt>
      <trkpt lat="36.8187942504883" lon="-5.18678712844849">
        <ele>821</ele>
        <time>2019-05-11T23:01:05Z</time>
      </trkpt>
      <trkpt lat="36.8187828063965" lon="-5.18676280975342">
        <ele>822</ele>
        <time>2019-05-11T23:01:07Z</time>
      </trkpt>
      <trkpt lat="36.8187713623047" lon="-5.18673706054688">
        <ele>823</ele>
        <time>2019-05-11T23:01:09Z</time>
      </trkpt>
      <trkpt lat="36.8187637329102" lon="-5.18670988082886">
        <ele>824</ele>
        <time>2019-05-11T23:01:11Z</time>
      </trkpt>
      <trkpt lat="36.8187484741211" lon="-5.18668222427368">
        <ele>825</ele>
        <time>2019-05-11T23:01:13Z</time>
      </trkpt>
      <trkpt lat="36.8187370300293" lon="-5.1866569519043">
        <ele>826</ele>
        <time>2019-05-11T23:01:15Z</time>
      </trkpt>
      <trkpt lat="36.8187294006348" lon="-5.18663215637207">
        <ele>826</ele>
        <time>2019-05-11T23:01:17Z</time>
      </trkpt>
      <trkpt lat="36.818717956543" lon="-5.18659496307373">
        <ele>827</ele>
        <time>2019-05-11T23:01:19Z</time>
      </trkpt>
      <trkpt lat="36.8187065124512" lon="-5.18657302856445">
        <ele>827</ele>
        <time>2019-05-11T23:01:21Z</time>
      </trkpt>
      <trkpt lat="36.8186988830566" lon="-5.18655014038086">
        <ele>827</ele>
        <time>2019-05-11T23:01:24Z</time>
      </trkpt>
      <trkpt lat="36.8186912536621" lon="-5.18652486801147">
        <ele>827</ele>
        <time>2019-05-11T23:01:26Z</time>
      </trkpt>
      <trkpt lat="36.8186874389648" lon="-5.18650197982788">
        <ele>827</ele>
        <time>2019-05-11T23:01:28Z</time>
      </trkpt>
      <trkpt lat="36.8186798095703" lon="-5.18647718429565">
        <ele>827</ele>
        <time>2019-05-11T23:01:30Z</time>
      </trkpt>
      <trkpt lat="36.818675994873" lon="-5.18645286560059">
        <ele>827</ele>
        <time>2019-05-11T23:01:32Z</time>
      </trkpt>
      <trkpt lat="36.8186683654785" lon="-5.18642807006836">
        <ele>827</ele>
        <time>2019-05-11T23:01:34Z</time>
      </trkpt>
      <trkpt lat="36.818660736084" lon="-5.1864070892334">
        <ele>827</ele>
        <time>2019-05-11T23:01:36Z</time>
      </trkpt>
      <trkpt lat="36.8186531066894" lon="-5.18638515472412">
        <ele>827</ele>
        <time>2019-05-11T23:01:38Z</time>
      </trkpt>
      <trkpt lat="36.8186416625977" lon="-5.18636322021484">
        <ele>827</ele>
        <time>2019-05-11T23:01:40Z</time>
      </trkpt>
      <trkpt lat="36.8186378479004" lon="-5.1863431930542">
        <ele>826</ele>
        <time>2019-05-11T23:01:42Z</time>
      </trkpt>
      <trkpt lat="36.8186264038086" lon="-5.18632793426514">
        <ele>826</ele>
        <time>2019-05-11T23:01:44Z</time>
      </trkpt>
      <trkpt lat="36.8186111450195" lon="-5.18630790710449">
        <ele>826</ele>
        <time>2019-05-11T23:01:46Z</time>
      </trkpt>
      <trkpt lat="36.818603515625" lon="-5.18628787994385">
        <ele>826</ele>
        <time>2019-05-11T23:01:48Z</time>
      </trkpt>
      <trkpt lat="36.8185958862305" lon="-5.1862621307373">
        <ele>826</ele>
        <time>2019-05-11T23:01:50Z</time>
      </trkpt>
      <trkpt lat="36.8185882568359" lon="-5.18623781204224">
        <ele>826</ele>
        <time>2019-05-11T23:01:52Z</time>
      </trkpt>
      <trkpt lat="36.8185768127441" lon="-5.18621683120728">
        <ele>826</ele>
        <time>2019-05-11T23:01:54Z</time>
      </trkpt>
      <trkpt lat="36.8185691833496" lon="-5.18618822097778">
        <ele>826</ele>
        <time>2019-05-11T23:01:56Z</time>
      </trkpt>
      <trkpt lat="36.8185615539551" lon="-5.18617010116577">
        <ele>826</ele>
        <time>2019-05-11T23:01:59Z</time>
      </trkpt>
      <trkpt lat="36.8185577392578" lon="-5.18615198135376">
        <ele>826</ele>
        <time>2019-05-11T23:02:01Z</time>
      </trkpt>
      <trkpt lat="36.818546295166" lon="-5.18612813949585">
        <ele>826</ele>
        <time>2019-05-11T23:02:03Z</time>
      </trkpt>
      <trkpt lat="36.8185424804688" lon="-5.18610715866089">
        <ele>826</ele>
        <time>2019-05-11T23:02:05Z</time>
      </trkpt>
      <trkpt lat="36.8185348510742" lon="-5.18608713150024">
        <ele>826</ele>
        <time>2019-05-11T23:02:07Z</time>
      </trkpt>
      <trkpt lat="36.8185234069824" lon="-5.1860671043396">
        <ele>826</ele>
        <time>2019-05-11T23:02:09Z</time>
      </trkpt>
      <trkpt lat="36.8185195922852" lon="-5.18604516983032">
        <ele>826</ele>
        <time>2019-05-11T23:02:11Z</time>
      </trkpt>
      <trkpt lat="36.8185119628906" lon="-5.18602180480957">
        <ele>826</ele>
        <time>2019-05-11T23:02:13Z</time>
      </trkpt>
      <trkpt lat="36.8185043334961" lon="-5.18599700927734">
        <ele>826</ele>
        <time>2019-05-11T23:02:15Z</time>
      </trkpt>
      <trkpt lat="36.8184967041016" lon="-5.18596792221069">
        <ele>826</ele>
        <time>2019-05-11T23:02:17Z</time>
      </trkpt>
      <trkpt lat="36.818489074707" lon="-5.18593788146973">
        <ele>826</ele>
        <time>2019-05-11T23:02:19Z</time>
      </trkpt>
      <trkpt lat="36.8184814453125" lon="-5.1859130859375">
        <ele>826</ele>
        <time>2019-05-11T23:02:21Z</time>
      </trkpt>
      <trkpt lat="36.818473815918" lon="-5.18588495254517">
        <ele>826</ele>
        <time>2019-05-11T23:02:23Z</time>
      </trkpt>
      <trkpt lat="36.8184661865234" lon="-5.18585681915283">
        <ele>826</ele>
        <time>2019-05-11T23:02:25Z</time>
      </trkpt>
      <trkpt lat="36.8184585571289" lon="-5.18583202362061">
        <ele>826</ele>
        <time>2019-05-11T23:02:27Z</time>
      </trkpt>
      <trkpt lat="36.8184547424316" lon="-5.18580293655396">
        <ele>826</ele>
        <time>2019-05-11T23:02:29Z</time>
      </trkpt>
      <trkpt lat="36.8184432983398" lon="-5.18575477600098">
        <ele>826</ele>
        <time>2019-05-11T23:02:31Z</time>
      </trkpt>
      <trkpt lat="36.8184394836426" lon="-5.18572282791138">
        <ele>826</ele>
        <time>2019-05-11T23:02:33Z</time>
      </trkpt>
      <trkpt lat="36.818431854248" lon="-5.18569183349609">
        <ele>826</ele>
        <time>2019-05-11T23:02:36Z</time>
      </trkpt>
      <trkpt lat="36.8184242248535" lon="-5.18565797805786">
        <ele>826</ele>
        <time>2019-05-11T23:02:38Z</time>
      </trkpt>
      <trkpt lat="36.818416595459" lon="-5.18562507629394">
        <ele>826</ele>
        <time>2019-05-11T23:02:40Z</time>
      </trkpt>
      <trkpt lat="36.8184051513672" lon="-5.18559312820435">
        <ele>826</ele>
        <time>2019-05-11T23:02:42Z</time>
      </trkpt>
      <trkpt lat="36.8183975219727" lon="-5.18556499481201">
        <ele>826</ele>
        <time>2019-05-11T23:02:44Z</time>
      </trkpt>
      <trkpt lat="36.8183898925781" lon="-5.18553781509399">
        <ele>826</ele>
        <time>2019-05-11T23:02:46Z</time>
      </trkpt>
      <trkpt lat="36.8183822631836" lon="-5.18551301956177">
        <ele>826</ele>
        <time>2019-05-11T23:02:48Z</time>
      </trkpt>
      <trkpt lat="36.8183784484863" lon="-5.18548679351807">
        <ele>826</ele>
        <time>2019-05-11T23:02:50Z</time>
      </trkpt>
      <trkpt lat="36.8183708190918" lon="-5.18545818328857">
        <ele>826</ele>
        <time>2019-05-11T23:02:52Z</time>
      </trkpt>
      <trkpt lat="36.8183631896973" lon="-5.18542718887329">
        <ele>826</ele>
        <time>2019-05-11T23:02:54Z</time>
      </trkpt>
      <trkpt lat="36.8183517456055" lon="-5.18539714813232">
        <ele>826</ele>
        <time>2019-05-11T23:02:56Z</time>
      </trkpt>
      <trkpt lat="36.8183441162109" lon="-5.18536806106567">
        <ele>826</ele>
        <time>2019-05-11T23:02:58Z</time>
      </trkpt>
      <trkpt lat="36.8183326721191" lon="-5.18533992767334">
        <ele>826</ele>
        <time>2019-05-11T23:03:00Z</time>
      </trkpt>
      <trkpt lat="36.8183288574219" lon="-5.18531179428101">
        <ele>826</ele>
        <time>2019-05-11T23:03:02Z</time>
      </trkpt>
      <trkpt lat="36.8183174133301" lon="-5.1852879524231">
        <ele>826</ele>
        <time>2019-05-11T23:03:04Z</time>
      </trkpt>
      <trkpt lat="36.818302154541" lon="-5.18524789810181">
        <ele>826</ele>
        <time>2019-05-11T23:03:06Z</time>
      </trkpt>
      <trkpt lat="36.8182945251465" lon="-5.18522500991821">
        <ele>826</ele>
        <time>2019-05-11T23:03:08Z</time>
      </trkpt>
      <trkpt lat="36.8182830810547" lon="-5.18519687652588">
        <ele>826</ele>
        <time>2019-05-11T23:03:11Z</time>
      </trkpt>
      <trkpt lat="36.8182754516602" lon="-5.18517017364502">
        <ele>826</ele>
        <time>2019-05-11T23:03:13Z</time>
      </trkpt>
      <trkpt lat="36.8182678222656" lon="-5.18514013290405">
        <ele>826</ele>
        <time>2019-05-11T23:03:15Z</time>
      </trkpt>
      <trkpt lat="36.8182601928711" lon="-5.18511199951172">
        <ele>826</ele>
        <time>2019-05-11T23:03:17Z</time>
      </trkpt>
      <trkpt lat="36.8182525634766" lon="-5.18508720397949">
        <ele>826</ele>
        <time>2019-05-11T23:03:19Z</time>
      </trkpt>
      <trkpt lat="36.8182411193848" lon="-5.18506193161011">
        <ele>826</ele>
        <time>2019-05-11T23:03:21Z</time>
      </trkpt>
      <trkpt lat="36.8182334899902" lon="-5.18503713607788">
        <ele>826</ele>
        <time>2019-05-11T23:03:23Z</time>
      </trkpt>
      <trkpt lat="36.8182220458984" lon="-5.1850118637085">
        <ele>826</ele>
        <time>2019-05-11T23:03:25Z</time>
      </trkpt>
      <trkpt lat="36.8182106018066" lon="-5.18498516082764">
        <ele>826</ele>
        <time>2019-05-11T23:03:27Z</time>
      </trkpt>
      <trkpt lat="36.8181953430176" lon="-5.18495798110962">
        <ele>826</ele>
        <time>2019-05-11T23:03:29Z</time>
      </trkpt>
      <trkpt lat="36.8181838989258" lon="-5.18493223190308">
        <ele>826</ele>
        <time>2019-05-11T23:03:31Z</time>
      </trkpt>
      <trkpt lat="36.818172454834" lon="-5.18490695953369">
        <ele>826</ele>
        <time>2019-05-11T23:03:33Z</time>
      </trkpt>
      <trkpt lat="36.8181610107422" lon="-5.18488216400146">
        <ele>826</ele>
        <time>2019-05-11T23:03:35Z</time>
      </trkpt>
      <trkpt lat="36.8181495666504" lon="-5.1848578453064">
        <ele>826</ele>
        <time>2019-05-11T23:03:37Z</time>
      </trkpt>
      <trkpt lat="36.8181343078613" lon="-5.1848201751709">
        <ele>826</ele>
        <time>2019-05-11T23:03:39Z</time>
      </trkpt>
      <trkpt lat="36.8181228637695" lon="-5.18479776382446">
        <ele>826</ele>
        <time>2019-05-11T23:03:41Z</time>
      </trkpt>
      <trkpt lat="36.8181076049805" lon="-5.18477487564087">
        <ele>826</ele>
        <time>2019-05-11T23:03:44Z</time>
      </trkpt>
      <trkpt lat="36.8180961608887" lon="-5.18475294113159">
        <ele>826</ele>
        <time>2019-05-11T23:03:46Z</time>
      </trkpt>
      <trkpt lat="36.8180847167969" lon="-5.184730052948">
        <ele>826</ele>
        <time>2019-05-11T23:03:48Z</time>
      </trkpt>
      <trkpt lat="36.8180732727051" lon="-5.1847071647644">
        <ele>826</ele>
        <time>2019-05-11T23:03:50Z</time>
      </trkpt>
      <trkpt lat="36.818058013916" lon="-5.18468284606934">
        <ele>826</ele>
        <time>2019-05-11T23:03:52Z</time>
      </trkpt>
      <trkpt lat="36.818042755127" lon="-5.18465805053711">
        <ele>826</ele>
        <time>2019-05-11T23:03:54Z</time>
      </trkpt>
      <trkpt lat="36.8180313110352" lon="-5.18463706970215">
        <ele>826</ele>
        <time>2019-05-11T23:03:56Z</time>
      </trkpt>
      <trkpt lat="36.8180198669434" lon="-5.1846170425415">
        <ele>826</ele>
        <time>2019-05-11T23:03:58Z</time>
      </trkpt>
      <trkpt lat="36.8180084228516" lon="-5.18459510803223">
        <ele>826</ele>
        <time>2019-05-11T23:04:00Z</time>
      </trkpt>
      <trkpt lat="36.8179931640625" lon="-5.18456983566284">
        <ele>826</ele>
        <time>2019-05-11T23:04:02Z</time>
      </trkpt>
      <trkpt lat="36.8179817199707" lon="-5.18454504013062">
        <ele>826</ele>
        <time>2019-05-11T23:04:04Z</time>
      </trkpt>
      <trkpt lat="36.8179702758789" lon="-5.18452310562134">
        <ele>826</ele>
        <time>2019-05-11T23:04:06Z</time>
      </trkpt>
      <trkpt lat="36.8179626464844" lon="-5.18449687957764">
        <ele>826</ele>
        <time>2019-05-11T23:04:08Z</time>
      </trkpt>
      <trkpt lat="36.8179512023926" lon="-5.18447494506836">
        <ele>826</ele>
        <time>2019-05-11T23:04:10Z</time>
      </trkpt>
      <trkpt lat="36.8179397583008" lon="-5.18445205688477">
        <ele>826</ele>
        <time>2019-05-11T23:04:12Z</time>
      </trkpt>
      <trkpt lat="36.8179206848144" lon="-5.18441486358643">
        <ele>826</ele>
        <time>2019-05-11T23:04:14Z</time>
      </trkpt>
      <trkpt lat="36.8179092407227" lon="-5.1843900680542">
        <ele>826</ele>
        <time>2019-05-11T23:04:16Z</time>
      </trkpt>
      <trkpt lat="36.8178939819336" lon="-5.18436479568481">
        <ele>826</ele>
        <time>2019-05-11T23:04:19Z</time>
      </trkpt>
      <trkpt lat="36.8178787231445" lon="-5.18434000015259">
        <ele>826</ele>
        <time>2019-05-11T23:04:21Z</time>
      </trkpt>
      <trkpt lat="36.8178634643555" lon="-5.18432188034058">
        <ele>827</ele>
        <time>2019-05-11T23:04:23Z</time>
      </trkpt>
      <trkpt lat="36.8178520202637" lon="-5.18430280685425">
        <ele>827</ele>
        <time>2019-05-11T23:04:25Z</time>
      </trkpt>
      <trkpt lat="36.8178405761719" lon="-5.18427991867065">
        <ele>827</ele>
        <time>2019-05-11T23:04:27Z</time>
      </trkpt>
      <trkpt lat="36.8178253173828" lon="-5.18425798416138">
        <ele>827</ele>
        <time>2019-05-11T23:04:29Z</time>
      </trkpt>
      <trkpt lat="36.8178100585938" lon="-5.18423700332642">
        <ele>827</ele>
        <time>2019-05-11T23:04:31Z</time>
      </trkpt>
      <trkpt lat="36.8177947998047" lon="-5.18421220779419">
        <ele>827</ele>
        <time>2019-05-11T23:04:33Z</time>
      </trkpt>
      <trkpt lat="36.8177757263184" lon="-5.1841869354248">
        <ele>827</ele>
        <time>2019-05-11T23:04:35Z</time>
      </trkpt>
      <trkpt lat="36.8177604675293" lon="-5.18416309356689">
        <ele>827</ele>
        <time>2019-05-11T23:04:37Z</time>
      </trkpt>
      <trkpt lat="36.8177452087402" lon="-5.18414211273193">
        <ele>827</ele>
        <time>2019-05-11T23:04:39Z</time>
      </trkpt>
      <trkpt lat="36.8177261352539" lon="-5.18411779403686">
        <ele>828</ele>
        <time>2019-05-11T23:04:41Z</time>
      </trkpt>
      <trkpt lat="36.8177108764648" lon="-5.18409299850464">
        <ele>828</ele>
        <time>2019-05-11T23:04:43Z</time>
      </trkpt>
      <trkpt lat="36.8176956176758" lon="-5.18407201766968">
        <ele>828</ele>
        <time>2019-05-11T23:04:45Z</time>
      </trkpt>
      <trkpt lat="36.8176803588867" lon="-5.18405485153198">
        <ele>828</ele>
        <time>2019-05-11T23:04:47Z</time>
      </trkpt>
      <trkpt lat="36.8176612854004" lon="-5.18404006958008">
        <ele>828</ele>
        <time>2019-05-11T23:04:49Z</time>
      </trkpt>
      <trkpt lat="36.8176345825195" lon="-5.18401479721069">
        <ele>828</ele>
        <time>2019-05-11T23:04:51Z</time>
      </trkpt>
      <trkpt lat="36.8176155090332" lon="-5.18399810791016">
        <ele>828</ele>
        <time>2019-05-11T23:04:54Z</time>
      </trkpt>
      <trkpt lat="36.8175964355469" lon="-5.18398284912109">
        <ele>828</ele>
        <time>2019-05-11T23:04:56Z</time>
      </trkpt>
      <trkpt lat="36.8175735473633" lon="-5.18396186828613">
        <ele>828</ele>
        <time>2019-05-11T23:04:58Z</time>
      </trkpt>
      <trkpt lat="36.817554473877" lon="-5.18394708633423">
        <ele>828</ele>
        <time>2019-05-11T23:05:00Z</time>
      </trkpt>
      <trkpt lat="36.8175354003906" lon="-5.18392515182495">
        <ele>828</ele>
        <time>2019-05-11T23:05:02Z</time>
      </trkpt>
      <trkpt lat="36.8175163269043" lon="-5.18390512466431">
        <ele>828</ele>
        <time>2019-05-11T23:05:04Z</time>
      </trkpt>
      <trkpt lat="36.8174934387207" lon="-5.18388795852661">
        <ele>828</ele>
        <time>2019-05-11T23:05:06Z</time>
      </trkpt>
      <trkpt lat="36.8174743652344" lon="-5.18387317657471">
        <ele>828</ele>
        <time>2019-05-11T23:05:08Z</time>
      </trkpt>
      <trkpt lat="36.8174514770508" lon="-5.18385791778564">
        <ele>828</ele>
        <time>2019-05-11T23:05:10Z</time>
      </trkpt>
      <trkpt lat="36.8174362182617" lon="-5.18384218215942">
        <ele>828</ele>
        <time>2019-05-11T23:05:12Z</time>
      </trkpt>
      <trkpt lat="36.8174171447754" lon="-5.18382501602173">
        <ele>828</ele>
        <time>2019-05-11T23:05:14Z</time>
      </trkpt>
      <trkpt lat="36.8174018859863" lon="-5.18381214141846">
        <ele>828</ele>
        <time>2019-05-11T23:05:16Z</time>
      </trkpt>
      <trkpt lat="36.8173789978027" lon="-5.18379306793213">
        <ele>828</ele>
        <time>2019-05-11T23:05:18Z</time>
      </trkpt>
      <trkpt lat="36.8173599243164" lon="-5.18377304077148">
        <ele>828</ele>
        <time>2019-05-11T23:05:20Z</time>
      </trkpt>
      <trkpt lat="36.8173408508301" lon="-5.18375205993652">
        <ele>828</ele>
        <time>2019-05-11T23:05:22Z</time>
      </trkpt>
      <trkpt lat="36.8173179626465" lon="-5.1837329864502">
        <ele>828</ele>
        <time>2019-05-11T23:05:24Z</time>
      </trkpt>
      <trkpt lat="36.8172912597656" lon="-5.18370485305786">
        <ele>828</ele>
        <time>2019-05-11T23:05:26Z</time>
      </trkpt>
      <trkpt lat="36.8172760009766" lon="-5.18368482589722">
        <ele>828</ele>
        <time>2019-05-11T23:05:28Z</time>
      </trkpt>
      <trkpt lat="36.8172569274902" lon="-5.18366718292236">
        <ele>828</ele>
        <time>2019-05-11T23:05:30Z</time>
      </trkpt>
      <trkpt lat="36.8172416687012" lon="-5.18365001678467">
        <ele>828</ele>
        <time>2019-05-11T23:05:33Z</time>
      </trkpt>
      <trkpt lat="36.8172225952148" lon="-5.18363523483276">
        <ele>828</ele>
        <time>2019-05-11T23:05:35Z</time>
      </trkpt>
      <trkpt lat="36.8171997070312" lon="-5.18361711502075">
        <ele>828</ele>
        <time>2019-05-11T23:05:37Z</time>
      </trkpt>
      <trkpt lat="36.8171806335449" lon="-5.18359994888306">
        <ele>828</ele>
        <time>2019-05-11T23:05:39Z</time>
      </trkpt>
      <trkpt lat="36.8171577453613" lon="-5.18358707427978">
        <ele>828</ele>
        <time>2019-05-11T23:05:41Z</time>
      </trkpt>
      <trkpt lat="36.817138671875" lon="-5.18356990814209">
        <ele>828</ele>
        <time>2019-05-11T23:05:43Z</time>
      </trkpt>
      <trkpt lat="36.8171195983887" lon="-5.18355703353882">
        <ele>828</ele>
        <time>2019-05-11T23:05:45Z</time>
      </trkpt>
      <trkpt lat="36.8171043395996" lon="-5.18353986740112">
        <ele>828</ele>
        <time>2019-05-11T23:05:47Z</time>
      </trkpt>
      <trkpt lat="36.8170852661133" lon="-5.18352699279785">
        <ele>828</ele>
        <time>2019-05-11T23:05:49Z</time>
      </trkpt>
      <trkpt lat="36.8170623779297" lon="-5.18350791931152">
        <ele>828</ele>
        <time>2019-05-11T23:05:51Z</time>
      </trkpt>
      <trkpt lat="36.8170433044434" lon="-5.1834921836853">
        <ele>829</ele>
        <time>2019-05-11T23:05:53Z</time>
      </trkpt>
      <trkpt lat="36.8170204162598" lon="-5.18347501754761">
        <ele>829</ele>
        <time>2019-05-11T23:05:55Z</time>
      </trkpt>
      <trkpt lat="36.8170013427734" lon="-5.18345022201538">
        <ele>829</ele>
        <time>2019-05-11T23:05:57Z</time>
      </trkpt>
      <trkpt lat="36.8169784545898" lon="-5.18342781066894">
        <ele>829</ele>
        <time>2019-05-11T23:05:59Z</time>
      </trkpt>
      <trkpt lat="36.8169593811035" lon="-5.18341302871704">
        <ele>829</ele>
        <time>2019-05-11T23:06:01Z</time>
      </trkpt>
      <trkpt lat="36.8169288635254" lon="-5.18339681625366">
        <ele>830</ele>
        <time>2019-05-11T23:06:03Z</time>
      </trkpt>
      <trkpt lat="36.8169097900391" lon="-5.18338298797607">
        <ele>830</ele>
        <time>2019-05-11T23:06:06Z</time>
      </trkpt>
      <trkpt lat="36.8168869018555" lon="-5.18337297439575">
        <ele>830</ele>
        <time>2019-05-11T23:06:08Z</time>
      </trkpt>
      <trkpt lat="36.8168716430664" lon="-5.18336009979248">
        <ele>830</ele>
        <time>2019-05-11T23:06:10Z</time>
      </trkpt>
      <trkpt lat="36.8168525695801" lon="-5.18334722518921">
        <ele>831</ele>
        <time>2019-05-11T23:06:12Z</time>
      </trkpt>
      <trkpt lat="36.816837310791" lon="-5.1833348274231">
        <ele>831</ele>
        <time>2019-05-11T23:06:14Z</time>
      </trkpt>
      <trkpt lat="36.8168182373047" lon="-5.18332195281982">
        <ele>831</ele>
        <time>2019-05-11T23:06:16Z</time>
      </trkpt>
      <trkpt lat="36.8168067932129" lon="-5.18330717086792">
        <ele>831</ele>
        <time>2019-05-11T23:06:18Z</time>
      </trkpt>
      <trkpt lat="36.8167915344238" lon="-5.18329811096191">
        <ele>831</ele>
        <time>2019-05-11T23:06:20Z</time>
      </trkpt>
      <trkpt lat="36.8167839050293" lon="-5.18329286575317">
        <ele>832</ele>
        <time>2019-05-11T23:06:22Z</time>
      </trkpt>
      <trkpt lat="36.8167724609375" lon="-5.18329000473022">
        <ele>832</ele>
        <time>2019-05-11T23:06:24Z</time>
      </trkpt>
      <trkpt lat="36.8167610168457" lon="-5.18328809738159">
        <ele>832</ele>
        <time>2019-05-11T23:06:26Z</time>
      </trkpt>
      <trkpt lat="36.8167457580566" lon="-5.18328714370728">
        <ele>832</ele>
        <time>2019-05-11T23:06:28Z</time>
      </trkpt>
      <trkpt lat="36.8167266845703" lon="-5.18329000473022">
        <ele>832</ele>
        <time>2019-05-11T23:06:30Z</time>
      </trkpt>
      <trkpt lat="36.8167152404785" lon="-5.18329191207886">
        <ele>832</ele>
        <time>2019-05-11T23:06:32Z</time>
      </trkpt>
      <trkpt lat="36.816707611084" lon="-5.18329286575317">
        <ele>832</ele>
        <time>2019-05-11T23:06:34Z</time>
      </trkpt>
      <trkpt lat="36.8166961669922" lon="-5.18329000473022">
        <ele>832</ele>
        <time>2019-05-11T23:06:36Z</time>
      </trkpt>
      <trkpt lat="36.8166961669922" lon="-5.18329191207886">
        <ele>833</ele>
        <time>2019-05-11T23:06:38Z</time>
      </trkpt>
      <trkpt lat="36.8166999816894" lon="-5.18330812454224">
        <ele>834</ele>
        <time>2019-05-11T23:06:40Z</time>
      </trkpt>
      <trkpt lat="36.8166961669922" lon="-5.18331813812256">
        <ele>836</ele>
        <time>2019-05-11T23:06:42Z</time>
      </trkpt>
      <trkpt lat="36.8166885375977" lon="-5.18332290649414">
        <ele>836</ele>
        <time>2019-05-11T23:06:45Z</time>
      </trkpt>
      <trkpt lat="36.8166809082031" lon="-5.18332481384277">
        <ele>837</ele>
        <time>2019-05-11T23:06:47Z</time>
      </trkpt>
      <trkpt lat="36.8166770935059" lon="-5.18332195281982">
        <ele>837</ele>
        <time>2019-05-11T23:06:49Z</time>
      </trkpt>
      <trkpt lat="36.8166809082031" lon="-5.18332195281982">
        <ele>838</ele>
        <time>2019-05-11T23:06:53Z</time>
      </trkpt>
      <trkpt lat="36.8166885375977" lon="-5.18331813812256">
        <ele>838</ele>
        <time>2019-05-11T23:06:55Z</time>
      </trkpt>
      <trkpt lat="36.8166847229004" lon="-5.18331813812256">
        <ele>838</ele>
        <time>2019-05-11T23:06:57Z</time>
      </trkpt>
      <trkpt lat="36.8166847229004" lon="-5.18331813812256">
        <ele>838</ele>
        <time>2019-05-11T23:06:59Z</time>
      </trkpt>
      <trkpt lat="36.8166847229004" lon="-5.18332195281982">
        <ele>838</ele>
        <time>2019-05-11T23:07:01Z</time>
      </trkpt>
      <trkpt lat="36.8166847229004" lon="-5.18332195281982">
        <ele>838</ele>
        <time>2019-05-11T23:07:03Z</time>
      </trkpt>
      <trkpt lat="36.8166847229004" lon="-5.18332195281982">
        <ele>838</ele>
        <time>2019-05-11T23:07:05Z</time>
      </trkpt>
      <trkpt lat="36.8166809082031" lon="-5.18332290649414">
        <ele>838</ele>
        <time>2019-05-11T23:07:07Z</time>
      </trkpt>
      <trkpt lat="36.8166732788086" lon="-5.18332290649414">
        <ele>838</ele>
        <time>2019-05-11T23:07:11Z</time>
      </trkpt>
      <trkpt lat="36.8166770935059" lon="-5.18333196640015">
        <ele>838</ele>
        <time>2019-05-11T23:07:13Z</time>
      </trkpt>
      <trkpt lat="36.8166732788086" lon="-5.1833381652832">
        <ele>838</ele>
        <time>2019-05-11T23:07:15Z</time>
      </trkpt>
      <trkpt lat="36.8166732788086" lon="-5.18334293365478">
        <ele>838</ele>
        <time>2019-05-11T23:07:17Z</time>
      </trkpt>
      <trkpt lat="36.8166732788086" lon="-5.18334484100342">
        <ele>838</ele>
        <time>2019-05-11T23:07:19Z</time>
      </trkpt>
      <trkpt lat="36.8166694641113" lon="-5.18334722518921">
        <ele>838</ele>
        <time>2019-05-11T23:07:21Z</time>
      </trkpt>
      <trkpt lat="36.8166694641113" lon="-5.18334484100342">
        <ele>838</ele>
        <time>2019-05-11T23:07:23Z</time>
      </trkpt>
      <trkpt lat="36.8166694641113" lon="-5.18334484100342">
        <ele>838</ele>
        <time>2019-05-11T23:07:26Z</time>
      </trkpt>
      <trkpt lat="36.8166694641113" lon="-5.18334484100342">
        <ele>838</ele>
        <time>2019-05-11T23:07:28Z</time>
      </trkpt>
      <trkpt lat="36.8166732788086" lon="-5.18334007263184">
        <ele>838</ele>
        <time>2019-05-11T23:07:30Z</time>
      </trkpt>
      <trkpt lat="36.8166847229004" lon="-5.18333292007446">
        <ele>838</ele>
        <time>2019-05-11T23:07:32Z</time>
      </trkpt>
      <trkpt lat="36.8166923522949" lon="-5.18332481384277">
        <ele>838</ele>
        <time>2019-05-11T23:07:34Z</time>
      </trkpt>
      <trkpt lat="36.8167037963867" lon="-5.18332290649414">
        <ele>838</ele>
        <time>2019-05-11T23:07:36Z</time>
      </trkpt>
      <trkpt lat="36.8167114257812" lon="-5.18332004547119">
        <ele>838</ele>
        <time>2019-05-11T23:07:38Z</time>
      </trkpt>
      <trkpt lat="36.816722869873" lon="-5.18331718444824">
        <ele>838</ele>
        <time>2019-05-11T23:07:40Z</time>
      </trkpt>
      <trkpt lat="36.816722869873" lon="-5.18332195281982">
        <ele>838</ele>
        <time>2019-05-11T23:07:42Z</time>
      </trkpt>
      <trkpt lat="36.8167266845703" lon="-5.18332290649414">
        <ele>838</ele>
        <time>2019-05-11T23:07:44Z</time>
      </trkpt>
      <trkpt lat="36.8167304992676" lon="-5.18332719802856">
        <ele>838</ele>
        <time>2019-05-11T23:07:46Z</time>
      </trkpt>
      <trkpt lat="36.8167304992676" lon="-5.18333005905151">
        <ele>838</ele>
        <time>2019-05-11T23:07:48Z</time>
      </trkpt>
      <trkpt lat="36.8167304992676" lon="-5.18333196640015">
        <ele>838</ele>
        <time>2019-05-11T23:07:50Z</time>
      </trkpt>
      <trkpt lat="36.8167343139648" lon="-5.18333292007446">
        <ele>838</ele>
        <time>2019-05-11T23:07:52Z</time>
      </trkpt>
      <trkpt lat="36.8167343139648" lon="-5.1833348274231">
        <ele>838</ele>
        <time>2019-05-11T23:07:54Z</time>
      </trkpt>
      <trkpt lat="36.8167419433594" lon="-5.18332815170288">
        <ele>838</ele>
        <time>2019-05-11T23:07:56Z</time>
      </trkpt>
      <trkpt lat="36.8167495727539" lon="-5.18333005905151">
        <ele>838</ele>
        <time>2019-05-11T23:07:58Z</time>
      </trkpt>
      <trkpt lat="36.8167533874512" lon="-5.18333196640015">
        <ele>838</ele>
        <time>2019-05-11T23:08:00Z</time>
      </trkpt>
      <trkpt lat="36.8167533874512" lon="-5.18333196640015">
        <ele>838</ele>
        <time>2019-05-11T23:08:02Z</time>
      </trkpt>
      <trkpt lat="36.8167572021484" lon="-5.18333292007446">
        <ele>838</ele>
        <time>2019-05-11T23:08:04Z</time>
      </trkpt>
      <trkpt lat="36.8167610168457" lon="-5.18333721160889">
        <ele>838</ele>
        <time>2019-05-11T23:08:06Z</time>
      </trkpt>
      <trkpt lat="36.816764831543" lon="-5.18334007263184">
        <ele>837</ele>
        <time>2019-05-11T23:08:09Z</time>
      </trkpt>
      <trkpt lat="36.8167610168457" lon="-5.18334007263184">
        <ele>836</ele>
        <time>2019-05-11T23:08:11Z</time>
      </trkpt>
      <trkpt lat="36.816764831543" lon="-5.1833381652832">
        <ele>836</ele>
        <time>2019-05-11T23:08:13Z</time>
      </trkpt>
      <trkpt lat="36.816764831543" lon="-5.18333292007446">
        <ele>836</ele>
        <time>2019-05-11T23:08:15Z</time>
      </trkpt>
      <trkpt lat="36.8167610168457" lon="-5.18332815170288">
        <ele>836</ele>
        <time>2019-05-11T23:08:17Z</time>
      </trkpt>
      <trkpt lat="36.8167610168457" lon="-5.18332481384277">
        <ele>836</ele>
        <time>2019-05-11T23:08:19Z</time>
      </trkpt>
      <trkpt lat="36.8167610168457" lon="-5.18332290649414">
        <ele>836</ele>
        <time>2019-05-11T23:08:21Z</time>
      </trkpt>
      <trkpt lat="36.8167610168457" lon="-5.18332195281982">
        <ele>836</ele>
        <time>2019-05-11T23:08:23Z</time>
      </trkpt>
      <trkpt lat="36.8167610168457" lon="-5.18331813812256">
        <ele>836</ele>
        <time>2019-05-11T23:08:25Z</time>
      </trkpt>
      <trkpt lat="36.816764831543" lon="-5.18331718444824">
        <ele>836</ele>
        <time>2019-05-11T23:08:27Z</time>
      </trkpt>
      <trkpt lat="36.816764831543" lon="-5.18331718444824">
        <ele>836</ele>
        <time>2019-05-11T23:08:29Z</time>
      </trkpt>
      <trkpt lat="36.816764831543" lon="-5.18331480026245">
        <ele>836</ele>
        <time>2019-05-11T23:08:31Z</time>
      </trkpt>
      <trkpt lat="36.816764831543" lon="-5.18331480026245">
        <ele>836</ele>
        <time>2019-05-11T23:08:33Z</time>
      </trkpt>
      <trkpt lat="36.8167610168457" lon="-5.18331289291382">
        <ele>836</ele>
        <time>2019-05-11T23:08:35Z</time>
      </trkpt>
      <trkpt lat="36.8167533874512" lon="-5.18330192565918">
        <ele>836</ele>
        <time>2019-05-11T23:08:37Z</time>
      </trkpt>
      <trkpt lat="36.8167419433594" lon="-5.18328809738159">
        <ele>837</ele>
        <time>2019-05-11T23:08:39Z</time>
      </trkpt>
      <trkpt lat="36.8167381286621" lon="-5.18326807022095">
        <ele>839</ele>
        <time>2019-05-11T23:08:41Z</time>
      </trkpt>
      <trkpt lat="36.8167381286621" lon="-5.18324708938599">
        <ele>840</ele>
        <time>2019-05-11T23:08:43Z</time>
      </trkpt>
      <trkpt lat="36.8167304992676" lon="-5.18322277069092">
        <ele>842</ele>
        <time>2019-05-11T23:08:45Z</time>
      </trkpt>
      <trkpt lat="36.816722869873" lon="-5.183189868927">
        <ele>844</ele>
        <time>2019-05-11T23:08:47Z</time>
      </trkpt>
      <trkpt lat="36.8167190551758" lon="-5.18316698074341">
        <ele>846</ele>
        <time>2019-05-11T23:08:49Z</time>
      </trkpt>
      <trkpt lat="36.8167114257812" lon="-5.18314695358276">
        <ele>848</ele>
        <time>2019-05-11T23:08:52Z</time>
      </trkpt>
      <trkpt lat="36.8167037963867" lon="-5.18312501907349">
        <ele>849</ele>
        <time>2019-05-11T23:08:54Z</time>
      </trkpt>
      <trkpt lat="36.8166885375977" lon="-5.18311023712158">
        <ele>851</ele>
        <time>2019-05-11T23:08:56Z</time>
      </trkpt>
      <trkpt lat="36.8166770935059" lon="-5.18309211730957">
        <ele>852</ele>
        <time>2019-05-11T23:08:58Z</time>
      </trkpt>
      <trkpt lat="36.8166618347168" lon="-5.18307018280029">
        <ele>854</ele>
        <time>2019-05-11T23:09:00Z</time>
      </trkpt>
      <trkpt lat="36.816650390625" lon="-5.18305015563965">
        <ele>855</ele>
        <time>2019-05-11T23:09:02Z</time>
      </trkpt>
      <trkpt lat="36.8166351318359" lon="-5.18302822113037">
        <ele>856</ele>
        <time>2019-05-11T23:09:04Z</time>
      </trkpt>
      <trkpt lat="36.8166198730469" lon="-5.18300819396973">
        <ele>856</ele>
        <time>2019-05-11T23:09:06Z</time>
      </trkpt>
      <trkpt lat="36.8166007995606" lon="-5.18299007415772">
        <ele>857</ele>
        <time>2019-05-11T23:09:08Z</time>
      </trkpt>
      <trkpt lat="36.8165855407715" lon="-5.18297004699707">
        <ele>858</ele>
        <time>2019-05-11T23:09:10Z</time>
      </trkpt>
      <trkpt lat="36.8165664672852" lon="-5.18294811248779">
        <ele>858</ele>
        <time>2019-05-11T23:09:12Z</time>
      </trkpt>
      <trkpt lat="36.8165512084961" lon="-5.18292713165283">
        <ele>859</ele>
        <time>2019-05-11T23:09:14Z</time>
      </trkpt>
      <trkpt lat="36.816535949707" lon="-5.18290281295776">
        <ele>859</ele>
        <time>2019-05-11T23:09:16Z</time>
      </trkpt>
      <trkpt lat="36.8165130615234" lon="-5.18288516998291">
        <ele>860</ele>
        <time>2019-05-11T23:09:18Z</time>
      </trkpt>
      <trkpt lat="36.8164863586426" lon="-5.18286514282227">
        <ele>860</ele>
        <time>2019-05-11T23:09:20Z</time>
      </trkpt>
      <trkpt lat="36.8164558410644" lon="-5.18283176422119">
        <ele>860</ele>
        <time>2019-05-11T23:09:22Z</time>
      </trkpt>
      <trkpt lat="36.8164367675781" lon="-5.18280792236328">
        <ele>860</ele>
        <time>2019-05-11T23:09:25Z</time>
      </trkpt>
      <trkpt lat="36.8164176940918" lon="-5.18278503417969">
        <ele>860</ele>
        <time>2019-05-11T23:09:27Z</time>
      </trkpt>
      <trkpt lat="36.8163948059082" lon="-5.1827597618103">
        <ele>860</ele>
        <time>2019-05-11T23:09:29Z</time>
      </trkpt>
      <trkpt lat="36.8163757324219" lon="-5.18273687362671">
        <ele>860</ele>
        <time>2019-05-11T23:09:31Z</time>
      </trkpt>
      <trkpt lat="36.8163528442383" lon="-5.1827130317688">
        <ele>860</ele>
        <time>2019-05-11T23:09:33Z</time>
      </trkpt>
      <trkpt lat="36.8163261413574" lon="-5.1826901435852">
        <ele>860</ele>
        <time>2019-05-11T23:09:35Z</time>
      </trkpt>
      <trkpt lat="36.8163032531738" lon="-5.18266677856445">
        <ele>860</ele>
        <time>2019-05-11T23:09:37Z</time>
      </trkpt>
      <trkpt lat="36.8162879943848" lon="-5.18264007568359">
        <ele>860</ele>
        <time>2019-05-11T23:09:39Z</time>
      </trkpt>
      <trkpt lat="36.8162651062012" lon="-5.18261480331421">
        <ele>860</ele>
        <time>2019-05-11T23:09:41Z</time>
      </trkpt>
      <trkpt lat="36.8162460327148" lon="-5.18259191513062">
        <ele>860</ele>
        <time>2019-05-11T23:09:43Z</time>
      </trkpt>
      <trkpt lat="36.8162269592285" lon="-5.18256711959839">
        <ele>860</ele>
        <time>2019-05-11T23:09:45Z</time>
      </trkpt>
      <trkpt lat="36.8162117004394" lon="-5.18253993988037">
        <ele>860</ele>
        <time>2019-05-11T23:09:47Z</time>
      </trkpt>
      <trkpt lat="36.8161888122559" lon="-5.18251514434814">
        <ele>860</ele>
        <time>2019-05-11T23:09:49Z</time>
      </trkpt>
      <trkpt lat="36.8161697387695" lon="-5.18248796463013">
        <ele>860</ele>
        <time>2019-05-11T23:09:51Z</time>
      </trkpt>
      <trkpt lat="36.8161506652832" lon="-5.1824631690979">
        <ele>860</ele>
        <time>2019-05-11T23:09:53Z</time>
      </trkpt>
      <trkpt lat="36.8161315917969" lon="-5.1824369430542">
        <ele>860</ele>
        <time>2019-05-11T23:09:55Z</time>
      </trkpt>
      <trkpt lat="36.8161087036133" lon="-5.18239498138428">
        <ele>860</ele>
        <time>2019-05-11T23:09:57Z</time>
      </trkpt>
      <trkpt lat="36.816089630127" lon="-5.18236684799194">
        <ele>860</ele>
        <time>2019-05-11T23:09:59Z</time>
      </trkpt>
      <trkpt lat="36.8160743713379" lon="-5.18233823776245">
        <ele>860</ele>
        <time>2019-05-11T23:10:02Z</time>
      </trkpt>
      <trkpt lat="36.8160591125488" lon="-5.18231201171875">
        <ele>859</ele>
        <time>2019-05-11T23:10:04Z</time>
      </trkpt>
      <trkpt lat="36.8160438537598" lon="-5.1822829246521">
        <ele>859</ele>
        <time>2019-05-11T23:10:06Z</time>
      </trkpt>
      <trkpt lat="36.8160285949707" lon="-5.18225479125977">
        <ele>859</ele>
        <time>2019-05-11T23:10:08Z</time>
      </trkpt>
      <trkpt lat="36.8160133361816" lon="-5.18222713470459">
        <ele>859</ele>
        <time>2019-05-11T23:10:10Z</time>
      </trkpt>
      <trkpt lat="36.8159980773926" lon="-5.18219804763794">
        <ele>859</ele>
        <time>2019-05-11T23:10:12Z</time>
      </trkpt>
      <trkpt lat="36.8159828186035" lon="-5.18216800689697">
        <ele>858</ele>
        <time>2019-05-11T23:10:14Z</time>
      </trkpt>
      <trkpt lat="36.8159713745117" lon="-5.18213987350464">
        <ele>858</ele>
        <time>2019-05-11T23:10:16Z</time>
      </trkpt>
      <trkpt lat="36.8159561157227" lon="-5.18211317062378">
        <ele>858</ele>
        <time>2019-05-11T23:10:18Z</time>
      </trkpt>
      <trkpt lat="36.8159484863281" lon="-5.18208503723144">
        <ele>858</ele>
        <time>2019-05-11T23:10:20Z</time>
      </trkpt>
      <trkpt lat="36.8159370422363" lon="-5.18205690383911">
        <ele>858</ele>
        <time>2019-05-11T23:10:22Z</time>
      </trkpt>
      <trkpt lat="36.8159294128418" lon="-5.18202781677246">
        <ele>858</ele>
        <time>2019-05-11T23:10:24Z</time>
      </trkpt>
      <trkpt lat="36.8159217834473" lon="-5.18200016021728">
        <ele>858</ele>
        <time>2019-05-11T23:10:26Z</time>
      </trkpt>
      <trkpt lat="36.8159103393555" lon="-5.18197202682495">
        <ele>858</ele>
        <time>2019-05-11T23:10:28Z</time>
      </trkpt>
      <trkpt lat="36.8159027099609" lon="-5.18194484710693">
        <ele>858</ele>
        <time>2019-05-11T23:10:30Z</time>
      </trkpt>
      <trkpt lat="36.8158912658691" lon="-5.18191814422607">
        <ele>858</ele>
        <time>2019-05-11T23:10:32Z</time>
      </trkpt>
      <trkpt lat="36.8158836364746" lon="-5.18189001083374">
        <ele>858</ele>
        <time>2019-05-11T23:10:34Z</time>
      </trkpt>
      <trkpt lat="36.8158760070801" lon="-5.18186187744141">
        <ele>858</ele>
        <time>2019-05-11T23:10:36Z</time>
      </trkpt>
      <trkpt lat="36.8158683776856" lon="-5.18183517456055">
        <ele>859</ele>
        <time>2019-05-11T23:10:38Z</time>
      </trkpt>
      <trkpt lat="36.8158569335938" lon="-5.18180799484253">
        <ele>860</ele>
        <time>2019-05-11T23:10:40Z</time>
      </trkpt>
      <trkpt lat="36.8158493041992" lon="-5.1817798614502">
        <ele>861</ele>
        <time>2019-05-11T23:10:42Z</time>
      </trkpt>
      <trkpt lat="36.8158340454102" lon="-5.18173694610596">
        <ele>862</ele>
        <time>2019-05-11T23:10:44Z</time>
      </trkpt>
      <trkpt lat="36.8158226013184" lon="-5.18170785903931">
        <ele>863</ele>
        <time>2019-05-11T23:10:46Z</time>
      </trkpt>
      <trkpt lat="36.8158111572266" lon="-5.18168020248413">
        <ele>863</ele>
        <time>2019-05-11T23:10:48Z</time>
      </trkpt>
      <trkpt lat="36.8157997131348" lon="-5.18165016174316">
        <ele>863</ele>
        <time>2019-05-11T23:10:51Z</time>
      </trkpt>
      <trkpt lat="36.815788269043" lon="-5.1816201210022">
        <ele>863</ele>
        <time>2019-05-11T23:10:53Z</time>
      </trkpt>
      <trkpt lat="36.8157768249512" lon="-5.18159198760986">
        <ele>863</ele>
        <time>2019-05-11T23:10:55Z</time>
      </trkpt>
      <trkpt lat="36.8157615661621" lon="-5.18156290054321">
        <ele>863</ele>
        <time>2019-05-11T23:10:57Z</time>
      </trkpt>
      <trkpt lat="36.815746307373" lon="-5.18153715133667">
        <ele>863</ele>
        <time>2019-05-11T23:10:59Z</time>
      </trkpt>
      <trkpt lat="36.8157386779785" lon="-5.1815071105957">
        <ele>863</ele>
        <time>2019-05-11T23:11:01Z</time>
      </trkpt>
      <trkpt lat="36.8157272338867" lon="-5.18147802352905">
        <ele>863</ele>
        <time>2019-05-11T23:11:03Z</time>
      </trkpt>
      <trkpt lat="36.8157157897949" lon="-5.18144989013672">
        <ele>863</ele>
        <time>2019-05-11T23:11:05Z</time>
      </trkpt>
      <trkpt lat="36.8157043457031" lon="-5.18142223358154">
        <ele>863</ele>
        <time>2019-05-11T23:11:07Z</time>
      </trkpt>
      <trkpt lat="36.8156929016113" lon="-5.18139219284058">
        <ele>863</ele>
        <time>2019-05-11T23:11:09Z</time>
      </trkpt>
      <trkpt lat="36.8156814575195" lon="-5.18136310577393">
        <ele>863</ele>
        <time>2019-05-11T23:11:11Z</time>
      </trkpt>
      <trkpt lat="36.8156700134277" lon="-5.18133306503296">
        <ele>863</ele>
        <time>2019-05-11T23:11:13Z</time>
      </trkpt>
      <trkpt lat="36.8156585693359" lon="-5.18130493164062">
        <ele>863</ele>
        <time>2019-05-11T23:11:15Z</time>
      </trkpt>
      <trkpt lat="36.8156509399414" lon="-5.18127489089966">
        <ele>863</ele>
        <time>2019-05-11T23:11:17Z</time>
      </trkpt>
      <trkpt lat="36.8156394958496" lon="-5.18124723434448">
        <ele>863</ele>
        <time>2019-05-11T23:11:19Z</time>
      </trkpt>
      <trkpt lat="36.8156318664551" lon="-5.18121814727783">
        <ele>863</ele>
        <time>2019-05-11T23:11:21Z</time>
      </trkpt>
      <trkpt lat="36.8156204223633" lon="-5.18118810653686">
        <ele>863</ele>
        <time>2019-05-11T23:11:23Z</time>
      </trkpt>
      <trkpt lat="36.815616607666" lon="-5.18116188049316">
        <ele>864</ele>
        <time>2019-05-11T23:11:25Z</time>
      </trkpt>
      <trkpt lat="36.8156089782715" lon="-5.18112993240356">
        <ele>864</ele>
        <time>2019-05-11T23:11:27Z</time>
      </trkpt>
      <trkpt lat="36.815601348877" lon="-5.1810998916626">
        <ele>865</ele>
        <time>2019-05-11T23:11:29Z</time>
      </trkpt>
      <trkpt lat="36.8155975341797" lon="-5.18106698989868">
        <ele>865</ele>
        <time>2019-05-11T23:11:31Z</time>
      </trkpt>
      <trkpt lat="36.8155899047852" lon="-5.18103504180908">
        <ele>866</ele>
        <time>2019-05-11T23:11:33Z</time>
      </trkpt>
      <trkpt lat="36.8155784606934" lon="-5.18100500106812">
        <ele>866</ele>
        <time>2019-05-11T23:11:35Z</time>
      </trkpt>
      <trkpt lat="36.8155746459961" lon="-5.18097305297852">
        <ele>866</ele>
        <time>2019-05-11T23:11:37Z</time>
      </trkpt>
      <trkpt lat="36.8155632019043" lon="-5.18094491958618">
        <ele>866</ele>
        <time>2019-05-11T23:11:39Z</time>
      </trkpt>
      <trkpt lat="36.8155517578125" lon="-5.18091487884522">
        <ele>866</ele>
        <time>2019-05-11T23:11:41Z</time>
      </trkpt>
      <trkpt lat="36.8155403137207" lon="-5.18089008331299">
        <ele>866</ele>
        <time>2019-05-11T23:11:43Z</time>
      </trkpt>
      <trkpt lat="36.8155288696289" lon="-5.18086719512939">
        <ele>867</ele>
        <time>2019-05-11T23:11:45Z</time>
      </trkpt>
      <trkpt lat="36.8155212402344" lon="-5.18084001541138">
        <ele>867</ele>
        <time>2019-05-11T23:11:47Z</time>
      </trkpt>
      <trkpt lat="36.8155097961426" lon="-5.18081521987915">
        <ele>867</ele>
        <time>2019-05-11T23:11:49Z</time>
      </trkpt>
      <trkpt lat="36.8154983520508" lon="-5.18078804016113">
        <ele>867</ele>
        <time>2019-05-11T23:11:51Z</time>
      </trkpt>
      <trkpt lat="36.8154907226562" lon="-5.18076181411743">
        <ele>868</ele>
        <time>2019-05-11T23:11:53Z</time>
      </trkpt>
      <trkpt lat="36.8154792785644" lon="-5.18073511123657">
        <ele>868</ele>
        <time>2019-05-11T23:11:55Z</time>
      </trkpt>
      <trkpt lat="36.8154678344727" lon="-5.18070793151856">
        <ele>869</ele>
        <time>2019-05-11T23:11:57Z</time>
      </trkpt>
      <trkpt lat="36.8154563903809" lon="-5.18067979812622">
        <ele>869</ele>
        <time>2019-05-11T23:11:59Z</time>
      </trkpt>
      <trkpt lat="36.8154487609863" lon="-5.18065500259399">
        <ele>870</ele>
        <time>2019-05-11T23:12:01Z</time>
      </trkpt>
      <trkpt lat="36.8154411315918" lon="-5.18063020706177">
        <ele>870</ele>
        <time>2019-05-11T23:12:03Z</time>
      </trkpt>
      <trkpt lat="36.8154335021973" lon="-5.1806001663208">
        <ele>870</ele>
        <time>2019-05-11T23:12:05Z</time>
      </trkpt>
      <trkpt lat="36.8154258728027" lon="-5.18057203292847">
        <ele>871</ele>
        <time>2019-05-11T23:12:07Z</time>
      </trkpt>
      <trkpt lat="36.8154182434082" lon="-5.1805419921875">
        <ele>872</ele>
        <time>2019-05-11T23:12:09Z</time>
      </trkpt>
      <trkpt lat="36.8154106140137" lon="-5.18051290512085">
        <ele>873</ele>
        <time>2019-05-11T23:12:11Z</time>
      </trkpt>
      <trkpt lat="36.8154029846191" lon="-5.18048191070557">
        <ele>873</ele>
        <time>2019-05-11T23:12:13Z</time>
      </trkpt>
      <trkpt lat="36.8153915405273" lon="-5.18045282363892">
        <ele>874</ele>
        <time>2019-05-11T23:12:15Z</time>
      </trkpt>
      <trkpt lat="36.8153839111328" lon="-5.18042516708374">
        <ele>874</ele>
        <time>2019-05-11T23:12:17Z</time>
      </trkpt>
      <trkpt lat="36.815372467041" lon="-5.18037986755371">
        <ele>874</ele>
        <time>2019-05-11T23:12:19Z</time>
      </trkpt>
      <trkpt lat="36.8153610229492" lon="-5.18035221099854">
        <ele>874</ele>
        <time>2019-05-11T23:12:21Z</time>
      </trkpt>
      <trkpt lat="36.8153495788574" lon="-5.18032312393188">
        <ele>874</ele>
        <time>2019-05-11T23:12:24Z</time>
      </trkpt>
      <trkpt lat="36.8153381347656" lon="-5.18029499053955">
        <ele>874</ele>
        <time>2019-05-11T23:12:26Z</time>
      </trkpt>
      <trkpt lat="36.8153266906738" lon="-5.18026685714722">
        <ele>874</ele>
        <time>2019-05-11T23:12:28Z</time>
      </trkpt>
      <trkpt lat="36.8153114318848" lon="-5.18023777008057">
        <ele>874</ele>
        <time>2019-05-11T23:12:30Z</time>
      </trkpt>
      <trkpt lat="36.8152961730957" lon="-5.18021011352539">
        <ele>874</ele>
        <time>2019-05-11T23:12:32Z</time>
      </trkpt>
      <trkpt lat="36.8152847290039" lon="-5.18018198013306">
        <ele>874</ele>
        <time>2019-05-11T23:12:34Z</time>
      </trkpt>
      <trkpt lat="36.8152694702148" lon="-5.18015289306641">
        <ele>874</ele>
        <time>2019-05-11T23:12:36Z</time>
      </trkpt>
      <trkpt lat="36.8152542114258" lon="-5.18012523651123">
        <ele>874</ele>
        <time>2019-05-11T23:12:38Z</time>
      </trkpt>
      <trkpt lat="36.8152389526367" lon="-5.18009519577026">
        <ele>874</ele>
        <time>2019-05-11T23:12:40Z</time>
      </trkpt>
      <trkpt lat="36.8152236938477" lon="-5.18006801605225">
        <ele>874</ele>
        <time>2019-05-11T23:12:42Z</time>
      </trkpt>
      <trkpt lat="36.8152046203613" lon="-5.18004322052002">
        <ele>874</ele>
        <time>2019-05-11T23:12:44Z</time>
      </trkpt>
      <trkpt lat="36.8151931762695" lon="-5.18001508712769">
        <ele>874</ele>
        <time>2019-05-11T23:12:46Z</time>
      </trkpt>
      <trkpt lat="36.8151779174805" lon="-5.17998695373535">
        <ele>874</ele>
        <time>2019-05-11T23:12:48Z</time>
      </trkpt>
      <trkpt lat="36.8151588439941" lon="-5.17995977401733">
        <ele>874</ele>
        <time>2019-05-11T23:12:50Z</time>
      </trkpt>
      <trkpt lat="36.8151435852051" lon="-5.17993307113647">
        <ele>874</ele>
        <time>2019-05-11T23:12:52Z</time>
      </trkpt>
      <trkpt lat="36.815128326416" lon="-5.17990779876709">
        <ele>874</ele>
        <time>2019-05-11T23:12:54Z</time>
      </trkpt>
      <trkpt lat="36.8151054382324" lon="-5.17988300323486">
        <ele>874</ele>
        <time>2019-05-11T23:12:56Z</time>
      </trkpt>
      <trkpt lat="36.8150901794434" lon="-5.17985820770264">
        <ele>874</ele>
        <time>2019-05-11T23:12:58Z</time>
      </trkpt>
      <trkpt lat="36.815071105957" lon="-5.17983722686768">
        <ele>874</ele>
        <time>2019-05-11T23:13:00Z</time>
      </trkpt>
      <trkpt lat="36.8150482177734" lon="-5.17981481552124">
        <ele>874</ele>
        <time>2019-05-11T23:13:02Z</time>
      </trkpt>
      <trkpt lat="36.8150329589844" lon="-5.17979192733765">
        <ele>874</ele>
        <time>2019-05-11T23:13:04Z</time>
      </trkpt>
      <trkpt lat="36.815013885498" lon="-5.17976713180542">
        <ele>874</ele>
        <time>2019-05-11T23:13:06Z</time>
      </trkpt>
      <trkpt lat="36.8149948120117" lon="-5.17974281311035">
        <ele>874</ele>
        <time>2019-05-11T23:13:08Z</time>
      </trkpt>
      <trkpt lat="36.8149757385254" lon="-5.17972183227539">
        <ele>874</ele>
        <time>2019-05-11T23:13:10Z</time>
      </trkpt>
      <trkpt lat="36.8149604797363" lon="-5.17969799041748">
        <ele>874</ele>
        <time>2019-05-11T23:13:12Z</time>
      </trkpt>
      <trkpt lat="36.81494140625" lon="-5.17967510223389">
        <ele>874</ele>
        <time>2019-05-11T23:13:14Z</time>
      </trkpt>
      <trkpt lat="36.8149223327637" lon="-5.17965507507324">
        <ele>874</ele>
        <time>2019-05-11T23:13:16Z</time>
      </trkpt>
      <trkpt lat="36.8149032592773" lon="-5.17963790893555">
        <ele>874</ele>
        <time>2019-05-11T23:13:18Z</time>
      </trkpt>
      <trkpt lat="36.814884185791" lon="-5.1796178817749">
        <ele>874</ele>
        <time>2019-05-11T23:13:20Z</time>
      </trkpt>
      <trkpt lat="36.814868927002" lon="-5.17959690093994">
        <ele>874</ele>
        <time>2019-05-11T23:13:22Z</time>
      </trkpt>
      <trkpt lat="36.8148536682129" lon="-5.17957496643066">
        <ele>874</ele>
        <time>2019-05-11T23:13:24Z</time>
      </trkpt>
      <trkpt lat="36.8148345947266" lon="-5.17955303192139">
        <ele>874</ele>
        <time>2019-05-11T23:13:26Z</time>
      </trkpt>
      <trkpt lat="36.8148155212402" lon="-5.17953300476074">
        <ele>874</ele>
        <time>2019-05-11T23:13:28Z</time>
      </trkpt>
      <trkpt lat="36.8148002624512" lon="-5.17951202392578">
        <ele>874</ele>
        <time>2019-05-11T23:13:30Z</time>
      </trkpt>
      <trkpt lat="36.8147888183594" lon="-5.17948722839356">
        <ele>874</ele>
        <time>2019-05-11T23:13:32Z</time>
      </trkpt>
      <trkpt lat="36.8147735595703" lon="-5.17946290969849">
        <ele>874</ele>
        <time>2019-05-11T23:13:34Z</time>
      </trkpt>
      <trkpt lat="36.814754486084" lon="-5.17944002151489">
        <ele>874</ele>
        <time>2019-05-11T23:13:36Z</time>
      </trkpt>
      <trkpt lat="36.8147354125977" lon="-5.17941808700562">
        <ele>874</ele>
        <time>2019-05-11T23:13:38Z</time>
      </trkpt>
      <trkpt lat="36.8147163391113" lon="-5.17939805984497">
        <ele>875</ele>
        <time>2019-05-11T23:13:40Z</time>
      </trkpt>
      <trkpt lat="36.814697265625" lon="-5.17937707901001">
        <ele>875</ele>
        <time>2019-05-11T23:13:42Z</time>
      </trkpt>
      <trkpt lat="36.8146781921387" lon="-5.17935705184936">
        <ele>875</ele>
        <time>2019-05-11T23:13:44Z</time>
      </trkpt>
      <trkpt lat="36.8146591186523" lon="-5.17933797836304">
        <ele>875</ele>
        <time>2019-05-11T23:13:46Z</time>
      </trkpt>
      <trkpt lat="36.8146286010742" lon="-5.1793098449707">
        <ele>875</ele>
        <time>2019-05-11T23:13:48Z</time>
      </trkpt>
      <trkpt lat="36.8146095275879" lon="-5.17929220199585">
        <ele>875</ele>
        <time>2019-05-11T23:13:50Z</time>
      </trkpt>
      <trkpt lat="36.8145866394043" lon="-5.17927503585815">
        <ele>875</ele>
        <time>2019-05-11T23:13:53Z</time>
      </trkpt>
      <trkpt lat="36.8145637512207" lon="-5.17925786972046">
        <ele>876</ele>
        <time>2019-05-11T23:13:55Z</time>
      </trkpt>
      <trkpt lat="36.8145408630371" lon="-5.17924308776856">
        <ele>876</ele>
        <time>2019-05-11T23:13:57Z</time>
      </trkpt>
      <trkpt lat="36.8145217895508" lon="-5.17922782897949">
        <ele>876</ele>
        <time>2019-05-11T23:13:59Z</time>
      </trkpt>
      <trkpt lat="36.8144989013672" lon="-5.17921209335327">
        <ele>876</ele>
        <time>2019-05-11T23:14:01Z</time>
      </trkpt>
      <trkpt lat="36.8144760131836" lon="-5.17919683456421">
        <ele>876</ele>
        <time>2019-05-11T23:14:03Z</time>
      </trkpt>
      <trkpt lat="36.8144493103027" lon="-5.17918300628662">
        <ele>876</ele>
        <time>2019-05-11T23:14:05Z</time>
      </trkpt>
      <trkpt lat="36.8144264221191" lon="-5.17916822433472">
        <ele>876</ele>
        <time>2019-05-11T23:14:07Z</time>
      </trkpt>
      <trkpt lat="36.8144035339356" lon="-5.17915678024292">
        <ele>876</ele>
        <time>2019-05-11T23:14:09Z</time>
      </trkpt>
      <trkpt lat="36.8143768310547" lon="-5.17914485931396">
        <ele>876</ele>
        <time>2019-05-11T23:14:11Z</time>
      </trkpt>
      <trkpt lat="36.8143501281738" lon="-5.17913484573364">
        <ele>876</ele>
        <time>2019-05-11T23:14:13Z</time>
      </trkpt>
      <trkpt lat="36.8143272399902" lon="-5.17912006378174">
        <ele>876</ele>
        <time>2019-05-11T23:14:15Z</time>
      </trkpt>
      <trkpt lat="36.8143043518066" lon="-5.17910718917847">
        <ele>876</ele>
        <time>2019-05-11T23:14:17Z</time>
      </trkpt>
      <trkpt lat="36.8142776489258" lon="-5.17909288406372">
        <ele>876</ele>
        <time>2019-05-11T23:14:19Z</time>
      </trkpt>
      <trkpt lat="36.8142547607422" lon="-5.1790828704834">
        <ele>876</ele>
        <time>2019-05-11T23:14:21Z</time>
      </trkpt>
      <trkpt lat="36.8142318725586" lon="-5.17907285690308">
        <ele>876</ele>
        <time>2019-05-11T23:14:23Z</time>
      </trkpt>
      <trkpt lat="36.814208984375" lon="-5.17906188964844">
        <ele>876</ele>
        <time>2019-05-11T23:14:25Z</time>
      </trkpt>
      <trkpt lat="36.8141860961914" lon="-5.17904996871948">
        <ele>876</ele>
        <time>2019-05-11T23:14:27Z</time>
      </trkpt>
      <trkpt lat="36.8141632080078" lon="-5.17903995513916">
        <ele>876</ele>
        <time>2019-05-11T23:14:29Z</time>
      </trkpt>
      <trkpt lat="36.8141479492188" lon="-5.17902994155884">
        <ele>877</ele>
        <time>2019-05-11T23:14:31Z</time>
      </trkpt>
      <trkpt lat="36.8141288757324" lon="-5.17901992797852">
        <ele>877</ele>
        <time>2019-05-11T23:14:33Z</time>
      </trkpt>
      <trkpt lat="36.8141059875488" lon="-5.17900800704956">
        <ele>878</ele>
        <time>2019-05-11T23:14:35Z</time>
      </trkpt>
      <trkpt lat="36.8140830993652" lon="-5.17900276184082">
        <ele>878</ele>
        <time>2019-05-11T23:14:37Z</time>
      </trkpt>
      <trkpt lat="36.8140602111816" lon="-5.17899799346924">
        <ele>879</ele>
        <time>2019-05-11T23:14:39Z</time>
      </trkpt>
      <trkpt lat="36.8140411376953" lon="-5.17899179458618">
        <ele>879</ele>
        <time>2019-05-11T23:14:41Z</time>
      </trkpt>
      <trkpt lat="36.8140182495117" lon="-5.1789870262146">
        <ele>879</ele>
        <time>2019-05-11T23:14:43Z</time>
      </trkpt>
      <trkpt lat="36.8139915466309" lon="-5.17898321151733">
        <ele>879</ele>
        <time>2019-05-11T23:14:45Z</time>
      </trkpt>
      <trkpt lat="36.8139686584473" lon="-5.17898178100586">
        <ele>879</ele>
        <time>2019-05-11T23:14:47Z</time>
      </trkpt>
      <trkpt lat="36.8139457702637" lon="-5.17897701263428">
        <ele>879</ele>
        <time>2019-05-11T23:14:49Z</time>
      </trkpt>
      <trkpt lat="36.8139190673828" lon="-5.1789698600769">
        <ele>879</ele>
        <time>2019-05-11T23:14:51Z</time>
      </trkpt>
      <trkpt lat="36.8138961791992" lon="-5.17896223068237">
        <ele>879</ele>
        <time>2019-05-11T23:14:53Z</time>
      </trkpt>
      <trkpt lat="36.8138694763184" lon="-5.17895317077637">
        <ele>879</ele>
        <time>2019-05-11T23:14:55Z</time>
      </trkpt>
      <trkpt lat="36.8138427734375" lon="-5.17894506454468">
        <ele>879</ele>
        <time>2019-05-11T23:14:57Z</time>
      </trkpt>
      <trkpt lat="36.8138160705566" lon="-5.1789379119873">
        <ele>879</ele>
        <time>2019-05-11T23:14:59Z</time>
      </trkpt>
      <trkpt lat="36.813793182373" lon="-5.17892789840698">
        <ele>879</ele>
        <time>2019-05-11T23:15:01Z</time>
      </trkpt>
      <trkpt lat="36.8137664794922" lon="-5.17891788482666">
        <ele>879</ele>
        <time>2019-05-11T23:15:03Z</time>
      </trkpt>
      <trkpt lat="36.8137397766113" lon="-5.17890787124634">
        <ele>879</ele>
        <time>2019-05-11T23:15:05Z</time>
      </trkpt>
      <trkpt lat="36.8137168884277" lon="-5.1788969039917">
        <ele>879</ele>
        <time>2019-05-11T23:15:07Z</time>
      </trkpt>
      <trkpt lat="36.8136901855469" lon="-5.17888498306274">
        <ele>878</ele>
        <time>2019-05-11T23:15:09Z</time>
      </trkpt>
      <trkpt lat="36.813663482666" lon="-5.17887496948242">
        <ele>878</ele>
        <time>2019-05-11T23:15:11Z</time>
      </trkpt>
      <trkpt lat="36.8136367797852" lon="-5.17886686325073">
        <ele>878</ele>
        <time>2019-05-11T23:15:13Z</time>
      </trkpt>
      <trkpt lat="36.8136138916016" lon="-5.17885494232178">
        <ele>878</ele>
        <time>2019-05-11T23:15:15Z</time>
      </trkpt>
      <trkpt lat="36.813591003418" lon="-5.17884302139282">
        <ele>878</ele>
        <time>2019-05-11T23:15:17Z</time>
      </trkpt>
      <trkpt lat="36.8135681152344" lon="-5.1788330078125">
        <ele>878</ele>
        <time>2019-05-11T23:15:19Z</time>
      </trkpt>
      <trkpt lat="36.8135414123535" lon="-5.17882299423218">
        <ele>878</ele>
        <time>2019-05-11T23:15:21Z</time>
      </trkpt>
      <trkpt lat="36.8135185241699" lon="-5.17881298065186">
        <ele>878</ele>
        <time>2019-05-11T23:15:23Z</time>
      </trkpt>
      <trkpt lat="36.8134880065918" lon="-5.17879486083984">
        <ele>878</ele>
        <time>2019-05-11T23:15:25Z</time>
      </trkpt>
      <trkpt lat="36.8134651184082" lon="-5.17878293991089">
        <ele>878</ele>
        <time>2019-05-11T23:15:27Z</time>
      </trkpt>
      <trkpt lat="36.8134422302246" lon="-5.17877006530762">
        <ele>878</ele>
        <time>2019-05-11T23:15:30Z</time>
      </trkpt>
      <trkpt lat="36.813419342041" lon="-5.1787600517273">
        <ele>878</ele>
        <time>2019-05-11T23:15:32Z</time>
      </trkpt>
      <trkpt lat="36.8133926391602" lon="-5.17874813079834">
        <ele>878</ele>
        <time>2019-05-11T23:15:34Z</time>
      </trkpt>
      <trkpt lat="36.8133697509766" lon="-5.17873811721802">
        <ele>878</ele>
        <time>2019-05-11T23:15:36Z</time>
      </trkpt>
      <trkpt lat="36.813346862793" lon="-5.1787281036377">
        <ele>878</ele>
        <time>2019-05-11T23:15:38Z</time>
      </trkpt>
      <trkpt lat="36.8133201599121" lon="-5.17871809005737">
        <ele>878</ele>
        <time>2019-05-11T23:15:40Z</time>
      </trkpt>
      <trkpt lat="36.8132972717285" lon="-5.17871189117432">
        <ele>878</ele>
        <time>2019-05-11T23:15:42Z</time>
      </trkpt>
      <trkpt lat="36.8132743835449" lon="-5.17870807647705">
        <ele>878</ele>
        <time>2019-05-11T23:15:44Z</time>
      </trkpt>
      <trkpt lat="36.8132514953613" lon="-5.1787052154541">
        <ele>878</ele>
        <time>2019-05-11T23:15:46Z</time>
      </trkpt>
      <trkpt lat="36.8132247924805" lon="-5.1787052154541">
        <ele>878</ele>
        <time>2019-05-11T23:15:48Z</time>
      </trkpt>
      <trkpt lat="36.8132019042969" lon="-5.17870187759399">
        <ele>878</ele>
        <time>2019-05-11T23:15:50Z</time>
      </trkpt>
      <trkpt lat="36.813175201416" lon="-5.17869997024536">
        <ele>878</ele>
        <time>2019-05-11T23:15:52Z</time>
      </trkpt>
      <trkpt lat="36.8131523132324" lon="-5.17870187759399">
        <ele>878</ele>
        <time>2019-05-11T23:15:54Z</time>
      </trkpt>
      <trkpt lat="36.8131332397461" lon="-5.17870712280273">
        <ele>878</ele>
        <time>2019-05-11T23:15:56Z</time>
      </trkpt>
      <trkpt lat="36.8131065368652" lon="-5.17870712280273">
        <ele>878</ele>
        <time>2019-05-11T23:15:58Z</time>
      </trkpt>
      <trkpt lat="36.8130874633789" lon="-5.17870998382568">
        <ele>878</ele>
        <time>2019-05-11T23:16:00Z</time>
      </trkpt>
      <trkpt lat="36.8130645751953" lon="-5.17871713638306">
        <ele>878</ele>
        <time>2019-05-11T23:16:02Z</time>
      </trkpt>
      <trkpt lat="36.8130416870117" lon="-5.17872285842896">
        <ele>878</ele>
        <time>2019-05-11T23:16:04Z</time>
      </trkpt>
      <trkpt lat="36.8130187988281" lon="-5.1787281036377">
        <ele>878</ele>
        <time>2019-05-11T23:16:06Z</time>
      </trkpt>
      <trkpt lat="36.8129997253418" lon="-5.17873191833496">
        <ele>878</ele>
        <time>2019-05-11T23:16:08Z</time>
      </trkpt>
      <trkpt lat="36.8129806518555" lon="-5.1787371635437">
        <ele>878</ele>
        <time>2019-05-11T23:16:10Z</time>
      </trkpt>
      <trkpt lat="36.8129577636719" lon="-5.17873811721802">
        <ele>878</ele>
        <time>2019-05-11T23:16:12Z</time>
      </trkpt>
      <trkpt lat="36.8129386901856" lon="-5.1787428855896">
        <ele>878</ele>
        <time>2019-05-11T23:16:14Z</time>
      </trkpt>
      <trkpt lat="36.812915802002" lon="-5.17874813079834">
        <ele>878</ele>
        <time>2019-05-11T23:16:16Z</time>
      </trkpt>
      <trkpt lat="36.8128929138184" lon="-5.17875289916992">
        <ele>878</ele>
        <time>2019-05-11T23:16:18Z</time>
      </trkpt>
      <trkpt lat="36.812873840332" lon="-5.17876720428467">
        <ele>878</ele>
        <time>2019-05-11T23:16:20Z</time>
      </trkpt>
      <trkpt lat="36.8128509521484" lon="-5.17877197265625">
        <ele>878</ele>
        <time>2019-05-11T23:16:22Z</time>
      </trkpt>
      <trkpt lat="36.8128280639648" lon="-5.17878007888794">
        <ele>878</ele>
        <time>2019-05-11T23:16:24Z</time>
      </trkpt>
      <trkpt lat="36.812801361084" lon="-5.17878818511963">
        <ele>878</ele>
        <time>2019-05-11T23:16:26Z</time>
      </trkpt>
      <trkpt lat="36.8127784729004" lon="-5.17879486083984">
        <ele>878</ele>
        <time>2019-05-11T23:16:28Z</time>
      </trkpt>
      <trkpt lat="36.8127555847168" lon="-5.17880010604858">
        <ele>878</ele>
        <time>2019-05-11T23:16:30Z</time>
      </trkpt>
      <trkpt lat="36.8127326965332" lon="-5.17880487442017">
        <ele>878</ele>
        <time>2019-05-11T23:16:32Z</time>
      </trkpt>
      <trkpt lat="36.8127059936523" lon="-5.17881298065186">
        <ele>878</ele>
        <time>2019-05-11T23:16:34Z</time>
      </trkpt>
      <trkpt lat="36.8126831054688" lon="-5.1788182258606">
        <ele>878</ele>
        <time>2019-05-11T23:16:36Z</time>
      </trkpt>
      <trkpt lat="36.8126564025879" lon="-5.17882299423218">
        <ele>878</ele>
        <time>2019-05-11T23:16:38Z</time>
      </trkpt>
      <trkpt lat="36.8126335144043" lon="-5.17882776260376">
        <ele>878</ele>
        <time>2019-05-11T23:16:40Z</time>
      </trkpt>
      <trkpt lat="36.8126068115234" lon="-5.1788330078125">
        <ele>878</ele>
        <time>2019-05-11T23:16:42Z</time>
      </trkpt>
      <trkpt lat="36.8125839233398" lon="-5.17884016036987">
        <ele>878</ele>
        <time>2019-05-11T23:16:44Z</time>
      </trkpt>
      <trkpt lat="36.812557220459" lon="-5.17884206771851">
        <ele>878</ele>
        <time>2019-05-11T23:16:46Z</time>
      </trkpt>
      <trkpt lat="36.8125305175781" lon="-5.17884302139282">
        <ele>878</ele>
        <time>2019-05-11T23:16:48Z</time>
      </trkpt>
      <trkpt lat="36.8125076293945" lon="-5.17884302139282">
        <ele>878</ele>
        <time>2019-05-11T23:16:50Z</time>
      </trkpt>
      <trkpt lat="36.8124809265137" lon="-5.17884492874146">
        <ele>878</ele>
        <time>2019-05-11T23:16:52Z</time>
      </trkpt>
      <trkpt lat="36.8124580383301" lon="-5.17884683609009">
        <ele>878</ele>
        <time>2019-05-11T23:16:54Z</time>
      </trkpt>
      <trkpt lat="36.8124313354492" lon="-5.17884492874146">
        <ele>878</ele>
        <time>2019-05-11T23:16:56Z</time>
      </trkpt>
      <trkpt lat="36.8124046325684" lon="-5.17884492874146">
        <ele>878</ele>
        <time>2019-05-11T23:16:58Z</time>
      </trkpt>
      <trkpt lat="36.8123817443848" lon="-5.17884492874146">
        <ele>878</ele>
        <time>2019-05-11T23:17:00Z</time>
      </trkpt>
      <trkpt lat="36.8123550415039" lon="-5.17884302139282">
        <ele>878</ele>
        <time>2019-05-11T23:17:02Z</time>
      </trkpt>
      <trkpt lat="36.812328338623" lon="-5.17883777618408">
        <ele>878</ele>
        <time>2019-05-11T23:17:04Z</time>
      </trkpt>
      <trkpt lat="36.8123054504394" lon="-5.17883491516113">
        <ele>878</ele>
        <time>2019-05-11T23:17:06Z</time>
      </trkpt>
      <trkpt lat="36.8122787475586" lon="-5.17883014678955">
        <ele>878</ele>
        <time>2019-05-11T23:17:08Z</time>
      </trkpt>
      <trkpt lat="36.812255859375" lon="-5.17883014678955">
        <ele>878</ele>
        <time>2019-05-11T23:17:10Z</time>
      </trkpt>
      <trkpt lat="36.8122367858887" lon="-5.17882680892944">
        <ele>878</ele>
        <time>2019-05-11T23:17:12Z</time>
      </trkpt>
      <trkpt lat="36.8122100830078" lon="-5.17882299423218">
        <ele>878</ele>
        <time>2019-05-11T23:17:14Z</time>
      </trkpt>
      <trkpt lat="36.812183380127" lon="-5.17882013320923">
        <ele>878</ele>
        <time>2019-05-11T23:17:16Z</time>
      </trkpt>
      <trkpt lat="36.8121490478516" lon="-5.17881202697754">
        <ele>879</ele>
        <time>2019-05-11T23:17:18Z</time>
      </trkpt>
      <trkpt lat="36.812126159668" lon="-5.1788067817688">
        <ele>879</ele>
        <time>2019-05-11T23:17:20Z</time>
      </trkpt>
      <trkpt lat="36.8121032714844" lon="-5.17880010604858">
        <ele>880</ele>
        <time>2019-05-11T23:17:23Z</time>
      </trkpt>
      <trkpt lat="36.8120803833008" lon="-5.17879486083984">
        <ele>880</ele>
        <time>2019-05-11T23:17:25Z</time>
      </trkpt>
      <trkpt lat="36.8120574951172" lon="-5.17878818511963">
        <ele>881</ele>
        <time>2019-05-11T23:17:27Z</time>
      </trkpt>
      <trkpt lat="36.8120384216309" lon="-5.17878293991089">
        <ele>881</ele>
        <time>2019-05-11T23:17:29Z</time>
      </trkpt>
      <trkpt lat="36.8120346069336" lon="-5.17878293991089">
        <ele>881</ele>
        <time>2019-05-11T23:17:31Z</time>
      </trkpt>
      <trkpt lat="36.8120193481445" lon="-5.17878198623657">
        <ele>881</ele>
        <time>2019-05-11T23:17:33Z</time>
      </trkpt>
      <trkpt lat="36.8119964599609" lon="-5.17877292633057">
        <ele>881</ele>
        <time>2019-05-11T23:17:35Z</time>
      </trkpt>
      <trkpt lat="36.8119735717773" lon="-5.17876482009888">
        <ele>881</ele>
        <time>2019-05-11T23:17:37Z</time>
      </trkpt>
      <trkpt lat="36.8119506835938" lon="-5.1787600517273">
        <ele>881</ele>
        <time>2019-05-11T23:17:39Z</time>
      </trkpt>
      <trkpt lat="36.8119239807129" lon="-5.17875194549561">
        <ele>881</ele>
        <time>2019-05-11T23:17:41Z</time>
      </trkpt>
      <trkpt lat="36.811897277832" lon="-5.1787428855896">
        <ele>881</ele>
        <time>2019-05-11T23:17:43Z</time>
      </trkpt>
      <trkpt lat="36.8118705749512" lon="-5.17873477935791">
        <ele>881</ele>
        <time>2019-05-11T23:17:45Z</time>
      </trkpt>
      <trkpt lat="36.8118438720703" lon="-5.17872714996338">
        <ele>881</ele>
        <time>2019-05-11T23:17:47Z</time>
      </trkpt>
      <trkpt lat="36.8118171691894" lon="-5.17871809005737">
        <ele>881</ele>
        <time>2019-05-11T23:17:49Z</time>
      </trkpt>
      <trkpt lat="36.8117904663086" lon="-5.17870712280273">
        <ele>881</ele>
        <time>2019-05-11T23:17:51Z</time>
      </trkpt>
      <trkpt lat="36.811767578125" lon="-5.17869710922241">
        <ele>881</ele>
        <time>2019-05-11T23:17:53Z</time>
      </trkpt>
      <trkpt lat="36.8117408752441" lon="-5.17868518829346">
        <ele>881</ele>
        <time>2019-05-11T23:17:55Z</time>
      </trkpt>
      <trkpt lat="36.8117179870606" lon="-5.17867517471314">
        <ele>881</ele>
        <time>2019-05-11T23:17:57Z</time>
      </trkpt>
      <trkpt lat="36.8116912841797" lon="-5.17866516113281">
        <ele>881</ele>
        <time>2019-05-11T23:17:59Z</time>
      </trkpt>
      <trkpt lat="36.8116683959961" lon="-5.1786527633667">
        <ele>881</ele>
        <time>2019-05-11T23:18:01Z</time>
      </trkpt>
      <trkpt lat="36.8116455078125" lon="-5.17864179611206">
        <ele>881</ele>
        <time>2019-05-11T23:18:03Z</time>
      </trkpt>
      <trkpt lat="36.8116226196289" lon="-5.17862796783447">
        <ele>881</ele>
        <time>2019-05-11T23:18:05Z</time>
      </trkpt>
      <trkpt lat="36.8115997314453" lon="-5.1786150932312">
        <ele>882</ele>
        <time>2019-05-11T23:18:07Z</time>
      </trkpt>
      <trkpt lat="36.8115768432617" lon="-5.17860317230225">
        <ele>882</ele>
        <time>2019-05-11T23:18:09Z</time>
      </trkpt>
      <trkpt lat="36.8115501403809" lon="-5.17858982086182">
        <ele>883</ele>
        <time>2019-05-11T23:18:11Z</time>
      </trkpt>
      <trkpt lat="36.8115310668945" lon="-5.17857503890991">
        <ele>883</ele>
        <time>2019-05-11T23:18:13Z</time>
      </trkpt>
      <trkpt lat="36.8115081787109" lon="-5.17855978012085">
        <ele>883</ele>
        <time>2019-05-11T23:18:15Z</time>
      </trkpt>
      <trkpt lat="36.8114852905273" lon="-5.17854499816894">
        <ele>884</ele>
        <time>2019-05-11T23:18:17Z</time>
      </trkpt>
      <trkpt lat="36.8114624023438" lon="-5.17853021621704">
        <ele>884</ele>
        <time>2019-05-11T23:18:19Z</time>
      </trkpt>
      <trkpt lat="36.8114395141602" lon="-5.17851686477661">
        <ele>885</ele>
        <time>2019-05-11T23:18:21Z</time>
      </trkpt>
      <trkpt lat="36.8114166259766" lon="-5.17850303649902">
        <ele>885</ele>
        <time>2019-05-11T23:18:23Z</time>
      </trkpt>
      <trkpt lat="36.811393737793" lon="-5.17849016189575">
        <ele>885</ele>
        <time>2019-05-11T23:18:25Z</time>
      </trkpt>
      <trkpt lat="36.8113708496094" lon="-5.17847490310669">
        <ele>885</ele>
        <time>2019-05-11T23:18:27Z</time>
      </trkpt>
      <trkpt lat="36.8113479614258" lon="-5.17846012115478">
        <ele>885</ele>
        <time>2019-05-11T23:18:29Z</time>
      </trkpt>
      <trkpt lat="36.8113212585449" lon="-5.17844200134277">
        <ele>886</ele>
        <time>2019-05-11T23:18:31Z</time>
      </trkpt>
      <trkpt lat="36.8112983703613" lon="-5.17842721939087">
        <ele>886</ele>
        <time>2019-05-11T23:18:33Z</time>
      </trkpt>
      <trkpt lat="36.8112754821777" lon="-5.17841291427612">
        <ele>886</ele>
        <time>2019-05-11T23:18:35Z</time>
      </trkpt>
      <trkpt lat="36.8112487792969" lon="-5.17839813232422">
        <ele>886</ele>
        <time>2019-05-11T23:18:37Z</time>
      </trkpt>
      <trkpt lat="36.8112297058106" lon="-5.17838191986084">
        <ele>886</ele>
        <time>2019-05-11T23:18:39Z</time>
      </trkpt>
      <trkpt lat="36.811206817627" lon="-5.1783652305603">
        <ele>886</ele>
        <time>2019-05-11T23:18:41Z</time>
      </trkpt>
      <trkpt lat="36.8111839294434" lon="-5.17834997177124">
        <ele>887</ele>
        <time>2019-05-11T23:18:43Z</time>
      </trkpt>
      <trkpt lat="36.8111610412598" lon="-5.17833185195923">
        <ele>887</ele>
        <time>2019-05-11T23:18:45Z</time>
      </trkpt>
      <trkpt lat="36.8111381530762" lon="-5.17831707000732">
        <ele>887</ele>
        <time>2019-05-11T23:18:47Z</time>
      </trkpt>
      <trkpt lat="36.811107635498" lon="-5.17829322814941">
        <ele>887</ele>
        <time>2019-05-11T23:18:49Z</time>
      </trkpt>
      <trkpt lat="36.8110885620117" lon="-5.17827701568604">
        <ele>887</ele>
        <time>2019-05-11T23:18:51Z</time>
      </trkpt>
      <trkpt lat="36.8110618591309" lon="-5.17825984954834">
        <ele>887</ele>
        <time>2019-05-11T23:18:54Z</time>
      </trkpt>
      <trkpt lat="36.8110389709473" lon="-5.17824220657349">
        <ele>887</ele>
        <time>2019-05-11T23:18:56Z</time>
      </trkpt>
      <trkpt lat="36.8110160827637" lon="-5.17822504043579">
        <ele>887</ele>
        <time>2019-05-11T23:18:58Z</time>
      </trkpt>
      <trkpt lat="36.8109931945801" lon="-5.17820978164673">
        <ele>887</ele>
        <time>2019-05-11T23:19:00Z</time>
      </trkpt>
      <trkpt lat="36.8109664916992" lon="-5.17819690704346">
        <ele>887</ele>
        <time>2019-05-11T23:19:02Z</time>
      </trkpt>
      <trkpt lat="36.8109436035156" lon="-5.1781849861145">
        <ele>887</ele>
        <time>2019-05-11T23:19:04Z</time>
      </trkpt>
      <trkpt lat="36.8109245300293" lon="-5.17816781997681">
        <ele>887</ele>
        <time>2019-05-11T23:19:06Z</time>
      </trkpt>
      <trkpt lat="36.8109016418457" lon="-5.17815685272217">
        <ele>887</ele>
        <time>2019-05-11T23:19:08Z</time>
      </trkpt>
      <trkpt lat="36.8108787536621" lon="-5.1781530380249">
        <ele>887</ele>
        <time>2019-05-11T23:19:10Z</time>
      </trkpt>
      <trkpt lat="36.810848236084" lon="-5.17814779281616">
        <ele>887</ele>
        <time>2019-05-11T23:19:12Z</time>
      </trkpt>
      <trkpt lat="36.8108253479004" lon="-5.17814493179321">
        <ele>887</ele>
        <time>2019-05-11T23:19:14Z</time>
      </trkpt>
      <trkpt lat="36.8108024597168" lon="-5.17814302444458">
        <ele>887</ele>
        <time>2019-05-11T23:19:16Z</time>
      </trkpt>
      <trkpt lat="36.8107795715332" lon="-5.17814207077026">
        <ele>887</ele>
        <time>2019-05-11T23:19:18Z</time>
      </trkpt>
      <trkpt lat="36.8107528686523" lon="-5.17813777923584">
        <ele>887</ele>
        <time>2019-05-11T23:19:20Z</time>
      </trkpt>
      <trkpt lat="36.8107261657715" lon="-5.17813682556152">
        <ele>887</ele>
        <time>2019-05-11T23:19:22Z</time>
      </trkpt>
      <trkpt lat="36.8107032775879" lon="-5.17813682556152">
        <ele>887</ele>
        <time>2019-05-11T23:19:24Z</time>
      </trkpt>
      <trkpt lat="36.810676574707" lon="-5.17813205718994">
        <ele>887</ele>
        <time>2019-05-11T23:19:26Z</time>
      </trkpt>
      <trkpt lat="36.8106575012207" lon="-5.17812013626099">
        <ele>887</ele>
        <time>2019-05-11T23:19:28Z</time>
      </trkpt>
      <trkpt lat="36.8106384277344" lon="-5.17810297012329">
        <ele>887</ele>
        <time>2019-05-11T23:19:30Z</time>
      </trkpt>
      <trkpt lat="36.810619354248" lon="-5.17809295654297">
        <ele>887</ele>
        <time>2019-05-11T23:19:32Z</time>
      </trkpt>
      <trkpt lat="36.8105964660644" lon="-5.17808485031128">
        <ele>887</ele>
        <time>2019-05-11T23:19:34Z</time>
      </trkpt>
      <trkpt lat="36.8105773925781" lon="-5.17807817459106">
        <ele>887</ele>
        <time>2019-05-11T23:19:36Z</time>
      </trkpt>
      <trkpt lat="36.8105583190918" lon="-5.17806720733643">
        <ele>887</ele>
        <time>2019-05-11T23:19:38Z</time>
      </trkpt>
      <trkpt lat="36.8105354309082" lon="-5.1780571937561">
        <ele>888</ele>
        <time>2019-05-11T23:19:40Z</time>
      </trkpt>
      <trkpt lat="36.8105163574219" lon="-5.1780481338501">
        <ele>888</ele>
        <time>2019-05-11T23:19:42Z</time>
      </trkpt>
      <trkpt lat="36.8104934692383" lon="-5.17803716659546">
        <ele>889</ele>
        <time>2019-05-11T23:19:44Z</time>
      </trkpt>
      <trkpt lat="36.8104705810547" lon="-5.17802715301514">
        <ele>889</ele>
        <time>2019-05-11T23:19:46Z</time>
      </trkpt>
      <trkpt lat="36.8104476928711" lon="-5.17801523208618">
        <ele>890</ele>
        <time>2019-05-11T23:19:48Z</time>
      </trkpt>
      <trkpt lat="36.8104286193848" lon="-5.17800283432007">
        <ele>890</ele>
        <time>2019-05-11T23:19:50Z</time>
      </trkpt>
      <trkpt lat="36.8104095458984" lon="-5.1779899597168">
        <ele>891</ele>
        <time>2019-05-11T23:19:52Z</time>
      </trkpt>
      <trkpt lat="36.8103866577148" lon="-5.17797803878784">
        <ele>891</ele>
        <time>2019-05-11T23:19:54Z</time>
      </trkpt>
      <trkpt lat="36.8103637695312" lon="-5.17796516418457">
        <ele>892</ele>
        <time>2019-05-11T23:19:56Z</time>
      </trkpt>
      <trkpt lat="36.8103485107422" lon="-5.17794990539551">
        <ele>893</ele>
        <time>2019-05-11T23:19:58Z</time>
      </trkpt>
      <trkpt lat="36.8103256225586" lon="-5.17793703079224">
        <ele>893</ele>
        <time>2019-05-11T23:20:00Z</time>
      </trkpt>
      <trkpt lat="36.8103065490723" lon="-5.17792177200317">
        <ele>894</ele>
        <time>2019-05-11T23:20:02Z</time>
      </trkpt>
      <trkpt lat="36.8102912902832" lon="-5.17790699005127">
        <ele>894</ele>
        <time>2019-05-11T23:20:04Z</time>
      </trkpt>
      <trkpt lat="36.8102722167969" lon="-5.17789506912231">
        <ele>895</ele>
        <time>2019-05-11T23:20:06Z</time>
      </trkpt>
      <trkpt lat="36.8102531433106" lon="-5.17787790298462">
        <ele>896</ele>
        <time>2019-05-11T23:20:08Z</time>
      </trkpt>
      <trkpt lat="36.8102416992188" lon="-5.17786312103272">
        <ele>897</ele>
        <time>2019-05-11T23:20:10Z</time>
      </trkpt>
      <trkpt lat="36.8102226257324" lon="-5.17784690856934">
        <ele>898</ele>
        <time>2019-05-11T23:20:12Z</time>
      </trkpt>
      <trkpt lat="36.8102035522461" lon="-5.17783212661743">
        <ele>898</ele>
        <time>2019-05-11T23:20:14Z</time>
      </trkpt>
      <trkpt lat="36.8101806640625" lon="-5.17781496047974">
        <ele>899</ele>
        <time>2019-05-11T23:20:16Z</time>
      </trkpt>
      <trkpt lat="36.8101615905762" lon="-5.17779779434204">
        <ele>899</ele>
        <time>2019-05-11T23:20:18Z</time>
      </trkpt>
      <trkpt lat="36.8101463317871" lon="-5.17778205871582">
        <ele>900</ele>
        <time>2019-05-11T23:20:20Z</time>
      </trkpt>
      <trkpt lat="36.8101234436035" lon="-5.17776679992676">
        <ele>900</ele>
        <time>2019-05-11T23:20:22Z</time>
      </trkpt>
      <trkpt lat="36.8101081848144" lon="-5.17775201797485">
        <ele>901</ele>
        <time>2019-05-11T23:20:24Z</time>
      </trkpt>
      <trkpt lat="36.8100891113281" lon="-5.17773723602295">
        <ele>901</ele>
        <time>2019-05-11T23:20:26Z</time>
      </trkpt>
      <trkpt lat="36.8100738525391" lon="-5.17772006988525">
        <ele>902</ele>
        <time>2019-05-11T23:20:28Z</time>
      </trkpt>
      <trkpt lat="36.8100471496582" lon="-5.17769479751587">
        <ele>902</ele>
        <time>2019-05-11T23:20:30Z</time>
      </trkpt>
      <trkpt lat="36.8100318908691" lon="-5.17767477035522">
        <ele>902</ele>
        <time>2019-05-11T23:20:32Z</time>
      </trkpt>
      <trkpt lat="36.8100090026856" lon="-5.17765808105469">
        <ele>903</ele>
        <time>2019-05-11T23:20:35Z</time>
      </trkpt>
      <trkpt lat="36.8099899291992" lon="-5.17764282226562">
        <ele>903</ele>
        <time>2019-05-11T23:20:37Z</time>
      </trkpt>
      <trkpt lat="36.8099708557129" lon="-5.17762804031372">
        <ele>903</ele>
        <time>2019-05-11T23:20:39Z</time>
      </trkpt>
      <trkpt lat="36.8099517822266" lon="-5.17760992050171">
        <ele>903</ele>
        <time>2019-05-11T23:20:41Z</time>
      </trkpt>
      <trkpt lat="36.809928894043" lon="-5.1775918006897">
        <ele>903</ele>
        <time>2019-05-11T23:20:43Z</time>
      </trkpt>
      <trkpt lat="36.8099098205566" lon="-5.17757701873779">
        <ele>903</ele>
        <time>2019-05-11T23:20:45Z</time>
      </trkpt>
      <trkpt lat="36.8098907470703" lon="-5.17756223678589">
        <ele>903</ele>
        <time>2019-05-11T23:20:47Z</time>
      </trkpt>
      <trkpt lat="36.809871673584" lon="-5.17754507064819">
        <ele>903</ele>
        <time>2019-05-11T23:20:49Z</time>
      </trkpt>
      <trkpt lat="36.8098526000977" lon="-5.17752981185913">
        <ele>903</ele>
        <time>2019-05-11T23:20:51Z</time>
      </trkpt>
      <trkpt lat="36.8098335266113" lon="-5.17751502990723">
        <ele>903</ele>
        <time>2019-05-11T23:20:53Z</time>
      </trkpt>
      <trkpt lat="36.8098106384277" lon="-5.17750215530396">
        <ele>903</ele>
        <time>2019-05-11T23:20:55Z</time>
      </trkpt>
      <trkpt lat="36.8097915649414" lon="-5.17748785018921">
        <ele>903</ele>
        <time>2019-05-11T23:20:57Z</time>
      </trkpt>
      <trkpt lat="36.8097686767578" lon="-5.1774730682373">
        <ele>903</ele>
        <time>2019-05-11T23:20:59Z</time>
      </trkpt>
      <trkpt lat="36.8097496032715" lon="-5.17746019363403">
        <ele>903</ele>
        <time>2019-05-11T23:21:01Z</time>
      </trkpt>
      <trkpt lat="36.8097267150879" lon="-5.1774468421936">
        <ele>904</ele>
        <time>2019-05-11T23:21:03Z</time>
      </trkpt>
      <trkpt lat="36.8097038269043" lon="-5.1774320602417">
        <ele>904</ele>
        <time>2019-05-11T23:21:05Z</time>
      </trkpt>
      <trkpt lat="36.8096885681152" lon="-5.177414894104">
        <ele>904</ele>
        <time>2019-05-11T23:21:07Z</time>
      </trkpt>
      <trkpt lat="36.8096618652344" lon="-5.17740297317505">
        <ele>905</ele>
        <time>2019-05-11T23:21:09Z</time>
      </trkpt>
      <trkpt lat="36.8096389770508" lon="-5.17739295959473">
        <ele>905</ele>
        <time>2019-05-11T23:21:11Z</time>
      </trkpt>
      <trkpt lat="36.8096237182617" lon="-5.17737722396851">
        <ele>905</ele>
        <time>2019-05-11T23:21:13Z</time>
      </trkpt>
      <trkpt lat="36.8096008300781" lon="-5.17735815048218">
        <ele>906</ele>
        <time>2019-05-11T23:21:15Z</time>
      </trkpt>
      <trkpt lat="36.8095817565918" lon="-5.17734289169312">
        <ele>906</ele>
        <time>2019-05-11T23:21:17Z</time>
      </trkpt>
      <trkpt lat="36.8095588684082" lon="-5.17733001708984">
        <ele>907</ele>
        <time>2019-05-11T23:21:19Z</time>
      </trkpt>
      <trkpt lat="36.8095359802246" lon="-5.17731285095215">
        <ele>907</ele>
        <time>2019-05-11T23:21:21Z</time>
      </trkpt>
      <trkpt lat="36.8095169067383" lon="-5.1772952079773">
        <ele>907</ele>
        <time>2019-05-11T23:21:23Z</time>
      </trkpt>
      <trkpt lat="36.8094940185547" lon="-5.17727994918823">
        <ele>908</ele>
        <time>2019-05-11T23:21:25Z</time>
      </trkpt>
      <trkpt lat="36.8094787597656" lon="-5.17726278305054">
        <ele>908</ele>
        <time>2019-05-11T23:21:27Z</time>
      </trkpt>
      <trkpt lat="36.8094596862793" lon="-5.17724514007568">
        <ele>908</ele>
        <time>2019-05-11T23:21:29Z</time>
      </trkpt>
      <trkpt lat="36.8094367980957" lon="-5.17722988128662">
        <ele>909</ele>
        <time>2019-05-11T23:21:31Z</time>
      </trkpt>
      <trkpt lat="36.8094177246094" lon="-5.17721319198608">
        <ele>909</ele>
        <time>2019-05-11T23:21:33Z</time>
      </trkpt>
      <trkpt lat="36.809398651123" lon="-5.1771969795227">
        <ele>909</ele>
        <time>2019-05-11T23:21:35Z</time>
      </trkpt>
      <trkpt lat="36.8093795776367" lon="-5.17717790603638">
        <ele>910</ele>
        <time>2019-05-11T23:21:37Z</time>
      </trkpt>
      <trkpt lat="36.8093605041504" lon="-5.17715978622436">
        <ele>910</ele>
        <time>2019-05-11T23:21:39Z</time>
      </trkpt>
      <trkpt lat="36.8093414306641" lon="-5.17714023590088">
        <ele>910</ele>
        <time>2019-05-11T23:21:41Z</time>
      </trkpt>
      <trkpt lat="36.8093223571777" lon="-5.17712020874023">
        <ele>910</ele>
        <time>2019-05-11T23:21:43Z</time>
      </trkpt>
      <trkpt lat="36.8093032836914" lon="-5.17709493637085">
        <ele>910</ele>
        <time>2019-05-11T23:21:45Z</time>
      </trkpt>
      <trkpt lat="36.8092803955078" lon="-5.1770749092102">
        <ele>911</ele>
        <time>2019-05-11T23:21:47Z</time>
      </trkpt>
      <trkpt lat="36.8092575073242" lon="-5.17705297470093">
        <ele>911</ele>
        <time>2019-05-11T23:21:49Z</time>
      </trkpt>
      <trkpt lat="36.8092346191406" lon="-5.17703294754028">
        <ele>911</ele>
        <time>2019-05-11T23:21:51Z</time>
      </trkpt>
      <trkpt lat="36.809211730957" lon="-5.17701292037964">
        <ele>911</ele>
        <time>2019-05-11T23:21:53Z</time>
      </trkpt>
      <trkpt lat="36.8091926574707" lon="-5.17699289321899">
        <ele>911</ele>
        <time>2019-05-11T23:21:55Z</time>
      </trkpt>
      <trkpt lat="36.8091697692871" lon="-5.17697191238403">
        <ele>911</ele>
        <time>2019-05-11T23:21:57Z</time>
      </trkpt>
      <trkpt lat="36.8091468811035" lon="-5.17695188522339">
        <ele>911</ele>
        <time>2019-05-11T23:21:59Z</time>
      </trkpt>
      <trkpt lat="36.8091201782227" lon="-5.17693281173706">
        <ele>911</ele>
        <time>2019-05-11T23:22:01Z</time>
      </trkpt>
      <trkpt lat="36.8090972900391" lon="-5.1769118309021">
        <ele>911</ele>
        <time>2019-05-11T23:22:03Z</time>
      </trkpt>
      <trkpt lat="36.8090629577637" lon="-5.1768798828125">
        <ele>911</ele>
        <time>2019-05-11T23:22:05Z</time>
      </trkpt>
      <trkpt lat="36.8090362548828" lon="-5.17685794830322">
        <ele>911</ele>
        <time>2019-05-11T23:22:07Z</time>
      </trkpt>
      <trkpt lat="36.8090133666992" lon="-5.17683696746826">
        <ele>911</ele>
        <time>2019-05-11T23:22:10Z</time>
      </trkpt>
      <trkpt lat="36.8089904785156" lon="-5.17681312561035">
        <ele>911</ele>
        <time>2019-05-11T23:22:12Z</time>
      </trkpt>
      <trkpt lat="36.8089714050293" lon="-5.17678785324097">
        <ele>911</ele>
        <time>2019-05-11T23:22:14Z</time>
      </trkpt>
      <trkpt lat="36.8089485168457" lon="-5.17676496505737">
        <ele>911</ele>
        <time>2019-05-11T23:22:16Z</time>
      </trkpt>
      <trkpt lat="36.8089256286621" lon="-5.1767430305481">
        <ele>911</ele>
        <time>2019-05-11T23:22:18Z</time>
      </trkpt>
      <trkpt lat="36.8089027404785" lon="-5.1767201423645">
        <ele>911</ele>
        <time>2019-05-11T23:22:20Z</time>
      </trkpt>
      <trkpt lat="36.8088798522949" lon="-5.17669677734375">
        <ele>910</ele>
        <time>2019-05-11T23:22:22Z</time>
      </trkpt>
      <trkpt lat="36.8088569641113" lon="-5.17667293548584">
        <ele>910</ele>
        <time>2019-05-11T23:22:24Z</time>
      </trkpt>
      <trkpt lat="36.808837890625" lon="-5.17665004730225">
        <ele>909</ele>
        <time>2019-05-11T23:22:26Z</time>
      </trkpt>
      <trkpt lat="36.8088150024414" lon="-5.17662811279297">
        <ele>909</ele>
        <time>2019-05-11T23:22:28Z</time>
      </trkpt>
      <trkpt lat="36.8087921142578" lon="-5.17660522460938">
        <ele>909</ele>
        <time>2019-05-11T23:22:30Z</time>
      </trkpt>
      <trkpt lat="36.8087768554688" lon="-5.17657995223999">
        <ele>909</ele>
        <time>2019-05-11T23:22:32Z</time>
      </trkpt>
      <trkpt lat="36.8087577819824" lon="-5.1765570640564">
        <ele>909</ele>
        <time>2019-05-11T23:22:34Z</time>
      </trkpt>
      <trkpt lat="36.8087348937988" lon="-5.17653322219849">
        <ele>909</ele>
        <time>2019-05-11T23:22:36Z</time>
      </trkpt>
      <trkpt lat="36.8087158203125" lon="-5.17650985717773">
        <ele>908</ele>
        <time>2019-05-11T23:22:38Z</time>
      </trkpt>
      <trkpt lat="36.8086929321289" lon="-5.17648506164551">
        <ele>908</ele>
        <time>2019-05-11T23:22:40Z</time>
      </trkpt>
      <trkpt lat="36.8086738586426" lon="-5.17646217346191">
        <ele>907</ele>
        <time>2019-05-11T23:22:42Z</time>
      </trkpt>
      <trkpt lat="36.8086471557617" lon="-5.17643785476685">
        <ele>906</ele>
        <time>2019-05-11T23:22:44Z</time>
      </trkpt>
      <trkpt lat="36.8086280822754" lon="-5.17641687393188">
        <ele>906</ele>
        <time>2019-05-11T23:22:46Z</time>
      </trkpt>
      <trkpt lat="36.8086013793945" lon="-5.17639780044556">
        <ele>906</ele>
        <time>2019-05-11T23:22:48Z</time>
      </trkpt>
      <trkpt lat="36.8085784912109" lon="-5.17637777328491">
        <ele>906</ele>
        <time>2019-05-11T23:22:50Z</time>
      </trkpt>
      <trkpt lat="36.8085556030273" lon="-5.17636013031006">
        <ele>906</ele>
        <time>2019-05-11T23:22:52Z</time>
      </trkpt>
      <trkpt lat="36.8085327148438" lon="-5.17634201049805">
        <ele>906</ele>
        <time>2019-05-11T23:22:54Z</time>
      </trkpt>
      <trkpt lat="36.8085098266602" lon="-5.17632293701172">
        <ele>906</ele>
        <time>2019-05-11T23:22:56Z</time>
      </trkpt>
      <trkpt lat="36.8084869384766" lon="-5.1763072013855">
        <ele>905</ele>
        <time>2019-05-11T23:22:58Z</time>
      </trkpt>
      <trkpt lat="36.8084678649902" lon="-5.1762900352478">
        <ele>905</ele>
        <time>2019-05-11T23:23:00Z</time>
      </trkpt>
      <trkpt lat="36.8084487915039" lon="-5.17627477645874">
        <ele>905</ele>
        <time>2019-05-11T23:23:02Z</time>
      </trkpt>
      <trkpt lat="36.8084259033203" lon="-5.1762580871582">
        <ele>905</ele>
        <time>2019-05-11T23:23:04Z</time>
      </trkpt>
      <trkpt lat="36.808406829834" lon="-5.17624282836914">
        <ele>905</ele>
        <time>2019-05-11T23:23:06Z</time>
      </trkpt>
      <trkpt lat="36.8083839416504" lon="-5.17622804641724">
        <ele>905</ele>
        <time>2019-05-11T23:23:08Z</time>
      </trkpt>
      <trkpt lat="36.8083610534668" lon="-5.17621278762817">
        <ele>905</ele>
        <time>2019-05-11T23:23:10Z</time>
      </trkpt>
      <trkpt lat="36.8083381652832" lon="-5.17619705200195">
        <ele>905</ele>
        <time>2019-05-11T23:23:12Z</time>
      </trkpt>
      <trkpt lat="36.8083152770996" lon="-5.17617797851562">
        <ele>905</ele>
        <time>2019-05-11T23:23:14Z</time>
      </trkpt>
      <trkpt lat="36.8082962036133" lon="-5.17616176605225">
        <ele>905</ele>
        <time>2019-05-11T23:23:16Z</time>
      </trkpt>
      <trkpt lat="36.8082733154297" lon="-5.17614316940308">
        <ele>905</ele>
        <time>2019-05-11T23:23:18Z</time>
      </trkpt>
      <trkpt lat="36.8082466125488" lon="-5.1761269569397">
        <ele>905</ele>
        <time>2019-05-11T23:23:20Z</time>
      </trkpt>
      <trkpt lat="36.8082237243652" lon="-5.17611217498779">
        <ele>905</ele>
        <time>2019-05-11T23:23:22Z</time>
      </trkpt>
      <trkpt lat="36.8082008361816" lon="-5.17609691619873">
        <ele>905</ele>
        <time>2019-05-11T23:23:24Z</time>
      </trkpt>
      <trkpt lat="36.808177947998" lon="-5.17608022689819">
        <ele>905</ele>
        <time>2019-05-11T23:23:26Z</time>
      </trkpt>
      <trkpt lat="36.8081550598144" lon="-5.17606496810913">
        <ele>905</ele>
        <time>2019-05-11T23:23:28Z</time>
      </trkpt>
      <trkpt lat="36.8081321716309" lon="-5.17605018615723">
        <ele>905</ele>
        <time>2019-05-11T23:23:30Z</time>
      </trkpt>
      <trkpt lat="36.8080940246582" lon="-5.17602777481079">
        <ele>905</ele>
        <time>2019-05-11T23:23:32Z</time>
      </trkpt>
      <trkpt lat="36.8080711364746" lon="-5.17601299285889">
        <ele>905</ele>
        <time>2019-05-11T23:23:34Z</time>
      </trkpt>
      <trkpt lat="36.808048248291" lon="-5.17599821090698">
        <ele>905</ele>
        <time>2019-05-11T23:23:37Z</time>
      </trkpt>
      <trkpt lat="36.8080215454102" lon="-5.17598485946655">
        <ele>905</ele>
        <time>2019-05-11T23:23:39Z</time>
      </trkpt>
      <trkpt lat="36.8079948425293" lon="-5.17597484588623">
        <ele>905</ele>
        <time>2019-05-11T23:23:41Z</time>
      </trkpt>
      <trkpt lat="36.8079719543457" lon="-5.17596292495728">
        <ele>905</ele>
        <time>2019-05-11T23:23:43Z</time>
      </trkpt>
      <trkpt lat="36.8079452514648" lon="-5.17595291137695">
        <ele>905</ele>
        <time>2019-05-11T23:23:45Z</time>
      </trkpt>
      <trkpt lat="36.807918548584" lon="-5.17594480514526">
        <ele>905</ele>
        <time>2019-05-11T23:23:47Z</time>
      </trkpt>
      <trkpt lat="36.8078956604004" lon="-5.17593479156494">
        <ele>905</ele>
        <time>2019-05-11T23:23:49Z</time>
      </trkpt>
      <trkpt lat="36.8078727722168" lon="-5.17592477798462">
        <ele>905</ele>
        <time>2019-05-11T23:23:51Z</time>
      </trkpt>
      <trkpt lat="36.8078498840332" lon="-5.17590999603272">
        <ele>905</ele>
        <time>2019-05-11T23:23:53Z</time>
      </trkpt>
      <trkpt lat="36.8078231811523" lon="-5.17589282989502">
        <ele>905</ele>
        <time>2019-05-11T23:23:55Z</time>
      </trkpt>
      <trkpt lat="36.8078002929688" lon="-5.1758770942688">
        <ele>905</ele>
        <time>2019-05-11T23:23:57Z</time>
      </trkpt>
      <trkpt lat="36.8077812194824" lon="-5.17585802078247">
        <ele>905</ele>
        <time>2019-05-11T23:23:59Z</time>
      </trkpt>
      <trkpt lat="36.8077583312988" lon="-5.17583703994751">
        <ele>905</ele>
        <time>2019-05-11T23:24:01Z</time>
      </trkpt>
      <trkpt lat="36.8077392578125" lon="-5.17581701278686">
        <ele>905</ele>
        <time>2019-05-11T23:24:03Z</time>
      </trkpt>
      <trkpt lat="36.8077163696289" lon="-5.17579507827759">
        <ele>905</ele>
        <time>2019-05-11T23:24:05Z</time>
      </trkpt>
      <trkpt lat="36.8076972961426" lon="-5.17577505111694">
        <ele>905</ele>
        <time>2019-05-11T23:24:07Z</time>
      </trkpt>
      <trkpt lat="36.8076782226562" lon="-5.1757550239563">
        <ele>905</ele>
        <time>2019-05-11T23:24:09Z</time>
      </trkpt>
      <trkpt lat="36.8076515197754" lon="-5.1757378578186">
        <ele>905</ele>
        <time>2019-05-11T23:24:11Z</time>
      </trkpt>
      <trkpt lat="36.8076286315918" lon="-5.17572689056396">
        <ele>905</ele>
        <time>2019-05-11T23:24:13Z</time>
      </trkpt>
      <trkpt lat="36.8076057434082" lon="-5.17571687698364">
        <ele>905</ele>
        <time>2019-05-11T23:24:15Z</time>
      </trkpt>
      <trkpt lat="36.8075790405273" lon="-5.17570686340332">
        <ele>905</ele>
        <time>2019-05-11T23:24:17Z</time>
      </trkpt>
      <trkpt lat="36.8075523376465" lon="-5.17569780349731">
        <ele>905</ele>
        <time>2019-05-11T23:24:19Z</time>
      </trkpt>
      <trkpt lat="36.8075256347656" lon="-5.17568778991699">
        <ele>905</ele>
        <time>2019-05-11T23:24:21Z</time>
      </trkpt>
      <trkpt lat="36.8074989318848" lon="-5.17567777633667">
        <ele>905</ele>
        <time>2019-05-11T23:24:23Z</time>
      </trkpt>
      <trkpt lat="36.8074722290039" lon="-5.17567300796509">
        <ele>905</ele>
        <time>2019-05-11T23:24:25Z</time>
      </trkpt>
      <trkpt lat="36.8074417114258" lon="-5.17566680908203">
        <ele>905</ele>
        <time>2019-05-11T23:24:27Z</time>
      </trkpt>
      <trkpt lat="36.8074111938477" lon="-5.17566013336182">
        <ele>905</ele>
        <time>2019-05-11T23:24:29Z</time>
      </trkpt>
      <trkpt lat="36.8073844909668" lon="-5.17565679550171">
        <ele>905</ele>
        <time>2019-05-11T23:24:31Z</time>
      </trkpt>
      <trkpt lat="36.8073577880859" lon="-5.17565202713013">
        <ele>905</ele>
        <time>2019-05-11T23:24:33Z</time>
      </trkpt>
      <trkpt lat="36.8073272705078" lon="-5.17565202713013">
        <ele>905</ele>
        <time>2019-05-11T23:24:35Z</time>
      </trkpt>
      <trkpt lat="36.807300567627" lon="-5.17565298080444">
        <ele>905</ele>
        <time>2019-05-11T23:24:37Z</time>
      </trkpt>
      <trkpt lat="36.8072776794434" lon="-5.17565298080444">
        <ele>905</ele>
        <time>2019-05-11T23:24:39Z</time>
      </trkpt>
      <trkpt lat="36.8072509765625" lon="-5.17565011978149">
        <ele>905</ele>
        <time>2019-05-11T23:24:41Z</time>
      </trkpt>
      <trkpt lat="36.8072242736816" lon="-5.17565011978149">
        <ele>905</ele>
        <time>2019-05-11T23:24:43Z</time>
      </trkpt>
      <trkpt lat="36.8071937561035" lon="-5.17565202713013">
        <ele>905</ele>
        <time>2019-05-11T23:24:45Z</time>
      </trkpt>
      <trkpt lat="36.8071670532227" lon="-5.17565202713013">
        <ele>905</ele>
        <time>2019-05-11T23:24:47Z</time>
      </trkpt>
      <trkpt lat="36.8071365356445" lon="-5.17564821243286">
        <ele>904</ele>
        <time>2019-05-11T23:24:49Z</time>
      </trkpt>
      <trkpt lat="36.8071098327637" lon="-5.17564821243286">
        <ele>904</ele>
        <time>2019-05-11T23:24:51Z</time>
      </trkpt>
      <trkpt lat="36.8070793151856" lon="-5.17564821243286">
        <ele>904</ele>
        <time>2019-05-11T23:24:53Z</time>
      </trkpt>
      <trkpt lat="36.8070487976074" lon="-5.17564821243286">
        <ele>903</ele>
        <time>2019-05-11T23:24:55Z</time>
      </trkpt>
      <trkpt lat="36.8070220947266" lon="-5.17564821243286">
        <ele>903</ele>
        <time>2019-05-11T23:24:57Z</time>
      </trkpt>
      <trkpt lat="36.8069953918457" lon="-5.17564678192139">
        <ele>903</ele>
        <time>2019-05-11T23:24:59Z</time>
      </trkpt>
      <trkpt lat="36.8069686889648" lon="-5.17564296722412">
        <ele>903</ele>
        <time>2019-05-11T23:25:01Z</time>
      </trkpt>
      <trkpt lat="36.8069458007812" lon="-5.17563676834106">
        <ele>903</ele>
        <time>2019-05-11T23:25:03Z</time>
      </trkpt>
      <trkpt lat="36.8069190979004" lon="-5.17562818527222">
        <ele>903</ele>
        <time>2019-05-11T23:25:05Z</time>
      </trkpt>
      <trkpt lat="36.8068923950195" lon="-5.17561817169189">
        <ele>903</ele>
        <time>2019-05-11T23:25:07Z</time>
      </trkpt>
      <trkpt lat="36.8068656921387" lon="-5.1756100654602">
        <ele>903</ele>
        <time>2019-05-11T23:25:09Z</time>
      </trkpt>
      <trkpt lat="36.8068389892578" lon="-5.17560720443726">
        <ele>903</ele>
        <time>2019-05-11T23:25:11Z</time>
      </trkpt>
      <trkpt lat="36.806812286377" lon="-5.17560005187988">
        <ele>903</ele>
        <time>2019-05-11T23:25:13Z</time>
      </trkpt>
      <trkpt lat="36.8067855834961" lon="-5.17559719085693">
        <ele>903</ele>
        <time>2019-05-11T23:25:15Z</time>
      </trkpt>
      <trkpt lat="36.8067588806152" lon="-5.17559003829956">
        <ele>903</ele>
        <time>2019-05-11T23:25:17Z</time>
      </trkpt>
      <trkpt lat="36.8067321777344" lon="-5.17558717727661">
        <ele>903</ele>
        <time>2019-05-11T23:25:19Z</time>
      </trkpt>
      <trkpt lat="36.8067054748535" lon="-5.17558479309082">
        <ele>903</ele>
        <time>2019-05-11T23:25:21Z</time>
      </trkpt>
      <trkpt lat="36.8066787719727" lon="-5.17557811737061">
        <ele>903</ele>
        <time>2019-05-11T23:25:23Z</time>
      </trkpt>
      <trkpt lat="36.8066482543945" lon="-5.17557287216186">
        <ele>903</ele>
        <time>2019-05-11T23:25:25Z</time>
      </trkpt>
      <trkpt lat="36.8066062927246" lon="-5.17556715011597">
        <ele>903</ele>
        <time>2019-05-11T23:25:27Z</time>
      </trkpt>
      <trkpt lat="36.8065795898438" lon="-5.17556190490723">
        <ele>903</ele>
        <time>2019-05-11T23:25:29Z</time>
      </trkpt>
      <trkpt lat="36.8065567016602" lon="-5.17555713653564">
        <ele>903</ele>
        <time>2019-05-11T23:25:32Z</time>
      </trkpt>
      <trkpt lat="36.8065338134766" lon="-5.17555522918701">
        <ele>903</ele>
        <time>2019-05-11T23:25:34Z</time>
      </trkpt>
      <trkpt lat="36.8065071105957" lon="-5.1755518913269">
        <ele>903</ele>
        <time>2019-05-11T23:25:36Z</time>
      </trkpt>
      <trkpt lat="36.8064804077148" lon="-5.1755518913269">
        <ele>903</ele>
        <time>2019-05-11T23:25:38Z</time>
      </trkpt>
      <trkpt lat="36.806453704834" lon="-5.17555284500122">
        <ele>903</ele>
        <time>2019-05-11T23:25:40Z</time>
      </trkpt>
      <trkpt lat="36.8064231872559" lon="-5.17555522918701">
        <ele>903</ele>
        <time>2019-05-11T23:25:42Z</time>
      </trkpt>
      <trkpt lat="36.806396484375" lon="-5.17555284500122">
        <ele>903</ele>
        <time>2019-05-11T23:25:44Z</time>
      </trkpt>
      <trkpt lat="36.8063697814941" lon="-5.17555284500122">
        <ele>903</ele>
        <time>2019-05-11T23:25:46Z</time>
      </trkpt>
      <trkpt lat="36.806339263916" lon="-5.17555522918701">
        <ele>903</ele>
        <time>2019-05-11T23:25:48Z</time>
      </trkpt>
      <trkpt lat="36.8063087463379" lon="-5.17555713653564">
        <ele>902</ele>
        <time>2019-05-11T23:25:50Z</time>
      </trkpt>
      <trkpt lat="36.8062782287598" lon="-5.17555999755859">
        <ele>901</ele>
        <time>2019-05-11T23:25:52Z</time>
      </trkpt>
      <trkpt lat="36.8062477111816" lon="-5.17555999755859">
        <ele>901</ele>
        <time>2019-05-11T23:25:54Z</time>
      </trkpt>
      <trkpt lat="36.8062171936035" lon="-5.17556285858154">
        <ele>901</ele>
        <time>2019-05-11T23:25:56Z</time>
      </trkpt>
      <trkpt lat="36.8061866760254" lon="-5.17556476593018">
        <ele>901</ele>
        <time>2019-05-11T23:25:58Z</time>
      </trkpt>
      <trkpt lat="36.8061561584473" lon="-5.17556476593018">
        <ele>901</ele>
        <time>2019-05-11T23:26:00Z</time>
      </trkpt>
      <trkpt lat="36.8061294555664" lon="-5.17556285858154">
        <ele>900</ele>
        <time>2019-05-11T23:26:02Z</time>
      </trkpt>
      <trkpt lat="36.8060989379883" lon="-5.17557287216186">
        <ele>900</ele>
        <time>2019-05-11T23:26:04Z</time>
      </trkpt>
      <trkpt lat="36.8060684204102" lon="-5.17558479309082">
        <ele>899</ele>
        <time>2019-05-11T23:26:06Z</time>
      </trkpt>
      <trkpt lat="36.806037902832" lon="-5.17559289932251">
        <ele>899</ele>
        <time>2019-05-11T23:26:08Z</time>
      </trkpt>
      <trkpt lat="36.8060073852539" lon="-5.17559814453125">
        <ele>898</ele>
        <time>2019-05-11T23:26:10Z</time>
      </trkpt>
      <trkpt lat="36.8059768676758" lon="-5.17560720443726">
        <ele>898</ele>
        <time>2019-05-11T23:26:12Z</time>
      </trkpt>
      <trkpt lat="36.8059501647949" lon="-5.17560815811157">
        <ele>898</ele>
        <time>2019-05-11T23:26:14Z</time>
      </trkpt>
      <trkpt lat="36.8059234619141" lon="-5.17560815811157">
        <ele>898</ele>
        <time>2019-05-11T23:26:16Z</time>
      </trkpt>
      <trkpt lat="36.8058967590332" lon="-5.17560291290283">
        <ele>898</ele>
        <time>2019-05-11T23:26:18Z</time>
      </trkpt>
      <trkpt lat="36.8058738708496" lon="-5.17559480667114">
        <ele>898</ele>
        <time>2019-05-11T23:26:20Z</time>
      </trkpt>
      <trkpt lat="36.805850982666" lon="-5.17558813095093">
        <ele>898</ele>
        <time>2019-05-11T23:26:22Z</time>
      </trkpt>
      <trkpt lat="36.8058280944824" lon="-5.17557716369629">
        <ele>898</ele>
        <time>2019-05-11T23:26:24Z</time>
      </trkpt>
      <trkpt lat="36.8058052062988" lon="-5.17556810379028">
        <ele>898</ele>
        <time>2019-05-11T23:26:26Z</time>
      </trkpt>
      <trkpt lat="36.8057823181152" lon="-5.17555999755859">
        <ele>898</ele>
        <time>2019-05-11T23:26:28Z</time>
      </trkpt>
      <trkpt lat="36.8057594299316" lon="-5.1755518913269">
        <ele>898</ele>
        <time>2019-05-11T23:26:30Z</time>
      </trkpt>
      <trkpt lat="36.8057327270508" lon="-5.17554187774658">
        <ele>898</ele>
        <time>2019-05-11T23:26:32Z</time>
      </trkpt>
      <trkpt lat="36.8057060241699" lon="-5.17552995681763">
        <ele>898</ele>
        <time>2019-05-11T23:26:34Z</time>
      </trkpt>
      <trkpt lat="36.8056755065918" lon="-5.17552185058594">
        <ele>898</ele>
        <time>2019-05-11T23:26:36Z</time>
      </trkpt>
      <trkpt lat="36.8056488037109" lon="-5.17550992965698">
        <ele>898</ele>
        <time>2019-05-11T23:26:38Z</time>
      </trkpt>
      <trkpt lat="36.8056182861328" lon="-5.17549991607666">
        <ele>898</ele>
        <time>2019-05-11T23:26:40Z</time>
      </trkpt>
      <trkpt lat="36.8055953979492" lon="-5.17549180984497">
        <ele>898</ele>
        <time>2019-05-11T23:26:42Z</time>
      </trkpt>
      <trkpt lat="36.8055686950684" lon="-5.17547988891602">
        <ele>898</ele>
        <time>2019-05-11T23:26:44Z</time>
      </trkpt>
      <trkpt lat="36.8055419921875" lon="-5.17546510696411">
        <ele>898</ele>
        <time>2019-05-11T23:26:46Z</time>
      </trkpt>
      <trkpt lat="36.8055229187012" lon="-5.17545223236084">
        <ele>898</ele>
        <time>2019-05-11T23:26:48Z</time>
      </trkpt>
      <trkpt lat="36.8055038452148" lon="-5.17544221878052">
        <ele>898</ele>
        <time>2019-05-11T23:26:50Z</time>
      </trkpt>
      <trkpt lat="36.8054847717285" lon="-5.17542695999146">
        <ele>898</ele>
        <time>2019-05-11T23:26:52Z</time>
      </trkpt>
      <trkpt lat="36.8054618835449" lon="-5.17541694641113">
        <ele>898</ele>
        <time>2019-05-11T23:26:54Z</time>
      </trkpt>
      <trkpt lat="36.8054428100586" lon="-5.17540693283081">
        <ele>898</ele>
        <time>2019-05-11T23:26:56Z</time>
      </trkpt>
      <trkpt lat="36.805419921875" lon="-5.17539501190186">
        <ele>898</ele>
        <time>2019-05-11T23:26:58Z</time>
      </trkpt>
      <trkpt lat="36.8053932189941" lon="-5.1753830909729">
        <ele>896</ele>
        <time>2019-05-11T23:27:00Z</time>
      </trkpt>
      <trkpt lat="36.8053665161133" lon="-5.17537307739258">
        <ele>896</ele>
        <time>2019-05-11T23:27:02Z</time>
      </trkpt>
      <trkpt lat="36.8053436279297" lon="-5.17536497116089">
        <ele>896</ele>
        <time>2019-05-11T23:27:04Z</time>
      </trkpt>
      <trkpt lat="36.8053169250488" lon="-5.1753568649292">
        <ele>896</ele>
        <time>2019-05-11T23:27:06Z</time>
      </trkpt>
      <trkpt lat="36.805290222168" lon="-5.17535018920898">
        <ele>895</ele>
        <time>2019-05-11T23:27:08Z</time>
      </trkpt>
      <trkpt lat="36.8052635192871" lon="-5.17534303665161">
        <ele>895</ele>
        <time>2019-05-11T23:27:10Z</time>
      </trkpt>
      <trkpt lat="36.8052406311035" lon="-5.17533779144287">
        <ele>894</ele>
        <time>2019-05-11T23:27:12Z</time>
      </trkpt>
      <trkpt lat="36.8052177429199" lon="-5.17533302307129">
        <ele>894</ele>
        <time>2019-05-11T23:27:14Z</time>
      </trkpt>
      <trkpt lat="36.8051986694336" lon="-5.17533016204834">
        <ele>894</ele>
        <time>2019-05-11T23:27:16Z</time>
      </trkpt>
      <trkpt lat="36.8051719665527" lon="-5.17533493041992">
        <ele>894</ele>
        <time>2019-05-11T23:27:18Z</time>
      </trkpt>
      <trkpt lat="36.8051376342773" lon="-5.17533206939697">
        <ele>893</ele>
        <time>2019-05-11T23:27:20Z</time>
      </trkpt>
      <trkpt lat="36.8051109313965" lon="-5.17533016204834">
        <ele>893</ele>
        <time>2019-05-11T23:27:22Z</time>
      </trkpt>
      <trkpt lat="36.8050842285156" lon="-5.17533206939697">
        <ele>891</ele>
        <time>2019-05-11T23:27:25Z</time>
      </trkpt>
      <trkpt lat="36.805061340332" lon="-5.17533206939697">
        <ele>891</ele>
        <time>2019-05-11T23:27:27Z</time>
      </trkpt>
      <trkpt lat="36.8050346374512" lon="-5.17533302307129">
        <ele>891</ele>
        <time>2019-05-11T23:27:29Z</time>
      </trkpt>
      <trkpt lat="36.8050117492676" lon="-5.17533779144287">
        <ele>890</ele>
        <time>2019-05-11T23:27:31Z</time>
      </trkpt>
      <trkpt lat="36.8049812316894" lon="-5.1753420829773">
        <ele>889</ele>
        <time>2019-05-11T23:27:33Z</time>
      </trkpt>
      <trkpt lat="36.8049583435059" lon="-5.17534685134888">
        <ele>888</ele>
        <time>2019-05-11T23:27:35Z</time>
      </trkpt>
      <trkpt lat="36.804931640625" lon="-5.17535018920898">
        <ele>888</ele>
        <time>2019-05-11T23:27:37Z</time>
      </trkpt>
      <trkpt lat="36.8049011230469" lon="-5.17535495758057">
        <ele>887</ele>
        <time>2019-05-11T23:27:39Z</time>
      </trkpt>
      <trkpt lat="36.804874420166" lon="-5.17535781860352">
        <ele>886</ele>
        <time>2019-05-11T23:27:41Z</time>
      </trkpt>
      <trkpt lat="36.8048553466797" lon="-5.17536211013794">
        <ele>886</ele>
        <time>2019-05-11T23:27:43Z</time>
      </trkpt>
      <trkpt lat="36.8048324584961" lon="-5.17536783218384">
        <ele>886</ele>
        <time>2019-05-11T23:27:45Z</time>
      </trkpt>
      <trkpt lat="36.8048095703125" lon="-5.17537212371826">
        <ele>886</ele>
        <time>2019-05-11T23:27:47Z</time>
      </trkpt>
      <trkpt lat="36.8047866821289" lon="-5.17537498474121">
        <ele>886</ele>
        <time>2019-05-11T23:27:49Z</time>
      </trkpt>
      <trkpt lat="36.804759979248" lon="-5.1753830909729">
        <ele>886</ele>
        <time>2019-05-11T23:27:51Z</time>
      </trkpt>
      <trkpt lat="36.8047370910644" lon="-5.17539215087891">
        <ele>886</ele>
        <time>2019-05-11T23:27:53Z</time>
      </trkpt>
      <trkpt lat="36.8047103881836" lon="-5.1753978729248">
        <ele>886</ele>
        <time>2019-05-11T23:27:55Z</time>
      </trkpt>
      <trkpt lat="36.8046875" lon="-5.17540788650513">
        <ele>886</ele>
        <time>2019-05-11T23:27:57Z</time>
      </trkpt>
      <trkpt lat="36.8046646118164" lon="-5.17541694641113">
        <ele>886</ele>
        <time>2019-05-11T23:27:59Z</time>
      </trkpt>
      <trkpt lat="36.8046417236328" lon="-5.17542695999146">
        <ele>886</ele>
        <time>2019-05-11T23:28:01Z</time>
      </trkpt>
      <trkpt lat="36.8046188354492" lon="-5.17543697357178">
        <ele>886</ele>
        <time>2019-05-11T23:28:03Z</time>
      </trkpt>
      <trkpt lat="36.8045997619629" lon="-5.17545223236084">
        <ele>886</ele>
        <time>2019-05-11T23:28:05Z</time>
      </trkpt>
      <trkpt lat="36.8045806884766" lon="-5.17546796798706">
        <ele>886</ele>
        <time>2019-05-11T23:28:07Z</time>
      </trkpt>
      <trkpt lat="36.8045616149902" lon="-5.17548179626465">
        <ele>886</ele>
        <time>2019-05-11T23:28:09Z</time>
      </trkpt>
      <trkpt lat="36.8045387268066" lon="-5.17549800872803">
        <ele>886</ele>
        <time>2019-05-11T23:28:11Z</time>
      </trkpt>
      <trkpt lat="36.8045234680176" lon="-5.17551803588867">
        <ele>886</ele>
        <time>2019-05-11T23:28:13Z</time>
      </trkpt>
      <trkpt lat="36.8045120239258" lon="-5.17554187774658">
        <ele>886</ele>
        <time>2019-05-11T23:28:15Z</time>
      </trkpt>
      <trkpt lat="36.804500579834" lon="-5.17556476593018">
        <ele>886</ele>
        <time>2019-05-11T23:28:17Z</time>
      </trkpt>
      <trkpt lat="36.8044929504394" lon="-5.17558813095093">
        <ele>886</ele>
        <time>2019-05-11T23:28:19Z</time>
      </trkpt>
      <trkpt lat="36.8044853210449" lon="-5.1756100654602">
        <ele>886</ele>
        <time>2019-05-11T23:28:21Z</time>
      </trkpt>
      <trkpt lat="36.8044815063477" lon="-5.1756329536438">
        <ele>886</ele>
        <time>2019-05-11T23:28:23Z</time>
      </trkpt>
      <trkpt lat="36.8044815063477" lon="-5.17565679550171">
        <ele>886</ele>
        <time>2019-05-11T23:28:25Z</time>
      </trkpt>
      <trkpt lat="36.8044853210449" lon="-5.17567300796509">
        <ele>886</ele>
        <time>2019-05-11T23:28:27Z</time>
      </trkpt>
      <trkpt lat="36.8044891357422" lon="-5.17569494247436">
        <ele>886</ele>
        <time>2019-05-11T23:28:29Z</time>
      </trkpt>
      <trkpt lat="36.8044967651367" lon="-5.17571687698364">
        <ele>886</ele>
        <time>2019-05-11T23:28:31Z</time>
      </trkpt>
      <trkpt lat="36.8045043945312" lon="-5.17573690414429">
        <ele>886</ele>
        <time>2019-05-11T23:28:33Z</time>
      </trkpt>
      <trkpt lat="36.8045120239258" lon="-5.1757550239563">
        <ele>886</ele>
        <time>2019-05-11T23:28:35Z</time>
      </trkpt>
      <trkpt lat="36.8045234680176" lon="-5.17577314376831">
        <ele>886</ele>
        <time>2019-05-11T23:28:37Z</time>
      </trkpt>
      <trkpt lat="36.8045310974121" lon="-5.17579221725464">
        <ele>886</ele>
        <time>2019-05-11T23:28:39Z</time>
      </trkpt>
      <trkpt lat="36.8045425415039" lon="-5.17580986022949">
        <ele>886</ele>
        <time>2019-05-11T23:28:41Z</time>
      </trkpt>
      <trkpt lat="36.8045501708984" lon="-5.1758279800415">
        <ele>886</ele>
        <time>2019-05-11T23:28:43Z</time>
      </trkpt>
      <trkpt lat="36.8045616149902" lon="-5.17584800720215">
        <ele>886</ele>
        <time>2019-05-11T23:28:45Z</time>
      </trkpt>
      <trkpt lat="36.8045692443848" lon="-5.17586803436279">
        <ele>886</ele>
        <time>2019-05-11T23:28:47Z</time>
      </trkpt>
      <trkpt lat="36.8045806884766" lon="-5.17588520050049">
        <ele>886</ele>
        <time>2019-05-11T23:28:49Z</time>
      </trkpt>
      <trkpt lat="36.8045921325684" lon="-5.17590188980103">
        <ele>886</ele>
        <time>2019-05-11T23:28:51Z</time>
      </trkpt>
      <trkpt lat="36.8045997619629" lon="-5.1759181022644">
        <ele>886</ele>
        <time>2019-05-11T23:28:53Z</time>
      </trkpt>
      <trkpt lat="36.8046112060547" lon="-5.17593479156494">
        <ele>887</ele>
        <time>2019-05-11T23:28:55Z</time>
      </trkpt>
      <trkpt lat="36.8046188354492" lon="-5.17595195770264">
        <ele>887</ele>
        <time>2019-05-11T23:28:57Z</time>
      </trkpt>
      <trkpt lat="36.8046264648438" lon="-5.17597818374634">
        <ele>888</ele>
        <time>2019-05-11T23:28:59Z</time>
      </trkpt>
      <trkpt lat="36.8046340942383" lon="-5.17599487304688">
        <ele>889</ele>
        <time>2019-05-11T23:29:01Z</time>
      </trkpt>
      <trkpt lat="36.8046417236328" lon="-5.1760082244873">
        <ele>890</ele>
        <time>2019-05-11T23:29:04Z</time>
      </trkpt>
      <trkpt lat="36.8046455383301" lon="-5.17602014541626">
        <ele>890</ele>
        <time>2019-05-11T23:29:06Z</time>
      </trkpt>
      <trkpt lat="36.8046455383301" lon="-5.17602777481079">
        <ele>890</ele>
        <time>2019-05-11T23:29:08Z</time>
      </trkpt>
      <trkpt lat="36.8046531677246" lon="-5.17604684829712">
        <ele>890</ele>
        <time>2019-05-11T23:29:10Z</time>
      </trkpt>
      <trkpt lat="36.8046569824219" lon="-5.17606782913208">
        <ele>890</ele>
        <time>2019-05-11T23:29:12Z</time>
      </trkpt>
      <trkpt lat="36.8046607971191" lon="-5.17608976364136">
        <ele>890</ele>
        <time>2019-05-11T23:29:14Z</time>
      </trkpt>
      <trkpt lat="36.8046684265137" lon="-5.17611217498779">
        <ele>891</ele>
        <time>2019-05-11T23:29:16Z</time>
      </trkpt>
      <trkpt lat="36.8046760559082" lon="-5.17613506317139">
        <ele>891</ele>
        <time>2019-05-11T23:29:18Z</time>
      </trkpt>
      <trkpt lat="36.8046836853027" lon="-5.17615985870361">
        <ele>891</ele>
        <time>2019-05-11T23:29:20Z</time>
      </trkpt>
      <trkpt lat="36.8046913146973" lon="-5.176185131073">
        <ele>891</ele>
        <time>2019-05-11T23:29:22Z</time>
      </trkpt>
      <trkpt lat="36.8046951293945" lon="-5.17620992660522">
        <ele>891</ele>
        <time>2019-05-11T23:29:24Z</time>
      </trkpt>
      <trkpt lat="36.8047065734863" lon="-5.17623519897461">
        <ele>892</ele>
        <time>2019-05-11T23:29:26Z</time>
      </trkpt>
      <trkpt lat="36.8047103881836" lon="-5.17625999450684">
        <ele>892</ele>
        <time>2019-05-11T23:29:28Z</time>
      </trkpt>
      <trkpt lat="36.8047180175781" lon="-5.17628479003906">
        <ele>892</ele>
        <time>2019-05-11T23:29:30Z</time>
      </trkpt>
      <trkpt lat="36.8047256469727" lon="-5.17631196975708">
        <ele>892</ele>
        <time>2019-05-11T23:29:32Z</time>
      </trkpt>
      <trkpt lat="36.8047332763672" lon="-5.17633819580078">
        <ele>893</ele>
        <time>2019-05-11T23:29:34Z</time>
      </trkpt>
      <trkpt lat="36.8047409057617" lon="-5.17636299133301">
        <ele>893</ele>
        <time>2019-05-11T23:29:36Z</time>
      </trkpt>
      <trkpt lat="36.8047485351562" lon="-5.17639017105103">
        <ele>893</ele>
        <time>2019-05-11T23:29:38Z</time>
      </trkpt>
      <trkpt lat="36.804759979248" lon="-5.17641687393188">
        <ele>893</ele>
        <time>2019-05-11T23:29:40Z</time>
      </trkpt>
      <trkpt lat="36.8047676086426" lon="-5.17644500732422">
        <ele>893</ele>
        <time>2019-05-11T23:29:42Z</time>
      </trkpt>
      <trkpt lat="36.8047714233398" lon="-5.17646980285644">
        <ele>893</ele>
        <time>2019-05-11T23:29:44Z</time>
      </trkpt>
      <trkpt lat="36.8047790527344" lon="-5.17649507522583">
        <ele>894</ele>
        <time>2019-05-11T23:29:46Z</time>
      </trkpt>
      <trkpt lat="36.8047866821289" lon="-5.17651987075806">
        <ele>894</ele>
        <time>2019-05-11T23:29:48Z</time>
      </trkpt>
      <trkpt lat="36.8047904968262" lon="-5.17654514312744">
        <ele>894</ele>
        <time>2019-05-11T23:29:50Z</time>
      </trkpt>
      <trkpt lat="36.8047904968262" lon="-5.17656803131104">
        <ele>894</ele>
        <time>2019-05-11T23:29:52Z</time>
      </trkpt>
      <trkpt lat="36.8047943115234" lon="-5.17658996582031">
        <ele>894</ele>
        <time>2019-05-11T23:29:54Z</time>
      </trkpt>
      <trkpt lat="36.8047981262207" lon="-5.17661285400391">
        <ele>895</ele>
        <time>2019-05-11T23:29:56Z</time>
      </trkpt>
      <trkpt lat="36.804801940918" lon="-5.1766300201416">
        <ele>895</ele>
        <time>2019-05-11T23:29:58Z</time>
      </trkpt>
      <trkpt lat="36.804801940918" lon="-5.17664813995361">
        <ele>895</ele>
        <time>2019-05-11T23:30:00Z</time>
      </trkpt>
      <trkpt lat="36.804801940918" lon="-5.17666482925415">
        <ele>896</ele>
        <time>2019-05-11T23:30:02Z</time>
      </trkpt>
      <trkpt lat="36.804801940918" lon="-5.1766848564148">
        <ele>896</ele>
        <time>2019-05-11T23:30:04Z</time>
      </trkpt>
      <trkpt lat="36.804801940918" lon="-5.17670011520386">
        <ele>896</ele>
        <time>2019-05-11T23:30:06Z</time>
      </trkpt>
      <trkpt lat="36.8047981262207" lon="-5.17671823501587">
        <ele>896</ele>
        <time>2019-05-11T23:30:08Z</time>
      </trkpt>
      <trkpt lat="36.8047981262207" lon="-5.17673683166504">
        <ele>896</ele>
        <time>2019-05-11T23:30:10Z</time>
      </trkpt>
      <trkpt lat="36.8047981262207" lon="-5.1767520904541">
        <ele>896</ele>
        <time>2019-05-11T23:30:12Z</time>
      </trkpt>
      <trkpt lat="36.8047981262207" lon="-5.17676782608032">
        <ele>896</ele>
        <time>2019-05-11T23:30:14Z</time>
      </trkpt>
      <trkpt lat="36.8047904968262" lon="-5.17678785324097">
        <ele>896</ele>
        <time>2019-05-11T23:30:16Z</time>
      </trkpt>
      <trkpt lat="36.8047828674316" lon="-5.17680978775024">
        <ele>896</ele>
        <time>2019-05-11T23:30:18Z</time>
      </trkpt>
      <trkpt lat="36.8047752380371" lon="-5.176833152771">
        <ele>896</ele>
        <time>2019-05-11T23:30:20Z</time>
      </trkpt>
      <trkpt lat="36.8047637939453" lon="-5.17685508728027">
        <ele>896</ele>
        <time>2019-05-11T23:30:22Z</time>
      </trkpt>
      <trkpt lat="36.8047523498535" lon="-5.17687702178955">
        <ele>896</ele>
        <time>2019-05-11T23:30:24Z</time>
      </trkpt>
      <trkpt lat="36.8047409057617" lon="-5.17689800262451">
        <ele>896</ele>
        <time>2019-05-11T23:30:26Z</time>
      </trkpt>
      <trkpt lat="36.8047218322754" lon="-5.17692708969116">
        <ele>896</ele>
        <time>2019-05-11T23:30:28Z</time>
      </trkpt>
      <trkpt lat="36.8047065734863" lon="-5.17694711685181">
        <ele>896</ele>
        <time>2019-05-11T23:30:30Z</time>
      </trkpt>
      <trkpt lat="36.8046913146973" lon="-5.17696285247803">
        <ele>896</ele>
        <time>2019-05-11T23:30:33Z</time>
      </trkpt>
      <trkpt lat="36.8046798706055" lon="-5.17698001861572">
        <ele>896</ele>
        <time>2019-05-11T23:30:35Z</time>
      </trkpt>
      <trkpt lat="36.8046646118164" lon="-5.17699813842773">
        <ele>896</ele>
        <time>2019-05-11T23:30:37Z</time>
      </trkpt>
      <trkpt lat="36.8046493530273" lon="-5.17701482772827">
        <ele>896</ele>
        <time>2019-05-11T23:30:39Z</time>
      </trkpt>
      <trkpt lat="36.8046340942383" lon="-5.1770281791687">
        <ele>896</ele>
        <time>2019-05-11T23:30:41Z</time>
      </trkpt>
      <trkpt lat="36.8046188354492" lon="-5.17704486846924">
        <ele>896</ele>
        <time>2019-05-11T23:30:43Z</time>
      </trkpt>
      <trkpt lat="36.8046035766602" lon="-5.1770601272583">
        <ele>897</ele>
        <time>2019-05-11T23:30:45Z</time>
      </trkpt>
      <trkpt lat="36.8045845031738" lon="-5.17707300186157">
        <ele>897</ele>
        <time>2019-05-11T23:30:47Z</time>
      </trkpt>
      <trkpt lat="36.8045692443848" lon="-5.17708683013916">
        <ele>897</ele>
        <time>2019-05-11T23:30:49Z</time>
      </trkpt>
      <trkpt lat="36.8045539855957" lon="-5.17710208892822">
        <ele>898</ele>
        <time>2019-05-11T23:30:51Z</time>
      </trkpt>
      <trkpt lat="36.8045387268066" lon="-5.17711210250854">
        <ele>898</ele>
        <time>2019-05-11T23:30:53Z</time>
      </trkpt>
      <trkpt lat="36.8045234680176" lon="-5.17712497711182">
        <ele>898</ele>
        <time>2019-05-11T23:30:55Z</time>
      </trkpt>
      <trkpt lat="36.8045043945312" lon="-5.17713785171509">
        <ele>898</ele>
        <time>2019-05-11T23:30:57Z</time>
      </trkpt>
      <trkpt lat="36.8044891357422" lon="-5.17714786529541">
        <ele>899</ele>
        <time>2019-05-11T23:30:59Z</time>
      </trkpt>
      <trkpt lat="36.8044738769531" lon="-5.17715787887573">
        <ele>899</ele>
        <time>2019-05-11T23:31:01Z</time>
      </trkpt>
      <trkpt lat="36.8044586181641" lon="-5.17716979980469">
        <ele>899</ele>
        <time>2019-05-11T23:31:03Z</time>
      </trkpt>
      <trkpt lat="36.804443359375" lon="-5.17718315124512">
        <ele>900</ele>
        <time>2019-05-11T23:31:05Z</time>
      </trkpt>
      <trkpt lat="36.8044242858887" lon="-5.17719507217407">
        <ele>900</ele>
        <time>2019-05-11T23:31:07Z</time>
      </trkpt>
      <trkpt lat="36.8044090270996" lon="-5.17720794677734">
        <ele>900</ele>
        <time>2019-05-11T23:31:09Z</time>
      </trkpt>
      <trkpt lat="36.8043899536133" lon="-5.17721700668335">
        <ele>900</ele>
        <time>2019-05-11T23:31:11Z</time>
      </trkpt>
      <trkpt lat="36.804370880127" lon="-5.17722797393799">
        <ele>901</ele>
        <time>2019-05-11T23:31:13Z</time>
      </trkpt>
      <trkpt lat="36.8043518066406" lon="-5.17723798751831">
        <ele>901</ele>
        <time>2019-05-11T23:31:15Z</time>
      </trkpt>
      <trkpt lat="36.8043365478516" lon="-5.1772518157959">
        <ele>901</ele>
        <time>2019-05-11T23:31:17Z</time>
      </trkpt>
      <trkpt lat="36.8043212890625" lon="-5.17726707458496">
        <ele>901</ele>
        <time>2019-05-11T23:31:19Z</time>
      </trkpt>
      <trkpt lat="36.804313659668" lon="-5.17727518081665">
        <ele>902</ele>
        <time>2019-05-11T23:31:21Z</time>
      </trkpt>
      <trkpt lat="36.8042984008789" lon="-5.17728185653686">
        <ele>902</ele>
        <time>2019-05-11T23:31:23Z</time>
      </trkpt>
      <trkpt lat="36.8042831420898" lon="-5.17729711532593">
        <ele>902</ele>
        <time>2019-05-11T23:31:25Z</time>
      </trkpt>
      <trkpt lat="36.8042678833008" lon="-5.17731189727783">
        <ele>902</ele>
        <time>2019-05-11T23:31:27Z</time>
      </trkpt>
      <trkpt lat="36.8042488098144" lon="-5.1773247718811">
        <ele>903</ele>
        <time>2019-05-11T23:31:29Z</time>
      </trkpt>
      <trkpt lat="36.8042373657227" lon="-5.1773419380188">
        <ele>903</ele>
        <time>2019-05-11T23:31:31Z</time>
      </trkpt>
      <trkpt lat="36.8042297363281" lon="-5.17735719680786">
        <ele>903</ele>
        <time>2019-05-11T23:31:33Z</time>
      </trkpt>
      <trkpt lat="36.8042259216309" lon="-5.17736196517944">
        <ele>903</ele>
        <time>2019-05-11T23:31:35Z</time>
      </trkpt>
      <trkpt lat="36.8042221069336" lon="-5.17736291885376">
        <ele>903</ele>
        <time>2019-05-11T23:31:37Z</time>
      </trkpt>
      <trkpt lat="36.8042182922363" lon="-5.17736721038818">
        <ele>903</ele>
        <time>2019-05-11T23:31:39Z</time>
      </trkpt>
      <trkpt lat="36.8042068481445" lon="-5.17737817764282">
        <ele>903</ele>
        <time>2019-05-11T23:31:41Z</time>
      </trkpt>
      <trkpt lat="36.8041915893555" lon="-5.17739677429199">
        <ele>903</ele>
        <time>2019-05-11T23:31:43Z</time>
      </trkpt>
      <trkpt lat="36.8041801452637" lon="-5.17741823196411">
        <ele>903</ele>
        <time>2019-05-11T23:31:45Z</time>
      </trkpt>
      <trkpt lat="36.8041687011719" lon="-5.17744016647339">
        <ele>903</ele>
        <time>2019-05-11T23:31:47Z</time>
      </trkpt>
      <trkpt lat="36.8041534423828" lon="-5.17746210098267">
        <ele>903</ele>
        <time>2019-05-11T23:31:49Z</time>
      </trkpt>
      <trkpt lat="36.804141998291" lon="-5.17748308181763">
        <ele>903</ele>
        <time>2019-05-11T23:31:51Z</time>
      </trkpt>
      <trkpt lat="36.8041305541992" lon="-5.17750692367554">
        <ele>903</ele>
        <time>2019-05-11T23:31:53Z</time>
      </trkpt>
      <trkpt lat="36.8041152954102" lon="-5.17752981185913">
        <ele>903</ele>
        <time>2019-05-11T23:31:55Z</time>
      </trkpt>
      <trkpt lat="36.8041038513184" lon="-5.17755508422852">
        <ele>903</ele>
        <time>2019-05-11T23:31:57Z</time>
      </trkpt>
      <trkpt lat="36.8040885925293" lon="-5.17757987976074">
        <ele>903</ele>
        <time>2019-05-11T23:31:59Z</time>
      </trkpt>
      <trkpt lat="36.8040733337402" lon="-5.17760515213013">
        <ele>903</ele>
        <time>2019-05-11T23:32:01Z</time>
      </trkpt>
      <trkpt lat="36.8040580749512" lon="-5.17762804031372">
        <ele>903</ele>
        <time>2019-05-11T23:32:03Z</time>
      </trkpt>
      <trkpt lat="36.8040466308594" lon="-5.17765188217163">
        <ele>903</ele>
        <time>2019-05-11T23:32:05Z</time>
      </trkpt>
      <trkpt lat="36.804027557373" lon="-5.17768287658691">
        <ele>903</ele>
        <time>2019-05-11T23:32:07Z</time>
      </trkpt>
      <trkpt lat="36.804012298584" lon="-5.17770481109619">
        <ele>903</ele>
        <time>2019-05-11T23:32:09Z</time>
      </trkpt>
      <trkpt lat="36.8040008544922" lon="-5.17772483825684">
        <ele>903</ele>
        <time>2019-05-11T23:32:12Z</time>
      </trkpt>
      <trkpt lat="36.8039894104004" lon="-5.17774295806885">
        <ele>903</ele>
        <time>2019-05-11T23:32:14Z</time>
      </trkpt>
      <trkpt lat="36.8039779663086" lon="-5.17776012420654">
        <ele>903</ele>
        <time>2019-05-11T23:32:16Z</time>
      </trkpt>
      <trkpt lat="36.8039665222168" lon="-5.1777777671814">
        <ele>903</ele>
        <time>2019-05-11T23:32:18Z</time>
      </trkpt>
      <trkpt lat="36.8039588928223" lon="-5.17779684066772">
        <ele>903</ele>
        <time>2019-05-11T23:32:20Z</time>
      </trkpt>
      <trkpt lat="36.8039436340332" lon="-5.17781686782837">
        <ele>903</ele>
        <time>2019-05-11T23:32:22Z</time>
      </trkpt>
      <trkpt lat="36.8039283752441" lon="-5.17784023284912">
        <ele>903</ele>
        <time>2019-05-11T23:32:24Z</time>
      </trkpt>
      <trkpt lat="36.8039169311523" lon="-5.17786312103272">
        <ele>903</ele>
        <time>2019-05-11T23:32:26Z</time>
      </trkpt>
      <trkpt lat="36.8039016723633" lon="-5.17788505554199">
        <ele>903</ele>
        <time>2019-05-11T23:32:28Z</time>
      </trkpt>
      <trkpt lat="36.803882598877" lon="-5.17790508270264">
        <ele>903</ele>
        <time>2019-05-11T23:32:30Z</time>
      </trkpt>
      <trkpt lat="36.8038673400879" lon="-5.17792701721191">
        <ele>903</ele>
        <time>2019-05-11T23:32:32Z</time>
      </trkpt>
      <trkpt lat="36.8038558959961" lon="-5.17795276641846">
        <ele>903</ele>
        <time>2019-05-11T23:32:34Z</time>
      </trkpt>
      <trkpt lat="36.8038444519043" lon="-5.17797708511353">
        <ele>903</ele>
        <time>2019-05-11T23:32:36Z</time>
      </trkpt>
      <trkpt lat="36.8038291931152" lon="-5.17799997329712">
        <ele>903</ele>
        <time>2019-05-11T23:32:38Z</time>
      </trkpt>
      <trkpt lat="36.8038139343262" lon="-5.17802286148071">
        <ele>902</ele>
        <time>2019-05-11T23:32:40Z</time>
      </trkpt>
      <trkpt lat="36.8038024902344" lon="-5.1780481338501">
        <ele>901</ele>
        <time>2019-05-11T23:32:42Z</time>
      </trkpt>
      <trkpt lat="36.8037872314453" lon="-5.17807292938232">
        <ele>901</ele>
        <time>2019-05-11T23:32:44Z</time>
      </trkpt>
      <trkpt lat="36.8037719726562" lon="-5.17809820175171">
        <ele>901</ele>
        <time>2019-05-11T23:32:46Z</time>
      </trkpt>
      <trkpt lat="36.8037567138672" lon="-5.17812204360962">
        <ele>901</ele>
        <time>2019-05-11T23:32:48Z</time>
      </trkpt>
      <trkpt lat="36.8037414550781" lon="-5.17814683914185">
        <ele>901</ele>
        <time>2019-05-11T23:32:50Z</time>
      </trkpt>
      <trkpt lat="36.8037300109863" lon="-5.1781702041626">
        <ele>901</ele>
        <time>2019-05-11T23:32:52Z</time>
      </trkpt>
      <trkpt lat="36.8037185668945" lon="-5.17819499969482">
        <ele>901</ele>
        <time>2019-05-11T23:32:54Z</time>
      </trkpt>
      <trkpt lat="36.8037033081055" lon="-5.17821788787842">
        <ele>901</ele>
        <time>2019-05-11T23:32:56Z</time>
      </trkpt>
      <trkpt lat="36.8036918640137" lon="-5.17824220657349">
        <ele>901</ele>
        <time>2019-05-11T23:32:58Z</time>
      </trkpt>
      <trkpt lat="36.8036766052246" lon="-5.17826509475708">
        <ele>901</ele>
        <time>2019-05-11T23:33:00Z</time>
      </trkpt>
      <trkpt lat="36.8036613464356" lon="-5.17828702926636">
        <ele>901</ele>
        <time>2019-05-11T23:33:02Z</time>
      </trkpt>
      <trkpt lat="36.8036499023438" lon="-5.17830991744995">
        <ele>901</ele>
        <time>2019-05-11T23:33:04Z</time>
      </trkpt>
      <trkpt lat="36.8036346435547" lon="-5.17833518981934">
        <ele>901</ele>
        <time>2019-05-11T23:33:06Z</time>
      </trkpt>
      <trkpt lat="36.8036193847656" lon="-5.17835712432861">
        <ele>901</ele>
        <time>2019-05-11T23:33:08Z</time>
      </trkpt>
      <trkpt lat="36.8036079406738" lon="-5.17837810516357">
        <ele>901</ele>
        <time>2019-05-11T23:33:10Z</time>
      </trkpt>
      <trkpt lat="36.803596496582" lon="-5.17840003967285">
        <ele>901</ele>
        <time>2019-05-11T23:33:12Z</time>
      </trkpt>
      <trkpt lat="36.803581237793" lon="-5.17842197418213">
        <ele>901</ele>
        <time>2019-05-11T23:33:14Z</time>
      </trkpt>
      <trkpt lat="36.8035736083984" lon="-5.17844486236572">
        <ele>901</ele>
        <time>2019-05-11T23:33:16Z</time>
      </trkpt>
      <trkpt lat="36.8035583496094" lon="-5.178466796875">
        <ele>901</ele>
        <time>2019-05-11T23:33:18Z</time>
      </trkpt>
      <trkpt lat="36.8035469055176" lon="-5.17849016189575">
        <ele>900</ele>
        <time>2019-05-11T23:33:20Z</time>
      </trkpt>
      <trkpt lat="36.8035316467285" lon="-5.17851209640503">
        <ele>900</ele>
        <time>2019-05-11T23:33:22Z</time>
      </trkpt>
      <trkpt lat="36.8035163879394" lon="-5.17853498458862">
        <ele>900</ele>
        <time>2019-05-11T23:33:24Z</time>
      </trkpt>
      <trkpt lat="36.8035011291504" lon="-5.17855310440064">
        <ele>900</ele>
        <time>2019-05-11T23:33:26Z</time>
      </trkpt>
      <trkpt lat="36.8034858703613" lon="-5.17857694625854">
        <ele>899</ele>
        <time>2019-05-11T23:33:28Z</time>
      </trkpt>
      <trkpt lat="36.8034744262695" lon="-5.17859983444214">
        <ele>899</ele>
        <time>2019-05-11T23:33:30Z</time>
      </trkpt>
      <trkpt lat="36.8034591674805" lon="-5.17862176895142">
        <ele>899</ele>
        <time>2019-05-11T23:33:32Z</time>
      </trkpt>
      <trkpt lat="36.8034400939941" lon="-5.17864513397217">
        <ele>899</ele>
        <time>2019-05-11T23:33:34Z</time>
      </trkpt>
      <trkpt lat="36.8034286499023" lon="-5.17866706848144">
        <ele>899</ele>
        <time>2019-05-11T23:33:36Z</time>
      </trkpt>
      <trkpt lat="36.8034133911133" lon="-5.17868709564209">
        <ele>899</ele>
        <time>2019-05-11T23:33:38Z</time>
      </trkpt>
      <trkpt lat="36.8033905029297" lon="-5.17871809005737">
        <ele>899</ele>
        <time>2019-05-11T23:33:40Z</time>
      </trkpt>
      <trkpt lat="36.8033752441406" lon="-5.17873811721802">
        <ele>898</ele>
        <time>2019-05-11T23:33:42Z</time>
      </trkpt>
      <trkpt lat="36.8033638000488" lon="-5.1787600517273">
        <ele>898</ele>
        <time>2019-05-11T23:33:45Z</time>
      </trkpt>
      <trkpt lat="36.8033485412598" lon="-5.17878007888794">
        <ele>898</ele>
        <time>2019-05-11T23:33:47Z</time>
      </trkpt>
      <trkpt lat="36.8033332824707" lon="-5.17879676818848">
        <ele>898</ele>
        <time>2019-05-11T23:33:49Z</time>
      </trkpt>
      <trkpt lat="36.8033180236816" lon="-5.17881679534912">
        <ele>898</ele>
        <time>2019-05-11T23:33:51Z</time>
      </trkpt>
      <trkpt lat="36.8033027648926" lon="-5.17883682250977">
        <ele>898</ele>
        <time>2019-05-11T23:33:53Z</time>
      </trkpt>
      <trkpt lat="36.8032836914062" lon="-5.17885684967041">
        <ele>896</ele>
        <time>2019-05-11T23:33:55Z</time>
      </trkpt>
      <trkpt lat="36.8032684326172" lon="-5.17887687683106">
        <ele>896</ele>
        <time>2019-05-11T23:33:57Z</time>
      </trkpt>
      <trkpt lat="36.8032493591309" lon="-5.17889976501465">
        <ele>896</ele>
        <time>2019-05-11T23:33:59Z</time>
      </trkpt>
      <trkpt lat="36.8032302856445" lon="-5.17892217636108">
        <ele>896</ele>
        <time>2019-05-11T23:34:01Z</time>
      </trkpt>
      <trkpt lat="36.8032150268555" lon="-5.17894315719604">
        <ele>896</ele>
        <time>2019-05-11T23:34:03Z</time>
      </trkpt>
      <trkpt lat="36.8031997680664" lon="-5.17896699905396">
        <ele>896</ele>
        <time>2019-05-11T23:34:05Z</time>
      </trkpt>
      <trkpt lat="36.8031806945801" lon="-5.17898988723755">
        <ele>896</ele>
        <time>2019-05-11T23:34:07Z</time>
      </trkpt>
      <trkpt lat="36.8031616210938" lon="-5.17901182174683">
        <ele>896</ele>
        <time>2019-05-11T23:34:09Z</time>
      </trkpt>
      <trkpt lat="36.8031463623047" lon="-5.17903280258179">
        <ele>896</ele>
        <time>2019-05-11T23:34:11Z</time>
      </trkpt>
      <trkpt lat="36.8031272888184" lon="-5.17905521392822">
        <ele>896</ele>
        <time>2019-05-11T23:34:13Z</time>
      </trkpt>
      <trkpt lat="36.803108215332" lon="-5.1790771484375">
        <ele>896</ele>
        <time>2019-05-11T23:34:15Z</time>
      </trkpt>
      <trkpt lat="36.8030853271484" lon="-5.17909479141235">
        <ele>896</ele>
        <time>2019-05-11T23:34:17Z</time>
      </trkpt>
      <trkpt lat="36.8030662536621" lon="-5.17911291122436">
        <ele>896</ele>
        <time>2019-05-11T23:34:19Z</time>
      </trkpt>
      <trkpt lat="36.8030433654785" lon="-5.17913198471069">
        <ele>896</ele>
        <time>2019-05-11T23:34:21Z</time>
      </trkpt>
      <trkpt lat="36.8030242919922" lon="-5.1791501045227">
        <ele>896</ele>
        <time>2019-05-11T23:34:23Z</time>
      </trkpt>
      <trkpt lat="36.8030052185059" lon="-5.17916822433472">
        <ele>896</ele>
        <time>2019-05-11T23:34:25Z</time>
      </trkpt>
      <trkpt lat="36.8029823303223" lon="-5.17918682098389">
        <ele>896</ele>
        <time>2019-05-11T23:34:27Z</time>
      </trkpt>
      <trkpt lat="36.8029632568359" lon="-5.17920017242432">
        <ele>896</ele>
        <time>2019-05-11T23:34:29Z</time>
      </trkpt>
      <trkpt lat="36.8029441833496" lon="-5.17921781539917">
        <ele>896</ele>
        <time>2019-05-11T23:34:31Z</time>
      </trkpt>
      <trkpt lat="36.8029251098633" lon="-5.1792368888855">
        <ele>896</ele>
        <time>2019-05-11T23:34:33Z</time>
      </trkpt>
      <trkpt lat="36.802906036377" lon="-5.17925500869751">
        <ele>896</ele>
        <time>2019-05-11T23:34:35Z</time>
      </trkpt>
      <trkpt lat="36.8028869628906" lon="-5.17927312850952">
        <ele>896</ele>
        <time>2019-05-11T23:34:37Z</time>
      </trkpt>
      <trkpt lat="36.8028717041016" lon="-5.17929315567017">
        <ele>896</ele>
        <time>2019-05-11T23:34:39Z</time>
      </trkpt>
      <trkpt lat="36.8028526306152" lon="-5.17931222915649">
        <ele>896</ele>
        <time>2019-05-11T23:34:41Z</time>
      </trkpt>
      <trkpt lat="36.8028373718262" lon="-5.17933320999146">
        <ele>896</ele>
        <time>2019-05-11T23:34:43Z</time>
      </trkpt>
      <trkpt lat="36.8028221130371" lon="-5.17935514450073">
        <ele>896</ele>
        <time>2019-05-11T23:34:45Z</time>
      </trkpt>
      <trkpt lat="36.8028106689453" lon="-5.17937278747559">
        <ele>896</ele>
        <time>2019-05-11T23:34:47Z</time>
      </trkpt>
      <trkpt lat="36.8027992248535" lon="-5.17939281463623">
        <ele>896</ele>
        <time>2019-05-11T23:34:49Z</time>
      </trkpt>
      <trkpt lat="36.8027839660644" lon="-5.17941522598267">
        <ele>896</ele>
        <time>2019-05-11T23:34:51Z</time>
      </trkpt>
      <trkpt lat="36.8027687072754" lon="-5.17943716049194">
        <ele>896</ele>
        <time>2019-05-11T23:34:53Z</time>
      </trkpt>
      <trkpt lat="36.8027572631836" lon="-5.17945718765259">
        <ele>896</ele>
        <time>2019-05-11T23:34:55Z</time>
      </trkpt>
      <trkpt lat="36.8027496337891" lon="-5.17947816848755">
        <ele>896</ele>
        <time>2019-05-11T23:34:57Z</time>
      </trkpt>
      <trkpt lat="36.8027381896973" lon="-5.17950010299683">
        <ele>896</ele>
        <time>2019-05-11T23:34:59Z</time>
      </trkpt>
      <trkpt lat="36.8027267456055" lon="-5.17951679229736">
        <ele>896</ele>
        <time>2019-05-11T23:35:01Z</time>
      </trkpt>
      <trkpt lat="36.8027114868164" lon="-5.17953205108643">
        <ele>896</ele>
        <time>2019-05-11T23:35:03Z</time>
      </trkpt>
      <trkpt lat="36.8027038574219" lon="-5.17955303192139">
        <ele>896</ele>
        <time>2019-05-11T23:35:05Z</time>
      </trkpt>
      <trkpt lat="36.8026924133301" lon="-5.17957305908203">
        <ele>896</ele>
        <time>2019-05-11T23:35:07Z</time>
      </trkpt>
      <trkpt lat="36.8026809692383" lon="-5.17959499359131">
        <ele>896</ele>
        <time>2019-05-11T23:35:09Z</time>
      </trkpt>
      <trkpt lat="36.8026733398438" lon="-5.17961692810059">
        <ele>896</ele>
        <time>2019-05-11T23:35:11Z</time>
      </trkpt>
      <trkpt lat="36.802661895752" lon="-5.17963695526123">
        <ele>896</ele>
        <time>2019-05-11T23:35:13Z</time>
      </trkpt>
      <trkpt lat="36.8026428222656" lon="-5.1796669960022">
        <ele>896</ele>
        <time>2019-05-11T23:35:15Z</time>
      </trkpt>
      <trkpt lat="36.8026313781738" lon="-5.17968702316284">
        <ele>896</ele>
        <time>2019-05-11T23:35:17Z</time>
      </trkpt>
      <trkpt lat="36.802619934082" lon="-5.1797080039978">
        <ele>896</ele>
        <time>2019-05-11T23:35:20Z</time>
      </trkpt>
      <trkpt lat="36.8026084899902" lon="-5.17972803115845">
        <ele>897</ele>
        <time>2019-05-11T23:35:22Z</time>
      </trkpt>
      <trkpt lat="36.8025970458984" lon="-5.17974710464478">
        <ele>897</ele>
        <time>2019-05-11T23:35:24Z</time>
      </trkpt>
      <trkpt lat="36.8025856018066" lon="-5.17976713180542">
        <ele>897</ele>
        <time>2019-05-11T23:35:26Z</time>
      </trkpt>
      <trkpt lat="36.8025703430176" lon="-5.17978477478027">
        <ele>898</ele>
        <time>2019-05-11T23:35:28Z</time>
      </trkpt>
      <trkpt lat="36.8025588989258" lon="-5.17980289459228">
        <ele>898</ele>
        <time>2019-05-11T23:35:30Z</time>
      </trkpt>
      <trkpt lat="36.8025436401367" lon="-5.17982196807861">
        <ele>898</ele>
        <time>2019-05-11T23:35:32Z</time>
      </trkpt>
      <trkpt lat="36.8025360107422" lon="-5.17983818054199">
        <ele>898</ele>
        <time>2019-05-11T23:35:34Z</time>
      </trkpt>
      <trkpt lat="36.8025245666504" lon="-5.1798529624939">
        <ele>898</ele>
        <time>2019-05-11T23:35:36Z</time>
      </trkpt>
      <trkpt lat="36.8025131225586" lon="-5.17986822128296">
        <ele>899</ele>
        <time>2019-05-11T23:35:38Z</time>
      </trkpt>
      <trkpt lat="36.8025016784668" lon="-5.17988204956055">
        <ele>899</ele>
        <time>2019-05-11T23:35:40Z</time>
      </trkpt>
      <trkpt lat="36.8024864196777" lon="-5.17989778518677">
        <ele>899</ele>
        <time>2019-05-11T23:35:42Z</time>
      </trkpt>
      <trkpt lat="36.8024749755859" lon="-5.1799168586731">
        <ele>899</ele>
        <time>2019-05-11T23:35:44Z</time>
      </trkpt>
      <trkpt lat="36.8024635314941" lon="-5.17993307113647">
        <ele>900</ele>
        <time>2019-05-11T23:35:46Z</time>
      </trkpt>
      <trkpt lat="36.8024482727051" lon="-5.1799521446228">
        <ele>900</ele>
        <time>2019-05-11T23:35:48Z</time>
      </trkpt>
      <trkpt lat="36.8024368286133" lon="-5.17997217178345">
        <ele>900</ele>
        <time>2019-05-11T23:35:50Z</time>
      </trkpt>
      <trkpt lat="36.8024253845215" lon="-5.17999219894409">
        <ele>900</ele>
        <time>2019-05-11T23:35:52Z</time>
      </trkpt>
      <trkpt lat="36.8024101257324" lon="-5.18000984191894">
        <ele>901</ele>
        <time>2019-05-11T23:35:54Z</time>
      </trkpt>
      <trkpt lat="36.8023948669434" lon="-5.18002986907959">
        <ele>901</ele>
        <time>2019-05-11T23:35:56Z</time>
      </trkpt>
      <trkpt lat="36.8023834228516" lon="-5.1800479888916">
        <ele>901</ele>
        <time>2019-05-11T23:35:58Z</time>
      </trkpt>
      <trkpt lat="36.8023681640625" lon="-5.18006706237793">
        <ele>901</ele>
        <time>2019-05-11T23:36:00Z</time>
      </trkpt>
      <trkpt lat="36.8023529052734" lon="-5.18008804321289">
        <ele>902</ele>
        <time>2019-05-11T23:36:02Z</time>
      </trkpt>
      <trkpt lat="36.8023414611816" lon="-5.18010711669922">
        <ele>902</ele>
        <time>2019-05-11T23:36:04Z</time>
      </trkpt>
      <trkpt lat="36.8023262023926" lon="-5.18012809753418">
        <ele>902</ele>
        <time>2019-05-11T23:36:06Z</time>
      </trkpt>
      <trkpt lat="36.8023109436035" lon="-5.18014812469482">
        <ele>902</ele>
        <time>2019-05-11T23:36:08Z</time>
      </trkpt>
      <trkpt lat="36.8022994995117" lon="-5.18016719818115">
        <ele>903</ele>
        <time>2019-05-11T23:36:10Z</time>
      </trkpt>
      <trkpt lat="36.8022880554199" lon="-5.18018293380737">
        <ele>903</ele>
        <time>2019-05-11T23:36:12Z</time>
      </trkpt>
      <trkpt lat="36.8022766113281" lon="-5.18020296096802">
        <ele>903</ele>
        <time>2019-05-11T23:36:14Z</time>
      </trkpt>
      <trkpt lat="36.8022613525391" lon="-5.18022680282593">
        <ele>903</ele>
        <time>2019-05-11T23:36:16Z</time>
      </trkpt>
      <trkpt lat="36.8022537231445" lon="-5.18024682998657">
        <ele>904</ele>
        <time>2019-05-11T23:36:18Z</time>
      </trkpt>
      <trkpt lat="36.8022384643555" lon="-5.18026781082153">
        <ele>904</ele>
        <time>2019-05-11T23:36:20Z</time>
      </trkpt>
      <trkpt lat="36.8022270202637" lon="-5.1802921295166">
        <ele>905</ele>
        <time>2019-05-11T23:36:22Z</time>
      </trkpt>
      <trkpt lat="36.8022155761719" lon="-5.18031311035156">
        <ele>905</ele>
        <time>2019-05-11T23:36:24Z</time>
      </trkpt>
      <trkpt lat="36.8022003173828" lon="-5.18033504486084">
        <ele>905</ele>
        <time>2019-05-11T23:36:26Z</time>
      </trkpt>
      <trkpt lat="36.8021812438965" lon="-5.18035793304443">
        <ele>906</ele>
        <time>2019-05-11T23:36:28Z</time>
      </trkpt>
      <trkpt lat="36.8021659851074" lon="-5.18038177490234">
        <ele>907</ele>
        <time>2019-05-11T23:36:30Z</time>
      </trkpt>
      <trkpt lat="36.8021507263184" lon="-5.1804051399231">
        <ele>907</ele>
        <time>2019-05-11T23:36:32Z</time>
      </trkpt>
      <trkpt lat="36.8021354675293" lon="-5.18042802810669">
        <ele>907</ele>
        <time>2019-05-11T23:36:34Z</time>
      </trkpt>
      <trkpt lat="36.8021240234375" lon="-5.18045282363892">
        <ele>907</ele>
        <time>2019-05-11T23:36:36Z</time>
      </trkpt>
      <trkpt lat="36.8021087646484" lon="-5.1804780960083">
        <ele>907</ele>
        <time>2019-05-11T23:36:38Z</time>
      </trkpt>
      <trkpt lat="36.8020935058594" lon="-5.18050193786621">
        <ele>907</ele>
        <time>2019-05-11T23:36:40Z</time>
      </trkpt>
      <trkpt lat="36.802074432373" lon="-5.18052291870117">
        <ele>907</ele>
        <time>2019-05-11T23:36:42Z</time>
      </trkpt>
      <trkpt lat="36.802059173584" lon="-5.18054723739624">
        <ele>907</ele>
        <time>2019-05-11T23:36:44Z</time>
      </trkpt>
      <trkpt lat="36.8020401000977" lon="-5.18057203292847">
        <ele>907</ele>
        <time>2019-05-11T23:36:46Z</time>
      </trkpt>
      <trkpt lat="36.8020248413086" lon="-5.18059682846069">
        <ele>907</ele>
        <time>2019-05-11T23:36:48Z</time>
      </trkpt>
      <trkpt lat="36.8020057678223" lon="-5.18062305450439">
        <ele>907</ele>
        <time>2019-05-11T23:36:50Z</time>
      </trkpt>
      <trkpt lat="36.8019866943359" lon="-5.18064785003662">
        <ele>907</ele>
        <time>2019-05-11T23:36:52Z</time>
      </trkpt>
      <trkpt lat="36.8019638061523" lon="-5.18068790435791">
        <ele>907</ele>
        <time>2019-05-11T23:36:54Z</time>
      </trkpt>
      <trkpt lat="36.801944732666" lon="-5.18071222305298">
        <ele>907</ele>
        <time>2019-05-11T23:36:56Z</time>
      </trkpt>
      <trkpt lat="36.8019218444824" lon="-5.18073177337646">
        <ele>907</ele>
        <time>2019-05-11T23:36:59Z</time>
      </trkpt>
      <trkpt lat="36.8019065856934" lon="-5.18075513839722">
        <ele>907</ele>
        <time>2019-05-11T23:37:01Z</time>
      </trkpt>
      <trkpt lat="36.801887512207" lon="-5.18077993392944">
        <ele>907</ele>
        <time>2019-05-11T23:37:03Z</time>
      </trkpt>
      <trkpt lat="36.8018684387207" lon="-5.18080186843872">
        <ele>907</ele>
        <time>2019-05-11T23:37:05Z</time>
      </trkpt>
      <trkpt lat="36.8018531799316" lon="-5.18082284927368">
        <ele>907</ele>
        <time>2019-05-11T23:37:07Z</time>
      </trkpt>
      <trkpt lat="36.8018379211426" lon="-5.18084716796875">
        <ele>907</ele>
        <time>2019-05-11T23:37:09Z</time>
      </trkpt>
      <trkpt lat="36.8018188476562" lon="-5.18086719512939">
        <ele>907</ele>
        <time>2019-05-11T23:37:11Z</time>
      </trkpt>
      <trkpt lat="36.8018035888672" lon="-5.18088722229004">
        <ele>907</ele>
        <time>2019-05-11T23:37:13Z</time>
      </trkpt>
      <trkpt lat="36.8017845153809" lon="-5.18090677261353">
        <ele>907</ele>
        <time>2019-05-11T23:37:15Z</time>
      </trkpt>
      <trkpt lat="36.8017692565918" lon="-5.18092823028564">
        <ele>907</ele>
        <time>2019-05-11T23:37:17Z</time>
      </trkpt>
      <trkpt lat="36.8017501831055" lon="-5.18095016479492">
        <ele>907</ele>
        <time>2019-05-11T23:37:19Z</time>
      </trkpt>
      <trkpt lat="36.8017387390137" lon="-5.1809720993042">
        <ele>907</ele>
        <time>2019-05-11T23:37:21Z</time>
      </trkpt>
      <trkpt lat="36.8017196655273" lon="-5.18099308013916">
        <ele>907</ele>
        <time>2019-05-11T23:37:23Z</time>
      </trkpt>
      <trkpt lat="36.801700592041" lon="-5.18101501464844">
        <ele>907</ele>
        <time>2019-05-11T23:37:25Z</time>
      </trkpt>
      <trkpt lat="36.801685333252" lon="-5.18103313446045">
        <ele>907</ele>
        <time>2019-05-11T23:37:27Z</time>
      </trkpt>
      <trkpt lat="36.8016662597656" lon="-5.18105316162109">
        <ele>907</ele>
        <time>2019-05-11T23:37:29Z</time>
      </trkpt>
      <trkpt lat="36.8016510009766" lon="-5.18107509613037">
        <ele>907</ele>
        <time>2019-05-11T23:37:31Z</time>
      </trkpt>
      <trkpt lat="36.8016319274902" lon="-5.18109703063965">
        <ele>907</ele>
        <time>2019-05-11T23:37:33Z</time>
      </trkpt>
      <trkpt lat="36.8016166687012" lon="-5.18111801147461">
        <ele>907</ele>
        <time>2019-05-11T23:37:35Z</time>
      </trkpt>
      <trkpt lat="36.8016014099121" lon="-5.18113803863525">
        <ele>907</ele>
        <time>2019-05-11T23:37:37Z</time>
      </trkpt>
      <trkpt lat="36.8015823364258" lon="-5.1811580657959">
        <ele>907</ele>
        <time>2019-05-11T23:37:39Z</time>
      </trkpt>
      <trkpt lat="36.801570892334" lon="-5.18117713928223">
        <ele>907</ele>
        <time>2019-05-11T23:37:41Z</time>
      </trkpt>
      <trkpt lat="36.8015594482422" lon="-5.18120002746582">
        <ele>907</ele>
        <time>2019-05-11T23:37:43Z</time>
      </trkpt>
      <trkpt lat="36.8015480041504" lon="-5.18122482299805">
        <ele>907</ele>
        <time>2019-05-11T23:37:45Z</time>
      </trkpt>
      <trkpt lat="36.8015289306641" lon="-5.18124294281006">
        <ele>907</ele>
        <time>2019-05-11T23:37:47Z</time>
      </trkpt>
      <trkpt lat="36.801513671875" lon="-5.18126010894775">
        <ele>907</ele>
        <time>2019-05-11T23:37:49Z</time>
      </trkpt>
      <trkpt lat="36.8014984130859" lon="-5.18128204345703">
        <ele>907</ele>
        <time>2019-05-11T23:37:51Z</time>
      </trkpt>
      <trkpt lat="36.8014831542969" lon="-5.18130302429199">
        <ele>907</ele>
        <time>2019-05-11T23:37:53Z</time>
      </trkpt>
      <trkpt lat="36.8014640808106" lon="-5.18132495880127">
        <ele>907</ele>
        <time>2019-05-11T23:37:55Z</time>
      </trkpt>
      <trkpt lat="36.8014488220215" lon="-5.18134784698486">
        <ele>907</ele>
        <time>2019-05-11T23:37:57Z</time>
      </trkpt>
      <trkpt lat="36.8014373779297" lon="-5.18137216567993">
        <ele>907</ele>
        <time>2019-05-11T23:37:59Z</time>
      </trkpt>
      <trkpt lat="36.8014221191406" lon="-5.18139696121216">
        <ele>907</ele>
        <time>2019-05-11T23:38:01Z</time>
      </trkpt>
      <trkpt lat="36.8014068603516" lon="-5.18142223358154">
        <ele>907</ele>
        <time>2019-05-11T23:38:03Z</time>
      </trkpt>
      <trkpt lat="36.8013916015625" lon="-5.18144702911377">
        <ele>907</ele>
        <time>2019-05-11T23:38:05Z</time>
      </trkpt>
      <trkpt lat="36.8013801574707" lon="-5.1814751625061">
        <ele>907</ele>
        <time>2019-05-11T23:38:07Z</time>
      </trkpt>
      <trkpt lat="36.8013648986816" lon="-5.18149995803833">
        <ele>907</ele>
        <time>2019-05-11T23:38:09Z</time>
      </trkpt>
      <trkpt lat="36.8013496398926" lon="-5.18152523040772">
        <ele>907</ele>
        <time>2019-05-11T23:38:11Z</time>
      </trkpt>
      <trkpt lat="36.8013305664062" lon="-5.18155193328857">
        <ele>907</ele>
        <time>2019-05-11T23:38:13Z</time>
      </trkpt>
      <trkpt lat="36.8013153076172" lon="-5.18157720565796">
        <ele>907</ele>
        <time>2019-05-11T23:38:15Z</time>
      </trkpt>
      <trkpt lat="36.8012962341309" lon="-5.18160200119019">
        <ele>907</ele>
        <time>2019-05-11T23:38:17Z</time>
      </trkpt>
      <trkpt lat="36.8012847900391" lon="-5.18162679672241">
        <ele>907</ele>
        <time>2019-05-11T23:38:19Z</time>
      </trkpt>
      <trkpt lat="36.80126953125" lon="-5.18164777755737">
        <ele>907</ele>
        <time>2019-05-11T23:38:21Z</time>
      </trkpt>
      <trkpt lat="36.8012542724609" lon="-5.18167018890381">
        <ele>907</ele>
        <time>2019-05-11T23:38:23Z</time>
      </trkpt>
      <trkpt lat="36.8012313842773" lon="-5.18170309066772">
        <ele>907</ele>
        <time>2019-05-11T23:38:25Z</time>
      </trkpt>
      <trkpt lat="36.8012161254883" lon="-5.181725025177">
        <ele>907</ele>
        <time>2019-05-11T23:38:27Z</time>
      </trkpt>
      <trkpt lat="36.8012008666992" lon="-5.18174695968628">
        <ele>907</ele>
        <time>2019-05-11T23:38:30Z</time>
      </trkpt>
      <trkpt lat="36.8011817932129" lon="-5.18176794052124">
        <ele>907</ele>
        <time>2019-05-11T23:38:32Z</time>
      </trkpt>
      <trkpt lat="36.8011665344238" lon="-5.18178796768188">
        <ele>907</ele>
        <time>2019-05-11T23:38:34Z</time>
      </trkpt>
      <trkpt lat="36.8011512756348" lon="-5.18180799484253">
        <ele>907</ele>
        <time>2019-05-11T23:38:36Z</time>
      </trkpt>
      <trkpt lat="36.8011360168457" lon="-5.18182706832886">
        <ele>907</ele>
        <time>2019-05-11T23:38:38Z</time>
      </trkpt>
      <trkpt lat="36.8011169433594" lon="-5.1818470954895">
        <ele>907</ele>
        <time>2019-05-11T23:38:40Z</time>
      </trkpt>
      <trkpt lat="36.801097869873" lon="-5.18186187744141">
        <ele>907</ele>
        <time>2019-05-11T23:38:42Z</time>
      </trkpt>
      <trkpt lat="36.8010787963867" lon="-5.18187808990478">
        <ele>907</ele>
        <time>2019-05-11T23:38:44Z</time>
      </trkpt>
      <trkpt lat="36.8010635375977" lon="-5.18189287185669">
        <ele>907</ele>
        <time>2019-05-11T23:38:46Z</time>
      </trkpt>
      <trkpt lat="36.8010406494141" lon="-5.18191289901733">
        <ele>907</ele>
        <time>2019-05-11T23:38:48Z</time>
      </trkpt>
      <trkpt lat="36.8010215759277" lon="-5.18193197250366">
        <ele>907</ele>
        <time>2019-05-11T23:38:50Z</time>
      </trkpt>
      <trkpt lat="36.8009986877441" lon="-5.18194484710693">
        <ele>907</ele>
        <time>2019-05-11T23:38:52Z</time>
      </trkpt>
      <trkpt lat="36.8009796142578" lon="-5.18196201324463">
        <ele>907</ele>
        <time>2019-05-11T23:38:54Z</time>
      </trkpt>
      <trkpt lat="36.8009605407715" lon="-5.18198013305664">
        <ele>907</ele>
        <time>2019-05-11T23:38:56Z</time>
      </trkpt>
      <trkpt lat="36.8009414672852" lon="-5.18199777603149">
        <ele>907</ele>
        <time>2019-05-11T23:38:58Z</time>
      </trkpt>
      <trkpt lat="36.8009262084961" lon="-5.18201494216919">
        <ele>907</ele>
        <time>2019-05-11T23:39:00Z</time>
      </trkpt>
      <trkpt lat="36.800910949707" lon="-5.1820330619812">
        <ele>907</ele>
        <time>2019-05-11T23:39:02Z</time>
      </trkpt>
      <trkpt lat="36.8008918762207" lon="-5.18205213546753">
        <ele>907</ele>
        <time>2019-05-11T23:39:04Z</time>
      </trkpt>
      <trkpt lat="36.8008766174316" lon="-5.18206787109375">
        <ele>907</ele>
        <time>2019-05-11T23:39:06Z</time>
      </trkpt>
      <trkpt lat="36.8008613586426" lon="-5.18208503723144">
        <ele>907</ele>
        <time>2019-05-11T23:39:08Z</time>
      </trkpt>
      <trkpt lat="36.8008460998535" lon="-5.18209981918335">
        <ele>907</ele>
        <time>2019-05-11T23:39:10Z</time>
      </trkpt>
      <trkpt lat="36.8008346557617" lon="-5.18211507797241">
        <ele>907</ele>
        <time>2019-05-11T23:39:12Z</time>
      </trkpt>
      <trkpt lat="36.8008232116699" lon="-5.18212795257568">
        <ele>907</ele>
        <time>2019-05-11T23:39:14Z</time>
      </trkpt>
      <trkpt lat="36.8008155822754" lon="-5.18214511871338">
        <ele>907</ele>
        <time>2019-05-11T23:39:16Z</time>
      </trkpt>
      <trkpt lat="36.8008003234863" lon="-5.18215799331665">
        <ele>907</ele>
        <time>2019-05-11T23:39:18Z</time>
      </trkpt>
      <trkpt lat="36.8007888793945" lon="-5.18217515945435">
        <ele>908</ele>
        <time>2019-05-11T23:39:20Z</time>
      </trkpt>
      <trkpt lat="36.80078125" lon="-5.18218803405762">
        <ele>908</ele>
        <time>2019-05-11T23:39:22Z</time>
      </trkpt>
      <trkpt lat="36.8007698059082" lon="-5.18220281600952">
        <ele>909</ele>
        <time>2019-05-11T23:39:24Z</time>
      </trkpt>
      <trkpt lat="36.8007545471191" lon="-5.18221998214722">
        <ele>909</ele>
        <time>2019-05-11T23:39:26Z</time>
      </trkpt>
      <trkpt lat="36.8007431030273" lon="-5.18223714828491">
        <ele>909</ele>
        <time>2019-05-11T23:39:28Z</time>
      </trkpt>
      <trkpt lat="36.8007316589356" lon="-5.18225479125977">
        <ele>909</ele>
        <time>2019-05-11T23:39:30Z</time>
      </trkpt>
      <trkpt lat="36.8007202148438" lon="-5.18227291107178">
        <ele>909</ele>
        <time>2019-05-11T23:39:32Z</time>
      </trkpt>
      <trkpt lat="36.800708770752" lon="-5.18228816986084">
        <ele>910</ele>
        <time>2019-05-11T23:39:34Z</time>
      </trkpt>
      <trkpt lat="36.8007011413574" lon="-5.18230295181274">
        <ele>910</ele>
        <time>2019-05-11T23:39:36Z</time>
      </trkpt>
      <trkpt lat="36.8006935119629" lon="-5.1823148727417">
        <ele>910</ele>
        <time>2019-05-11T23:39:38Z</time>
      </trkpt>
      <trkpt lat="36.8006820678711" lon="-5.18233013153076">
        <ele>910</ele>
        <time>2019-05-11T23:39:40Z</time>
      </trkpt>
      <trkpt lat="36.8006706237793" lon="-5.1823468208313">
        <ele>910</ele>
        <time>2019-05-11T23:39:42Z</time>
      </trkpt>
      <trkpt lat="36.8006629943848" lon="-5.18236303329468">
        <ele>910</ele>
        <time>2019-05-11T23:39:44Z</time>
      </trkpt>
      <trkpt lat="36.800651550293" lon="-5.18238210678101">
        <ele>911</ele>
        <time>2019-05-11T23:39:46Z</time>
      </trkpt>
      <trkpt lat="36.8006439208984" lon="-5.18240022659302">
        <ele>911</ele>
        <time>2019-05-11T23:39:48Z</time>
      </trkpt>
      <trkpt lat="36.8006324768066" lon="-5.1824197769165">
        <ele>911</ele>
        <time>2019-05-11T23:39:50Z</time>
      </trkpt>
      <trkpt lat="36.8006248474121" lon="-5.18244218826294">
        <ele>912</ele>
        <time>2019-05-11T23:39:52Z</time>
      </trkpt>
      <trkpt lat="36.800609588623" lon="-5.18246507644653">
        <ele>912</ele>
        <time>2019-05-11T23:39:54Z</time>
      </trkpt>
      <trkpt lat="36.8006019592285" lon="-5.18248987197876">
        <ele>913</ele>
        <time>2019-05-11T23:39:56Z</time>
      </trkpt>
      <trkpt lat="36.800594329834" lon="-5.18251705169678">
        <ele>913</ele>
        <time>2019-05-11T23:39:58Z</time>
      </trkpt>
      <trkpt lat="36.8005828857422" lon="-5.18254280090332">
        <ele>913</ele>
        <time>2019-05-11T23:40:00Z</time>
      </trkpt>
      <trkpt lat="36.8005714416504" lon="-5.18256711959839">
        <ele>914</ele>
        <time>2019-05-11T23:40:02Z</time>
      </trkpt>
      <trkpt lat="36.8005523681641" lon="-5.18258810043335">
        <ele>914</ele>
        <time>2019-05-11T23:40:04Z</time>
      </trkpt>
      <trkpt lat="36.8005294799805" lon="-5.18262481689453">
        <ele>914</ele>
        <time>2019-05-11T23:40:06Z</time>
      </trkpt>
      <trkpt lat="36.8005065917969" lon="-5.18264293670654">
        <ele>914</ele>
        <time>2019-05-11T23:40:08Z</time>
      </trkpt>
      <trkpt lat="36.8004875183106" lon="-5.18265819549561">
        <ele>914</ele>
        <time>2019-05-11T23:40:11Z</time>
      </trkpt>
      <trkpt lat="36.8004684448242" lon="-5.18267297744751">
        <ele>914</ele>
        <time>2019-05-11T23:40:13Z</time>
      </trkpt>
      <trkpt lat="36.8004455566406" lon="-5.18268823623657">
        <ele>914</ele>
        <time>2019-05-11T23:40:15Z</time>
      </trkpt>
      <trkpt lat="36.800422668457" lon="-5.18269777297974">
        <ele>914</ele>
        <time>2019-05-11T23:40:17Z</time>
      </trkpt>
      <trkpt lat="36.8003997802734" lon="-5.18270683288574">
        <ele>914</ele>
        <time>2019-05-11T23:40:19Z</time>
      </trkpt>
      <trkpt lat="36.8003730773926" lon="-5.18271017074585">
        <ele>914</ele>
        <time>2019-05-11T23:40:21Z</time>
      </trkpt>
      <trkpt lat="36.800350189209" lon="-5.18271493911743">
        <ele>914</ele>
        <time>2019-05-11T23:40:23Z</time>
      </trkpt>
      <trkpt lat="36.8003273010254" lon="-5.18271493911743">
        <ele>914</ele>
        <time>2019-05-11T23:40:25Z</time>
      </trkpt>
      <trkpt lat="36.8003044128418" lon="-5.18271493911743">
        <ele>914</ele>
        <time>2019-05-11T23:40:27Z</time>
      </trkpt>
      <trkpt lat="36.8002815246582" lon="-5.1827130317688">
        <ele>914</ele>
        <time>2019-05-11T23:40:29Z</time>
      </trkpt>
      <trkpt lat="36.8002624511719" lon="-5.1827130317688">
        <ele>914</ele>
        <time>2019-05-11T23:40:31Z</time>
      </trkpt>
      <trkpt lat="36.8002433776856" lon="-5.1827130317688">
        <ele>914</ele>
        <time>2019-05-11T23:40:33Z</time>
      </trkpt>
      <trkpt lat="36.8002281188965" lon="-5.18271207809448">
        <ele>914</ele>
        <time>2019-05-11T23:40:35Z</time>
      </trkpt>
      <trkpt lat="36.8002128601074" lon="-5.18270301818848">
        <ele>914</ele>
        <time>2019-05-11T23:40:37Z</time>
      </trkpt>
      <trkpt lat="36.8001937866211" lon="-5.18270206451416">
        <ele>914</ele>
        <time>2019-05-11T23:40:39Z</time>
      </trkpt>
      <trkpt lat="36.800178527832" lon="-5.18270015716553">
        <ele>914</ele>
        <time>2019-05-11T23:40:41Z</time>
      </trkpt>
      <trkpt lat="36.800163269043" lon="-5.18269777297974">
        <ele>914</ele>
        <time>2019-05-11T23:40:43Z</time>
      </trkpt>
      <trkpt lat="36.8001441955566" lon="-5.18269491195679">
        <ele>914</ele>
        <time>2019-05-11T23:40:45Z</time>
      </trkpt>
      <trkpt lat="36.8001251220703" lon="-5.18269205093384">
        <ele>914</ele>
        <time>2019-05-11T23:40:47Z</time>
      </trkpt>
      <trkpt lat="36.8001098632812" lon="-5.18268823623657">
        <ele>914</ele>
        <time>2019-05-11T23:40:49Z</time>
      </trkpt>
      <trkpt lat="36.8000907897949" lon="-5.18268299102783">
        <ele>914</ele>
        <time>2019-05-11T23:40:51Z</time>
      </trkpt>
      <trkpt lat="36.8000717163086" lon="-5.18267822265625">
        <ele>914</ele>
        <time>2019-05-11T23:40:53Z</time>
      </trkpt>
      <trkpt lat="36.800048828125" lon="-5.18267202377319">
        <ele>914</ele>
        <time>2019-05-11T23:40:55Z</time>
      </trkpt>
      <trkpt lat="36.8000335693359" lon="-5.18266487121582">
        <ele>914</ele>
        <time>2019-05-11T23:40:57Z</time>
      </trkpt>
      <trkpt lat="36.8000144958496" lon="-5.18265819549561">
        <ele>914</ele>
        <time>2019-05-11T23:40:59Z</time>
      </trkpt>
      <trkpt lat="36.7999954223633" lon="-5.18265295028686">
        <ele>914</ele>
        <time>2019-05-11T23:41:01Z</time>
      </trkpt>
      <trkpt lat="36.799976348877" lon="-5.18264293670654">
        <ele>914</ele>
        <time>2019-05-11T23:41:03Z</time>
      </trkpt>
      <trkpt lat="36.7999610900879" lon="-5.18263292312622">
        <ele>914</ele>
        <time>2019-05-11T23:41:05Z</time>
      </trkpt>
      <trkpt lat="36.7999458312988" lon="-5.18262481689453">
        <ele>914</ele>
        <time>2019-05-11T23:41:07Z</time>
      </trkpt>
      <trkpt lat="36.7999305725098" lon="-5.18261480331421">
        <ele>914</ele>
        <time>2019-05-11T23:41:09Z</time>
      </trkpt>
      <trkpt lat="36.7999114990234" lon="-5.18260478973389">
        <ele>914</ele>
        <time>2019-05-11T23:41:11Z</time>
      </trkpt>
      <trkpt lat="36.7998962402344" lon="-5.18259191513062">
        <ele>914</ele>
        <time>2019-05-11T23:41:13Z</time>
      </trkpt>
      <trkpt lat="36.7998809814453" lon="-5.18257808685303">
        <ele>914</ele>
        <time>2019-05-11T23:41:15Z</time>
      </trkpt>
      <trkpt lat="36.799861907959" lon="-5.18256711959839">
        <ele>914</ele>
        <time>2019-05-11T23:41:17Z</time>
      </trkpt>
      <trkpt lat="36.7998466491699" lon="-5.18255519866943">
        <ele>914</ele>
        <time>2019-05-11T23:41:19Z</time>
      </trkpt>
      <trkpt lat="36.7998313903809" lon="-5.18254280090332">
        <ele>914</ele>
        <time>2019-05-11T23:41:21Z</time>
      </trkpt>
      <trkpt lat="36.7998123168945" lon="-5.18253517150879">
        <ele>914</ele>
        <time>2019-05-11T23:41:23Z</time>
      </trkpt>
      <trkpt lat="36.7997970581055" lon="-5.18252801895142">
        <ele>914</ele>
        <time>2019-05-11T23:41:25Z</time>
      </trkpt>
      <trkpt lat="36.7997817993164" lon="-5.18251514434814">
        <ele>914</ele>
        <time>2019-05-11T23:41:27Z</time>
      </trkpt>
      <trkpt lat="36.7997665405273" lon="-5.18250322341919">
        <ele>914</ele>
        <time>2019-05-11T23:41:29Z</time>
      </trkpt>
      <trkpt lat="36.7997512817383" lon="-5.18249177932739">
        <ele>914</ele>
        <time>2019-05-11T23:41:31Z</time>
      </trkpt>
      <trkpt lat="36.7997360229492" lon="-5.18248510360718">
        <ele>914</ele>
        <time>2019-05-11T23:41:33Z</time>
      </trkpt>
      <trkpt lat="36.7997207641602" lon="-5.1824779510498">
        <ele>914</ele>
        <time>2019-05-11T23:41:35Z</time>
      </trkpt>
      <trkpt lat="36.7997055053711" lon="-5.18246984481812">
        <ele>914</ele>
        <time>2019-05-11T23:41:37Z</time>
      </trkpt>
      <trkpt lat="36.799690246582" lon="-5.18245697021484">
        <ele>914</ele>
        <time>2019-05-11T23:41:39Z</time>
      </trkpt>
      <trkpt lat="36.7996788024902" lon="-5.18244504928589">
        <ele>914</ele>
        <time>2019-05-11T23:41:41Z</time>
      </trkpt>
      <trkpt lat="36.799674987793" lon="-5.18242979049683">
        <ele>914</ele>
        <time>2019-05-11T23:41:43Z</time>
      </trkpt>
      <trkpt lat="36.7996673583984" lon="-5.18241310119629">
        <ele>914</ele>
        <time>2019-05-11T23:41:45Z</time>
      </trkpt>
      <trkpt lat="36.7996597290039" lon="-5.18239498138428">
        <ele>914</ele>
        <time>2019-05-11T23:41:47Z</time>
      </trkpt>
      <trkpt lat="36.7996444702148" lon="-5.18238496780396">
        <ele>913</ele>
        <time>2019-05-11T23:41:49Z</time>
      </trkpt>
      <trkpt lat="36.799633026123" lon="-5.18237781524658">
        <ele>913</ele>
        <time>2019-05-11T23:41:51Z</time>
      </trkpt>
      <trkpt lat="36.7996215820312" lon="-5.18236684799194">
        <ele>913</ele>
        <time>2019-05-11T23:41:53Z</time>
      </trkpt>
      <trkpt lat="36.7996139526367" lon="-5.18235492706299">
        <ele>913</ele>
        <time>2019-05-11T23:41:55Z</time>
      </trkpt>
      <trkpt lat="36.7995986938477" lon="-5.18233823776245">
        <ele>913</ele>
        <time>2019-05-11T23:41:57Z</time>
      </trkpt>
      <trkpt lat="36.7995834350586" lon="-5.18232488632202">
        <ele>913</ele>
        <time>2019-05-11T23:41:59Z</time>
      </trkpt>
      <trkpt lat="36.7995719909668" lon="-5.1823148727417">
        <ele>913</ele>
        <time>2019-05-11T23:42:02Z</time>
      </trkpt>
      <trkpt lat="36.7995567321777" lon="-5.18230676651001">
        <ele>912</ele>
        <time>2019-05-11T23:42:04Z</time>
      </trkpt>
      <trkpt lat="36.7995414733887" lon="-5.18230199813843">
        <ele>911</ele>
        <time>2019-05-11T23:42:06Z</time>
      </trkpt>
      <trkpt lat="36.7995223999023" lon="-5.18229293823242">
        <ele>911</ele>
        <time>2019-05-11T23:42:08Z</time>
      </trkpt>
      <trkpt lat="36.7995071411133" lon="-5.18228006362915">
        <ele>911</ele>
        <time>2019-05-11T23:42:10Z</time>
      </trkpt>
      <trkpt lat="36.7994918823242" lon="-5.18227195739746">
        <ele>911</ele>
        <time>2019-05-11T23:42:12Z</time>
      </trkpt>
      <trkpt lat="36.7994766235352" lon="-5.18225812911987">
        <ele>911</ele>
        <time>2019-05-11T23:42:14Z</time>
      </trkpt>
      <trkpt lat="36.7994613647461" lon="-5.18224716186523">
        <ele>910</ele>
        <time>2019-05-11T23:42:16Z</time>
      </trkpt>
      <trkpt lat="36.7994422912598" lon="-5.18223476409912">
        <ele>910</ele>
        <time>2019-05-11T23:42:18Z</time>
      </trkpt>
      <trkpt lat="36.7994232177734" lon="-5.18222284317017">
        <ele>910</ele>
        <time>2019-05-11T23:42:20Z</time>
      </trkpt>
      <trkpt lat="36.7994117736816" lon="-5.18221521377564">
        <ele>909</ele>
        <time>2019-05-11T23:42:22Z</time>
      </trkpt>
      <trkpt lat="36.7993927001953" lon="-5.18220710754394">
        <ele>909</ele>
        <time>2019-05-11T23:42:24Z</time>
      </trkpt>
      <trkpt lat="36.799373626709" lon="-5.1821928024292">
        <ele>908</ele>
        <time>2019-05-11T23:42:26Z</time>
      </trkpt>
      <trkpt lat="36.7993583679199" lon="-5.18218183517456">
        <ele>908</ele>
        <time>2019-05-11T23:42:28Z</time>
      </trkpt>
      <trkpt lat="36.7993431091309" lon="-5.18216705322266">
        <ele>906</ele>
        <time>2019-05-11T23:42:30Z</time>
      </trkpt>
      <trkpt lat="36.7993278503418" lon="-5.18215322494507">
        <ele>906</ele>
        <time>2019-05-11T23:42:32Z</time>
      </trkpt>
      <trkpt lat="36.7993087768555" lon="-5.18214178085327">
        <ele>906</ele>
        <time>2019-05-11T23:42:34Z</time>
      </trkpt>
      <trkpt lat="36.7992935180664" lon="-5.18213176727295">
        <ele>905</ele>
        <time>2019-05-11T23:42:36Z</time>
      </trkpt>
      <trkpt lat="36.7992782592773" lon="-5.18212699890137">
        <ele>905</ele>
        <time>2019-05-11T23:42:38Z</time>
      </trkpt>
      <trkpt lat="36.7992630004883" lon="-5.18211984634399">
        <ele>904</ele>
        <time>2019-05-11T23:42:40Z</time>
      </trkpt>
      <trkpt lat="36.7992477416992" lon="-5.18210983276367">
        <ele>904</ele>
        <time>2019-05-11T23:42:42Z</time>
      </trkpt>
      <trkpt lat="36.7992324829102" lon="-5.18209791183472">
        <ele>904</ele>
        <time>2019-05-11T23:42:44Z</time>
      </trkpt>
      <trkpt lat="36.7992172241211" lon="-5.18208789825439">
        <ele>903</ele>
        <time>2019-05-11T23:42:46Z</time>
      </trkpt>
      <trkpt lat="36.799201965332" lon="-5.1820797920227">
        <ele>903</ele>
        <time>2019-05-11T23:42:48Z</time>
      </trkpt>
      <trkpt lat="36.7991905212402" lon="-5.18206787109375">
        <ele>903</ele>
        <time>2019-05-11T23:42:50Z</time>
      </trkpt>
      <trkpt lat="36.7991790771484" lon="-5.18206214904785">
        <ele>903</ele>
        <time>2019-05-11T23:42:52Z</time>
      </trkpt>
      <trkpt lat="36.7991676330566" lon="-5.18204784393311">
        <ele>903</ele>
        <time>2019-05-11T23:42:54Z</time>
      </trkpt>
      <trkpt lat="36.7991523742676" lon="-5.18203687667847">
        <ele>903</ele>
        <time>2019-05-11T23:42:56Z</time>
      </trkpt>
      <trkpt lat="36.7991333007812" lon="-5.18202495574951">
        <ele>903</ele>
        <time>2019-05-11T23:42:58Z</time>
      </trkpt>
      <trkpt lat="36.7991180419922" lon="-5.18201303482056">
        <ele>903</ele>
        <time>2019-05-11T23:43:00Z</time>
      </trkpt>
      <trkpt lat="36.7991027832031" lon="-5.18199300765991">
        <ele>903</ele>
        <time>2019-05-11T23:43:02Z</time>
      </trkpt>
      <trkpt lat="36.7990875244141" lon="-5.18197202682495">
        <ele>903</ele>
        <time>2019-05-11T23:43:04Z</time>
      </trkpt>
      <trkpt lat="36.799072265625" lon="-5.18195295333862">
        <ele>903</ele>
        <time>2019-05-11T23:43:06Z</time>
      </trkpt>
      <trkpt lat="36.7990570068359" lon="-5.18193483352661">
        <ele>901</ele>
        <time>2019-05-11T23:43:08Z</time>
      </trkpt>
      <trkpt lat="36.7990417480469" lon="-5.18191719055176">
        <ele>901</ele>
        <time>2019-05-11T23:43:10Z</time>
      </trkpt>
      <trkpt lat="36.7990264892578" lon="-5.18189811706543">
        <ele>900</ele>
        <time>2019-05-11T23:43:12Z</time>
      </trkpt>
      <trkpt lat="36.7990112304688" lon="-5.18187999725342">
        <ele>899</ele>
        <time>2019-05-11T23:43:14Z</time>
      </trkpt>
      <trkpt lat="36.7989921569824" lon="-5.18186187744141">
        <ele>899</ele>
        <time>2019-05-11T23:43:16Z</time>
      </trkpt>
      <trkpt lat="36.7989768981934" lon="-5.18184280395508">
        <ele>898</ele>
        <time>2019-05-11T23:43:18Z</time>
      </trkpt>
      <trkpt lat="36.798957824707" lon="-5.18182277679443">
        <ele>897</ele>
        <time>2019-05-11T23:43:20Z</time>
      </trkpt>
      <trkpt lat="36.798942565918" lon="-5.18180179595947">
        <ele>896</ele>
        <time>2019-05-11T23:43:22Z</time>
      </trkpt>
      <trkpt lat="36.7989273071289" lon="-5.1817831993103">
        <ele>896</ele>
        <time>2019-05-11T23:43:24Z</time>
      </trkpt>
      <trkpt lat="36.798900604248" lon="-5.18175792694092">
        <ele>895</ele>
        <time>2019-05-11T23:43:26Z</time>
      </trkpt>
      <trkpt lat="36.798885345459" lon="-5.18174314498901">
        <ele>895</ele>
        <time>2019-05-11T23:43:28Z</time>
      </trkpt>
      <trkpt lat="36.7988739013672" lon="-5.18172693252564">
        <ele>895</ele>
        <time>2019-05-11T23:43:31Z</time>
      </trkpt>
      <trkpt lat="36.7988586425781" lon="-5.18171215057373">
        <ele>894</ele>
        <time>2019-05-11T23:43:33Z</time>
      </trkpt>
      <trkpt lat="36.7988433837891" lon="-5.18169498443604">
        <ele>894</ele>
        <time>2019-05-11T23:43:35Z</time>
      </trkpt>
      <trkpt lat="36.7988204956055" lon="-5.18168210983276">
        <ele>893</ele>
        <time>2019-05-11T23:43:37Z</time>
      </trkpt>
      <trkpt lat="36.7988014221191" lon="-5.1816668510437">
        <ele>893</ele>
        <time>2019-05-11T23:43:39Z</time>
      </trkpt>
      <trkpt lat="36.7987823486328" lon="-5.18165016174316">
        <ele>892</ele>
        <time>2019-05-11T23:43:41Z</time>
      </trkpt>
      <trkpt lat="36.7987632751465" lon="-5.18163204193115">
        <ele>891</ele>
        <time>2019-05-11T23:43:43Z</time>
      </trkpt>
      <trkpt lat="36.7987442016602" lon="-5.18161296844482">
        <ele>891</ele>
        <time>2019-05-11T23:43:45Z</time>
      </trkpt>
      <trkpt lat="36.7987251281738" lon="-5.1815972328186">
        <ele>891</ele>
        <time>2019-05-11T23:43:47Z</time>
      </trkpt>
      <trkpt lat="36.7987060546875" lon="-5.18157720565796">
        <ele>891</ele>
        <time>2019-05-11T23:43:49Z</time>
      </trkpt>
      <trkpt lat="36.7986831665039" lon="-5.18155813217163">
        <ele>890</ele>
        <time>2019-05-11T23:43:51Z</time>
      </trkpt>
      <trkpt lat="36.7986679077148" lon="-5.18154191970825">
        <ele>890</ele>
        <time>2019-05-11T23:43:53Z</time>
      </trkpt>
      <trkpt lat="36.7986488342285" lon="-5.18152713775635">
        <ele>890</ele>
        <time>2019-05-11T23:43:55Z</time>
      </trkpt>
      <trkpt lat="36.7986297607422" lon="-5.18150806427002">
        <ele>890</ele>
        <time>2019-05-11T23:43:57Z</time>
      </trkpt>
      <trkpt lat="36.7986106872559" lon="-5.18148994445801">
        <ele>889</ele>
        <time>2019-05-11T23:43:59Z</time>
      </trkpt>
      <trkpt lat="36.7985916137695" lon="-5.18147277832031">
        <ele>889</ele>
        <time>2019-05-11T23:44:01Z</time>
      </trkpt>
      <trkpt lat="36.7985725402832" lon="-5.18145799636841">
        <ele>889</ele>
        <time>2019-05-11T23:44:03Z</time>
      </trkpt>
      <trkpt lat="36.7985572814941" lon="-5.1814432144165">
        <ele>889</ele>
        <time>2019-05-11T23:44:05Z</time>
      </trkpt>
      <trkpt lat="36.7985382080078" lon="-5.18142795562744">
        <ele>889</ele>
        <time>2019-05-11T23:44:07Z</time>
      </trkpt>
      <trkpt lat="36.7985191345215" lon="-5.18141222000122">
        <ele>888</ele>
        <time>2019-05-11T23:44:09Z</time>
      </trkpt>
      <trkpt lat="36.7985038757324" lon="-5.18139696121216">
        <ele>888</ele>
        <time>2019-05-11T23:44:11Z</time>
      </trkpt>
      <trkpt lat="36.7984886169434" lon="-5.18138694763184">
        <ele>888</ele>
        <time>2019-05-11T23:44:13Z</time>
      </trkpt>
      <trkpt lat="36.798469543457" lon="-5.18137311935425">
        <ele>888</ele>
        <time>2019-05-11T23:44:15Z</time>
      </trkpt>
      <trkpt lat="36.798454284668" lon="-5.18135690689087">
        <ele>888</ele>
        <time>2019-05-11T23:44:17Z</time>
      </trkpt>
      <trkpt lat="36.7984352111816" lon="-5.18134212493896">
        <ele>888</ele>
        <time>2019-05-11T23:44:19Z</time>
      </trkpt>
      <trkpt lat="36.7984161376953" lon="-5.1813268661499">
        <ele>888</ele>
        <time>2019-05-11T23:44:21Z</time>
      </trkpt>
      <trkpt lat="36.7984008789062" lon="-5.18131494522095">
        <ele>888</ele>
        <time>2019-05-11T23:44:23Z</time>
      </trkpt>
      <trkpt lat="36.7983818054199" lon="-5.18129682540894">
        <ele>888</ele>
        <time>2019-05-11T23:44:25Z</time>
      </trkpt>
      <trkpt lat="36.7983627319336" lon="-5.1812801361084">
        <ele>888</ele>
        <time>2019-05-11T23:44:27Z</time>
      </trkpt>
      <trkpt lat="36.7983474731445" lon="-5.18126487731934">
        <ele>888</ele>
        <time>2019-05-11T23:44:29Z</time>
      </trkpt>
      <trkpt lat="36.7983283996582" lon="-5.18125009536743">
        <ele>888</ele>
        <time>2019-05-11T23:44:31Z</time>
      </trkpt>
      <trkpt lat="36.7983093261719" lon="-5.18124008178711">
        <ele>888</ele>
        <time>2019-05-11T23:44:33Z</time>
      </trkpt>
      <trkpt lat="36.7982902526856" lon="-5.18123292922974">
        <ele>888</ele>
        <time>2019-05-11T23:44:35Z</time>
      </trkpt>
      <trkpt lat="36.7982711791992" lon="-5.18121814727783">
        <ele>888</ele>
        <time>2019-05-11T23:44:37Z</time>
      </trkpt>
      <trkpt lat="36.7982559204102" lon="-5.1812047958374">
        <ele>888</ele>
        <time>2019-05-11T23:44:39Z</time>
      </trkpt>
      <trkpt lat="36.7982368469238" lon="-5.18119478225708">
        <ele>888</ele>
        <time>2019-05-11T23:44:41Z</time>
      </trkpt>
      <trkpt lat="36.7982177734375" lon="-5.18118715286255">
        <ele>888</ele>
        <time>2019-05-11T23:44:43Z</time>
      </trkpt>
      <trkpt lat="36.7981986999512" lon="-5.18117809295654">
        <ele>888</ele>
        <time>2019-05-11T23:44:45Z</time>
      </trkpt>
      <trkpt lat="36.7981796264648" lon="-5.1811671257019">
        <ele>888</ele>
        <time>2019-05-11T23:44:47Z</time>
      </trkpt>
      <trkpt lat="36.7981605529785" lon="-5.18115711212158">
        <ele>888</ele>
        <time>2019-05-11T23:44:49Z</time>
      </trkpt>
      <trkpt lat="36.7981376647949" lon="-5.18114280700684">
        <ele>888</ele>
        <time>2019-05-11T23:44:51Z</time>
      </trkpt>
      <trkpt lat="36.7981185913086" lon="-5.18112993240356">
        <ele>888</ele>
        <time>2019-05-11T23:44:53Z</time>
      </trkpt>
      <trkpt lat="36.798095703125" lon="-5.18111705780029">
        <ele>888</ele>
        <time>2019-05-11T23:44:55Z</time>
      </trkpt>
      <trkpt lat="36.7980690002441" lon="-5.18110704421997">
        <ele>888</ele>
        <time>2019-05-11T23:44:57Z</time>
      </trkpt>
      <trkpt lat="36.7980461120606" lon="-5.18109512329102">
        <ele>888</ele>
        <time>2019-05-11T23:44:59Z</time>
      </trkpt>
      <trkpt lat="36.798023223877" lon="-5.18108701705933">
        <ele>888</ele>
        <time>2019-05-11T23:45:01Z</time>
      </trkpt>
      <trkpt lat="36.7979927062988" lon="-5.18107223510742">
        <ele>888</ele>
        <time>2019-05-11T23:45:03Z</time>
      </trkpt>
      <trkpt lat="36.7979736328125" lon="-5.1810622215271">
        <ele>888</ele>
        <time>2019-05-11T23:45:05Z</time>
      </trkpt>
      <trkpt lat="36.7979507446289" lon="-5.18104791641235">
        <ele>888</ele>
        <time>2019-05-11T23:45:08Z</time>
      </trkpt>
      <trkpt lat="36.7979278564453" lon="-5.18103504180908">
        <ele>888</ele>
        <time>2019-05-11T23:45:10Z</time>
      </trkpt>
      <trkpt lat="36.7979049682617" lon="-5.18101787567139">
        <ele>888</ele>
        <time>2019-05-11T23:45:12Z</time>
      </trkpt>
      <trkpt lat="36.7978820800781" lon="-5.18100690841675">
        <ele>888</ele>
        <time>2019-05-11T23:45:14Z</time>
      </trkpt>
      <trkpt lat="36.7978630065918" lon="-5.18099308013916">
        <ele>888</ele>
        <time>2019-05-11T23:45:16Z</time>
      </trkpt>
      <trkpt lat="36.7978401184082" lon="-5.1809778213501">
        <ele>888</ele>
        <time>2019-05-11T23:45:18Z</time>
      </trkpt>
      <trkpt lat="36.7978210449219" lon="-5.18096494674683">
        <ele>888</ele>
        <time>2019-05-11T23:45:20Z</time>
      </trkpt>
      <trkpt lat="36.7977981567383" lon="-5.18095207214356">
        <ele>888</ele>
        <time>2019-05-11T23:45:22Z</time>
      </trkpt>
      <trkpt lat="36.797779083252" lon="-5.1809401512146">
        <ele>888</ele>
        <time>2019-05-11T23:45:24Z</time>
      </trkpt>
      <trkpt lat="36.7977561950684" lon="-5.18092823028564">
        <ele>888</ele>
        <time>2019-05-11T23:45:26Z</time>
      </trkpt>
      <trkpt lat="36.7977333068848" lon="-5.18091487884522">
        <ele>888</ele>
        <time>2019-05-11T23:45:28Z</time>
      </trkpt>
      <trkpt lat="36.7977066040039" lon="-5.18090486526489">
        <ele>888</ele>
        <time>2019-05-11T23:45:30Z</time>
      </trkpt>
      <trkpt lat="36.7976837158203" lon="-5.18089485168457">
        <ele>888</ele>
        <time>2019-05-11T23:45:32Z</time>
      </trkpt>
      <trkpt lat="36.797664642334" lon="-5.1808819770813">
        <ele>888</ele>
        <time>2019-05-11T23:45:34Z</time>
      </trkpt>
      <trkpt lat="36.7976417541504" lon="-5.18086814880371">
        <ele>888</ele>
        <time>2019-05-11T23:45:36Z</time>
      </trkpt>
      <trkpt lat="36.7976188659668" lon="-5.18085718154907">
        <ele>888</ele>
        <time>2019-05-11T23:45:38Z</time>
      </trkpt>
      <trkpt lat="36.7975997924805" lon="-5.18084287643433">
        <ele>888</ele>
        <time>2019-05-11T23:45:40Z</time>
      </trkpt>
      <trkpt lat="36.7975769042969" lon="-5.18083477020264">
        <ele>888</ele>
        <time>2019-05-11T23:45:42Z</time>
      </trkpt>
      <trkpt lat="36.7975578308106" lon="-5.18082284927368">
        <ele>888</ele>
        <time>2019-05-11T23:45:44Z</time>
      </trkpt>
      <trkpt lat="36.7975311279297" lon="-5.18080997467041">
        <ele>888</ele>
        <time>2019-05-11T23:45:46Z</time>
      </trkpt>
      <trkpt lat="36.7975120544434" lon="-5.18079805374146">
        <ele>888</ele>
        <time>2019-05-11T23:45:48Z</time>
      </trkpt>
      <trkpt lat="36.797492980957" lon="-5.18078708648682">
        <ele>888</ele>
        <time>2019-05-11T23:45:50Z</time>
      </trkpt>
      <trkpt lat="36.7974700927734" lon="-5.18077516555786">
        <ele>888</ele>
        <time>2019-05-11T23:45:52Z</time>
      </trkpt>
      <trkpt lat="36.7974510192871" lon="-5.18076181411743">
        <ele>888</ele>
        <time>2019-05-11T23:45:54Z</time>
      </trkpt>
      <trkpt lat="36.7974281311035" lon="-5.18074798583984">
        <ele>888</ele>
        <time>2019-05-11T23:45:56Z</time>
      </trkpt>
      <trkpt lat="36.7974052429199" lon="-5.18073511123657">
        <ele>888</ele>
        <time>2019-05-11T23:45:58Z</time>
      </trkpt>
      <trkpt lat="36.7973861694336" lon="-5.1807222366333">
        <ele>888</ele>
        <time>2019-05-11T23:46:00Z</time>
      </trkpt>
      <trkpt lat="36.79736328125" lon="-5.18070507049561">
        <ele>888</ele>
        <time>2019-05-11T23:46:02Z</time>
      </trkpt>
      <trkpt lat="36.7973403930664" lon="-5.18068981170654">
        <ele>888</ele>
        <time>2019-05-11T23:46:04Z</time>
      </trkpt>
      <trkpt lat="36.7973213195801" lon="-5.18067693710327">
        <ele>888</ele>
        <time>2019-05-11T23:46:06Z</time>
      </trkpt>
      <trkpt lat="36.7972984313965" lon="-5.18066310882568">
        <ele>888</ele>
        <time>2019-05-11T23:46:08Z</time>
      </trkpt>
      <trkpt lat="36.7972755432129" lon="-5.18065023422241">
        <ele>888</ele>
        <time>2019-05-11T23:46:10Z</time>
      </trkpt>
      <trkpt lat="36.7972564697266" lon="-5.1806378364563">
        <ele>888</ele>
        <time>2019-05-11T23:46:12Z</time>
      </trkpt>
      <trkpt lat="36.797233581543" lon="-5.18062305450439">
        <ele>888</ele>
        <time>2019-05-11T23:46:14Z</time>
      </trkpt>
      <trkpt lat="36.7972106933594" lon="-5.18061208724976">
        <ele>888</ele>
        <time>2019-05-11T23:46:16Z</time>
      </trkpt>
      <trkpt lat="36.797191619873" lon="-5.18059682846069">
        <ele>888</ele>
        <time>2019-05-11T23:46:18Z</time>
      </trkpt>
      <trkpt lat="36.7971687316894" lon="-5.18058490753174">
        <ele>888</ele>
        <time>2019-05-11T23:46:20Z</time>
      </trkpt>
      <trkpt lat="36.7971458435059" lon="-5.18057298660278">
        <ele>888</ele>
        <time>2019-05-11T23:46:22Z</time>
      </trkpt>
      <trkpt lat="36.7971267700195" lon="-5.18056201934814">
        <ele>888</ele>
        <time>2019-05-11T23:46:24Z</time>
      </trkpt>
      <trkpt lat="36.7971038818359" lon="-5.18055295944214">
        <ele>888</ele>
        <time>2019-05-11T23:46:26Z</time>
      </trkpt>
      <trkpt lat="36.7970886230469" lon="-5.18054485321045">
        <ele>888</ele>
        <time>2019-05-11T23:46:28Z</time>
      </trkpt>
      <trkpt lat="36.7970695495606" lon="-5.18053817749023">
        <ele>888</ele>
        <time>2019-05-11T23:46:30Z</time>
      </trkpt>
      <trkpt lat="36.7970504760742" lon="-5.18053007125854">
        <ele>888</ele>
        <time>2019-05-11T23:46:32Z</time>
      </trkpt>
      <trkpt lat="36.7970314025879" lon="-5.18051815032959">
        <ele>888</ele>
        <time>2019-05-11T23:46:34Z</time>
      </trkpt>
      <trkpt lat="36.7970123291016" lon="-5.1805100440979">
        <ele>888</ele>
        <time>2019-05-11T23:46:36Z</time>
      </trkpt>
      <trkpt lat="36.7969818115234" lon="-5.18049812316894">
        <ele>888</ele>
        <time>2019-05-11T23:46:38Z</time>
      </trkpt>
      <trkpt lat="36.7969627380371" lon="-5.18048810958862">
        <ele>888</ele>
        <time>2019-05-11T23:46:40Z</time>
      </trkpt>
      <trkpt lat="36.7969398498535" lon="-5.18048191070557">
        <ele>888</ele>
        <time>2019-05-11T23:46:43Z</time>
      </trkpt>
      <trkpt lat="36.7969169616699" lon="-5.18047285079956">
        <ele>888</ele>
        <time>2019-05-11T23:46:45Z</time>
      </trkpt>
      <trkpt lat="36.7968978881836" lon="-5.18045806884766">
        <ele>888</ele>
        <time>2019-05-11T23:46:47Z</time>
      </trkpt>
      <trkpt lat="36.7968788146973" lon="-5.18044805526733">
        <ele>888</ele>
        <time>2019-05-11T23:46:49Z</time>
      </trkpt>
      <trkpt lat="36.7968597412109" lon="-5.18043518066406">
        <ele>888</ele>
        <time>2019-05-11T23:46:51Z</time>
      </trkpt>
      <trkpt lat="36.7968406677246" lon="-5.18042278289795">
        <ele>888</ele>
        <time>2019-05-11T23:46:53Z</time>
      </trkpt>
      <trkpt lat="36.7968215942383" lon="-5.18041276931763">
        <ele>888</ele>
        <time>2019-05-11T23:46:55Z</time>
      </trkpt>
      <trkpt lat="36.796802520752" lon="-5.18039989471436">
        <ele>888</ele>
        <time>2019-05-11T23:46:57Z</time>
      </trkpt>
      <trkpt lat="36.7967834472656" lon="-5.1803879737854">
        <ele>888</ele>
        <time>2019-05-11T23:46:59Z</time>
      </trkpt>
      <trkpt lat="36.7967643737793" lon="-5.18037796020508">
        <ele>888</ele>
        <time>2019-05-11T23:47:01Z</time>
      </trkpt>
      <trkpt lat="36.796745300293" lon="-5.18036699295044">
        <ele>888</ele>
        <time>2019-05-11T23:47:03Z</time>
      </trkpt>
      <trkpt lat="36.7967262268066" lon="-5.18035507202148">
        <ele>888</ele>
        <time>2019-05-11T23:47:05Z</time>
      </trkpt>
      <trkpt lat="36.7967071533203" lon="-5.18033981323242">
        <ele>888</ele>
        <time>2019-05-11T23:47:07Z</time>
      </trkpt>
      <trkpt lat="36.796688079834" lon="-5.1803297996521">
        <ele>888</ele>
        <time>2019-05-11T23:47:09Z</time>
      </trkpt>
      <trkpt lat="36.7966690063477" lon="-5.18031787872314">
        <ele>888</ele>
        <time>2019-05-11T23:47:11Z</time>
      </trkpt>
      <trkpt lat="36.7966537475586" lon="-5.18030691146851">
        <ele>888</ele>
        <time>2019-05-11T23:47:13Z</time>
      </trkpt>
      <trkpt lat="36.796630859375" lon="-5.18029499053955">
        <ele>888</ele>
        <time>2019-05-11T23:47:15Z</time>
      </trkpt>
      <trkpt lat="36.7966117858887" lon="-5.18028020858765">
        <ele>888</ele>
        <time>2019-05-11T23:47:17Z</time>
      </trkpt>
      <trkpt lat="36.7965965270996" lon="-5.18027019500732">
        <ele>888</ele>
        <time>2019-05-11T23:47:19Z</time>
      </trkpt>
      <trkpt lat="36.796573638916" lon="-5.18025684356689">
        <ele>888</ele>
        <time>2019-05-11T23:47:21Z</time>
      </trkpt>
      <trkpt lat="36.796558380127" lon="-5.18024206161499">
        <ele>888</ele>
        <time>2019-05-11T23:47:23Z</time>
      </trkpt>
      <trkpt lat="36.7965354919434" lon="-5.18022680282593">
        <ele>888</ele>
        <time>2019-05-11T23:47:25Z</time>
      </trkpt>
      <trkpt lat="36.7965202331543" lon="-5.18021202087402">
        <ele>888</ele>
        <time>2019-05-11T23:47:27Z</time>
      </trkpt>
      <trkpt lat="36.796501159668" lon="-5.18019819259644">
        <ele>888</ele>
        <time>2019-05-11T23:47:29Z</time>
      </trkpt>
      <trkpt lat="36.7964820861816" lon="-5.18018484115601">
        <ele>887</ele>
        <time>2019-05-11T23:47:31Z</time>
      </trkpt>
      <trkpt lat="36.7964668273926" lon="-5.18017196655273">
        <ele>886</ele>
        <time>2019-05-11T23:47:33Z</time>
      </trkpt>
      <trkpt lat="36.796443939209" lon="-5.18015813827515">
        <ele>886</ele>
        <time>2019-05-11T23:47:35Z</time>
      </trkpt>
      <trkpt lat="36.7964286804199" lon="-5.18014287948608">
        <ele>886</ele>
        <time>2019-05-11T23:47:37Z</time>
      </trkpt>
      <trkpt lat="36.7964096069336" lon="-5.18013191223144">
        <ele>886</ele>
        <time>2019-05-11T23:47:39Z</time>
      </trkpt>
      <trkpt lat="36.7963905334473" lon="-5.18011713027954">
        <ele>886</ele>
        <time>2019-05-11T23:47:41Z</time>
      </trkpt>
      <trkpt lat="36.7963714599609" lon="-5.18010187149048">
        <ele>886</ele>
        <time>2019-05-11T23:47:43Z</time>
      </trkpt>
      <trkpt lat="36.7963562011719" lon="-5.18008708953857">
        <ele>886</ele>
        <time>2019-05-11T23:47:45Z</time>
      </trkpt>
      <trkpt lat="36.7963371276856" lon="-5.18007183074951">
        <ele>886</ele>
        <time>2019-05-11T23:47:47Z</time>
      </trkpt>
      <trkpt lat="36.7963218688965" lon="-5.18005514144897">
        <ele>885</ele>
        <time>2019-05-11T23:47:49Z</time>
      </trkpt>
      <trkpt lat="36.7963066101074" lon="-5.18003511428833">
        <ele>885</ele>
        <time>2019-05-11T23:47:51Z</time>
      </trkpt>
      <trkpt lat="36.7962875366211" lon="-5.18001508712769">
        <ele>884</ele>
        <time>2019-05-11T23:47:53Z</time>
      </trkpt>
      <trkpt lat="36.796272277832" lon="-5.17999505996704">
        <ele>884</ele>
        <time>2019-05-11T23:47:55Z</time>
      </trkpt>
      <trkpt lat="36.7962532043457" lon="-5.17997694015503">
        <ele>883</ele>
        <time>2019-05-11T23:47:57Z</time>
      </trkpt>
      <trkpt lat="36.7962379455566" lon="-5.17995691299438">
        <ele>883</ele>
        <time>2019-05-11T23:47:59Z</time>
      </trkpt>
      <trkpt lat="36.7962226867676" lon="-5.17993688583374">
        <ele>881</ele>
        <time>2019-05-11T23:48:01Z</time>
      </trkpt>
      <trkpt lat="36.7962036132812" lon="-5.1799168586731">
        <ele>881</ele>
        <time>2019-05-11T23:48:03Z</time>
      </trkpt>
      <trkpt lat="36.7961883544922" lon="-5.17989778518677">
        <ele>881</ele>
        <time>2019-05-11T23:48:05Z</time>
      </trkpt>
      <trkpt lat="36.7961730957031" lon="-5.17987823486328">
        <ele>881</ele>
        <time>2019-05-11T23:48:07Z</time>
      </trkpt>
      <trkpt lat="36.7961616516113" lon="-5.17986011505127">
        <ele>881</ele>
        <time>2019-05-11T23:48:09Z</time>
      </trkpt>
      <trkpt lat="36.7961387634277" lon="-5.17983293533325">
        <ele>880</ele>
        <time>2019-05-11T23:48:11Z</time>
      </trkpt>
      <trkpt lat="36.7961235046387" lon="-5.17981481552124">
        <ele>880</ele>
        <time>2019-05-11T23:48:13Z</time>
      </trkpt>
      <trkpt lat="36.7961082458496" lon="-5.1797947883606">
        <ele>879</ele>
        <time>2019-05-11T23:48:16Z</time>
      </trkpt>
      <trkpt lat="36.7960891723633" lon="-5.17978000640869">
        <ele>879</ele>
        <time>2019-05-11T23:48:18Z</time>
      </trkpt>
      <trkpt lat="36.7960739135742" lon="-5.17976188659668">
        <ele>878</ele>
        <time>2019-05-11T23:48:20Z</time>
      </trkpt>
      <trkpt lat="36.7960586547852" lon="-5.17974185943604">
        <ele>877</ele>
        <time>2019-05-11T23:48:22Z</time>
      </trkpt>
      <trkpt lat="36.7960395812988" lon="-5.1797251701355">
        <ele>876</ele>
        <time>2019-05-11T23:48:24Z</time>
      </trkpt>
      <trkpt lat="36.7960205078125" lon="-5.1797080039978">
        <ele>876</ele>
        <time>2019-05-11T23:48:26Z</time>
      </trkpt>
      <trkpt lat="36.7960052490234" lon="-5.17969179153442">
        <ele>876</ele>
        <time>2019-05-11T23:48:28Z</time>
      </trkpt>
      <trkpt lat="36.7959938049316" lon="-5.17967176437378">
        <ele>876</ele>
        <time>2019-05-11T23:48:30Z</time>
      </trkpt>
      <trkpt lat="36.7959747314453" lon="-5.17965984344482">
        <ele>875</ele>
        <time>2019-05-11T23:48:32Z</time>
      </trkpt>
      <trkpt lat="36.795955657959" lon="-5.17964220046997">
        <ele>875</ele>
        <time>2019-05-11T23:48:34Z</time>
      </trkpt>
      <trkpt lat="36.7959403991699" lon="-5.17962312698364">
        <ele>875</ele>
        <time>2019-05-11T23:48:36Z</time>
      </trkpt>
      <trkpt lat="36.7959251403809" lon="-5.17960500717163">
        <ele>874</ele>
        <time>2019-05-11T23:48:38Z</time>
      </trkpt>
      <trkpt lat="36.7959098815918" lon="-5.17958688735962">
        <ele>874</ele>
        <time>2019-05-11T23:48:40Z</time>
      </trkpt>
      <trkpt lat="36.7958946228027" lon="-5.17957019805908">
        <ele>874</ele>
        <time>2019-05-11T23:48:42Z</time>
      </trkpt>
      <trkpt lat="36.7958831787109" lon="-5.17955017089844">
        <ele>873</ele>
        <time>2019-05-11T23:48:44Z</time>
      </trkpt>
      <trkpt lat="36.7958717346191" lon="-5.17953300476074">
        <ele>873</ele>
        <time>2019-05-11T23:48:46Z</time>
      </trkpt>
      <trkpt lat="36.7958641052246" lon="-5.1795129776001">
        <ele>873</ele>
        <time>2019-05-11T23:48:48Z</time>
      </trkpt>
      <trkpt lat="36.7958526611328" lon="-5.17949676513672">
        <ele>871</ele>
        <time>2019-05-11T23:48:50Z</time>
      </trkpt>
      <trkpt lat="36.7958374023438" lon="-5.17948198318481">
        <ele>871</ele>
        <time>2019-05-11T23:48:52Z</time>
      </trkpt>
      <trkpt lat="36.795825958252" lon="-5.17946815490723">
        <ele>871</ele>
        <time>2019-05-11T23:48:54Z</time>
      </trkpt>
      <trkpt lat="36.7958106994629" lon="-5.1794548034668">
        <ele>871</ele>
        <time>2019-05-11T23:48:56Z</time>
      </trkpt>
      <trkpt lat="36.7957992553711" lon="-5.17944288253784">
        <ele>871</ele>
        <time>2019-05-11T23:48:58Z</time>
      </trkpt>
      <trkpt lat="36.795783996582" lon="-5.17943000793457">
        <ele>870</ele>
        <time>2019-05-11T23:49:00Z</time>
      </trkpt>
      <trkpt lat="36.795768737793" lon="-5.17941522598267">
        <ele>870</ele>
        <time>2019-05-11T23:49:02Z</time>
      </trkpt>
      <trkpt lat="36.7957572937012" lon="-5.17940282821655">
        <ele>869</ele>
        <time>2019-05-11T23:49:04Z</time>
      </trkpt>
      <trkpt lat="36.7957458496094" lon="-5.17939186096191">
        <ele>869</ele>
        <time>2019-05-11T23:49:06Z</time>
      </trkpt>
      <trkpt lat="36.7957344055176" lon="-5.17937707901001">
        <ele>869</ele>
        <time>2019-05-11T23:49:08Z</time>
      </trkpt>
      <trkpt lat="36.7957153320312" lon="-5.179368019104">
        <ele>869</ele>
        <time>2019-05-11T23:49:10Z</time>
      </trkpt>
      <trkpt lat="36.7956962585449" lon="-5.17936277389526">
        <ele>868</ele>
        <time>2019-05-11T23:49:12Z</time>
      </trkpt>
      <trkpt lat="36.7956848144531" lon="-5.17935180664062">
        <ele>868</ele>
        <time>2019-05-11T23:49:14Z</time>
      </trkpt>
      <trkpt lat="36.7956695556641" lon="-5.17933702468872">
        <ele>868</ele>
        <time>2019-05-11T23:49:16Z</time>
      </trkpt>
      <trkpt lat="36.7956581115723" lon="-5.17932176589966">
        <ele>868</ele>
        <time>2019-05-11T23:49:18Z</time>
      </trkpt>
      <trkpt lat="36.7956466674805" lon="-5.17930698394775">
        <ele>867</ele>
        <time>2019-05-11T23:49:20Z</time>
      </trkpt>
      <trkpt lat="36.7956314086914" lon="-5.17928981781006">
        <ele>866</ele>
        <time>2019-05-11T23:49:22Z</time>
      </trkpt>
      <trkpt lat="36.7956161499023" lon="-5.17927694320679">
        <ele>866</ele>
        <time>2019-05-11T23:49:24Z</time>
      </trkpt>
      <trkpt lat="36.7956047058106" lon="-5.17926502227783">
        <ele>866</ele>
        <time>2019-05-11T23:49:26Z</time>
      </trkpt>
      <trkpt lat="36.7955894470215" lon="-5.17924976348877">
        <ele>866</ele>
        <time>2019-05-11T23:49:28Z</time>
      </trkpt>
      <trkpt lat="36.7955741882324" lon="-5.17923784255981">
        <ele>866</ele>
        <time>2019-05-11T23:49:30Z</time>
      </trkpt>
      <trkpt lat="36.7955627441406" lon="-5.17922496795654">
        <ele>866</ele>
        <time>2019-05-11T23:49:32Z</time>
      </trkpt>
      <trkpt lat="36.7955436706543" lon="-5.17921209335327">
        <ele>866</ele>
        <time>2019-05-11T23:49:34Z</time>
      </trkpt>
      <trkpt lat="36.7955284118652" lon="-5.17920207977295">
        <ele>865</ele>
        <time>2019-05-11T23:49:36Z</time>
      </trkpt>
      <trkpt lat="36.7955131530762" lon="-5.17919015884399">
        <ele>865</ele>
        <time>2019-05-11T23:49:38Z</time>
      </trkpt>
      <trkpt lat="36.7955017089844" lon="-5.17917490005493">
        <ele>865</ele>
        <time>2019-05-11T23:49:40Z</time>
      </trkpt>
      <trkpt lat="36.7954864501953" lon="-5.17916011810303">
        <ele>865</ele>
        <time>2019-05-11T23:49:42Z</time>
      </trkpt>
      <trkpt lat="36.7954711914062" lon="-5.17914295196533">
        <ele>864</ele>
        <time>2019-05-11T23:49:44Z</time>
      </trkpt>
      <trkpt lat="36.7954559326172" lon="-5.17912817001343">
        <ele>864</ele>
        <time>2019-05-11T23:49:46Z</time>
      </trkpt>
      <trkpt lat="36.7954330444336" lon="-5.17911195755005">
        <ele>863</ele>
        <time>2019-05-11T23:49:48Z</time>
      </trkpt>
      <trkpt lat="36.7954177856445" lon="-5.17910003662109">
        <ele>863</ele>
        <time>2019-05-11T23:49:50Z</time>
      </trkpt>
      <trkpt lat="36.7953987121582" lon="-5.17908716201782">
        <ele>863</ele>
        <time>2019-05-11T23:49:53Z</time>
      </trkpt>
      <trkpt lat="36.7953834533691" lon="-5.17907190322876">
        <ele>863</ele>
        <time>2019-05-11T23:49:55Z</time>
      </trkpt>
      <trkpt lat="36.7953643798828" lon="-5.17905807495117">
        <ele>863</ele>
        <time>2019-05-11T23:49:57Z</time>
      </trkpt>
      <trkpt lat="36.7953491210938" lon="-5.1790452003479">
        <ele>863</ele>
        <time>2019-05-11T23:49:59Z</time>
      </trkpt>
      <trkpt lat="36.7953338623047" lon="-5.1790280342102">
        <ele>861</ele>
        <time>2019-05-11T23:50:01Z</time>
      </trkpt>
      <trkpt lat="36.7953147888184" lon="-5.17901515960693">
        <ele>861</ele>
        <time>2019-05-11T23:50:03Z</time>
      </trkpt>
      <trkpt lat="36.7952995300293" lon="-5.17900276184082">
        <ele>861</ele>
        <time>2019-05-11T23:50:05Z</time>
      </trkpt>
      <trkpt lat="36.795280456543" lon="-5.1789870262146">
        <ele>861</ele>
        <time>2019-05-11T23:50:07Z</time>
      </trkpt>
      <trkpt lat="36.7952651977539" lon="-5.1789698600769">
        <ele>861</ele>
        <time>2019-05-11T23:50:09Z</time>
      </trkpt>
      <trkpt lat="36.7952499389648" lon="-5.178955078125">
        <ele>861</ele>
        <time>2019-05-11T23:50:11Z</time>
      </trkpt>
      <trkpt lat="36.7952308654785" lon="-5.17893981933594">
        <ele>860</ele>
        <time>2019-05-11T23:50:13Z</time>
      </trkpt>
      <trkpt lat="36.7952117919922" lon="-5.1789231300354">
        <ele>860</ele>
        <time>2019-05-11T23:50:15Z</time>
      </trkpt>
      <trkpt lat="36.7951965332031" lon="-5.17890691757202">
        <ele>860</ele>
        <time>2019-05-11T23:50:17Z</time>
      </trkpt>
      <trkpt lat="36.7951774597168" lon="-5.17889022827148">
        <ele>860</ele>
        <time>2019-05-11T23:50:19Z</time>
      </trkpt>
      <trkpt lat="36.7951622009277" lon="-5.17887687683106">
        <ele>859</ele>
        <time>2019-05-11T23:50:21Z</time>
      </trkpt>
      <trkpt lat="36.7951431274414" lon="-5.17886304855347">
        <ele>859</ele>
        <time>2019-05-11T23:50:23Z</time>
      </trkpt>
      <trkpt lat="36.7951278686523" lon="-5.17885494232178">
        <ele>859</ele>
        <time>2019-05-11T23:50:25Z</time>
      </trkpt>
      <trkpt lat="36.7951126098633" lon="-5.17884683609009">
        <ele>859</ele>
        <time>2019-05-11T23:50:27Z</time>
      </trkpt>
      <trkpt lat="36.795093536377" lon="-5.17883777618408">
        <ele>858</ele>
        <time>2019-05-11T23:50:29Z</time>
      </trkpt>
      <trkpt lat="36.7950744628906" lon="-5.17882776260376">
        <ele>858</ele>
        <time>2019-05-11T23:50:31Z</time>
      </trkpt>
      <trkpt lat="36.7950553894043" lon="-5.17881488800049">
        <ele>858</ele>
        <time>2019-05-11T23:50:33Z</time>
      </trkpt>
      <trkpt lat="36.795036315918" lon="-5.17880487442017">
        <ele>858</ele>
        <time>2019-05-11T23:50:35Z</time>
      </trkpt>
      <trkpt lat="36.7950172424316" lon="-5.17879295349121">
        <ele>858</ele>
        <time>2019-05-11T23:50:37Z</time>
      </trkpt>
      <trkpt lat="36.7950019836426" lon="-5.17878198623657">
        <ele>856</ele>
        <time>2019-05-11T23:50:39Z</time>
      </trkpt>
      <trkpt lat="36.7949829101562" lon="-5.17877197265625">
        <ele>856</ele>
        <time>2019-05-11T23:50:41Z</time>
      </trkpt>
      <trkpt lat="36.7949638366699" lon="-5.17875814437866">
        <ele>856</ele>
        <time>2019-05-11T23:50:43Z</time>
      </trkpt>
      <trkpt lat="36.7949447631836" lon="-5.17874717712402">
        <ele>856</ele>
        <time>2019-05-11T23:50:45Z</time>
      </trkpt>
      <trkpt lat="36.7949295043945" lon="-5.17873287200928">
        <ele>856</ele>
        <time>2019-05-11T23:50:47Z</time>
      </trkpt>
      <trkpt lat="36.7949142456055" lon="-5.17871713638306">
        <ele>856</ele>
        <time>2019-05-11T23:50:49Z</time>
      </trkpt>
      <trkpt lat="36.7948989868164" lon="-5.17869710922241">
        <ele>856</ele>
        <time>2019-05-11T23:50:51Z</time>
      </trkpt>
      <trkpt lat="36.7948837280273" lon="-5.17867994308472">
        <ele>856</ele>
        <time>2019-05-11T23:50:53Z</time>
      </trkpt>
      <trkpt lat="36.7948684692383" lon="-5.17865991592407">
        <ele>856</ele>
        <time>2019-05-11T23:50:55Z</time>
      </trkpt>
      <trkpt lat="36.7948532104492" lon="-5.17864322662354">
        <ele>856</ele>
        <time>2019-05-11T23:50:57Z</time>
      </trkpt>
      <trkpt lat="36.7948417663574" lon="-5.17862701416016">
        <ele>856</ele>
        <time>2019-05-11T23:50:59Z</time>
      </trkpt>
      <trkpt lat="36.7948265075684" lon="-5.17861318588257">
        <ele>856</ele>
        <time>2019-05-11T23:51:01Z</time>
      </trkpt>
      <trkpt lat="36.7948150634766" lon="-5.17860317230225">
        <ele>856</ele>
        <time>2019-05-11T23:51:03Z</time>
      </trkpt>
      <trkpt lat="36.7947998046875" lon="-5.17859506607056">
        <ele>856</ele>
        <time>2019-05-11T23:51:05Z</time>
      </trkpt>
      <trkpt lat="36.7947845458984" lon="-5.1785831451416">
        <ele>856</ele>
        <time>2019-05-11T23:51:07Z</time>
      </trkpt>
      <trkpt lat="36.7947692871094" lon="-5.17856979370117">
        <ele>856</ele>
        <time>2019-05-11T23:51:09Z</time>
      </trkpt>
      <trkpt lat="36.7947578430176" lon="-5.1785569190979">
        <ele>856</ele>
        <time>2019-05-11T23:51:11Z</time>
      </trkpt>
      <trkpt lat="36.7947387695312" lon="-5.17854309082031">
        <ele>855</ele>
        <time>2019-05-11T23:51:13Z</time>
      </trkpt>
      <trkpt lat="36.7947235107422" lon="-5.17853212356567">
        <ele>855</ele>
        <time>2019-05-11T23:51:15Z</time>
      </trkpt>
      <trkpt lat="36.7947044372559" lon="-5.17851781845093">
        <ele>855</ele>
        <time>2019-05-11T23:51:17Z</time>
      </trkpt>
      <trkpt lat="36.7946815490723" lon="-5.17850494384766">
        <ele>854</ele>
        <time>2019-05-11T23:51:19Z</time>
      </trkpt>
      <trkpt lat="36.7946662902832" lon="-5.1784930229187">
        <ele>854</ele>
        <time>2019-05-11T23:51:21Z</time>
      </trkpt>
      <trkpt lat="36.7946472167969" lon="-5.17847299575806">
        <ele>853</ele>
        <time>2019-05-11T23:51:23Z</time>
      </trkpt>
      <trkpt lat="36.7946281433106" lon="-5.17846012115478">
        <ele>853</ele>
        <time>2019-05-11T23:51:25Z</time>
      </trkpt>
      <trkpt lat="36.794605255127" lon="-5.17844486236572">
        <ele>852</ele>
        <time>2019-05-11T23:51:28Z</time>
      </trkpt>
      <trkpt lat="36.7945861816406" lon="-5.17843008041382">
        <ele>851</ele>
        <time>2019-05-11T23:51:30Z</time>
      </trkpt>
      <trkpt lat="36.7945671081543" lon="-5.17841482162476">
        <ele>851</ele>
        <time>2019-05-11T23:51:32Z</time>
      </trkpt>
      <trkpt lat="36.7945518493652" lon="-5.17840003967285">
        <ele>851</ele>
        <time>2019-05-11T23:51:34Z</time>
      </trkpt>
      <trkpt lat="36.7945289611816" lon="-5.1783881187439">
        <ele>851</ele>
        <time>2019-05-11T23:51:36Z</time>
      </trkpt>
      <trkpt lat="36.7945098876953" lon="-5.17837285995483">
        <ele>851</ele>
        <time>2019-05-11T23:51:38Z</time>
      </trkpt>
      <trkpt lat="36.794490814209" lon="-5.17835998535156">
        <ele>850</ele>
        <time>2019-05-11T23:51:40Z</time>
      </trkpt>
      <trkpt lat="36.7944717407227" lon="-5.17834711074829">
        <ele>850</ele>
        <time>2019-05-11T23:51:42Z</time>
      </trkpt>
      <trkpt lat="36.7944526672363" lon="-5.17833280563354">
        <ele>850</ele>
        <time>2019-05-11T23:51:44Z</time>
      </trkpt>
      <trkpt lat="36.7944374084473" lon="-5.17831707000732">
        <ele>850</ele>
        <time>2019-05-11T23:51:46Z</time>
      </trkpt>
      <trkpt lat="36.7944259643555" lon="-5.17830514907837">
        <ele>850</ele>
        <time>2019-05-11T23:51:48Z</time>
      </trkpt>
      <trkpt lat="36.7944107055664" lon="-5.17829704284668">
        <ele>850</ele>
        <time>2019-05-11T23:51:50Z</time>
      </trkpt>
      <trkpt lat="36.7943954467773" lon="-5.17828321456909">
        <ele>850</ele>
        <time>2019-05-11T23:51:52Z</time>
      </trkpt>
      <trkpt lat="36.794376373291" lon="-5.17826700210571">
        <ele>850</ele>
        <time>2019-05-11T23:51:54Z</time>
      </trkpt>
      <trkpt lat="36.794361114502" lon="-5.17824983596802">
        <ele>850</ele>
        <time>2019-05-11T23:51:56Z</time>
      </trkpt>
      <trkpt lat="36.7943458557129" lon="-5.17823219299316">
        <ele>850</ele>
        <time>2019-05-11T23:51:58Z</time>
      </trkpt>
      <trkpt lat="36.7943267822266" lon="-5.17821788787842">
        <ele>850</ele>
        <time>2019-05-11T23:52:00Z</time>
      </trkpt>
      <trkpt lat="36.7943115234375" lon="-5.17820310592651">
        <ele>850</ele>
        <time>2019-05-11T23:52:02Z</time>
      </trkpt>
      <trkpt lat="36.7942924499512" lon="-5.17819023132324">
        <ele>850</ele>
        <time>2019-05-11T23:52:04Z</time>
      </trkpt>
      <trkpt lat="36.7942771911621" lon="-5.17818021774292">
        <ele>850</ele>
        <time>2019-05-11T23:52:06Z</time>
      </trkpt>
      <trkpt lat="36.7942657470703" lon="-5.17816686630249">
        <ele>850</ele>
        <time>2019-05-11T23:52:08Z</time>
      </trkpt>
      <trkpt lat="36.7942504882812" lon="-5.1781530380249">
        <ele>850</ele>
        <time>2019-05-11T23:52:10Z</time>
      </trkpt>
      <trkpt lat="36.7942314147949" lon="-5.17814016342163">
        <ele>849</ele>
        <time>2019-05-11T23:52:12Z</time>
      </trkpt>
      <trkpt lat="36.7942199707031" lon="-5.1781268119812">
        <ele>849</ele>
        <time>2019-05-11T23:52:14Z</time>
      </trkpt>
      <trkpt lat="36.7942085266113" lon="-5.17811298370361">
        <ele>848</ele>
        <time>2019-05-11T23:52:16Z</time>
      </trkpt>
      <trkpt lat="36.794189453125" lon="-5.17809820175171">
        <ele>848</ele>
        <time>2019-05-11T23:52:18Z</time>
      </trkpt>
      <trkpt lat="36.7941741943359" lon="-5.17808485031128">
        <ele>846</ele>
        <time>2019-05-11T23:52:20Z</time>
      </trkpt>
      <trkpt lat="36.7941551208496" lon="-5.17807292938232">
        <ele>846</ele>
        <time>2019-05-11T23:52:22Z</time>
      </trkpt>
      <trkpt lat="36.7941360473633" lon="-5.17805814743042">
        <ele>845</ele>
        <time>2019-05-11T23:52:24Z</time>
      </trkpt>
      <trkpt lat="36.794116973877" lon="-5.17804193496704">
        <ele>845</ele>
        <time>2019-05-11T23:52:26Z</time>
      </trkpt>
      <trkpt lat="36.7941017150879" lon="-5.17802476882935">
        <ele>845</ele>
        <time>2019-05-11T23:52:28Z</time>
      </trkpt>
      <trkpt lat="36.7940864562988" lon="-5.17800807952881">
        <ele>845</ele>
        <time>2019-05-11T23:52:30Z</time>
      </trkpt>
      <trkpt lat="36.7940635681152" lon="-5.17799520492554">
        <ele>845</ele>
        <time>2019-05-11T23:52:32Z</time>
      </trkpt>
      <trkpt lat="36.7940483093262" lon="-5.17798280715942">
        <ele>844</ele>
        <time>2019-05-11T23:52:34Z</time>
      </trkpt>
      <trkpt lat="36.7940254211426" lon="-5.17796993255615">
        <ele>844</ele>
        <time>2019-05-11T23:52:36Z</time>
      </trkpt>
      <trkpt lat="36.7940063476562" lon="-5.17795276641846">
        <ele>843</ele>
        <time>2019-05-11T23:52:38Z</time>
      </trkpt>
      <trkpt lat="36.7939834594727" lon="-5.17794179916382">
        <ele>843</ele>
        <time>2019-05-11T23:52:40Z</time>
      </trkpt>
      <trkpt lat="36.7939643859863" lon="-5.17792797088623">
        <ele>842</ele>
        <time>2019-05-11T23:52:42Z</time>
      </trkpt>
      <trkpt lat="36.7939414978027" lon="-5.17791223526001">
        <ele>841</ele>
        <time>2019-05-11T23:52:44Z</time>
      </trkpt>
      <trkpt lat="36.7939186096191" lon="-5.17789697647095">
        <ele>841</ele>
        <time>2019-05-11T23:52:46Z</time>
      </trkpt>
      <trkpt lat="36.7938995361328" lon="-5.17787981033325">
        <ele>841</ele>
        <time>2019-05-11T23:52:48Z</time>
      </trkpt>
      <trkpt lat="36.7938804626465" lon="-5.17786312103272">
        <ele>840</ele>
        <time>2019-05-11T23:52:50Z</time>
      </trkpt>
      <trkpt lat="36.7938575744629" lon="-5.17785215377808">
        <ele>840</ele>
        <time>2019-05-11T23:52:52Z</time>
      </trkpt>
      <trkpt lat="36.793830871582" lon="-5.1778302192688">
        <ele>839</ele>
        <time>2019-05-11T23:52:54Z</time>
      </trkpt>
      <trkpt lat="36.7938079833984" lon="-5.17781782150269">
        <ele>838</ele>
        <time>2019-05-11T23:52:57Z</time>
      </trkpt>
      <trkpt lat="36.7937889099121" lon="-5.17780494689941">
        <ele>838</ele>
        <time>2019-05-11T23:52:59Z</time>
      </trkpt>
      <trkpt lat="36.793773651123" lon="-5.17779207229614">
        <ele>837</ele>
        <time>2019-05-11T23:53:01Z</time>
      </trkpt>
      <trkpt lat="36.7937507629394" lon="-5.17777490615845">
        <ele>836</ele>
        <time>2019-05-11T23:53:03Z</time>
      </trkpt>
      <trkpt lat="36.7937316894531" lon="-5.17775821685791">
        <ele>836</ele>
        <time>2019-05-11T23:53:05Z</time>
      </trkpt>
      <trkpt lat="36.7937088012695" lon="-5.1777400970459">
        <ele>836</ele>
        <time>2019-05-11T23:53:07Z</time>
      </trkpt>
      <trkpt lat="36.7936897277832" lon="-5.17772483825684">
        <ele>835</ele>
        <time>2019-05-11T23:53:09Z</time>
      </trkpt>
      <trkpt lat="36.7936668395996" lon="-5.17771196365356">
        <ele>834</ele>
        <time>2019-05-11T23:53:11Z</time>
      </trkpt>
      <trkpt lat="36.7936477661133" lon="-5.17769813537598">
        <ele>834</ele>
        <time>2019-05-11T23:53:13Z</time>
      </trkpt>
      <trkpt lat="36.793628692627" lon="-5.17768716812134">
        <ele>833</ele>
        <time>2019-05-11T23:53:15Z</time>
      </trkpt>
      <trkpt lat="36.7936096191406" lon="-5.17767477035522">
        <ele>833</ele>
        <time>2019-05-11T23:53:17Z</time>
      </trkpt>
      <trkpt lat="36.7935905456543" lon="-5.17765998840332">
        <ele>833</ele>
        <time>2019-05-11T23:53:19Z</time>
      </trkpt>
      <trkpt lat="36.793571472168" lon="-5.17764806747436">
        <ele>831</ele>
        <time>2019-05-11T23:53:21Z</time>
      </trkpt>
      <trkpt lat="36.7935523986816" lon="-5.1776328086853">
        <ele>831</ele>
        <time>2019-05-11T23:53:23Z</time>
      </trkpt>
      <trkpt lat="36.7935333251953" lon="-5.17761993408203">
        <ele>831</ele>
        <time>2019-05-11T23:53:25Z</time>
      </trkpt>
      <trkpt lat="36.793514251709" lon="-5.17760801315308">
        <ele>831</ele>
        <time>2019-05-11T23:53:27Z</time>
      </trkpt>
      <trkpt lat="36.7934951782227" lon="-5.17759323120117">
        <ele>831</ele>
        <time>2019-05-11T23:53:29Z</time>
      </trkpt>
      <trkpt lat="36.7934761047363" lon="-5.17757701873779">
        <ele>830</ele>
        <time>2019-05-11T23:53:31Z</time>
      </trkpt>
      <trkpt lat="36.7934608459473" lon="-5.1775631904602">
        <ele>830</ele>
        <time>2019-05-11T23:53:33Z</time>
      </trkpt>
      <trkpt lat="36.7934417724609" lon="-5.17754697799683">
        <ele>829</ele>
        <time>2019-05-11T23:53:35Z</time>
      </trkpt>
      <trkpt lat="36.7934226989746" lon="-5.17753505706787">
        <ele>829</ele>
        <time>2019-05-11T23:53:37Z</time>
      </trkpt>
      <trkpt lat="36.793399810791" lon="-5.17751789093018">
        <ele>828</ele>
        <time>2019-05-11T23:53:39Z</time>
      </trkpt>
      <trkpt lat="36.7933807373047" lon="-5.17750310897827">
        <ele>828</ele>
        <time>2019-05-11T23:53:41Z</time>
      </trkpt>
      <trkpt lat="36.7933616638184" lon="-5.17748689651489">
        <ele>828</ele>
        <time>2019-05-11T23:53:43Z</time>
      </trkpt>
      <trkpt lat="36.7933464050293" lon="-5.17747020721436">
        <ele>827</ele>
        <time>2019-05-11T23:53:45Z</time>
      </trkpt>
      <trkpt lat="36.7933311462402" lon="-5.17745685577393">
        <ele>826</ele>
        <time>2019-05-11T23:53:47Z</time>
      </trkpt>
      <trkpt lat="36.7933120727539" lon="-5.17744302749634">
        <ele>826</ele>
        <time>2019-05-11T23:53:49Z</time>
      </trkpt>
      <trkpt lat="36.7932968139648" lon="-5.17743015289307">
        <ele>826</ele>
        <time>2019-05-11T23:53:51Z</time>
      </trkpt>
      <trkpt lat="36.7932815551758" lon="-5.17741298675537">
        <ele>826</ele>
        <time>2019-05-11T23:53:53Z</time>
      </trkpt>
      <trkpt lat="36.7932662963867" lon="-5.17739677429199">
        <ele>826</ele>
        <time>2019-05-11T23:53:55Z</time>
      </trkpt>
      <trkpt lat="36.7932510375977" lon="-5.17737483978272">
        <ele>826</ele>
        <time>2019-05-11T23:53:57Z</time>
      </trkpt>
      <trkpt lat="36.7932357788086" lon="-5.17735481262207">
        <ele>826</ele>
        <time>2019-05-11T23:53:59Z</time>
      </trkpt>
      <trkpt lat="36.7932167053223" lon="-5.17733812332153">
        <ele>826</ele>
        <time>2019-05-11T23:54:01Z</time>
      </trkpt>
      <trkpt lat="36.7931976318359" lon="-5.17732000350952">
        <ele>826</ele>
        <time>2019-05-11T23:54:03Z</time>
      </trkpt>
      <trkpt lat="36.7931785583496" lon="-5.17729997634888">
        <ele>826</ele>
        <time>2019-05-11T23:54:05Z</time>
      </trkpt>
      <trkpt lat="36.7931594848633" lon="-5.17728185653686">
        <ele>826</ele>
        <time>2019-05-11T23:54:07Z</time>
      </trkpt>
      <trkpt lat="36.793140411377" lon="-5.17725992202759">
        <ele>826</ele>
        <time>2019-05-11T23:54:09Z</time>
      </trkpt>
      <trkpt lat="36.7931213378906" lon="-5.17723798751831">
        <ele>826</ele>
        <time>2019-05-11T23:54:11Z</time>
      </trkpt>
      <trkpt lat="36.7931022644043" lon="-5.17721700668335">
        <ele>826</ele>
        <time>2019-05-11T23:54:13Z</time>
      </trkpt>
      <trkpt lat="36.793083190918" lon="-5.17719793319702">
        <ele>826</ele>
        <time>2019-05-11T23:54:15Z</time>
      </trkpt>
      <trkpt lat="36.7930641174316" lon="-5.17717790603638">
        <ele>826</ele>
        <time>2019-05-11T23:54:17Z</time>
      </trkpt>
      <trkpt lat="36.7930450439453" lon="-5.17715501785278">
        <ele>826</ele>
        <time>2019-05-11T23:54:19Z</time>
      </trkpt>
      <trkpt lat="36.7930297851562" lon="-5.17713308334351">
        <ele>826</ele>
        <time>2019-05-11T23:54:21Z</time>
      </trkpt>
      <trkpt lat="36.7930068969727" lon="-5.17711496353149">
        <ele>826</ele>
        <time>2019-05-11T23:54:23Z</time>
      </trkpt>
      <trkpt lat="36.7929878234863" lon="-5.17709493637085">
        <ele>826</ele>
        <time>2019-05-11T23:54:25Z</time>
      </trkpt>
      <trkpt lat="36.79296875" lon="-5.17707204818726">
        <ele>826</ele>
        <time>2019-05-11T23:54:27Z</time>
      </trkpt>
      <trkpt lat="36.7929496765137" lon="-5.17704820632935">
        <ele>826</ele>
        <time>2019-05-11T23:54:29Z</time>
      </trkpt>
      <trkpt lat="36.7929191589356" lon="-5.17701721191406">
        <ele>826</ele>
        <time>2019-05-11T23:54:31Z</time>
      </trkpt>
      <trkpt lat="36.7929039001465" lon="-5.17699289321899">
        <ele>826</ele>
        <time>2019-05-11T23:54:33Z</time>
      </trkpt>
      <trkpt lat="36.7928810119629" lon="-5.17697477340698">
        <ele>826</ele>
        <time>2019-05-11T23:54:36Z</time>
      </trkpt>
      <trkpt lat="36.7928619384766" lon="-5.17695713043213">
        <ele>826</ele>
        <time>2019-05-11T23:54:38Z</time>
      </trkpt>
      <trkpt lat="36.7928428649902" lon="-5.17693710327148">
        <ele>826</ele>
        <time>2019-05-11T23:54:40Z</time>
      </trkpt>
      <trkpt lat="36.7928237915039" lon="-5.17691707611084">
        <ele>826</ele>
        <time>2019-05-11T23:54:42Z</time>
      </trkpt>
      <trkpt lat="36.7928047180176" lon="-5.17690277099609">
        <ele>826</ele>
        <time>2019-05-11T23:54:44Z</time>
      </trkpt>
      <trkpt lat="36.7927856445312" lon="-5.17688703536987">
        <ele>826</ele>
        <time>2019-05-11T23:54:46Z</time>
      </trkpt>
      <trkpt lat="36.7927627563477" lon="-5.17686700820923">
        <ele>826</ele>
        <time>2019-05-11T23:54:48Z</time>
      </trkpt>
      <trkpt lat="36.7927436828613" lon="-5.17684507369995">
        <ele>825</ele>
        <time>2019-05-11T23:54:50Z</time>
      </trkpt>
      <trkpt lat="36.7927207946777" lon="-5.17682313919067">
        <ele>825</ele>
        <time>2019-05-11T23:54:52Z</time>
      </trkpt>
      <trkpt lat="36.7927017211914" lon="-5.17680215835571">
        <ele>824</ele>
        <time>2019-05-11T23:54:54Z</time>
      </trkpt>
      <trkpt lat="36.7926826477051" lon="-5.17678022384644">
        <ele>824</ele>
        <time>2019-05-11T23:54:56Z</time>
      </trkpt>
      <trkpt lat="36.7926635742188" lon="-5.1767578125">
        <ele>823</ele>
        <time>2019-05-11T23:54:58Z</time>
      </trkpt>
      <trkpt lat="36.7926445007324" lon="-5.17673301696777">
        <ele>823</ele>
        <time>2019-05-11T23:55:00Z</time>
      </trkpt>
      <trkpt lat="36.7926254272461" lon="-5.17671012878418">
        <ele>823</ele>
        <time>2019-05-11T23:55:02Z</time>
      </trkpt>
      <trkpt lat="36.792610168457" lon="-5.1766848564148">
        <ele>821</ele>
        <time>2019-05-11T23:55:04Z</time>
      </trkpt>
      <trkpt lat="36.7925987243652" lon="-5.17665481567383">
        <ele>821</ele>
        <time>2019-05-11T23:55:06Z</time>
      </trkpt>
      <trkpt lat="36.7925834655762" lon="-5.17662477493286">
        <ele>821</ele>
        <time>2019-05-11T23:55:08Z</time>
      </trkpt>
      <trkpt lat="36.7925758361816" lon="-5.17659282684326">
        <ele>821</ele>
        <time>2019-05-11T23:55:10Z</time>
      </trkpt>
      <trkpt lat="36.7925682067871" lon="-5.1765627861023">
        <ele>821</ele>
        <time>2019-05-11T23:55:12Z</time>
      </trkpt>
      <trkpt lat="36.7925605773926" lon="-5.17653322219849">
        <ele>821</ele>
        <time>2019-05-11T23:55:14Z</time>
      </trkpt>
      <trkpt lat="36.7925567626953" lon="-5.17650699615478">
        <ele>821</ele>
        <time>2019-05-11T23:55:16Z</time>
      </trkpt>
      <trkpt lat="36.7925453186035" lon="-5.17647790908814">
        <ele>821</ele>
        <time>2019-05-11T23:55:18Z</time>
      </trkpt>
      <trkpt lat="36.7925338745117" lon="-5.17645502090454">
        <ele>821</ele>
        <time>2019-05-11T23:55:20Z</time>
      </trkpt>
      <trkpt lat="36.7925262451172" lon="-5.17643690109253">
        <ele>821</ele>
        <time>2019-05-11T23:55:22Z</time>
      </trkpt>
      <trkpt lat="36.7925109863281" lon="-5.17642498016357">
        <ele>821</ele>
        <time>2019-05-11T23:55:24Z</time>
      </trkpt>
      <trkpt lat="36.7924957275391" lon="-5.17640686035156">
        <ele>821</ele>
        <time>2019-05-11T23:55:26Z</time>
      </trkpt>
      <trkpt lat="36.79248046875" lon="-5.17638778686523">
        <ele>820</ele>
        <time>2019-05-11T23:55:28Z</time>
      </trkpt>
      <trkpt lat="36.7924613952637" lon="-5.17636823654175">
        <ele>819</ele>
        <time>2019-05-11T23:55:30Z</time>
      </trkpt>
      <trkpt lat="36.7924461364746" lon="-5.1763482093811">
        <ele>819</ele>
        <time>2019-05-11T23:55:32Z</time>
      </trkpt>
      <trkpt lat="36.7924308776856" lon="-5.17633008956909">
        <ele>818</ele>
        <time>2019-05-11T23:55:34Z</time>
      </trkpt>
      <trkpt lat="36.7924118041992" lon="-5.1763129234314">
        <ele>817</ele>
        <time>2019-05-11T23:55:36Z</time>
      </trkpt>
      <trkpt lat="36.7923927307129" lon="-5.17629814147949">
        <ele>816</ele>
        <time>2019-05-11T23:55:38Z</time>
      </trkpt>
      <trkpt lat="36.7923774719238" lon="-5.17628192901611">
        <ele>816</ele>
        <time>2019-05-11T23:55:40Z</time>
      </trkpt>
      <trkpt lat="36.792366027832" lon="-5.17626476287842">
        <ele>815</ele>
        <time>2019-05-11T23:55:42Z</time>
      </trkpt>
      <trkpt lat="36.792350769043" lon="-5.17625284194946">
        <ele>815</ele>
        <time>2019-05-11T23:55:44Z</time>
      </trkpt>
      <trkpt lat="36.7923355102539" lon="-5.17623805999756">
        <ele>814</ele>
        <time>2019-05-11T23:55:46Z</time>
      </trkpt>
      <trkpt lat="36.7923202514648" lon="-5.17622184753418">
        <ele>814</ele>
        <time>2019-05-11T23:55:48Z</time>
      </trkpt>
      <trkpt lat="36.792308807373" lon="-5.17620277404785">
        <ele>813</ele>
        <time>2019-05-11T23:55:50Z</time>
      </trkpt>
      <trkpt lat="36.7922897338867" lon="-5.176185131073">
        <ele>813</ele>
        <time>2019-05-11T23:55:52Z</time>
      </trkpt>
      <trkpt lat="36.7922744750977" lon="-5.17616701126099">
        <ele>811</ele>
        <time>2019-05-11T23:55:54Z</time>
      </trkpt>
      <trkpt lat="36.7922592163086" lon="-5.17614984512329">
        <ele>811</ele>
        <time>2019-05-11T23:55:56Z</time>
      </trkpt>
      <trkpt lat="36.7922439575195" lon="-5.17613506317139">
        <ele>811</ele>
        <time>2019-05-11T23:55:58Z</time>
      </trkpt>
      <trkpt lat="36.7922286987305" lon="-5.17611694335938">
        <ele>810</ele>
        <time>2019-05-11T23:56:00Z</time>
      </trkpt>
      <trkpt lat="36.7922134399414" lon="-5.17609786987305">
        <ele>809</ele>
        <time>2019-05-11T23:56:02Z</time>
      </trkpt>
      <trkpt lat="36.7921981811523" lon="-5.17608022689819">
        <ele>809</ele>
        <time>2019-05-11T23:56:04Z</time>
      </trkpt>
      <trkpt lat="36.7921752929688" lon="-5.17605209350586">
        <ele>808</ele>
        <time>2019-05-11T23:56:06Z</time>
      </trkpt>
      <trkpt lat="36.7921562194824" lon="-5.17603302001953">
        <ele>807</ele>
        <time>2019-05-11T23:56:08Z</time>
      </trkpt>
      <trkpt lat="36.7921447753906" lon="-5.17601490020752">
        <ele>806</ele>
        <time>2019-05-11T23:56:11Z</time>
      </trkpt>
      <trkpt lat="36.7921295166016" lon="-5.17599678039551">
        <ele>806</ele>
        <time>2019-05-11T23:56:13Z</time>
      </trkpt>
      <trkpt lat="36.7921142578125" lon="-5.17597818374634">
        <ele>806</ele>
        <time>2019-05-11T23:56:15Z</time>
      </trkpt>
      <trkpt lat="36.7920989990234" lon="-5.17596197128296">
        <ele>805</ele>
        <time>2019-05-11T23:56:17Z</time>
      </trkpt>
      <trkpt lat="36.7920837402344" lon="-5.17594814300537">
        <ele>805</ele>
        <time>2019-05-11T23:56:19Z</time>
      </trkpt>
      <trkpt lat="36.7920684814453" lon="-5.17593193054199">
        <ele>804</ele>
        <time>2019-05-11T23:56:21Z</time>
      </trkpt>
      <trkpt lat="36.7920570373535" lon="-5.17591714859009">
        <ele>803</ele>
        <time>2019-05-11T23:56:23Z</time>
      </trkpt>
      <trkpt lat="36.7920417785644" lon="-5.17590284347534">
        <ele>803</ele>
        <time>2019-05-11T23:56:25Z</time>
      </trkpt>
      <trkpt lat="36.7920265197754" lon="-5.17588996887207">
        <ele>802</ele>
        <time>2019-05-11T23:56:27Z</time>
      </trkpt>
      <trkpt lat="36.7920188903809" lon="-5.17587280273438">
        <ele>801</ele>
        <time>2019-05-11T23:56:29Z</time>
      </trkpt>
      <trkpt lat="36.7920074462891" lon="-5.17585706710815">
        <ele>801</ele>
        <time>2019-05-11T23:56:31Z</time>
      </trkpt>
      <trkpt lat="36.7919998168945" lon="-5.17584991455078">
        <ele>801</ele>
        <time>2019-05-11T23:56:33Z</time>
      </trkpt>
      <trkpt lat="36.7919921875" lon="-5.17584991455078">
        <ele>800</ele>
        <time>2019-05-11T23:56:35Z</time>
      </trkpt>
      <trkpt lat="36.7919807434082" lon="-5.17583990097046">
        <ele>800</ele>
        <time>2019-05-11T23:56:37Z</time>
      </trkpt>
      <trkpt lat="36.7919692993164" lon="-5.17582511901856">
        <ele>800</ele>
        <time>2019-05-11T23:56:39Z</time>
      </trkpt>
      <trkpt lat="36.7919578552246" lon="-5.17581176757812">
        <ele>799</ele>
        <time>2019-05-11T23:56:41Z</time>
      </trkpt>
      <trkpt lat="36.7919425964356" lon="-5.17579793930054">
        <ele>799</ele>
        <time>2019-05-11T23:56:43Z</time>
      </trkpt>
      <trkpt lat="36.7919273376465" lon="-5.17578220367432">
        <ele>798</ele>
        <time>2019-05-11T23:56:45Z</time>
      </trkpt>
      <trkpt lat="36.7919158935547" lon="-5.17576694488525">
        <ele>798</ele>
        <time>2019-05-11T23:56:47Z</time>
      </trkpt>
      <trkpt lat="36.7919006347656" lon="-5.1757550239563">
        <ele>798</ele>
        <time>2019-05-11T23:56:49Z</time>
      </trkpt>
      <trkpt lat="36.7918853759766" lon="-5.17573976516724">
        <ele>797</ele>
        <time>2019-05-11T23:56:51Z</time>
      </trkpt>
      <trkpt lat="36.7918701171875" lon="-5.17572784423828">
        <ele>796</ele>
        <time>2019-05-11T23:56:53Z</time>
      </trkpt>
      <trkpt lat="36.7918586730957" lon="-5.17571496963501">
        <ele>796</ele>
        <time>2019-05-11T23:56:55Z</time>
      </trkpt>
      <trkpt lat="36.7918434143066" lon="-5.17570209503174">
        <ele>796</ele>
        <time>2019-05-11T23:56:57Z</time>
      </trkpt>
      <trkpt lat="36.7918281555176" lon="-5.17569208145142">
        <ele>796</ele>
        <time>2019-05-11T23:56:59Z</time>
      </trkpt>
      <trkpt lat="36.7918167114258" lon="-5.17567777633667">
        <ele>796</ele>
        <time>2019-05-11T23:57:01Z</time>
      </trkpt>
      <trkpt lat="36.791805267334" lon="-5.17566299438477">
        <ele>796</ele>
        <time>2019-05-11T23:57:03Z</time>
      </trkpt>
      <trkpt lat="36.7917938232422" lon="-5.17565011978149">
        <ele>795</ele>
        <time>2019-05-11T23:57:05Z</time>
      </trkpt>
      <trkpt lat="36.7917785644531" lon="-5.17563676834106">
        <ele>795</ele>
        <time>2019-05-11T23:57:07Z</time>
      </trkpt>
      <trkpt lat="36.7917633056641" lon="-5.17562294006348">
        <ele>794</ele>
        <time>2019-05-11T23:57:09Z</time>
      </trkpt>
      <trkpt lat="36.7917442321777" lon="-5.17561197280884">
        <ele>794</ele>
        <time>2019-05-11T23:57:11Z</time>
      </trkpt>
      <trkpt lat="36.7917289733887" lon="-5.17560005187988">
        <ele>794</ele>
        <time>2019-05-11T23:57:13Z</time>
      </trkpt>
      <trkpt lat="36.7917137145996" lon="-5.17558813095093">
        <ele>793</ele>
        <time>2019-05-11T23:57:15Z</time>
      </trkpt>
      <trkpt lat="36.7916984558106" lon="-5.17558193206787">
        <ele>793</ele>
        <time>2019-05-11T23:57:17Z</time>
      </trkpt>
      <trkpt lat="36.7916831970215" lon="-5.17557811737061">
        <ele>793</ele>
        <time>2019-05-11T23:57:19Z</time>
      </trkpt>
      <trkpt lat="36.7916717529297" lon="-5.1755747795105">
        <ele>793</ele>
        <time>2019-05-11T23:57:21Z</time>
      </trkpt>
      <trkpt lat="36.7916564941406" lon="-5.17557001113892">
        <ele>793</ele>
        <time>2019-05-11T23:57:23Z</time>
      </trkpt>
      <trkpt lat="36.7916412353516" lon="-5.17556810379028">
        <ele>793</ele>
        <time>2019-05-11T23:57:25Z</time>
      </trkpt>
      <trkpt lat="36.7916221618652" lon="-5.17556810379028">
        <ele>791</ele>
        <time>2019-05-11T23:57:27Z</time>
      </trkpt>
      <trkpt lat="36.7916069030762" lon="-5.17556715011597">
        <ele>791</ele>
        <time>2019-05-11T23:57:29Z</time>
      </trkpt>
      <trkpt lat="36.7915878295898" lon="-5.17556715011597">
        <ele>791</ele>
        <time>2019-05-11T23:57:31Z</time>
      </trkpt>
      <trkpt lat="36.7915687561035" lon="-5.17556285858154">
        <ele>791</ele>
        <time>2019-05-11T23:57:33Z</time>
      </trkpt>
      <trkpt lat="36.7915534973144" lon="-5.17555999755859">
        <ele>791</ele>
        <time>2019-05-11T23:57:35Z</time>
      </trkpt>
      <trkpt lat="36.7915420532227" lon="-5.17555809020996">
        <ele>791</ele>
        <time>2019-05-11T23:57:37Z</time>
      </trkpt>
      <trkpt lat="36.7915267944336" lon="-5.17555522918701">
        <ele>791</ele>
        <time>2019-05-11T23:57:39Z</time>
      </trkpt>
      <trkpt lat="36.7915115356445" lon="-5.17554998397827">
        <ele>791</ele>
        <time>2019-05-11T23:57:41Z</time>
      </trkpt>
      <trkpt lat="36.7914962768555" lon="-5.1755428314209">
        <ele>791</ele>
        <time>2019-05-11T23:57:43Z</time>
      </trkpt>
      <trkpt lat="36.7914810180664" lon="-5.17553281784058">
        <ele>791</ele>
        <time>2019-05-11T23:57:45Z</time>
      </trkpt>
      <trkpt lat="36.7914695739746" lon="-5.17552185058594">
        <ele>791</ele>
        <time>2019-05-11T23:57:47Z</time>
      </trkpt>
      <trkpt lat="36.7914505004883" lon="-5.17550277709961">
        <ele>791</ele>
        <time>2019-05-11T23:57:49Z</time>
      </trkpt>
      <trkpt lat="36.7914390563965" lon="-5.17548990249634">
        <ele>791</ele>
        <time>2019-05-11T23:57:51Z</time>
      </trkpt>
      <trkpt lat="36.7914276123047" lon="-5.17547988891602">
        <ele>791</ele>
        <time>2019-05-11T23:57:54Z</time>
      </trkpt>
      <trkpt lat="36.7914161682129" lon="-5.17546987533569">
        <ele>791</ele>
        <time>2019-05-11T23:57:56Z</time>
      </trkpt>
      <trkpt lat="36.7914085388184" lon="-5.17545795440674">
        <ele>791</ele>
        <time>2019-05-11T23:57:58Z</time>
      </trkpt>
      <trkpt lat="36.7913932800293" lon="-5.17544984817505">
        <ele>790</ele>
        <time>2019-05-11T23:58:00Z</time>
      </trkpt>
      <trkpt lat="36.7913818359375" lon="-5.17543792724609">
        <ele>790</ele>
        <time>2019-05-11T23:58:02Z</time>
      </trkpt>
      <trkpt lat="36.7913665771484" lon="-5.17542695999146">
        <ele>790</ele>
        <time>2019-05-11T23:58:04Z</time>
      </trkpt>
      <trkpt lat="36.7913513183594" lon="-5.17541313171387">
        <ele>789</ele>
        <time>2019-05-11T23:58:06Z</time>
      </trkpt>
      <trkpt lat="36.7913436889648" lon="-5.1753978729248">
        <ele>789</ele>
        <time>2019-05-11T23:58:08Z</time>
      </trkpt>
      <trkpt lat="36.7913284301758" lon="-5.17538690567017">
        <ele>789</ele>
        <time>2019-05-11T23:58:10Z</time>
      </trkpt>
      <trkpt lat="36.791316986084" lon="-5.17537307739258">
        <ele>789</ele>
        <time>2019-05-11T23:58:12Z</time>
      </trkpt>
      <trkpt lat="36.7913017272949" lon="-5.17536497116089">
        <ele>789</ele>
        <time>2019-05-11T23:58:14Z</time>
      </trkpt>
      <trkpt lat="36.7912902832031" lon="-5.1753568649292">
        <ele>788</ele>
        <time>2019-05-11T23:58:16Z</time>
      </trkpt>
      <trkpt lat="36.7912788391113" lon="-5.17535018920898">
        <ele>788</ele>
        <time>2019-05-11T23:58:18Z</time>
      </trkpt>
      <trkpt lat="36.7912635803223" lon="-5.1753420829773">
        <ele>788</ele>
        <time>2019-05-11T23:58:20Z</time>
      </trkpt>
      <trkpt lat="36.7912521362305" lon="-5.17533302307129">
        <ele>788</ele>
        <time>2019-05-11T23:58:22Z</time>
      </trkpt>
      <trkpt lat="36.7912368774414" lon="-5.1753249168396">
        <ele>788</ele>
        <time>2019-05-11T23:58:24Z</time>
      </trkpt>
      <trkpt lat="36.7912254333496" lon="-5.17531681060791">
        <ele>786</ele>
        <time>2019-05-11T23:58:26Z</time>
      </trkpt>
      <trkpt lat="36.7912178039551" lon="-5.1753101348877">
        <ele>786</ele>
        <time>2019-05-11T23:58:28Z</time>
      </trkpt>
      <trkpt lat="36.7912101745606" lon="-5.17530012130737">
        <ele>786</ele>
        <time>2019-05-11T23:58:30Z</time>
      </trkpt>
      <trkpt lat="36.7911987304688" lon="-5.17529201507568">
        <ele>786</ele>
        <time>2019-05-11T23:58:32Z</time>
      </trkpt>
      <trkpt lat="36.791187286377" lon="-5.17528295516968">
        <ele>786</ele>
        <time>2019-05-11T23:58:34Z</time>
      </trkpt>
      <trkpt lat="36.7911834716797" lon="-5.17527484893799">
        <ele>786</ele>
        <time>2019-05-11T23:58:36Z</time>
      </trkpt>
      <trkpt lat="36.7911720275879" lon="-5.17526006698608">
        <ele>786</ele>
        <time>2019-05-11T23:58:38Z</time>
      </trkpt>
      <trkpt lat="36.7911605834961" lon="-5.17524814605713">
        <ele>786</ele>
        <time>2019-05-11T23:58:40Z</time>
      </trkpt>
      <trkpt lat="36.7911491394043" lon="-5.17523813247681">
        <ele>786</ele>
        <time>2019-05-11T23:58:42Z</time>
      </trkpt>
      <trkpt lat="36.7911376953125" lon="-5.17522478103638">
        <ele>786</ele>
        <time>2019-05-11T23:58:44Z</time>
      </trkpt>
      <trkpt lat="36.7911262512207" lon="-5.17520999908447">
        <ele>785</ele>
        <time>2019-05-11T23:58:46Z</time>
      </trkpt>
      <trkpt lat="36.7911109924316" lon="-5.1751971244812">
        <ele>785</ele>
        <time>2019-05-11T23:58:48Z</time>
      </trkpt>
      <trkpt lat="36.7910995483398" lon="-5.17518281936646">
        <ele>785</ele>
        <time>2019-05-11T23:58:50Z</time>
      </trkpt>
      <trkpt lat="36.7910842895508" lon="-5.17516994476318">
        <ele>785</ele>
        <time>2019-05-11T23:58:52Z</time>
      </trkpt>
      <trkpt lat="36.7910690307617" lon="-5.17515802383423">
        <ele>784</ele>
        <time>2019-05-11T23:58:54Z</time>
      </trkpt>
      <trkpt lat="36.7910537719727" lon="-5.17514705657959">
        <ele>784</ele>
        <time>2019-05-11T23:58:56Z</time>
      </trkpt>
      <trkpt lat="36.7910385131836" lon="-5.17513513565064">
        <ele>784</ele>
        <time>2019-05-11T23:58:58Z</time>
      </trkpt>
      <trkpt lat="36.7910232543945" lon="-5.17512798309326">
        <ele>783</ele>
        <time>2019-05-11T23:59:00Z</time>
      </trkpt>
      <trkpt lat="36.7910079956055" lon="-5.1751217842102">
        <ele>783</ele>
        <time>2019-05-11T23:59:02Z</time>
      </trkpt>
      <trkpt lat="36.7909927368164" lon="-5.17511177062988">
        <ele>783</ele>
        <time>2019-05-11T23:59:04Z</time>
      </trkpt>
      <trkpt lat="36.7909736633301" lon="-5.17510223388672">
        <ele>782</ele>
        <time>2019-05-11T23:59:06Z</time>
      </trkpt>
      <trkpt lat="36.790958404541" lon="-5.1750922203064">
        <ele>781</ele>
        <time>2019-05-11T23:59:08Z</time>
      </trkpt>
      <trkpt lat="36.790943145752" lon="-5.17508316040039">
        <ele>781</ele>
        <time>2019-05-11T23:59:10Z</time>
      </trkpt>
      <trkpt lat="36.7909278869629" lon="-5.17506980895996">
        <ele>781</ele>
        <time>2019-05-11T23:59:12Z</time>
      </trkpt>
      <trkpt lat="36.7909088134766" lon="-5.17506217956543">
        <ele>781</ele>
        <time>2019-05-11T23:59:14Z</time>
      </trkpt>
      <trkpt lat="36.7908935546875" lon="-5.17505216598511">
        <ele>781</ele>
        <time>2019-05-11T23:59:16Z</time>
      </trkpt>
      <trkpt lat="36.7908782958984" lon="-5.17503976821899">
        <ele>781</ele>
        <time>2019-05-11T23:59:18Z</time>
      </trkpt>
      <trkpt lat="36.7908592224121" lon="-5.17503213882446">
        <ele>781</ele>
        <time>2019-05-11T23:59:20Z</time>
      </trkpt>
      <trkpt lat="36.7908401489258" lon="-5.17502784729004">
        <ele>780</ele>
        <time>2019-05-11T23:59:22Z</time>
      </trkpt>
      <trkpt lat="36.790828704834" lon="-5.17502212524414">
        <ele>780</ele>
        <time>2019-05-11T23:59:24Z</time>
      </trkpt>
      <trkpt lat="36.7908020019531" lon="-5.17500782012939">
        <ele>779</ele>
        <time>2019-05-11T23:59:26Z</time>
      </trkpt>
      <trkpt lat="36.7907867431641" lon="-5.17500495910644">
        <ele>779</ele>
        <time>2019-05-11T23:59:28Z</time>
      </trkpt>
      <trkpt lat="36.790771484375" lon="-5.17499780654907">
        <ele>778</ele>
        <time>2019-05-11T23:59:31Z</time>
      </trkpt>
      <trkpt lat="36.7907524108887" lon="-5.17499303817749">
        <ele>777</ele>
        <time>2019-05-11T23:59:33Z</time>
      </trkpt>
      <trkpt lat="36.7907333374023" lon="-5.17498779296875">
        <ele>776</ele>
        <time>2019-05-11T23:59:35Z</time>
      </trkpt>
      <trkpt lat="36.7907218933106" lon="-5.17497777938843">
        <ele>776</ele>
        <time>2019-05-11T23:59:37Z</time>
      </trkpt>
      <trkpt lat="36.7907066345215" lon="-5.17496776580811">
        <ele>776</ele>
        <time>2019-05-11T23:59:39Z</time>
      </trkpt>
      <trkpt lat="36.7906875610352" lon="-5.17496013641357">
        <ele>775</ele>
        <time>2019-05-11T23:59:41Z</time>
      </trkpt>
      <trkpt lat="36.7906723022461" lon="-5.1749529838562">
        <ele>775</ele>
        <time>2019-05-11T23:59:43Z</time>
      </trkpt>
      <trkpt lat="36.7906532287598" lon="-5.17494297027588">
        <ele>775</ele>
        <time>2019-05-11T23:59:45Z</time>
      </trkpt>
      <trkpt lat="36.7906341552734" lon="-5.17494010925293">
        <ele>774</ele>
        <time>2019-05-11T23:59:47Z</time>
      </trkpt>
      <trkpt lat="36.7906112670898" lon="-5.17493677139282">
        <ele>774</ele>
        <time>2019-05-11T23:59:49Z</time>
      </trkpt>
      <trkpt lat="36.7905960083008" lon="-5.17493486404419">
        <ele>773</ele>
        <time>2019-05-11T23:59:51Z</time>
      </trkpt>
      <trkpt lat="36.7905769348144" lon="-5.17493009567261">
        <ele>773</ele>
        <time>2019-05-11T23:59:53Z</time>
      </trkpt>
      <trkpt lat="36.7905578613281" lon="-5.17492485046387">
        <ele>773</ele>
        <time>2019-05-11T23:59:55Z</time>
      </trkpt>
      <trkpt lat="36.7905387878418" lon="-5.17492294311523">
        <ele>772</ele>
        <time>2019-05-11T23:59:57Z</time>
      </trkpt>
      <trkpt lat="36.7905197143555" lon="-5.17491722106934">
        <ele>771</ele>
        <time>2019-05-11T23:59:59Z</time>
      </trkpt>
      <trkpt lat="36.7904968261719" lon="-5.17491483688354">
        <ele>771</ele>
        <time>2019-05-12T00:00:01Z</time>
      </trkpt>
      <trkpt lat="36.7904777526856" lon="-5.17491483688354">
        <ele>771</ele>
        <time>2019-05-12T00:00:03Z</time>
      </trkpt>
      <trkpt lat="36.7904586791992" lon="-5.17491722106934">
        <ele>771</ele>
        <time>2019-05-12T00:00:05Z</time>
      </trkpt>
      <trkpt lat="36.7904357910156" lon="-5.17491817474365">
        <ele>771</ele>
        <time>2019-05-12T00:00:07Z</time>
      </trkpt>
      <trkpt lat="36.7904167175293" lon="-5.17491483688354">
        <ele>770</ele>
        <time>2019-05-12T00:00:09Z</time>
      </trkpt>
      <trkpt lat="36.7903938293457" lon="-5.1749119758606">
        <ele>770</ele>
        <time>2019-05-12T00:00:11Z</time>
      </trkpt>
      <trkpt lat="36.7903785705566" lon="-5.17491006851196">
        <ele>769</ele>
        <time>2019-05-12T00:00:13Z</time>
      </trkpt>
      <trkpt lat="36.7903633117676" lon="-5.17490816116333">
        <ele>769</ele>
        <time>2019-05-12T00:00:15Z</time>
      </trkpt>
      <trkpt lat="36.7903594970703" lon="-5.17490816116333">
        <ele>769</ele>
        <time>2019-05-12T00:00:17Z</time>
      </trkpt>
      <trkpt lat="36.7903594970703" lon="-5.17491006851196">
        <ele>768</ele>
        <time>2019-05-12T00:00:19Z</time>
      </trkpt>
      <trkpt lat="36.7903518676758" lon="-5.17491006851196">
        <ele>768</ele>
        <time>2019-05-12T00:00:21Z</time>
      </trkpt>
      <trkpt lat="36.7903518676758" lon="-5.1749119758606">
        <ele>766</ele>
        <time>2019-05-12T00:00:23Z</time>
      </trkpt>
      <trkpt lat="36.7903480529785" lon="-5.1749119758606">
        <ele>766</ele>
        <time>2019-05-12T00:00:25Z</time>
      </trkpt>
      <trkpt lat="36.7903442382812" lon="-5.17491292953491">
        <ele>766</ele>
        <time>2019-05-12T00:00:27Z</time>
      </trkpt>
      <trkpt lat="36.7903442382812" lon="-5.17491292953491">
        <ele>766</ele>
        <time>2019-05-12T00:00:29Z</time>
      </trkpt>
      <trkpt lat="36.790340423584" lon="-5.17491292953491">
        <ele>766</ele>
        <time>2019-05-12T00:00:31Z</time>
      </trkpt>
      <trkpt lat="36.7903366088867" lon="-5.17491722106934">
        <ele>765</ele>
        <time>2019-05-12T00:00:33Z</time>
      </trkpt>
      <trkpt lat="36.7903366088867" lon="-5.17491817474365">
        <ele>765</ele>
        <time>2019-05-12T00:00:35Z</time>
      </trkpt>
      <trkpt lat="36.7903327941894" lon="-5.17491483688354">
        <ele>765</ele>
        <time>2019-05-12T00:00:37Z</time>
      </trkpt>
      <trkpt lat="36.7903213500977" lon="-5.17491292953491">
        <ele>765</ele>
        <time>2019-05-12T00:00:39Z</time>
      </trkpt>
      <trkpt lat="36.7903060913086" lon="-5.1749119758606">
        <ele>764</ele>
        <time>2019-05-12T00:00:41Z</time>
      </trkpt>
      <trkpt lat="36.7902908325195" lon="-5.17491006851196">
        <ele>764</ele>
        <time>2019-05-12T00:00:43Z</time>
      </trkpt>
      <trkpt lat="36.7902755737305" lon="-5.17490720748901">
        <ele>764</ele>
        <time>2019-05-12T00:00:45Z</time>
      </trkpt>
      <trkpt lat="36.7902641296387" lon="-5.17490482330322">
        <ele>764</ele>
        <time>2019-05-12T00:00:47Z</time>
      </trkpt>
      <trkpt lat="36.7902565002441" lon="-5.17490720748901">
        <ele>764</ele>
        <time>2019-05-12T00:00:49Z</time>
      </trkpt>
      <trkpt lat="36.7902565002441" lon="-5.17490816116333">
        <ele>764</ele>
        <time>2019-05-12T00:00:51Z</time>
      </trkpt>
      <trkpt lat="36.7902526855469" lon="-5.17491006851196">
        <ele>763</ele>
        <time>2019-05-12T00:00:55Z</time>
      </trkpt>
      <trkpt lat="36.7902488708496" lon="-5.17490482330322">
        <ele>763</ele>
        <time>2019-05-12T00:00:57Z</time>
      </trkpt>
      <trkpt lat="36.7902336120606" lon="-5.17490196228027">
        <ele>763</ele>
        <time>2019-05-12T00:00:59Z</time>
      </trkpt>
      <trkpt lat="36.7902145385742" lon="-5.17489814758301">
        <ele>763</ele>
        <time>2019-05-12T00:01:01Z</time>
      </trkpt>
      <trkpt lat="36.7901992797852" lon="-5.17489290237427">
        <ele>762</ele>
        <time>2019-05-12T00:01:03Z</time>
      </trkpt>
      <trkpt lat="36.7901840209961" lon="-5.17489194869995">
        <ele>761</ele>
        <time>2019-05-12T00:01:05Z</time>
      </trkpt>
      <trkpt lat="36.7901649475098" lon="-5.17488813400269">
        <ele>761</ele>
        <time>2019-05-12T00:01:07Z</time>
      </trkpt>
      <trkpt lat="36.7901496887207" lon="-5.17488288879394">
        <ele>761</ele>
        <time>2019-05-12T00:01:09Z</time>
      </trkpt>
      <trkpt lat="36.7901306152344" lon="-5.174880027771">
        <ele>761</ele>
        <time>2019-05-12T00:01:11Z</time>
      </trkpt>
      <trkpt lat="36.7901153564453" lon="-5.17487478256226">
        <ele>761</ele>
        <time>2019-05-12T00:01:13Z</time>
      </trkpt>
      <trkpt lat="36.790096282959" lon="-5.17487192153931">
        <ele>760</ele>
        <time>2019-05-12T00:01:15Z</time>
      </trkpt>
      <trkpt lat="36.7900810241699" lon="-5.17487001419067">
        <ele>760</ele>
        <time>2019-05-12T00:01:17Z</time>
      </trkpt>
      <trkpt lat="36.7900657653809" lon="-5.17486476898193">
        <ele>760</ele>
        <time>2019-05-12T00:01:19Z</time>
      </trkpt>
      <trkpt lat="36.7900466918945" lon="-5.17486190795898">
        <ele>760</ele>
        <time>2019-05-12T00:01:21Z</time>
      </trkpt>
      <trkpt lat="36.7900314331055" lon="-5.17485809326172">
        <ele>760</ele>
        <time>2019-05-12T00:01:23Z</time>
      </trkpt>
      <trkpt lat="36.7900161743164" lon="-5.17486190795898">
        <ele>760</ele>
        <time>2019-05-12T00:01:25Z</time>
      </trkpt>
      <trkpt lat="36.7900009155273" lon="-5.17486190795898">
        <ele>759</ele>
        <time>2019-05-12T00:01:27Z</time>
      </trkpt>
      <trkpt lat="36.789981842041" lon="-5.1748628616333">
        <ele>759</ele>
        <time>2019-05-12T00:01:29Z</time>
      </trkpt>
      <trkpt lat="36.789966583252" lon="-5.17486810684204">
        <ele>759</ele>
        <time>2019-05-12T00:01:31Z</time>
      </trkpt>
      <trkpt lat="36.7899513244629" lon="-5.17487001419067">
        <ele>758</ele>
        <time>2019-05-12T00:01:33Z</time>
      </trkpt>
      <trkpt lat="36.7899284362793" lon="-5.17487478256226">
        <ele>758</ele>
        <time>2019-05-12T00:01:35Z</time>
      </trkpt>
      <trkpt lat="36.7899169921875" lon="-5.17487812042236">
        <ele>757</ele>
        <time>2019-05-12T00:01:37Z</time>
      </trkpt>
      <trkpt lat="36.7899017333984" lon="-5.17488288879394">
        <ele>756</ele>
        <time>2019-05-12T00:01:40Z</time>
      </trkpt>
      <trkpt lat="36.7898864746094" lon="-5.17488718032837">
        <ele>756</ele>
        <time>2019-05-12T00:01:42Z</time>
      </trkpt>
      <trkpt lat="36.7898712158203" lon="-5.1748948097229">
        <ele>756</ele>
        <time>2019-05-12T00:01:44Z</time>
      </trkpt>
      <trkpt lat="36.7898597717285" lon="-5.17490196228027">
        <ele>756</ele>
        <time>2019-05-12T00:01:46Z</time>
      </trkpt>
      <trkpt lat="36.7898445129394" lon="-5.17490816116333">
        <ele>755</ele>
        <time>2019-05-12T00:01:48Z</time>
      </trkpt>
      <trkpt lat="36.7898254394531" lon="-5.17491292953491">
        <ele>755</ele>
        <time>2019-05-12T00:01:50Z</time>
      </trkpt>
      <trkpt lat="36.7898101806641" lon="-5.17491722106934">
        <ele>755</ele>
        <time>2019-05-12T00:01:52Z</time>
      </trkpt>
      <trkpt lat="36.789794921875" lon="-5.17492008209228">
        <ele>754</ele>
        <time>2019-05-12T00:01:54Z</time>
      </trkpt>
      <trkpt lat="36.7897796630859" lon="-5.17492294311523">
        <ele>754</ele>
        <time>2019-05-12T00:01:56Z</time>
      </trkpt>
      <trkpt lat="36.7897644042969" lon="-5.17492818832397">
        <ele>754</ele>
        <time>2019-05-12T00:01:58Z</time>
      </trkpt>
      <trkpt lat="36.7897491455078" lon="-5.17493295669556">
        <ele>753</ele>
        <time>2019-05-12T00:02:00Z</time>
      </trkpt>
      <trkpt lat="36.7897338867188" lon="-5.17493677139282">
        <ele>753</ele>
        <time>2019-05-12T00:02:02Z</time>
      </trkpt>
      <trkpt lat="36.7897186279297" lon="-5.17493677139282">
        <ele>753</ele>
        <time>2019-05-12T00:02:04Z</time>
      </trkpt>
      <trkpt lat="36.7897033691406" lon="-5.17494010925293">
        <ele>751</ele>
        <time>2019-05-12T00:02:06Z</time>
      </trkpt>
      <trkpt lat="36.7896881103516" lon="-5.17494678497314">
        <ele>751</ele>
        <time>2019-05-12T00:02:08Z</time>
      </trkpt>
      <trkpt lat="36.7896766662598" lon="-5.17495203018188">
        <ele>751</ele>
        <time>2019-05-12T00:02:10Z</time>
      </trkpt>
      <trkpt lat="36.7896575927734" lon="-5.17495489120483">
        <ele>751</ele>
        <time>2019-05-12T00:02:12Z</time>
      </trkpt>
      <trkpt lat="36.7896461486816" lon="-5.17496013641357">
        <ele>751</ele>
        <time>2019-05-12T00:02:14Z</time>
      </trkpt>
      <trkpt lat="36.7896308898926" lon="-5.17496204376221">
        <ele>750</ele>
        <time>2019-05-12T00:02:16Z</time>
      </trkpt>
      <trkpt lat="36.7896156311035" lon="-5.17496013641357">
        <ele>750</ele>
        <time>2019-05-12T00:02:18Z</time>
      </trkpt>
      <trkpt lat="36.7896041870117" lon="-5.17496204376221">
        <ele>750</ele>
        <time>2019-05-12T00:02:20Z</time>
      </trkpt>
      <trkpt lat="36.7895889282227" lon="-5.17496299743652">
        <ele>750</ele>
        <time>2019-05-12T00:02:22Z</time>
      </trkpt>
      <trkpt lat="36.7895736694336" lon="-5.17496681213379">
        <ele>749</ele>
        <time>2019-05-12T00:02:24Z</time>
      </trkpt>
      <trkpt lat="36.7895545959473" lon="-5.17497205734253">
        <ele>749</ele>
        <time>2019-05-12T00:02:26Z</time>
      </trkpt>
      <trkpt lat="36.7895393371582" lon="-5.17497777938843">
        <ele>749</ele>
        <time>2019-05-12T00:02:28Z</time>
      </trkpt>
      <trkpt lat="36.7895202636719" lon="-5.1749849319458">
        <ele>748</ele>
        <time>2019-05-12T00:02:30Z</time>
      </trkpt>
      <trkpt lat="36.7895011901856" lon="-5.1749849319458">
        <ele>748</ele>
        <time>2019-05-12T00:02:32Z</time>
      </trkpt>
      <trkpt lat="36.7894859313965" lon="-5.17498779296875">
        <ele>748</ele>
        <time>2019-05-12T00:02:34Z</time>
      </trkpt>
      <trkpt lat="36.7894668579102" lon="-5.17499494552612">
        <ele>748</ele>
        <time>2019-05-12T00:02:36Z</time>
      </trkpt>
      <trkpt lat="36.7894515991211" lon="-5.17500019073486">
        <ele>746</ele>
        <time>2019-05-12T00:02:38Z</time>
      </trkpt>
      <trkpt lat="36.7894325256348" lon="-5.17500686645508">
        <ele>746</ele>
        <time>2019-05-12T00:02:40Z</time>
      </trkpt>
      <trkpt lat="36.7894172668457" lon="-5.17501497268677">
        <ele>746</ele>
        <time>2019-05-12T00:02:42Z</time>
      </trkpt>
      <trkpt lat="36.7894058227539" lon="-5.17502784729004">
        <ele>746</ele>
        <time>2019-05-12T00:02:44Z</time>
      </trkpt>
      <trkpt lat="36.7893943786621" lon="-5.17504215240478">
        <ele>746</ele>
        <time>2019-05-12T00:02:46Z</time>
      </trkpt>
      <trkpt lat="36.7893867492676" lon="-5.17505788803101">
        <ele>746</ele>
        <time>2019-05-12T00:02:48Z</time>
      </trkpt>
      <trkpt lat="36.7893753051758" lon="-5.17507696151733">
        <ele>745</ele>
        <time>2019-05-12T00:02:50Z</time>
      </trkpt>
      <trkpt lat="36.789379119873" lon="-5.17509317398071">
        <ele>745</ele>
        <time>2019-05-12T00:02:52Z</time>
      </trkpt>
      <trkpt lat="36.7893867492676" lon="-5.17510318756104">
        <ele>745</ele>
        <time>2019-05-12T00:02:54Z</time>
      </trkpt>
      <trkpt lat="36.7893867492676" lon="-5.1751070022583">
        <ele>744</ele>
        <time>2019-05-12T00:02:56Z</time>
      </trkpt>
      <trkpt lat="36.7893867492676" lon="-5.17510986328125">
        <ele>744</ele>
        <time>2019-05-12T00:02:58Z</time>
      </trkpt>
      <trkpt lat="36.7893867492676" lon="-5.17511320114136">
        <ele>744</ele>
        <time>2019-05-12T00:03:00Z</time>
      </trkpt>
      <trkpt lat="36.7893867492676" lon="-5.17512989044189">
        <ele>743</ele>
        <time>2019-05-12T00:03:02Z</time>
      </trkpt>
      <trkpt lat="36.7893867492676" lon="-5.17514705657959">
        <ele>743</ele>
        <time>2019-05-12T00:03:04Z</time>
      </trkpt>
      <trkpt lat="36.7893867492676" lon="-5.1751651763916">
        <ele>743</ele>
        <time>2019-05-12T00:03:06Z</time>
      </trkpt>
      <trkpt lat="36.7893829345703" lon="-5.17518281936646">
        <ele>742</ele>
        <time>2019-05-12T00:03:08Z</time>
      </trkpt>
      <trkpt lat="36.789379119873" lon="-5.17520189285278">
        <ele>741</ele>
        <time>2019-05-12T00:03:10Z</time>
      </trkpt>
      <trkpt lat="36.7893753051758" lon="-5.1752200126648">
        <ele>741</ele>
        <time>2019-05-12T00:03:12Z</time>
      </trkpt>
      <trkpt lat="36.7893714904785" lon="-5.17524480819702">
        <ele>741</ele>
        <time>2019-05-12T00:03:14Z</time>
      </trkpt>
      <trkpt lat="36.789363861084" lon="-5.17526197433472">
        <ele>741</ele>
        <time>2019-05-12T00:03:16Z</time>
      </trkpt>
      <trkpt lat="36.7893562316894" lon="-5.17528009414673">
        <ele>741</ele>
        <time>2019-05-12T00:03:19Z</time>
      </trkpt>
      <trkpt lat="36.7893524169922" lon="-5.17529821395874">
        <ele>740</ele>
        <time>2019-05-12T00:03:21Z</time>
      </trkpt>
      <trkpt lat="36.7893486022949" lon="-5.17531681060791">
        <ele>740</ele>
        <time>2019-05-12T00:03:23Z</time>
      </trkpt>
      <trkpt lat="36.7893409729004" lon="-5.17533493041992">
        <ele>740</ele>
        <time>2019-05-12T00:03:25Z</time>
      </trkpt>
      <trkpt lat="36.7893333435059" lon="-5.17535018920898">
        <ele>740</ele>
        <time>2019-05-12T00:03:27Z</time>
      </trkpt>
      <trkpt lat="36.7893218994141" lon="-5.17536211013794">
        <ele>740</ele>
        <time>2019-05-12T00:03:29Z</time>
      </trkpt>
      <trkpt lat="36.7893104553223" lon="-5.17537307739258">
        <ele>740</ele>
        <time>2019-05-12T00:03:31Z</time>
      </trkpt>
      <trkpt lat="36.7892990112305" lon="-5.1753830909729">
        <ele>740</ele>
        <time>2019-05-12T00:03:33Z</time>
      </trkpt>
      <trkpt lat="36.7892875671387" lon="-5.17538690567017">
        <ele>740</ele>
        <time>2019-05-12T00:03:35Z</time>
      </trkpt>
      <trkpt lat="36.7892761230469" lon="-5.17538785934448">
        <ele>740</ele>
        <time>2019-05-12T00:03:37Z</time>
      </trkpt>
      <trkpt lat="36.7892646789551" lon="-5.17538499832153">
        <ele>740</ele>
        <time>2019-05-12T00:03:39Z</time>
      </trkpt>
      <trkpt lat="36.7892532348633" lon="-5.17537689208984">
        <ele>740</ele>
        <time>2019-05-12T00:03:41Z</time>
      </trkpt>
      <trkpt lat="36.7892417907715" lon="-5.17536211013794">
        <ele>740</ele>
        <time>2019-05-12T00:03:43Z</time>
      </trkpt>
      <trkpt lat="36.7892303466797" lon="-5.17534685134888">
        <ele>740</ele>
        <time>2019-05-12T00:03:45Z</time>
      </trkpt>
      <trkpt lat="36.7892265319824" lon="-5.17532682418823">
        <ele>740</ele>
        <time>2019-05-12T00:03:47Z</time>
      </trkpt>
      <trkpt lat="36.7892227172852" lon="-5.17530679702759">
        <ele>740</ele>
        <time>2019-05-12T00:03:49Z</time>
      </trkpt>
      <trkpt lat="36.7892189025879" lon="-5.17528676986694">
        <ele>740</ele>
        <time>2019-05-12T00:03:51Z</time>
      </trkpt>
      <trkpt lat="36.7892112731934" lon="-5.17527294158936">
        <ele>740</ele>
        <time>2019-05-12T00:03:53Z</time>
      </trkpt>
      <trkpt lat="36.7892036437988" lon="-5.17525815963745">
        <ele>740</ele>
        <time>2019-05-12T00:03:55Z</time>
      </trkpt>
      <trkpt lat="36.7891998291016" lon="-5.17523813247681">
        <ele>740</ele>
        <time>2019-05-12T00:03:57Z</time>
      </trkpt>
      <trkpt lat="36.789192199707" lon="-5.17522287368774">
        <ele>740</ele>
        <time>2019-05-12T00:03:59Z</time>
      </trkpt>
      <trkpt lat="36.7891845703125" lon="-5.17520523071289">
        <ele>740</ele>
        <time>2019-05-12T00:04:01Z</time>
      </trkpt>
      <trkpt lat="36.789176940918" lon="-5.17518711090088">
        <ele>740</ele>
        <time>2019-05-12T00:04:03Z</time>
      </trkpt>
      <trkpt lat="36.7891731262207" lon="-5.17516708374023">
        <ele>740</ele>
        <time>2019-05-12T00:04:05Z</time>
      </trkpt>
      <trkpt lat="36.7891616821289" lon="-5.17514705657959">
        <ele>740</ele>
        <time>2019-05-12T00:04:07Z</time>
      </trkpt>
      <trkpt lat="36.7891502380371" lon="-5.17512798309326">
        <ele>740</ele>
        <time>2019-05-12T00:04:09Z</time>
      </trkpt>
      <trkpt lat="36.7891387939453" lon="-5.17511510848999">
        <ele>740</ele>
        <time>2019-05-12T00:04:11Z</time>
      </trkpt>
      <trkpt lat="36.7891235351562" lon="-5.17509698867798">
        <ele>740</ele>
        <time>2019-05-12T00:04:13Z</time>
      </trkpt>
      <trkpt lat="36.7891120910644" lon="-5.1750750541687">
        <ele>740</ele>
        <time>2019-05-12T00:04:15Z</time>
      </trkpt>
      <trkpt lat="36.7891006469727" lon="-5.17505311965942">
        <ele>740</ele>
        <time>2019-05-12T00:04:17Z</time>
      </trkpt>
      <trkpt lat="36.7890815734863" lon="-5.17503690719604">
        <ele>740</ele>
        <time>2019-05-12T00:04:19Z</time>
      </trkpt>
      <trkpt lat="36.7890663146973" lon="-5.17502021789551">
        <ele>740</ele>
        <time>2019-05-12T00:04:21Z</time>
      </trkpt>
      <trkpt lat="36.7890472412109" lon="-5.1750020980835">
        <ele>740</ele>
        <time>2019-05-12T00:04:23Z</time>
      </trkpt>
      <trkpt lat="36.7890281677246" lon="-5.17498207092285">
        <ele>740</ele>
        <time>2019-05-12T00:04:25Z</time>
      </trkpt>
      <trkpt lat="36.7890129089356" lon="-5.17495822906494">
        <ele>740</ele>
        <time>2019-05-12T00:04:27Z</time>
      </trkpt>
      <trkpt lat="36.7889976501465" lon="-5.17493677139282">
        <ele>739</ele>
        <time>2019-05-12T00:04:29Z</time>
      </trkpt>
      <trkpt lat="36.7889823913574" lon="-5.17491292953491">
        <ele>738</ele>
        <time>2019-05-12T00:04:31Z</time>
      </trkpt>
      <trkpt lat="36.7889709472656" lon="-5.17489194869995">
        <ele>737</ele>
        <time>2019-05-12T00:04:33Z</time>
      </trkpt>
      <trkpt lat="36.7889595031738" lon="-5.17486810684204">
        <ele>736</ele>
        <time>2019-05-12T00:04:35Z</time>
      </trkpt>
      <trkpt lat="36.7889442443848" lon="-5.17484712600708">
        <ele>736</ele>
        <time>2019-05-12T00:04:37Z</time>
      </trkpt>
      <trkpt lat="36.788932800293" lon="-5.1748218536377">
        <ele>735</ele>
        <time>2019-05-12T00:04:39Z</time>
      </trkpt>
      <trkpt lat="36.7889289855957" lon="-5.17479515075684">
        <ele>735</ele>
        <time>2019-05-12T00:04:41Z</time>
      </trkpt>
      <trkpt lat="36.788932800293" lon="-5.17476987838745">
        <ele>734</ele>
        <time>2019-05-12T00:04:43Z</time>
      </trkpt>
      <trkpt lat="36.788932800293" lon="-5.17474508285522">
        <ele>734</ele>
        <time>2019-05-12T00:04:45Z</time>
      </trkpt>
      <trkpt lat="36.7889366149902" lon="-5.17471981048584">
        <ele>733</ele>
        <time>2019-05-12T00:04:47Z</time>
      </trkpt>
      <trkpt lat="36.7889366149902" lon="-5.17468500137329">
        <ele>733</ele>
        <time>2019-05-12T00:04:49Z</time>
      </trkpt>
      <trkpt lat="36.788932800293" lon="-5.17465782165527">
        <ele>731</ele>
        <time>2019-05-12T00:04:51Z</time>
      </trkpt>
      <trkpt lat="36.7889366149902" lon="-5.17463302612305">
        <ele>731</ele>
        <time>2019-05-12T00:04:54Z</time>
      </trkpt>
      <trkpt lat="36.7889404296875" lon="-5.17461204528809">
        <ele>730</ele>
        <time>2019-05-12T00:04:56Z</time>
      </trkpt>
      <trkpt lat="36.7889518737793" lon="-5.17459011077881">
        <ele>730</ele>
        <time>2019-05-12T00:04:58Z</time>
      </trkpt>
      <trkpt lat="36.7889671325684" lon="-5.1745719909668">
        <ele>729</ele>
        <time>2019-05-12T00:05:00Z</time>
      </trkpt>
      <trkpt lat="36.7889785766602" lon="-5.17455005645752">
        <ele>729</ele>
        <time>2019-05-12T00:05:02Z</time>
      </trkpt>
      <trkpt lat="36.788990020752" lon="-5.17452478408814">
        <ele>729</ele>
        <time>2019-05-12T00:05:04Z</time>
      </trkpt>
      <trkpt lat="36.7889938354492" lon="-5.17449998855591">
        <ele>729</ele>
        <time>2019-05-12T00:05:06Z</time>
      </trkpt>
      <trkpt lat="36.7889938354492" lon="-5.17447280883789">
        <ele>729</ele>
        <time>2019-05-12T00:05:08Z</time>
      </trkpt>
      <trkpt lat="36.7889862060547" lon="-5.17444515228272">
        <ele>729</ele>
        <time>2019-05-12T00:05:10Z</time>
      </trkpt>
      <trkpt lat="36.7889862060547" lon="-5.1744179725647">
        <ele>728</ele>
        <time>2019-05-12T00:05:12Z</time>
      </trkpt>
      <trkpt lat="36.7889862060547" lon="-5.17439317703247">
        <ele>728</ele>
        <time>2019-05-12T00:05:14Z</time>
      </trkpt>
      <trkpt lat="36.7889785766602" lon="-5.17436790466309">
        <ele>728</ele>
        <time>2019-05-12T00:05:16Z</time>
      </trkpt>
      <trkpt lat="36.7889747619629" lon="-5.17433977127075">
        <ele>728</ele>
        <time>2019-05-12T00:05:18Z</time>
      </trkpt>
      <trkpt lat="36.7889709472656" lon="-5.17431306838989">
        <ele>728</ele>
        <time>2019-05-12T00:05:20Z</time>
      </trkpt>
      <trkpt lat="36.7889633178711" lon="-5.17428493499756">
        <ele>728</ele>
        <time>2019-05-12T00:05:22Z</time>
      </trkpt>
      <trkpt lat="36.7889595031738" lon="-5.1742582321167">
        <ele>728</ele>
        <time>2019-05-12T00:05:24Z</time>
      </trkpt>
      <trkpt lat="36.7889518737793" lon="-5.17423009872436">
        <ele>728</ele>
        <time>2019-05-12T00:05:26Z</time>
      </trkpt>
      <trkpt lat="36.788948059082" lon="-5.17420291900635">
        <ele>728</ele>
        <time>2019-05-12T00:05:28Z</time>
      </trkpt>
      <trkpt lat="36.7889442443848" lon="-5.17417478561401">
        <ele>728</ele>
        <time>2019-05-12T00:05:30Z</time>
      </trkpt>
      <trkpt lat="36.7889404296875" lon="-5.17414712905884">
        <ele>728</ele>
        <time>2019-05-12T00:05:32Z</time>
      </trkpt>
      <trkpt lat="36.7889366149902" lon="-5.17411804199219">
        <ele>727</ele>
        <time>2019-05-12T00:05:34Z</time>
      </trkpt>
      <trkpt lat="36.7889366149902" lon="-5.17408800125122">
        <ele>726</ele>
        <time>2019-05-12T00:05:36Z</time>
      </trkpt>
      <trkpt lat="36.7889366149902" lon="-5.17406177520752">
        <ele>726</ele>
        <time>2019-05-12T00:05:38Z</time>
      </trkpt>
      <trkpt lat="36.788932800293" lon="-5.17403984069824">
        <ele>726</ele>
        <time>2019-05-12T00:05:40Z</time>
      </trkpt>
      <trkpt lat="36.788932800293" lon="-5.17403316497803">
        <ele>726</ele>
        <time>2019-05-12T00:05:42Z</time>
      </trkpt>
      <trkpt lat="36.788932800293" lon="-5.17402982711792">
        <ele>725</ele>
        <time>2019-05-12T00:05:44Z</time>
      </trkpt>
      <trkpt lat="36.788932800293" lon="-5.17402696609497">
        <ele>725</ele>
        <time>2019-05-12T00:05:46Z</time>
      </trkpt>
      <trkpt lat="36.788932800293" lon="-5.1740231513977">
        <ele>724</ele>
        <time>2019-05-12T00:05:48Z</time>
      </trkpt>
      <trkpt lat="36.7889366149902" lon="-5.17401695251465">
        <ele>723</ele>
        <time>2019-05-12T00:05:50Z</time>
      </trkpt>
      <trkpt lat="36.7889366149902" lon="-5.17399501800537">
        <ele>723</ele>
        <time>2019-05-12T00:05:52Z</time>
      </trkpt>
      <trkpt lat="36.7889366149902" lon="-5.17396783828735">
        <ele>721</ele>
        <time>2019-05-12T00:05:54Z</time>
      </trkpt>
      <trkpt lat="36.7889366149902" lon="-5.17394304275513">
        <ele>721</ele>
        <time>2019-05-12T00:05:56Z</time>
      </trkpt>
      <trkpt lat="36.7889366149902" lon="-5.17391777038574">
        <ele>721</ele>
        <time>2019-05-12T00:05:58Z</time>
      </trkpt>
      <trkpt lat="36.7889366149902" lon="-5.1738920211792">
        <ele>720</ele>
        <time>2019-05-12T00:06:00Z</time>
      </trkpt>
      <trkpt lat="36.7889366149902" lon="-5.17386722564697">
        <ele>720</ele>
        <time>2019-05-12T00:06:02Z</time>
      </trkpt>
      <trkpt lat="36.7889404296875" lon="-5.17384004592896">
        <ele>719</ele>
        <time>2019-05-12T00:06:04Z</time>
      </trkpt>
      <trkpt lat="36.7889404296875" lon="-5.17381477355957">
        <ele>719</ele>
        <time>2019-05-12T00:06:06Z</time>
      </trkpt>
      <trkpt lat="36.7889442443848" lon="-5.17378807067871">
        <ele>719</ele>
        <time>2019-05-12T00:06:08Z</time>
      </trkpt>
      <trkpt lat="36.788948059082" lon="-5.17375993728638">
        <ele>719</ele>
        <time>2019-05-12T00:06:10Z</time>
      </trkpt>
      <trkpt lat="36.7889556884766" lon="-5.17373323440552">
        <ele>719</ele>
        <time>2019-05-12T00:06:12Z</time>
      </trkpt>
      <trkpt lat="36.7889595031738" lon="-5.17370986938477">
        <ele>719</ele>
        <time>2019-05-12T00:06:14Z</time>
      </trkpt>
      <trkpt lat="36.7889671325684" lon="-5.17368316650391">
        <ele>719</ele>
        <time>2019-05-12T00:06:16Z</time>
      </trkpt>
      <trkpt lat="36.7889785766602" lon="-5.17366218566894">
        <ele>718</ele>
        <time>2019-05-12T00:06:18Z</time>
      </trkpt>
      <trkpt lat="36.788990020752" lon="-5.17363977432251">
        <ele>718</ele>
        <time>2019-05-12T00:06:20Z</time>
      </trkpt>
      <trkpt lat="36.7889976501465" lon="-5.17361783981323">
        <ele>717</ele>
        <time>2019-05-12T00:06:22Z</time>
      </trkpt>
      <trkpt lat="36.7890090942383" lon="-5.17359685897827">
        <ele>716</ele>
        <time>2019-05-12T00:06:24Z</time>
      </trkpt>
      <trkpt lat="36.7890205383301" lon="-5.17357492446899">
        <ele>716</ele>
        <time>2019-05-12T00:06:26Z</time>
      </trkpt>
      <trkpt lat="36.7890281677246" lon="-5.17355489730835">
        <ele>716</ele>
        <time>2019-05-12T00:06:28Z</time>
      </trkpt>
      <trkpt lat="36.7890396118164" lon="-5.17353296279907">
        <ele>716</ele>
        <time>2019-05-12T00:06:30Z</time>
      </trkpt>
      <trkpt lat="36.7890472412109" lon="-5.17351484298706">
        <ele>716</ele>
        <time>2019-05-12T00:06:32Z</time>
      </trkpt>
      <trkpt lat="36.7890586853027" lon="-5.17349195480347">
        <ele>716</ele>
        <time>2019-05-12T00:06:34Z</time>
      </trkpt>
      <trkpt lat="36.7890548706055" lon="-5.17347192764282">
        <ele>716</ele>
        <time>2019-05-12T00:06:36Z</time>
      </trkpt>
      <trkpt lat="36.7890472412109" lon="-5.17344999313354">
        <ele>716</ele>
        <time>2019-05-12T00:06:38Z</time>
      </trkpt>
      <trkpt lat="36.7890357971191" lon="-5.17341709136963">
        <ele>716</ele>
        <time>2019-05-12T00:06:40Z</time>
      </trkpt>
      <trkpt lat="36.7890243530273" lon="-5.1733980178833">
        <ele>716</ele>
        <time>2019-05-12T00:06:43Z</time>
      </trkpt>
      <trkpt lat="36.7890129089356" lon="-5.17338705062866">
        <ele>715</ele>
        <time>2019-05-12T00:06:45Z</time>
      </trkpt>
      <trkpt lat="36.7890014648438" lon="-5.17337322235107">
        <ele>715</ele>
        <time>2019-05-12T00:06:47Z</time>
      </trkpt>
      <trkpt lat="36.788990020752" lon="-5.1733570098877">
        <ele>714</ele>
        <time>2019-05-12T00:06:49Z</time>
      </trkpt>
      <trkpt lat="36.7889785766602" lon="-5.17333698272705">
        <ele>714</ele>
        <time>2019-05-12T00:06:51Z</time>
      </trkpt>
      <trkpt lat="36.7889709472656" lon="-5.17331790924072">
        <ele>713</ele>
        <time>2019-05-12T00:06:53Z</time>
      </trkpt>
      <trkpt lat="36.7889595031738" lon="-5.1733021736145">
        <ele>713</ele>
        <time>2019-05-12T00:06:55Z</time>
      </trkpt>
      <trkpt lat="36.7889442443848" lon="-5.17328214645386">
        <ele>711</ele>
        <time>2019-05-12T00:06:57Z</time>
      </trkpt>
      <trkpt lat="36.7889366149902" lon="-5.17326021194458">
        <ele>711</ele>
        <time>2019-05-12T00:06:59Z</time>
      </trkpt>
      <trkpt lat="36.7889213562012" lon="-5.17323780059814">
        <ele>711</ele>
        <time>2019-05-12T00:07:01Z</time>
      </trkpt>
      <trkpt lat="36.7889137268066" lon="-5.17321681976318">
        <ele>710</ele>
        <time>2019-05-12T00:07:03Z</time>
      </trkpt>
      <trkpt lat="36.7888984680176" lon="-5.17319488525391">
        <ele>710</ele>
        <time>2019-05-12T00:07:05Z</time>
      </trkpt>
      <trkpt lat="36.7888870239258" lon="-5.17317819595337">
        <ele>709</ele>
        <time>2019-05-12T00:07:07Z</time>
      </trkpt>
      <trkpt lat="36.7888717651367" lon="-5.17315816879272">
        <ele>709</ele>
        <time>2019-05-12T00:07:09Z</time>
      </trkpt>
      <trkpt lat="36.7888565063477" lon="-5.17314004898071">
        <ele>708</ele>
        <time>2019-05-12T00:07:11Z</time>
      </trkpt>
      <trkpt lat="36.7888450622559" lon="-5.17312002182007">
        <ele>707</ele>
        <time>2019-05-12T00:07:13Z</time>
      </trkpt>
      <trkpt lat="36.7888336181641" lon="-5.17309999465942">
        <ele>706</ele>
        <time>2019-05-12T00:07:15Z</time>
      </trkpt>
      <trkpt lat="36.788818359375" lon="-5.17308282852173">
        <ele>706</ele>
        <time>2019-05-12T00:07:17Z</time>
      </trkpt>
      <trkpt lat="36.7888069152832" lon="-5.17306804656982">
        <ele>706</ele>
        <time>2019-05-12T00:07:19Z</time>
      </trkpt>
      <trkpt lat="36.7887916564941" lon="-5.17305517196655">
        <ele>706</ele>
        <time>2019-05-12T00:07:21Z</time>
      </trkpt>
      <trkpt lat="36.7887725830078" lon="-5.17304277420044">
        <ele>706</ele>
        <time>2019-05-12T00:07:23Z</time>
      </trkpt>
      <trkpt lat="36.7887573242188" lon="-5.17302703857422">
        <ele>705</ele>
        <time>2019-05-12T00:07:25Z</time>
      </trkpt>
      <trkpt lat="36.7887420654297" lon="-5.17301321029663">
        <ele>705</ele>
        <time>2019-05-12T00:07:27Z</time>
      </trkpt>
      <trkpt lat="36.7887268066406" lon="-5.17300510406494">
        <ele>704</ele>
        <time>2019-05-12T00:07:29Z</time>
      </trkpt>
      <trkpt lat="36.7887077331543" lon="-5.17299509048462">
        <ele>704</ele>
        <time>2019-05-12T00:07:31Z</time>
      </trkpt>
      <trkpt lat="36.788688659668" lon="-5.1729850769043">
        <ele>703</ele>
        <time>2019-05-12T00:07:33Z</time>
      </trkpt>
      <trkpt lat="36.7886734008789" lon="-5.17297697067261">
        <ele>703</ele>
        <time>2019-05-12T00:07:35Z</time>
      </trkpt>
      <trkpt lat="36.7886543273926" lon="-5.1729679107666">
        <ele>703</ele>
        <time>2019-05-12T00:07:37Z</time>
      </trkpt>
      <trkpt lat="36.7886352539062" lon="-5.17295980453491">
        <ele>703</ele>
        <time>2019-05-12T00:07:39Z</time>
      </trkpt>
      <trkpt lat="36.7886161804199" lon="-5.17294979095459">
        <ele>701</ele>
        <time>2019-05-12T00:07:41Z</time>
      </trkpt>
      <trkpt lat="36.7885932922363" lon="-5.17294216156006">
        <ele>701</ele>
        <time>2019-05-12T00:07:43Z</time>
      </trkpt>
      <trkpt lat="36.7885780334473" lon="-5.17293214797974">
        <ele>701</ele>
        <time>2019-05-12T00:07:45Z</time>
      </trkpt>
      <trkpt lat="36.7885551452637" lon="-5.17292308807373">
        <ele>701</ele>
        <time>2019-05-12T00:07:47Z</time>
      </trkpt>
      <trkpt lat="36.7885398864746" lon="-5.17291784286499">
        <ele>701</ele>
        <time>2019-05-12T00:07:49Z</time>
      </trkpt>
      <trkpt lat="36.7885208129883" lon="-5.17290782928467">
        <ele>700</ele>
        <time>2019-05-12T00:07:51Z</time>
      </trkpt>
      <trkpt lat="36.788501739502" lon="-5.17289781570435">
        <ele>700</ele>
        <time>2019-05-12T00:07:53Z</time>
      </trkpt>
      <trkpt lat="36.7884826660156" lon="-5.17288780212402">
        <ele>700</ele>
        <time>2019-05-12T00:07:55Z</time>
      </trkpt>
      <trkpt lat="36.7884674072266" lon="-5.17288017272949">
        <ele>700</ele>
        <time>2019-05-12T00:07:57Z</time>
      </trkpt>
      <trkpt lat="36.7884483337402" lon="-5.17287015914917">
        <ele>699</ele>
        <time>2019-05-12T00:07:59Z</time>
      </trkpt>
      <trkpt lat="36.7884292602539" lon="-5.17286014556885">
        <ele>699</ele>
        <time>2019-05-12T00:08:01Z</time>
      </trkpt>
      <trkpt lat="36.7884101867676" lon="-5.17285013198853">
        <ele>699</ele>
        <time>2019-05-12T00:08:03Z</time>
      </trkpt>
      <trkpt lat="36.7883911132812" lon="-5.17284488677978">
        <ele>698</ele>
        <time>2019-05-12T00:08:05Z</time>
      </trkpt>
      <trkpt lat="36.7883720397949" lon="-5.1728367805481">
        <ele>698</ele>
        <time>2019-05-12T00:08:07Z</time>
      </trkpt>
      <trkpt lat="36.7883529663086" lon="-5.17282819747925">
        <ele>698</ele>
        <time>2019-05-12T00:08:09Z</time>
      </trkpt>
      <trkpt lat="36.7883338928223" lon="-5.17282009124756">
        <ele>696</ele>
        <time>2019-05-12T00:08:11Z</time>
      </trkpt>
      <trkpt lat="36.7883148193359" lon="-5.17281484603882">
        <ele>696</ele>
        <time>2019-05-12T00:08:13Z</time>
      </trkpt>
      <trkpt lat="36.7882919311523" lon="-5.17280721664429">
        <ele>696</ele>
        <time>2019-05-12T00:08:15Z</time>
      </trkpt>
      <trkpt lat="36.7882652282715" lon="-5.17279481887817">
        <ele>696</ele>
        <time>2019-05-12T00:08:17Z</time>
      </trkpt>
      <trkpt lat="36.7882461547852" lon="-5.17279005050659">
        <ele>695</ele>
        <time>2019-05-12T00:08:19Z</time>
      </trkpt>
      <trkpt lat="36.7882270812988" lon="-5.1727819442749">
        <ele>694</ele>
        <time>2019-05-12T00:08:22Z</time>
      </trkpt>
      <trkpt lat="36.7882118225098" lon="-5.1727728843689">
        <ele>694</ele>
        <time>2019-05-12T00:08:24Z</time>
      </trkpt>
      <trkpt lat="36.7881889343262" lon="-5.17276477813721">
        <ele>693</ele>
        <time>2019-05-12T00:08:26Z</time>
      </trkpt>
      <trkpt lat="36.7881736755371" lon="-5.17276191711426">
        <ele>693</ele>
        <time>2019-05-12T00:08:28Z</time>
      </trkpt>
      <trkpt lat="36.7881546020508" lon="-5.17275476455688">
        <ele>691</ele>
        <time>2019-05-12T00:08:30Z</time>
      </trkpt>
      <trkpt lat="36.7881355285644" lon="-5.17274713516235">
        <ele>691</ele>
        <time>2019-05-12T00:08:32Z</time>
      </trkpt>
      <trkpt lat="36.7881164550781" lon="-5.17274188995361">
        <ele>691</ele>
        <time>2019-05-12T00:08:34Z</time>
      </trkpt>
      <trkpt lat="36.7880935668945" lon="-5.17273712158203">
        <ele>691</ele>
        <time>2019-05-12T00:08:36Z</time>
      </trkpt>
      <trkpt lat="36.7880783081055" lon="-5.17272996902466">
        <ele>690</ele>
        <time>2019-05-12T00:08:38Z</time>
      </trkpt>
      <trkpt lat="36.7880592346191" lon="-5.17272281646728">
        <ele>689</ele>
        <time>2019-05-12T00:08:40Z</time>
      </trkpt>
      <trkpt lat="36.7880401611328" lon="-5.17271709442139">
        <ele>689</ele>
        <time>2019-05-12T00:08:42Z</time>
      </trkpt>
      <trkpt lat="36.7880249023438" lon="-5.17270994186401">
        <ele>688</ele>
        <time>2019-05-12T00:08:44Z</time>
      </trkpt>
      <trkpt lat="36.7880058288574" lon="-5.17270708084106">
        <ele>688</ele>
        <time>2019-05-12T00:08:46Z</time>
      </trkpt>
      <trkpt lat="36.7879867553711" lon="-5.17270278930664">
        <ele>686</ele>
        <time>2019-05-12T00:08:48Z</time>
      </trkpt>
      <trkpt lat="36.787971496582" lon="-5.17269992828369">
        <ele>686</ele>
        <time>2019-05-12T00:08:50Z</time>
      </trkpt>
      <trkpt lat="36.7879486083984" lon="-5.17269706726074">
        <ele>686</ele>
        <time>2019-05-12T00:08:52Z</time>
      </trkpt>
      <trkpt lat="36.7879333496094" lon="-5.17269277572632">
        <ele>686</ele>
        <time>2019-05-12T00:08:54Z</time>
      </trkpt>
      <trkpt lat="36.787914276123" lon="-5.17268991470337">
        <ele>685</ele>
        <time>2019-05-12T00:08:56Z</time>
      </trkpt>
      <trkpt lat="36.7878913879394" lon="-5.17268991470337">
        <ele>685</ele>
        <time>2019-05-12T00:08:58Z</time>
      </trkpt>
      <trkpt lat="36.7878723144531" lon="-5.17268991470337">
        <ele>684</ele>
        <time>2019-05-12T00:09:00Z</time>
      </trkpt>
      <trkpt lat="36.7878532409668" lon="-5.17268705368042">
        <ele>684</ele>
        <time>2019-05-12T00:09:02Z</time>
      </trkpt>
      <trkpt lat="36.7878341674805" lon="-5.17268514633179">
        <ele>683</ele>
        <time>2019-05-12T00:09:04Z</time>
      </trkpt>
      <trkpt lat="36.7878150939941" lon="-5.172682762146">
        <ele>683</ele>
        <time>2019-05-12T00:09:06Z</time>
      </trkpt>
      <trkpt lat="36.7877960205078" lon="-5.172682762146">
        <ele>681</ele>
        <time>2019-05-12T00:09:08Z</time>
      </trkpt>
      <trkpt lat="36.7877731323242" lon="-5.17268180847168">
        <ele>681</ele>
        <time>2019-05-12T00:09:10Z</time>
      </trkpt>
      <trkpt lat="36.7877540588379" lon="-5.17267990112305">
        <ele>681</ele>
        <time>2019-05-12T00:09:12Z</time>
      </trkpt>
      <trkpt lat="36.7877311706543" lon="-5.1726770401001">
        <ele>681</ele>
        <time>2019-05-12T00:09:14Z</time>
      </trkpt>
      <trkpt lat="36.7877159118652" lon="-5.17267513275146">
        <ele>680</ele>
        <time>2019-05-12T00:09:16Z</time>
      </trkpt>
      <trkpt lat="36.7876968383789" lon="-5.17267513275146">
        <ele>679</ele>
        <time>2019-05-12T00:09:18Z</time>
      </trkpt>
      <trkpt lat="36.7876739501953" lon="-5.17267513275146">
        <ele>679</ele>
        <time>2019-05-12T00:09:20Z</time>
      </trkpt>
      <trkpt lat="36.787654876709" lon="-5.17267322540283">
        <ele>679</ele>
        <time>2019-05-12T00:09:22Z</time>
      </trkpt>
      <trkpt lat="36.7876319885254" lon="-5.17267513275146">
        <ele>678</ele>
        <time>2019-05-12T00:09:24Z</time>
      </trkpt>
      <trkpt lat="36.7876129150391" lon="-5.1726770401001">
        <ele>677</ele>
        <time>2019-05-12T00:09:26Z</time>
      </trkpt>
      <trkpt lat="36.7875938415527" lon="-5.17267799377441">
        <ele>676</ele>
        <time>2019-05-12T00:09:28Z</time>
      </trkpt>
      <trkpt lat="36.7875709533691" lon="-5.17267990112305">
        <ele>676</ele>
        <time>2019-05-12T00:09:30Z</time>
      </trkpt>
      <trkpt lat="36.7875518798828" lon="-5.17268180847168">
        <ele>676</ele>
        <time>2019-05-12T00:09:32Z</time>
      </trkpt>
      <trkpt lat="36.7875289916992" lon="-5.17268705368042">
        <ele>675</ele>
        <time>2019-05-12T00:09:34Z</time>
      </trkpt>
      <trkpt lat="36.7875061035156" lon="-5.172691822052">
        <ele>675</ele>
        <time>2019-05-12T00:09:36Z</time>
      </trkpt>
      <trkpt lat="36.787483215332" lon="-5.17269802093506">
        <ele>674</ele>
        <time>2019-05-12T00:09:38Z</time>
      </trkpt>
      <trkpt lat="36.7874641418457" lon="-5.17270517349243">
        <ele>674</ele>
        <time>2019-05-12T00:09:40Z</time>
      </trkpt>
      <trkpt lat="36.7874488830566" lon="-5.17271184921265">
        <ele>674</ele>
        <time>2019-05-12T00:09:42Z</time>
      </trkpt>
      <trkpt lat="36.7874412536621" lon="-5.17271518707275">
        <ele>674</ele>
        <time>2019-05-12T00:09:44Z</time>
      </trkpt>
      <trkpt lat="36.7874412536621" lon="-5.17271280288696">
        <ele>674</ele>
        <time>2019-05-12T00:09:46Z</time>
      </trkpt>
      <trkpt lat="36.7874374389648" lon="-5.17271518707275">
        <ele>674</ele>
        <time>2019-05-12T00:09:48Z</time>
      </trkpt>
      <trkpt lat="36.7874336242676" lon="-5.17271518707275">
        <ele>673</ele>
        <time>2019-05-12T00:09:52Z</time>
      </trkpt>
      <trkpt lat="36.7874336242676" lon="-5.17271518707275">
        <ele>673</ele>
        <time>2019-05-12T00:09:54Z</time>
      </trkpt>
      <trkpt lat="36.7874221801758" lon="-5.17271184921265">
        <ele>673</ele>
        <time>2019-05-12T00:09:56Z</time>
      </trkpt>
      <trkpt lat="36.7874031066894" lon="-5.1727180480957">
        <ele>673</ele>
        <time>2019-05-12T00:09:58Z</time>
      </trkpt>
      <trkpt lat="36.7873878479004" lon="-5.17272520065308">
        <ele>673</ele>
        <time>2019-05-12T00:10:00Z</time>
      </trkpt>
      <trkpt lat="36.7873687744141" lon="-5.17272996902466">
        <ele>672</ele>
        <time>2019-05-12T00:10:02Z</time>
      </trkpt>
      <trkpt lat="36.787353515625" lon="-5.17273712158203">
        <ele>671</ele>
        <time>2019-05-12T00:10:04Z</time>
      </trkpt>
      <trkpt lat="36.7873306274414" lon="-5.17274188995361">
        <ele>671</ele>
        <time>2019-05-12T00:10:06Z</time>
      </trkpt>
      <trkpt lat="36.7873115539551" lon="-5.17274284362793">
        <ele>671</ele>
        <time>2019-05-12T00:10:08Z</time>
      </trkpt>
      <trkpt lat="36.787296295166" lon="-5.17274522781372">
        <ele>671</ele>
        <time>2019-05-12T00:10:10Z</time>
      </trkpt>
      <trkpt lat="36.7872734069824" lon="-5.17274808883667">
        <ele>671</ele>
        <time>2019-05-12T00:10:12Z</time>
      </trkpt>
      <trkpt lat="36.7872581481934" lon="-5.1727499961853">
        <ele>670</ele>
        <time>2019-05-12T00:10:14Z</time>
      </trkpt>
      <trkpt lat="36.787239074707" lon="-5.17275190353394">
        <ele>670</ele>
        <time>2019-05-12T00:10:16Z</time>
      </trkpt>
      <trkpt lat="36.787223815918" lon="-5.17275190353394">
        <ele>670</ele>
        <time>2019-05-12T00:10:18Z</time>
      </trkpt>
      <trkpt lat="36.7872009277344" lon="-5.17274808883667">
        <ele>670</ele>
        <time>2019-05-12T00:10:20Z</time>
      </trkpt>
      <trkpt lat="36.787181854248" lon="-5.17274284362793">
        <ele>670</ele>
        <time>2019-05-12T00:10:22Z</time>
      </trkpt>
      <trkpt lat="36.7871627807617" lon="-5.17273187637329">
        <ele>670</ele>
        <time>2019-05-12T00:10:24Z</time>
      </trkpt>
      <trkpt lat="36.7871398925781" lon="-5.17270803451538">
        <ele>670</ele>
        <time>2019-05-12T00:10:26Z</time>
      </trkpt>
      <trkpt lat="36.7871208190918" lon="-5.17269515991211">
        <ele>670</ele>
        <time>2019-05-12T00:10:28Z</time>
      </trkpt>
      <trkpt lat="36.7871017456055" lon="-5.17268180847168">
        <ele>670</ele>
        <time>2019-05-12T00:10:31Z</time>
      </trkpt>
      <trkpt lat="36.7870864868164" lon="-5.17266321182251">
        <ele>669</ele>
        <time>2019-05-12T00:10:33Z</time>
      </trkpt>
      <trkpt lat="36.7870712280273" lon="-5.17264223098755">
        <ele>669</ele>
        <time>2019-05-12T00:10:35Z</time>
      </trkpt>
      <trkpt lat="36.7870559692383" lon="-5.1726222038269">
        <ele>669</ele>
        <time>2019-05-12T00:10:37Z</time>
      </trkpt>
      <trkpt lat="36.7870445251465" lon="-5.17260217666626">
        <ele>669</ele>
        <time>2019-05-12T00:10:39Z</time>
      </trkpt>
      <trkpt lat="36.7870292663574" lon="-5.17257976531982">
        <ele>669</ele>
        <time>2019-05-12T00:10:41Z</time>
      </trkpt>
      <trkpt lat="36.7870178222656" lon="-5.17256021499634">
        <ele>669</ele>
        <time>2019-05-12T00:10:43Z</time>
      </trkpt>
      <trkpt lat="36.7870063781738" lon="-5.17254209518433">
        <ele>669</ele>
        <time>2019-05-12T00:10:45Z</time>
      </trkpt>
      <trkpt lat="36.786994934082" lon="-5.17252016067505">
        <ele>669</ele>
        <time>2019-05-12T00:10:47Z</time>
      </trkpt>
      <trkpt lat="36.786979675293" lon="-5.17250204086304">
        <ele>669</ele>
        <time>2019-05-12T00:10:49Z</time>
      </trkpt>
      <trkpt lat="36.7869682312012" lon="-5.17248296737671">
        <ele>669</ele>
        <time>2019-05-12T00:10:51Z</time>
      </trkpt>
      <trkpt lat="36.7869529724121" lon="-5.1724648475647">
        <ele>668</ele>
        <time>2019-05-12T00:10:53Z</time>
      </trkpt>
      <trkpt lat="36.786937713623" lon="-5.17244815826416">
        <ele>668</ele>
        <time>2019-05-12T00:10:55Z</time>
      </trkpt>
      <trkpt lat="36.786922454834" lon="-5.17243194580078">
        <ele>668</ele>
        <time>2019-05-12T00:10:57Z</time>
      </trkpt>
      <trkpt lat="36.7869033813477" lon="-5.17241811752319">
        <ele>668</ele>
        <time>2019-05-12T00:10:59Z</time>
      </trkpt>
      <trkpt lat="36.7868881225586" lon="-5.17240285873413">
        <ele>668</ele>
        <time>2019-05-12T00:11:01Z</time>
      </trkpt>
      <trkpt lat="36.7868690490723" lon="-5.17238998413086">
        <ele>668</ele>
        <time>2019-05-12T00:11:03Z</time>
      </trkpt>
      <trkpt lat="36.7868537902832" lon="-5.17237710952759">
        <ele>668</ele>
        <time>2019-05-12T00:11:05Z</time>
      </trkpt>
      <trkpt lat="36.7868385314941" lon="-5.17236709594727">
        <ele>666</ele>
        <time>2019-05-12T00:11:07Z</time>
      </trkpt>
      <trkpt lat="36.7868232727051" lon="-5.1723518371582">
        <ele>666</ele>
        <time>2019-05-12T00:11:09Z</time>
      </trkpt>
      <trkpt lat="36.786808013916" lon="-5.17233800888062">
        <ele>666</ele>
        <time>2019-05-12T00:11:11Z</time>
      </trkpt>
      <trkpt lat="36.7867889404297" lon="-5.17232704162598">
        <ele>666</ele>
        <time>2019-05-12T00:11:13Z</time>
      </trkpt>
      <trkpt lat="36.7867736816406" lon="-5.17231702804565">
        <ele>666</ele>
        <time>2019-05-12T00:11:15Z</time>
      </trkpt>
      <trkpt lat="36.7867546081543" lon="-5.17230319976807">
        <ele>666</ele>
        <time>2019-05-12T00:11:17Z</time>
      </trkpt>
      <trkpt lat="36.7867317199707" lon="-5.17229509353638">
        <ele>666</ele>
        <time>2019-05-12T00:11:19Z</time>
      </trkpt>
      <trkpt lat="36.7867126464844" lon="-5.17228317260742">
        <ele>665</ele>
        <time>2019-05-12T00:11:21Z</time>
      </trkpt>
      <trkpt lat="36.7866897583008" lon="-5.17227506637573">
        <ele>665</ele>
        <time>2019-05-12T00:11:23Z</time>
      </trkpt>
      <trkpt lat="36.7866668701172" lon="-5.17226505279541">
        <ele>664</ele>
        <time>2019-05-12T00:11:25Z</time>
      </trkpt>
      <trkpt lat="36.7866477966309" lon="-5.17225503921509">
        <ele>663</ele>
        <time>2019-05-12T00:11:27Z</time>
      </trkpt>
      <trkpt lat="36.7866287231445" lon="-5.17224502563477">
        <ele>663</ele>
        <time>2019-05-12T00:11:29Z</time>
      </trkpt>
      <trkpt lat="36.7866096496582" lon="-5.17223310470581">
        <ele>661</ele>
        <time>2019-05-12T00:11:31Z</time>
      </trkpt>
      <trkpt lat="36.7865867614746" lon="-5.17222309112549">
        <ele>661</ele>
        <time>2019-05-12T00:11:33Z</time>
      </trkpt>
      <trkpt lat="36.7865715026856" lon="-5.17221784591675">
        <ele>661</ele>
        <time>2019-05-12T00:11:35Z</time>
      </trkpt>
      <trkpt lat="36.7865524291992" lon="-5.17221212387085">
        <ele>661</ele>
        <time>2019-05-12T00:11:37Z</time>
      </trkpt>
      <trkpt lat="36.7865333557129" lon="-5.17220211029053">
        <ele>661</ele>
        <time>2019-05-12T00:11:39Z</time>
      </trkpt>
      <trkpt lat="36.7865180969238" lon="-5.17219495773315">
        <ele>661</ele>
        <time>2019-05-12T00:11:41Z</time>
      </trkpt>
      <trkpt lat="36.7864952087402" lon="-5.17219018936157">
        <ele>661</ele>
        <time>2019-05-12T00:11:43Z</time>
      </trkpt>
      <trkpt lat="36.7864761352539" lon="-5.17218780517578">
        <ele>660</ele>
        <time>2019-05-12T00:11:45Z</time>
      </trkpt>
      <trkpt lat="36.7864532470703" lon="-5.1721830368042">
        <ele>660</ele>
        <time>2019-05-12T00:11:47Z</time>
      </trkpt>
      <trkpt lat="36.7864303588867" lon="-5.17218208312988">
        <ele>659</ele>
        <time>2019-05-12T00:11:49Z</time>
      </trkpt>
      <trkpt lat="36.7864112854004" lon="-5.17218017578125">
        <ele>659</ele>
        <time>2019-05-12T00:11:51Z</time>
      </trkpt>
      <trkpt lat="36.7863922119141" lon="-5.17217683792114">
        <ele>658</ele>
        <time>2019-05-12T00:11:53Z</time>
      </trkpt>
      <trkpt lat="36.7863693237305" lon="-5.17217493057251">
        <ele>658</ele>
        <time>2019-05-12T00:11:55Z</time>
      </trkpt>
      <trkpt lat="36.7863464355469" lon="-5.17217016220093">
        <ele>658</ele>
        <time>2019-05-12T00:11:57Z</time>
      </trkpt>
      <trkpt lat="36.7863273620606" lon="-5.17216205596924">
        <ele>656</ele>
        <time>2019-05-12T00:11:59Z</time>
      </trkpt>
      <trkpt lat="36.7863082885742" lon="-5.17215299606323">
        <ele>656</ele>
        <time>2019-05-12T00:12:01Z</time>
      </trkpt>
      <trkpt lat="36.7862892150879" lon="-5.17214679718018">
        <ele>656</ele>
        <time>2019-05-12T00:12:03Z</time>
      </trkpt>
      <trkpt lat="36.7862663269043" lon="-5.17213821411133">
        <ele>656</ele>
        <time>2019-05-12T00:12:05Z</time>
      </trkpt>
      <trkpt lat="36.7862396240234" lon="-5.1721248626709">
        <ele>656</ele>
        <time>2019-05-12T00:12:07Z</time>
      </trkpt>
      <trkpt lat="36.7862167358398" lon="-5.17211294174194">
        <ele>655</ele>
        <time>2019-05-12T00:12:10Z</time>
      </trkpt>
      <trkpt lat="36.786205291748" lon="-5.17210721969604">
        <ele>655</ele>
        <time>2019-05-12T00:12:12Z</time>
      </trkpt>
      <trkpt lat="36.7862014770508" lon="-5.17210817337036">
        <ele>654</ele>
        <time>2019-05-12T00:12:14Z</time>
      </trkpt>
      <trkpt lat="36.7861976623535" lon="-5.17211008071899">
        <ele>654</ele>
        <time>2019-05-12T00:12:16Z</time>
      </trkpt>
      <trkpt lat="36.7861938476562" lon="-5.17210817337036">
        <ele>653</ele>
        <time>2019-05-12T00:12:18Z</time>
      </trkpt>
      <trkpt lat="36.7861938476562" lon="-5.17211008071899">
        <ele>653</ele>
        <time>2019-05-12T00:12:20Z</time>
      </trkpt>
      <trkpt lat="36.7861862182617" lon="-5.17211008071899">
        <ele>653</ele>
        <time>2019-05-12T00:12:22Z</time>
      </trkpt>
      <trkpt lat="36.7861862182617" lon="-5.17211008071899">
        <ele>653</ele>
        <time>2019-05-12T00:12:24Z</time>
      </trkpt>
      <trkpt lat="36.7861824035644" lon="-5.17211198806763">
        <ele>651</ele>
        <time>2019-05-12T00:12:26Z</time>
      </trkpt>
      <trkpt lat="36.7861785888672" lon="-5.17211008071899">
        <ele>651</ele>
        <time>2019-05-12T00:12:28Z</time>
      </trkpt>
      <trkpt lat="36.7861671447754" lon="-5.17210483551025">
        <ele>651</ele>
        <time>2019-05-12T00:12:30Z</time>
      </trkpt>
      <trkpt lat="36.7861518859863" lon="-5.17209815979004">
        <ele>651</ele>
        <time>2019-05-12T00:12:32Z</time>
      </trkpt>
      <trkpt lat="36.7861366271973" lon="-5.17208814620972">
        <ele>651</ele>
        <time>2019-05-12T00:12:34Z</time>
      </trkpt>
      <trkpt lat="36.7861175537109" lon="-5.17208003997803">
        <ele>651</ele>
        <time>2019-05-12T00:12:36Z</time>
      </trkpt>
      <trkpt lat="36.7860984802246" lon="-5.1720700263977">
        <ele>651</ele>
        <time>2019-05-12T00:12:38Z</time>
      </trkpt>
      <trkpt lat="36.7860794067383" lon="-5.17205810546875">
        <ele>650</ele>
        <time>2019-05-12T00:12:40Z</time>
      </trkpt>
      <trkpt lat="36.786060333252" lon="-5.17204713821411">
        <ele>650</ele>
        <time>2019-05-12T00:12:42Z</time>
      </trkpt>
      <trkpt lat="36.7860412597656" lon="-5.17203521728516">
        <ele>650</ele>
        <time>2019-05-12T00:12:44Z</time>
      </trkpt>
      <trkpt lat="36.7860260009766" lon="-5.17201805114746">
        <ele>649</ele>
        <time>2019-05-12T00:12:46Z</time>
      </trkpt>
      <trkpt lat="36.7860069274902" lon="-5.17200708389282">
        <ele>649</ele>
        <time>2019-05-12T00:12:48Z</time>
      </trkpt>
      <trkpt lat="36.7859878540039" lon="-5.17199277877808">
        <ele>649</ele>
        <time>2019-05-12T00:12:50Z</time>
      </trkpt>
      <trkpt lat="36.7859687805176" lon="-5.17198181152344">
        <ele>648</ele>
        <time>2019-05-12T00:12:52Z</time>
      </trkpt>
      <trkpt lat="36.7859497070312" lon="-5.17196989059448">
        <ele>648</ele>
        <time>2019-05-12T00:12:54Z</time>
      </trkpt>
      <trkpt lat="36.7859268188477" lon="-5.17195701599121">
        <ele>648</ele>
        <time>2019-05-12T00:12:56Z</time>
      </trkpt>
      <trkpt lat="36.7859077453613" lon="-5.17194700241089">
        <ele>647</ele>
        <time>2019-05-12T00:12:58Z</time>
      </trkpt>
      <trkpt lat="36.7858924865723" lon="-5.1719331741333">
        <ele>646</ele>
        <time>2019-05-12T00:13:00Z</time>
      </trkpt>
      <trkpt lat="36.7858734130859" lon="-5.17192220687866">
        <ele>646</ele>
        <time>2019-05-12T00:13:02Z</time>
      </trkpt>
      <trkpt lat="36.7858543395996" lon="-5.17191314697266">
        <ele>646</ele>
        <time>2019-05-12T00:13:04Z</time>
      </trkpt>
      <trkpt lat="36.785831451416" lon="-5.17189979553223">
        <ele>646</ele>
        <time>2019-05-12T00:13:06Z</time>
      </trkpt>
      <trkpt lat="36.7858123779297" lon="-5.1718921661377">
        <ele>646</ele>
        <time>2019-05-12T00:13:08Z</time>
      </trkpt>
      <trkpt lat="36.7857933044434" lon="-5.17188215255737">
        <ele>646</ele>
        <time>2019-05-12T00:13:10Z</time>
      </trkpt>
      <trkpt lat="36.785774230957" lon="-5.17187023162842">
        <ele>646</ele>
        <time>2019-05-12T00:13:12Z</time>
      </trkpt>
      <trkpt lat="36.7857513427734" lon="-5.1718602180481">
        <ele>646</ele>
        <time>2019-05-12T00:13:14Z</time>
      </trkpt>
      <trkpt lat="36.7857322692871" lon="-5.17185211181641">
        <ele>646</ele>
        <time>2019-05-12T00:13:16Z</time>
      </trkpt>
      <trkpt lat="36.7857093811035" lon="-5.17184209823608">
        <ele>646</ele>
        <time>2019-05-12T00:13:18Z</time>
      </trkpt>
      <trkpt lat="36.7856864929199" lon="-5.17183208465576">
        <ele>646</ele>
        <time>2019-05-12T00:13:20Z</time>
      </trkpt>
      <trkpt lat="36.7856674194336" lon="-5.17182302474976">
        <ele>646</ele>
        <time>2019-05-12T00:13:22Z</time>
      </trkpt>
      <trkpt lat="36.7856483459473" lon="-5.17181015014648">
        <ele>646</ele>
        <time>2019-05-12T00:13:24Z</time>
      </trkpt>
      <trkpt lat="36.7856330871582" lon="-5.17179679870606">
        <ele>645</ele>
        <time>2019-05-12T00:13:26Z</time>
      </trkpt>
      <trkpt lat="36.7856140136719" lon="-5.17178821563721">
        <ele>645</ele>
        <time>2019-05-12T00:13:28Z</time>
      </trkpt>
      <trkpt lat="36.7856025695801" lon="-5.17177677154541">
        <ele>645</ele>
        <time>2019-05-12T00:13:30Z</time>
      </trkpt>
      <trkpt lat="36.785587310791" lon="-5.17176818847656">
        <ele>645</ele>
        <time>2019-05-12T00:13:32Z</time>
      </trkpt>
      <trkpt lat="36.7855682373047" lon="-5.17175817489624">
        <ele>645</ele>
        <time>2019-05-12T00:13:34Z</time>
      </trkpt>
      <trkpt lat="36.7855529785156" lon="-5.17174482345581">
        <ele>644</ele>
        <time>2019-05-12T00:13:36Z</time>
      </trkpt>
      <trkpt lat="36.7855339050293" lon="-5.17173290252686">
        <ele>644</ele>
        <time>2019-05-12T00:13:38Z</time>
      </trkpt>
      <trkpt lat="36.7855110168457" lon="-5.17172288894653">
        <ele>643</ele>
        <time>2019-05-12T00:13:40Z</time>
      </trkpt>
      <trkpt lat="36.7854919433594" lon="-5.17171287536621">
        <ele>643</ele>
        <time>2019-05-12T00:13:42Z</time>
      </trkpt>
      <trkpt lat="36.785472869873" lon="-5.17170286178589">
        <ele>643</ele>
        <time>2019-05-12T00:13:44Z</time>
      </trkpt>
      <trkpt lat="36.7854537963867" lon="-5.17169189453125">
        <ele>641</ele>
        <time>2019-05-12T00:13:46Z</time>
      </trkpt>
      <trkpt lat="36.7854347229004" lon="-5.17167806625366">
        <ele>641</ele>
        <time>2019-05-12T00:13:48Z</time>
      </trkpt>
      <trkpt lat="36.7854042053223" lon="-5.17166519165039">
        <ele>641</ele>
        <time>2019-05-12T00:13:50Z</time>
      </trkpt>
      <trkpt lat="36.7853889465332" lon="-5.17165803909302">
        <ele>641</ele>
        <time>2019-05-12T00:13:53Z</time>
      </trkpt>
      <trkpt lat="36.7853698730469" lon="-5.17165184020996">
        <ele>640</ele>
        <time>2019-05-12T00:13:55Z</time>
      </trkpt>
      <trkpt lat="36.7853507995606" lon="-5.17164182662964">
        <ele>639</ele>
        <time>2019-05-12T00:13:57Z</time>
      </trkpt>
      <trkpt lat="36.7853317260742" lon="-5.17163276672363">
        <ele>639</ele>
        <time>2019-05-12T00:13:59Z</time>
      </trkpt>
      <trkpt lat="36.7853164672852" lon="-5.1716251373291">
        <ele>639</ele>
        <time>2019-05-12T00:14:01Z</time>
      </trkpt>
      <trkpt lat="36.7853088378906" lon="-5.17162322998047">
        <ele>638</ele>
        <time>2019-05-12T00:14:03Z</time>
      </trkpt>
      <trkpt lat="36.7852935791016" lon="-5.17161703109741">
        <ele>638</ele>
        <time>2019-05-12T00:14:05Z</time>
      </trkpt>
      <trkpt lat="36.7852783203125" lon="-5.17160701751709">
        <ele>637</ele>
        <time>2019-05-12T00:14:07Z</time>
      </trkpt>
      <trkpt lat="36.7852592468262" lon="-5.17159223556519">
        <ele>636</ele>
        <time>2019-05-12T00:14:09Z</time>
      </trkpt>
      <trkpt lat="36.7852401733398" lon="-5.17157793045044">
        <ele>636</ele>
        <time>2019-05-12T00:14:11Z</time>
      </trkpt>
      <trkpt lat="36.7852210998535" lon="-5.17156505584717">
        <ele>636</ele>
        <time>2019-05-12T00:14:13Z</time>
      </trkpt>
      <trkpt lat="36.7852058410644" lon="-5.1715521812439">
        <ele>635</ele>
        <time>2019-05-12T00:14:15Z</time>
      </trkpt>
      <trkpt lat="36.7851905822754" lon="-5.1715350151062">
        <ele>635</ele>
        <time>2019-05-12T00:14:17Z</time>
      </trkpt>
      <trkpt lat="36.7851753234863" lon="-5.17151784896851">
        <ele>634</ele>
        <time>2019-05-12T00:14:19Z</time>
      </trkpt>
      <trkpt lat="36.78515625" lon="-5.1715030670166">
        <ele>634</ele>
        <time>2019-05-12T00:14:21Z</time>
      </trkpt>
      <trkpt lat="36.7851448059082" lon="-5.17148780822754">
        <ele>633</ele>
        <time>2019-05-12T00:14:23Z</time>
      </trkpt>
      <trkpt lat="36.7851257324219" lon="-5.17147207260132">
        <ele>632</ele>
        <time>2019-05-12T00:14:25Z</time>
      </trkpt>
      <trkpt lat="36.7851104736328" lon="-5.17145681381226">
        <ele>631</ele>
        <time>2019-05-12T00:14:27Z</time>
      </trkpt>
      <trkpt lat="36.7850952148438" lon="-5.17143821716309">
        <ele>631</ele>
        <time>2019-05-12T00:14:29Z</time>
      </trkpt>
      <trkpt lat="36.785083770752" lon="-5.17142295837402">
        <ele>630</ele>
        <time>2019-05-12T00:14:31Z</time>
      </trkpt>
      <trkpt lat="36.7850685119629" lon="-5.1714072227478">
        <ele>630</ele>
        <time>2019-05-12T00:14:33Z</time>
      </trkpt>
      <trkpt lat="36.7850570678711" lon="-5.17139005661011">
        <ele>630</ele>
        <time>2019-05-12T00:14:35Z</time>
      </trkpt>
      <trkpt lat="36.7850456237793" lon="-5.17137289047241">
        <ele>630</ele>
        <time>2019-05-12T00:14:37Z</time>
      </trkpt>
      <trkpt lat="36.7850341796875" lon="-5.17135810852051">
        <ele>629</ele>
        <time>2019-05-12T00:14:39Z</time>
      </trkpt>
      <trkpt lat="36.7850227355957" lon="-5.17134189605713">
        <ele>629</ele>
        <time>2019-05-12T00:14:41Z</time>
      </trkpt>
      <trkpt lat="36.7850074768066" lon="-5.17132520675659">
        <ele>629</ele>
        <time>2019-05-12T00:14:43Z</time>
      </trkpt>
      <trkpt lat="36.7849960327148" lon="-5.17130708694458">
        <ele>628</ele>
        <time>2019-05-12T00:14:45Z</time>
      </trkpt>
      <trkpt lat="36.784984588623" lon="-5.17128992080688">
        <ele>628</ele>
        <time>2019-05-12T00:14:47Z</time>
      </trkpt>
      <trkpt lat="36.7849731445312" lon="-5.17127323150635">
        <ele>628</ele>
        <time>2019-05-12T00:14:49Z</time>
      </trkpt>
      <trkpt lat="36.7849655151367" lon="-5.1712532043457">
        <ele>628</ele>
        <time>2019-05-12T00:14:51Z</time>
      </trkpt>
      <trkpt lat="36.7849540710449" lon="-5.17123222351074">
        <ele>628</ele>
        <time>2019-05-12T00:14:53Z</time>
      </trkpt>
      <trkpt lat="36.7849464416504" lon="-5.1712121963501">
        <ele>628</ele>
        <time>2019-05-12T00:14:55Z</time>
      </trkpt>
      <trkpt lat="36.7849464416504" lon="-5.17118978500366">
        <ele>628</ele>
        <time>2019-05-12T00:14:57Z</time>
      </trkpt>
      <trkpt lat="36.7849426269531" lon="-5.17116689682007">
        <ele>628</ele>
        <time>2019-05-12T00:14:59Z</time>
      </trkpt>
      <trkpt lat="36.7849388122559" lon="-5.17114305496216">
        <ele>626</ele>
        <time>2019-05-12T00:15:01Z</time>
      </trkpt>
      <trkpt lat="36.7849388122559" lon="-5.17112016677856">
        <ele>626</ele>
        <time>2019-05-12T00:15:03Z</time>
      </trkpt>
      <trkpt lat="36.7849426269531" lon="-5.17109680175781">
        <ele>626</ele>
        <time>2019-05-12T00:15:05Z</time>
      </trkpt>
      <trkpt lat="36.7849464416504" lon="-5.17107486724854">
        <ele>626</ele>
        <time>2019-05-12T00:15:07Z</time>
      </trkpt>
      <trkpt lat="36.7849464416504" lon="-5.17105293273926">
        <ele>626</ele>
        <time>2019-05-12T00:15:09Z</time>
      </trkpt>
      <trkpt lat="36.7849540710449" lon="-5.17102813720703">
        <ele>626</ele>
        <time>2019-05-12T00:15:11Z</time>
      </trkpt>
      <trkpt lat="36.7849617004394" lon="-5.17100715637207">
        <ele>626</ele>
        <time>2019-05-12T00:15:13Z</time>
      </trkpt>
      <trkpt lat="36.7849617004394" lon="-5.17098188400269">
        <ele>626</ele>
        <time>2019-05-12T00:15:15Z</time>
      </trkpt>
      <trkpt lat="36.7849655151367" lon="-5.17095708847046">
        <ele>626</ele>
        <time>2019-05-12T00:15:17Z</time>
      </trkpt>
      <trkpt lat="36.7849731445312" lon="-5.17093276977539">
        <ele>626</ele>
        <time>2019-05-12T00:15:19Z</time>
      </trkpt>
      <trkpt lat="36.7849769592285" lon="-5.17090702056885">
        <ele>626</ele>
        <time>2019-05-12T00:15:21Z</time>
      </trkpt>
      <trkpt lat="36.784984588623" lon="-5.17088222503662">
        <ele>625</ele>
        <time>2019-05-12T00:15:23Z</time>
      </trkpt>
      <trkpt lat="36.7849884033203" lon="-5.17084693908691">
        <ele>625</ele>
        <time>2019-05-12T00:15:25Z</time>
      </trkpt>
      <trkpt lat="36.7849884033203" lon="-5.17082500457764">
        <ele>625</ele>
        <time>2019-05-12T00:15:28Z</time>
      </trkpt>
      <trkpt lat="36.784984588623" lon="-5.17080020904541">
        <ele>625</ele>
        <time>2019-05-12T00:15:30Z</time>
      </trkpt>
      <trkpt lat="36.7849769592285" lon="-5.17077779769897">
        <ele>625</ele>
        <time>2019-05-12T00:15:32Z</time>
      </trkpt>
      <trkpt lat="36.7849731445312" lon="-5.1707649230957">
        <ele>624</ele>
        <time>2019-05-12T00:15:34Z</time>
      </trkpt>
      <trkpt lat="36.784969329834" lon="-5.17076015472412">
        <ele>624</ele>
        <time>2019-05-12T00:15:36Z</time>
      </trkpt>
      <trkpt lat="36.7849655151367" lon="-5.17074680328369">
        <ele>623</ele>
        <time>2019-05-12T00:15:38Z</time>
      </trkpt>
      <trkpt lat="36.7849578857422" lon="-5.17073011398315">
        <ele>623</ele>
        <time>2019-05-12T00:15:40Z</time>
      </trkpt>
      <trkpt lat="36.7849502563477" lon="-5.17070817947388">
        <ele>623</ele>
        <time>2019-05-12T00:15:42Z</time>
      </trkpt>
      <trkpt lat="36.7849388122559" lon="-5.17068719863892">
        <ele>623</ele>
        <time>2019-05-12T00:15:44Z</time>
      </trkpt>
      <trkpt lat="36.7849273681641" lon="-5.17066192626953">
        <ele>621</ele>
        <time>2019-05-12T00:15:46Z</time>
      </trkpt>
      <trkpt lat="36.7849197387695" lon="-5.17064189910889">
        <ele>621</ele>
        <time>2019-05-12T00:15:48Z</time>
      </trkpt>
      <trkpt lat="36.7849082946777" lon="-5.17061996459961">
        <ele>621</ele>
        <time>2019-05-12T00:15:50Z</time>
      </trkpt>
      <trkpt lat="36.7848930358887" lon="-5.17060279846191">
        <ele>621</ele>
        <time>2019-05-12T00:15:52Z</time>
      </trkpt>
      <trkpt lat="36.7848815917969" lon="-5.17058181762695">
        <ele>621</ele>
        <time>2019-05-12T00:15:54Z</time>
      </trkpt>
      <trkpt lat="36.7848663330078" lon="-5.17055702209473">
        <ele>620</ele>
        <time>2019-05-12T00:15:56Z</time>
      </trkpt>
      <trkpt lat="36.784854888916" lon="-5.17053508758545">
        <ele>620</ele>
        <time>2019-05-12T00:15:58Z</time>
      </trkpt>
      <trkpt lat="36.784839630127" lon="-5.17051315307617">
        <ele>619</ele>
        <time>2019-05-12T00:16:00Z</time>
      </trkpt>
      <trkpt lat="36.7848281860352" lon="-5.17048788070679">
        <ele>619</ele>
        <time>2019-05-12T00:16:02Z</time>
      </trkpt>
      <trkpt lat="36.7848129272461" lon="-5.17046499252319">
        <ele>618</ele>
        <time>2019-05-12T00:16:04Z</time>
      </trkpt>
      <trkpt lat="36.784797668457" lon="-5.17044687271118">
        <ele>618</ele>
        <time>2019-05-12T00:16:06Z</time>
      </trkpt>
      <trkpt lat="36.7847862243652" lon="-5.17042684555054">
        <ele>617</ele>
        <time>2019-05-12T00:16:08Z</time>
      </trkpt>
      <trkpt lat="36.7847785949707" lon="-5.17041206359863">
        <ele>616</ele>
        <time>2019-05-12T00:16:10Z</time>
      </trkpt>
      <trkpt lat="36.7847633361816" lon="-5.17039823532104">
        <ele>616</ele>
        <time>2019-05-12T00:16:12Z</time>
      </trkpt>
      <trkpt lat="36.7847557067871" lon="-5.17038202285767">
        <ele>616</ele>
        <time>2019-05-12T00:16:14Z</time>
      </trkpt>
      <trkpt lat="36.7847442626953" lon="-5.17036294937134">
        <ele>616</ele>
        <time>2019-05-12T00:16:16Z</time>
      </trkpt>
      <trkpt lat="36.7847328186035" lon="-5.17034006118774">
        <ele>615</ele>
        <time>2019-05-12T00:16:18Z</time>
      </trkpt>
      <trkpt lat="36.7847175598144" lon="-5.1703200340271">
        <ele>615</ele>
        <time>2019-05-12T00:16:20Z</time>
      </trkpt>
      <trkpt lat="36.7847023010254" lon="-5.17029714584351">
        <ele>615</ele>
        <time>2019-05-12T00:16:22Z</time>
      </trkpt>
      <trkpt lat="36.7846908569336" lon="-5.17027282714844">
        <ele>614</ele>
        <time>2019-05-12T00:16:24Z</time>
      </trkpt>
      <trkpt lat="36.7846755981445" lon="-5.17024803161621">
        <ele>613</ele>
        <time>2019-05-12T00:16:26Z</time>
      </trkpt>
      <trkpt lat="36.7846641540527" lon="-5.17022514343262">
        <ele>613</ele>
        <time>2019-05-12T00:16:28Z</time>
      </trkpt>
      <trkpt lat="36.7846488952637" lon="-5.17020320892334">
        <ele>611</ele>
        <time>2019-05-12T00:16:30Z</time>
      </trkpt>
      <trkpt lat="36.7846336364746" lon="-5.17017984390259">
        <ele>611</ele>
        <time>2019-05-12T00:16:32Z</time>
      </trkpt>
      <trkpt lat="36.7846221923828" lon="-5.17015790939331">
        <ele>611</ele>
        <time>2019-05-12T00:16:34Z</time>
      </trkpt>
      <trkpt lat="36.7846069335938" lon="-5.17013502120972">
        <ele>611</ele>
        <time>2019-05-12T00:16:36Z</time>
      </trkpt>
      <trkpt lat="36.784595489502" lon="-5.17011308670044">
        <ele>610</ele>
        <time>2019-05-12T00:16:38Z</time>
      </trkpt>
      <trkpt lat="36.7845840454102" lon="-5.17009210586548">
        <ele>610</ele>
        <time>2019-05-12T00:16:40Z</time>
      </trkpt>
      <trkpt lat="36.7845726013184" lon="-5.1700701713562">
        <ele>610</ele>
        <time>2019-05-12T00:16:42Z</time>
      </trkpt>
      <trkpt lat="36.7845573425293" lon="-5.17005205154419">
        <ele>609</ele>
        <time>2019-05-12T00:16:44Z</time>
      </trkpt>
      <trkpt lat="36.7845458984375" lon="-5.17003202438354">
        <ele>609</ele>
        <time>2019-05-12T00:16:46Z</time>
      </trkpt>
      <trkpt lat="36.7845344543457" lon="-5.1700119972229">
        <ele>608</ele>
        <time>2019-05-12T00:16:48Z</time>
      </trkpt>
      <trkpt lat="36.7845230102539" lon="-5.16998815536499">
        <ele>608</ele>
        <time>2019-05-12T00:16:50Z</time>
      </trkpt>
      <trkpt lat="36.7845115661621" lon="-5.16997003555298">
        <ele>607</ele>
        <time>2019-05-12T00:16:52Z</time>
      </trkpt>
      <trkpt lat="36.784496307373" lon="-5.16995191574097">
        <ele>606</ele>
        <time>2019-05-12T00:16:54Z</time>
      </trkpt>
      <trkpt lat="36.7844886779785" lon="-5.16993713378906">
        <ele>606</ele>
        <time>2019-05-12T00:16:56Z</time>
      </trkpt>
      <trkpt lat="36.7844772338867" lon="-5.169921875">
        <ele>606</ele>
        <time>2019-05-12T00:16:58Z</time>
      </trkpt>
      <trkpt lat="36.7844657897949" lon="-5.16990804672241">
        <ele>606</ele>
        <time>2019-05-12T00:17:00Z</time>
      </trkpt>
      <trkpt lat="36.7844581604004" lon="-5.16989278793335">
        <ele>606</ele>
        <time>2019-05-12T00:17:02Z</time>
      </trkpt>
      <trkpt lat="36.7844429016113" lon="-5.16986513137817">
        <ele>606</ele>
        <time>2019-05-12T00:17:05Z</time>
      </trkpt>
      <trkpt lat="36.7844276428223" lon="-5.1698431968689">
        <ele>605</ele>
        <time>2019-05-12T00:17:07Z</time>
      </trkpt>
      <trkpt lat="36.7844123840332" lon="-5.16982507705688">
        <ele>605</ele>
        <time>2019-05-12T00:17:09Z</time>
      </trkpt>
      <trkpt lat="36.7844009399414" lon="-5.16980314254761">
        <ele>604</ele>
        <time>2019-05-12T00:17:11Z</time>
      </trkpt>
      <trkpt lat="36.7843856811523" lon="-5.16978216171265">
        <ele>604</ele>
        <time>2019-05-12T00:17:13Z</time>
      </trkpt>
      <trkpt lat="36.7843704223633" lon="-5.169762134552">
        <ele>604</ele>
        <time>2019-05-12T00:17:15Z</time>
      </trkpt>
      <trkpt lat="36.7843551635742" lon="-5.16974020004272">
        <ele>603</ele>
        <time>2019-05-12T00:17:17Z</time>
      </trkpt>
      <trkpt lat="36.7843437194824" lon="-5.16972017288208">
        <ele>603</ele>
        <time>2019-05-12T00:17:19Z</time>
      </trkpt>
      <trkpt lat="36.7843284606934" lon="-5.1696982383728">
        <ele>602</ele>
        <time>2019-05-12T00:17:21Z</time>
      </trkpt>
      <trkpt lat="36.7843132019043" lon="-5.16967821121216">
        <ele>602</ele>
        <time>2019-05-12T00:17:23Z</time>
      </trkpt>
      <trkpt lat="36.7843017578125" lon="-5.16965818405151">
        <ele>602</ele>
        <time>2019-05-12T00:17:25Z</time>
      </trkpt>
      <trkpt lat="36.7842864990234" lon="-5.16963720321655">
        <ele>601</ele>
        <time>2019-05-12T00:17:27Z</time>
      </trkpt>
      <trkpt lat="36.7842712402344" lon="-5.16961717605591">
        <ele>601</ele>
        <time>2019-05-12T00:17:29Z</time>
      </trkpt>
      <trkpt lat="36.7842597961426" lon="-5.16959714889526">
        <ele>600</ele>
        <time>2019-05-12T00:17:31Z</time>
      </trkpt>
      <trkpt lat="36.7842483520508" lon="-5.16957712173462">
        <ele>600</ele>
        <time>2019-05-12T00:17:33Z</time>
      </trkpt>
      <trkpt lat="36.7842330932617" lon="-5.16955709457397">
        <ele>600</ele>
        <time>2019-05-12T00:17:35Z</time>
      </trkpt>
      <trkpt lat="36.7842216491699" lon="-5.16953802108765">
        <ele>599</ele>
        <time>2019-05-12T00:17:37Z</time>
      </trkpt>
      <trkpt lat="36.7842063903809" lon="-5.16952180862427">
        <ele>599</ele>
        <time>2019-05-12T00:17:39Z</time>
      </trkpt>
      <trkpt lat="36.7841911315918" lon="-5.1695032119751">
        <ele>599</ele>
        <time>2019-05-12T00:17:41Z</time>
      </trkpt>
      <trkpt lat="36.7841796875" lon="-5.16948509216309">
        <ele>599</ele>
        <time>2019-05-12T00:17:43Z</time>
      </trkpt>
      <trkpt lat="36.7841644287109" lon="-5.16946697235107">
        <ele>598</ele>
        <time>2019-05-12T00:17:45Z</time>
      </trkpt>
      <trkpt lat="36.7841529846191" lon="-5.16944694519043">
        <ele>598</ele>
        <time>2019-05-12T00:17:47Z</time>
      </trkpt>
      <trkpt lat="36.7841377258301" lon="-5.16942691802978">
        <ele>597</ele>
        <time>2019-05-12T00:17:49Z</time>
      </trkpt>
      <trkpt lat="36.784122467041" lon="-5.16940689086914">
        <ele>597</ele>
        <time>2019-05-12T00:17:51Z</time>
      </trkpt>
      <trkpt lat="36.7841110229492" lon="-5.16938495635986">
        <ele>597</ele>
        <time>2019-05-12T00:17:53Z</time>
      </trkpt>
      <trkpt lat="36.7840957641602" lon="-5.16936492919922">
        <ele>596</ele>
        <time>2019-05-12T00:17:55Z</time>
      </trkpt>
      <trkpt lat="36.7840843200684" lon="-5.16934490203857">
        <ele>596</ele>
        <time>2019-05-12T00:17:57Z</time>
      </trkpt>
      <trkpt lat="36.7840690612793" lon="-5.16932487487793">
        <ele>595</ele>
        <time>2019-05-12T00:17:59Z</time>
      </trkpt>
      <trkpt lat="36.7840576171875" lon="-5.16930294036865">
        <ele>595</ele>
        <time>2019-05-12T00:18:01Z</time>
      </trkpt>
      <trkpt lat="36.7840461730957" lon="-5.16928291320801">
        <ele>595</ele>
        <time>2019-05-12T00:18:03Z</time>
      </trkpt>
      <trkpt lat="36.7840347290039" lon="-5.16926193237305">
        <ele>594</ele>
        <time>2019-05-12T00:18:05Z</time>
      </trkpt>
      <trkpt lat="36.7840232849121" lon="-5.16923809051514">
        <ele>594</ele>
        <time>2019-05-12T00:18:07Z</time>
      </trkpt>
      <trkpt lat="36.7840118408203" lon="-5.16921520233154">
        <ele>594</ele>
        <time>2019-05-12T00:18:09Z</time>
      </trkpt>
      <trkpt lat="36.7840003967285" lon="-5.16919183731079">
        <ele>593</ele>
        <time>2019-05-12T00:18:11Z</time>
      </trkpt>
      <trkpt lat="36.7839889526367" lon="-5.16916704177856">
        <ele>593</ele>
        <time>2019-05-12T00:18:13Z</time>
      </trkpt>
      <trkpt lat="36.7839813232422" lon="-5.16913986206055">
        <ele>593</ele>
        <time>2019-05-12T00:18:15Z</time>
      </trkpt>
      <trkpt lat="36.7839736938477" lon="-5.16911506652832">
        <ele>593</ele>
        <time>2019-05-12T00:18:17Z</time>
      </trkpt>
      <trkpt lat="36.7839660644531" lon="-5.16908979415894">
        <ele>592</ele>
        <time>2019-05-12T00:18:19Z</time>
      </trkpt>
      <trkpt lat="36.7839584350586" lon="-5.16906309127808">
        <ele>592</ele>
        <time>2019-05-12T00:18:21Z</time>
      </trkpt>
      <trkpt lat="36.7839546203613" lon="-5.16903495788574">
        <ele>592</ele>
        <time>2019-05-12T00:18:23Z</time>
      </trkpt>
      <trkpt lat="36.7839469909668" lon="-5.16901016235352">
        <ele>592</ele>
        <time>2019-05-12T00:18:25Z</time>
      </trkpt>
      <trkpt lat="36.7839431762695" lon="-5.1689829826355">
        <ele>592</ele>
        <time>2019-05-12T00:18:27Z</time>
      </trkpt>
      <trkpt lat="36.7839431762695" lon="-5.16895294189453">
        <ele>592</ele>
        <time>2019-05-12T00:18:29Z</time>
      </trkpt>
      <trkpt lat="36.7839431762695" lon="-5.1689248085022">
        <ele>591</ele>
        <time>2019-05-12T00:18:31Z</time>
      </trkpt>
      <trkpt lat="36.7839393615723" lon="-5.16889810562134">
        <ele>591</ele>
        <time>2019-05-12T00:18:33Z</time>
      </trkpt>
      <trkpt lat="36.783935546875" lon="-5.16886806488037">
        <ele>591</ele>
        <time>2019-05-12T00:18:35Z</time>
      </trkpt>
      <trkpt lat="36.783935546875" lon="-5.16882801055908">
        <ele>591</ele>
        <time>2019-05-12T00:18:37Z</time>
      </trkpt>
      <trkpt lat="36.783935546875" lon="-5.16880178451538">
        <ele>591</ele>
        <time>2019-05-12T00:18:39Z</time>
      </trkpt>
      <trkpt lat="36.783935546875" lon="-5.1687798500061">
        <ele>591</ele>
        <time>2019-05-12T00:18:42Z</time>
      </trkpt>
      <trkpt lat="36.7839317321777" lon="-5.16875505447388">
        <ele>591</ele>
        <time>2019-05-12T00:18:44Z</time>
      </trkpt>
      <trkpt lat="36.7839317321777" lon="-5.1687331199646">
        <ele>591</ele>
        <time>2019-05-12T00:18:46Z</time>
      </trkpt>
      <trkpt lat="36.783935546875" lon="-5.16871023178101">
        <ele>591</ele>
        <time>2019-05-12T00:18:48Z</time>
      </trkpt>
      <trkpt lat="36.7839393615723" lon="-5.16869020462036">
        <ele>591</ele>
        <time>2019-05-12T00:18:50Z</time>
      </trkpt>
      <trkpt lat="36.7839393615723" lon="-5.16866779327393">
        <ele>591</ele>
        <time>2019-05-12T00:18:52Z</time>
      </trkpt>
      <trkpt lat="36.783935546875" lon="-5.16864776611328">
        <ele>591</ele>
        <time>2019-05-12T00:18:54Z</time>
      </trkpt>
      <trkpt lat="36.7839317321777" lon="-5.16862678527832">
        <ele>591</ele>
        <time>2019-05-12T00:18:56Z</time>
      </trkpt>
      <trkpt lat="36.7839279174805" lon="-5.16860818862915">
        <ele>591</ele>
        <time>2019-05-12T00:18:58Z</time>
      </trkpt>
      <trkpt lat="36.7839241027832" lon="-5.16859197616577">
        <ele>591</ele>
        <time>2019-05-12T00:19:00Z</time>
      </trkpt>
      <trkpt lat="36.7839202880859" lon="-5.16857814788818">
        <ele>591</ele>
        <time>2019-05-12T00:19:02Z</time>
      </trkpt>
      <trkpt lat="36.7839202880859" lon="-5.16857194900513">
        <ele>591</ele>
        <time>2019-05-12T00:19:04Z</time>
      </trkpt>
      <trkpt lat="36.7839202880859" lon="-5.16857004165649">
        <ele>591</ele>
        <time>2019-05-12T00:19:06Z</time>
      </trkpt>
      <trkpt lat="36.7839202880859" lon="-5.16855812072754">
        <ele>591</ele>
        <time>2019-05-12T00:19:08Z</time>
      </trkpt>
      <trkpt lat="36.7839202880859" lon="-5.16853523254394">
        <ele>591</ele>
        <time>2019-05-12T00:19:10Z</time>
      </trkpt>
      <trkpt lat="36.7839126586914" lon="-5.1685152053833">
        <ele>591</ele>
        <time>2019-05-12T00:19:12Z</time>
      </trkpt>
      <trkpt lat="36.7839012145996" lon="-5.16849708557129">
        <ele>591</ele>
        <time>2019-05-12T00:19:14Z</time>
      </trkpt>
      <trkpt lat="36.7838897705078" lon="-5.16847991943359">
        <ele>591</ele>
        <time>2019-05-12T00:19:16Z</time>
      </trkpt>
      <trkpt lat="36.7838745117188" lon="-5.16846323013306">
        <ele>591</ele>
        <time>2019-05-12T00:19:18Z</time>
      </trkpt>
      <trkpt lat="36.783863067627" lon="-5.16844701766968">
        <ele>591</ele>
        <time>2019-05-12T00:19:20Z</time>
      </trkpt>
      <trkpt lat="36.7838516235352" lon="-5.16842985153198">
        <ele>591</ele>
        <time>2019-05-12T00:19:22Z</time>
      </trkpt>
      <trkpt lat="36.7838363647461" lon="-5.16841793060303">
        <ele>591</ele>
        <time>2019-05-12T00:19:24Z</time>
      </trkpt>
      <trkpt lat="36.7838287353516" lon="-5.16840696334839">
        <ele>590</ele>
        <time>2019-05-12T00:19:26Z</time>
      </trkpt>
      <trkpt lat="36.7838172912598" lon="-5.16838788986206">
        <ele>590</ele>
        <time>2019-05-12T00:19:28Z</time>
      </trkpt>
      <trkpt lat="36.7838020324707" lon="-5.16837215423584">
        <ele>590</ele>
        <time>2019-05-12T00:19:30Z</time>
      </trkpt>
      <trkpt lat="36.7837905883789" lon="-5.16835308074951">
        <ele>590</ele>
        <time>2019-05-12T00:19:32Z</time>
      </trkpt>
      <trkpt lat="36.7837753295898" lon="-5.1683349609375">
        <ele>589</ele>
        <time>2019-05-12T00:19:34Z</time>
      </trkpt>
      <trkpt lat="36.783763885498" lon="-5.16831684112549">
        <ele>589</ele>
        <time>2019-05-12T00:19:36Z</time>
      </trkpt>
      <trkpt lat="36.7837562561035" lon="-5.16829681396484">
        <ele>589</ele>
        <time>2019-05-12T00:19:38Z</time>
      </trkpt>
      <trkpt lat="36.7837448120117" lon="-5.16827297210693">
        <ele>588</ele>
        <time>2019-05-12T00:19:40Z</time>
      </trkpt>
      <trkpt lat="36.7837295532227" lon="-5.16825199127197">
        <ele>588</ele>
        <time>2019-05-12T00:19:42Z</time>
      </trkpt>
      <trkpt lat="36.7837142944336" lon="-5.1682300567627">
        <ele>587</ele>
        <time>2019-05-12T00:19:44Z</time>
      </trkpt>
      <trkpt lat="36.7837028503418" lon="-5.16820812225342">
        <ele>587</ele>
        <time>2019-05-12T00:19:46Z</time>
      </trkpt>
      <trkpt lat="36.7836875915527" lon="-5.16818809509277">
        <ele>586</ele>
        <time>2019-05-12T00:19:48Z</time>
      </trkpt>
      <trkpt lat="36.7836761474609" lon="-5.16816806793213">
        <ele>586</ele>
        <time>2019-05-12T00:19:50Z</time>
      </trkpt>
      <trkpt lat="36.7836608886719" lon="-5.16814708709717">
        <ele>586</ele>
        <time>2019-05-12T00:19:52Z</time>
      </trkpt>
      <trkpt lat="36.7836456298828" lon="-5.16812705993652">
        <ele>585</ele>
        <time>2019-05-12T00:19:54Z</time>
      </trkpt>
      <trkpt lat="36.7836303710938" lon="-5.16810321807861">
        <ele>585</ele>
        <time>2019-05-12T00:19:56Z</time>
      </trkpt>
      <trkpt lat="36.783618927002" lon="-5.16808223724365">
        <ele>585</ele>
        <time>2019-05-12T00:19:58Z</time>
      </trkpt>
      <trkpt lat="36.7836036682129" lon="-5.16805982589722">
        <ele>584</ele>
        <time>2019-05-12T00:20:00Z</time>
      </trkpt>
      <trkpt lat="36.7835884094238" lon="-5.16803979873657">
        <ele>584</ele>
        <time>2019-05-12T00:20:02Z</time>
      </trkpt>
      <trkpt lat="36.7835731506348" lon="-5.16801977157593">
        <ele>583</ele>
        <time>2019-05-12T00:20:04Z</time>
      </trkpt>
      <trkpt lat="36.783561706543" lon="-5.16800022125244">
        <ele>582</ele>
        <time>2019-05-12T00:20:06Z</time>
      </trkpt>
      <trkpt lat="36.7835464477539" lon="-5.16798210144043">
        <ele>582</ele>
        <time>2019-05-12T00:20:08Z</time>
      </trkpt>
      <trkpt lat="36.7835311889648" lon="-5.1679630279541">
        <ele>581</ele>
        <time>2019-05-12T00:20:10Z</time>
      </trkpt>
      <trkpt lat="36.783519744873" lon="-5.16794490814209">
        <ele>581</ele>
        <time>2019-05-12T00:20:12Z</time>
      </trkpt>
      <trkpt lat="36.783504486084" lon="-5.16792297363281">
        <ele>580</ele>
        <time>2019-05-12T00:20:14Z</time>
      </trkpt>
      <trkpt lat="36.7834892272949" lon="-5.16790294647217">
        <ele>580</ele>
        <time>2019-05-12T00:20:16Z</time>
      </trkpt>
      <trkpt lat="36.7834777832031" lon="-5.16788291931152">
        <ele>579</ele>
        <time>2019-05-12T00:20:18Z</time>
      </trkpt>
      <trkpt lat="36.7834625244141" lon="-5.16786289215088">
        <ele>579</ele>
        <time>2019-05-12T00:20:20Z</time>
      </trkpt>
      <trkpt lat="36.783447265625" lon="-5.16784477233887">
        <ele>579</ele>
        <time>2019-05-12T00:20:22Z</time>
      </trkpt>
      <trkpt lat="36.7834358215332" lon="-5.16782522201538">
        <ele>578</ele>
        <time>2019-05-12T00:20:24Z</time>
      </trkpt>
      <trkpt lat="36.7834205627441" lon="-5.16780710220337">
        <ele>578</ele>
        <time>2019-05-12T00:20:26Z</time>
      </trkpt>
      <trkpt lat="36.7833976745606" lon="-5.16777992248535">
        <ele>577</ele>
        <time>2019-05-12T00:20:28Z</time>
      </trkpt>
      <trkpt lat="36.7833824157715" lon="-5.16776323318481">
        <ele>577</ele>
        <time>2019-05-12T00:20:31Z</time>
      </trkpt>
      <trkpt lat="36.7833671569824" lon="-5.1677451133728">
        <ele>577</ele>
        <time>2019-05-12T00:20:33Z</time>
      </trkpt>
      <trkpt lat="36.7833518981934" lon="-5.16772794723511">
        <ele>576</ele>
        <time>2019-05-12T00:20:35Z</time>
      </trkpt>
      <trkpt lat="36.7833366394043" lon="-5.1677131652832">
        <ele>576</ele>
        <time>2019-05-12T00:20:37Z</time>
      </trkpt>
      <trkpt lat="36.783317565918" lon="-5.16769790649414">
        <ele>576</ele>
        <time>2019-05-12T00:20:39Z</time>
      </trkpt>
      <trkpt lat="36.7832984924316" lon="-5.16768503189087">
        <ele>575</ele>
        <time>2019-05-12T00:20:41Z</time>
      </trkpt>
      <trkpt lat="36.7832832336426" lon="-5.16766977310181">
        <ele>575</ele>
        <time>2019-05-12T00:20:43Z</time>
      </trkpt>
      <trkpt lat="36.7832641601562" lon="-5.16765308380127">
        <ele>575</ele>
        <time>2019-05-12T00:20:45Z</time>
      </trkpt>
      <trkpt lat="36.7832450866699" lon="-5.167640209198">
        <ele>574</ele>
        <time>2019-05-12T00:20:47Z</time>
      </trkpt>
      <trkpt lat="36.7832260131836" lon="-5.16762685775757">
        <ele>574</ele>
        <time>2019-05-12T00:20:49Z</time>
      </trkpt>
      <trkpt lat="36.7832107543945" lon="-5.16761207580566">
        <ele>574</ele>
        <time>2019-05-12T00:20:51Z</time>
      </trkpt>
      <trkpt lat="36.7831916809082" lon="-5.1675968170166">
        <ele>573</ele>
        <time>2019-05-12T00:20:53Z</time>
      </trkpt>
      <trkpt lat="36.7831726074219" lon="-5.16758298873901">
        <ele>573</ele>
        <time>2019-05-12T00:20:55Z</time>
      </trkpt>
      <trkpt lat="36.7831535339356" lon="-5.16757202148438">
        <ele>573</ele>
        <time>2019-05-12T00:20:57Z</time>
      </trkpt>
      <trkpt lat="36.7831382751465" lon="-5.16756010055542">
        <ele>573</ele>
        <time>2019-05-12T00:20:59Z</time>
      </trkpt>
      <trkpt lat="36.7831230163574" lon="-5.1675500869751">
        <ele>572</ele>
        <time>2019-05-12T00:21:01Z</time>
      </trkpt>
      <trkpt lat="36.7831077575684" lon="-5.16753816604614">
        <ele>572</ele>
        <time>2019-05-12T00:21:03Z</time>
      </trkpt>
      <trkpt lat="36.783088684082" lon="-5.16752481460571">
        <ele>572</ele>
        <time>2019-05-12T00:21:05Z</time>
      </trkpt>
      <trkpt lat="36.783073425293" lon="-5.16751289367676">
        <ele>572</ele>
        <time>2019-05-12T00:21:07Z</time>
      </trkpt>
      <trkpt lat="36.7830543518066" lon="-5.16749811172485">
        <ele>571</ele>
        <time>2019-05-12T00:21:09Z</time>
      </trkpt>
      <trkpt lat="36.7830352783203" lon="-5.16748285293579">
        <ele>571</ele>
        <time>2019-05-12T00:21:11Z</time>
      </trkpt>
      <trkpt lat="36.783016204834" lon="-5.16746997833252">
        <ele>571</ele>
        <time>2019-05-12T00:21:13Z</time>
      </trkpt>
      <trkpt lat="36.7829971313477" lon="-5.16745710372925">
        <ele>571</ele>
        <time>2019-05-12T00:21:15Z</time>
      </trkpt>
      <trkpt lat="36.7829818725586" lon="-5.16744518280029">
        <ele>570</ele>
        <time>2019-05-12T00:21:17Z</time>
      </trkpt>
      <trkpt lat="36.7829627990723" lon="-5.16743278503418">
        <ele>570</ele>
        <time>2019-05-12T00:21:19Z</time>
      </trkpt>
      <trkpt lat="36.7829437255859" lon="-5.16742277145386">
        <ele>570</ele>
        <time>2019-05-12T00:21:21Z</time>
      </trkpt>
      <trkpt lat="36.7829246520996" lon="-5.16740798950195">
        <ele>569</ele>
        <time>2019-05-12T00:21:23Z</time>
      </trkpt>
      <trkpt lat="36.782901763916" lon="-5.16739320755005">
        <ele>569</ele>
        <time>2019-05-12T00:21:25Z</time>
      </trkpt>
      <trkpt lat="36.782886505127" lon="-5.16737985610962">
        <ele>569</ele>
        <time>2019-05-12T00:21:27Z</time>
      </trkpt>
      <trkpt lat="36.7828636169434" lon="-5.16736793518066">
        <ele>569</ele>
        <time>2019-05-12T00:21:29Z</time>
      </trkpt>
      <trkpt lat="36.782844543457" lon="-5.16735792160034">
        <ele>569</ele>
        <time>2019-05-12T00:21:31Z</time>
      </trkpt>
      <trkpt lat="36.7828254699707" lon="-5.1673469543457">
        <ele>569</ele>
        <time>2019-05-12T00:21:33Z</time>
      </trkpt>
      <trkpt lat="36.7828063964844" lon="-5.16733694076538">
        <ele>568</ele>
        <time>2019-05-12T00:21:35Z</time>
      </trkpt>
      <trkpt lat="36.782787322998" lon="-5.16732311248779">
        <ele>568</ele>
        <time>2019-05-12T00:21:37Z</time>
      </trkpt>
      <trkpt lat="36.7827682495117" lon="-5.16730785369873">
        <ele>568</ele>
        <time>2019-05-12T00:21:39Z</time>
      </trkpt>
      <trkpt lat="36.7827491760254" lon="-5.16729307174683">
        <ele>568</ele>
        <time>2019-05-12T00:21:41Z</time>
      </trkpt>
      <trkpt lat="36.7827262878418" lon="-5.16728210449219">
        <ele>568</ele>
        <time>2019-05-12T00:21:43Z</time>
      </trkpt>
      <trkpt lat="36.7827072143555" lon="-5.16726684570312">
        <ele>568</ele>
        <time>2019-05-12T00:21:45Z</time>
      </trkpt>
      <trkpt lat="36.7826919555664" lon="-5.16725015640259">
        <ele>568</ele>
        <time>2019-05-12T00:21:47Z</time>
      </trkpt>
      <trkpt lat="36.7826728820801" lon="-5.16723489761353">
        <ele>568</ele>
        <time>2019-05-12T00:21:49Z</time>
      </trkpt>
      <trkpt lat="36.782657623291" lon="-5.16722202301025">
        <ele>568</ele>
        <time>2019-05-12T00:21:51Z</time>
      </trkpt>
      <trkpt lat="36.782642364502" lon="-5.16720819473267">
        <ele>568</ele>
        <time>2019-05-12T00:21:53Z</time>
      </trkpt>
      <trkpt lat="36.7826232910156" lon="-5.16719722747803">
        <ele>567</ele>
        <time>2019-05-12T00:21:55Z</time>
      </trkpt>
      <trkpt lat="36.7826080322266" lon="-5.16718816757202">
        <ele>567</ele>
        <time>2019-05-12T00:21:57Z</time>
      </trkpt>
      <trkpt lat="36.7825736999512" lon="-5.16719818115234">
        <ele>567</ele>
        <time>2019-05-12T00:21:59Z</time>
      </trkpt>
      <trkpt lat="36.7825584411621" lon="-5.16721200942993">
        <ele>567</ele>
        <time>2019-05-12T00:22:02Z</time>
      </trkpt>
      <trkpt lat="36.7825393676758" lon="-5.16722679138184">
        <ele>566</ele>
        <time>2019-05-12T00:22:04Z</time>
      </trkpt>
      <trkpt lat="36.7825317382812" lon="-5.16723203659058">
        <ele>566</ele>
        <time>2019-05-12T00:22:06Z</time>
      </trkpt>
      <trkpt lat="36.782527923584" lon="-5.16723012924194">
        <ele>565</ele>
        <time>2019-05-12T00:22:10Z</time>
      </trkpt>
      <trkpt lat="36.782527923584" lon="-5.16722822189331">
        <ele>565</ele>
        <time>2019-05-12T00:22:12Z</time>
      </trkpt>
      <trkpt lat="36.7825202941894" lon="-5.16723012924194">
        <ele>564</ele>
        <time>2019-05-12T00:22:14Z</time>
      </trkpt>
      <trkpt lat="36.7825202941894" lon="-5.16722822189331">
        <ele>564</ele>
        <time>2019-05-12T00:22:16Z</time>
      </trkpt>
      <trkpt lat="36.7825164794922" lon="-5.16723012924194">
        <ele>564</ele>
        <time>2019-05-12T00:22:18Z</time>
      </trkpt>
      <trkpt lat="36.7825164794922" lon="-5.16722822189331">
        <ele>563</ele>
        <time>2019-05-12T00:22:20Z</time>
      </trkpt>
      <trkpt lat="36.7825088500977" lon="-5.16723012924194">
        <ele>563</ele>
        <time>2019-05-12T00:22:22Z</time>
      </trkpt>
      <trkpt lat="36.7825088500977" lon="-5.16722822189331">
        <ele>563</ele>
        <time>2019-05-12T00:22:24Z</time>
      </trkpt>
      <trkpt lat="36.7825050354004" lon="-5.16722822189331">
        <ele>563</ele>
        <time>2019-05-12T00:22:26Z</time>
      </trkpt>
      <trkpt lat="36.7824935913086" lon="-5.16723012924194">
        <ele>563</ele>
        <time>2019-05-12T00:22:28Z</time>
      </trkpt>
      <trkpt lat="36.7824859619141" lon="-5.1672420501709">
        <ele>562</ele>
        <time>2019-05-12T00:22:30Z</time>
      </trkpt>
      <trkpt lat="36.782470703125" lon="-5.1672568321228">
        <ele>562</ele>
        <time>2019-05-12T00:22:32Z</time>
      </trkpt>
      <trkpt lat="36.7824554443359" lon="-5.16727018356323">
        <ele>562</ele>
        <time>2019-05-12T00:22:34Z</time>
      </trkpt>
      <trkpt lat="36.7824440002441" lon="-5.16728496551514">
        <ele>562</ele>
        <time>2019-05-12T00:22:36Z</time>
      </trkpt>
      <trkpt lat="36.7824287414551" lon="-5.16729688644409">
        <ele>562</ele>
        <time>2019-05-12T00:22:38Z</time>
      </trkpt>
      <trkpt lat="36.782413482666" lon="-5.16731309890747">
        <ele>562</ele>
        <time>2019-05-12T00:22:40Z</time>
      </trkpt>
      <trkpt lat="36.782398223877" lon="-5.16732692718506">
        <ele>562</ele>
        <time>2019-05-12T00:22:42Z</time>
      </trkpt>
      <trkpt lat="36.7823829650879" lon="-5.16734504699707">
        <ele>562</ele>
        <time>2019-05-12T00:22:44Z</time>
      </trkpt>
      <trkpt lat="36.7823638916016" lon="-5.16735982894897">
        <ele>562</ele>
        <time>2019-05-12T00:22:46Z</time>
      </trkpt>
      <trkpt lat="36.7823448181152" lon="-5.16738176345825">
        <ele>562</ele>
        <time>2019-05-12T00:22:48Z</time>
      </trkpt>
      <trkpt lat="36.7823295593262" lon="-5.1674017906189">
        <ele>562</ele>
        <time>2019-05-12T00:22:50Z</time>
      </trkpt>
      <trkpt lat="36.7823104858398" lon="-5.16741991043091">
        <ele>562</ele>
        <time>2019-05-12T00:22:52Z</time>
      </trkpt>
      <trkpt lat="36.7822952270508" lon="-5.16743993759155">
        <ele>562</ele>
        <time>2019-05-12T00:22:54Z</time>
      </trkpt>
      <trkpt lat="36.7822761535644" lon="-5.16745710372925">
        <ele>562</ele>
        <time>2019-05-12T00:22:56Z</time>
      </trkpt>
      <trkpt lat="36.7822608947754" lon="-5.16747283935547">
        <ele>562</ele>
        <time>2019-05-12T00:22:58Z</time>
      </trkpt>
      <trkpt lat="36.7822418212891" lon="-5.16749000549316">
        <ele>562</ele>
        <time>2019-05-12T00:23:00Z</time>
      </trkpt>
      <trkpt lat="36.7822265625" lon="-5.16750812530518">
        <ele>562</ele>
        <time>2019-05-12T00:23:02Z</time>
      </trkpt>
      <trkpt lat="36.7822074890137" lon="-5.16752290725708">
        <ele>562</ele>
        <time>2019-05-12T00:23:04Z</time>
      </trkpt>
      <trkpt lat="36.7821884155273" lon="-5.16754007339478">
        <ele>562</ele>
        <time>2019-05-12T00:23:06Z</time>
      </trkpt>
      <trkpt lat="36.7821731567383" lon="-5.16755199432373">
        <ele>562</ele>
        <time>2019-05-12T00:23:08Z</time>
      </trkpt>
      <trkpt lat="36.782154083252" lon="-5.16756200790405">
        <ele>562</ele>
        <time>2019-05-12T00:23:10Z</time>
      </trkpt>
      <trkpt lat="36.7821350097656" lon="-5.16757297515869">
        <ele>562</ele>
        <time>2019-05-12T00:23:12Z</time>
      </trkpt>
      <trkpt lat="36.7821159362793" lon="-5.16758489608765">
        <ele>562</ele>
        <time>2019-05-12T00:23:14Z</time>
      </trkpt>
      <trkpt lat="36.782096862793" lon="-5.1675968170166">
        <ele>562</ele>
        <time>2019-05-12T00:23:16Z</time>
      </trkpt>
      <trkpt lat="36.7820777893066" lon="-5.16761016845703">
        <ele>562</ele>
        <time>2019-05-12T00:23:18Z</time>
      </trkpt>
      <trkpt lat="36.7820587158203" lon="-5.1676230430603">
        <ele>562</ele>
        <time>2019-05-12T00:23:20Z</time>
      </trkpt>
      <trkpt lat="36.782039642334" lon="-5.16763687133789">
        <ele>562</ele>
        <time>2019-05-12T00:23:22Z</time>
      </trkpt>
      <trkpt lat="36.7820167541504" lon="-5.16765213012695">
        <ele>562</ele>
        <time>2019-05-12T00:23:24Z</time>
      </trkpt>
      <trkpt lat="36.7819938659668" lon="-5.16766786575317">
        <ele>562</ele>
        <time>2019-05-12T00:23:26Z</time>
      </trkpt>
      <trkpt lat="36.7819747924805" lon="-5.16768503189087">
        <ele>562</ele>
        <time>2019-05-12T00:23:28Z</time>
      </trkpt>
      <trkpt lat="36.7819519042969" lon="-5.16769981384277">
        <ele>562</ele>
        <time>2019-05-12T00:23:30Z</time>
      </trkpt>
      <trkpt lat="36.7819290161133" lon="-5.1677131652832">
        <ele>562</ele>
        <time>2019-05-12T00:23:32Z</time>
      </trkpt>
      <trkpt lat="36.7819061279297" lon="-5.16772794723511">
        <ele>562</ele>
        <time>2019-05-12T00:23:34Z</time>
      </trkpt>
      <trkpt lat="36.7818832397461" lon="-5.16774320602417">
        <ele>562</ele>
        <time>2019-05-12T00:23:36Z</time>
      </trkpt>
      <trkpt lat="36.7818641662598" lon="-5.16775512695312">
        <ele>562</ele>
        <time>2019-05-12T00:23:38Z</time>
      </trkpt>
      <trkpt lat="36.7818412780762" lon="-5.16777181625366">
        <ele>562</ele>
        <time>2019-05-12T00:23:40Z</time>
      </trkpt>
      <trkpt lat="36.7818183898926" lon="-5.16778993606567">
        <ele>562</ele>
        <time>2019-05-12T00:23:42Z</time>
      </trkpt>
      <trkpt lat="36.7817993164062" lon="-5.16781187057495">
        <ele>562</ele>
        <time>2019-05-12T00:23:44Z</time>
      </trkpt>
      <trkpt lat="36.7817726135254" lon="-5.16784000396728">
        <ele>562</ele>
        <time>2019-05-12T00:23:46Z</time>
      </trkpt>
      <trkpt lat="36.7817497253418" lon="-5.1678581237793">
        <ele>562</ele>
        <time>2019-05-12T00:23:49Z</time>
      </trkpt>
      <trkpt lat="36.7817306518555" lon="-5.16788005828857">
        <ele>562</ele>
        <time>2019-05-12T00:23:51Z</time>
      </trkpt>
      <trkpt lat="36.7817115783691" lon="-5.16790008544922">
        <ele>562</ele>
        <time>2019-05-12T00:23:53Z</time>
      </trkpt>
      <trkpt lat="36.7816963195801" lon="-5.1679220199585">
        <ele>562</ele>
        <time>2019-05-12T00:23:55Z</time>
      </trkpt>
      <trkpt lat="36.7816772460938" lon="-5.16794300079346">
        <ele>562</ele>
        <time>2019-05-12T00:23:57Z</time>
      </trkpt>
      <trkpt lat="36.7816581726074" lon="-5.16796493530273">
        <ele>562</ele>
        <time>2019-05-12T00:23:59Z</time>
      </trkpt>
      <trkpt lat="36.7816429138184" lon="-5.16798782348633">
        <ele>562</ele>
        <time>2019-05-12T00:24:01Z</time>
      </trkpt>
      <trkpt lat="36.7816276550293" lon="-5.16801309585571">
        <ele>562</ele>
        <time>2019-05-12T00:24:03Z</time>
      </trkpt>
      <trkpt lat="36.7816123962402" lon="-5.16803789138794">
        <ele>562</ele>
        <time>2019-05-12T00:24:05Z</time>
      </trkpt>
      <trkpt lat="36.7816009521484" lon="-5.16806697845459">
        <ele>562</ele>
        <time>2019-05-12T00:24:07Z</time>
      </trkpt>
      <trkpt lat="36.7815856933594" lon="-5.16809511184692">
        <ele>562</ele>
        <time>2019-05-12T00:24:09Z</time>
      </trkpt>
      <trkpt lat="36.7815704345703" lon="-5.1681227684021">
        <ele>562</ele>
        <time>2019-05-12T00:24:11Z</time>
      </trkpt>
      <trkpt lat="36.7815628051758" lon="-5.16815519332886">
        <ele>562</ele>
        <time>2019-05-12T00:24:13Z</time>
      </trkpt>
      <trkpt lat="36.7815551757812" lon="-5.16819000244141">
        <ele>562</ele>
        <time>2019-05-12T00:24:15Z</time>
      </trkpt>
      <trkpt lat="36.781551361084" lon="-5.16822290420532">
        <ele>562</ele>
        <time>2019-05-12T00:24:17Z</time>
      </trkpt>
      <trkpt lat="36.781551361084" lon="-5.16825819015503">
        <ele>562</ele>
        <time>2019-05-12T00:24:19Z</time>
      </trkpt>
      <trkpt lat="36.781551361084" lon="-5.16829299926758">
        <ele>562</ele>
        <time>2019-05-12T00:24:21Z</time>
      </trkpt>
      <trkpt lat="36.781551361084" lon="-5.16832780838013">
        <ele>562</ele>
        <time>2019-05-12T00:24:23Z</time>
      </trkpt>
      <trkpt lat="36.7815437316894" lon="-5.16836214065552">
        <ele>562</ele>
        <time>2019-05-12T00:24:25Z</time>
      </trkpt>
      <trkpt lat="36.7815437316894" lon="-5.16839504241943">
        <ele>562</ele>
        <time>2019-05-12T00:24:27Z</time>
      </trkpt>
      <trkpt lat="36.7815361022949" lon="-5.16842699050903">
        <ele>562</ele>
        <time>2019-05-12T00:24:29Z</time>
      </trkpt>
      <trkpt lat="36.7815284729004" lon="-5.16845798492432">
        <ele>562</ele>
        <time>2019-05-12T00:24:31Z</time>
      </trkpt>
      <trkpt lat="36.7815208435059" lon="-5.16848802566528">
        <ele>562</ele>
        <time>2019-05-12T00:24:33Z</time>
      </trkpt>
      <trkpt lat="36.7815132141113" lon="-5.16851997375488">
        <ele>562</ele>
        <time>2019-05-12T00:24:35Z</time>
      </trkpt>
      <trkpt lat="36.7815093994141" lon="-5.16854810714722">
        <ele>562</ele>
        <time>2019-05-12T00:24:37Z</time>
      </trkpt>
      <trkpt lat="36.7815017700195" lon="-5.16857814788818">
        <ele>561</ele>
        <time>2019-05-12T00:24:39Z</time>
      </trkpt>
      <trkpt lat="36.7814979553223" lon="-5.16861009597778">
        <ele>561</ele>
        <time>2019-05-12T00:24:41Z</time>
      </trkpt>
      <trkpt lat="36.7814903259277" lon="-5.16864204406738">
        <ele>561</ele>
        <time>2019-05-12T00:24:43Z</time>
      </trkpt>
      <trkpt lat="36.7814826965332" lon="-5.1686749458313">
        <ele>561</ele>
        <time>2019-05-12T00:24:45Z</time>
      </trkpt>
      <trkpt lat="36.7814788818359" lon="-5.1687068939209">
        <ele>561</ele>
        <time>2019-05-12T00:24:47Z</time>
      </trkpt>
      <trkpt lat="36.7814712524414" lon="-5.16873693466186">
        <ele>561</ele>
        <time>2019-05-12T00:24:49Z</time>
      </trkpt>
      <trkpt lat="36.7814636230469" lon="-5.16876792907715">
        <ele>561</ele>
        <time>2019-05-12T00:24:51Z</time>
      </trkpt>
      <trkpt lat="36.7814559936523" lon="-5.16879796981812">
        <ele>561</ele>
        <time>2019-05-12T00:24:53Z</time>
      </trkpt>
      <trkpt lat="36.7814521789551" lon="-5.16883182525635">
        <ele>561</ele>
        <time>2019-05-12T00:24:55Z</time>
      </trkpt>
      <trkpt lat="36.7814483642578" lon="-5.16886520385742">
        <ele>561</ele>
        <time>2019-05-12T00:24:57Z</time>
      </trkpt>
      <trkpt lat="36.7814445495606" lon="-5.16889810562134">
        <ele>561</ele>
        <time>2019-05-12T00:24:59Z</time>
      </trkpt>
      <trkpt lat="36.781436920166" lon="-5.1689281463623">
        <ele>561</ele>
        <time>2019-05-12T00:25:01Z</time>
      </trkpt>
      <trkpt lat="36.7814292907715" lon="-5.1689600944519">
        <ele>561</ele>
        <time>2019-05-12T00:25:03Z</time>
      </trkpt>
      <trkpt lat="36.781421661377" lon="-5.1689920425415">
        <ele>561</ele>
        <time>2019-05-12T00:25:05Z</time>
      </trkpt>
      <trkpt lat="36.7814178466797" lon="-5.16902494430542">
        <ele>561</ele>
        <time>2019-05-12T00:25:07Z</time>
      </trkpt>
      <trkpt lat="36.7814178466797" lon="-5.16905784606934">
        <ele>561</ele>
        <time>2019-05-12T00:25:09Z</time>
      </trkpt>
      <trkpt lat="36.7814102172852" lon="-5.16908979415894">
        <ele>561</ele>
        <time>2019-05-12T00:25:11Z</time>
      </trkpt>
      <trkpt lat="36.7814064025879" lon="-5.16912317276001">
        <ele>561</ele>
        <time>2019-05-12T00:25:13Z</time>
      </trkpt>
      <trkpt lat="36.7814025878906" lon="-5.16915512084961">
        <ele>561</ele>
        <time>2019-05-12T00:25:15Z</time>
      </trkpt>
      <trkpt lat="36.7813949584961" lon="-5.16918802261353">
        <ele>561</ele>
        <time>2019-05-12T00:25:17Z</time>
      </trkpt>
      <trkpt lat="36.7813911437988" lon="-5.16921997070312">
        <ele>561</ele>
        <time>2019-05-12T00:25:19Z</time>
      </trkpt>
      <trkpt lat="36.7813873291016" lon="-5.16925191879272">
        <ele>561</ele>
        <time>2019-05-12T00:25:21Z</time>
      </trkpt>
      <trkpt lat="36.781379699707" lon="-5.16928291320801">
        <ele>561</ele>
        <time>2019-05-12T00:25:23Z</time>
      </trkpt>
      <trkpt lat="36.7813682556152" lon="-5.16933012008667">
        <ele>561</ele>
        <time>2019-05-12T00:25:25Z</time>
      </trkpt>
      <trkpt lat="36.7813606262207" lon="-5.16936206817627">
        <ele>561</ele>
        <time>2019-05-12T00:25:28Z</time>
      </trkpt>
      <trkpt lat="36.7813568115234" lon="-5.16939210891724">
        <ele>561</ele>
        <time>2019-05-12T00:25:30Z</time>
      </trkpt>
      <trkpt lat="36.7813491821289" lon="-5.1694221496582">
        <ele>561</ele>
        <time>2019-05-12T00:25:32Z</time>
      </trkpt>
      <trkpt lat="36.7813415527344" lon="-5.16945219039917">
        <ele>561</ele>
        <time>2019-05-12T00:25:34Z</time>
      </trkpt>
      <trkpt lat="36.7813377380371" lon="-5.16948318481445">
        <ele>561</ele>
        <time>2019-05-12T00:25:36Z</time>
      </trkpt>
      <trkpt lat="36.7813339233398" lon="-5.16951513290405">
        <ele>561</ele>
        <time>2019-05-12T00:25:38Z</time>
      </trkpt>
      <trkpt lat="36.7813262939453" lon="-5.16954517364502">
        <ele>561</ele>
        <time>2019-05-12T00:25:40Z</time>
      </trkpt>
      <trkpt lat="36.7813262939453" lon="-5.16957712173462">
        <ele>561</ele>
        <time>2019-05-12T00:25:42Z</time>
      </trkpt>
      <trkpt lat="36.7813262939453" lon="-5.1696081161499">
        <ele>561</ele>
        <time>2019-05-12T00:25:44Z</time>
      </trkpt>
      <trkpt lat="36.781322479248" lon="-5.16963481903076">
        <ele>561</ele>
        <time>2019-05-12T00:25:46Z</time>
      </trkpt>
      <trkpt lat="36.7813186645508" lon="-5.16964292526245">
        <ele>561</ele>
        <time>2019-05-12T00:25:48Z</time>
      </trkpt>
      <trkpt lat="36.7813110351562" lon="-5.1696629524231">
        <ele>561</ele>
        <time>2019-05-12T00:25:50Z</time>
      </trkpt>
      <trkpt lat="36.7813110351562" lon="-5.16969299316406">
        <ele>561</ele>
        <time>2019-05-12T00:25:52Z</time>
      </trkpt>
      <trkpt lat="36.7813186645508" lon="-5.16972303390503">
        <ele>561</ele>
        <time>2019-05-12T00:25:54Z</time>
      </trkpt>
      <trkpt lat="36.7813262939453" lon="-5.169753074646">
        <ele>561</ele>
        <time>2019-05-12T00:25:56Z</time>
      </trkpt>
      <trkpt lat="36.7813339233398" lon="-5.1697850227356">
        <ele>561</ele>
        <time>2019-05-12T00:25:58Z</time>
      </trkpt>
      <trkpt lat="36.7813415527344" lon="-5.16981506347656">
        <ele>561</ele>
        <time>2019-05-12T00:26:00Z</time>
      </trkpt>
      <trkpt lat="36.7813453674316" lon="-5.16984701156616">
        <ele>561</ele>
        <time>2019-05-12T00:26:02Z</time>
      </trkpt>
      <trkpt lat="36.7813491821289" lon="-5.16987800598144">
        <ele>561</ele>
        <time>2019-05-12T00:26:04Z</time>
      </trkpt>
      <trkpt lat="36.7813453674316" lon="-5.16990804672241">
        <ele>561</ele>
        <time>2019-05-12T00:26:06Z</time>
      </trkpt>
      <trkpt lat="36.7813377380371" lon="-5.16993522644043">
        <ele>561</ele>
        <time>2019-05-12T00:26:08Z</time>
      </trkpt>
      <trkpt lat="36.781322479248" lon="-5.16995811462402">
        <ele>561</ele>
        <time>2019-05-12T00:26:10Z</time>
      </trkpt>
      <trkpt lat="36.7813034057617" lon="-5.16998291015625">
        <ele>561</ele>
        <time>2019-05-12T00:26:12Z</time>
      </trkpt>
      <trkpt lat="36.7812843322754" lon="-5.17000722885132">
        <ele>561</ele>
        <time>2019-05-12T00:26:14Z</time>
      </trkpt>
      <trkpt lat="36.7812690734863" lon="-5.17002820968628">
        <ele>561</ele>
        <time>2019-05-12T00:26:16Z</time>
      </trkpt>
      <trkpt lat="36.7812538146973" lon="-5.17005300521851">
        <ele>561</ele>
        <time>2019-05-12T00:26:18Z</time>
      </trkpt>
      <trkpt lat="36.7812385559082" lon="-5.17008209228516">
        <ele>561</ele>
        <time>2019-05-12T00:26:20Z</time>
      </trkpt>
      <trkpt lat="36.7812194824219" lon="-5.17010307312012">
        <ele>561</ele>
        <time>2019-05-12T00:26:22Z</time>
      </trkpt>
      <trkpt lat="36.7812004089356" lon="-5.17012310028076">
        <ele>561</ele>
        <time>2019-05-12T00:26:24Z</time>
      </trkpt>
      <trkpt lat="36.7811813354492" lon="-5.17014312744141">
        <ele>561</ele>
        <time>2019-05-12T00:26:26Z</time>
      </trkpt>
      <trkpt lat="36.7811660766602" lon="-5.17016506195068">
        <ele>561</ele>
        <time>2019-05-12T00:26:28Z</time>
      </trkpt>
      <trkpt lat="36.7811508178711" lon="-5.17018795013428">
        <ele>561</ele>
        <time>2019-05-12T00:26:30Z</time>
      </trkpt>
      <trkpt lat="36.7811317443848" lon="-5.17021179199219">
        <ele>561</ele>
        <time>2019-05-12T00:26:32Z</time>
      </trkpt>
      <trkpt lat="36.7811164855957" lon="-5.17023277282715">
        <ele>561</ele>
        <time>2019-05-12T00:26:34Z</time>
      </trkpt>
      <trkpt lat="36.7811012268066" lon="-5.17025709152222">
        <ele>561</ele>
        <time>2019-05-12T00:26:36Z</time>
      </trkpt>
      <trkpt lat="36.7810821533203" lon="-5.17028188705444">
        <ele>561</ele>
        <time>2019-05-12T00:26:38Z</time>
      </trkpt>
      <trkpt lat="36.7810668945312" lon="-5.17030715942383">
        <ele>561</ele>
        <time>2019-05-12T00:26:40Z</time>
      </trkpt>
      <trkpt lat="36.7810478210449" lon="-5.17033004760742">
        <ele>561</ele>
        <time>2019-05-12T00:26:42Z</time>
      </trkpt>
      <trkpt lat="36.7810325622559" lon="-5.17035293579102">
        <ele>561</ele>
        <time>2019-05-12T00:26:44Z</time>
      </trkpt>
      <trkpt lat="36.7810134887695" lon="-5.1703782081604">
        <ele>561</ele>
        <time>2019-05-12T00:26:46Z</time>
      </trkpt>
      <trkpt lat="36.7809982299805" lon="-5.17040205001831">
        <ele>561</ele>
        <time>2019-05-12T00:26:48Z</time>
      </trkpt>
      <trkpt lat="36.7809791564941" lon="-5.1704249382019">
        <ele>561</ele>
        <time>2019-05-12T00:26:50Z</time>
      </trkpt>
      <trkpt lat="36.7809638977051" lon="-5.17044687271118">
        <ele>561</ele>
        <time>2019-05-12T00:26:52Z</time>
      </trkpt>
      <trkpt lat="36.7809448242188" lon="-5.17047214508057">
        <ele>562</ele>
        <time>2019-05-12T00:26:54Z</time>
      </trkpt>
      <trkpt lat="36.7809181213379" lon="-5.17050790786743">
        <ele>562</ele>
        <time>2019-05-12T00:26:56Z</time>
      </trkpt>
      <trkpt lat="36.7809028625488" lon="-5.1705322265625">
        <ele>562</ele>
        <time>2019-05-12T00:26:59Z</time>
      </trkpt>
      <trkpt lat="36.7808837890625" lon="-5.17055702209473">
        <ele>562</ele>
        <time>2019-05-12T00:27:01Z</time>
      </trkpt>
      <trkpt lat="36.7808647155762" lon="-5.17057991027832">
        <ele>562</ele>
        <time>2019-05-12T00:27:03Z</time>
      </trkpt>
      <trkpt lat="36.7808494567871" lon="-5.17060279846191">
        <ele>562</ele>
        <time>2019-05-12T00:27:05Z</time>
      </trkpt>
      <trkpt lat="36.7808303833008" lon="-5.17062520980835">
        <ele>562</ele>
        <time>2019-05-12T00:27:07Z</time>
      </trkpt>
      <trkpt lat="36.7808113098144" lon="-5.17064714431763">
        <ele>563</ele>
        <time>2019-05-12T00:27:09Z</time>
      </trkpt>
      <trkpt lat="36.7807922363281" lon="-5.17066812515259">
        <ele>563</ele>
        <time>2019-05-12T00:27:11Z</time>
      </trkpt>
      <trkpt lat="36.7807769775391" lon="-5.1706919670105">
        <ele>563</ele>
        <time>2019-05-12T00:27:13Z</time>
      </trkpt>
      <trkpt lat="36.7807579040527" lon="-5.17071676254272">
        <ele>563</ele>
        <time>2019-05-12T00:27:15Z</time>
      </trkpt>
      <trkpt lat="36.7807388305664" lon="-5.17073822021484">
        <ele>563</ele>
        <time>2019-05-12T00:27:17Z</time>
      </trkpt>
      <trkpt lat="36.7807235717773" lon="-5.17076206207275">
        <ele>563</ele>
        <time>2019-05-12T00:27:19Z</time>
      </trkpt>
      <trkpt lat="36.7807083129883" lon="-5.17078495025635">
        <ele>564</ele>
        <time>2019-05-12T00:27:21Z</time>
      </trkpt>
      <trkpt lat="36.780689239502" lon="-5.17080497741699">
        <ele>564</ele>
        <time>2019-05-12T00:27:23Z</time>
      </trkpt>
      <trkpt lat="36.7806701660156" lon="-5.17082500457764">
        <ele>564</ele>
        <time>2019-05-12T00:27:25Z</time>
      </trkpt>
      <trkpt lat="36.7806549072266" lon="-5.17084503173828">
        <ele>564</ele>
        <time>2019-05-12T00:27:27Z</time>
      </trkpt>
      <trkpt lat="36.7806358337402" lon="-5.17086696624756">
        <ele>564</ele>
        <time>2019-05-12T00:27:29Z</time>
      </trkpt>
      <trkpt lat="36.7806167602539" lon="-5.17088985443115">
        <ele>564</ele>
        <time>2019-05-12T00:27:31Z</time>
      </trkpt>
      <trkpt lat="36.7805976867676" lon="-5.17091512680054">
        <ele>564</ele>
        <time>2019-05-12T00:27:33Z</time>
      </trkpt>
      <trkpt lat="36.7805824279785" lon="-5.17093801498413">
        <ele>564</ele>
        <time>2019-05-12T00:27:35Z</time>
      </trkpt>
      <trkpt lat="36.7805633544922" lon="-5.17096185684204">
        <ele>564</ele>
        <time>2019-05-12T00:27:37Z</time>
      </trkpt>
      <trkpt lat="36.7805442810059" lon="-5.17098712921143">
        <ele>564</ele>
        <time>2019-05-12T00:27:39Z</time>
      </trkpt>
      <trkpt lat="36.7805213928223" lon="-5.17101001739502">
        <ele>564</ele>
        <time>2019-05-12T00:27:41Z</time>
      </trkpt>
      <trkpt lat="36.7805061340332" lon="-5.17103481292725">
        <ele>564</ele>
        <time>2019-05-12T00:27:43Z</time>
      </trkpt>
      <trkpt lat="36.7804870605469" lon="-5.17106008529663">
        <ele>564</ele>
        <time>2019-05-12T00:27:45Z</time>
      </trkpt>
      <trkpt lat="36.7804679870606" lon="-5.17108678817749">
        <ele>564</ele>
        <time>2019-05-12T00:27:47Z</time>
      </trkpt>
      <trkpt lat="36.7804489135742" lon="-5.17111206054688">
        <ele>564</ele>
        <time>2019-05-12T00:27:49Z</time>
      </trkpt>
      <trkpt lat="36.7804298400879" lon="-5.1711368560791">
        <ele>564</ele>
        <time>2019-05-12T00:27:51Z</time>
      </trkpt>
      <trkpt lat="36.7804107666016" lon="-5.17116212844849">
        <ele>564</ele>
        <time>2019-05-12T00:27:53Z</time>
      </trkpt>
      <trkpt lat="36.7803916931152" lon="-5.17118787765503">
        <ele>564</ele>
        <time>2019-05-12T00:27:55Z</time>
      </trkpt>
      <trkpt lat="36.7803764343262" lon="-5.1712121963501">
        <ele>564</ele>
        <time>2019-05-12T00:27:57Z</time>
      </trkpt>
      <trkpt lat="36.7803611755371" lon="-5.17122983932495">
        <ele>564</ele>
        <time>2019-05-12T00:27:59Z</time>
      </trkpt>
      <trkpt lat="36.7803497314453" lon="-5.17124795913696">
        <ele>564</ele>
        <time>2019-05-12T00:28:01Z</time>
      </trkpt>
      <trkpt lat="36.7803344726562" lon="-5.17127323150635">
        <ele>564</ele>
        <time>2019-05-12T00:28:03Z</time>
      </trkpt>
      <trkpt lat="36.7803192138672" lon="-5.17130184173584">
        <ele>564</ele>
        <time>2019-05-12T00:28:05Z</time>
      </trkpt>
      <trkpt lat="36.7803039550781" lon="-5.17132806777954">
        <ele>564</ele>
        <time>2019-05-12T00:28:07Z</time>
      </trkpt>
      <trkpt lat="36.7802848815918" lon="-5.17135190963745">
        <ele>564</ele>
        <time>2019-05-12T00:28:09Z</time>
      </trkpt>
      <trkpt lat="36.7802696228027" lon="-5.17138004302978">
        <ele>564</ele>
        <time>2019-05-12T00:28:11Z</time>
      </trkpt>
      <trkpt lat="36.7802543640137" lon="-5.17140483856201">
        <ele>564</ele>
        <time>2019-05-12T00:28:13Z</time>
      </trkpt>
      <trkpt lat="36.7802352905273" lon="-5.1714301109314">
        <ele>564</ele>
        <time>2019-05-12T00:28:15Z</time>
      </trkpt>
      <trkpt lat="36.7802238464356" lon="-5.17145490646362">
        <ele>564</ele>
        <time>2019-05-12T00:28:17Z</time>
      </trkpt>
      <trkpt lat="36.7802085876465" lon="-5.17148017883301">
        <ele>564</ele>
        <time>2019-05-12T00:28:19Z</time>
      </trkpt>
      <trkpt lat="36.7801895141602" lon="-5.17150497436523">
        <ele>564</ele>
        <time>2019-05-12T00:28:21Z</time>
      </trkpt>
      <trkpt lat="36.7801742553711" lon="-5.17153310775757">
        <ele>564</ele>
        <time>2019-05-12T00:28:23Z</time>
      </trkpt>
      <trkpt lat="36.780158996582" lon="-5.17155981063843">
        <ele>564</ele>
        <time>2019-05-12T00:28:25Z</time>
      </trkpt>
      <trkpt lat="36.780143737793" lon="-5.17158794403076">
        <ele>564</ele>
        <time>2019-05-12T00:28:27Z</time>
      </trkpt>
      <trkpt lat="36.7801284790039" lon="-5.17161512374878">
        <ele>564</ele>
        <time>2019-05-12T00:28:29Z</time>
      </trkpt>
      <trkpt lat="36.7801132202148" lon="-5.17164182662964">
        <ele>564</ele>
        <time>2019-05-12T00:28:31Z</time>
      </trkpt>
      <trkpt lat="36.7800979614258" lon="-5.17166519165039">
        <ele>564</ele>
        <time>2019-05-12T00:28:33Z</time>
      </trkpt>
      <trkpt lat="36.7800750732422" lon="-5.17170190811157">
        <ele>564</ele>
        <time>2019-05-12T00:28:36Z</time>
      </trkpt>
      <trkpt lat="36.7800598144531" lon="-5.17172479629517">
        <ele>564</ele>
        <time>2019-05-12T00:28:38Z</time>
      </trkpt>
      <trkpt lat="36.7800407409668" lon="-5.17175006866455">
        <ele>564</ele>
        <time>2019-05-12T00:28:40Z</time>
      </trkpt>
      <trkpt lat="36.7800254821777" lon="-5.17177295684814">
        <ele>565</ele>
        <time>2019-05-12T00:28:42Z</time>
      </trkpt>
      <trkpt lat="36.7800102233887" lon="-5.17179822921753">
        <ele>565</ele>
        <time>2019-05-12T00:28:44Z</time>
      </trkpt>
      <trkpt lat="36.7799987792969" lon="-5.17182493209839">
        <ele>565</ele>
        <time>2019-05-12T00:28:46Z</time>
      </trkpt>
      <trkpt lat="36.7799835205078" lon="-5.17185211181641">
        <ele>565</ele>
        <time>2019-05-12T00:28:48Z</time>
      </trkpt>
      <trkpt lat="36.7799682617188" lon="-5.17187309265137">
        <ele>565</ele>
        <time>2019-05-12T00:28:50Z</time>
      </trkpt>
      <trkpt lat="36.779956817627" lon="-5.17188692092896">
        <ele>565</ele>
        <time>2019-05-12T00:28:52Z</time>
      </trkpt>
      <trkpt lat="36.7799453735352" lon="-5.17189979553223">
        <ele>565</ele>
        <time>2019-05-12T00:28:54Z</time>
      </trkpt>
      <trkpt lat="36.7799415588379" lon="-5.17190790176392">
        <ele>565</ele>
        <time>2019-05-12T00:28:56Z</time>
      </trkpt>
      <trkpt lat="36.7799377441406" lon="-5.17191314697266">
        <ele>565</ele>
        <time>2019-05-12T00:28:58Z</time>
      </trkpt>
      <trkpt lat="36.7799377441406" lon="-5.17191791534424">
        <ele>565</ele>
        <time>2019-05-12T00:29:00Z</time>
      </trkpt>
      <trkpt lat="36.7799377441406" lon="-5.17192792892456">
        <ele>565</ele>
        <time>2019-05-12T00:29:02Z</time>
      </trkpt>
      <trkpt lat="36.7799224853516" lon="-5.17194986343384">
        <ele>565</ele>
        <time>2019-05-12T00:29:04Z</time>
      </trkpt>
      <trkpt lat="36.7799110412598" lon="-5.17197799682617">
        <ele>565</ele>
        <time>2019-05-12T00:29:06Z</time>
      </trkpt>
      <trkpt lat="36.7798957824707" lon="-5.17200803756714">
        <ele>565</ele>
        <time>2019-05-12T00:29:08Z</time>
      </trkpt>
      <trkpt lat="36.7798767089844" lon="-5.17203998565674">
        <ele>565</ele>
        <time>2019-05-12T00:29:10Z</time>
      </trkpt>
      <trkpt lat="36.7798614501953" lon="-5.17206811904907">
        <ele>565</ele>
        <time>2019-05-12T00:29:12Z</time>
      </trkpt>
      <trkpt lat="36.7798461914062" lon="-5.17209815979004">
        <ele>565</ele>
        <time>2019-05-12T00:29:14Z</time>
      </trkpt>
      <trkpt lat="36.7798271179199" lon="-5.17212820053101">
        <ele>565</ele>
        <time>2019-05-12T00:29:16Z</time>
      </trkpt>
      <trkpt lat="36.7798156738281" lon="-5.1721568107605">
        <ele>565</ele>
        <time>2019-05-12T00:29:18Z</time>
      </trkpt>
      <trkpt lat="36.7798004150391" lon="-5.17218494415283">
        <ele>565</ele>
        <time>2019-05-12T00:29:20Z</time>
      </trkpt>
      <trkpt lat="36.7797813415527" lon="-5.17221307754517">
        <ele>565</ele>
        <time>2019-05-12T00:29:22Z</time>
      </trkpt>
      <trkpt lat="36.7797660827637" lon="-5.17223978042603">
        <ele>565</ele>
        <time>2019-05-12T00:29:24Z</time>
      </trkpt>
      <trkpt lat="36.7797470092773" lon="-5.17226791381836">
        <ele>565</ele>
        <time>2019-05-12T00:29:26Z</time>
      </trkpt>
      <trkpt lat="36.7797317504883" lon="-5.17229318618774">
        <ele>565</ele>
        <time>2019-05-12T00:29:28Z</time>
      </trkpt>
      <trkpt lat="36.779712677002" lon="-5.17232179641724">
        <ele>565</ele>
        <time>2019-05-12T00:29:30Z</time>
      </trkpt>
      <trkpt lat="36.7796936035156" lon="-5.17234992980957">
        <ele>565</ele>
        <time>2019-05-12T00:29:32Z</time>
      </trkpt>
      <trkpt lat="36.7796783447266" lon="-5.1723780632019">
        <ele>565</ele>
        <time>2019-05-12T00:29:34Z</time>
      </trkpt>
      <trkpt lat="36.7796630859375" lon="-5.17240715026856">
        <ele>565</ele>
        <time>2019-05-12T00:29:36Z</time>
      </trkpt>
      <trkpt lat="36.7796478271484" lon="-5.1724328994751">
        <ele>565</ele>
        <time>2019-05-12T00:29:38Z</time>
      </trkpt>
      <trkpt lat="36.7796287536621" lon="-5.17246294021606">
        <ele>565</ele>
        <time>2019-05-12T00:29:40Z</time>
      </trkpt>
      <trkpt lat="36.779613494873" lon="-5.17249202728272">
        <ele>565</ele>
        <time>2019-05-12T00:29:42Z</time>
      </trkpt>
      <trkpt lat="36.779598236084" lon="-5.17252206802368">
        <ele>565</ele>
        <time>2019-05-12T00:29:44Z</time>
      </trkpt>
      <trkpt lat="36.7795791625977" lon="-5.17254781723022">
        <ele>565</ele>
        <time>2019-05-12T00:29:46Z</time>
      </trkpt>
      <trkpt lat="36.7795639038086" lon="-5.17257499694824">
        <ele>565</ele>
        <time>2019-05-12T00:29:48Z</time>
      </trkpt>
      <trkpt lat="36.7795448303223" lon="-5.17260313034058">
        <ele>565</ele>
        <time>2019-05-12T00:29:50Z</time>
      </trkpt>
      <trkpt lat="36.7795295715332" lon="-5.17262983322144">
        <ele>565</ele>
        <time>2019-05-12T00:29:52Z</time>
      </trkpt>
      <trkpt lat="36.7795104980469" lon="-5.17265701293945">
        <ele>565</ele>
        <time>2019-05-12T00:29:54Z</time>
      </trkpt>
      <trkpt lat="36.7794914245606" lon="-5.17268514633179">
        <ele>565</ele>
        <time>2019-05-12T00:29:56Z</time>
      </trkpt>
      <trkpt lat="36.7794761657715" lon="-5.17271184921265">
        <ele>565</ele>
        <time>2019-05-12T00:29:58Z</time>
      </trkpt>
      <trkpt lat="36.7794609069824" lon="-5.17273998260498">
        <ele>565</ele>
        <time>2019-05-12T00:30:00Z</time>
      </trkpt>
      <trkpt lat="36.7794418334961" lon="-5.17276811599731">
        <ele>565</ele>
        <time>2019-05-12T00:30:02Z</time>
      </trkpt>
      <trkpt lat="36.779426574707" lon="-5.17280006408691">
        <ele>565</ele>
        <time>2019-05-12T00:30:04Z</time>
      </trkpt>
      <trkpt lat="36.779411315918" lon="-5.17282819747925">
        <ele>565</ele>
        <time>2019-05-12T00:30:06Z</time>
      </trkpt>
      <trkpt lat="36.7793922424316" lon="-5.17285680770874">
        <ele>565</ele>
        <time>2019-05-12T00:30:08Z</time>
      </trkpt>
      <trkpt lat="36.7793769836426" lon="-5.17288684844971">
        <ele>565</ele>
        <time>2019-05-12T00:30:10Z</time>
      </trkpt>
      <trkpt lat="36.779354095459" lon="-5.17292976379394">
        <ele>565</ele>
        <time>2019-05-12T00:30:13Z</time>
      </trkpt>
      <trkpt lat="36.7793464660644" lon="-5.17296314239502">
        <ele>565</ele>
        <time>2019-05-12T00:30:15Z</time>
      </trkpt>
      <trkpt lat="36.7793464660644" lon="-5.17299699783325">
        <ele>565</ele>
        <time>2019-05-12T00:30:17Z</time>
      </trkpt>
      <trkpt lat="36.7793464660644" lon="-5.17302799224854">
        <ele>565</ele>
        <time>2019-05-12T00:30:19Z</time>
      </trkpt>
      <trkpt lat="36.7793579101562" lon="-5.17305707931519">
        <ele>565</ele>
        <time>2019-05-12T00:30:21Z</time>
      </trkpt>
      <trkpt lat="36.7793731689453" lon="-5.17307806015015">
        <ele>565</ele>
        <time>2019-05-12T00:30:23Z</time>
      </trkpt>
      <trkpt lat="36.7793884277344" lon="-5.17309284210205">
        <ele>565</ele>
        <time>2019-05-12T00:30:25Z</time>
      </trkpt>
      <trkpt lat="36.7794075012207" lon="-5.17311191558838">
        <ele>565</ele>
        <time>2019-05-12T00:30:27Z</time>
      </trkpt>
      <trkpt lat="36.779426574707" lon="-5.1731219291687">
        <ele>565</ele>
        <time>2019-05-12T00:30:29Z</time>
      </trkpt>
      <trkpt lat="36.7794532775879" lon="-5.17312717437744">
        <ele>565</ele>
        <time>2019-05-12T00:30:31Z</time>
      </trkpt>
      <trkpt lat="36.7794761657715" lon="-5.17313194274902">
        <ele>565</ele>
        <time>2019-05-12T00:30:33Z</time>
      </trkpt>
      <trkpt lat="36.7794990539551" lon="-5.17314004898071">
        <ele>565</ele>
        <time>2019-05-12T00:30:35Z</time>
      </trkpt>
      <trkpt lat="36.7795219421387" lon="-5.17315006256104">
        <ele>565</ele>
        <time>2019-05-12T00:30:37Z</time>
      </trkpt>
      <trkpt lat="36.7795448303223" lon="-5.17316198348999">
        <ele>565</ele>
        <time>2019-05-12T00:30:39Z</time>
      </trkpt>
      <trkpt lat="36.7795677185059" lon="-5.17317199707031">
        <ele>565</ele>
        <time>2019-05-12T00:30:41Z</time>
      </trkpt>
      <trkpt lat="36.7795906066894" lon="-5.17318487167358">
        <ele>565</ele>
        <time>2019-05-12T00:30:43Z</time>
      </trkpt>
      <trkpt lat="36.779613494873" lon="-5.17319679260254">
        <ele>565</ele>
        <time>2019-05-12T00:30:45Z</time>
      </trkpt>
      <trkpt lat="36.7796363830566" lon="-5.17321014404297">
        <ele>565</ele>
        <time>2019-05-12T00:30:47Z</time>
      </trkpt>
      <trkpt lat="36.7796592712402" lon="-5.17322492599487">
        <ele>565</ele>
        <time>2019-05-12T00:30:49Z</time>
      </trkpt>
      <trkpt lat="36.7796821594238" lon="-5.17323780059814">
        <ele>565</ele>
        <time>2019-05-12T00:30:51Z</time>
      </trkpt>
      <trkpt lat="36.7797088623047" lon="-5.17325210571289">
        <ele>565</ele>
        <time>2019-05-12T00:30:53Z</time>
      </trkpt>
      <trkpt lat="36.7797317504883" lon="-5.1732668876648">
        <ele>565</ele>
        <time>2019-05-12T00:30:55Z</time>
      </trkpt>
      <trkpt lat="36.7797546386719" lon="-5.17327785491943">
        <ele>565</ele>
        <time>2019-05-12T00:30:57Z</time>
      </trkpt>
      <trkpt lat="36.7797775268555" lon="-5.17328977584839">
        <ele>565</ele>
        <time>2019-05-12T00:30:59Z</time>
      </trkpt>
      <trkpt lat="36.7798004150391" lon="-5.1733021736145">
        <ele>565</ele>
        <time>2019-05-12T00:31:01Z</time>
      </trkpt>
      <trkpt lat="36.7798233032227" lon="-5.17331504821777">
        <ele>565</ele>
        <time>2019-05-12T00:31:03Z</time>
      </trkpt>
      <trkpt lat="36.7798461914062" lon="-5.17332792282104">
        <ele>565</ele>
        <time>2019-05-12T00:31:05Z</time>
      </trkpt>
      <trkpt lat="36.7798728942871" lon="-5.17333984375">
        <ele>565</ele>
        <time>2019-05-12T00:31:07Z</time>
      </trkpt>
      <trkpt lat="36.7798957824707" lon="-5.17335176467896">
        <ele>565</ele>
        <time>2019-05-12T00:31:09Z</time>
      </trkpt>
      <trkpt lat="36.7799186706543" lon="-5.17336177825928">
        <ele>565</ele>
        <time>2019-05-12T00:31:11Z</time>
      </trkpt>
      <trkpt lat="36.7799415588379" lon="-5.17336988449097">
        <ele>565</ele>
        <time>2019-05-12T00:31:13Z</time>
      </trkpt>
      <trkpt lat="36.7799682617188" lon="-5.17338180541992">
        <ele>565</ele>
        <time>2019-05-12T00:31:15Z</time>
      </trkpt>
      <trkpt lat="36.7799911499023" lon="-5.17339181900024">
        <ele>565</ele>
        <time>2019-05-12T00:31:17Z</time>
      </trkpt>
      <trkpt lat="36.7800140380859" lon="-5.17339992523193">
        <ele>565</ele>
        <time>2019-05-12T00:31:19Z</time>
      </trkpt>
      <trkpt lat="36.7800407409668" lon="-5.17340803146362">
        <ele>565</ele>
        <time>2019-05-12T00:31:21Z</time>
      </trkpt>
      <trkpt lat="36.7800636291504" lon="-5.17341995239258">
        <ele>565</ele>
        <time>2019-05-12T00:31:23Z</time>
      </trkpt>
      <trkpt lat="36.7800903320312" lon="-5.17343282699585">
        <ele>565</ele>
        <time>2019-05-12T00:31:25Z</time>
      </trkpt>
      <trkpt lat="36.7801094055176" lon="-5.17345285415649">
        <ele>565</ele>
        <time>2019-05-12T00:31:27Z</time>
      </trkpt>
      <trkpt lat="36.7801208496094" lon="-5.17348003387451">
        <ele>565</ele>
        <time>2019-05-12T00:31:29Z</time>
      </trkpt>
      <trkpt lat="36.7801322937012" lon="-5.17351007461548">
        <ele>565</ele>
        <time>2019-05-12T00:31:31Z</time>
      </trkpt>
      <trkpt lat="36.7801322937012" lon="-5.17353820800781">
        <ele>565</ele>
        <time>2019-05-12T00:31:33Z</time>
      </trkpt>
      <trkpt lat="36.7801284790039" lon="-5.1735668182373">
        <ele>565</ele>
        <time>2019-05-12T00:31:35Z</time>
      </trkpt>
      <trkpt lat="36.7801208496094" lon="-5.17359495162964">
        <ele>565</ele>
        <time>2019-05-12T00:31:37Z</time>
      </trkpt>
      <trkpt lat="36.7801055908203" lon="-5.17363691329956">
        <ele>565</ele>
        <time>2019-05-12T00:31:39Z</time>
      </trkpt>
      <trkpt lat="36.7800979614258" lon="-5.17364978790283">
        <ele>565</ele>
        <time>2019-05-12T00:31:41Z</time>
      </trkpt>
      <trkpt lat="36.780086517334" lon="-5.17367696762085">
        <ele>565</ele>
        <time>2019-05-12T00:31:43Z</time>
      </trkpt>
      <trkpt lat="36.7800712585449" lon="-5.17371797561646">
        <ele>565</ele>
        <time>2019-05-12T00:31:46Z</time>
      </trkpt>
      <trkpt lat="36.7800598144531" lon="-5.17374515533447">
        <ele>565</ele>
        <time>2019-05-12T00:31:48Z</time>
      </trkpt>
      <trkpt lat="36.7800445556641" lon="-5.17377281188965">
        <ele>565</ele>
        <time>2019-05-12T00:31:50Z</time>
      </trkpt>
      <trkpt lat="36.7800331115723" lon="-5.17380285263062">
        <ele>565</ele>
        <time>2019-05-12T00:31:52Z</time>
      </trkpt>
      <trkpt lat="36.7800216674805" lon="-5.173828125">
        <ele>565</ele>
        <time>2019-05-12T00:31:54Z</time>
      </trkpt>
      <trkpt lat="36.7800025939941" lon="-5.17385196685791">
        <ele>566</ele>
        <time>2019-05-12T00:31:56Z</time>
      </trkpt>
      <trkpt lat="36.7799873352051" lon="-5.17387676239014">
        <ele>566</ele>
        <time>2019-05-12T00:31:58Z</time>
      </trkpt>
      <trkpt lat="36.7799758911133" lon="-5.17390298843384">
        <ele>566</ele>
        <time>2019-05-12T00:32:00Z</time>
      </trkpt>
      <trkpt lat="36.7799644470215" lon="-5.1739330291748">
        <ele>566</ele>
        <time>2019-05-12T00:32:02Z</time>
      </trkpt>
      <trkpt lat="36.779956817627" lon="-5.17396211624146">
        <ele>566</ele>
        <time>2019-05-12T00:32:04Z</time>
      </trkpt>
      <trkpt lat="36.7799453735352" lon="-5.173987865448">
        <ele>566</ele>
        <time>2019-05-12T00:32:06Z</time>
      </trkpt>
      <trkpt lat="36.7799377441406" lon="-5.17401218414307">
        <ele>566</ele>
        <time>2019-05-12T00:32:08Z</time>
      </trkpt>
      <trkpt lat="36.7799377441406" lon="-5.1740231513977">
        <ele>566</ele>
        <time>2019-05-12T00:32:10Z</time>
      </trkpt>
      <trkpt lat="36.7799339294434" lon="-5.17402791976929">
        <ele>566</ele>
        <time>2019-05-12T00:32:12Z</time>
      </trkpt>
      <trkpt lat="36.7799377441406" lon="-5.17402791976929">
        <ele>566</ele>
        <time>2019-05-12T00:32:14Z</time>
      </trkpt>
      <trkpt lat="36.7799377441406" lon="-5.17403221130371">
        <ele>566</ele>
        <time>2019-05-12T00:32:16Z</time>
      </trkpt>
      <trkpt lat="36.7799377441406" lon="-5.17403316497803">
        <ele>566</ele>
        <time>2019-05-12T00:32:18Z</time>
      </trkpt>
      <trkpt lat="36.7799377441406" lon="-5.17403507232666">
        <ele>566</ele>
        <time>2019-05-12T00:32:20Z</time>
      </trkpt>
      <trkpt lat="36.7799377441406" lon="-5.17403507232666">
        <ele>566</ele>
        <time>2019-05-12T00:32:22Z</time>
      </trkpt>
      <trkpt lat="36.7799377441406" lon="-5.17403507232666">
        <ele>566</ele>
        <time>2019-05-12T00:32:24Z</time>
      </trkpt>
      <trkpt lat="36.7799377441406" lon="-5.17403697967529">
        <ele>566</ele>
        <time>2019-05-12T00:32:26Z</time>
      </trkpt>
      <trkpt lat="36.7799377441406" lon="-5.17403793334961">
        <ele>566</ele>
        <time>2019-05-12T00:32:28Z</time>
      </trkpt>
      <trkpt lat="36.7799377441406" lon="-5.17403793334961">
        <ele>566</ele>
        <time>2019-05-12T00:32:30Z</time>
      </trkpt>
      <trkpt lat="36.7799377441406" lon="-5.17403793334961">
        <ele>566</ele>
        <time>2019-05-12T00:32:32Z</time>
      </trkpt>
      <trkpt lat="36.7799377441406" lon="-5.17403984069824">
        <ele>566</ele>
        <time>2019-05-12T00:32:34Z</time>
      </trkpt>
      <trkpt lat="36.7799377441406" lon="-5.17403984069824">
        <ele>566</ele>
        <time>2019-05-12T00:32:36Z</time>
      </trkpt>
      <trkpt lat="36.7799377441406" lon="-5.17404222488403">
        <ele>566</ele>
        <time>2019-05-12T00:32:38Z</time>
      </trkpt>
      <trkpt lat="36.7799377441406" lon="-5.17404508590698">
        <ele>566</ele>
        <time>2019-05-12T00:32:40Z</time>
      </trkpt>
      <trkpt lat="36.7799339294434" lon="-5.17404794692993">
        <ele>566</ele>
        <time>2019-05-12T00:32:42Z</time>
      </trkpt>
      <trkpt lat="36.7799301147461" lon="-5.17404794692993">
        <ele>566</ele>
        <time>2019-05-12T00:32:44Z</time>
      </trkpt>
      <trkpt lat="36.7799301147461" lon="-5.17404794692993">
        <ele>566</ele>
        <time>2019-05-12T00:32:46Z</time>
      </trkpt>
      <trkpt lat="36.7799301147461" lon="-5.17404985427856">
        <ele>566</ele>
        <time>2019-05-12T00:32:48Z</time>
      </trkpt>
      <trkpt lat="36.7799301147461" lon="-5.17404985427856">
        <ele>566</ele>
        <time>2019-05-12T00:32:50Z</time>
      </trkpt>
      <trkpt lat="36.7799301147461" lon="-5.1740517616272">
        <ele>566</ele>
        <time>2019-05-12T00:32:52Z</time>
      </trkpt>
      <trkpt lat="36.7799301147461" lon="-5.17404985427856">
        <ele>566</ele>
        <time>2019-05-12T00:32:54Z</time>
      </trkpt>
      <trkpt lat="36.7799301147461" lon="-5.1740517616272">
        <ele>566</ele>
        <time>2019-05-12T00:32:56Z</time>
      </trkpt>
      <trkpt lat="36.7799301147461" lon="-5.1740517616272">
        <ele>566</ele>
        <time>2019-05-12T00:32:58Z</time>
      </trkpt>
      <trkpt lat="36.7799301147461" lon="-5.17405319213867">
        <ele>566</ele>
        <time>2019-05-12T00:33:00Z</time>
      </trkpt>
      <trkpt lat="36.7799301147461" lon="-5.17405319213867">
        <ele>566</ele>
        <time>2019-05-12T00:33:02Z</time>
      </trkpt>
      <trkpt lat="36.7799301147461" lon="-5.1740550994873">
        <ele>566</ele>
        <time>2019-05-12T00:33:04Z</time>
      </trkpt>
      <trkpt lat="36.7799301147461" lon="-5.1740550994873">
        <ele>566</ele>
        <time>2019-05-12T00:33:06Z</time>
      </trkpt>
      <trkpt lat="36.7799301147461" lon="-5.1740550994873">
        <ele>566</ele>
        <time>2019-05-12T00:33:08Z</time>
      </trkpt>
      <trkpt lat="36.7799301147461" lon="-5.1740550994873">
        <ele>566</ele>
        <time>2019-05-12T00:33:10Z</time>
      </trkpt>
      <trkpt lat="36.7799301147461" lon="-5.1740550994873">
        <ele>566</ele>
        <time>2019-05-12T00:33:12Z</time>
      </trkpt>
      <trkpt lat="36.7799301147461" lon="-5.1740550994873">
        <ele>566</ele>
        <time>2019-05-12T00:33:14Z</time>
      </trkpt>
      <trkpt lat="36.7799339294434" lon="-5.17405700683594">
        <ele>566</ele>
        <time>2019-05-12T00:33:16Z</time>
      </trkpt>
      <trkpt lat="36.7799339294434" lon="-5.17405700683594">
        <ele>566</ele>
        <time>2019-05-12T00:33:18Z</time>
      </trkpt>
      <trkpt lat="36.7799339294434" lon="-5.17405700683594">
        <ele>566</ele>
        <time>2019-05-12T00:33:20Z</time>
      </trkpt>
      <trkpt lat="36.7799301147461" lon="-5.17405700683594">
        <ele>566</ele>
        <time>2019-05-12T00:33:22Z</time>
      </trkpt>
      <trkpt lat="36.7799301147461" lon="-5.17406177520752">
        <ele>566</ele>
        <time>2019-05-12T00:33:24Z</time>
      </trkpt>
      <trkpt lat="36.7799224853516" lon="-5.17407989501953">
        <ele>566</ele>
        <time>2019-05-12T00:33:26Z</time>
      </trkpt>
      <trkpt lat="36.7799110412598" lon="-5.17409992218018">
        <ele>566</ele>
        <time>2019-05-12T00:33:28Z</time>
      </trkpt>
      <trkpt lat="36.779899597168" lon="-5.17411279678345">
        <ele>566</ele>
        <time>2019-05-12T00:33:30Z</time>
      </trkpt>
      <trkpt lat="36.7798805236816" lon="-5.17412281036377">
        <ele>566</ele>
        <time>2019-05-12T00:33:32Z</time>
      </trkpt>
      <trkpt lat="36.7798728942871" lon="-5.17412281036377">
        <ele>566</ele>
        <time>2019-05-12T00:33:34Z</time>
      </trkpt>
      <trkpt lat="36.7798728942871" lon="-5.17412185668945">
        <ele>566</ele>
        <time>2019-05-12T00:33:36Z</time>
      </trkpt>
      <trkpt lat="36.7798728942871" lon="-5.17412185668945">
        <ele>566</ele>
        <time>2019-05-12T00:33:38Z</time>
      </trkpt>
      <trkpt lat="36.7798690795898" lon="-5.17411994934082">
        <ele>566</ele>
        <time>2019-05-12T00:33:40Z</time>
      </trkpt>
      <trkpt lat="36.7798690795898" lon="-5.17411994934082">
        <ele>566</ele>
        <time>2019-05-12T00:33:42Z</time>
      </trkpt>
      <trkpt lat="36.7798652648926" lon="-5.17411804199219">
        <ele>566</ele>
        <time>2019-05-12T00:33:44Z</time>
      </trkpt>
      <trkpt lat="36.7798652648926" lon="-5.17411804199219">
        <ele>566</ele>
        <time>2019-05-12T00:33:46Z</time>
      </trkpt>
      <trkpt lat="36.7798652648926" lon="-5.17411804199219">
        <ele>566</ele>
        <time>2019-05-12T00:33:48Z</time>
      </trkpt>
      <trkpt lat="36.7798652648926" lon="-5.17411708831787">
        <ele>566</ele>
        <time>2019-05-12T00:33:50Z</time>
      </trkpt>
      <trkpt lat="36.7798652648926" lon="-5.17411708831787">
        <ele>566</ele>
        <time>2019-05-12T00:33:52Z</time>
      </trkpt>
      <trkpt lat="36.7798614501953" lon="-5.17411708831787">
        <ele>566</ele>
        <time>2019-05-12T00:33:54Z</time>
      </trkpt>
      <trkpt lat="36.7798614501953" lon="-5.17411708831787">
        <ele>566</ele>
        <time>2019-05-12T00:33:56Z</time>
      </trkpt>
      <trkpt lat="36.7798614501953" lon="-5.17411708831787">
        <ele>566</ele>
        <time>2019-05-12T00:33:58Z</time>
      </trkpt>
      <trkpt lat="36.7798614501953" lon="-5.17411994934082">
        <ele>566</ele>
        <time>2019-05-12T00:34:00Z</time>
      </trkpt>
      <trkpt lat="36.7798614501953" lon="-5.17412281036377">
        <ele>566</ele>
        <time>2019-05-12T00:34:02Z</time>
      </trkpt>
      <trkpt lat="36.7798614501953" lon="-5.17414283752441">
        <ele>566</ele>
        <time>2019-05-12T00:34:04Z</time>
      </trkpt>
      <trkpt lat="36.7798538208008" lon="-5.17417001724243">
        <ele>566</ele>
        <time>2019-05-12T00:34:06Z</time>
      </trkpt>
      <trkpt lat="36.7798461914062" lon="-5.17419719696045">
        <ele>566</ele>
        <time>2019-05-12T00:34:08Z</time>
      </trkpt>
      <trkpt lat="36.7798385620117" lon="-5.17422485351562">
        <ele>566</ele>
        <time>2019-05-12T00:34:10Z</time>
      </trkpt>
      <trkpt lat="36.7798271179199" lon="-5.17425489425659">
        <ele>566</ele>
        <time>2019-05-12T00:34:12Z</time>
      </trkpt>
      <trkpt lat="36.7798156738281" lon="-5.17428493499756">
        <ele>566</ele>
        <time>2019-05-12T00:34:14Z</time>
      </trkpt>
      <trkpt lat="36.7798004150391" lon="-5.17431306838989">
        <ele>566</ele>
        <time>2019-05-12T00:34:16Z</time>
      </trkpt>
      <trkpt lat="36.7797889709473" lon="-5.17434501647949">
        <ele>566</ele>
        <time>2019-05-12T00:34:18Z</time>
      </trkpt>
      <trkpt lat="36.7797813415527" lon="-5.17437791824341">
        <ele>566</ele>
        <time>2019-05-12T00:34:20Z</time>
      </trkpt>
      <trkpt lat="36.7797737121582" lon="-5.17441320419312">
        <ele>566</ele>
        <time>2019-05-12T00:34:22Z</time>
      </trkpt>
      <trkpt lat="36.7797698974609" lon="-5.17444801330566">
        <ele>566</ele>
        <time>2019-05-12T00:34:24Z</time>
      </trkpt>
      <trkpt lat="36.7797584533691" lon="-5.17448282241821">
        <ele>566</ele>
        <time>2019-05-12T00:34:26Z</time>
      </trkpt>
      <trkpt lat="36.7797508239746" lon="-5.17451810836792">
        <ele>566</ele>
        <time>2019-05-12T00:34:28Z</time>
      </trkpt>
      <trkpt lat="36.7797431945801" lon="-5.17455291748047">
        <ele>566</ele>
        <time>2019-05-12T00:34:30Z</time>
      </trkpt>
      <trkpt lat="36.7797355651856" lon="-5.1745867729187">
        <ele>566</ele>
        <time>2019-05-12T00:34:32Z</time>
      </trkpt>
      <trkpt lat="36.779727935791" lon="-5.17462205886841">
        <ele>566</ele>
        <time>2019-05-12T00:34:34Z</time>
      </trkpt>
      <trkpt lat="36.7797164916992" lon="-5.17465305328369">
        <ele>566</ele>
        <time>2019-05-12T00:34:36Z</time>
      </trkpt>
      <trkpt lat="36.7797012329102" lon="-5.17468500137329">
        <ele>566</ele>
        <time>2019-05-12T00:34:38Z</time>
      </trkpt>
      <trkpt lat="36.7796936035156" lon="-5.17471790313721">
        <ele>566</ele>
        <time>2019-05-12T00:34:40Z</time>
      </trkpt>
      <trkpt lat="36.7796897888184" lon="-5.17475509643555">
        <ele>566</ele>
        <time>2019-05-12T00:34:42Z</time>
      </trkpt>
      <trkpt lat="36.7796783447266" lon="-5.17479181289673">
        <ele>566</ele>
        <time>2019-05-12T00:34:44Z</time>
      </trkpt>
      <trkpt lat="36.779670715332" lon="-5.17482805252075">
        <ele>566</ele>
        <time>2019-05-12T00:34:46Z</time>
      </trkpt>
      <trkpt lat="36.7796669006348" lon="-5.1748628616333">
        <ele>566</ele>
        <time>2019-05-12T00:34:48Z</time>
      </trkpt>
      <trkpt lat="36.779655456543" lon="-5.17489814758301">
        <ele>566</ele>
        <time>2019-05-12T00:34:50Z</time>
      </trkpt>
      <trkpt lat="36.7796478271484" lon="-5.17493009567261">
        <ele>566</ele>
        <time>2019-05-12T00:34:52Z</time>
      </trkpt>
      <trkpt lat="36.7796363830566" lon="-5.17497205734253">
        <ele>566</ele>
        <time>2019-05-12T00:34:54Z</time>
      </trkpt>
      <trkpt lat="36.7796325683594" lon="-5.17500305175781">
        <ele>566</ele>
        <time>2019-05-12T00:34:56Z</time>
      </trkpt>
      <trkpt lat="36.7796363830566" lon="-5.17503023147583">
        <ele>566</ele>
        <time>2019-05-12T00:34:59Z</time>
      </trkpt>
      <trkpt lat="36.7796478271484" lon="-5.17505502700806">
        <ele>566</ele>
        <time>2019-05-12T00:35:01Z</time>
      </trkpt>
      <trkpt lat="36.7796592712402" lon="-5.1750750541687">
        <ele>566</ele>
        <time>2019-05-12T00:35:03Z</time>
      </trkpt>
      <trkpt lat="36.7796783447266" lon="-5.17509508132935">
        <ele>566</ele>
        <time>2019-05-12T00:35:05Z</time>
      </trkpt>
      <trkpt lat="36.7796974182129" lon="-5.17511177062988">
        <ele>566</ele>
        <time>2019-05-12T00:35:07Z</time>
      </trkpt>
      <trkpt lat="36.7797164916992" lon="-5.17512702941894">
        <ele>566</ele>
        <time>2019-05-12T00:35:09Z</time>
      </trkpt>
      <trkpt lat="36.7797317504883" lon="-5.17514276504517">
        <ele>566</ele>
        <time>2019-05-12T00:35:11Z</time>
      </trkpt>
      <trkpt lat="36.7797508239746" lon="-5.17515802383423">
        <ele>566</ele>
        <time>2019-05-12T00:35:13Z</time>
      </trkpt>
      <trkpt lat="36.7797622680664" lon="-5.17518186569214">
        <ele>567</ele>
        <time>2019-05-12T00:35:15Z</time>
      </trkpt>
      <trkpt lat="36.7797698974609" lon="-5.17520713806152">
        <ele>567</ele>
        <time>2019-05-12T00:35:17Z</time>
      </trkpt>
      <trkpt lat="36.7797737121582" lon="-5.1752347946167">
        <ele>568</ele>
        <time>2019-05-12T00:35:19Z</time>
      </trkpt>
      <trkpt lat="36.7797737121582" lon="-5.17526292800903">
        <ele>568</ele>
        <time>2019-05-12T00:35:21Z</time>
      </trkpt>
      <trkpt lat="36.7797584533691" lon="-5.17528676986694">
        <ele>568</ele>
        <time>2019-05-12T00:35:23Z</time>
      </trkpt>
      <trkpt lat="36.7797470092773" lon="-5.1753101348877">
        <ele>569</ele>
        <time>2019-05-12T00:35:25Z</time>
      </trkpt>
      <trkpt lat="36.779727935791" lon="-5.17532682418823">
        <ele>569</ele>
        <time>2019-05-12T00:35:27Z</time>
      </trkpt>
      <trkpt lat="36.779712677002" lon="-5.1753420829773">
        <ele>570</ele>
        <time>2019-05-12T00:35:29Z</time>
      </trkpt>
      <trkpt lat="36.7796936035156" lon="-5.17535781860352">
        <ele>571</ele>
        <time>2019-05-12T00:35:31Z</time>
      </trkpt>
      <trkpt lat="36.7796745300293" lon="-5.17537307739258">
        <ele>571</ele>
        <time>2019-05-12T00:35:33Z</time>
      </trkpt>
      <trkpt lat="36.779655456543" lon="-5.17538976669312">
        <ele>572</ele>
        <time>2019-05-12T00:35:35Z</time>
      </trkpt>
      <trkpt lat="36.7796363830566" lon="-5.17540693283081">
        <ele>572</ele>
        <time>2019-05-12T00:35:37Z</time>
      </trkpt>
      <trkpt lat="36.7796173095703" lon="-5.17542695999146">
        <ele>573</ele>
        <time>2019-05-12T00:35:39Z</time>
      </trkpt>
      <trkpt lat="36.7796020507812" lon="-5.1754469871521">
        <ele>573</ele>
        <time>2019-05-12T00:35:41Z</time>
      </trkpt>
      <trkpt lat="36.7795829772949" lon="-5.17546796798706">
        <ele>573</ele>
        <time>2019-05-12T00:35:43Z</time>
      </trkpt>
      <trkpt lat="36.7795677185059" lon="-5.17549180984497">
        <ele>573</ele>
        <time>2019-05-12T00:35:45Z</time>
      </trkpt>
      <trkpt lat="36.7795486450195" lon="-5.17551279067993">
        <ele>573</ele>
        <time>2019-05-12T00:35:47Z</time>
      </trkpt>
      <trkpt lat="36.7795333862305" lon="-5.17553520202637">
        <ele>573</ele>
        <time>2019-05-12T00:35:49Z</time>
      </trkpt>
      <trkpt lat="36.7795181274414" lon="-5.17555713653564">
        <ele>573</ele>
        <time>2019-05-12T00:35:51Z</time>
      </trkpt>
      <trkpt lat="36.7794990539551" lon="-5.1755747795105">
        <ele>573</ele>
        <time>2019-05-12T00:35:53Z</time>
      </trkpt>
      <trkpt lat="36.779483795166" lon="-5.17559719085693">
        <ele>573</ele>
        <time>2019-05-12T00:35:55Z</time>
      </trkpt>
      <trkpt lat="36.779468536377" lon="-5.17561817169189">
        <ele>573</ele>
        <time>2019-05-12T00:35:57Z</time>
      </trkpt>
      <trkpt lat="36.7794494628906" lon="-5.1756420135498">
        <ele>573</ele>
        <time>2019-05-12T00:35:59Z</time>
      </trkpt>
      <trkpt lat="36.7794342041016" lon="-5.17566680908203">
        <ele>573</ele>
        <time>2019-05-12T00:36:01Z</time>
      </trkpt>
      <trkpt lat="36.7794151306152" lon="-5.17569208145142">
        <ele>573</ele>
        <time>2019-05-12T00:36:03Z</time>
      </trkpt>
      <trkpt lat="36.7793960571289" lon="-5.17571496963501">
        <ele>573</ele>
        <time>2019-05-12T00:36:05Z</time>
      </trkpt>
      <trkpt lat="36.7793769836426" lon="-5.1757378578186">
        <ele>573</ele>
        <time>2019-05-12T00:36:07Z</time>
      </trkpt>
      <trkpt lat="36.7793579101562" lon="-5.17576313018799">
        <ele>573</ele>
        <time>2019-05-12T00:36:09Z</time>
      </trkpt>
      <trkpt lat="36.7793388366699" lon="-5.17578506469727">
        <ele>573</ele>
        <time>2019-05-12T00:36:11Z</time>
      </trkpt>
      <trkpt lat="36.7793197631836" lon="-5.17580699920654">
        <ele>573</ele>
        <time>2019-05-12T00:36:13Z</time>
      </trkpt>
      <trkpt lat="36.7793006896973" lon="-5.17582511901856">
        <ele>573</ele>
        <time>2019-05-12T00:36:15Z</time>
      </trkpt>
      <trkpt lat="36.7792816162109" lon="-5.17584705352783">
        <ele>573</ele>
        <time>2019-05-12T00:36:17Z</time>
      </trkpt>
      <trkpt lat="36.7792587280273" lon="-5.17586278915405">
        <ele>573</ele>
        <time>2019-05-12T00:36:19Z</time>
      </trkpt>
      <trkpt lat="36.779239654541" lon="-5.17588186264038">
        <ele>573</ele>
        <time>2019-05-12T00:36:21Z</time>
      </trkpt>
      <trkpt lat="36.7792167663574" lon="-5.17590188980103">
        <ele>573</ele>
        <time>2019-05-12T00:36:23Z</time>
      </trkpt>
      <trkpt lat="36.7791976928711" lon="-5.17592191696167">
        <ele>573</ele>
        <time>2019-05-12T00:36:25Z</time>
      </trkpt>
      <trkpt lat="36.7791786193848" lon="-5.17593812942505">
        <ele>573</ele>
        <time>2019-05-12T00:36:27Z</time>
      </trkpt>
      <trkpt lat="36.7791557312012" lon="-5.17595481872559">
        <ele>573</ele>
        <time>2019-05-12T00:36:29Z</time>
      </trkpt>
      <trkpt lat="36.7791366577148" lon="-5.17597723007202">
        <ele>573</ele>
        <time>2019-05-12T00:36:31Z</time>
      </trkpt>
      <trkpt lat="36.7791061401367" lon="-5.17601203918457">
        <ele>573</ele>
        <time>2019-05-12T00:36:33Z</time>
      </trkpt>
      <trkpt lat="36.7790870666504" lon="-5.17603302001953">
        <ele>573</ele>
        <time>2019-05-12T00:36:36Z</time>
      </trkpt>
      <trkpt lat="36.7790679931641" lon="-5.17605781555176">
        <ele>573</ele>
        <time>2019-05-12T00:36:38Z</time>
      </trkpt>
      <trkpt lat="36.7790489196777" lon="-5.17608308792114">
        <ele>573</ele>
        <time>2019-05-12T00:36:40Z</time>
      </trkpt>
      <trkpt lat="36.7790298461914" lon="-5.17610692977905">
        <ele>573</ele>
        <time>2019-05-12T00:36:42Z</time>
      </trkpt>
      <trkpt lat="36.7790107727051" lon="-5.17612981796265">
        <ele>573</ele>
        <time>2019-05-12T00:36:44Z</time>
      </trkpt>
      <trkpt lat="36.7789916992188" lon="-5.17615222930908">
        <ele>573</ele>
        <time>2019-05-12T00:36:46Z</time>
      </trkpt>
      <trkpt lat="36.7789726257324" lon="-5.17617321014404">
        <ele>573</ele>
        <time>2019-05-12T00:36:48Z</time>
      </trkpt>
      <trkpt lat="36.7789535522461" lon="-5.17619705200195">
        <ele>573</ele>
        <time>2019-05-12T00:36:50Z</time>
      </trkpt>
      <trkpt lat="36.778938293457" lon="-5.17621994018555">
        <ele>573</ele>
        <time>2019-05-12T00:36:52Z</time>
      </trkpt>
      <trkpt lat="36.7789192199707" lon="-5.17624187469482">
        <ele>573</ele>
        <time>2019-05-12T00:36:54Z</time>
      </trkpt>
      <trkpt lat="36.7789001464844" lon="-5.17626476287842">
        <ele>573</ele>
        <time>2019-05-12T00:36:56Z</time>
      </trkpt>
      <trkpt lat="36.778881072998" lon="-5.17628812789917">
        <ele>573</ele>
        <time>2019-05-12T00:36:58Z</time>
      </trkpt>
      <trkpt lat="36.7788619995117" lon="-5.1763129234314">
        <ele>573</ele>
        <time>2019-05-12T00:37:00Z</time>
      </trkpt>
      <trkpt lat="36.7788429260254" lon="-5.17633676528931">
        <ele>573</ele>
        <time>2019-05-12T00:37:02Z</time>
      </trkpt>
      <trkpt lat="36.7788238525391" lon="-5.17636203765869">
        <ele>573</ele>
        <time>2019-05-12T00:37:04Z</time>
      </trkpt>
      <trkpt lat="36.77880859375" lon="-5.17638778686523">
        <ele>573</ele>
        <time>2019-05-12T00:37:06Z</time>
      </trkpt>
      <trkpt lat="36.7787933349609" lon="-5.17641496658325">
        <ele>573</ele>
        <time>2019-05-12T00:37:08Z</time>
      </trkpt>
      <trkpt lat="36.7787780761719" lon="-5.17644309997559">
        <ele>573</ele>
        <time>2019-05-12T00:37:10Z</time>
      </trkpt>
      <trkpt lat="36.7787590026856" lon="-5.17646980285644">
        <ele>573</ele>
        <time>2019-05-12T00:37:12Z</time>
      </trkpt>
      <trkpt lat="36.7787437438965" lon="-5.17649984359741">
        <ele>573</ele>
        <time>2019-05-12T00:37:14Z</time>
      </trkpt>
      <trkpt lat="36.7787322998047" lon="-5.17652797698975">
        <ele>573</ele>
        <time>2019-05-12T00:37:16Z</time>
      </trkpt>
      <trkpt lat="36.7787208557129" lon="-5.17655992507935">
        <ele>573</ele>
        <time>2019-05-12T00:37:18Z</time>
      </trkpt>
      <trkpt lat="36.7787055969238" lon="-5.17658996582031">
        <ele>573</ele>
        <time>2019-05-12T00:37:20Z</time>
      </trkpt>
      <trkpt lat="36.778694152832" lon="-5.17662000656128">
        <ele>573</ele>
        <time>2019-05-12T00:37:22Z</time>
      </trkpt>
      <trkpt lat="36.7786827087402" lon="-5.17665195465088">
        <ele>573</ele>
        <time>2019-05-12T00:37:24Z</time>
      </trkpt>
      <trkpt lat="36.7786712646484" lon="-5.17668294906616">
        <ele>573</ele>
        <time>2019-05-12T00:37:26Z</time>
      </trkpt>
      <trkpt lat="36.7786636352539" lon="-5.17671298980713">
        <ele>573</ele>
        <time>2019-05-12T00:37:28Z</time>
      </trkpt>
      <trkpt lat="36.7786521911621" lon="-5.17674684524536">
        <ele>573</ele>
        <time>2019-05-12T00:37:30Z</time>
      </trkpt>
      <trkpt lat="36.7786407470703" lon="-5.17677688598633">
        <ele>572</ele>
        <time>2019-05-12T00:37:32Z</time>
      </trkpt>
      <trkpt lat="36.7786293029785" lon="-5.17680978775024">
        <ele>572</ele>
        <time>2019-05-12T00:37:34Z</time>
      </trkpt>
      <trkpt lat="36.7786178588867" lon="-5.176842212677">
        <ele>572</ele>
        <time>2019-05-12T00:37:36Z</time>
      </trkpt>
      <trkpt lat="36.7786064147949" lon="-5.17687320709228">
        <ele>572</ele>
        <time>2019-05-12T00:37:38Z</time>
      </trkpt>
      <trkpt lat="36.7785949707031" lon="-5.17690277099609">
        <ele>572</ele>
        <time>2019-05-12T00:37:40Z</time>
      </trkpt>
      <trkpt lat="36.7785835266113" lon="-5.17693281173706">
        <ele>571</ele>
        <time>2019-05-12T00:37:42Z</time>
      </trkpt>
      <trkpt lat="36.7785682678223" lon="-5.17696523666382">
        <ele>571</ele>
        <time>2019-05-12T00:37:44Z</time>
      </trkpt>
      <trkpt lat="36.7785568237305" lon="-5.17699813842773">
        <ele>571</ele>
        <time>2019-05-12T00:37:46Z</time>
      </trkpt>
      <trkpt lat="36.7785453796387" lon="-5.17703008651733">
        <ele>571</ele>
        <time>2019-05-12T00:37:48Z</time>
      </trkpt>
      <trkpt lat="36.7785339355469" lon="-5.1770601272583">
        <ele>571</ele>
        <time>2019-05-12T00:37:50Z</time>
      </trkpt>
      <trkpt lat="36.7785186767578" lon="-5.1770920753479">
        <ele>571</ele>
        <time>2019-05-12T00:37:52Z</time>
      </trkpt>
      <trkpt lat="36.778507232666" lon="-5.17712497711182">
        <ele>571</ele>
        <time>2019-05-12T00:37:54Z</time>
      </trkpt>
      <trkpt lat="36.7784996032715" lon="-5.17715692520142">
        <ele>570</ele>
        <time>2019-05-12T00:37:56Z</time>
      </trkpt>
      <trkpt lat="36.778491973877" lon="-5.17718982696533">
        <ele>570</ele>
        <time>2019-05-12T00:37:58Z</time>
      </trkpt>
      <trkpt lat="36.7784881591797" lon="-5.17722511291504">
        <ele>570</ele>
        <time>2019-05-12T00:38:00Z</time>
      </trkpt>
      <trkpt lat="36.7784881591797" lon="-5.17725992202759">
        <ele>569</ele>
        <time>2019-05-12T00:38:02Z</time>
      </trkpt>
      <trkpt lat="36.7784996032715" lon="-5.17731189727783">
        <ele>569</ele>
        <time>2019-05-12T00:38:04Z</time>
      </trkpt>
      <trkpt lat="36.7785148620606" lon="-5.17734479904175">
        <ele>569</ele>
        <time>2019-05-12T00:38:07Z</time>
      </trkpt>
      <trkpt lat="36.7785263061523" lon="-5.17737293243408">
        <ele>569</ele>
        <time>2019-05-12T00:38:09Z</time>
      </trkpt>
      <trkpt lat="36.7785453796387" lon="-5.17739486694336">
        <ele>569</ele>
        <time>2019-05-12T00:38:11Z</time>
      </trkpt>
      <trkpt lat="36.7785682678223" lon="-5.17741203308106">
        <ele>569</ele>
        <time>2019-05-12T00:38:13Z</time>
      </trkpt>
      <trkpt lat="36.7785873413086" lon="-5.17742776870728">
        <ele>569</ele>
        <time>2019-05-12T00:38:15Z</time>
      </trkpt>
      <trkpt lat="36.7786102294922" lon="-5.17744493484497">
        <ele>569</ele>
        <time>2019-05-12T00:38:17Z</time>
      </trkpt>
      <trkpt lat="36.7786331176758" lon="-5.17746019363403">
        <ele>569</ele>
        <time>2019-05-12T00:38:19Z</time>
      </trkpt>
      <trkpt lat="36.7786560058594" lon="-5.17747497558594">
        <ele>569</ele>
        <time>2019-05-12T00:38:21Z</time>
      </trkpt>
      <trkpt lat="36.7786750793457" lon="-5.17748785018921">
        <ele>569</ele>
        <time>2019-05-12T00:38:23Z</time>
      </trkpt>
      <trkpt lat="36.7787017822266" lon="-5.17749786376953">
        <ele>569</ele>
        <time>2019-05-12T00:38:25Z</time>
      </trkpt>
      <trkpt lat="36.7787246704102" lon="-5.17751312255859">
        <ele>569</ele>
        <time>2019-05-12T00:38:27Z</time>
      </trkpt>
      <trkpt lat="36.7787475585938" lon="-5.17752695083618">
        <ele>569</ele>
        <time>2019-05-12T00:38:29Z</time>
      </trkpt>
      <trkpt lat="36.7787742614746" lon="-5.17753982543945">
        <ele>569</ele>
        <time>2019-05-12T00:38:31Z</time>
      </trkpt>
      <trkpt lat="36.7787971496582" lon="-5.17755222320557">
        <ele>569</ele>
        <time>2019-05-12T00:38:33Z</time>
      </trkpt>
      <trkpt lat="36.7788162231445" lon="-5.17756795883179">
        <ele>569</ele>
        <time>2019-05-12T00:38:35Z</time>
      </trkpt>
      <trkpt lat="36.7788352966309" lon="-5.17758798599243">
        <ele>569</ele>
        <time>2019-05-12T00:38:37Z</time>
      </trkpt>
      <trkpt lat="36.7788505554199" lon="-5.17761182785034">
        <ele>569</ele>
        <time>2019-05-12T00:38:39Z</time>
      </trkpt>
      <trkpt lat="36.7788581848144" lon="-5.17763805389404">
        <ele>569</ele>
        <time>2019-05-12T00:38:41Z</time>
      </trkpt>
      <trkpt lat="36.7788619995117" lon="-5.17766284942627">
        <ele>569</ele>
        <time>2019-05-12T00:38:43Z</time>
      </trkpt>
      <trkpt lat="36.7788581848144" lon="-5.17768001556396">
        <ele>569</ele>
        <time>2019-05-12T00:38:45Z</time>
      </trkpt>
      <trkpt lat="36.7788619995117" lon="-5.17768287658691">
        <ele>569</ele>
        <time>2019-05-12T00:38:47Z</time>
      </trkpt>
      <trkpt lat="36.7788581848144" lon="-5.17769193649292">
        <ele>569</ele>
        <time>2019-05-12T00:38:49Z</time>
      </trkpt>
      <trkpt lat="36.7788467407227" lon="-5.17770195007324">
        <ele>569</ele>
        <time>2019-05-12T00:38:51Z</time>
      </trkpt>
      <trkpt lat="36.7788314819336" lon="-5.1777172088623">
        <ele>569</ele>
        <time>2019-05-12T00:38:53Z</time>
      </trkpt>
      <trkpt lat="36.7788238525391" lon="-5.1777400970459">
        <ele>569</ele>
        <time>2019-05-12T00:38:55Z</time>
      </trkpt>
      <trkpt lat="36.77880859375" lon="-5.17776679992676">
        <ele>569</ele>
        <time>2019-05-12T00:38:57Z</time>
      </trkpt>
      <trkpt lat="36.7787971496582" lon="-5.17779493331909">
        <ele>569</ele>
        <time>2019-05-12T00:38:59Z</time>
      </trkpt>
      <trkpt lat="36.7787895202637" lon="-5.17782306671143">
        <ele>569</ele>
        <time>2019-05-12T00:39:01Z</time>
      </trkpt>
      <trkpt lat="36.7787780761719" lon="-5.17785310745239">
        <ele>569</ele>
        <time>2019-05-12T00:39:03Z</time>
      </trkpt>
      <trkpt lat="36.7787666320801" lon="-5.17788314819336">
        <ele>569</ele>
        <time>2019-05-12T00:39:05Z</time>
      </trkpt>
      <trkpt lat="36.7787590026856" lon="-5.17791318893433">
        <ele>569</ele>
        <time>2019-05-12T00:39:07Z</time>
      </trkpt>
      <trkpt lat="36.778751373291" lon="-5.17794322967529">
        <ele>569</ele>
        <time>2019-05-12T00:39:09Z</time>
      </trkpt>
      <trkpt lat="36.7787437438965" lon="-5.17797183990478">
        <ele>569</ele>
        <time>2019-05-12T00:39:11Z</time>
      </trkpt>
      <trkpt lat="36.778736114502" lon="-5.17800188064575">
        <ele>569</ele>
        <time>2019-05-12T00:39:13Z</time>
      </trkpt>
      <trkpt lat="36.7787284851074" lon="-5.17803192138672">
        <ele>569</ele>
        <time>2019-05-12T00:39:15Z</time>
      </trkpt>
      <trkpt lat="36.7787246704102" lon="-5.17806482315064">
        <ele>569</ele>
        <time>2019-05-12T00:39:17Z</time>
      </trkpt>
      <trkpt lat="36.7787132263184" lon="-5.1780948638916">
        <ele>569</ele>
        <time>2019-05-12T00:39:19Z</time>
      </trkpt>
      <trkpt lat="36.7787094116211" lon="-5.1781268119812">
        <ele>569</ele>
        <time>2019-05-12T00:39:21Z</time>
      </trkpt>
      <trkpt lat="36.7787017822266" lon="-5.17815685272217">
        <ele>569</ele>
        <time>2019-05-12T00:39:23Z</time>
      </trkpt>
      <trkpt lat="36.778694152832" lon="-5.17818689346314">
        <ele>569</ele>
        <time>2019-05-12T00:39:25Z</time>
      </trkpt>
      <trkpt lat="36.7786903381348" lon="-5.17821502685547">
        <ele>569</ele>
        <time>2019-05-12T00:39:27Z</time>
      </trkpt>
      <trkpt lat="36.7786865234375" lon="-5.17824220657349">
        <ele>569</ele>
        <time>2019-05-12T00:39:29Z</time>
      </trkpt>
      <trkpt lat="36.778678894043" lon="-5.17826795578003">
        <ele>569</ele>
        <time>2019-05-12T00:39:31Z</time>
      </trkpt>
      <trkpt lat="36.7786712646484" lon="-5.178297996521">
        <ele>569</ele>
        <time>2019-05-12T00:39:33Z</time>
      </trkpt>
      <trkpt lat="36.7786636352539" lon="-5.1783299446106">
        <ele>569</ele>
        <time>2019-05-12T00:39:35Z</time>
      </trkpt>
      <trkpt lat="36.7786521911621" lon="-5.17835998535156">
        <ele>569</ele>
        <time>2019-05-12T00:39:37Z</time>
      </trkpt>
      <trkpt lat="36.7786445617676" lon="-5.17839002609253">
        <ele>569</ele>
        <time>2019-05-12T00:39:39Z</time>
      </trkpt>
      <trkpt lat="36.7786331176758" lon="-5.1784348487854">
        <ele>569</ele>
        <time>2019-05-12T00:39:41Z</time>
      </trkpt>
      <trkpt lat="36.7786254882812" lon="-5.17846488952637">
        <ele>569</ele>
        <time>2019-05-12T00:39:44Z</time>
      </trkpt>
      <trkpt lat="36.7786178588867" lon="-5.17849493026733">
        <ele>569</ele>
        <time>2019-05-12T00:39:46Z</time>
      </trkpt>
      <trkpt lat="36.7786102294922" lon="-5.17852687835693">
        <ele>569</ele>
        <time>2019-05-12T00:39:48Z</time>
      </trkpt>
      <trkpt lat="36.7786026000977" lon="-5.1785569190979">
        <ele>569</ele>
        <time>2019-05-12T00:39:50Z</time>
      </trkpt>
      <trkpt lat="36.7785911560059" lon="-5.17858791351318">
        <ele>569</ele>
        <time>2019-05-12T00:39:52Z</time>
      </trkpt>
      <trkpt lat="36.7785835266113" lon="-5.17861795425415">
        <ele>569</ele>
        <time>2019-05-12T00:39:54Z</time>
      </trkpt>
      <trkpt lat="36.7785758972168" lon="-5.17864799499512">
        <ele>569</ele>
        <time>2019-05-12T00:39:56Z</time>
      </trkpt>
      <trkpt lat="36.7785682678223" lon="-5.17867994308472">
        <ele>569</ele>
        <time>2019-05-12T00:39:58Z</time>
      </trkpt>
      <trkpt lat="36.7785606384277" lon="-5.17870998382568">
        <ele>569</ele>
        <time>2019-05-12T00:40:00Z</time>
      </trkpt>
      <trkpt lat="36.7785568237305" lon="-5.17874002456665">
        <ele>568</ele>
        <time>2019-05-12T00:40:02Z</time>
      </trkpt>
      <trkpt lat="36.7785491943359" lon="-5.17877006530762">
        <ele>568</ele>
        <time>2019-05-12T00:40:04Z</time>
      </trkpt>
      <trkpt lat="36.7785415649414" lon="-5.17879676818848">
        <ele>568</ele>
        <time>2019-05-12T00:40:06Z</time>
      </trkpt>
      <trkpt lat="36.7785377502441" lon="-5.17881202697754">
        <ele>568</ele>
        <time>2019-05-12T00:40:08Z</time>
      </trkpt>
      <trkpt lat="36.7785339355469" lon="-5.17883205413818">
        <ele>568</ele>
        <time>2019-05-12T00:40:10Z</time>
      </trkpt>
      <trkpt lat="36.7785301208496" lon="-5.17886018753052">
        <ele>568</ele>
        <time>2019-05-12T00:40:12Z</time>
      </trkpt>
      <trkpt lat="36.7785301208496" lon="-5.17889022827148">
        <ele>568</ele>
        <time>2019-05-12T00:40:14Z</time>
      </trkpt>
      <trkpt lat="36.7785263061523" lon="-5.17891979217529">
        <ele>568</ele>
        <time>2019-05-12T00:40:16Z</time>
      </trkpt>
      <trkpt lat="36.7785224914551" lon="-5.17894983291626">
        <ele>568</ele>
        <time>2019-05-12T00:40:18Z</time>
      </trkpt>
      <trkpt lat="36.7785186767578" lon="-5.17897987365723">
        <ele>568</ele>
        <time>2019-05-12T00:40:20Z</time>
      </trkpt>
      <trkpt lat="36.7785186767578" lon="-5.17900705337524">
        <ele>568</ele>
        <time>2019-05-12T00:40:22Z</time>
      </trkpt>
      <trkpt lat="36.7785148620606" lon="-5.17903518676758">
        <ele>568</ele>
        <time>2019-05-12T00:40:24Z</time>
      </trkpt>
      <trkpt lat="36.7785110473633" lon="-5.1790599822998">
        <ele>568</ele>
        <time>2019-05-12T00:40:26Z</time>
      </trkpt>
      <trkpt lat="36.7785110473633" lon="-5.1790828704834">
        <ele>568</ele>
        <time>2019-05-12T00:40:28Z</time>
      </trkpt>
      <trkpt lat="36.7785034179688" lon="-5.17911005020142">
        <ele>568</ele>
        <time>2019-05-12T00:40:30Z</time>
      </trkpt>
      <trkpt lat="36.7784957885742" lon="-5.17913722991943">
        <ele>568</ele>
        <time>2019-05-12T00:40:32Z</time>
      </trkpt>
      <trkpt lat="36.7784843444824" lon="-5.17916011810303">
        <ele>568</ele>
        <time>2019-05-12T00:40:34Z</time>
      </trkpt>
      <trkpt lat="36.7784729003906" lon="-5.1791820526123">
        <ele>568</ele>
        <time>2019-05-12T00:40:36Z</time>
      </trkpt>
      <trkpt lat="36.7784614562988" lon="-5.17920684814453">
        <ele>568</ele>
        <time>2019-05-12T00:40:38Z</time>
      </trkpt>
      <trkpt lat="36.7784461975098" lon="-5.17923212051392">
        <ele>568</ele>
        <time>2019-05-12T00:40:40Z</time>
      </trkpt>
      <trkpt lat="36.7784385681152" lon="-5.17925691604614">
        <ele>568</ele>
        <time>2019-05-12T00:40:42Z</time>
      </trkpt>
      <trkpt lat="36.7784233093262" lon="-5.17928314208984">
        <ele>568</ele>
        <time>2019-05-12T00:40:44Z</time>
      </trkpt>
      <trkpt lat="36.7784118652344" lon="-5.17930698394775">
        <ele>568</ele>
        <time>2019-05-12T00:40:46Z</time>
      </trkpt>
      <trkpt lat="36.7783966064453" lon="-5.17933320999146">
        <ele>568</ele>
        <time>2019-05-12T00:40:48Z</time>
      </trkpt>
      <trkpt lat="36.7783851623535" lon="-5.17935800552368">
        <ele>568</ele>
        <time>2019-05-12T00:40:50Z</time>
      </trkpt>
      <trkpt lat="36.7783699035644" lon="-5.17938280105591">
        <ele>568</ele>
        <time>2019-05-12T00:40:52Z</time>
      </trkpt>
      <trkpt lat="36.7783584594727" lon="-5.17940998077393">
        <ele>568</ele>
        <time>2019-05-12T00:40:54Z</time>
      </trkpt>
      <trkpt lat="36.7783432006836" lon="-5.17943811416626">
        <ele>568</ele>
        <time>2019-05-12T00:40:56Z</time>
      </trkpt>
      <trkpt lat="36.7783317565918" lon="-5.17946815490723">
        <ele>568</ele>
        <time>2019-05-12T00:40:58Z</time>
      </trkpt>
      <trkpt lat="36.7783164978027" lon="-5.17949485778809">
        <ele>568</ele>
        <time>2019-05-12T00:41:00Z</time>
      </trkpt>
      <trkpt lat="36.7783050537109" lon="-5.17952299118042">
        <ele>568</ele>
        <time>2019-05-12T00:41:02Z</time>
      </trkpt>
      <trkpt lat="36.7782936096191" lon="-5.17955207824707">
        <ele>568</ele>
        <time>2019-05-12T00:41:04Z</time>
      </trkpt>
      <trkpt lat="36.7782821655273" lon="-5.17958211898804">
        <ele>568</ele>
        <time>2019-05-12T00:41:06Z</time>
      </trkpt>
      <trkpt lat="36.7782745361328" lon="-5.179612159729">
        <ele>568</ele>
        <time>2019-05-12T00:41:08Z</time>
      </trkpt>
      <trkpt lat="36.778263092041" lon="-5.17964220046997">
        <ele>568</ele>
        <time>2019-05-12T00:41:10Z</time>
      </trkpt>
      <trkpt lat="36.7782516479492" lon="-5.17966985702515">
        <ele>568</ele>
        <time>2019-05-12T00:41:12Z</time>
      </trkpt>
      <trkpt lat="36.7782402038574" lon="-5.17970323562622">
        <ele>568</ele>
        <time>2019-05-12T00:41:14Z</time>
      </trkpt>
      <trkpt lat="36.7782287597656" lon="-5.17975282669067">
        <ele>568</ele>
        <time>2019-05-12T00:41:16Z</time>
      </trkpt>
      <trkpt lat="36.7782211303711" lon="-5.17978811264038">
        <ele>568</ele>
        <time>2019-05-12T00:41:18Z</time>
      </trkpt>
      <trkpt lat="36.7782173156738" lon="-5.17982292175293">
        <ele>568</ele>
        <time>2019-05-12T00:41:21Z</time>
      </trkpt>
      <trkpt lat="36.7782096862793" lon="-5.17985677719116">
        <ele>567</ele>
        <time>2019-05-12T00:41:23Z</time>
      </trkpt>
      <trkpt lat="36.7782020568848" lon="-5.17988777160644">
        <ele>567</ele>
        <time>2019-05-12T00:41:25Z</time>
      </trkpt>
      <trkpt lat="36.7781982421875" lon="-5.17992210388184">
        <ele>567</ele>
        <time>2019-05-12T00:41:27Z</time>
      </trkpt>
      <trkpt lat="36.7781982421875" lon="-5.17995500564575">
        <ele>567</ele>
        <time>2019-05-12T00:41:29Z</time>
      </trkpt>
      <trkpt lat="36.778190612793" lon="-5.1799898147583">
        <ele>566</ele>
        <time>2019-05-12T00:41:31Z</time>
      </trkpt>
      <trkpt lat="36.7781867980957" lon="-5.18002319335938">
        <ele>566</ele>
        <time>2019-05-12T00:41:33Z</time>
      </trkpt>
      <trkpt lat="36.7781829833984" lon="-5.18005704879761">
        <ele>566</ele>
        <time>2019-05-12T00:41:35Z</time>
      </trkpt>
      <trkpt lat="36.7781753540039" lon="-5.18009185791016">
        <ele>566</ele>
        <time>2019-05-12T00:41:37Z</time>
      </trkpt>
      <trkpt lat="36.7781715393066" lon="-5.18012523651123">
        <ele>566</ele>
        <time>2019-05-12T00:41:39Z</time>
      </trkpt>
      <trkpt lat="36.7781677246094" lon="-5.18015813827515">
        <ele>566</ele>
        <time>2019-05-12T00:41:41Z</time>
      </trkpt>
      <trkpt lat="36.7781600952148" lon="-5.1801929473877">
        <ele>566</ele>
        <time>2019-05-12T00:41:43Z</time>
      </trkpt>
      <trkpt lat="36.7781562805176" lon="-5.1802248954773">
        <ele>566</ele>
        <time>2019-05-12T00:41:45Z</time>
      </trkpt>
      <trkpt lat="36.778148651123" lon="-5.180260181427">
        <ele>566</ele>
        <time>2019-05-12T00:41:47Z</time>
      </trkpt>
      <trkpt lat="36.7781410217285" lon="-5.18029022216797">
        <ele>566</ele>
        <time>2019-05-12T00:41:49Z</time>
      </trkpt>
      <trkpt lat="36.7781372070312" lon="-5.18032312393188">
        <ele>566</ele>
        <time>2019-05-12T00:41:51Z</time>
      </trkpt>
      <trkpt lat="36.778133392334" lon="-5.18035697937012">
        <ele>566</ele>
        <time>2019-05-12T00:41:53Z</time>
      </trkpt>
      <trkpt lat="36.7781295776367" lon="-5.18038988113403">
        <ele>565</ele>
        <time>2019-05-12T00:41:55Z</time>
      </trkpt>
      <trkpt lat="36.7781219482422" lon="-5.18042182922363">
        <ele>565</ele>
        <time>2019-05-12T00:41:57Z</time>
      </trkpt>
      <trkpt lat="36.7781143188477" lon="-5.1804518699646">
        <ele>565</ele>
        <time>2019-05-12T00:41:59Z</time>
      </trkpt>
      <trkpt lat="36.7781066894531" lon="-5.18048191070557">
        <ele>565</ele>
        <time>2019-05-12T00:42:01Z</time>
      </trkpt>
      <trkpt lat="36.7780952453613" lon="-5.18051195144653">
        <ele>565</ele>
        <time>2019-05-12T00:42:03Z</time>
      </trkpt>
      <trkpt lat="36.7780876159668" lon="-5.1805419921875">
        <ele>565</ele>
        <time>2019-05-12T00:42:05Z</time>
      </trkpt>
      <trkpt lat="36.778076171875" lon="-5.1805682182312">
        <ele>565</ele>
        <time>2019-05-12T00:42:07Z</time>
      </trkpt>
      <trkpt lat="36.7780685424805" lon="-5.18059492111206">
        <ele>565</ele>
        <time>2019-05-12T00:42:09Z</time>
      </trkpt>
      <trkpt lat="36.7780532836914" lon="-5.18062305450439">
        <ele>565</ele>
        <time>2019-05-12T00:42:11Z</time>
      </trkpt>
      <trkpt lat="36.7780418395996" lon="-5.18065214157104">
        <ele>565</ele>
        <time>2019-05-12T00:42:13Z</time>
      </trkpt>
      <trkpt lat="36.7780265808106" lon="-5.18067979812622">
        <ele>565</ele>
        <time>2019-05-12T00:42:15Z</time>
      </trkpt>
      <trkpt lat="36.7780151367188" lon="-5.18070793151856">
        <ele>565</ele>
        <time>2019-05-12T00:42:17Z</time>
      </trkpt>
      <trkpt lat="36.778003692627" lon="-5.1807370185852">
        <ele>565</ele>
        <time>2019-05-12T00:42:19Z</time>
      </trkpt>
      <trkpt lat="36.7779884338379" lon="-5.18076515197754">
        <ele>565</ele>
        <time>2019-05-12T00:42:21Z</time>
      </trkpt>
      <trkpt lat="36.7779731750488" lon="-5.1807918548584">
        <ele>565</ele>
        <time>2019-05-12T00:42:23Z</time>
      </trkpt>
      <trkpt lat="36.777961730957" lon="-5.18081998825073">
        <ele>565</ele>
        <time>2019-05-12T00:42:25Z</time>
      </trkpt>
      <trkpt lat="36.7779502868652" lon="-5.1808500289917">
        <ele>565</ele>
        <time>2019-05-12T00:42:27Z</time>
      </trkpt>
      <trkpt lat="36.7779388427734" lon="-5.18088006973267">
        <ele>565</ele>
        <time>2019-05-12T00:42:29Z</time>
      </trkpt>
      <trkpt lat="36.7779235839844" lon="-5.18091297149658">
        <ele>565</ele>
        <time>2019-05-12T00:42:31Z</time>
      </trkpt>
      <trkpt lat="36.7779083251953" lon="-5.18094301223755">
        <ele>565</ele>
        <time>2019-05-12T00:42:33Z</time>
      </trkpt>
      <trkpt lat="36.7778968811035" lon="-5.1809720993042">
        <ele>565</ele>
        <time>2019-05-12T00:42:35Z</time>
      </trkpt>
      <trkpt lat="36.7778816223144" lon="-5.18099784851074">
        <ele>565</ele>
        <time>2019-05-12T00:42:37Z</time>
      </trkpt>
      <trkpt lat="36.7778701782227" lon="-5.18102502822876">
        <ele>565</ele>
        <time>2019-05-12T00:42:39Z</time>
      </trkpt>
      <trkpt lat="36.7778587341309" lon="-5.18104791641235">
        <ele>566</ele>
        <time>2019-05-12T00:42:41Z</time>
      </trkpt>
      <trkpt lat="36.7778434753418" lon="-5.18107509613037">
        <ele>567</ele>
        <time>2019-05-12T00:42:43Z</time>
      </trkpt>
      <trkpt lat="36.7778282165527" lon="-5.18110179901123">
        <ele>567</ele>
        <time>2019-05-12T00:42:45Z</time>
      </trkpt>
      <trkpt lat="36.7778091430664" lon="-5.18114280700684">
        <ele>568</ele>
        <time>2019-05-12T00:42:47Z</time>
      </trkpt>
      <trkpt lat="36.7777976989746" lon="-5.18117189407349">
        <ele>569</ele>
        <time>2019-05-12T00:42:50Z</time>
      </trkpt>
      <trkpt lat="36.7777824401856" lon="-5.18120002746582">
        <ele>569</ele>
        <time>2019-05-12T00:42:52Z</time>
      </trkpt>
      <trkpt lat="36.7777709960938" lon="-5.18122816085815">
        <ele>570</ele>
        <time>2019-05-12T00:42:54Z</time>
      </trkpt>
      <trkpt lat="36.7777557373047" lon="-5.18125820159912">
        <ele>570</ele>
        <time>2019-05-12T00:42:56Z</time>
      </trkpt>
      <trkpt lat="36.7777442932129" lon="-5.18128490447998">
        <ele>570</ele>
        <time>2019-05-12T00:42:58Z</time>
      </trkpt>
      <trkpt lat="36.7777290344238" lon="-5.18131303787231">
        <ele>570</ele>
        <time>2019-05-12T00:43:00Z</time>
      </trkpt>
      <trkpt lat="36.7777137756348" lon="-5.18134212493896">
        <ele>571</ele>
        <time>2019-05-12T00:43:02Z</time>
      </trkpt>
      <trkpt lat="36.777702331543" lon="-5.18137216567993">
        <ele>571</ele>
        <time>2019-05-12T00:43:04Z</time>
      </trkpt>
      <trkpt lat="36.7776870727539" lon="-5.1814022064209">
        <ele>571</ele>
        <time>2019-05-12T00:43:06Z</time>
      </trkpt>
      <trkpt lat="36.7776756286621" lon="-5.18143320083618">
        <ele>571</ele>
        <time>2019-05-12T00:43:08Z</time>
      </trkpt>
      <trkpt lat="36.7776641845703" lon="-5.18146705627441">
        <ele>571</ele>
        <time>2019-05-12T00:43:10Z</time>
      </trkpt>
      <trkpt lat="36.7776527404785" lon="-5.1814980506897">
        <ele>571</ele>
        <time>2019-05-12T00:43:12Z</time>
      </trkpt>
      <trkpt lat="36.7776412963867" lon="-5.18153190612793">
        <ele>571</ele>
        <time>2019-05-12T00:43:14Z</time>
      </trkpt>
      <trkpt lat="36.7776298522949" lon="-5.1815619468689">
        <ele>571</ele>
        <time>2019-05-12T00:43:16Z</time>
      </trkpt>
      <trkpt lat="36.7776145935059" lon="-5.18159294128418">
        <ele>571</ele>
        <time>2019-05-12T00:43:18Z</time>
      </trkpt>
      <trkpt lat="36.7776031494141" lon="-5.18162488937378">
        <ele>571</ele>
        <time>2019-05-12T00:43:20Z</time>
      </trkpt>
      <trkpt lat="36.7775917053223" lon="-5.18165683746338">
        <ele>571</ele>
        <time>2019-05-12T00:43:22Z</time>
      </trkpt>
      <trkpt lat="36.7775802612305" lon="-5.18168783187866">
        <ele>571</ele>
        <time>2019-05-12T00:43:24Z</time>
      </trkpt>
      <trkpt lat="36.7775688171387" lon="-5.18171501159668">
        <ele>571</ele>
        <time>2019-05-12T00:43:26Z</time>
      </trkpt>
      <trkpt lat="36.7775611877441" lon="-5.18173503875732">
        <ele>571</ele>
        <time>2019-05-12T00:43:28Z</time>
      </trkpt>
      <trkpt lat="36.7775497436523" lon="-5.18176221847534">
        <ele>571</ele>
        <time>2019-05-12T00:43:30Z</time>
      </trkpt>
      <trkpt lat="36.7775344848633" lon="-5.18178987503052">
        <ele>571</ele>
        <time>2019-05-12T00:43:32Z</time>
      </trkpt>
      <trkpt lat="36.7775230407715" lon="-5.18181800842285">
        <ele>571</ele>
        <time>2019-05-12T00:43:34Z</time>
      </trkpt>
      <trkpt lat="36.7775115966797" lon="-5.18184995651245">
        <ele>571</ele>
        <time>2019-05-12T00:43:36Z</time>
      </trkpt>
      <trkpt lat="36.7775001525879" lon="-5.18187999725342">
        <ele>571</ele>
        <time>2019-05-12T00:43:38Z</time>
      </trkpt>
      <trkpt lat="36.7774887084961" lon="-5.18190813064575">
        <ele>571</ele>
        <time>2019-05-12T00:43:40Z</time>
      </trkpt>
      <trkpt lat="36.777473449707" lon="-5.18194007873535">
        <ele>571</ele>
        <time>2019-05-12T00:43:42Z</time>
      </trkpt>
      <trkpt lat="36.7774620056152" lon="-5.18197202682495">
        <ele>571</ele>
        <time>2019-05-12T00:43:44Z</time>
      </trkpt>
      <trkpt lat="36.7774543762207" lon="-5.18200492858887">
        <ele>571</ele>
        <time>2019-05-12T00:43:46Z</time>
      </trkpt>
      <trkpt lat="36.7774391174316" lon="-5.18203783035278">
        <ele>571</ele>
        <time>2019-05-12T00:43:48Z</time>
      </trkpt>
      <trkpt lat="36.7774314880371" lon="-5.18207216262817">
        <ele>571</ele>
        <time>2019-05-12T00:43:50Z</time>
      </trkpt>
      <trkpt lat="36.777416229248" lon="-5.18210315704346">
        <ele>571</ele>
        <time>2019-05-12T00:43:52Z</time>
      </trkpt>
      <trkpt lat="36.7774085998535" lon="-5.18213510513306">
        <ele>571</ele>
        <time>2019-05-12T00:43:54Z</time>
      </trkpt>
      <trkpt lat="36.7773971557617" lon="-5.18216514587402">
        <ele>571</ele>
        <time>2019-05-12T00:43:56Z</time>
      </trkpt>
      <trkpt lat="36.7773857116699" lon="-5.18219518661499">
        <ele>571</ele>
        <time>2019-05-12T00:43:58Z</time>
      </trkpt>
      <trkpt lat="36.7773742675781" lon="-5.18222713470459">
        <ele>571</ele>
        <time>2019-05-12T00:44:00Z</time>
      </trkpt>
      <trkpt lat="36.7773628234863" lon="-5.18225717544556">
        <ele>571</ele>
        <time>2019-05-12T00:44:02Z</time>
      </trkpt>
      <trkpt lat="36.7773513793945" lon="-5.18228721618652">
        <ele>571</ele>
        <time>2019-05-12T00:44:04Z</time>
      </trkpt>
      <trkpt lat="36.7773399353027" lon="-5.18231821060181">
        <ele>571</ele>
        <time>2019-05-12T00:44:06Z</time>
      </trkpt>
      <trkpt lat="36.7773284912109" lon="-5.18235015869141">
        <ele>571</ele>
        <time>2019-05-12T00:44:08Z</time>
      </trkpt>
      <trkpt lat="36.7773208618164" lon="-5.18238306045532">
        <ele>571</ele>
        <time>2019-05-12T00:44:10Z</time>
      </trkpt>
      <trkpt lat="36.7773094177246" lon="-5.18241691589356">
        <ele>571</ele>
        <time>2019-05-12T00:44:12Z</time>
      </trkpt>
      <trkpt lat="36.7772979736328" lon="-5.18244981765747">
        <ele>571</ele>
        <time>2019-05-12T00:44:14Z</time>
      </trkpt>
      <trkpt lat="36.777286529541" lon="-5.18248176574707">
        <ele>571</ele>
        <time>2019-05-12T00:44:16Z</time>
      </trkpt>
      <trkpt lat="36.7772789001465" lon="-5.18251323699951">
        <ele>571</ele>
        <time>2019-05-12T00:44:18Z</time>
      </trkpt>
      <trkpt lat="36.7772674560547" lon="-5.18254518508911">
        <ele>571</ele>
        <time>2019-05-12T00:44:20Z</time>
      </trkpt>
      <trkpt lat="36.7772483825684" lon="-5.18259286880493">
        <ele>571</ele>
        <time>2019-05-12T00:44:22Z</time>
      </trkpt>
      <trkpt lat="36.7772407531738" lon="-5.18262481689453">
        <ele>571</ele>
        <time>2019-05-12T00:44:25Z</time>
      </trkpt>
      <trkpt lat="36.777229309082" lon="-5.1826548576355">
        <ele>571</ele>
        <time>2019-05-12T00:44:27Z</time>
      </trkpt>
      <trkpt lat="36.7772178649902" lon="-5.1826868057251">
        <ele>571</ele>
        <time>2019-05-12T00:44:29Z</time>
      </trkpt>
      <trkpt lat="36.7772064208984" lon="-5.18272018432617">
        <ele>571</ele>
        <time>2019-05-12T00:44:31Z</time>
      </trkpt>
      <trkpt lat="36.7771987915039" lon="-5.18275308609009">
        <ele>571</ele>
        <time>2019-05-12T00:44:33Z</time>
      </trkpt>
      <trkpt lat="36.7771873474121" lon="-5.18278694152832">
        <ele>570</ele>
        <time>2019-05-12T00:44:35Z</time>
      </trkpt>
      <trkpt lat="36.7771759033203" lon="-5.18281984329224">
        <ele>570</ele>
        <time>2019-05-12T00:44:37Z</time>
      </trkpt>
      <trkpt lat="36.7771644592285" lon="-5.18285179138184">
        <ele>570</ele>
        <time>2019-05-12T00:44:39Z</time>
      </trkpt>
      <trkpt lat="36.7771530151367" lon="-5.18288278579712">
        <ele>570</ele>
        <time>2019-05-12T00:44:41Z</time>
      </trkpt>
      <trkpt lat="36.7771415710449" lon="-5.18291521072388">
        <ele>570</ele>
        <time>2019-05-12T00:44:43Z</time>
      </trkpt>
      <trkpt lat="36.7771301269531" lon="-5.18294811248779">
        <ele>570</ele>
        <time>2019-05-12T00:44:45Z</time>
      </trkpt>
      <trkpt lat="36.7771186828613" lon="-5.18298006057739">
        <ele>569</ele>
        <time>2019-05-12T00:44:47Z</time>
      </trkpt>
      <trkpt lat="36.7771110534668" lon="-5.18301486968994">
        <ele>569</ele>
        <time>2019-05-12T00:44:49Z</time>
      </trkpt>
      <trkpt lat="36.777099609375" lon="-5.18304300308228">
        <ele>569</ele>
        <time>2019-05-12T00:44:51Z</time>
      </trkpt>
      <trkpt lat="36.7770881652832" lon="-5.18307685852051">
        <ele>569</ele>
        <time>2019-05-12T00:44:53Z</time>
      </trkpt>
      <trkpt lat="36.7770767211914" lon="-5.18310689926147">
        <ele>569</ele>
        <time>2019-05-12T00:44:55Z</time>
      </trkpt>
      <trkpt lat="36.7770614624023" lon="-5.18313503265381">
        <ele>569</ele>
        <time>2019-05-12T00:44:57Z</time>
      </trkpt>
      <trkpt lat="36.7770538330078" lon="-5.18316698074341">
        <ele>569</ele>
        <time>2019-05-12T00:44:59Z</time>
      </trkpt>
      <trkpt lat="36.777042388916" lon="-5.18319320678711">
        <ele>569</ele>
        <time>2019-05-12T00:45:01Z</time>
      </trkpt>
      <trkpt lat="36.777027130127" lon="-5.18322515487671">
        <ele>569</ele>
        <time>2019-05-12T00:45:03Z</time>
      </trkpt>
      <trkpt lat="36.7770195007324" lon="-5.18325710296631">
        <ele>569</ele>
        <time>2019-05-12T00:45:05Z</time>
      </trkpt>
      <trkpt lat="36.7770080566406" lon="-5.18328809738159">
        <ele>569</ele>
        <time>2019-05-12T00:45:07Z</time>
      </trkpt>
      <trkpt lat="36.7769966125488" lon="-5.18332004547119">
        <ele>569</ele>
        <time>2019-05-12T00:45:09Z</time>
      </trkpt>
      <trkpt lat="36.776985168457" lon="-5.18335294723511">
        <ele>569</ele>
        <time>2019-05-12T00:45:11Z</time>
      </trkpt>
      <trkpt lat="36.7769737243652" lon="-5.18338489532471">
        <ele>569</ele>
        <time>2019-05-12T00:45:13Z</time>
      </trkpt>
      <trkpt lat="36.7769660949707" lon="-5.18341684341431">
        <ele>569</ele>
        <time>2019-05-12T00:45:15Z</time>
      </trkpt>
      <trkpt lat="36.7769546508789" lon="-5.18344783782959">
        <ele>569</ele>
        <time>2019-05-12T00:45:17Z</time>
      </trkpt>
      <trkpt lat="36.7769432067871" lon="-5.18347978591919">
        <ele>569</ele>
        <time>2019-05-12T00:45:19Z</time>
      </trkpt>
      <trkpt lat="36.7769317626953" lon="-5.18351221084595">
        <ele>569</ele>
        <time>2019-05-12T00:45:21Z</time>
      </trkpt>
      <trkpt lat="36.7769165039062" lon="-5.18354511260986">
        <ele>569</ele>
        <time>2019-05-12T00:45:23Z</time>
      </trkpt>
      <trkpt lat="36.7769088745117" lon="-5.18357801437378">
        <ele>569</ele>
        <time>2019-05-12T00:45:25Z</time>
      </trkpt>
      <trkpt lat="36.7768974304199" lon="-5.18360805511475">
        <ele>569</ele>
        <time>2019-05-12T00:45:27Z</time>
      </trkpt>
      <trkpt lat="36.7768821716309" lon="-5.18364000320435">
        <ele>569</ele>
        <time>2019-05-12T00:45:29Z</time>
      </trkpt>
      <trkpt lat="36.7768707275391" lon="-5.18367004394531">
        <ele>569</ele>
        <time>2019-05-12T00:45:31Z</time>
      </trkpt>
      <trkpt lat="36.7768592834473" lon="-5.18370008468628">
        <ele>569</ele>
        <time>2019-05-12T00:45:33Z</time>
      </trkpt>
      <trkpt lat="36.7768478393555" lon="-5.18373203277588">
        <ele>569</ele>
        <time>2019-05-12T00:45:35Z</time>
      </trkpt>
      <trkpt lat="36.7768363952637" lon="-5.18376302719116">
        <ele>569</ele>
        <time>2019-05-12T00:45:37Z</time>
      </trkpt>
      <trkpt lat="36.7768249511719" lon="-5.18379306793213">
        <ele>569</ele>
        <time>2019-05-12T00:45:39Z</time>
      </trkpt>
      <trkpt lat="36.7768135070801" lon="-5.18382215499878">
        <ele>569</ele>
        <time>2019-05-12T00:45:41Z</time>
      </trkpt>
      <trkpt lat="36.7768020629883" lon="-5.18385219573975">
        <ele>569</ele>
        <time>2019-05-12T00:45:43Z</time>
      </trkpt>
      <trkpt lat="36.7767906188965" lon="-5.18388319015503">
        <ele>569</ele>
        <time>2019-05-12T00:45:45Z</time>
      </trkpt>
      <trkpt lat="36.776782989502" lon="-5.18391513824463">
        <ele>569</ele>
        <time>2019-05-12T00:45:47Z</time>
      </trkpt>
      <trkpt lat="36.7767753601074" lon="-5.18394708633423">
        <ele>569</ele>
        <time>2019-05-12T00:45:49Z</time>
      </trkpt>
      <trkpt lat="36.7767639160156" lon="-5.18397998809814">
        <ele>569</ele>
        <time>2019-05-12T00:45:51Z</time>
      </trkpt>
      <trkpt lat="36.7767562866211" lon="-5.18401193618774">
        <ele>569</ele>
        <time>2019-05-12T00:45:53Z</time>
      </trkpt>
      <trkpt lat="36.7767448425293" lon="-5.18404722213745">
        <ele>569</ele>
        <time>2019-05-12T00:45:55Z</time>
      </trkpt>
      <trkpt lat="36.7767333984375" lon="-5.18407821655273">
        <ele>569</ele>
        <time>2019-05-12T00:45:57Z</time>
      </trkpt>
      <trkpt lat="36.7767219543457" lon="-5.18411207199097">
        <ele>569</ele>
        <time>2019-05-12T00:45:59Z</time>
      </trkpt>
      <trkpt lat="36.7767066955566" lon="-5.18416213989258">
        <ele>569</ele>
        <time>2019-05-12T00:46:01Z</time>
      </trkpt>
      <trkpt lat="36.7766914367676" lon="-5.18419313430786">
        <ele>569</ele>
        <time>2019-05-12T00:46:04Z</time>
      </trkpt>
      <trkpt lat="36.7766799926758" lon="-5.18422508239746">
        <ele>569</ele>
        <time>2019-05-12T00:46:06Z</time>
      </trkpt>
      <trkpt lat="36.776668548584" lon="-5.18425798416138">
        <ele>569</ele>
        <time>2019-05-12T00:46:08Z</time>
      </trkpt>
      <trkpt lat="36.7766571044922" lon="-5.18429279327393">
        <ele>569</ele>
        <time>2019-05-12T00:46:10Z</time>
      </trkpt>
      <trkpt lat="36.7766456604004" lon="-5.18432712554932">
        <ele>569</ele>
        <time>2019-05-12T00:46:12Z</time>
      </trkpt>
      <trkpt lat="36.7766342163086" lon="-5.18436002731323">
        <ele>569</ele>
        <time>2019-05-12T00:46:14Z</time>
      </trkpt>
      <trkpt lat="36.7766227722168" lon="-5.18439722061157">
        <ele>569</ele>
        <time>2019-05-12T00:46:16Z</time>
      </trkpt>
      <trkpt lat="36.776611328125" lon="-5.18443202972412">
        <ele>569</ele>
        <time>2019-05-12T00:46:18Z</time>
      </trkpt>
      <trkpt lat="36.7765998840332" lon="-5.18446493148804">
        <ele>569</ele>
        <time>2019-05-12T00:46:20Z</time>
      </trkpt>
      <trkpt lat="36.7765884399414" lon="-5.18450212478638">
        <ele>569</ele>
        <time>2019-05-12T00:46:22Z</time>
      </trkpt>
      <trkpt lat="36.7765769958496" lon="-5.18453788757324">
        <ele>569</ele>
        <time>2019-05-12T00:46:24Z</time>
      </trkpt>
      <trkpt lat="36.7765693664551" lon="-5.18457317352295">
        <ele>569</ele>
        <time>2019-05-12T00:46:26Z</time>
      </trkpt>
      <trkpt lat="36.7765617370606" lon="-5.18460702896118">
        <ele>569</ele>
        <time>2019-05-12T00:46:28Z</time>
      </trkpt>
      <trkpt lat="36.7765502929688" lon="-5.18463802337646">
        <ele>569</ele>
        <time>2019-05-12T00:46:30Z</time>
      </trkpt>
      <trkpt lat="36.776538848877" lon="-5.18466997146606">
        <ele>569</ele>
        <time>2019-05-12T00:46:32Z</time>
      </trkpt>
      <trkpt lat="36.7765274047852" lon="-5.18470001220703">
        <ele>569</ele>
        <time>2019-05-12T00:46:34Z</time>
      </trkpt>
      <trkpt lat="36.7765159606934" lon="-5.18472719192505">
        <ele>569</ele>
        <time>2019-05-12T00:46:36Z</time>
      </trkpt>
      <trkpt lat="36.7765083312988" lon="-5.18475723266602">
        <ele>569</ele>
        <time>2019-05-12T00:46:38Z</time>
      </trkpt>
      <trkpt lat="36.776496887207" lon="-5.18478298187256">
        <ele>569</ele>
        <time>2019-05-12T00:46:40Z</time>
      </trkpt>
      <trkpt lat="36.7764854431152" lon="-5.18481206893921">
        <ele>569</ele>
        <time>2019-05-12T00:46:42Z</time>
      </trkpt>
      <trkpt lat="36.7764739990234" lon="-5.18483781814575">
        <ele>569</ele>
        <time>2019-05-12T00:46:44Z</time>
      </trkpt>
      <trkpt lat="36.7764663696289" lon="-5.18486213684082">
        <ele>569</ele>
        <time>2019-05-12T00:46:46Z</time>
      </trkpt>
      <trkpt lat="36.7764587402344" lon="-5.18488788604736">
        <ele>569</ele>
        <time>2019-05-12T00:46:48Z</time>
      </trkpt>
      <trkpt lat="36.7764472961426" lon="-5.18491315841675">
        <ele>569</ele>
        <time>2019-05-12T00:46:50Z</time>
      </trkpt>
      <trkpt lat="36.7764358520508" lon="-5.18494176864624">
        <ele>569</ele>
        <time>2019-05-12T00:46:52Z</time>
      </trkpt>
      <trkpt lat="36.776424407959" lon="-5.18496990203857">
        <ele>569</ele>
        <time>2019-05-12T00:46:54Z</time>
      </trkpt>
      <trkpt lat="36.7764129638672" lon="-5.18499708175659">
        <ele>569</ele>
        <time>2019-05-12T00:46:56Z</time>
      </trkpt>
      <trkpt lat="36.7763977050781" lon="-5.18502283096314">
        <ele>569</ele>
        <time>2019-05-12T00:46:58Z</time>
      </trkpt>
      <trkpt lat="36.7763862609863" lon="-5.18505191802978">
        <ele>569</ele>
        <time>2019-05-12T00:47:00Z</time>
      </trkpt>
      <trkpt lat="36.7763786315918" lon="-5.18508005142212">
        <ele>569</ele>
        <time>2019-05-12T00:47:02Z</time>
      </trkpt>
      <trkpt lat="36.7763633728027" lon="-5.18510723114014">
        <ele>569</ele>
        <time>2019-05-12T00:47:04Z</time>
      </trkpt>
      <trkpt lat="36.7763481140137" lon="-5.18513679504394">
        <ele>569</ele>
        <time>2019-05-12T00:47:06Z</time>
      </trkpt>
      <trkpt lat="36.7763366699219" lon="-5.18516492843628">
        <ele>569</ele>
        <time>2019-05-12T00:47:08Z</time>
      </trkpt>
      <trkpt lat="36.7763290405273" lon="-5.18519496917725">
        <ele>569</ele>
        <time>2019-05-12T00:47:10Z</time>
      </trkpt>
      <trkpt lat="36.7763214111328" lon="-5.18522500991821">
        <ele>569</ele>
        <time>2019-05-12T00:47:12Z</time>
      </trkpt>
      <trkpt lat="36.7763137817383" lon="-5.18525314331055">
        <ele>569</ele>
        <time>2019-05-12T00:47:14Z</time>
      </trkpt>
      <trkpt lat="36.7763023376465" lon="-5.1852822303772">
        <ele>569</ele>
        <time>2019-05-12T00:47:16Z</time>
      </trkpt>
      <trkpt lat="36.7762908935547" lon="-5.18530988693237">
        <ele>569</ele>
        <time>2019-05-12T00:47:18Z</time>
      </trkpt>
      <trkpt lat="36.7762794494629" lon="-5.18533992767334">
        <ele>569</ele>
        <time>2019-05-12T00:47:20Z</time>
      </trkpt>
      <trkpt lat="36.7762680053711" lon="-5.18536996841431">
        <ele>569</ele>
        <time>2019-05-12T00:47:22Z</time>
      </trkpt>
      <trkpt lat="36.7762565612793" lon="-5.18540191650391">
        <ele>569</ele>
        <time>2019-05-12T00:47:24Z</time>
      </trkpt>
      <trkpt lat="36.7762489318848" lon="-5.18543291091919">
        <ele>569</ele>
        <time>2019-05-12T00:47:26Z</time>
      </trkpt>
      <trkpt lat="36.776237487793" lon="-5.18546485900879">
        <ele>569</ele>
        <time>2019-05-12T00:47:28Z</time>
      </trkpt>
      <trkpt lat="36.7762298583984" lon="-5.18549823760986">
        <ele>569</ele>
        <time>2019-05-12T00:47:30Z</time>
      </trkpt>
      <trkpt lat="36.7762145996094" lon="-5.185546875">
        <ele>569</ele>
        <time>2019-05-12T00:47:32Z</time>
      </trkpt>
      <trkpt lat="36.7762031555176" lon="-5.18558216094971">
        <ele>569</ele>
        <time>2019-05-12T00:47:35Z</time>
      </trkpt>
      <trkpt lat="36.7761993408203" lon="-5.18561792373657">
        <ele>569</ele>
        <time>2019-05-12T00:47:37Z</time>
      </trkpt>
      <trkpt lat="36.7761917114258" lon="-5.18565320968628">
        <ele>569</ele>
        <time>2019-05-12T00:47:39Z</time>
      </trkpt>
      <trkpt lat="36.7761878967285" lon="-5.18568992614746">
        <ele>569</ele>
        <time>2019-05-12T00:47:41Z</time>
      </trkpt>
      <trkpt lat="36.7761840820312" lon="-5.1857271194458">
        <ele>569</ele>
        <time>2019-05-12T00:47:43Z</time>
      </trkpt>
      <trkpt lat="36.776180267334" lon="-5.18576192855835">
        <ele>569</ele>
        <time>2019-05-12T00:47:45Z</time>
      </trkpt>
      <trkpt lat="36.776180267334" lon="-5.18579721450806">
        <ele>569</ele>
        <time>2019-05-12T00:47:47Z</time>
      </trkpt>
      <trkpt lat="36.776180267334" lon="-5.18583202362061">
        <ele>569</ele>
        <time>2019-05-12T00:47:49Z</time>
      </trkpt>
      <trkpt lat="36.7761764526367" lon="-5.18586683273315">
        <ele>569</ele>
        <time>2019-05-12T00:47:51Z</time>
      </trkpt>
      <trkpt lat="36.7761764526367" lon="-5.18590307235718">
        <ele>569</ele>
        <time>2019-05-12T00:47:53Z</time>
      </trkpt>
      <trkpt lat="36.7761764526367" lon="-5.18593978881836">
        <ele>569</ele>
        <time>2019-05-12T00:47:55Z</time>
      </trkpt>
      <trkpt lat="36.7761726379394" lon="-5.1859769821167">
        <ele>569</ele>
        <time>2019-05-12T00:47:57Z</time>
      </trkpt>
      <trkpt lat="36.7761726379394" lon="-5.18601322174072">
        <ele>569</ele>
        <time>2019-05-12T00:47:59Z</time>
      </trkpt>
      <trkpt lat="36.7761688232422" lon="-5.1860499382019">
        <ele>569</ele>
        <time>2019-05-12T00:48:01Z</time>
      </trkpt>
      <trkpt lat="36.7761688232422" lon="-5.18608713150024">
        <ele>568</ele>
        <time>2019-05-12T00:48:03Z</time>
      </trkpt>
      <trkpt lat="36.7761611938477" lon="-5.18612194061279">
        <ele>568</ele>
        <time>2019-05-12T00:48:05Z</time>
      </trkpt>
      <trkpt lat="36.7761573791504" lon="-5.18615818023682">
        <ele>568</ele>
        <time>2019-05-12T00:48:07Z</time>
      </trkpt>
      <trkpt lat="36.7761535644531" lon="-5.18619298934936">
        <ele>568</ele>
        <time>2019-05-12T00:48:09Z</time>
      </trkpt>
      <trkpt lat="36.7761535644531" lon="-5.18622779846191">
        <ele>568</ele>
        <time>2019-05-12T00:48:11Z</time>
      </trkpt>
      <trkpt lat="36.7761459350586" lon="-5.18626308441162">
        <ele>568</ele>
        <time>2019-05-12T00:48:13Z</time>
      </trkpt>
      <trkpt lat="36.7761421203613" lon="-5.18629693984985">
        <ele>568</ele>
        <time>2019-05-12T00:48:15Z</time>
      </trkpt>
      <trkpt lat="36.7761421203613" lon="-5.18632793426514">
        <ele>568</ele>
        <time>2019-05-12T00:48:17Z</time>
      </trkpt>
      <trkpt lat="36.7761383056641" lon="-5.18636322021484">
        <ele>568</ele>
        <time>2019-05-12T00:48:19Z</time>
      </trkpt>
      <trkpt lat="36.7761306762695" lon="-5.18639516830444">
        <ele>568</ele>
        <time>2019-05-12T00:48:21Z</time>
      </trkpt>
      <trkpt lat="36.7761268615723" lon="-5.18642997741699">
        <ele>568</ele>
        <time>2019-05-12T00:48:23Z</time>
      </trkpt>
      <trkpt lat="36.7761192321777" lon="-5.18646478652954">
        <ele>568</ele>
        <time>2019-05-12T00:48:25Z</time>
      </trkpt>
      <trkpt lat="36.7761116027832" lon="-5.18650007247925">
        <ele>568</ele>
        <time>2019-05-12T00:48:27Z</time>
      </trkpt>
      <trkpt lat="36.7761039733887" lon="-5.18653297424316">
        <ele>568</ele>
        <time>2019-05-12T00:48:29Z</time>
      </trkpt>
      <trkpt lat="36.7760963439941" lon="-5.1865668296814">
        <ele>568</ele>
        <time>2019-05-12T00:48:31Z</time>
      </trkpt>
      <trkpt lat="36.7760848999023" lon="-5.18660020828247">
        <ele>568</ele>
        <time>2019-05-12T00:48:33Z</time>
      </trkpt>
      <trkpt lat="36.7760734558106" lon="-5.18663311004639">
        <ele>568</ele>
        <time>2019-05-12T00:48:35Z</time>
      </trkpt>
      <trkpt lat="36.776065826416" lon="-5.18666791915894">
        <ele>568</ele>
        <time>2019-05-12T00:48:37Z</time>
      </trkpt>
      <trkpt lat="36.7760581970215" lon="-5.18669986724854">
        <ele>568</ele>
        <time>2019-05-12T00:48:39Z</time>
      </trkpt>
      <trkpt lat="36.7760429382324" lon="-5.18673276901245">
        <ele>568</ele>
        <time>2019-05-12T00:48:41Z</time>
      </trkpt>
      <trkpt lat="36.7760353088379" lon="-5.18676805496216">
        <ele>568</ele>
        <time>2019-05-12T00:48:43Z</time>
      </trkpt>
      <trkpt lat="36.7760276794434" lon="-5.18680191040039">
        <ele>568</ele>
        <time>2019-05-12T00:48:45Z</time>
      </trkpt>
      <trkpt lat="36.7760200500488" lon="-5.18683481216431">
        <ele>568</ele>
        <time>2019-05-12T00:48:47Z</time>
      </trkpt>
      <trkpt lat="36.7760124206543" lon="-5.18686819076538">
        <ele>568</ele>
        <time>2019-05-12T00:48:49Z</time>
      </trkpt>
      <trkpt lat="36.776008605957" lon="-5.18690490722656">
        <ele>568</ele>
        <time>2019-05-12T00:48:51Z</time>
      </trkpt>
      <trkpt lat="36.7760009765625" lon="-5.1869421005249">
        <ele>568</ele>
        <time>2019-05-12T00:48:53Z</time>
      </trkpt>
      <trkpt lat="36.775993347168" lon="-5.18697690963745">
        <ele>568</ele>
        <time>2019-05-12T00:48:55Z</time>
      </trkpt>
      <trkpt lat="36.7759895324707" lon="-5.18701219558716">
        <ele>568</ele>
        <time>2019-05-12T00:48:57Z</time>
      </trkpt>
      <trkpt lat="36.7759857177734" lon="-5.18704795837402">
        <ele>568</ele>
        <time>2019-05-12T00:48:59Z</time>
      </trkpt>
      <trkpt lat="36.7759819030762" lon="-5.18708181381226">
        <ele>568</ele>
        <time>2019-05-12T00:49:01Z</time>
      </trkpt>
      <trkpt lat="36.7759780883789" lon="-5.18711805343628">
        <ele>568</ele>
        <time>2019-05-12T00:49:03Z</time>
      </trkpt>
      <trkpt lat="36.7759742736816" lon="-5.18715476989746">
        <ele>568</ele>
        <time>2019-05-12T00:49:05Z</time>
      </trkpt>
      <trkpt lat="36.7759704589844" lon="-5.1871919631958">
        <ele>568</ele>
        <time>2019-05-12T00:49:07Z</time>
      </trkpt>
      <trkpt lat="36.7759666442871" lon="-5.18722677230835">
        <ele>568</ele>
        <time>2019-05-12T00:49:09Z</time>
      </trkpt>
      <trkpt lat="36.7759590148926" lon="-5.18726301193237">
        <ele>568</ele>
        <time>2019-05-12T00:49:11Z</time>
      </trkpt>
      <trkpt lat="36.7759552001953" lon="-5.18729782104492">
        <ele>568</ele>
        <time>2019-05-12T00:49:13Z</time>
      </trkpt>
      <trkpt lat="36.775951385498" lon="-5.18733310699463">
        <ele>568</ele>
        <time>2019-05-12T00:49:15Z</time>
      </trkpt>
      <trkpt lat="36.7759437561035" lon="-5.18736791610718">
        <ele>568</ele>
        <time>2019-05-12T00:49:17Z</time>
      </trkpt>
      <trkpt lat="36.775936126709" lon="-5.18742179870606">
        <ele>568</ele>
        <time>2019-05-12T00:49:19Z</time>
      </trkpt>
      <trkpt lat="36.7759323120117" lon="-5.18745708465576">
        <ele>568</ele>
        <time>2019-05-12T00:49:22Z</time>
      </trkpt>
      <trkpt lat="36.7759284973144" lon="-5.18749189376831">
        <ele>568</ele>
        <time>2019-05-12T00:49:24Z</time>
      </trkpt>
      <trkpt lat="36.7759208679199" lon="-5.18752717971802">
        <ele>568</ele>
        <time>2019-05-12T00:49:26Z</time>
      </trkpt>
      <trkpt lat="36.7759170532227" lon="-5.18756198883057">
        <ele>568</ele>
        <time>2019-05-12T00:49:28Z</time>
      </trkpt>
      <trkpt lat="36.7759094238281" lon="-5.18759489059448">
        <ele>568</ele>
        <time>2019-05-12T00:49:30Z</time>
      </trkpt>
      <trkpt lat="36.7759017944336" lon="-5.1876277923584">
        <ele>568</ele>
        <time>2019-05-12T00:49:32Z</time>
      </trkpt>
      <trkpt lat="36.7758941650391" lon="-5.18766307830811">
        <ele>568</ele>
        <time>2019-05-12T00:49:34Z</time>
      </trkpt>
      <trkpt lat="36.7758865356445" lon="-5.18769693374634">
        <ele>568</ele>
        <time>2019-05-12T00:49:36Z</time>
      </trkpt>
      <trkpt lat="36.77587890625" lon="-5.18772983551025">
        <ele>568</ele>
        <time>2019-05-12T00:49:38Z</time>
      </trkpt>
      <trkpt lat="36.7758750915527" lon="-5.18776702880859">
        <ele>568</ele>
        <time>2019-05-12T00:49:40Z</time>
      </trkpt>
      <trkpt lat="36.7758674621582" lon="-5.18780183792114">
        <ele>568</ele>
        <time>2019-05-12T00:49:42Z</time>
      </trkpt>
      <trkpt lat="36.7758598327637" lon="-5.18783283233643">
        <ele>568</ele>
        <time>2019-05-12T00:49:44Z</time>
      </trkpt>
      <trkpt lat="36.7758522033691" lon="-5.18786716461182">
        <ele>568</ele>
        <time>2019-05-12T00:49:46Z</time>
      </trkpt>
      <trkpt lat="36.7758445739746" lon="-5.18790006637573">
        <ele>568</ele>
        <time>2019-05-12T00:49:48Z</time>
      </trkpt>
      <trkpt lat="36.7758369445801" lon="-5.18793201446533">
        <ele>568</ele>
        <time>2019-05-12T00:49:50Z</time>
      </trkpt>
      <trkpt lat="36.7758331298828" lon="-5.18796491622925">
        <ele>568</ele>
        <time>2019-05-12T00:49:52Z</time>
      </trkpt>
      <trkpt lat="36.7758331298828" lon="-5.18799781799316">
        <ele>568</ele>
        <time>2019-05-12T00:49:54Z</time>
      </trkpt>
      <trkpt lat="36.7758293151856" lon="-5.18802976608276">
        <ele>568</ele>
        <time>2019-05-12T00:49:56Z</time>
      </trkpt>
      <trkpt lat="36.775821685791" lon="-5.18806219100952">
        <ele>568</ele>
        <time>2019-05-12T00:49:58Z</time>
      </trkpt>
      <trkpt lat="36.7758178710938" lon="-5.18809509277344">
        <ele>568</ele>
        <time>2019-05-12T00:50:00Z</time>
      </trkpt>
      <trkpt lat="36.7758102416992" lon="-5.18812704086304">
        <ele>568</ele>
        <time>2019-05-12T00:50:02Z</time>
      </trkpt>
      <trkpt lat="36.775806427002" lon="-5.18815803527832">
        <ele>568</ele>
        <time>2019-05-12T00:50:04Z</time>
      </trkpt>
      <trkpt lat="36.775806427002" lon="-5.18819284439087">
        <ele>568</ele>
        <time>2019-05-12T00:50:06Z</time>
      </trkpt>
      <trkpt lat="36.7758026123047" lon="-5.18822717666626">
        <ele>568</ele>
        <time>2019-05-12T00:50:08Z</time>
      </trkpt>
      <trkpt lat="36.7757987976074" lon="-5.18826007843018">
        <ele>568</ele>
        <time>2019-05-12T00:50:10Z</time>
      </trkpt>
      <trkpt lat="36.7757911682129" lon="-5.18829298019409">
        <ele>568</ele>
        <time>2019-05-12T00:50:12Z</time>
      </trkpt>
      <trkpt lat="36.7757911682129" lon="-5.18832778930664">
        <ele>568</ele>
        <time>2019-05-12T00:50:14Z</time>
      </trkpt>
      <trkpt lat="36.7757873535156" lon="-5.18836498260498">
        <ele>568</ele>
        <time>2019-05-12T00:50:16Z</time>
      </trkpt>
      <trkpt lat="36.7757873535156" lon="-5.18840217590332">
        <ele>568</ele>
        <time>2019-05-12T00:50:18Z</time>
      </trkpt>
      <trkpt lat="36.7757835388184" lon="-5.18843698501587">
        <ele>568</ele>
        <time>2019-05-12T00:50:20Z</time>
      </trkpt>
      <trkpt lat="36.7757797241211" lon="-5.18847179412842">
        <ele>568</ele>
        <time>2019-05-12T00:50:22Z</time>
      </trkpt>
      <trkpt lat="36.7757759094238" lon="-5.18850708007812">
        <ele>568</ele>
        <time>2019-05-12T00:50:24Z</time>
      </trkpt>
      <trkpt lat="36.7757720947266" lon="-5.18853998184204">
        <ele>568</ele>
        <time>2019-05-12T00:50:26Z</time>
      </trkpt>
      <trkpt lat="36.7757682800293" lon="-5.18857192993164">
        <ele>568</ele>
        <time>2019-05-12T00:50:28Z</time>
      </trkpt>
      <trkpt lat="36.775764465332" lon="-5.18860721588135">
        <ele>568</ele>
        <time>2019-05-12T00:50:30Z</time>
      </trkpt>
      <trkpt lat="36.7757568359375" lon="-5.18864011764526">
        <ele>568</ele>
        <time>2019-05-12T00:50:32Z</time>
      </trkpt>
      <trkpt lat="36.7757530212402" lon="-5.18867301940918">
        <ele>568</ele>
        <time>2019-05-12T00:50:34Z</time>
      </trkpt>
      <trkpt lat="36.7757453918457" lon="-5.18870782852173">
        <ele>568</ele>
        <time>2019-05-12T00:50:36Z</time>
      </trkpt>
      <trkpt lat="36.7757415771484" lon="-5.18874311447144">
        <ele>568</ele>
        <time>2019-05-12T00:50:38Z</time>
      </trkpt>
      <trkpt lat="36.7757415771484" lon="-5.18877983093262">
        <ele>568</ele>
        <time>2019-05-12T00:50:40Z</time>
      </trkpt>
      <trkpt lat="36.7757339477539" lon="-5.18881511688232">
        <ele>568</ele>
        <time>2019-05-12T00:50:42Z</time>
      </trkpt>
      <trkpt lat="36.7757263183594" lon="-5.18884992599487">
        <ele>568</ele>
        <time>2019-05-12T00:50:44Z</time>
      </trkpt>
      <trkpt lat="36.7757225036621" lon="-5.18888282775879">
        <ele>568</ele>
        <time>2019-05-12T00:50:46Z</time>
      </trkpt>
      <trkpt lat="36.7757186889648" lon="-5.1889181137085">
        <ele>568</ele>
        <time>2019-05-12T00:50:48Z</time>
      </trkpt>
      <trkpt lat="36.7757110595703" lon="-5.18895292282104">
        <ele>568</ele>
        <time>2019-05-12T00:50:50Z</time>
      </trkpt>
      <trkpt lat="36.7757034301758" lon="-5.18898820877075">
        <ele>568</ele>
        <time>2019-05-12T00:50:52Z</time>
      </trkpt>
      <trkpt lat="36.7756996154785" lon="-5.1890230178833">
        <ele>569</ele>
        <time>2019-05-12T00:50:54Z</time>
      </trkpt>
      <trkpt lat="36.7756958007812" lon="-5.18906021118164">
        <ele>569</ele>
        <time>2019-05-12T00:50:56Z</time>
      </trkpt>
      <trkpt lat="36.775691986084" lon="-5.18909502029419">
        <ele>569</ele>
        <time>2019-05-12T00:50:58Z</time>
      </trkpt>
      <trkpt lat="36.7756881713867" lon="-5.18913221359253">
        <ele>569</ele>
        <time>2019-05-12T00:51:00Z</time>
      </trkpt>
      <trkpt lat="36.7756767272949" lon="-5.18918514251709">
        <ele>569</ele>
        <time>2019-05-12T00:51:03Z</time>
      </trkpt>
      <trkpt lat="36.7756690979004" lon="-5.18921995162964">
        <ele>569</ele>
        <time>2019-05-12T00:51:05Z</time>
      </trkpt>
      <trkpt lat="36.7756614685059" lon="-5.18925285339356">
        <ele>569</ele>
        <time>2019-05-12T00:51:07Z</time>
      </trkpt>
      <trkpt lat="36.7756576538086" lon="-5.18928480148315">
        <ele>569</ele>
        <time>2019-05-12T00:51:09Z</time>
      </trkpt>
      <trkpt lat="36.7756462097168" lon="-5.18931722640991">
        <ele>569</ele>
        <time>2019-05-12T00:51:11Z</time>
      </trkpt>
      <trkpt lat="36.7756423950195" lon="-5.18935012817383">
        <ele>569</ele>
        <time>2019-05-12T00:51:13Z</time>
      </trkpt>
      <trkpt lat="36.775634765625" lon="-5.18938493728638">
        <ele>570</ele>
        <time>2019-05-12T00:51:15Z</time>
      </trkpt>
      <trkpt lat="36.7756233215332" lon="-5.18942022323608">
        <ele>570</ele>
        <time>2019-05-12T00:51:17Z</time>
      </trkpt>
      <trkpt lat="36.7756195068359" lon="-5.18945503234863">
        <ele>570</ele>
        <time>2019-05-12T00:51:19Z</time>
      </trkpt>
      <trkpt lat="36.7756118774414" lon="-5.18949222564697">
        <ele>571</ele>
        <time>2019-05-12T00:51:21Z</time>
      </trkpt>
      <trkpt lat="36.7756042480469" lon="-5.18952798843384">
        <ele>571</ele>
        <time>2019-05-12T00:51:23Z</time>
      </trkpt>
      <trkpt lat="36.7755966186523" lon="-5.18956518173218">
        <ele>571</ele>
        <time>2019-05-12T00:51:25Z</time>
      </trkpt>
      <trkpt lat="36.7755889892578" lon="-5.18960189819336">
        <ele>571</ele>
        <time>2019-05-12T00:51:27Z</time>
      </trkpt>
      <trkpt lat="36.7755813598633" lon="-5.18963813781738">
        <ele>571</ele>
        <time>2019-05-12T00:51:29Z</time>
      </trkpt>
      <trkpt lat="36.7755737304688" lon="-5.18967294692993">
        <ele>571</ele>
        <time>2019-05-12T00:51:31Z</time>
      </trkpt>
      <trkpt lat="36.7755661010742" lon="-5.18971014022827">
        <ele>571</ele>
        <time>2019-05-12T00:51:33Z</time>
      </trkpt>
      <trkpt lat="36.7755546569824" lon="-5.18974494934082">
        <ele>571</ele>
        <time>2019-05-12T00:51:35Z</time>
      </trkpt>
      <trkpt lat="36.7755432128906" lon="-5.18978023529053">
        <ele>571</ele>
        <time>2019-05-12T00:51:37Z</time>
      </trkpt>
      <trkpt lat="36.7755317687988" lon="-5.18981695175171">
        <ele>571</ele>
        <time>2019-05-12T00:51:39Z</time>
      </trkpt>
      <trkpt lat="36.775520324707" lon="-5.18985223770142">
        <ele>571</ele>
        <time>2019-05-12T00:51:41Z</time>
      </trkpt>
      <trkpt lat="36.7755088806152" lon="-5.18988513946533">
        <ele>571</ele>
        <time>2019-05-12T00:51:43Z</time>
      </trkpt>
      <trkpt lat="36.7754898071289" lon="-5.18991708755493">
        <ele>571</ele>
        <time>2019-05-12T00:51:45Z</time>
      </trkpt>
      <trkpt lat="36.7754745483398" lon="-5.1899471282959">
        <ele>571</ele>
        <time>2019-05-12T00:51:47Z</time>
      </trkpt>
      <trkpt lat="36.7754592895508" lon="-5.18997812271118">
        <ele>571</ele>
        <time>2019-05-12T00:51:49Z</time>
      </trkpt>
      <trkpt lat="36.7754402160644" lon="-5.19000816345215">
        <ele>571</ele>
        <time>2019-05-12T00:51:51Z</time>
      </trkpt>
      <trkpt lat="36.7754211425781" lon="-5.19003295898438">
        <ele>571</ele>
        <time>2019-05-12T00:51:53Z</time>
      </trkpt>
      <trkpt lat="36.7754058837891" lon="-5.19005823135376">
        <ele>571</ele>
        <time>2019-05-12T00:51:55Z</time>
      </trkpt>
      <trkpt lat="36.7753868103027" lon="-5.19008302688599">
        <ele>571</ele>
        <time>2019-05-12T00:51:57Z</time>
      </trkpt>
      <trkpt lat="36.7753715515137" lon="-5.1901068687439">
        <ele>571</ele>
        <time>2019-05-12T00:51:59Z</time>
      </trkpt>
      <trkpt lat="36.7753524780273" lon="-5.19012784957886">
        <ele>571</ele>
        <time>2019-05-12T00:52:01Z</time>
      </trkpt>
      <trkpt lat="36.775333404541" lon="-5.19014692306519">
        <ele>571</ele>
        <time>2019-05-12T00:52:03Z</time>
      </trkpt>
      <trkpt lat="36.775318145752" lon="-5.1901650428772">
        <ele>571</ele>
        <time>2019-05-12T00:52:05Z</time>
      </trkpt>
      <trkpt lat="36.7752990722656" lon="-5.19018507003784">
        <ele>571</ele>
        <time>2019-05-12T00:52:07Z</time>
      </trkpt>
      <trkpt lat="36.7752838134766" lon="-5.19020223617554">
        <ele>571</ele>
        <time>2019-05-12T00:52:09Z</time>
      </trkpt>
      <trkpt lat="36.775260925293" lon="-5.19021797180176">
        <ele>572</ele>
        <time>2019-05-12T00:52:11Z</time>
      </trkpt>
      <trkpt lat="36.7752418518066" lon="-5.19023704528809">
        <ele>572</ele>
        <time>2019-05-12T00:52:13Z</time>
      </trkpt>
      <trkpt lat="36.775218963623" lon="-5.19025278091431">
        <ele>572</ele>
        <time>2019-05-12T00:52:15Z</time>
      </trkpt>
      <trkpt lat="36.7751922607422" lon="-5.19026708602905">
        <ele>572</ele>
        <time>2019-05-12T00:52:17Z</time>
      </trkpt>
      <trkpt lat="36.7751693725586" lon="-5.19027519226074">
        <ele>572</ele>
        <time>2019-05-12T00:52:19Z</time>
      </trkpt>
      <trkpt lat="36.775146484375" lon="-5.1902871131897">
        <ele>572</ele>
        <time>2019-05-12T00:52:21Z</time>
      </trkpt>
      <trkpt lat="36.7751235961914" lon="-5.19029712677002">
        <ele>572</ele>
        <time>2019-05-12T00:52:23Z</time>
      </trkpt>
      <trkpt lat="36.7750968933106" lon="-5.19030809402466">
        <ele>572</ele>
        <time>2019-05-12T00:52:25Z</time>
      </trkpt>
      <trkpt lat="36.775074005127" lon="-5.19031715393066">
        <ele>572</ele>
        <time>2019-05-12T00:52:27Z</time>
      </trkpt>
      <trkpt lat="36.7750434875488" lon="-5.19032287597656">
        <ele>572</ele>
        <time>2019-05-12T00:52:29Z</time>
      </trkpt>
      <trkpt lat="36.775016784668" lon="-5.19033288955688">
        <ele>572</ele>
        <time>2019-05-12T00:52:31Z</time>
      </trkpt>
      <trkpt lat="36.7749786376953" lon="-5.19035005569458">
        <ele>572</ele>
        <time>2019-05-12T00:52:33Z</time>
      </trkpt>
      <trkpt lat="36.7749519348144" lon="-5.19036197662354">
        <ele>572</ele>
        <time>2019-05-12T00:52:36Z</time>
      </trkpt>
      <trkpt lat="36.7749290466309" lon="-5.19036722183228">
        <ele>572</ele>
        <time>2019-05-12T00:52:38Z</time>
      </trkpt>
      <trkpt lat="36.77490234375" lon="-5.19037294387817">
        <ele>572</ele>
        <time>2019-05-12T00:52:40Z</time>
      </trkpt>
      <trkpt lat="36.7748794555664" lon="-5.19038486480713">
        <ele>572</ele>
        <time>2019-05-12T00:52:42Z</time>
      </trkpt>
      <trkpt lat="36.7748527526856" lon="-5.19039297103882">
        <ele>572</ele>
        <time>2019-05-12T00:52:44Z</time>
      </trkpt>
      <trkpt lat="36.7748260498047" lon="-5.19040203094482">
        <ele>572</ele>
        <time>2019-05-12T00:52:46Z</time>
      </trkpt>
      <trkpt lat="36.7747993469238" lon="-5.19040822982788">
        <ele>572</ele>
        <time>2019-05-12T00:52:48Z</time>
      </trkpt>
      <trkpt lat="36.7747688293457" lon="-5.19041681289673">
        <ele>572</ele>
        <time>2019-05-12T00:52:50Z</time>
      </trkpt>
      <trkpt lat="36.7747421264648" lon="-5.19042301177978">
        <ele>572</ele>
        <time>2019-05-12T00:52:52Z</time>
      </trkpt>
      <trkpt lat="36.774715423584" lon="-5.19042778015137">
        <ele>572</ele>
        <time>2019-05-12T00:52:54Z</time>
      </trkpt>
      <trkpt lat="36.7746887207031" lon="-5.19043302536011">
        <ele>572</ele>
        <time>2019-05-12T00:52:56Z</time>
      </trkpt>
      <trkpt lat="36.7746620178223" lon="-5.19043493270874">
        <ele>572</ele>
        <time>2019-05-12T00:52:58Z</time>
      </trkpt>
      <trkpt lat="36.7746315002441" lon="-5.19043493270874">
        <ele>572</ele>
        <time>2019-05-12T00:53:00Z</time>
      </trkpt>
      <trkpt lat="36.7746047973633" lon="-5.19043493270874">
        <ele>572</ele>
        <time>2019-05-12T00:53:02Z</time>
      </trkpt>
      <trkpt lat="36.7745780944824" lon="-5.19043207168579">
        <ele>572</ele>
        <time>2019-05-12T00:53:04Z</time>
      </trkpt>
      <trkpt lat="36.7745513916016" lon="-5.19042301177978">
        <ele>572</ele>
        <time>2019-05-12T00:53:06Z</time>
      </trkpt>
      <trkpt lat="36.7745246887207" lon="-5.19041681289673">
        <ele>572</ele>
        <time>2019-05-12T00:53:08Z</time>
      </trkpt>
      <trkpt lat="36.7744979858398" lon="-5.19040822982788">
        <ele>572</ele>
        <time>2019-05-12T00:53:10Z</time>
      </trkpt>
      <trkpt lat="36.774471282959" lon="-5.19040012359619">
        <ele>572</ele>
        <time>2019-05-12T00:53:12Z</time>
      </trkpt>
      <trkpt lat="36.7744483947754" lon="-5.19039011001587">
        <ele>572</ele>
        <time>2019-05-12T00:53:14Z</time>
      </trkpt>
      <trkpt lat="36.7744216918945" lon="-5.19038200378418">
        <ele>572</ele>
        <time>2019-05-12T00:53:16Z</time>
      </trkpt>
      <trkpt lat="36.7743949890137" lon="-5.19037199020386">
        <ele>572</ele>
        <time>2019-05-12T00:53:18Z</time>
      </trkpt>
      <trkpt lat="36.7743682861328" lon="-5.19035816192627">
        <ele>572</ele>
        <time>2019-05-12T00:53:20Z</time>
      </trkpt>
      <trkpt lat="36.7743453979492" lon="-5.19034814834595">
        <ele>572</ele>
        <time>2019-05-12T00:53:22Z</time>
      </trkpt>
      <trkpt lat="36.7743186950684" lon="-5.19033718109131">
        <ele>572</ele>
        <time>2019-05-12T00:53:24Z</time>
      </trkpt>
      <trkpt lat="36.7742919921875" lon="-5.19032716751099">
        <ele>572</ele>
        <time>2019-05-12T00:53:26Z</time>
      </trkpt>
      <trkpt lat="36.7742691040039" lon="-5.19031715393066">
        <ele>571</ele>
        <time>2019-05-12T00:53:28Z</time>
      </trkpt>
      <trkpt lat="36.7742462158203" lon="-5.19030523300171">
        <ele>571</ele>
        <time>2019-05-12T00:53:30Z</time>
      </trkpt>
      <trkpt lat="36.7742233276367" lon="-5.19029188156128">
        <ele>571</ele>
        <time>2019-05-12T00:53:32Z</time>
      </trkpt>
      <trkpt lat="36.7742004394531" lon="-5.19027996063232">
        <ele>571</ele>
        <time>2019-05-12T00:53:34Z</time>
      </trkpt>
      <trkpt lat="36.7741737365723" lon="-5.19026708602905">
        <ele>571</ele>
        <time>2019-05-12T00:53:36Z</time>
      </trkpt>
      <trkpt lat="36.7741508483887" lon="-5.19025278091431">
        <ele>571</ele>
        <time>2019-05-12T00:53:38Z</time>
      </trkpt>
      <trkpt lat="36.7741279602051" lon="-5.19024181365967">
        <ele>570</ele>
        <time>2019-05-12T00:53:40Z</time>
      </trkpt>
      <trkpt lat="36.7741012573242" lon="-5.19023180007935">
        <ele>570</ele>
        <time>2019-05-12T00:53:42Z</time>
      </trkpt>
      <trkpt lat="36.7740783691406" lon="-5.1902232170105">
        <ele>570</ele>
        <time>2019-05-12T00:53:44Z</time>
      </trkpt>
      <trkpt lat="36.774055480957" lon="-5.19021320343018">
        <ele>570</ele>
        <time>2019-05-12T00:53:46Z</time>
      </trkpt>
      <trkpt lat="36.7740287780762" lon="-5.19020318984985">
        <ele>570</ele>
        <time>2019-05-12T00:53:48Z</time>
      </trkpt>
      <trkpt lat="36.7740058898926" lon="-5.19018983840942">
        <ele>570</ele>
        <time>2019-05-12T00:53:50Z</time>
      </trkpt>
      <trkpt lat="36.773983001709" lon="-5.19017791748047">
        <ele>570</ele>
        <time>2019-05-12T00:53:52Z</time>
      </trkpt>
      <trkpt lat="36.7739562988281" lon="-5.19016981124878">
        <ele>570</ele>
        <time>2019-05-12T00:53:54Z</time>
      </trkpt>
      <trkpt lat="36.7739372253418" lon="-5.19016313552856">
        <ele>570</ele>
        <time>2019-05-12T00:53:56Z</time>
      </trkpt>
      <trkpt lat="36.7739181518555" lon="-5.19015216827393">
        <ele>570</ele>
        <time>2019-05-12T00:53:58Z</time>
      </trkpt>
      <trkpt lat="36.7738952636719" lon="-5.19013786315918">
        <ele>570</ele>
        <time>2019-05-12T00:54:00Z</time>
      </trkpt>
      <trkpt lat="36.7738723754883" lon="-5.19012689590454">
        <ele>570</ele>
        <time>2019-05-12T00:54:02Z</time>
      </trkpt>
      <trkpt lat="36.7738494873047" lon="-5.19011688232422">
        <ele>570</ele>
        <time>2019-05-12T00:54:04Z</time>
      </trkpt>
      <trkpt lat="36.7738265991211" lon="-5.1901068687439">
        <ele>570</ele>
        <time>2019-05-12T00:54:06Z</time>
      </trkpt>
      <trkpt lat="36.7738037109375" lon="-5.19010210037231">
        <ele>570</ele>
        <time>2019-05-12T00:54:08Z</time>
      </trkpt>
      <trkpt lat="36.7737808227539" lon="-5.19009494781494">
        <ele>570</ele>
        <time>2019-05-12T00:54:10Z</time>
      </trkpt>
      <trkpt lat="36.773754119873" lon="-5.19008016586304">
        <ele>570</ele>
        <time>2019-05-12T00:54:12Z</time>
      </trkpt>
      <trkpt lat="36.7737312316894" lon="-5.19006776809692">
        <ele>570</ele>
        <time>2019-05-12T00:54:14Z</time>
      </trkpt>
      <trkpt lat="36.7737045288086" lon="-5.19006013870239">
        <ele>570</ele>
        <time>2019-05-12T00:54:16Z</time>
      </trkpt>
      <trkpt lat="36.7736663818359" lon="-5.19004678726196">
        <ele>570</ele>
        <time>2019-05-12T00:54:18Z</time>
      </trkpt>
      <trkpt lat="36.7736396789551" lon="-5.19004011154175">
        <ele>570</ele>
        <time>2019-05-12T00:54:21Z</time>
      </trkpt>
      <trkpt lat="36.7736129760742" lon="-5.19003009796143">
        <ele>570</ele>
        <time>2019-05-12T00:54:23Z</time>
      </trkpt>
      <trkpt lat="36.7735862731934" lon="-5.19002199172974">
        <ele>570</ele>
        <time>2019-05-12T00:54:25Z</time>
      </trkpt>
      <trkpt lat="36.7735595703125" lon="-5.19001483917236">
        <ele>570</ele>
        <time>2019-05-12T00:54:27Z</time>
      </trkpt>
      <trkpt lat="36.7735328674316" lon="-5.19000720977783">
        <ele>570</ele>
        <time>2019-05-12T00:54:29Z</time>
      </trkpt>
      <trkpt lat="36.7735061645508" lon="-5.19000196456909">
        <ele>570</ele>
        <time>2019-05-12T00:54:31Z</time>
      </trkpt>
      <trkpt lat="36.7734756469727" lon="-5.18999481201172">
        <ele>570</ele>
        <time>2019-05-12T00:54:33Z</time>
      </trkpt>
      <trkpt lat="36.7734489440918" lon="-5.18999004364014">
        <ele>570</ele>
        <time>2019-05-12T00:54:35Z</time>
      </trkpt>
      <trkpt lat="36.7734184265137" lon="-5.1899881362915">
        <ele>570</ele>
        <time>2019-05-12T00:54:37Z</time>
      </trkpt>
      <trkpt lat="36.7733917236328" lon="-5.18998718261719">
        <ele>570</ele>
        <time>2019-05-12T00:54:39Z</time>
      </trkpt>
      <trkpt lat="36.7733612060547" lon="-5.1899881362915">
        <ele>570</ele>
        <time>2019-05-12T00:54:41Z</time>
      </trkpt>
      <trkpt lat="36.7733345031738" lon="-5.18999290466309">
        <ele>569</ele>
        <time>2019-05-12T00:54:43Z</time>
      </trkpt>
      <trkpt lat="36.7733039855957" lon="-5.19000196456909">
        <ele>569</ele>
        <time>2019-05-12T00:54:45Z</time>
      </trkpt>
      <trkpt lat="36.7732772827148" lon="-5.19001293182373">
        <ele>569</ele>
        <time>2019-05-12T00:54:47Z</time>
      </trkpt>
      <trkpt lat="36.773250579834" lon="-5.19002485275269">
        <ele>568</ele>
        <time>2019-05-12T00:54:49Z</time>
      </trkpt>
      <trkpt lat="36.7732238769531" lon="-5.19003295898438">
        <ele>568</ele>
        <time>2019-05-12T00:54:51Z</time>
      </trkpt>
      <trkpt lat="36.7732009887695" lon="-5.19004487991333">
        <ele>567</ele>
        <time>2019-05-12T00:54:53Z</time>
      </trkpt>
      <trkpt lat="36.7731742858887" lon="-5.1900520324707">
        <ele>567</ele>
        <time>2019-05-12T00:54:55Z</time>
      </trkpt>
      <trkpt lat="36.7731475830078" lon="-5.19005823135376">
        <ele>567</ele>
        <time>2019-05-12T00:54:57Z</time>
      </trkpt>
      <trkpt lat="36.7731246948242" lon="-5.19006681442261">
        <ele>566</ele>
        <time>2019-05-12T00:54:59Z</time>
      </trkpt>
      <trkpt lat="36.7730979919434" lon="-5.1900749206543">
        <ele>566</ele>
        <time>2019-05-12T00:55:01Z</time>
      </trkpt>
      <trkpt lat="36.7730712890625" lon="-5.19008016586304">
        <ele>565</ele>
        <time>2019-05-12T00:55:03Z</time>
      </trkpt>
      <trkpt lat="36.7730484008789" lon="-5.19008302688599">
        <ele>565</ele>
        <time>2019-05-12T00:55:05Z</time>
      </trkpt>
      <trkpt lat="36.773021697998" lon="-5.19008493423462">
        <ele>564</ele>
        <time>2019-05-12T00:55:07Z</time>
      </trkpt>
      <trkpt lat="36.7729949951172" lon="-5.19008684158325">
        <ele>564</ele>
        <time>2019-05-12T00:55:09Z</time>
      </trkpt>
      <trkpt lat="36.7729721069336" lon="-5.19008493423462">
        <ele>563</ele>
        <time>2019-05-12T00:55:11Z</time>
      </trkpt>
      <trkpt lat="36.77294921875" lon="-5.19008302688599">
        <ele>562</ele>
        <time>2019-05-12T00:55:13Z</time>
      </trkpt>
      <trkpt lat="36.7729225158691" lon="-5.19008016586304">
        <ele>562</ele>
        <time>2019-05-12T00:55:15Z</time>
      </trkpt>
      <trkpt lat="36.7728996276856" lon="-5.1900749206543">
        <ele>562</ele>
        <time>2019-05-12T00:55:17Z</time>
      </trkpt>
      <trkpt lat="36.772876739502" lon="-5.19006490707397">
        <ele>561</ele>
        <time>2019-05-12T00:55:19Z</time>
      </trkpt>
      <trkpt lat="36.7728576660156" lon="-5.19005012512207">
        <ele>561</ele>
        <time>2019-05-12T00:55:21Z</time>
      </trkpt>
      <trkpt lat="36.7728385925293" lon="-5.19003295898438">
        <ele>560</ele>
        <time>2019-05-12T00:55:23Z</time>
      </trkpt>
      <trkpt lat="36.772819519043" lon="-5.19001293182373">
        <ele>560</ele>
        <time>2019-05-12T00:55:25Z</time>
      </trkpt>
      <trkpt lat="36.7728042602539" lon="-5.18999004364014">
        <ele>559</ele>
        <time>2019-05-12T00:55:27Z</time>
      </trkpt>
      <trkpt lat="36.7727851867676" lon="-5.18996477127075">
        <ele>559</ele>
        <time>2019-05-12T00:55:29Z</time>
      </trkpt>
      <trkpt lat="36.7727661132812" lon="-5.18994188308716">
        <ele>558</ele>
        <time>2019-05-12T00:55:31Z</time>
      </trkpt>
      <trkpt lat="36.7727508544922" lon="-5.1899151802063">
        <ele>558</ele>
        <time>2019-05-12T00:55:33Z</time>
      </trkpt>
      <trkpt lat="36.7727355957031" lon="-5.18988990783691">
        <ele>558</ele>
        <time>2019-05-12T00:55:35Z</time>
      </trkpt>
      <trkpt lat="36.7727203369141" lon="-5.18986320495606">
        <ele>558</ele>
        <time>2019-05-12T00:55:37Z</time>
      </trkpt>
      <trkpt lat="36.7727012634277" lon="-5.18983793258667">
        <ele>558</ele>
        <time>2019-05-12T00:55:39Z</time>
      </trkpt>
      <trkpt lat="36.7726860046387" lon="-5.18981504440308">
        <ele>558</ele>
        <time>2019-05-12T00:55:41Z</time>
      </trkpt>
      <trkpt lat="36.7726669311523" lon="-5.18979215621948">
        <ele>558</ele>
        <time>2019-05-12T00:55:43Z</time>
      </trkpt>
      <trkpt lat="36.7726516723633" lon="-5.1897668838501">
        <ele>558</ele>
        <time>2019-05-12T00:55:45Z</time>
      </trkpt>
      <trkpt lat="36.7726364135742" lon="-5.18974685668945">
        <ele>558</ele>
        <time>2019-05-12T00:55:47Z</time>
      </trkpt>
      <trkpt lat="36.7726173400879" lon="-5.18973302841186">
        <ele>558</ele>
        <time>2019-05-12T00:55:49Z</time>
      </trkpt>
      <trkpt lat="36.7725982666016" lon="-5.18971681594849">
        <ele>558</ele>
        <time>2019-05-12T00:55:51Z</time>
      </trkpt>
      <trkpt lat="36.7725791931152" lon="-5.18970012664795">
        <ele>558</ele>
        <time>2019-05-12T00:55:53Z</time>
      </trkpt>
      <trkpt lat="36.7725563049316" lon="-5.1896800994873">
        <ele>558</ele>
        <time>2019-05-12T00:55:55Z</time>
      </trkpt>
      <trkpt lat="36.7725257873535" lon="-5.18965816497803">
        <ele>557</ele>
        <time>2019-05-12T00:55:57Z</time>
      </trkpt>
      <trkpt lat="36.7725067138672" lon="-5.18964195251465">
        <ele>557</ele>
        <time>2019-05-12T00:56:00Z</time>
      </trkpt>
      <trkpt lat="36.7724838256836" lon="-5.18962717056274">
        <ele>557</ele>
        <time>2019-05-12T00:56:02Z</time>
      </trkpt>
      <trkpt lat="36.7724609375" lon="-5.18960809707642">
        <ele>557</ele>
        <time>2019-05-12T00:56:04Z</time>
      </trkpt>
      <trkpt lat="36.7724418640137" lon="-5.18959188461304">
        <ele>556</ele>
        <time>2019-05-12T00:56:06Z</time>
      </trkpt>
      <trkpt lat="36.7724151611328" lon="-5.18957805633545">
        <ele>556</ele>
        <time>2019-05-12T00:56:08Z</time>
      </trkpt>
      <trkpt lat="36.7723922729492" lon="-5.18956995010376">
        <ele>556</ele>
        <time>2019-05-12T00:56:10Z</time>
      </trkpt>
      <trkpt lat="36.7723693847656" lon="-5.18955993652344">
        <ele>555</ele>
        <time>2019-05-12T00:56:12Z</time>
      </trkpt>
      <trkpt lat="36.772346496582" lon="-5.18954801559448">
        <ele>555</ele>
        <time>2019-05-12T00:56:14Z</time>
      </trkpt>
      <trkpt lat="36.7723236083984" lon="-5.18953514099121">
        <ele>555</ele>
        <time>2019-05-12T00:56:16Z</time>
      </trkpt>
      <trkpt lat="36.7722969055176" lon="-5.18952512741089">
        <ele>555</ele>
        <time>2019-05-12T00:56:18Z</time>
      </trkpt>
      <trkpt lat="36.772274017334" lon="-5.18951177597046">
        <ele>554</ele>
        <time>2019-05-12T00:56:20Z</time>
      </trkpt>
      <trkpt lat="36.7722511291504" lon="-5.18949794769287">
        <ele>554</ele>
        <time>2019-05-12T00:56:22Z</time>
      </trkpt>
      <trkpt lat="36.7722282409668" lon="-5.1894850730896">
        <ele>554</ele>
        <time>2019-05-12T00:56:24Z</time>
      </trkpt>
      <trkpt lat="36.7722015380859" lon="-5.18947505950928">
        <ele>554</ele>
        <time>2019-05-12T00:56:26Z</time>
      </trkpt>
      <trkpt lat="36.7721786499023" lon="-5.18946218490601">
        <ele>554</ele>
        <time>2019-05-12T00:56:28Z</time>
      </trkpt>
      <trkpt lat="36.7721557617188" lon="-5.18945217132568">
        <ele>553</ele>
        <time>2019-05-12T00:56:30Z</time>
      </trkpt>
      <trkpt lat="36.7721290588379" lon="-5.18944311141968">
        <ele>553</ele>
        <time>2019-05-12T00:56:32Z</time>
      </trkpt>
      <trkpt lat="36.7721061706543" lon="-5.18943500518799">
        <ele>553</ele>
        <time>2019-05-12T00:56:34Z</time>
      </trkpt>
      <trkpt lat="36.7720832824707" lon="-5.18942022323608">
        <ele>553</ele>
        <time>2019-05-12T00:56:36Z</time>
      </trkpt>
      <trkpt lat="36.7720642089844" lon="-5.18940687179565">
        <ele>553</ele>
        <time>2019-05-12T00:56:38Z</time>
      </trkpt>
      <trkpt lat="36.7720413208008" lon="-5.18939685821533">
        <ele>553</ele>
        <time>2019-05-12T00:56:40Z</time>
      </trkpt>
      <trkpt lat="36.7720184326172" lon="-5.18938493728638">
        <ele>553</ele>
        <time>2019-05-12T00:56:42Z</time>
      </trkpt>
      <trkpt lat="36.7719955444336" lon="-5.18937301635742">
        <ele>553</ele>
        <time>2019-05-12T00:56:44Z</time>
      </trkpt>
      <trkpt lat="36.7719764709473" lon="-5.18936014175415">
        <ele>553</ele>
        <time>2019-05-12T00:56:46Z</time>
      </trkpt>
      <trkpt lat="36.7719535827637" lon="-5.1893482208252">
        <ele>553</ele>
        <time>2019-05-12T00:56:48Z</time>
      </trkpt>
      <trkpt lat="36.7719383239746" lon="-5.1893367767334">
        <ele>553</ele>
        <time>2019-05-12T00:56:50Z</time>
      </trkpt>
      <trkpt lat="36.7719192504883" lon="-5.18932485580444">
        <ele>553</ele>
        <time>2019-05-12T00:56:52Z</time>
      </trkpt>
      <trkpt lat="36.7719039916992" lon="-5.18931293487549">
        <ele>553</ele>
        <time>2019-05-12T00:56:54Z</time>
      </trkpt>
      <trkpt lat="36.7718811035156" lon="-5.18930721282959">
        <ele>553</ele>
        <time>2019-05-12T00:56:56Z</time>
      </trkpt>
      <trkpt lat="36.7718620300293" lon="-5.18929481506348">
        <ele>553</ele>
        <time>2019-05-12T00:56:58Z</time>
      </trkpt>
      <trkpt lat="36.771842956543" lon="-5.18929004669189">
        <ele>553</ele>
        <time>2019-05-12T00:57:00Z</time>
      </trkpt>
      <trkpt lat="36.7718238830566" lon="-5.18928289413452">
        <ele>553</ele>
        <time>2019-05-12T00:57:02Z</time>
      </trkpt>
      <trkpt lat="36.7718048095703" lon="-5.18927478790283">
        <ele>553</ele>
        <time>2019-05-12T00:57:04Z</time>
      </trkpt>
      <trkpt lat="36.7717819213867" lon="-5.1892671585083">
        <ele>553</ele>
        <time>2019-05-12T00:57:06Z</time>
      </trkpt>
      <trkpt lat="36.7717628479004" lon="-5.1892580986023">
        <ele>553</ele>
        <time>2019-05-12T00:57:08Z</time>
      </trkpt>
      <trkpt lat="36.7717361450195" lon="-5.18924999237061">
        <ele>553</ele>
        <time>2019-05-12T00:57:10Z</time>
      </trkpt>
      <trkpt lat="36.7717132568359" lon="-5.18924188613892">
        <ele>553</ele>
        <time>2019-05-12T00:57:12Z</time>
      </trkpt>
      <trkpt lat="36.7716903686523" lon="-5.18923187255859">
        <ele>553</ele>
        <time>2019-05-12T00:57:14Z</time>
      </trkpt>
      <trkpt lat="36.7716636657715" lon="-5.18922281265259">
        <ele>553</ele>
        <time>2019-05-12T00:57:16Z</time>
      </trkpt>
      <trkpt lat="36.7716407775879" lon="-5.18921518325806">
        <ele>553</ele>
        <time>2019-05-12T00:57:18Z</time>
      </trkpt>
      <trkpt lat="36.7716178894043" lon="-5.18920707702637">
        <ele>553</ele>
        <time>2019-05-12T00:57:20Z</time>
      </trkpt>
      <trkpt lat="36.771598815918" lon="-5.18919801712036">
        <ele>553</ele>
        <time>2019-05-12T00:57:22Z</time>
      </trkpt>
      <trkpt lat="36.7715721130371" lon="-5.1891918182373">
        <ele>553</ele>
        <time>2019-05-12T00:57:24Z</time>
      </trkpt>
      <trkpt lat="36.7715492248535" lon="-5.18918704986572">
        <ele>553</ele>
        <time>2019-05-12T00:57:26Z</time>
      </trkpt>
      <trkpt lat="36.7715225219727" lon="-5.18918323516846">
        <ele>553</ele>
        <time>2019-05-12T00:57:28Z</time>
      </trkpt>
      <trkpt lat="36.7714881896973" lon="-5.18917798995972">
        <ele>553</ele>
        <time>2019-05-12T00:57:30Z</time>
      </trkpt>
      <trkpt lat="36.7714653015137" lon="-5.18916988372803">
        <ele>553</ele>
        <time>2019-05-12T00:57:33Z</time>
      </trkpt>
      <trkpt lat="36.7714385986328" lon="-5.18916511535644">
        <ele>553</ele>
        <time>2019-05-12T00:57:35Z</time>
      </trkpt>
      <trkpt lat="36.771411895752" lon="-5.18915700912476">
        <ele>553</ele>
        <time>2019-05-12T00:57:37Z</time>
      </trkpt>
      <trkpt lat="36.7713890075684" lon="-5.18914699554443">
        <ele>553</ele>
        <time>2019-05-12T00:57:39Z</time>
      </trkpt>
      <trkpt lat="36.7713661193848" lon="-5.18913698196411">
        <ele>553</ele>
        <time>2019-05-12T00:57:41Z</time>
      </trkpt>
      <trkpt lat="36.7713394165039" lon="-5.18912696838379">
        <ele>553</ele>
        <time>2019-05-12T00:57:43Z</time>
      </trkpt>
      <trkpt lat="36.771312713623" lon="-5.1891131401062">
        <ele>553</ele>
        <time>2019-05-12T00:57:45Z</time>
      </trkpt>
      <trkpt lat="36.7712898254394" lon="-5.18909978866577">
        <ele>553</ele>
        <time>2019-05-12T00:57:47Z</time>
      </trkpt>
      <trkpt lat="36.7712631225586" lon="-5.18908786773682">
        <ele>553</ele>
        <time>2019-05-12T00:57:49Z</time>
      </trkpt>
      <trkpt lat="36.771240234375" lon="-5.18907308578491">
        <ele>553</ele>
        <time>2019-05-12T00:57:51Z</time>
      </trkpt>
      <trkpt lat="36.7712173461914" lon="-5.18906021118164">
        <ele>553</ele>
        <time>2019-05-12T00:57:53Z</time>
      </trkpt>
      <trkpt lat="36.7711944580078" lon="-5.18904304504394">
        <ele>553</ele>
        <time>2019-05-12T00:57:55Z</time>
      </trkpt>
      <trkpt lat="36.771167755127" lon="-5.18903017044067">
        <ele>553</ele>
        <time>2019-05-12T00:57:57Z</time>
      </trkpt>
      <trkpt lat="36.7711448669434" lon="-5.18901300430298">
        <ele>553</ele>
        <time>2019-05-12T00:57:59Z</time>
      </trkpt>
      <trkpt lat="36.7711181640625" lon="-5.18899822235107">
        <ele>553</ele>
        <time>2019-05-12T00:58:01Z</time>
      </trkpt>
      <trkpt lat="36.7710914611816" lon="-5.18898296356201">
        <ele>553</ele>
        <time>2019-05-12T00:58:03Z</time>
      </trkpt>
      <trkpt lat="36.7710647583008" lon="-5.18896722793579">
        <ele>553</ele>
        <time>2019-05-12T00:58:05Z</time>
      </trkpt>
      <trkpt lat="36.7710418701172" lon="-5.1889500617981">
        <ele>553</ele>
        <time>2019-05-12T00:58:07Z</time>
      </trkpt>
      <trkpt lat="36.7710151672363" lon="-5.18893480300903">
        <ele>553</ele>
        <time>2019-05-12T00:58:09Z</time>
      </trkpt>
      <trkpt lat="36.7709884643555" lon="-5.18892002105713">
        <ele>553</ele>
        <time>2019-05-12T00:58:11Z</time>
      </trkpt>
      <trkpt lat="36.7709655761719" lon="-5.18890714645386">
        <ele>553</ele>
        <time>2019-05-12T00:58:13Z</time>
      </trkpt>
      <trkpt lat="36.7709426879883" lon="-5.18889284133911">
        <ele>553</ele>
        <time>2019-05-12T00:58:15Z</time>
      </trkpt>
      <trkpt lat="36.7709197998047" lon="-5.18888187408447">
        <ele>553</ele>
        <time>2019-05-12T00:58:17Z</time>
      </trkpt>
      <trkpt lat="36.7708969116211" lon="-5.18886709213257">
        <ele>553</ele>
        <time>2019-05-12T00:58:19Z</time>
      </trkpt>
      <trkpt lat="36.7708740234375" lon="-5.18885183334351">
        <ele>553</ele>
        <time>2019-05-12T00:58:21Z</time>
      </trkpt>
      <trkpt lat="36.7708511352539" lon="-5.1888370513916">
        <ele>553</ele>
        <time>2019-05-12T00:58:23Z</time>
      </trkpt>
      <trkpt lat="36.7708282470703" lon="-5.18882179260254">
        <ele>553</ele>
        <time>2019-05-12T00:58:25Z</time>
      </trkpt>
      <trkpt lat="36.7708015441894" lon="-5.18881511688232">
        <ele>553</ele>
        <time>2019-05-12T00:58:27Z</time>
      </trkpt>
      <trkpt lat="36.7707786560059" lon="-5.18881320953369">
        <ele>553</ele>
        <time>2019-05-12T00:58:29Z</time>
      </trkpt>
      <trkpt lat="36.770751953125" lon="-5.18880701065064">
        <ele>553</ele>
        <time>2019-05-12T00:58:31Z</time>
      </trkpt>
      <trkpt lat="36.7707290649414" lon="-5.18879508972168">
        <ele>553</ele>
        <time>2019-05-12T00:58:33Z</time>
      </trkpt>
      <trkpt lat="36.7707061767578" lon="-5.18878221511841">
        <ele>553</ele>
        <time>2019-05-12T00:58:35Z</time>
      </trkpt>
      <trkpt lat="36.7706832885742" lon="-5.18876791000366">
        <ele>553</ele>
        <time>2019-05-12T00:58:37Z</time>
      </trkpt>
      <trkpt lat="36.7706565856934" lon="-5.18875789642334">
        <ele>553</ele>
        <time>2019-05-12T00:58:39Z</time>
      </trkpt>
      <trkpt lat="36.770637512207" lon="-5.1887469291687">
        <ele>553</ele>
        <time>2019-05-12T00:58:41Z</time>
      </trkpt>
      <trkpt lat="36.7706184387207" lon="-5.18873500823975">
        <ele>553</ele>
        <time>2019-05-12T00:58:43Z</time>
      </trkpt>
      <trkpt lat="36.7705993652344" lon="-5.18872499465942">
        <ele>553</ele>
        <time>2019-05-12T00:58:45Z</time>
      </trkpt>
      <trkpt lat="36.7705764770508" lon="-5.1887149810791">
        <ele>553</ele>
        <time>2019-05-12T00:58:47Z</time>
      </trkpt>
      <trkpt lat="36.7705535888672" lon="-5.18870306015015">
        <ele>553</ele>
        <time>2019-05-12T00:58:49Z</time>
      </trkpt>
      <trkpt lat="36.7705307006836" lon="-5.18869304656982">
        <ele>553</ele>
        <time>2019-05-12T00:58:51Z</time>
      </trkpt>
      <trkpt lat="36.7705078125" lon="-5.18868684768677">
        <ele>553</ele>
        <time>2019-05-12T00:58:53Z</time>
      </trkpt>
      <trkpt lat="36.7704811096191" lon="-5.18867683410644">
        <ele>553</ele>
        <time>2019-05-12T00:58:55Z</time>
      </trkpt>
      <trkpt lat="36.7704582214356" lon="-5.18866491317749">
        <ele>553</ele>
        <time>2019-05-12T00:58:57Z</time>
      </trkpt>
      <trkpt lat="36.7704315185547" lon="-5.1886568069458">
        <ele>552</ele>
        <time>2019-05-12T00:58:59Z</time>
      </trkpt>
      <trkpt lat="36.7704086303711" lon="-5.18864822387695">
        <ele>551</ele>
        <time>2019-05-12T00:59:01Z</time>
      </trkpt>
      <trkpt lat="36.7703819274902" lon="-5.18863296508789">
        <ele>551</ele>
        <time>2019-05-12T00:59:03Z</time>
      </trkpt>
      <trkpt lat="36.7703590393066" lon="-5.18861818313599">
        <ele>551</ele>
        <time>2019-05-12T00:59:05Z</time>
      </trkpt>
      <trkpt lat="36.7703323364258" lon="-5.18860483169556">
        <ele>550</ele>
        <time>2019-05-12T00:59:07Z</time>
      </trkpt>
      <trkpt lat="36.7702903747559" lon="-5.18858289718628">
        <ele>550</ele>
        <time>2019-05-12T00:59:09Z</time>
      </trkpt>
      <trkpt lat="36.770263671875" lon="-5.18856477737427">
        <ele>549</ele>
        <time>2019-05-12T00:59:12Z</time>
      </trkpt>
      <trkpt lat="36.7702407836914" lon="-5.18854999542236">
        <ele>549</ele>
        <time>2019-05-12T00:59:14Z</time>
      </trkpt>
      <trkpt lat="36.7702140808106" lon="-5.18853712081909">
        <ele>549</ele>
        <time>2019-05-12T00:59:16Z</time>
      </trkpt>
      <trkpt lat="36.770191192627" lon="-5.1885199546814">
        <ele>549</ele>
        <time>2019-05-12T00:59:18Z</time>
      </trkpt>
      <trkpt lat="36.7701644897461" lon="-5.18850183486938">
        <ele>548</ele>
        <time>2019-05-12T00:59:20Z</time>
      </trkpt>
      <trkpt lat="36.7701377868652" lon="-5.18848705291748">
        <ele>548</ele>
        <time>2019-05-12T00:59:22Z</time>
      </trkpt>
      <trkpt lat="36.7701148986816" lon="-5.18847179412842">
        <ele>547</ele>
        <time>2019-05-12T00:59:24Z</time>
      </trkpt>
      <trkpt lat="36.7700881958008" lon="-5.18845701217651">
        <ele>547</ele>
        <time>2019-05-12T00:59:26Z</time>
      </trkpt>
      <trkpt lat="36.7700614929199" lon="-5.18844318389893">
        <ele>547</ele>
        <time>2019-05-12T00:59:28Z</time>
      </trkpt>
      <trkpt lat="36.7700347900391" lon="-5.1884331703186">
        <ele>546</ele>
        <time>2019-05-12T00:59:30Z</time>
      </trkpt>
      <trkpt lat="36.7700080871582" lon="-5.18842506408691">
        <ele>546</ele>
        <time>2019-05-12T00:59:32Z</time>
      </trkpt>
      <trkpt lat="36.7699813842773" lon="-5.18841791152954">
        <ele>545</ele>
        <time>2019-05-12T00:59:34Z</time>
      </trkpt>
      <trkpt lat="36.7699584960938" lon="-5.18840980529785">
        <ele>545</ele>
        <time>2019-05-12T00:59:36Z</time>
      </trkpt>
      <trkpt lat="36.7699317932129" lon="-5.1884069442749">
        <ele>545</ele>
        <time>2019-05-12T00:59:38Z</time>
      </trkpt>
      <trkpt lat="36.7699127197266" lon="-5.18840503692627">
        <ele>545</ele>
        <time>2019-05-12T00:59:40Z</time>
      </trkpt>
      <trkpt lat="36.769889831543" lon="-5.18840503692627">
        <ele>545</ele>
        <time>2019-05-12T00:59:42Z</time>
      </trkpt>
      <trkpt lat="36.7698631286621" lon="-5.1884069442749">
        <ele>544</ele>
        <time>2019-05-12T00:59:44Z</time>
      </trkpt>
      <trkpt lat="36.7698402404785" lon="-5.18841218948364">
        <ele>544</ele>
        <time>2019-05-12T00:59:46Z</time>
      </trkpt>
      <trkpt lat="36.7698173522949" lon="-5.18841314315796">
        <ele>544</ele>
        <time>2019-05-12T00:59:48Z</time>
      </trkpt>
      <trkpt lat="36.7697906494141" lon="-5.18841314315796">
        <ele>544</ele>
        <time>2019-05-12T00:59:50Z</time>
      </trkpt>
      <trkpt lat="36.7697677612305" lon="-5.18841695785522">
        <ele>544</ele>
        <time>2019-05-12T00:59:52Z</time>
      </trkpt>
      <trkpt lat="36.7697448730469" lon="-5.18841791152954">
        <ele>544</ele>
        <time>2019-05-12T00:59:54Z</time>
      </trkpt>
      <trkpt lat="36.769718170166" lon="-5.18842315673828">
        <ele>543</ele>
        <time>2019-05-12T00:59:56Z</time>
      </trkpt>
      <trkpt lat="36.7696914672852" lon="-5.18842506408691">
        <ele>543</ele>
        <time>2019-05-12T00:59:58Z</time>
      </trkpt>
      <trkpt lat="36.7696647644043" lon="-5.18842792510986">
        <ele>543</ele>
        <time>2019-05-12T01:00:00Z</time>
      </trkpt>
      <trkpt lat="36.7696342468262" lon="-5.18843221664429">
        <ele>542</ele>
        <time>2019-05-12T01:00:02Z</time>
      </trkpt>
      <trkpt lat="36.7696075439453" lon="-5.18843221664429">
        <ele>542</ele>
        <time>2019-05-12T01:00:04Z</time>
      </trkpt>
      <trkpt lat="36.7695808410644" lon="-5.1884331703186">
        <ele>542</ele>
        <time>2019-05-12T01:00:06Z</time>
      </trkpt>
      <trkpt lat="36.7695503234863" lon="-5.18843507766724">
        <ele>541</ele>
        <time>2019-05-12T01:00:08Z</time>
      </trkpt>
      <trkpt lat="36.7695236206055" lon="-5.18843793869019">
        <ele>541</ele>
        <time>2019-05-12T01:00:10Z</time>
      </trkpt>
      <trkpt lat="36.7694969177246" lon="-5.18843984603882">
        <ele>541</ele>
        <time>2019-05-12T01:00:12Z</time>
      </trkpt>
      <trkpt lat="36.7694702148438" lon="-5.18844318389893">
        <ele>541</ele>
        <time>2019-05-12T01:00:14Z</time>
      </trkpt>
      <trkpt lat="36.7694435119629" lon="-5.18844699859619">
        <ele>540</ele>
        <time>2019-05-12T01:00:16Z</time>
      </trkpt>
      <trkpt lat="36.769416809082" lon="-5.18844509124756">
        <ele>540</ele>
        <time>2019-05-12T01:00:18Z</time>
      </trkpt>
      <trkpt lat="36.7693901062012" lon="-5.18844223022461">
        <ele>540</ele>
        <time>2019-05-12T01:00:20Z</time>
      </trkpt>
      <trkpt lat="36.7693634033203" lon="-5.18844223022461">
        <ele>540</ele>
        <time>2019-05-12T01:00:22Z</time>
      </trkpt>
      <trkpt lat="36.7693367004394" lon="-5.18843793869019">
        <ele>539</ele>
        <time>2019-05-12T01:00:24Z</time>
      </trkpt>
      <trkpt lat="36.7693138122559" lon="-5.18843507766724">
        <ele>539</ele>
        <time>2019-05-12T01:00:26Z</time>
      </trkpt>
      <trkpt lat="36.7692832946777" lon="-5.1884331703186">
        <ele>539</ele>
        <time>2019-05-12T01:00:28Z</time>
      </trkpt>
      <trkpt lat="36.7692565917969" lon="-5.18842792510986">
        <ele>538</ele>
        <time>2019-05-12T01:00:30Z</time>
      </trkpt>
      <trkpt lat="36.7692337036133" lon="-5.18842220306396">
        <ele>538</ele>
        <time>2019-05-12T01:00:32Z</time>
      </trkpt>
      <trkpt lat="36.7692070007324" lon="-5.18841314315796">
        <ele>537</ele>
        <time>2019-05-12T01:00:34Z</time>
      </trkpt>
      <trkpt lat="36.7691841125488" lon="-5.18840312957764">
        <ele>537</ele>
        <time>2019-05-12T01:00:36Z</time>
      </trkpt>
      <trkpt lat="36.769157409668" lon="-5.18839502334595">
        <ele>537</ele>
        <time>2019-05-12T01:00:38Z</time>
      </trkpt>
      <trkpt lat="36.7691307067871" lon="-5.18838787078857">
        <ele>537</ele>
        <time>2019-05-12T01:00:40Z</time>
      </trkpt>
      <trkpt lat="36.7691078186035" lon="-5.18837976455688">
        <ele>536</ele>
        <time>2019-05-12T01:00:42Z</time>
      </trkpt>
      <trkpt lat="36.7690811157227" lon="-5.18837022781372">
        <ele>536</ele>
        <time>2019-05-12T01:00:44Z</time>
      </trkpt>
      <trkpt lat="36.7690582275391" lon="-5.18836212158203">
        <ele>536</ele>
        <time>2019-05-12T01:00:46Z</time>
      </trkpt>
      <trkpt lat="36.7690315246582" lon="-5.18835306167603">
        <ele>535</ele>
        <time>2019-05-12T01:00:48Z</time>
      </trkpt>
      <trkpt lat="36.7690048217773" lon="-5.18834686279297">
        <ele>535</ele>
        <time>2019-05-12T01:00:50Z</time>
      </trkpt>
      <trkpt lat="36.7689666748047" lon="-5.18833208084106">
        <ele>535</ele>
        <time>2019-05-12T01:00:52Z</time>
      </trkpt>
      <trkpt lat="36.7689399719238" lon="-5.18832015991211">
        <ele>535</ele>
        <time>2019-05-12T01:00:55Z</time>
      </trkpt>
      <trkpt lat="36.768913269043" lon="-5.18831205368042">
        <ele>534</ele>
        <time>2019-05-12T01:00:57Z</time>
      </trkpt>
      <trkpt lat="36.7688865661621" lon="-5.18830299377441">
        <ele>534</ele>
        <time>2019-05-12T01:00:59Z</time>
      </trkpt>
      <trkpt lat="36.7688636779785" lon="-5.18829488754272">
        <ele>534</ele>
        <time>2019-05-12T01:01:01Z</time>
      </trkpt>
      <trkpt lat="36.7688369750977" lon="-5.1882848739624">
        <ele>534</ele>
        <time>2019-05-12T01:01:03Z</time>
      </trkpt>
      <trkpt lat="36.7688140869141" lon="-5.18827486038208">
        <ele>534</ele>
        <time>2019-05-12T01:01:05Z</time>
      </trkpt>
      <trkpt lat="36.7687873840332" lon="-5.18826723098755">
        <ele>533</ele>
        <time>2019-05-12T01:01:07Z</time>
      </trkpt>
      <trkpt lat="36.7687644958496" lon="-5.18825483322144">
        <ele>533</ele>
        <time>2019-05-12T01:01:09Z</time>
      </trkpt>
      <trkpt lat="36.7687377929688" lon="-5.1882472038269">
        <ele>533</ele>
        <time>2019-05-12T01:01:11Z</time>
      </trkpt>
      <trkpt lat="36.7687110900879" lon="-5.18823719024658">
        <ele>533</ele>
        <time>2019-05-12T01:01:13Z</time>
      </trkpt>
      <trkpt lat="36.768684387207" lon="-5.18822479248047">
        <ele>532</ele>
        <time>2019-05-12T01:01:15Z</time>
      </trkpt>
      <trkpt lat="36.7686576843262" lon="-5.18821477890015">
        <ele>532</ele>
        <time>2019-05-12T01:01:17Z</time>
      </trkpt>
      <trkpt lat="36.7686309814453" lon="-5.18820810317993">
        <ele>532</ele>
        <time>2019-05-12T01:01:19Z</time>
      </trkpt>
      <trkpt lat="36.7686004638672" lon="-5.18819999694824">
        <ele>532</ele>
        <time>2019-05-12T01:01:21Z</time>
      </trkpt>
      <trkpt lat="36.7685775756836" lon="-5.18818998336792">
        <ele>531</ele>
        <time>2019-05-12T01:01:23Z</time>
      </trkpt>
      <trkpt lat="36.7685508728027" lon="-5.18818187713623">
        <ele>531</ele>
        <time>2019-05-12T01:01:25Z</time>
      </trkpt>
      <trkpt lat="36.7685279846191" lon="-5.18817281723022">
        <ele>531</ele>
        <time>2019-05-12T01:01:27Z</time>
      </trkpt>
      <trkpt lat="36.7685012817383" lon="-5.18816804885864">
        <ele>531</ele>
        <time>2019-05-12T01:01:29Z</time>
      </trkpt>
      <trkpt lat="36.7684745788574" lon="-5.18815994262695">
        <ele>531</ele>
        <time>2019-05-12T01:01:31Z</time>
      </trkpt>
      <trkpt lat="36.7684478759766" lon="-5.18815183639526">
        <ele>531</ele>
        <time>2019-05-12T01:01:33Z</time>
      </trkpt>
      <trkpt lat="36.7684211730957" lon="-5.18814277648926">
        <ele>531</ele>
        <time>2019-05-12T01:01:35Z</time>
      </trkpt>
      <trkpt lat="36.7683982849121" lon="-5.18813180923462">
        <ele>531</ele>
        <time>2019-05-12T01:01:37Z</time>
      </trkpt>
      <trkpt lat="36.7683753967285" lon="-5.18811798095703">
        <ele>531</ele>
        <time>2019-05-12T01:01:39Z</time>
      </trkpt>
      <trkpt lat="36.7683486938477" lon="-5.18810701370239">
        <ele>531</ele>
        <time>2019-05-12T01:01:41Z</time>
      </trkpt>
      <trkpt lat="36.7683258056641" lon="-5.1880931854248">
        <ele>530</ele>
        <time>2019-05-12T01:01:43Z</time>
      </trkpt>
      <trkpt lat="36.7683029174805" lon="-5.18808221817017">
        <ele>530</ele>
        <time>2019-05-12T01:01:45Z</time>
      </trkpt>
      <trkpt lat="36.7682762145996" lon="-5.18806791305542">
        <ele>530</ele>
        <time>2019-05-12T01:01:47Z</time>
      </trkpt>
      <trkpt lat="36.7682571411133" lon="-5.18805503845215">
        <ele>530</ele>
        <time>2019-05-12T01:01:49Z</time>
      </trkpt>
      <trkpt lat="36.7682342529297" lon="-5.18804502487183">
        <ele>530</ele>
        <time>2019-05-12T01:01:51Z</time>
      </trkpt>
      <trkpt lat="36.7682113647461" lon="-5.18803215026856">
        <ele>530</ele>
        <time>2019-05-12T01:01:53Z</time>
      </trkpt>
      <trkpt lat="36.7681884765625" lon="-5.1880202293396">
        <ele>530</ele>
        <time>2019-05-12T01:01:55Z</time>
      </trkpt>
      <trkpt lat="36.7681655883789" lon="-5.18800783157349">
        <ele>530</ele>
        <time>2019-05-12T01:01:57Z</time>
      </trkpt>
      <trkpt lat="36.7681427001953" lon="-5.18799495697022">
        <ele>530</ele>
        <time>2019-05-12T01:01:59Z</time>
      </trkpt>
      <trkpt lat="36.7681198120117" lon="-5.18798494338989">
        <ele>530</ele>
        <time>2019-05-12T01:02:01Z</time>
      </trkpt>
      <trkpt lat="36.7680931091309" lon="-5.18797492980957">
        <ele>530</ele>
        <time>2019-05-12T01:02:03Z</time>
      </trkpt>
      <trkpt lat="36.7680702209473" lon="-5.18796491622925">
        <ele>529</ele>
        <time>2019-05-12T01:02:05Z</time>
      </trkpt>
      <trkpt lat="36.7680435180664" lon="-5.18795299530029">
        <ele>529</ele>
        <time>2019-05-12T01:02:07Z</time>
      </trkpt>
      <trkpt lat="36.7680206298828" lon="-5.18794012069702">
        <ele>529</ele>
        <time>2019-05-12T01:02:09Z</time>
      </trkpt>
      <trkpt lat="36.7679977416992" lon="-5.18792819976807">
        <ele>529</ele>
        <time>2019-05-12T01:02:11Z</time>
      </trkpt>
      <trkpt lat="36.7679710388184" lon="-5.18792009353638">
        <ele>528</ele>
        <time>2019-05-12T01:02:13Z</time>
      </trkpt>
      <trkpt lat="36.7679481506348" lon="-5.18790817260742">
        <ele>528</ele>
        <time>2019-05-12T01:02:15Z</time>
      </trkpt>
      <trkpt lat="36.7679214477539" lon="-5.18789720535278">
        <ele>528</ele>
        <time>2019-05-12T01:02:17Z</time>
      </trkpt>
      <trkpt lat="36.767894744873" lon="-5.18788719177246">
        <ele>528</ele>
        <time>2019-05-12T01:02:19Z</time>
      </trkpt>
      <trkpt lat="36.7678680419922" lon="-5.18787717819214">
        <ele>528</ele>
        <time>2019-05-12T01:02:21Z</time>
      </trkpt>
      <trkpt lat="36.7678413391113" lon="-5.18786811828613">
        <ele>527</ele>
        <time>2019-05-12T01:02:23Z</time>
      </trkpt>
      <trkpt lat="36.7678070068359" lon="-5.18785190582275">
        <ele>527</ele>
        <time>2019-05-12T01:02:25Z</time>
      </trkpt>
      <trkpt lat="36.7677841186523" lon="-5.18783807754517">
        <ele>527</ele>
        <time>2019-05-12T01:02:28Z</time>
      </trkpt>
      <trkpt lat="36.7677612304688" lon="-5.18782711029053">
        <ele>527</ele>
        <time>2019-05-12T01:02:30Z</time>
      </trkpt>
      <trkpt lat="36.7677345275879" lon="-5.1878170967102">
        <ele>527</ele>
        <time>2019-05-12T01:02:32Z</time>
      </trkpt>
      <trkpt lat="36.7677116394043" lon="-5.18780708312988">
        <ele>526</ele>
        <time>2019-05-12T01:02:34Z</time>
      </trkpt>
      <trkpt lat="36.7676811218262" lon="-5.18779802322388">
        <ele>526</ele>
        <time>2019-05-12T01:02:36Z</time>
      </trkpt>
      <trkpt lat="36.7676582336426" lon="-5.18778800964356">
        <ele>526</ele>
        <time>2019-05-12T01:02:38Z</time>
      </trkpt>
      <trkpt lat="36.7676315307617" lon="-5.1877818107605">
        <ele>525</ele>
        <time>2019-05-12T01:02:40Z</time>
      </trkpt>
      <trkpt lat="36.7676048278809" lon="-5.18777322769165">
        <ele>525</ele>
        <time>2019-05-12T01:02:42Z</time>
      </trkpt>
      <trkpt lat="36.767578125" lon="-5.18776321411133">
        <ele>525</ele>
        <time>2019-05-12T01:02:44Z</time>
      </trkpt>
      <trkpt lat="36.7675514221191" lon="-5.1877498626709">
        <ele>525</ele>
        <time>2019-05-12T01:02:46Z</time>
      </trkpt>
      <trkpt lat="36.7675285339356" lon="-5.18773317337036">
        <ele>525</ele>
        <time>2019-05-12T01:02:48Z</time>
      </trkpt>
      <trkpt lat="36.7675094604492" lon="-5.18771982192993">
        <ele>525</ele>
        <time>2019-05-12T01:02:50Z</time>
      </trkpt>
      <trkpt lat="36.7674865722656" lon="-5.18770790100098">
        <ele>525</ele>
        <time>2019-05-12T01:02:52Z</time>
      </trkpt>
      <trkpt lat="36.7674598693848" lon="-5.18769788742065">
        <ele>525</ele>
        <time>2019-05-12T01:02:54Z</time>
      </trkpt>
      <trkpt lat="36.7674369812012" lon="-5.18768787384033">
        <ele>525</ele>
        <time>2019-05-12T01:02:56Z</time>
      </trkpt>
      <trkpt lat="36.7674140930176" lon="-5.18767690658569">
        <ele>525</ele>
        <time>2019-05-12T01:02:58Z</time>
      </trkpt>
      <trkpt lat="36.7673873901367" lon="-5.18766498565674">
        <ele>525</ele>
        <time>2019-05-12T01:03:00Z</time>
      </trkpt>
      <trkpt lat="36.7673645019531" lon="-5.18765687942505">
        <ele>525</ele>
        <time>2019-05-12T01:03:02Z</time>
      </trkpt>
      <trkpt lat="36.7673416137695" lon="-5.18764686584473">
        <ele>525</ele>
        <time>2019-05-12T01:03:04Z</time>
      </trkpt>
      <trkpt lat="36.7673225402832" lon="-5.1876368522644">
        <ele>525</ele>
        <time>2019-05-12T01:03:06Z</time>
      </trkpt>
      <trkpt lat="36.7672996520996" lon="-5.18762493133545">
        <ele>525</ele>
        <time>2019-05-12T01:03:08Z</time>
      </trkpt>
      <trkpt lat="36.767276763916" lon="-5.18761301040649">
        <ele>525</ele>
        <time>2019-05-12T01:03:10Z</time>
      </trkpt>
      <trkpt lat="36.7672538757324" lon="-5.18760204315186">
        <ele>525</ele>
        <time>2019-05-12T01:03:12Z</time>
      </trkpt>
      <trkpt lat="36.7672309875488" lon="-5.18759298324585">
        <ele>525</ele>
        <time>2019-05-12T01:03:14Z</time>
      </trkpt>
      <trkpt lat="36.7672080993652" lon="-5.18758201599121">
        <ele>525</ele>
        <time>2019-05-12T01:03:16Z</time>
      </trkpt>
      <trkpt lat="36.7671852111816" lon="-5.18756818771362">
        <ele>525</ele>
        <time>2019-05-12T01:03:18Z</time>
      </trkpt>
      <trkpt lat="36.7671661376953" lon="-5.18755722045898">
        <ele>525</ele>
        <time>2019-05-12T01:03:20Z</time>
      </trkpt>
      <trkpt lat="36.7671432495117" lon="-5.18754291534424">
        <ele>525</ele>
        <time>2019-05-12T01:03:22Z</time>
      </trkpt>
      <trkpt lat="36.7671203613281" lon="-5.18753004074097">
        <ele>525</ele>
        <time>2019-05-12T01:03:24Z</time>
      </trkpt>
      <trkpt lat="36.7670974731445" lon="-5.18751192092896">
        <ele>525</ele>
        <time>2019-05-12T01:03:26Z</time>
      </trkpt>
      <trkpt lat="36.7670783996582" lon="-5.18749713897705">
        <ele>525</ele>
        <time>2019-05-12T01:03:28Z</time>
      </trkpt>
      <trkpt lat="36.7670555114746" lon="-5.18747997283936">
        <ele>525</ele>
        <time>2019-05-12T01:03:30Z</time>
      </trkpt>
      <trkpt lat="36.767032623291" lon="-5.18746185302734">
        <ele>525</ele>
        <time>2019-05-12T01:03:32Z</time>
      </trkpt>
      <trkpt lat="36.7670135498047" lon="-5.1874418258667">
        <ele>525</ele>
        <time>2019-05-12T01:03:34Z</time>
      </trkpt>
      <trkpt lat="36.7669906616211" lon="-5.18742179870606">
        <ele>525</ele>
        <time>2019-05-12T01:03:36Z</time>
      </trkpt>
      <trkpt lat="36.7669677734375" lon="-5.18740177154541">
        <ele>525</ele>
        <time>2019-05-12T01:03:38Z</time>
      </trkpt>
      <trkpt lat="36.7669486999512" lon="-5.18737983703613">
        <ele>525</ele>
        <time>2019-05-12T01:03:40Z</time>
      </trkpt>
      <trkpt lat="36.7669296264648" lon="-5.18735694885254">
        <ele>525</ele>
        <time>2019-05-12T01:03:42Z</time>
      </trkpt>
      <trkpt lat="36.7669067382812" lon="-5.18733501434326">
        <ele>525</ele>
        <time>2019-05-12T01:03:44Z</time>
      </trkpt>
      <trkpt lat="36.7668838500977" lon="-5.18731689453125">
        <ele>525</ele>
        <time>2019-05-12T01:03:46Z</time>
      </trkpt>
      <trkpt lat="36.7668647766113" lon="-5.18729496002197">
        <ele>525</ele>
        <time>2019-05-12T01:03:48Z</time>
      </trkpt>
      <trkpt lat="36.7668418884277" lon="-5.18727493286133">
        <ele>525</ele>
        <time>2019-05-12T01:03:50Z</time>
      </trkpt>
      <trkpt lat="36.7668228149414" lon="-5.18725490570068">
        <ele>525</ele>
        <time>2019-05-12T01:03:52Z</time>
      </trkpt>
      <trkpt lat="36.7667961120606" lon="-5.18723297119141">
        <ele>525</ele>
        <time>2019-05-12T01:03:54Z</time>
      </trkpt>
      <trkpt lat="36.766773223877" lon="-5.18721294403076">
        <ele>525</ele>
        <time>2019-05-12T01:03:56Z</time>
      </trkpt>
      <trkpt lat="36.7667541503906" lon="-5.1871919631958">
        <ele>525</ele>
        <time>2019-05-12T01:03:58Z</time>
      </trkpt>
      <trkpt lat="36.766731262207" lon="-5.18717002868652">
        <ele>525</ele>
        <time>2019-05-12T01:04:00Z</time>
      </trkpt>
      <trkpt lat="36.7667083740234" lon="-5.18714714050293">
        <ele>525</ele>
        <time>2019-05-12T01:04:02Z</time>
      </trkpt>
      <trkpt lat="36.7666854858398" lon="-5.18712520599365">
        <ele>525</ele>
        <time>2019-05-12T01:04:04Z</time>
      </trkpt>
      <trkpt lat="36.7666511535644" lon="-5.18708801269531">
        <ele>525</ele>
        <time>2019-05-12T01:04:07Z</time>
      </trkpt>
      <trkpt lat="36.7666320800781" lon="-5.18706703186035">
        <ele>525</ele>
        <time>2019-05-12T01:04:09Z</time>
      </trkpt>
      <trkpt lat="36.7666130065918" lon="-5.18704319000244">
        <ele>524</ele>
        <time>2019-05-12T01:04:11Z</time>
      </trkpt>
      <trkpt lat="36.7665863037109" lon="-5.18702220916748">
        <ele>524</ele>
        <time>2019-05-12T01:04:13Z</time>
      </trkpt>
      <trkpt lat="36.7665672302246" lon="-5.1869969367981">
        <ele>524</ele>
        <time>2019-05-12T01:04:15Z</time>
      </trkpt>
      <trkpt lat="36.766544342041" lon="-5.18697500228882">
        <ele>523</ele>
        <time>2019-05-12T01:04:17Z</time>
      </trkpt>
      <trkpt lat="36.7665214538574" lon="-5.18695211410522">
        <ele>523</ele>
        <time>2019-05-12T01:04:19Z</time>
      </trkpt>
      <trkpt lat="36.7665023803711" lon="-5.18692779541016">
        <ele>523</ele>
        <time>2019-05-12T01:04:21Z</time>
      </trkpt>
      <trkpt lat="36.7664794921875" lon="-5.1869068145752">
        <ele>522</ele>
        <time>2019-05-12T01:04:23Z</time>
      </trkpt>
      <trkpt lat="36.7664566040039" lon="-5.18688297271728">
        <ele>522</ele>
        <time>2019-05-12T01:04:25Z</time>
      </trkpt>
      <trkpt lat="36.7664375305176" lon="-5.18686199188232">
        <ele>522</ele>
        <time>2019-05-12T01:04:27Z</time>
      </trkpt>
      <trkpt lat="36.7664184570312" lon="-5.1868371963501">
        <ele>521</ele>
        <time>2019-05-12T01:04:29Z</time>
      </trkpt>
      <trkpt lat="36.7663955688477" lon="-5.18681192398071">
        <ele>521</ele>
        <time>2019-05-12T01:04:31Z</time>
      </trkpt>
      <trkpt lat="36.7663764953613" lon="-5.18678712844849">
        <ele>521</ele>
        <time>2019-05-12T01:04:33Z</time>
      </trkpt>
      <trkpt lat="36.766357421875" lon="-5.18676519393921">
        <ele>521</ele>
        <time>2019-05-12T01:04:35Z</time>
      </trkpt>
      <trkpt lat="36.7663383483887" lon="-5.18674182891846">
        <ele>520</ele>
        <time>2019-05-12T01:04:37Z</time>
      </trkpt>
      <trkpt lat="36.7663192749023" lon="-5.18671798706055">
        <ele>520</ele>
        <time>2019-05-12T01:04:39Z</time>
      </trkpt>
      <trkpt lat="36.766300201416" lon="-5.18669700622559">
        <ele>520</ele>
        <time>2019-05-12T01:04:41Z</time>
      </trkpt>
      <trkpt lat="36.7662811279297" lon="-5.18667316436768">
        <ele>520</ele>
        <time>2019-05-12T01:04:43Z</time>
      </trkpt>
      <trkpt lat="36.7662620544434" lon="-5.18665218353272">
        <ele>520</ele>
        <time>2019-05-12T01:04:45Z</time>
      </trkpt>
      <trkpt lat="36.766242980957" lon="-5.18662691116333">
        <ele>519</ele>
        <time>2019-05-12T01:04:47Z</time>
      </trkpt>
      <trkpt lat="36.7662239074707" lon="-5.1866021156311">
        <ele>519</ele>
        <time>2019-05-12T01:04:49Z</time>
      </trkpt>
      <trkpt lat="36.7662048339844" lon="-5.18657779693604">
        <ele>519</ele>
        <time>2019-05-12T01:04:51Z</time>
      </trkpt>
      <trkpt lat="36.766185760498" lon="-5.18655204772949">
        <ele>518</ele>
        <time>2019-05-12T01:04:53Z</time>
      </trkpt>
      <trkpt lat="36.7661666870117" lon="-5.18652820587158">
        <ele>518</ele>
        <time>2019-05-12T01:04:55Z</time>
      </trkpt>
      <trkpt lat="36.7661476135254" lon="-5.18650722503662">
        <ele>518</ele>
        <time>2019-05-12T01:04:57Z</time>
      </trkpt>
      <trkpt lat="36.7661247253418" lon="-5.18648719787598">
        <ele>518</ele>
        <time>2019-05-12T01:04:59Z</time>
      </trkpt>
      <trkpt lat="36.7661018371582" lon="-5.18646287918091">
        <ele>518</ele>
        <time>2019-05-12T01:05:01Z</time>
      </trkpt>
      <trkpt lat="36.7660827636719" lon="-5.18643999099731">
        <ele>517</ele>
        <time>2019-05-12T01:05:03Z</time>
      </trkpt>
      <trkpt lat="36.7660598754883" lon="-5.18641805648804">
        <ele>517</ele>
        <time>2019-05-12T01:05:05Z</time>
      </trkpt>
      <trkpt lat="36.7660369873047" lon="-5.18639707565308">
        <ele>517</ele>
        <time>2019-05-12T01:05:07Z</time>
      </trkpt>
      <trkpt lat="36.7660140991211" lon="-5.1863751411438">
        <ele>516</ele>
        <time>2019-05-12T01:05:09Z</time>
      </trkpt>
      <trkpt lat="36.7659912109375" lon="-5.18635702133179">
        <ele>516</ele>
        <time>2019-05-12T01:05:11Z</time>
      </trkpt>
      <trkpt lat="36.7659683227539" lon="-5.18633985519409">
        <ele>515</ele>
        <time>2019-05-12T01:05:13Z</time>
      </trkpt>
      <trkpt lat="36.7659454345703" lon="-5.18632221221924">
        <ele>515</ele>
        <time>2019-05-12T01:05:15Z</time>
      </trkpt>
      <trkpt lat="36.7659225463867" lon="-5.18630504608154">
        <ele>515</ele>
        <time>2019-05-12T01:05:17Z</time>
      </trkpt>
      <trkpt lat="36.7658996582031" lon="-5.18628787994385">
        <ele>515</ele>
        <time>2019-05-12T01:05:19Z</time>
      </trkpt>
      <trkpt lat="36.7658767700195" lon="-5.18627309799194">
        <ele>515</ele>
        <time>2019-05-12T01:05:21Z</time>
      </trkpt>
      <trkpt lat="36.7658538818359" lon="-5.1862621307373">
        <ele>515</ele>
        <time>2019-05-12T01:05:23Z</time>
      </trkpt>
      <trkpt lat="36.7658348083496" lon="-5.18625211715698">
        <ele>515</ele>
        <time>2019-05-12T01:05:25Z</time>
      </trkpt>
      <trkpt lat="36.765811920166" lon="-5.18624210357666">
        <ele>515</ele>
        <time>2019-05-12T01:05:27Z</time>
      </trkpt>
      <trkpt lat="36.7657852172852" lon="-5.1862301826477">
        <ele>515</ele>
        <time>2019-05-12T01:05:29Z</time>
      </trkpt>
      <trkpt lat="36.7657623291016" lon="-5.18622207641602">
        <ele>515</ele>
        <time>2019-05-12T01:05:31Z</time>
      </trkpt>
      <trkpt lat="36.7657432556152" lon="-5.18621683120728">
        <ele>515</ele>
        <time>2019-05-12T01:05:33Z</time>
      </trkpt>
      <trkpt lat="36.7657165527344" lon="-5.18621015548706">
        <ele>515</ele>
        <time>2019-05-12T01:05:35Z</time>
      </trkpt>
      <trkpt lat="36.765697479248" lon="-5.18620014190674">
        <ele>515</ele>
        <time>2019-05-12T01:05:37Z</time>
      </trkpt>
      <trkpt lat="36.7656745910644" lon="-5.18619298934936">
        <ele>515</ele>
        <time>2019-05-12T01:05:39Z</time>
      </trkpt>
      <trkpt lat="36.7656402587891" lon="-5.18618679046631">
        <ele>515</ele>
        <time>2019-05-12T01:05:42Z</time>
      </trkpt>
      <trkpt lat="36.7656173706055" lon="-5.18617820739746">
        <ele>515</ele>
        <time>2019-05-12T01:05:44Z</time>
      </trkpt>
      <trkpt lat="36.7655944824219" lon="-5.18617296218872">
        <ele>515</ele>
        <time>2019-05-12T01:05:46Z</time>
      </trkpt>
      <trkpt lat="36.7655715942383" lon="-5.18617010116577">
        <ele>515</ele>
        <time>2019-05-12T01:05:48Z</time>
      </trkpt>
      <trkpt lat="36.7655487060547" lon="-5.1861629486084">
        <ele>515</ele>
        <time>2019-05-12T01:05:50Z</time>
      </trkpt>
      <trkpt lat="36.7655296325684" lon="-5.18615293502808">
        <ele>515</ele>
        <time>2019-05-12T01:05:52Z</time>
      </trkpt>
      <trkpt lat="36.7655029296875" lon="-5.18614721298218">
        <ele>515</ele>
        <time>2019-05-12T01:05:54Z</time>
      </trkpt>
      <trkpt lat="36.7654762268066" lon="-5.18613815307617">
        <ele>515</ele>
        <time>2019-05-12T01:05:56Z</time>
      </trkpt>
      <trkpt lat="36.765453338623" lon="-5.18613290786743">
        <ele>515</ele>
        <time>2019-05-12T01:05:58Z</time>
      </trkpt>
      <trkpt lat="36.7654266357422" lon="-5.18612718582153">
        <ele>515</ele>
        <time>2019-05-12T01:06:00Z</time>
      </trkpt>
      <trkpt lat="36.7654037475586" lon="-5.18611812591553">
        <ele>515</ele>
        <time>2019-05-12T01:06:02Z</time>
      </trkpt>
      <trkpt lat="36.765380859375" lon="-5.18611192703247">
        <ele>515</ele>
        <time>2019-05-12T01:06:04Z</time>
      </trkpt>
      <trkpt lat="36.7653541564941" lon="-5.1861047744751">
        <ele>515</ele>
        <time>2019-05-12T01:06:06Z</time>
      </trkpt>
      <trkpt lat="36.7653274536133" lon="-5.18609714508057">
        <ele>515</ele>
        <time>2019-05-12T01:06:08Z</time>
      </trkpt>
      <trkpt lat="36.7653007507324" lon="-5.18608713150024">
        <ele>515</ele>
        <time>2019-05-12T01:06:10Z</time>
      </trkpt>
      <trkpt lat="36.7652740478516" lon="-5.18607711791992">
        <ele>515</ele>
        <time>2019-05-12T01:06:12Z</time>
      </trkpt>
      <trkpt lat="36.7652473449707" lon="-5.1860671043396">
        <ele>515</ele>
        <time>2019-05-12T01:06:14Z</time>
      </trkpt>
      <trkpt lat="36.7652206420898" lon="-5.18605995178223">
        <ele>515</ele>
        <time>2019-05-12T01:06:16Z</time>
      </trkpt>
      <trkpt lat="36.765193939209" lon="-5.18605184555054">
        <ele>515</ele>
        <time>2019-05-12T01:06:18Z</time>
      </trkpt>
      <trkpt lat="36.7651710510254" lon="-5.18604516983032">
        <ele>515</ele>
        <time>2019-05-12T01:06:20Z</time>
      </trkpt>
      <trkpt lat="36.7651443481445" lon="-5.18603992462158">
        <ele>515</ele>
        <time>2019-05-12T01:06:22Z</time>
      </trkpt>
      <trkpt lat="36.7651176452637" lon="-5.18603801727295">
        <ele>515</ele>
        <time>2019-05-12T01:06:24Z</time>
      </trkpt>
      <trkpt lat="36.7650909423828" lon="-5.18603181838989">
        <ele>515</ele>
        <time>2019-05-12T01:06:26Z</time>
      </trkpt>
      <trkpt lat="36.7650680541992" lon="-5.18602514266968">
        <ele>515</ele>
        <time>2019-05-12T01:06:28Z</time>
      </trkpt>
      <trkpt lat="36.7650451660156" lon="-5.18602180480957">
        <ele>515</ele>
        <time>2019-05-12T01:06:30Z</time>
      </trkpt>
      <trkpt lat="36.7650184631348" lon="-5.18601989746094">
        <ele>515</ele>
        <time>2019-05-12T01:06:32Z</time>
      </trkpt>
      <trkpt lat="36.7649917602539" lon="-5.18601989746094">
        <ele>515</ele>
        <time>2019-05-12T01:06:34Z</time>
      </trkpt>
      <trkpt lat="36.7649688720703" lon="-5.1860179901123">
        <ele>515</ele>
        <time>2019-05-12T01:06:36Z</time>
      </trkpt>
      <trkpt lat="36.7649421691894" lon="-5.18601703643799">
        <ele>515</ele>
        <time>2019-05-12T01:06:38Z</time>
      </trkpt>
      <trkpt lat="36.7649192810059" lon="-5.18601512908936">
        <ele>514</ele>
        <time>2019-05-12T01:06:40Z</time>
      </trkpt>
      <trkpt lat="36.764892578125" lon="-5.18601512908936">
        <ele>514</ele>
        <time>2019-05-12T01:06:42Z</time>
      </trkpt>
      <trkpt lat="36.7648658752441" lon="-5.18601703643799">
        <ele>514</ele>
        <time>2019-05-12T01:06:44Z</time>
      </trkpt>
      <trkpt lat="36.7648429870606" lon="-5.18601989746094">
        <ele>514</ele>
        <time>2019-05-12T01:06:46Z</time>
      </trkpt>
      <trkpt lat="36.7648162841797" lon="-5.18602180480957">
        <ele>514</ele>
        <time>2019-05-12T01:06:48Z</time>
      </trkpt>
      <trkpt lat="36.7647972106934" lon="-5.18601703643799">
        <ele>514</ele>
        <time>2019-05-12T01:06:50Z</time>
      </trkpt>
      <trkpt lat="36.764778137207" lon="-5.18600511550903">
        <ele>514</ele>
        <time>2019-05-12T01:06:52Z</time>
      </trkpt>
      <trkpt lat="36.7647552490234" lon="-5.18598699569702">
        <ele>513</ele>
        <time>2019-05-12T01:06:54Z</time>
      </trkpt>
      <trkpt lat="36.7647438049316" lon="-5.1859622001648">
        <ele>513</ele>
        <time>2019-05-12T01:06:56Z</time>
      </trkpt>
      <trkpt lat="36.7647361755371" lon="-5.18593502044678">
        <ele>513</ele>
        <time>2019-05-12T01:06:58Z</time>
      </trkpt>
      <trkpt lat="36.7647361755371" lon="-5.18590784072876">
        <ele>512</ele>
        <time>2019-05-12T01:07:00Z</time>
      </trkpt>
      <trkpt lat="36.7647361755371" lon="-5.18588209152222">
        <ele>512</ele>
        <time>2019-05-12T01:07:02Z</time>
      </trkpt>
      <trkpt lat="36.7647285461426" lon="-5.18586301803589">
        <ele>512</ele>
        <time>2019-05-12T01:07:04Z</time>
      </trkpt>
      <trkpt lat="36.7647171020508" lon="-5.18584680557251">
        <ele>512</ele>
        <time>2019-05-12T01:07:06Z</time>
      </trkpt>
      <trkpt lat="36.764705657959" lon="-5.18583679199219">
        <ele>512</ele>
        <time>2019-05-12T01:07:08Z</time>
      </trkpt>
      <trkpt lat="36.7646903991699" lon="-5.18582820892334">
        <ele>512</ele>
        <time>2019-05-12T01:07:10Z</time>
      </trkpt>
      <trkpt lat="36.7646713256836" lon="-5.18581819534302">
        <ele>512</ele>
        <time>2019-05-12T01:07:12Z</time>
      </trkpt>
      <trkpt lat="36.7646484375" lon="-5.18580722808838">
        <ele>512</ele>
        <time>2019-05-12T01:07:14Z</time>
      </trkpt>
      <trkpt lat="36.7646331787109" lon="-5.18579292297363">
        <ele>512</ele>
        <time>2019-05-12T01:07:16Z</time>
      </trkpt>
      <trkpt lat="36.7646026611328" lon="-5.18577194213867">
        <ele>512</ele>
        <time>2019-05-12T01:07:19Z</time>
      </trkpt>
      <trkpt lat="36.7645874023438" lon="-5.18576002120972">
        <ele>512</ele>
        <time>2019-05-12T01:07:21Z</time>
      </trkpt>
      <trkpt lat="36.764575958252" lon="-5.18575191497803">
        <ele>512</ele>
        <time>2019-05-12T01:07:23Z</time>
      </trkpt>
      <trkpt lat="36.7645606994629" lon="-5.18574476242065">
        <ele>512</ele>
        <time>2019-05-12T01:07:25Z</time>
      </trkpt>
      <trkpt lat="36.7645416259766" lon="-5.18573808670044">
        <ele>512</ele>
        <time>2019-05-12T01:07:27Z</time>
      </trkpt>
      <trkpt lat="36.7645225524902" lon="-5.1857328414917">
        <ele>512</ele>
        <time>2019-05-12T01:07:29Z</time>
      </trkpt>
      <trkpt lat="36.7645034790039" lon="-5.18572521209717">
        <ele>512</ele>
        <time>2019-05-12T01:07:31Z</time>
      </trkpt>
      <trkpt lat="36.7644805908203" lon="-5.1857180595398">
        <ele>512</ele>
        <time>2019-05-12T01:07:33Z</time>
      </trkpt>
      <trkpt lat="36.764461517334" lon="-5.18570804595947">
        <ele>512</ele>
        <time>2019-05-12T01:07:35Z</time>
      </trkpt>
      <trkpt lat="36.7644462585449" lon="-5.18570280075073">
        <ele>512</ele>
        <time>2019-05-12T01:07:37Z</time>
      </trkpt>
      <trkpt lat="36.7644309997559" lon="-5.1856951713562">
        <ele>512</ele>
        <time>2019-05-12T01:07:39Z</time>
      </trkpt>
      <trkpt lat="36.7644119262695" lon="-5.18568706512451">
        <ele>512</ele>
        <time>2019-05-12T01:07:41Z</time>
      </trkpt>
      <trkpt lat="36.7643966674805" lon="-5.18568277359009">
        <ele>512</ele>
        <time>2019-05-12T01:07:43Z</time>
      </trkpt>
      <trkpt lat="36.7643852233887" lon="-5.18568181991577">
        <ele>512</ele>
        <time>2019-05-12T01:07:45Z</time>
      </trkpt>
      <trkpt lat="36.7643737792969" lon="-5.18567705154419">
        <ele>512</ele>
        <time>2019-05-12T01:07:47Z</time>
      </trkpt>
      <trkpt lat="36.7643623352051" lon="-5.18568277359009">
        <ele>512</ele>
        <time>2019-05-12T01:07:49Z</time>
      </trkpt>
      <trkpt lat="36.7643508911133" lon="-5.18568515777588">
        <ele>512</ele>
        <time>2019-05-12T01:07:51Z</time>
      </trkpt>
      <trkpt lat="36.764347076416" lon="-5.18568515777588">
        <ele>511</ele>
        <time>2019-05-12T01:07:53Z</time>
      </trkpt>
      <trkpt lat="36.7643432617188" lon="-5.18568181991577">
        <ele>510</ele>
        <time>2019-05-12T01:07:55Z</time>
      </trkpt>
      <trkpt lat="36.764331817627" lon="-5.18567180633545">
        <ele>510</ele>
        <time>2019-05-12T01:07:57Z</time>
      </trkpt>
      <trkpt lat="36.7643203735352" lon="-5.18567180633545">
        <ele>510</ele>
        <time>2019-05-12T01:07:59Z</time>
      </trkpt>
      <trkpt lat="36.7643089294434" lon="-5.18566989898682">
        <ele>510</ele>
        <time>2019-05-12T01:08:01Z</time>
      </trkpt>
      <trkpt lat="36.7643013000488" lon="-5.18566799163818">
        <ele>510</ele>
        <time>2019-05-12T01:08:03Z</time>
      </trkpt>
      <trkpt lat="36.764289855957" lon="-5.18566703796387">
        <ele>510</ele>
        <time>2019-05-12T01:08:05Z</time>
      </trkpt>
      <trkpt lat="36.7642784118652" lon="-5.18566703796387">
        <ele>510</ele>
        <time>2019-05-12T01:08:07Z</time>
      </trkpt>
      <trkpt lat="36.7642707824707" lon="-5.18566799163818">
        <ele>510</ele>
        <time>2019-05-12T01:08:09Z</time>
      </trkpt>
      <trkpt lat="36.7642631530762" lon="-5.18566989898682">
        <ele>510</ele>
        <time>2019-05-12T01:08:11Z</time>
      </trkpt>
      <trkpt lat="36.7642517089844" lon="-5.18567180633545">
        <ele>510</ele>
        <time>2019-05-12T01:08:13Z</time>
      </trkpt>
      <trkpt lat="36.7642402648926" lon="-5.18567180633545">
        <ele>510</ele>
        <time>2019-05-12T01:08:15Z</time>
      </trkpt>
      <trkpt lat="36.7642250061035" lon="-5.18566799163818">
        <ele>510</ele>
        <time>2019-05-12T01:08:17Z</time>
      </trkpt>
      <trkpt lat="36.7642059326172" lon="-5.1856632232666">
        <ele>510</ele>
        <time>2019-05-12T01:08:19Z</time>
      </trkpt>
      <trkpt lat="36.7641906738281" lon="-5.18565320968628">
        <ele>510</ele>
        <time>2019-05-12T01:08:21Z</time>
      </trkpt>
      <trkpt lat="36.7641716003418" lon="-5.18563985824585">
        <ele>510</ele>
        <time>2019-05-12T01:08:23Z</time>
      </trkpt>
      <trkpt lat="36.7641525268555" lon="-5.18562793731689">
        <ele>510</ele>
        <time>2019-05-12T01:08:25Z</time>
      </trkpt>
      <trkpt lat="36.7641334533691" lon="-5.18561697006226">
        <ele>509</ele>
        <time>2019-05-12T01:08:27Z</time>
      </trkpt>
      <trkpt lat="36.7641105651856" lon="-5.18560981750488">
        <ele>509</ele>
        <time>2019-05-12T01:08:29Z</time>
      </trkpt>
      <trkpt lat="36.7640838623047" lon="-5.18560791015625">
        <ele>509</ele>
        <time>2019-05-12T01:08:31Z</time>
      </trkpt>
      <trkpt lat="36.7640647888184" lon="-5.18561506271362">
        <ele>509</ele>
        <time>2019-05-12T01:08:33Z</time>
      </trkpt>
      <trkpt lat="36.7640419006348" lon="-5.18562984466553">
        <ele>509</ele>
        <time>2019-05-12T01:08:35Z</time>
      </trkpt>
      <trkpt lat="36.7640228271484" lon="-5.18564510345459">
        <ele>509</ele>
        <time>2019-05-12T01:08:37Z</time>
      </trkpt>
      <trkpt lat="36.7640037536621" lon="-5.18566703796387">
        <ele>509</ele>
        <time>2019-05-12T01:08:39Z</time>
      </trkpt>
      <trkpt lat="36.763988494873" lon="-5.18569278717041">
        <ele>509</ele>
        <time>2019-05-12T01:08:41Z</time>
      </trkpt>
      <trkpt lat="36.7639846801758" lon="-5.18572282791138">
        <ele>509</ele>
        <time>2019-05-12T01:08:43Z</time>
      </trkpt>
      <trkpt lat="36.763973236084" lon="-5.18575286865234">
        <ele>509</ele>
        <time>2019-05-12T01:08:45Z</time>
      </trkpt>
      <trkpt lat="36.7639656066894" lon="-5.18578004837036">
        <ele>509</ele>
        <time>2019-05-12T01:08:47Z</time>
      </trkpt>
      <trkpt lat="36.7639541625977" lon="-5.1858081817627">
        <ele>508</ele>
        <time>2019-05-12T01:08:49Z</time>
      </trkpt>
      <trkpt lat="36.7639427185059" lon="-5.18583822250366">
        <ele>508</ele>
        <time>2019-05-12T01:08:51Z</time>
      </trkpt>
      <trkpt lat="36.7639312744141" lon="-5.18586778640747">
        <ele>508</ele>
        <time>2019-05-12T01:08:53Z</time>
      </trkpt>
      <trkpt lat="36.763916015625" lon="-5.18589305877686">
        <ele>508</ele>
        <time>2019-05-12T01:08:55Z</time>
      </trkpt>
      <trkpt lat="36.7639007568359" lon="-5.18591499328613">
        <ele>508</ele>
        <time>2019-05-12T01:08:57Z</time>
      </trkpt>
      <trkpt lat="36.7638893127441" lon="-5.18593978881836">
        <ele>508</ele>
        <time>2019-05-12T01:08:59Z</time>
      </trkpt>
      <trkpt lat="36.7638778686523" lon="-5.18596792221069">
        <ele>508</ele>
        <time>2019-05-12T01:09:01Z</time>
      </trkpt>
      <trkpt lat="36.7638626098633" lon="-5.18599319458008">
        <ele>508</ele>
        <time>2019-05-12T01:09:03Z</time>
      </trkpt>
      <trkpt lat="36.7638473510742" lon="-5.18603277206421">
        <ele>508</ele>
        <time>2019-05-12T01:09:05Z</time>
      </trkpt>
      <trkpt lat="36.7638359069824" lon="-5.18605995178223">
        <ele>508</ele>
        <time>2019-05-12T01:09:08Z</time>
      </trkpt>
      <trkpt lat="36.7638206481934" lon="-5.18608283996582">
        <ele>508</ele>
        <time>2019-05-12T01:09:10Z</time>
      </trkpt>
      <trkpt lat="36.763801574707" lon="-5.18610715866089">
        <ele>508</ele>
        <time>2019-05-12T01:09:12Z</time>
      </trkpt>
      <trkpt lat="36.763786315918" lon="-5.18613004684448">
        <ele>508</ele>
        <time>2019-05-12T01:09:14Z</time>
      </trkpt>
      <trkpt lat="36.7637634277344" lon="-5.18615198135376">
        <ele>508</ele>
        <time>2019-05-12T01:09:16Z</time>
      </trkpt>
      <trkpt lat="36.7637481689453" lon="-5.18617486953735">
        <ele>508</ele>
        <time>2019-05-12T01:09:18Z</time>
      </trkpt>
      <trkpt lat="36.7637405395508" lon="-5.18619680404663">
        <ele>508</ele>
        <time>2019-05-12T01:09:20Z</time>
      </trkpt>
      <trkpt lat="36.7637367248535" lon="-5.18621492385864">
        <ele>508</ele>
        <time>2019-05-12T01:09:22Z</time>
      </trkpt>
      <trkpt lat="36.7637214660644" lon="-5.18623685836792">
        <ele>508</ele>
        <time>2019-05-12T01:09:24Z</time>
      </trkpt>
      <trkpt lat="36.7637023925781" lon="-5.18625020980835">
        <ele>508</ele>
        <time>2019-05-12T01:09:26Z</time>
      </trkpt>
      <trkpt lat="36.7636795043945" lon="-5.18625783920288">
        <ele>508</ele>
        <time>2019-05-12T01:09:28Z</time>
      </trkpt>
      <trkpt lat="36.7636566162109" lon="-5.1862678527832">
        <ele>508</ele>
        <time>2019-05-12T01:09:30Z</time>
      </trkpt>
      <trkpt lat="36.7636337280273" lon="-5.1862850189209">
        <ele>508</ele>
        <time>2019-05-12T01:09:32Z</time>
      </trkpt>
      <trkpt lat="36.7636108398438" lon="-5.18630695343018">
        <ele>508</ele>
        <time>2019-05-12T01:09:34Z</time>
      </trkpt>
      <trkpt lat="36.7635879516602" lon="-5.18632793426514">
        <ele>508</ele>
        <time>2019-05-12T01:09:36Z</time>
      </trkpt>
      <trkpt lat="36.7635650634766" lon="-5.18635177612305">
        <ele>508</ele>
        <time>2019-05-12T01:09:38Z</time>
      </trkpt>
      <trkpt lat="36.763542175293" lon="-5.18637323379517">
        <ele>508</ele>
        <time>2019-05-12T01:09:40Z</time>
      </trkpt>
      <trkpt lat="36.7635192871094" lon="-5.18639802932739">
        <ele>508</ele>
        <time>2019-05-12T01:09:42Z</time>
      </trkpt>
      <trkpt lat="36.763500213623" lon="-5.1864218711853">
        <ele>508</ele>
        <time>2019-05-12T01:09:44Z</time>
      </trkpt>
      <trkpt lat="36.7634811401367" lon="-5.18644714355469">
        <ele>508</ele>
        <time>2019-05-12T01:09:46Z</time>
      </trkpt>
      <trkpt lat="36.7634582519531" lon="-5.18647003173828">
        <ele>508</ele>
        <time>2019-05-12T01:09:48Z</time>
      </trkpt>
      <trkpt lat="36.7634429931641" lon="-5.18649482727051">
        <ele>508</ele>
        <time>2019-05-12T01:09:50Z</time>
      </trkpt>
      <trkpt lat="36.7634239196777" lon="-5.18652009963989">
        <ele>508</ele>
        <time>2019-05-12T01:09:52Z</time>
      </trkpt>
      <trkpt lat="36.7634086608887" lon="-5.18654823303223">
        <ele>508</ele>
        <time>2019-05-12T01:09:54Z</time>
      </trkpt>
      <trkpt lat="36.7633857727051" lon="-5.18657302856445">
        <ele>508</ele>
        <time>2019-05-12T01:09:56Z</time>
      </trkpt>
      <trkpt lat="36.7633666992188" lon="-5.18660020828247">
        <ele>509</ele>
        <time>2019-05-12T01:09:58Z</time>
      </trkpt>
      <trkpt lat="36.7633514404297" lon="-5.18662691116333">
        <ele>509</ele>
        <time>2019-05-12T01:10:00Z</time>
      </trkpt>
      <trkpt lat="36.7633323669434" lon="-5.18665218353272">
        <ele>509</ele>
        <time>2019-05-12T01:10:02Z</time>
      </trkpt>
      <trkpt lat="36.763313293457" lon="-5.18667984008789">
        <ele>509</ele>
        <time>2019-05-12T01:10:04Z</time>
      </trkpt>
      <trkpt lat="36.7632942199707" lon="-5.18670511245728">
        <ele>510</ele>
        <time>2019-05-12T01:10:06Z</time>
      </trkpt>
      <trkpt lat="36.7632713317871" lon="-5.18673181533814">
        <ele>510</ele>
        <time>2019-05-12T01:10:08Z</time>
      </trkpt>
      <trkpt lat="36.763256072998" lon="-5.18675804138184">
        <ele>510</ele>
        <time>2019-05-12T01:10:10Z</time>
      </trkpt>
      <trkpt lat="36.7632331848144" lon="-5.18678188323975">
        <ele>511</ele>
        <time>2019-05-12T01:10:12Z</time>
      </trkpt>
      <trkpt lat="36.7632141113281" lon="-5.18680715560913">
        <ele>511</ele>
        <time>2019-05-12T01:10:14Z</time>
      </trkpt>
      <trkpt lat="36.7631912231445" lon="-5.18683195114136">
        <ele>511</ele>
        <time>2019-05-12T01:10:16Z</time>
      </trkpt>
      <trkpt lat="36.7631721496582" lon="-5.18685722351074">
        <ele>511</ele>
        <time>2019-05-12T01:10:18Z</time>
      </trkpt>
      <trkpt lat="36.7631530761719" lon="-5.18688297271728">
        <ele>512</ele>
        <time>2019-05-12T01:10:20Z</time>
      </trkpt>
      <trkpt lat="36.7631340026856" lon="-5.18690776824951">
        <ele>512</ele>
        <time>2019-05-12T01:10:22Z</time>
      </trkpt>
      <trkpt lat="36.763111114502" lon="-5.1869330406189">
        <ele>512</ele>
        <time>2019-05-12T01:10:24Z</time>
      </trkpt>
      <trkpt lat="36.7630920410156" lon="-5.18696022033691">
        <ele>512</ele>
        <time>2019-05-12T01:10:26Z</time>
      </trkpt>
      <trkpt lat="36.7630729675293" lon="-5.18698692321777">
        <ele>512</ele>
        <time>2019-05-12T01:10:28Z</time>
      </trkpt>
      <trkpt lat="36.7630500793457" lon="-5.18701219558716">
        <ele>512</ele>
        <time>2019-05-12T01:10:30Z</time>
      </trkpt>
      <trkpt lat="36.7630310058594" lon="-5.18703508377075">
        <ele>512</ele>
        <time>2019-05-12T01:10:32Z</time>
      </trkpt>
      <trkpt lat="36.7630081176758" lon="-5.18706178665161">
        <ele>512</ele>
        <time>2019-05-12T01:10:34Z</time>
      </trkpt>
      <trkpt lat="36.7629852294922" lon="-5.187087059021">
        <ele>512</ele>
        <time>2019-05-12T01:10:36Z</time>
      </trkpt>
      <trkpt lat="36.7629661560059" lon="-5.18711280822754">
        <ele>512</ele>
        <time>2019-05-12T01:10:38Z</time>
      </trkpt>
      <trkpt lat="36.7629470825195" lon="-5.18713998794556">
        <ele>512</ele>
        <time>2019-05-12T01:10:40Z</time>
      </trkpt>
      <trkpt lat="36.7629165649414" lon="-5.18718004226685">
        <ele>512</ele>
        <time>2019-05-12T01:10:42Z</time>
      </trkpt>
      <trkpt lat="36.7628974914551" lon="-5.18720722198486">
        <ele>512</ele>
        <time>2019-05-12T01:10:45Z</time>
      </trkpt>
      <trkpt lat="36.7628784179688" lon="-5.18723297119141">
        <ele>512</ele>
        <time>2019-05-12T01:10:47Z</time>
      </trkpt>
      <trkpt lat="36.7628631591797" lon="-5.18725776672363">
        <ele>512</ele>
        <time>2019-05-12T01:10:49Z</time>
      </trkpt>
      <trkpt lat="36.7628364562988" lon="-5.1872820854187">
        <ele>512</ele>
        <time>2019-05-12T01:10:51Z</time>
      </trkpt>
      <trkpt lat="36.7628173828125" lon="-5.18730783462524">
        <ele>512</ele>
        <time>2019-05-12T01:10:53Z</time>
      </trkpt>
      <trkpt lat="36.7627944946289" lon="-5.18733310699463">
        <ele>512</ele>
        <time>2019-05-12T01:10:55Z</time>
      </trkpt>
      <trkpt lat="36.7627716064453" lon="-5.18735980987549">
        <ele>512</ele>
        <time>2019-05-12T01:10:57Z</time>
      </trkpt>
      <trkpt lat="36.7627487182617" lon="-5.18738698959351">
        <ele>512</ele>
        <time>2019-05-12T01:10:59Z</time>
      </trkpt>
      <trkpt lat="36.7627296447754" lon="-5.18741321563721">
        <ele>512</ele>
        <time>2019-05-12T01:11:01Z</time>
      </trkpt>
      <trkpt lat="36.7627029418945" lon="-5.18743801116943">
        <ele>512</ele>
        <time>2019-05-12T01:11:03Z</time>
      </trkpt>
      <trkpt lat="36.7626800537109" lon="-5.18746280670166">
        <ele>512</ele>
        <time>2019-05-12T01:11:05Z</time>
      </trkpt>
      <trkpt lat="36.7626533508301" lon="-5.18748712539673">
        <ele>512</ele>
        <time>2019-05-12T01:11:07Z</time>
      </trkpt>
      <trkpt lat="36.7626342773438" lon="-5.18751192092896">
        <ele>512</ele>
        <time>2019-05-12T01:11:09Z</time>
      </trkpt>
      <trkpt lat="36.7626113891602" lon="-5.18753480911255">
        <ele>512</ele>
        <time>2019-05-12T01:11:11Z</time>
      </trkpt>
      <trkpt lat="36.7625923156738" lon="-5.18755722045898">
        <ele>512</ele>
        <time>2019-05-12T01:11:13Z</time>
      </trkpt>
      <trkpt lat="36.7625694274902" lon="-5.18757677078247">
        <ele>512</ele>
        <time>2019-05-12T01:11:15Z</time>
      </trkpt>
      <trkpt lat="36.7625465393066" lon="-5.18759822845459">
        <ele>512</ele>
        <time>2019-05-12T01:11:17Z</time>
      </trkpt>
      <trkpt lat="36.762523651123" lon="-5.18761777877808">
        <ele>512</ele>
        <time>2019-05-12T01:11:19Z</time>
      </trkpt>
      <trkpt lat="36.7625007629394" lon="-5.1876368522644">
        <ele>512</ele>
        <time>2019-05-12T01:11:21Z</time>
      </trkpt>
      <trkpt lat="36.7624778747559" lon="-5.18765783309936">
        <ele>512</ele>
        <time>2019-05-12T01:11:23Z</time>
      </trkpt>
      <trkpt lat="36.7624588012695" lon="-5.18767786026001">
        <ele>512</ele>
        <time>2019-05-12T01:11:25Z</time>
      </trkpt>
      <trkpt lat="36.7624359130859" lon="-5.18769788742065">
        <ele>512</ele>
        <time>2019-05-12T01:11:27Z</time>
      </trkpt>
      <trkpt lat="36.7624130249023" lon="-5.1877179145813">
        <ele>512</ele>
        <time>2019-05-12T01:11:29Z</time>
      </trkpt>
      <trkpt lat="36.7623863220215" lon="-5.18773698806763">
        <ele>512</ele>
        <time>2019-05-12T01:11:31Z</time>
      </trkpt>
      <trkpt lat="36.7623634338379" lon="-5.18775701522827">
        <ele>512</ele>
        <time>2019-05-12T01:11:33Z</time>
      </trkpt>
      <trkpt lat="36.7623405456543" lon="-5.18777322769165">
        <ele>512</ele>
        <time>2019-05-12T01:11:35Z</time>
      </trkpt>
      <trkpt lat="36.7623176574707" lon="-5.18779182434082">
        <ele>512</ele>
        <time>2019-05-12T01:11:37Z</time>
      </trkpt>
      <trkpt lat="36.7622909545898" lon="-5.18780708312988">
        <ele>512</ele>
        <time>2019-05-12T01:11:39Z</time>
      </trkpt>
      <trkpt lat="36.7622680664062" lon="-5.18782186508179">
        <ele>512</ele>
        <time>2019-05-12T01:11:41Z</time>
      </trkpt>
      <trkpt lat="36.7622413635254" lon="-5.18783807754517">
        <ele>512</ele>
        <time>2019-05-12T01:11:43Z</time>
      </trkpt>
      <trkpt lat="36.7622184753418" lon="-5.18785715103149">
        <ele>512</ele>
        <time>2019-05-12T01:11:45Z</time>
      </trkpt>
      <trkpt lat="36.7621955871582" lon="-5.18787288665772">
        <ele>512</ele>
        <time>2019-05-12T01:11:47Z</time>
      </trkpt>
      <trkpt lat="36.7621726989746" lon="-5.18788290023804">
        <ele>512</ele>
        <time>2019-05-12T01:11:49Z</time>
      </trkpt>
      <trkpt lat="36.762149810791" lon="-5.1878981590271">
        <ele>512</ele>
        <time>2019-05-12T01:11:51Z</time>
      </trkpt>
      <trkpt lat="36.7621231079102" lon="-5.18791198730469">
        <ele>512</ele>
        <time>2019-05-12T01:11:53Z</time>
      </trkpt>
      <trkpt lat="36.7621002197266" lon="-5.18792486190796">
        <ele>512</ele>
        <time>2019-05-12T01:11:55Z</time>
      </trkpt>
      <trkpt lat="36.7620735168457" lon="-5.18793821334839">
        <ele>512</ele>
        <time>2019-05-12T01:11:57Z</time>
      </trkpt>
      <trkpt lat="36.7620506286621" lon="-5.18795204162598">
        <ele>513</ele>
        <time>2019-05-12T01:11:59Z</time>
      </trkpt>
      <trkpt lat="36.7620277404785" lon="-5.18796491622925">
        <ele>513</ele>
        <time>2019-05-12T01:12:01Z</time>
      </trkpt>
      <trkpt lat="36.7620048522949" lon="-5.1879768371582">
        <ele>514</ele>
        <time>2019-05-12T01:12:03Z</time>
      </trkpt>
      <trkpt lat="36.7619819641113" lon="-5.18799018859863">
        <ele>514</ele>
        <time>2019-05-12T01:12:05Z</time>
      </trkpt>
      <trkpt lat="36.7619590759277" lon="-5.18800210952759">
        <ele>514</ele>
        <time>2019-05-12T01:12:07Z</time>
      </trkpt>
      <trkpt lat="36.7619361877441" lon="-5.18801307678223">
        <ele>514</ele>
        <time>2019-05-12T01:12:09Z</time>
      </trkpt>
      <trkpt lat="36.7619132995606" lon="-5.18802690505981">
        <ele>514</ele>
        <time>2019-05-12T01:12:11Z</time>
      </trkpt>
      <trkpt lat="36.761890411377" lon="-5.18803977966309">
        <ele>514</ele>
        <time>2019-05-12T01:12:13Z</time>
      </trkpt>
      <trkpt lat="36.7618598937988" lon="-5.18806219100952">
        <ele>515</ele>
        <time>2019-05-12T01:12:16Z</time>
      </trkpt>
      <trkpt lat="36.761833190918" lon="-5.18807792663574">
        <ele>515</ele>
        <time>2019-05-12T01:12:18Z</time>
      </trkpt>
      <trkpt lat="36.7618103027344" lon="-5.18809509277344">
        <ele>515</ele>
        <time>2019-05-12T01:12:20Z</time>
      </trkpt>
      <trkpt lat="36.7617874145508" lon="-5.18811321258545">
        <ele>515</ele>
        <time>2019-05-12T01:12:22Z</time>
      </trkpt>
      <trkpt lat="36.7617683410644" lon="-5.18813705444336">
        <ele>516</ele>
        <time>2019-05-12T01:12:24Z</time>
      </trkpt>
      <trkpt lat="36.7617454528809" lon="-5.18815803527832">
        <ele>516</ele>
        <time>2019-05-12T01:12:26Z</time>
      </trkpt>
      <trkpt lat="36.7617225646973" lon="-5.18817806243896">
        <ele>516</ele>
        <time>2019-05-12T01:12:28Z</time>
      </trkpt>
      <trkpt lat="36.7616996765137" lon="-5.18819284439087">
        <ele>516</ele>
        <time>2019-05-12T01:12:30Z</time>
      </trkpt>
      <trkpt lat="36.7616729736328" lon="-5.18821477890015">
        <ele>516</ele>
        <time>2019-05-12T01:12:32Z</time>
      </trkpt>
      <trkpt lat="36.761646270752" lon="-5.1882381439209">
        <ele>516</ele>
        <time>2019-05-12T01:12:34Z</time>
      </trkpt>
      <trkpt lat="36.7616233825684" lon="-5.18826293945312">
        <ele>516</ele>
        <time>2019-05-12T01:12:36Z</time>
      </trkpt>
      <trkpt lat="36.761604309082" lon="-5.18828678131104">
        <ele>516</ele>
        <time>2019-05-12T01:12:38Z</time>
      </trkpt>
      <trkpt lat="36.7615814208984" lon="-5.18831205368042">
        <ele>516</ele>
        <time>2019-05-12T01:12:40Z</time>
      </trkpt>
      <trkpt lat="36.7615585327148" lon="-5.18833494186401">
        <ele>516</ele>
        <time>2019-05-12T01:12:42Z</time>
      </trkpt>
      <trkpt lat="36.7615356445312" lon="-5.18835020065308">
        <ele>516</ele>
        <time>2019-05-12T01:12:44Z</time>
      </trkpt>
      <trkpt lat="36.7615165710449" lon="-5.18836498260498">
        <ele>516</ele>
        <time>2019-05-12T01:12:46Z</time>
      </trkpt>
      <trkpt lat="36.7615013122559" lon="-5.18837976455688">
        <ele>516</ele>
        <time>2019-05-12T01:12:48Z</time>
      </trkpt>
      <trkpt lat="36.7614860534668" lon="-5.18839979171753">
        <ele>516</ele>
        <time>2019-05-12T01:12:50Z</time>
      </trkpt>
      <trkpt lat="36.7614669799805" lon="-5.18841981887817">
        <ele>517</ele>
        <time>2019-05-12T01:12:52Z</time>
      </trkpt>
      <trkpt lat="36.7614517211914" lon="-5.18843698501587">
        <ele>517</ele>
        <time>2019-05-12T01:12:54Z</time>
      </trkpt>
      <trkpt lat="36.7614326477051" lon="-5.18845701217651">
        <ele>517</ele>
        <time>2019-05-12T01:12:56Z</time>
      </trkpt>
      <trkpt lat="36.761417388916" lon="-5.18848323822022">
        <ele>517</ele>
        <time>2019-05-12T01:12:58Z</time>
      </trkpt>
      <trkpt lat="36.761402130127" lon="-5.18850708007812">
        <ele>517</ele>
        <time>2019-05-12T01:13:00Z</time>
      </trkpt>
      <trkpt lat="36.7613830566406" lon="-5.18853187561035">
        <ele>517</ele>
        <time>2019-05-12T01:13:02Z</time>
      </trkpt>
      <trkpt lat="36.761360168457" lon="-5.18855285644531">
        <ele>517</ele>
        <time>2019-05-12T01:13:04Z</time>
      </trkpt>
      <trkpt lat="36.7613410949707" lon="-5.18857479095459">
        <ele>517</ele>
        <time>2019-05-12T01:13:06Z</time>
      </trkpt>
      <trkpt lat="36.7613258361816" lon="-5.18860006332397">
        <ele>517</ele>
        <time>2019-05-12T01:13:08Z</time>
      </trkpt>
      <trkpt lat="36.7613105773926" lon="-5.1886248588562">
        <ele>517</ele>
        <time>2019-05-12T01:13:10Z</time>
      </trkpt>
      <trkpt lat="36.7612915039062" lon="-5.18865013122559">
        <ele>517</ele>
        <time>2019-05-12T01:13:12Z</time>
      </trkpt>
      <trkpt lat="36.7612762451172" lon="-5.18867492675781">
        <ele>517</ele>
        <time>2019-05-12T01:13:14Z</time>
      </trkpt>
      <trkpt lat="36.7612533569336" lon="-5.1887001991272">
        <ele>517</ele>
        <time>2019-05-12T01:13:16Z</time>
      </trkpt>
      <trkpt lat="36.76123046875" lon="-5.18872308731079">
        <ele>517</ele>
        <time>2019-05-12T01:13:18Z</time>
      </trkpt>
      <trkpt lat="36.7612113952637" lon="-5.1887469291687">
        <ele>517</ele>
        <time>2019-05-12T01:13:20Z</time>
      </trkpt>
      <trkpt lat="36.7611885070801" lon="-5.18877220153809">
        <ele>517</ele>
        <time>2019-05-12T01:13:22Z</time>
      </trkpt>
      <trkpt lat="36.761173248291" lon="-5.188805103302">
        <ele>517</ele>
        <time>2019-05-12T01:13:24Z</time>
      </trkpt>
      <trkpt lat="36.761157989502" lon="-5.18883800506592">
        <ele>517</ele>
        <time>2019-05-12T01:13:26Z</time>
      </trkpt>
      <trkpt lat="36.7611465454102" lon="-5.18886995315552">
        <ele>517</ele>
        <time>2019-05-12T01:13:28Z</time>
      </trkpt>
      <trkpt lat="36.7611351013184" lon="-5.18890190124512">
        <ele>517</ele>
        <time>2019-05-12T01:13:30Z</time>
      </trkpt>
      <trkpt lat="36.7611312866211" lon="-5.18893718719482">
        <ele>517</ele>
        <time>2019-05-12T01:13:32Z</time>
      </trkpt>
      <trkpt lat="36.7611236572266" lon="-5.18897294998169">
        <ele>517</ele>
        <time>2019-05-12T01:13:34Z</time>
      </trkpt>
      <trkpt lat="36.761116027832" lon="-5.18900680541992">
        <ele>517</ele>
        <time>2019-05-12T01:13:36Z</time>
      </trkpt>
      <trkpt lat="36.7611045837402" lon="-5.189040184021">
        <ele>517</ele>
        <time>2019-05-12T01:13:38Z</time>
      </trkpt>
      <trkpt lat="36.7610931396484" lon="-5.1890721321106">
        <ele>517</ele>
        <time>2019-05-12T01:13:40Z</time>
      </trkpt>
      <trkpt lat="36.7610855102539" lon="-5.18910789489746">
        <ele>517</ele>
        <time>2019-05-12T01:13:42Z</time>
      </trkpt>
      <trkpt lat="36.7610778808594" lon="-5.1891450881958">
        <ele>517</ele>
        <time>2019-05-12T01:13:44Z</time>
      </trkpt>
      <trkpt lat="36.7610664367676" lon="-5.18917989730835">
        <ele>517</ele>
        <time>2019-05-12T01:13:46Z</time>
      </trkpt>
      <trkpt lat="36.7610511779785" lon="-5.18921518325806">
        <ele>517</ele>
        <time>2019-05-12T01:13:48Z</time>
      </trkpt>
      <trkpt lat="36.7610397338867" lon="-5.18924999237061">
        <ele>517</ele>
        <time>2019-05-12T01:13:50Z</time>
      </trkpt>
      <trkpt lat="36.7610244750977" lon="-5.18930196762085">
        <ele>517</ele>
        <time>2019-05-12T01:13:53Z</time>
      </trkpt>
      <trkpt lat="36.7610130310059" lon="-5.18933486938477">
        <ele>517</ele>
        <time>2019-05-12T01:13:55Z</time>
      </trkpt>
      <trkpt lat="36.7610015869141" lon="-5.18936777114868">
        <ele>517</ele>
        <time>2019-05-12T01:13:57Z</time>
      </trkpt>
      <trkpt lat="36.7609901428223" lon="-5.18940210342407">
        <ele>517</ele>
        <time>2019-05-12T01:13:59Z</time>
      </trkpt>
      <trkpt lat="36.7609786987305" lon="-5.18943500518799">
        <ele>517</ele>
        <time>2019-05-12T01:14:01Z</time>
      </trkpt>
      <trkpt lat="36.7609748840332" lon="-5.1894679069519">
        <ele>517</ele>
        <time>2019-05-12T01:14:03Z</time>
      </trkpt>
      <trkpt lat="36.7609672546387" lon="-5.18949794769287">
        <ele>517</ele>
        <time>2019-05-12T01:14:05Z</time>
      </trkpt>
      <trkpt lat="36.7609558105469" lon="-5.18952703475952">
        <ele>517</ele>
        <time>2019-05-12T01:14:07Z</time>
      </trkpt>
      <trkpt lat="36.7609481811523" lon="-5.18955516815186">
        <ele>517</ele>
        <time>2019-05-12T01:14:09Z</time>
      </trkpt>
      <trkpt lat="36.7609367370606" lon="-5.18958187103272">
        <ele>517</ele>
        <time>2019-05-12T01:14:11Z</time>
      </trkpt>
      <trkpt lat="36.7609252929688" lon="-5.18960809707642">
        <ele>517</ele>
        <time>2019-05-12T01:14:13Z</time>
      </trkpt>
      <trkpt lat="36.760913848877" lon="-5.18963193893433">
        <ele>517</ele>
        <time>2019-05-12T01:14:15Z</time>
      </trkpt>
      <trkpt lat="36.7609024047852" lon="-5.18966007232666">
        <ele>517</ele>
        <time>2019-05-12T01:14:17Z</time>
      </trkpt>
      <trkpt lat="36.7608871459961" lon="-5.18968486785889">
        <ele>517</ele>
        <time>2019-05-12T01:14:19Z</time>
      </trkpt>
      <trkpt lat="36.760871887207" lon="-5.1897120475769">
        <ele>517</ele>
        <time>2019-05-12T01:14:21Z</time>
      </trkpt>
      <trkpt lat="36.7608604431152" lon="-5.18974018096924">
        <ele>517</ele>
        <time>2019-05-12T01:14:23Z</time>
      </trkpt>
      <trkpt lat="36.7608489990234" lon="-5.18976497650146">
        <ele>517</ele>
        <time>2019-05-12T01:14:25Z</time>
      </trkpt>
      <trkpt lat="36.7608337402344" lon="-5.18978500366211">
        <ele>517</ele>
        <time>2019-05-12T01:14:27Z</time>
      </trkpt>
      <trkpt lat="36.760814666748" lon="-5.18979787826538">
        <ele>517</ele>
        <time>2019-05-12T01:14:29Z</time>
      </trkpt>
      <trkpt lat="36.7607917785644" lon="-5.1898021697998">
        <ele>517</ele>
        <time>2019-05-12T01:14:31Z</time>
      </trkpt>
      <trkpt lat="36.7607727050781" lon="-5.18979501724243">
        <ele>517</ele>
        <time>2019-05-12T01:14:33Z</time>
      </trkpt>
      <trkpt lat="36.7607498168945" lon="-5.18978786468506">
        <ele>517</ele>
        <time>2019-05-12T01:14:35Z</time>
      </trkpt>
      <trkpt lat="36.7607231140137" lon="-5.18978023529053">
        <ele>517</ele>
        <time>2019-05-12T01:14:37Z</time>
      </trkpt>
      <trkpt lat="36.7607002258301" lon="-5.1897702217102">
        <ele>517</ele>
        <time>2019-05-12T01:14:39Z</time>
      </trkpt>
      <trkpt lat="36.7606773376465" lon="-5.18975782394409">
        <ele>517</ele>
        <time>2019-05-12T01:14:41Z</time>
      </trkpt>
      <trkpt lat="36.7606582641602" lon="-5.18974685668945">
        <ele>517</ele>
        <time>2019-05-12T01:14:43Z</time>
      </trkpt>
      <trkpt lat="36.7606353759766" lon="-5.18973207473755">
        <ele>517</ele>
        <time>2019-05-12T01:14:45Z</time>
      </trkpt>
      <trkpt lat="36.7606163024902" lon="-5.18971681594849">
        <ele>517</ele>
        <time>2019-05-12T01:14:47Z</time>
      </trkpt>
      <trkpt lat="36.7605934143066" lon="-5.18970680236816">
        <ele>517</ele>
        <time>2019-05-12T01:14:49Z</time>
      </trkpt>
      <trkpt lat="36.760570526123" lon="-5.18969821929932">
        <ele>517</ele>
        <time>2019-05-12T01:14:51Z</time>
      </trkpt>
      <trkpt lat="36.7605476379394" lon="-5.18968820571899">
        <ele>517</ele>
        <time>2019-05-12T01:14:53Z</time>
      </trkpt>
      <trkpt lat="36.7605285644531" lon="-5.1896800994873">
        <ele>517</ele>
        <time>2019-05-12T01:14:55Z</time>
      </trkpt>
      <trkpt lat="36.7605094909668" lon="-5.18966817855835">
        <ele>517</ele>
        <time>2019-05-12T01:14:57Z</time>
      </trkpt>
      <trkpt lat="36.7604866027832" lon="-5.18965816497803">
        <ele>517</ele>
        <time>2019-05-12T01:14:59Z</time>
      </trkpt>
      <trkpt lat="36.7604675292969" lon="-5.18965005874634">
        <ele>517</ele>
        <time>2019-05-12T01:15:01Z</time>
      </trkpt>
      <trkpt lat="36.7604484558106" lon="-5.1896448135376">
        <ele>517</ele>
        <time>2019-05-12T01:15:03Z</time>
      </trkpt>
      <trkpt lat="36.7604293823242" lon="-5.18963718414307">
        <ele>517</ele>
        <time>2019-05-12T01:15:05Z</time>
      </trkpt>
      <trkpt lat="36.7604064941406" lon="-5.18962812423706">
        <ele>517</ele>
        <time>2019-05-12T01:15:07Z</time>
      </trkpt>
      <trkpt lat="36.7603874206543" lon="-5.18962287902832">
        <ele>517</ele>
        <time>2019-05-12T01:15:09Z</time>
      </trkpt>
      <trkpt lat="36.7603645324707" lon="-5.18961811065674">
        <ele>517</ele>
        <time>2019-05-12T01:15:11Z</time>
      </trkpt>
      <trkpt lat="36.7603416442871" lon="-5.189612865448">
        <ele>517</ele>
        <time>2019-05-12T01:15:13Z</time>
      </trkpt>
      <trkpt lat="36.7603187561035" lon="-5.18961000442505">
        <ele>517</ele>
        <time>2019-05-12T01:15:15Z</time>
      </trkpt>
      <trkpt lat="36.7602996826172" lon="-5.18960285186768">
        <ele>517</ele>
        <time>2019-05-12T01:15:17Z</time>
      </trkpt>
      <trkpt lat="36.7602767944336" lon="-5.18959283828735">
        <ele>517</ele>
        <time>2019-05-12T01:15:19Z</time>
      </trkpt>
      <trkpt lat="36.76025390625" lon="-5.18958520889282">
        <ele>517</ele>
        <time>2019-05-12T01:15:21Z</time>
      </trkpt>
      <trkpt lat="36.7602348327637" lon="-5.18957281112671">
        <ele>517</ele>
        <time>2019-05-12T01:15:23Z</time>
      </trkpt>
      <trkpt lat="36.7602005004883" lon="-5.18955516815186">
        <ele>517</ele>
        <time>2019-05-12T01:15:25Z</time>
      </trkpt>
      <trkpt lat="36.7601776123047" lon="-5.18954992294312">
        <ele>517</ele>
        <time>2019-05-12T01:15:28Z</time>
      </trkpt>
      <trkpt lat="36.7601509094238" lon="-5.18954277038574">
        <ele>517</ele>
        <time>2019-05-12T01:15:30Z</time>
      </trkpt>
      <trkpt lat="36.760124206543" lon="-5.18954181671143">
        <ele>517</ele>
        <time>2019-05-12T01:15:32Z</time>
      </trkpt>
      <trkpt lat="36.7600975036621" lon="-5.18954181671143">
        <ele>517</ele>
        <time>2019-05-12T01:15:34Z</time>
      </trkpt>
      <trkpt lat="36.7600708007812" lon="-5.18954801559448">
        <ele>517</ele>
        <time>2019-05-12T01:15:36Z</time>
      </trkpt>
      <trkpt lat="36.7600479125977" lon="-5.18956279754639">
        <ele>517</ele>
        <time>2019-05-12T01:15:38Z</time>
      </trkpt>
      <trkpt lat="36.7600250244141" lon="-5.18957710266113">
        <ele>517</ele>
        <time>2019-05-12T01:15:40Z</time>
      </trkpt>
      <trkpt lat="36.7600021362305" lon="-5.18959188461304">
        <ele>517</ele>
        <time>2019-05-12T01:15:42Z</time>
      </trkpt>
      <trkpt lat="36.7599830627441" lon="-5.18961191177368">
        <ele>517</ele>
        <time>2019-05-12T01:15:44Z</time>
      </trkpt>
      <trkpt lat="36.7599601745606" lon="-5.18963193893433">
        <ele>517</ele>
        <time>2019-05-12T01:15:46Z</time>
      </trkpt>
      <trkpt lat="36.7599411010742" lon="-5.18965196609497">
        <ele>517</ele>
        <time>2019-05-12T01:15:48Z</time>
      </trkpt>
      <trkpt lat="36.7599182128906" lon="-5.18967008590698">
        <ele>517</ele>
        <time>2019-05-12T01:15:50Z</time>
      </trkpt>
      <trkpt lat="36.7598991394043" lon="-5.18968820571899">
        <ele>517</ele>
        <time>2019-05-12T01:15:52Z</time>
      </trkpt>
      <trkpt lat="36.7598762512207" lon="-5.18970823287964">
        <ele>517</ele>
        <time>2019-05-12T01:15:54Z</time>
      </trkpt>
      <trkpt lat="36.7598571777344" lon="-5.18973016738892">
        <ele>517</ele>
        <time>2019-05-12T01:15:56Z</time>
      </trkpt>
      <trkpt lat="36.759838104248" lon="-5.18975210189819">
        <ele>517</ele>
        <time>2019-05-12T01:15:58Z</time>
      </trkpt>
      <trkpt lat="36.7598152160644" lon="-5.18977212905884">
        <ele>517</ele>
        <time>2019-05-12T01:16:00Z</time>
      </trkpt>
      <trkpt lat="36.7597923278809" lon="-5.1897931098938">
        <ele>517</ele>
        <time>2019-05-12T01:16:02Z</time>
      </trkpt>
      <trkpt lat="36.7597732543945" lon="-5.18981504440308">
        <ele>517</ele>
        <time>2019-05-12T01:16:04Z</time>
      </trkpt>
      <trkpt lat="36.7597503662109" lon="-5.18983507156372">
        <ele>517</ele>
        <time>2019-05-12T01:16:06Z</time>
      </trkpt>
      <trkpt lat="36.7597312927246" lon="-5.189857006073">
        <ele>517</ele>
        <time>2019-05-12T01:16:08Z</time>
      </trkpt>
      <trkpt lat="36.759708404541" lon="-5.18987703323364">
        <ele>517</ele>
        <time>2019-05-12T01:16:10Z</time>
      </trkpt>
      <trkpt lat="36.7596893310547" lon="-5.1898980140686">
        <ele>517</ele>
        <time>2019-05-12T01:16:12Z</time>
      </trkpt>
      <trkpt lat="36.7596664428711" lon="-5.18992280960083">
        <ele>517</ele>
        <time>2019-05-12T01:16:14Z</time>
      </trkpt>
      <trkpt lat="36.759651184082" lon="-5.18994998931885">
        <ele>517</ele>
        <time>2019-05-12T01:16:16Z</time>
      </trkpt>
      <trkpt lat="36.7596321105957" lon="-5.18997812271118">
        <ele>517</ele>
        <time>2019-05-12T01:16:18Z</time>
      </trkpt>
      <trkpt lat="36.7596130371094" lon="-5.19000482559204">
        <ele>517</ele>
        <time>2019-05-12T01:16:20Z</time>
      </trkpt>
      <trkpt lat="36.759593963623" lon="-5.19003200531006">
        <ele>517</ele>
        <time>2019-05-12T01:16:22Z</time>
      </trkpt>
      <trkpt lat="36.7595748901367" lon="-5.19006013870239">
        <ele>517</ele>
        <time>2019-05-12T01:16:24Z</time>
      </trkpt>
      <trkpt lat="36.7595558166504" lon="-5.19008779525757">
        <ele>517</ele>
        <time>2019-05-12T01:16:26Z</time>
      </trkpt>
      <trkpt lat="36.7595367431641" lon="-5.19011783599854">
        <ele>517</ele>
        <time>2019-05-12T01:16:28Z</time>
      </trkpt>
      <trkpt lat="36.759521484375" lon="-5.19014501571655">
        <ele>517</ele>
        <time>2019-05-12T01:16:30Z</time>
      </trkpt>
      <trkpt lat="36.7595024108887" lon="-5.19016790390015">
        <ele>517</ele>
        <time>2019-05-12T01:16:32Z</time>
      </trkpt>
      <trkpt lat="36.7594833374023" lon="-5.1901969909668">
        <ele>517</ele>
        <time>2019-05-12T01:16:34Z</time>
      </trkpt>
      <trkpt lat="36.7594680786133" lon="-5.19021987915039">
        <ele>517</ele>
        <time>2019-05-12T01:16:36Z</time>
      </trkpt>
      <trkpt lat="36.7594566345215" lon="-5.19024515151978">
        <ele>517</ele>
        <time>2019-05-12T01:16:38Z</time>
      </trkpt>
      <trkpt lat="36.7594413757324" lon="-5.19027519226074">
        <ele>517</ele>
        <time>2019-05-12T01:16:40Z</time>
      </trkpt>
      <trkpt lat="36.7594299316406" lon="-5.19030523300171">
        <ele>517</ele>
        <time>2019-05-12T01:16:42Z</time>
      </trkpt>
      <trkpt lat="36.7594184875488" lon="-5.19033193588257">
        <ele>517</ele>
        <time>2019-05-12T01:16:44Z</time>
      </trkpt>
      <trkpt lat="36.7594032287598" lon="-5.19036197662354">
        <ele>517</ele>
        <time>2019-05-12T01:16:46Z</time>
      </trkpt>
      <trkpt lat="36.7593955993652" lon="-5.1903920173645">
        <ele>517</ele>
        <time>2019-05-12T01:16:48Z</time>
      </trkpt>
      <trkpt lat="36.7593879699707" lon="-5.19042015075684">
        <ele>517</ele>
        <time>2019-05-12T01:16:50Z</time>
      </trkpt>
      <trkpt lat="36.7593765258789" lon="-5.1904468536377">
        <ele>517</ele>
        <time>2019-05-12T01:16:52Z</time>
      </trkpt>
      <trkpt lat="36.7593688964844" lon="-5.19046783447266">
        <ele>517</ele>
        <time>2019-05-12T01:16:54Z</time>
      </trkpt>
      <trkpt lat="36.7593536376953" lon="-5.1904878616333">
        <ele>517</ele>
        <time>2019-05-12T01:16:56Z</time>
      </trkpt>
      <trkpt lat="36.7593460083008" lon="-5.19050979614258">
        <ele>517</ele>
        <time>2019-05-12T01:16:58Z</time>
      </trkpt>
      <trkpt lat="36.7593421936035" lon="-5.19052791595459">
        <ele>517</ele>
        <time>2019-05-12T01:17:01Z</time>
      </trkpt>
      <trkpt lat="36.7593383789062" lon="-5.19053220748901">
        <ele>517</ele>
        <time>2019-05-12T01:17:03Z</time>
      </trkpt>
      <trkpt lat="36.7593383789062" lon="-5.19053983688354">
        <ele>517</ele>
        <time>2019-05-12T01:17:05Z</time>
      </trkpt>
      <trkpt lat="36.7593383789062" lon="-5.19055223464966">
        <ele>517</ele>
        <time>2019-05-12T01:17:07Z</time>
      </trkpt>
      <trkpt lat="36.759334564209" lon="-5.19056510925293">
        <ele>517</ele>
        <time>2019-05-12T01:17:09Z</time>
      </trkpt>
      <trkpt lat="36.759334564209" lon="-5.19056701660156">
        <ele>517</ele>
        <time>2019-05-12T01:17:11Z</time>
      </trkpt>
      <trkpt lat="36.759334564209" lon="-5.19056987762451">
        <ele>516</ele>
        <time>2019-05-12T01:17:13Z</time>
      </trkpt>
      <trkpt lat="36.7593383789062" lon="-5.19057321548462">
        <ele>516</ele>
        <time>2019-05-12T01:17:15Z</time>
      </trkpt>
      <trkpt lat="36.7593383789062" lon="-5.1905779838562">
        <ele>516</ele>
        <time>2019-05-12T01:17:17Z</time>
      </trkpt>
      <trkpt lat="36.7593383789062" lon="-5.19058179855347">
        <ele>516</ele>
        <time>2019-05-12T01:17:19Z</time>
      </trkpt>
      <trkpt lat="36.7593383789062" lon="-5.19058513641357">
        <ele>516</ele>
        <time>2019-05-12T01:17:21Z</time>
      </trkpt>
      <trkpt lat="36.7593383789062" lon="-5.19058799743652">
        <ele>515</ele>
        <time>2019-05-12T01:17:23Z</time>
      </trkpt>
      <trkpt lat="36.7593383789062" lon="-5.19059181213379">
        <ele>515</ele>
        <time>2019-05-12T01:17:25Z</time>
      </trkpt>
      <trkpt lat="36.7593383789062" lon="-5.1905951499939">
        <ele>515</ele>
        <time>2019-05-12T01:17:27Z</time>
      </trkpt>
      <trkpt lat="36.7593421936035" lon="-5.19059705734253">
        <ele>514</ele>
        <time>2019-05-12T01:17:29Z</time>
      </trkpt>
      <trkpt lat="36.7593421936035" lon="-5.19060277938843">
        <ele>514</ele>
        <time>2019-05-12T01:17:31Z</time>
      </trkpt>
      <trkpt lat="36.7593460083008" lon="-5.19061517715454">
        <ele>514</ele>
        <time>2019-05-12T01:17:33Z</time>
      </trkpt>
      <trkpt lat="36.759349822998" lon="-5.19062519073486">
        <ele>514</ele>
        <time>2019-05-12T01:17:35Z</time>
      </trkpt>
      <trkpt lat="36.7593536376953" lon="-5.19063186645508">
        <ele>514</ele>
        <time>2019-05-12T01:17:37Z</time>
      </trkpt>
      <trkpt lat="36.7593536376953" lon="-5.19063520431519">
        <ele>514</ele>
        <time>2019-05-12T01:17:39Z</time>
      </trkpt>
      <trkpt lat="36.7593536376953" lon="-5.19063711166382">
        <ele>514</ele>
        <time>2019-05-12T01:17:41Z</time>
      </trkpt>
      <trkpt lat="36.759349822998" lon="-5.19063997268677">
        <ele>514</ele>
        <time>2019-05-12T01:17:43Z</time>
      </trkpt>
      <trkpt lat="36.759349822998" lon="-5.1906418800354">
        <ele>514</ele>
        <time>2019-05-12T01:17:45Z</time>
      </trkpt>
      <trkpt lat="36.7593536376953" lon="-5.19064712524414">
        <ele>514</ele>
        <time>2019-05-12T01:17:47Z</time>
      </trkpt>
      <trkpt lat="36.7593536376953" lon="-5.19066476821899">
        <ele>514</ele>
        <time>2019-05-12T01:17:49Z</time>
      </trkpt>
      <trkpt lat="36.7593536376953" lon="-5.19069194793701">
        <ele>514</ele>
        <time>2019-05-12T01:17:51Z</time>
      </trkpt>
      <trkpt lat="36.7593421936035" lon="-5.1907172203064">
        <ele>514</ele>
        <time>2019-05-12T01:17:53Z</time>
      </trkpt>
      <trkpt lat="36.7593307495117" lon="-5.19073820114136">
        <ele>514</ele>
        <time>2019-05-12T01:17:55Z</time>
      </trkpt>
      <trkpt lat="36.7593193054199" lon="-5.19076013565064">
        <ele>514</ele>
        <time>2019-05-12T01:17:57Z</time>
      </trkpt>
      <trkpt lat="36.7593040466309" lon="-5.19078016281128">
        <ele>514</ele>
        <time>2019-05-12T01:17:59Z</time>
      </trkpt>
      <trkpt lat="36.7592964172363" lon="-5.19079780578613">
        <ele>514</ele>
        <time>2019-05-12T01:18:01Z</time>
      </trkpt>
      <trkpt lat="36.7592887878418" lon="-5.19081783294678">
        <ele>514</ele>
        <time>2019-05-12T01:18:03Z</time>
      </trkpt>
      <trkpt lat="36.7592735290527" lon="-5.19083786010742">
        <ele>514</ele>
        <time>2019-05-12T01:18:05Z</time>
      </trkpt>
      <trkpt lat="36.7592658996582" lon="-5.19085693359375">
        <ele>514</ele>
        <time>2019-05-12T01:18:07Z</time>
      </trkpt>
      <trkpt lat="36.7592544555664" lon="-5.19086980819702">
        <ele>514</ele>
        <time>2019-05-12T01:18:09Z</time>
      </trkpt>
      <trkpt lat="36.7592430114746" lon="-5.19087505340576">
        <ele>514</ele>
        <time>2019-05-12T01:18:11Z</time>
      </trkpt>
      <trkpt lat="36.7592315673828" lon="-5.19087505340576">
        <ele>514</ele>
        <time>2019-05-12T01:18:13Z</time>
      </trkpt>
      <trkpt lat="36.759220123291" lon="-5.19086980819702">
        <ele>514</ele>
        <time>2019-05-12T01:18:15Z</time>
      </trkpt>
      <trkpt lat="36.7592086791992" lon="-5.19086313247681">
        <ele>514</ele>
        <time>2019-05-12T01:18:17Z</time>
      </trkpt>
      <trkpt lat="36.7591972351074" lon="-5.19085788726807">
        <ele>515</ele>
        <time>2019-05-12T01:18:19Z</time>
      </trkpt>
      <trkpt lat="36.7591857910156" lon="-5.19084692001343">
        <ele>515</ele>
        <time>2019-05-12T01:18:21Z</time>
      </trkpt>
      <trkpt lat="36.7591743469238" lon="-5.1908450126648">
        <ele>515</ele>
        <time>2019-05-12T01:18:23Z</time>
      </trkpt>
      <trkpt lat="36.7591552734375" lon="-5.1908450126648">
        <ele>515</ele>
        <time>2019-05-12T01:18:25Z</time>
      </trkpt>
      <trkpt lat="36.7591400146484" lon="-5.19083690643311">
        <ele>515</ele>
        <time>2019-05-12T01:18:27Z</time>
      </trkpt>
      <trkpt lat="36.7591247558594" lon="-5.1908221244812">
        <ele>515</ele>
        <time>2019-05-12T01:18:29Z</time>
      </trkpt>
      <trkpt lat="36.759105682373" lon="-5.19081020355225">
        <ele>516</ele>
        <time>2019-05-12T01:18:31Z</time>
      </trkpt>
      <trkpt lat="36.7591018676758" lon="-5.1908130645752">
        <ele>516</ele>
        <time>2019-05-12T01:18:33Z</time>
      </trkpt>
      <trkpt lat="36.7590942382812" lon="-5.19082307815552">
        <ele>516</ele>
        <time>2019-05-12T01:18:35Z</time>
      </trkpt>
      <trkpt lat="36.7590866088867" lon="-5.19082307815552">
        <ele>516</ele>
        <time>2019-05-12T01:18:37Z</time>
      </trkpt>
      <trkpt lat="36.7590789794922" lon="-5.19082498550415">
        <ele>516</ele>
        <time>2019-05-12T01:18:39Z</time>
      </trkpt>
      <trkpt lat="36.7590713500977" lon="-5.19082498550415">
        <ele>516</ele>
        <time>2019-05-12T01:18:41Z</time>
      </trkpt>
      <trkpt lat="36.7590637207031" lon="-5.1908278465271">
        <ele>516</ele>
        <time>2019-05-12T01:18:43Z</time>
      </trkpt>
      <trkpt lat="36.7590560913086" lon="-5.19083023071289">
        <ele>516</ele>
        <time>2019-05-12T01:18:45Z</time>
      </trkpt>
      <trkpt lat="36.7590484619141" lon="-5.19083023071289">
        <ele>516</ele>
        <time>2019-05-12T01:18:47Z</time>
      </trkpt>
      <trkpt lat="36.7590446472168" lon="-5.19082498550415">
        <ele>516</ele>
        <time>2019-05-12T01:18:49Z</time>
      </trkpt>
      <trkpt lat="36.759033203125" lon="-5.19081687927246">
        <ele>516</ele>
        <time>2019-05-12T01:18:51Z</time>
      </trkpt>
      <trkpt lat="36.7590179443359" lon="-5.19080305099487">
        <ele>516</ele>
        <time>2019-05-12T01:18:53Z</time>
      </trkpt>
      <trkpt lat="36.7589988708496" lon="-5.1907901763916">
        <ele>516</ele>
        <time>2019-05-12T01:18:55Z</time>
      </trkpt>
      <trkpt lat="36.758975982666" lon="-5.19078493118286">
        <ele>516</ele>
        <time>2019-05-12T01:18:57Z</time>
      </trkpt>
      <trkpt lat="36.7589569091797" lon="-5.19078016281128">
        <ele>516</ele>
        <time>2019-05-12T01:18:59Z</time>
      </trkpt>
      <trkpt lat="36.7589416503906" lon="-5.19077205657959">
        <ele>517</ele>
        <time>2019-05-12T01:19:01Z</time>
      </trkpt>
      <trkpt lat="36.7589263916016" lon="-5.19076013565064">
        <ele>519</ele>
        <time>2019-05-12T01:19:03Z</time>
      </trkpt>
      <trkpt lat="36.7589111328125" lon="-5.19074296951294">
        <ele>520</ele>
        <time>2019-05-12T01:19:05Z</time>
      </trkpt>
      <trkpt lat="36.7588958740234" lon="-5.19072484970093">
        <ele>521</ele>
        <time>2019-05-12T01:19:07Z</time>
      </trkpt>
      <trkpt lat="36.7588806152344" lon="-5.19070720672607">
        <ele>522</ele>
        <time>2019-05-12T01:19:09Z</time>
      </trkpt>
      <trkpt lat="36.7588653564453" lon="-5.19068813323975">
        <ele>523</ele>
        <time>2019-05-12T01:19:11Z</time>
      </trkpt>
      <trkpt lat="36.758846282959" lon="-5.19067716598511">
        <ele>524</ele>
        <time>2019-05-12T01:19:13Z</time>
      </trkpt>
      <trkpt lat="36.7588310241699" lon="-5.19066476821899">
        <ele>525</ele>
        <time>2019-05-12T01:19:15Z</time>
      </trkpt>
      <trkpt lat="36.7588119506836" lon="-5.19065189361572">
        <ele>525</ele>
        <time>2019-05-12T01:19:17Z</time>
      </trkpt>
      <trkpt lat="36.7587966918945" lon="-5.19063806533814">
        <ele>526</ele>
        <time>2019-05-12T01:19:19Z</time>
      </trkpt>
      <trkpt lat="36.7587776184082" lon="-5.1906270980835">
        <ele>526</ele>
        <time>2019-05-12T01:19:21Z</time>
      </trkpt>
      <trkpt lat="36.7587509155273" lon="-5.19061517715454">
        <ele>526</ele>
        <time>2019-05-12T01:19:24Z</time>
      </trkpt>
      <trkpt lat="36.758731842041" lon="-5.19061183929443">
        <ele>526</ele>
        <time>2019-05-12T01:19:26Z</time>
      </trkpt>
      <trkpt lat="36.758716583252" lon="-5.1906099319458">
        <ele>527</ele>
        <time>2019-05-12T01:19:28Z</time>
      </trkpt>
      <trkpt lat="36.7586936950684" lon="-5.1906099319458">
        <ele>527</ele>
        <time>2019-05-12T01:19:30Z</time>
      </trkpt>
      <trkpt lat="36.7586784362793" lon="-5.1906099319458">
        <ele>527</ele>
        <time>2019-05-12T01:19:32Z</time>
      </trkpt>
      <trkpt lat="36.7586631774902" lon="-5.19060182571411">
        <ele>527</ele>
        <time>2019-05-12T01:19:34Z</time>
      </trkpt>
      <trkpt lat="36.7586517333984" lon="-5.19058990478516">
        <ele>527</ele>
        <time>2019-05-12T01:19:36Z</time>
      </trkpt>
      <trkpt lat="36.7586364746094" lon="-5.19058322906494">
        <ele>527</ele>
        <time>2019-05-12T01:19:38Z</time>
      </trkpt>
      <trkpt lat="36.758617401123" lon="-5.19057703018188">
        <ele>527</ele>
        <time>2019-05-12T01:19:40Z</time>
      </trkpt>
      <trkpt lat="36.7585983276367" lon="-5.19057321548462">
        <ele>527</ele>
        <time>2019-05-12T01:19:42Z</time>
      </trkpt>
      <trkpt lat="36.7585792541504" lon="-5.1905632019043">
        <ele>527</ele>
        <time>2019-05-12T01:19:44Z</time>
      </trkpt>
      <trkpt lat="36.7585601806641" lon="-5.19054985046387">
        <ele>527</ele>
        <time>2019-05-12T01:19:46Z</time>
      </trkpt>
      <trkpt lat="36.7585411071777" lon="-5.19053983688354">
        <ele>527</ele>
        <time>2019-05-12T01:19:48Z</time>
      </trkpt>
      <trkpt lat="36.7585296630859" lon="-5.19053792953491">
        <ele>527</ele>
        <time>2019-05-12T01:19:50Z</time>
      </trkpt>
      <trkpt lat="36.7585182189941" lon="-5.19054222106934">
        <ele>527</ele>
        <time>2019-05-12T01:19:52Z</time>
      </trkpt>
      <trkpt lat="36.7585067749023" lon="-5.19054985046387">
        <ele>527</ele>
        <time>2019-05-12T01:19:54Z</time>
      </trkpt>
      <trkpt lat="36.7584991455078" lon="-5.19055509567261">
        <ele>527</ele>
        <time>2019-05-12T01:19:56Z</time>
      </trkpt>
      <trkpt lat="36.7584953308106" lon="-5.19055795669556">
        <ele>527</ele>
        <time>2019-05-12T01:19:58Z</time>
      </trkpt>
      <trkpt lat="36.7584953308106" lon="-5.19055986404419">
        <ele>527</ele>
        <time>2019-05-12T01:20:00Z</time>
      </trkpt>
      <trkpt lat="36.7584915161133" lon="-5.19056510925293">
        <ele>527</ele>
        <time>2019-05-12T01:20:02Z</time>
      </trkpt>
      <trkpt lat="36.7584915161133" lon="-5.19056701660156">
        <ele>528</ele>
        <time>2019-05-12T01:20:06Z</time>
      </trkpt>
      <trkpt lat="36.758487701416" lon="-5.19056701660156">
        <ele>528</ele>
        <time>2019-05-12T01:20:08Z</time>
      </trkpt>
      <trkpt lat="36.7584838867188" lon="-5.19056701660156">
        <ele>528</ele>
        <time>2019-05-12T01:20:10Z</time>
      </trkpt>
      <trkpt lat="36.7584838867188" lon="-5.19056510925293">
        <ele>528</ele>
        <time>2019-05-12T01:20:12Z</time>
      </trkpt>
      <trkpt lat="36.7584762573242" lon="-5.19056510925293">
        <ele>528</ele>
        <time>2019-05-12T01:20:14Z</time>
      </trkpt>
      <trkpt lat="36.758472442627" lon="-5.19056797027588">
        <ele>528</ele>
        <time>2019-05-12T01:20:16Z</time>
      </trkpt>
      <trkpt lat="36.7584686279297" lon="-5.19057178497314">
        <ele>528</ele>
        <time>2019-05-12T01:20:18Z</time>
      </trkpt>
      <trkpt lat="36.7584609985352" lon="-5.19057321548462">
        <ele>528</ele>
        <time>2019-05-12T01:20:20Z</time>
      </trkpt>
      <trkpt lat="36.7584533691406" lon="-5.19057321548462">
        <ele>528</ele>
        <time>2019-05-12T01:20:22Z</time>
      </trkpt>
      <trkpt lat="36.7584495544434" lon="-5.19056797027588">
        <ele>527</ele>
        <time>2019-05-12T01:20:24Z</time>
      </trkpt>
      <trkpt lat="36.7584381103516" lon="-5.19057178497314">
        <ele>526</ele>
        <time>2019-05-12T01:20:26Z</time>
      </trkpt>
      <trkpt lat="36.758430480957" lon="-5.19057512283325">
        <ele>525</ele>
        <time>2019-05-12T01:20:28Z</time>
      </trkpt>
      <trkpt lat="36.7584266662598" lon="-5.1905779838562">
        <ele>524</ele>
        <time>2019-05-12T01:20:30Z</time>
      </trkpt>
      <trkpt lat="36.7584190368652" lon="-5.19058322906494">
        <ele>524</ele>
        <time>2019-05-12T01:20:32Z</time>
      </trkpt>
      <trkpt lat="36.7584190368652" lon="-5.19058513641357">
        <ele>523</ele>
        <time>2019-05-12T01:20:34Z</time>
      </trkpt>
      <trkpt lat="36.7584190368652" lon="-5.19058704376221">
        <ele>523</ele>
        <time>2019-05-12T01:20:36Z</time>
      </trkpt>
      <trkpt lat="36.758415222168" lon="-5.19058990478516">
        <ele>523</ele>
        <time>2019-05-12T01:20:38Z</time>
      </trkpt>
      <trkpt lat="36.7584190368652" lon="-5.19059276580811">
        <ele>523</ele>
        <time>2019-05-12T01:20:40Z</time>
      </trkpt>
      <trkpt lat="36.7584190368652" lon="-5.19060182571411">
        <ele>523</ele>
        <time>2019-05-12T01:20:42Z</time>
      </trkpt>
      <trkpt lat="36.7584190368652" lon="-5.19060802459717">
        <ele>523</ele>
        <time>2019-05-12T01:20:44Z</time>
      </trkpt>
      <trkpt lat="36.7584190368652" lon="-5.19061279296875">
        <ele>523</ele>
        <time>2019-05-12T01:20:46Z</time>
      </trkpt>
      <trkpt lat="36.7584228515625" lon="-5.19061803817749">
        <ele>523</ele>
        <time>2019-05-12T01:20:48Z</time>
      </trkpt>
      <trkpt lat="36.7584228515625" lon="-5.19061803817749">
        <ele>523</ele>
        <time>2019-05-12T01:20:50Z</time>
      </trkpt>
      <trkpt lat="36.7584228515625" lon="-5.19062185287476">
        <ele>523</ele>
        <time>2019-05-12T01:20:52Z</time>
      </trkpt>
      <trkpt lat="36.7584228515625" lon="-5.1906270980835">
        <ele>523</ele>
        <time>2019-05-12T01:20:54Z</time>
      </trkpt>
      <trkpt lat="36.758415222168" lon="-5.19062805175781">
        <ele>523</ele>
        <time>2019-05-12T01:20:56Z</time>
      </trkpt>
      <trkpt lat="36.758415222168" lon="-5.19062805175781">
        <ele>523</ele>
        <time>2019-05-12T01:20:58Z</time>
      </trkpt>
      <trkpt lat="36.7584114074707" lon="-5.19062805175781">
        <ele>522</ele>
        <time>2019-05-12T01:21:00Z</time>
      </trkpt>
      <trkpt lat="36.7584114074707" lon="-5.1906270980835">
        <ele>522</ele>
        <time>2019-05-12T01:21:02Z</time>
      </trkpt>
      <trkpt lat="36.758415222168" lon="-5.19062519073486">
        <ele>521</ele>
        <time>2019-05-12T01:21:04Z</time>
      </trkpt>
      <trkpt lat="36.7584114074707" lon="-5.19061994552612">
        <ele>520</ele>
        <time>2019-05-12T01:21:06Z</time>
      </trkpt>
      <trkpt lat="36.7584114074707" lon="-5.19061517715454">
        <ele>519</ele>
        <time>2019-05-12T01:21:08Z</time>
      </trkpt>
      <trkpt lat="36.7584114074707" lon="-5.1906099319458">
        <ele>518</ele>
        <time>2019-05-12T01:21:10Z</time>
      </trkpt>
      <trkpt lat="36.7584114074707" lon="-5.19060516357422">
        <ele>518</ele>
        <time>2019-05-12T01:21:12Z</time>
      </trkpt>
      <trkpt lat="36.7584075927734" lon="-5.19060516357422">
        <ele>517</ele>
        <time>2019-05-12T01:21:14Z</time>
      </trkpt>
      <trkpt lat="36.7584037780762" lon="-5.19060707092285">
        <ele>517</ele>
        <time>2019-05-12T01:21:16Z</time>
      </trkpt>
      <trkpt lat="36.7583961486816" lon="-5.19060707092285">
        <ele>516</ele>
        <time>2019-05-12T01:21:18Z</time>
      </trkpt>
      <trkpt lat="36.7583885192871" lon="-5.19061183929443">
        <ele>516</ele>
        <time>2019-05-12T01:21:20Z</time>
      </trkpt>
      <trkpt lat="36.7583885192871" lon="-5.19061183929443">
        <ele>516</ele>
        <time>2019-05-12T01:21:22Z</time>
      </trkpt>
      <trkpt lat="36.7583808898926" lon="-5.19060802459717">
        <ele>516</ele>
        <time>2019-05-12T01:21:24Z</time>
      </trkpt>
      <trkpt lat="36.7583808898926" lon="-5.19060516357422">
        <ele>516</ele>
        <time>2019-05-12T01:21:26Z</time>
      </trkpt>
      <trkpt lat="36.7583770751953" lon="-5.19060277938843">
        <ele>516</ele>
        <time>2019-05-12T01:21:28Z</time>
      </trkpt>
      <trkpt lat="36.758373260498" lon="-5.19060277938843">
        <ele>516</ele>
        <time>2019-05-12T01:21:30Z</time>
      </trkpt>
      <trkpt lat="36.7583656311035" lon="-5.1905951499939">
        <ele>516</ele>
        <time>2019-05-12T01:21:32Z</time>
      </trkpt>
      <trkpt lat="36.7583656311035" lon="-5.19058799743652">
        <ele>516</ele>
        <time>2019-05-12T01:21:34Z</time>
      </trkpt>
      <trkpt lat="36.7583618164062" lon="-5.19058704376221">
        <ele>516</ele>
        <time>2019-05-12T01:21:36Z</time>
      </trkpt>
      <trkpt lat="36.7583541870117" lon="-5.19058513641357">
        <ele>516</ele>
        <time>2019-05-12T01:21:38Z</time>
      </trkpt>
      <trkpt lat="36.7583503723144" lon="-5.19058704376221">
        <ele>516</ele>
        <time>2019-05-12T01:21:40Z</time>
      </trkpt>
      <trkpt lat="36.7583465576172" lon="-5.19059181213379">
        <ele>516</ele>
        <time>2019-05-12T01:21:42Z</time>
      </trkpt>
      <trkpt lat="36.7583427429199" lon="-5.1905951499939">
        <ele>516</ele>
        <time>2019-05-12T01:21:44Z</time>
      </trkpt>
      <trkpt lat="36.7583427429199" lon="-5.19059801101685">
        <ele>516</ele>
        <time>2019-05-12T01:21:46Z</time>
      </trkpt>
      <trkpt lat="36.7583427429199" lon="-5.19060182571411">
        <ele>516</ele>
        <time>2019-05-12T01:21:48Z</time>
      </trkpt>
      <trkpt lat="36.7583389282227" lon="-5.19060516357422">
        <ele>516</ele>
        <time>2019-05-12T01:21:50Z</time>
      </trkpt>
      <trkpt lat="36.7583389282227" lon="-5.19060707092285">
        <ele>516</ele>
        <time>2019-05-12T01:21:53Z</time>
      </trkpt>
      <trkpt lat="36.7583389282227" lon="-5.1906099319458">
        <ele>516</ele>
        <time>2019-05-12T01:21:55Z</time>
      </trkpt>
      <trkpt lat="36.7583389282227" lon="-5.19061517715454">
        <ele>516</ele>
        <time>2019-05-12T01:21:57Z</time>
      </trkpt>
      <trkpt lat="36.7583427429199" lon="-5.19062185287476">
        <ele>516</ele>
        <time>2019-05-12T01:21:59Z</time>
      </trkpt>
      <trkpt lat="36.7583389282227" lon="-5.19062805175781">
        <ele>516</ele>
        <time>2019-05-12T01:22:01Z</time>
      </trkpt>
      <trkpt lat="36.7583427429199" lon="-5.19063186645508">
        <ele>516</ele>
        <time>2019-05-12T01:22:03Z</time>
      </trkpt>
      <trkpt lat="36.7583465576172" lon="-5.19063282012939">
        <ele>516</ele>
        <time>2019-05-12T01:22:05Z</time>
      </trkpt>
      <trkpt lat="36.7583465576172" lon="-5.19063997268677">
        <ele>516</ele>
        <time>2019-05-12T01:22:07Z</time>
      </trkpt>
      <trkpt lat="36.7583465576172" lon="-5.19064521789551">
        <ele>516</ele>
        <time>2019-05-12T01:22:09Z</time>
      </trkpt>
      <trkpt lat="36.7583503723144" lon="-5.19064807891846">
        <ele>516</ele>
        <time>2019-05-12T01:22:11Z</time>
      </trkpt>
      <trkpt lat="36.7583541870117" lon="-5.19065284729004">
        <ele>516</ele>
        <time>2019-05-12T01:22:13Z</time>
      </trkpt>
      <trkpt lat="36.7583503723144" lon="-5.19066190719604">
        <ele>516</ele>
        <time>2019-05-12T01:22:15Z</time>
      </trkpt>
      <trkpt lat="36.7583541870117" lon="-5.19067001342773">
        <ele>516</ele>
        <time>2019-05-12T01:22:17Z</time>
      </trkpt>
      <trkpt lat="36.7583541870117" lon="-5.19067716598511">
        <ele>516</ele>
        <time>2019-05-12T01:22:19Z</time>
      </trkpt>
      <trkpt lat="36.758358001709" lon="-5.19068002700806">
        <ele>516</ele>
        <time>2019-05-12T01:22:21Z</time>
      </trkpt>
      <trkpt lat="36.758358001709" lon="-5.19068813323975">
        <ele>516</ele>
        <time>2019-05-12T01:22:23Z</time>
      </trkpt>
      <trkpt lat="36.7583503723144" lon="-5.19069719314575">
        <ele>516</ele>
        <time>2019-05-12T01:22:25Z</time>
      </trkpt>
      <trkpt lat="36.7583503723144" lon="-5.1907000541687">
        <ele>516</ele>
        <time>2019-05-12T01:22:27Z</time>
      </trkpt>
      <trkpt lat="36.7583465576172" lon="-5.19070482254028">
        <ele>516</ele>
        <time>2019-05-12T01:22:29Z</time>
      </trkpt>
      <trkpt lat="36.7583389282227" lon="-5.19071197509766">
        <ele>516</ele>
        <time>2019-05-12T01:22:31Z</time>
      </trkpt>
      <trkpt lat="36.7583312988281" lon="-5.19072008132935">
        <ele>516</ele>
        <time>2019-05-12T01:22:33Z</time>
      </trkpt>
      <trkpt lat="36.7583274841309" lon="-5.1907229423523">
        <ele>516</ele>
        <time>2019-05-12T01:22:35Z</time>
      </trkpt>
      <trkpt lat="36.7583236694336" lon="-5.19072723388672">
        <ele>516</ele>
        <time>2019-05-12T01:22:37Z</time>
      </trkpt>
      <trkpt lat="36.7583236694336" lon="-5.1907320022583">
        <ele>516</ele>
        <time>2019-05-12T01:22:39Z</time>
      </trkpt>
      <trkpt lat="36.7583160400391" lon="-5.19073820114136">
        <ele>516</ele>
        <time>2019-05-12T01:22:41Z</time>
      </trkpt>
      <trkpt lat="36.7583122253418" lon="-5.19073677062988">
        <ele>516</ele>
        <time>2019-05-12T01:22:43Z</time>
      </trkpt>
      <trkpt lat="36.7583122253418" lon="-5.19073820114136">
        <ele>516</ele>
        <time>2019-05-12T01:22:45Z</time>
      </trkpt>
      <trkpt lat="36.7583084106445" lon="-5.19073677062988">
        <ele>516</ele>
        <time>2019-05-12T01:22:47Z</time>
      </trkpt>
      <trkpt lat="36.7583045959473" lon="-5.19074201583862">
        <ele>516</ele>
        <time>2019-05-12T01:22:49Z</time>
      </trkpt>
      <trkpt lat="36.7582969665527" lon="-5.19074821472168">
        <ele>516</ele>
        <time>2019-05-12T01:22:51Z</time>
      </trkpt>
      <trkpt lat="36.7582931518555" lon="-5.19075202941894">
        <ele>516</ele>
        <time>2019-05-12T01:22:53Z</time>
      </trkpt>
      <trkpt lat="36.7582855224609" lon="-5.19075202941894">
        <ele>516</ele>
        <time>2019-05-12T01:22:55Z</time>
      </trkpt>
      <trkpt lat="36.7582817077637" lon="-5.19075202941894">
        <ele>515</ele>
        <time>2019-05-12T01:22:57Z</time>
      </trkpt>
      <trkpt lat="36.7582778930664" lon="-5.19075298309326">
        <ele>515</ele>
        <time>2019-05-12T01:22:59Z</time>
      </trkpt>
      <trkpt lat="36.7582740783691" lon="-5.19075679779053">
        <ele>515</ele>
        <time>2019-05-12T01:23:01Z</time>
      </trkpt>
      <trkpt lat="36.7582702636719" lon="-5.19075202941894">
        <ele>515</ele>
        <time>2019-05-12T01:23:03Z</time>
      </trkpt>
      <trkpt lat="36.7582702636719" lon="-5.19074821472168">
        <ele>515</ele>
        <time>2019-05-12T01:23:05Z</time>
      </trkpt>
      <trkpt lat="36.7582664489746" lon="-5.19075202941894">
        <ele>514</ele>
        <time>2019-05-12T01:23:07Z</time>
      </trkpt>
      <trkpt lat="36.7582588195801" lon="-5.19075012207031">
        <ele>514</ele>
        <time>2019-05-12T01:23:09Z</time>
      </trkpt>
      <trkpt lat="36.7582511901856" lon="-5.19074821472168">
        <ele>514</ele>
        <time>2019-05-12T01:23:11Z</time>
      </trkpt>
      <trkpt lat="36.7582511901856" lon="-5.19075012207031">
        <ele>514</ele>
        <time>2019-05-12T01:23:13Z</time>
      </trkpt>
      <trkpt lat="36.7582473754883" lon="-5.19075298309326">
        <ele>514</ele>
        <time>2019-05-12T01:23:15Z</time>
      </trkpt>
      <trkpt lat="36.758243560791" lon="-5.19075202941894">
        <ele>514</ele>
        <time>2019-05-12T01:23:17Z</time>
      </trkpt>
      <trkpt lat="36.7582397460938" lon="-5.19075012207031">
        <ele>514</ele>
        <time>2019-05-12T01:23:19Z</time>
      </trkpt>
      <trkpt lat="36.7582359313965" lon="-5.1907467842102">
        <ele>514</ele>
        <time>2019-05-12T01:23:21Z</time>
      </trkpt>
      <trkpt lat="36.758228302002" lon="-5.19074487686157">
        <ele>514</ele>
        <time>2019-05-12T01:23:23Z</time>
      </trkpt>
      <trkpt lat="36.7582206726074" lon="-5.19074010848999">
        <ele>514</ele>
        <time>2019-05-12T01:23:25Z</time>
      </trkpt>
      <trkpt lat="36.7582206726074" lon="-5.19073677062988">
        <ele>514</ele>
        <time>2019-05-12T01:23:27Z</time>
      </trkpt>
      <trkpt lat="36.7582130432129" lon="-5.19073677062988">
        <ele>514</ele>
        <time>2019-05-12T01:23:29Z</time>
      </trkpt>
      <trkpt lat="36.7582092285156" lon="-5.19073677062988">
        <ele>514</ele>
        <time>2019-05-12T01:23:31Z</time>
      </trkpt>
      <trkpt lat="36.7582015991211" lon="-5.19074010848999">
        <ele>514</ele>
        <time>2019-05-12T01:23:33Z</time>
      </trkpt>
      <trkpt lat="36.7581977844238" lon="-5.19073486328125">
        <ele>513</ele>
        <time>2019-05-12T01:23:35Z</time>
      </trkpt>
      <trkpt lat="36.7581901550293" lon="-5.19072818756104">
        <ele>513</ele>
        <time>2019-05-12T01:23:37Z</time>
      </trkpt>
      <trkpt lat="36.758186340332" lon="-5.1907320022583">
        <ele>513</ele>
        <time>2019-05-12T01:23:39Z</time>
      </trkpt>
      <trkpt lat="36.7581787109375" lon="-5.19073295593262">
        <ele>513</ele>
        <time>2019-05-12T01:23:41Z</time>
      </trkpt>
      <trkpt lat="36.7581787109375" lon="-5.19073677062988">
        <ele>513</ele>
        <time>2019-05-12T01:23:43Z</time>
      </trkpt>
      <trkpt lat="36.7581748962402" lon="-5.19073820114136">
        <ele>513</ele>
        <time>2019-05-12T01:23:45Z</time>
      </trkpt>
      <trkpt lat="36.758171081543" lon="-5.19074010848999">
        <ele>513</ele>
        <time>2019-05-12T01:23:47Z</time>
      </trkpt>
      <trkpt lat="36.758171081543" lon="-5.19074296951294">
        <ele>513</ele>
        <time>2019-05-12T01:23:49Z</time>
      </trkpt>
      <trkpt lat="36.7581672668457" lon="-5.19074821472168">
        <ele>513</ele>
        <time>2019-05-12T01:23:51Z</time>
      </trkpt>
      <trkpt lat="36.758171081543" lon="-5.19074296951294">
        <ele>513</ele>
        <time>2019-05-12T01:23:53Z</time>
      </trkpt>
      <trkpt lat="36.758171081543" lon="-5.19074296951294">
        <ele>513</ele>
        <time>2019-05-12T01:23:55Z</time>
      </trkpt>
      <trkpt lat="36.7581787109375" lon="-5.19074296951294">
        <ele>513</ele>
        <time>2019-05-12T01:23:57Z</time>
      </trkpt>
      <trkpt lat="36.7581787109375" lon="-5.19074296951294">
        <ele>513</ele>
        <time>2019-05-12T01:23:59Z</time>
      </trkpt>
      <trkpt lat="36.7581787109375" lon="-5.19074010848999">
        <ele>513</ele>
        <time>2019-05-12T01:24:01Z</time>
      </trkpt>
      <trkpt lat="36.7581787109375" lon="-5.19074010848999">
        <ele>513</ele>
        <time>2019-05-12T01:24:03Z</time>
      </trkpt>
      <trkpt lat="36.7581787109375" lon="-5.19073820114136">
        <ele>513</ele>
        <time>2019-05-12T01:24:05Z</time>
      </trkpt>
      <trkpt lat="36.7581825256348" lon="-5.19073820114136">
        <ele>513</ele>
        <time>2019-05-12T01:24:07Z</time>
      </trkpt>
      <trkpt lat="36.7581825256348" lon="-5.19073295593262">
        <ele>513</ele>
        <time>2019-05-12T01:24:10Z</time>
      </trkpt>
      <trkpt lat="36.7581825256348" lon="-5.19073486328125">
        <ele>513</ele>
        <time>2019-05-12T01:24:12Z</time>
      </trkpt>
      <trkpt lat="36.7581825256348" lon="-5.19074010848999">
        <ele>513</ele>
        <time>2019-05-12T01:24:14Z</time>
      </trkpt>
      <trkpt lat="36.758186340332" lon="-5.19074487686157">
        <ele>513</ele>
        <time>2019-05-12T01:24:16Z</time>
      </trkpt>
      <trkpt lat="36.758186340332" lon="-5.19074487686157">
        <ele>513</ele>
        <time>2019-05-12T01:24:18Z</time>
      </trkpt>
      <trkpt lat="36.7581901550293" lon="-5.19074487686157">
        <ele>513</ele>
        <time>2019-05-12T01:24:20Z</time>
      </trkpt>
      <trkpt lat="36.7581939697266" lon="-5.19074010848999">
        <ele>513</ele>
        <time>2019-05-12T01:24:22Z</time>
      </trkpt>
      <trkpt lat="36.7581977844238" lon="-5.19073820114136">
        <ele>513</ele>
        <time>2019-05-12T01:24:24Z</time>
      </trkpt>
      <trkpt lat="36.7582015991211" lon="-5.19073486328125">
        <ele>513</ele>
        <time>2019-05-12T01:24:26Z</time>
      </trkpt>
      <trkpt lat="36.7582054138184" lon="-5.1907320022583">
        <ele>513</ele>
        <time>2019-05-12T01:24:28Z</time>
      </trkpt>
      <trkpt lat="36.7582130432129" lon="-5.19073009490967">
        <ele>513</ele>
        <time>2019-05-12T01:24:30Z</time>
      </trkpt>
      <trkpt lat="36.7582168579102" lon="-5.19073295593262">
        <ele>513</ele>
        <time>2019-05-12T01:24:32Z</time>
      </trkpt>
      <trkpt lat="36.7582206726074" lon="-5.19073009490967">
        <ele>512</ele>
        <time>2019-05-12T01:24:34Z</time>
      </trkpt>
      <trkpt lat="36.7582244873047" lon="-5.1907229423523">
        <ele>512</ele>
        <time>2019-05-12T01:24:36Z</time>
      </trkpt>
      <trkpt lat="36.758228302002" lon="-5.19072198867798">
        <ele>511</ele>
        <time>2019-05-12T01:24:38Z</time>
      </trkpt>
      <trkpt lat="36.7582321166992" lon="-5.19072008132935">
        <ele>510</ele>
        <time>2019-05-12T01:24:40Z</time>
      </trkpt>
      <trkpt lat="36.7582321166992" lon="-5.19072198867798">
        <ele>510</ele>
        <time>2019-05-12T01:24:42Z</time>
      </trkpt>
      <trkpt lat="36.7582321166992" lon="-5.19072198867798">
        <ele>510</ele>
        <time>2019-05-12T01:24:44Z</time>
      </trkpt>
      <trkpt lat="36.7582397460938" lon="-5.19071817398071">
        <ele>510</ele>
        <time>2019-05-12T01:24:46Z</time>
      </trkpt>
      <trkpt lat="36.7582473754883" lon="-5.19071483612061">
        <ele>510</ele>
        <time>2019-05-12T01:24:48Z</time>
      </trkpt>
      <trkpt lat="36.7582550048828" lon="-5.19071483612061">
        <ele>510</ele>
        <time>2019-05-12T01:24:50Z</time>
      </trkpt>
      <trkpt lat="36.7582588195801" lon="-5.19071197509766">
        <ele>510</ele>
        <time>2019-05-12T01:24:52Z</time>
      </trkpt>
      <trkpt lat="36.7582664489746" lon="-5.19071006774902">
        <ele>510</ele>
        <time>2019-05-12T01:24:54Z</time>
      </trkpt>
      <trkpt lat="36.7582664489746" lon="-5.19070720672607">
        <ele>510</ele>
        <time>2019-05-12T01:24:56Z</time>
      </trkpt>
      <trkpt lat="36.7582702636719" lon="-5.19070196151733">
        <ele>510</ele>
        <time>2019-05-12T01:24:58Z</time>
      </trkpt>
      <trkpt lat="36.7582740783691" lon="-5.19070291519165">
        <ele>510</ele>
        <time>2019-05-12T01:25:00Z</time>
      </trkpt>
      <trkpt lat="36.7582740783691" lon="-5.1907000541687">
        <ele>510</ele>
        <time>2019-05-12T01:25:02Z</time>
      </trkpt>
      <trkpt lat="36.7582740783691" lon="-5.19070196151733">
        <ele>510</ele>
        <time>2019-05-12T01:25:04Z</time>
      </trkpt>
      <trkpt lat="36.7582778930664" lon="-5.19069290161133">
        <ele>510</ele>
        <time>2019-05-12T01:25:06Z</time>
      </trkpt>
      <trkpt lat="36.7582817077637" lon="-5.19069004058838">
        <ele>510</ele>
        <time>2019-05-12T01:25:08Z</time>
      </trkpt>
      <trkpt lat="36.7582817077637" lon="-5.19069004058838">
        <ele>510</ele>
        <time>2019-05-12T01:25:10Z</time>
      </trkpt>
      <trkpt lat="36.7582855224609" lon="-5.19068717956543">
        <ele>510</ele>
        <time>2019-05-12T01:25:12Z</time>
      </trkpt>
      <trkpt lat="36.7582893371582" lon="-5.19068193435669">
        <ele>510</ele>
        <time>2019-05-12T01:25:14Z</time>
      </trkpt>
      <trkpt lat="36.7582931518555" lon="-5.19067811965942">
        <ele>510</ele>
        <time>2019-05-12T01:25:16Z</time>
      </trkpt>
      <trkpt lat="36.7583045959473" lon="-5.19067287445068">
        <ele>510</ele>
        <time>2019-05-12T01:25:18Z</time>
      </trkpt>
      <trkpt lat="36.7583045959473" lon="-5.19067287445068">
        <ele>510</ele>
        <time>2019-05-12T01:25:20Z</time>
      </trkpt>
      <trkpt lat="36.7583045959473" lon="-5.19066476821899">
        <ele>510</ele>
        <time>2019-05-12T01:25:22Z</time>
      </trkpt>
      <trkpt lat="36.7583045959473" lon="-5.19065523147583">
        <ele>510</ele>
        <time>2019-05-12T01:25:24Z</time>
      </trkpt>
      <trkpt lat="36.7583045959473" lon="-5.19064283370972">
        <ele>510</ele>
        <time>2019-05-12T01:25:26Z</time>
      </trkpt>
      <trkpt lat="36.7583045959473" lon="-5.19063186645508">
        <ele>510</ele>
        <time>2019-05-12T01:25:28Z</time>
      </trkpt>
      <trkpt lat="36.7583084106445" lon="-5.1906270980835">
        <ele>510</ele>
        <time>2019-05-12T01:25:30Z</time>
      </trkpt>
      <trkpt lat="36.7583084106445" lon="-5.19061803817749">
        <ele>510</ele>
        <time>2019-05-12T01:25:32Z</time>
      </trkpt>
      <trkpt lat="36.7583122253418" lon="-5.19061517715454">
        <ele>510</ele>
        <time>2019-05-12T01:25:34Z</time>
      </trkpt>
      <trkpt lat="36.7583160400391" lon="-5.19060516357422">
        <ele>510</ele>
        <time>2019-05-12T01:25:36Z</time>
      </trkpt>
      <trkpt lat="36.7583198547363" lon="-5.19059991836548">
        <ele>510</ele>
        <time>2019-05-12T01:25:38Z</time>
      </trkpt>
      <trkpt lat="36.7583236694336" lon="-5.1905951499939">
        <ele>511</ele>
        <time>2019-05-12T01:25:40Z</time>
      </trkpt>
      <trkpt lat="36.7583236694336" lon="-5.19058799743652">
        <ele>511</ele>
        <time>2019-05-12T01:25:42Z</time>
      </trkpt>
      <trkpt lat="36.7583274841309" lon="-5.19058322906494">
        <ele>512</ele>
        <time>2019-05-12T01:25:44Z</time>
      </trkpt>
      <trkpt lat="36.7583312988281" lon="-5.19057512283325">
        <ele>512</ele>
        <time>2019-05-12T01:25:46Z</time>
      </trkpt>
      <trkpt lat="36.7583312988281" lon="-5.19057321548462">
        <ele>512</ele>
        <time>2019-05-12T01:25:48Z</time>
      </trkpt>
      <trkpt lat="36.7583389282227" lon="-5.19056987762451">
        <ele>512</ele>
        <time>2019-05-12T01:25:50Z</time>
      </trkpt>
      <trkpt lat="36.7583427429199" lon="-5.19056797027588">
        <ele>512</ele>
        <time>2019-05-12T01:25:52Z</time>
      </trkpt>
      <trkpt lat="36.7583503723144" lon="-5.19056701660156">
        <ele>512</ele>
        <time>2019-05-12T01:25:54Z</time>
      </trkpt>
      <trkpt lat="36.7583541870117" lon="-5.19056797027588">
        <ele>512</ele>
        <time>2019-05-12T01:25:56Z</time>
      </trkpt>
      <trkpt lat="36.7583541870117" lon="-5.19056797027588">
        <ele>512</ele>
        <time>2019-05-12T01:25:58Z</time>
      </trkpt>
      <trkpt lat="36.7583618164062" lon="-5.19056987762451">
        <ele>512</ele>
        <time>2019-05-12T01:26:00Z</time>
      </trkpt>
      <trkpt lat="36.7583656311035" lon="-5.19056987762451">
        <ele>512</ele>
        <time>2019-05-12T01:26:02Z</time>
      </trkpt>
      <trkpt lat="36.7583694458008" lon="-5.19056987762451">
        <ele>512</ele>
        <time>2019-05-12T01:26:04Z</time>
      </trkpt>
      <trkpt lat="36.758373260498" lon="-5.19056701660156">
        <ele>512</ele>
        <time>2019-05-12T01:26:06Z</time>
      </trkpt>
      <trkpt lat="36.7583770751953" lon="-5.19056987762451">
        <ele>512</ele>
        <time>2019-05-12T01:26:08Z</time>
      </trkpt>
      <trkpt lat="36.7583847045898" lon="-5.19057178497314">
        <ele>512</ele>
        <time>2019-05-12T01:26:10Z</time>
      </trkpt>
      <trkpt lat="36.7583847045898" lon="-5.19057512283325">
        <ele>512</ele>
        <time>2019-05-12T01:26:12Z</time>
      </trkpt>
      <trkpt lat="36.7583885192871" lon="-5.19057512283325">
        <ele>512</ele>
        <time>2019-05-12T01:26:14Z</time>
      </trkpt>
      <trkpt lat="36.7583923339844" lon="-5.19057512283325">
        <ele>512</ele>
        <time>2019-05-12T01:26:16Z</time>
      </trkpt>
      <trkpt lat="36.7583961486816" lon="-5.19057703018188">
        <ele>512</ele>
        <time>2019-05-12T01:26:18Z</time>
      </trkpt>
      <trkpt lat="36.7584037780762" lon="-5.19057703018188">
        <ele>512</ele>
        <time>2019-05-12T01:26:20Z</time>
      </trkpt>
      <trkpt lat="36.7584075927734" lon="-5.1905779838562">
        <ele>512</ele>
        <time>2019-05-12T01:26:22Z</time>
      </trkpt>
      <trkpt lat="36.758415222168" lon="-5.19058179855347">
        <ele>512</ele>
        <time>2019-05-12T01:26:24Z</time>
      </trkpt>
      <trkpt lat="36.7584228515625" lon="-5.19058322906494">
        <ele>512</ele>
        <time>2019-05-12T01:26:26Z</time>
      </trkpt>
      <trkpt lat="36.758430480957" lon="-5.19058513641357">
        <ele>512</ele>
        <time>2019-05-12T01:26:28Z</time>
      </trkpt>
      <trkpt lat="36.7584381103516" lon="-5.19058990478516">
        <ele>512</ele>
        <time>2019-05-12T01:26:30Z</time>
      </trkpt>
      <trkpt lat="36.7584381103516" lon="-5.19059705734253">
        <ele>512</ele>
        <time>2019-05-12T01:26:32Z</time>
      </trkpt>
      <trkpt lat="36.7584419250488" lon="-5.19060182571411">
        <ele>512</ele>
        <time>2019-05-12T01:26:34Z</time>
      </trkpt>
      <trkpt lat="36.7584457397461" lon="-5.19060707092285">
        <ele>512</ele>
        <time>2019-05-12T01:26:36Z</time>
      </trkpt>
      <trkpt lat="36.7584571838379" lon="-5.19061279296875">
        <ele>512</ele>
        <time>2019-05-12T01:26:39Z</time>
      </trkpt>
      <trkpt lat="36.7584609985352" lon="-5.19061994552612">
        <ele>514</ele>
        <time>2019-05-12T01:26:41Z</time>
      </trkpt>
      <trkpt lat="36.7584609985352" lon="-5.1906270980835">
        <ele>516</ele>
        <time>2019-05-12T01:26:43Z</time>
      </trkpt>
      <trkpt lat="36.7584686279297" lon="-5.19063520431519">
        <ele>517</ele>
        <time>2019-05-12T01:26:45Z</time>
      </trkpt>
      <trkpt lat="36.758472442627" lon="-5.19063997268677">
        <ele>518</ele>
        <time>2019-05-12T01:26:47Z</time>
      </trkpt>
      <trkpt lat="36.7584762573242" lon="-5.19064807891846">
        <ele>519</ele>
        <time>2019-05-12T01:26:49Z</time>
      </trkpt>
      <trkpt lat="36.7584800720215" lon="-5.19065523147583">
        <ele>520</ele>
        <time>2019-05-12T01:26:51Z</time>
      </trkpt>
      <trkpt lat="36.7584838867188" lon="-5.19066190719604">
        <ele>522</ele>
        <time>2019-05-12T01:26:53Z</time>
      </trkpt>
      <trkpt lat="36.7584838867188" lon="-5.1906681060791">
        <ele>522</ele>
        <time>2019-05-12T01:26:55Z</time>
      </trkpt>
      <trkpt lat="36.7584838867188" lon="-5.19067478179932">
        <ele>523</ele>
        <time>2019-05-12T01:26:57Z</time>
      </trkpt>
      <trkpt lat="36.7584838867188" lon="-5.19068002700806">
        <ele>523</ele>
        <time>2019-05-12T01:26:59Z</time>
      </trkpt>
      <trkpt lat="36.7584800720215" lon="-5.19068479537964">
        <ele>523</ele>
        <time>2019-05-12T01:27:01Z</time>
      </trkpt>
      <trkpt lat="36.7584762573242" lon="-5.19069290161133">
        <ele>524</ele>
        <time>2019-05-12T01:27:03Z</time>
      </trkpt>
      <trkpt lat="36.7584800720215" lon="-5.19069719314575">
        <ele>524</ele>
        <time>2019-05-12T01:27:05Z</time>
      </trkpt>
      <trkpt lat="36.7584838867188" lon="-5.1907000541687">
        <ele>524</ele>
        <time>2019-05-12T01:27:07Z</time>
      </trkpt>
      <trkpt lat="36.7584800720215" lon="-5.19070482254028">
        <ele>524</ele>
        <time>2019-05-12T01:27:09Z</time>
      </trkpt>
      <trkpt lat="36.7584838867188" lon="-5.19070482254028">
        <ele>524</ele>
        <time>2019-05-12T01:27:11Z</time>
      </trkpt>
      <trkpt lat="36.7584762573242" lon="-5.19070720672607">
        <ele>524</ele>
        <time>2019-05-12T01:27:13Z</time>
      </trkpt>
      <trkpt lat="36.7584800720215" lon="-5.19071006774902">
        <ele>524</ele>
        <time>2019-05-12T01:27:15Z</time>
      </trkpt>
      <trkpt lat="36.7584800720215" lon="-5.1907172203064">
        <ele>524</ele>
        <time>2019-05-12T01:27:17Z</time>
      </trkpt>
      <trkpt lat="36.7584838867188" lon="-5.1907172203064">
        <ele>524</ele>
        <time>2019-05-12T01:27:19Z</time>
      </trkpt>
      <trkpt lat="36.758487701416" lon="-5.19071817398071">
        <ele>524</ele>
        <time>2019-05-12T01:27:21Z</time>
      </trkpt>
      <trkpt lat="36.758487701416" lon="-5.1907172203064">
        <ele>524</ele>
        <time>2019-05-12T01:27:23Z</time>
      </trkpt>
      <trkpt lat="36.758487701416" lon="-5.19071483612061">
        <ele>524</ele>
        <time>2019-05-12T01:27:25Z</time>
      </trkpt>
      <trkpt lat="36.7584915161133" lon="-5.19071817398071">
        <ele>524</ele>
        <time>2019-05-12T01:27:27Z</time>
      </trkpt>
      <trkpt lat="36.7584838867188" lon="-5.19071197509766">
        <ele>524</ele>
        <time>2019-05-12T01:27:29Z</time>
      </trkpt>
      <trkpt lat="36.758472442627" lon="-5.19071483612061">
        <ele>524</ele>
        <time>2019-05-12T01:27:31Z</time>
      </trkpt>
      <trkpt lat="36.7584686279297" lon="-5.1907172203064">
        <ele>524</ele>
        <time>2019-05-12T01:27:33Z</time>
      </trkpt>
      <trkpt lat="36.7584686279297" lon="-5.19071483612061">
        <ele>524</ele>
        <time>2019-05-12T01:27:35Z</time>
      </trkpt>
      <trkpt lat="36.758472442627" lon="-5.19071197509766">
        <ele>524</ele>
        <time>2019-05-12T01:27:37Z</time>
      </trkpt>
      <trkpt lat="36.758472442627" lon="-5.19071292877197">
        <ele>524</ele>
        <time>2019-05-12T01:27:39Z</time>
      </trkpt>
      <trkpt lat="36.7584686279297" lon="-5.19071292877197">
        <ele>524</ele>
        <time>2019-05-12T01:27:41Z</time>
      </trkpt>
      <trkpt lat="36.7584686279297" lon="-5.19071006774902">
        <ele>524</ele>
        <time>2019-05-12T01:27:43Z</time>
      </trkpt>
      <trkpt lat="36.7584609985352" lon="-5.19071006774902">
        <ele>524</ele>
        <time>2019-05-12T01:27:45Z</time>
      </trkpt>
      <trkpt lat="36.7584571838379" lon="-5.19070720672607">
        <ele>524</ele>
        <time>2019-05-12T01:27:47Z</time>
      </trkpt>
      <trkpt lat="36.7584609985352" lon="-5.19070482254028">
        <ele>524</ele>
        <time>2019-05-12T01:27:49Z</time>
      </trkpt>
      <trkpt lat="36.7584609985352" lon="-5.19070196151733">
        <ele>524</ele>
        <time>2019-05-12T01:27:51Z</time>
      </trkpt>
      <trkpt lat="36.7584609985352" lon="-5.19070196151733">
        <ele>524</ele>
        <time>2019-05-12T01:27:53Z</time>
      </trkpt>
      <trkpt lat="36.7584686279297" lon="-5.19069480895996">
        <ele>524</ele>
        <time>2019-05-12T01:27:55Z</time>
      </trkpt>
      <trkpt lat="36.758472442627" lon="-5.19069004058838">
        <ele>524</ele>
        <time>2019-05-12T01:27:57Z</time>
      </trkpt>
      <trkpt lat="36.7584762573242" lon="-5.19068813323975">
        <ele>524</ele>
        <time>2019-05-12T01:27:59Z</time>
      </trkpt>
      <trkpt lat="36.7584838867188" lon="-5.19068479537964">
        <ele>524</ele>
        <time>2019-05-12T01:28:01Z</time>
      </trkpt>
      <trkpt lat="36.7584838867188" lon="-5.19068288803101">
        <ele>524</ele>
        <time>2019-05-12T01:28:03Z</time>
      </trkpt>
      <trkpt lat="36.758487701416" lon="-5.19067811965942">
        <ele>524</ele>
        <time>2019-05-12T01:28:05Z</time>
      </trkpt>
      <trkpt lat="36.7584915161133" lon="-5.19067478179932">
        <ele>524</ele>
        <time>2019-05-12T01:28:07Z</time>
      </trkpt>
      <trkpt lat="36.7584991455078" lon="-5.19066715240478">
        <ele>524</ele>
        <time>2019-05-12T01:28:09Z</time>
      </trkpt>
      <trkpt lat="36.7585029602051" lon="-5.19065809249878">
        <ele>524</ele>
        <time>2019-05-12T01:28:11Z</time>
      </trkpt>
      <trkpt lat="36.7585067749023" lon="-5.19065523147583">
        <ele>524</ele>
        <time>2019-05-12T01:28:13Z</time>
      </trkpt>
      <trkpt lat="36.7585067749023" lon="-5.19066190719604">
        <ele>524</ele>
        <time>2019-05-12T01:28:15Z</time>
      </trkpt>
      <trkpt lat="36.7585105895996" lon="-5.19066190719604">
        <ele>524</ele>
        <time>2019-05-12T01:28:17Z</time>
      </trkpt>
      <trkpt lat="36.7585105895996" lon="-5.1906681060791">
        <ele>524</ele>
        <time>2019-05-12T01:28:19Z</time>
      </trkpt>
      <trkpt lat="36.7585144042969" lon="-5.19067192077637">
        <ele>524</ele>
        <time>2019-05-12T01:28:21Z</time>
      </trkpt>
      <trkpt lat="36.7585105895996" lon="-5.19067287445068">
        <ele>524</ele>
        <time>2019-05-12T01:28:23Z</time>
      </trkpt>
      <trkpt lat="36.7585105895996" lon="-5.19067478179932">
        <ele>524</ele>
        <time>2019-05-12T01:28:25Z</time>
      </trkpt>
      <trkpt lat="36.7585105895996" lon="-5.19067811965942">
        <ele>524</ele>
        <time>2019-05-12T01:28:27Z</time>
      </trkpt>
      <trkpt lat="36.7585144042969" lon="-5.19068002700806">
        <ele>524</ele>
        <time>2019-05-12T01:28:29Z</time>
      </trkpt>
      <trkpt lat="36.7585144042969" lon="-5.19068002700806">
        <ele>524</ele>
        <time>2019-05-12T01:28:31Z</time>
      </trkpt>
      <trkpt lat="36.7585105895996" lon="-5.19068002700806">
        <ele>524</ele>
        <time>2019-05-12T01:28:33Z</time>
      </trkpt>
      <trkpt lat="36.7585105895996" lon="-5.19068288803101">
        <ele>524</ele>
        <time>2019-05-12T01:28:35Z</time>
      </trkpt>
      <trkpt lat="36.7585067749023" lon="-5.19068717956543">
        <ele>524</ele>
        <time>2019-05-12T01:28:37Z</time>
      </trkpt>
      <trkpt lat="36.7585067749023" lon="-5.19068813323975">
        <ele>524</ele>
        <time>2019-05-12T01:28:39Z</time>
      </trkpt>
      <trkpt lat="36.7585067749023" lon="-5.19068479537964">
        <ele>524</ele>
        <time>2019-05-12T01:28:41Z</time>
      </trkpt>
      <trkpt lat="36.7585067749023" lon="-5.19068193435669">
        <ele>523</ele>
        <time>2019-05-12T01:28:43Z</time>
      </trkpt>
      <trkpt lat="36.7585029602051" lon="-5.19068717956543">
        <ele>522</ele>
        <time>2019-05-12T01:28:45Z</time>
      </trkpt>
      <trkpt lat="36.7585029602051" lon="-5.19068193435669">
        <ele>521</ele>
        <time>2019-05-12T01:28:47Z</time>
      </trkpt>
      <trkpt lat="36.7585105895996" lon="-5.19067716598511">
        <ele>520</ele>
        <time>2019-05-12T01:28:49Z</time>
      </trkpt>
      <trkpt lat="36.7585220336914" lon="-5.19067811965942">
        <ele>519</ele>
        <time>2019-05-12T01:28:51Z</time>
      </trkpt>
      <trkpt lat="36.7585258483887" lon="-5.19067287445068">
        <ele>519</ele>
        <time>2019-05-12T01:28:53Z</time>
      </trkpt>
      <trkpt lat="36.7585258483887" lon="-5.19067001342773">
        <ele>519</ele>
        <time>2019-05-12T01:28:55Z</time>
      </trkpt>
      <trkpt lat="36.7585182189941" lon="-5.19066286087036">
        <ele>519</ele>
        <time>2019-05-12T01:28:57Z</time>
      </trkpt>
      <trkpt lat="36.7585182189941" lon="-5.19065999984741">
        <ele>519</ele>
        <time>2019-05-12T01:28:59Z</time>
      </trkpt>
      <trkpt lat="36.7585220336914" lon="-5.19065809249878">
        <ele>519</ele>
        <time>2019-05-12T01:29:01Z</time>
      </trkpt>
      <trkpt lat="36.7585182189941" lon="-5.19065189361572">
        <ele>519</ele>
        <time>2019-05-12T01:29:03Z</time>
      </trkpt>
      <trkpt lat="36.7585105895996" lon="-5.19064521789551">
        <ele>519</ele>
        <time>2019-05-12T01:29:05Z</time>
      </trkpt>
      <trkpt lat="36.7585067749023" lon="-5.19064521789551">
        <ele>519</ele>
        <time>2019-05-12T01:29:07Z</time>
      </trkpt>
      <trkpt lat="36.7585029602051" lon="-5.19064283370972">
        <ele>519</ele>
        <time>2019-05-12T01:29:09Z</time>
      </trkpt>
      <trkpt lat="36.7585067749023" lon="-5.19063997268677">
        <ele>519</ele>
        <time>2019-05-12T01:29:11Z</time>
      </trkpt>
      <trkpt lat="36.7585067749023" lon="-5.19063711166382">
        <ele>519</ele>
        <time>2019-05-12T01:29:13Z</time>
      </trkpt>
      <trkpt lat="36.7584991455078" lon="-5.19063282012939">
        <ele>519</ele>
        <time>2019-05-12T01:29:15Z</time>
      </trkpt>
      <trkpt lat="36.7584915161133" lon="-5.1906270980835">
        <ele>518</ele>
        <time>2019-05-12T01:29:18Z</time>
      </trkpt>
      <trkpt lat="36.7584800720215" lon="-5.19062519073486">
        <ele>518</ele>
        <time>2019-05-12T01:29:20Z</time>
      </trkpt>
      <trkpt lat="36.7584762573242" lon="-5.19062185287476">
        <ele>517</ele>
        <time>2019-05-12T01:29:22Z</time>
      </trkpt>
      <trkpt lat="36.7584686279297" lon="-5.19062185287476">
        <ele>516</ele>
        <time>2019-05-12T01:29:24Z</time>
      </trkpt>
      <trkpt lat="36.7584648132324" lon="-5.19061994552612">
        <ele>515</ele>
        <time>2019-05-12T01:29:26Z</time>
      </trkpt>
      <trkpt lat="36.7584648132324" lon="-5.19061803817749">
        <ele>515</ele>
        <time>2019-05-12T01:29:28Z</time>
      </trkpt>
      <trkpt lat="36.7584609985352" lon="-5.19061803817749">
        <ele>514</ele>
        <time>2019-05-12T01:29:30Z</time>
      </trkpt>
      <trkpt lat="36.7584648132324" lon="-5.19061279296875">
        <ele>514</ele>
        <time>2019-05-12T01:29:32Z</time>
      </trkpt>
      <trkpt lat="36.7584686279297" lon="-5.19060802459717">
        <ele>513</ele>
        <time>2019-05-12T01:29:34Z</time>
      </trkpt>
      <trkpt lat="36.758472442627" lon="-5.19060707092285">
        <ele>512</ele>
        <time>2019-05-12T01:29:36Z</time>
      </trkpt>
      <trkpt lat="36.7584762573242" lon="-5.19060277938843">
        <ele>512</ele>
        <time>2019-05-12T01:29:38Z</time>
      </trkpt>
      <trkpt lat="36.7584762573242" lon="-5.19059801101685">
        <ele>510</ele>
        <time>2019-05-12T01:29:40Z</time>
      </trkpt>
      <trkpt lat="36.7584686279297" lon="-5.19059705734253">
        <ele>510</ele>
        <time>2019-05-12T01:29:42Z</time>
      </trkpt>
      <trkpt lat="36.7584648132324" lon="-5.19059276580811">
        <ele>508</ele>
        <time>2019-05-12T01:29:46Z</time>
      </trkpt>
      <trkpt lat="36.7584648132324" lon="-5.19059181213379">
        <ele>508</ele>
        <time>2019-05-12T01:29:48Z</time>
      </trkpt>
      <trkpt lat="36.7584648132324" lon="-5.19058990478516">
        <ele>508</ele>
        <time>2019-05-12T01:29:50Z</time>
      </trkpt>
      <trkpt lat="36.7584648132324" lon="-5.19058799743652">
        <ele>508</ele>
        <time>2019-05-12T01:29:52Z</time>
      </trkpt>
      <trkpt lat="36.7584609985352" lon="-5.19058990478516">
        <ele>508</ele>
        <time>2019-05-12T01:29:54Z</time>
      </trkpt>
      <trkpt lat="36.7584609985352" lon="-5.19058990478516">
        <ele>508</ele>
        <time>2019-05-12T01:29:56Z</time>
      </trkpt>
      <trkpt lat="36.7584571838379" lon="-5.19058799743652">
        <ele>508</ele>
        <time>2019-05-12T01:29:58Z</time>
      </trkpt>
      <trkpt lat="36.7584571838379" lon="-5.19058799743652">
        <ele>508</ele>
        <time>2019-05-12T01:30:00Z</time>
      </trkpt>
      <trkpt lat="36.7584571838379" lon="-5.19058990478516">
        <ele>508</ele>
        <time>2019-05-12T01:30:02Z</time>
      </trkpt>
      <trkpt lat="36.7584571838379" lon="-5.19058990478516">
        <ele>508</ele>
        <time>2019-05-12T01:30:04Z</time>
      </trkpt>
      <trkpt lat="36.7584571838379" lon="-5.19059181213379">
        <ele>508</ele>
        <time>2019-05-12T01:30:06Z</time>
      </trkpt>
      <trkpt lat="36.7584609985352" lon="-5.19059276580811">
        <ele>508</ele>
        <time>2019-05-12T01:30:08Z</time>
      </trkpt>
      <trkpt lat="36.7584609985352" lon="-5.19059705734253">
        <ele>508</ele>
        <time>2019-05-12T01:30:10Z</time>
      </trkpt>
      <trkpt lat="36.7584609985352" lon="-5.19059705734253">
        <ele>508</ele>
        <time>2019-05-12T01:30:12Z</time>
      </trkpt>
      <trkpt lat="36.7584609985352" lon="-5.1905951499939">
        <ele>508</ele>
        <time>2019-05-12T01:30:14Z</time>
      </trkpt>
      <trkpt lat="36.7584648132324" lon="-5.19059181213379">
        <ele>508</ele>
        <time>2019-05-12T01:30:16Z</time>
      </trkpt>
      <trkpt lat="36.7584648132324" lon="-5.19059181213379">
        <ele>508</ele>
        <time>2019-05-12T01:30:18Z</time>
      </trkpt>
      <trkpt lat="36.7584648132324" lon="-5.19059181213379">
        <ele>508</ele>
        <time>2019-05-12T01:30:20Z</time>
      </trkpt>
      <trkpt lat="36.7584648132324" lon="-5.19058990478516">
        <ele>508</ele>
        <time>2019-05-12T01:30:22Z</time>
      </trkpt>
      <trkpt lat="36.7584648132324" lon="-5.19058990478516">
        <ele>508</ele>
        <time>2019-05-12T01:30:24Z</time>
      </trkpt>
      <trkpt lat="36.7584648132324" lon="-5.1905951499939">
        <ele>509</ele>
        <time>2019-05-12T01:30:26Z</time>
      </trkpt>
      <trkpt lat="36.7584648132324" lon="-5.1905951499939">
        <ele>509</ele>
        <time>2019-05-12T01:30:28Z</time>
      </trkpt>
      <trkpt lat="36.7584686279297" lon="-5.1905951499939">
        <ele>509</ele>
        <time>2019-05-12T01:30:42Z</time>
      </trkpt>
      <trkpt lat="36.758472442627" lon="-5.19059181213379">
        <ele>509</ele>
        <time>2019-05-12T01:30:44Z</time>
      </trkpt>
      <trkpt lat="36.7584762573242" lon="-5.19058704376221">
        <ele>509</ele>
        <time>2019-05-12T01:30:46Z</time>
      </trkpt>
      <trkpt lat="36.7584762573242" lon="-5.19058799743652">
        <ele>509</ele>
        <time>2019-05-12T01:30:48Z</time>
      </trkpt>
      <trkpt lat="36.7584800720215" lon="-5.19058799743652">
        <ele>509</ele>
        <time>2019-05-12T01:30:50Z</time>
      </trkpt>
      <trkpt lat="36.7584838867188" lon="-5.19057989120483">
        <ele>509</ele>
        <time>2019-05-12T01:30:52Z</time>
      </trkpt>
      <trkpt lat="36.7584915161133" lon="-5.19057512283325">
        <ele>510</ele>
        <time>2019-05-12T01:30:54Z</time>
      </trkpt>
      <trkpt lat="36.7584953308106" lon="-5.19057178497314">
        <ele>510</ele>
        <time>2019-05-12T01:30:56Z</time>
      </trkpt>
      <trkpt lat="36.7585067749023" lon="-5.19057321548462">
        <ele>510</ele>
        <time>2019-05-12T01:30:58Z</time>
      </trkpt>
      <trkpt lat="36.7585105895996" lon="-5.19056797027588">
        <ele>510</ele>
        <time>2019-05-12T01:31:00Z</time>
      </trkpt>
      <trkpt lat="36.7585220336914" lon="-5.19056510925293">
        <ele>511</ele>
        <time>2019-05-12T01:31:02Z</time>
      </trkpt>
      <trkpt lat="36.7585334777832" lon="-5.19056510925293">
        <ele>513</ele>
        <time>2019-05-12T01:31:04Z</time>
      </trkpt>
      <trkpt lat="36.7585411071777" lon="-5.1905632019043">
        <ele>515</ele>
        <time>2019-05-12T01:31:06Z</time>
      </trkpt>
      <trkpt lat="36.7585563659668" lon="-5.1905632019043">
        <ele>517</ele>
        <time>2019-05-12T01:31:08Z</time>
      </trkpt>
      <trkpt lat="36.7585639953613" lon="-5.19056177139282">
        <ele>519</ele>
        <time>2019-05-12T01:31:10Z</time>
      </trkpt>
      <trkpt lat="36.7585754394531" lon="-5.1905632019043">
        <ele>520</ele>
        <time>2019-05-12T01:31:12Z</time>
      </trkpt>
      <trkpt lat="36.7585792541504" lon="-5.19055986404419">
        <ele>522</ele>
        <time>2019-05-12T01:31:14Z</time>
      </trkpt>
      <trkpt lat="36.7585792541504" lon="-5.19056510925293">
        <ele>523</ele>
        <time>2019-05-12T01:31:20Z</time>
      </trkpt>
      <trkpt lat="36.7585830688477" lon="-5.19056797027588">
        <ele>523</ele>
        <time>2019-05-12T01:31:22Z</time>
      </trkpt>
      <trkpt lat="36.7585792541504" lon="-5.19057178497314">
        <ele>523</ele>
        <time>2019-05-12T01:31:24Z</time>
      </trkpt>
      <trkpt lat="36.7585754394531" lon="-5.19057512283325">
        <ele>523</ele>
        <time>2019-05-12T01:31:26Z</time>
      </trkpt>
      <trkpt lat="36.7585639953613" lon="-5.19057321548462">
        <ele>523</ele>
        <time>2019-05-12T01:31:28Z</time>
      </trkpt>
      <trkpt lat="36.7585525512695" lon="-5.19057178497314">
        <ele>523</ele>
        <time>2019-05-12T01:31:30Z</time>
      </trkpt>
      <trkpt lat="36.7585487365723" lon="-5.19057512283325">
        <ele>523</ele>
        <time>2019-05-12T01:31:32Z</time>
      </trkpt>
      <trkpt lat="36.7585487365723" lon="-5.19057703018188">
        <ele>523</ele>
        <time>2019-05-12T01:31:34Z</time>
      </trkpt>
      <trkpt lat="36.758544921875" lon="-5.19058179855347">
        <ele>523</ele>
        <time>2019-05-12T01:31:36Z</time>
      </trkpt>
      <trkpt lat="36.7585411071777" lon="-5.1905779838562">
        <ele>523</ele>
        <time>2019-05-12T01:31:38Z</time>
      </trkpt>
      <trkpt lat="36.7585372924805" lon="-5.1905779838562">
        <ele>523</ele>
        <time>2019-05-12T01:31:40Z</time>
      </trkpt>
      <trkpt lat="36.7585334777832" lon="-5.1905779838562">
        <ele>523</ele>
        <time>2019-05-12T01:31:42Z</time>
      </trkpt>
      <trkpt lat="36.7585334777832" lon="-5.19058179855347">
        <ele>523</ele>
        <time>2019-05-12T01:31:44Z</time>
      </trkpt>
      <trkpt lat="36.7585258483887" lon="-5.19058513641357">
        <ele>523</ele>
        <time>2019-05-12T01:31:46Z</time>
      </trkpt>
      <trkpt lat="36.7585182189941" lon="-5.19059181213379">
        <ele>523</ele>
        <time>2019-05-12T01:31:48Z</time>
      </trkpt>
      <trkpt lat="36.7585105895996" lon="-5.1905951499939">
        <ele>523</ele>
        <time>2019-05-12T01:31:50Z</time>
      </trkpt>
      <trkpt lat="36.7585029602051" lon="-5.19060707092285">
        <ele>523</ele>
        <time>2019-05-12T01:31:52Z</time>
      </trkpt>
      <trkpt lat="36.7585067749023" lon="-5.19061183929443">
        <ele>524</ele>
        <time>2019-05-12T01:31:54Z</time>
      </trkpt>
      <trkpt lat="36.7585067749023" lon="-5.19061517715454">
        <ele>524</ele>
        <time>2019-05-12T01:31:56Z</time>
      </trkpt>
      <trkpt lat="36.7584953308106" lon="-5.19062185287476">
        <ele>524</ele>
        <time>2019-05-12T01:31:58Z</time>
      </trkpt>
      <trkpt lat="36.7584838867188" lon="-5.19062280654907">
        <ele>524</ele>
        <time>2019-05-12T01:32:00Z</time>
      </trkpt>
      <trkpt lat="36.7584762573242" lon="-5.19062519073486">
        <ele>524</ele>
        <time>2019-05-12T01:32:02Z</time>
      </trkpt>
      <trkpt lat="36.7584762573242" lon="-5.19062519073486">
        <ele>524</ele>
        <time>2019-05-12T01:32:04Z</time>
      </trkpt>
      <trkpt lat="36.7584686279297" lon="-5.19062805175781">
        <ele>524</ele>
        <time>2019-05-12T01:32:06Z</time>
      </trkpt>
      <trkpt lat="36.7584609985352" lon="-5.19062519073486">
        <ele>524</ele>
        <time>2019-05-12T01:32:08Z</time>
      </trkpt>
      <trkpt lat="36.7584533691406" lon="-5.19062185287476">
        <ele>524</ele>
        <time>2019-05-12T01:32:10Z</time>
      </trkpt>
      <trkpt lat="36.7584419250488" lon="-5.19061994552612">
        <ele>524</ele>
        <time>2019-05-12T01:32:12Z</time>
      </trkpt>
      <trkpt lat="36.7584381103516" lon="-5.19061803817749">
        <ele>523</ele>
        <time>2019-05-12T01:32:14Z</time>
      </trkpt>
      <trkpt lat="36.7584342956543" lon="-5.19061708450317">
        <ele>521</ele>
        <time>2019-05-12T01:32:16Z</time>
      </trkpt>
      <trkpt lat="36.7584342956543" lon="-5.19061517715454">
        <ele>519</ele>
        <time>2019-05-12T01:32:20Z</time>
      </trkpt>
      <trkpt lat="36.758430480957" lon="-5.19061279296875">
        <ele>518</ele>
        <time>2019-05-12T01:32:22Z</time>
      </trkpt>
      <trkpt lat="36.7584342956543" lon="-5.19061183929443">
        <ele>518</ele>
        <time>2019-05-12T01:32:24Z</time>
      </trkpt>
      <trkpt lat="36.7584342956543" lon="-5.19061183929443">
        <ele>518</ele>
        <time>2019-05-12T01:32:26Z</time>
      </trkpt>
      <trkpt lat="36.7584266662598" lon="-5.19061517715454">
        <ele>517</ele>
        <time>2019-05-12T01:32:28Z</time>
      </trkpt>
      <trkpt lat="36.7584266662598" lon="-5.19061517715454">
        <ele>517</ele>
        <time>2019-05-12T01:32:30Z</time>
      </trkpt>
      <trkpt lat="36.7584266662598" lon="-5.1906099319458">
        <ele>516</ele>
        <time>2019-05-12T01:32:34Z</time>
      </trkpt>
      <trkpt lat="36.7584228515625" lon="-5.19060802459717">
        <ele>516</ele>
        <time>2019-05-12T01:32:36Z</time>
      </trkpt>
      <trkpt lat="36.758415222168" lon="-5.19060707092285">
        <ele>515</ele>
        <time>2019-05-12T01:32:38Z</time>
      </trkpt>
      <trkpt lat="36.7584037780762" lon="-5.19060277938843">
        <ele>513</ele>
        <time>2019-05-12T01:32:40Z</time>
      </trkpt>
      <trkpt lat="36.7583961486816" lon="-5.19059991836548">
        <ele>512</ele>
        <time>2019-05-12T01:32:42Z</time>
      </trkpt>
      <trkpt lat="36.7583923339844" lon="-5.19059801101685">
        <ele>510</ele>
        <time>2019-05-12T01:32:44Z</time>
      </trkpt>
      <trkpt lat="36.7583885192871" lon="-5.1905951499939">
        <ele>509</ele>
        <time>2019-05-12T01:32:46Z</time>
      </trkpt>
      <trkpt lat="36.7583885192871" lon="-5.19059181213379">
        <ele>508</ele>
        <time>2019-05-12T01:32:48Z</time>
      </trkpt>
      <trkpt lat="36.7583808898926" lon="-5.19059181213379">
        <ele>508</ele>
        <time>2019-05-12T01:32:50Z</time>
      </trkpt>
      <trkpt lat="36.7583808898926" lon="-5.19058990478516">
        <ele>508</ele>
        <time>2019-05-12T01:32:52Z</time>
      </trkpt>
      <trkpt lat="36.7583847045898" lon="-5.19058799743652">
        <ele>508</ele>
        <time>2019-05-12T01:32:54Z</time>
      </trkpt>
      <trkpt lat="36.7583885192871" lon="-5.19058704376221">
        <ele>508</ele>
        <time>2019-05-12T01:32:56Z</time>
      </trkpt>
      <trkpt lat="36.7583885192871" lon="-5.19058704376221">
        <ele>508</ele>
        <time>2019-05-12T01:32:58Z</time>
      </trkpt>
      <trkpt lat="36.7583923339844" lon="-5.19058799743652">
        <ele>508</ele>
        <time>2019-05-12T01:33:00Z</time>
      </trkpt>
      <trkpt lat="36.7583961486816" lon="-5.19058990478516">
        <ele>508</ele>
        <time>2019-05-12T01:33:02Z</time>
      </trkpt>
      <trkpt lat="36.7583999633789" lon="-5.19058990478516">
        <ele>508</ele>
        <time>2019-05-12T01:33:04Z</time>
      </trkpt>
      <trkpt lat="36.7584037780762" lon="-5.19058990478516">
        <ele>508</ele>
        <time>2019-05-12T01:33:06Z</time>
      </trkpt>
      <trkpt lat="36.7584114074707" lon="-5.19058990478516">
        <ele>508</ele>
        <time>2019-05-12T01:33:08Z</time>
      </trkpt>
      <trkpt lat="36.7584190368652" lon="-5.19058799743652">
        <ele>509</ele>
        <time>2019-05-12T01:33:10Z</time>
      </trkpt>
      <trkpt lat="36.7584266662598" lon="-5.19058799743652">
        <ele>510</ele>
        <time>2019-05-12T01:33:12Z</time>
      </trkpt>
      <trkpt lat="36.7584266662598" lon="-5.19059276580811">
        <ele>511</ele>
        <time>2019-05-12T01:33:14Z</time>
      </trkpt>
      <trkpt lat="36.7584266662598" lon="-5.1905951499939">
        <ele>512</ele>
        <time>2019-05-12T01:33:18Z</time>
      </trkpt>
      <trkpt lat="36.758430480957" lon="-5.19059181213379">
        <ele>512</ele>
        <time>2019-05-12T01:33:20Z</time>
      </trkpt>
      <trkpt lat="36.7584381103516" lon="-5.19058322906494">
        <ele>512</ele>
        <time>2019-05-12T01:33:22Z</time>
      </trkpt>
      <trkpt lat="36.7584381103516" lon="-5.1905779838562">
        <ele>512</ele>
        <time>2019-05-12T01:33:24Z</time>
      </trkpt>
      <trkpt lat="36.7584457397461" lon="-5.19057703018188">
        <ele>512</ele>
        <time>2019-05-12T01:33:26Z</time>
      </trkpt>
      <trkpt lat="36.7584457397461" lon="-5.19057512283325">
        <ele>512</ele>
        <time>2019-05-12T01:33:28Z</time>
      </trkpt>
      <trkpt lat="36.7584457397461" lon="-5.19057321548462">
        <ele>512</ele>
        <time>2019-05-12T01:33:30Z</time>
      </trkpt>
      <trkpt lat="36.7584495544434" lon="-5.19057321548462">
        <ele>512</ele>
        <time>2019-05-12T01:33:32Z</time>
      </trkpt>
      <trkpt lat="36.7584457397461" lon="-5.19056987762451">
        <ele>512</ele>
        <time>2019-05-12T01:33:34Z</time>
      </trkpt>
      <trkpt lat="36.7584457397461" lon="-5.19056701660156">
        <ele>512</ele>
        <time>2019-05-12T01:33:36Z</time>
      </trkpt>
      <trkpt lat="36.7584495544434" lon="-5.19056701660156">
        <ele>512</ele>
        <time>2019-05-12T01:33:38Z</time>
      </trkpt>
      <trkpt lat="36.7584533691406" lon="-5.19056510925293">
        <ele>512</ele>
        <time>2019-05-12T01:33:40Z</time>
      </trkpt>
      <trkpt lat="36.7584533691406" lon="-5.19056510925293">
        <ele>512</ele>
        <time>2019-05-12T01:33:42Z</time>
      </trkpt>
      <trkpt lat="36.7584533691406" lon="-5.1905632019043">
        <ele>513</ele>
        <time>2019-05-12T01:33:44Z</time>
      </trkpt>
      <trkpt lat="36.7584533691406" lon="-5.19056177139282">
        <ele>514</ele>
        <time>2019-05-12T01:33:46Z</time>
      </trkpt>
      <trkpt lat="36.7584571838379" lon="-5.19055986404419">
        <ele>515</ele>
        <time>2019-05-12T01:33:48Z</time>
      </trkpt>
      <trkpt lat="36.7584648132324" lon="-5.19056177139282">
        <ele>516</ele>
        <time>2019-05-12T01:33:50Z</time>
      </trkpt>
      <trkpt lat="36.7584648132324" lon="-5.1905632019043">
        <ele>517</ele>
        <time>2019-05-12T01:33:52Z</time>
      </trkpt>
      <trkpt lat="36.7584686279297" lon="-5.19056701660156">
        <ele>518</ele>
        <time>2019-05-12T01:33:54Z</time>
      </trkpt>
      <trkpt lat="36.7584686279297" lon="-5.19056797027588">
        <ele>519</ele>
        <time>2019-05-12T01:33:56Z</time>
      </trkpt>
      <trkpt lat="36.7584686279297" lon="-5.19056987762451">
        <ele>519</ele>
        <time>2019-05-12T01:33:58Z</time>
      </trkpt>
      <trkpt lat="36.7584648132324" lon="-5.19057178497314">
        <ele>519</ele>
        <time>2019-05-12T01:34:00Z</time>
      </trkpt>
      <trkpt lat="36.7584686279297" lon="-5.19057512283325">
        <ele>519</ele>
        <time>2019-05-12T01:34:02Z</time>
      </trkpt>
      <trkpt lat="36.7584686279297" lon="-5.1905779838562">
        <ele>519</ele>
        <time>2019-05-12T01:34:05Z</time>
      </trkpt>
      <trkpt lat="36.7584686279297" lon="-5.19058179855347">
        <ele>519</ele>
        <time>2019-05-12T01:34:07Z</time>
      </trkpt>
      <trkpt lat="36.758472442627" lon="-5.19058513641357">
        <ele>519</ele>
        <time>2019-05-12T01:34:09Z</time>
      </trkpt>
      <trkpt lat="36.7584762573242" lon="-5.19058990478516">
        <ele>519</ele>
        <time>2019-05-12T01:34:13Z</time>
      </trkpt>
      <trkpt lat="36.7584762573242" lon="-5.19059276580811">
        <ele>519</ele>
        <time>2019-05-12T01:34:15Z</time>
      </trkpt>
      <trkpt lat="36.7584762573242" lon="-5.19059705734253">
        <ele>518</ele>
        <time>2019-05-12T01:34:17Z</time>
      </trkpt>
      <trkpt lat="36.7584762573242" lon="-5.19060182571411">
        <ele>517</ele>
        <time>2019-05-12T01:34:21Z</time>
      </trkpt>
      <trkpt lat="36.7584762573242" lon="-5.19060707092285">
        <ele>515</ele>
        <time>2019-05-12T01:34:25Z</time>
      </trkpt>
      <trkpt lat="36.7584800720215" lon="-5.19060516357422">
        <ele>515</ele>
        <time>2019-05-12T01:34:27Z</time>
      </trkpt>
      <trkpt lat="36.7584800720215" lon="-5.19060707092285">
        <ele>514</ele>
        <time>2019-05-12T01:34:29Z</time>
      </trkpt>
      <trkpt lat="36.7584762573242" lon="-5.19060802459717">
        <ele>514</ele>
        <time>2019-05-12T01:34:35Z</time>
      </trkpt>
      <trkpt lat="36.7584762573242" lon="-5.19060802459717">
        <ele>514</ele>
        <time>2019-05-12T01:34:37Z</time>
      </trkpt>
      <trkpt lat="36.7584762573242" lon="-5.19060802459717">
        <ele>514</ele>
        <time>2019-05-12T01:34:39Z</time>
      </trkpt>
      <trkpt lat="36.7584762573242" lon="-5.19060802459717">
        <ele>514</ele>
        <time>2019-05-12T01:34:41Z</time>
      </trkpt>
      <trkpt lat="36.7584762573242" lon="-5.19060802459717">
        <ele>514</ele>
        <time>2019-05-12T01:34:43Z</time>
      </trkpt>
      <trkpt lat="36.758472442627" lon="-5.19060277938843">
        <ele>514</ele>
        <time>2019-05-12T01:34:47Z</time>
      </trkpt>
      <trkpt lat="36.758472442627" lon="-5.19060802459717">
        <ele>514</ele>
        <time>2019-05-12T01:34:51Z</time>
      </trkpt>
      <trkpt lat="36.7584648132324" lon="-5.1906099319458">
        <ele>514</ele>
        <time>2019-05-12T01:34:53Z</time>
      </trkpt>
      <trkpt lat="36.7584571838379" lon="-5.19061183929443">
        <ele>514</ele>
        <time>2019-05-12T01:34:55Z</time>
      </trkpt>
      <trkpt lat="36.7584533691406" lon="-5.19061183929443">
        <ele>514</ele>
        <time>2019-05-12T01:34:57Z</time>
      </trkpt>
      <trkpt lat="36.7584495544434" lon="-5.1906099319458">
        <ele>514</ele>
        <time>2019-05-12T01:34:59Z</time>
      </trkpt>
      <trkpt lat="36.7584419250488" lon="-5.19061517715454">
        <ele>514</ele>
        <time>2019-05-12T01:35:01Z</time>
      </trkpt>
      <trkpt lat="36.7584266662598" lon="-5.19061803817749">
        <ele>513</ele>
        <time>2019-05-12T01:35:05Z</time>
      </trkpt>
      <trkpt lat="36.7584190368652" lon="-5.19061517715454">
        <ele>512</ele>
        <time>2019-05-12T01:35:07Z</time>
      </trkpt>
      <trkpt lat="36.7584114074707" lon="-5.19061708450317">
        <ele>512</ele>
        <time>2019-05-12T01:35:09Z</time>
      </trkpt>
      <trkpt lat="36.7584075927734" lon="-5.19061994552612">
        <ele>512</ele>
        <time>2019-05-12T01:35:11Z</time>
      </trkpt>
      <trkpt lat="36.7584037780762" lon="-5.19061994552612">
        <ele>512</ele>
        <time>2019-05-12T01:35:13Z</time>
      </trkpt>
      <trkpt lat="36.7584037780762" lon="-5.19062280654907">
        <ele>512</ele>
        <time>2019-05-12T01:35:15Z</time>
      </trkpt>
      <trkpt lat="36.7583961486816" lon="-5.19062280654907">
        <ele>512</ele>
        <time>2019-05-12T01:35:17Z</time>
      </trkpt>
      <trkpt lat="36.7583847045898" lon="-5.19062805175781">
        <ele>512</ele>
        <time>2019-05-12T01:35:19Z</time>
      </trkpt>
      <trkpt lat="36.7583770751953" lon="-5.19063282012939">
        <ele>512</ele>
        <time>2019-05-12T01:35:21Z</time>
      </trkpt>
      <trkpt lat="36.7583656311035" lon="-5.19064283370972">
        <ele>512</ele>
        <time>2019-05-12T01:35:23Z</time>
      </trkpt>
      <trkpt lat="36.758358001709" lon="-5.19064998626709">
        <ele>512</ele>
        <time>2019-05-12T01:35:25Z</time>
      </trkpt>
      <trkpt lat="36.7583541870117" lon="-5.19065523147583">
        <ele>512</ele>
        <time>2019-05-12T01:35:27Z</time>
      </trkpt>
      <trkpt lat="36.7583465576172" lon="-5.19065809249878">
        <ele>512</ele>
        <time>2019-05-12T01:35:29Z</time>
      </trkpt>
      <trkpt lat="36.7583389282227" lon="-5.19066476821899">
        <ele>512</ele>
        <time>2019-05-12T01:35:31Z</time>
      </trkpt>
      <trkpt lat="36.7583312988281" lon="-5.19067287445068">
        <ele>512</ele>
        <time>2019-05-12T01:35:33Z</time>
      </trkpt>
      <trkpt lat="36.7583198547363" lon="-5.19067811965942">
        <ele>512</ele>
        <time>2019-05-12T01:35:35Z</time>
      </trkpt>
      <trkpt lat="36.7583084106445" lon="-5.19068479537964">
        <ele>512</ele>
        <time>2019-05-12T01:35:37Z</time>
      </trkpt>
      <trkpt lat="36.75830078125" lon="-5.19069004058838">
        <ele>512</ele>
        <time>2019-05-12T01:35:39Z</time>
      </trkpt>
      <trkpt lat="36.7582931518555" lon="-5.19069004058838">
        <ele>512</ele>
        <time>2019-05-12T01:35:41Z</time>
      </trkpt>
      <trkpt lat="36.7582855224609" lon="-5.19069194793701">
        <ele>512</ele>
        <time>2019-05-12T01:35:43Z</time>
      </trkpt>
      <trkpt lat="36.7582817077637" lon="-5.19069194793701">
        <ele>512</ele>
        <time>2019-05-12T01:35:45Z</time>
      </trkpt>
      <trkpt lat="36.7582817077637" lon="-5.19069480895996">
        <ele>512</ele>
        <time>2019-05-12T01:35:47Z</time>
      </trkpt>
      <trkpt lat="36.7582817077637" lon="-5.19069719314575">
        <ele>512</ele>
        <time>2019-05-12T01:35:49Z</time>
      </trkpt>
      <trkpt lat="36.7582817077637" lon="-5.19068813323975">
        <ele>512</ele>
        <time>2019-05-12T01:35:53Z</time>
      </trkpt>
      <trkpt lat="36.7582817077637" lon="-5.19068479537964">
        <ele>512</ele>
        <time>2019-05-12T01:35:55Z</time>
      </trkpt>
      <trkpt lat="36.7582855224609" lon="-5.19068479537964">
        <ele>513</ele>
        <time>2019-05-12T01:35:57Z</time>
      </trkpt>
      <trkpt lat="36.7582893371582" lon="-5.19068479537964">
        <ele>514</ele>
        <time>2019-05-12T01:35:59Z</time>
      </trkpt>
      <trkpt lat="36.7582931518555" lon="-5.19068288803101">
        <ele>514</ele>
        <time>2019-05-12T01:36:01Z</time>
      </trkpt>
      <trkpt lat="36.7582969665527" lon="-5.19067811965942">
        <ele>515</ele>
        <time>2019-05-12T01:36:03Z</time>
      </trkpt>
      <trkpt lat="36.75830078125" lon="-5.19068002700806">
        <ele>515</ele>
        <time>2019-05-12T01:36:05Z</time>
      </trkpt>
      <trkpt lat="36.75830078125" lon="-5.19068002700806">
        <ele>515</ele>
        <time>2019-05-12T01:36:07Z</time>
      </trkpt>
      <trkpt lat="36.75830078125" lon="-5.19067478179932">
        <ele>515</ele>
        <time>2019-05-12T01:36:09Z</time>
      </trkpt>
      <trkpt lat="36.7583084106445" lon="-5.19067001342773">
        <ele>515</ele>
        <time>2019-05-12T01:36:11Z</time>
      </trkpt>
      <trkpt lat="36.7583084106445" lon="-5.19066715240478">
        <ele>515</ele>
        <time>2019-05-12T01:36:13Z</time>
      </trkpt>
      <trkpt lat="36.7583084106445" lon="-5.19065809249878">
        <ele>515</ele>
        <time>2019-05-12T01:36:15Z</time>
      </trkpt>
      <trkpt lat="36.7583122253418" lon="-5.19064807891846">
        <ele>515</ele>
        <time>2019-05-12T01:36:17Z</time>
      </trkpt>
      <trkpt lat="36.7583122253418" lon="-5.19063997268677">
        <ele>515</ele>
        <time>2019-05-12T01:36:19Z</time>
      </trkpt>
      <trkpt lat="36.7583160400391" lon="-5.19063282012939">
        <ele>515</ele>
        <time>2019-05-12T01:36:21Z</time>
      </trkpt>
      <trkpt lat="36.7583198547363" lon="-5.19062995910644">
        <ele>515</ele>
        <time>2019-05-12T01:36:23Z</time>
      </trkpt>
      <trkpt lat="36.7583236694336" lon="-5.19062995910644">
        <ele>515</ele>
        <time>2019-05-12T01:36:25Z</time>
      </trkpt>
      <trkpt lat="36.7583236694336" lon="-5.1906270980835">
        <ele>515</ele>
        <time>2019-05-12T01:36:27Z</time>
      </trkpt>
      <trkpt lat="36.7583236694336" lon="-5.19061279296875">
        <ele>515</ele>
        <time>2019-05-12T01:36:29Z</time>
      </trkpt>
      <trkpt lat="36.7583236694336" lon="-5.19060707092285">
        <ele>515</ele>
        <time>2019-05-12T01:36:31Z</time>
      </trkpt>
      <trkpt lat="36.7583274841309" lon="-5.19059801101685">
        <ele>515</ele>
        <time>2019-05-12T01:36:33Z</time>
      </trkpt>
      <trkpt lat="36.7583274841309" lon="-5.19059276580811">
        <ele>515</ele>
        <time>2019-05-12T01:36:35Z</time>
      </trkpt>
      <trkpt lat="36.7583274841309" lon="-5.19058513641357">
        <ele>515</ele>
        <time>2019-05-12T01:36:37Z</time>
      </trkpt>
      <trkpt lat="36.7583274841309" lon="-5.19057703018188">
        <ele>515</ele>
        <time>2019-05-12T01:36:39Z</time>
      </trkpt>
      <trkpt lat="36.7583274841309" lon="-5.19056797027588">
        <ele>514</ele>
        <time>2019-05-12T01:36:41Z</time>
      </trkpt>
      <trkpt lat="36.7583274841309" lon="-5.1905632019043">
        <ele>514</ele>
        <time>2019-05-12T01:36:43Z</time>
      </trkpt>
      <trkpt lat="36.7583274841309" lon="-5.19055795669556">
        <ele>514</ele>
        <time>2019-05-12T01:36:45Z</time>
      </trkpt>
      <trkpt lat="36.7583274841309" lon="-5.19055318832397">
        <ele>514</ele>
        <time>2019-05-12T01:36:47Z</time>
      </trkpt>
      <trkpt lat="36.7583312988281" lon="-5.19054794311523">
        <ele>514</ele>
        <time>2019-05-12T01:36:49Z</time>
      </trkpt>
      <trkpt lat="36.7583274841309" lon="-5.19054317474365">
        <ele>513</ele>
        <time>2019-05-12T01:36:51Z</time>
      </trkpt>
      <trkpt lat="36.7583312988281" lon="-5.19053983688354">
        <ele>513</ele>
        <time>2019-05-12T01:36:53Z</time>
      </trkpt>
      <trkpt lat="36.7583351135254" lon="-5.19053983688354">
        <ele>513</ele>
        <time>2019-05-12T01:36:55Z</time>
      </trkpt>
      <trkpt lat="36.7583351135254" lon="-5.19053792953491">
        <ele>513</ele>
        <time>2019-05-12T01:36:57Z</time>
      </trkpt>
      <trkpt lat="36.7583351135254" lon="-5.19054698944092">
        <ele>512</ele>
        <time>2019-05-12T01:37:01Z</time>
      </trkpt>
      <trkpt lat="36.7583351135254" lon="-5.19054794311523">
        <ele>510</ele>
        <time>2019-05-12T01:37:03Z</time>
      </trkpt>
      <trkpt lat="36.7583351135254" lon="-5.19055223464966">
        <ele>510</ele>
        <time>2019-05-12T01:37:05Z</time>
      </trkpt>
      <trkpt lat="36.7583351135254" lon="-5.19054508209228">
        <ele>510</ele>
        <time>2019-05-12T01:37:09Z</time>
      </trkpt>
      <trkpt lat="36.7583312988281" lon="-5.1905369758606">
        <ele>510</ele>
        <time>2019-05-12T01:37:11Z</time>
      </trkpt>
      <trkpt lat="36.7583312988281" lon="-5.19052791595459">
        <ele>510</ele>
        <time>2019-05-12T01:37:13Z</time>
      </trkpt>
      <trkpt lat="36.7583312988281" lon="-5.19052219390869">
        <ele>510</ele>
        <time>2019-05-12T01:37:15Z</time>
      </trkpt>
      <trkpt lat="36.7583312988281" lon="-5.19051694869995">
        <ele>510</ele>
        <time>2019-05-12T01:37:17Z</time>
      </trkpt>
      <trkpt lat="36.7583312988281" lon="-5.1905198097229">
        <ele>510</ele>
        <time>2019-05-12T01:37:19Z</time>
      </trkpt>
      <trkpt lat="36.7583312988281" lon="-5.19051218032837">
        <ele>509</ele>
        <time>2019-05-12T01:37:21Z</time>
      </trkpt>
      <trkpt lat="36.7583312988281" lon="-5.19050312042236">
        <ele>509</ele>
        <time>2019-05-12T01:37:23Z</time>
      </trkpt>
      <trkpt lat="36.7583389282227" lon="-5.19050312042236">
        <ele>509</ele>
        <time>2019-05-12T01:37:25Z</time>
      </trkpt>
      <trkpt lat="36.7583465576172" lon="-5.19050788879394">
        <ele>509</ele>
        <time>2019-05-12T01:37:27Z</time>
      </trkpt>
      <trkpt lat="36.7583541870117" lon="-5.19051218032837">
        <ele>509</ele>
        <time>2019-05-12T01:37:29Z</time>
      </trkpt>
      <trkpt lat="36.758358001709" lon="-5.19051790237427">
        <ele>509</ele>
        <time>2019-05-12T01:37:31Z</time>
      </trkpt>
      <trkpt lat="36.7583656311035" lon="-5.19052219390869">
        <ele>509</ele>
        <time>2019-05-12T01:37:33Z</time>
      </trkpt>
      <trkpt lat="36.758373260498" lon="-5.19052219390869">
        <ele>509</ele>
        <time>2019-05-12T01:37:36Z</time>
      </trkpt>
      <trkpt lat="36.7583847045898" lon="-5.19051504135132">
        <ele>509</ele>
        <time>2019-05-12T01:37:38Z</time>
      </trkpt>
      <trkpt lat="36.7583885192871" lon="-5.19050788879394">
        <ele>509</ele>
        <time>2019-05-12T01:37:40Z</time>
      </trkpt>
      <trkpt lat="36.7583999633789" lon="-5.190505027771">
        <ele>509</ele>
        <time>2019-05-12T01:37:42Z</time>
      </trkpt>
      <trkpt lat="36.758415222168" lon="-5.19050788879394">
        <ele>509</ele>
        <time>2019-05-12T01:37:44Z</time>
      </trkpt>
      <trkpt lat="36.7584342956543" lon="-5.19050693511963">
        <ele>509</ele>
        <time>2019-05-12T01:37:46Z</time>
      </trkpt>
      <trkpt lat="36.7584533691406" lon="-5.19050312042236">
        <ele>510</ele>
        <time>2019-05-12T01:37:48Z</time>
      </trkpt>
      <trkpt lat="36.7584686279297" lon="-5.19050216674805">
        <ele>512</ele>
        <time>2019-05-12T01:37:50Z</time>
      </trkpt>
      <trkpt lat="36.7584915161133" lon="-5.19050312042236">
        <ele>513</ele>
        <time>2019-05-12T01:37:52Z</time>
      </trkpt>
      <trkpt lat="36.7585067749023" lon="-5.19049978256226">
        <ele>514</ele>
        <time>2019-05-12T01:37:54Z</time>
      </trkpt>
      <trkpt lat="36.7585296630859" lon="-5.19049787521362">
        <ele>514</ele>
        <time>2019-05-12T01:37:56Z</time>
      </trkpt>
      <trkpt lat="36.7585525512695" lon="-5.19049978256226">
        <ele>515</ele>
        <time>2019-05-12T01:37:58Z</time>
      </trkpt>
      <trkpt lat="36.7585716247559" lon="-5.19050312042236">
        <ele>515</ele>
        <time>2019-05-12T01:38:00Z</time>
      </trkpt>
      <trkpt lat="36.7585906982422" lon="-5.190505027771">
        <ele>515</ele>
        <time>2019-05-12T01:38:02Z</time>
      </trkpt>
      <trkpt lat="36.7586135864258" lon="-5.19050979614258">
        <ele>515</ele>
        <time>2019-05-12T01:38:04Z</time>
      </trkpt>
      <trkpt lat="36.7586288452148" lon="-5.19051790237427">
        <ele>515</ele>
        <time>2019-05-12T01:38:06Z</time>
      </trkpt>
      <trkpt lat="36.7586441040039" lon="-5.19052314758301">
        <ele>515</ele>
        <time>2019-05-12T01:38:08Z</time>
      </trkpt>
      <trkpt lat="36.7586479187012" lon="-5.19052314758301">
        <ele>515</ele>
        <time>2019-05-12T01:38:10Z</time>
      </trkpt>
      <trkpt lat="36.7586479187012" lon="-5.19052505493164">
        <ele>515</ele>
        <time>2019-05-12T01:38:12Z</time>
      </trkpt>
      <trkpt lat="36.7586517333984" lon="-5.19052696228027">
        <ele>515</ele>
        <time>2019-05-12T01:38:14Z</time>
      </trkpt>
      <trkpt lat="36.7586517333984" lon="-5.1905198097229">
        <ele>515</ele>
        <time>2019-05-12T01:38:16Z</time>
      </trkpt>
      <trkpt lat="36.7586555480957" lon="-5.1905198097229">
        <ele>515</ele>
        <time>2019-05-12T01:38:18Z</time>
      </trkpt>
      <trkpt lat="36.7586555480957" lon="-5.1905198097229">
        <ele>515</ele>
        <time>2019-05-12T01:38:20Z</time>
      </trkpt>
      <trkpt lat="36.758659362793" lon="-5.1905198097229">
        <ele>515</ele>
        <time>2019-05-12T01:38:22Z</time>
      </trkpt>
      <trkpt lat="36.758659362793" lon="-5.1905198097229">
        <ele>515</ele>
        <time>2019-05-12T01:38:24Z</time>
      </trkpt>
      <trkpt lat="36.758659362793" lon="-5.19051790237427">
        <ele>515</ele>
        <time>2019-05-12T01:38:26Z</time>
      </trkpt>
      <trkpt lat="36.7586631774902" lon="-5.19051790237427">
        <ele>515</ele>
        <time>2019-05-12T01:38:28Z</time>
      </trkpt>
      <trkpt lat="36.7586631774902" lon="-5.19051790237427">
        <ele>515</ele>
        <time>2019-05-12T01:38:30Z</time>
      </trkpt>
      <trkpt lat="36.7586631774902" lon="-5.19051790237427">
        <ele>515</ele>
        <time>2019-05-12T01:38:32Z</time>
      </trkpt>
      <trkpt lat="36.7586631774902" lon="-5.19051790237427">
        <ele>515</ele>
        <time>2019-05-12T01:38:34Z</time>
      </trkpt>
      <trkpt lat="36.7586669921875" lon="-5.19051694869995">
        <ele>515</ele>
        <time>2019-05-12T01:38:36Z</time>
      </trkpt>
      <trkpt lat="36.7586669921875" lon="-5.19051694869995">
        <ele>515</ele>
        <time>2019-05-12T01:38:38Z</time>
      </trkpt>
      <trkpt lat="36.7586669921875" lon="-5.19051694869995">
        <ele>515</ele>
        <time>2019-05-12T01:38:40Z</time>
      </trkpt>
      <trkpt lat="36.7586669921875" lon="-5.19051504135132">
        <ele>515</ele>
        <time>2019-05-12T01:38:42Z</time>
      </trkpt>
      <trkpt lat="36.7586669921875" lon="-5.19051504135132">
        <ele>515</ele>
        <time>2019-05-12T01:38:44Z</time>
      </trkpt>
      <trkpt lat="36.7586669921875" lon="-5.19051504135132">
        <ele>515</ele>
        <time>2019-05-12T01:38:46Z</time>
      </trkpt>
      <trkpt lat="36.7586708068848" lon="-5.19051313400269">
        <ele>515</ele>
        <time>2019-05-12T01:38:48Z</time>
      </trkpt>
      <trkpt lat="36.7586708068848" lon="-5.19051313400269">
        <ele>515</ele>
        <time>2019-05-12T01:38:50Z</time>
      </trkpt>
      <trkpt lat="36.7586669921875" lon="-5.19050979614258">
        <ele>515</ele>
        <time>2019-05-12T01:38:52Z</time>
      </trkpt>
      <trkpt lat="36.7586669921875" lon="-5.19050788879394">
        <ele>515</ele>
        <time>2019-05-12T01:38:54Z</time>
      </trkpt>
      <trkpt lat="36.7586708068848" lon="-5.19050788879394">
        <ele>515</ele>
        <time>2019-05-12T01:38:56Z</time>
      </trkpt>
      <trkpt lat="36.7586708068848" lon="-5.19050788879394">
        <ele>515</ele>
        <time>2019-05-12T01:38:58Z</time>
      </trkpt>
      <trkpt lat="36.7586708068848" lon="-5.19050693511963">
        <ele>515</ele>
        <time>2019-05-12T01:39:00Z</time>
      </trkpt>
      <trkpt lat="36.7586708068848" lon="-5.19050693511963">
        <ele>515</ele>
        <time>2019-05-12T01:39:02Z</time>
      </trkpt>
      <trkpt lat="36.758674621582" lon="-5.19050693511963">
        <ele>515</ele>
        <time>2019-05-12T01:39:04Z</time>
      </trkpt>
      <trkpt lat="36.758674621582" lon="-5.190505027771">
        <ele>514</ele>
        <time>2019-05-12T01:39:06Z</time>
      </trkpt>
      <trkpt lat="36.758674621582" lon="-5.190505027771">
        <ele>514</ele>
        <time>2019-05-12T01:39:08Z</time>
      </trkpt>
      <trkpt lat="36.758674621582" lon="-5.19050312042236">
        <ele>514</ele>
        <time>2019-05-12T01:39:10Z</time>
      </trkpt>
      <trkpt lat="36.7586784362793" lon="-5.19050312042236">
        <ele>514</ele>
        <time>2019-05-12T01:39:12Z</time>
      </trkpt>
      <trkpt lat="36.7586784362793" lon="-5.19050216674805">
        <ele>514</ele>
        <time>2019-05-12T01:39:14Z</time>
      </trkpt>
      <trkpt lat="36.7586784362793" lon="-5.19049978256226">
        <ele>513</ele>
        <time>2019-05-12T01:39:18Z</time>
      </trkpt>
      <trkpt lat="36.7586784362793" lon="-5.19049978256226">
        <ele>513</ele>
        <time>2019-05-12T01:39:20Z</time>
      </trkpt>
      <trkpt lat="36.7586784362793" lon="-5.19049978256226">
        <ele>513</ele>
        <time>2019-05-12T01:39:22Z</time>
      </trkpt>
      <trkpt lat="36.7586822509766" lon="-5.19049978256226">
        <ele>512</ele>
        <time>2019-05-12T01:39:26Z</time>
      </trkpt>
      <trkpt lat="36.7586822509766" lon="-5.19049787521362">
        <ele>510</ele>
        <time>2019-05-12T01:39:30Z</time>
      </trkpt>
      <trkpt lat="36.7586822509766" lon="-5.19049787521362">
        <ele>510</ele>
        <time>2019-05-12T01:39:32Z</time>
      </trkpt>
      <trkpt lat="36.7586822509766" lon="-5.19049787521362">
        <ele>510</ele>
        <time>2019-05-12T01:39:34Z</time>
      </trkpt>
      <trkpt lat="36.7586784362793" lon="-5.19049692153931">
        <ele>509</ele>
        <time>2019-05-12T01:39:36Z</time>
      </trkpt>
      <trkpt lat="36.7586784362793" lon="-5.19049692153931">
        <ele>509</ele>
        <time>2019-05-12T01:39:38Z</time>
      </trkpt>
      <trkpt lat="36.758674621582" lon="-5.19049692153931">
        <ele>505</ele>
        <time>2019-05-12T01:39:50Z</time>
      </trkpt>
      <trkpt lat="36.758674621582" lon="-5.19049501419067">
        <ele>505</ele>
        <time>2019-05-12T01:39:52Z</time>
      </trkpt>
      <trkpt lat="36.758674621582" lon="-5.19049501419067">
        <ele>505</ele>
        <time>2019-05-12T01:39:54Z</time>
      </trkpt>
      <trkpt lat="36.7586708068848" lon="-5.19049692153931">
        <ele>504</ele>
        <time>2019-05-12T01:39:58Z</time>
      </trkpt>
      <trkpt lat="36.7586708068848" lon="-5.19049501419067">
        <ele>503</ele>
        <time>2019-05-12T01:40:00Z</time>
      </trkpt>
      <trkpt lat="36.7586631774902" lon="-5.19049501419067">
        <ele>503</ele>
        <time>2019-05-12T01:40:02Z</time>
      </trkpt>
      <trkpt lat="36.7586631774902" lon="-5.19049501419067">
        <ele>503</ele>
        <time>2019-05-12T01:40:04Z</time>
      </trkpt>
      <trkpt lat="36.758659362793" lon="-5.19049692153931">
        <ele>501</ele>
        <time>2019-05-12T01:40:08Z</time>
      </trkpt>
      <trkpt lat="36.7586631774902" lon="-5.19049692153931">
        <ele>500</ele>
        <time>2019-05-12T01:40:14Z</time>
      </trkpt>
      <trkpt lat="36.7586631774902" lon="-5.19049692153931">
        <ele>500</ele>
        <time>2019-05-12T01:40:16Z</time>
      </trkpt>
      <trkpt lat="36.7586631774902" lon="-5.19049692153931">
        <ele>500</ele>
        <time>2019-05-12T01:40:18Z</time>
      </trkpt>
      <trkpt lat="36.7586669921875" lon="-5.19049501419067">
        <ele>500</ele>
        <time>2019-05-12T01:40:22Z</time>
      </trkpt>
      <trkpt lat="36.7586669921875" lon="-5.19049310684204">
        <ele>500</ele>
        <time>2019-05-12T01:40:24Z</time>
      </trkpt>
      <trkpt lat="36.758674621582" lon="-5.19049215316772">
        <ele>500</ele>
        <time>2019-05-12T01:40:26Z</time>
      </trkpt>
      <trkpt lat="36.7586784362793" lon="-5.19049215316772">
        <ele>500</ele>
        <time>2019-05-12T01:40:28Z</time>
      </trkpt>
      <trkpt lat="36.7586822509766" lon="-5.19048976898193">
        <ele>500</ele>
        <time>2019-05-12T01:40:30Z</time>
      </trkpt>
      <trkpt lat="36.7586860656738" lon="-5.19048976898193">
        <ele>500</ele>
        <time>2019-05-12T01:40:32Z</time>
      </trkpt>
      <trkpt lat="36.7586860656738" lon="-5.1904878616333">
        <ele>500</ele>
        <time>2019-05-12T01:40:34Z</time>
      </trkpt>
      <trkpt lat="36.7586898803711" lon="-5.1904878616333">
        <ele>500</ele>
        <time>2019-05-12T01:40:36Z</time>
      </trkpt>
      <trkpt lat="36.7586936950684" lon="-5.1904878616333">
        <ele>500</ele>
        <time>2019-05-12T01:40:38Z</time>
      </trkpt>
      <trkpt lat="36.7586975097656" lon="-5.19048690795898">
        <ele>500</ele>
        <time>2019-05-12T01:40:40Z</time>
      </trkpt>
      <trkpt lat="36.7587013244629" lon="-5.19048690795898">
        <ele>500</ele>
        <time>2019-05-12T01:40:42Z</time>
      </trkpt>
      <trkpt lat="36.7587051391602" lon="-5.19048690795898">
        <ele>500</ele>
        <time>2019-05-12T01:40:44Z</time>
      </trkpt>
      <trkpt lat="36.7587051391602" lon="-5.19048690795898">
        <ele>500</ele>
        <time>2019-05-12T01:40:46Z</time>
      </trkpt>
      <trkpt lat="36.7587051391602" lon="-5.19048690795898">
        <ele>500</ele>
        <time>2019-05-12T01:40:48Z</time>
      </trkpt>
      <trkpt lat="36.7587013244629" lon="-5.19048690795898">
        <ele>500</ele>
        <time>2019-05-12T01:40:50Z</time>
      </trkpt>
      <trkpt lat="36.7587013244629" lon="-5.19048690795898">
        <ele>500</ele>
        <time>2019-05-12T01:40:52Z</time>
      </trkpt>
      <trkpt lat="36.7587013244629" lon="-5.1904878616333">
        <ele>500</ele>
        <time>2019-05-12T01:40:54Z</time>
      </trkpt>
      <trkpt lat="36.7587013244629" lon="-5.1904878616333">
        <ele>500</ele>
        <time>2019-05-12T01:40:56Z</time>
      </trkpt>
      <trkpt lat="36.7587013244629" lon="-5.1904878616333">
        <ele>500</ele>
        <time>2019-05-12T01:40:58Z</time>
      </trkpt>
      <trkpt lat="36.7587013244629" lon="-5.1904878616333">
        <ele>500</ele>
        <time>2019-05-12T01:41:00Z</time>
      </trkpt>
      <trkpt lat="36.7587013244629" lon="-5.1904878616333">
        <ele>500</ele>
        <time>2019-05-12T01:41:02Z</time>
      </trkpt>
      <trkpt lat="36.7587013244629" lon="-5.19048976898193">
        <ele>500</ele>
        <time>2019-05-12T01:41:04Z</time>
      </trkpt>
      <trkpt lat="36.7587013244629" lon="-5.19048976898193">
        <ele>500</ele>
        <time>2019-05-12T01:41:06Z</time>
      </trkpt>
      <trkpt lat="36.7586975097656" lon="-5.19048976898193">
        <ele>500</ele>
        <time>2019-05-12T01:41:08Z</time>
      </trkpt>
      <trkpt lat="36.7586975097656" lon="-5.19049215316772">
        <ele>500</ele>
        <time>2019-05-12T01:41:10Z</time>
      </trkpt>
      <trkpt lat="36.7586975097656" lon="-5.19049215316772">
        <ele>500</ele>
        <time>2019-05-12T01:41:12Z</time>
      </trkpt>
      <trkpt lat="36.7587013244629" lon="-5.19048976898193">
        <ele>500</ele>
        <time>2019-05-12T01:41:14Z</time>
      </trkpt>
      <trkpt lat="36.7587013244629" lon="-5.19048690795898">
        <ele>500</ele>
        <time>2019-05-12T01:41:16Z</time>
      </trkpt>
      <trkpt lat="36.7587051391602" lon="-5.1904878616333">
        <ele>500</ele>
        <time>2019-05-12T01:41:18Z</time>
      </trkpt>
      <trkpt lat="36.7587051391602" lon="-5.19048976898193">
        <ele>500</ele>
        <time>2019-05-12T01:41:20Z</time>
      </trkpt>
      <trkpt lat="36.7587051391602" lon="-5.19049310684204">
        <ele>500</ele>
        <time>2019-05-12T01:41:22Z</time>
      </trkpt>
      <trkpt lat="36.7587013244629" lon="-5.19049215316772">
        <ele>500</ele>
        <time>2019-05-12T01:41:24Z</time>
      </trkpt>
      <trkpt lat="36.7587013244629" lon="-5.19049215316772">
        <ele>500</ele>
        <time>2019-05-12T01:41:26Z</time>
      </trkpt>
      <trkpt lat="36.7586975097656" lon="-5.19049787521362">
        <ele>500</ele>
        <time>2019-05-12T01:41:28Z</time>
      </trkpt>
      <trkpt lat="36.7586936950684" lon="-5.19049978256226">
        <ele>500</ele>
        <time>2019-05-12T01:41:30Z</time>
      </trkpt>
      <trkpt lat="36.7586936950684" lon="-5.19050693511963">
        <ele>500</ele>
        <time>2019-05-12T01:41:32Z</time>
      </trkpt>
      <trkpt lat="36.7586898803711" lon="-5.19050788879394">
        <ele>500</ele>
        <time>2019-05-12T01:41:34Z</time>
      </trkpt>
      <trkpt lat="36.7586936950684" lon="-5.19050788879394">
        <ele>500</ele>
        <time>2019-05-12T01:41:36Z</time>
      </trkpt>
      <trkpt lat="36.7586936950684" lon="-5.19050979614258">
        <ele>500</ele>
        <time>2019-05-12T01:41:38Z</time>
      </trkpt>
      <trkpt lat="36.7586936950684" lon="-5.19050979614258">
        <ele>500</ele>
        <time>2019-05-12T01:41:40Z</time>
      </trkpt>
      <trkpt lat="36.7586936950684" lon="-5.19051313400269">
        <ele>500</ele>
        <time>2019-05-12T01:41:42Z</time>
      </trkpt>
      <trkpt lat="36.7586936950684" lon="-5.19051694869995">
        <ele>500</ele>
        <time>2019-05-12T01:41:44Z</time>
      </trkpt>
      <trkpt lat="36.7586975097656" lon="-5.19051790237427">
        <ele>500</ele>
        <time>2019-05-12T01:41:46Z</time>
      </trkpt>
      <trkpt lat="36.7587013244629" lon="-5.19051694869995">
        <ele>500</ele>
        <time>2019-05-12T01:41:48Z</time>
      </trkpt>
      <trkpt lat="36.7587013244629" lon="-5.1905198097229">
        <ele>500</ele>
        <time>2019-05-12T01:41:50Z</time>
      </trkpt>
      <trkpt lat="36.7587013244629" lon="-5.19052314758301">
        <ele>500</ele>
        <time>2019-05-12T01:41:52Z</time>
      </trkpt>
      <trkpt lat="36.7587013244629" lon="-5.19052696228027">
        <ele>500</ele>
        <time>2019-05-12T01:41:54Z</time>
      </trkpt>
      <trkpt lat="36.7587013244629" lon="-5.19052696228027">
        <ele>500</ele>
        <time>2019-05-12T01:41:56Z</time>
      </trkpt>
      <trkpt lat="36.7586975097656" lon="-5.19053220748901">
        <ele>500</ele>
        <time>2019-05-12T01:41:58Z</time>
      </trkpt>
      <trkpt lat="36.7586898803711" lon="-5.19053316116333">
        <ele>500</ele>
        <time>2019-05-12T01:42:00Z</time>
      </trkpt>
      <trkpt lat="36.7586898803711" lon="-5.19053506851196">
        <ele>500</ele>
        <time>2019-05-12T01:42:02Z</time>
      </trkpt>
      <trkpt lat="36.7586860656738" lon="-5.19053506851196">
        <ele>500</ele>
        <time>2019-05-12T01:42:04Z</time>
      </trkpt>
      <trkpt lat="36.7586860656738" lon="-5.19053506851196">
        <ele>500</ele>
        <time>2019-05-12T01:42:06Z</time>
      </trkpt>
      <trkpt lat="36.7586860656738" lon="-5.19053220748901">
        <ele>500</ele>
        <time>2019-05-12T01:42:08Z</time>
      </trkpt>
      <trkpt lat="36.7586898803711" lon="-5.19052791595459">
        <ele>500</ele>
        <time>2019-05-12T01:42:10Z</time>
      </trkpt>
      <trkpt lat="36.7586860656738" lon="-5.19052314758301">
        <ele>500</ele>
        <time>2019-05-12T01:42:12Z</time>
      </trkpt>
      <trkpt lat="36.7586860656738" lon="-5.19051790237427">
        <ele>500</ele>
        <time>2019-05-12T01:42:14Z</time>
      </trkpt>
      <trkpt lat="36.7586822509766" lon="-5.1905198097229">
        <ele>500</ele>
        <time>2019-05-12T01:42:16Z</time>
      </trkpt>
      <trkpt lat="36.7586784362793" lon="-5.19052219390869">
        <ele>500</ele>
        <time>2019-05-12T01:42:18Z</time>
      </trkpt>
      <trkpt lat="36.7586784362793" lon="-5.19052219390869">
        <ele>500</ele>
        <time>2019-05-12T01:42:20Z</time>
      </trkpt>
      <trkpt lat="36.7586784362793" lon="-5.19052219390869">
        <ele>500</ele>
        <time>2019-05-12T01:42:22Z</time>
      </trkpt>
      <trkpt lat="36.7586784362793" lon="-5.1905198097229">
        <ele>500</ele>
        <time>2019-05-12T01:42:24Z</time>
      </trkpt>
      <trkpt lat="36.7586784362793" lon="-5.19052219390869">
        <ele>500</ele>
        <time>2019-05-12T01:42:26Z</time>
      </trkpt>
      <trkpt lat="36.7586784362793" lon="-5.19051790237427">
        <ele>500</ele>
        <time>2019-05-12T01:42:28Z</time>
      </trkpt>
      <trkpt lat="36.7586784362793" lon="-5.19051790237427">
        <ele>500</ele>
        <time>2019-05-12T01:42:30Z</time>
      </trkpt>
      <trkpt lat="36.758674621582" lon="-5.19052219390869">
        <ele>500</ele>
        <time>2019-05-12T01:42:32Z</time>
      </trkpt>
      <trkpt lat="36.7586784362793" lon="-5.1905198097229">
        <ele>500</ele>
        <time>2019-05-12T01:42:34Z</time>
      </trkpt>
      <trkpt lat="36.7586822509766" lon="-5.19051313400269">
        <ele>500</ele>
        <time>2019-05-12T01:42:36Z</time>
      </trkpt>
      <trkpt lat="36.7586784362793" lon="-5.19051694869995">
        <ele>500</ele>
        <time>2019-05-12T01:42:38Z</time>
      </trkpt>
      <trkpt lat="36.758674621582" lon="-5.1905198097229">
        <ele>500</ele>
        <time>2019-05-12T01:42:40Z</time>
      </trkpt>
      <trkpt lat="36.7586784362793" lon="-5.19052314758301">
        <ele>500</ele>
        <time>2019-05-12T01:42:42Z</time>
      </trkpt>
      <trkpt lat="36.758674621582" lon="-5.19052696228027">
        <ele>500</ele>
        <time>2019-05-12T01:42:44Z</time>
      </trkpt>
      <trkpt lat="36.7586784362793" lon="-5.19052505493164">
        <ele>500</ele>
        <time>2019-05-12T01:42:46Z</time>
      </trkpt>
      <trkpt lat="36.7586784362793" lon="-5.19051790237427">
        <ele>500</ele>
        <time>2019-05-12T01:42:48Z</time>
      </trkpt>
      <trkpt lat="36.7586784362793" lon="-5.19051504135132">
        <ele>500</ele>
        <time>2019-05-12T01:42:50Z</time>
      </trkpt>
      <trkpt lat="36.7586784362793" lon="-5.19051313400269">
        <ele>500</ele>
        <time>2019-05-12T01:42:52Z</time>
      </trkpt>
      <trkpt lat="36.758674621582" lon="-5.19051313400269">
        <ele>500</ele>
        <time>2019-05-12T01:42:54Z</time>
      </trkpt>
      <trkpt lat="36.7586784362793" lon="-5.19051313400269">
        <ele>500</ele>
        <time>2019-05-12T01:42:56Z</time>
      </trkpt>
      <trkpt lat="36.7586784362793" lon="-5.19051218032837">
        <ele>500</ele>
        <time>2019-05-12T01:42:58Z</time>
      </trkpt>
      <trkpt lat="36.7586784362793" lon="-5.19050693511963">
        <ele>500</ele>
        <time>2019-05-12T01:43:00Z</time>
      </trkpt>
      <trkpt lat="36.758674621582" lon="-5.19050979614258">
        <ele>500</ele>
        <time>2019-05-12T01:43:06Z</time>
      </trkpt>
      <trkpt lat="36.7586708068848" lon="-5.19051694869995">
        <ele>503</ele>
        <time>2019-05-12T01:43:10Z</time>
      </trkpt>
      <trkpt lat="36.7586708068848" lon="-5.19052219390869">
        <ele>505</ele>
        <time>2019-05-12T01:43:12Z</time>
      </trkpt>
      <trkpt lat="36.7586708068848" lon="-5.19052505493164">
        <ele>508</ele>
        <time>2019-05-12T01:43:16Z</time>
      </trkpt>
      <trkpt lat="36.7586708068848" lon="-5.19052982330322">
        <ele>509</ele>
        <time>2019-05-12T01:43:18Z</time>
      </trkpt>
      <trkpt lat="36.758674621582" lon="-5.19052982330322">
        <ele>511</ele>
        <time>2019-05-12T01:43:20Z</time>
      </trkpt>
      <trkpt lat="36.7586708068848" lon="-5.19052696228027">
        <ele>512</ele>
        <time>2019-05-12T01:43:22Z</time>
      </trkpt>
      <trkpt lat="36.7586631774902" lon="-5.19052314758301">
        <ele>514</ele>
        <time>2019-05-12T01:43:24Z</time>
      </trkpt>
      <trkpt lat="36.7586631774902" lon="-5.19052219390869">
        <ele>515</ele>
        <time>2019-05-12T01:43:26Z</time>
      </trkpt>
      <trkpt lat="36.7586555480957" lon="-5.19051694869995">
        <ele>515</ele>
        <time>2019-05-12T01:43:28Z</time>
      </trkpt>
      <trkpt lat="36.7586555480957" lon="-5.19050979614258">
        <ele>516</ele>
        <time>2019-05-12T01:43:30Z</time>
      </trkpt>
      <trkpt lat="36.7586517333984" lon="-5.19050312042236">
        <ele>516</ele>
        <time>2019-05-12T01:43:32Z</time>
      </trkpt>
      <trkpt lat="36.7586479187012" lon="-5.19049501419067">
        <ele>516</ele>
        <time>2019-05-12T01:43:34Z</time>
      </trkpt>
      <trkpt lat="36.7586441040039" lon="-5.19048976898193">
        <ele>516</ele>
        <time>2019-05-12T01:43:36Z</time>
      </trkpt>
      <trkpt lat="36.7586326599121" lon="-5.19048500061035">
        <ele>516</ele>
        <time>2019-05-12T01:43:38Z</time>
      </trkpt>
      <trkpt lat="36.7586212158203" lon="-5.19047689437866">
        <ele>516</ele>
        <time>2019-05-12T01:43:40Z</time>
      </trkpt>
      <trkpt lat="36.7586135864258" lon="-5.19047212600708">
        <ele>516</ele>
        <time>2019-05-12T01:43:42Z</time>
      </trkpt>
      <trkpt lat="36.7586059570312" lon="-5.19046783447266">
        <ele>516</ele>
        <time>2019-05-12T01:43:44Z</time>
      </trkpt>
      <trkpt lat="36.7585983276367" lon="-5.19046306610107">
        <ele>516</ele>
        <time>2019-05-12T01:43:46Z</time>
      </trkpt>
      <trkpt lat="36.7585983276367" lon="-5.19045305252075">
        <ele>516</ele>
        <time>2019-05-12T01:43:48Z</time>
      </trkpt>
      <trkpt lat="36.7585945129394" lon="-5.19044303894043">
        <ele>516</ele>
        <time>2019-05-12T01:43:50Z</time>
      </trkpt>
      <trkpt lat="36.7585830688477" lon="-5.19042682647705">
        <ele>516</ele>
        <time>2019-05-12T01:43:53Z</time>
      </trkpt>
      <trkpt lat="36.7585754394531" lon="-5.19042205810547">
        <ele>516</ele>
        <time>2019-05-12T01:43:55Z</time>
      </trkpt>
      <trkpt lat="36.7585525512695" lon="-5.19041013717651">
        <ele>517</ele>
        <time>2019-05-12T01:43:57Z</time>
      </trkpt>
      <trkpt lat="36.7585334777832" lon="-5.19040489196777">
        <ele>517</ele>
        <time>2019-05-12T01:43:59Z</time>
      </trkpt>
      <trkpt lat="36.7585220336914" lon="-5.19039821624756">
        <ele>517</ele>
        <time>2019-05-12T01:44:01Z</time>
      </trkpt>
      <trkpt lat="36.7585067749023" lon="-5.19039011001587">
        <ele>517</ele>
        <time>2019-05-12T01:44:03Z</time>
      </trkpt>
      <trkpt lat="36.7584915161133" lon="-5.19037818908691">
        <ele>517</ele>
        <time>2019-05-12T01:44:05Z</time>
      </trkpt>
      <trkpt lat="36.7584762573242" lon="-5.19036483764648">
        <ele>518</ele>
        <time>2019-05-12T01:44:07Z</time>
      </trkpt>
      <trkpt lat="36.7584571838379" lon="-5.19035291671753">
        <ele>518</ele>
        <time>2019-05-12T01:44:09Z</time>
      </trkpt>
      <trkpt lat="36.7584381103516" lon="-5.19034004211426">
        <ele>518</ele>
        <time>2019-05-12T01:44:11Z</time>
      </trkpt>
      <trkpt lat="36.7584228515625" lon="-5.19032716751099">
        <ele>519</ele>
        <time>2019-05-12T01:44:13Z</time>
      </trkpt>
      <trkpt lat="36.7584075927734" lon="-5.19031000137329">
        <ele>519</ele>
        <time>2019-05-12T01:44:15Z</time>
      </trkpt>
      <trkpt lat="36.7584075927734" lon="-5.19031000137329">
        <ele>519</ele>
        <time>2019-05-12T01:44:15Z</time>
      </trkpt>
      <trkpt lat="36.75011" lon="-5.14802">
        <ele>708</ele>
      </trkpt>
      <trkpt lat="36.75011" lon="-5.14802">
        <ele>706</ele>
      </trkpt>
      <trkpt lat="36.75011" lon="-5.14828">
        <ele>706</ele>
      </trkpt>
      <trkpt lat="36.75018" lon="-5.14828">
        <ele>708</ele>
      </trkpt>
      <trkpt lat="36.75026" lon="-5.14829">
        <ele>709</ele>
      </trkpt>
      <trkpt lat="36.75036" lon="-5.1483">
        <ele>711</ele>
      </trkpt>
      <trkpt lat="36.75049" lon="-5.14831">
        <ele>713</ele>
      </trkpt>
      <trkpt lat="36.75063" lon="-5.14831">
        <ele>716.5</ele>
      </trkpt>
      <trkpt lat="36.75076" lon="-5.14831">
        <ele>720</ele>
      </trkpt>
      <trkpt lat="36.75085" lon="-5.14832">
        <ele>726</ele>
      </trkpt>
      <trkpt lat="36.75088" lon="-5.14869">
        <ele>726</ele>
      </trkpt>
      <trkpt lat="36.75092" lon="-5.14899">
        <ele>730</ele>
      </trkpt>
      <trkpt lat="36.75096" lon="-5.1493">
        <ele>730</ele>
      </trkpt>
      <trkpt lat="36.75106" lon="-5.14969">
        <ele>732</ele>
      </trkpt>
      <trkpt lat="36.75118" lon="-5.1501">
        <ele>735</ele>
      </trkpt>
      <trkpt lat="36.75134" lon="-5.1506">
        <ele>740</ele>
      </trkpt>
      <trkpt lat="36.75149" lon="-5.1509">
        <ele>747</ele>
      </trkpt>
      <trkpt lat="36.75155" lon="-5.15108">
        <ele>748</ele>
      </trkpt>
      <trkpt lat="36.75125" lon="-5.15131">
        <ele>755</ele>
      </trkpt>
      <trkpt lat="36.75098" lon="-5.15165">
        <ele>755</ele>
      </trkpt>
      <trkpt lat="36.75078" lon="-5.15188">
        <ele>754</ele>
      </trkpt>
      <trkpt lat="36.75056" lon="-5.15211">
        <ele>754</ele>
      </trkpt>
      <trkpt lat="36.75027" lon="-5.15243">
        <ele>753.5</ele>
      </trkpt>
      <trkpt lat="36.74994" lon="-5.1529">
        <ele>754.7</ele>
      </trkpt>
      <trkpt lat="36.74969" lon="-5.15323">
        <ele>756</ele>
      </trkpt>
      <trkpt lat="36.74945" lon="-5.15367">
        <ele>757</ele>
      </trkpt>
      <trkpt lat="36.74927" lon="-5.15394">
        <ele>757</ele>
      </trkpt>
      <trkpt lat="36.74908" lon="-5.15424">
        <ele>757</ele>
      </trkpt>
      <trkpt lat="36.74893" lon="-5.15454">
        <ele>757</ele>
      </trkpt>
      <trkpt lat="36.74874" lon="-5.15491">
        <ele>754</ele>
      </trkpt>
      <trkpt lat="36.74852" lon="-5.15534">
        <ele>753.5</ele>
      </trkpt>
      <trkpt lat="36.74834" lon="-5.15558">
        <ele>754.7</ele>
      </trkpt>
      <trkpt lat="36.74812" lon="-5.15589">
        <ele>756</ele>
      </trkpt>
      <trkpt lat="36.74791" lon="-5.15635">
        <ele>756</ele>
      </trkpt>
      <trkpt lat="36.74775" lon="-5.15666">
        <ele>756</ele>
      </trkpt>
      <trkpt lat="36.74754" lon="-5.15706">
        <ele>753</ele>
      </trkpt>
      <trkpt lat="36.74737" lon="-5.15737">
        <ele>751</ele>
      </trkpt>
      <trkpt lat="36.74714" lon="-5.15778">
        <ele>746</ele>
      </trkpt>
      <trkpt lat="36.74698" lon="-5.15808">
        <ele>745</ele>
      </trkpt>
      <trkpt lat="36.74678" lon="-5.15843">
        <ele>735</ele>
      </trkpt>
      <trkpt lat="36.74658" lon="-5.15877">
        <ele>735</ele>
      </trkpt>
      <trkpt lat="36.74624" lon="-5.15934">
        <ele>740</ele>
      </trkpt>
      <trkpt lat="36.74605" lon="-5.15966">
        <ele>743</ele>
      </trkpt>
      <trkpt lat="36.74578" lon="-5.16015">
        <ele>742.5</ele>
      </trkpt>
      <trkpt lat="36.74548" lon="-5.16056">
        <ele>742</ele>
      </trkpt>
      <trkpt lat="36.74526" lon="-5.16091">
        <ele>741</ele>
      </trkpt>
      <trkpt lat="36.74497" lon="-5.16146">
        <ele>736</ele>
      </trkpt>
      <trkpt lat="36.74478" lon="-5.16179">
        <ele>733</ele>
      </trkpt>
      <trkpt lat="36.74451" lon="-5.16228">
        <ele>735</ele>
      </trkpt>
      <trkpt lat="36.74434" lon="-5.16258">
        <ele>737</ele>
      </trkpt>
      <trkpt lat="36.74413" lon="-5.16293">
        <ele>737</ele>
      </trkpt>
      <trkpt lat="36.7438" lon="-5.16345">
        <ele>730</ele>
      </trkpt>
      <trkpt lat="36.74362" lon="-5.16377">
        <ele>727</ele>
      </trkpt>
      <trkpt lat="36.74334" lon="-5.16425">
        <ele>724</ele>
      </trkpt>
      <trkpt lat="36.74312" lon="-5.16462">
        <ele>721</ele>
      </trkpt>
      <trkpt lat="36.74289" lon="-5.16498">
        <ele>719.5</ele>
      </trkpt>
      <trkpt lat="36.74265" lon="-5.16538">
        <ele>718</ele>
      </trkpt>
      <trkpt lat="36.74241" lon="-5.16579">
        <ele>718</ele>
      </trkpt>
      <trkpt lat="36.74215" lon="-5.16623">
        <ele>718</ele>
      </trkpt>
      <trkpt lat="36.74211" lon="-5.16636">
        <ele>718</ele>
      </trkpt>
      <trkpt lat="36.74223" lon="-5.16645">
        <ele>719.5</ele>
      </trkpt>
      <trkpt lat="36.7424" lon="-5.16651">
        <ele>721</ele>
      </trkpt>
      <trkpt lat="36.74252" lon="-5.16658">
        <ele>717.5</ele>
      </trkpt>
      <trkpt lat="36.74251" lon="-5.16671">
        <ele>714</ele>
      </trkpt>
      <trkpt lat="36.74257" lon="-5.16685">
        <ele>709.5</ele>
      </trkpt>
      <trkpt lat="36.74258" lon="-5.16699">
        <ele>705</ele>
      </trkpt>
      <trkpt lat="36.74256" lon="-5.16713">
        <ele>707.5</ele>
      </trkpt>
      <trkpt lat="36.74249" lon="-5.16721">
        <ele>710</ele>
      </trkpt>
      <trkpt lat="36.74239" lon="-5.16725">
        <ele>708.5</ele>
      </trkpt>
      <trkpt lat="36.74226" lon="-5.16723">
        <ele>707</ele>
      </trkpt>
      <trkpt lat="36.74213" lon="-5.16717">
        <ele>700</ele>
      </trkpt>
      <trkpt lat="36.74204" lon="-5.16701">
        <ele>694</ele>
      </trkpt>
      <trkpt lat="36.74203" lon="-5.16685">
        <ele>694</ele>
      </trkpt>
      <trkpt lat="36.74196" lon="-5.16673">
        <ele>694</ele>
      </trkpt>
      <trkpt lat="36.74196" lon="-5.16659">
        <ele>672</ele>
      </trkpt>
      <trkpt lat="36.74201" lon="-5.16649">
        <ele>662</ele>
      </trkpt>
      <trkpt lat="36.74202" lon="-5.16651">
        <ele>664</ele>
      </trkpt>
      <trkpt lat="36.74192" lon="-5.16649">
        <ele>666</ele>
      </trkpt>
      <trkpt lat="36.74172" lon="-5.16646">
        <ele>678</ele>
      </trkpt>
      <trkpt lat="36.74161" lon="-5.16645">
        <ele>690</ele>
      </trkpt>
      <trkpt lat="36.74153" lon="-5.16639">
        <ele>690</ele>
      </trkpt>
      <trkpt lat="36.74141" lon="-5.16631">
        <ele>694.5</ele>
      </trkpt>
      <trkpt lat="36.7413" lon="-5.16623">
        <ele>696.2</ele>
      </trkpt>
      <trkpt lat="36.7412" lon="-5.16618">
        <ele>696.6</ele>
      </trkpt>
      <trkpt lat="36.74108" lon="-5.16613">
        <ele>695.3</ele>
      </trkpt>
      <trkpt lat="36.74097" lon="-5.16608">
        <ele>694</ele>
      </trkpt>
      <trkpt lat="36.74084" lon="-5.16601">
        <ele>692</ele>
      </trkpt>
      <trkpt lat="36.74074" lon="-5.16594">
        <ele>689</ele>
      </trkpt>
      <trkpt lat="36.74065" lon="-5.16587">
        <ele>686</ele>
      </trkpt>
      <trkpt lat="36.74056" lon="-5.16581">
        <ele>690</ele>
      </trkpt>
      <trkpt lat="36.74049" lon="-5.16574">
        <ele>689.5</ele>
      </trkpt>
      <trkpt lat="36.7404" lon="-5.1657">
        <ele>689</ele>
      </trkpt>
      <trkpt lat="36.74029" lon="-5.16567">
        <ele>684</ele>
      </trkpt>
      <trkpt lat="36.74019" lon="-5.16567">
        <ele>677</ele>
      </trkpt>
      <trkpt lat="36.7401" lon="-5.16568">
        <ele>670</ele>
      </trkpt>
      <trkpt lat="36.74" lon="-5.16563">
        <ele>669.5</ele>
      </trkpt>
      <trkpt lat="36.74001" lon="-5.16541">
        <ele>669</ele>
      </trkpt>
      <trkpt lat="36.74003" lon="-5.16529">
        <ele>667</ele>
      </trkpt>
      <trkpt lat="36.74006" lon="-5.16517">
        <ele>665</ele>
      </trkpt>
      <trkpt lat="36.7401" lon="-5.16505">
        <ele>662</ele>
      </trkpt>
      <trkpt lat="36.74003" lon="-5.16475">
        <ele>661</ele>
      </trkpt>
      <trkpt lat="36.73993" lon="-5.16429">
        <ele>660.5</ele>
      </trkpt>
      <trkpt lat="36.73982" lon="-5.16397">
        <ele>664.2</ele>
      </trkpt>
      <trkpt lat="36.73977" lon="-5.16385">
        <ele>668</ele>
      </trkpt>
      <trkpt lat="36.73968" lon="-5.16379">
        <ele>668</ele>
      </trkpt>
      <trkpt lat="36.7396" lon="-5.16375">
        <ele>668</ele>
      </trkpt>
      <trkpt lat="36.7396" lon="-5.16388">
        <ele>668</ele>
      </trkpt>
      <trkpt lat="36.73956" lon="-5.16378">
        <ele>671</ele>
      </trkpt>
      <trkpt lat="36.73946" lon="-5.1637">
        <ele>677</ele>
      </trkpt>
      <trkpt lat="36.73936" lon="-5.16353">
        <ele>686</ele>
      </trkpt>
      <trkpt lat="36.73933" lon="-5.16333">
        <ele>690</ele>
      </trkpt>
      <trkpt lat="36.73944" lon="-5.16328">
        <ele>699</ele>
      </trkpt>
      <trkpt lat="36.73957" lon="-5.16319">
        <ele>696</ele>
      </trkpt>
      <trkpt lat="36.73968" lon="-5.16313">
        <ele>693</ele>
      </trkpt>
      <trkpt lat="36.73982" lon="-5.16305">
        <ele>693</ele>
      </trkpt>
      <trkpt lat="36.73994" lon="-5.16294">
        <ele>694</ele>
      </trkpt>
      <trkpt lat="36.74004" lon="-5.16284">
        <ele>694</ele>
      </trkpt>
      <trkpt lat="36.74012" lon="-5.16275">
        <ele>694</ele>
      </trkpt>
      <trkpt lat="36.74019" lon="-5.16265">
        <ele>693</ele>
      </trkpt>
      <trkpt lat="36.74025" lon="-5.16255">
        <ele>693</ele>
      </trkpt>
      <trkpt lat="36.74033" lon="-5.16244">
        <ele>695</ele>
      </trkpt>
      <trkpt lat="36.7404" lon="-5.16234">
        <ele>695</ele>
      </trkpt>
      <trkpt lat="36.74046" lon="-5.16221">
        <ele>693</ele>
      </trkpt>
      <trkpt lat="36.74053" lon="-5.16213">
        <ele>693</ele>
      </trkpt>
      <trkpt lat="36.74061" lon="-5.16202">
        <ele>695</ele>
      </trkpt>
      <trkpt lat="36.74069" lon="-5.16188">
        <ele>697</ele>
      </trkpt>
      <trkpt lat="36.74076" lon="-5.16177">
        <ele>697.5</ele>
      </trkpt>
      <trkpt lat="36.74083" lon="-5.16166">
        <ele>696.7</ele>
      </trkpt>
      <trkpt lat="36.7409" lon="-5.16156">
        <ele>696</ele>
      </trkpt>
      <trkpt lat="36.74095" lon="-5.16142">
        <ele>696</ele>
      </trkpt>
      <trkpt lat="36.74102" lon="-5.16129">
        <ele>697</ele>
      </trkpt>
      <trkpt lat="36.74104" lon="-5.16115">
        <ele>696</ele>
      </trkpt>
      <trkpt lat="36.74099" lon="-5.16103">
        <ele>696</ele>
      </trkpt>
      <trkpt lat="36.74102" lon="-5.16091">
        <ele>696</ele>
      </trkpt>
      <trkpt lat="36.74108" lon="-5.16082">
        <ele>693</ele>
      </trkpt>
      <trkpt lat="36.74112" lon="-5.16073">
        <ele>691</ele>
      </trkpt>
      <trkpt lat="36.74118" lon="-5.16061">
        <ele>689</ele>
      </trkpt>
      <trkpt lat="36.74124" lon="-5.16048">
        <ele>689</ele>
      </trkpt>
      <trkpt lat="36.7413" lon="-5.16036">
        <ele>695</ele>
      </trkpt>
      <trkpt lat="36.74134" lon="-5.16025">
        <ele>695</ele>
      </trkpt>
      <trkpt lat="36.7414" lon="-5.16015">
        <ele>695.5</ele>
      </trkpt>
      <trkpt lat="36.74147" lon="-5.16002">
        <ele>692.2</ele>
      </trkpt>
      <trkpt lat="36.74157" lon="-5.15995">
        <ele>689</ele>
      </trkpt>
      <trkpt lat="36.74162" lon="-5.15986">
        <ele>689.5</ele>
      </trkpt>
      <trkpt lat="36.74162" lon="-5.15969">
        <ele>690</ele>
      </trkpt>
      <trkpt lat="36.74161" lon="-5.15957">
        <ele>690</ele>
      </trkpt>
      <trkpt lat="36.74163" lon="-5.15943">
        <ele>693</ele>
      </trkpt>
      <trkpt lat="36.74164" lon="-5.15926">
        <ele>693</ele>
      </trkpt>
      <trkpt lat="36.74162" lon="-5.1591">
        <ele>691</ele>
      </trkpt>
      <trkpt lat="36.74158" lon="-5.15891">
        <ele>689</ele>
      </trkpt>
      <trkpt lat="36.74156" lon="-5.15875">
        <ele>688</ele>
      </trkpt>
      <trkpt lat="36.74152" lon="-5.1586">
        <ele>688</ele>
      </trkpt>
      <trkpt lat="36.74148" lon="-5.15842">
        <ele>688</ele>
      </trkpt>
      <trkpt lat="36.74143" lon="-5.15822">
        <ele>689</ele>
      </trkpt>
      <trkpt lat="36.7414" lon="-5.15811">
        <ele>691</ele>
      </trkpt>
      <trkpt lat="36.74137" lon="-5.158">
        <ele>692</ele>
      </trkpt>
      <trkpt lat="36.74132" lon="-5.15787">
        <ele>694</ele>
      </trkpt>
      <trkpt lat="36.7413" lon="-5.15774">
        <ele>694</ele>
      </trkpt>
      <trkpt lat="36.74127" lon="-5.15762">
        <ele>694</ele>
      </trkpt>
      <trkpt lat="36.74124" lon="-5.1575">
        <ele>694</ele>
      </trkpt>
      <trkpt lat="36.74121" lon="-5.15739">
        <ele>694</ele>
      </trkpt>
      <trkpt lat="36.74113" lon="-5.15724">
        <ele>698</ele>
      </trkpt>
      <trkpt lat="36.7411" lon="-5.15711">
        <ele>699</ele>
      </trkpt>
      <trkpt lat="36.74108" lon="-5.15696">
        <ele>701</ele>
      </trkpt>
      <trkpt lat="36.74113" lon="-5.15683">
        <ele>701</ele>
      </trkpt>
      <trkpt lat="36.74118" lon="-5.15661">
        <ele>707</ele>
      </trkpt>
      <trkpt lat="36.74121" lon="-5.15634">
        <ele>707</ele>
      </trkpt>
      <trkpt lat="36.74118" lon="-5.15614">
        <ele>706</ele>
      </trkpt>
      <trkpt lat="36.74114" lon="-5.15595">
        <ele>705</ele>
      </trkpt>
      <trkpt lat="36.74105" lon="-5.15576">
        <ele>703</ele>
      </trkpt>
      <trkpt lat="36.741" lon="-5.15566">
        <ele>694</ele>
      </trkpt>
      <trkpt lat="36.74095" lon="-5.15556">
        <ele>690</ele>
      </trkpt>
      <trkpt lat="36.74089" lon="-5.15546">
        <ele>689</ele>
      </trkpt>
      <trkpt lat="36.74084" lon="-5.15536">
        <ele>689</ele>
      </trkpt>
      <trkpt lat="36.74078" lon="-5.15526">
        <ele>691</ele>
      </trkpt>
      <trkpt lat="36.74068" lon="-5.15507">
        <ele>694</ele>
      </trkpt>
      <trkpt lat="36.74056" lon="-5.15491">
        <ele>696</ele>
      </trkpt>
      <trkpt lat="36.74051" lon="-5.15482">
        <ele>698</ele>
      </trkpt>
      <trkpt lat="36.74045" lon="-5.15473">
        <ele>700</ele>
      </trkpt>
      <trkpt lat="36.74035" lon="-5.15455">
        <ele>700</ele>
      </trkpt>
      <trkpt lat="36.7403" lon="-5.15445">
        <ele>700</ele>
      </trkpt>
      <trkpt lat="36.74024" lon="-5.15436">
        <ele>704</ele>
      </trkpt>
      <trkpt lat="36.74018" lon="-5.15428">
        <ele>706</ele>
      </trkpt>
      <trkpt lat="36.74005" lon="-5.15412">
        <ele>708</ele>
      </trkpt>
      <trkpt lat="36.73994" lon="-5.15398">
        <ele>710</ele>
      </trkpt>
      <trkpt lat="36.73986" lon="-5.15382">
        <ele>710</ele>
      </trkpt>
      <trkpt lat="36.73978" lon="-5.15363">
        <ele>711</ele>
      </trkpt>
      <trkpt lat="36.73971" lon="-5.15346">
        <ele>715</ele>
      </trkpt>
      <trkpt lat="36.73964" lon="-5.1533">
        <ele>715</ele>
      </trkpt>
      <trkpt lat="36.73958" lon="-5.15313">
        <ele>719</ele>
      </trkpt>
      <trkpt lat="36.73952" lon="-5.15297">
        <ele>724</ele>
      </trkpt>
      <trkpt lat="36.73945" lon="-5.15281">
        <ele>727</ele>
      </trkpt>
      <trkpt lat="36.73938" lon="-5.15265">
        <ele>730</ele>
      </trkpt>
      <trkpt lat="36.73932" lon="-5.15247">
        <ele>732</ele>
      </trkpt>
      <trkpt lat="36.73926" lon="-5.15227">
        <ele>735</ele>
      </trkpt>
      <trkpt lat="36.73919" lon="-5.15207">
        <ele>737</ele>
      </trkpt>
      <trkpt lat="36.73914" lon="-5.15185">
        <ele>740</ele>
      </trkpt>
      <trkpt lat="36.73911" lon="-5.15174">
        <ele>741</ele>
      </trkpt>
      <trkpt lat="36.73908" lon="-5.15163">
        <ele>740</ele>
      </trkpt>
      <trkpt lat="36.73905" lon="-5.15152">
        <ele>742</ele>
      </trkpt>
      <trkpt lat="36.73902" lon="-5.1514">
        <ele>744</ele>
      </trkpt>
      <trkpt lat="36.739" lon="-5.15129">
        <ele>744</ele>
      </trkpt>
      <trkpt lat="36.73898" lon="-5.15117">
        <ele>741</ele>
      </trkpt>
      <trkpt lat="36.73893" lon="-5.15101">
        <ele>739.5</ele>
      </trkpt>
      <trkpt lat="36.73888" lon="-5.15085">
        <ele>741.7</ele>
      </trkpt>
      <trkpt lat="36.73885" lon="-5.15071">
        <ele>744</ele>
      </trkpt>
      <trkpt lat="36.73884" lon="-5.15057">
        <ele>745</ele>
      </trkpt>
      <trkpt lat="36.73888" lon="-5.15046">
        <ele>746</ele>
      </trkpt>
      <trkpt lat="36.73891" lon="-5.15034">
        <ele>747</ele>
      </trkpt>
      <trkpt lat="36.73894" lon="-5.15021">
        <ele>748</ele>
      </trkpt>
      <trkpt lat="36.73898" lon="-5.15005">
        <ele>749</ele>
      </trkpt>
      <trkpt lat="36.73902" lon="-5.14988">
        <ele>749</ele>
      </trkpt>
      <trkpt lat="36.73906" lon="-5.1497">
        <ele>749</ele>
      </trkpt>
      <trkpt lat="36.73912" lon="-5.14955">
        <ele>749</ele>
      </trkpt>
      <trkpt lat="36.73916" lon="-5.14941">
        <ele>747</ele>
      </trkpt>
      <trkpt lat="36.7392" lon="-5.14928">
        <ele>746</ele>
      </trkpt>
      <trkpt lat="36.73924" lon="-5.14916">
        <ele>743</ele>
      </trkpt>
      <trkpt lat="36.73925" lon="-5.14905">
        <ele>743</ele>
      </trkpt>
      <trkpt lat="36.7393" lon="-5.14895">
        <ele>741</ele>
      </trkpt>
      <trkpt lat="36.73942" lon="-5.14894">
        <ele>739</ele>
      </trkpt>
      <trkpt lat="36.73954" lon="-5.14891">
        <ele>734</ele>
      </trkpt>
      <trkpt lat="36.73968" lon="-5.14888">
        <ele>729</ele>
      </trkpt>
      <trkpt lat="36.73984" lon="-5.14884">
        <ele>724</ele>
      </trkpt>
      <trkpt lat="36.74001" lon="-5.1488">
        <ele>721</ele>
      </trkpt>
      <trkpt lat="36.74018" lon="-5.14877">
        <ele>721</ele>
      </trkpt>
      <trkpt lat="36.74033" lon="-5.1487">
        <ele>718</ele>
      </trkpt>
      <trkpt lat="36.74046" lon="-5.14862">
        <ele>710</ele>
      </trkpt>
      <trkpt lat="36.74059" lon="-5.14853">
        <ele>711</ele>
      </trkpt>
      <trkpt lat="36.74071" lon="-5.14846">
        <ele>712</ele>
      </trkpt>
      <trkpt lat="36.74083" lon="-5.14842">
        <ele>712.5</ele>
      </trkpt>
      <trkpt lat="36.74093" lon="-5.1484">
        <ele>712.2</ele>
      </trkpt>
      <trkpt lat="36.741" lon="-5.14832">
        <ele>712.6</ele>
      </trkpt>
      <trkpt lat="36.74103" lon="-5.14822">
        <ele>710.3</ele>
      </trkpt>
      <trkpt lat="36.74092" lon="-5.14808">
        <ele>709.6</ele>
      </trkpt>
      <trkpt lat="36.74076" lon="-5.14813">
        <ele>709</ele>
      </trkpt>
      <trkpt lat="36.7406" lon="-5.14816">
        <ele>708</ele>
      </trkpt>
      <trkpt lat="36.74044" lon="-5.14816">
        <ele>708</ele>
      </trkpt>
      <trkpt lat="36.74028" lon="-5.14817">
        <ele>717</ele>
      </trkpt>
      <trkpt lat="36.74012" lon="-5.14817">
        <ele>724</ele>
      </trkpt>
      <trkpt lat="36.73996" lon="-5.14818">
        <ele>725</ele>
      </trkpt>
      <trkpt lat="36.7398" lon="-5.14817">
        <ele>726.5</ele>
      </trkpt>
      <trkpt lat="36.73965" lon="-5.14817">
        <ele>728</ele>
      </trkpt>
      <trkpt lat="36.73954" lon="-5.14819">
        <ele>731</ele>
      </trkpt>
      <trkpt lat="36.73949" lon="-5.14807">
        <ele>734</ele>
      </trkpt>
      <trkpt lat="36.73951" lon="-5.14792">
        <ele>736</ele>
      </trkpt>
      <trkpt lat="36.73953" lon="-5.1478">
        <ele>741</ele>
      </trkpt>
      <trkpt lat="36.73956" lon="-5.14766">
        <ele>746</ele>
      </trkpt>
      <trkpt lat="36.73958" lon="-5.14749">
        <ele>747</ele>
      </trkpt>
      <trkpt lat="36.73963" lon="-5.14728">
        <ele>758</ele>
      </trkpt>
      <trkpt lat="36.73965" lon="-5.14717">
        <ele>764</ele>
      </trkpt>
      <trkpt lat="36.73969" lon="-5.14696">
        <ele>764</ele>
      </trkpt>
      <trkpt lat="36.73973" lon="-5.14675">
        <ele>767.5</ele>
      </trkpt>
      <trkpt lat="36.73975" lon="-5.14664">
        <ele>771</ele>
      </trkpt>
      <trkpt lat="36.73981" lon="-5.14643">
        <ele>784</ele>
      </trkpt>
      <trkpt lat="36.73986" lon="-5.1462">
        <ele>784</ele>
      </trkpt>
      <trkpt lat="36.73989" lon="-5.1461">
        <ele>782</ele>
      </trkpt>
      <trkpt lat="36.73992" lon="-5.14598">
        <ele>782</ele>
      </trkpt>
      <trkpt lat="36.73994" lon="-5.14587">
        <ele>782</ele>
      </trkpt>
      <trkpt lat="36.73997" lon="-5.14566">
        <ele>784</ele>
      </trkpt>
      <trkpt lat="36.73997" lon="-5.14554">
        <ele>784.5</ele>
      </trkpt>
      <trkpt lat="36.73997" lon="-5.14533">
        <ele>785</ele>
      </trkpt>
      <trkpt lat="36.73996" lon="-5.1452">
        <ele>789</ele>
      </trkpt>
      <trkpt lat="36.73994" lon="-5.14508">
        <ele>795</ele>
      </trkpt>
      <trkpt lat="36.73993" lon="-5.14497">
        <ele>797</ele>
      </trkpt>
      <trkpt lat="36.73991" lon="-5.14485">
        <ele>799</ele>
      </trkpt>
      <trkpt lat="36.7399" lon="-5.14474">
        <ele>800</ele>
      </trkpt>
      <trkpt lat="36.73989" lon="-5.14462">
        <ele>800</ele>
      </trkpt>
      <trkpt lat="36.73987" lon="-5.14442">
        <ele>800</ele>
      </trkpt>
      <trkpt lat="36.73987" lon="-5.1443">
        <ele>799</ele>
      </trkpt>
      <trkpt lat="36.73987" lon="-5.14418">
        <ele>799</ele>
      </trkpt>
      <trkpt lat="36.73987" lon="-5.14407">
        <ele>799</ele>
      </trkpt>
      <trkpt lat="36.73987" lon="-5.14395">
        <ele>797</ele>
      </trkpt>
      <trkpt lat="36.73986" lon="-5.14382">
        <ele>795</ele>
      </trkpt>
      <trkpt lat="36.73985" lon="-5.1437">
        <ele>785</ele>
      </trkpt>
      <trkpt lat="36.73988" lon="-5.14352">
        <ele>783</ele>
      </trkpt>
      <trkpt lat="36.73991" lon="-5.14333">
        <ele>783.5</ele>
      </trkpt>
      <trkpt lat="36.73992" lon="-5.14314">
        <ele>784</ele>
      </trkpt>
      <trkpt lat="36.7399" lon="-5.14293">
        <ele>785.5</ele>
      </trkpt>
      <trkpt lat="36.7399" lon="-5.14273">
        <ele>782.2</ele>
      </trkpt>
      <trkpt lat="36.7399" lon="-5.14253">
        <ele>781.1</ele>
      </trkpt>
      <trkpt lat="36.73988" lon="-5.14241">
        <ele>785</ele>
      </trkpt>
      <trkpt lat="36.73987" lon="-5.1422">
        <ele>786</ele>
      </trkpt>
      <trkpt lat="36.73983" lon="-5.14207">
        <ele>786</ele>
      </trkpt>
      <trkpt lat="36.73979" lon="-5.14195">
        <ele>786</ele>
      </trkpt>
      <trkpt lat="36.73975" lon="-5.14174">
        <ele>775</ele>
      </trkpt>
      <trkpt lat="36.7397" lon="-5.14154">
        <ele>775.5</ele>
      </trkpt>
      <trkpt lat="36.73968" lon="-5.14142">
        <ele>773.7</ele>
      </trkpt>
      <trkpt lat="36.73964" lon="-5.14121">
        <ele>775.8</ele>
      </trkpt>
      <trkpt lat="36.73962" lon="-5.1411">
        <ele>775.9</ele>
      </trkpt>
      <trkpt lat="36.73959" lon="-5.14099">
        <ele>776</ele>
      </trkpt>
      <trkpt lat="36.73957" lon="-5.14088">
        <ele>777</ele>
      </trkpt>
      <trkpt lat="36.73955" lon="-5.14077">
        <ele>777.5</ele>
      </trkpt>
      <trkpt lat="36.73953" lon="-5.14066">
        <ele>778</ele>
      </trkpt>
      <trkpt lat="36.73951" lon="-5.14055">
        <ele>778</ele>
      </trkpt>
      <trkpt lat="36.73948" lon="-5.14031">
        <ele>778.5</ele>
      </trkpt>
      <trkpt lat="36.73946" lon="-5.13979">
        <ele>779</ele>
      </trkpt>
      <trkpt lat="36.73943" lon="-5.13927">
        <ele>779.5</ele>
      </trkpt>
      <trkpt lat="36.7394" lon="-5.13875">
        <ele>780</ele>
      </trkpt>
      <trkpt lat="36.73936" lon="-5.13801">
        <ele>784</ele>
      </trkpt>
      <trkpt lat="36.73935" lon="-5.13766">
        <ele>788</ele>
      </trkpt>
      <trkpt lat="36.73933" lon="-5.13726">
        <ele>794</ele>
      </trkpt>
      <trkpt lat="36.73928" lon="-5.13687">
        <ele>795.5</ele>
      </trkpt>
      <trkpt lat="36.73916" lon="-5.13636">
        <ele>792.7</ele>
      </trkpt>
      <trkpt lat="36.73905" lon="-5.13602">
        <ele>790</ele>
      </trkpt>
      <trkpt lat="36.73893" lon="-5.13564">
        <ele>786</ele>
      </trkpt>
      <trkpt lat="36.73906" lon="-5.13523">
        <ele>784</ele>
      </trkpt>
      <trkpt lat="36.73931" lon="-5.13484">
        <ele>778</ele>
      </trkpt>
      <trkpt lat="36.73928" lon="-5.13467">
        <ele>774</ele>
      </trkpt>
      <trkpt lat="36.7389" lon="-5.13376">
        <ele>774</ele>
      </trkpt>
      <trkpt lat="36.73878" lon="-5.13345">
        <ele>772</ele>
      </trkpt>
      <trkpt lat="36.73866" lon="-5.13311">
        <ele>769</ele>
      </trkpt>
      <trkpt lat="36.73862" lon="-5.13293">
        <ele>767</ele>
      </trkpt>
      <trkpt lat="36.73859" lon="-5.1328">
        <ele>764</ele>
      </trkpt>
      <trkpt lat="36.73858" lon="-5.13268">
        <ele>764</ele>
      </trkpt>
      <trkpt lat="36.73858" lon="-5.13254">
        <ele>764.5</ele>
      </trkpt>
      <trkpt lat="36.73857" lon="-5.13243">
        <ele>765</ele>
      </trkpt>
      <trkpt lat="36.73855" lon="-5.13229">
        <ele>767.5</ele>
      </trkpt>
      <trkpt lat="36.73853" lon="-5.13214">
        <ele>764.7</ele>
      </trkpt>
      <trkpt lat="36.73851" lon="-5.132">
        <ele>762</ele>
      </trkpt>
      <trkpt lat="36.73846" lon="-5.13187">
        <ele>758</ele>
      </trkpt>
      <trkpt lat="36.73841" lon="-5.13177">
        <ele>756</ele>
      </trkpt>
      <trkpt lat="36.73832" lon="-5.13166">
        <ele>756</ele>
      </trkpt>
      <trkpt lat="36.73823" lon="-5.13155">
        <ele>760</ele>
      </trkpt>
      <trkpt lat="36.73813" lon="-5.13143">
        <ele>763</ele>
      </trkpt>
      <trkpt lat="36.73804" lon="-5.13131">
        <ele>765.5</ele>
      </trkpt>
      <trkpt lat="36.73795" lon="-5.1312">
        <ele>768</ele>
      </trkpt>
      <trkpt lat="36.73788" lon="-5.13112">
        <ele>773.5</ele>
      </trkpt>
      <trkpt lat="36.73778" lon="-5.13105">
        <ele>779</ele>
      </trkpt>
      <trkpt lat="36.73754" lon="-5.13082">
        <ele>783</ele>
      </trkpt>
      <trkpt lat="36.73735" lon="-5.13046">
        <ele>784</ele>
      </trkpt>
      <trkpt lat="36.7373" lon="-5.13023">
        <ele>793</ele>
      </trkpt>
      <trkpt lat="36.73727" lon="-5.13008">
        <ele>792</ele>
      </trkpt>
      <trkpt lat="36.73724" lon="-5.12995">
        <ele>799</ele>
      </trkpt>
      <trkpt lat="36.73718" lon="-5.12983">
        <ele>806</ele>
      </trkpt>
      <trkpt lat="36.73714" lon="-5.12969">
        <ele>810</ele>
      </trkpt>
      <trkpt lat="36.73706" lon="-5.12951">
        <ele>810</ele>
      </trkpt>
      <trkpt lat="36.73699" lon="-5.12938">
        <ele>812</ele>
      </trkpt>
      <trkpt lat="36.73696" lon="-5.12927">
        <ele>812</ele>
      </trkpt>
      <trkpt lat="36.7369" lon="-5.12915">
        <ele>811</ele>
      </trkpt>
      <trkpt lat="36.73687" lon="-5.12898">
        <ele>809</ele>
      </trkpt>
      <trkpt lat="36.73681" lon="-5.12888">
        <ele>809</ele>
      </trkpt>
      <trkpt lat="36.73677" lon="-5.12877">
        <ele>809</ele>
      </trkpt>
      <trkpt lat="36.73671" lon="-5.12867">
        <ele>811</ele>
      </trkpt>
      <trkpt lat="36.73663" lon="-5.12857">
        <ele>813</ele>
      </trkpt>
      <trkpt lat="36.73654" lon="-5.12849">
        <ele>816</ele>
      </trkpt>
      <trkpt lat="36.73644" lon="-5.12841">
        <ele>818</ele>
      </trkpt>
      <trkpt lat="36.73632" lon="-5.12834">
        <ele>819</ele>
      </trkpt>
      <trkpt lat="36.73621" lon="-5.12826">
        <ele>825</ele>
      </trkpt>
      <trkpt lat="36.73609" lon="-5.12819">
        <ele>823.5</ele>
      </trkpt>
      <trkpt lat="36.73599" lon="-5.12813">
        <ele>823.7</ele>
      </trkpt>
      <trkpt lat="36.73591" lon="-5.12805">
        <ele>824</ele>
      </trkpt>
      <trkpt lat="36.73584" lon="-5.12794">
        <ele>824</ele>
      </trkpt>
      <trkpt lat="36.7358" lon="-5.12781">
        <ele>823</ele>
      </trkpt>
      <trkpt lat="36.73576" lon="-5.12768">
        <ele>823.5</ele>
      </trkpt>
      <trkpt lat="36.73574" lon="-5.12754">
        <ele>822.2</ele>
      </trkpt>
      <trkpt lat="36.73576" lon="-5.12739">
        <ele>821</ele>
      </trkpt>
      <trkpt lat="36.73576" lon="-5.12725">
        <ele>820.5</ele>
      </trkpt>
      <trkpt lat="36.73576" lon="-5.1271">
        <ele>820.7</ele>
      </trkpt>
      <trkpt lat="36.73576" lon="-5.12695">
        <ele>821</ele>
      </trkpt>
      <trkpt lat="36.73577" lon="-5.12681">
        <ele>820.5</ele>
      </trkpt>
      <trkpt lat="36.73577" lon="-5.12668">
        <ele>820</ele>
      </trkpt>
      <trkpt lat="36.73578" lon="-5.12654">
        <ele>816</ele>
      </trkpt>
      <trkpt lat="36.73578" lon="-5.1264">
        <ele>812</ele>
      </trkpt>
      <trkpt lat="36.73576" lon="-5.12627">
        <ele>814</ele>
      </trkpt>
      <trkpt lat="36.73575" lon="-5.12611">
        <ele>810.5</ele>
      </trkpt>
      <trkpt lat="36.73571" lon="-5.12599">
        <ele>807</ele>
      </trkpt>
      <trkpt lat="36.73563" lon="-5.12586">
        <ele>806</ele>
      </trkpt>
      <trkpt lat="36.73557" lon="-5.12575">
        <ele>805</ele>
      </trkpt>
      <trkpt lat="36.73551" lon="-5.12566">
        <ele>798</ele>
      </trkpt>
      <trkpt lat="36.73545" lon="-5.12556">
        <ele>795</ele>
      </trkpt>
      <trkpt lat="36.73538" lon="-5.12547">
        <ele>793.5</ele>
      </trkpt>
      <trkpt lat="36.73521" lon="-5.12525">
        <ele>792</ele>
      </trkpt>
      <trkpt lat="36.73492" lon="-5.12489">
        <ele>790.5</ele>
      </trkpt>
      <trkpt lat="36.73476" lon="-5.12459">
        <ele>792.2</ele>
      </trkpt>
      <trkpt lat="36.73472" lon="-5.12445">
        <ele>794</ele>
      </trkpt>
      <trkpt lat="36.73469" lon="-5.1243">
        <ele>793.5</ele>
      </trkpt>
      <trkpt lat="36.73467" lon="-5.12418">
        <ele>793</ele>
      </trkpt>
      <trkpt lat="36.73465" lon="-5.12396">
        <ele>791</ele>
      </trkpt>
      <trkpt lat="36.73459" lon="-5.12383">
        <ele>791.5</ele>
      </trkpt>
      <trkpt lat="36.73453" lon="-5.12369">
        <ele>790.2</ele>
      </trkpt>
      <trkpt lat="36.73446" lon="-5.12359">
        <ele>790.6</ele>
      </trkpt>
      <trkpt lat="36.73439" lon="-5.12349">
        <ele>791</ele>
      </trkpt>
      <trkpt lat="36.73432" lon="-5.1234">
        <ele>793</ele>
      </trkpt>
      <trkpt lat="36.73423" lon="-5.12331">
        <ele>800</ele>
      </trkpt>
      <trkpt lat="36.73415" lon="-5.12326">
        <ele>803</ele>
      </trkpt>
      <trkpt lat="36.73405" lon="-5.1232">
        <ele>807</ele>
      </trkpt>
      <trkpt lat="36.73396" lon="-5.12315">
        <ele>810</ele>
      </trkpt>
      <trkpt lat="36.73386" lon="-5.12311">
        <ele>814</ele>
      </trkpt>
      <trkpt lat="36.73377" lon="-5.12301">
        <ele>819.5</ele>
      </trkpt>
      <trkpt lat="36.73368" lon="-5.12291">
        <ele>825</ele>
      </trkpt>
      <trkpt lat="36.73359" lon="-5.1228">
        <ele>825</ele>
      </trkpt>
      <trkpt lat="36.7335" lon="-5.12269">
        <ele>827</ele>
      </trkpt>
      <trkpt lat="36.7334" lon="-5.12257">
        <ele>827</ele>
      </trkpt>
      <trkpt lat="36.73331" lon="-5.12246">
        <ele>835.5</ele>
      </trkpt>
      <trkpt lat="36.73319" lon="-5.12232">
        <ele>837.7</ele>
      </trkpt>
      <trkpt lat="36.73311" lon="-5.12221">
        <ele>840</ele>
      </trkpt>
      <trkpt lat="36.73302" lon="-5.12209">
        <ele>841</ele>
      </trkpt>
      <trkpt lat="36.73295" lon="-5.122">
        <ele>841.5</ele>
      </trkpt>
      <trkpt lat="36.73291" lon="-5.1219">
        <ele>842</ele>
      </trkpt>
      <trkpt lat="36.73281" lon="-5.12169">
        <ele>842</ele>
      </trkpt>
      <trkpt lat="36.73272" lon="-5.12135">
        <ele>838</ele>
      </trkpt>
      <trkpt lat="36.7327" lon="-5.12114">
        <ele>838</ele>
      </trkpt>
      <trkpt lat="36.73263" lon="-5.12104">
        <ele>836</ele>
      </trkpt>
      <trkpt lat="36.73263" lon="-5.12085">
        <ele>837</ele>
      </trkpt>
      <trkpt lat="36.73261" lon="-5.12073">
        <ele>834</ele>
      </trkpt>
      <trkpt lat="36.73254" lon="-5.12064">
        <ele>831</ele>
      </trkpt>
      <trkpt lat="36.73242" lon="-5.12066">
        <ele>831</ele>
      </trkpt>
      <trkpt lat="36.73233" lon="-5.12069">
        <ele>826</ele>
      </trkpt>
      <trkpt lat="36.73223" lon="-5.12071">
        <ele>819</ele>
      </trkpt>
      <trkpt lat="36.73211" lon="-5.12074">
        <ele>816</ele>
      </trkpt>
      <trkpt lat="36.73202" lon="-5.12076">
        <ele>810</ele>
      </trkpt>
      <trkpt lat="36.73188" lon="-5.12078">
        <ele>805</ele>
      </trkpt>
      <trkpt lat="36.73179" lon="-5.1208">
        <ele>800</ele>
      </trkpt>
      <trkpt lat="36.73166" lon="-5.12083">
        <ele>793</ele>
      </trkpt>
      <trkpt lat="36.73153" lon="-5.12086">
        <ele>793</ele>
      </trkpt>
      <trkpt lat="36.73142" lon="-5.12084">
        <ele>792</ele>
      </trkpt>
      <trkpt lat="36.73133" lon="-5.12085">
        <ele>790</ele>
      </trkpt>
      <trkpt lat="36.73123" lon="-5.1209">
        <ele>786</ele>
      </trkpt>
      <trkpt lat="36.73113" lon="-5.12092">
        <ele>782</ele>
      </trkpt>
      <trkpt lat="36.73105" lon="-5.12084">
        <ele>775</ele>
      </trkpt>
      <trkpt lat="36.73101" lon="-5.1207">
        <ele>775.5</ele>
      </trkpt>
      <trkpt lat="36.73104" lon="-5.12057">
        <ele>776</ele>
      </trkpt>
      <trkpt lat="36.73103" lon="-5.12044">
        <ele>780</ele>
      </trkpt>
      <trkpt lat="36.73097" lon="-5.12035">
        <ele>783</ele>
      </trkpt>
      <trkpt lat="36.73088" lon="-5.12026">
        <ele>783</ele>
      </trkpt>
      <trkpt lat="36.7308" lon="-5.12019">
        <ele>783</ele>
      </trkpt>
      <trkpt lat="36.73072" lon="-5.12012">
        <ele>783</ele>
      </trkpt>
      <trkpt lat="36.73065" lon="-5.12003">
        <ele>782</ele>
      </trkpt>
      <trkpt lat="36.73058" lon="-5.1199">
        <ele>781</ele>
      </trkpt>
      <trkpt lat="36.73058" lon="-5.11977">
        <ele>781</ele>
      </trkpt>
      <trkpt lat="36.73059" lon="-5.11965">
        <ele>781</ele>
      </trkpt>
      <trkpt lat="36.73062" lon="-5.11953">
        <ele>786</ele>
      </trkpt>
      <trkpt lat="36.73066" lon="-5.1194">
        <ele>787</ele>
      </trkpt>
      <trkpt lat="36.73071" lon="-5.11929">
        <ele>791</ele>
      </trkpt>
      <trkpt lat="36.73075" lon="-5.11917">
        <ele>795</ele>
      </trkpt>
      <trkpt lat="36.73079" lon="-5.11905">
        <ele>797</ele>
      </trkpt>
      <trkpt lat="36.73084" lon="-5.11894">
        <ele>799</ele>
      </trkpt>
      <trkpt lat="36.73089" lon="-5.11884">
        <ele>802</ele>
      </trkpt>
      <trkpt lat="36.7309" lon="-5.11869">
        <ele>803</ele>
      </trkpt>
      <trkpt lat="36.73088" lon="-5.11854">
        <ele>803</ele>
      </trkpt>
      <trkpt lat="36.73087" lon="-5.11839">
        <ele>806</ele>
      </trkpt>
      <trkpt lat="36.73085" lon="-5.11828">
        <ele>811</ele>
      </trkpt>
      <trkpt lat="36.73082" lon="-5.11814">
        <ele>810.5</ele>
      </trkpt>
      <trkpt lat="36.73075" lon="-5.11802">
        <ele>810</ele>
      </trkpt>
      <trkpt lat="36.73071" lon="-5.11791">
        <ele>807</ele>
      </trkpt>
      <trkpt lat="36.73067" lon="-5.11779">
        <ele>806</ele>
      </trkpt>
      <trkpt lat="36.73061" lon="-5.11764">
        <ele>806</ele>
      </trkpt>
      <trkpt lat="36.73054" lon="-5.11751">
        <ele>806</ele>
      </trkpt>
      <trkpt lat="36.73048" lon="-5.11743">
        <ele>809</ele>
      </trkpt>
      <trkpt lat="36.73037" lon="-5.11735">
        <ele>815</ele>
      </trkpt>
      <trkpt lat="36.73027" lon="-5.11725">
        <ele>815</ele>
      </trkpt>
      <trkpt lat="36.7302" lon="-5.11715">
        <ele>816</ele>
      </trkpt>
      <trkpt lat="36.73013" lon="-5.11707">
        <ele>815.5</ele>
      </trkpt>
      <trkpt lat="36.73007" lon="-5.11697">
        <ele>815</ele>
      </trkpt>
      <trkpt lat="36.72995" lon="-5.11656">
        <ele>811</ele>
      </trkpt>
      <trkpt lat="36.72994" lon="-5.11615">
        <ele>807</ele>
      </trkpt>
      <trkpt lat="36.73" lon="-5.116">
        <ele>803</ele>
      </trkpt>
      <trkpt lat="36.73006" lon="-5.11585">
        <ele>803</ele>
      </trkpt>
      <trkpt lat="36.72995" lon="-5.11589">
        <ele>800</ele>
      </trkpt>
      <trkpt lat="36.72986" lon="-5.1159">
        <ele>799</ele>
      </trkpt>
      <trkpt lat="36.72981" lon="-5.11591">
        <ele>797</ele>
      </trkpt>
      <trkpt lat="36.72976" lon="-5.11596">
        <ele>794</ele>
      </trkpt>
      <trkpt lat="36.72971" lon="-5.11607">
        <ele>794</ele>
      </trkpt>
      <trkpt lat="36.7297" lon="-5.11619">
        <ele>794</ele>
      </trkpt>
      <trkpt lat="36.72965" lon="-5.11631">
        <ele>793</ele>
      </trkpt>
      <trkpt lat="36.7296" lon="-5.11642">
        <ele>790</ele>
      </trkpt>
      <trkpt lat="36.72954" lon="-5.1165">
        <ele>790</ele>
      </trkpt>
      <trkpt lat="36.72946" lon="-5.11657">
        <ele>789.5</ele>
      </trkpt>
      <trkpt lat="36.72939" lon="-5.11665">
        <ele>789</ele>
      </trkpt>
      <trkpt lat="36.7293" lon="-5.11669">
        <ele>789</ele>
      </trkpt>
      <trkpt lat="36.72921" lon="-5.1167">
        <ele>789</ele>
      </trkpt>
      <trkpt lat="36.72911" lon="-5.11671">
        <ele>788</ele>
      </trkpt>
      <trkpt lat="36.72902" lon="-5.1167">
        <ele>788</ele>
      </trkpt>
      <trkpt lat="36.72892" lon="-5.11671">
        <ele>787</ele>
      </trkpt>
      <trkpt lat="36.72883" lon="-5.1167">
        <ele>787</ele>
      </trkpt>
      <trkpt lat="36.72874" lon="-5.11666">
        <ele>786</ele>
      </trkpt>
      <trkpt lat="36.72865" lon="-5.11661">
        <ele>784</ele>
      </trkpt>
      <trkpt lat="36.72855" lon="-5.11659">
        <ele>784</ele>
      </trkpt>
      <trkpt lat="36.72845" lon="-5.11654">
        <ele>781</ele>
      </trkpt>
      <trkpt lat="36.72837" lon="-5.11648">
        <ele>780.5</ele>
      </trkpt>
      <trkpt lat="36.7283" lon="-5.11639">
        <ele>780</ele>
      </trkpt>
      <trkpt lat="36.72821" lon="-5.11632">
        <ele>775</ele>
      </trkpt>
      <trkpt lat="36.72812" lon="-5.11628">
        <ele>775</ele>
      </trkpt>
      <trkpt lat="36.72804" lon="-5.11623">
        <ele>774</ele>
      </trkpt>
      <trkpt lat="36.72796" lon="-5.11616">
        <ele>773</ele>
      </trkpt>
      <trkpt lat="36.72791" lon="-5.11606">
        <ele>771.5</ele>
      </trkpt>
      <trkpt lat="36.72784" lon="-5.116">
        <ele>770</ele>
      </trkpt>
      <trkpt lat="36.72776" lon="-5.11591">
        <ele>767</ele>
      </trkpt>
      <trkpt lat="36.7277" lon="-5.11583">
        <ele>766</ele>
      </trkpt>
      <trkpt lat="36.7277" lon="-5.11571">
        <ele>766</ele>
      </trkpt>
      <trkpt lat="36.72768" lon="-5.1156">
        <ele>766.5</ele>
      </trkpt>
      <trkpt lat="36.72764" lon="-5.11549">
        <ele>767</ele>
      </trkpt>
      <trkpt lat="36.72758" lon="-5.11541">
        <ele>767</ele>
      </trkpt>
      <trkpt lat="36.72755" lon="-5.1153">
        <ele>758</ele>
      </trkpt>
      <trkpt lat="36.72752" lon="-5.11519">
        <ele>757</ele>
      </trkpt>
      <trkpt lat="36.7275" lon="-5.11507">
        <ele>757.5</ele>
      </trkpt>
      <trkpt lat="36.72744" lon="-5.11499">
        <ele>758</ele>
      </trkpt>
      <trkpt lat="36.7274" lon="-5.11487">
        <ele>760</ele>
      </trkpt>
      <trkpt lat="36.72732" lon="-5.11482">
        <ele>764</ele>
      </trkpt>
      <trkpt lat="36.72724" lon="-5.11474">
        <ele>764</ele>
      </trkpt>
      <trkpt lat="36.72716" lon="-5.11466">
        <ele>765</ele>
      </trkpt>
      <trkpt lat="36.72711" lon="-5.11457">
        <ele>765</ele>
      </trkpt>
      <trkpt lat="36.72705" lon="-5.11448">
        <ele>764</ele>
      </trkpt>
      <trkpt lat="36.72699" lon="-5.11438">
        <ele>765</ele>
      </trkpt>
      <trkpt lat="36.7269" lon="-5.11434">
        <ele>766</ele>
      </trkpt>
      <trkpt lat="36.72682" lon="-5.1143">
        <ele>766</ele>
      </trkpt>
      <trkpt lat="36.72676" lon="-5.11421">
        <ele>763</ele>
      </trkpt>
      <trkpt lat="36.72668" lon="-5.11413">
        <ele>763</ele>
      </trkpt>
      <trkpt lat="36.72659" lon="-5.11406">
        <ele>766</ele>
      </trkpt>
      <trkpt lat="36.7265" lon="-5.11401">
        <ele>767</ele>
      </trkpt>
      <trkpt lat="36.72642" lon="-5.11395">
        <ele>768</ele>
      </trkpt>
      <trkpt lat="36.72633" lon="-5.11389">
        <ele>768</ele>
      </trkpt>
      <trkpt lat="36.72626" lon="-5.11381">
        <ele>768.5</ele>
      </trkpt>
      <trkpt lat="36.72623" lon="-5.11369">
        <ele>769</ele>
      </trkpt>
      <trkpt lat="36.72619" lon="-5.11358">
        <ele>770</ele>
      </trkpt>
      <trkpt lat="36.72613" lon="-5.11348">
        <ele>769</ele>
      </trkpt>
      <trkpt lat="36.72609" lon="-5.11337">
        <ele>770.5</ele>
      </trkpt>
      <trkpt lat="36.72603" lon="-5.11327">
        <ele>770.7</ele>
      </trkpt>
      <trkpt lat="36.72594" lon="-5.11321">
        <ele>771</ele>
      </trkpt>
      <trkpt lat="36.72585" lon="-5.11315">
        <ele>771</ele>
      </trkpt>
      <trkpt lat="36.72576" lon="-5.11311">
        <ele>771</ele>
      </trkpt>
      <trkpt lat="36.72566" lon="-5.11307">
        <ele>770.5</ele>
      </trkpt>
      <trkpt lat="36.72555" lon="-5.11305">
        <ele>770</ele>
      </trkpt>
      <trkpt lat="36.72546" lon="-5.11305">
        <ele>771</ele>
      </trkpt>
      <trkpt lat="36.72536" lon="-5.11306">
        <ele>772</ele>
      </trkpt>
      <trkpt lat="36.72526" lon="-5.11304">
        <ele>774</ele>
      </trkpt>
      <trkpt lat="36.72517" lon="-5.11303">
        <ele>778</ele>
      </trkpt>
      <trkpt lat="36.72508" lon="-5.11301">
        <ele>777.5</ele>
      </trkpt>
      <trkpt lat="36.72498" lon="-5.11299">
        <ele>777.7</ele>
      </trkpt>
      <trkpt lat="36.72487" lon="-5.11298">
        <ele>778</ele>
      </trkpt>
      <trkpt lat="36.72477" lon="-5.11294">
        <ele>778</ele>
      </trkpt>
      <trkpt lat="36.72469" lon="-5.1129">
        <ele>777.5</ele>
      </trkpt>
      <trkpt lat="36.72457" lon="-5.11291">
        <ele>779.7</ele>
      </trkpt>
      <trkpt lat="36.72448" lon="-5.1129">
        <ele>780.3</ele>
      </trkpt>
      <trkpt lat="36.72438" lon="-5.11283">
        <ele>781</ele>
      </trkpt>
      <trkpt lat="36.72428" lon="-5.11275">
        <ele>782</ele>
      </trkpt>
      <trkpt lat="36.72419" lon="-5.11271">
        <ele>782</ele>
      </trkpt>
      <trkpt lat="36.72411" lon="-5.11264">
        <ele>780.5</ele>
      </trkpt>
      <trkpt lat="36.72402" lon="-5.11261">
        <ele>782.2</ele>
      </trkpt>
      <trkpt lat="36.72392" lon="-5.11257">
        <ele>784</ele>
      </trkpt>
      <trkpt lat="36.72383" lon="-5.11251">
        <ele>789</ele>
      </trkpt>
      <trkpt lat="36.72376" lon="-5.1124">
        <ele>789</ele>
      </trkpt>
      <trkpt lat="36.72372" lon="-5.11231">
        <ele>789</ele>
      </trkpt>
      <trkpt lat="36.72363" lon="-5.11223">
        <ele>790</ele>
      </trkpt>
      <trkpt lat="36.72354" lon="-5.11216">
        <ele>789.5</ele>
      </trkpt>
      <trkpt lat="36.72351" lon="-5.11205">
        <ele>789</ele>
      </trkpt>
      <trkpt lat="36.72343" lon="-5.11195">
        <ele>787</ele>
      </trkpt>
      <trkpt lat="36.72339" lon="-5.11185">
        <ele>787</ele>
      </trkpt>
      <trkpt lat="36.72334" lon="-5.11176">
        <ele>786</ele>
      </trkpt>
      <trkpt lat="36.72325" lon="-5.11167">
        <ele>786</ele>
      </trkpt>
      <trkpt lat="36.72318" lon="-5.11158">
        <ele>784</ele>
      </trkpt>
      <trkpt lat="36.72311" lon="-5.11151">
        <ele>784</ele>
      </trkpt>
      <trkpt lat="36.72306" lon="-5.11141">
        <ele>785</ele>
      </trkpt>
      <trkpt lat="36.723" lon="-5.11132">
        <ele>784.5</ele>
      </trkpt>
      <trkpt lat="36.72297" lon="-5.1112">
        <ele>784</ele>
      </trkpt>
      <trkpt lat="36.72288" lon="-5.11116">
        <ele>780</ele>
      </trkpt>
      <trkpt lat="36.7228" lon="-5.1111">
        <ele>780</ele>
      </trkpt>
      <trkpt lat="36.7227" lon="-5.11107">
        <ele>780</ele>
      </trkpt>
      <trkpt lat="36.72261" lon="-5.11106">
        <ele>780</ele>
      </trkpt>
      <trkpt lat="36.72252" lon="-5.111">
        <ele>781</ele>
      </trkpt>
      <trkpt lat="36.72244" lon="-5.11093">
        <ele>781</ele>
      </trkpt>
      <trkpt lat="36.72234" lon="-5.11088">
        <ele>781</ele>
      </trkpt>
      <trkpt lat="36.72226" lon="-5.11085">
        <ele>781</ele>
      </trkpt>
      <trkpt lat="36.72217" lon="-5.1108">
        <ele>781.5</ele>
      </trkpt>
      <trkpt lat="36.72208" lon="-5.11073">
        <ele>780.2</ele>
      </trkpt>
      <trkpt lat="36.72201" lon="-5.11063">
        <ele>779</ele>
      </trkpt>
      <trkpt lat="36.72193" lon="-5.11055">
        <ele>779</ele>
      </trkpt>
      <trkpt lat="36.72184" lon="-5.11047">
        <ele>779</ele>
      </trkpt>
      <trkpt lat="36.72177" lon="-5.11041">
        <ele>779</ele>
      </trkpt>
      <trkpt lat="36.72169" lon="-5.11035">
        <ele>774</ele>
      </trkpt>
      <trkpt lat="36.72159" lon="-5.11032">
        <ele>773</ele>
      </trkpt>
      <trkpt lat="36.7215" lon="-5.11025">
        <ele>771</ele>
      </trkpt>
      <trkpt lat="36.72141" lon="-5.11021">
        <ele>771</ele>
      </trkpt>
      <trkpt lat="36.72132" lon="-5.11019">
        <ele>771.5</ele>
      </trkpt>
      <trkpt lat="36.7212" lon="-5.11019">
        <ele>769.2</ele>
      </trkpt>
      <trkpt lat="36.72109" lon="-5.11019">
        <ele>770.1</ele>
      </trkpt>
      <trkpt lat="36.72099" lon="-5.11015">
        <ele>771</ele>
      </trkpt>
      <trkpt lat="36.7209" lon="-5.11018">
        <ele>773</ele>
      </trkpt>
      <trkpt lat="36.72079" lon="-5.11018">
        <ele>773</ele>
      </trkpt>
      <trkpt lat="36.72069" lon="-5.11012">
        <ele>773</ele>
      </trkpt>
      <trkpt lat="36.7206" lon="-5.11012">
        <ele>774</ele>
      </trkpt>
      <trkpt lat="36.72049" lon="-5.11011">
        <ele>774.5</ele>
      </trkpt>
      <trkpt lat="36.72038" lon="-5.1101">
        <ele>775</ele>
      </trkpt>
      <trkpt lat="36.72028" lon="-5.11008">
        <ele>778</ele>
      </trkpt>
      <trkpt lat="36.72019" lon="-5.11013">
        <ele>776.5</ele>
      </trkpt>
      <trkpt lat="36.7201" lon="-5.11011">
        <ele>775</ele>
      </trkpt>
      <trkpt lat="36.72" lon="-5.11011">
        <ele>775</ele>
      </trkpt>
      <trkpt lat="36.71991" lon="-5.11012">
        <ele>776.5</ele>
      </trkpt>
      <trkpt lat="36.71981" lon="-5.1101">
        <ele>778</ele>
      </trkpt>
      <trkpt lat="36.7197" lon="-5.11013">
        <ele>778</ele>
      </trkpt>
      <trkpt lat="36.71961" lon="-5.11009">
        <ele>782</ele>
      </trkpt>
      <trkpt lat="36.71951" lon="-5.11007">
        <ele>782</ele>
      </trkpt>
      <trkpt lat="36.71942" lon="-5.11005">
        <ele>781</ele>
      </trkpt>
      <trkpt lat="36.71934" lon="-5.10999">
        <ele>778</ele>
      </trkpt>
      <trkpt lat="36.71925" lon="-5.10995">
        <ele>778</ele>
      </trkpt>
      <trkpt lat="36.71916" lon="-5.10989">
        <ele>778.5</ele>
      </trkpt>
      <trkpt lat="36.71908" lon="-5.10982">
        <ele>776.2</ele>
      </trkpt>
      <trkpt lat="36.71898" lon="-5.10979">
        <ele>775.6</ele>
      </trkpt>
      <trkpt lat="36.71889" lon="-5.10976">
        <ele>776.3</ele>
      </trkpt>
      <trkpt lat="36.71882" lon="-5.10968">
        <ele>777</ele>
      </trkpt>
      <trkpt lat="36.71875" lon="-5.10961">
        <ele>777</ele>
      </trkpt>
      <trkpt lat="36.71868" lon="-5.10952">
        <ele>778</ele>
      </trkpt>
      <trkpt lat="36.7186" lon="-5.10943">
        <ele>779</ele>
      </trkpt>
      <trkpt lat="36.71855" lon="-5.10932">
        <ele>779</ele>
      </trkpt>
      <trkpt lat="36.71847" lon="-5.10925">
        <ele>778.5</ele>
      </trkpt>
      <trkpt lat="36.71839" lon="-5.10915">
        <ele>778</ele>
      </trkpt>
      <trkpt lat="36.71835" lon="-5.10904">
        <ele>776.5</ele>
      </trkpt>
      <trkpt lat="36.71831" lon="-5.10893">
        <ele>778.7</ele>
      </trkpt>
      <trkpt lat="36.71826" lon="-5.10883">
        <ele>781</ele>
      </trkpt>
      <trkpt lat="36.71822" lon="-5.10873">
        <ele>785</ele>
      </trkpt>
      <trkpt lat="36.71815" lon="-5.10865">
        <ele>784.5</ele>
      </trkpt>
      <trkpt lat="36.71808" lon="-5.10858">
        <ele>785.7</ele>
      </trkpt>
      <trkpt lat="36.71801" lon="-5.1085">
        <ele>787</ele>
      </trkpt>
      <trkpt lat="36.71795" lon="-5.10842">
        <ele>792</ele>
      </trkpt>
      <trkpt lat="36.71787" lon="-5.10834">
        <ele>790</ele>
      </trkpt>
      <trkpt lat="36.71779" lon="-5.10827">
        <ele>788</ele>
      </trkpt>
      <trkpt lat="36.71773" lon="-5.10818">
        <ele>779</ele>
      </trkpt>
      <trkpt lat="36.71765" lon="-5.10811">
        <ele>779</ele>
      </trkpt>
      <trkpt lat="36.7176" lon="-5.108">
        <ele>782</ele>
      </trkpt>
      <trkpt lat="36.71752" lon="-5.10792">
        <ele>785</ele>
      </trkpt>
      <trkpt lat="36.71744" lon="-5.10784">
        <ele>783</ele>
      </trkpt>
      <trkpt lat="36.71736" lon="-5.10778">
        <ele>781</ele>
      </trkpt>
      <trkpt lat="36.71728" lon="-5.10769">
        <ele>783.5</ele>
      </trkpt>
      <trkpt lat="36.71719" lon="-5.10761">
        <ele>786</ele>
      </trkpt>
      <trkpt lat="36.71711" lon="-5.10755">
        <ele>787</ele>
      </trkpt>
      <trkpt lat="36.71705" lon="-5.10746">
        <ele>786.5</ele>
      </trkpt>
      <trkpt lat="36.71697" lon="-5.10737">
        <ele>786</ele>
      </trkpt>
      <trkpt lat="36.71689" lon="-5.10732">
        <ele>783.5</ele>
      </trkpt>
      <trkpt lat="36.71681" lon="-5.10725">
        <ele>781</ele>
      </trkpt>
      <trkpt lat="36.71673" lon="-5.1072">
        <ele>781</ele>
      </trkpt>
      <trkpt lat="36.71664" lon="-5.10713">
        <ele>780.5</ele>
      </trkpt>
      <trkpt lat="36.7166" lon="-5.10704">
        <ele>780</ele>
      </trkpt>
      <trkpt lat="36.7166" lon="-5.10692">
        <ele>780</ele>
      </trkpt>
      <trkpt lat="36.71663" lon="-5.1068">
        <ele>782</ele>
      </trkpt>
      <trkpt lat="36.71667" lon="-5.1067">
        <ele>779</ele>
      </trkpt>
      <trkpt lat="36.71667" lon="-5.10658">
        <ele>776</ele>
      </trkpt>
      <trkpt lat="36.71667" lon="-5.10646">
        <ele>776</ele>
      </trkpt>
      <trkpt lat="36.7167" lon="-5.10634">
        <ele>777.5</ele>
      </trkpt>
      <trkpt lat="36.71674" lon="-5.10623">
        <ele>775.7</ele>
      </trkpt>
      <trkpt lat="36.7168" lon="-5.10613">
        <ele>777.3</ele>
      </trkpt>
      <trkpt lat="36.71685" lon="-5.10601">
        <ele>779</ele>
      </trkpt>
      <trkpt lat="36.71692" lon="-5.10594">
        <ele>786</ele>
      </trkpt>
      <trkpt lat="36.71698" lon="-5.10583">
        <ele>790</ele>
      </trkpt>
      <trkpt lat="36.71705" lon="-5.10576">
        <ele>790</ele>
      </trkpt>
      <trkpt lat="36.71713" lon="-5.10568">
        <ele>789</ele>
      </trkpt>
      <trkpt lat="36.71722" lon="-5.10563">
        <ele>780</ele>
      </trkpt>
      <trkpt lat="36.71729" lon="-5.10554">
        <ele>774</ele>
      </trkpt>
      <trkpt lat="36.71738" lon="-5.10546">
        <ele>769</ele>
      </trkpt>
      <trkpt lat="36.71746" lon="-5.1054">
        <ele>766</ele>
      </trkpt>
      <trkpt lat="36.71755" lon="-5.10534">
        <ele>764</ele>
      </trkpt>
      <trkpt lat="36.71764" lon="-5.10535">
        <ele>761</ele>
      </trkpt>
      <trkpt lat="36.71772" lon="-5.10526">
        <ele>759</ele>
      </trkpt>
      <trkpt lat="36.7178" lon="-5.1052">
        <ele>760</ele>
      </trkpt>
      <trkpt lat="36.71787" lon="-5.10508">
        <ele>761</ele>
      </trkpt>
      <trkpt lat="36.71792" lon="-5.10497">
        <ele>772</ele>
      </trkpt>
      <trkpt lat="36.71796" lon="-5.10484">
        <ele>779</ele>
      </trkpt>
      <trkpt lat="36.71799" lon="-5.10472">
        <ele>783</ele>
      </trkpt>
      <trkpt lat="36.718" lon="-5.1046">
        <ele>787</ele>
      </trkpt>
      <trkpt lat="36.71797" lon="-5.10449">
        <ele>790</ele>
      </trkpt>
      <trkpt lat="36.71796" lon="-5.10437">
        <ele>797</ele>
      </trkpt>
      <trkpt lat="36.71794" lon="-5.10426">
        <ele>801</ele>
      </trkpt>
      <trkpt lat="36.71791" lon="-5.10414">
        <ele>800.5</ele>
      </trkpt>
      <trkpt lat="36.71785" lon="-5.10405">
        <ele>800</ele>
      </trkpt>
      <trkpt lat="36.71782" lon="-5.10393">
        <ele>796</ele>
      </trkpt>
      <trkpt lat="36.71782" lon="-5.10379">
        <ele>795</ele>
      </trkpt>
      <trkpt lat="36.71782" lon="-5.10367">
        <ele>795</ele>
      </trkpt>
      <trkpt lat="36.71782" lon="-5.10355">
        <ele>793.5</ele>
      </trkpt>
      <trkpt lat="36.71781" lon="-5.10343">
        <ele>792</ele>
      </trkpt>
      <trkpt lat="36.71782" lon="-5.10329">
        <ele>789</ele>
      </trkpt>
      <trkpt lat="36.71783" lon="-5.10318">
        <ele>786</ele>
      </trkpt>
      <trkpt lat="36.7178" lon="-5.10307">
        <ele>785</ele>
      </trkpt>
      <trkpt lat="36.71779" lon="-5.10294">
        <ele>783</ele>
      </trkpt>
      <trkpt lat="36.71778" lon="-5.10282">
        <ele>780</ele>
      </trkpt>
      <trkpt lat="36.71778" lon="-5.10269">
        <ele>776</ele>
      </trkpt>
      <trkpt lat="36.71778" lon="-5.10257">
        <ele>771</ele>
      </trkpt>
      <trkpt lat="36.71776" lon="-5.10245">
        <ele>769</ele>
      </trkpt>
      <trkpt lat="36.71781" lon="-5.10254">
        <ele>769</ele>
      </trkpt>
      <trkpt lat="36.71775" lon="-5.10245">
        <ele>765</ele>
      </trkpt>
      <trkpt lat="36.71773" lon="-5.10234">
        <ele>766</ele>
      </trkpt>
      <trkpt lat="36.71765" lon="-5.10226">
        <ele>767</ele>
      </trkpt>
      <trkpt lat="36.71756" lon="-5.10222">
        <ele>767</ele>
      </trkpt>
      <trkpt lat="36.71751" lon="-5.10211">
        <ele>767</ele>
      </trkpt>
      <trkpt lat="36.71751" lon="-5.10199">
        <ele>762</ele>
      </trkpt>
      <trkpt lat="36.71761" lon="-5.10195">
        <ele>761</ele>
      </trkpt>
      <trkpt lat="36.7177" lon="-5.10191">
        <ele>761.5</ele>
      </trkpt>
      <trkpt lat="36.7178" lon="-5.10189">
        <ele>762</ele>
      </trkpt>
      <trkpt lat="36.71787" lon="-5.10197">
        <ele>768</ele>
      </trkpt>
      <trkpt lat="36.71796" lon="-5.10197">
        <ele>767</ele>
      </trkpt>
      <trkpt lat="36.71803" lon="-5.10206">
        <ele>766</ele>
      </trkpt>
      <trkpt lat="36.7181" lon="-5.10216">
        <ele>755</ele>
      </trkpt>
      <trkpt lat="36.71817" lon="-5.10224">
        <ele>746</ele>
      </trkpt>
      <trkpt lat="36.71816" lon="-5.10236">
        <ele>747</ele>
      </trkpt>
      <trkpt lat="36.71822" lon="-5.10246">
        <ele>746</ele>
      </trkpt>
      <trkpt lat="36.71822" lon="-5.10259">
        <ele>746.5</ele>
      </trkpt>
      <trkpt lat="36.71831" lon="-5.10262">
        <ele>747</ele>
      </trkpt>
      <trkpt lat="36.7184" lon="-5.10268">
        <ele>749</ele>
      </trkpt>
      <trkpt lat="36.7185" lon="-5.10274">
        <ele>750.5</ele>
      </trkpt>
      <trkpt lat="36.71859" lon="-5.10275">
        <ele>752</ele>
      </trkpt>
      <trkpt lat="36.71868" lon="-5.10282">
        <ele>754</ele>
      </trkpt>
      <trkpt lat="36.71876" lon="-5.10287">
        <ele>758</ele>
      </trkpt>
      <trkpt lat="36.71886" lon="-5.10294">
        <ele>758</ele>
      </trkpt>
      <trkpt lat="36.71896" lon="-5.10297">
        <ele>752</ele>
      </trkpt>
      <trkpt lat="36.71905" lon="-5.10297">
        <ele>749.5</ele>
      </trkpt>
      <trkpt lat="36.71916" lon="-5.10298">
        <ele>747</ele>
      </trkpt>
      <trkpt lat="36.71925" lon="-5.10301">
        <ele>747</ele>
      </trkpt>
      <trkpt lat="36.71935" lon="-5.10298">
        <ele>749.5</ele>
      </trkpt>
      <trkpt lat="36.71944" lon="-5.10296">
        <ele>752</ele>
      </trkpt>
      <trkpt lat="36.71954" lon="-5.10297">
        <ele>758</ele>
      </trkpt>
      <trkpt lat="36.71964" lon="-5.10291">
        <ele>759</ele>
      </trkpt>
      <trkpt lat="36.71974" lon="-5.10289">
        <ele>753</ele>
      </trkpt>
      <trkpt lat="36.71984" lon="-5.10284">
        <ele>747</ele>
      </trkpt>
      <trkpt lat="36.71993" lon="-5.10282">
        <ele>746.5</ele>
      </trkpt>
      <trkpt lat="36.72001" lon="-5.10275">
        <ele>747.7</ele>
      </trkpt>
      <trkpt lat="36.72009" lon="-5.10269">
        <ele>747.3</ele>
      </trkpt>
      <trkpt lat="36.72018" lon="-5.10265">
        <ele>748.1</ele>
      </trkpt>
      <trkpt lat="36.72027" lon="-5.10262">
        <ele>749</ele>
      </trkpt>
      <trkpt lat="36.72036" lon="-5.1026">
        <ele>747.5</ele>
      </trkpt>
      <trkpt lat="36.72046" lon="-5.10264">
        <ele>748.2</ele>
      </trkpt>
      <trkpt lat="36.72057" lon="-5.10266">
        <ele>749</ele>
      </trkpt>
      <trkpt lat="36.72067" lon="-5.10267">
        <ele>748.5</ele>
      </trkpt>
      <trkpt lat="36.72072" lon="-5.10257">
        <ele>748</ele>
      </trkpt>
      <trkpt lat="36.72065" lon="-5.10247">
        <ele>747</ele>
      </trkpt>
      <trkpt lat="36.72056" lon="-5.10244">
        <ele>746</ele>
      </trkpt>
      <trkpt lat="36.72045" lon="-5.10243">
        <ele>744</ele>
      </trkpt>
      <trkpt lat="36.72035" lon="-5.10239">
        <ele>744</ele>
      </trkpt>
      <trkpt lat="36.72026" lon="-5.10237">
        <ele>740</ele>
      </trkpt>
      <trkpt lat="36.72017" lon="-5.10235">
        <ele>740</ele>
      </trkpt>
      <trkpt lat="36.72007" lon="-5.1023">
        <ele>740</ele>
      </trkpt>
      <trkpt lat="36.71998" lon="-5.10231">
        <ele>740</ele>
      </trkpt>
      <trkpt lat="36.71988" lon="-5.10233">
        <ele>739.5</ele>
      </trkpt>
      <trkpt lat="36.71978" lon="-5.10231">
        <ele>740.2</ele>
      </trkpt>
      <trkpt lat="36.71969" lon="-5.1023">
        <ele>739.1</ele>
      </trkpt>
      <trkpt lat="36.71958" lon="-5.10225">
        <ele>738</ele>
      </trkpt>
      <trkpt lat="36.71956" lon="-5.10212">
        <ele>733</ele>
      </trkpt>
      <trkpt lat="36.71961" lon="-5.10202">
        <ele>733</ele>
      </trkpt>
      <trkpt lat="36.71966" lon="-5.10192">
        <ele>734</ele>
      </trkpt>
      <trkpt lat="36.71971" lon="-5.1018">
        <ele>733</ele>
      </trkpt>
      <trkpt lat="36.71975" lon="-5.1017">
        <ele>732</ele>
      </trkpt>
      <trkpt lat="36.71979" lon="-5.10159">
        <ele>731.5</ele>
      </trkpt>
      <trkpt lat="36.71986" lon="-5.10153">
        <ele>731</ele>
      </trkpt>
      <trkpt lat="36.71995" lon="-5.10147">
        <ele>728</ele>
      </trkpt>
      <trkpt lat="36.72003" lon="-5.10141">
        <ele>729</ele>
      </trkpt>
      <trkpt lat="36.72009" lon="-5.1013">
        <ele>730</ele>
      </trkpt>
      <trkpt lat="36.72016" lon="-5.1012">
        <ele>735</ele>
      </trkpt>
      <trkpt lat="36.72022" lon="-5.10112">
        <ele>735</ele>
      </trkpt>
      <trkpt lat="36.72028" lon="-5.10101">
        <ele>738</ele>
      </trkpt>
      <trkpt lat="36.72035" lon="-5.10092">
        <ele>739</ele>
      </trkpt>
      <trkpt lat="36.72039" lon="-5.1008">
        <ele>740</ele>
      </trkpt>
      <trkpt lat="36.72047" lon="-5.10072">
        <ele>741</ele>
      </trkpt>
      <trkpt lat="36.72055" lon="-5.10068">
        <ele>741.5</ele>
      </trkpt>
      <trkpt lat="36.72065" lon="-5.10063">
        <ele>741.2</ele>
      </trkpt>
      <trkpt lat="36.72073" lon="-5.10057">
        <ele>741</ele>
      </trkpt>
      <trkpt lat="36.72084" lon="-5.10059">
        <ele>741</ele>
      </trkpt>
      <trkpt lat="36.72093" lon="-5.10063">
        <ele>743</ele>
      </trkpt>
      <trkpt lat="36.72103" lon="-5.10063">
        <ele>743</ele>
      </trkpt>
      <trkpt lat="36.72113" lon="-5.10062">
        <ele>749</ele>
      </trkpt>
      <trkpt lat="36.72123" lon="-5.10061">
        <ele>749</ele>
      </trkpt>
      <trkpt lat="36.72133" lon="-5.10058">
        <ele>748</ele>
      </trkpt>
      <trkpt lat="36.72143" lon="-5.10056">
        <ele>746</ele>
      </trkpt>
      <trkpt lat="36.72152" lon="-5.10053">
        <ele>745.5</ele>
      </trkpt>
      <trkpt lat="36.72162" lon="-5.1005">
        <ele>745.7</ele>
      </trkpt>
      <trkpt lat="36.7217" lon="-5.10048">
        <ele>744.3</ele>
      </trkpt>
      <trkpt lat="36.7218" lon="-5.10047">
        <ele>743</ele>
      </trkpt>
      <trkpt lat="36.72191" lon="-5.1005">
        <ele>739</ele>
      </trkpt>
      <trkpt lat="36.72202" lon="-5.10047">
        <ele>734</ele>
      </trkpt>
      <trkpt lat="36.72212" lon="-5.10045">
        <ele>725</ele>
      </trkpt>
      <trkpt lat="36.72223" lon="-5.10045">
        <ele>724</ele>
      </trkpt>
      <trkpt lat="36.72234" lon="-5.10049">
        <ele>721</ele>
      </trkpt>
      <trkpt lat="36.72244" lon="-5.10045">
        <ele>720.5</ele>
      </trkpt>
      <trkpt lat="36.72254" lon="-5.10044">
        <ele>720</ele>
      </trkpt>
      <trkpt lat="36.72263" lon="-5.10041">
        <ele>717</ele>
      </trkpt>
      <trkpt lat="36.72272" lon="-5.10039">
        <ele>712</ele>
      </trkpt>
      <trkpt lat="36.72282" lon="-5.10036">
        <ele>712</ele>
      </trkpt>
      <trkpt lat="36.7229" lon="-5.10031">
        <ele>705</ele>
      </trkpt>
      <trkpt lat="36.72298" lon="-5.10024">
        <ele>700</ele>
      </trkpt>
      <trkpt lat="36.72305" lon="-5.10017">
        <ele>697</ele>
      </trkpt>
      <trkpt lat="36.72316" lon="-5.10011">
        <ele>697</ele>
      </trkpt>
      <trkpt lat="36.72325" lon="-5.10007">
        <ele>692</ele>
      </trkpt>
      <trkpt lat="36.72337" lon="-5.10002">
        <ele>687</ele>
      </trkpt>
      <trkpt lat="36.72366" lon="-5.09995">
        <ele>688</ele>
      </trkpt>
      <trkpt lat="36.72376" lon="-5.09992">
        <ele>688</ele>
      </trkpt>
      <trkpt lat="36.72385" lon="-5.09985">
        <ele>688</ele>
      </trkpt>
      <trkpt lat="36.72393" lon="-5.09977">
        <ele>686</ele>
      </trkpt>
      <trkpt lat="36.72402" lon="-5.09974">
        <ele>682</ele>
      </trkpt>
      <trkpt lat="36.72412" lon="-5.09973">
        <ele>676</ele>
      </trkpt>
      <trkpt lat="36.72418" lon="-5.09964">
        <ele>671</ele>
      </trkpt>
      <trkpt lat="36.72428" lon="-5.09961">
        <ele>671</ele>
      </trkpt>
      <trkpt lat="36.72434" lon="-5.09952">
        <ele>669</ele>
      </trkpt>
      <trkpt lat="36.7244" lon="-5.09943">
        <ele>669</ele>
      </trkpt>
      <trkpt lat="36.72447" lon="-5.09935">
        <ele>668</ele>
      </trkpt>
      <trkpt lat="36.72456" lon="-5.09928">
        <ele>667</ele>
      </trkpt>
      <trkpt lat="36.72466" lon="-5.09921">
        <ele>664</ele>
      </trkpt>
      <trkpt lat="36.72475" lon="-5.09914">
        <ele>663</ele>
      </trkpt>
      <trkpt lat="36.72483" lon="-5.09906">
        <ele>661</ele>
      </trkpt>
      <trkpt lat="36.72489" lon="-5.09897">
        <ele>657</ele>
      </trkpt>
      <trkpt lat="36.72492" lon="-5.09886">
        <ele>655</ele>
      </trkpt>
      <trkpt lat="36.72497" lon="-5.09876">
        <ele>653</ele>
      </trkpt>
      <trkpt lat="36.725" lon="-5.09864">
        <ele>651</ele>
      </trkpt>
      <trkpt lat="36.725" lon="-5.09852">
        <ele>650</ele>
      </trkpt>
      <trkpt lat="36.72508" lon="-5.09845">
        <ele>649</ele>
      </trkpt>
      <trkpt lat="36.72518" lon="-5.09843">
        <ele>646</ele>
      </trkpt>
      <trkpt lat="36.72516" lon="-5.09855">
        <ele>643</ele>
      </trkpt>
      <trkpt lat="36.72514" lon="-5.09866">
        <ele>637</ele>
      </trkpt>
      <trkpt lat="36.72519" lon="-5.09879">
        <ele>636</ele>
      </trkpt>
      <trkpt lat="36.72521" lon="-5.09891">
        <ele>632</ele>
      </trkpt>
      <trkpt lat="36.72525" lon="-5.09904">
        <ele>631</ele>
      </trkpt>
      <trkpt lat="36.72528" lon="-5.09915">
        <ele>631</ele>
      </trkpt>
      <trkpt lat="36.72529" lon="-5.09928">
        <ele>630</ele>
      </trkpt>
      <trkpt lat="36.72531" lon="-5.09942">
        <ele>629</ele>
      </trkpt>
      <trkpt lat="36.72535" lon="-5.09952">
        <ele>628</ele>
      </trkpt>
      <trkpt lat="36.7254" lon="-5.09968">
        <ele>619</ele>
      </trkpt>
      <trkpt lat="36.72541" lon="-5.09982">
        <ele>615</ele>
      </trkpt>
      <trkpt lat="36.72538" lon="-5.09995">
        <ele>613</ele>
      </trkpt>
      <trkpt lat="36.72535" lon="-5.10007">
        <ele>613</ele>
      </trkpt>
      <trkpt lat="36.72537" lon="-5.10018">
        <ele>612</ele>
      </trkpt>
      <trkpt lat="36.72539" lon="-5.1003">
        <ele>606</ele>
      </trkpt>
      <trkpt lat="36.72542" lon="-5.10042">
        <ele>602</ele>
      </trkpt>
      <trkpt lat="36.72541" lon="-5.10053">
        <ele>599.5</ele>
      </trkpt>
      <trkpt lat="36.72543" lon="-5.10064">
        <ele>600.7</ele>
      </trkpt>
      <trkpt lat="36.72539" lon="-5.10076">
        <ele>602</ele>
      </trkpt>
      <trkpt lat="36.72538" lon="-5.1009">
        <ele>602.5</ele>
      </trkpt>
      <trkpt lat="36.72534" lon="-5.10103">
        <ele>603</ele>
      </trkpt>
      <trkpt lat="36.72539" lon="-5.10115">
        <ele>602</ele>
      </trkpt>
      <trkpt lat="36.72538" lon="-5.10128">
        <ele>602</ele>
      </trkpt>
      <trkpt lat="36.72539" lon="-5.1014">
        <ele>602</ele>
      </trkpt>
      <trkpt lat="36.72543" lon="-5.10154">
        <ele>606</ele>
      </trkpt>
      <trkpt lat="36.72544" lon="-5.10166">
        <ele>607</ele>
      </trkpt>
      <trkpt lat="36.72538" lon="-5.10176">
        <ele>606.5</ele>
      </trkpt>
      <trkpt lat="36.7254" lon="-5.10189">
        <ele>606</ele>
      </trkpt>
      <trkpt lat="36.72542" lon="-5.10201">
        <ele>601</ele>
      </trkpt>
      <trkpt lat="36.72533" lon="-5.10203">
        <ele>602</ele>
      </trkpt>
      <trkpt lat="36.72534" lon="-5.10215">
        <ele>603</ele>
      </trkpt>
      <trkpt lat="36.72538" lon="-5.10226">
        <ele>604</ele>
      </trkpt>
      <trkpt lat="36.72543" lon="-5.10236">
        <ele>600</ele>
      </trkpt>
      <trkpt lat="36.72548" lon="-5.10248">
        <ele>600</ele>
      </trkpt>
      <trkpt lat="36.72553" lon="-5.10259">
        <ele>600</ele>
      </trkpt>
      <trkpt lat="36.72558" lon="-5.10272">
        <ele>599</ele>
      </trkpt>
      <trkpt lat="36.72564" lon="-5.1028">
        <ele>598</ele>
      </trkpt>
      <trkpt lat="36.72568" lon="-5.10292">
        <ele>597</ele>
      </trkpt>
      <trkpt lat="36.72573" lon="-5.10302">
        <ele>597</ele>
      </trkpt>
      <trkpt lat="36.72579" lon="-5.10312">
        <ele>597.5</ele>
      </trkpt>
      <trkpt lat="36.72585" lon="-5.10321">
        <ele>594.2</ele>
      </trkpt>
      <trkpt lat="36.72592" lon="-5.10331">
        <ele>591</ele>
      </trkpt>
      <trkpt lat="36.72599" lon="-5.10339">
        <ele>593</ele>
      </trkpt>
      <trkpt lat="36.72606" lon="-5.10349">
        <ele>595</ele>
      </trkpt>
      <trkpt lat="36.72613" lon="-5.10358">
        <ele>595</ele>
      </trkpt>
      <trkpt lat="36.72617" lon="-5.10368">
        <ele>594.5</ele>
      </trkpt>
      <trkpt lat="36.72626" lon="-5.10374">
        <ele>596.2</ele>
      </trkpt>
      <trkpt lat="36.72633" lon="-5.10382">
        <ele>595.1</ele>
      </trkpt>
      <trkpt lat="36.72643" lon="-5.10388">
        <ele>596.5</ele>
      </trkpt>
      <trkpt lat="36.72648" lon="-5.10397">
        <ele>598</ele>
      </trkpt>
      <trkpt lat="36.72659" lon="-5.10394">
        <ele>598</ele>
      </trkpt>
      <trkpt lat="36.72669" lon="-5.10388">
        <ele>596</ele>
      </trkpt>
      <trkpt lat="36.72679" lon="-5.10389">
        <ele>591</ele>
      </trkpt>
      <trkpt lat="36.72688" lon="-5.10384">
        <ele>591</ele>
      </trkpt>
      <trkpt lat="36.72697" lon="-5.1039">
        <ele>591</ele>
      </trkpt>
      <trkpt lat="36.72706" lon="-5.10394">
        <ele>583</ele>
      </trkpt>
      <trkpt lat="36.72715" lon="-5.1039">
        <ele>584.5</ele>
      </trkpt>
      <trkpt lat="36.72725" lon="-5.10383">
        <ele>584.2</ele>
      </trkpt>
      <trkpt lat="36.72734" lon="-5.10378">
        <ele>584</ele>
      </trkpt>
      <trkpt lat="36.72742" lon="-5.10371">
        <ele>582</ele>
      </trkpt>
      <trkpt lat="36.72751" lon="-5.10367">
        <ele>581.5</ele>
      </trkpt>
      <trkpt lat="36.72761" lon="-5.10363">
        <ele>583.7</ele>
      </trkpt>
      <trkpt lat="36.72769" lon="-5.10359">
        <ele>583.8</ele>
      </trkpt>
      <trkpt lat="36.72779" lon="-5.1036">
        <ele>584</ele>
      </trkpt>
      <trkpt lat="36.72785" lon="-5.10352">
        <ele>584</ele>
      </trkpt>
      <trkpt lat="36.72802" lon="-5.10354">
        <ele>584.5</ele>
      </trkpt>
      <trkpt lat="36.72814" lon="-5.10359">
        <ele>580.7</ele>
      </trkpt>
      <trkpt lat="36.72826" lon="-5.10363">
        <ele>577</ele>
      </trkpt>
      <trkpt lat="36.72835" lon="-5.10372">
        <ele>576</ele>
      </trkpt>
      <trkpt lat="36.72846" lon="-5.10382">
        <ele>575</ele>
      </trkpt>
      <trkpt lat="36.72856" lon="-5.10387">
        <ele>574</ele>
      </trkpt>
      <trkpt lat="36.72865" lon="-5.1039">
        <ele>570</ele>
      </trkpt>
      <trkpt lat="36.72871" lon="-5.10384">
        <ele>568</ele>
      </trkpt>
      <trkpt lat="36.72876" lon="-5.10383">
        <ele>565</ele>
      </trkpt>
      <trkpt lat="36.72886" lon="-5.10391">
        <ele>565</ele>
      </trkpt>
      <trkpt lat="36.72895" lon="-5.10384">
        <ele>565</ele>
      </trkpt>
      <trkpt lat="36.72899" lon="-5.10373">
        <ele>567</ele>
      </trkpt>
      <trkpt lat="36.72914" lon="-5.10361">
        <ele>575</ele>
      </trkpt>
      <trkpt lat="36.72923" lon="-5.10358">
        <ele>575</ele>
      </trkpt>
      <trkpt lat="36.72933" lon="-5.10358">
        <ele>575</ele>
      </trkpt>
      <trkpt lat="36.72945" lon="-5.10358">
        <ele>575</ele>
      </trkpt>
      <trkpt lat="36.72958" lon="-5.1036">
        <ele>569</ele>
      </trkpt>
      <trkpt lat="36.72971" lon="-5.10362">
        <ele>569</ele>
      </trkpt>
      <trkpt lat="36.72985" lon="-5.10363">
        <ele>569</ele>
      </trkpt>
      <trkpt lat="36.73" lon="-5.10361">
        <ele>574</ele>
      </trkpt>
      <trkpt lat="36.73016" lon="-5.10358">
        <ele>578</ele>
      </trkpt>
      <trkpt lat="36.73031" lon="-5.10354">
        <ele>581</ele>
      </trkpt>
      <trkpt lat="36.73046" lon="-5.10351">
        <ele>584</ele>
      </trkpt>
      <trkpt lat="36.73062" lon="-5.10346">
        <ele>588</ele>
      </trkpt>
      <trkpt lat="36.73076" lon="-5.10342">
        <ele>588</ele>
      </trkpt>
      <trkpt lat="36.73089" lon="-5.10338">
        <ele>588</ele>
      </trkpt>
      <trkpt lat="36.73103" lon="-5.10332">
        <ele>591</ele>
      </trkpt>
      <trkpt lat="36.73116" lon="-5.10327">
        <ele>591</ele>
      </trkpt>
      <trkpt lat="36.73129" lon="-5.1032">
        <ele>594</ele>
      </trkpt>
      <trkpt lat="36.73144" lon="-5.10313">
        <ele>597</ele>
      </trkpt>
      <trkpt lat="36.73159" lon="-5.10308">
        <ele>602</ele>
      </trkpt>
      <trkpt lat="36.73175" lon="-5.10303">
        <ele>607</ele>
      </trkpt>
      <trkpt lat="36.73191" lon="-5.10299">
        <ele>607.5</ele>
      </trkpt>
      <trkpt lat="36.73205" lon="-5.10293">
        <ele>608</ele>
      </trkpt>
      <trkpt lat="36.73219" lon="-5.10286">
        <ele>611</ele>
      </trkpt>
      <trkpt lat="36.73232" lon="-5.10277">
        <ele>616</ele>
      </trkpt>
      <trkpt lat="36.73243" lon="-5.10268">
        <ele>621</ele>
      </trkpt>
      <trkpt lat="36.73255" lon="-5.10259">
        <ele>627</ele>
      </trkpt>
      <trkpt lat="36.73265" lon="-5.1025">
        <ele>629</ele>
      </trkpt>
      <trkpt lat="36.73275" lon="-5.10241">
        <ele>631</ele>
      </trkpt>
      <trkpt lat="36.73284" lon="-5.10235">
        <ele>631</ele>
      </trkpt>
      <trkpt lat="36.73298" lon="-5.10233">
        <ele>636</ele>
      </trkpt>
      <trkpt lat="36.73314" lon="-5.10244">
        <ele>639</ele>
      </trkpt>
      <trkpt lat="36.73329" lon="-5.10253">
        <ele>644</ele>
      </trkpt>
      <trkpt lat="36.73345" lon="-5.10247">
        <ele>652</ele>
      </trkpt>
      <trkpt lat="36.73354" lon="-5.10244">
        <ele>652.5</ele>
      </trkpt>
      <trkpt lat="36.73363" lon="-5.10239">
        <ele>653</ele>
      </trkpt>
      <trkpt lat="36.73373" lon="-5.10235">
        <ele>654</ele>
      </trkpt>
      <trkpt lat="36.73385" lon="-5.10232">
        <ele>667</ele>
      </trkpt>
      <trkpt lat="36.73395" lon="-5.10227">
        <ele>673</ele>
      </trkpt>
      <trkpt lat="36.73403" lon="-5.1022">
        <ele>673</ele>
      </trkpt>
      <trkpt lat="36.73415" lon="-5.10205">
        <ele>673</ele>
      </trkpt>
      <trkpt lat="36.73423" lon="-5.10196">
        <ele>677</ele>
      </trkpt>
      <trkpt lat="36.73431" lon="-5.10186">
        <ele>681</ele>
      </trkpt>
      <trkpt lat="36.73442" lon="-5.10176">
        <ele>681</ele>
      </trkpt>
      <trkpt lat="36.73453" lon="-5.10166">
        <ele>681</ele>
      </trkpt>
      <trkpt lat="36.73463" lon="-5.10156">
        <ele>680</ele>
      </trkpt>
      <trkpt lat="36.73471" lon="-5.10147">
        <ele>677</ele>
      </trkpt>
      <trkpt lat="36.73478" lon="-5.10138">
        <ele>677</ele>
      </trkpt>
      <trkpt lat="36.73486" lon="-5.10128">
        <ele>678.5</ele>
      </trkpt>
      <trkpt lat="36.73494" lon="-5.10118">
        <ele>678.2</ele>
      </trkpt>
      <trkpt lat="36.73503" lon="-5.10109">
        <ele>681.6</ele>
      </trkpt>
      <trkpt lat="36.73512" lon="-5.10101">
        <ele>685</ele>
      </trkpt>
      <trkpt lat="36.7352" lon="-5.10094">
        <ele>692</ele>
      </trkpt>
      <trkpt lat="36.73531" lon="-5.1008">
        <ele>701</ele>
      </trkpt>
      <trkpt lat="36.73547" lon="-5.10068">
        <ele>707</ele>
      </trkpt>
      <trkpt lat="36.73559" lon="-5.10062">
        <ele>711</ele>
      </trkpt>
      <trkpt lat="36.73571" lon="-5.10052">
        <ele>713.5</ele>
      </trkpt>
      <trkpt lat="36.73583" lon="-5.10041">
        <ele>716</ele>
      </trkpt>
      <trkpt lat="36.73595" lon="-5.10029">
        <ele>717</ele>
      </trkpt>
      <trkpt lat="36.73606" lon="-5.10018">
        <ele>716</ele>
      </trkpt>
      <trkpt lat="36.73617" lon="-5.10007">
        <ele>715</ele>
      </trkpt>
      <trkpt lat="36.73627" lon="-5.09997">
        <ele>718.5</ele>
      </trkpt>
      <trkpt lat="36.73636" lon="-5.09989">
        <ele>722</ele>
      </trkpt>
      <trkpt lat="36.73643" lon="-5.09982">
        <ele>730</ele>
      </trkpt>
      <trkpt lat="36.73651" lon="-5.09973">
        <ele>734</ele>
      </trkpt>
      <trkpt lat="36.73658" lon="-5.09963">
        <ele>739</ele>
      </trkpt>
      <trkpt lat="36.73666" lon="-5.09954">
        <ele>742</ele>
      </trkpt>
      <trkpt lat="36.73675" lon="-5.09938">
        <ele>746</ele>
      </trkpt>
      <trkpt lat="36.73673" lon="-5.09924">
        <ele>751</ele>
      </trkpt>
      <trkpt lat="36.73663" lon="-5.09913">
        <ele>754</ele>
      </trkpt>
      <trkpt lat="36.73654" lon="-5.09901">
        <ele>757</ele>
      </trkpt>
      <trkpt lat="36.73654" lon="-5.09887">
        <ele>760</ele>
      </trkpt>
      <trkpt lat="36.73666" lon="-5.09876">
        <ele>761</ele>
      </trkpt>
      <trkpt lat="36.73677" lon="-5.09872">
        <ele>762</ele>
      </trkpt>
      <trkpt lat="36.73687" lon="-5.0987">
        <ele>768</ele>
      </trkpt>
      <trkpt lat="36.73696" lon="-5.09871">
        <ele>766.5</ele>
      </trkpt>
      <trkpt lat="36.73711" lon="-5.09877">
        <ele>770.7</ele>
      </trkpt>
      <trkpt lat="36.73719" lon="-5.09891">
        <ele>775</ele>
      </trkpt>
      <trkpt lat="36.73727" lon="-5.09903">
        <ele>780.5</ele>
      </trkpt>
      <trkpt lat="36.73735" lon="-5.0991">
        <ele>786</ele>
      </trkpt>
      <trkpt lat="36.73744" lon="-5.09919">
        <ele>787</ele>
      </trkpt>
      <trkpt lat="36.73753" lon="-5.09927">
        <ele>797</ele>
      </trkpt>
      <trkpt lat="36.73763" lon="-5.09934">
        <ele>799</ele>
      </trkpt>
      <trkpt lat="36.7378" lon="-5.0994">
        <ele>801</ele>
      </trkpt>
      <trkpt lat="36.73794" lon="-5.09937">
        <ele>806</ele>
      </trkpt>
      <trkpt lat="36.73807" lon="-5.09926">
        <ele>809.5</ele>
      </trkpt>
      <trkpt lat="36.73816" lon="-5.09918">
        <ele>813</ele>
      </trkpt>
      <trkpt lat="36.73826" lon="-5.09909">
        <ele>822</ele>
      </trkpt>
      <trkpt lat="36.73837" lon="-5.099">
        <ele>826</ele>
      </trkpt>
      <trkpt lat="36.73848" lon="-5.09892">
        <ele>826</ele>
      </trkpt>
      <trkpt lat="36.73858" lon="-5.09882">
        <ele>826</ele>
      </trkpt>
      <trkpt lat="36.73868" lon="-5.09871">
        <ele>832</ele>
      </trkpt>
      <trkpt lat="36.73877" lon="-5.09859">
        <ele>838</ele>
      </trkpt>
      <trkpt lat="36.73886" lon="-5.09846">
        <ele>844</ele>
      </trkpt>
      <trkpt lat="36.73895" lon="-5.09832">
        <ele>846.5</ele>
      </trkpt>
      <trkpt lat="36.73901" lon="-5.0982">
        <ele>849</ele>
      </trkpt>
      <trkpt lat="36.73906" lon="-5.09809">
        <ele>855</ele>
      </trkpt>
      <trkpt lat="36.73909" lon="-5.09796">
        <ele>857</ele>
      </trkpt>
      <trkpt lat="36.73909" lon="-5.09784">
        <ele>858</ele>
      </trkpt>
      <trkpt lat="36.73922" lon="-5.0978">
        <ele>863</ele>
      </trkpt>
      <trkpt lat="36.73939" lon="-5.09782">
        <ele>864</ele>
      </trkpt>
      <trkpt lat="36.73949" lon="-5.09783">
        <ele>864</ele>
      </trkpt>
      <trkpt lat="36.73963" lon="-5.09778">
        <ele>869</ele>
      </trkpt>
      <trkpt lat="36.73972" lon="-5.09766">
        <ele>869.5</ele>
      </trkpt>
      <trkpt lat="36.73976" lon="-5.09755">
        <ele>870</ele>
      </trkpt>
      <trkpt lat="36.73982" lon="-5.09743">
        <ele>874</ele>
      </trkpt>
      <trkpt lat="36.73989" lon="-5.0973">
        <ele>874</ele>
      </trkpt>
      <trkpt lat="36.73996" lon="-5.09716">
        <ele>874</ele>
      </trkpt>
      <trkpt lat="36.74003" lon="-5.09703">
        <ele>876</ele>
      </trkpt>
      <trkpt lat="36.74011" lon="-5.09689">
        <ele>878</ele>
      </trkpt>
      <trkpt lat="36.74019" lon="-5.09677">
        <ele>879</ele>
      </trkpt>
      <trkpt lat="36.74027" lon="-5.09664">
        <ele>879</ele>
      </trkpt>
      <trkpt lat="36.74036" lon="-5.09652">
        <ele>879</ele>
      </trkpt>
      <trkpt lat="36.74043" lon="-5.09641">
        <ele>876</ele>
      </trkpt>
      <trkpt lat="36.7405" lon="-5.09632">
        <ele>876</ele>
      </trkpt>
      <trkpt lat="36.74058" lon="-5.09625">
        <ele>876</ele>
      </trkpt>
      <trkpt lat="36.74074" lon="-5.09616">
        <ele>874</ele>
      </trkpt>
      <trkpt lat="36.74084" lon="-5.09613">
        <ele>873</ele>
      </trkpt>
      <trkpt lat="36.74093" lon="-5.09611">
        <ele>873</ele>
      </trkpt>
      <trkpt lat="36.74102" lon="-5.09607">
        <ele>873</ele>
      </trkpt>
      <trkpt lat="36.74111" lon="-5.09603">
        <ele>872</ele>
      </trkpt>
      <trkpt lat="36.74129" lon="-5.09597">
        <ele>876</ele>
      </trkpt>
      <trkpt lat="36.74139" lon="-5.09595">
        <ele>880</ele>
      </trkpt>
      <trkpt lat="36.74151" lon="-5.09594">
        <ele>880.5</ele>
      </trkpt>
      <trkpt lat="36.74163" lon="-5.09594">
        <ele>879.7</ele>
      </trkpt>
      <trkpt lat="36.74175" lon="-5.09594">
        <ele>879</ele>
      </trkpt>
      <trkpt lat="36.74186" lon="-5.09594">
        <ele>878</ele>
      </trkpt>
      <trkpt lat="36.74195" lon="-5.09595">
        <ele>877.5</ele>
      </trkpt>
      <trkpt lat="36.74207" lon="-5.09602">
        <ele>879.7</ele>
      </trkpt>
      <trkpt lat="36.74211" lon="-5.09616">
        <ele>882</ele>
      </trkpt>
      <trkpt lat="36.74204" lon="-5.09639">
        <ele>892</ele>
      </trkpt>
      <trkpt lat="36.74207" lon="-5.09646">
        <ele>892</ele>
      </trkpt>
      <trkpt lat="36.74217" lon="-5.09653">
        <ele>893.5</ele>
      </trkpt>
      <trkpt lat="36.74234" lon="-5.09665">
        <ele>893.7</ele>
      </trkpt>
      <trkpt lat="36.74245" lon="-5.09673">
        <ele>890.8</ele>
      </trkpt>
      <trkpt lat="36.74257" lon="-5.09682">
        <ele>888</ele>
      </trkpt>
      <trkpt lat="36.7427" lon="-5.09691">
        <ele>887</ele>
      </trkpt>
      <trkpt lat="36.74284" lon="-5.09701">
        <ele>886.5</ele>
      </trkpt>
      <trkpt lat="36.74297" lon="-5.09712">
        <ele>887.7</ele>
      </trkpt>
      <trkpt lat="36.74311" lon="-5.09722">
        <ele>889</ele>
      </trkpt>
      <trkpt lat="36.74324" lon="-5.09732">
        <ele>893</ele>
      </trkpt>
      <trkpt lat="36.74337" lon="-5.09742">
        <ele>893</ele>
      </trkpt>
      <trkpt lat="36.74349" lon="-5.09751">
        <ele>893</ele>
      </trkpt>
      <trkpt lat="36.74361" lon="-5.09759">
        <ele>883</ele>
      </trkpt>
      <trkpt lat="36.74371" lon="-5.09767">
        <ele>880.5</ele>
      </trkpt>
      <trkpt lat="36.7438" lon="-5.09772">
        <ele>878</ele>
      </trkpt>
      <trkpt lat="36.74392" lon="-5.09778">
        <ele>877</ele>
      </trkpt>
      <trkpt lat="36.74398" lon="-5.09789">
        <ele>877</ele>
      </trkpt>
      <trkpt lat="36.74396" lon="-5.09809">
        <ele>881</ele>
      </trkpt>
      <trkpt lat="36.74392" lon="-5.09822">
        <ele>885</ele>
      </trkpt>
      <trkpt lat="36.74386" lon="-5.09837">
        <ele>886.5</ele>
      </trkpt>
      <trkpt lat="36.7438" lon="-5.09856">
        <ele>888</ele>
      </trkpt>
      <trkpt lat="36.74374" lon="-5.09876">
        <ele>888</ele>
      </trkpt>
      <trkpt lat="36.74367" lon="-5.09897">
        <ele>889</ele>
      </trkpt>
      <trkpt lat="36.74361" lon="-5.09918">
        <ele>888</ele>
      </trkpt>
      <trkpt lat="36.74357" lon="-5.09941">
        <ele>887</ele>
      </trkpt>
      <trkpt lat="36.74352" lon="-5.09966">
        <ele>884.5</ele>
      </trkpt>
      <trkpt lat="36.74348" lon="-5.09991">
        <ele>882</ele>
      </trkpt>
      <trkpt lat="36.74342" lon="-5.10015">
        <ele>882</ele>
      </trkpt>
      <trkpt lat="36.74336" lon="-5.10041">
        <ele>881</ele>
      </trkpt>
      <trkpt lat="36.74329" lon="-5.10065">
        <ele>880</ele>
      </trkpt>
      <trkpt lat="36.74322" lon="-5.10087">
        <ele>869</ele>
      </trkpt>
      <trkpt lat="36.74315" lon="-5.10108">
        <ele>864</ele>
      </trkpt>
      <trkpt lat="36.74308" lon="-5.10127">
        <ele>864</ele>
      </trkpt>
      <trkpt lat="36.74302" lon="-5.10145">
        <ele>864</ele>
      </trkpt>
      <trkpt lat="36.74297" lon="-5.10163">
        <ele>858</ele>
      </trkpt>
      <trkpt lat="36.74294" lon="-5.1018">
        <ele>855</ele>
      </trkpt>
      <trkpt lat="36.74293" lon="-5.10196">
        <ele>845</ele>
      </trkpt>
      <trkpt lat="36.74293" lon="-5.10214">
        <ele>838</ele>
      </trkpt>
      <trkpt lat="36.74294" lon="-5.10232">
        <ele>837.5</ele>
      </trkpt>
      <trkpt lat="36.74294" lon="-5.10252">
        <ele>837</ele>
      </trkpt>
      <trkpt lat="36.74293" lon="-5.10273">
        <ele>835</ele>
      </trkpt>
      <trkpt lat="36.74288" lon="-5.10296">
        <ele>832</ele>
      </trkpt>
      <trkpt lat="36.74282" lon="-5.1032">
        <ele>832</ele>
      </trkpt>
      <trkpt lat="36.74275" lon="-5.10345">
        <ele>832</ele>
      </trkpt>
      <trkpt lat="36.74269" lon="-5.1037">
        <ele>835</ele>
      </trkpt>
      <trkpt lat="36.74264" lon="-5.10397">
        <ele>835</ele>
      </trkpt>
      <trkpt lat="36.7426" lon="-5.10424">
        <ele>833</ele>
      </trkpt>
      <trkpt lat="36.74257" lon="-5.10453">
        <ele>824</ele>
      </trkpt>
      <trkpt lat="36.74255" lon="-5.10481">
        <ele>824</ele>
      </trkpt>
      <trkpt lat="36.74253" lon="-5.1051">
        <ele>822</ele>
      </trkpt>
      <trkpt lat="36.74251" lon="-5.10538">
        <ele>816</ele>
      </trkpt>
      <trkpt lat="36.74249" lon="-5.10566">
        <ele>815</ele>
      </trkpt>
      <trkpt lat="36.74247" lon="-5.10595">
        <ele>815</ele>
      </trkpt>
      <trkpt lat="36.74244" lon="-5.10623">
        <ele>812</ele>
      </trkpt>
      <trkpt lat="36.74243" lon="-5.10652">
        <ele>804</ele>
      </trkpt>
      <trkpt lat="36.74241" lon="-5.10679">
        <ele>803</ele>
      </trkpt>
      <trkpt lat="36.74241" lon="-5.10705">
        <ele>802</ele>
      </trkpt>
      <trkpt lat="36.7424" lon="-5.1073">
        <ele>799</ele>
      </trkpt>
      <trkpt lat="36.74241" lon="-5.10752">
        <ele>796</ele>
      </trkpt>
      <trkpt lat="36.74243" lon="-5.10772">
        <ele>791</ele>
      </trkpt>
      <trkpt lat="36.74246" lon="-5.10791">
        <ele>787</ele>
      </trkpt>
      <trkpt lat="36.74247" lon="-5.1081">
        <ele>783</ele>
      </trkpt>
      <trkpt lat="36.74246" lon="-5.1083">
        <ele>782.5</ele>
      </trkpt>
      <trkpt lat="36.74242" lon="-5.10852">
        <ele>783.2</ele>
      </trkpt>
      <trkpt lat="36.7424" lon="-5.10875">
        <ele>782.6</ele>
      </trkpt>
      <trkpt lat="36.74237" lon="-5.10897">
        <ele>782</ele>
      </trkpt>
      <trkpt lat="36.74235" lon="-5.10919">
        <ele>783.5</ele>
      </trkpt>
      <trkpt lat="36.74234" lon="-5.10941">
        <ele>785</ele>
      </trkpt>
      <trkpt lat="36.74233" lon="-5.10963">
        <ele>787</ele>
      </trkpt>
      <trkpt lat="36.74232" lon="-5.10986">
        <ele>789</ele>
      </trkpt>
      <trkpt lat="36.74232" lon="-5.1101">
        <ele>791</ele>
      </trkpt>
      <trkpt lat="36.74232" lon="-5.11036">
        <ele>791.5</ele>
      </trkpt>
      <trkpt lat="36.74233" lon="-5.11062">
        <ele>792</ele>
      </trkpt>
      <trkpt lat="36.74233" lon="-5.11088">
        <ele>793.5</ele>
      </trkpt>
      <trkpt lat="36.74235" lon="-5.11112">
        <ele>792.7</ele>
      </trkpt>
      <trkpt lat="36.74236" lon="-5.11136">
        <ele>792</ele>
      </trkpt>
      <trkpt lat="36.74238" lon="-5.11158">
        <ele>785</ele>
      </trkpt>
      <trkpt lat="36.7424" lon="-5.11179">
        <ele>783</ele>
      </trkpt>
      <trkpt lat="36.74243" lon="-5.11201">
        <ele>783</ele>
      </trkpt>
      <trkpt lat="36.74246" lon="-5.11222">
        <ele>783</ele>
      </trkpt>
      <trkpt lat="36.74249" lon="-5.11244">
        <ele>788</ele>
      </trkpt>
      <trkpt lat="36.74252" lon="-5.11266">
        <ele>788</ele>
      </trkpt>
      <trkpt lat="36.74254" lon="-5.11285">
        <ele>788</ele>
      </trkpt>
      <trkpt lat="36.74257" lon="-5.11302">
        <ele>775</ele>
      </trkpt>
      <trkpt lat="36.74259" lon="-5.11316">
        <ele>773</ele>
      </trkpt>
      <trkpt lat="36.74262" lon="-5.11328">
        <ele>771</ele>
      </trkpt>
      <trkpt lat="36.74269" lon="-5.11344">
        <ele>770</ele>
      </trkpt>
      <trkpt lat="36.74282" lon="-5.11346">
        <ele>766</ele>
      </trkpt>
      <trkpt lat="36.74292" lon="-5.11345">
        <ele>769</ele>
      </trkpt>
      <trkpt lat="36.74304" lon="-5.11341">
        <ele>769.5</ele>
      </trkpt>
      <trkpt lat="36.74319" lon="-5.11336">
        <ele>768.2</ele>
      </trkpt>
      <trkpt lat="36.74335" lon="-5.11332">
        <ele>769.6</ele>
      </trkpt>
      <trkpt lat="36.74353" lon="-5.11327">
        <ele>771</ele>
      </trkpt>
      <trkpt lat="36.74371" lon="-5.11324">
        <ele>770</ele>
      </trkpt>
      <trkpt lat="36.7439" lon="-5.1132">
        <ele>769</ele>
      </trkpt>
      <trkpt lat="36.74409" lon="-5.11316">
        <ele>767</ele>
      </trkpt>
      <trkpt lat="36.74429" lon="-5.11312">
        <ele>764</ele>
      </trkpt>
      <trkpt lat="36.74448" lon="-5.11307">
        <ele>756</ele>
      </trkpt>
      <trkpt lat="36.74467" lon="-5.11302">
        <ele>756.5</ele>
      </trkpt>
      <trkpt lat="36.74485" lon="-5.11297">
        <ele>757</ele>
      </trkpt>
      <trkpt lat="36.74504" lon="-5.11293">
        <ele>761</ele>
      </trkpt>
      <trkpt lat="36.74522" lon="-5.11289">
        <ele>757.5</ele>
      </trkpt>
      <trkpt lat="36.74541" lon="-5.11285">
        <ele>754</ele>
      </trkpt>
      <trkpt lat="36.74559" lon="-5.11281">
        <ele>754</ele>
      </trkpt>
      <trkpt lat="36.74578" lon="-5.11276">
        <ele>749</ele>
      </trkpt>
      <trkpt lat="36.74598" lon="-5.11271">
        <ele>744</ele>
      </trkpt>
      <trkpt lat="36.74617" lon="-5.11265">
        <ele>743</ele>
      </trkpt>
      <trkpt lat="36.74637" lon="-5.11259">
        <ele>744.5</ele>
      </trkpt>
      <trkpt lat="36.74658" lon="-5.11253">
        <ele>746</ele>
      </trkpt>
      <trkpt lat="36.74678" lon="-5.11247">
        <ele>744</ele>
      </trkpt>
      <trkpt lat="36.74697" lon="-5.11241">
        <ele>742</ele>
      </trkpt>
      <trkpt lat="36.74712" lon="-5.11235">
        <ele>740</ele>
      </trkpt>
      <trkpt lat="36.74725" lon="-5.11228">
        <ele>743</ele>
      </trkpt>
      <trkpt lat="36.74738" lon="-5.11219">
        <ele>746</ele>
      </trkpt>
      <trkpt lat="36.74752" lon="-5.11211">
        <ele>756</ele>
      </trkpt>
      <trkpt lat="36.74767" lon="-5.11202">
        <ele>761</ele>
      </trkpt>
      <trkpt lat="36.74782" lon="-5.11194">
        <ele>760.5</ele>
      </trkpt>
      <trkpt lat="36.74797" lon="-5.11187">
        <ele>760</ele>
      </trkpt>
      <trkpt lat="36.74812" lon="-5.1118">
        <ele>758</ele>
      </trkpt>
      <trkpt lat="36.74825" lon="-5.11173">
        <ele>754.5</ele>
      </trkpt>
      <trkpt lat="36.74835" lon="-5.11166">
        <ele>755.7</ele>
      </trkpt>
      <trkpt lat="36.74846" lon="-5.11163">
        <ele>757</ele>
      </trkpt>
      <trkpt lat="36.74856" lon="-5.11162">
        <ele>757</ele>
      </trkpt>
      <trkpt lat="36.74866" lon="-5.11162">
        <ele>757</ele>
      </trkpt>
      <trkpt lat="36.74877" lon="-5.11161">
        <ele>755</ele>
      </trkpt>
      <trkpt lat="36.74889" lon="-5.11157">
        <ele>753</ele>
      </trkpt>
      <trkpt lat="36.74903" lon="-5.11151">
        <ele>753.5</ele>
      </trkpt>
      <trkpt lat="36.74918" lon="-5.11143">
        <ele>752.7</ele>
      </trkpt>
      <trkpt lat="36.74935" lon="-5.11136">
        <ele>753.8</ele>
      </trkpt>
      <trkpt lat="36.74952" lon="-5.11129">
        <ele>755</ele>
      </trkpt>
      <trkpt lat="36.74969" lon="-5.11122">
        <ele>755</ele>
      </trkpt>
      <trkpt lat="36.74985" lon="-5.11114">
        <ele>755</ele>
      </trkpt>
      <trkpt lat="36.74999" lon="-5.11106">
        <ele>755</ele>
      </trkpt>
      <trkpt lat="36.75012" lon="-5.11097">
        <ele>754.5</ele>
      </trkpt>
      <trkpt lat="36.75023" lon="-5.11086">
        <ele>756.7</ele>
      </trkpt>
      <trkpt lat="36.75034" lon="-5.11075">
        <ele>759</ele>
      </trkpt>
      <trkpt lat="36.75044" lon="-5.11064">
        <ele>760</ele>
      </trkpt>
      <trkpt lat="36.75053" lon="-5.11051">
        <ele>759.5</ele>
      </trkpt>
      <trkpt lat="36.75063" lon="-5.11039">
        <ele>760.7</ele>
      </trkpt>
      <trkpt lat="36.75073" lon="-5.11027">
        <ele>760.3</ele>
      </trkpt>
      <trkpt lat="36.75084" lon="-5.11017">
        <ele>760</ele>
      </trkpt>
      <trkpt lat="36.75096" lon="-5.11008">
        <ele>760</ele>
      </trkpt>
      <trkpt lat="36.75108" lon="-5.10998">
        <ele>763</ele>
      </trkpt>
      <trkpt lat="36.7512" lon="-5.10987">
        <ele>760</ele>
      </trkpt>
      <trkpt lat="36.75133" lon="-5.10977">
        <ele>759.5</ele>
      </trkpt>
      <trkpt lat="36.75146" lon="-5.10967">
        <ele>759</ele>
      </trkpt>
      <trkpt lat="36.75159" lon="-5.10959">
        <ele>758</ele>
      </trkpt>
      <trkpt lat="36.75171" lon="-5.10955">
        <ele>756</ele>
      </trkpt>
      <trkpt lat="36.75183" lon="-5.10953">
        <ele>754</ele>
      </trkpt>
      <trkpt lat="36.75197" lon="-5.10954">
        <ele>753.5</ele>
      </trkpt>
      <trkpt lat="36.75211" lon="-5.10956">
        <ele>753</ele>
      </trkpt>
      <trkpt lat="36.75227" lon="-5.10958">
        <ele>750</ele>
      </trkpt>
      <trkpt lat="36.75242" lon="-5.10961">
        <ele>749</ele>
      </trkpt>
      <trkpt lat="36.75255" lon="-5.10962">
        <ele>751</ele>
      </trkpt>
      <trkpt lat="36.75268" lon="-5.10962">
        <ele>751.5</ele>
      </trkpt>
      <trkpt lat="36.75282" lon="-5.1096">
        <ele>752</ele>
      </trkpt>
      <trkpt lat="36.75297" lon="-5.10958">
        <ele>751</ele>
      </trkpt>
      <trkpt lat="36.75312" lon="-5.10957">
        <ele>752</ele>
      </trkpt>
      <trkpt lat="36.75328" lon="-5.10958">
        <ele>751</ele>
      </trkpt>
      <trkpt lat="36.75344" lon="-5.10961">
        <ele>752</ele>
      </trkpt>
      <trkpt lat="36.75361" lon="-5.10966">
        <ele>753</ele>
      </trkpt>
      <trkpt lat="36.75379" lon="-5.1097">
        <ele>754</ele>
      </trkpt>
      <trkpt lat="36.75396" lon="-5.10973">
        <ele>754</ele>
      </trkpt>
      <trkpt lat="36.75411" lon="-5.10974">
        <ele>756</ele>
      </trkpt>
      <trkpt lat="36.75426" lon="-5.10974">
        <ele>762</ele>
      </trkpt>
      <trkpt lat="36.75442" lon="-5.10973">
        <ele>765</ele>
      </trkpt>
      <trkpt lat="36.75458" lon="-5.10972">
        <ele>765</ele>
      </trkpt>
      <trkpt lat="36.75472" lon="-5.10971">
        <ele>765</ele>
      </trkpt>
      <trkpt lat="36.75484" lon="-5.10968">
        <ele>765</ele>
      </trkpt>
      <trkpt lat="36.75494" lon="-5.10966">
        <ele>764</ele>
      </trkpt>
      <trkpt lat="36.75512" lon="-5.10971">
        <ele>763</ele>
      </trkpt>
      <trkpt lat="36.75521" lon="-5.10972">
        <ele>758</ele>
      </trkpt>
      <trkpt lat="36.7553" lon="-5.10971">
        <ele>758</ele>
      </trkpt>
      <trkpt lat="36.75541" lon="-5.10965">
        <ele>758</ele>
      </trkpt>
      <trkpt lat="36.75552" lon="-5.10958">
        <ele>758</ele>
      </trkpt>
      <trkpt lat="36.75565" lon="-5.10951">
        <ele>758</ele>
      </trkpt>
      <trkpt lat="36.7558" lon="-5.10945">
        <ele>756</ele>
      </trkpt>
      <trkpt lat="36.75594" lon="-5.10943">
        <ele>755.5</ele>
      </trkpt>
      <trkpt lat="36.75609" lon="-5.10944">
        <ele>755.7</ele>
      </trkpt>
      <trkpt lat="36.75625" lon="-5.10945">
        <ele>754.8</ele>
      </trkpt>
      <trkpt lat="36.75642" lon="-5.10946">
        <ele>754</ele>
      </trkpt>
      <trkpt lat="36.7566" lon="-5.10946">
        <ele>753</ele>
      </trkpt>
      <trkpt lat="36.75679" lon="-5.10943">
        <ele>749</ele>
      </trkpt>
      <trkpt lat="36.75698" lon="-5.1094">
        <ele>747</ele>
      </trkpt>
      <trkpt lat="36.75716" lon="-5.10937">
        <ele>746</ele>
      </trkpt>
      <trkpt lat="36.75734" lon="-5.10935">
        <ele>741</ele>
      </trkpt>
      <trkpt lat="36.75752" lon="-5.10932">
        <ele>739</ele>
      </trkpt>
      <trkpt lat="36.75768" lon="-5.10927">
        <ele>738</ele>
      </trkpt>
      <trkpt lat="36.75784" lon="-5.10921">
        <ele>738</ele>
      </trkpt>
      <trkpt lat="36.75799" lon="-5.10914">
        <ele>738</ele>
      </trkpt>
      <trkpt lat="36.75815" lon="-5.10909">
        <ele>737</ele>
      </trkpt>
      <trkpt lat="36.7583" lon="-5.10904">
        <ele>736</ele>
      </trkpt>
      <trkpt lat="36.75843" lon="-5.10901">
        <ele>734</ele>
      </trkpt>
      <trkpt lat="36.75853" lon="-5.10899">
        <ele>734.5</ele>
      </trkpt>
      <trkpt lat="36.7587" lon="-5.10906">
        <ele>733.7</ele>
      </trkpt>
      <trkpt lat="36.75879" lon="-5.10913">
        <ele>733</ele>
      </trkpt>
      <trkpt lat="36.75891" lon="-5.10919">
        <ele>733</ele>
      </trkpt>
      <trkpt lat="36.75904" lon="-5.10924">
        <ele>732</ele>
      </trkpt>
      <trkpt lat="36.75918" lon="-5.10931">
        <ele>730</ele>
      </trkpt>
      <trkpt lat="36.75934" lon="-5.10938">
        <ele>727</ele>
      </trkpt>
      <trkpt lat="36.75951" lon="-5.10946">
        <ele>727</ele>
      </trkpt>
      <trkpt lat="36.7597" lon="-5.10954">
        <ele>727</ele>
      </trkpt>
      <trkpt lat="36.75989" lon="-5.10962">
        <ele>726</ele>
      </trkpt>
      <trkpt lat="36.7601" lon="-5.10968">
        <ele>726</ele>
      </trkpt>
      <trkpt lat="36.7603" lon="-5.10973">
        <ele>726</ele>
      </trkpt>
      <trkpt lat="36.76051" lon="-5.10976">
        <ele>726</ele>
      </trkpt>
      <trkpt lat="36.76072" lon="-5.10979">
        <ele>726</ele>
      </trkpt>
      <trkpt lat="36.76093" lon="-5.1098">
        <ele>721</ele>
      </trkpt>
      <trkpt lat="36.76112" lon="-5.10981">
        <ele>719</ele>
      </trkpt>
      <trkpt lat="36.76129" lon="-5.10982">
        <ele>716</ele>
      </trkpt>
      <trkpt lat="36.76145" lon="-5.10981">
        <ele>715.5</ele>
      </trkpt>
      <trkpt lat="36.76161" lon="-5.10981">
        <ele>715.7</ele>
      </trkpt>
      <trkpt lat="36.76178" lon="-5.10981">
        <ele>713.8</ele>
      </trkpt>
      <trkpt lat="36.76196" lon="-5.10981">
        <ele>712</ele>
      </trkpt>
      <trkpt lat="36.76215" lon="-5.10981">
        <ele>711</ele>
      </trkpt>
      <trkpt lat="36.76233" lon="-5.10982">
        <ele>708</ele>
      </trkpt>
      <trkpt lat="36.76251" lon="-5.10982">
        <ele>702</ele>
      </trkpt>
      <trkpt lat="36.76267" lon="-5.10983">
        <ele>700</ele>
      </trkpt>
      <trkpt lat="36.76283" lon="-5.10986">
        <ele>696</ele>
      </trkpt>
      <trkpt lat="36.76298" lon="-5.10992">
        <ele>695</ele>
      </trkpt>
      <trkpt lat="36.76313" lon="-5.10999">
        <ele>693</ele>
      </trkpt>
      <trkpt lat="36.76328" lon="-5.11005">
        <ele>692</ele>
      </trkpt>
      <trkpt lat="36.76341" lon="-5.1101">
        <ele>690</ele>
      </trkpt>
      <trkpt lat="36.76352" lon="-5.11013">
        <ele>690</ele>
      </trkpt>
      <trkpt lat="36.76363" lon="-5.11014">
        <ele>690</ele>
      </trkpt>
      <trkpt lat="36.76374" lon="-5.11012">
        <ele>687</ele>
      </trkpt>
      <trkpt lat="36.76387" lon="-5.11008">
        <ele>684</ele>
      </trkpt>
      <trkpt lat="36.76401" lon="-5.11004">
        <ele>684</ele>
      </trkpt>
      <trkpt lat="36.76416" lon="-5.10999">
        <ele>685</ele>
      </trkpt>
      <trkpt lat="36.76434" lon="-5.10992">
        <ele>685.5</ele>
      </trkpt>
      <trkpt lat="36.76451" lon="-5.10984">
        <ele>683.2</ele>
      </trkpt>
      <trkpt lat="36.76469" lon="-5.10974">
        <ele>681</ele>
      </trkpt>
      <trkpt lat="36.76489" lon="-5.10965">
        <ele>681</ele>
      </trkpt>
      <trkpt lat="36.76508" lon="-5.10953">
        <ele>677</ele>
      </trkpt>
      <trkpt lat="36.76529" lon="-5.1094">
        <ele>675</ele>
      </trkpt>
      <trkpt lat="36.76551" lon="-5.10926">
        <ele>674</ele>
      </trkpt>
      <trkpt lat="36.76571" lon="-5.10913">
        <ele>673</ele>
      </trkpt>
      <trkpt lat="36.76591" lon="-5.10901">
        <ele>672</ele>
      </trkpt>
      <trkpt lat="36.76609" lon="-5.1089">
        <ele>668</ele>
      </trkpt>
      <trkpt lat="36.76623" lon="-5.10881">
        <ele>665</ele>
      </trkpt>
      <trkpt lat="36.76636" lon="-5.10874">
        <ele>664</ele>
      </trkpt>
      <trkpt lat="36.76648" lon="-5.10868">
        <ele>660</ele>
      </trkpt>
      <trkpt lat="36.76656" lon="-5.10863">
        <ele>657</ele>
      </trkpt>
      <trkpt lat="36.76668" lon="-5.1086">
        <ele>654</ele>
      </trkpt>
      <trkpt lat="36.76681" lon="-5.10874">
        <ele>652</ele>
      </trkpt>
      <trkpt lat="36.76687" lon="-5.10883">
        <ele>652</ele>
      </trkpt>
      <trkpt lat="36.76693" lon="-5.10892">
        <ele>651</ele>
      </trkpt>
      <trkpt lat="36.76703" lon="-5.109">
        <ele>650</ele>
      </trkpt>
      <trkpt lat="36.76713" lon="-5.10895">
        <ele>646</ele>
      </trkpt>
      <trkpt lat="36.76724" lon="-5.10878">
        <ele>642</ele>
      </trkpt>
      <trkpt lat="36.76732" lon="-5.10866">
        <ele>641</ele>
      </trkpt>
      <trkpt lat="36.7674" lon="-5.10853">
        <ele>639</ele>
      </trkpt>
      <trkpt lat="36.76748" lon="-5.10838">
        <ele>638</ele>
      </trkpt>
      <trkpt lat="36.76756" lon="-5.10824">
        <ele>637</ele>
      </trkpt>
      <trkpt lat="36.76765" lon="-5.10811">
        <ele>636</ele>
      </trkpt>
      <trkpt lat="36.76774" lon="-5.10797">
        <ele>633</ele>
      </trkpt>
      <trkpt lat="36.76782" lon="-5.10783">
        <ele>628</ele>
      </trkpt>
      <trkpt lat="36.7679" lon="-5.1077">
        <ele>626</ele>
      </trkpt>
      <trkpt lat="36.76796" lon="-5.10756">
        <ele>622</ele>
      </trkpt>
      <trkpt lat="36.76804" lon="-5.10743">
        <ele>622</ele>
      </trkpt>
      <trkpt lat="36.76813" lon="-5.1073">
        <ele>622</ele>
      </trkpt>
      <trkpt lat="36.76821" lon="-5.10718">
        <ele>622</ele>
      </trkpt>
      <trkpt lat="36.76828" lon="-5.10708">
        <ele>618</ele>
      </trkpt>
      <trkpt lat="36.76839" lon="-5.10694">
        <ele>618</ele>
      </trkpt>
      <trkpt lat="36.76845" lon="-5.10685">
        <ele>618</ele>
      </trkpt>
      <trkpt lat="36.76847" lon="-5.10671">
        <ele>621</ele>
      </trkpt>
      <trkpt lat="36.76858" lon="-5.10656">
        <ele>621</ele>
      </trkpt>
      <trkpt lat="36.76866" lon="-5.1065">
        <ele>619.5</ele>
      </trkpt>
      <trkpt lat="36.76875" lon="-5.10647">
        <ele>618</ele>
      </trkpt>
      <trkpt lat="36.76886" lon="-5.10645">
        <ele>617</ele>
      </trkpt>
      <trkpt lat="36.76897" lon="-5.10642">
        <ele>616</ele>
      </trkpt>
      <trkpt lat="36.76913" lon="-5.10633">
        <ele>615</ele>
      </trkpt>
      <trkpt lat="36.76925" lon="-5.1063">
        <ele>615</ele>
      </trkpt>
      <trkpt lat="36.76938" lon="-5.10628">
        <ele>614</ele>
      </trkpt>
      <trkpt lat="36.76954" lon="-5.10626">
        <ele>614</ele>
      </trkpt>
      <trkpt lat="36.76971" lon="-5.10624">
        <ele>614</ele>
      </trkpt>
      <trkpt lat="36.76989" lon="-5.10622">
        <ele>612</ele>
      </trkpt>
      <trkpt lat="36.77009" lon="-5.1062">
        <ele>612</ele>
      </trkpt>
      <trkpt lat="36.77029" lon="-5.10618">
        <ele>612</ele>
      </trkpt>
      <trkpt lat="36.7705" lon="-5.10615">
        <ele>612.5</ele>
      </trkpt>
      <trkpt lat="36.7707" lon="-5.10611">
        <ele>612.2</ele>
      </trkpt>
      <trkpt lat="36.77091" lon="-5.10606">
        <ele>612</ele>
      </trkpt>
      <trkpt lat="36.77112" lon="-5.106">
        <ele>612</ele>
      </trkpt>
      <trkpt lat="36.77132" lon="-5.10594">
        <ele>614</ele>
      </trkpt>
      <trkpt lat="36.77152" lon="-5.10588">
        <ele>614</ele>
      </trkpt>
      <trkpt lat="36.77171" lon="-5.10582">
        <ele>614.5</ele>
      </trkpt>
      <trkpt lat="36.77188" lon="-5.10575">
        <ele>615</ele>
      </trkpt>
      <trkpt lat="36.77204" lon="-5.10568">
        <ele>620</ele>
      </trkpt>
      <trkpt lat="36.77218" lon="-5.1056">
        <ele>624</ele>
      </trkpt>
      <trkpt lat="36.77232" lon="-5.1055">
        <ele>623</ele>
      </trkpt>
      <trkpt lat="36.77246" lon="-5.10538">
        <ele>622</ele>
      </trkpt>
      <trkpt lat="36.77261" lon="-5.10527">
        <ele>619</ele>
      </trkpt>
      <trkpt lat="36.77276" lon="-5.10517">
        <ele>613</ele>
      </trkpt>
      <trkpt lat="36.77289" lon="-5.10509">
        <ele>610</ele>
      </trkpt>
      <trkpt lat="36.773" lon="-5.10499">
        <ele>607</ele>
      </trkpt>
      <trkpt lat="36.77311" lon="-5.10486">
        <ele>607</ele>
      </trkpt>
      <trkpt lat="36.77323" lon="-5.10472">
        <ele>607</ele>
      </trkpt>
      <trkpt lat="36.77335" lon="-5.10458">
        <ele>605</ele>
      </trkpt>
      <trkpt lat="36.77346" lon="-5.10443">
        <ele>603</ele>
      </trkpt>
      <trkpt lat="36.77357" lon="-5.1043">
        <ele>600</ele>
      </trkpt>
      <trkpt lat="36.77369" lon="-5.10418">
        <ele>599.5</ele>
      </trkpt>
      <trkpt lat="36.77381" lon="-5.10407">
        <ele>600.7</ele>
      </trkpt>
      <trkpt lat="36.77395" lon="-5.10398">
        <ele>602</ele>
      </trkpt>
      <trkpt lat="36.77409" lon="-5.10389">
        <ele>601</ele>
      </trkpt>
      <trkpt lat="36.77422" lon="-5.10378">
        <ele>602</ele>
      </trkpt>
      <trkpt lat="36.77436" lon="-5.10368">
        <ele>601</ele>
      </trkpt>
      <trkpt lat="36.77449" lon="-5.10359">
        <ele>600</ele>
      </trkpt>
      <trkpt lat="36.77461" lon="-5.10352">
        <ele>594</ele>
      </trkpt>
      <trkpt lat="36.77472" lon="-5.10347">
        <ele>590</ele>
      </trkpt>
      <trkpt lat="36.77483" lon="-5.10344">
        <ele>590</ele>
      </trkpt>
      <trkpt lat="36.77496" lon="-5.10344">
        <ele>591</ele>
      </trkpt>
      <trkpt lat="36.77509" lon="-5.10346">
        <ele>592</ele>
      </trkpt>
      <trkpt lat="36.77524" lon="-5.10348">
        <ele>592</ele>
      </trkpt>
      <trkpt lat="36.77537" lon="-5.10352">
        <ele>587</ele>
      </trkpt>
      <trkpt lat="36.7755" lon="-5.10355">
        <ele>583</ele>
      </trkpt>
      <trkpt lat="36.77562" lon="-5.10358">
        <ele>579</ele>
      </trkpt>
      <trkpt lat="36.77575" lon="-5.10357">
        <ele>579</ele>
      </trkpt>
      <trkpt lat="36.7759" lon="-5.10353">
        <ele>579</ele>
      </trkpt>
      <trkpt lat="36.77606" lon="-5.1035">
        <ele>578</ele>
      </trkpt>
      <trkpt lat="36.77623" lon="-5.10348">
        <ele>577</ele>
      </trkpt>
      <trkpt lat="36.77641" lon="-5.10346">
        <ele>576.5</ele>
      </trkpt>
      <trkpt lat="36.77658" lon="-5.10344">
        <ele>576</ele>
      </trkpt>
      <trkpt lat="36.77674" lon="-5.1034">
        <ele>576</ele>
      </trkpt>
      <trkpt lat="36.7769" lon="-5.10333">
        <ele>575</ele>
      </trkpt>
      <trkpt lat="36.77706" lon="-5.10324">
        <ele>575</ele>
      </trkpt>
      <trkpt lat="36.77721" lon="-5.10313">
        <ele>575</ele>
      </trkpt>
      <trkpt lat="36.77738" lon="-5.10302">
        <ele>574</ele>
      </trkpt>
      <trkpt lat="36.77756" lon="-5.1029">
        <ele>574</ele>
      </trkpt>
      <trkpt lat="36.77775" lon="-5.1028">
        <ele>574</ele>
      </trkpt>
      <trkpt lat="36.77793" lon="-5.10269">
        <ele>570</ele>
      </trkpt>
      <trkpt lat="36.77811" lon="-5.10259">
        <ele>570</ele>
      </trkpt>
      <trkpt lat="36.7783" lon="-5.1025">
        <ele>570</ele>
      </trkpt>
      <trkpt lat="36.77848" lon="-5.10242">
        <ele>570</ele>
      </trkpt>
      <trkpt lat="36.77865" lon="-5.10235">
        <ele>570</ele>
      </trkpt>
      <trkpt lat="36.77882" lon="-5.10228">
        <ele>570</ele>
      </trkpt>
      <trkpt lat="36.77898" lon="-5.1022">
        <ele>573</ele>
      </trkpt>
      <trkpt lat="36.77914" lon="-5.10213">
        <ele>573</ele>
      </trkpt>
      <trkpt lat="36.77929" lon="-5.10207">
        <ele>571</ele>
      </trkpt>
      <trkpt lat="36.77944" lon="-5.10202">
        <ele>571</ele>
      </trkpt>
      <trkpt lat="36.77959" lon="-5.10198">
        <ele>570</ele>
      </trkpt>
      <trkpt lat="36.77971" lon="-5.10196">
        <ele>570</ele>
      </trkpt>
      <trkpt lat="36.77981" lon="-5.10196">
        <ele>569</ele>
      </trkpt>
      <trkpt lat="36.77992" lon="-5.10198">
        <ele>571</ele>
      </trkpt>
      <trkpt lat="36.78003" lon="-5.10199">
        <ele>573</ele>
      </trkpt>
      <trkpt lat="36.78014" lon="-5.10192">
        <ele>574</ele>
      </trkpt>
      <trkpt lat="36.78029" lon="-5.10176">
        <ele>575</ele>
      </trkpt>
      <trkpt lat="36.78038" lon="-5.10166">
        <ele>574.5</ele>
      </trkpt>
      <trkpt lat="36.78048" lon="-5.10155">
        <ele>575.7</ele>
      </trkpt>
      <trkpt lat="36.78059" lon="-5.10146">
        <ele>577</ele>
      </trkpt>
      <trkpt lat="36.7807" lon="-5.10138">
        <ele>580</ele>
      </trkpt>
      <trkpt lat="36.78079" lon="-5.10134">
        <ele>581</ele>
      </trkpt>
      <trkpt lat="36.78088" lon="-5.10134">
        <ele>581</ele>
      </trkpt>
      <trkpt lat="36.78107" lon="-5.10138">
        <ele>581</ele>
      </trkpt>
      <trkpt lat="36.78111" lon="-5.10121">
        <ele>581</ele>
      </trkpt>
      <trkpt lat="36.7811" lon="-5.10096">
        <ele>582</ele>
      </trkpt>
      <trkpt lat="36.78109" lon="-5.10078">
        <ele>583</ele>
      </trkpt>
      <trkpt lat="36.7811" lon="-5.10065">
        <ele>582.5</ele>
      </trkpt>
      <trkpt lat="36.78106" lon="-5.10054">
        <ele>582.7</ele>
      </trkpt>
      <trkpt lat="36.78104" lon="-5.10042">
        <ele>580.3</ele>
      </trkpt>
      <trkpt lat="36.78106" lon="-5.1003">
        <ele>578</ele>
      </trkpt>
      <trkpt lat="36.78107" lon="-5.1001">
        <ele>580</ele>
      </trkpt>
      <trkpt lat="36.78101" lon="-5.09993">
        <ele>579</ele>
      </trkpt>
      <trkpt lat="36.78093" lon="-5.09976">
        <ele>578</ele>
      </trkpt>
      <trkpt lat="36.78082" lon="-5.09962">
        <ele>578</ele>
      </trkpt>
      <trkpt lat="36.78075" lon="-5.09953">
        <ele>574</ele>
      </trkpt>
      <trkpt lat="36.78089" lon="-5.09953">
        <ele>574</ele>
      </trkpt>
      <trkpt lat="36.78107" lon="-5.09963">
        <ele>579</ele>
      </trkpt>
      <trkpt lat="36.78128" lon="-5.09972">
        <ele>580</ele>
      </trkpt>
      <trkpt lat="36.78143" lon="-5.09984">
        <ele>580</ele>
      </trkpt>
      <trkpt lat="36.78161" lon="-5.09986">
        <ele>572</ele>
      </trkpt>
      <trkpt lat="36.78179" lon="-5.09987">
        <ele>568</ele>
      </trkpt>
      <trkpt lat="36.78196" lon="-5.09994">
        <ele>564</ele>
      </trkpt>
      <trkpt lat="36.78215" lon="-5.09993">
        <ele>566</ele>
      </trkpt>
      <trkpt lat="36.78236" lon="-5.09989">
        <ele>556.5</ele>
      </trkpt>
      <trkpt lat="36.78252" lon="-5.09983">
        <ele>552.7</ele>
      </trkpt>
      <trkpt lat="36.78271" lon="-5.09971">
        <ele>549</ele>
      </trkpt>
      <trkpt lat="36.78283" lon="-5.09961">
        <ele>548</ele>
      </trkpt>
      <trkpt lat="36.78293" lon="-5.09949">
        <ele>544.5</ele>
      </trkpt>
      <trkpt lat="36.78306" lon="-5.09941">
        <ele>543.2</ele>
      </trkpt>
      <trkpt lat="36.78321" lon="-5.09937">
        <ele>542</ele>
      </trkpt>
      <trkpt lat="36.78347" lon="-5.09931">
        <ele>542</ele>
      </trkpt>
      <trkpt lat="36.78368" lon="-5.0994">
        <ele>537</ele>
      </trkpt>
      <trkpt lat="36.78388" lon="-5.09949">
        <ele>535</ele>
      </trkpt>
      <trkpt lat="36.78404" lon="-5.09952">
        <ele>536</ele>
      </trkpt>
      <trkpt lat="36.78415" lon="-5.09959">
        <ele>537</ele>
      </trkpt>
      <trkpt lat="36.78422" lon="-5.09973">
        <ele>539</ele>
      </trkpt>
      <trkpt lat="36.78428" lon="-5.09985">
        <ele>547</ele>
      </trkpt>
      <trkpt lat="36.7844" lon="-5.1">
        <ele>565</ele>
      </trkpt>
      <trkpt lat="36.78454" lon="-5.10002">
        <ele>565</ele>
      </trkpt>
      <trkpt lat="36.78469" lon="-5.09999">
        <ele>539</ele>
      </trkpt>
      <trkpt lat="36.78479" lon="-5.0999">
        <ele>532</ele>
      </trkpt>
      <trkpt lat="36.78488" lon="-5.09978">
        <ele>531.5</ele>
      </trkpt>
      <trkpt lat="36.78501" lon="-5.0997">
        <ele>535.7</ele>
      </trkpt>
      <trkpt lat="36.7851" lon="-5.09971">
        <ele>540</ele>
      </trkpt>
      <trkpt lat="36.78541" lon="-5.09945">
        <ele>548</ele>
      </trkpt>
      <trkpt lat="36.78574" lon="-5.09936">
        <ele>549</ele>
      </trkpt>
      <trkpt lat="36.78606" lon="-5.09915">
        <ele>550</ele>
      </trkpt>
      <trkpt lat="36.78649" lon="-5.09911">
        <ele>547</ele>
      </trkpt>
      <trkpt lat="36.78669" lon="-5.09923">
        <ele>544</ele>
      </trkpt>
      <trkpt lat="36.78691" lon="-5.09898">
        <ele>549</ele>
      </trkpt>
      <trkpt lat="36.78723" lon="-5.09887">
        <ele>551</ele>
      </trkpt>
      <trkpt lat="36.78743" lon="-5.09904">
        <ele>550.5</ele>
      </trkpt>
      <trkpt lat="36.78765" lon="-5.09912">
        <ele>550</ele>
      </trkpt>
      <trkpt lat="36.78779" lon="-5.09929">
        <ele>549</ele>
      </trkpt>
      <trkpt lat="36.78801" lon="-5.09915">
        <ele>542</ele>
      </trkpt>
      <trkpt lat="36.78827" lon="-5.09899">
        <ele>544</ele>
      </trkpt>
      <trkpt lat="36.78843" lon="-5.09882">
        <ele>543</ele>
      </trkpt>
      <trkpt lat="36.78852" lon="-5.09868">
        <ele>548</ele>
      </trkpt>
      <trkpt lat="36.7887" lon="-5.09869">
        <ele>547</ele>
      </trkpt>
      <trkpt lat="36.78893" lon="-5.09842">
        <ele>548.5</ele>
      </trkpt>
      <trkpt lat="36.78899" lon="-5.09818">
        <ele>550</ele>
      </trkpt>
      <trkpt lat="36.78895" lon="-5.09799">
        <ele>558</ele>
      </trkpt>
      <trkpt lat="36.78896" lon="-5.09777">
        <ele>562</ele>
      </trkpt>
      <trkpt lat="36.78883" lon="-5.09766">
        <ele>563.5</ele>
      </trkpt>
      <trkpt lat="36.78873" lon="-5.09748">
        <ele>562.2</ele>
      </trkpt>
      <trkpt lat="36.78871" lon="-5.09723">
        <ele>563.1</ele>
      </trkpt>
      <trkpt lat="36.78892" lon="-5.09696">
        <ele>560.5</ele>
      </trkpt>
      <trkpt lat="36.78915" lon="-5.09678">
        <ele>558</ele>
      </trkpt>
      <trkpt lat="36.78939" lon="-5.09659">
        <ele>554</ele>
      </trkpt>
      <trkpt lat="36.78956" lon="-5.09654">
        <ele>551</ele>
      </trkpt>
      <trkpt lat="36.78968" lon="-5.09693">
        <ele>551</ele>
      </trkpt>
      <trkpt lat="36.7899" lon="-5.09687">
        <ele>551</ele>
      </trkpt>
      <trkpt lat="36.7901" lon="-5.09678">
        <ele>554.5</ele>
      </trkpt>
      <trkpt lat="36.79031" lon="-5.0972">
        <ele>558</ele>
      </trkpt>
      <trkpt lat="36.79041" lon="-5.0975">
        <ele>558</ele>
      </trkpt>
      <trkpt lat="36.79014" lon="-5.09761">
        <ele>561</ele>
      </trkpt>
      <trkpt lat="36.79011" lon="-5.09805">
        <ele>562</ele>
      </trkpt>
      <trkpt lat="36.79026" lon="-5.09842">
        <ele>560</ele>
      </trkpt>
      <trkpt lat="36.79051" lon="-5.09905">
        <ele>558</ele>
      </trkpt>
      <trkpt lat="36.79071" lon="-5.09953">
        <ele>552</ele>
      </trkpt>
      <trkpt lat="36.79082" lon="-5.09973">
        <ele>550</ele>
      </trkpt>
      <trkpt lat="36.79085" lon="-5.09984">
        <ele>550</ele>
      </trkpt>
      <trkpt lat="36.79104" lon="-5.1001">
        <ele>550</ele>
      </trkpt>
      <trkpt lat="36.79125" lon="-5.10039">
        <ele>550</ele>
      </trkpt>
      <trkpt lat="36.79145" lon="-5.10066">
        <ele>552</ele>
      </trkpt>
      <trkpt lat="36.79162" lon="-5.10093">
        <ele>554</ele>
      </trkpt>
      <trkpt lat="36.79179" lon="-5.10119">
        <ele>556</ele>
      </trkpt>
      <trkpt lat="36.79197" lon="-5.10149">
        <ele>557</ele>
      </trkpt>
      <trkpt lat="36.79211" lon="-5.10176">
        <ele>558</ele>
      </trkpt>
      <trkpt lat="36.79228" lon="-5.10203">
        <ele>563</ele>
      </trkpt>
      <trkpt lat="36.79209" lon="-5.10225">
        <ele>567</ele>
      </trkpt>
      <trkpt lat="36.79195" lon="-5.10238">
        <ele>572</ele>
      </trkpt>
      <trkpt lat="36.79173" lon="-5.10233">
        <ele>574</ele>
      </trkpt>
      <trkpt lat="36.79147" lon="-5.10222">
        <ele>584</ele>
      </trkpt>
      <trkpt lat="36.79124" lon="-5.1021">
        <ele>588</ele>
      </trkpt>
      <trkpt lat="36.79105" lon="-5.10201">
        <ele>593</ele>
      </trkpt>
      <trkpt lat="36.79087" lon="-5.10195">
        <ele>600</ele>
      </trkpt>
      <trkpt lat="36.7906" lon="-5.10197">
        <ele>599</ele>
      </trkpt>
      <trkpt lat="36.79038" lon="-5.10204">
        <ele>598</ele>
      </trkpt>
      <trkpt lat="36.79014" lon="-5.10212">
        <ele>593</ele>
      </trkpt>
      <trkpt lat="36.78981" lon="-5.10235">
        <ele>594.5</ele>
      </trkpt>
      <trkpt lat="36.78942" lon="-5.10267">
        <ele>594.7</ele>
      </trkpt>
      <trkpt lat="36.7895" lon="-5.10271">
        <ele>595</ele>
      </trkpt>
      <trkpt lat="36.7897" lon="-5.10276">
        <ele>603</ele>
      </trkpt>
      <trkpt lat="36.78979" lon="-5.10287">
        <ele>601.5</ele>
      </trkpt>
      <trkpt lat="36.78986" lon="-5.10307">
        <ele>600</ele>
      </trkpt>
      <trkpt lat="36.78998" lon="-5.10332">
        <ele>603</ele>
      </trkpt>
      <trkpt lat="36.79009" lon="-5.10351">
        <ele>606</ele>
      </trkpt>
      <trkpt lat="36.79019" lon="-5.10374">
        <ele>610</ele>
      </trkpt>
      <trkpt lat="36.79027" lon="-5.10393">
        <ele>628</ele>
      </trkpt>
      <trkpt lat="36.79048" lon="-5.10424">
        <ele>628.5</ele>
      </trkpt>
      <trkpt lat="36.79071" lon="-5.10445">
        <ele>629</ele>
      </trkpt>
      <trkpt lat="36.79088" lon="-5.10457">
        <ele>634</ele>
      </trkpt>
      <trkpt lat="36.79113" lon="-5.10472">
        <ele>639</ele>
      </trkpt>
      <trkpt lat="36.7913" lon="-5.10479">
        <ele>643</ele>
      </trkpt>
      <trkpt lat="36.79155" lon="-5.10482">
        <ele>644</ele>
      </trkpt>
      <trkpt lat="36.79183" lon="-5.1048">
        <ele>644</ele>
      </trkpt>
      <trkpt lat="36.79208" lon="-5.10475">
        <ele>644</ele>
      </trkpt>
      <trkpt lat="36.79236" lon="-5.10471">
        <ele>643</ele>
      </trkpt>
      <trkpt lat="36.79269" lon="-5.10466">
        <ele>642</ele>
      </trkpt>
      <trkpt lat="36.79296" lon="-5.10461">
        <ele>638</ele>
      </trkpt>
      <trkpt lat="36.79323" lon="-5.1046">
        <ele>635</ele>
      </trkpt>
      <trkpt lat="36.7935" lon="-5.10458">
        <ele>635</ele>
      </trkpt>
      <trkpt lat="36.79369" lon="-5.10455">
        <ele>636.5</ele>
      </trkpt>
      <trkpt lat="36.79393" lon="-5.10448">
        <ele>638</ele>
      </trkpt>
      <trkpt lat="36.79409" lon="-5.10447">
        <ele>640</ele>
      </trkpt>
      <trkpt lat="36.79455" lon="-5.10451">
        <ele>641</ele>
      </trkpt>
      <trkpt lat="36.79495" lon="-5.10456">
        <ele>640.5</ele>
      </trkpt>
      <trkpt lat="36.79537" lon="-5.10474">
        <ele>642.2</ele>
      </trkpt>
      <trkpt lat="36.7958" lon="-5.10491">
        <ele>641.6</ele>
      </trkpt>
      <trkpt lat="36.79607" lon="-5.10504">
        <ele>641</ele>
      </trkpt>
      <trkpt lat="36.7964" lon="-5.1052">
        <ele>641</ele>
      </trkpt>
      <trkpt lat="36.79665" lon="-5.10533">
        <ele>644</ele>
      </trkpt>
      <trkpt lat="36.79691" lon="-5.10547">
        <ele>644</ele>
      </trkpt>
      <trkpt lat="36.79714" lon="-5.10565">
        <ele>646</ele>
      </trkpt>
      <trkpt lat="36.79737" lon="-5.10584">
        <ele>646</ele>
      </trkpt>
      <trkpt lat="36.79761" lon="-5.10602">
        <ele>647</ele>
      </trkpt>
      <trkpt lat="36.79788" lon="-5.10623">
        <ele>648</ele>
      </trkpt>
      <trkpt lat="36.79812" lon="-5.1064">
        <ele>650</ele>
      </trkpt>
      <trkpt lat="36.79838" lon="-5.10659">
        <ele>650.5</ele>
      </trkpt>
      <trkpt lat="36.79866" lon="-5.10683">
        <ele>651</ele>
      </trkpt>
      <trkpt lat="36.79898" lon="-5.10706">
        <ele>651</ele>
      </trkpt>
      <trkpt lat="36.79931" lon="-5.10725">
        <ele>652</ele>
      </trkpt>
      <trkpt lat="36.79954" lon="-5.10743">
        <ele>652.5</ele>
      </trkpt>
      <trkpt lat="36.79985" lon="-5.10781">
        <ele>652.2</ele>
      </trkpt>
      <trkpt lat="36.80017" lon="-5.1081">
        <ele>652</ele>
      </trkpt>
      <trkpt lat="36.80042" lon="-5.10837">
        <ele>648</ele>
      </trkpt>
      <trkpt lat="36.8007" lon="-5.10863">
        <ele>649</ele>
      </trkpt>
      <trkpt lat="36.801" lon="-5.10876">
        <ele>649</ele>
      </trkpt>
      <trkpt lat="36.80128" lon="-5.10878">
        <ele>649</ele>
      </trkpt>
      <trkpt lat="36.80157" lon="-5.10897">
        <ele>647</ele>
      </trkpt>
      <trkpt lat="36.80193" lon="-5.10922">
        <ele>647</ele>
      </trkpt>
      <trkpt lat="36.80233" lon="-5.10954">
        <ele>645.5</ele>
      </trkpt>
      <trkpt lat="36.80267" lon="-5.10984">
        <ele>644</ele>
      </trkpt>
      <trkpt lat="36.80305" lon="-5.11018">
        <ele>640</ele>
      </trkpt>
      <trkpt lat="36.80343" lon="-5.11053">
        <ele>640</ele>
      </trkpt>
      <trkpt lat="36.80377" lon="-5.11085">
        <ele>639</ele>
      </trkpt>
      <trkpt lat="36.80412" lon="-5.11112">
        <ele>635</ele>
      </trkpt>
      <trkpt lat="36.80455" lon="-5.11128">
        <ele>631</ele>
      </trkpt>
      <trkpt lat="36.80496" lon="-5.11127">
        <ele>631.5</ele>
      </trkpt>
      <trkpt lat="36.80523" lon="-5.11133">
        <ele>632</ele>
      </trkpt>
      <trkpt lat="36.80551" lon="-5.11139">
        <ele>631.5</ele>
      </trkpt>
      <trkpt lat="36.80589" lon="-5.11154">
        <ele>632.2</ele>
      </trkpt>
      <trkpt lat="36.80626" lon="-5.11174">
        <ele>633</ele>
      </trkpt>
      <trkpt lat="36.80661" lon="-5.11194">
        <ele>635</ele>
      </trkpt>
      <trkpt lat="36.80699" lon="-5.11221">
        <ele>635</ele>
      </trkpt>
      <trkpt lat="36.80733" lon="-5.11255">
        <ele>637</ele>
      </trkpt>
      <trkpt lat="36.80746" lon="-5.11264">
        <ele>640</ele>
      </trkpt>
      <trkpt lat="36.80747" lon="-5.11285">
        <ele>642</ele>
      </trkpt>
      <trkpt lat="36.80736" lon="-5.11296">
        <ele>641</ele>
      </trkpt>
      <trkpt lat="36.80738" lon="-5.11314">
        <ele>640</ele>
      </trkpt>
      <trkpt lat="36.80748" lon="-5.11336">
        <ele>639.5</ele>
      </trkpt>
      <trkpt lat="36.80747" lon="-5.11363">
        <ele>639</ele>
      </trkpt>
      <trkpt lat="36.80742" lon="-5.11406">
        <ele>638</ele>
      </trkpt>
      <trkpt lat="36.80736" lon="-5.11442">
        <ele>637</ele>
      </trkpt>
      <trkpt lat="36.8073" lon="-5.11487">
        <ele>634</ele>
      </trkpt>
      <trkpt lat="36.80714" lon="-5.1155">
        <ele>634</ele>
      </trkpt>
      <trkpt lat="36.80693" lon="-5.11605">
        <ele>634</ele>
      </trkpt>
      <trkpt lat="36.80665" lon="-5.11656">
        <ele>633</ele>
      </trkpt>
      <trkpt lat="36.80642" lon="-5.11707">
        <ele>630</ele>
      </trkpt>
      <trkpt lat="36.80619" lon="-5.11758">
        <ele>632</ele>
      </trkpt>
      <trkpt lat="36.80593" lon="-5.11817">
        <ele>631.5</ele>
      </trkpt>
      <trkpt lat="36.80578" lon="-5.11866">
        <ele>631</ele>
      </trkpt>
      <trkpt lat="36.80558" lon="-5.11904">
        <ele>629.5</ele>
      </trkpt>
      <trkpt lat="36.80535" lon="-5.11946">
        <ele>628</ele>
      </trkpt>
      <trkpt lat="36.8052" lon="-5.11984">
        <ele>628</ele>
      </trkpt>
      <trkpt lat="36.80508" lon="-5.12027">
        <ele>630.5</ele>
      </trkpt>
      <trkpt lat="36.80486" lon="-5.12074">
        <ele>629.7</ele>
      </trkpt>
      <trkpt lat="36.80464" lon="-5.12119">
        <ele>629</ele>
      </trkpt>
      <trkpt lat="36.80437" lon="-5.12165">
        <ele>617</ele>
      </trkpt>
      <trkpt lat="36.80413" lon="-5.12204">
        <ele>614</ele>
      </trkpt>
      <trkpt lat="36.80389" lon="-5.12242">
        <ele>614.5</ele>
      </trkpt>
      <trkpt lat="36.80361" lon="-5.12287">
        <ele>614.2</ele>
      </trkpt>
      <trkpt lat="36.80337" lon="-5.1232">
        <ele>614</ele>
      </trkpt>
      <trkpt lat="36.8032" lon="-5.12344">
        <ele>612</ele>
      </trkpt>
      <trkpt lat="36.803" lon="-5.1237">
        <ele>609</ele>
      </trkpt>
      <trkpt lat="36.8029" lon="-5.12397">
        <ele>607</ele>
      </trkpt>
      <trkpt lat="36.80269" lon="-5.12443">
        <ele>601</ele>
      </trkpt>
      <trkpt lat="36.80248" lon="-5.12486">
        <ele>600.5</ele>
      </trkpt>
      <trkpt lat="36.80235" lon="-5.12529">
        <ele>604.7</ele>
      </trkpt>
      <trkpt lat="36.80231" lon="-5.12572">
        <ele>609</ele>
      </trkpt>
      <trkpt lat="36.80235" lon="-5.12634">
        <ele>610</ele>
      </trkpt>
      <trkpt lat="36.80238" lon="-5.12692">
        <ele>612</ele>
      </trkpt>
      <trkpt lat="36.80234" lon="-5.12743">
        <ele>614</ele>
      </trkpt>
      <trkpt lat="36.80232" lon="-5.12799">
        <ele>617</ele>
      </trkpt>
      <trkpt lat="36.80233" lon="-5.12854">
        <ele>618</ele>
      </trkpt>
      <trkpt lat="36.80239" lon="-5.12903">
        <ele>618</ele>
      </trkpt>
      <trkpt lat="36.8025" lon="-5.12925">
        <ele>618</ele>
      </trkpt>
      <trkpt lat="36.80276" lon="-5.12992">
        <ele>616</ele>
      </trkpt>
      <trkpt lat="36.8029" lon="-5.13029">
        <ele>614</ele>
      </trkpt>
      <trkpt lat="36.80303" lon="-5.13061">
        <ele>615.5</ele>
      </trkpt>
      <trkpt lat="36.80319" lon="-5.13086">
        <ele>617</ele>
      </trkpt>
      <trkpt lat="36.8034" lon="-5.13115">
        <ele>617</ele>
      </trkpt>
      <trkpt lat="36.80353" lon="-5.13139">
        <ele>617</ele>
      </trkpt>
      <trkpt lat="36.80361" lon="-5.13164">
        <ele>611</ele>
      </trkpt>
      <trkpt lat="36.80365" lon="-5.13203">
        <ele>609</ele>
      </trkpt>
      <trkpt lat="36.80355" lon="-5.13255">
        <ele>612</ele>
      </trkpt>
      <trkpt lat="36.8034" lon="-5.1331">
        <ele>615</ele>
      </trkpt>
      <trkpt lat="36.8032" lon="-5.1336">
        <ele>617</ele>
      </trkpt>
      <trkpt lat="36.80305" lon="-5.13397">
        <ele>618</ele>
      </trkpt>
      <trkpt lat="36.80294" lon="-5.13435">
        <ele>622</ele>
      </trkpt>
      <trkpt lat="36.80285" lon="-5.13466">
        <ele>622</ele>
      </trkpt>
      <trkpt lat="36.80274" lon="-5.13496">
        <ele>622</ele>
      </trkpt>
      <trkpt lat="36.80264" lon="-5.13532">
        <ele>621</ele>
      </trkpt>
      <trkpt lat="36.80255" lon="-5.13565">
        <ele>620</ele>
      </trkpt>
      <trkpt lat="36.80235" lon="-5.13599">
        <ele>619.5</ele>
      </trkpt>
      <trkpt lat="36.80215" lon="-5.13626">
        <ele>620.2</ele>
      </trkpt>
      <trkpt lat="36.80183" lon="-5.13671">
        <ele>620.1</ele>
      </trkpt>
      <trkpt lat="36.80157" lon="-5.13719">
        <ele>620</ele>
      </trkpt>
      <trkpt lat="36.80145" lon="-5.1375">
        <ele>617</ele>
      </trkpt>
      <trkpt lat="36.80133" lon="-5.13784">
        <ele>617</ele>
      </trkpt>
      <trkpt lat="36.80123" lon="-5.13815">
        <ele>617</ele>
      </trkpt>
      <trkpt lat="36.80105" lon="-5.13859">
        <ele>622</ele>
      </trkpt>
      <trkpt lat="36.80097" lon="-5.13879">
        <ele>631</ele>
      </trkpt>
      <trkpt lat="36.8008" lon="-5.13898">
        <ele>635</ele>
      </trkpt>
      <trkpt lat="36.80077" lon="-5.13919">
        <ele>636</ele>
      </trkpt>
      <trkpt lat="36.80094" lon="-5.13935">
        <ele>636</ele>
      </trkpt>
      <trkpt lat="36.80111" lon="-5.13941">
        <ele>636</ele>
      </trkpt>
      <trkpt lat="36.80127" lon="-5.13952">
        <ele>636</ele>
      </trkpt>
      <trkpt lat="36.80106" lon="-5.13974">
        <ele>636</ele>
      </trkpt>
      <trkpt lat="36.80079" lon="-5.13996">
        <ele>634</ele>
      </trkpt>
      <trkpt lat="36.80065" lon="-5.14008">
        <ele>634</ele>
      </trkpt>
      <trkpt lat="36.80057" lon="-5.14011">
        <ele>634</ele>
      </trkpt>
      <trkpt lat="36.80048" lon="-5.14016">
        <ele>635</ele>
      </trkpt>
      <trkpt lat="36.8004" lon="-5.14021">
        <ele>635</ele>
      </trkpt>
      <trkpt lat="36.80032" lon="-5.14022">
        <ele>633</ele>
      </trkpt>
      <trkpt lat="36.80023" lon="-5.14023">
        <ele>632</ele>
      </trkpt>
      <trkpt lat="36.80011" lon="-5.14021">
        <ele>633</ele>
      </trkpt>
      <trkpt lat="36.79998" lon="-5.1402">
        <ele>634</ele>
      </trkpt>
      <trkpt lat="36.7999" lon="-5.14023">
        <ele>639</ele>
      </trkpt>
      <trkpt lat="36.79981" lon="-5.14022">
        <ele>640</ele>
      </trkpt>
      <trkpt lat="36.79978" lon="-5.14015">
        <ele>644</ele>
      </trkpt>
      <trkpt lat="36.79973" lon="-5.14003">
        <ele>647</ele>
      </trkpt>
      <trkpt lat="36.79973" lon="-5.13989">
        <ele>649</ele>
      </trkpt>
      <trkpt lat="36.79973" lon="-5.13976">
        <ele>651</ele>
      </trkpt>
      <trkpt lat="36.79974" lon="-5.13967">
        <ele>651</ele>
      </trkpt>
      <trkpt lat="36.79975" lon="-5.13946">
        <ele>650</ele>
      </trkpt>
      <trkpt lat="36.79971" lon="-5.13931">
        <ele>655</ele>
      </trkpt>
      <trkpt lat="36.79968" lon="-5.13926">
        <ele>660</ele>
      </trkpt>
      <trkpt lat="36.79965" lon="-5.13924">
        <ele>661</ele>
      </trkpt>
      <trkpt lat="36.7996" lon="-5.13924">
        <ele>670</ele>
      </trkpt>
      <trkpt lat="36.79951" lon="-5.13933">
        <ele>671</ele>
      </trkpt>
      <trkpt lat="36.79942" lon="-5.13943">
        <ele>671.5</ele>
      </trkpt>
      <trkpt lat="36.79932" lon="-5.13957">
        <ele>672</ele>
      </trkpt>
      <trkpt lat="36.79919" lon="-5.13975">
        <ele>674</ele>
      </trkpt>
      <trkpt lat="36.79913" lon="-5.13988">
        <ele>678</ele>
      </trkpt>
      <trkpt lat="36.79904" lon="-5.14005">
        <ele>683</ele>
      </trkpt>
      <trkpt lat="36.79896" lon="-5.14014">
        <ele>689</ele>
      </trkpt>
      <trkpt lat="36.79888" lon="-5.1402">
        <ele>691</ele>
      </trkpt>
      <trkpt lat="36.79881" lon="-5.14025">
        <ele>691</ele>
      </trkpt>
      <trkpt lat="36.79873" lon="-5.1403">
        <ele>691.5</ele>
      </trkpt>
      <trkpt lat="36.79864" lon="-5.14038">
        <ele>692</ele>
      </trkpt>
      <trkpt lat="36.79857" lon="-5.14043">
        <ele>698</ele>
      </trkpt>
      <trkpt lat="36.79846" lon="-5.14047">
        <ele>704</ele>
      </trkpt>
      <trkpt lat="36.79832" lon="-5.14048">
        <ele>711</ele>
      </trkpt>
      <trkpt lat="36.79819" lon="-5.14052">
        <ele>709</ele>
      </trkpt>
      <trkpt lat="36.7981" lon="-5.14053">
        <ele>707</ele>
      </trkpt>
      <trkpt lat="36.79801" lon="-5.14052">
        <ele>707</ele>
      </trkpt>
      <trkpt lat="36.79786" lon="-5.14049">
        <ele>707</ele>
      </trkpt>
      <trkpt lat="36.79756" lon="-5.14045">
        <ele>713</ele>
      </trkpt>
      <trkpt lat="36.79733" lon="-5.1404">
        <ele>722</ele>
      </trkpt>
      <trkpt lat="36.797" lon="-5.14029">
        <ele>726</ele>
      </trkpt>
      <trkpt lat="36.79658" lon="-5.14018">
        <ele>726</ele>
      </trkpt>
      <trkpt lat="36.79616" lon="-5.14001">
        <ele>729</ele>
      </trkpt>
      <trkpt lat="36.79588" lon="-5.13992">
        <ele>732</ele>
      </trkpt>
      <trkpt lat="36.79558" lon="-5.13983">
        <ele>732</ele>
      </trkpt>
      <trkpt lat="36.79558" lon="-5.13985">
        <ele>736</ele>
      </trkpt>
      <trkpt lat="36.79561" lon="-5.13995">
        <ele>748</ele>
      </trkpt>
      <trkpt lat="36.79581" lon="-5.14021">
        <ele>749</ele>
      </trkpt>
      <trkpt lat="36.796" lon="-5.14052">
        <ele>757</ele>
      </trkpt>
      <trkpt lat="36.79613" lon="-5.1408">
        <ele>759</ele>
      </trkpt>
      <trkpt lat="36.79627" lon="-5.14101">
        <ele>766</ele>
      </trkpt>
      <trkpt lat="36.79654" lon="-5.14105">
        <ele>773</ele>
      </trkpt>
      <trkpt lat="36.7969" lon="-5.14119">
        <ele>775</ele>
      </trkpt>
      <trkpt lat="36.79717" lon="-5.14129">
        <ele>778</ele>
      </trkpt>
      <trkpt lat="36.7973" lon="-5.1415">
        <ele>782</ele>
      </trkpt>
      <trkpt lat="36.79731" lon="-5.1416">
        <ele>783.5</ele>
      </trkpt>
      <trkpt lat="36.79739" lon="-5.14189">
        <ele>785</ele>
      </trkpt>
      <trkpt lat="36.79742" lon="-5.14208">
        <ele>794</ele>
      </trkpt>
      <trkpt lat="36.79746" lon="-5.14228">
        <ele>801</ele>
      </trkpt>
      <trkpt lat="36.79749" lon="-5.14238">
        <ele>803</ele>
      </trkpt>
      <trkpt lat="36.79752" lon="-5.14249">
        <ele>807</ele>
      </trkpt>
      <trkpt lat="36.79755" lon="-5.14261">
        <ele>809</ele>
      </trkpt>
      <trkpt lat="36.79759" lon="-5.14267">
        <ele>816</ele>
      </trkpt>
      <trkpt lat="36.79762" lon="-5.14269">
        <ele>816.5</ele>
      </trkpt>
      <trkpt lat="36.79774" lon="-5.14261">
        <ele>817</ele>
      </trkpt>
      <trkpt lat="36.79785" lon="-5.14255">
        <ele>818</ele>
      </trkpt>
      <trkpt lat="36.79808" lon="-5.14256">
        <ele>817.5</ele>
      </trkpt>
      <trkpt lat="36.79823" lon="-5.14264">
        <ele>817</ele>
      </trkpt>
      <trkpt lat="36.79835" lon="-5.14269">
        <ele>817</ele>
      </trkpt>
      <trkpt lat="36.79845" lon="-5.14272">
        <ele>821</ele>
      </trkpt>
      <trkpt lat="36.79879" lon="-5.14281">
        <ele>823</ele>
      </trkpt>
      <trkpt lat="36.799" lon="-5.14289">
        <ele>823.5</ele>
      </trkpt>
      <trkpt lat="36.79906" lon="-5.1429">
        <ele>824</ele>
      </trkpt>
      <trkpt lat="36.79925" lon="-5.14281">
        <ele>827</ele>
      </trkpt>
      <trkpt lat="36.7994" lon="-5.14275">
        <ele>832</ele>
      </trkpt>
      <trkpt lat="36.7994" lon="-5.14262">
        <ele>835</ele>
      </trkpt>
      <trkpt lat="36.79936" lon="-5.14251">
        <ele>832.5</ele>
      </trkpt>
      <trkpt lat="36.79936" lon="-5.1424">
        <ele>830</ele>
      </trkpt>
      <trkpt lat="36.7994" lon="-5.14226">
        <ele>829</ele>
      </trkpt>
      <trkpt lat="36.79942" lon="-5.14206">
        <ele>832</ele>
      </trkpt>
      <trkpt lat="36.7995" lon="-5.14194">
        <ele>835</ele>
      </trkpt>
      <trkpt lat="36.79966" lon="-5.14185">
        <ele>840</ele>
      </trkpt>
      <trkpt lat="36.79973" lon="-5.14182">
        <ele>843</ele>
      </trkpt>
      <trkpt lat="36.79979" lon="-5.14175">
        <ele>845</ele>
      </trkpt>
      <trkpt lat="36.79991" lon="-5.14177">
        <ele>845</ele>
      </trkpt>
      <trkpt lat="36.80002" lon="-5.14165">
        <ele>844</ele>
      </trkpt>
      <trkpt lat="36.80005" lon="-5.14176">
        <ele>848.5</ele>
      </trkpt>
      <trkpt lat="36.80013" lon="-5.14187">
        <ele>853</ele>
      </trkpt>
      <trkpt lat="36.80019" lon="-5.14196">
        <ele>853</ele>
      </trkpt>
      <trkpt lat="36.8002" lon="-5.1421">
        <ele>852</ele>
      </trkpt>
      <trkpt lat="36.80025" lon="-5.14225">
        <ele>851</ele>
      </trkpt>
      <trkpt lat="36.80026" lon="-5.14235">
        <ele>851</ele>
      </trkpt>
      <trkpt lat="36.80028" lon="-5.14267">
        <ele>855</ele>
      </trkpt>
      <trkpt lat="36.80033" lon="-5.14303">
        <ele>868</ele>
      </trkpt>
      <trkpt lat="36.80039" lon="-5.14341">
        <ele>871</ele>
      </trkpt>
      <trkpt lat="36.80044" lon="-5.14388">
        <ele>871</ele>
      </trkpt>
      <trkpt lat="36.80055" lon="-5.14426">
        <ele>871</ele>
      </trkpt>
      <trkpt lat="36.80069" lon="-5.14438">
        <ele>870</ele>
      </trkpt>
      <trkpt lat="36.80085" lon="-5.14455">
        <ele>866</ele>
      </trkpt>
      <trkpt lat="36.80101" lon="-5.14471">
        <ele>865</ele>
      </trkpt>
      <trkpt lat="36.80117" lon="-5.14504">
        <ele>866</ele>
      </trkpt>
      <trkpt lat="36.80126" lon="-5.14529">
        <ele>864.5</ele>
      </trkpt>
      <trkpt lat="36.80135" lon="-5.14572">
        <ele>865.7</ele>
      </trkpt>
      <trkpt lat="36.8014" lon="-5.14613">
        <ele>867</ele>
      </trkpt>
      <trkpt lat="36.80142" lon="-5.14642">
        <ele>872</ele>
      </trkpt>
      <trkpt lat="36.80141" lon="-5.14673">
        <ele>878</ele>
      </trkpt>
      <trkpt lat="36.80144" lon="-5.14722">
        <ele>886</ele>
      </trkpt>
      <trkpt lat="36.8015" lon="-5.14745">
        <ele>886</ele>
      </trkpt>
      <trkpt lat="36.8017" lon="-5.1477">
        <ele>887</ele>
      </trkpt>
      <trkpt lat="36.80193" lon="-5.14784">
        <ele>890</ele>
      </trkpt>
      <trkpt lat="36.80214" lon="-5.14801">
        <ele>890</ele>
      </trkpt>
      <trkpt lat="36.80215" lon="-5.14819">
        <ele>892</ele>
      </trkpt>
      <trkpt lat="36.80207" lon="-5.14836">
        <ele>892</ele>
      </trkpt>
      <trkpt lat="36.80193" lon="-5.14838">
        <ele>889</ele>
      </trkpt>
      <trkpt lat="36.80179" lon="-5.14855">
        <ele>883</ele>
      </trkpt>
      <trkpt lat="36.80168" lon="-5.14877">
        <ele>883</ele>
      </trkpt>
      <trkpt lat="36.80162" lon="-5.14905">
        <ele>883</ele>
      </trkpt>
      <trkpt lat="36.80171" lon="-5.1493">
        <ele>882</ele>
      </trkpt>
      <trkpt lat="36.80194" lon="-5.14955">
        <ele>881.5</ele>
      </trkpt>
      <trkpt lat="36.80228" lon="-5.14978">
        <ele>881</ele>
      </trkpt>
      <trkpt lat="36.80241" lon="-5.14997">
        <ele>881.5</ele>
      </trkpt>
      <trkpt lat="36.80249" lon="-5.1501">
        <ele>882</ele>
      </trkpt>
      <trkpt lat="36.80258" lon="-5.15014">
        <ele>884</ele>
      </trkpt>
      <trkpt lat="36.80276" lon="-5.15031">
        <ele>880.5</ele>
      </trkpt>
      <trkpt lat="36.80284" lon="-5.15052">
        <ele>877</ele>
      </trkpt>
      <trkpt lat="36.80292" lon="-5.15091">
        <ele>873</ele>
      </trkpt>
      <trkpt lat="36.80299" lon="-5.15144">
        <ele>866</ele>
      </trkpt>
      <trkpt lat="36.80292" lon="-5.15172">
        <ele>873</ele>
      </trkpt>
      <trkpt lat="36.80288" lon="-5.15197">
        <ele>880</ele>
      </trkpt>
      <trkpt lat="36.80289" lon="-5.15218">
        <ele>887</ele>
      </trkpt>
      <trkpt lat="36.80287" lon="-5.15246">
        <ele>898</ele>
      </trkpt>
      <trkpt lat="36.8028" lon="-5.1527">
        <ele>910</ele>
      </trkpt>
      <trkpt lat="36.80272" lon="-5.15288">
        <ele>910</ele>
      </trkpt>
      <trkpt lat="36.80269" lon="-5.1531">
        <ele>906.5</ele>
      </trkpt>
      <trkpt lat="36.80269" lon="-5.15334">
        <ele>903</ele>
      </trkpt>
      <trkpt lat="36.80282" lon="-5.15359">
        <ele>903</ele>
      </trkpt>
      <trkpt lat="36.80295" lon="-5.15384">
        <ele>897</ele>
      </trkpt>
      <trkpt lat="36.80306" lon="-5.15418">
        <ele>887</ele>
      </trkpt>
      <trkpt lat="36.8032" lon="-5.15458">
        <ele>885</ele>
      </trkpt>
      <trkpt lat="36.80341" lon="-5.15516">
        <ele>887.5</ele>
      </trkpt>
      <trkpt lat="36.8036" lon="-5.15562">
        <ele>890</ele>
      </trkpt>
      <trkpt lat="36.80376" lon="-5.15604">
        <ele>895</ele>
      </trkpt>
      <trkpt lat="36.80386" lon="-5.1565">
        <ele>898</ele>
      </trkpt>
      <trkpt lat="36.80395" lon="-5.1568">
        <ele>898.5</ele>
      </trkpt>
      <trkpt lat="36.80425" lon="-5.15723">
        <ele>899</ele>
      </trkpt>
      <trkpt lat="36.80444" lon="-5.15785">
        <ele>900</ele>
      </trkpt>
      <trkpt lat="36.80455" lon="-5.15839">
        <ele>903</ele>
      </trkpt>
      <trkpt lat="36.80459" lon="-5.15882">
        <ele>904</ele>
      </trkpt>
      <trkpt lat="36.8048" lon="-5.15927">
        <ele>903</ele>
      </trkpt>
      <trkpt lat="36.80493" lon="-5.15955">
        <ele>902</ele>
      </trkpt>
      <trkpt lat="36.80498" lon="-5.15991">
        <ele>901</ele>
      </trkpt>
      <trkpt lat="36.80519" lon="-5.15999">
        <ele>900</ele>
      </trkpt>
      <trkpt lat="36.80547" lon="-5.16008">
        <ele>883</ele>
      </trkpt>
      <trkpt lat="36.80579" lon="-5.16011">
        <ele>882</ele>
      </trkpt>
      <trkpt lat="36.80611" lon="-5.16">
        <ele>883.5</ele>
      </trkpt>
      <trkpt lat="36.8064" lon="-5.15993">
        <ele>885</ele>
      </trkpt>
      <trkpt lat="36.80653" lon="-5.15971">
        <ele>884.5</ele>
      </trkpt>
      <trkpt lat="36.80674" lon="-5.15953">
        <ele>884</ele>
      </trkpt>
      <trkpt lat="36.80706" lon="-5.15942">
        <ele>876</ele>
      </trkpt>
      <trkpt lat="36.80745" lon="-5.15933">
        <ele>872</ele>
      </trkpt>
      <trkpt lat="36.80772" lon="-5.15927">
        <ele>871</ele>
      </trkpt>
      <trkpt lat="36.80793" lon="-5.15918">
        <ele>866</ele>
      </trkpt>
      <trkpt lat="36.80818" lon="-5.15901">
        <ele>857</ele>
      </trkpt>
      <trkpt lat="36.80839" lon="-5.15889">
        <ele>855</ele>
      </trkpt>
      <trkpt lat="36.80848" lon="-5.15893">
        <ele>854</ele>
      </trkpt>
      <trkpt lat="36.80844" lon="-5.15909">
        <ele>853</ele>
      </trkpt>
      <trkpt lat="36.8082" lon="-5.15936">
        <ele>852</ele>
      </trkpt>
      <trkpt lat="36.80798" lon="-5.15954">
        <ele>852</ele>
      </trkpt>
      <trkpt lat="36.80775" lon="-5.15969">
        <ele>845</ele>
      </trkpt>
      <trkpt lat="36.80757" lon="-5.15988">
        <ele>841</ele>
      </trkpt>
      <trkpt lat="36.80745" lon="-5.16006">
        <ele>839</ele>
      </trkpt>
      <trkpt lat="36.80747" lon="-5.16032">
        <ele>839</ele>
      </trkpt>
      <trkpt lat="36.80763" lon="-5.16054">
        <ele>839</ele>
      </trkpt>
      <trkpt lat="36.80783" lon="-5.1607">
        <ele>832</ele>
      </trkpt>
      <trkpt lat="36.80825" lon="-5.16069">
        <ele>829</ele>
      </trkpt>
      <trkpt lat="36.80859" lon="-5.16076">
        <ele>826</ele>
      </trkpt>
      <trkpt lat="36.80893" lon="-5.16086">
        <ele>820</ele>
      </trkpt>
      <trkpt lat="36.80918" lon="-5.16102">
        <ele>818</ele>
      </trkpt>
      <trkpt lat="36.80941" lon="-5.16111">
        <ele>814</ele>
      </trkpt>
      <trkpt lat="36.80974" lon="-5.16112">
        <ele>814</ele>
      </trkpt>
      <trkpt lat="36.81009" lon="-5.16119">
        <ele>810</ele>
      </trkpt>
      <trkpt lat="36.81036" lon="-5.16123">
        <ele>805</ele>
      </trkpt>
      <trkpt lat="36.81059" lon="-5.16124">
        <ele>794</ele>
      </trkpt>
      <trkpt lat="36.81077" lon="-5.16133">
        <ele>789</ele>
      </trkpt>
      <trkpt lat="36.81093" lon="-5.16125">
        <ele>784</ele>
      </trkpt>
      <trkpt lat="36.81115" lon="-5.16107">
        <ele>783</ele>
      </trkpt>
      <trkpt lat="36.81153" lon="-5.16095">
        <ele>777</ele>
      </trkpt>
      <trkpt lat="36.81184" lon="-5.16084">
        <ele>771</ele>
      </trkpt>
      <trkpt lat="36.81211" lon="-5.16076">
        <ele>770</ele>
      </trkpt>
      <trkpt lat="36.81239" lon="-5.16071">
        <ele>766</ele>
      </trkpt>
      <trkpt lat="36.81269" lon="-5.16065">
        <ele>761</ele>
      </trkpt>
      <trkpt lat="36.81301" lon="-5.16061">
        <ele>755</ele>
      </trkpt>
      <trkpt lat="36.81341" lon="-5.16057">
        <ele>748</ele>
      </trkpt>
      <trkpt lat="36.81368" lon="-5.16054">
        <ele>740</ele>
      </trkpt>
      <trkpt lat="36.81387" lon="-5.16057">
        <ele>740</ele>
      </trkpt>
      <trkpt lat="36.81386" lon="-5.16079">
        <ele>730</ele>
      </trkpt>
      <trkpt lat="36.81359" lon="-5.16088">
        <ele>729</ele>
      </trkpt>
      <trkpt lat="36.81333" lon="-5.16098">
        <ele>728</ele>
      </trkpt>
      <trkpt lat="36.8131" lon="-5.16124">
        <ele>720</ele>
      </trkpt>
      <trkpt lat="36.81287" lon="-5.16133">
        <ele>716.5</ele>
      </trkpt>
      <trkpt lat="36.81286" lon="-5.1615">
        <ele>713</ele>
      </trkpt>
      <trkpt lat="36.81303" lon="-5.16157">
        <ele>710</ele>
      </trkpt>
      <trkpt lat="36.81333" lon="-5.16148">
        <ele>705</ele>
      </trkpt>
      <trkpt lat="36.81364" lon="-5.16142">
        <ele>700</ele>
      </trkpt>
      <trkpt lat="36.81404" lon="-5.16132">
        <ele>690</ele>
      </trkpt>
      <trkpt lat="36.81435" lon="-5.16125">
        <ele>679</ele>
      </trkpt>
      <trkpt lat="36.81478" lon="-5.16116">
        <ele>675</ele>
      </trkpt>
      <trkpt lat="36.81515" lon="-5.16111">
        <ele>667</ele>
      </trkpt>
      <trkpt lat="36.81559" lon="-5.16102">
        <ele>658</ele>
      </trkpt>
      <trkpt lat="36.816" lon="-5.161">
        <ele>651</ele>
      </trkpt>
      <trkpt lat="36.81622" lon="-5.16097">
        <ele>648</ele>
      </trkpt>
      <trkpt lat="36.81637" lon="-5.16095">
        <ele>645</ele>
      </trkpt>
      <trkpt lat="36.81653" lon="-5.16096">
        <ele>645</ele>
      </trkpt>
      <trkpt lat="36.81671" lon="-5.16097">
        <ele>635</ele>
      </trkpt>
      <trkpt lat="36.81688" lon="-5.16092">
        <ele>625</ele>
      </trkpt>
      <trkpt lat="36.81697" lon="-5.16085">
        <ele>621</ele>
      </trkpt>
      <trkpt lat="36.81705" lon="-5.16085">
        <ele>621</ele>
      </trkpt>
      <trkpt lat="36.8171" lon="-5.16095">
        <ele>620</ele>
      </trkpt>
      <trkpt lat="36.81707" lon="-5.16103">
        <ele>620</ele>
      </trkpt>
      <trkpt lat="36.817" lon="-5.16113">
        <ele>615</ele>
      </trkpt>
      <trkpt lat="36.81692" lon="-5.16116">
        <ele>609</ele>
      </trkpt>
      <trkpt lat="36.81682" lon="-5.16127">
        <ele>603</ele>
      </trkpt>
      <trkpt lat="36.81675" lon="-5.16138">
        <ele>594</ele>
      </trkpt>
      <trkpt lat="36.81668" lon="-5.16147">
        <ele>591</ele>
      </trkpt>
      <trkpt lat="36.81672" lon="-5.16153">
        <ele>588</ele>
      </trkpt>
      <trkpt lat="36.8168" lon="-5.16156">
        <ele>583</ele>
      </trkpt>
      <trkpt lat="36.81685" lon="-5.16147">
        <ele>583</ele>
      </trkpt>
      <trkpt lat="36.81696" lon="-5.16142">
        <ele>582.5</ele>
      </trkpt>
      <trkpt lat="36.81713" lon="-5.16145">
        <ele>582</ele>
      </trkpt>
      <trkpt lat="36.8173" lon="-5.16152">
        <ele>576</ele>
      </trkpt>
      <trkpt lat="36.8176" lon="-5.16169">
        <ele>566</ele>
      </trkpt>
      <trkpt lat="36.81791" lon="-5.16194">
        <ele>565</ele>
      </trkpt>
      <trkpt lat="36.8182" lon="-5.16217">
        <ele>557</ele>
      </trkpt>
      <trkpt lat="36.81846" lon="-5.16237">
        <ele>550</ele>
      </trkpt>
      <trkpt lat="36.81879" lon="-5.16264">
        <ele>549</ele>
      </trkpt>
      <trkpt lat="36.81906" lon="-5.16284">
        <ele>551</ele>
      </trkpt>
      <trkpt lat="36.81916" lon="-5.16294">
        <ele>551</ele>
      </trkpt>
      <trkpt lat="36.81921" lon="-5.16307">
        <ele>551</ele>
      </trkpt>
      <trkpt lat="36.81935" lon="-5.16334">
        <ele>550.5</ele>
      </trkpt>
      <trkpt lat="36.81947" lon="-5.16347">
        <ele>550</ele>
      </trkpt>
      <trkpt lat="36.81969" lon="-5.16362">
        <ele>550</ele>
      </trkpt>
      <trkpt lat="36.81994" lon="-5.16366">
        <ele>550</ele>
      </trkpt>
      <trkpt lat="36.8202" lon="-5.1637">
        <ele>550.5</ele>
      </trkpt>
      <trkpt lat="36.82035" lon="-5.16377">
        <ele>551</ele>
      </trkpt>
      <trkpt lat="36.82057" lon="-5.1638">
        <ele>559</ele>
      </trkpt>
      <trkpt lat="36.82085" lon="-5.16391">
        <ele>569</ele>
      </trkpt>
      <trkpt lat="36.82117" lon="-5.16403">
        <ele>565.5</ele>
      </trkpt>
      <trkpt lat="36.8215" lon="-5.1642">
        <ele>562</ele>
      </trkpt>
      <trkpt lat="36.82173" lon="-5.16441">
        <ele>561</ele>
      </trkpt>
      <trkpt lat="36.82205" lon="-5.16472">
        <ele>560</ele>
      </trkpt>
      <trkpt lat="36.82225" lon="-5.165">
        <ele>559</ele>
      </trkpt>
      <trkpt lat="36.8225" lon="-5.16525">
        <ele>551</ele>
      </trkpt>
      <trkpt lat="36.82276" lon="-5.1654">
        <ele>550</ele>
      </trkpt>
      <trkpt lat="36.823" lon="-5.16559">
        <ele>549.5</ele>
      </trkpt>
      <trkpt lat="36.82326" lon="-5.16577">
        <ele>551.7</ele>
      </trkpt>
      <trkpt lat="36.8235" lon="-5.16597">
        <ele>554</ele>
      </trkpt>
      <trkpt lat="36.82387" lon="-5.16634">
        <ele>555</ele>
      </trkpt>
      <trkpt lat="36.82419" lon="-5.16659">
        <ele>556</ele>
      </trkpt>
      <trkpt lat="36.82453" lon="-5.16669">
        <ele>562</ele>
      </trkpt>
      <trkpt lat="36.82481" lon="-5.16686">
        <ele>562</ele>
      </trkpt>
      <trkpt lat="36.82511" lon="-5.16695">
        <ele>562.5</ele>
      </trkpt>
      <trkpt lat="36.82532" lon="-5.16696">
        <ele>563</ele>
      </trkpt>
      <trkpt lat="36.82548" lon="-5.16644">
        <ele>566</ele>
      </trkpt>
      <trkpt lat="36.82563" lon="-5.1661">
        <ele>565.5</ele>
      </trkpt>
      <trkpt lat="36.82569" lon="-5.16574">
        <ele>565</ele>
      </trkpt>
      <trkpt lat="36.82572" lon="-5.16538">
        <ele>566</ele>
      </trkpt>
      <trkpt lat="36.8258" lon="-5.16514">
        <ele>563</ele>
      </trkpt>
      <trkpt lat="36.8259" lon="-5.16493">
        <ele>560</ele>
      </trkpt>
      <trkpt lat="36.82599" lon="-5.16478">
        <ele>559</ele>
      </trkpt>
      <trkpt lat="36.82608" lon="-5.16458">
        <ele>560</ele>
      </trkpt>
      <trkpt lat="36.82612" lon="-5.1644">
        <ele>561</ele>
      </trkpt>
      <trkpt lat="36.82614" lon="-5.16424">
        <ele>562.5</ele>
      </trkpt>
      <trkpt lat="36.82613" lon="-5.16397">
        <ele>564</ele>
      </trkpt>
      <trkpt lat="36.82615" lon="-5.16383">
        <ele>564</ele>
      </trkpt>
      <trkpt lat="36.82625" lon="-5.16366">
        <ele>563</ele>
      </trkpt>
      <trkpt lat="36.82634" lon="-5.16349">
        <ele>562</ele>
      </trkpt>
      <trkpt lat="36.82646" lon="-5.16333">
        <ele>561</ele>
      </trkpt>
      <trkpt lat="36.82667" lon="-5.16299">
        <ele>560</ele>
      </trkpt>
      <trkpt lat="36.82685" lon="-5.16273">
        <ele>557</ele>
      </trkpt>
      <trkpt lat="36.82697" lon="-5.16258">
        <ele>557.5</ele>
      </trkpt>
      <trkpt lat="36.82716" lon="-5.16235">
        <ele>557.2</ele>
      </trkpt>
      <trkpt lat="36.82735" lon="-5.16212">
        <ele>557</ele>
      </trkpt>
      <trkpt lat="36.82772" lon="-5.16163">
        <ele>556</ele>
      </trkpt>
      <trkpt lat="36.8279" lon="-5.16138">
        <ele>556</ele>
      </trkpt>
      <trkpt lat="36.82809" lon="-5.16111">
        <ele>557</ele>
      </trkpt>
      <trkpt lat="36.82843" lon="-5.16065">
        <ele>557</ele>
      </trkpt>
      <trkpt lat="36.82865" lon="-5.16043">
        <ele>558</ele>
      </trkpt>
      <trkpt lat="36.82871" lon="-5.16026">
        <ele>559</ele>
      </trkpt>
      <trkpt lat="36.82899" lon="-5.15988">
        <ele>561</ele>
      </trkpt>
      <trkpt lat="36.82923" lon="-5.15952">
        <ele>563</ele>
      </trkpt>
      <trkpt lat="36.82938" lon="-5.1593">
        <ele>563</ele>
      </trkpt>
      <trkpt lat="36.82976" lon="-5.15889">
        <ele>561</ele>
      </trkpt>
      <trkpt lat="36.83005" lon="-5.15855">
        <ele>559</ele>
      </trkpt>
      <trkpt lat="36.8303" lon="-5.15829">
        <ele>557</ele>
      </trkpt>
      <trkpt lat="36.83056" lon="-5.15807">
        <ele>557</ele>
      </trkpt>
      <trkpt lat="36.83083" lon="-5.15791">
        <ele>555.5</ele>
      </trkpt>
      <trkpt lat="36.83105" lon="-5.15775">
        <ele>554</ele>
      </trkpt>
      <trkpt lat="36.83116" lon="-5.15751">
        <ele>558.5</ele>
      </trkpt>
      <trkpt lat="36.83124" lon="-5.15706">
        <ele>563</ele>
      </trkpt>
      <trkpt lat="36.83132" lon="-5.15681">
        <ele>564</ele>
      </trkpt>
      <trkpt lat="36.83137" lon="-5.15663">
        <ele>564</ele>
      </trkpt>
      <trkpt lat="36.83143" lon="-5.15643">
        <ele>567</ele>
      </trkpt>
      <trkpt lat="36.83158" lon="-5.1562">
        <ele>566.5</ele>
      </trkpt>
      <trkpt lat="36.83169" lon="-5.15601">
        <ele>566.7</ele>
      </trkpt>
      <trkpt lat="36.83181" lon="-5.15594">
        <ele>564.8</ele>
      </trkpt>
      <trkpt lat="36.83192" lon="-5.15583">
        <ele>563</ele>
      </trkpt>
      <trkpt lat="36.83198" lon="-5.1557">
        <ele>560</ele>
      </trkpt>
      <trkpt lat="36.83199" lon="-5.15553">
        <ele>557</ele>
      </trkpt>
      <trkpt lat="36.83201" lon="-5.15544">
        <ele>555</ele>
      </trkpt>
      <trkpt lat="36.83209" lon="-5.15516">
        <ele>552</ele>
      </trkpt>
      <trkpt lat="36.83216" lon="-5.15494">
        <ele>552</ele>
      </trkpt>
      <trkpt lat="36.83223" lon="-5.15473">
        <ele>550</ele>
      </trkpt>
      <trkpt lat="36.83232" lon="-5.15444">
        <ele>548</ele>
      </trkpt>
      <trkpt lat="36.83237" lon="-5.15416">
        <ele>548</ele>
      </trkpt>
      <trkpt lat="36.83238" lon="-5.15391">
        <ele>546</ele>
      </trkpt>
      <trkpt lat="36.8324" lon="-5.15361">
        <ele>544</ele>
      </trkpt>
      <trkpt lat="36.83245" lon="-5.15338">
        <ele>537</ele>
      </trkpt>
      <trkpt lat="36.83248" lon="-5.1532">
        <ele>535.5</ele>
      </trkpt>
      <trkpt lat="36.83247" lon="-5.15291">
        <ele>535.2</ele>
      </trkpt>
      <trkpt lat="36.83251" lon="-5.15262">
        <ele>535</ele>
      </trkpt>
      <trkpt lat="36.83254" lon="-5.15239">
        <ele>530</ele>
      </trkpt>
      <trkpt lat="36.83259" lon="-5.15206">
        <ele>526</ele>
      </trkpt>
      <trkpt lat="36.83263" lon="-5.15186">
        <ele>527.5</ele>
      </trkpt>
      <trkpt lat="36.8327" lon="-5.15169">
        <ele>526.7</ele>
      </trkpt>
      <trkpt lat="36.83271" lon="-5.15147">
        <ele>526</ele>
      </trkpt>
      <trkpt lat="36.83274" lon="-5.15125">
        <ele>522</ele>
      </trkpt>
      <trkpt lat="36.83279" lon="-5.15105">
        <ele>521</ele>
      </trkpt>
      <trkpt lat="36.83283" lon="-5.15087">
        <ele>518</ele>
      </trkpt>
      <trkpt lat="36.83284" lon="-5.15065">
        <ele>514</ele>
      </trkpt>
      <trkpt lat="36.83286" lon="-5.15029">
        <ele>514</ele>
      </trkpt>
      <trkpt lat="36.83289" lon="-5.15004">
        <ele>511</ele>
      </trkpt>
      <trkpt lat="36.83296" lon="-5.14993">
        <ele>509</ele>
      </trkpt>
      <trkpt lat="36.8332" lon="-5.14954">
        <ele>506</ele>
      </trkpt>
      <trkpt lat="36.83341" lon="-5.14929">
        <ele>506</ele>
      </trkpt>
      <trkpt lat="36.83366" lon="-5.14899">
        <ele>502</ele>
      </trkpt>
      <trkpt lat="36.834" lon="-5.14848">
        <ele>500</ele>
      </trkpt>
      <trkpt lat="36.83427" lon="-5.14802">
        <ele>496</ele>
      </trkpt>
      <trkpt lat="36.83453" lon="-5.14762">
        <ele>496</ele>
      </trkpt>
      <trkpt lat="36.83478" lon="-5.14719">
        <ele>496</ele>
      </trkpt>
      <trkpt lat="36.83505" lon="-5.14672">
        <ele>496</ele>
      </trkpt>
      <trkpt lat="36.83533" lon="-5.14629">
        <ele>494.5</ele>
      </trkpt>
      <trkpt lat="36.8355" lon="-5.14598">
        <ele>493</ele>
      </trkpt>
      <trkpt lat="36.83571" lon="-5.14559">
        <ele>492</ele>
      </trkpt>
      <trkpt lat="36.83597" lon="-5.14512">
        <ele>492</ele>
      </trkpt>
      <trkpt lat="36.83614" lon="-5.14483">
        <ele>495</ele>
      </trkpt>
      <trkpt lat="36.83632" lon="-5.14449">
        <ele>495</ele>
      </trkpt>
      <trkpt lat="36.83656" lon="-5.14402">
        <ele>495</ele>
      </trkpt>
      <trkpt lat="36.83668" lon="-5.14373">
        <ele>499</ele>
      </trkpt>
      <trkpt lat="36.83677" lon="-5.14346">
        <ele>503</ele>
      </trkpt>
      <trkpt lat="36.83696" lon="-5.143">
        <ele>503</ele>
      </trkpt>
      <trkpt lat="36.83709" lon="-5.14277">
        <ele>501</ele>
      </trkpt>
      <trkpt lat="36.8372" lon="-5.14253">
        <ele>499</ele>
      </trkpt>
      <trkpt lat="36.83733" lon="-5.14221">
        <ele>500</ele>
      </trkpt>
      <trkpt lat="36.83742" lon="-5.14203">
        <ele>501</ele>
      </trkpt>
      <trkpt lat="36.83762" lon="-5.14153">
        <ele>507</ele>
      </trkpt>
      <trkpt lat="36.83766" lon="-5.14143">
        <ele>501</ele>
      </trkpt>
      <trkpt lat="36.83781" lon="-5.14094">
        <ele>495</ele>
      </trkpt>
      <trkpt lat="36.83795" lon="-5.14039">
        <ele>494.5</ele>
      </trkpt>
      <trkpt lat="36.83807" lon="-5.13996">
        <ele>494.7</ele>
      </trkpt>
      <trkpt lat="36.83815" lon="-5.13965">
        <ele>495</ele>
      </trkpt>
      <trkpt lat="36.83822" lon="-5.13928">
        <ele>496</ele>
      </trkpt>
      <trkpt lat="36.83824" lon="-5.13888">
        <ele>503</ele>
      </trkpt>
      <trkpt lat="36.83831" lon="-5.13856">
        <ele>503</ele>
      </trkpt>
      <trkpt lat="36.83833" lon="-5.13834">
        <ele>503.5</ele>
      </trkpt>
      <trkpt lat="36.8383" lon="-5.13818">
        <ele>504</ele>
      </trkpt>
      <trkpt lat="36.83832" lon="-5.13809">
        <ele>506</ele>
      </trkpt>
      <trkpt lat="36.83838" lon="-5.13785">
        <ele>509</ele>
      </trkpt>
      <trkpt lat="36.83843" lon="-5.13768">
        <ele>512</ele>
      </trkpt>
      <trkpt lat="36.83853" lon="-5.13758">
        <ele>515</ele>
      </trkpt>
      <trkpt lat="36.83888" lon="-5.13744">
        <ele>516</ele>
      </trkpt>
      <trkpt lat="36.83916" lon="-5.1373">
        <ele>516</ele>
      </trkpt>
      <trkpt lat="36.83951" lon="-5.13712">
        <ele>528</ele>
      </trkpt>
      <trkpt lat="36.83984" lon="-5.13694">
        <ele>528</ele>
      </trkpt>
      <trkpt lat="36.84017" lon="-5.13675">
        <ele>526</ele>
      </trkpt>
      <trkpt lat="36.84051" lon="-5.13656">
        <ele>524</ele>
      </trkpt>
      <trkpt lat="36.8408" lon="-5.13635">
        <ele>519</ele>
      </trkpt>
      <trkpt lat="36.84128" lon="-5.13601">
        <ele>519.5</ele>
      </trkpt>
      <trkpt lat="36.84157" lon="-5.13584">
        <ele>515.7</ele>
      </trkpt>
      <trkpt lat="36.842" lon="-5.13559">
        <ele>512</ele>
      </trkpt>
      <trkpt lat="36.84233" lon="-5.13542">
        <ele>514</ele>
      </trkpt>
      <trkpt lat="36.84292" lon="-5.13511">
        <ele>516</ele>
      </trkpt>
      <trkpt lat="36.84327" lon="-5.13496">
        <ele>514</ele>
      </trkpt>
      <trkpt lat="36.84362" lon="-5.13482">
        <ele>512</ele>
      </trkpt>
      <trkpt lat="36.84402" lon="-5.13465">
        <ele>510</ele>
      </trkpt>
      <trkpt lat="36.84437" lon="-5.13451">
        <ele>505</ele>
      </trkpt>
      <trkpt lat="36.84473" lon="-5.13438">
        <ele>503</ele>
      </trkpt>
      <trkpt lat="36.84514" lon="-5.13422">
        <ele>500</ele>
      </trkpt>
      <trkpt lat="36.84547" lon="-5.1341">
        <ele>499</ele>
      </trkpt>
      <trkpt lat="36.84606" lon="-5.13389">
        <ele>487</ele>
      </trkpt>
      <trkpt lat="36.84643" lon="-5.13377">
        <ele>483</ele>
      </trkpt>
      <trkpt lat="36.8468" lon="-5.13365">
        <ele>481</ele>
      </trkpt>
      <trkpt lat="36.84731" lon="-5.13349">
        <ele>476</ele>
      </trkpt>
      <trkpt lat="36.84763" lon="-5.13335">
        <ele>472</ele>
      </trkpt>
      <trkpt lat="36.84818" lon="-5.13313">
        <ele>472</ele>
      </trkpt>
      <trkpt lat="36.84853" lon="-5.13301">
        <ele>472</ele>
      </trkpt>
      <trkpt lat="36.84889" lon="-5.13288">
        <ele>476</ele>
      </trkpt>
      <trkpt lat="36.84931" lon="-5.13274">
        <ele>476</ele>
      </trkpt>
      <trkpt lat="36.84963" lon="-5.13263">
        <ele>477</ele>
      </trkpt>
      <trkpt lat="36.85014" lon="-5.13246">
        <ele>479</ele>
      </trkpt>
      <trkpt lat="36.85043" lon="-5.13241">
        <ele>479</ele>
      </trkpt>
      <trkpt lat="36.85077" lon="-5.13235">
        <ele>481</ele>
      </trkpt>
      <trkpt lat="36.85108" lon="-5.13235">
        <ele>482</ele>
      </trkpt>
      <trkpt lat="36.85147" lon="-5.13235">
        <ele>484</ele>
      </trkpt>
      <trkpt lat="36.85183" lon="-5.13241">
        <ele>486</ele>
      </trkpt>
      <trkpt lat="36.85251" lon="-5.13252">
        <ele>490</ele>
      </trkpt>
      <trkpt lat="36.85289" lon="-5.13257">
        <ele>490</ele>
      </trkpt>
      <trkpt lat="36.85327" lon="-5.13262">
        <ele>490</ele>
      </trkpt>
      <trkpt lat="36.85382" lon="-5.13269">
        <ele>489</ele>
      </trkpt>
      <trkpt lat="36.8542" lon="-5.13272">
        <ele>488</ele>
      </trkpt>
      <trkpt lat="36.85457" lon="-5.13275">
        <ele>486</ele>
      </trkpt>
      <trkpt lat="36.85509" lon="-5.13279">
        <ele>485</ele>
      </trkpt>
      <trkpt lat="36.85543" lon="-5.13284">
        <ele>484</ele>
      </trkpt>
      <trkpt lat="36.85608" lon="-5.13293">
        <ele>484</ele>
      </trkpt>
      <trkpt lat="36.85643" lon="-5.13291">
        <ele>484</ele>
      </trkpt>
      <trkpt lat="36.85713" lon="-5.13287">
        <ele>484</ele>
      </trkpt>
      <trkpt lat="36.85749" lon="-5.13283">
        <ele>487</ele>
      </trkpt>
      <trkpt lat="36.85786" lon="-5.13279">
        <ele>488</ele>
      </trkpt>
      <trkpt lat="36.85827" lon="-5.13275">
        <ele>488</ele>
      </trkpt>
      <trkpt lat="36.85857" lon="-5.13268">
        <ele>488</ele>
      </trkpt>
      <trkpt lat="36.85897" lon="-5.13259">
        <ele>484</ele>
      </trkpt>
      <trkpt lat="36.85915" lon="-5.13255">
        <ele>478</ele>
      </trkpt>
      <trkpt lat="36.86007" lon="-5.13245">
        <ele>477</ele>
      </trkpt>
      <trkpt lat="36.86041" lon="-5.13241">
        <ele>477</ele>
      </trkpt>
      <trkpt lat="36.86098" lon="-5.13235">
        <ele>477</ele>
      </trkpt>
      <trkpt lat="36.86118" lon="-5.13232">
        <ele>477</ele>
      </trkpt>
      <trkpt lat="36.86172" lon="-5.13234">
        <ele>480</ele>
      </trkpt>
      <trkpt lat="36.86206" lon="-5.13238">
        <ele>485</ele>
      </trkpt>
      <trkpt lat="36.86235" lon="-5.13247">
        <ele>485</ele>
      </trkpt>
      <trkpt lat="36.86263" lon="-5.13257">
        <ele>484</ele>
      </trkpt>
      <trkpt lat="36.86288" lon="-5.1327">
        <ele>477</ele>
      </trkpt>
      <trkpt lat="36.8633" lon="-5.13304">
        <ele>476</ele>
      </trkpt>
      <trkpt lat="36.86357" lon="-5.13311">
        <ele>471</ele>
      </trkpt>
      <trkpt lat="36.86385" lon="-5.13318">
        <ele>469</ele>
      </trkpt>
      <trkpt lat="36.86414" lon="-5.13326">
        <ele>469</ele>
      </trkpt>
      <trkpt lat="36.86448" lon="-5.13336">
        <ele>469</ele>
      </trkpt>
      <trkpt lat="36.86488" lon="-5.13345">
        <ele>467.5</ele>
      </trkpt>
      <trkpt lat="36.86518" lon="-5.13347">
        <ele>466</ele>
      </trkpt>
      <trkpt lat="36.86554" lon="-5.1335">
        <ele>466</ele>
      </trkpt>
      <trkpt lat="36.866" lon="-5.13346">
        <ele>469</ele>
      </trkpt>
      <trkpt lat="36.86633" lon="-5.13351">
        <ele>469</ele>
      </trkpt>
      <trkpt lat="36.86666" lon="-5.1335">
        <ele>469</ele>
      </trkpt>
      <trkpt lat="36.86722" lon="-5.13349">
        <ele>469</ele>
      </trkpt>
      <trkpt lat="36.86754" lon="-5.13351">
        <ele>460</ele>
      </trkpt>
      <trkpt lat="36.86805" lon="-5.13354">
        <ele>460</ele>
      </trkpt>
      <trkpt lat="36.86835" lon="-5.13355">
        <ele>460</ele>
      </trkpt>
      <trkpt lat="36.86873" lon="-5.13357">
        <ele>460</ele>
      </trkpt>
      <trkpt lat="36.86909" lon="-5.13356">
        <ele>462</ele>
      </trkpt>
      <trkpt lat="36.86961" lon="-5.13347">
        <ele>465</ele>
      </trkpt>
      <trkpt lat="36.86992" lon="-5.13344">
        <ele>471</ele>
      </trkpt>
      <trkpt lat="36.87033" lon="-5.1334">
        <ele>471</ele>
      </trkpt>
      <trkpt lat="36.87068" lon="-5.13334">
        <ele>470</ele>
      </trkpt>
      <trkpt lat="36.87138" lon="-5.13323">
        <ele>467</ele>
      </trkpt>
      <trkpt lat="36.87167" lon="-5.13318">
        <ele>466</ele>
      </trkpt>
      <trkpt lat="36.87203" lon="-5.13312">
        <ele>465</ele>
      </trkpt>
      <trkpt lat="36.87246" lon="-5.13304">
        <ele>463</ele>
      </trkpt>
      <trkpt lat="36.87296" lon="-5.13298">
        <ele>460</ele>
      </trkpt>
      <trkpt lat="36.87342" lon="-5.13292">
        <ele>460.5</ele>
      </trkpt>
      <trkpt lat="36.87374" lon="-5.13268">
        <ele>461</ele>
      </trkpt>
      <trkpt lat="36.87402" lon="-5.13254">
        <ele>470</ele>
      </trkpt>
      <trkpt lat="36.87447" lon="-5.13262">
        <ele>470</ele>
      </trkpt>
      <trkpt lat="36.87475" lon="-5.13264">
        <ele>471</ele>
      </trkpt>
      <trkpt lat="36.87503" lon="-5.13266">
        <ele>474</ele>
      </trkpt>
      <trkpt lat="36.87554" lon="-5.1326">
        <ele>477</ele>
      </trkpt>
      <trkpt lat="36.87595" lon="-5.13258">
        <ele>479</ele>
      </trkpt>
      <trkpt lat="36.87626" lon="-5.13259">
        <ele>487</ele>
      </trkpt>
      <trkpt lat="36.87651" lon="-5.1326">
        <ele>491</ele>
      </trkpt>
      <trkpt lat="36.87676" lon="-5.13261">
        <ele>492</ele>
      </trkpt>
      <trkpt lat="36.87695" lon="-5.13262">
        <ele>493</ele>
      </trkpt>
      <trkpt lat="36.87715" lon="-5.13261">
        <ele>497</ele>
      </trkpt>
      <trkpt lat="36.87741" lon="-5.13255">
        <ele>500</ele>
      </trkpt>
      <trkpt lat="36.87761" lon="-5.13249">
        <ele>502</ele>
      </trkpt>
      <trkpt lat="36.87789" lon="-5.13246">
        <ele>504</ele>
      </trkpt>
      <trkpt lat="36.87819" lon="-5.13247">
        <ele>506</ele>
      </trkpt>
      <trkpt lat="36.87846" lon="-5.13247">
        <ele>513</ele>
      </trkpt>
      <trkpt lat="36.87868" lon="-5.13251">
        <ele>514</ele>
      </trkpt>
      <trkpt lat="36.87887" lon="-5.13255">
        <ele>514</ele>
      </trkpt>
      <trkpt lat="36.8791" lon="-5.13256">
        <ele>514</ele>
      </trkpt>
      <trkpt lat="36.87934" lon="-5.13255">
        <ele>514</ele>
      </trkpt>
      <trkpt lat="36.87957" lon="-5.13253">
        <ele>516</ele>
      </trkpt>
      <trkpt lat="36.87984" lon="-5.13257">
        <ele>522</ele>
      </trkpt>
      <trkpt lat="36.88014" lon="-5.13267">
        <ele>524</ele>
      </trkpt>
      <trkpt lat="36.88038" lon="-5.13277">
        <ele>526</ele>
      </trkpt>
      <trkpt lat="36.88061" lon="-5.13291">
        <ele>533</ele>
      </trkpt>
      <trkpt lat="36.88084" lon="-5.13308">
        <ele>537</ele>
      </trkpt>
      <trkpt lat="36.88103" lon="-5.13322">
        <ele>539</ele>
      </trkpt>
      <trkpt lat="36.88117" lon="-5.13337">
        <ele>542</ele>
      </trkpt>
      <trkpt lat="36.88126" lon="-5.13357">
        <ele>542</ele>
      </trkpt>
      <trkpt lat="36.88134" lon="-5.13383">
        <ele>547</ele>
      </trkpt>
      <trkpt lat="36.88142" lon="-5.13407">
        <ele>551</ele>
      </trkpt>
      <trkpt lat="36.8815" lon="-5.13429">
        <ele>558</ele>
      </trkpt>
      <trkpt lat="36.88158" lon="-5.13447">
        <ele>561</ele>
      </trkpt>
      <trkpt lat="36.88164" lon="-5.13465">
        <ele>564</ele>
      </trkpt>
      <trkpt lat="36.8817" lon="-5.13479">
        <ele>567</ele>
      </trkpt>
      <trkpt lat="36.88178" lon="-5.135">
        <ele>582</ele>
      </trkpt>
      <trkpt lat="36.88187" lon="-5.1352">
        <ele>582.5</ele>
      </trkpt>
      <trkpt lat="36.88195" lon="-5.13538">
        <ele>581.2</ele>
      </trkpt>
      <trkpt lat="36.88204" lon="-5.13556">
        <ele>580</ele>
      </trkpt>
      <trkpt lat="36.88214" lon="-5.13575">
        <ele>576.5</ele>
      </trkpt>
      <trkpt lat="36.88225" lon="-5.13594">
        <ele>573</ele>
      </trkpt>
      <trkpt lat="36.88238" lon="-5.13614">
        <ele>572</ele>
      </trkpt>
      <trkpt lat="36.8825" lon="-5.13627">
        <ele>571</ele>
      </trkpt>
      <trkpt lat="36.88262" lon="-5.13641">
        <ele>565</ele>
      </trkpt>
      <trkpt lat="36.88271" lon="-5.13652">
        <ele>565</ele>
      </trkpt>
      <trkpt lat="36.8828" lon="-5.13667">
        <ele>561</ele>
      </trkpt>
      <trkpt lat="36.88291" lon="-5.13685">
        <ele>556</ele>
      </trkpt>
      <trkpt lat="36.88298" lon="-5.13698">
        <ele>553</ele>
      </trkpt>
      <trkpt lat="36.88301" lon="-5.13704">
        <ele>553</ele>
      </trkpt>
      <trkpt lat="36.88298" lon="-5.13699">
        <ele>557</ele>
      </trkpt>
      <trkpt lat="36.88304" lon="-5.1371">
        <ele>561</ele>
      </trkpt>
      <trkpt lat="36.88304" lon="-5.1371">
        <ele>561</ele>
      </trkpt>
      <trkpt lat="36.88303" lon="-5.13723">
        <ele>563</ele>
      </trkpt>
      <trkpt lat="36.88307" lon="-5.13744">
        <ele>565</ele>
      </trkpt>
      <trkpt lat="36.883" lon="-5.13757">
        <ele>573</ele>
      </trkpt>
      <trkpt lat="36.883" lon="-5.13776">
        <ele>572.5</ele>
      </trkpt>
      <trkpt lat="36.883" lon="-5.13796">
        <ele>577.2</ele>
      </trkpt>
      <trkpt lat="36.88299" lon="-5.13816">
        <ele>575.1</ele>
      </trkpt>
      <trkpt lat="36.88298" lon="-5.13835">
        <ele>579.5</ele>
      </trkpt>
      <trkpt lat="36.88295" lon="-5.13855">
        <ele>584</ele>
      </trkpt>
      <trkpt lat="36.8829" lon="-5.13875">
        <ele>589</ele>
      </trkpt>
      <trkpt lat="36.88284" lon="-5.13894">
        <ele>589.5</ele>
      </trkpt>
      <trkpt lat="36.88277" lon="-5.13914">
        <ele>590</ele>
      </trkpt>
      <trkpt lat="36.88269" lon="-5.13933">
        <ele>590</ele>
      </trkpt>
      <trkpt lat="36.88262" lon="-5.13953">
        <ele>592</ele>
      </trkpt>
      <trkpt lat="36.88255" lon="-5.13973">
        <ele>593.5</ele>
      </trkpt>
      <trkpt lat="36.8825" lon="-5.13992">
        <ele>595</ele>
      </trkpt>
      <trkpt lat="36.88245" lon="-5.14013">
        <ele>594</ele>
      </trkpt>
      <trkpt lat="36.88237" lon="-5.14032">
        <ele>593</ele>
      </trkpt>
      <trkpt lat="36.88227" lon="-5.1405">
        <ele>593</ele>
      </trkpt>
      <trkpt lat="36.88219" lon="-5.14058">
        <ele>593</ele>
      </trkpt>
      <trkpt lat="36.88212" lon="-5.14067">
        <ele>599</ele>
      </trkpt>
      <trkpt lat="36.88204" lon="-5.14075">
        <ele>609</ele>
      </trkpt>
      <trkpt lat="36.88197" lon="-5.14083">
        <ele>618</ele>
      </trkpt>
      <trkpt lat="36.8819" lon="-5.14091">
        <ele>622</ele>
      </trkpt>
      <trkpt lat="36.88183" lon="-5.14099">
        <ele>628</ele>
      </trkpt>
      <trkpt lat="36.88176" lon="-5.14108">
        <ele>634</ele>
      </trkpt>
      <trkpt lat="36.88169" lon="-5.14117">
        <ele>638</ele>
      </trkpt>
      <trkpt lat="36.88163" lon="-5.14128">
        <ele>642</ele>
      </trkpt>
      <trkpt lat="36.88158" lon="-5.1414">
        <ele>649</ele>
      </trkpt>
      <trkpt lat="36.88154" lon="-5.14151">
        <ele>662</ele>
      </trkpt>
      <trkpt lat="36.88149" lon="-5.14163">
        <ele>675</ele>
      </trkpt>
      <trkpt lat="36.88144" lon="-5.14175">
        <ele>683</ele>
      </trkpt>
      <trkpt lat="36.88139" lon="-5.14187">
        <ele>691</ele>
      </trkpt>
      <trkpt lat="36.88134" lon="-5.14197">
        <ele>696</ele>
      </trkpt>
      <trkpt lat="36.88125" lon="-5.14215">
        <ele>702</ele>
      </trkpt>
      <trkpt lat="36.88114" lon="-5.14233">
        <ele>709</ele>
      </trkpt>
      <trkpt lat="36.88108" lon="-5.14242">
        <ele>712</ele>
      </trkpt>
      <trkpt lat="36.88102" lon="-5.14251">
        <ele>715</ele>
      </trkpt>
      <trkpt lat="36.88089" lon="-5.14267">
        <ele>716</ele>
      </trkpt>
      <trkpt lat="36.88082" lon="-5.14274">
        <ele>717</ele>
      </trkpt>
      <trkpt lat="36.88069" lon="-5.14287">
        <ele>724</ele>
      </trkpt>
      <trkpt lat="36.88057" lon="-5.14302">
        <ele>727</ele>
      </trkpt>
      <trkpt lat="36.8805" lon="-5.1431">
        <ele>729</ele>
      </trkpt>
      <trkpt lat="36.88044" lon="-5.1432">
        <ele>729</ele>
      </trkpt>
      <trkpt lat="36.88038" lon="-5.1433">
        <ele>728</ele>
      </trkpt>
      <trkpt lat="36.88032" lon="-5.14342">
        <ele>727</ele>
      </trkpt>
      <trkpt lat="36.88027" lon="-5.14353">
        <ele>727</ele>
      </trkpt>
      <trkpt lat="36.8802" lon="-5.14365">
        <ele>729</ele>
      </trkpt>
      <trkpt lat="36.88014" lon="-5.14377">
        <ele>733</ele>
      </trkpt>
      <trkpt lat="36.88008" lon="-5.1439">
        <ele>742</ele>
      </trkpt>
      <trkpt lat="36.88002" lon="-5.14403">
        <ele>744</ele>
      </trkpt>
      <trkpt lat="36.87997" lon="-5.14415">
        <ele>746</ele>
      </trkpt>
      <trkpt lat="36.8799" lon="-5.14429">
        <ele>746.5</ele>
      </trkpt>
      <trkpt lat="36.87984" lon="-5.14442">
        <ele>743.7</ele>
      </trkpt>
      <trkpt lat="36.87978" lon="-5.14456">
        <ele>741</ele>
      </trkpt>
      <trkpt lat="36.87973" lon="-5.1447">
        <ele>741</ele>
      </trkpt>
      <trkpt lat="36.87968" lon="-5.14484">
        <ele>740</ele>
      </trkpt>
      <trkpt lat="36.87963" lon="-5.14498">
        <ele>736</ele>
      </trkpt>
      <trkpt lat="36.87958" lon="-5.14513">
        <ele>735</ele>
      </trkpt>
      <trkpt lat="36.87953" lon="-5.14528">
        <ele>734</ele>
      </trkpt>
      <trkpt lat="36.87949" lon="-5.14543">
        <ele>733</ele>
      </trkpt>
      <trkpt lat="36.87944" lon="-5.14558">
        <ele>729</ele>
      </trkpt>
      <trkpt lat="36.87939" lon="-5.14572">
        <ele>727</ele>
      </trkpt>
      <trkpt lat="36.87935" lon="-5.14586">
        <ele>721</ele>
      </trkpt>
      <trkpt lat="36.87931" lon="-5.146">
        <ele>717</ele>
      </trkpt>
      <trkpt lat="36.87926" lon="-5.14614">
        <ele>713</ele>
      </trkpt>
      <trkpt lat="36.87922" lon="-5.14628">
        <ele>697</ele>
      </trkpt>
      <trkpt lat="36.87918" lon="-5.14641">
        <ele>681</ele>
      </trkpt>
      <trkpt lat="36.87913" lon="-5.14655">
        <ele>681</ele>
      </trkpt>
      <trkpt lat="36.87909" lon="-5.14669">
        <ele>669</ele>
      </trkpt>
      <trkpt lat="36.87905" lon="-5.14682">
        <ele>669</ele>
      </trkpt>
      <trkpt lat="36.87901" lon="-5.14696">
        <ele>668</ele>
      </trkpt>
      <trkpt lat="36.87896" lon="-5.1471">
        <ele>657</ele>
      </trkpt>
      <trkpt lat="36.87892" lon="-5.14724">
        <ele>654</ele>
      </trkpt>
      <trkpt lat="36.87888" lon="-5.14737">
        <ele>653</ele>
      </trkpt>
      <trkpt lat="36.87884" lon="-5.1475">
        <ele>652</ele>
      </trkpt>
      <trkpt lat="36.87879" lon="-5.14761">
        <ele>652</ele>
      </trkpt>
      <trkpt lat="36.87875" lon="-5.14773">
        <ele>652</ele>
      </trkpt>
      <trkpt lat="36.87871" lon="-5.14784">
        <ele>652.5</ele>
      </trkpt>
      <trkpt lat="36.87868" lon="-5.14795">
        <ele>653</ele>
      </trkpt>
      <trkpt lat="36.87865" lon="-5.14806">
        <ele>658</ele>
      </trkpt>
      <trkpt lat="36.87863" lon="-5.14828">
        <ele>658</ele>
      </trkpt>
      <trkpt lat="36.8786" lon="-5.14849">
        <ele>659</ele>
      </trkpt>
      <trkpt lat="36.87856" lon="-5.14871">
        <ele>660</ele>
      </trkpt>
      <trkpt lat="36.87852" lon="-5.14881">
        <ele>677</ele>
      </trkpt>
      <trkpt lat="36.87844" lon="-5.14902">
        <ele>688</ele>
      </trkpt>
      <trkpt lat="36.87839" lon="-5.14912">
        <ele>688</ele>
      </trkpt>
      <trkpt lat="36.87833" lon="-5.14922">
        <ele>687</ele>
      </trkpt>
      <trkpt lat="36.87827" lon="-5.14932">
        <ele>683</ele>
      </trkpt>
      <trkpt lat="36.87821" lon="-5.14942">
        <ele>679</ele>
      </trkpt>
      <trkpt lat="36.87814" lon="-5.14952">
        <ele>679</ele>
      </trkpt>
      <trkpt lat="36.87807" lon="-5.14962">
        <ele>682</ele>
      </trkpt>
      <trkpt lat="36.87801" lon="-5.14972">
        <ele>685</ele>
      </trkpt>
      <trkpt lat="36.87795" lon="-5.14983">
        <ele>685</ele>
      </trkpt>
      <trkpt lat="36.87788" lon="-5.14994">
        <ele>685</ele>
      </trkpt>
      <trkpt lat="36.87782" lon="-5.15005">
        <ele>685</ele>
      </trkpt>
      <trkpt lat="36.87776" lon="-5.15016">
        <ele>686.5</ele>
      </trkpt>
      <trkpt lat="36.87771" lon="-5.15027">
        <ele>688</ele>
      </trkpt>
      <trkpt lat="36.87765" lon="-5.15038">
        <ele>693</ele>
      </trkpt>
      <trkpt lat="36.87759" lon="-5.1505">
        <ele>694</ele>
      </trkpt>
      <trkpt lat="36.8775" lon="-5.15073">
        <ele>694</ele>
      </trkpt>
      <trkpt lat="36.87737" lon="-5.1511">
        <ele>697</ele>
      </trkpt>
      <trkpt lat="36.87732" lon="-5.15123">
        <ele>699</ele>
      </trkpt>
      <trkpt lat="36.87728" lon="-5.15135">
        <ele>700</ele>
      </trkpt>
      <trkpt lat="36.87724" lon="-5.15148">
        <ele>698.5</ele>
      </trkpt>
      <trkpt lat="36.87721" lon="-5.1516">
        <ele>697</ele>
      </trkpt>
      <trkpt lat="36.87717" lon="-5.15173">
        <ele>696</ele>
      </trkpt>
      <trkpt lat="36.87714" lon="-5.15186">
        <ele>688</ele>
      </trkpt>
      <trkpt lat="36.87711" lon="-5.15199">
        <ele>689</ele>
      </trkpt>
      <trkpt lat="36.87708" lon="-5.15212">
        <ele>690</ele>
      </trkpt>
      <trkpt lat="36.87705" lon="-5.15225">
        <ele>692</ele>
      </trkpt>
      <trkpt lat="36.87701" lon="-5.1524">
        <ele>693</ele>
      </trkpt>
      <trkpt lat="36.87699" lon="-5.15253">
        <ele>696</ele>
      </trkpt>
      <trkpt lat="36.87696" lon="-5.15267">
        <ele>696</ele>
      </trkpt>
      <trkpt lat="36.87693" lon="-5.15281">
        <ele>696</ele>
      </trkpt>
      <trkpt lat="36.8769" lon="-5.15295">
        <ele>688</ele>
      </trkpt>
      <trkpt lat="36.87687" lon="-5.15309">
        <ele>688</ele>
      </trkpt>
      <trkpt lat="36.87685" lon="-5.15322">
        <ele>688</ele>
      </trkpt>
      <trkpt lat="36.87682" lon="-5.15336">
        <ele>687</ele>
      </trkpt>
      <trkpt lat="36.87679" lon="-5.15349">
        <ele>689.5</ele>
      </trkpt>
      <trkpt lat="36.87677" lon="-5.15363">
        <ele>692</ele>
      </trkpt>
      <trkpt lat="36.87675" lon="-5.15377">
        <ele>695</ele>
      </trkpt>
      <trkpt lat="36.87672" lon="-5.1539">
        <ele>698</ele>
      </trkpt>
      <trkpt lat="36.8767" lon="-5.15404">
        <ele>701</ele>
      </trkpt>
      <trkpt lat="36.87668" lon="-5.15417">
        <ele>703</ele>
      </trkpt>
      <trkpt lat="36.87666" lon="-5.15431">
        <ele>703</ele>
      </trkpt>
      <trkpt lat="36.87663" lon="-5.15445">
        <ele>704</ele>
      </trkpt>
      <trkpt lat="36.87661" lon="-5.15459">
        <ele>706</ele>
      </trkpt>
      <trkpt lat="36.87659" lon="-5.15473">
        <ele>717</ele>
      </trkpt>
      <trkpt lat="36.87657" lon="-5.15487">
        <ele>726</ele>
      </trkpt>
      <trkpt lat="36.87655" lon="-5.15499">
        <ele>725.5</ele>
      </trkpt>
      <trkpt lat="36.87653" lon="-5.15512">
        <ele>733.7</ele>
      </trkpt>
      <trkpt lat="36.87652" lon="-5.15523">
        <ele>742</ele>
      </trkpt>
      <trkpt lat="36.87648" lon="-5.15543">
        <ele>753</ele>
      </trkpt>
      <trkpt lat="36.87645" lon="-5.15559">
        <ele>774</ele>
      </trkpt>
      <trkpt lat="36.87645" lon="-5.15571">
        <ele>769.5</ele>
      </trkpt>
      <trkpt lat="36.87644" lon="-5.15584">
        <ele>769.2</ele>
      </trkpt>
      <trkpt lat="36.87642" lon="-5.15603">
        <ele>775.1</ele>
      </trkpt>
      <trkpt lat="36.8764" lon="-5.15622">
        <ele>777</ele>
      </trkpt>
      <trkpt lat="36.87639" lon="-5.15641">
        <ele>779</ele>
      </trkpt>
      <trkpt lat="36.87639" lon="-5.15659">
        <ele>792</ele>
      </trkpt>
      <trkpt lat="36.87641" lon="-5.15674">
        <ele>797</ele>
      </trkpt>
      <trkpt lat="36.87649" lon="-5.15689">
        <ele>802</ele>
      </trkpt>
      <trkpt lat="36.87653" lon="-5.15706">
        <ele>812</ele>
      </trkpt>
      <trkpt lat="36.87658" lon="-5.15725">
        <ele>818</ele>
      </trkpt>
      <trkpt lat="36.87668" lon="-5.15745">
        <ele>818.5</ele>
      </trkpt>
      <trkpt lat="36.87673" lon="-5.15755">
        <ele>817.2</ele>
      </trkpt>
      <trkpt lat="36.87679" lon="-5.15765">
        <ele>816</ele>
      </trkpt>
      <trkpt lat="36.87685" lon="-5.15776">
        <ele>816.5</ele>
      </trkpt>
      <trkpt lat="36.87692" lon="-5.15787">
        <ele>817</ele>
      </trkpt>
      <trkpt lat="36.87699" lon="-5.15799">
        <ele>817.5</ele>
      </trkpt>
      <trkpt lat="36.87708" lon="-5.15812">
        <ele>818</ele>
      </trkpt>
      <trkpt lat="36.87716" lon="-5.15826">
        <ele>829</ele>
      </trkpt>
      <trkpt lat="36.87725" lon="-5.1584">
        <ele>832</ele>
      </trkpt>
      <trkpt lat="36.87734" lon="-5.15854">
        <ele>834</ele>
      </trkpt>
      <trkpt lat="36.87744" lon="-5.15869">
        <ele>838</ele>
      </trkpt>
      <trkpt lat="36.87754" lon="-5.15885">
        <ele>842</ele>
      </trkpt>
      <trkpt lat="36.87765" lon="-5.15902">
        <ele>841.5</ele>
      </trkpt>
      <trkpt lat="36.87776" lon="-5.15919">
        <ele>846.2</ele>
      </trkpt>
      <trkpt lat="36.87787" lon="-5.15937">
        <ele>851</ele>
      </trkpt>
      <trkpt lat="36.87799" lon="-5.15955">
        <ele>852</ele>
      </trkpt>
      <trkpt lat="36.8781" lon="-5.15973">
        <ele>855</ele>
      </trkpt>
      <trkpt lat="36.87822" lon="-5.15991">
        <ele>853.5</ele>
      </trkpt>
      <trkpt lat="36.87834" lon="-5.1601">
        <ele>853.2</ele>
      </trkpt>
      <trkpt lat="36.87846" lon="-5.16028">
        <ele>853</ele>
      </trkpt>
      <trkpt lat="36.87858" lon="-5.16047">
        <ele>853</ele>
      </trkpt>
      <trkpt lat="36.8787" lon="-5.16066">
        <ele>856</ele>
      </trkpt>
      <trkpt lat="36.87882" lon="-5.16084">
        <ele>854.5</ele>
      </trkpt>
      <trkpt lat="36.87894" lon="-5.16103">
        <ele>853</ele>
      </trkpt>
      <trkpt lat="36.87906" lon="-5.16121">
        <ele>850</ele>
      </trkpt>
      <trkpt lat="36.87918" lon="-5.16139">
        <ele>850.5</ele>
      </trkpt>
      <trkpt lat="36.87929" lon="-5.16157">
        <ele>851</ele>
      </trkpt>
      <trkpt lat="36.87941" lon="-5.16176">
        <ele>866</ele>
      </trkpt>
      <trkpt lat="36.87952" lon="-5.16194">
        <ele>871.5</ele>
      </trkpt>
      <trkpt lat="36.87964" lon="-5.16212">
        <ele>877</ele>
      </trkpt>
      <trkpt lat="36.87976" lon="-5.16229">
        <ele>875.5</ele>
      </trkpt>
      <trkpt lat="36.87987" lon="-5.16247">
        <ele>877.2</ele>
      </trkpt>
      <trkpt lat="36.87999" lon="-5.16265">
        <ele>879</ele>
      </trkpt>
      <trkpt lat="36.8801" lon="-5.16282">
        <ele>879</ele>
      </trkpt>
      <trkpt lat="36.88021" lon="-5.163">
        <ele>879</ele>
      </trkpt>
      <trkpt lat="36.88031" lon="-5.16316">
        <ele>879</ele>
      </trkpt>
      <trkpt lat="36.88042" lon="-5.16332">
        <ele>875</ele>
      </trkpt>
      <trkpt lat="36.88052" lon="-5.16348">
        <ele>870</ele>
      </trkpt>
      <trkpt lat="36.88062" lon="-5.16364">
        <ele>867.5</ele>
      </trkpt>
      <trkpt lat="36.88072" lon="-5.16379">
        <ele>865</ele>
      </trkpt>
      <trkpt lat="36.88081" lon="-5.16394">
        <ele>860</ele>
      </trkpt>
      <trkpt lat="36.88091" lon="-5.16409">
        <ele>853</ele>
      </trkpt>
      <trkpt lat="36.881" lon="-5.16423">
        <ele>847</ele>
      </trkpt>
      <trkpt lat="36.88109" lon="-5.16437">
        <ele>841</ele>
      </trkpt>
      <trkpt lat="36.88118" lon="-5.1645">
        <ele>834</ele>
      </trkpt>
      <trkpt lat="36.88127" lon="-5.16463">
        <ele>833</ele>
      </trkpt>
      <trkpt lat="36.88135" lon="-5.16476">
        <ele>832</ele>
      </trkpt>
      <trkpt lat="36.88143" lon="-5.16488">
        <ele>826</ele>
      </trkpt>
      <trkpt lat="36.8815" lon="-5.16498">
        <ele>823</ele>
      </trkpt>
      <trkpt lat="36.88157" lon="-5.16508">
        <ele>806</ele>
      </trkpt>
      <trkpt lat="36.88163" lon="-5.16516">
        <ele>800</ele>
      </trkpt>
      <trkpt lat="36.88174" lon="-5.1653">
        <ele>799</ele>
      </trkpt>
      <trkpt lat="36.88179" lon="-5.16544">
        <ele>794</ele>
      </trkpt>
      <trkpt lat="36.88176" lon="-5.16562">
        <ele>793.5</ele>
      </trkpt>
      <trkpt lat="36.88169" lon="-5.16581">
        <ele>793</ele>
      </trkpt>
      <trkpt lat="36.88161" lon="-5.166">
        <ele>791</ele>
      </trkpt>
      <trkpt lat="36.88154" lon="-5.16618">
        <ele>788</ele>
      </trkpt>
      <trkpt lat="36.88148" lon="-5.16634">
        <ele>788</ele>
      </trkpt>
      <trkpt lat="36.8814" lon="-5.16648">
        <ele>789</ele>
      </trkpt>
      <trkpt lat="36.88133" lon="-5.16662">
        <ele>787</ele>
      </trkpt>
      <trkpt lat="36.88125" lon="-5.16675">
        <ele>785</ele>
      </trkpt>
      <trkpt lat="36.88116" lon="-5.16687">
        <ele>785</ele>
      </trkpt>
      <trkpt lat="36.88107" lon="-5.16699">
        <ele>781</ele>
      </trkpt>
      <trkpt lat="36.88096" lon="-5.16712">
        <ele>778</ele>
      </trkpt>
      <trkpt lat="36.88087" lon="-5.16724">
        <ele>765</ele>
      </trkpt>
      <trkpt lat="36.88077" lon="-5.16737">
        <ele>761</ele>
      </trkpt>
      <trkpt lat="36.88067" lon="-5.16748">
        <ele>759</ele>
      </trkpt>
      <trkpt lat="36.88057" lon="-5.16761">
        <ele>754</ele>
      </trkpt>
      <trkpt lat="36.88046" lon="-5.16775">
        <ele>753</ele>
      </trkpt>
      <trkpt lat="36.88035" lon="-5.16789">
        <ele>754</ele>
      </trkpt>
      <trkpt lat="36.88024" lon="-5.16804">
        <ele>755</ele>
      </trkpt>
      <trkpt lat="36.88012" lon="-5.16819">
        <ele>755</ele>
      </trkpt>
      <trkpt lat="36.88" lon="-5.16835">
        <ele>750</ele>
      </trkpt>
      <trkpt lat="36.87988" lon="-5.16851">
        <ele>745</ele>
      </trkpt>
      <trkpt lat="36.87982" lon="-5.16859">
        <ele>741</ele>
      </trkpt>
      <trkpt lat="36.87969" lon="-5.16875">
        <ele>738</ele>
      </trkpt>
      <trkpt lat="36.87962" lon="-5.16882">
        <ele>728</ele>
      </trkpt>
      <trkpt lat="36.87947" lon="-5.16895">
        <ele>724</ele>
      </trkpt>
      <trkpt lat="36.87939" lon="-5.169">
        <ele>727.5</ele>
      </trkpt>
      <trkpt lat="36.87923" lon="-5.16909">
        <ele>727.7</ele>
      </trkpt>
      <trkpt lat="36.87914" lon="-5.16914">
        <ele>719.3</ele>
      </trkpt>
      <trkpt lat="36.87906" lon="-5.16919">
        <ele>711</ele>
      </trkpt>
      <trkpt lat="36.87897" lon="-5.16924">
        <ele>703</ele>
      </trkpt>
      <trkpt lat="36.87888" lon="-5.16929">
        <ele>697</ele>
      </trkpt>
      <trkpt lat="36.87879" lon="-5.16934">
        <ele>699.5</ele>
      </trkpt>
      <trkpt lat="36.8787" lon="-5.16939">
        <ele>699.7</ele>
      </trkpt>
      <trkpt lat="36.87862" lon="-5.16944">
        <ele>699.3</ele>
      </trkpt>
      <trkpt lat="36.87852" lon="-5.16949">
        <ele>699</ele>
      </trkpt>
      <trkpt lat="36.87843" lon="-5.16954">
        <ele>696</ele>
      </trkpt>
      <trkpt lat="36.87833" lon="-5.1696">
        <ele>696</ele>
      </trkpt>
      <trkpt lat="36.87824" lon="-5.16965">
        <ele>694</ele>
      </trkpt>
      <trkpt lat="36.87814" lon="-5.1697">
        <ele>687</ele>
      </trkpt>
      <trkpt lat="36.87804" lon="-5.16976">
        <ele>684</ele>
      </trkpt>
      <trkpt lat="36.87795" lon="-5.16981">
        <ele>684.5</ele>
      </trkpt>
      <trkpt lat="36.87786" lon="-5.16986">
        <ele>679.7</ele>
      </trkpt>
      <trkpt lat="36.8777" lon="-5.16994">
        <ele>675</ele>
      </trkpt>
      <trkpt lat="36.87755" lon="-5.17003">
        <ele>673</ele>
      </trkpt>
      <trkpt lat="36.87742" lon="-5.1701">
        <ele>673</ele>
      </trkpt>
      <trkpt lat="36.87728" lon="-5.17019">
        <ele>658</ele>
      </trkpt>
      <trkpt lat="36.87713" lon="-5.17028">
        <ele>647</ele>
      </trkpt>
      <trkpt lat="36.87698" lon="-5.17036">
        <ele>634</ele>
      </trkpt>
      <trkpt lat="36.87685" lon="-5.17043">
        <ele>618</ele>
      </trkpt>
      <trkpt lat="36.87674" lon="-5.17048">
        <ele>618</ele>
      </trkpt>
      <trkpt lat="36.87665" lon="-5.17051">
        <ele>616</ele>
      </trkpt>
      <trkpt lat="36.87655" lon="-5.17057">
        <ele>611.5</ele>
      </trkpt>
      <trkpt lat="36.87641" lon="-5.17065">
        <ele>607</ele>
      </trkpt>
      <trkpt lat="36.87633" lon="-5.1707">
        <ele>607</ele>
      </trkpt>
      <trkpt lat="36.87623" lon="-5.17075">
        <ele>607</ele>
      </trkpt>
      <trkpt lat="36.87614" lon="-5.1708">
        <ele>607</ele>
      </trkpt>
      <trkpt lat="36.87604" lon="-5.17085">
        <ele>596.5</ele>
      </trkpt>
      <trkpt lat="36.87594" lon="-5.17091">
        <ele>586</ele>
      </trkpt>
      <trkpt lat="36.87583" lon="-5.17096">
        <ele>571.5</ele>
      </trkpt>
      <trkpt lat="36.87572" lon="-5.17102">
        <ele>557</ele>
      </trkpt>
      <trkpt lat="36.87561" lon="-5.17108">
        <ele>550.5</ele>
      </trkpt>
      <trkpt lat="36.8755" lon="-5.17113">
        <ele>544</ele>
      </trkpt>
      <trkpt lat="36.87539" lon="-5.17119">
        <ele>544</ele>
      </trkpt>
      <trkpt lat="36.87528" lon="-5.17125">
        <ele>544</ele>
      </trkpt>
      <trkpt lat="36.87517" lon="-5.17131">
        <ele>558</ele>
      </trkpt>
      <trkpt lat="36.87506" lon="-5.17137">
        <ele>559</ele>
      </trkpt>
      <trkpt lat="36.87495" lon="-5.17142">
        <ele>564</ele>
      </trkpt>
      <trkpt lat="36.87484" lon="-5.17148">
        <ele>556.5</ele>
      </trkpt>
      <trkpt lat="36.87473" lon="-5.17154">
        <ele>554.7</ele>
      </trkpt>
      <trkpt lat="36.87462" lon="-5.17159">
        <ele>555.3</ele>
      </trkpt>
      <trkpt lat="36.87451" lon="-5.17165">
        <ele>550.1</ele>
      </trkpt>
      <trkpt lat="36.8744" lon="-5.17171">
        <ele>545</ele>
      </trkpt>
      <trkpt lat="36.87429" lon="-5.17176">
        <ele>534</ele>
      </trkpt>
      <trkpt lat="36.87419" lon="-5.17181">
        <ele>532</ele>
      </trkpt>
      <trkpt lat="36.87409" lon="-5.17186">
        <ele>531</ele>
      </trkpt>
      <trkpt lat="36.87399" lon="-5.17191">
        <ele>530</ele>
      </trkpt>
      <trkpt lat="36.87389" lon="-5.17196">
        <ele>528</ele>
      </trkpt>
      <trkpt lat="36.87379" lon="-5.172">
        <ele>524</ele>
      </trkpt>
      <trkpt lat="36.87369" lon="-5.17205">
        <ele>523.5</ele>
      </trkpt>
      <trkpt lat="36.87359" lon="-5.1721">
        <ele>525.2</ele>
      </trkpt>
      <trkpt lat="36.87349" lon="-5.17215">
        <ele>525.1</ele>
      </trkpt>
      <trkpt lat="36.87338" lon="-5.17221">
        <ele>526</ele>
      </trkpt>
      <trkpt lat="36.87327" lon="-5.17227">
        <ele>527</ele>
      </trkpt>
      <trkpt lat="36.87315" lon="-5.17233">
        <ele>528</ele>
      </trkpt>
      <trkpt lat="36.87304" lon="-5.17239">
        <ele>530</ele>
      </trkpt>
      <trkpt lat="36.87292" lon="-5.17245">
        <ele>535</ele>
      </trkpt>
      <trkpt lat="36.8728" lon="-5.1725">
        <ele>534.5</ele>
      </trkpt>
      <trkpt lat="36.87268" lon="-5.17256">
        <ele>534</ele>
      </trkpt>
      <trkpt lat="36.87257" lon="-5.17261">
        <ele>523</ele>
      </trkpt>
      <trkpt lat="36.87245" lon="-5.17265">
        <ele>518</ele>
      </trkpt>
      <trkpt lat="36.87234" lon="-5.1727">
        <ele>521</ele>
      </trkpt>
      <trkpt lat="36.87222" lon="-5.17274">
        <ele>519</ele>
      </trkpt>
      <trkpt lat="36.8721" lon="-5.17279">
        <ele>517</ele>
      </trkpt>
      <trkpt lat="36.87197" lon="-5.17283">
        <ele>516</ele>
      </trkpt>
      <trkpt lat="36.87184" lon="-5.17288">
        <ele>515</ele>
      </trkpt>
      <trkpt lat="36.87172" lon="-5.17293">
        <ele>515</ele>
      </trkpt>
      <trkpt lat="36.87159" lon="-5.17297">
        <ele>514.5</ele>
      </trkpt>
      <trkpt lat="36.87146" lon="-5.17302">
        <ele>514</ele>
      </trkpt>
      <trkpt lat="36.87134" lon="-5.17307">
        <ele>503</ele>
      </trkpt>
      <trkpt lat="36.87121" lon="-5.17312">
        <ele>494</ele>
      </trkpt>
      <trkpt lat="36.87109" lon="-5.17317">
        <ele>496</ele>
      </trkpt>
      <trkpt lat="36.87097" lon="-5.17322">
        <ele>494</ele>
      </trkpt>
      <trkpt lat="36.87084" lon="-5.17327">
        <ele>492</ele>
      </trkpt>
      <trkpt lat="36.87071" lon="-5.17332">
        <ele>482</ele>
      </trkpt>
      <trkpt lat="36.87058" lon="-5.17336">
        <ele>480</ele>
      </trkpt>
      <trkpt lat="36.87045" lon="-5.1734">
        <ele>478</ele>
      </trkpt>
      <trkpt lat="36.87032" lon="-5.17343">
        <ele>464</ele>
      </trkpt>
      <trkpt lat="36.87019" lon="-5.17346">
        <ele>458</ele>
      </trkpt>
      <trkpt lat="36.87006" lon="-5.17349">
        <ele>456.5</ele>
      </trkpt>
      <trkpt lat="36.86993" lon="-5.17352">
        <ele>455</ele>
      </trkpt>
      <trkpt lat="36.86979" lon="-5.17355">
        <ele>450.5</ele>
      </trkpt>
      <trkpt lat="36.86966" lon="-5.17358">
        <ele>446</ele>
      </trkpt>
      <trkpt lat="36.86953" lon="-5.17361">
        <ele>444</ele>
      </trkpt>
      <trkpt lat="36.86941" lon="-5.17364">
        <ele>440</ele>
      </trkpt>
      <trkpt lat="36.86929" lon="-5.17368">
        <ele>439</ele>
      </trkpt>
      <trkpt lat="36.86916" lon="-5.17371">
        <ele>436</ele>
      </trkpt>
      <trkpt lat="36.86904" lon="-5.17374">
        <ele>427</ele>
      </trkpt>
      <trkpt lat="36.86892" lon="-5.17376">
        <ele>424</ele>
      </trkpt>
      <trkpt lat="36.8688" lon="-5.17379">
        <ele>424</ele>
      </trkpt>
      <trkpt lat="36.86868" lon="-5.17382">
        <ele>423</ele>
      </trkpt>
      <trkpt lat="36.86857" lon="-5.17385">
        <ele>423</ele>
      </trkpt>
      <trkpt lat="36.86845" lon="-5.17388">
        <ele>423</ele>
      </trkpt>
      <trkpt lat="36.86834" lon="-5.1739">
        <ele>423</ele>
      </trkpt>
      <trkpt lat="36.86823" lon="-5.17392">
        <ele>422</ele>
      </trkpt>
      <trkpt lat="36.86812" lon="-5.17393">
        <ele>421</ele>
      </trkpt>
      <trkpt lat="36.86802" lon="-5.17395">
        <ele>421</ele>
      </trkpt>
      <trkpt lat="36.86791" lon="-5.17397">
        <ele>421</ele>
      </trkpt>
      <trkpt lat="36.86781" lon="-5.17399">
        <ele>420.5</ele>
      </trkpt>
      <trkpt lat="36.8677" lon="-5.17401">
        <ele>422.2</ele>
      </trkpt>
      <trkpt lat="36.8676" lon="-5.17403">
        <ele>424</ele>
      </trkpt>
      <trkpt lat="36.86749" lon="-5.17405">
        <ele>429</ele>
      </trkpt>
      <trkpt lat="36.86738" lon="-5.17407">
        <ele>433</ele>
      </trkpt>
      <trkpt lat="36.86727" lon="-5.17409">
        <ele>432</ele>
      </trkpt>
      <trkpt lat="36.86716" lon="-5.17412">
        <ele>434</ele>
      </trkpt>
      <trkpt lat="36.86705" lon="-5.17414">
        <ele>436</ele>
      </trkpt>
      <trkpt lat="36.86694" lon="-5.17417">
        <ele>447</ele>
      </trkpt>
      <trkpt lat="36.86683" lon="-5.17419">
        <ele>458</ele>
      </trkpt>
      <trkpt lat="36.86672" lon="-5.17422">
        <ele>460</ele>
      </trkpt>
      <trkpt lat="36.86661" lon="-5.17425">
        <ele>454.5</ele>
      </trkpt>
      <trkpt lat="36.86651" lon="-5.17428">
        <ele>449</ele>
      </trkpt>
      <trkpt lat="36.86641" lon="-5.17431">
        <ele>454</ele>
      </trkpt>
      <trkpt lat="36.86632" lon="-5.17433">
        <ele>459</ele>
      </trkpt>
      <trkpt lat="36.86615" lon="-5.17438">
        <ele>465</ele>
      </trkpt>
      <trkpt lat="36.86602" lon="-5.17444">
        <ele>469</ele>
      </trkpt>
      <trkpt lat="36.86588" lon="-5.17449">
        <ele>475</ele>
      </trkpt>
      <trkpt lat="36.86574" lon="-5.17453">
        <ele>481</ele>
      </trkpt>
      <trkpt lat="36.86557" lon="-5.17458">
        <ele>492</ele>
      </trkpt>
      <trkpt lat="36.86548" lon="-5.17462">
        <ele>496</ele>
      </trkpt>
      <trkpt lat="36.86538" lon="-5.17466">
        <ele>502</ele>
      </trkpt>
      <trkpt lat="36.86528" lon="-5.17469">
        <ele>508</ele>
      </trkpt>
      <trkpt lat="36.86519" lon="-5.17473">
        <ele>509</ele>
      </trkpt>
      <trkpt lat="36.86509" lon="-5.17476">
        <ele>510</ele>
      </trkpt>
      <trkpt lat="36.865" lon="-5.1748">
        <ele>513</ele>
      </trkpt>
      <trkpt lat="36.86492" lon="-5.17483">
        <ele>516</ele>
      </trkpt>
      <trkpt lat="36.86477" lon="-5.17489">
        <ele>522</ele>
      </trkpt>
      <trkpt lat="36.86464" lon="-5.17493">
        <ele>528</ele>
      </trkpt>
      <trkpt lat="36.86455" lon="-5.17497">
        <ele>528</ele>
      </trkpt>
      <trkpt lat="36.86443" lon="-5.175">
        <ele>525</ele>
      </trkpt>
      <trkpt lat="36.86431" lon="-5.17505">
        <ele>522</ele>
      </trkpt>
      <trkpt lat="36.86424" lon="-5.17513">
        <ele>523.5</ele>
      </trkpt>
      <trkpt lat="36.86417" lon="-5.17508">
        <ele>523.2</ele>
      </trkpt>
      <trkpt lat="36.86405" lon="-5.17509">
        <ele>530.1</ele>
      </trkpt>
      <trkpt lat="36.864" lon="-5.17519">
        <ele>537</ele>
      </trkpt>
      <trkpt lat="36.86396" lon="-5.1753">
        <ele>537</ele>
      </trkpt>
      <trkpt lat="36.86391" lon="-5.17542">
        <ele>534</ele>
      </trkpt>
      <trkpt lat="36.86388" lon="-5.17554">
        <ele>531</ele>
      </trkpt>
      <trkpt lat="36.86385" lon="-5.17567">
        <ele>525</ele>
      </trkpt>
      <trkpt lat="36.86383" lon="-5.17578">
        <ele>524</ele>
      </trkpt>
      <trkpt lat="36.86376" lon="-5.17587">
        <ele>523</ele>
      </trkpt>
      <trkpt lat="36.86368" lon="-5.17596">
        <ele>523</ele>
      </trkpt>
      <trkpt lat="36.86361" lon="-5.17607">
        <ele>523</ele>
      </trkpt>
      <trkpt lat="36.86358" lon="-5.17622">
        <ele>543</ele>
      </trkpt>
      <trkpt lat="36.86353" lon="-5.17633">
        <ele>548</ele>
      </trkpt>
      <trkpt lat="36.86344" lon="-5.17637">
        <ele>556</ele>
      </trkpt>
      <trkpt lat="36.86339" lon="-5.17648">
        <ele>561</ele>
      </trkpt>
      <trkpt lat="36.86332" lon="-5.17657">
        <ele>567</ele>
      </trkpt>
      <trkpt lat="36.86325" lon="-5.17664">
        <ele>572</ele>
      </trkpt>
      <trkpt lat="36.86314" lon="-5.17673">
        <ele>575</ele>
      </trkpt>
      <trkpt lat="36.86306" lon="-5.17687">
        <ele>583</ele>
      </trkpt>
      <trkpt lat="36.86299" lon="-5.17712">
        <ele>587</ele>
      </trkpt>
      <trkpt lat="36.86295" lon="-5.17726">
        <ele>596</ele>
      </trkpt>
      <trkpt lat="36.8629" lon="-5.17735">
        <ele>597</ele>
      </trkpt>
      <trkpt lat="36.86288" lon="-5.1775">
        <ele>599</ele>
      </trkpt>
      <trkpt lat="36.86288" lon="-5.17762">
        <ele>602</ele>
      </trkpt>
      <trkpt lat="36.86288" lon="-5.17775">
        <ele>604</ele>
      </trkpt>
      <trkpt lat="36.86289" lon="-5.17788">
        <ele>611</ele>
      </trkpt>
      <trkpt lat="36.86287" lon="-5.17801">
        <ele>621</ele>
      </trkpt>
      <trkpt lat="36.86287" lon="-5.17813">
        <ele>621</ele>
      </trkpt>
      <trkpt lat="36.86286" lon="-5.17825">
        <ele>621</ele>
      </trkpt>
      <trkpt lat="36.86285" lon="-5.17837">
        <ele>619</ele>
      </trkpt>
      <trkpt lat="36.86283" lon="-5.17843">
        <ele>617</ele>
      </trkpt>
      <trkpt lat="36.86288" lon="-5.17853">
        <ele>618</ele>
      </trkpt>
      <trkpt lat="36.86294" lon="-5.17862">
        <ele>619</ele>
      </trkpt>
      <trkpt lat="36.86306" lon="-5.17857">
        <ele>621</ele>
      </trkpt>
      <trkpt lat="36.86318" lon="-5.17855">
        <ele>621</ele>
      </trkpt>
      <trkpt lat="36.86335" lon="-5.17854">
        <ele>622.5</ele>
      </trkpt>
      <trkpt lat="36.86356" lon="-5.17862">
        <ele>624</ele>
      </trkpt>
      <trkpt lat="36.86372" lon="-5.17865">
        <ele>630</ele>
      </trkpt>
      <trkpt lat="36.86346" lon="-5.17876">
        <ele>630</ele>
      </trkpt>
      <trkpt lat="36.86329" lon="-5.17876">
        <ele>633</ele>
      </trkpt>
      <trkpt lat="36.86351" lon="-5.1788">
        <ele>641</ele>
      </trkpt>
      <trkpt lat="36.86365" lon="-5.17883">
        <ele>646</ele>
      </trkpt>
      <trkpt lat="36.86379" lon="-5.17884">
        <ele>646</ele>
      </trkpt>
      <trkpt lat="36.86393" lon="-5.17886">
        <ele>646</ele>
      </trkpt>
      <trkpt lat="36.86415" lon="-5.1789">
        <ele>648</ele>
      </trkpt>
      <trkpt lat="36.86402" lon="-5.17894">
        <ele>650</ele>
      </trkpt>
      <trkpt lat="36.86373" lon="-5.17902">
        <ele>654</ele>
      </trkpt>
      <trkpt lat="36.86359" lon="-5.17903">
        <ele>653</ele>
      </trkpt>
      <trkpt lat="36.86377" lon="-5.17908">
        <ele>654</ele>
      </trkpt>
      <trkpt lat="36.86395" lon="-5.17914">
        <ele>655</ele>
      </trkpt>
      <trkpt lat="36.86407" lon="-5.17917">
        <ele>663</ele>
      </trkpt>
      <trkpt lat="36.86421" lon="-5.17917">
        <ele>665</ele>
      </trkpt>
      <trkpt lat="36.86443" lon="-5.17927">
        <ele>672</ele>
      </trkpt>
      <trkpt lat="36.86461" lon="-5.17932">
        <ele>672</ele>
      </trkpt>
      <trkpt lat="36.86475" lon="-5.17936">
        <ele>675</ele>
      </trkpt>
      <trkpt lat="36.86491" lon="-5.17945">
        <ele>678</ele>
      </trkpt>
      <trkpt lat="36.86521" lon="-5.17952">
        <ele>684</ele>
      </trkpt>
      <trkpt lat="36.86528" lon="-5.17958">
        <ele>681</ele>
      </trkpt>
      <trkpt lat="36.86539" lon="-5.17966">
        <ele>682.5</ele>
      </trkpt>
      <trkpt lat="36.86547" lon="-5.17973">
        <ele>684</ele>
      </trkpt>
      <trkpt lat="36.86559" lon="-5.17981">
        <ele>689</ele>
      </trkpt>
      <trkpt lat="36.86545" lon="-5.17979">
        <ele>684</ele>
      </trkpt>
      <trkpt lat="36.86533" lon="-5.17971">
        <ele>679</ele>
      </trkpt>
      <trkpt lat="36.86519" lon="-5.17963">
        <ele>674</ele>
      </trkpt>
      <trkpt lat="36.86494" lon="-5.17966">
        <ele>670</ele>
      </trkpt>
      <trkpt lat="36.86486" lon="-5.17959">
        <ele>664</ele>
      </trkpt>
      <trkpt lat="36.8647" lon="-5.17962">
        <ele>656</ele>
      </trkpt>
      <trkpt lat="36.86453" lon="-5.1796">
        <ele>649</ele>
      </trkpt>
      <trkpt lat="36.86436" lon="-5.17953">
        <ele>637</ele>
      </trkpt>
      <trkpt lat="36.8642" lon="-5.17948">
        <ele>631</ele>
      </trkpt>
      <trkpt lat="36.86406" lon="-5.17945">
        <ele>622</ele>
      </trkpt>
      <trkpt lat="36.86391" lon="-5.17941">
        <ele>617</ele>
      </trkpt>
      <trkpt lat="36.86375" lon="-5.17933">
        <ele>608</ele>
      </trkpt>
      <trkpt lat="36.86356" lon="-5.17923">
        <ele>602</ele>
      </trkpt>
      <trkpt lat="36.86345" lon="-5.17918">
        <ele>597</ele>
      </trkpt>
      <trkpt lat="36.8633" lon="-5.17915">
        <ele>592</ele>
      </trkpt>
      <trkpt lat="36.8632" lon="-5.17922">
        <ele>587</ele>
      </trkpt>
      <trkpt lat="36.86308" lon="-5.17941">
        <ele>578</ele>
      </trkpt>
      <trkpt lat="36.86297" lon="-5.17959">
        <ele>571</ele>
      </trkpt>
      <trkpt lat="36.86293" lon="-5.17976">
        <ele>567</ele>
      </trkpt>
      <trkpt lat="36.86288" lon="-5.17994">
        <ele>568</ele>
      </trkpt>
      <trkpt lat="36.86288" lon="-5.1801">
        <ele>569</ele>
      </trkpt>
      <trkpt lat="36.86289" lon="-5.18017">
        <ele>570</ele>
      </trkpt>
      <trkpt lat="36.86288" lon="-5.18022">
        <ele>577</ele>
      </trkpt>
      <trkpt lat="36.86285" lon="-5.18026">
        <ele>579</ele>
      </trkpt>
      <trkpt lat="36.86282" lon="-5.18027">
        <ele>578</ele>
      </trkpt>
      <trkpt lat="36.86271" lon="-5.18023">
        <ele>580</ele>
      </trkpt>
      <trkpt lat="36.86257" lon="-5.18013">
        <ele>582</ele>
      </trkpt>
      <trkpt lat="36.86249" lon="-5.18006">
        <ele>586</ele>
      </trkpt>
      <trkpt lat="36.86242" lon="-5.17996">
        <ele>586</ele>
      </trkpt>
      <trkpt lat="36.86239" lon="-5.17972">
        <ele>586.5</ele>
      </trkpt>
      <trkpt lat="36.86235" lon="-5.17961">
        <ele>587</ele>
      </trkpt>
      <trkpt lat="36.86233" lon="-5.17945">
        <ele>588</ele>
      </trkpt>
      <trkpt lat="36.8623" lon="-5.17932">
        <ele>591</ele>
      </trkpt>
      <trkpt lat="36.86228" lon="-5.17923">
        <ele>591</ele>
      </trkpt>
      <trkpt lat="36.86229" lon="-5.17909">
        <ele>593</ele>
      </trkpt>
      <trkpt lat="36.86232" lon="-5.17896">
        <ele>595</ele>
      </trkpt>
      <trkpt lat="36.8623" lon="-5.17859">
        <ele>597</ele>
      </trkpt>
      <trkpt lat="36.86223" lon="-5.17836">
        <ele>599</ele>
      </trkpt>
      <trkpt lat="36.86215" lon="-5.17824">
        <ele>603</ele>
      </trkpt>
      <trkpt lat="36.86202" lon="-5.17807">
        <ele>606</ele>
      </trkpt>
      <trkpt lat="36.86173" lon="-5.17779">
        <ele>607</ele>
      </trkpt>
      <trkpt lat="36.86168" lon="-5.17767">
        <ele>608</ele>
      </trkpt>
      <trkpt lat="36.86173" lon="-5.17754">
        <ele>609</ele>
      </trkpt>
      <trkpt lat="36.86185" lon="-5.17742">
        <ele>609</ele>
      </trkpt>
      <trkpt lat="36.86201" lon="-5.17726">
        <ele>613</ele>
      </trkpt>
      <trkpt lat="36.86211" lon="-5.17712">
        <ele>616</ele>
      </trkpt>
      <trkpt lat="36.86222" lon="-5.17697">
        <ele>617</ele>
      </trkpt>
      <trkpt lat="36.86232" lon="-5.17678">
        <ele>618</ele>
      </trkpt>
      <trkpt lat="36.8624" lon="-5.17655">
        <ele>620</ele>
      </trkpt>
      <trkpt lat="36.86249" lon="-5.17629">
        <ele>622</ele>
      </trkpt>
      <trkpt lat="36.86257" lon="-5.17607">
        <ele>625</ele>
      </trkpt>
      <trkpt lat="36.86263" lon="-5.17586">
        <ele>627</ele>
      </trkpt>
      <trkpt lat="36.86271" lon="-5.17569">
        <ele>632</ele>
      </trkpt>
      <trkpt lat="36.86272" lon="-5.17546">
        <ele>634</ele>
      </trkpt>
      <trkpt lat="36.86272" lon="-5.17525">
        <ele>635</ele>
      </trkpt>
      <trkpt lat="36.86266" lon="-5.17505">
        <ele>646</ele>
      </trkpt>
      <trkpt lat="36.86257" lon="-5.17481">
        <ele>647</ele>
      </trkpt>
      <trkpt lat="36.86244" lon="-5.17461">
        <ele>656</ele>
      </trkpt>
      <trkpt lat="36.86232" lon="-5.17439">
        <ele>653.5</ele>
      </trkpt>
      <trkpt lat="36.8621" lon="-5.17421">
        <ele>651</ele>
      </trkpt>
      <trkpt lat="36.8619" lon="-5.17404">
        <ele>644</ele>
      </trkpt>
      <trkpt lat="36.86173" lon="-5.1739">
        <ele>640</ele>
      </trkpt>
      <trkpt lat="36.86167" lon="-5.17378">
        <ele>638</ele>
      </trkpt>
      <trkpt lat="36.86167" lon="-5.17361">
        <ele>640.5</ele>
      </trkpt>
      <trkpt lat="36.86177" lon="-5.17347">
        <ele>643</ele>
      </trkpt>
      <trkpt lat="36.86195" lon="-5.17329">
        <ele>644</ele>
      </trkpt>
      <trkpt lat="36.86217" lon="-5.173">
        <ele>644.5</ele>
      </trkpt>
      <trkpt lat="36.86234" lon="-5.17277">
        <ele>643.2</ele>
      </trkpt>
      <trkpt lat="36.86245" lon="-5.17264">
        <ele>643.1</ele>
      </trkpt>
      <trkpt lat="36.8625" lon="-5.17256">
        <ele>643</ele>
      </trkpt>
      <trkpt lat="36.86245" lon="-5.17251">
        <ele>634</ele>
      </trkpt>
      <trkpt lat="36.86238" lon="-5.17253">
        <ele>631</ele>
      </trkpt>
      <trkpt lat="36.86226" lon="-5.17248">
        <ele>630</ele>
      </trkpt>
      <trkpt lat="36.86215" lon="-5.17242">
        <ele>626</ele>
      </trkpt>
      <trkpt lat="36.86209" lon="-5.17235">
        <ele>620</ele>
      </trkpt>
      <trkpt lat="36.86217" lon="-5.17222">
        <ele>611</ele>
      </trkpt>
      <trkpt lat="36.86229" lon="-5.17203">
        <ele>598</ele>
      </trkpt>
      <trkpt lat="36.86239" lon="-5.17187">
        <ele>597</ele>
      </trkpt>
      <trkpt lat="36.86249" lon="-5.17166">
        <ele>595</ele>
      </trkpt>
      <trkpt lat="36.8626" lon="-5.17149">
        <ele>593</ele>
      </trkpt>
      <trkpt lat="36.86264" lon="-5.17134">
        <ele>594</ele>
      </trkpt>
      <trkpt lat="36.86262" lon="-5.17116">
        <ele>595</ele>
      </trkpt>
      <trkpt lat="36.86251" lon="-5.17109">
        <ele>594.5</ele>
      </trkpt>
      <trkpt lat="36.86242" lon="-5.17108">
        <ele>594</ele>
      </trkpt>
      <trkpt lat="36.86233" lon="-5.17123">
        <ele>592</ele>
      </trkpt>
      <trkpt lat="36.86226" lon="-5.17134">
        <ele>587</ele>
      </trkpt>
      <trkpt lat="36.86222" lon="-5.17153">
        <ele>580</ele>
      </trkpt>
      <trkpt lat="36.86215" lon="-5.1717">
        <ele>580</ele>
      </trkpt>
      <trkpt lat="36.86207" lon="-5.17182">
        <ele>579.5</ele>
      </trkpt>
      <trkpt lat="36.86201" lon="-5.17191">
        <ele>579.7</ele>
      </trkpt>
      <trkpt lat="36.86196" lon="-5.17199">
        <ele>580</ele>
      </trkpt>
      <trkpt lat="36.8619" lon="-5.17207">
        <ele>583</ele>
      </trkpt>
      <trkpt lat="36.86183" lon="-5.17218">
        <ele>582</ele>
      </trkpt>
      <trkpt lat="36.86191" lon="-5.1723">
        <ele>581</ele>
      </trkpt>
      <trkpt lat="36.86201" lon="-5.17241">
        <ele>577</ele>
      </trkpt>
      <trkpt lat="36.86194" lon="-5.17256">
        <ele>574</ele>
      </trkpt>
      <trkpt lat="36.86182" lon="-5.17278">
        <ele>573</ele>
      </trkpt>
      <trkpt lat="36.86162" lon="-5.17302">
        <ele>572</ele>
      </trkpt>
      <trkpt lat="36.86151" lon="-5.17319">
        <ele>571.5</ele>
      </trkpt>
      <trkpt lat="36.86142" lon="-5.17322">
        <ele>571</ele>
      </trkpt>
      <trkpt lat="36.86127" lon="-5.1732">
        <ele>569</ele>
      </trkpt>
      <trkpt lat="36.86113" lon="-5.17314">
        <ele>561</ele>
      </trkpt>
      <trkpt lat="36.86099" lon="-5.17307">
        <ele>549</ele>
      </trkpt>
      <trkpt lat="36.86091" lon="-5.17296">
        <ele>539</ele>
      </trkpt>
      <trkpt lat="36.86086" lon="-5.17285">
        <ele>536.5</ele>
      </trkpt>
      <trkpt lat="36.8608" lon="-5.17275">
        <ele>534</ele>
      </trkpt>
      <trkpt lat="36.8607" lon="-5.17274">
        <ele>534</ele>
      </trkpt>
      <trkpt lat="36.86068" lon="-5.17282">
        <ele>534</ele>
      </trkpt>
      <trkpt lat="36.86073" lon="-5.173">
        <ele>532.5</ele>
      </trkpt>
      <trkpt lat="36.86081" lon="-5.17313">
        <ele>533.7</ele>
      </trkpt>
      <trkpt lat="36.86093" lon="-5.17331">
        <ele>531.3</ele>
      </trkpt>
      <trkpt lat="36.86102" lon="-5.17341">
        <ele>533.1</ele>
      </trkpt>
      <trkpt lat="36.86109" lon="-5.17358">
        <ele>533</ele>
      </trkpt>
      <trkpt lat="36.86108" lon="-5.17369">
        <ele>533</ele>
      </trkpt>
      <trkpt lat="36.86103" lon="-5.17378">
        <ele>531</ele>
      </trkpt>
      <trkpt lat="36.86091" lon="-5.17384">
        <ele>531</ele>
      </trkpt>
      <trkpt lat="36.86079" lon="-5.17383">
        <ele>521</ele>
      </trkpt>
      <trkpt lat="36.86065" lon="-5.17386">
        <ele>522</ele>
      </trkpt>
      <trkpt lat="36.86051" lon="-5.17393">
        <ele>523</ele>
      </trkpt>
      <trkpt lat="36.86037" lon="-5.17398">
        <ele>521</ele>
      </trkpt>
      <trkpt lat="36.86017" lon="-5.17403">
        <ele>519</ele>
      </trkpt>
      <trkpt lat="36.86002" lon="-5.17405">
        <ele>519</ele>
      </trkpt>
      <trkpt lat="36.85978" lon="-5.17413">
        <ele>516</ele>
      </trkpt>
      <trkpt lat="36.85953" lon="-5.17423">
        <ele>510</ele>
      </trkpt>
      <trkpt lat="36.85936" lon="-5.17435">
        <ele>506</ele>
      </trkpt>
      <trkpt lat="36.85916" lon="-5.17445">
        <ele>499</ele>
      </trkpt>
      <trkpt lat="36.85895" lon="-5.17457">
        <ele>496.5</ele>
      </trkpt>
      <trkpt lat="36.85872" lon="-5.17478">
        <ele>494</ele>
      </trkpt>
      <trkpt lat="36.85848" lon="-5.17501">
        <ele>494</ele>
      </trkpt>
      <trkpt lat="36.85826" lon="-5.17522">
        <ele>494</ele>
      </trkpt>
      <trkpt lat="36.85811" lon="-5.17535">
        <ele>493.5</ele>
      </trkpt>
      <trkpt lat="36.85786" lon="-5.17563">
        <ele>493.7</ele>
      </trkpt>
      <trkpt lat="36.85771" lon="-5.17581">
        <ele>494</ele>
      </trkpt>
      <trkpt lat="36.85757" lon="-5.17597">
        <ele>493.5</ele>
      </trkpt>
      <trkpt lat="36.85742" lon="-5.1761">
        <ele>494.7</ele>
      </trkpt>
      <trkpt lat="36.85726" lon="-5.17618">
        <ele>496</ele>
      </trkpt>
      <trkpt lat="36.85704" lon="-5.17622">
        <ele>497.5</ele>
      </trkpt>
      <trkpt lat="36.85672" lon="-5.17622">
        <ele>499</ele>
      </trkpt>
      <trkpt lat="36.85637" lon="-5.17626">
        <ele>509</ele>
      </trkpt>
      <trkpt lat="36.85606" lon="-5.17629">
        <ele>512</ele>
      </trkpt>
      <trkpt lat="36.85575" lon="-5.17631">
        <ele>515</ele>
      </trkpt>
      <trkpt lat="36.85536" lon="-5.1764">
        <ele>518</ele>
      </trkpt>
      <trkpt lat="36.85501" lon="-5.17647">
        <ele>521</ele>
      </trkpt>
      <trkpt lat="36.85469" lon="-5.1765">
        <ele>522.5</ele>
      </trkpt>
      <trkpt lat="36.85438" lon="-5.17651">
        <ele>524</ele>
      </trkpt>
      <trkpt lat="36.85407" lon="-5.17653">
        <ele>532</ele>
      </trkpt>
      <trkpt lat="36.8539" lon="-5.17655">
        <ele>542</ele>
      </trkpt>
      <trkpt lat="36.85368" lon="-5.17662">
        <ele>546</ele>
      </trkpt>
      <trkpt lat="36.85352" lon="-5.17669">
        <ele>548</ele>
      </trkpt>
      <trkpt lat="36.85335" lon="-5.17682">
        <ele>548</ele>
      </trkpt>
      <trkpt lat="36.85317" lon="-5.17702">
        <ele>549</ele>
      </trkpt>
      <trkpt lat="36.85305" lon="-5.17718">
        <ele>550</ele>
      </trkpt>
      <trkpt lat="36.85286" lon="-5.17744">
        <ele>548</ele>
      </trkpt>
      <trkpt lat="36.85265" lon="-5.17775">
        <ele>548.5</ele>
      </trkpt>
      <trkpt lat="36.85241" lon="-5.1781">
        <ele>549</ele>
      </trkpt>
      <trkpt lat="36.85227" lon="-5.17834">
        <ele>560</ele>
      </trkpt>
      <trkpt lat="36.85203" lon="-5.17876">
        <ele>560</ele>
      </trkpt>
      <trkpt lat="36.85188" lon="-5.17902">
        <ele>559.5</ele>
      </trkpt>
      <trkpt lat="36.85171" lon="-5.17921">
        <ele>559</ele>
      </trkpt>
      <trkpt lat="36.85154" lon="-5.17936">
        <ele>558</ele>
      </trkpt>
      <trkpt lat="36.85137" lon="-5.17946">
        <ele>558</ele>
      </trkpt>
      <trkpt lat="36.85121" lon="-5.17959">
        <ele>559</ele>
      </trkpt>
      <trkpt lat="36.85111" lon="-5.17969">
        <ele>559</ele>
      </trkpt>
      <trkpt lat="36.85106" lon="-5.17987">
        <ele>559</ele>
      </trkpt>
      <trkpt lat="36.85107" lon="-5.18006">
        <ele>560</ele>
      </trkpt>
      <trkpt lat="36.85106" lon="-5.18026">
        <ele>559</ele>
      </trkpt>
      <trkpt lat="36.85097" lon="-5.18039">
        <ele>560.5</ele>
      </trkpt>
      <trkpt lat="36.85083" lon="-5.18059">
        <ele>562</ele>
      </trkpt>
      <trkpt lat="36.85067" lon="-5.1809">
        <ele>566</ele>
      </trkpt>
      <trkpt lat="36.8506" lon="-5.18108">
        <ele>566.5</ele>
      </trkpt>
      <trkpt lat="36.85059" lon="-5.18124">
        <ele>567</ele>
      </trkpt>
      <trkpt lat="36.85056" lon="-5.18151">
        <ele>574</ele>
      </trkpt>
      <trkpt lat="36.85056" lon="-5.18172">
        <ele>574</ele>
      </trkpt>
      <trkpt lat="36.85051" lon="-5.18198">
        <ele>571</ele>
      </trkpt>
      <trkpt lat="36.85038" lon="-5.18231">
        <ele>572</ele>
      </trkpt>
      <trkpt lat="36.85028" lon="-5.18253">
        <ele>569.5</ele>
      </trkpt>
      <trkpt lat="36.85002" lon="-5.18292">
        <ele>567</ele>
      </trkpt>
      <trkpt lat="36.84982" lon="-5.18323">
        <ele>562</ele>
      </trkpt>
      <trkpt lat="36.84956" lon="-5.1836">
        <ele>551</ele>
      </trkpt>
      <trkpt lat="36.84935" lon="-5.18385">
        <ele>549</ele>
      </trkpt>
      <trkpt lat="36.8492" lon="-5.18405">
        <ele>549</ele>
      </trkpt>
      <trkpt lat="36.84907" lon="-5.18434">
        <ele>549</ele>
      </trkpt>
      <trkpt lat="36.84896" lon="-5.1846">
        <ele>548</ele>
      </trkpt>
      <trkpt lat="36.8488" lon="-5.1849">
        <ele>547</ele>
      </trkpt>
      <trkpt lat="36.84863" lon="-5.18524">
        <ele>544</ele>
      </trkpt>
      <trkpt lat="36.84846" lon="-5.18555">
        <ele>537</ele>
      </trkpt>
      <trkpt lat="36.84822" lon="-5.186">
        <ele>536</ele>
      </trkpt>
      <trkpt lat="36.84805" lon="-5.1863">
        <ele>536</ele>
      </trkpt>
      <trkpt lat="36.8479" lon="-5.18658">
        <ele>535</ele>
      </trkpt>
      <trkpt lat="36.84774" lon="-5.18688">
        <ele>535</ele>
      </trkpt>
      <trkpt lat="36.84751" lon="-5.18723">
        <ele>535</ele>
      </trkpt>
      <trkpt lat="36.8473" lon="-5.18769">
        <ele>535</ele>
      </trkpt>
      <trkpt lat="36.84704" lon="-5.18808">
        <ele>532</ele>
      </trkpt>
      <trkpt lat="36.84683" lon="-5.18841">
        <ele>532.5</ele>
      </trkpt>
      <trkpt lat="36.8467" lon="-5.18863">
        <ele>533</ele>
      </trkpt>
      <trkpt lat="36.84657" lon="-5.18882">
        <ele>534</ele>
      </trkpt>
      <trkpt lat="36.84643" lon="-5.189">
        <ele>536</ele>
      </trkpt>
      <trkpt lat="36.8463" lon="-5.18913">
        <ele>536</ele>
      </trkpt>
      <trkpt lat="36.84612" lon="-5.18931">
        <ele>536</ele>
      </trkpt>
      <trkpt lat="36.8459" lon="-5.18954">
        <ele>540</ele>
      </trkpt>
      <trkpt lat="36.84566" lon="-5.18981">
        <ele>541</ele>
      </trkpt>
      <trkpt lat="36.84545" lon="-5.1901">
        <ele>542</ele>
      </trkpt>
      <trkpt lat="36.84526" lon="-5.19036">
        <ele>545</ele>
      </trkpt>
      <trkpt lat="36.84498" lon="-5.19071">
        <ele>543</ele>
      </trkpt>
      <trkpt lat="36.8447" lon="-5.19109">
        <ele>544.5</ele>
      </trkpt>
      <trkpt lat="36.84447" lon="-5.19142">
        <ele>544.2</ele>
      </trkpt>
      <trkpt lat="36.84426" lon="-5.19171">
        <ele>544</ele>
      </trkpt>
      <trkpt lat="36.84411" lon="-5.19192">
        <ele>535</ele>
      </trkpt>
      <trkpt lat="36.84397" lon="-5.19212">
        <ele>534.5</ele>
      </trkpt>
      <trkpt lat="36.84378" lon="-5.19232">
        <ele>534.7</ele>
      </trkpt>
      <trkpt lat="36.84359" lon="-5.1925">
        <ele>535</ele>
      </trkpt>
      <trkpt lat="36.84341" lon="-5.19267">
        <ele>535</ele>
      </trkpt>
      <trkpt lat="36.84317" lon="-5.19285">
        <ele>535</ele>
      </trkpt>
      <trkpt lat="36.84299" lon="-5.19298">
        <ele>530</ele>
      </trkpt>
      <trkpt lat="36.84279" lon="-5.1931">
        <ele>529.5</ele>
      </trkpt>
      <trkpt lat="36.84262" lon="-5.19315">
        <ele>529</ele>
      </trkpt>
      <trkpt lat="36.84241" lon="-5.19314">
        <ele>528.5</ele>
      </trkpt>
      <trkpt lat="36.84221" lon="-5.19313">
        <ele>528.7</ele>
      </trkpt>
      <trkpt lat="36.84202" lon="-5.1932">
        <ele>527.8</ele>
      </trkpt>
      <trkpt lat="36.84195" lon="-5.19325">
        <ele>527</ele>
      </trkpt>
      <trkpt lat="36.84198" lon="-5.19343">
        <ele>533</ele>
      </trkpt>
      <trkpt lat="36.84213" lon="-5.1936">
        <ele>533</ele>
      </trkpt>
      <trkpt lat="36.84233" lon="-5.1938">
        <ele>533</ele>
      </trkpt>
      <trkpt lat="36.84259" lon="-5.19408">
        <ele>533</ele>
      </trkpt>
      <trkpt lat="36.84281" lon="-5.19434">
        <ele>541</ele>
      </trkpt>
      <trkpt lat="36.843" lon="-5.19455">
        <ele>545</ele>
      </trkpt>
      <trkpt lat="36.84315" lon="-5.19478">
        <ele>545</ele>
      </trkpt>
      <trkpt lat="36.84318" lon="-5.19498">
        <ele>542</ele>
      </trkpt>
      <trkpt lat="36.84317" lon="-5.19523">
        <ele>542</ele>
      </trkpt>
      <trkpt lat="36.84315" lon="-5.19557">
        <ele>540</ele>
      </trkpt>
      <trkpt lat="36.84314" lon="-5.19591">
        <ele>540</ele>
      </trkpt>
      <trkpt lat="36.84314" lon="-5.19624">
        <ele>548</ele>
      </trkpt>
      <trkpt lat="36.84314" lon="-5.19659">
        <ele>550</ele>
      </trkpt>
      <trkpt lat="36.84312" lon="-5.19718">
        <ele>558</ele>
      </trkpt>
      <trkpt lat="36.84307" lon="-5.19747">
        <ele>564</ele>
      </trkpt>
      <trkpt lat="36.84294" lon="-5.19775">
        <ele>569</ele>
      </trkpt>
      <trkpt lat="36.84278" lon="-5.19798">
        <ele>577</ele>
      </trkpt>
      <trkpt lat="36.84255" lon="-5.19827">
        <ele>588</ele>
      </trkpt>
      <trkpt lat="36.84242" lon="-5.19828">
        <ele>588</ele>
      </trkpt>
      <trkpt lat="36.84228" lon="-5.19822">
        <ele>597</ele>
      </trkpt>
      <trkpt lat="36.84215" lon="-5.19829">
        <ele>597</ele>
      </trkpt>
      <trkpt lat="36.84202" lon="-5.1984">
        <ele>601</ele>
      </trkpt>
      <trkpt lat="36.84179" lon="-5.1984">
        <ele>606</ele>
      </trkpt>
      <trkpt lat="36.84162" lon="-5.19841">
        <ele>610</ele>
      </trkpt>
      <trkpt lat="36.84143" lon="-5.19843">
        <ele>617</ele>
      </trkpt>
      <trkpt lat="36.84126" lon="-5.19847">
        <ele>622</ele>
      </trkpt>
      <trkpt lat="36.8411" lon="-5.19855">
        <ele>628</ele>
      </trkpt>
      <trkpt lat="36.84099" lon="-5.19866">
        <ele>638</ele>
      </trkpt>
      <trkpt lat="36.84091" lon="-5.19889">
        <ele>639</ele>
      </trkpt>
      <trkpt lat="36.84086" lon="-5.19906">
        <ele>640</ele>
      </trkpt>
      <trkpt lat="36.84076" lon="-5.19919">
        <ele>643</ele>
      </trkpt>
      <trkpt lat="36.84061" lon="-5.19945">
        <ele>651</ele>
      </trkpt>
      <trkpt lat="36.84052" lon="-5.19964">
        <ele>657</ele>
      </trkpt>
      <trkpt lat="36.84041" lon="-5.19987">
        <ele>665</ele>
      </trkpt>
      <trkpt lat="36.8403" lon="-5.20011">
        <ele>666</ele>
      </trkpt>
      <trkpt lat="36.84021" lon="-5.2003">
        <ele>670</ele>
      </trkpt>
      <trkpt lat="36.84013" lon="-5.20047">
        <ele>675</ele>
      </trkpt>
      <trkpt lat="36.84003" lon="-5.20058">
        <ele>685</ele>
      </trkpt>
      <trkpt lat="36.83991" lon="-5.20066">
        <ele>689</ele>
      </trkpt>
      <trkpt lat="36.83974" lon="-5.20066">
        <ele>693</ele>
      </trkpt>
      <trkpt lat="36.83958" lon="-5.20067">
        <ele>703</ele>
      </trkpt>
      <trkpt lat="36.83944" lon="-5.20074">
        <ele>704</ele>
      </trkpt>
      <trkpt lat="36.83935" lon="-5.20084">
        <ele>704</ele>
      </trkpt>
      <trkpt lat="36.83926" lon="-5.20101">
        <ele>704</ele>
      </trkpt>
      <trkpt lat="36.83916" lon="-5.2012">
        <ele>702.5</ele>
      </trkpt>
      <trkpt lat="36.83905" lon="-5.20137">
        <ele>704.7</ele>
      </trkpt>
      <trkpt lat="36.83897" lon="-5.20151">
        <ele>707</ele>
      </trkpt>
      <trkpt lat="36.83885" lon="-5.20159">
        <ele>709</ele>
      </trkpt>
      <trkpt lat="36.83874" lon="-5.20169">
        <ele>709</ele>
      </trkpt>
      <trkpt lat="36.83859" lon="-5.20173">
        <ele>709.5</ele>
      </trkpt>
      <trkpt lat="36.83843" lon="-5.20171">
        <ele>710</ele>
      </trkpt>
      <trkpt lat="36.83829" lon="-5.20162">
        <ele>712</ele>
      </trkpt>
      <trkpt lat="36.83814" lon="-5.20149">
        <ele>727</ele>
      </trkpt>
      <trkpt lat="36.83799" lon="-5.20134">
        <ele>727</ele>
      </trkpt>
      <trkpt lat="36.83781" lon="-5.20115">
        <ele>726.5</ele>
      </trkpt>
      <trkpt lat="36.83762" lon="-5.201"/>
      <trkpt lat="36.83749" lon="-5.20091"/>
      <trkpt lat="36.83749" lon="-5.20077"/>
      <trkpt lat="36.8375" lon="-5.20062"/>
      <trkpt lat="36.83741" lon="-5.2005"/>
      <trkpt lat="36.83727" lon="-5.20045"/>
      <trkpt lat="36.83714" lon="-5.20051"/>
      <trkpt lat="36.83701" lon="-5.20055"/>
      <trkpt lat="36.83692" lon="-5.20063"/>
      <trkpt lat="36.8368" lon="-5.20072"/>
      <trkpt lat="36.83671" lon="-5.20079"/>
      <trkpt lat="36.83656" lon="-5.20084"/>
      <trkpt lat="36.83646" lon="-5.20093"/>
      <trkpt lat="36.83638" lon="-5.20108"/>
      <trkpt lat="36.8363" lon="-5.20118"/>
      <trkpt lat="36.83624" lon="-5.20129"/>
      <trkpt lat="36.83621" lon="-5.20142"/>
      <trkpt lat="36.83617" lon="-5.20156"/>
      <trkpt lat="36.83613" lon="-5.20174"/>
      <trkpt lat="36.83608" lon="-5.20185"/>
      <trkpt lat="36.83602" lon="-5.20194"/>
      <trkpt lat="36.83593" lon="-5.20201"/>
      <trkpt lat="36.83581" lon="-5.20208"/>
      <trkpt lat="36.83572" lon="-5.20206"/>
      <trkpt lat="36.83558" lon="-5.20198"/>
      <trkpt lat="36.83544" lon="-5.2019"/>
      <trkpt lat="36.83534" lon="-5.20187"/>
      <trkpt lat="36.8352" lon="-5.20179"/>
      <trkpt lat="36.83504" lon="-5.20175"/>
      <trkpt lat="36.8349" lon="-5.20164"/>
      <trkpt lat="36.83475" lon="-5.20149"/>
      <trkpt lat="36.83464" lon="-5.20145"/>
      <trkpt lat="36.83455" lon="-5.20136"/>
      <trkpt lat="36.83445" lon="-5.20132"/>
      <trkpt lat="36.83434" lon="-5.20142"/>
      <trkpt lat="36.83429" lon="-5.20157"/>
      <trkpt lat="36.83425" lon="-5.20177"/>
      <trkpt lat="36.8342" lon="-5.20196"/>
      <trkpt lat="36.83418" lon="-5.20218"/>
      <trkpt lat="36.83409" lon="-5.20237"/>
      <trkpt lat="36.83399" lon="-5.20247"/>
      <trkpt lat="36.83391" lon="-5.20257"/>
      <trkpt lat="36.83385" lon="-5.20275"/>
      <trkpt lat="36.83385" lon="-5.20287"/>
      <trkpt lat="36.83386" lon="-5.20308"/>
      <trkpt lat="36.83385" lon="-5.20324"/>
      <trkpt lat="36.83384" lon="-5.20338"/>
      <trkpt lat="36.83383" lon="-5.20348"/>
      <trkpt lat="36.83387" lon="-5.20366"/>
      <trkpt lat="36.83387" lon="-5.20385"/>
      <trkpt lat="36.83384" lon="-5.20414"/>
      <trkpt lat="36.83372" lon="-5.2043"/>
      <trkpt lat="36.83355" lon="-5.20431"/>
      <trkpt lat="36.83342" lon="-5.20429"/>
      <trkpt lat="36.83325" lon="-5.20418"/>
      <trkpt lat="36.83317" lon="-5.2041"/>
      <trkpt lat="36.83301" lon="-5.20385"/>
      <trkpt lat="36.83282" lon="-5.20356"/>
      <trkpt lat="36.83267" lon="-5.20333"/>
      <trkpt lat="36.83249" lon="-5.20314"/>
      <trkpt lat="36.83219" lon="-5.20298"/>
      <trkpt lat="36.8319" lon="-5.2028"/>
      <trkpt lat="36.83176" lon="-5.20276"/>
      <trkpt lat="36.83163" lon="-5.2027"/>
      <trkpt lat="36.8315" lon="-5.20251"/>
      <trkpt lat="36.8313" lon="-5.20248"/>
      <trkpt lat="36.83107" lon="-5.20251"/>
      <trkpt lat="36.83087" lon="-5.20257"/>
      <trkpt lat="36.83056" lon="-5.20268"/>
      <trkpt lat="36.83024" lon="-5.20271"/>
      <trkpt lat="36.82997" lon="-5.20267"/>
      <trkpt lat="36.8297" lon="-5.20264"/>
      <trkpt lat="36.82948" lon="-5.2026"/>
      <trkpt lat="36.82931" lon="-5.20254"/>
      <trkpt lat="36.82916" lon="-5.20234"/>
      <trkpt lat="36.82903" lon="-5.2022"/>
      <trkpt lat="36.8289" lon="-5.20216"/>
      <trkpt lat="36.82874" lon="-5.20217"/>
      <trkpt lat="36.82861" lon="-5.20232"/>
      <trkpt lat="36.82844" lon="-5.20257"/>
      <trkpt lat="36.82834" lon="-5.20272"/>
      <trkpt lat="36.82825" lon="-5.20278"/>
      <trkpt lat="36.82813" lon="-5.20278"/>
      <trkpt lat="36.82799" lon="-5.2027"/>
      <trkpt lat="36.82786" lon="-5.20267"/>
      <trkpt lat="36.82773" lon="-5.20272"/>
      <trkpt lat="36.82758" lon="-5.20285"/>
      <trkpt lat="36.82753" lon="-5.20298"/>
      <trkpt lat="36.82755" lon="-5.20327"/>
      <trkpt lat="36.82755" lon="-5.20347"/>
      <trkpt lat="36.82758" lon="-5.20365"/>
      <trkpt lat="36.82759" lon="-5.20386"/>
      <trkpt lat="36.82759" lon="-5.20397"/>
      <trkpt lat="36.82755" lon="-5.20406"/>
      <trkpt lat="36.82742" lon="-5.20428"/>
      <trkpt lat="36.82735" lon="-5.20439"/>
      <trkpt lat="36.8273" lon="-5.20454"/>
      <trkpt lat="36.82719" lon="-5.20474"/>
      <trkpt lat="36.82712" lon="-5.20477"/>
      <trkpt lat="36.827" lon="-5.20474"/>
      <trkpt lat="36.8269" lon="-5.2047"/>
      <trkpt lat="36.82666" lon="-5.20461"/>
      <trkpt lat="36.82644" lon="-5.20453"/>
      <trkpt lat="36.82614" lon="-5.20431"/>
      <trkpt lat="36.82583" lon="-5.2041"/>
      <trkpt lat="36.82558" lon="-5.20389"/>
      <trkpt lat="36.82543" lon="-5.20368"/>
      <trkpt lat="36.82527" lon="-5.2034"/>
      <trkpt lat="36.8251" lon="-5.20323"/>
      <trkpt lat="36.82488" lon="-5.20293"/>
      <trkpt lat="36.82455" lon="-5.20258"/>
      <trkpt lat="36.82433" lon="-5.20231"/>
      <trkpt lat="36.8241" lon="-5.202"/>
      <trkpt lat="36.82384" lon="-5.20178"/>
      <trkpt lat="36.82354" lon="-5.20151"/>
      <trkpt lat="36.82329" lon="-5.20126"/>
      <trkpt lat="36.82304" lon="-5.20101"/>
      <trkpt lat="36.82291" lon="-5.2008"/>
      <trkpt lat="36.82285" lon="-5.20048"/>
      <trkpt lat="36.82284" lon="-5.20023"/>
      <trkpt lat="36.82282" lon="-5.19986"/>
      <trkpt lat="36.82277" lon="-5.19949"/>
      <trkpt lat="36.82269" lon="-5.19912"/>
      <trkpt lat="36.82269" lon="-5.19889"/>
      <trkpt lat="36.82261" lon="-5.19885"/>
      <trkpt lat="36.82239" lon="-5.19899"/>
      <trkpt lat="36.82214" lon="-5.19912"/>
      <trkpt lat="36.82191" lon="-5.19913"/>
      <trkpt lat="36.82182" lon="-5.19908"/>
      <trkpt lat="36.82169" lon="-5.19898"/>
      <trkpt lat="36.82161" lon="-5.19886"/>
      <trkpt lat="36.8216" lon="-5.19872"/>
      <trkpt lat="36.82162" lon="-5.19852"/>
      <trkpt lat="36.82158" lon="-5.19872"/>
      <trkpt lat="36.82168" lon="-5.19834"/>
      <trkpt lat="36.8217" lon="-5.19817"/>
      <trkpt lat="36.82161" lon="-5.19801"/>
      <trkpt lat="36.82147" lon="-5.19798"/>
      <trkpt lat="36.82145" lon="-5.19782"/>
      <trkpt lat="36.82143" lon="-5.19763"/>
      <trkpt lat="36.82114" lon="-5.19741"/>
      <trkpt lat="36.82101" lon="-5.19728"/>
      <trkpt lat="36.82086" lon="-5.197"/>
      <trkpt lat="36.82062" lon="-5.19666"/>
      <trkpt lat="36.82044" lon="-5.19633"/>
      <trkpt lat="36.82029" lon="-5.196"/>
      <trkpt lat="36.82014" lon="-5.19569"/>
      <trkpt lat="36.82005" lon="-5.19525"/>
      <trkpt lat="36.81996" lon="-5.19488"/>
      <trkpt lat="36.81982" lon="-5.19441"/>
      <trkpt lat="36.8197" lon="-5.19389"/>
      <trkpt lat="36.81962" lon="-5.19357"/>
      <trkpt lat="36.81954" lon="-5.19323"/>
      <trkpt lat="36.81939" lon="-5.19265"/>
      <trkpt lat="36.81931" lon="-5.19228"/>
      <trkpt lat="36.81921" lon="-5.1918"/>
      <trkpt lat="36.81912" lon="-5.19146"/>
      <trkpt lat="36.81902" lon="-5.19107"/>
      <trkpt lat="36.8189" lon="-5.19043"/>
      <trkpt lat="36.81882" lon="-5.18989"/>
      <trkpt lat="36.81878" lon="-5.18968"/>
      <trkpt lat="36.81878" lon="-5.18942"/>
      <trkpt lat="36.81882" lon="-5.18908"/>
      <trkpt lat="36.81886" lon="-5.18873"/>
      <trkpt lat="36.81884" lon="-5.18816"/>
      <trkpt lat="36.81887" lon="-5.18772"/>
      <trkpt lat="36.81887" lon="-5.1873"/>
      <trkpt lat="36.81886" lon="-5.18699"/>
      <trkpt lat="36.81872" lon="-5.18659"/>
      <trkpt lat="36.81857" lon="-5.18613"/>
      <trkpt lat="36.81845" lon="-5.18576"/>
      <trkpt lat="36.81834" lon="-5.18529"/>
      <trkpt lat="36.81825" lon="-5.18505"/>
      <trkpt lat="36.81818" lon="-5.1849"/>
      <trkpt lat="36.81805" lon="-5.18465"/>
      <trkpt lat="36.81795" lon="-5.18445"/>
      <trkpt lat="36.81785" lon="-5.1843"/>
      <trkpt lat="36.81776" lon="-5.18413"/>
      <trkpt lat="36.81767" lon="-5.184"/>
      <trkpt lat="36.81743" lon="-5.1838"/>
      <trkpt lat="36.81719" lon="-5.18361"/>
      <trkpt lat="36.81693" lon="-5.18336"/>
      <trkpt lat="36.81673" lon="-5.1832"/>
      <trkpt lat="36.8166" lon="-5.18303"/>
      <trkpt lat="36.81645" lon="-5.18289"/>
      <trkpt lat="36.81629" lon="-5.18269"/>
      <trkpt lat="36.81616" lon="-5.18253"/>
      <trkpt lat="36.81603" lon="-5.18228"/>
      <trkpt lat="36.81593" lon="-5.18205"/>
      <trkpt lat="36.81582" lon="-5.18177"/>
      <trkpt lat="36.81576" lon="-5.18155"/>
      <trkpt lat="36.81567" lon="-5.18135"/>
      <trkpt lat="36.8156" lon="-5.18119"/>
      <trkpt lat="36.81558" lon="-5.18099"/>
      <trkpt lat="36.81548" lon="-5.18077"/>
      <trkpt lat="36.81539" lon="-5.18051"/>
      <trkpt lat="36.81528" lon="-5.1802"/>
      <trkpt lat="36.81514" lon="-5.17992"/>
      <trkpt lat="36.81491" lon="-5.17963"/>
      <trkpt lat="36.81467" lon="-5.17933"/>
      <trkpt lat="36.81443" lon="-5.17914"/>
      <trkpt lat="36.81415" lon="-5.17903"/>
      <trkpt lat="36.81392" lon="-5.17897"/>
      <trkpt lat="36.81381" lon="-5.17891"/>
      <trkpt lat="36.81367" lon="-5.17888"/>
      <trkpt lat="36.81353" lon="-5.17881"/>
      <trkpt lat="36.81327" lon="-5.17871"/>
      <trkpt lat="36.81307" lon="-5.17871"/>
      <trkpt lat="36.81279" lon="-5.1788"/>
      <trkpt lat="36.81253" lon="-5.17885"/>
      <trkpt lat="36.81222" lon="-5.17883"/>
      <trkpt lat="36.81193" lon="-5.17876"/>
      <trkpt lat="36.8117" lon="-5.17867"/>
      <trkpt lat="36.81145" lon="-5.17852"/>
      <trkpt lat="36.81113" lon="-5.17831"/>
      <trkpt lat="36.81097" lon="-5.17817"/>
      <trkpt lat="36.81069" lon="-5.17811"/>
      <trkpt lat="36.81044" lon="-5.178"/>
      <trkpt lat="36.81016" lon="-5.17778"/>
      <trkpt lat="36.80995" lon="-5.17759"/>
      <trkpt lat="36.80972" lon="-5.17745"/>
      <trkpt lat="36.80949" lon="-5.17727"/>
      <trkpt lat="36.80909" lon="-5.17695"/>
      <trkpt lat="36.80888" lon="-5.17674"/>
      <trkpt lat="36.80877" lon="-5.17655"/>
      <trkpt lat="36.80852" lon="-5.1763"/>
      <trkpt lat="36.80821" lon="-5.17607"/>
      <trkpt lat="36.80796" lon="-5.17596"/>
      <trkpt lat="36.80783" lon="-5.1759"/>
      <trkpt lat="36.80773" lon="-5.1758"/>
      <trkpt lat="36.80759" lon="-5.17566"/>
      <trkpt lat="36.80748" lon="-5.17565"/>
      <trkpt lat="36.80715" lon="-5.17565"/>
      <trkpt lat="36.80692" lon="-5.17565"/>
      <trkpt lat="36.80678" lon="-5.17563"/>
      <trkpt lat="36.80664" lon="-5.17558"/>
      <trkpt lat="36.80648" lon="-5.17555"/>
      <trkpt lat="36.80617" lon="-5.17557"/>
      <trkpt lat="36.806" lon="-5.17562"/>
      <trkpt lat="36.80584" lon="-5.1757"/>
      <trkpt lat="36.8056" lon="-5.17562"/>
      <trkpt lat="36.80534" lon="-5.17549"/>
      <trkpt lat="36.80517" lon="-5.17532"/>
      <trkpt lat="36.80493" lon="-5.1753"/>
      <trkpt lat="36.80492" lon="-5.1753"/>
      <trkpt lat="36.80485" lon="-5.17532"/>
      <trkpt lat="36.80474" lon="-5.17533"/>
      <trkpt lat="36.80461" lon="-5.17539"/>
      <trkpt lat="36.80454" lon="-5.17549"/>
      <trkpt lat="36.80448" lon="-5.17556"/>
      <trkpt lat="36.8045" lon="-5.17572"/>
      <trkpt lat="36.80459" lon="-5.1759"/>
      <trkpt lat="36.80471" lon="-5.17614"/>
      <trkpt lat="36.80477" lon="-5.17635"/>
      <trkpt lat="36.80482" lon="-5.17651"/>
      <trkpt lat="36.80481" lon="-5.17662"/>
      <trkpt lat="36.80479" lon="-5.17682"/>
      <trkpt lat="36.80476" lon="-5.17696"/>
      <trkpt lat="36.80467" lon="-5.17706"/>
      <trkpt lat="36.80451" lon="-5.17714"/>
      <trkpt lat="36.80428" lon="-5.17727"/>
      <trkpt lat="36.80412" lon="-5.17742"/>
      <trkpt lat="36.80397" lon="-5.17769"/>
      <trkpt lat="36.80384" lon="-5.178"/>
      <trkpt lat="36.8036" lon="-5.17837"/>
      <trkpt lat="36.80336" lon="-5.17869"/>
      <trkpt lat="36.80321" lon="-5.17892"/>
      <trkpt lat="36.80303" lon="-5.17912"/>
      <trkpt lat="36.8029" lon="-5.17926"/>
      <trkpt lat="36.80274" lon="-5.17944"/>
      <trkpt lat="36.80259" lon="-5.17974"/>
      <trkpt lat="36.80236" lon="-5.18004"/>
      <trkpt lat="36.80217" lon="-5.18027"/>
      <trkpt lat="36.80196" lon="-5.18062"/>
      <trkpt lat="36.80169" lon="-5.18101"/>
      <trkpt lat="36.80143" lon="-5.18136"/>
      <trkpt lat="36.80123" lon="-5.18169"/>
      <trkpt lat="36.80103" lon="-5.18194"/>
      <trkpt lat="36.80079" lon="-5.18218"/>
      <trkpt lat="36.80063" lon="-5.18242"/>
      <trkpt lat="36.80056" lon="-5.18266"/>
      <trkpt lat="36.80043" lon="-5.18271"/>
      <trkpt lat="36.80033" lon="-5.18275"/>
      <trkpt lat="36.80015" lon="-5.18272"/>
      <trkpt lat="36.79995" lon="-5.18259"/>
      <trkpt lat="36.79965" lon="-5.18237"/>
      <trkpt lat="36.79933" lon="-5.18214"/>
      <trkpt lat="36.79911" lon="-5.18198"/>
      <trkpt lat="36.79894" lon="-5.18175"/>
      <trkpt lat="36.79867" lon="-5.1815"/>
      <trkpt lat="36.79839" lon="-5.18131"/>
      <trkpt lat="36.79822" lon="-5.18115"/>
      <trkpt lat="36.79801" lon="-5.18102"/>
      <trkpt lat="36.79775" lon="-5.18089"/>
      <trkpt lat="36.7975" lon="-5.18072"/>
      <trkpt lat="36.79729" lon="-5.18062"/>
      <trkpt lat="36.79706" lon="-5.1805"/>
      <trkpt lat="36.79685" lon="-5.18041"/>
      <trkpt lat="36.79662" lon="-5.18028"/>
      <trkpt lat="36.7964" lon="-5.18006"/>
      <trkpt lat="36.79616" lon="-5.17978"/>
      <trkpt lat="36.79593" lon="-5.17954"/>
      <trkpt lat="36.79569" lon="-5.1793"/>
      <trkpt lat="36.79549" lon="-5.17911"/>
      <trkpt lat="36.79529" lon="-5.17891"/>
      <trkpt lat="36.7951" lon="-5.17874"/>
      <trkpt lat="36.79486" lon="-5.17863"/>
      <trkpt lat="36.79459" lon="-5.17842"/>
      <trkpt lat="36.79431" lon="-5.17821"/>
      <trkpt lat="36.79403" lon="-5.17798"/>
      <trkpt lat="36.79379" lon="-5.17777"/>
      <trkpt lat="36.79357" lon="-5.17764"/>
      <trkpt lat="36.7934" lon="-5.17752"/>
      <trkpt lat="36.79325" lon="-5.1773"/>
      <trkpt lat="36.79303" lon="-5.17703"/>
      <trkpt lat="36.79281" lon="-5.17678"/>
      <trkpt lat="36.79262" lon="-5.17667"/>
      <trkpt lat="36.79257" lon="-5.17649"/>
      <trkpt lat="36.79252" lon="-5.17628"/>
      <trkpt lat="36.79234" lon="-5.17613"/>
      <trkpt lat="36.79213" lon="-5.17592"/>
      <trkpt lat="36.79195" lon="-5.17572"/>
      <trkpt lat="36.79174" lon="-5.17559"/>
      <trkpt lat="36.7915" lon="-5.17552"/>
      <trkpt lat="36.79134" lon="-5.17545"/>
      <trkpt lat="36.79117" lon="-5.17525"/>
      <trkpt lat="36.79094" lon="-5.1751"/>
      <trkpt lat="36.79076" lon="-5.17502"/>
      <trkpt lat="36.79055" lon="-5.17491"/>
      <trkpt lat="36.79032" lon="-5.17489"/>
      <trkpt lat="36.7901" lon="-5.17487"/>
      <trkpt lat="36.78987" lon="-5.17487"/>
      <trkpt lat="36.78963" lon="-5.17497"/>
      <trkpt lat="36.78938" lon="-5.17504"/>
      <trkpt lat="36.78937" lon="-5.17521"/>
      <trkpt lat="36.78934" lon="-5.17539"/>
      <trkpt lat="36.78928" lon="-5.17544"/>
      <trkpt lat="36.78923" lon="-5.17541"/>
      <trkpt lat="36.7892" lon="-5.17528"/>
      <trkpt lat="36.78918" lon="-5.17516"/>
      <trkpt lat="36.78911" lon="-5.17507"/>
      <trkpt lat="36.78897" lon="-5.17489"/>
      <trkpt lat="36.78892" lon="-5.17477"/>
      <trkpt lat="36.78891" lon="-5.17467"/>
      <trkpt lat="36.78899" lon="-5.17448"/>
      <trkpt lat="36.789" lon="-5.17438"/>
      <trkpt lat="36.789" lon="-5.17427"/>
      <trkpt lat="36.78898" lon="-5.17403"/>
      <trkpt lat="36.78897" lon="-5.17386"/>
      <trkpt lat="36.78899" lon="-5.17371"/>
      <trkpt lat="36.78904" lon="-5.17355"/>
      <trkpt lat="36.7891" lon="-5.17346"/>
      <trkpt lat="36.78911" lon="-5.17338"/>
      <trkpt lat="36.78907" lon="-5.17334"/>
      <trkpt lat="36.78904" lon="-5.17333"/>
      <trkpt lat="36.78896" lon="-5.17323"/>
      <trkpt lat="36.78888" lon="-5.17308"/>
      <trkpt lat="36.78874" lon="-5.17297"/>
      <trkpt lat="36.78867" lon="-5.17292"/>
      <trkpt lat="36.78859" lon="-5.17291"/>
      <trkpt lat="36.78845" lon="-5.17284"/>
      <trkpt lat="36.78829" lon="-5.1728"/>
      <trkpt lat="36.78813" lon="-5.17273"/>
      <trkpt lat="36.78798" lon="-5.17269"/>
      <trkpt lat="36.78774" lon="-5.17269"/>
      <trkpt lat="36.78753" lon="-5.17269"/>
      <trkpt lat="36.78738" lon="-5.17274"/>
      <trkpt lat="36.78717" lon="-5.17275"/>
      <trkpt lat="36.78705" lon="-5.17264"/>
      <trkpt lat="36.78699" lon="-5.1725"/>
      <trkpt lat="36.78685" lon="-5.17237"/>
      <trkpt lat="36.78672" lon="-5.1723"/>
      <trkpt lat="36.78656" lon="-5.1722"/>
      <trkpt lat="36.78642" lon="-5.17216"/>
      <trkpt lat="36.78628" lon="-5.17215"/>
      <trkpt lat="36.78606" lon="-5.17203"/>
      <trkpt lat="36.78585" lon="-5.17189"/>
      <trkpt lat="36.7856" lon="-5.17174"/>
      <trkpt lat="36.78538" lon="-5.17165"/>
      <trkpt lat="36.78517" lon="-5.1715"/>
      <trkpt lat="36.78498" lon="-5.1713"/>
      <trkpt lat="36.78493" lon="-5.1712"/>
      <trkpt lat="36.78493" lon="-5.17107"/>
      <trkpt lat="36.78496" lon="-5.17097"/>
      <trkpt lat="36.78501" lon="-5.17079"/>
      <trkpt lat="36.78498" lon="-5.17063"/>
      <trkpt lat="36.78476" lon="-5.17031"/>
      <trkpt lat="36.78463" lon="-5.17008"/>
      <trkpt lat="36.78447" lon="-5.16986"/>
      <trkpt lat="36.78428" lon="-5.16957"/>
      <trkpt lat="36.7841" lon="-5.16935"/>
      <trkpt lat="36.78397" lon="-5.16909"/>
      <trkpt lat="36.78396" lon="-5.16889"/>
      <trkpt lat="36.78394" lon="-5.16866"/>
      <trkpt lat="36.78394" lon="-5.16842"/>
      <trkpt lat="36.78382" lon="-5.16831"/>
      <trkpt lat="36.78366" lon="-5.16811"/>
      <trkpt lat="36.78351" lon="-5.16789"/>
      <trkpt lat="36.78339" lon="-5.16772"/>
      <trkpt lat="36.78327" lon="-5.16763"/>
      <trkpt lat="36.78315" lon="-5.16756"/>
      <trkpt lat="36.78289" lon="-5.1674"/>
      <trkpt lat="36.78265" lon="-5.16723"/>
      <trkpt lat="36.78254" lon="-5.16712"/>
      <trkpt lat="36.78241" lon="-5.16729"/>
      <trkpt lat="36.78222" lon="-5.16748"/>
      <trkpt lat="36.78204" lon="-5.16764"/>
      <trkpt lat="36.78185" lon="-5.1678"/>
      <trkpt lat="36.78167" lon="-5.16795"/>
      <trkpt lat="36.78157" lon="-5.16809"/>
      <trkpt lat="36.78153" lon="-5.16823"/>
      <trkpt lat="36.78147" lon="-5.16856"/>
      <trkpt lat="36.7814" lon="-5.16899"/>
      <trkpt lat="36.78134" lon="-5.16934"/>
      <trkpt lat="36.78127" lon="-5.16956"/>
      <trkpt lat="36.78129" lon="-5.16979"/>
      <trkpt lat="36.78133" lon="-5.16996"/>
      <trkpt lat="36.78115" lon="-5.17022"/>
      <trkpt lat="36.78087" lon="-5.17059"/>
      <trkpt lat="36.78059" lon="-5.17096"/>
      <trkpt lat="36.78034" lon="-5.1713"/>
      <trkpt lat="36.78007" lon="-5.17178"/>
      <trkpt lat="36.77989" lon="-5.17206"/>
      <trkpt lat="36.77969" lon="-5.17236"/>
      <trkpt lat="36.77948" lon="-5.17274"/>
      <trkpt lat="36.77935" lon="-5.17298"/>
      <trkpt lat="36.77929" lon="-5.1731"/>
      <trkpt lat="36.77948" lon="-5.1732"/>
      <trkpt lat="36.77973" lon="-5.17329"/>
      <trkpt lat="36.77996" lon="-5.17339"/>
      <trkpt lat="36.78016" lon="-5.17349"/>
      <trkpt lat="36.78008" lon="-5.17369"/>
      <trkpt lat="36.77994" lon="-5.17399"/>
      <trkpt lat="36.7798" lon="-5.17434"/>
      <trkpt lat="36.7797" lon="-5.17467"/>
      <trkpt lat="36.77965" lon="-5.17489"/>
      <trkpt lat="36.77962" lon="-5.17498"/>
      <trkpt lat="36.77961" lon="-5.1751"/>
      <trkpt lat="36.77971" lon="-5.17516"/>
      <trkpt lat="36.77976" lon="-5.17524"/>
      <trkpt lat="36.77977" lon="-5.17536"/>
      <trkpt lat="36.77968" lon="-5.17543"/>
      <trkpt lat="36.77954" lon="-5.17549"/>
      <trkpt lat="36.7794" lon="-5.17573"/>
      <trkpt lat="36.7792" lon="-5.17594"/>
      <trkpt lat="36.77899" lon="-5.17618"/>
      <trkpt lat="36.77879" lon="-5.17641"/>
      <trkpt lat="36.77871" lon="-5.17654"/>
      <trkpt lat="36.77865" lon="-5.17673"/>
      <trkpt lat="36.77853" lon="-5.17698"/>
      <trkpt lat="36.77848" lon="-5.17714"/>
      <trkpt lat="36.77845" lon="-5.17726"/>
      <trkpt lat="36.77846" lon="-5.17734"/>
      <trkpt lat="36.77859" lon="-5.17744"/>
      <trkpt lat="36.77879" lon="-5.17754"/>
      <trkpt lat="36.77886" lon="-5.17764"/>
      <trkpt lat="36.77881" lon="-5.17777"/>
      <trkpt lat="36.77875" lon="-5.17792"/>
      <trkpt lat="36.77872" lon="-5.17804"/>
      <trkpt lat="36.77867" lon="-5.17835"/>
      <trkpt lat="36.77858" lon="-5.1786"/>
      <trkpt lat="36.77852" lon="-5.1788"/>
      <trkpt lat="36.77849" lon="-5.17907"/>
      <trkpt lat="36.77847" lon="-5.17922"/>
      <trkpt lat="36.77832" lon="-5.17953"/>
      <trkpt lat="36.77824" lon="-5.17977"/>
      <trkpt lat="36.77816" lon="-5.18008"/>
      <trkpt lat="36.7781" lon="-5.18034"/>
      <trkpt lat="36.77804" lon="-5.18066"/>
      <trkpt lat="36.77791" lon="-5.18105"/>
      <trkpt lat="36.77771" lon="-5.18142"/>
      <trkpt lat="36.77753" lon="-5.18191"/>
      <trkpt lat="36.77728" lon="-5.18246"/>
      <trkpt lat="36.77713" lon="-5.18291"/>
      <trkpt lat="36.77699" lon="-5.18334"/>
      <trkpt lat="36.77684" lon="-5.18378"/>
      <trkpt lat="36.7767" lon="-5.18416"/>
      <trkpt lat="36.77661" lon="-5.1845"/>
      <trkpt lat="36.77648" lon="-5.18479"/>
      <trkpt lat="36.77637" lon="-5.18507"/>
      <trkpt lat="36.77625" lon="-5.18536"/>
      <trkpt lat="36.77614" lon="-5.18571"/>
      <trkpt lat="36.77614" lon="-5.18601"/>
      <trkpt lat="36.77611" lon="-5.18629"/>
      <trkpt lat="36.77606" lon="-5.18662"/>
      <trkpt lat="36.77597" lon="-5.18698"/>
      <trkpt lat="36.77592" lon="-5.1873"/>
      <trkpt lat="36.7759" lon="-5.18751"/>
      <trkpt lat="36.77581" lon="-5.18793"/>
      <trkpt lat="36.7758" lon="-5.18831"/>
      <trkpt lat="36.77574" lon="-5.18868"/>
      <trkpt lat="36.77568" lon="-5.18908"/>
      <trkpt lat="36.77561" lon="-5.18943"/>
      <trkpt lat="36.77555" lon="-5.18978"/>
      <trkpt lat="36.77542" lon="-5.19004"/>
      <trkpt lat="36.77526" lon="-5.19025"/>
      <trkpt lat="36.77504" lon="-5.19039"/>
      <trkpt lat="36.77479" lon="-5.19047"/>
      <trkpt lat="36.77456" lon="-5.1905"/>
      <trkpt lat="36.77431" lon="-5.19039"/>
      <trkpt lat="36.77403" lon="-5.19028"/>
      <trkpt lat="36.77379" lon="-5.19015"/>
      <trkpt lat="36.77359" lon="-5.19008"/>
      <trkpt lat="36.7734" lon="-5.19001"/>
      <trkpt lat="36.77317" lon="-5.19003"/>
      <trkpt lat="36.77305" lon="-5.19012"/>
      <trkpt lat="36.77295" lon="-5.19017"/>
      <trkpt lat="36.77284" lon="-5.19015"/>
      <trkpt lat="36.77278" lon="-5.19007"/>
      <trkpt lat="36.77274" lon="-5.19"/>
      <trkpt lat="36.77264" lon="-5.18981"/>
      <trkpt lat="36.77249" lon="-5.18967"/>
      <trkpt lat="36.77231" lon="-5.18959"/>
      <trkpt lat="36.7721" lon="-5.18944"/>
      <trkpt lat="36.77188" lon="-5.18935"/>
      <trkpt lat="36.77174" lon="-5.1893"/>
      <trkpt lat="36.77157" lon="-5.18925"/>
      <trkpt lat="36.7714" lon="-5.18921"/>
      <trkpt lat="36.77126" lon="-5.18914"/>
      <trkpt lat="36.77091" lon="-5.18893"/>
      <trkpt lat="36.77063" lon="-5.18877"/>
      <trkpt lat="36.77041" lon="-5.18869"/>
      <trkpt lat="36.77025" lon="-5.18856"/>
      <trkpt lat="36.77004" lon="-5.18844"/>
      <trkpt lat="36.76988" lon="-5.18841"/>
      <trkpt lat="36.76964" lon="-5.18842"/>
      <trkpt lat="36.76941" lon="-5.18847"/>
      <trkpt lat="36.76912" lon="-5.18842"/>
      <trkpt lat="36.76881" lon="-5.18828"/>
      <trkpt lat="36.76841" lon="-5.18816"/>
      <trkpt lat="36.76811" lon="-5.18802"/>
      <trkpt lat="36.76779" lon="-5.18786"/>
      <trkpt lat="36.76747" lon="-5.18771"/>
      <trkpt lat="36.76721" lon="-5.18762"/>
      <trkpt lat="36.76706" lon="-5.18756"/>
      <trkpt lat="36.76672" lon="-5.1872"/>
      <trkpt lat="36.76644" lon="-5.18692"/>
      <trkpt lat="36.76621" lon="-5.18659"/>
      <trkpt lat="36.76601" lon="-5.18634"/>
      <trkpt lat="36.7658" lon="-5.18622"/>
      <trkpt lat="36.76544" lon="-5.1861"/>
      <trkpt lat="36.76518" lon="-5.18603"/>
      <trkpt lat="36.76484" lon="-5.186"/>
      <trkpt lat="36.76475" lon="-5.18595"/>
      <trkpt lat="36.76473" lon="-5.18584"/>
      <trkpt lat="36.76459" lon="-5.18577"/>
      <trkpt lat="36.76447" lon="-5.18571"/>
      <trkpt lat="36.76435" lon="-5.18571"/>
      <trkpt lat="36.76425" lon="-5.18581"/>
      <trkpt lat="36.76419" lon="-5.18585"/>
      <trkpt lat="36.7642" lon="-5.18569"/>
      <trkpt lat="36.76414" lon="-5.18564"/>
      <trkpt lat="36.76404" lon="-5.18564"/>
      <trkpt lat="36.76394" lon="-5.18584"/>
      <trkpt lat="36.76382" lon="-5.18602"/>
      <trkpt lat="36.76376" lon="-5.18617"/>
      <trkpt lat="36.76366" lon="-5.18631"/>
      <trkpt lat="36.7635" lon="-5.18645"/>
      <trkpt lat="36.76335" lon="-5.18661"/>
      <trkpt lat="36.76313" lon="-5.18691"/>
      <trkpt lat="36.76299" lon="-5.18707"/>
      <trkpt lat="36.7628" lon="-5.1873"/>
      <trkpt lat="36.76262" lon="-5.18752"/>
      <trkpt lat="36.76237" lon="-5.18771"/>
      <trkpt lat="36.7621" lon="-5.18788"/>
      <trkpt lat="36.76186" lon="-5.18805"/>
      <trkpt lat="36.76162" lon="-5.18823"/>
      <trkpt lat="36.76145" lon="-5.18838"/>
      <trkpt lat="36.76126" lon="-5.18856"/>
      <trkpt lat="36.76096" lon="-5.18902"/>
      <trkpt lat="36.76065" lon="-5.18954"/>
      <trkpt lat="36.76056" lon="-5.18974"/>
      <trkpt lat="36.76031" lon="-5.18959"/>
      <trkpt lat="36.76009" lon="-5.18952"/>
      <trkpt lat="36.75998" lon="-5.18953"/>
      <trkpt lat="36.75984" lon="-5.1897"/>
      <trkpt lat="36.7597" lon="-5.18988"/>
      <trkpt lat="36.75953" lon="-5.19011"/>
      <trkpt lat="36.75933" lon="-5.19052"/>
      <trkpt lat="36.75927" lon="-5.19101"/>
      <trkpt lat="36.75889" lon="-5.19072"/>
      <trkpt lat="36.7585" lon="-5.1904"/>
      <trkpt lat="36.75825" lon="-5.1902"/>
      <trkpt lat="36.75782" lon="-5.18984"/>
      <trkpt lat="36.7575" lon="-5.18956"/>
      <trkpt lat="36.75726" lon="-5.18934"/>
      <trkpt lat="36.75696" lon="-5.18907"/>
      <trkpt lat="36.75657" lon="-5.18871"/>
      <trkpt lat="36.75625" lon="-5.1885"/>
      <trkpt lat="36.756" lon="-5.1883"/>
      <trkpt lat="36.75581" lon="-5.18859"/>
      <trkpt lat="36.75559" lon="-5.18894"/>
      <trkpt lat="36.75585" lon="-5.1891"/>
      <trkpt lat="36.75616" lon="-5.18929"/>
      <trkpt lat="36.75646" lon="-5.1895"/>
      <trkpt lat="36.75671" lon="-5.18975"/>
      <trkpt lat="36.75691" lon="-5.19005"/>
      <trkpt lat="36.75709" lon="-5.1904"/>
      <trkpt lat="36.75725" lon="-5.19071"/>
      <trkpt lat="36.75747" lon="-5.19111"/>
      <trkpt lat="36.75775" lon="-5.19131"/>
      <trkpt lat="36.75816" lon="-5.1916"/>
      <trkpt lat="36.75846" lon="-5.19176"/>
      <trkpt lat="36.75892" lon="-5.192"/>
      <trkpt lat="36.75924" lon="-5.19209"/>
      <trkpt lat="36.75975" lon="-5.19222"/>
      <trkpt lat="36.75997" lon="-5.19223"/>
      <trkpt lat="36.76035" lon="-5.19262"/>
      <trkpt lat="36.76064" lon="-5.19289"/>
      <trkpt lat="36.76095" lon="-5.19306"/>
      <trkpt lat="36.76125" lon="-5.19336"/>
      <trkpt lat="36.76156" lon="-5.19366"/>
      <trkpt lat="36.76174" lon="-5.1939"/>
      <trkpt lat="36.76176" lon="-5.19416"/>
      <trkpt lat="36.76187" lon="-5.19424"/>
      <trkpt lat="36.76206" lon="-5.19438"/>
      <trkpt lat="36.76207" lon="-5.19438"/>
      <trkpt lat="36.76212" lon="-5.19454"/>
      <trkpt lat="36.76217" lon="-5.19476"/>
      <trkpt lat="36.76198" lon="-5.19504"/>
      <trkpt lat="36.76182" lon="-5.19529"/>
      <trkpt lat="36.76159" lon="-5.19544"/>
      <trkpt lat="36.76141" lon="-5.19564"/>
      <trkpt lat="36.7613" lon="-5.19577"/>
      <trkpt lat="36.76113" lon="-5.19606"/>
      <trkpt lat="36.761" lon="-5.19648"/>
      <trkpt lat="36.76086" lon="-5.19674"/>
      <trkpt lat="36.76065" lon="-5.19702"/>
      <trkpt lat="36.76046" lon="-5.19733"/>
      <trkpt lat="36.76032" lon="-5.19758"/>
      <trkpt lat="36.76052" lon="-5.19774"/>
      <trkpt lat="36.76074" lon="-5.19806"/>
      <trkpt lat="36.76087" lon="-5.19842"/>
      <trkpt lat="36.76091" lon="-5.19897"/>
      <trkpt lat="36.76093" lon="-5.19938"/>
      <trkpt lat="36.76097" lon="-5.19998"/>
      <trkpt lat="36.76102" lon="-5.20063"/>
      <trkpt lat="36.76102" lon="-5.20126"/>
      <trkpt lat="36.76108" lon="-5.20172"/>
      <trkpt lat="36.7611" lon="-5.20188"/>
      <trkpt lat="36.76114" lon="-5.20195"/>
      <trkpt lat="36.76058" lon="-5.20204"/>
      <trkpt lat="36.76015" lon="-5.20204"/>
      <trkpt lat="36.7598" lon="-5.20209"/>
      <trkpt lat="36.7594" lon="-5.20211"/>
      <trkpt lat="36.75887" lon="-5.2021"/>
      <trkpt lat="36.75859" lon="-5.20208"/>
      <trkpt lat="36.75825" lon="-5.20205"/>
      <trkpt lat="36.75792" lon="-5.20205"/>
      <trkpt lat="36.7577" lon="-5.20204"/>
      <trkpt lat="36.75755" lon="-5.20201"/>
      <trkpt lat="36.75748" lon="-5.20196"/>
      <trkpt lat="36.75747" lon="-5.2018"/>
      <trkpt lat="36.75736" lon="-5.2017"/>
      <trkpt lat="36.75718" lon="-5.2018"/>
      <trkpt lat="36.75704" lon="-5.20195"/>
      <trkpt lat="36.75687" lon="-5.20203"/>
      <trkpt lat="36.75679" lon="-5.20203"/>
      <trkpt lat="36.75664" lon="-5.20187"/>
      <trkpt lat="36.75636" lon="-5.20187"/>
      <trkpt lat="36.75595" lon="-5.20189"/>
      <trkpt lat="36.7557" lon="-5.2018"/>
      <trkpt lat="36.75543" lon="-5.20174"/>
      <trkpt lat="36.7551" lon="-5.20171"/>
      <trkpt lat="36.75487" lon="-5.2017"/>
      <trkpt lat="36.75475" lon="-5.20165"/>
      <trkpt lat="36.75462" lon="-5.20168"/>
      <trkpt lat="36.75454" lon="-5.2017"/>
      <trkpt lat="36.75452" lon="-5.20181"/>
      <trkpt lat="36.75449" lon="-5.20224"/>
      <trkpt lat="36.7545" lon="-5.2026"/>
      <trkpt lat="36.75448" lon="-5.20289"/>
      <trkpt lat="36.75454" lon="-5.20321"/>
      <trkpt lat="36.75466" lon="-5.20361"/>
      <trkpt lat="36.75471" lon="-5.20388"/>
      <trkpt lat="36.75476" lon="-5.20418"/>
      <trkpt lat="36.75476" lon="-5.20432"/>
      <trkpt lat="36.7547" lon="-5.20441"/>
      <trkpt lat="36.75466" lon="-5.20448"/>
      <trkpt lat="36.75455" lon="-5.20456"/>
      <trkpt lat="36.75437" lon="-5.20467"/>
      <trkpt lat="36.75424" lon="-5.20481"/>
      <trkpt lat="36.75415" lon="-5.20505"/>
      <trkpt lat="36.75413" lon="-5.20516"/>
      <trkpt lat="36.75403" lon="-5.20527"/>
      <trkpt lat="36.75387" lon="-5.20548"/>
      <trkpt lat="36.75378" lon="-5.2057"/>
      <trkpt lat="36.75364" lon="-5.20599"/>
      <trkpt lat="36.75352" lon="-5.2063"/>
      <trkpt lat="36.75336" lon="-5.2066"/>
      <trkpt lat="36.75327" lon="-5.20692"/>
      <trkpt lat="36.75326" lon="-5.20724"/>
      <trkpt lat="36.75319" lon="-5.20751"/>
      <trkpt lat="36.75311" lon="-5.20771"/>
      <trkpt lat="36.75306" lon="-5.20786"/>
      <trkpt lat="36.75301" lon="-5.20808"/>
      <trkpt lat="36.75294" lon="-5.20822"/>
      <trkpt lat="36.75295" lon="-5.2085"/>
      <trkpt lat="36.753" lon="-5.20866"/>
      <trkpt lat="36.75299" lon="-5.20895"/>
      <trkpt lat="36.75295" lon="-5.20936"/>
      <trkpt lat="36.75291" lon="-5.20975"/>
      <trkpt lat="36.75282" lon="-5.21007"/>
      <trkpt lat="36.75274" lon="-5.21031"/>
      <trkpt lat="36.75269" lon="-5.21061"/>
      <trkpt lat="36.75262" lon="-5.21091"/>
      <trkpt lat="36.75256" lon="-5.2112"/>
      <trkpt lat="36.7525" lon="-5.21152"/>
      <trkpt lat="36.75246" lon="-5.2119"/>
      <trkpt lat="36.75241" lon="-5.21226"/>
      <trkpt lat="36.75242" lon="-5.21267"/>
      <trkpt lat="36.75236" lon="-5.21305"/>
      <trkpt lat="36.75234" lon="-5.21336"/>
      <trkpt lat="36.7524" lon="-5.21369"/>
      <trkpt lat="36.7524" lon="-5.21407"/>
      <trkpt lat="36.75243" lon="-5.21434"/>
      <trkpt lat="36.75246" lon="-5.21474"/>
      <trkpt lat="36.75251" lon="-5.21492"/>
      <trkpt lat="36.75255" lon="-5.21513"/>
      <trkpt lat="36.75253" lon="-5.21536"/>
      <trkpt lat="36.75248" lon="-5.21568"/>
      <trkpt lat="36.75243" lon="-5.216"/>
      <trkpt lat="36.75244" lon="-5.21647"/>
      <trkpt lat="36.75241" lon="-5.21679"/>
      <trkpt lat="36.75237" lon="-5.21712"/>
      <trkpt lat="36.75234" lon="-5.21742"/>
      <trkpt lat="36.75226" lon="-5.21772"/>
      <trkpt lat="36.75221" lon="-5.21782"/>
      <trkpt lat="36.75214" lon="-5.21787"/>
      <trkpt lat="36.75206" lon="-5.21793"/>
      <trkpt lat="36.75204" lon="-5.21804"/>
      <trkpt lat="36.75208" lon="-5.21816"/>
      <trkpt lat="36.75216" lon="-5.21825"/>
      <trkpt lat="36.75224" lon="-5.21837"/>
      <trkpt lat="36.75237" lon="-5.21863"/>
      <trkpt lat="36.75256" lon="-5.21893"/>
      <trkpt lat="36.75271" lon="-5.21919"/>
      <trkpt lat="36.75275" lon="-5.21934"/>
      <trkpt lat="36.75288" lon="-5.21964"/>
      <trkpt lat="36.75301" lon="-5.21981"/>
      <trkpt lat="36.75305" lon="-5.21998"/>
      <trkpt lat="36.75302" lon="-5.22011"/>
      <trkpt lat="36.75294" lon="-5.22012"/>
      <trkpt lat="36.75272" lon="-5.22011"/>
      <trkpt lat="36.75253" lon="-5.22013"/>
      <trkpt lat="36.75231" lon="-5.22018"/>
      <trkpt lat="36.75213" lon="-5.22031"/>
      <trkpt lat="36.75192" lon="-5.22051"/>
      <trkpt lat="36.75172" lon="-5.22064"/>
      <trkpt lat="36.7514" lon="-5.22081"/>
      <trkpt lat="36.75116" lon="-5.22096"/>
      <trkpt lat="36.75095" lon="-5.22105"/>
      <trkpt lat="36.75079" lon="-5.22117"/>
      <trkpt lat="36.75053" lon="-5.22137"/>
      <trkpt lat="36.75026" lon="-5.22154"/>
      <trkpt lat="36.75008" lon="-5.22163"/>
      <trkpt lat="36.74994" lon="-5.22175"/>
      <trkpt lat="36.74981" lon="-5.22188"/>
      <trkpt lat="36.74969" lon="-5.22202"/>
      <trkpt lat="36.74961" lon="-5.22202"/>
      <trkpt lat="36.74951" lon="-5.22205"/>
      <trkpt lat="36.74941" lon="-5.2221"/>
      <trkpt lat="36.74927" lon="-5.22217"/>
      <trkpt lat="36.74908" lon="-5.22215"/>
      <trkpt lat="36.74885" lon="-5.22217"/>
      <trkpt lat="36.74857" lon="-5.22214"/>
      <trkpt lat="36.7484" lon="-5.22215"/>
      <trkpt lat="36.74833" lon="-5.22217"/>
      <trkpt lat="36.74824" lon="-5.22223"/>
      <trkpt lat="36.74817" lon="-5.22231"/>
      <trkpt lat="36.7481" lon="-5.22243"/>
      <trkpt lat="36.74801" lon="-5.22259"/>
      <trkpt lat="36.7479" lon="-5.22275"/>
      <trkpt lat="36.7478" lon="-5.22289"/>
      <trkpt lat="36.74772" lon="-5.22305"/>
      <trkpt lat="36.74764" lon="-5.22324"/>
      <trkpt lat="36.74758" lon="-5.2234"/>
      <trkpt lat="36.74749" lon="-5.22356"/>
      <trkpt lat="36.74736" lon="-5.22372"/>
      <trkpt lat="36.74724" lon="-5.22382"/>
      <trkpt lat="36.74717" lon="-5.22391"/>
      <trkpt lat="36.74711" lon="-5.22403"/>
      <trkpt lat="36.74704" lon="-5.22415"/>
      <trkpt lat="36.74694" lon="-5.22424"/>
      <trkpt lat="36.74687" lon="-5.22431"/>
      <trkpt lat="36.74681" lon="-5.22437"/>
      <trkpt lat="36.74672" lon="-5.22456"/>
      <trkpt lat="36.7466" lon="-5.22473"/>
      <trkpt lat="36.74647" lon="-5.22487"/>
      <trkpt lat="36.74635" lon="-5.22502"/>
      <trkpt lat="36.74621" lon="-5.22521"/>
      <trkpt lat="36.74614" lon="-5.22531"/>
      <trkpt lat="36.74597" lon="-5.22551"/>
      <trkpt lat="36.74569" lon="-5.22569"/>
      <trkpt lat="36.74561" lon="-5.22577"/>
      <trkpt lat="36.74555" lon="-5.22584"/>
      <trkpt lat="36.7455" lon="-5.22593"/>
      <trkpt lat="36.74541" lon="-5.22621"/>
      <trkpt lat="36.74529" lon="-5.22659"/>
      <trkpt lat="36.74517" lon="-5.22677"/>
      <trkpt lat="36.74507" lon="-5.22693"/>
      <trkpt lat="36.74495" lon="-5.22705"/>
      <trkpt lat="36.74489" lon="-5.22721"/>
      <trkpt lat="36.74482" lon="-5.22741"/>
      <trkpt lat="36.74471" lon="-5.22754"/>
      <trkpt lat="36.74457" lon="-5.22753"/>
      <trkpt lat="36.74446" lon="-5.22756"/>
      <trkpt lat="36.74438" lon="-5.22759"/>
      <trkpt lat="36.74431" lon="-5.22767"/>
      <trkpt lat="36.74427" lon="-5.22777"/>
      <trkpt lat="36.74426" lon="-5.22787"/>
      <trkpt lat="36.74421" lon="-5.22803"/>
      <trkpt lat="36.7442" lon="-5.22818"/>
      <trkpt lat="36.74417" lon="-5.22826"/>
      <trkpt lat="36.74411" lon="-5.2284"/>
      <trkpt lat="36.744" lon="-5.22858"/>
      <trkpt lat="36.74389" lon="-5.22867"/>
      <trkpt lat="36.74379" lon="-5.22875"/>
      <trkpt lat="36.74369" lon="-5.22882"/>
      <trkpt lat="36.74356" lon="-5.22894"/>
      <trkpt lat="36.74346" lon="-5.22913"/>
      <trkpt lat="36.74341" lon="-5.22934"/>
      <trkpt lat="36.74342" lon="-5.22958"/>
      <trkpt lat="36.7435" lon="-5.22983"/>
      <trkpt lat="36.74356" lon="-5.22993"/>
      <trkpt lat="36.74361" lon="-5.23003"/>
      <trkpt lat="36.74363" lon="-5.23019"/>
      <trkpt lat="36.74364" lon="-5.23034"/>
      <trkpt lat="36.74361" lon="-5.23063"/>
      <trkpt lat="36.74352" lon="-5.23073"/>
      <trkpt lat="36.74341" lon="-5.23082"/>
      <trkpt lat="36.74327" lon="-5.23096"/>
      <trkpt lat="36.74315" lon="-5.2311"/>
      <trkpt lat="36.74305" lon="-5.23124"/>
      <trkpt lat="36.7429" lon="-5.23146"/>
      <trkpt lat="36.74275" lon="-5.23172"/>
      <trkpt lat="36.74266" lon="-5.23188"/>
      <trkpt lat="36.74256" lon="-5.23202"/>
      <trkpt lat="36.74245" lon="-5.23213"/>
      <trkpt lat="36.74236" lon="-5.23223"/>
      <trkpt lat="36.7423" lon="-5.23236"/>
      <trkpt lat="36.74221" lon="-5.23251"/>
      <trkpt lat="36.74215" lon="-5.23266"/>
      <trkpt lat="36.74202" lon="-5.233"/>
      <trkpt lat="36.74191" lon="-5.2332"/>
      <trkpt lat="36.7418" lon="-5.23331"/>
      <trkpt lat="36.74174" lon="-5.23335"/>
      <trkpt lat="36.74164" lon="-5.23347"/>
      <trkpt lat="36.74152" lon="-5.23363"/>
      <trkpt lat="36.74141" lon="-5.23374"/>
      <trkpt lat="36.74118" lon="-5.23384"/>
      <trkpt lat="36.74104" lon="-5.234"/>
      <trkpt lat="36.74103" lon="-5.2342"/>
      <trkpt lat="36.74113" lon="-5.23441"/>
      <trkpt lat="36.74119" lon="-5.23456"/>
      <trkpt lat="36.74119" lon="-5.23466"/>
      <trkpt lat="36.74117" lon="-5.23481"/>
      <trkpt lat="36.74112" lon="-5.23491"/>
      <trkpt lat="36.74104" lon="-5.23498"/>
      <trkpt lat="36.74099" lon="-5.23504"/>
      <trkpt lat="36.74097" lon="-5.23521"/>
      <trkpt lat="36.74098" lon="-5.2354"/>
      <trkpt lat="36.741" lon="-5.23562"/>
      <trkpt lat="36.741" lon="-5.23587"/>
      <trkpt lat="36.74101" lon="-5.23598"/>
      <trkpt lat="36.74105" lon="-5.23612"/>
      <trkpt lat="36.74105" lon="-5.23623"/>
      <trkpt lat="36.74105" lon="-5.23639"/>
      <trkpt lat="36.74104" lon="-5.23654"/>
      <trkpt lat="36.74105" lon="-5.23682"/>
      <trkpt lat="36.74103" lon="-5.23702"/>
      <trkpt lat="36.74098" lon="-5.23718"/>
      <trkpt lat="36.74097" lon="-5.23743"/>
      <trkpt lat="36.74079" lon="-5.23782"/>
      <trkpt lat="36.74059" lon="-5.23831"/>
      <trkpt lat="36.74047" lon="-5.23865"/>
      <trkpt lat="36.74029" lon="-5.23895"/>
      <trkpt lat="36.74015" lon="-5.23927"/>
      <trkpt lat="36.74002" lon="-5.23967"/>
      <trkpt lat="36.73988" lon="-5.24001"/>
      <trkpt lat="36.73971" lon="-5.24031"/>
      <trkpt lat="36.73951" lon="-5.24068"/>
      <trkpt lat="36.73945" lon="-5.24097"/>
      <trkpt lat="36.73946" lon="-5.2412"/>
      <trkpt lat="36.73953" lon="-5.24134"/>
      <trkpt lat="36.7396" lon="-5.24145"/>
      <trkpt lat="36.73969" lon="-5.24162"/>
      <trkpt lat="36.73972" lon="-5.24176"/>
      <trkpt lat="36.73964" lon="-5.24182"/>
      <trkpt lat="36.73958" lon="-5.24184"/>
      <trkpt lat="36.73963" lon="-5.24192"/>
      <trkpt lat="36.73975" lon="-5.24206"/>
      <trkpt lat="36.73985" lon="-5.24221"/>
      <trkpt lat="36.73982" lon="-5.24224"/>
      <trkpt lat="36.73974" lon="-5.24223"/>
      <trkpt lat="36.73966" lon="-5.24221"/>
      <trkpt lat="36.7396" lon="-5.24224"/>
      <trkpt lat="36.7398" lon="-5.2424"/>
      <trkpt lat="36.73961" lon="-5.24249"/>
      <trkpt lat="36.7395" lon="-5.24257"/>
      <trkpt lat="36.73947" lon="-5.24263"/>
      <trkpt lat="36.73951" lon="-5.24266"/>
      <trkpt lat="36.73976" lon="-5.24264"/>
      <trkpt lat="36.73999" lon="-5.24272"/>
      <trkpt lat="36.74015" lon="-5.24277"/>
      <trkpt lat="36.73996" lon="-5.24282"/>
      <trkpt lat="36.73979" lon="-5.2429"/>
      <trkpt lat="36.7396" lon="-5.24294"/>
      <trkpt lat="36.73986" lon="-5.24301"/>
      <trkpt lat="36.74008" lon="-5.24307"/>
      <trkpt lat="36.74028" lon="-5.24311"/>
      <trkpt lat="36.74034" lon="-5.24322"/>
      <trkpt lat="36.74028" lon="-5.24343"/>
      <trkpt lat="36.74011" lon="-5.2438"/>
      <trkpt lat="36.73998" lon="-5.24411"/>
      <trkpt lat="36.73987" lon="-5.24427"/>
      <trkpt lat="36.73969" lon="-5.24453"/>
      <trkpt lat="36.7395" lon="-5.24491"/>
      <trkpt lat="36.73969" lon="-5.24541"/>
      <trkpt lat="36.7398" lon="-5.24576"/>
      <trkpt lat="36.73992" lon="-5.24625"/>
      <trkpt lat="36.7399" lon="-5.24657"/>
      <trkpt lat="36.73974" lon="-5.2471"/>
      <trkpt lat="36.73957" lon="-5.24743"/>
      <trkpt lat="36.7394" lon="-5.24791"/>
      <trkpt lat="36.73917" lon="-5.24834"/>
      <trkpt lat="36.73898" lon="-5.24879"/>
      <trkpt lat="36.73885" lon="-5.24902"/>
      <trkpt lat="36.73859" lon="-5.24922"/>
      <trkpt lat="36.73871" lon="-5.24939"/>
      <trkpt lat="36.73915" lon="-5.24923"/>
      <trkpt lat="36.7394" lon="-5.24909"/>
      <trkpt lat="36.73976" lon="-5.24906"/>
      <trkpt lat="36.74007" lon="-5.24899"/>
      <trkpt lat="36.74028" lon="-5.24894"/>
      <trkpt lat="36.74057" lon="-5.24888"/>
      <trkpt lat="36.74089" lon="-5.24884"/>
      <trkpt lat="36.74113" lon="-5.24886"/>
      <trkpt lat="36.74139" lon="-5.24896"/>
      <trkpt lat="36.74171" lon="-5.24908"/>
      <trkpt lat="36.74195" lon="-5.2491"/>
      <trkpt lat="36.7422" lon="-5.24923"/>
      <trkpt lat="36.74247" lon="-5.24924"/>
      <trkpt lat="36.74269" lon="-5.24928"/>
      <trkpt lat="36.74287" lon="-5.24934"/>
      <trkpt lat="36.74304" lon="-5.24935"/>
      <trkpt lat="36.74329" lon="-5.24934"/>
      <trkpt lat="36.74359" lon="-5.24934"/>
      <trkpt lat="36.74372" lon="-5.24933"/>
      <trkpt lat="36.74385" lon="-5.24941"/>
      <trkpt lat="36.74405" lon="-5.24957"/>
      <trkpt lat="36.74414" lon="-5.24969"/>
      <trkpt lat="36.74422" lon="-5.24978"/>
      <trkpt lat="36.74442" lon="-5.24994"/>
      <trkpt lat="36.7446" lon="-5.25014"/>
      <trkpt lat="36.74475" lon="-5.25029"/>
      <trkpt lat="36.74487" lon="-5.25057"/>
      <trkpt lat="36.74484" lon="-5.25079"/>
      <trkpt lat="36.74479" lon="-5.25116"/>
      <trkpt lat="36.74474" lon="-5.25144"/>
      <trkpt lat="36.74471" lon="-5.25164"/>
      <trkpt lat="36.7447" lon="-5.25181"/>
      <trkpt lat="36.74478" lon="-5.25195"/>
      <trkpt lat="36.74485" lon="-5.25224"/>
      <trkpt lat="36.74493" lon="-5.25241"/>
      <trkpt lat="36.74507" lon="-5.25274"/>
      <trkpt lat="36.74516" lon="-5.2529"/>
      <trkpt lat="36.74528" lon="-5.25323"/>
      <trkpt lat="36.74534" lon="-5.25362"/>
      <trkpt lat="36.74536" lon="-5.25393"/>
      <trkpt lat="36.74537" lon="-5.25408"/>
      <trkpt lat="36.74544" lon="-5.25446"/>
      <trkpt lat="36.74547" lon="-5.25466"/>
      <trkpt lat="36.74556" lon="-5.25509"/>
      <trkpt lat="36.74558" lon="-5.25526"/>
      <trkpt lat="36.74558" lon="-5.25548"/>
      <trkpt lat="36.74554" lon="-5.25581"/>
      <trkpt lat="36.74547" lon="-5.25606"/>
      <trkpt lat="36.74533" lon="-5.25646"/>
      <trkpt lat="36.74527" lon="-5.25667"/>
      <trkpt lat="36.74518" lon="-5.25702"/>
      <trkpt lat="36.74512" lon="-5.25741"/>
      <trkpt lat="36.74504" lon="-5.25771"/>
      <trkpt lat="36.74511" lon="-5.258"/>
      <trkpt lat="36.74514" lon="-5.25814"/>
      <trkpt lat="36.74511" lon="-5.25824"/>
      <trkpt lat="36.74499" lon="-5.25847"/>
      <trkpt lat="36.74495" lon="-5.25856"/>
      <trkpt lat="36.7449" lon="-5.25867"/>
      <trkpt lat="36.74484" lon="-5.25881"/>
      <trkpt lat="36.74479" lon="-5.25911"/>
      <trkpt lat="36.74476" lon="-5.25935"/>
      <trkpt lat="36.74475" lon="-5.25946"/>
      <trkpt lat="36.74475" lon="-5.25963"/>
      <trkpt lat="36.74478" lon="-5.25984"/>
      <trkpt lat="36.74485" lon="-5.25984"/>
      <trkpt lat="36.74487" lon="-5.25996"/>
      <trkpt lat="36.74494" lon="-5.26009"/>
      <trkpt lat="36.74502" lon="-5.26035"/>
      <trkpt lat="36.74508" lon="-5.2604"/>
      <trkpt lat="36.74517" lon="-5.26059"/>
      <trkpt lat="36.74524" lon="-5.26059"/>
      <trkpt lat="36.74515" lon="-5.26073"/>
      <trkpt lat="36.74506" lon="-5.2608"/>
      <trkpt lat="36.7449" lon="-5.26087"/>
      <trkpt lat="36.74475" lon="-5.26093"/>
      <trkpt lat="36.74462" lon="-5.26097"/>
      <trkpt lat="36.74453" lon="-5.26111"/>
      <trkpt lat="36.74439" lon="-5.26134"/>
      <trkpt lat="36.74428" lon="-5.26139"/>
      <trkpt lat="36.74425" lon="-5.26158"/>
      <trkpt lat="36.74425" lon="-5.26176"/>
      <trkpt lat="36.74431" lon="-5.26203"/>
      <trkpt lat="36.74438" lon="-5.26217"/>
      <trkpt lat="36.74442" lon="-5.26233"/>
      <trkpt lat="36.74442" lon="-5.26246"/>
      <trkpt lat="36.74435" lon="-5.26259"/>
      <trkpt lat="36.74428" lon="-5.26275"/>
      <trkpt lat="36.74413" lon="-5.26281"/>
      <trkpt lat="36.744" lon="-5.26291"/>
      <trkpt lat="36.74389" lon="-5.26305"/>
      <trkpt lat="36.74376" lon="-5.2631"/>
      <trkpt lat="36.7437" lon="-5.26321"/>
      <trkpt lat="36.74361" lon="-5.26323"/>
      <trkpt lat="36.74349" lon="-5.26328"/>
      <trkpt lat="36.74336" lon="-5.26333"/>
      <trkpt lat="36.74318" lon="-5.2633"/>
      <trkpt lat="36.74307" lon="-5.26331"/>
      <trkpt lat="36.74296" lon="-5.26331"/>
      <trkpt lat="36.74291" lon="-5.26341"/>
      <trkpt lat="36.74289" lon="-5.26358"/>
      <trkpt lat="36.74292" lon="-5.26384"/>
      <trkpt lat="36.74291" lon="-5.26393"/>
      <trkpt lat="36.74288" lon="-5.26405"/>
      <trkpt lat="36.74288" lon="-5.2642"/>
      <trkpt lat="36.74293" lon="-5.26431"/>
      <trkpt lat="36.74292" lon="-5.26446"/>
      <trkpt lat="36.74283" lon="-5.2647"/>
      <trkpt lat="36.74275" lon="-5.26489"/>
      <trkpt lat="36.74274" lon="-5.26499"/>
      <trkpt lat="36.74272" lon="-5.26513"/>
      <trkpt lat="36.74264" lon="-5.26523"/>
      <trkpt lat="36.74259" lon="-5.26531"/>
      <trkpt lat="36.74246" lon="-5.26547"/>
      <trkpt lat="36.74237" lon="-5.26555"/>
      <trkpt lat="36.7423" lon="-5.26571"/>
      <trkpt lat="36.74229" lon="-5.26583"/>
      <trkpt lat="36.74222" lon="-5.26594"/>
      <trkpt lat="36.74216" lon="-5.26608"/>
      <trkpt lat="36.74206" lon="-5.26623"/>
      <trkpt lat="36.74203" lon="-5.26632"/>
      <trkpt lat="36.74194" lon="-5.26641"/>
      <trkpt lat="36.74177" lon="-5.26643"/>
      <trkpt lat="36.74169" lon="-5.26642"/>
      <trkpt lat="36.74159" lon="-5.26654"/>
      <trkpt lat="36.74153" lon="-5.26654"/>
      <trkpt lat="36.74143" lon="-5.26673"/>
      <trkpt lat="36.74138" lon="-5.2669"/>
      <trkpt lat="36.74137" lon="-5.26703"/>
      <trkpt lat="36.74131" lon="-5.26716"/>
      <trkpt lat="36.74124" lon="-5.26723"/>
      <trkpt lat="36.74121" lon="-5.26734"/>
      <trkpt lat="36.74117" lon="-5.26737"/>
      <trkpt lat="36.74112" lon="-5.26743"/>
      <trkpt lat="36.74111" lon="-5.26753"/>
      <trkpt lat="36.74103" lon="-5.26755"/>
      <trkpt lat="36.74103" lon="-5.26776"/>
      <trkpt lat="36.74097" lon="-5.26782"/>
      <trkpt lat="36.7409" lon="-5.26792"/>
      <trkpt lat="36.74088" lon="-5.26796"/>
      <trkpt lat="36.74073" lon="-5.26778"/>
      <trkpt lat="36.7405" lon="-5.26743"/>
      <trkpt lat="36.74043" lon="-5.26741"/>
      <trkpt lat="36.74039" lon="-5.26742"/>
      <trkpt lat="36.74035" lon="-5.26747"/>
      <trkpt lat="36.74028" lon="-5.26762"/>
      <trkpt lat="36.74015" lon="-5.26757"/>
      <trkpt lat="36.74009" lon="-5.2676"/>
      <trkpt lat="36.73999" lon="-5.26751"/>
      <trkpt lat="36.73989" lon="-5.26739"/>
      <trkpt lat="36.7398" lon="-5.26729"/>
      <trkpt lat="36.73969" lon="-5.26718"/>
      <trkpt lat="36.73958" lon="-5.26704"/>
      <trkpt lat="36.73943" lon="-5.26693"/>
      <trkpt lat="36.73931" lon="-5.26699"/>
      <trkpt lat="36.73922" lon="-5.2671"/>
      <trkpt lat="36.73917" lon="-5.26716"/>
      <trkpt lat="36.73904" lon="-5.26728"/>
      <trkpt lat="36.73896" lon="-5.26736"/>
      <trkpt lat="36.73885" lon="-5.26747"/>
      <trkpt lat="36.73871" lon="-5.26756"/>
      <trkpt lat="36.73867" lon="-5.26766"/>
      <trkpt lat="36.73863" lon="-5.26768"/>
      <trkpt lat="36.73857" lon="-5.26767"/>
      <trkpt lat="36.7385" lon="-5.26772"/>
      <trkpt lat="36.73846" lon="-5.26778"/>
      <trkpt lat="36.73845" lon="-5.26783"/>
      <trkpt lat="36.73839" lon="-5.26789"/>
      <trkpt lat="36.73834" lon="-5.26801"/>
      <trkpt lat="36.73829" lon="-5.26814"/>
      <trkpt lat="36.73823" lon="-5.26822"/>
      <trkpt lat="36.73816" lon="-5.26833"/>
      <trkpt lat="36.73809" lon="-5.26841"/>
      <trkpt lat="36.73799" lon="-5.26851"/>
      <trkpt lat="36.73788" lon="-5.26861"/>
      <trkpt lat="36.73782" lon="-5.26872"/>
      <trkpt lat="36.73774" lon="-5.26866"/>
      <trkpt lat="36.73758" lon="-5.26856"/>
      <trkpt lat="36.73752" lon="-5.26847"/>
      <trkpt lat="36.73751" lon="-5.26833"/>
      <trkpt lat="36.73753" lon="-5.26818"/>
      <trkpt lat="36.73742" lon="-5.268"/>
      <trkpt lat="36.7373" lon="-5.26794"/>
      <trkpt lat="36.73717" lon="-5.26785"/>
      <trkpt lat="36.73707" lon="-5.26776"/>
      <trkpt lat="36.73701" lon="-5.26763"/>
      <trkpt lat="36.73691" lon="-5.26754"/>
      <trkpt lat="36.73678" lon="-5.26749"/>
      <trkpt lat="36.73671" lon="-5.26744"/>
      <trkpt lat="36.73661" lon="-5.26739"/>
      <trkpt lat="36.73651" lon="-5.26733"/>
      <trkpt lat="36.73645" lon="-5.26731"/>
      <trkpt lat="36.73636" lon="-5.26716"/>
      <trkpt lat="36.73635" lon="-5.26701"/>
      <trkpt lat="36.73628" lon="-5.26693"/>
      <trkpt lat="36.7362" lon="-5.26684"/>
      <trkpt lat="36.73613" lon="-5.26671"/>
      <trkpt lat="36.73607" lon="-5.26658"/>
      <trkpt lat="36.73603" lon="-5.26655"/>
      <trkpt lat="36.73597" lon="-5.26662"/>
      <trkpt lat="36.73591" lon="-5.26677"/>
      <trkpt lat="36.7358" lon="-5.26687"/>
      <trkpt lat="36.73566" lon="-5.26692"/>
      <trkpt lat="36.73551" lon="-5.26692"/>
      <trkpt lat="36.73553" lon="-5.26663"/>
      <trkpt lat="36.73553" lon="-5.26632"/>
      <trkpt lat="36.7355" lon="-5.26619"/>
      <trkpt lat="36.73543" lon="-5.26602"/>
      <trkpt lat="36.73534" lon="-5.26582"/>
      <trkpt lat="36.73521" lon="-5.26552"/>
      <trkpt lat="36.73512" lon="-5.26535"/>
      <trkpt lat="36.73501" lon="-5.26518"/>
      <trkpt lat="36.73493" lon="-5.26493"/>
      <trkpt lat="36.73477" lon="-5.26474"/>
      <trkpt lat="36.73467" lon="-5.26463"/>
      <trkpt lat="36.73454" lon="-5.26442"/>
      <trkpt lat="36.7344" lon="-5.26427"/>
      <trkpt lat="36.7343" lon="-5.26417"/>
      <trkpt lat="36.73426" lon="-5.264"/>
      <trkpt lat="36.73425" lon="-5.2637"/>
      <trkpt lat="36.73427" lon="-5.26341"/>
      <trkpt lat="36.73429" lon="-5.26312"/>
      <trkpt lat="36.73436" lon="-5.26284"/>
      <trkpt lat="36.73453" lon="-5.26257"/>
      <trkpt lat="36.73465" lon="-5.26244"/>
      <trkpt lat="36.73473" lon="-5.26237"/>
      <trkpt lat="36.73483" lon="-5.26225"/>
      <trkpt lat="36.73495" lon="-5.262"/>
      <trkpt lat="36.73499" lon="-5.26169"/>
      <trkpt lat="36.73497" lon="-5.26133"/>
      <trkpt lat="36.73494" lon="-5.26119"/>
      <trkpt lat="36.73495" lon="-5.26115"/>
      <trkpt lat="36.73487" lon="-5.26098"/>
      <trkpt lat="36.73487" lon="-5.26076"/>
      <trkpt lat="36.73487" lon="-5.26047"/>
      <trkpt lat="36.73488" lon="-5.26023"/>
      <trkpt lat="36.73489" lon="-5.26023"/>
      <trkpt lat="36.73495" lon="-5.26"/>
      <trkpt lat="36.73498" lon="-5.25974"/>
      <trkpt lat="36.73497" lon="-5.25963"/>
      <trkpt lat="36.73501" lon="-5.25953"/>
      <trkpt lat="36.73504" lon="-5.2593"/>
      <trkpt lat="36.73505" lon="-5.25907"/>
      <trkpt lat="36.73498" lon="-5.25894"/>
      <trkpt lat="36.73499" lon="-5.25892"/>
      <trkpt lat="36.73496" lon="-5.25857"/>
      <trkpt lat="36.73493" lon="-5.25836"/>
      <trkpt lat="36.73486" lon="-5.25814"/>
      <trkpt lat="36.73485" lon="-5.25802"/>
      <trkpt lat="36.73472" lon="-5.25794"/>
      <trkpt lat="36.73448" lon="-5.25783"/>
      <trkpt lat="36.7346" lon="-5.25758"/>
      <trkpt lat="36.73466" lon="-5.25732"/>
      <trkpt lat="36.7347" lon="-5.25711"/>
      <trkpt lat="36.73476" lon="-5.25686"/>
      <trkpt lat="36.7348" lon="-5.25666"/>
      <trkpt lat="36.73474" lon="-5.25631"/>
      <trkpt lat="36.73472" lon="-5.256"/>
      <trkpt lat="36.73464" lon="-5.2558"/>
      <trkpt lat="36.73459" lon="-5.25563"/>
      <trkpt lat="36.73449" lon="-5.25549"/>
      <trkpt lat="36.73446" lon="-5.25534"/>
      <trkpt lat="36.73437" lon="-5.25517"/>
      <trkpt lat="36.73425" lon="-5.255"/>
      <trkpt lat="36.73419" lon="-5.25479"/>
      <trkpt lat="36.73416" lon="-5.25457"/>
      <trkpt lat="36.73412" lon="-5.25427"/>
      <trkpt lat="36.7341" lon="-5.25392"/>
      <trkpt lat="36.73406" lon="-5.25367"/>
      <trkpt lat="36.73404" lon="-5.2534"/>
      <trkpt lat="36.734" lon="-5.25302"/>
      <trkpt lat="36.73402" lon="-5.25279"/>
      <trkpt lat="36.73404" lon="-5.25262"/>
      <trkpt lat="36.73405" lon="-5.25241"/>
      <trkpt lat="36.73404" lon="-5.25227"/>
      <trkpt lat="36.73398" lon="-5.25215"/>
      <trkpt lat="36.73391" lon="-5.25209"/>
      <trkpt lat="36.73403" lon="-5.25202"/>
      <trkpt lat="36.73412" lon="-5.25196"/>
      <trkpt lat="36.73424" lon="-5.25186"/>
      <trkpt lat="36.73431" lon="-5.25183"/>
      <trkpt lat="36.73439" lon="-5.25177"/>
      <trkpt lat="36.73453" lon="-5.25171"/>
      <trkpt lat="36.73465" lon="-5.2517"/>
      <trkpt lat="36.73478" lon="-5.25168"/>
      <trkpt lat="36.73487" lon="-5.25166"/>
      <trkpt lat="36.73493" lon="-5.25162"/>
      <trkpt lat="36.73499" lon="-5.25152"/>
      <trkpt lat="36.73502" lon="-5.25139"/>
      <trkpt lat="36.73501" lon="-5.25131"/>
      <trkpt lat="36.73495" lon="-5.25123"/>
      <trkpt lat="36.73485" lon="-5.25117"/>
      <trkpt lat="36.73481" lon="-5.25113"/>
      <trkpt lat="36.73485" lon="-5.25108"/>
      <trkpt lat="36.73486" lon="-5.25096"/>
      <trkpt lat="36.73486" lon="-5.25081"/>
      <trkpt lat="36.73478" lon="-5.25071"/>
      <trkpt lat="36.73474" lon="-5.25064"/>
      <trkpt lat="36.73471" lon="-5.25053"/>
      <trkpt lat="36.73466" lon="-5.25044"/>
      <trkpt lat="36.73458" lon="-5.25029"/>
      <trkpt lat="36.73455" lon="-5.2502"/>
      <trkpt lat="36.73454" lon="-5.25006"/>
      <trkpt lat="36.73448" lon="-5.24979"/>
      <trkpt lat="36.73449" lon="-5.24957"/>
      <trkpt lat="36.73445" lon="-5.2494"/>
      <trkpt lat="36.73452" lon="-5.24927"/>
      <trkpt lat="36.73448" lon="-5.24908"/>
      <trkpt lat="36.73436" lon="-5.24902"/>
      <trkpt lat="36.73427" lon="-5.24893"/>
      <trkpt lat="36.73418" lon="-5.24886"/>
      <trkpt lat="36.7341" lon="-5.24878"/>
      <trkpt lat="36.73401" lon="-5.24877"/>
      <trkpt lat="36.73393" lon="-5.24873"/>
      <trkpt lat="36.73377" lon="-5.24879"/>
      <trkpt lat="36.73366" lon="-5.24877"/>
      <trkpt lat="36.73369" lon="-5.24867"/>
      <trkpt lat="36.73369" lon="-5.24862"/>
      <trkpt lat="36.73362" lon="-5.24859"/>
      <trkpt lat="36.73357" lon="-5.24852"/>
      <trkpt lat="36.73347" lon="-5.24854"/>
      <trkpt lat="36.73339" lon="-5.24853"/>
      <trkpt lat="36.73329" lon="-5.24854"/>
      <trkpt lat="36.73325" lon="-5.24854"/>
      <trkpt lat="36.73321" lon="-5.24852"/>
      <trkpt lat="36.73331" lon="-5.24844"/>
      <trkpt lat="36.73339" lon="-5.24836"/>
      <trkpt lat="36.73342" lon="-5.24833"/>
      <trkpt lat="36.73341" lon="-5.2483"/>
      <trkpt lat="36.73332" lon="-5.24837"/>
      <trkpt lat="36.73332" lon="-5.24837"/>
      <trkpt lat="36.73296" lon="-5.24857"/>
      <trkpt lat="36.73256" lon="-5.24869"/>
      <trkpt lat="36.73212" lon="-5.2488"/>
      <trkpt lat="36.73166" lon="-5.24883"/>
      <trkpt lat="36.73113" lon="-5.2489"/>
      <trkpt lat="36.73075" lon="-5.24896"/>
      <trkpt lat="36.73029" lon="-5.24906"/>
      <trkpt lat="36.73001" lon="-5.24908"/>
      <trkpt lat="36.72969" lon="-5.24911"/>
      <trkpt lat="36.72916" lon="-5.24917"/>
      <trkpt lat="36.72875" lon="-5.2493"/>
      <trkpt lat="36.72836" lon="-5.24945"/>
      <trkpt lat="36.72806" lon="-5.24967"/>
      <trkpt lat="36.72782" lon="-5.24984"/>
      <trkpt lat="36.72757" lon="-5.25001"/>
      <trkpt lat="36.72723" lon="-5.2502"/>
      <trkpt lat="36.72688" lon="-5.25028"/>
      <trkpt lat="36.72646" lon="-5.25027"/>
      <trkpt lat="36.726" lon="-5.25033"/>
      <trkpt lat="36.72557" lon="-5.2503"/>
      <trkpt lat="36.72507" lon="-5.25022"/>
      <trkpt lat="36.72463" lon="-5.2502"/>
      <trkpt lat="36.72419" lon="-5.25024"/>
      <trkpt lat="36.72375" lon="-5.25034"/>
      <trkpt lat="36.72322" lon="-5.25046"/>
      <trkpt lat="36.72295" lon="-5.25054"/>
      <trkpt lat="36.72267" lon="-5.25063"/>
      <trkpt lat="36.72227" lon="-5.25081"/>
      <trkpt lat="36.72199" lon="-5.25093"/>
      <trkpt lat="36.72181" lon="-5.251"/>
      <trkpt lat="36.72165" lon="-5.25093"/>
      <trkpt lat="36.72137" lon="-5.25085"/>
      <trkpt lat="36.72109" lon="-5.25079"/>
      <trkpt lat="36.72087" lon="-5.2507"/>
      <trkpt lat="36.72045" lon="-5.25065"/>
      <trkpt lat="36.72004" lon="-5.25059"/>
      <trkpt lat="36.71983" lon="-5.25058"/>
      <trkpt lat="36.71959" lon="-5.25054"/>
      <trkpt lat="36.7193" lon="-5.25054"/>
      <trkpt lat="36.719" lon="-5.2506"/>
      <trkpt lat="36.71864" lon="-5.25069"/>
      <trkpt lat="36.71821" lon="-5.25083"/>
      <trkpt lat="36.71787" lon="-5.25097"/>
      <trkpt lat="36.7176" lon="-5.25102"/>
      <trkpt lat="36.7174" lon="-5.25097"/>
      <trkpt lat="36.7172" lon="-5.25094"/>
      <trkpt lat="36.71707" lon="-5.25104"/>
      <trkpt lat="36.71688" lon="-5.25111"/>
      <trkpt lat="36.71666" lon="-5.2511"/>
      <trkpt lat="36.71627" lon="-5.25102"/>
      <trkpt lat="36.71603" lon="-5.25094"/>
      <trkpt lat="36.71576" lon="-5.25089"/>
      <trkpt lat="36.71564" lon="-5.25086"/>
      <trkpt lat="36.71544" lon="-5.25081"/>
      <trkpt lat="36.71523" lon="-5.25072"/>
      <trkpt lat="36.71506" lon="-5.25069"/>
      <trkpt lat="36.7148" lon="-5.25069"/>
      <trkpt lat="36.71473" lon="-5.25083"/>
      <trkpt lat="36.71473" lon="-5.25097"/>
      <trkpt lat="36.71469" lon="-5.25106"/>
      <trkpt lat="36.71446" lon="-5.25105"/>
      <trkpt lat="36.71419" lon="-5.25096"/>
      <trkpt lat="36.71391" lon="-5.2508"/>
      <trkpt lat="36.71363" lon="-5.25062"/>
      <trkpt lat="36.71347" lon="-5.25043"/>
      <trkpt lat="36.71328" lon="-5.25033"/>
      <trkpt lat="36.71303" lon="-5.25021"/>
      <trkpt lat="36.71276" lon="-5.25007"/>
      <trkpt lat="36.71265" lon="-5.24991"/>
      <trkpt lat="36.71265" lon="-5.24971"/>
      <trkpt lat="36.71262" lon="-5.24954"/>
      <trkpt lat="36.71256" lon="-5.24932"/>
      <trkpt lat="36.71248" lon="-5.24909"/>
      <trkpt lat="36.71258" lon="-5.24895"/>
      <trkpt lat="36.71281" lon="-5.24892"/>
      <trkpt lat="36.71293" lon="-5.24889"/>
      <trkpt lat="36.71297" lon="-5.24873"/>
      <trkpt lat="36.71298" lon="-5.24857"/>
      <trkpt lat="36.71295" lon="-5.24828"/>
      <trkpt lat="36.71292" lon="-5.24806"/>
      <trkpt lat="36.71287" lon="-5.24787"/>
      <trkpt lat="36.71271" lon="-5.24763"/>
      <trkpt lat="36.71266" lon="-5.24745"/>
      <trkpt lat="36.71263" lon="-5.24723"/>
      <trkpt lat="36.71259" lon="-5.247"/>
      <trkpt lat="36.71251" lon="-5.24669"/>
      <trkpt lat="36.71245" lon="-5.24647"/>
      <trkpt lat="36.71241" lon="-5.24625"/>
      <trkpt lat="36.71237" lon="-5.24606"/>
      <trkpt lat="36.71234" lon="-5.24575"/>
      <trkpt lat="36.71232" lon="-5.24554"/>
      <trkpt lat="36.71257" lon="-5.24537"/>
      <trkpt lat="36.71273" lon="-5.24524"/>
      <trkpt lat="36.71284" lon="-5.24501"/>
      <trkpt lat="36.71291" lon="-5.24468"/>
      <trkpt lat="36.71295" lon="-5.24446"/>
      <trkpt lat="36.71298" lon="-5.24425"/>
      <trkpt lat="36.71301" lon="-5.24398"/>
      <trkpt lat="36.71306" lon="-5.24367"/>
      <trkpt lat="36.71309" lon="-5.24336"/>
      <trkpt lat="36.71313" lon="-5.24312"/>
      <trkpt lat="36.71321" lon="-5.24272"/>
      <trkpt lat="36.71323" lon="-5.24245"/>
      <trkpt lat="36.71328" lon="-5.2422"/>
      <trkpt lat="36.71339" lon="-5.24179"/>
      <trkpt lat="36.71359" lon="-5.24143"/>
      <trkpt lat="36.71367" lon="-5.24122"/>
      <trkpt lat="36.71372" lon="-5.24107"/>
      <trkpt lat="36.7138" lon="-5.24097"/>
      <trkpt lat="36.71387" lon="-5.24089"/>
      <trkpt lat="36.71395" lon="-5.24084"/>
      <trkpt lat="36.71416" lon="-5.24074"/>
      <trkpt lat="36.71432" lon="-5.24069"/>
      <trkpt lat="36.71431" lon="-5.24072"/>
      <trkpt lat="36.71442" lon="-5.24044"/>
      <trkpt lat="36.71455" lon="-5.24015"/>
      <trkpt lat="36.71457" lon="-5.24003"/>
      <trkpt lat="36.71454" lon="-5.23994"/>
      <trkpt lat="36.71446" lon="-5.23987"/>
      <trkpt lat="36.71441" lon="-5.23979"/>
      <trkpt lat="36.71443" lon="-5.23973"/>
      <trkpt lat="36.71442" lon="-5.2396"/>
      <trkpt lat="36.71457" lon="-5.23923"/>
      <trkpt lat="36.71466" lon="-5.239"/>
      <trkpt lat="36.71467" lon="-5.23879"/>
      <trkpt lat="36.71466" lon="-5.23863"/>
      <trkpt lat="36.71475" lon="-5.23853"/>
      <trkpt lat="36.71487" lon="-5.23835"/>
      <trkpt lat="36.71501" lon="-5.23814"/>
      <trkpt lat="36.71498" lon="-5.23801"/>
      <trkpt lat="36.71492" lon="-5.23787"/>
      <trkpt lat="36.71497" lon="-5.23776"/>
      <trkpt lat="36.71498" lon="-5.23758"/>
      <trkpt lat="36.71509" lon="-5.23743"/>
      <trkpt lat="36.71523" lon="-5.23722"/>
      <trkpt lat="36.71539" lon="-5.23704"/>
      <trkpt lat="36.71548" lon="-5.23686"/>
      <trkpt lat="36.71557" lon="-5.23669"/>
      <trkpt lat="36.71563" lon="-5.23644"/>
      <trkpt lat="36.7157" lon="-5.23625"/>
      <trkpt lat="36.7158" lon="-5.23601"/>
      <trkpt lat="36.71583" lon="-5.23588"/>
      <trkpt lat="36.7158" lon="-5.23567"/>
      <trkpt lat="36.71573" lon="-5.23546"/>
      <trkpt lat="36.71574" lon="-5.23535"/>
      <trkpt lat="36.7158" lon="-5.23528"/>
      <trkpt lat="36.71595" lon="-5.23519"/>
      <trkpt lat="36.71611" lon="-5.2351"/>
      <trkpt lat="36.71625" lon="-5.23497"/>
      <trkpt lat="36.71644" lon="-5.23477"/>
      <trkpt lat="36.7165" lon="-5.23465"/>
      <trkpt lat="36.71653" lon="-5.2345"/>
      <trkpt lat="36.71655" lon="-5.23431"/>
      <trkpt lat="36.71652" lon="-5.23411"/>
      <trkpt lat="36.71645" lon="-5.2339"/>
      <trkpt lat="36.71635" lon="-5.2336"/>
      <trkpt lat="36.71627" lon="-5.23341"/>
      <trkpt lat="36.71624" lon="-5.23323"/>
      <trkpt lat="36.71623" lon="-5.23299"/>
      <trkpt lat="36.71624" lon="-5.23279"/>
      <trkpt lat="36.71626" lon="-5.23254"/>
      <trkpt lat="36.71629" lon="-5.23229"/>
      <trkpt lat="36.71637" lon="-5.23208"/>
      <trkpt lat="36.71643" lon="-5.23189"/>
      <trkpt lat="36.71657" lon="-5.2318"/>
      <trkpt lat="36.71667" lon="-5.23176"/>
      <trkpt lat="36.71679" lon="-5.23166"/>
      <trkpt lat="36.71694" lon="-5.23159"/>
      <trkpt lat="36.71707" lon="-5.23151"/>
      <trkpt lat="36.7172" lon="-5.23145"/>
      <trkpt lat="36.71733" lon="-5.23146"/>
      <trkpt lat="36.71746" lon="-5.23145"/>
      <trkpt lat="36.71763" lon="-5.23133"/>
      <trkpt lat="36.71773" lon="-5.23128"/>
      <trkpt lat="36.71775" lon="-5.23107"/>
      <trkpt lat="36.71794" lon="-5.23068"/>
      <trkpt lat="36.71799" lon="-5.23053"/>
      <trkpt lat="36.71808" lon="-5.23029"/>
      <trkpt lat="36.71812" lon="-5.23007"/>
      <trkpt lat="36.71816" lon="-5.22982"/>
      <trkpt lat="36.71819" lon="-5.22966"/>
      <trkpt lat="36.71809" lon="-5.22944"/>
      <trkpt lat="36.71803" lon="-5.22935"/>
      <trkpt lat="36.71804" lon="-5.22925"/>
      <trkpt lat="36.71811" lon="-5.22914"/>
      <trkpt lat="36.71813" lon="-5.229"/>
      <trkpt lat="36.71803" lon="-5.2288"/>
      <trkpt lat="36.71804" lon="-5.2287"/>
      <trkpt lat="36.71811" lon="-5.22863"/>
      <trkpt lat="36.71818" lon="-5.22857"/>
      <trkpt lat="36.71826" lon="-5.22852"/>
      <trkpt lat="36.71829" lon="-5.22843"/>
      <trkpt lat="36.7183" lon="-5.22839"/>
      <trkpt lat="36.71839" lon="-5.22827"/>
      <trkpt lat="36.71864" lon="-5.22803"/>
      <trkpt lat="36.71897" lon="-5.22775"/>
      <trkpt lat="36.71924" lon="-5.22747"/>
      <trkpt lat="36.71941" lon="-5.22732"/>
      <trkpt lat="36.71956" lon="-5.22715"/>
      <trkpt lat="36.71961" lon="-5.227"/>
      <trkpt lat="36.71969" lon="-5.2269"/>
      <trkpt lat="36.71976" lon="-5.22682"/>
      <trkpt lat="36.71978" lon="-5.22673"/>
      <trkpt lat="36.71985" lon="-5.22667"/>
      <trkpt lat="36.72007" lon="-5.22648"/>
      <trkpt lat="36.72023" lon="-5.22635"/>
      <trkpt lat="36.72046" lon="-5.22631"/>
      <trkpt lat="36.72065" lon="-5.22616"/>
      <trkpt lat="36.72088" lon="-5.22589"/>
      <trkpt lat="36.72104" lon="-5.22562"/>
      <trkpt lat="36.72113" lon="-5.22543"/>
      <trkpt lat="36.72122" lon="-5.22529"/>
      <trkpt lat="36.72132" lon="-5.2252"/>
      <trkpt lat="36.72141" lon="-5.22511"/>
      <trkpt lat="36.72144" lon="-5.22503"/>
      <trkpt lat="36.72143" lon="-5.2249"/>
      <trkpt lat="36.72143" lon="-5.22478"/>
      <trkpt lat="36.72146" lon="-5.22473"/>
      <trkpt lat="36.72158" lon="-5.22463"/>
      <trkpt lat="36.72162" lon="-5.22453"/>
      <trkpt lat="36.72168" lon="-5.22445"/>
      <trkpt lat="36.72173" lon="-5.22442"/>
      <trkpt lat="36.72174" lon="-5.22443"/>
      <trkpt lat="36.72179" lon="-5.22436"/>
      <trkpt lat="36.72188" lon="-5.22427"/>
      <trkpt lat="36.72199" lon="-5.22414"/>
      <trkpt lat="36.72213" lon="-5.22396"/>
      <trkpt lat="36.7222" lon="-5.22382"/>
      <trkpt lat="36.72222" lon="-5.22366"/>
      <trkpt lat="36.72226" lon="-5.22347"/>
      <trkpt lat="36.7223" lon="-5.22333"/>
      <trkpt lat="36.72236" lon="-5.2232"/>
      <trkpt lat="36.72242" lon="-5.22312"/>
      <trkpt lat="36.72251" lon="-5.22305"/>
      <trkpt lat="36.7226" lon="-5.22299"/>
      <trkpt lat="36.7227" lon="-5.22296"/>
      <trkpt lat="36.72278" lon="-5.22293"/>
      <trkpt lat="36.72282" lon="-5.22284"/>
      <trkpt lat="36.723" lon="-5.22262"/>
      <trkpt lat="36.72312" lon="-5.22233"/>
      <trkpt lat="36.72315" lon="-5.22221"/>
      <trkpt lat="36.72315" lon="-5.22208"/>
      <trkpt lat="36.72315" lon="-5.22195"/>
      <trkpt lat="36.72317" lon="-5.22183"/>
      <trkpt lat="36.72325" lon="-5.2216"/>
      <trkpt lat="36.72332" lon="-5.22131"/>
      <trkpt lat="36.7234" lon="-5.22103"/>
      <trkpt lat="36.72343" lon="-5.22085"/>
      <trkpt lat="36.72339" lon="-5.22061"/>
      <trkpt lat="36.72344" lon="-5.22045"/>
      <trkpt lat="36.72352" lon="-5.22031"/>
      <trkpt lat="36.72357" lon="-5.22015"/>
      <trkpt lat="36.72363" lon="-5.22001"/>
      <trkpt lat="36.72364" lon="-5.21975"/>
      <trkpt lat="36.72366" lon="-5.21953"/>
      <trkpt lat="36.72364" lon="-5.21933"/>
      <trkpt lat="36.72362" lon="-5.21911"/>
      <trkpt lat="36.72361" lon="-5.21892"/>
      <trkpt lat="36.72367" lon="-5.21874"/>
      <trkpt lat="36.72367" lon="-5.21857"/>
      <trkpt lat="36.72369" lon="-5.21835"/>
      <trkpt lat="36.72371" lon="-5.21826"/>
      <trkpt lat="36.72372" lon="-5.21786"/>
      <trkpt lat="36.72364" lon="-5.21768"/>
      <trkpt lat="36.72355" lon="-5.21748"/>
      <trkpt lat="36.72359" lon="-5.2173"/>
      <trkpt lat="36.72366" lon="-5.21705"/>
      <trkpt lat="36.72373" lon="-5.21677"/>
      <trkpt lat="36.72377" lon="-5.21653"/>
      <trkpt lat="36.72383" lon="-5.2163"/>
      <trkpt lat="36.72384" lon="-5.21608"/>
      <trkpt lat="36.72387" lon="-5.21577"/>
      <trkpt lat="36.72394" lon="-5.21559"/>
      <trkpt lat="36.72396" lon="-5.21543"/>
      <trkpt lat="36.72396" lon="-5.21533"/>
      <trkpt lat="36.72399" lon="-5.21516"/>
      <trkpt lat="36.72398" lon="-5.215"/>
      <trkpt lat="36.72401" lon="-5.2149"/>
      <trkpt lat="36.72408" lon="-5.21456"/>
      <trkpt lat="36.72421" lon="-5.21421"/>
      <trkpt lat="36.72428" lon="-5.21402"/>
      <trkpt lat="36.72435" lon="-5.21382"/>
      <trkpt lat="36.72442" lon="-5.21366"/>
      <trkpt lat="36.72444" lon="-5.21352"/>
      <trkpt lat="36.72446" lon="-5.21335"/>
      <trkpt lat="36.72447" lon="-5.21313"/>
      <trkpt lat="36.72454" lon="-5.21291"/>
      <trkpt lat="36.72461" lon="-5.21274"/>
      <trkpt lat="36.72466" lon="-5.21252"/>
      <trkpt lat="36.72469" lon="-5.21216"/>
      <trkpt lat="36.72471" lon="-5.2119"/>
      <trkpt lat="36.72473" lon="-5.21166"/>
      <trkpt lat="36.72472" lon="-5.21147"/>
      <trkpt lat="36.72466" lon="-5.21118"/>
      <trkpt lat="36.7246" lon="-5.2109"/>
      <trkpt lat="36.72464" lon="-5.21064"/>
      <trkpt lat="36.72468" lon="-5.21036"/>
      <trkpt lat="36.72477" lon="-5.21008"/>
      <trkpt lat="36.72478" lon="-5.20977"/>
      <trkpt lat="36.72478" lon="-5.20954"/>
      <trkpt lat="36.72476" lon="-5.20935"/>
      <trkpt lat="36.72473" lon="-5.20904"/>
      <trkpt lat="36.72464" lon="-5.20885"/>
      <trkpt lat="36.72452" lon="-5.20874"/>
      <trkpt lat="36.72438" lon="-5.20857"/>
      <trkpt lat="36.72421" lon="-5.20827"/>
      <trkpt lat="36.724" lon="-5.20793"/>
      <trkpt lat="36.72382" lon="-5.20762"/>
      <trkpt lat="36.72372" lon="-5.20746"/>
      <trkpt lat="36.72374" lon="-5.20725"/>
      <trkpt lat="36.72374" lon="-5.20708"/>
      <trkpt lat="36.7238" lon="-5.20703"/>
      <trkpt lat="36.72394" lon="-5.20681"/>
      <trkpt lat="36.72416" lon="-5.20657"/>
      <trkpt lat="36.72428" lon="-5.20625"/>
      <trkpt lat="36.72446" lon="-5.20583"/>
      <trkpt lat="36.72458" lon="-5.2055"/>
      <trkpt lat="36.72471" lon="-5.20526"/>
      <trkpt lat="36.72473" lon="-5.20508"/>
      <trkpt lat="36.72481" lon="-5.20497"/>
      <trkpt lat="36.72493" lon="-5.20493"/>
      <trkpt lat="36.725" lon="-5.20485"/>
      <trkpt lat="36.72511" lon="-5.20463"/>
      <trkpt lat="36.72519" lon="-5.20454"/>
      <trkpt lat="36.72522" lon="-5.20443"/>
      <trkpt lat="36.72528" lon="-5.2042"/>
      <trkpt lat="36.72533" lon="-5.20417"/>
      <trkpt lat="36.72543" lon="-5.20416"/>
      <trkpt lat="36.72565" lon="-5.20402"/>
      <trkpt lat="36.72583" lon="-5.20388"/>
      <trkpt lat="36.72594" lon="-5.20371"/>
      <trkpt lat="36.72596" lon="-5.20345"/>
      <trkpt lat="36.72595" lon="-5.20328"/>
      <trkpt lat="36.726" lon="-5.20308"/>
      <trkpt lat="36.72604" lon="-5.20293"/>
      <trkpt lat="36.72613" lon="-5.20288"/>
      <trkpt lat="36.7263" lon="-5.20282"/>
      <trkpt lat="36.72639" lon="-5.20278"/>
      <trkpt lat="36.72665" lon="-5.20243"/>
      <trkpt lat="36.72687" lon="-5.20212"/>
      <trkpt lat="36.72706" lon="-5.20186"/>
      <trkpt lat="36.72728" lon="-5.20166"/>
      <trkpt lat="36.72743" lon="-5.20143"/>
      <trkpt lat="36.72757" lon="-5.20115"/>
      <trkpt lat="36.72767" lon="-5.20089"/>
      <trkpt lat="36.72774" lon="-5.20081"/>
      <trkpt lat="36.72787" lon="-5.20092"/>
      <trkpt lat="36.72798" lon="-5.20105"/>
      <trkpt lat="36.72817" lon="-5.20114"/>
      <trkpt lat="36.72844" lon="-5.20115"/>
      <trkpt lat="36.72867" lon="-5.20118"/>
      <trkpt lat="36.72888" lon="-5.20128"/>
      <trkpt lat="36.72911" lon="-5.20141"/>
      <trkpt lat="36.72934" lon="-5.20154"/>
      <trkpt lat="36.72948" lon="-5.20158"/>
      <trkpt lat="36.72964" lon="-5.20166"/>
      <trkpt lat="36.72975" lon="-5.20177"/>
      <trkpt lat="36.72989" lon="-5.20181"/>
      <trkpt lat="36.73005" lon="-5.20184"/>
      <trkpt lat="36.7302" lon="-5.20187"/>
      <trkpt lat="36.73037" lon="-5.20186"/>
      <trkpt lat="36.73059" lon="-5.20188"/>
      <trkpt lat="36.7309" lon="-5.20192"/>
      <trkpt lat="36.7311" lon="-5.20192"/>
      <trkpt lat="36.73129" lon="-5.20189"/>
      <trkpt lat="36.73142" lon="-5.20179"/>
      <trkpt lat="36.73152" lon="-5.20153"/>
      <trkpt lat="36.73166" lon="-5.20135"/>
      <trkpt lat="36.73176" lon="-5.20124"/>
      <trkpt lat="36.73192" lon="-5.20113"/>
      <trkpt lat="36.73201" lon="-5.20109"/>
      <trkpt lat="36.73211" lon="-5.20107"/>
      <trkpt lat="36.7323" lon="-5.20112"/>
      <trkpt lat="36.73248" lon="-5.20117"/>
      <trkpt lat="36.73264" lon="-5.20124"/>
      <trkpt lat="36.73287" lon="-5.20134"/>
      <trkpt lat="36.7331" lon="-5.20145"/>
      <trkpt lat="36.73327" lon="-5.20145"/>
      <trkpt lat="36.73344" lon="-5.20135"/>
      <trkpt lat="36.73355" lon="-5.20128"/>
      <trkpt lat="36.73367" lon="-5.20115"/>
      <trkpt lat="36.73381" lon="-5.20104"/>
      <trkpt lat="36.73387" lon="-5.20097"/>
      <trkpt lat="36.73391" lon="-5.20085"/>
      <trkpt lat="36.73391" lon="-5.20072"/>
      <trkpt lat="36.73398" lon="-5.20067"/>
      <trkpt lat="36.73409" lon="-5.20063"/>
      <trkpt lat="36.73432" lon="-5.2006"/>
      <trkpt lat="36.73451" lon="-5.20055"/>
      <trkpt lat="36.73467" lon="-5.20051"/>
      <trkpt lat="36.7349" lon="-5.20044"/>
      <trkpt lat="36.73511" lon="-5.20037"/>
      <trkpt lat="36.73527" lon="-5.2004"/>
      <trkpt lat="36.73538" lon="-5.20032"/>
      <trkpt lat="36.73546" lon="-5.20011"/>
      <trkpt lat="36.73562" lon="-5.19996"/>
      <trkpt lat="36.73577" lon="-5.19986"/>
      <trkpt lat="36.73593" lon="-5.19975"/>
      <trkpt lat="36.73625" lon="-5.1996"/>
      <trkpt lat="36.73652" lon="-5.19941"/>
      <trkpt lat="36.73679" lon="-5.19926"/>
      <trkpt lat="36.73695" lon="-5.19914"/>
      <trkpt lat="36.73716" lon="-5.19913"/>
      <trkpt lat="36.73741" lon="-5.19916"/>
      <trkpt lat="36.73751" lon="-5.19911"/>
      <trkpt lat="36.73766" lon="-5.199"/>
      <trkpt lat="36.73781" lon="-5.19881"/>
      <trkpt lat="36.73795" lon="-5.19864"/>
      <trkpt lat="36.73796" lon="-5.19859"/>
      <trkpt lat="36.73795" lon="-5.19848"/>
      <trkpt lat="36.73807" lon="-5.19832"/>
      <trkpt lat="36.73816" lon="-5.19807"/>
      <trkpt lat="36.73815" lon="-5.19804"/>
      <trkpt lat="36.73819" lon="-5.1979"/>
      <trkpt lat="36.73824" lon="-5.19776"/>
      <trkpt lat="36.73834" lon="-5.19754"/>
      <trkpt lat="36.73842" lon="-5.19743"/>
      <trkpt lat="36.73852" lon="-5.19742"/>
      <trkpt lat="36.73863" lon="-5.19736"/>
      <trkpt lat="36.73884" lon="-5.19734"/>
      <trkpt lat="36.7389" lon="-5.19741"/>
      <trkpt lat="36.73905" lon="-5.19742"/>
      <trkpt lat="36.73925" lon="-5.1974"/>
      <trkpt lat="36.7394" lon="-5.19737"/>
      <trkpt lat="36.73959" lon="-5.19742"/>
      <trkpt lat="36.73978" lon="-5.19741"/>
      <trkpt lat="36.74005" lon="-5.19742"/>
      <trkpt lat="36.74034" lon="-5.19749"/>
      <trkpt lat="36.74055" lon="-5.19757"/>
      <trkpt lat="36.74084" lon="-5.19751"/>
      <trkpt lat="36.74104" lon="-5.19746"/>
      <trkpt lat="36.74115" lon="-5.19738"/>
      <trkpt lat="36.7412" lon="-5.19728"/>
      <trkpt lat="36.74132" lon="-5.19712"/>
      <trkpt lat="36.74144" lon="-5.19702"/>
      <trkpt lat="36.74159" lon="-5.19687"/>
      <trkpt lat="36.74168" lon="-5.1968"/>
      <trkpt lat="36.74182" lon="-5.19667"/>
      <trkpt lat="36.74199" lon="-5.1966"/>
      <trkpt lat="36.74221" lon="-5.19648"/>
      <trkpt lat="36.74241" lon="-5.19637"/>
      <trkpt lat="36.74263" lon="-5.19619"/>
      <trkpt lat="36.74288" lon="-5.19604"/>
      <trkpt lat="36.74314" lon="-5.19585"/>
      <trkpt lat="36.7433" lon="-5.19568"/>
      <trkpt lat="36.74344" lon="-5.19551"/>
      <trkpt lat="36.74358" lon="-5.19533"/>
      <trkpt lat="36.7437" lon="-5.19516"/>
      <trkpt lat="36.74381" lon="-5.19499"/>
      <trkpt lat="36.74388" lon="-5.19488"/>
      <trkpt lat="36.7441" lon="-5.19481"/>
      <trkpt lat="36.74425" lon="-5.19473"/>
      <trkpt lat="36.74434" lon="-5.19466"/>
      <trkpt lat="36.74428" lon="-5.19453"/>
      <trkpt lat="36.74417" lon="-5.19446"/>
      <trkpt lat="36.74407" lon="-5.19444"/>
      <trkpt lat="36.744" lon="-5.19437"/>
      <trkpt lat="36.74398" lon="-5.19425"/>
      <trkpt lat="36.74388" lon="-5.19399"/>
      <trkpt lat="36.74373" lon="-5.19385"/>
      <trkpt lat="36.74362" lon="-5.19373"/>
      <trkpt lat="36.7435" lon="-5.19366"/>
      <trkpt lat="36.7434" lon="-5.19352"/>
      <trkpt lat="36.74332" lon="-5.19335"/>
      <trkpt lat="36.74325" lon="-5.19321"/>
      <trkpt lat="36.74321" lon="-5.19303"/>
      <trkpt lat="36.74316" lon="-5.1929"/>
      <trkpt lat="36.7431" lon="-5.19267"/>
      <trkpt lat="36.74302" lon="-5.19254"/>
      <trkpt lat="36.74299" lon="-5.19233"/>
      <trkpt lat="36.74297" lon="-5.19217"/>
      <trkpt lat="36.74294" lon="-5.19198"/>
      <trkpt lat="36.74288" lon="-5.19187"/>
      <trkpt lat="36.74272" lon="-5.1918"/>
      <trkpt lat="36.7425" lon="-5.19172"/>
      <trkpt lat="36.74227" lon="-5.19158"/>
      <trkpt lat="36.74199" lon="-5.19141"/>
      <trkpt lat="36.74189" lon="-5.19128"/>
      <trkpt lat="36.74175" lon="-5.19103"/>
      <trkpt lat="36.74174" lon="-5.19079"/>
      <trkpt lat="36.74183" lon="-5.19068"/>
      <trkpt lat="36.74204" lon="-5.19052"/>
      <trkpt lat="36.74222" lon="-5.19029"/>
      <trkpt lat="36.74237" lon="-5.19007"/>
      <trkpt lat="36.74256" lon="-5.18978"/>
      <trkpt lat="36.74265" lon="-5.18966"/>
      <trkpt lat="36.74281" lon="-5.18943"/>
      <trkpt lat="36.74288" lon="-5.1893"/>
      <trkpt lat="36.74296" lon="-5.1893"/>
      <trkpt lat="36.74308" lon="-5.18931"/>
      <trkpt lat="36.74315" lon="-5.18947"/>
      <trkpt lat="36.74316" lon="-5.18975"/>
      <trkpt lat="36.74314" lon="-5.18997"/>
      <trkpt lat="36.7432" lon="-5.19009"/>
      <trkpt lat="36.74333" lon="-5.19024"/>
      <trkpt lat="36.74339" lon="-5.19029"/>
      <trkpt lat="36.74341" lon="-5.19042"/>
      <trkpt lat="36.74357" lon="-5.19049"/>
      <trkpt lat="36.74365" lon="-5.19039"/>
      <trkpt lat="36.74375" lon="-5.19037"/>
      <trkpt lat="36.74387" lon="-5.19048"/>
      <trkpt lat="36.74397" lon="-5.19057"/>
      <trkpt lat="36.74409" lon="-5.19056"/>
      <trkpt lat="36.74408" lon="-5.19044"/>
      <trkpt lat="36.74396" lon="-5.19033"/>
      <trkpt lat="36.74383" lon="-5.19017"/>
      <trkpt lat="36.74379" lon="-5.18998"/>
      <trkpt lat="36.74384" lon="-5.18986"/>
      <trkpt lat="36.74389" lon="-5.1898"/>
      <trkpt lat="36.74403" lon="-5.18978"/>
      <trkpt lat="36.74414" lon="-5.19004"/>
      <trkpt lat="36.74427" lon="-5.19026"/>
      <trkpt lat="36.74436" lon="-5.19055"/>
      <trkpt lat="36.74444" lon="-5.19075"/>
      <trkpt lat="36.7445" lon="-5.19095"/>
      <trkpt lat="36.74461" lon="-5.19109"/>
      <trkpt lat="36.74474" lon="-5.191"/>
      <trkpt lat="36.74485" lon="-5.19092"/>
      <trkpt lat="36.74504" lon="-5.19083"/>
      <trkpt lat="36.74515" lon="-5.19077"/>
      <trkpt lat="36.74536" lon="-5.19075"/>
      <trkpt lat="36.74551" lon="-5.19068"/>
      <trkpt lat="36.74565" lon="-5.1906"/>
      <trkpt lat="36.74584" lon="-5.19055"/>
      <trkpt lat="36.74599" lon="-5.19052"/>
      <trkpt lat="36.74604" lon="-5.19041"/>
      <trkpt lat="36.74606" lon="-5.19022"/>
      <trkpt lat="36.74605" lon="-5.18999"/>
      <trkpt lat="36.74604" lon="-5.18975"/>
      <trkpt lat="36.74608" lon="-5.18955"/>
      <trkpt lat="36.74613" lon="-5.18923"/>
      <trkpt lat="36.74618" lon="-5.18887"/>
      <trkpt lat="36.74626" lon="-5.18871"/>
      <trkpt lat="36.74641" lon="-5.18854"/>
      <trkpt lat="36.74656" lon="-5.18838"/>
      <trkpt lat="36.74678" lon="-5.18829"/>
      <trkpt lat="36.74704" lon="-5.18823"/>
      <trkpt lat="36.74733" lon="-5.18806"/>
      <trkpt lat="36.74758" lon="-5.18789"/>
      <trkpt lat="36.74779" lon="-5.18778"/>
      <trkpt lat="36.74793" lon="-5.1876"/>
      <trkpt lat="36.74806" lon="-5.18746"/>
      <trkpt lat="36.74819" lon="-5.18745"/>
      <trkpt lat="36.74841" lon="-5.18741"/>
      <trkpt lat="36.74863" lon="-5.18734"/>
      <trkpt lat="36.74875" lon="-5.18721"/>
      <trkpt lat="36.74889" lon="-5.18709"/>
      <trkpt lat="36.74905" lon="-5.18704"/>
      <trkpt lat="36.74921" lon="-5.18696"/>
      <trkpt lat="36.74942" lon="-5.18685"/>
      <trkpt lat="36.74966" lon="-5.1868"/>
      <trkpt lat="36.74985" lon="-5.18673"/>
      <trkpt lat="36.75004" lon="-5.18664"/>
      <trkpt lat="36.7502" lon="-5.18656"/>
      <trkpt lat="36.75033" lon="-5.18645"/>
      <trkpt lat="36.7504" lon="-5.18634"/>
      <trkpt lat="36.75036" lon="-5.18621"/>
      <trkpt lat="36.7502" lon="-5.18621"/>
      <trkpt lat="36.75001" lon="-5.18603"/>
      <trkpt lat="36.74983" lon="-5.18594"/>
      <trkpt lat="36.74967" lon="-5.18581"/>
      <trkpt lat="36.74949" lon="-5.18574"/>
      <trkpt lat="36.74918" lon="-5.18579"/>
      <trkpt lat="36.74894" lon="-5.18579"/>
      <trkpt lat="36.74875" lon="-5.18577"/>
      <trkpt lat="36.74848" lon="-5.18567"/>
      <trkpt lat="36.74804" lon="-5.18551"/>
      <trkpt lat="36.74787" lon="-5.1854"/>
      <trkpt lat="36.7476" lon="-5.1853"/>
      <trkpt lat="36.74736" lon="-5.18514"/>
      <trkpt lat="36.74724" lon="-5.18502"/>
      <trkpt lat="36.7471" lon="-5.1849"/>
      <trkpt lat="36.74702" lon="-5.18472"/>
      <trkpt lat="36.74703" lon="-5.18461"/>
      <trkpt lat="36.74721" lon="-5.18442"/>
      <trkpt lat="36.7473" lon="-5.18423"/>
      <trkpt lat="36.74736" lon="-5.18403"/>
      <trkpt lat="36.74729" lon="-5.18386"/>
      <trkpt lat="36.7472" lon="-5.18361"/>
      <trkpt lat="36.74714" lon="-5.18345"/>
      <trkpt lat="36.74707" lon="-5.18327"/>
      <trkpt lat="36.74699" lon="-5.18316"/>
      <trkpt lat="36.74691" lon="-5.18302"/>
      <trkpt lat="36.74686" lon="-5.18285"/>
      <trkpt lat="36.74683" lon="-5.1827"/>
      <trkpt lat="36.74688" lon="-5.18233"/>
      <trkpt lat="36.74692" lon="-5.18206"/>
      <trkpt lat="36.74688" lon="-5.18189"/>
      <trkpt lat="36.74686" lon="-5.18159"/>
      <trkpt lat="36.74691" lon="-5.18125"/>
      <trkpt lat="36.74697" lon="-5.18101"/>
      <trkpt lat="36.74693" lon="-5.18084"/>
      <trkpt lat="36.74689" lon="-5.18063"/>
      <trkpt lat="36.74689" lon="-5.18042"/>
      <trkpt lat="36.74694" lon="-5.18016"/>
      <trkpt lat="36.74696" lon="-5.18007"/>
      <trkpt lat="36.74694" lon="-5.1797"/>
      <trkpt lat="36.74692" lon="-5.1797"/>
      <trkpt lat="36.74692" lon="-5.17948"/>
      <trkpt lat="36.74683" lon="-5.17932"/>
      <trkpt lat="36.74677" lon="-5.17915"/>
      <trkpt lat="36.74676" lon="-5.17901"/>
      <trkpt lat="36.7466" lon="-5.17889"/>
      <trkpt lat="36.74654" lon="-5.17889"/>
      <trkpt lat="36.74645" lon="-5.17845"/>
      <trkpt lat="36.7464" lon="-5.17807"/>
      <trkpt lat="36.74638" lon="-5.17775"/>
      <trkpt lat="36.74641" lon="-5.17738"/>
      <trkpt lat="36.74648" lon="-5.17702"/>
      <trkpt lat="36.74646" lon="-5.17679"/>
      <trkpt lat="36.74643" lon="-5.17641"/>
      <trkpt lat="36.74639" lon="-5.17601"/>
      <trkpt lat="36.74641" lon="-5.17564"/>
      <trkpt lat="36.74653" lon="-5.17543"/>
      <trkpt lat="36.74652" lon="-5.17516"/>
      <trkpt lat="36.74643" lon="-5.17487"/>
      <trkpt lat="36.7464" lon="-5.17469"/>
      <trkpt lat="36.74628" lon="-5.1745"/>
      <trkpt lat="36.74607" lon="-5.17428"/>
      <trkpt lat="36.74588" lon="-5.17406"/>
      <trkpt lat="36.74573" lon="-5.17376"/>
      <trkpt lat="36.74562" lon="-5.17357"/>
      <trkpt lat="36.74549" lon="-5.17352"/>
      <trkpt lat="36.74528" lon="-5.17355"/>
      <trkpt lat="36.74506" lon="-5.17361"/>
      <trkpt lat="36.74494" lon="-5.17358"/>
      <trkpt lat="36.74481" lon="-5.1735"/>
      <trkpt lat="36.74475" lon="-5.17336"/>
      <trkpt lat="36.7447" lon="-5.17326"/>
      <trkpt lat="36.74467" lon="-5.1731"/>
      <trkpt lat="36.74457" lon="-5.17307"/>
      <trkpt lat="36.74447" lon="-5.17306"/>
      <trkpt lat="36.74437" lon="-5.173"/>
      <trkpt lat="36.74431" lon="-5.17299"/>
      <trkpt lat="36.74422" lon="-5.17293"/>
      <trkpt lat="36.74414" lon="-5.17287"/>
      <trkpt lat="36.74407" lon="-5.17285"/>
      <trkpt lat="36.74404" lon="-5.17282"/>
      <trkpt lat="36.74399" lon="-5.17272"/>
      <trkpt lat="36.74393" lon="-5.17255"/>
      <trkpt lat="36.74386" lon="-5.17247"/>
      <trkpt lat="36.7438" lon="-5.17241"/>
      <trkpt lat="36.74372" lon="-5.1724"/>
      <trkpt lat="36.74366" lon="-5.17234"/>
      <trkpt lat="36.74359" lon="-5.17223"/>
      <trkpt lat="36.74353" lon="-5.1721"/>
      <trkpt lat="36.74343" lon="-5.17192"/>
      <trkpt lat="36.74316" lon="-5.17166"/>
      <trkpt lat="36.74309" lon="-5.17155"/>
      <trkpt lat="36.74306" lon="-5.17146"/>
      <trkpt lat="36.743" lon="-5.17139"/>
      <trkpt lat="36.74288" lon="-5.17129"/>
      <trkpt lat="36.74275" lon="-5.17124"/>
      <trkpt lat="36.74272" lon="-5.17124"/>
      <trkpt lat="36.74264" lon="-5.17134"/>
      <trkpt lat="36.74264" lon="-5.17147"/>
      <trkpt lat="36.74263" lon="-5.17159"/>
      <trkpt lat="36.74264" lon="-5.1718"/>
      <trkpt lat="36.74261" lon="-5.17203"/>
      <trkpt lat="36.74252" lon="-5.17227"/>
      <trkpt lat="36.74245" lon="-5.17228"/>
      <trkpt lat="36.74245" lon="-5.17217"/>
      <trkpt lat="36.74249" lon="-5.172"/>
      <trkpt lat="36.74245" lon="-5.17182"/>
      <trkpt lat="36.7424" lon="-5.17163"/>
      <trkpt lat="36.74233" lon="-5.17144"/>
      <trkpt lat="36.74216" lon="-5.17128"/>
      <trkpt lat="36.74198" lon="-5.17113"/>
      <trkpt lat="36.74189" lon="-5.17098"/>
      <trkpt lat="36.74179" lon="-5.17082"/>
      <trkpt lat="36.7417" lon="-5.17064"/>
      <trkpt lat="36.74155" lon="-5.17067"/>
      <trkpt lat="36.74147" lon="-5.17071"/>
      <trkpt lat="36.74135" lon="-5.17068"/>
      <trkpt lat="36.74132" lon="-5.17058"/>
      <trkpt lat="36.74125" lon="-5.17051"/>
      <trkpt lat="36.74112" lon="-5.17049"/>
      <trkpt lat="36.74093" lon="-5.17043"/>
      <trkpt lat="36.74079" lon="-5.1704"/>
      <trkpt lat="36.74066" lon="-5.17045"/>
      <trkpt lat="36.74058" lon="-5.17047"/>
      <trkpt lat="36.74041" lon="-5.17052"/>
      <trkpt lat="36.74024" lon="-5.17041"/>
      <trkpt lat="36.74007" lon="-5.17039"/>
      <trkpt lat="36.73996" lon="-5.17038"/>
      <trkpt lat="36.73974" lon="-5.1704"/>
      <trkpt lat="36.7396" lon="-5.1704"/>
      <trkpt lat="36.73951" lon="-5.17031"/>
      <trkpt lat="36.73948" lon="-5.17025"/>
      <trkpt lat="36.73942" lon="-5.17026"/>
      <trkpt lat="36.73935" lon="-5.17031"/>
      <trkpt lat="36.73929" lon="-5.17046"/>
      <trkpt lat="36.73925" lon="-5.17034"/>
      <trkpt lat="36.73914" lon="-5.17033"/>
      <trkpt lat="36.73896" lon="-5.17036"/>
      <trkpt lat="36.73888" lon="-5.17025"/>
      <trkpt lat="36.73877" lon="-5.17014"/>
      <trkpt lat="36.73863" lon="-5.1702"/>
      <trkpt lat="36.73847" lon="-5.17028"/>
      <trkpt lat="36.73823" lon="-5.17019"/>
      <trkpt lat="36.73806" lon="-5.17006"/>
      <trkpt lat="36.73795" lon="-5.16998"/>
      <trkpt lat="36.73778" lon="-5.16997"/>
      <trkpt lat="36.73757" lon="-5.17006"/>
      <trkpt lat="36.73738" lon="-5.17007"/>
      <trkpt lat="36.73727" lon="-5.16993"/>
      <trkpt lat="36.73723" lon="-5.16978"/>
      <trkpt lat="36.7371" lon="-5.1697"/>
      <trkpt lat="36.73706" lon="-5.16931"/>
      <trkpt lat="36.73705" lon="-5.16929"/>
      <trkpt lat="36.73721" lon="-5.1691"/>
      <trkpt lat="36.73734" lon="-5.16903"/>
      <trkpt lat="36.73753" lon="-5.169"/>
      <trkpt lat="36.73764" lon="-5.16894"/>
      <trkpt lat="36.73769" lon="-5.16884"/>
      <trkpt lat="36.7374" lon="-5.16869"/>
      <trkpt lat="36.73722" lon="-5.16852"/>
      <trkpt lat="36.73705" lon="-5.16844"/>
      <trkpt lat="36.73692" lon="-5.16831"/>
      <trkpt lat="36.73675" lon="-5.16819"/>
      <trkpt lat="36.73662" lon="-5.16805"/>
      <trkpt lat="36.73654" lon="-5.16797"/>
      <trkpt lat="36.73655" lon="-5.16782"/>
      <trkpt lat="36.73657" lon="-5.16772"/>
      <trkpt lat="36.73658" lon="-5.16766"/>
      <trkpt lat="36.73656" lon="-5.16728"/>
      <trkpt lat="36.7365" lon="-5.16716"/>
      <trkpt lat="36.73644" lon="-5.16703"/>
      <trkpt lat="36.73633" lon="-5.16688"/>
      <trkpt lat="36.73613" lon="-5.16662"/>
      <trkpt lat="36.73598" lon="-5.16647"/>
      <trkpt lat="36.73573" lon="-5.16625"/>
      <trkpt lat="36.73551" lon="-5.16604"/>
      <trkpt lat="36.7353" lon="-5.16581"/>
      <trkpt lat="36.73515" lon="-5.1657"/>
      <trkpt lat="36.73502" lon="-5.16557"/>
      <trkpt lat="36.73485" lon="-5.16541"/>
      <trkpt lat="36.73478" lon="-5.16536"/>
      <trkpt lat="36.73471" lon="-5.16529"/>
      <trkpt lat="36.73463" lon="-5.1652"/>
      <trkpt lat="36.73456" lon="-5.16512"/>
      <trkpt lat="36.73451" lon="-5.16505"/>
      <trkpt lat="36.73446" lon="-5.16499"/>
      <trkpt lat="36.73441" lon="-5.16491"/>
      <trkpt lat="36.73436" lon="-5.16483"/>
      <trkpt lat="36.73436" lon="-5.16478"/>
      <trkpt lat="36.73443" lon="-5.16481"/>
      <trkpt lat="36.73449" lon="-5.1649"/>
      <trkpt lat="36.73458" lon="-5.165"/>
      <trkpt lat="36.73468" lon="-5.16508"/>
      <trkpt lat="36.73474" lon="-5.16514"/>
      <trkpt lat="36.73482" lon="-5.16517"/>
      <trkpt lat="36.73489" lon="-5.16517"/>
      <trkpt lat="36.73501" lon="-5.16509"/>
      <trkpt lat="36.7351" lon="-5.16492"/>
      <trkpt lat="36.73513" lon="-5.16482"/>
      <trkpt lat="36.73517" lon="-5.16471"/>
      <trkpt lat="36.73522" lon="-5.1646"/>
      <trkpt lat="36.73532" lon="-5.16443"/>
      <trkpt lat="36.73537" lon="-5.16437"/>
      <trkpt lat="36.73544" lon="-5.1643"/>
      <trkpt lat="36.73558" lon="-5.16418"/>
      <trkpt lat="36.73565" lon="-5.16418"/>
      <trkpt lat="36.73572" lon="-5.1642"/>
      <trkpt lat="36.73584" lon="-5.16424"/>
      <trkpt lat="36.73592" lon="-5.16426"/>
      <trkpt lat="36.73601" lon="-5.16426"/>
      <trkpt lat="36.73612" lon="-5.16426"/>
      <trkpt lat="36.73619" lon="-5.16431"/>
      <trkpt lat="36.73626" lon="-5.16433"/>
      <trkpt lat="36.73631" lon="-5.1644"/>
      <trkpt lat="36.73646" lon="-5.1645"/>
      <trkpt lat="36.73653" lon="-5.16453"/>
      <trkpt lat="36.7366" lon="-5.16456"/>
      <trkpt lat="36.73674" lon="-5.16462"/>
      <trkpt lat="36.73684" lon="-5.16462"/>
      <trkpt lat="36.73702" lon="-5.16467"/>
      <trkpt lat="36.73709" lon="-5.16468"/>
    </trkseg>
  </trk>
</gpx>
